<?xml version="1.0" encoding="UTF-8" standalone="no" ?>
<gpx xmlns="http://www.topografix.com/GPX/1/1" xmlns:xsi="http://www.w3.org/2001/XMLSchema-instance" xsi:schemaLocation="http://www.topografix.com/GPX/1/1 http://www.topografix.com/GPX/1/1/gpx.xsd" version="1.1" creator="VisuGPX - https://www.visugpx.com">
  <metadata>
    <name>30 kms Josselin - Guillac</name>
  </metadata>
  <trk>
    <name><![CDATA[Tracé 20241219-082500]]></name>
    <extensions>
      <line xmlns="http://www.topografix.com/GPX/gpx_style/0/2">
        <color>0000FF</color>
        <width>4</width>
      </line>
    </extensions>
    <trkseg>
      <trkpt lat="47.95107" lon="-2.54571">
        <ele>33.2</ele>
        <time>2024-12-19T07:25:00Z</time>
      </trkpt>
      <trkpt lat="47.95107" lon="-2.54571">
        <ele>33.2</ele>
        <time>2024-12-19T07:25:01Z</time>
      </trkpt>
      <trkpt lat="47.95107" lon="-2.54571">
        <ele>33.2</ele>
        <time>2024-12-19T07:25:02Z</time>
      </trkpt>
      <trkpt lat="47.95107" lon="-2.54571">
        <ele>33.2</ele>
        <time>2024-12-19T07:25:03Z</time>
      </trkpt>
      <trkpt lat="47.95107" lon="-2.54571">
        <ele>33.2</ele>
        <time>2024-12-19T07:25:04Z</time>
      </trkpt>
      <trkpt lat="47.95107" lon="-2.54571">
        <ele>33.2</ele>
        <time>2024-12-19T07:25:05Z</time>
      </trkpt>
      <trkpt lat="47.95107" lon="-2.54571">
        <ele>33.2</ele>
        <time>2024-12-19T07:25:06Z</time>
      </trkpt>
      <trkpt lat="47.95107" lon="-2.54571">
        <ele>33.2</ele>
        <time>2024-12-19T07:25:07Z</time>
      </trkpt>
      <trkpt lat="47.95107" lon="-2.54571">
        <ele>33.2</ele>
        <time>2024-12-19T07:25:08Z</time>
      </trkpt>
      <trkpt lat="47.95107" lon="-2.54571">
        <ele>33.2</ele>
        <time>2024-12-19T07:25:09Z</time>
      </trkpt>
      <trkpt lat="47.95107" lon="-2.54571">
        <ele>33.2</ele>
        <time>2024-12-19T07:25:10Z</time>
      </trkpt>
      <trkpt lat="47.95105" lon="-2.5457">
        <ele>33.2</ele>
        <time>2024-12-19T07:25:11Z</time>
      </trkpt>
      <trkpt lat="47.95105" lon="-2.5457">
        <ele>33.1</ele>
        <time>2024-12-19T07:25:12Z</time>
      </trkpt>
      <trkpt lat="47.95105" lon="-2.5457">
        <ele>33.1</ele>
        <time>2024-12-19T07:25:13Z</time>
      </trkpt>
      <trkpt lat="47.95104" lon="-2.5457">
        <ele>33.1</ele>
        <time>2024-12-19T07:25:14Z</time>
      </trkpt>
      <trkpt lat="47.95105" lon="-2.54569">
        <ele>33.2</ele>
        <time>2024-12-19T07:25:15Z</time>
      </trkpt>
      <trkpt lat="47.95105" lon="-2.54568">
        <ele>33.2</ele>
        <time>2024-12-19T07:25:16Z</time>
      </trkpt>
      <trkpt lat="47.95105" lon="-2.54569">
        <ele>33.2</ele>
        <time>2024-12-19T07:25:17Z</time>
      </trkpt>
      <trkpt lat="47.95105" lon="-2.54568">
        <ele>33.2</ele>
        <time>2024-12-19T07:25:21Z</time>
      </trkpt>
      <trkpt lat="47.95104" lon="-2.54568">
        <ele>33.2</ele>
        <time>2024-12-19T07:25:22Z</time>
      </trkpt>
      <trkpt lat="47.95104" lon="-2.54568">
        <ele>33.2</ele>
        <time>2024-12-19T07:25:23Z</time>
      </trkpt>
      <trkpt lat="47.95104" lon="-2.54568">
        <ele>33.2</ele>
        <time>2024-12-19T07:25:24Z</time>
      </trkpt>
      <trkpt lat="47.95104" lon="-2.54568">
        <ele>33.2</ele>
        <time>2024-12-19T07:25:25Z</time>
      </trkpt>
      <trkpt lat="47.95104" lon="-2.54568">
        <ele>33.2</ele>
        <time>2024-12-19T07:25:26Z</time>
      </trkpt>
      <trkpt lat="47.95104" lon="-2.54568">
        <ele>33.2</ele>
        <time>2024-12-19T07:25:27Z</time>
      </trkpt>
      <trkpt lat="47.95103" lon="-2.54567">
        <ele>33.2</ele>
        <time>2024-12-19T07:25:28Z</time>
      </trkpt>
      <trkpt lat="47.95102" lon="-2.54566">
        <ele>33.1</ele>
        <time>2024-12-19T07:25:29Z</time>
      </trkpt>
      <trkpt lat="47.95101" lon="-2.54566">
        <ele>33.1</ele>
        <time>2024-12-19T07:25:30Z</time>
      </trkpt>
      <trkpt lat="47.95101" lon="-2.54567">
        <ele>33.1</ele>
        <time>2024-12-19T07:25:31Z</time>
      </trkpt>
      <trkpt lat="47.95101" lon="-2.54567">
        <ele>33.1</ele>
        <time>2024-12-19T07:25:32Z</time>
      </trkpt>
      <trkpt lat="47.95101" lon="-2.54566">
        <ele>33.1</ele>
        <time>2024-12-19T07:25:33Z</time>
      </trkpt>
      <trkpt lat="47.95101" lon="-2.54567">
        <ele>33.1</ele>
        <time>2024-12-19T07:25:34Z</time>
      </trkpt>
      <trkpt lat="47.95102" lon="-2.54566">
        <ele>33.2</ele>
        <time>2024-12-19T07:25:35Z</time>
      </trkpt>
      <trkpt lat="47.95102" lon="-2.54566">
        <ele>33.2</ele>
        <time>2024-12-19T07:25:36Z</time>
      </trkpt>
      <trkpt lat="47.95102" lon="-2.54565">
        <ele>33.2</ele>
        <time>2024-12-19T07:25:37Z</time>
      </trkpt>
      <trkpt lat="47.95101" lon="-2.54566">
        <ele>33.2</ele>
        <time>2024-12-19T07:25:38Z</time>
      </trkpt>
      <trkpt lat="47.95102" lon="-2.54566">
        <ele>33.2</ele>
        <time>2024-12-19T07:25:39Z</time>
      </trkpt>
      <trkpt lat="47.95102" lon="-2.54566">
        <ele>33.2</ele>
        <time>2024-12-19T07:25:40Z</time>
      </trkpt>
      <trkpt lat="47.95103" lon="-2.54565">
        <ele>33.2</ele>
        <time>2024-12-19T07:25:41Z</time>
      </trkpt>
      <trkpt lat="47.95102" lon="-2.54565">
        <ele>33.2</ele>
        <time>2024-12-19T07:25:42Z</time>
      </trkpt>
      <trkpt lat="47.95103" lon="-2.54565">
        <ele>33.3</ele>
        <time>2024-12-19T07:25:43Z</time>
      </trkpt>
      <trkpt lat="47.95103" lon="-2.54565">
        <ele>33.3</ele>
        <time>2024-12-19T07:25:44Z</time>
      </trkpt>
      <trkpt lat="47.95103" lon="-2.54564">
        <ele>33.3</ele>
        <time>2024-12-19T07:25:45Z</time>
      </trkpt>
      <trkpt lat="47.95103" lon="-2.54565">
        <ele>33.3</ele>
        <time>2024-12-19T07:25:46Z</time>
      </trkpt>
      <trkpt lat="47.95103" lon="-2.54565">
        <ele>33.3</ele>
        <time>2024-12-19T07:25:47Z</time>
      </trkpt>
      <trkpt lat="47.95104" lon="-2.54564">
        <ele>33.3</ele>
        <time>2024-12-19T07:25:48Z</time>
      </trkpt>
      <trkpt lat="47.95104" lon="-2.54565">
        <ele>33.3</ele>
        <time>2024-12-19T07:25:49Z</time>
      </trkpt>
      <trkpt lat="47.95104" lon="-2.54565">
        <ele>33.3</ele>
        <time>2024-12-19T07:25:50Z</time>
      </trkpt>
      <trkpt lat="47.95104" lon="-2.54566">
        <ele>33.3</ele>
        <time>2024-12-19T07:25:51Z</time>
      </trkpt>
      <trkpt lat="47.95105" lon="-2.54567">
        <ele>33.2</ele>
        <time>2024-12-19T07:25:52Z</time>
      </trkpt>
      <trkpt lat="47.95105" lon="-2.54567">
        <ele>33.3</ele>
        <time>2024-12-19T07:25:53Z</time>
      </trkpt>
      <trkpt lat="47.95105" lon="-2.54568">
        <ele>33.3</ele>
        <time>2024-12-19T07:25:54Z</time>
      </trkpt>
      <trkpt lat="47.95105" lon="-2.54567">
        <ele>33.3</ele>
        <time>2024-12-19T07:25:55Z</time>
      </trkpt>
      <trkpt lat="47.95105" lon="-2.54566">
        <ele>33.4</ele>
        <time>2024-12-19T07:25:56Z</time>
      </trkpt>
      <trkpt lat="47.95106" lon="-2.54565">
        <ele>33.4</ele>
        <time>2024-12-19T07:25:57Z</time>
      </trkpt>
      <trkpt lat="47.95106" lon="-2.54565">
        <ele>33.4</ele>
        <time>2024-12-19T07:25:58Z</time>
      </trkpt>
      <trkpt lat="47.95106" lon="-2.54564">
        <ele>33.5</ele>
        <time>2024-12-19T07:25:59Z</time>
      </trkpt>
      <trkpt lat="47.95106" lon="-2.54564">
        <ele>33.5</ele>
        <time>2024-12-19T07:26:00Z</time>
      </trkpt>
      <trkpt lat="47.95106" lon="-2.54563">
        <ele>33.5</ele>
        <time>2024-12-19T07:26:01Z</time>
      </trkpt>
      <trkpt lat="47.95105" lon="-2.54563">
        <ele>33.4</ele>
        <time>2024-12-19T07:26:02Z</time>
      </trkpt>
      <trkpt lat="47.95105" lon="-2.54563">
        <ele>33.5</ele>
        <time>2024-12-19T07:26:03Z</time>
      </trkpt>
      <trkpt lat="47.95106" lon="-2.54563">
        <ele>33.5</ele>
        <time>2024-12-19T07:26:04Z</time>
      </trkpt>
      <trkpt lat="47.95106" lon="-2.54562">
        <ele>33.5</ele>
        <time>2024-12-19T07:26:05Z</time>
      </trkpt>
      <trkpt lat="47.95106" lon="-2.54562">
        <ele>33.5</ele>
        <time>2024-12-19T07:26:06Z</time>
      </trkpt>
      <trkpt lat="47.95106" lon="-2.54562">
        <ele>33.5</ele>
        <time>2024-12-19T07:26:07Z</time>
      </trkpt>
      <trkpt lat="47.95106" lon="-2.54562">
        <ele>33.5</ele>
        <time>2024-12-19T07:26:08Z</time>
      </trkpt>
      <trkpt lat="47.95106" lon="-2.54561">
        <ele>33.5</ele>
        <time>2024-12-19T07:26:09Z</time>
      </trkpt>
      <trkpt lat="47.95106" lon="-2.54561">
        <ele>33.5</ele>
        <time>2024-12-19T07:26:10Z</time>
      </trkpt>
      <trkpt lat="47.95106" lon="-2.54561">
        <ele>33.5</ele>
        <time>2024-12-19T07:26:11Z</time>
      </trkpt>
      <trkpt lat="47.95106" lon="-2.54561">
        <ele>33.5</ele>
        <time>2024-12-19T07:26:12Z</time>
      </trkpt>
      <trkpt lat="47.95106" lon="-2.54561">
        <ele>33.5</ele>
        <time>2024-12-19T07:26:13Z</time>
      </trkpt>
      <trkpt lat="47.95106" lon="-2.54561">
        <ele>33.5</ele>
        <time>2024-12-19T07:26:14Z</time>
      </trkpt>
      <trkpt lat="47.95106" lon="-2.54561">
        <ele>33.5</ele>
        <time>2024-12-19T07:26:15Z</time>
      </trkpt>
      <trkpt lat="47.95106" lon="-2.54561">
        <ele>33.5</ele>
        <time>2024-12-19T07:26:16Z</time>
      </trkpt>
      <trkpt lat="47.95106" lon="-2.54561">
        <ele>33.5</ele>
        <time>2024-12-19T07:26:17Z</time>
      </trkpt>
      <trkpt lat="47.95106" lon="-2.54561">
        <ele>33.5</ele>
        <time>2024-12-19T07:26:18Z</time>
      </trkpt>
      <trkpt lat="47.95106" lon="-2.54561">
        <ele>33.5</ele>
        <time>2024-12-19T07:26:19Z</time>
      </trkpt>
      <trkpt lat="47.95106" lon="-2.54561">
        <ele>33.5</ele>
        <time>2024-12-19T07:26:20Z</time>
      </trkpt>
      <trkpt lat="47.95106" lon="-2.54561">
        <ele>33.5</ele>
        <time>2024-12-19T07:26:21Z</time>
      </trkpt>
      <trkpt lat="47.95106" lon="-2.54561">
        <ele>33.5</ele>
        <time>2024-12-19T07:26:22Z</time>
      </trkpt>
      <trkpt lat="47.95106" lon="-2.54561">
        <ele>33.5</ele>
        <time>2024-12-19T07:26:23Z</time>
      </trkpt>
      <trkpt lat="47.95106" lon="-2.54561">
        <ele>33.5</ele>
        <time>2024-12-19T07:26:24Z</time>
      </trkpt>
      <trkpt lat="47.95104" lon="-2.54562">
        <ele>33.5</ele>
        <time>2024-12-19T07:26:25Z</time>
      </trkpt>
      <trkpt lat="47.95103" lon="-2.54562">
        <ele>33.4</ele>
        <time>2024-12-19T07:26:26Z</time>
      </trkpt>
      <trkpt lat="47.95103" lon="-2.54562">
        <ele>33.4</ele>
        <time>2024-12-19T07:26:27Z</time>
      </trkpt>
      <trkpt lat="47.95102" lon="-2.54562">
        <ele>33.4</ele>
        <time>2024-12-19T07:26:28Z</time>
      </trkpt>
      <trkpt lat="47.95102" lon="-2.54561">
        <ele>33.4</ele>
        <time>2024-12-19T07:26:29Z</time>
      </trkpt>
      <trkpt lat="47.95102" lon="-2.5456">
        <ele>33.4</ele>
        <time>2024-12-19T07:26:30Z</time>
      </trkpt>
      <trkpt lat="47.95103" lon="-2.5456">
        <ele>33.5</ele>
        <time>2024-12-19T07:26:31Z</time>
      </trkpt>
      <trkpt lat="47.95104" lon="-2.5456">
        <ele>33.5</ele>
        <time>2024-12-19T07:26:32Z</time>
      </trkpt>
      <trkpt lat="47.95105" lon="-2.5456">
        <ele>33.6</ele>
        <time>2024-12-19T07:26:33Z</time>
      </trkpt>
      <trkpt lat="47.95105" lon="-2.5456">
        <ele>33.6</ele>
        <time>2024-12-19T07:26:34Z</time>
      </trkpt>
      <trkpt lat="47.95106" lon="-2.5456">
        <ele>33.6</ele>
        <time>2024-12-19T07:26:35Z</time>
      </trkpt>
      <trkpt lat="47.95107" lon="-2.5456">
        <ele>33.7</ele>
        <time>2024-12-19T07:26:36Z</time>
      </trkpt>
      <trkpt lat="47.95108" lon="-2.5456">
        <ele>33.7</ele>
        <time>2024-12-19T07:26:37Z</time>
      </trkpt>
      <trkpt lat="47.95108" lon="-2.5456">
        <ele>33.7</ele>
        <time>2024-12-19T07:26:38Z</time>
      </trkpt>
      <trkpt lat="47.95108" lon="-2.5456">
        <ele>33.7</ele>
        <time>2024-12-19T07:26:39Z</time>
      </trkpt>
      <trkpt lat="47.95109" lon="-2.5456">
        <ele>33.8</ele>
        <time>2024-12-19T07:26:40Z</time>
      </trkpt>
      <trkpt lat="47.9511" lon="-2.5456">
        <ele>33.8</ele>
        <time>2024-12-19T07:26:41Z</time>
      </trkpt>
      <trkpt lat="47.95111" lon="-2.54559">
        <ele>33.9</ele>
        <time>2024-12-19T07:26:42Z</time>
      </trkpt>
      <trkpt lat="47.95113" lon="-2.54559">
        <ele>34</ele>
        <time>2024-12-19T07:26:43Z</time>
      </trkpt>
      <trkpt lat="47.95114" lon="-2.54559">
        <ele>34.1</ele>
        <time>2024-12-19T07:26:44Z</time>
      </trkpt>
      <trkpt lat="47.95115" lon="-2.54559">
        <ele>34.2</ele>
        <time>2024-12-19T07:26:45Z</time>
      </trkpt>
      <trkpt lat="47.95116" lon="-2.54559">
        <ele>34.2</ele>
        <time>2024-12-19T07:26:46Z</time>
      </trkpt>
      <trkpt lat="47.95117" lon="-2.5456">
        <ele>34.3</ele>
        <time>2024-12-19T07:26:47Z</time>
      </trkpt>
      <trkpt lat="47.95117" lon="-2.5456">
        <ele>34.3</ele>
        <time>2024-12-19T07:26:48Z</time>
      </trkpt>
      <trkpt lat="47.95118" lon="-2.5456">
        <ele>34.3</ele>
        <time>2024-12-19T07:26:49Z</time>
      </trkpt>
      <trkpt lat="47.95119" lon="-2.54559">
        <ele>34.4</ele>
        <time>2024-12-19T07:26:50Z</time>
      </trkpt>
      <trkpt lat="47.9512" lon="-2.54559">
        <ele>34.5</ele>
        <time>2024-12-19T07:26:51Z</time>
      </trkpt>
      <trkpt lat="47.95121" lon="-2.54558">
        <ele>34.6</ele>
        <time>2024-12-19T07:26:52Z</time>
      </trkpt>
      <trkpt lat="47.95122" lon="-2.54557">
        <ele>34.7</ele>
        <time>2024-12-19T07:26:53Z</time>
      </trkpt>
      <trkpt lat="47.95123" lon="-2.54556">
        <ele>34.8</ele>
        <time>2024-12-19T07:26:54Z</time>
      </trkpt>
      <trkpt lat="47.95123" lon="-2.54555">
        <ele>35</ele>
        <time>2024-12-19T07:26:55Z</time>
      </trkpt>
      <trkpt lat="47.95124" lon="-2.54554">
        <ele>35.3</ele>
        <time>2024-12-19T07:26:56Z</time>
      </trkpt>
      <trkpt lat="47.95125" lon="-2.54552">
        <ele>35.8</ele>
        <time>2024-12-19T07:26:57Z</time>
      </trkpt>
      <trkpt lat="47.95126" lon="-2.54551">
        <ele>36.1</ele>
        <time>2024-12-19T07:26:58Z</time>
      </trkpt>
      <trkpt lat="47.95127" lon="-2.5455">
        <ele>36.4</ele>
        <time>2024-12-19T07:26:59Z</time>
      </trkpt>
      <trkpt lat="47.95128" lon="-2.54549">
        <ele>36.7</ele>
        <time>2024-12-19T07:27:00Z</time>
      </trkpt>
      <trkpt lat="47.95129" lon="-2.54549">
        <ele>36.8</ele>
        <time>2024-12-19T07:27:01Z</time>
      </trkpt>
      <trkpt lat="47.95129" lon="-2.54548">
        <ele>36.9</ele>
        <time>2024-12-19T07:27:02Z</time>
      </trkpt>
      <trkpt lat="47.9513" lon="-2.54548">
        <ele>37</ele>
        <time>2024-12-19T07:27:03Z</time>
      </trkpt>
      <trkpt lat="47.95131" lon="-2.54548">
        <ele>37.2</ele>
        <time>2024-12-19T07:27:04Z</time>
      </trkpt>
      <trkpt lat="47.95131" lon="-2.54548">
        <ele>37.3</ele>
        <time>2024-12-19T07:27:05Z</time>
      </trkpt>
      <trkpt lat="47.95133" lon="-2.54547">
        <ele>37.5</ele>
        <time>2024-12-19T07:27:06Z</time>
      </trkpt>
      <trkpt lat="47.95133" lon="-2.54547">
        <ele>37.6</ele>
        <time>2024-12-19T07:27:07Z</time>
      </trkpt>
      <trkpt lat="47.95134" lon="-2.54547">
        <ele>37.7</ele>
        <time>2024-12-19T07:27:08Z</time>
      </trkpt>
      <trkpt lat="47.95134" lon="-2.54547">
        <ele>37.8</ele>
        <time>2024-12-19T07:27:09Z</time>
      </trkpt>
      <trkpt lat="47.95135" lon="-2.54547">
        <ele>37.9</ele>
        <time>2024-12-19T07:27:10Z</time>
      </trkpt>
      <trkpt lat="47.95135" lon="-2.54546">
        <ele>38</ele>
        <time>2024-12-19T07:27:11Z</time>
      </trkpt>
      <trkpt lat="47.95136" lon="-2.54546">
        <ele>38.2</ele>
        <time>2024-12-19T07:27:12Z</time>
      </trkpt>
      <trkpt lat="47.95137" lon="-2.54545">
        <ele>38.4</ele>
        <time>2024-12-19T07:27:13Z</time>
      </trkpt>
      <trkpt lat="47.95139" lon="-2.54545">
        <ele>38.6</ele>
        <time>2024-12-19T07:27:14Z</time>
      </trkpt>
      <trkpt lat="47.9514" lon="-2.54545">
        <ele>38.6</ele>
        <time>2024-12-19T07:27:15Z</time>
      </trkpt>
      <trkpt lat="47.95141" lon="-2.54545">
        <ele>38.7</ele>
        <time>2024-12-19T07:27:16Z</time>
      </trkpt>
      <trkpt lat="47.95142" lon="-2.54545">
        <ele>38.7</ele>
        <time>2024-12-19T07:27:17Z</time>
      </trkpt>
      <trkpt lat="47.95144" lon="-2.54544">
        <ele>38.8</ele>
        <time>2024-12-19T07:27:18Z</time>
      </trkpt>
      <trkpt lat="47.95145" lon="-2.54544">
        <ele>38.9</ele>
        <time>2024-12-19T07:27:19Z</time>
      </trkpt>
      <trkpt lat="47.95146" lon="-2.54544">
        <ele>38.8</ele>
        <time>2024-12-19T07:27:20Z</time>
      </trkpt>
      <trkpt lat="47.95147" lon="-2.54545">
        <ele>38.8</ele>
        <time>2024-12-19T07:27:21Z</time>
      </trkpt>
      <trkpt lat="47.95148" lon="-2.54545">
        <ele>38.7</ele>
        <time>2024-12-19T07:27:22Z</time>
      </trkpt>
      <trkpt lat="47.95149" lon="-2.54545">
        <ele>38.7</ele>
        <time>2024-12-19T07:27:23Z</time>
      </trkpt>
      <trkpt lat="47.95149" lon="-2.54545">
        <ele>38.7</ele>
        <time>2024-12-19T07:27:24Z</time>
      </trkpt>
      <trkpt lat="47.9515" lon="-2.54546">
        <ele>38.5</ele>
        <time>2024-12-19T07:27:25Z</time>
      </trkpt>
      <trkpt lat="47.95151" lon="-2.54547">
        <ele>38.4</ele>
        <time>2024-12-19T07:27:26Z</time>
      </trkpt>
      <trkpt lat="47.95153" lon="-2.54548">
        <ele>38.3</ele>
        <time>2024-12-19T07:27:27Z</time>
      </trkpt>
      <trkpt lat="47.95154" lon="-2.54548">
        <ele>38.2</ele>
        <time>2024-12-19T07:27:28Z</time>
      </trkpt>
      <trkpt lat="47.95156" lon="-2.54549">
        <ele>38.2</ele>
        <time>2024-12-19T07:27:29Z</time>
      </trkpt>
      <trkpt lat="47.95157" lon="-2.54548">
        <ele>38.3</ele>
        <time>2024-12-19T07:27:30Z</time>
      </trkpt>
      <trkpt lat="47.95159" lon="-2.54549">
        <ele>38.3</ele>
        <time>2024-12-19T07:27:31Z</time>
      </trkpt>
      <trkpt lat="47.95161" lon="-2.54549">
        <ele>38.3</ele>
        <time>2024-12-19T07:27:32Z</time>
      </trkpt>
      <trkpt lat="47.95162" lon="-2.54549">
        <ele>38.3</ele>
        <time>2024-12-19T07:27:33Z</time>
      </trkpt>
      <trkpt lat="47.95164" lon="-2.5455">
        <ele>38.3</ele>
        <time>2024-12-19T07:27:34Z</time>
      </trkpt>
      <trkpt lat="47.95166" lon="-2.54549">
        <ele>38.4</ele>
        <time>2024-12-19T07:27:35Z</time>
      </trkpt>
      <trkpt lat="47.95167" lon="-2.54549">
        <ele>38.5</ele>
        <time>2024-12-19T07:27:36Z</time>
      </trkpt>
      <trkpt lat="47.95168" lon="-2.54548">
        <ele>38.5</ele>
        <time>2024-12-19T07:27:37Z</time>
      </trkpt>
      <trkpt lat="47.95169" lon="-2.54548">
        <ele>38.6</ele>
        <time>2024-12-19T07:27:38Z</time>
      </trkpt>
      <trkpt lat="47.95169" lon="-2.54547">
        <ele>38.6</ele>
        <time>2024-12-19T07:27:39Z</time>
      </trkpt>
      <trkpt lat="47.9517" lon="-2.54547">
        <ele>38.7</ele>
        <time>2024-12-19T07:27:40Z</time>
      </trkpt>
      <trkpt lat="47.95171" lon="-2.54546">
        <ele>38.7</ele>
        <time>2024-12-19T07:27:41Z</time>
      </trkpt>
      <trkpt lat="47.95172" lon="-2.54545">
        <ele>38.8</ele>
        <time>2024-12-19T07:27:42Z</time>
      </trkpt>
      <trkpt lat="47.95173" lon="-2.54544">
        <ele>38.8</ele>
        <time>2024-12-19T07:27:43Z</time>
      </trkpt>
      <trkpt lat="47.95174" lon="-2.54543">
        <ele>38.9</ele>
        <time>2024-12-19T07:27:44Z</time>
      </trkpt>
      <trkpt lat="47.95174" lon="-2.54542">
        <ele>38.9</ele>
        <time>2024-12-19T07:27:45Z</time>
      </trkpt>
      <trkpt lat="47.95175" lon="-2.54542">
        <ele>39</ele>
        <time>2024-12-19T07:27:46Z</time>
      </trkpt>
      <trkpt lat="47.95176" lon="-2.54541">
        <ele>39</ele>
        <time>2024-12-19T07:27:47Z</time>
      </trkpt>
      <trkpt lat="47.95177" lon="-2.5454">
        <ele>39.1</ele>
        <time>2024-12-19T07:27:48Z</time>
      </trkpt>
      <trkpt lat="47.95178" lon="-2.54539">
        <ele>39.2</ele>
        <time>2024-12-19T07:27:49Z</time>
      </trkpt>
      <trkpt lat="47.95179" lon="-2.54538">
        <ele>39.2</ele>
        <time>2024-12-19T07:27:50Z</time>
      </trkpt>
      <trkpt lat="47.9518" lon="-2.54537">
        <ele>39.3</ele>
        <time>2024-12-19T07:27:51Z</time>
      </trkpt>
      <trkpt lat="47.95181" lon="-2.54536">
        <ele>39.4</ele>
        <time>2024-12-19T07:27:52Z</time>
      </trkpt>
      <trkpt lat="47.95182" lon="-2.54536">
        <ele>39.4</ele>
        <time>2024-12-19T07:27:53Z</time>
      </trkpt>
      <trkpt lat="47.95184" lon="-2.54535">
        <ele>39.5</ele>
        <time>2024-12-19T07:27:54Z</time>
      </trkpt>
      <trkpt lat="47.95185" lon="-2.54535">
        <ele>39.5</ele>
        <time>2024-12-19T07:27:55Z</time>
      </trkpt>
      <trkpt lat="47.95187" lon="-2.54534">
        <ele>39.5</ele>
        <time>2024-12-19T07:27:56Z</time>
      </trkpt>
      <trkpt lat="47.95188" lon="-2.54534">
        <ele>39.6</ele>
        <time>2024-12-19T07:27:57Z</time>
      </trkpt>
      <trkpt lat="47.9519" lon="-2.54533">
        <ele>39.6</ele>
        <time>2024-12-19T07:27:58Z</time>
      </trkpt>
      <trkpt lat="47.9519" lon="-2.54533">
        <ele>39.6</ele>
        <time>2024-12-19T07:27:59Z</time>
      </trkpt>
      <trkpt lat="47.95191" lon="-2.54533">
        <ele>39.6</ele>
        <time>2024-12-19T07:28:00Z</time>
      </trkpt>
      <trkpt lat="47.95192" lon="-2.54533">
        <ele>39.7</ele>
        <time>2024-12-19T07:28:01Z</time>
      </trkpt>
      <trkpt lat="47.95193" lon="-2.54533">
        <ele>39.7</ele>
        <time>2024-12-19T07:28:02Z</time>
      </trkpt>
      <trkpt lat="47.95194" lon="-2.54533">
        <ele>39.7</ele>
        <time>2024-12-19T07:28:03Z</time>
      </trkpt>
      <trkpt lat="47.95195" lon="-2.54533">
        <ele>39.7</ele>
        <time>2024-12-19T07:28:04Z</time>
      </trkpt>
      <trkpt lat="47.95196" lon="-2.54532">
        <ele>39.7</ele>
        <time>2024-12-19T07:28:05Z</time>
      </trkpt>
      <trkpt lat="47.95197" lon="-2.54531">
        <ele>39.8</ele>
        <time>2024-12-19T07:28:06Z</time>
      </trkpt>
      <trkpt lat="47.95198" lon="-2.5453">
        <ele>39.8</ele>
        <time>2024-12-19T07:28:07Z</time>
      </trkpt>
      <trkpt lat="47.95199" lon="-2.54529">
        <ele>39.9</ele>
        <time>2024-12-19T07:28:08Z</time>
      </trkpt>
      <trkpt lat="47.952" lon="-2.54529">
        <ele>39.9</ele>
        <time>2024-12-19T07:28:09Z</time>
      </trkpt>
      <trkpt lat="47.95202" lon="-2.54528">
        <ele>40</ele>
        <time>2024-12-19T07:28:10Z</time>
      </trkpt>
      <trkpt lat="47.95203" lon="-2.54528">
        <ele>40</ele>
        <time>2024-12-19T07:28:11Z</time>
      </trkpt>
      <trkpt lat="47.95204" lon="-2.54528">
        <ele>40.1</ele>
        <time>2024-12-19T07:28:12Z</time>
      </trkpt>
      <trkpt lat="47.95205" lon="-2.54527">
        <ele>40.1</ele>
        <time>2024-12-19T07:28:13Z</time>
      </trkpt>
      <trkpt lat="47.95206" lon="-2.54527">
        <ele>40.2</ele>
        <time>2024-12-19T07:28:14Z</time>
      </trkpt>
      <trkpt lat="47.95207" lon="-2.54526">
        <ele>40.4</ele>
        <time>2024-12-19T07:28:15Z</time>
      </trkpt>
      <trkpt lat="47.95208" lon="-2.54525">
        <ele>40.5</ele>
        <time>2024-12-19T07:28:16Z</time>
      </trkpt>
      <trkpt lat="47.95209" lon="-2.54525">
        <ele>40.6</ele>
        <time>2024-12-19T07:28:17Z</time>
      </trkpt>
      <trkpt lat="47.95209" lon="-2.54524">
        <ele>40.7</ele>
        <time>2024-12-19T07:28:18Z</time>
      </trkpt>
      <trkpt lat="47.9521" lon="-2.54524">
        <ele>40.7</ele>
        <time>2024-12-19T07:28:19Z</time>
      </trkpt>
      <trkpt lat="47.95211" lon="-2.54523">
        <ele>40.8</ele>
        <time>2024-12-19T07:28:20Z</time>
      </trkpt>
      <trkpt lat="47.95212" lon="-2.54523">
        <ele>40.8</ele>
        <time>2024-12-19T07:28:21Z</time>
      </trkpt>
      <trkpt lat="47.95214" lon="-2.54522">
        <ele>40.8</ele>
        <time>2024-12-19T07:28:22Z</time>
      </trkpt>
      <trkpt lat="47.95215" lon="-2.54522">
        <ele>40.9</ele>
        <time>2024-12-19T07:28:23Z</time>
      </trkpt>
      <trkpt lat="47.95215" lon="-2.54521">
        <ele>41</ele>
        <time>2024-12-19T07:28:24Z</time>
      </trkpt>
      <trkpt lat="47.95216" lon="-2.5452">
        <ele>41.1</ele>
        <time>2024-12-19T07:28:25Z</time>
      </trkpt>
      <trkpt lat="47.95217" lon="-2.54519">
        <ele>41.2</ele>
        <time>2024-12-19T07:28:26Z</time>
      </trkpt>
      <trkpt lat="47.95218" lon="-2.54518">
        <ele>41.3</ele>
        <time>2024-12-19T07:28:27Z</time>
      </trkpt>
      <trkpt lat="47.95219" lon="-2.54518">
        <ele>41.3</ele>
        <time>2024-12-19T07:28:28Z</time>
      </trkpt>
      <trkpt lat="47.95219" lon="-2.54517">
        <ele>41.3</ele>
        <time>2024-12-19T07:28:29Z</time>
      </trkpt>
      <trkpt lat="47.95219" lon="-2.54517">
        <ele>41.4</ele>
        <time>2024-12-19T07:28:30Z</time>
      </trkpt>
      <trkpt lat="47.95219" lon="-2.54517">
        <ele>41.4</ele>
        <time>2024-12-19T07:28:31Z</time>
      </trkpt>
      <trkpt lat="47.95219" lon="-2.54516">
        <ele>41.4</ele>
        <time>2024-12-19T07:28:32Z</time>
      </trkpt>
      <trkpt lat="47.95219" lon="-2.54516">
        <ele>41.5</ele>
        <time>2024-12-19T07:28:33Z</time>
      </trkpt>
      <trkpt lat="47.9522" lon="-2.54516">
        <ele>41.4</ele>
        <time>2024-12-19T07:28:34Z</time>
      </trkpt>
      <trkpt lat="47.95221" lon="-2.54517">
        <ele>41.3</ele>
        <time>2024-12-19T07:28:35Z</time>
      </trkpt>
      <trkpt lat="47.95222" lon="-2.54517">
        <ele>41.2</ele>
        <time>2024-12-19T07:28:36Z</time>
      </trkpt>
      <trkpt lat="47.95224" lon="-2.54516">
        <ele>41.2</ele>
        <time>2024-12-19T07:28:37Z</time>
      </trkpt>
      <trkpt lat="47.95225" lon="-2.54515">
        <ele>41.3</ele>
        <time>2024-12-19T07:28:38Z</time>
      </trkpt>
      <trkpt lat="47.95227" lon="-2.54514">
        <ele>41.4</ele>
        <time>2024-12-19T07:28:39Z</time>
      </trkpt>
      <trkpt lat="47.95227" lon="-2.54513">
        <ele>41.5</ele>
        <time>2024-12-19T07:28:40Z</time>
      </trkpt>
      <trkpt lat="47.95228" lon="-2.54513">
        <ele>41.5</ele>
        <time>2024-12-19T07:28:41Z</time>
      </trkpt>
      <trkpt lat="47.95229" lon="-2.54512">
        <ele>41.6</ele>
        <time>2024-12-19T07:28:42Z</time>
      </trkpt>
      <trkpt lat="47.9523" lon="-2.54511">
        <ele>41.6</ele>
        <time>2024-12-19T07:28:43Z</time>
      </trkpt>
      <trkpt lat="47.95232" lon="-2.5451">
        <ele>41.7</ele>
        <time>2024-12-19T07:28:44Z</time>
      </trkpt>
      <trkpt lat="47.95233" lon="-2.54509">
        <ele>41.8</ele>
        <time>2024-12-19T07:28:45Z</time>
      </trkpt>
      <trkpt lat="47.95234" lon="-2.54508">
        <ele>41.8</ele>
        <time>2024-12-19T07:28:46Z</time>
      </trkpt>
      <trkpt lat="47.95235" lon="-2.54507">
        <ele>41.9</ele>
        <time>2024-12-19T07:28:47Z</time>
      </trkpt>
      <trkpt lat="47.95236" lon="-2.54506">
        <ele>42</ele>
        <time>2024-12-19T07:28:48Z</time>
      </trkpt>
      <trkpt lat="47.95237" lon="-2.54505">
        <ele>42</ele>
        <time>2024-12-19T07:28:49Z</time>
      </trkpt>
      <trkpt lat="47.95239" lon="-2.54504">
        <ele>42.1</ele>
        <time>2024-12-19T07:28:50Z</time>
      </trkpt>
      <trkpt lat="47.9524" lon="-2.54503">
        <ele>42.1</ele>
        <time>2024-12-19T07:28:51Z</time>
      </trkpt>
      <trkpt lat="47.95242" lon="-2.54503">
        <ele>42.1</ele>
        <time>2024-12-19T07:28:52Z</time>
      </trkpt>
      <trkpt lat="47.95244" lon="-2.54502">
        <ele>42.1</ele>
        <time>2024-12-19T07:28:53Z</time>
      </trkpt>
      <trkpt lat="47.95245" lon="-2.54501">
        <ele>42.1</ele>
        <time>2024-12-19T07:28:54Z</time>
      </trkpt>
      <trkpt lat="47.95247" lon="-2.54501">
        <ele>42</ele>
        <time>2024-12-19T07:28:55Z</time>
      </trkpt>
      <trkpt lat="47.95249" lon="-2.54501">
        <ele>41.9</ele>
        <time>2024-12-19T07:28:56Z</time>
      </trkpt>
      <trkpt lat="47.95251" lon="-2.54502">
        <ele>41.9</ele>
        <time>2024-12-19T07:28:57Z</time>
      </trkpt>
      <trkpt lat="47.95252" lon="-2.54502">
        <ele>42</ele>
        <time>2024-12-19T07:28:58Z</time>
      </trkpt>
      <trkpt lat="47.95254" lon="-2.54502">
        <ele>42</ele>
        <time>2024-12-19T07:28:59Z</time>
      </trkpt>
      <trkpt lat="47.95256" lon="-2.54502">
        <ele>42.1</ele>
        <time>2024-12-19T07:29:00Z</time>
      </trkpt>
      <trkpt lat="47.95257" lon="-2.54502">
        <ele>42.1</ele>
        <time>2024-12-19T07:29:01Z</time>
      </trkpt>
      <trkpt lat="47.95258" lon="-2.54501">
        <ele>42.2</ele>
        <time>2024-12-19T07:29:02Z</time>
      </trkpt>
      <trkpt lat="47.95258" lon="-2.54501">
        <ele>42.3</ele>
        <time>2024-12-19T07:29:03Z</time>
      </trkpt>
      <trkpt lat="47.9526" lon="-2.545">
        <ele>42.3</ele>
        <time>2024-12-19T07:29:04Z</time>
      </trkpt>
      <trkpt lat="47.95261" lon="-2.54501">
        <ele>42.4</ele>
        <time>2024-12-19T07:29:05Z</time>
      </trkpt>
      <trkpt lat="47.95263" lon="-2.54501">
        <ele>42.4</ele>
        <time>2024-12-19T07:29:06Z</time>
      </trkpt>
      <trkpt lat="47.95265" lon="-2.54501">
        <ele>42.5</ele>
        <time>2024-12-19T07:29:07Z</time>
      </trkpt>
      <trkpt lat="47.95267" lon="-2.54501">
        <ele>42.6</ele>
        <time>2024-12-19T07:29:08Z</time>
      </trkpt>
      <trkpt lat="47.95268" lon="-2.54502">
        <ele>42.6</ele>
        <time>2024-12-19T07:29:09Z</time>
      </trkpt>
      <trkpt lat="47.9527" lon="-2.54503">
        <ele>42.7</ele>
        <time>2024-12-19T07:29:10Z</time>
      </trkpt>
      <trkpt lat="47.95272" lon="-2.54504">
        <ele>42.7</ele>
        <time>2024-12-19T07:29:11Z</time>
      </trkpt>
      <trkpt lat="47.95274" lon="-2.54505">
        <ele>42.8</ele>
        <time>2024-12-19T07:29:12Z</time>
      </trkpt>
      <trkpt lat="47.95276" lon="-2.54505">
        <ele>42.9</ele>
        <time>2024-12-19T07:29:13Z</time>
      </trkpt>
      <trkpt lat="47.95277" lon="-2.54505">
        <ele>43</ele>
        <time>2024-12-19T07:29:14Z</time>
      </trkpt>
      <trkpt lat="47.95279" lon="-2.54504">
        <ele>43</ele>
        <time>2024-12-19T07:29:15Z</time>
      </trkpt>
      <trkpt lat="47.9528" lon="-2.54503">
        <ele>43</ele>
        <time>2024-12-19T07:29:17Z</time>
      </trkpt>
      <trkpt lat="47.95287" lon="-2.545">
        <ele>43</ele>
        <time>2024-12-19T07:29:18Z</time>
      </trkpt>
      <trkpt lat="47.95285" lon="-2.54496">
        <ele>42.8</ele>
        <time>2024-12-19T07:29:19Z</time>
      </trkpt>
      <trkpt lat="47.95286" lon="-2.54496">
        <ele>42.9</ele>
        <time>2024-12-19T07:29:20Z</time>
      </trkpt>
      <trkpt lat="47.95287" lon="-2.54494">
        <ele>42.8</ele>
        <time>2024-12-19T07:29:21Z</time>
      </trkpt>
      <trkpt lat="47.95286" lon="-2.54493">
        <ele>42.7</ele>
        <time>2024-12-19T07:29:22Z</time>
      </trkpt>
      <trkpt lat="47.95287" lon="-2.5449">
        <ele>42.7</ele>
        <time>2024-12-19T07:29:23Z</time>
      </trkpt>
      <trkpt lat="47.95286" lon="-2.54488">
        <ele>42.6</ele>
        <time>2024-12-19T07:29:24Z</time>
      </trkpt>
      <trkpt lat="47.95287" lon="-2.54486">
        <ele>42.5</ele>
        <time>2024-12-19T07:29:25Z</time>
      </trkpt>
      <trkpt lat="47.95288" lon="-2.54487">
        <ele>42.5</ele>
        <time>2024-12-19T07:29:26Z</time>
      </trkpt>
      <trkpt lat="47.95289" lon="-2.54486">
        <ele>42.5</ele>
        <time>2024-12-19T07:29:27Z</time>
      </trkpt>
      <trkpt lat="47.9529" lon="-2.54485">
        <ele>42.4</ele>
        <time>2024-12-19T07:29:28Z</time>
      </trkpt>
      <trkpt lat="47.95291" lon="-2.54484">
        <ele>42.4</ele>
        <time>2024-12-19T07:29:29Z</time>
      </trkpt>
      <trkpt lat="47.95292" lon="-2.54483">
        <ele>42.4</ele>
        <time>2024-12-19T07:29:30Z</time>
      </trkpt>
      <trkpt lat="47.95293" lon="-2.54482">
        <ele>42.4</ele>
        <time>2024-12-19T07:29:31Z</time>
      </trkpt>
      <trkpt lat="47.95294" lon="-2.54482">
        <ele>42.3</ele>
        <time>2024-12-19T07:29:32Z</time>
      </trkpt>
      <trkpt lat="47.95295" lon="-2.54481">
        <ele>42.3</ele>
        <time>2024-12-19T07:29:33Z</time>
      </trkpt>
      <trkpt lat="47.95296" lon="-2.54482">
        <ele>42.3</ele>
        <time>2024-12-19T07:29:34Z</time>
      </trkpt>
      <trkpt lat="47.95297" lon="-2.54481">
        <ele>42.3</ele>
        <time>2024-12-19T07:29:35Z</time>
      </trkpt>
      <trkpt lat="47.95298" lon="-2.54481">
        <ele>42.3</ele>
        <time>2024-12-19T07:29:36Z</time>
      </trkpt>
      <trkpt lat="47.95298" lon="-2.54482">
        <ele>42.3</ele>
        <time>2024-12-19T07:29:37Z</time>
      </trkpt>
      <trkpt lat="47.95299" lon="-2.54482">
        <ele>42.3</ele>
        <time>2024-12-19T07:29:38Z</time>
      </trkpt>
      <trkpt lat="47.95299" lon="-2.54481">
        <ele>42.3</ele>
        <time>2024-12-19T07:29:39Z</time>
      </trkpt>
      <trkpt lat="47.95299" lon="-2.54481">
        <ele>42.3</ele>
        <time>2024-12-19T07:29:40Z</time>
      </trkpt>
      <trkpt lat="47.95299" lon="-2.5448">
        <ele>42.3</ele>
        <time>2024-12-19T07:29:41Z</time>
      </trkpt>
      <trkpt lat="47.95299" lon="-2.54479">
        <ele>42.2</ele>
        <time>2024-12-19T07:29:42Z</time>
      </trkpt>
      <trkpt lat="47.95299" lon="-2.54478">
        <ele>42.2</ele>
        <time>2024-12-19T07:29:43Z</time>
      </trkpt>
      <trkpt lat="47.95299" lon="-2.54478">
        <ele>42.2</ele>
        <time>2024-12-19T07:29:44Z</time>
      </trkpt>
      <trkpt lat="47.95299" lon="-2.54477">
        <ele>42.2</ele>
        <time>2024-12-19T07:29:45Z</time>
      </trkpt>
      <trkpt lat="47.95299" lon="-2.54477">
        <ele>42.2</ele>
        <time>2024-12-19T07:29:46Z</time>
      </trkpt>
      <trkpt lat="47.95299" lon="-2.54476">
        <ele>42.1</ele>
        <time>2024-12-19T07:29:47Z</time>
      </trkpt>
      <trkpt lat="47.95299" lon="-2.54476">
        <ele>42.1</ele>
        <time>2024-12-19T07:29:48Z</time>
      </trkpt>
      <trkpt lat="47.95299" lon="-2.54475">
        <ele>42.1</ele>
        <time>2024-12-19T07:29:49Z</time>
      </trkpt>
      <trkpt lat="47.95299" lon="-2.54475">
        <ele>42.1</ele>
        <time>2024-12-19T07:29:50Z</time>
      </trkpt>
      <trkpt lat="47.95298" lon="-2.54474">
        <ele>42.1</ele>
        <time>2024-12-19T07:29:51Z</time>
      </trkpt>
      <trkpt lat="47.95297" lon="-2.54473">
        <ele>42</ele>
        <time>2024-12-19T07:29:52Z</time>
      </trkpt>
      <trkpt lat="47.95295" lon="-2.54473">
        <ele>42</ele>
        <time>2024-12-19T07:29:53Z</time>
      </trkpt>
      <trkpt lat="47.95295" lon="-2.54472">
        <ele>42</ele>
        <time>2024-12-19T07:29:54Z</time>
      </trkpt>
      <trkpt lat="47.95294" lon="-2.54472">
        <ele>42</ele>
        <time>2024-12-19T07:29:55Z</time>
      </trkpt>
      <trkpt lat="47.95293" lon="-2.54471">
        <ele>42</ele>
        <time>2024-12-19T07:29:56Z</time>
      </trkpt>
      <trkpt lat="47.95293" lon="-2.54471">
        <ele>41.9</ele>
        <time>2024-12-19T07:29:57Z</time>
      </trkpt>
      <trkpt lat="47.95292" lon="-2.54469">
        <ele>41.9</ele>
        <time>2024-12-19T07:29:58Z</time>
      </trkpt>
      <trkpt lat="47.95293" lon="-2.54467">
        <ele>41.8</ele>
        <time>2024-12-19T07:29:59Z</time>
      </trkpt>
      <trkpt lat="47.95294" lon="-2.54466">
        <ele>41.7</ele>
        <time>2024-12-19T07:30:00Z</time>
      </trkpt>
      <trkpt lat="47.95295" lon="-2.54465">
        <ele>41.7</ele>
        <time>2024-12-19T07:30:01Z</time>
      </trkpt>
      <trkpt lat="47.95296" lon="-2.54465">
        <ele>41.7</ele>
        <time>2024-12-19T07:30:02Z</time>
      </trkpt>
      <trkpt lat="47.95296" lon="-2.54465">
        <ele>41.6</ele>
        <time>2024-12-19T07:30:03Z</time>
      </trkpt>
      <trkpt lat="47.95297" lon="-2.54465">
        <ele>41.6</ele>
        <time>2024-12-19T07:30:04Z</time>
      </trkpt>
      <trkpt lat="47.95298" lon="-2.54464">
        <ele>41.6</ele>
        <time>2024-12-19T07:30:05Z</time>
      </trkpt>
      <trkpt lat="47.953" lon="-2.54464">
        <ele>41.5</ele>
        <time>2024-12-19T07:30:06Z</time>
      </trkpt>
      <trkpt lat="47.95301" lon="-2.54463">
        <ele>41.4</ele>
        <time>2024-12-19T07:30:07Z</time>
      </trkpt>
      <trkpt lat="47.95302" lon="-2.54462">
        <ele>41.4</ele>
        <time>2024-12-19T07:30:08Z</time>
      </trkpt>
      <trkpt lat="47.95303" lon="-2.54462">
        <ele>41.3</ele>
        <time>2024-12-19T07:30:09Z</time>
      </trkpt>
      <trkpt lat="47.95304" lon="-2.54461">
        <ele>41.2</ele>
        <time>2024-12-19T07:30:10Z</time>
      </trkpt>
      <trkpt lat="47.95305" lon="-2.5446">
        <ele>41.1</ele>
        <time>2024-12-19T07:30:11Z</time>
      </trkpt>
      <trkpt lat="47.95306" lon="-2.54458">
        <ele>41</ele>
        <time>2024-12-19T07:30:12Z</time>
      </trkpt>
      <trkpt lat="47.95307" lon="-2.54457">
        <ele>41</ele>
        <time>2024-12-19T07:30:13Z</time>
      </trkpt>
      <trkpt lat="47.95308" lon="-2.54455">
        <ele>40.9</ele>
        <time>2024-12-19T07:30:14Z</time>
      </trkpt>
      <trkpt lat="47.95309" lon="-2.54454">
        <ele>40.9</ele>
        <time>2024-12-19T07:30:15Z</time>
      </trkpt>
      <trkpt lat="47.9531" lon="-2.54452">
        <ele>40.9</ele>
        <time>2024-12-19T07:30:16Z</time>
      </trkpt>
      <trkpt lat="47.95312" lon="-2.54451">
        <ele>40.8</ele>
        <time>2024-12-19T07:30:17Z</time>
      </trkpt>
      <trkpt lat="47.95313" lon="-2.54449">
        <ele>40.8</ele>
        <time>2024-12-19T07:30:18Z</time>
      </trkpt>
      <trkpt lat="47.95315" lon="-2.54447">
        <ele>40.8</ele>
        <time>2024-12-19T07:30:19Z</time>
      </trkpt>
      <trkpt lat="47.95316" lon="-2.54446">
        <ele>40.8</ele>
        <time>2024-12-19T07:30:20Z</time>
      </trkpt>
      <trkpt lat="47.95317" lon="-2.54444">
        <ele>40.8</ele>
        <time>2024-12-19T07:30:21Z</time>
      </trkpt>
      <trkpt lat="47.95318" lon="-2.54442">
        <ele>40.9</ele>
        <time>2024-12-19T07:30:22Z</time>
      </trkpt>
      <trkpt lat="47.95319" lon="-2.5444">
        <ele>40.9</ele>
        <time>2024-12-19T07:30:23Z</time>
      </trkpt>
      <trkpt lat="47.95319" lon="-2.54438">
        <ele>40.9</ele>
        <time>2024-12-19T07:30:24Z</time>
      </trkpt>
      <trkpt lat="47.9532" lon="-2.54435">
        <ele>40.8</ele>
        <time>2024-12-19T07:30:25Z</time>
      </trkpt>
      <trkpt lat="47.9532" lon="-2.54433">
        <ele>40.8</ele>
        <time>2024-12-19T07:30:26Z</time>
      </trkpt>
      <trkpt lat="47.95321" lon="-2.54431">
        <ele>40.8</ele>
        <time>2024-12-19T07:30:27Z</time>
      </trkpt>
      <trkpt lat="47.95322" lon="-2.5443">
        <ele>40.8</ele>
        <time>2024-12-19T07:30:28Z</time>
      </trkpt>
      <trkpt lat="47.95322" lon="-2.54428">
        <ele>40.7</ele>
        <time>2024-12-19T07:30:29Z</time>
      </trkpt>
      <trkpt lat="47.95322" lon="-2.54426">
        <ele>40.7</ele>
        <time>2024-12-19T07:30:30Z</time>
      </trkpt>
      <trkpt lat="47.95323" lon="-2.54424">
        <ele>40.6</ele>
        <time>2024-12-19T07:30:31Z</time>
      </trkpt>
      <trkpt lat="47.95323" lon="-2.54422">
        <ele>40.5</ele>
        <time>2024-12-19T07:30:32Z</time>
      </trkpt>
      <trkpt lat="47.95324" lon="-2.54421">
        <ele>40.5</ele>
        <time>2024-12-19T07:30:33Z</time>
      </trkpt>
      <trkpt lat="47.95324" lon="-2.54419">
        <ele>40.4</ele>
        <time>2024-12-19T07:30:34Z</time>
      </trkpt>
      <trkpt lat="47.95325" lon="-2.54417">
        <ele>40.3</ele>
        <time>2024-12-19T07:30:35Z</time>
      </trkpt>
      <trkpt lat="47.95325" lon="-2.54415">
        <ele>40.3</ele>
        <time>2024-12-19T07:30:36Z</time>
      </trkpt>
      <trkpt lat="47.95326" lon="-2.54414">
        <ele>40.3</ele>
        <time>2024-12-19T07:30:37Z</time>
      </trkpt>
      <trkpt lat="47.95326" lon="-2.54412">
        <ele>40.3</ele>
        <time>2024-12-19T07:30:38Z</time>
      </trkpt>
      <trkpt lat="47.95327" lon="-2.5441">
        <ele>40.3</ele>
        <time>2024-12-19T07:30:39Z</time>
      </trkpt>
      <trkpt lat="47.95328" lon="-2.54408">
        <ele>40.3</ele>
        <time>2024-12-19T07:30:40Z</time>
      </trkpt>
      <trkpt lat="47.95328" lon="-2.54407">
        <ele>40.3</ele>
        <time>2024-12-19T07:30:41Z</time>
      </trkpt>
      <trkpt lat="47.95329" lon="-2.54405">
        <ele>40.2</ele>
        <time>2024-12-19T07:30:42Z</time>
      </trkpt>
      <trkpt lat="47.9533" lon="-2.54404">
        <ele>40.2</ele>
        <time>2024-12-19T07:30:43Z</time>
      </trkpt>
      <trkpt lat="47.9533" lon="-2.54403">
        <ele>40.2</ele>
        <time>2024-12-19T07:30:44Z</time>
      </trkpt>
      <trkpt lat="47.95331" lon="-2.54401">
        <ele>40.1</ele>
        <time>2024-12-19T07:30:45Z</time>
      </trkpt>
      <trkpt lat="47.95332" lon="-2.544">
        <ele>40.1</ele>
        <time>2024-12-19T07:30:46Z</time>
      </trkpt>
      <trkpt lat="47.95333" lon="-2.544">
        <ele>40</ele>
        <time>2024-12-19T07:30:47Z</time>
      </trkpt>
      <trkpt lat="47.95334" lon="-2.54399">
        <ele>40</ele>
        <time>2024-12-19T07:30:48Z</time>
      </trkpt>
      <trkpt lat="47.95335" lon="-2.54398">
        <ele>40.1</ele>
        <time>2024-12-19T07:30:49Z</time>
      </trkpt>
      <trkpt lat="47.95335" lon="-2.54398">
        <ele>40.1</ele>
        <time>2024-12-19T07:30:50Z</time>
      </trkpt>
      <trkpt lat="47.95336" lon="-2.54398">
        <ele>40.2</ele>
        <time>2024-12-19T07:30:51Z</time>
      </trkpt>
      <trkpt lat="47.95337" lon="-2.54397">
        <ele>40.2</ele>
        <time>2024-12-19T07:30:52Z</time>
      </trkpt>
      <trkpt lat="47.95337" lon="-2.54398">
        <ele>40.3</ele>
        <time>2024-12-19T07:30:53Z</time>
      </trkpt>
      <trkpt lat="47.95338" lon="-2.54398">
        <ele>40.3</ele>
        <time>2024-12-19T07:30:54Z</time>
      </trkpt>
      <trkpt lat="47.95339" lon="-2.54397">
        <ele>40.4</ele>
        <time>2024-12-19T07:30:55Z</time>
      </trkpt>
      <trkpt lat="47.9534" lon="-2.54395">
        <ele>40.4</ele>
        <time>2024-12-19T07:30:56Z</time>
      </trkpt>
      <trkpt lat="47.95342" lon="-2.54394">
        <ele>40.4</ele>
        <time>2024-12-19T07:30:57Z</time>
      </trkpt>
      <trkpt lat="47.95343" lon="-2.54393">
        <ele>40.5</ele>
        <time>2024-12-19T07:30:58Z</time>
      </trkpt>
      <trkpt lat="47.95345" lon="-2.54391">
        <ele>40.5</ele>
        <time>2024-12-19T07:30:59Z</time>
      </trkpt>
      <trkpt lat="47.95346" lon="-2.5439">
        <ele>40.5</ele>
        <time>2024-12-19T07:31:00Z</time>
      </trkpt>
      <trkpt lat="47.95347" lon="-2.5439">
        <ele>40.5</ele>
        <time>2024-12-19T07:31:01Z</time>
      </trkpt>
      <trkpt lat="47.95348" lon="-2.54389">
        <ele>40.5</ele>
        <time>2024-12-19T07:31:02Z</time>
      </trkpt>
      <trkpt lat="47.95349" lon="-2.54388">
        <ele>40.6</ele>
        <time>2024-12-19T07:31:03Z</time>
      </trkpt>
      <trkpt lat="47.9535" lon="-2.54388">
        <ele>40.6</ele>
        <time>2024-12-19T07:31:04Z</time>
      </trkpt>
      <trkpt lat="47.95351" lon="-2.54387">
        <ele>40.7</ele>
        <time>2024-12-19T07:31:05Z</time>
      </trkpt>
      <trkpt lat="47.95351" lon="-2.54384">
        <ele>40.8</ele>
        <time>2024-12-19T07:31:06Z</time>
      </trkpt>
      <trkpt lat="47.95351" lon="-2.54381">
        <ele>40.8</ele>
        <time>2024-12-19T07:31:07Z</time>
      </trkpt>
      <trkpt lat="47.95351" lon="-2.54379">
        <ele>40.9</ele>
        <time>2024-12-19T07:31:08Z</time>
      </trkpt>
      <trkpt lat="47.9535" lon="-2.54378">
        <ele>40.9</ele>
        <time>2024-12-19T07:31:09Z</time>
      </trkpt>
      <trkpt lat="47.9535" lon="-2.54376">
        <ele>41</ele>
        <time>2024-12-19T07:31:10Z</time>
      </trkpt>
      <trkpt lat="47.9535" lon="-2.54375">
        <ele>41</ele>
        <time>2024-12-19T07:31:11Z</time>
      </trkpt>
      <trkpt lat="47.95349" lon="-2.54374">
        <ele>41</ele>
        <time>2024-12-19T07:31:12Z</time>
      </trkpt>
      <trkpt lat="47.95349" lon="-2.54373">
        <ele>41.1</ele>
        <time>2024-12-19T07:31:13Z</time>
      </trkpt>
      <trkpt lat="47.95348" lon="-2.54372">
        <ele>41.1</ele>
        <time>2024-12-19T07:31:14Z</time>
      </trkpt>
      <trkpt lat="47.95348" lon="-2.54371">
        <ele>41.1</ele>
        <time>2024-12-19T07:31:15Z</time>
      </trkpt>
      <trkpt lat="47.95348" lon="-2.54369">
        <ele>41.2</ele>
        <time>2024-12-19T07:31:16Z</time>
      </trkpt>
      <trkpt lat="47.95347" lon="-2.54367">
        <ele>41.3</ele>
        <time>2024-12-19T07:31:17Z</time>
      </trkpt>
      <trkpt lat="47.95347" lon="-2.54365">
        <ele>41.4</ele>
        <time>2024-12-19T07:31:18Z</time>
      </trkpt>
      <trkpt lat="47.95347" lon="-2.54363">
        <ele>41.4</ele>
        <time>2024-12-19T07:31:19Z</time>
      </trkpt>
      <trkpt lat="47.95348" lon="-2.54361">
        <ele>41.5</ele>
        <time>2024-12-19T07:31:20Z</time>
      </trkpt>
      <trkpt lat="47.95349" lon="-2.5436">
        <ele>41.5</ele>
        <time>2024-12-19T07:31:21Z</time>
      </trkpt>
      <trkpt lat="47.9535" lon="-2.54359">
        <ele>41.5</ele>
        <time>2024-12-19T07:31:22Z</time>
      </trkpt>
      <trkpt lat="47.95351" lon="-2.54358">
        <ele>41.5</ele>
        <time>2024-12-19T07:31:23Z</time>
      </trkpt>
      <trkpt lat="47.95352" lon="-2.54358">
        <ele>41.5</ele>
        <time>2024-12-19T07:31:24Z</time>
      </trkpt>
      <trkpt lat="47.95353" lon="-2.54357">
        <ele>41.4</ele>
        <time>2024-12-19T07:31:25Z</time>
      </trkpt>
      <trkpt lat="47.95354" lon="-2.54357">
        <ele>41.4</ele>
        <time>2024-12-19T07:31:26Z</time>
      </trkpt>
      <trkpt lat="47.95355" lon="-2.54356">
        <ele>41.4</ele>
        <time>2024-12-19T07:31:27Z</time>
      </trkpt>
      <trkpt lat="47.95357" lon="-2.54356">
        <ele>41.4</ele>
        <time>2024-12-19T07:31:28Z</time>
      </trkpt>
      <trkpt lat="47.95358" lon="-2.54355">
        <ele>41.3</ele>
        <time>2024-12-19T07:31:29Z</time>
      </trkpt>
      <trkpt lat="47.95359" lon="-2.54355">
        <ele>41.3</ele>
        <time>2024-12-19T07:31:30Z</time>
      </trkpt>
      <trkpt lat="47.95359" lon="-2.54354">
        <ele>41.3</ele>
        <time>2024-12-19T07:31:31Z</time>
      </trkpt>
      <trkpt lat="47.9536" lon="-2.54352">
        <ele>41.4</ele>
        <time>2024-12-19T07:31:32Z</time>
      </trkpt>
      <trkpt lat="47.95361" lon="-2.54349">
        <ele>41.5</ele>
        <time>2024-12-19T07:31:33Z</time>
      </trkpt>
      <trkpt lat="47.95361" lon="-2.54347">
        <ele>41.5</ele>
        <time>2024-12-19T07:31:34Z</time>
      </trkpt>
      <trkpt lat="47.95362" lon="-2.54346">
        <ele>41.5</ele>
        <time>2024-12-19T07:31:35Z</time>
      </trkpt>
      <trkpt lat="47.95364" lon="-2.54345">
        <ele>41.5</ele>
        <time>2024-12-19T07:31:36Z</time>
      </trkpt>
      <trkpt lat="47.95365" lon="-2.54344">
        <ele>41.5</ele>
        <time>2024-12-19T07:31:37Z</time>
      </trkpt>
      <trkpt lat="47.95366" lon="-2.54344">
        <ele>41.5</ele>
        <time>2024-12-19T07:31:38Z</time>
      </trkpt>
      <trkpt lat="47.95368" lon="-2.54343">
        <ele>41.4</ele>
        <time>2024-12-19T07:31:39Z</time>
      </trkpt>
      <trkpt lat="47.95369" lon="-2.54343">
        <ele>41.4</ele>
        <time>2024-12-19T07:31:40Z</time>
      </trkpt>
      <trkpt lat="47.9537" lon="-2.54343">
        <ele>41.3</ele>
        <time>2024-12-19T07:31:41Z</time>
      </trkpt>
      <trkpt lat="47.95372" lon="-2.54342">
        <ele>41.3</ele>
        <time>2024-12-19T07:31:42Z</time>
      </trkpt>
      <trkpt lat="47.95373" lon="-2.54342">
        <ele>41.2</ele>
        <time>2024-12-19T07:31:43Z</time>
      </trkpt>
      <trkpt lat="47.95374" lon="-2.54341">
        <ele>41.2</ele>
        <time>2024-12-19T07:31:44Z</time>
      </trkpt>
      <trkpt lat="47.95375" lon="-2.54341">
        <ele>41.1</ele>
        <time>2024-12-19T07:31:45Z</time>
      </trkpt>
      <trkpt lat="47.95376" lon="-2.5434">
        <ele>41.1</ele>
        <time>2024-12-19T07:31:46Z</time>
      </trkpt>
      <trkpt lat="47.95378" lon="-2.5434">
        <ele>41</ele>
        <time>2024-12-19T07:31:47Z</time>
      </trkpt>
      <trkpt lat="47.95379" lon="-2.54339">
        <ele>40.9</ele>
        <time>2024-12-19T07:31:48Z</time>
      </trkpt>
      <trkpt lat="47.9538" lon="-2.54338">
        <ele>40.8</ele>
        <time>2024-12-19T07:31:49Z</time>
      </trkpt>
      <trkpt lat="47.95382" lon="-2.54337">
        <ele>40.7</ele>
        <time>2024-12-19T07:31:50Z</time>
      </trkpt>
      <trkpt lat="47.95383" lon="-2.54336">
        <ele>40.6</ele>
        <time>2024-12-19T07:31:51Z</time>
      </trkpt>
      <trkpt lat="47.95384" lon="-2.54335">
        <ele>40.4</ele>
        <time>2024-12-19T07:31:52Z</time>
      </trkpt>
      <trkpt lat="47.95386" lon="-2.54335">
        <ele>40.3</ele>
        <time>2024-12-19T07:31:53Z</time>
      </trkpt>
      <trkpt lat="47.95387" lon="-2.54335">
        <ele>40.2</ele>
        <time>2024-12-19T07:31:54Z</time>
      </trkpt>
      <trkpt lat="47.95388" lon="-2.54335">
        <ele>40.1</ele>
        <time>2024-12-19T07:31:55Z</time>
      </trkpt>
      <trkpt lat="47.95389" lon="-2.54335">
        <ele>40.1</ele>
        <time>2024-12-19T07:31:56Z</time>
      </trkpt>
      <trkpt lat="47.95391" lon="-2.54334">
        <ele>40.1</ele>
        <time>2024-12-19T07:31:57Z</time>
      </trkpt>
      <trkpt lat="47.95392" lon="-2.54333">
        <ele>40.1</ele>
        <time>2024-12-19T07:31:58Z</time>
      </trkpt>
      <trkpt lat="47.95393" lon="-2.54332">
        <ele>40.2</ele>
        <time>2024-12-19T07:31:59Z</time>
      </trkpt>
      <trkpt lat="47.95394" lon="-2.54331">
        <ele>40.2</ele>
        <time>2024-12-19T07:32:00Z</time>
      </trkpt>
      <trkpt lat="47.95395" lon="-2.5433">
        <ele>40.3</ele>
        <time>2024-12-19T07:32:01Z</time>
      </trkpt>
      <trkpt lat="47.95396" lon="-2.54329">
        <ele>40.3</ele>
        <time>2024-12-19T07:32:02Z</time>
      </trkpt>
      <trkpt lat="47.95397" lon="-2.54328">
        <ele>40.4</ele>
        <time>2024-12-19T07:32:03Z</time>
      </trkpt>
      <trkpt lat="47.95398" lon="-2.54328">
        <ele>40.4</ele>
        <time>2024-12-19T07:32:04Z</time>
      </trkpt>
      <trkpt lat="47.95399" lon="-2.54327">
        <ele>40.4</ele>
        <time>2024-12-19T07:32:05Z</time>
      </trkpt>
      <trkpt lat="47.95401" lon="-2.54326">
        <ele>40.5</ele>
        <time>2024-12-19T07:32:06Z</time>
      </trkpt>
      <trkpt lat="47.95402" lon="-2.54326">
        <ele>40.5</ele>
        <time>2024-12-19T07:32:07Z</time>
      </trkpt>
      <trkpt lat="47.95403" lon="-2.54324">
        <ele>40.5</ele>
        <time>2024-12-19T07:32:08Z</time>
      </trkpt>
      <trkpt lat="47.95404" lon="-2.54323">
        <ele>40.5</ele>
        <time>2024-12-19T07:32:09Z</time>
      </trkpt>
      <trkpt lat="47.95405" lon="-2.54321">
        <ele>40.5</ele>
        <time>2024-12-19T07:32:10Z</time>
      </trkpt>
      <trkpt lat="47.95406" lon="-2.54319">
        <ele>40.5</ele>
        <time>2024-12-19T07:32:11Z</time>
      </trkpt>
      <trkpt lat="47.95407" lon="-2.54318">
        <ele>40.5</ele>
        <time>2024-12-19T07:32:12Z</time>
      </trkpt>
      <trkpt lat="47.95408" lon="-2.54317">
        <ele>40.5</ele>
        <time>2024-12-19T07:32:13Z</time>
      </trkpt>
      <trkpt lat="47.95409" lon="-2.54316">
        <ele>40.4</ele>
        <time>2024-12-19T07:32:14Z</time>
      </trkpt>
      <trkpt lat="47.9541" lon="-2.54314">
        <ele>40.4</ele>
        <time>2024-12-19T07:32:15Z</time>
      </trkpt>
      <trkpt lat="47.95411" lon="-2.54313">
        <ele>40.4</ele>
        <time>2024-12-19T07:32:16Z</time>
      </trkpt>
      <trkpt lat="47.95412" lon="-2.54312">
        <ele>40.3</ele>
        <time>2024-12-19T07:32:17Z</time>
      </trkpt>
      <trkpt lat="47.95413" lon="-2.54311">
        <ele>40.3</ele>
        <time>2024-12-19T07:32:18Z</time>
      </trkpt>
      <trkpt lat="47.95414" lon="-2.5431">
        <ele>40.2</ele>
        <time>2024-12-19T07:32:19Z</time>
      </trkpt>
      <trkpt lat="47.95414" lon="-2.5431">
        <ele>40.2</ele>
        <time>2024-12-19T07:32:20Z</time>
      </trkpt>
      <trkpt lat="47.95415" lon="-2.54309">
        <ele>40.2</ele>
        <time>2024-12-19T07:32:21Z</time>
      </trkpt>
      <trkpt lat="47.95415" lon="-2.54309">
        <ele>40.1</ele>
        <time>2024-12-19T07:32:22Z</time>
      </trkpt>
      <trkpt lat="47.95416" lon="-2.54308">
        <ele>40.1</ele>
        <time>2024-12-19T07:32:23Z</time>
      </trkpt>
      <trkpt lat="47.95416" lon="-2.54308">
        <ele>40.1</ele>
        <time>2024-12-19T07:32:24Z</time>
      </trkpt>
      <trkpt lat="47.95417" lon="-2.54307">
        <ele>40.1</ele>
        <time>2024-12-19T07:32:25Z</time>
      </trkpt>
      <trkpt lat="47.95418" lon="-2.54306">
        <ele>40.1</ele>
        <time>2024-12-19T07:32:26Z</time>
      </trkpt>
      <trkpt lat="47.95418" lon="-2.54304">
        <ele>40.1</ele>
        <time>2024-12-19T07:32:27Z</time>
      </trkpt>
      <trkpt lat="47.95419" lon="-2.54303">
        <ele>40.2</ele>
        <time>2024-12-19T07:32:28Z</time>
      </trkpt>
      <trkpt lat="47.95419" lon="-2.54302">
        <ele>40.2</ele>
        <time>2024-12-19T07:32:29Z</time>
      </trkpt>
      <trkpt lat="47.9542" lon="-2.54301">
        <ele>40.2</ele>
        <time>2024-12-19T07:32:30Z</time>
      </trkpt>
      <trkpt lat="47.9542" lon="-2.54299">
        <ele>40.3</ele>
        <time>2024-12-19T07:32:31Z</time>
      </trkpt>
      <trkpt lat="47.9542" lon="-2.54297">
        <ele>40.4</ele>
        <time>2024-12-19T07:32:32Z</time>
      </trkpt>
      <trkpt lat="47.95421" lon="-2.54294">
        <ele>40.4</ele>
        <time>2024-12-19T07:32:33Z</time>
      </trkpt>
      <trkpt lat="47.95421" lon="-2.54292">
        <ele>40.5</ele>
        <time>2024-12-19T07:32:34Z</time>
      </trkpt>
      <trkpt lat="47.95422" lon="-2.5429">
        <ele>40.5</ele>
        <time>2024-12-19T07:32:35Z</time>
      </trkpt>
      <trkpt lat="47.95422" lon="-2.54288">
        <ele>40.6</ele>
        <time>2024-12-19T07:32:36Z</time>
      </trkpt>
      <trkpt lat="47.95423" lon="-2.54286">
        <ele>40.6</ele>
        <time>2024-12-19T07:32:37Z</time>
      </trkpt>
      <trkpt lat="47.95424" lon="-2.54285">
        <ele>40.6</ele>
        <time>2024-12-19T07:32:38Z</time>
      </trkpt>
      <trkpt lat="47.95426" lon="-2.54284">
        <ele>40.6</ele>
        <time>2024-12-19T07:32:39Z</time>
      </trkpt>
      <trkpt lat="47.95427" lon="-2.54283">
        <ele>40.6</ele>
        <time>2024-12-19T07:32:40Z</time>
      </trkpt>
      <trkpt lat="47.95428" lon="-2.54281">
        <ele>40.6</ele>
        <time>2024-12-19T07:32:41Z</time>
      </trkpt>
      <trkpt lat="47.95428" lon="-2.5428">
        <ele>40.6</ele>
        <time>2024-12-19T07:32:42Z</time>
      </trkpt>
      <trkpt lat="47.95429" lon="-2.54279">
        <ele>40.6</ele>
        <time>2024-12-19T07:32:43Z</time>
      </trkpt>
      <trkpt lat="47.95429" lon="-2.54278">
        <ele>40.6</ele>
        <time>2024-12-19T07:32:44Z</time>
      </trkpt>
      <trkpt lat="47.95429" lon="-2.54277">
        <ele>40.6</ele>
        <time>2024-12-19T07:32:45Z</time>
      </trkpt>
      <trkpt lat="47.9543" lon="-2.54275">
        <ele>40.7</ele>
        <time>2024-12-19T07:32:46Z</time>
      </trkpt>
      <trkpt lat="47.95431" lon="-2.54274">
        <ele>40.8</ele>
        <time>2024-12-19T07:32:47Z</time>
      </trkpt>
      <trkpt lat="47.95431" lon="-2.54272">
        <ele>40.9</ele>
        <time>2024-12-19T07:32:48Z</time>
      </trkpt>
      <trkpt lat="47.95432" lon="-2.54271">
        <ele>40.9</ele>
        <time>2024-12-19T07:32:49Z</time>
      </trkpt>
      <trkpt lat="47.95433" lon="-2.5427">
        <ele>40.9</ele>
        <time>2024-12-19T07:32:50Z</time>
      </trkpt>
      <trkpt lat="47.95433" lon="-2.54269">
        <ele>41</ele>
        <time>2024-12-19T07:32:51Z</time>
      </trkpt>
      <trkpt lat="47.95434" lon="-2.54269">
        <ele>40.9</ele>
        <time>2024-12-19T07:32:52Z</time>
      </trkpt>
      <trkpt lat="47.95435" lon="-2.54268">
        <ele>40.9</ele>
        <time>2024-12-19T07:32:53Z</time>
      </trkpt>
      <trkpt lat="47.95437" lon="-2.54268">
        <ele>40.8</ele>
        <time>2024-12-19T07:32:54Z</time>
      </trkpt>
      <trkpt lat="47.95438" lon="-2.54267">
        <ele>40.8</ele>
        <time>2024-12-19T07:32:55Z</time>
      </trkpt>
      <trkpt lat="47.9544" lon="-2.54266">
        <ele>40.7</ele>
        <time>2024-12-19T07:32:56Z</time>
      </trkpt>
      <trkpt lat="47.9544" lon="-2.54265">
        <ele>40.7</ele>
        <time>2024-12-19T07:32:57Z</time>
      </trkpt>
      <trkpt lat="47.95441" lon="-2.54265">
        <ele>40.7</ele>
        <time>2024-12-19T07:32:58Z</time>
      </trkpt>
      <trkpt lat="47.95441" lon="-2.54264">
        <ele>40.7</ele>
        <time>2024-12-19T07:32:59Z</time>
      </trkpt>
      <trkpt lat="47.95442" lon="-2.54262">
        <ele>40.8</ele>
        <time>2024-12-19T07:33:00Z</time>
      </trkpt>
      <trkpt lat="47.95442" lon="-2.54261">
        <ele>40.8</ele>
        <time>2024-12-19T07:33:01Z</time>
      </trkpt>
      <trkpt lat="47.95443" lon="-2.54259">
        <ele>40.8</ele>
        <time>2024-12-19T07:33:02Z</time>
      </trkpt>
      <trkpt lat="47.95444" lon="-2.54258">
        <ele>40.8</ele>
        <time>2024-12-19T07:33:03Z</time>
      </trkpt>
      <trkpt lat="47.95444" lon="-2.54256">
        <ele>40.8</ele>
        <time>2024-12-19T07:33:04Z</time>
      </trkpt>
      <trkpt lat="47.95444" lon="-2.54254">
        <ele>40.9</ele>
        <time>2024-12-19T07:33:05Z</time>
      </trkpt>
      <trkpt lat="47.95444" lon="-2.54252">
        <ele>41</ele>
        <time>2024-12-19T07:33:06Z</time>
      </trkpt>
      <trkpt lat="47.95444" lon="-2.5425">
        <ele>41</ele>
        <time>2024-12-19T07:33:07Z</time>
      </trkpt>
      <trkpt lat="47.95444" lon="-2.54249">
        <ele>41.2</ele>
        <time>2024-12-19T07:33:08Z</time>
      </trkpt>
      <trkpt lat="47.95444" lon="-2.54247">
        <ele>41.3</ele>
        <time>2024-12-19T07:33:09Z</time>
      </trkpt>
      <trkpt lat="47.95445" lon="-2.54246">
        <ele>41.5</ele>
        <time>2024-12-19T07:33:10Z</time>
      </trkpt>
      <trkpt lat="47.95446" lon="-2.54244">
        <ele>41.6</ele>
        <time>2024-12-19T07:33:11Z</time>
      </trkpt>
      <trkpt lat="47.95446" lon="-2.54243">
        <ele>41.7</ele>
        <time>2024-12-19T07:33:12Z</time>
      </trkpt>
      <trkpt lat="47.95447" lon="-2.54241">
        <ele>41.8</ele>
        <time>2024-12-19T07:33:13Z</time>
      </trkpt>
      <trkpt lat="47.95448" lon="-2.5424">
        <ele>41.8</ele>
        <time>2024-12-19T07:33:14Z</time>
      </trkpt>
      <trkpt lat="47.95449" lon="-2.54238">
        <ele>41.9</ele>
        <time>2024-12-19T07:33:15Z</time>
      </trkpt>
      <trkpt lat="47.9545" lon="-2.54236">
        <ele>42</ele>
        <time>2024-12-19T07:33:16Z</time>
      </trkpt>
      <trkpt lat="47.9545" lon="-2.54234">
        <ele>42.2</ele>
        <time>2024-12-19T07:33:17Z</time>
      </trkpt>
      <trkpt lat="47.95451" lon="-2.54231">
        <ele>42.3</ele>
        <time>2024-12-19T07:33:18Z</time>
      </trkpt>
      <trkpt lat="47.95452" lon="-2.54229">
        <ele>42.4</ele>
        <time>2024-12-19T07:33:19Z</time>
      </trkpt>
      <trkpt lat="47.95453" lon="-2.54227">
        <ele>42.4</ele>
        <time>2024-12-19T07:33:20Z</time>
      </trkpt>
      <trkpt lat="47.95454" lon="-2.54225">
        <ele>42.4</ele>
        <time>2024-12-19T07:33:21Z</time>
      </trkpt>
      <trkpt lat="47.95455" lon="-2.54223">
        <ele>42.4</ele>
        <time>2024-12-19T07:33:22Z</time>
      </trkpt>
      <trkpt lat="47.95456" lon="-2.54222">
        <ele>42.4</ele>
        <time>2024-12-19T07:33:23Z</time>
      </trkpt>
      <trkpt lat="47.95456" lon="-2.54221">
        <ele>42.4</ele>
        <time>2024-12-19T07:33:24Z</time>
      </trkpt>
      <trkpt lat="47.95457" lon="-2.54219">
        <ele>42.5</ele>
        <time>2024-12-19T07:33:25Z</time>
      </trkpt>
      <trkpt lat="47.95458" lon="-2.54218">
        <ele>42.5</ele>
        <time>2024-12-19T07:33:26Z</time>
      </trkpt>
      <trkpt lat="47.95458" lon="-2.54217">
        <ele>42.4</ele>
        <time>2024-12-19T07:33:27Z</time>
      </trkpt>
      <trkpt lat="47.95459" lon="-2.54215">
        <ele>42.4</ele>
        <time>2024-12-19T07:33:28Z</time>
      </trkpt>
      <trkpt lat="47.9546" lon="-2.54213">
        <ele>42.4</ele>
        <time>2024-12-19T07:33:29Z</time>
      </trkpt>
      <trkpt lat="47.95461" lon="-2.54213">
        <ele>42.3</ele>
        <time>2024-12-19T07:33:30Z</time>
      </trkpt>
      <trkpt lat="47.95462" lon="-2.54212">
        <ele>42</ele>
        <time>2024-12-19T07:33:31Z</time>
      </trkpt>
      <trkpt lat="47.95464" lon="-2.54211">
        <ele>41.8</ele>
        <time>2024-12-19T07:33:32Z</time>
      </trkpt>
      <trkpt lat="47.95465" lon="-2.5421">
        <ele>41.7</ele>
        <time>2024-12-19T07:33:33Z</time>
      </trkpt>
      <trkpt lat="47.95466" lon="-2.54209">
        <ele>41.6</ele>
        <time>2024-12-19T07:33:34Z</time>
      </trkpt>
      <trkpt lat="47.95467" lon="-2.54207">
        <ele>41.5</ele>
        <time>2024-12-19T07:33:35Z</time>
      </trkpt>
      <trkpt lat="47.95468" lon="-2.54205">
        <ele>41.4</ele>
        <time>2024-12-19T07:33:36Z</time>
      </trkpt>
      <trkpt lat="47.95469" lon="-2.54203">
        <ele>41.3</ele>
        <time>2024-12-19T07:33:37Z</time>
      </trkpt>
      <trkpt lat="47.9547" lon="-2.54201">
        <ele>41.1</ele>
        <time>2024-12-19T07:33:38Z</time>
      </trkpt>
      <trkpt lat="47.95471" lon="-2.54199">
        <ele>41.1</ele>
        <time>2024-12-19T07:33:39Z</time>
      </trkpt>
      <trkpt lat="47.95471" lon="-2.54197">
        <ele>41.1</ele>
        <time>2024-12-19T07:33:40Z</time>
      </trkpt>
      <trkpt lat="47.95472" lon="-2.54195">
        <ele>41.1</ele>
        <time>2024-12-19T07:33:41Z</time>
      </trkpt>
      <trkpt lat="47.95472" lon="-2.54193">
        <ele>41.3</ele>
        <time>2024-12-19T07:33:42Z</time>
      </trkpt>
      <trkpt lat="47.95473" lon="-2.5419">
        <ele>41.7</ele>
        <time>2024-12-19T07:33:43Z</time>
      </trkpt>
      <trkpt lat="47.95474" lon="-2.54187">
        <ele>42</ele>
        <time>2024-12-19T07:33:44Z</time>
      </trkpt>
      <trkpt lat="47.95474" lon="-2.54185">
        <ele>42.2</ele>
        <time>2024-12-19T07:33:45Z</time>
      </trkpt>
      <trkpt lat="47.95475" lon="-2.54184">
        <ele>42.4</ele>
        <time>2024-12-19T07:33:46Z</time>
      </trkpt>
      <trkpt lat="47.95475" lon="-2.54182">
        <ele>42.6</ele>
        <time>2024-12-19T07:33:47Z</time>
      </trkpt>
      <trkpt lat="47.95475" lon="-2.54181">
        <ele>42.6</ele>
        <time>2024-12-19T07:33:48Z</time>
      </trkpt>
      <trkpt lat="47.95475" lon="-2.54181">
        <ele>42.7</ele>
        <time>2024-12-19T07:33:49Z</time>
      </trkpt>
      <trkpt lat="47.95475" lon="-2.54181">
        <ele>42.7</ele>
        <time>2024-12-19T07:33:50Z</time>
      </trkpt>
      <trkpt lat="47.95476" lon="-2.5418">
        <ele>42.7</ele>
        <time>2024-12-19T07:33:51Z</time>
      </trkpt>
      <trkpt lat="47.95475" lon="-2.5418">
        <ele>42.8</ele>
        <time>2024-12-19T07:33:52Z</time>
      </trkpt>
      <trkpt lat="47.95475" lon="-2.54179">
        <ele>42.9</ele>
        <time>2024-12-19T07:33:53Z</time>
      </trkpt>
      <trkpt lat="47.95475" lon="-2.54179">
        <ele>43</ele>
        <time>2024-12-19T07:33:54Z</time>
      </trkpt>
      <trkpt lat="47.95475" lon="-2.54178">
        <ele>43.1</ele>
        <time>2024-12-19T07:33:55Z</time>
      </trkpt>
      <trkpt lat="47.95475" lon="-2.54177">
        <ele>43.2</ele>
        <time>2024-12-19T07:33:56Z</time>
      </trkpt>
      <trkpt lat="47.95475" lon="-2.54176">
        <ele>43.3</ele>
        <time>2024-12-19T07:33:57Z</time>
      </trkpt>
      <trkpt lat="47.95475" lon="-2.54175">
        <ele>43.5</ele>
        <time>2024-12-19T07:33:58Z</time>
      </trkpt>
      <trkpt lat="47.95475" lon="-2.54174">
        <ele>43.6</ele>
        <time>2024-12-19T07:33:59Z</time>
      </trkpt>
      <trkpt lat="47.95475" lon="-2.54172">
        <ele>43.8</ele>
        <time>2024-12-19T07:34:00Z</time>
      </trkpt>
      <trkpt lat="47.95475" lon="-2.5417">
        <ele>44.1</ele>
        <time>2024-12-19T07:34:01Z</time>
      </trkpt>
      <trkpt lat="47.95475" lon="-2.54168">
        <ele>44.4</ele>
        <time>2024-12-19T07:34:02Z</time>
      </trkpt>
      <trkpt lat="47.95476" lon="-2.54166">
        <ele>44.4</ele>
        <time>2024-12-19T07:34:03Z</time>
      </trkpt>
      <trkpt lat="47.95476" lon="-2.54164">
        <ele>44.4</ele>
        <time>2024-12-19T07:34:04Z</time>
      </trkpt>
      <trkpt lat="47.95476" lon="-2.54163">
        <ele>44.4</ele>
        <time>2024-12-19T07:34:05Z</time>
      </trkpt>
      <trkpt lat="47.95477" lon="-2.54161">
        <ele>44.4</ele>
        <time>2024-12-19T07:34:06Z</time>
      </trkpt>
      <trkpt lat="47.95477" lon="-2.54159">
        <ele>44.4</ele>
        <time>2024-12-19T07:34:07Z</time>
      </trkpt>
      <trkpt lat="47.95477" lon="-2.54157">
        <ele>44.4</ele>
        <time>2024-12-19T07:34:08Z</time>
      </trkpt>
      <trkpt lat="47.95478" lon="-2.54155">
        <ele>44.5</ele>
        <time>2024-12-19T07:34:09Z</time>
      </trkpt>
      <trkpt lat="47.95478" lon="-2.54153">
        <ele>44.5</ele>
        <time>2024-12-19T07:34:10Z</time>
      </trkpt>
      <trkpt lat="47.95478" lon="-2.54151">
        <ele>44.5</ele>
        <time>2024-12-19T07:34:11Z</time>
      </trkpt>
      <trkpt lat="47.95479" lon="-2.54148">
        <ele>44.5</ele>
        <time>2024-12-19T07:34:12Z</time>
      </trkpt>
      <trkpt lat="47.95479" lon="-2.54146">
        <ele>44.4</ele>
        <time>2024-12-19T07:34:13Z</time>
      </trkpt>
      <trkpt lat="47.9548" lon="-2.54144">
        <ele>44.4</ele>
        <time>2024-12-19T07:34:14Z</time>
      </trkpt>
      <trkpt lat="47.95481" lon="-2.54143">
        <ele>44.3</ele>
        <time>2024-12-19T07:34:15Z</time>
      </trkpt>
      <trkpt lat="47.95482" lon="-2.54141">
        <ele>44.2</ele>
        <time>2024-12-19T07:34:16Z</time>
      </trkpt>
      <trkpt lat="47.95483" lon="-2.54139">
        <ele>44.1</ele>
        <time>2024-12-19T07:34:17Z</time>
      </trkpt>
      <trkpt lat="47.95483" lon="-2.54138">
        <ele>44.1</ele>
        <time>2024-12-19T07:34:18Z</time>
      </trkpt>
      <trkpt lat="47.95484" lon="-2.54136">
        <ele>44</ele>
        <time>2024-12-19T07:34:19Z</time>
      </trkpt>
      <trkpt lat="47.95484" lon="-2.54134">
        <ele>44</ele>
        <time>2024-12-19T07:34:20Z</time>
      </trkpt>
      <trkpt lat="47.95485" lon="-2.54132">
        <ele>43.9</ele>
        <time>2024-12-19T07:34:21Z</time>
      </trkpt>
      <trkpt lat="47.95485" lon="-2.54131">
        <ele>43.9</ele>
        <time>2024-12-19T07:34:22Z</time>
      </trkpt>
      <trkpt lat="47.95485" lon="-2.5413">
        <ele>43.8</ele>
        <time>2024-12-19T07:34:23Z</time>
      </trkpt>
      <trkpt lat="47.95486" lon="-2.54128">
        <ele>43.7</ele>
        <time>2024-12-19T07:34:24Z</time>
      </trkpt>
      <trkpt lat="47.95487" lon="-2.54126">
        <ele>43.6</ele>
        <time>2024-12-19T07:34:25Z</time>
      </trkpt>
      <trkpt lat="47.95487" lon="-2.54124">
        <ele>43.6</ele>
        <time>2024-12-19T07:34:26Z</time>
      </trkpt>
      <trkpt lat="47.95487" lon="-2.54123">
        <ele>43.6</ele>
        <time>2024-12-19T07:34:27Z</time>
      </trkpt>
      <trkpt lat="47.95487" lon="-2.54121">
        <ele>43.6</ele>
        <time>2024-12-19T07:34:28Z</time>
      </trkpt>
      <trkpt lat="47.95487" lon="-2.54119">
        <ele>43.7</ele>
        <time>2024-12-19T07:34:29Z</time>
      </trkpt>
      <trkpt lat="47.95487" lon="-2.54117">
        <ele>43.7</ele>
        <time>2024-12-19T07:34:30Z</time>
      </trkpt>
      <trkpt lat="47.95487" lon="-2.54114">
        <ele>43.7</ele>
        <time>2024-12-19T07:34:31Z</time>
      </trkpt>
      <trkpt lat="47.95488" lon="-2.54112">
        <ele>43.7</ele>
        <time>2024-12-19T07:34:32Z</time>
      </trkpt>
      <trkpt lat="47.95488" lon="-2.5411">
        <ele>43.7</ele>
        <time>2024-12-19T07:34:33Z</time>
      </trkpt>
      <trkpt lat="47.95488" lon="-2.54108">
        <ele>43.8</ele>
        <time>2024-12-19T07:34:34Z</time>
      </trkpt>
      <trkpt lat="47.95488" lon="-2.54107">
        <ele>43.8</ele>
        <time>2024-12-19T07:34:35Z</time>
      </trkpt>
      <trkpt lat="47.95489" lon="-2.54105">
        <ele>43.9</ele>
        <time>2024-12-19T07:34:36Z</time>
      </trkpt>
      <trkpt lat="47.95489" lon="-2.54103">
        <ele>43.9</ele>
        <time>2024-12-19T07:34:37Z</time>
      </trkpt>
      <trkpt lat="47.9549" lon="-2.54101">
        <ele>43.9</ele>
        <time>2024-12-19T07:34:38Z</time>
      </trkpt>
      <trkpt lat="47.95491" lon="-2.54099">
        <ele>43.8</ele>
        <time>2024-12-19T07:34:39Z</time>
      </trkpt>
      <trkpt lat="47.95492" lon="-2.54097">
        <ele>43.7</ele>
        <time>2024-12-19T07:34:40Z</time>
      </trkpt>
      <trkpt lat="47.95493" lon="-2.54095">
        <ele>43.6</ele>
        <time>2024-12-19T07:34:41Z</time>
      </trkpt>
      <trkpt lat="47.95494" lon="-2.54093">
        <ele>43.5</ele>
        <time>2024-12-19T07:34:42Z</time>
      </trkpt>
      <trkpt lat="47.95495" lon="-2.5409">
        <ele>43.5</ele>
        <time>2024-12-19T07:34:43Z</time>
      </trkpt>
      <trkpt lat="47.95496" lon="-2.54087">
        <ele>43.5</ele>
        <time>2024-12-19T07:34:44Z</time>
      </trkpt>
      <trkpt lat="47.95497" lon="-2.54085">
        <ele>43.5</ele>
        <time>2024-12-19T07:34:45Z</time>
      </trkpt>
      <trkpt lat="47.95498" lon="-2.54083">
        <ele>43.4</ele>
        <time>2024-12-19T07:34:46Z</time>
      </trkpt>
      <trkpt lat="47.955" lon="-2.54082">
        <ele>43.3</ele>
        <time>2024-12-19T07:34:47Z</time>
      </trkpt>
      <trkpt lat="47.95501" lon="-2.5408">
        <ele>43.3</ele>
        <time>2024-12-19T07:34:48Z</time>
      </trkpt>
      <trkpt lat="47.95503" lon="-2.54079">
        <ele>43.4</ele>
        <time>2024-12-19T07:34:49Z</time>
      </trkpt>
      <trkpt lat="47.95505" lon="-2.54079">
        <ele>43.4</ele>
        <time>2024-12-19T07:34:50Z</time>
      </trkpt>
      <trkpt lat="47.95506" lon="-2.54078">
        <ele>43.3</ele>
        <time>2024-12-19T07:34:51Z</time>
      </trkpt>
      <trkpt lat="47.95508" lon="-2.54077">
        <ele>43.3</ele>
        <time>2024-12-19T07:34:52Z</time>
      </trkpt>
      <trkpt lat="47.95509" lon="-2.54076">
        <ele>43.4</ele>
        <time>2024-12-19T07:34:53Z</time>
      </trkpt>
      <trkpt lat="47.9551" lon="-2.54074">
        <ele>43.6</ele>
        <time>2024-12-19T07:34:54Z</time>
      </trkpt>
      <trkpt lat="47.95511" lon="-2.54073">
        <ele>43.7</ele>
        <time>2024-12-19T07:34:55Z</time>
      </trkpt>
      <trkpt lat="47.95512" lon="-2.54072">
        <ele>43.8</ele>
        <time>2024-12-19T07:34:56Z</time>
      </trkpt>
      <trkpt lat="47.95513" lon="-2.54071">
        <ele>43.8</ele>
        <time>2024-12-19T07:34:57Z</time>
      </trkpt>
      <trkpt lat="47.95515" lon="-2.5407">
        <ele>43.9</ele>
        <time>2024-12-19T07:34:58Z</time>
      </trkpt>
      <trkpt lat="47.95516" lon="-2.54069">
        <ele>43.9</ele>
        <time>2024-12-19T07:34:59Z</time>
      </trkpt>
      <trkpt lat="47.95517" lon="-2.54068">
        <ele>43.9</ele>
        <time>2024-12-19T07:35:00Z</time>
      </trkpt>
      <trkpt lat="47.95518" lon="-2.54068">
        <ele>44</ele>
        <time>2024-12-19T07:35:01Z</time>
      </trkpt>
      <trkpt lat="47.9552" lon="-2.54067">
        <ele>43.9</ele>
        <time>2024-12-19T07:35:02Z</time>
      </trkpt>
      <trkpt lat="47.95521" lon="-2.54067">
        <ele>43.8</ele>
        <time>2024-12-19T07:35:03Z</time>
      </trkpt>
      <trkpt lat="47.95522" lon="-2.54067">
        <ele>43.8</ele>
        <time>2024-12-19T07:35:04Z</time>
      </trkpt>
      <trkpt lat="47.95523" lon="-2.54066">
        <ele>43.8</ele>
        <time>2024-12-19T07:35:05Z</time>
      </trkpt>
      <trkpt lat="47.95524" lon="-2.54065">
        <ele>43.9</ele>
        <time>2024-12-19T07:35:06Z</time>
      </trkpt>
      <trkpt lat="47.95525" lon="-2.54064">
        <ele>44</ele>
        <time>2024-12-19T07:35:07Z</time>
      </trkpt>
      <trkpt lat="47.95526" lon="-2.54062">
        <ele>44.2</ele>
        <time>2024-12-19T07:35:08Z</time>
      </trkpt>
      <trkpt lat="47.95527" lon="-2.5406">
        <ele>44.3</ele>
        <time>2024-12-19T07:35:09Z</time>
      </trkpt>
      <trkpt lat="47.95529" lon="-2.5406">
        <ele>44.5</ele>
        <time>2024-12-19T07:35:10Z</time>
      </trkpt>
      <trkpt lat="47.9553" lon="-2.54059">
        <ele>44.6</ele>
        <time>2024-12-19T07:35:11Z</time>
      </trkpt>
      <trkpt lat="47.95531" lon="-2.54059">
        <ele>44.6</ele>
        <time>2024-12-19T07:35:12Z</time>
      </trkpt>
      <trkpt lat="47.95533" lon="-2.5406">
        <ele>44.6</ele>
        <time>2024-12-19T07:35:13Z</time>
      </trkpt>
      <trkpt lat="47.95533" lon="-2.5406">
        <ele>44.5</ele>
        <time>2024-12-19T07:35:14Z</time>
      </trkpt>
      <trkpt lat="47.95534" lon="-2.54061">
        <ele>44.4</ele>
        <time>2024-12-19T07:35:15Z</time>
      </trkpt>
      <trkpt lat="47.95536" lon="-2.54062">
        <ele>44.4</ele>
        <time>2024-12-19T07:35:16Z</time>
      </trkpt>
      <trkpt lat="47.95537" lon="-2.54063">
        <ele>44.2</ele>
        <time>2024-12-19T07:35:17Z</time>
      </trkpt>
      <trkpt lat="47.95538" lon="-2.54064">
        <ele>44.1</ele>
        <time>2024-12-19T07:35:18Z</time>
      </trkpt>
      <trkpt lat="47.9554" lon="-2.54066">
        <ele>44</ele>
        <time>2024-12-19T07:35:19Z</time>
      </trkpt>
      <trkpt lat="47.95541" lon="-2.54067">
        <ele>43.9</ele>
        <time>2024-12-19T07:35:20Z</time>
      </trkpt>
      <trkpt lat="47.95542" lon="-2.54068">
        <ele>43.8</ele>
        <time>2024-12-19T07:35:21Z</time>
      </trkpt>
      <trkpt lat="47.95544" lon="-2.54068">
        <ele>43.7</ele>
        <time>2024-12-19T07:35:22Z</time>
      </trkpt>
      <trkpt lat="47.95545" lon="-2.5407">
        <ele>43.6</ele>
        <time>2024-12-19T07:35:23Z</time>
      </trkpt>
      <trkpt lat="47.95546" lon="-2.5407">
        <ele>43.5</ele>
        <time>2024-12-19T07:35:24Z</time>
      </trkpt>
      <trkpt lat="47.95547" lon="-2.54071">
        <ele>43.4</ele>
        <time>2024-12-19T07:35:25Z</time>
      </trkpt>
      <trkpt lat="47.95547" lon="-2.54072">
        <ele>43.3</ele>
        <time>2024-12-19T07:35:26Z</time>
      </trkpt>
      <trkpt lat="47.95547" lon="-2.54073">
        <ele>43.2</ele>
        <time>2024-12-19T07:35:27Z</time>
      </trkpt>
      <trkpt lat="47.95547" lon="-2.54074">
        <ele>43.1</ele>
        <time>2024-12-19T07:35:28Z</time>
      </trkpt>
      <trkpt lat="47.95547" lon="-2.54075">
        <ele>43</ele>
        <time>2024-12-19T07:35:29Z</time>
      </trkpt>
      <trkpt lat="47.95547" lon="-2.54075">
        <ele>42.9</ele>
        <time>2024-12-19T07:35:30Z</time>
      </trkpt>
      <trkpt lat="47.95547" lon="-2.54076">
        <ele>42.7</ele>
        <time>2024-12-19T07:35:31Z</time>
      </trkpt>
      <trkpt lat="47.95548" lon="-2.54078">
        <ele>42.4</ele>
        <time>2024-12-19T07:35:32Z</time>
      </trkpt>
      <trkpt lat="47.95548" lon="-2.54081">
        <ele>42.1</ele>
        <time>2024-12-19T07:35:33Z</time>
      </trkpt>
      <trkpt lat="47.95548" lon="-2.54083">
        <ele>41.8</ele>
        <time>2024-12-19T07:35:34Z</time>
      </trkpt>
      <trkpt lat="47.95548" lon="-2.54087">
        <ele>41.7</ele>
        <time>2024-12-19T07:35:36Z</time>
      </trkpt>
      <trkpt lat="47.95548" lon="-2.54089">
        <ele>41.7</ele>
        <time>2024-12-19T07:35:37Z</time>
      </trkpt>
      <trkpt lat="47.95548" lon="-2.5409">
        <ele>41.7</ele>
        <time>2024-12-19T07:35:38Z</time>
      </trkpt>
      <trkpt lat="47.95549" lon="-2.54093">
        <ele>41.7</ele>
        <time>2024-12-19T07:35:39Z</time>
      </trkpt>
      <trkpt lat="47.95549" lon="-2.54094">
        <ele>41.8</ele>
        <time>2024-12-19T07:35:40Z</time>
      </trkpt>
      <trkpt lat="47.95549" lon="-2.54096">
        <ele>41.8</ele>
        <time>2024-12-19T07:35:41Z</time>
      </trkpt>
      <trkpt lat="47.95549" lon="-2.54098">
        <ele>41.8</ele>
        <time>2024-12-19T07:35:42Z</time>
      </trkpt>
      <trkpt lat="47.95549" lon="-2.54098">
        <ele>41.8</ele>
        <time>2024-12-19T07:35:43Z</time>
      </trkpt>
      <trkpt lat="47.95549" lon="-2.54098">
        <ele>41.8</ele>
        <time>2024-12-19T07:35:44Z</time>
      </trkpt>
      <trkpt lat="47.9555" lon="-2.54099">
        <ele>41.8</ele>
        <time>2024-12-19T07:35:45Z</time>
      </trkpt>
      <trkpt lat="47.9555" lon="-2.54099">
        <ele>41.8</ele>
        <time>2024-12-19T07:35:46Z</time>
      </trkpt>
      <trkpt lat="47.9555" lon="-2.54099">
        <ele>41.8</ele>
        <time>2024-12-19T07:35:47Z</time>
      </trkpt>
      <trkpt lat="47.9555" lon="-2.54099">
        <ele>41.8</ele>
        <time>2024-12-19T07:35:48Z</time>
      </trkpt>
      <trkpt lat="47.9555" lon="-2.54099">
        <ele>41.8</ele>
        <time>2024-12-19T07:35:49Z</time>
      </trkpt>
      <trkpt lat="47.9555" lon="-2.54101">
        <ele>41.8</ele>
        <time>2024-12-19T07:35:50Z</time>
      </trkpt>
      <trkpt lat="47.95551" lon="-2.54103">
        <ele>41.8</ele>
        <time>2024-12-19T07:35:51Z</time>
      </trkpt>
      <trkpt lat="47.95552" lon="-2.54105">
        <ele>41.9</ele>
        <time>2024-12-19T07:35:52Z</time>
      </trkpt>
      <trkpt lat="47.95552" lon="-2.54106">
        <ele>41.9</ele>
        <time>2024-12-19T07:35:53Z</time>
      </trkpt>
      <trkpt lat="47.95553" lon="-2.54108">
        <ele>41.9</ele>
        <time>2024-12-19T07:35:54Z</time>
      </trkpt>
      <trkpt lat="47.95553" lon="-2.54109">
        <ele>41.9</ele>
        <time>2024-12-19T07:35:55Z</time>
      </trkpt>
      <trkpt lat="47.95553" lon="-2.5411">
        <ele>41.9</ele>
        <time>2024-12-19T07:35:56Z</time>
      </trkpt>
      <trkpt lat="47.95554" lon="-2.54112">
        <ele>42</ele>
        <time>2024-12-19T07:35:57Z</time>
      </trkpt>
      <trkpt lat="47.95555" lon="-2.54114">
        <ele>42.2</ele>
        <time>2024-12-19T07:35:58Z</time>
      </trkpt>
      <trkpt lat="47.95555" lon="-2.54115">
        <ele>42.4</ele>
        <time>2024-12-19T07:35:59Z</time>
      </trkpt>
      <trkpt lat="47.95556" lon="-2.54116">
        <ele>42.5</ele>
        <time>2024-12-19T07:36:00Z</time>
      </trkpt>
      <trkpt lat="47.95557" lon="-2.54117">
        <ele>42.7</ele>
        <time>2024-12-19T07:36:01Z</time>
      </trkpt>
      <trkpt lat="47.95558" lon="-2.54118">
        <ele>42.9</ele>
        <time>2024-12-19T07:36:02Z</time>
      </trkpt>
      <trkpt lat="47.95559" lon="-2.54119">
        <ele>43</ele>
        <time>2024-12-19T07:36:03Z</time>
      </trkpt>
      <trkpt lat="47.9556" lon="-2.54119">
        <ele>43.1</ele>
        <time>2024-12-19T07:36:04Z</time>
      </trkpt>
      <trkpt lat="47.95561" lon="-2.54119">
        <ele>43.1</ele>
        <time>2024-12-19T07:36:05Z</time>
      </trkpt>
      <trkpt lat="47.95562" lon="-2.54118">
        <ele>43.1</ele>
        <time>2024-12-19T07:36:06Z</time>
      </trkpt>
      <trkpt lat="47.95565" lon="-2.54118">
        <ele>43.2</ele>
        <time>2024-12-19T07:36:07Z</time>
      </trkpt>
      <trkpt lat="47.95568" lon="-2.54118">
        <ele>43.4</ele>
        <time>2024-12-19T07:36:08Z</time>
      </trkpt>
      <trkpt lat="47.9557" lon="-2.54119">
        <ele>43.7</ele>
        <time>2024-12-19T07:36:09Z</time>
      </trkpt>
      <trkpt lat="47.95572" lon="-2.54119">
        <ele>43.8</ele>
        <time>2024-12-19T07:36:10Z</time>
      </trkpt>
      <trkpt lat="47.95572" lon="-2.54119">
        <ele>43.7</ele>
        <time>2024-12-19T07:36:11Z</time>
      </trkpt>
      <trkpt lat="47.95573" lon="-2.54118">
        <ele>43.7</ele>
        <time>2024-12-19T07:36:12Z</time>
      </trkpt>
      <trkpt lat="47.95574" lon="-2.54117">
        <ele>43.6</ele>
        <time>2024-12-19T07:36:13Z</time>
      </trkpt>
      <trkpt lat="47.95575" lon="-2.54117">
        <ele>43.7</ele>
        <time>2024-12-19T07:36:14Z</time>
      </trkpt>
      <trkpt lat="47.95575" lon="-2.54117">
        <ele>43.7</ele>
        <time>2024-12-19T07:36:15Z</time>
      </trkpt>
      <trkpt lat="47.95576" lon="-2.54117">
        <ele>43.7</ele>
        <time>2024-12-19T07:36:16Z</time>
      </trkpt>
      <trkpt lat="47.95577" lon="-2.54117">
        <ele>43.7</ele>
        <time>2024-12-19T07:36:17Z</time>
      </trkpt>
      <trkpt lat="47.95579" lon="-2.54117">
        <ele>43.7</ele>
        <time>2024-12-19T07:36:18Z</time>
      </trkpt>
      <trkpt lat="47.9558" lon="-2.54116">
        <ele>43.8</ele>
        <time>2024-12-19T07:36:19Z</time>
      </trkpt>
      <trkpt lat="47.95582" lon="-2.54116">
        <ele>43.8</ele>
        <time>2024-12-19T07:36:20Z</time>
      </trkpt>
      <trkpt lat="47.95583" lon="-2.54116">
        <ele>43.8</ele>
        <time>2024-12-19T07:36:21Z</time>
      </trkpt>
      <trkpt lat="47.95585" lon="-2.54116">
        <ele>43.8</ele>
        <time>2024-12-19T07:36:22Z</time>
      </trkpt>
      <trkpt lat="47.95586" lon="-2.54116">
        <ele>43.8</ele>
        <time>2024-12-19T07:36:23Z</time>
      </trkpt>
      <trkpt lat="47.95588" lon="-2.54116">
        <ele>43.9</ele>
        <time>2024-12-19T07:36:24Z</time>
      </trkpt>
      <trkpt lat="47.95589" lon="-2.54117">
        <ele>43.9</ele>
        <time>2024-12-19T07:36:25Z</time>
      </trkpt>
      <trkpt lat="47.9559" lon="-2.54117">
        <ele>44</ele>
        <time>2024-12-19T07:36:26Z</time>
      </trkpt>
      <trkpt lat="47.95591" lon="-2.54117">
        <ele>44.1</ele>
        <time>2024-12-19T07:36:27Z</time>
      </trkpt>
      <trkpt lat="47.95592" lon="-2.54118">
        <ele>44.1</ele>
        <time>2024-12-19T07:36:28Z</time>
      </trkpt>
      <trkpt lat="47.95593" lon="-2.54119">
        <ele>44.3</ele>
        <time>2024-12-19T07:36:29Z</time>
      </trkpt>
      <trkpt lat="47.95594" lon="-2.5412">
        <ele>44.4</ele>
        <time>2024-12-19T07:36:30Z</time>
      </trkpt>
      <trkpt lat="47.95594" lon="-2.5412">
        <ele>44.5</ele>
        <time>2024-12-19T07:36:31Z</time>
      </trkpt>
      <trkpt lat="47.95595" lon="-2.54121">
        <ele>44.6</ele>
        <time>2024-12-19T07:36:32Z</time>
      </trkpt>
      <trkpt lat="47.95595" lon="-2.54121">
        <ele>44.7</ele>
        <time>2024-12-19T07:36:33Z</time>
      </trkpt>
      <trkpt lat="47.95597" lon="-2.54123">
        <ele>44.9</ele>
        <time>2024-12-19T07:36:34Z</time>
      </trkpt>
      <trkpt lat="47.95598" lon="-2.54123">
        <ele>44.9</ele>
        <time>2024-12-19T07:36:35Z</time>
      </trkpt>
      <trkpt lat="47.95599" lon="-2.54123">
        <ele>44.9</ele>
        <time>2024-12-19T07:36:36Z</time>
      </trkpt>
      <trkpt lat="47.95599" lon="-2.54123">
        <ele>44.9</ele>
        <time>2024-12-19T07:36:37Z</time>
      </trkpt>
      <trkpt lat="47.95599" lon="-2.54123">
        <ele>44.8</ele>
        <time>2024-12-19T07:36:38Z</time>
      </trkpt>
      <trkpt lat="47.95599" lon="-2.54122">
        <ele>44.8</ele>
        <time>2024-12-19T07:36:39Z</time>
      </trkpt>
      <trkpt lat="47.956" lon="-2.54123">
        <ele>44.9</ele>
        <time>2024-12-19T07:36:40Z</time>
      </trkpt>
      <trkpt lat="47.95601" lon="-2.54125">
        <ele>45.2</ele>
        <time>2024-12-19T07:36:41Z</time>
      </trkpt>
      <trkpt lat="47.95602" lon="-2.54126">
        <ele>45.4</ele>
        <time>2024-12-19T07:36:42Z</time>
      </trkpt>
      <trkpt lat="47.95604" lon="-2.54127">
        <ele>45.4</ele>
        <time>2024-12-19T07:36:43Z</time>
      </trkpt>
      <trkpt lat="47.95606" lon="-2.54127">
        <ele>45.4</ele>
        <time>2024-12-19T07:36:44Z</time>
      </trkpt>
      <trkpt lat="47.95608" lon="-2.54127">
        <ele>45.4</ele>
        <time>2024-12-19T07:36:45Z</time>
      </trkpt>
      <trkpt lat="47.95609" lon="-2.54127">
        <ele>45.4</ele>
        <time>2024-12-19T07:36:46Z</time>
      </trkpt>
      <trkpt lat="47.95611" lon="-2.54127">
        <ele>45.4</ele>
        <time>2024-12-19T07:36:47Z</time>
      </trkpt>
      <trkpt lat="47.95612" lon="-2.54128">
        <ele>45.3</ele>
        <time>2024-12-19T07:36:48Z</time>
      </trkpt>
      <trkpt lat="47.95614" lon="-2.54128">
        <ele>45.3</ele>
        <time>2024-12-19T07:36:49Z</time>
      </trkpt>
      <trkpt lat="47.95615" lon="-2.54128">
        <ele>45.3</ele>
        <time>2024-12-19T07:36:50Z</time>
      </trkpt>
      <trkpt lat="47.95617" lon="-2.54128">
        <ele>45.3</ele>
        <time>2024-12-19T07:36:51Z</time>
      </trkpt>
      <trkpt lat="47.95618" lon="-2.54128">
        <ele>45.2</ele>
        <time>2024-12-19T07:36:52Z</time>
      </trkpt>
      <trkpt lat="47.9562" lon="-2.54128">
        <ele>45.2</ele>
        <time>2024-12-19T07:36:53Z</time>
      </trkpt>
      <trkpt lat="47.95621" lon="-2.54128">
        <ele>45.2</ele>
        <time>2024-12-19T07:36:54Z</time>
      </trkpt>
      <trkpt lat="47.95622" lon="-2.54128">
        <ele>45.2</ele>
        <time>2024-12-19T07:36:55Z</time>
      </trkpt>
      <trkpt lat="47.95624" lon="-2.54128">
        <ele>45.2</ele>
        <time>2024-12-19T07:36:56Z</time>
      </trkpt>
      <trkpt lat="47.95625" lon="-2.54128">
        <ele>45.1</ele>
        <time>2024-12-19T07:36:57Z</time>
      </trkpt>
      <trkpt lat="47.95627" lon="-2.54127">
        <ele>45</ele>
        <time>2024-12-19T07:36:58Z</time>
      </trkpt>
      <trkpt lat="47.95628" lon="-2.54127">
        <ele>44.9</ele>
        <time>2024-12-19T07:36:59Z</time>
      </trkpt>
      <trkpt lat="47.9563" lon="-2.54126">
        <ele>44.8</ele>
        <time>2024-12-19T07:37:00Z</time>
      </trkpt>
      <trkpt lat="47.95631" lon="-2.54126">
        <ele>44.8</ele>
        <time>2024-12-19T07:37:01Z</time>
      </trkpt>
      <trkpt lat="47.95633" lon="-2.54126">
        <ele>44.7</ele>
        <time>2024-12-19T07:37:02Z</time>
      </trkpt>
      <trkpt lat="47.95634" lon="-2.54126">
        <ele>44.7</ele>
        <time>2024-12-19T07:37:03Z</time>
      </trkpt>
      <trkpt lat="47.95635" lon="-2.54126">
        <ele>44.7</ele>
        <time>2024-12-19T07:37:04Z</time>
      </trkpt>
      <trkpt lat="47.95636" lon="-2.54126">
        <ele>44.7</ele>
        <time>2024-12-19T07:37:05Z</time>
      </trkpt>
      <trkpt lat="47.95637" lon="-2.54126">
        <ele>44.6</ele>
        <time>2024-12-19T07:37:06Z</time>
      </trkpt>
      <trkpt lat="47.95638" lon="-2.54125">
        <ele>44.6</ele>
        <time>2024-12-19T07:37:07Z</time>
      </trkpt>
      <trkpt lat="47.95639" lon="-2.54125">
        <ele>44.5</ele>
        <time>2024-12-19T07:37:08Z</time>
      </trkpt>
      <trkpt lat="47.95639" lon="-2.54126">
        <ele>44.7</ele>
        <time>2024-12-19T07:37:09Z</time>
      </trkpt>
      <trkpt lat="47.9564" lon="-2.54126">
        <ele>44.8</ele>
        <time>2024-12-19T07:37:10Z</time>
      </trkpt>
      <trkpt lat="47.95641" lon="-2.54126">
        <ele>45</ele>
        <time>2024-12-19T07:37:11Z</time>
      </trkpt>
      <trkpt lat="47.95642" lon="-2.54126">
        <ele>45.3</ele>
        <time>2024-12-19T07:37:12Z</time>
      </trkpt>
      <trkpt lat="47.95643" lon="-2.54126">
        <ele>45.6</ele>
        <time>2024-12-19T07:37:13Z</time>
      </trkpt>
      <trkpt lat="47.95645" lon="-2.54127">
        <ele>46.1</ele>
        <time>2024-12-19T07:37:14Z</time>
      </trkpt>
      <trkpt lat="47.95646" lon="-2.54127">
        <ele>46.6</ele>
        <time>2024-12-19T07:37:15Z</time>
      </trkpt>
      <trkpt lat="47.95647" lon="-2.54127">
        <ele>46.8</ele>
        <time>2024-12-19T07:37:16Z</time>
      </trkpt>
      <trkpt lat="47.95648" lon="-2.54126">
        <ele>46.9</ele>
        <time>2024-12-19T07:37:17Z</time>
      </trkpt>
      <trkpt lat="47.95649" lon="-2.54126">
        <ele>47</ele>
        <time>2024-12-19T07:37:18Z</time>
      </trkpt>
      <trkpt lat="47.9565" lon="-2.54125">
        <ele>47.1</ele>
        <time>2024-12-19T07:37:19Z</time>
      </trkpt>
      <trkpt lat="47.95652" lon="-2.54125">
        <ele>47.5</ele>
        <time>2024-12-19T07:37:20Z</time>
      </trkpt>
      <trkpt lat="47.95653" lon="-2.54125">
        <ele>47.8</ele>
        <time>2024-12-19T07:37:21Z</time>
      </trkpt>
      <trkpt lat="47.95654" lon="-2.54124">
        <ele>47.9</ele>
        <time>2024-12-19T07:37:22Z</time>
      </trkpt>
      <trkpt lat="47.95655" lon="-2.54123">
        <ele>47.8</ele>
        <time>2024-12-19T07:37:23Z</time>
      </trkpt>
      <trkpt lat="47.95656" lon="-2.54122">
        <ele>47.7</ele>
        <time>2024-12-19T07:37:24Z</time>
      </trkpt>
      <trkpt lat="47.95657" lon="-2.5412">
        <ele>47.3</ele>
        <time>2024-12-19T07:37:26Z</time>
      </trkpt>
      <trkpt lat="47.95657" lon="-2.54119">
        <ele>47.1</ele>
        <time>2024-12-19T07:37:27Z</time>
      </trkpt>
      <trkpt lat="47.95658" lon="-2.54118">
        <ele>47</ele>
        <time>2024-12-19T07:37:28Z</time>
      </trkpt>
      <trkpt lat="47.95658" lon="-2.54118">
        <ele>46.9</ele>
        <time>2024-12-19T07:37:29Z</time>
      </trkpt>
      <trkpt lat="47.95659" lon="-2.54116">
        <ele>46.7</ele>
        <time>2024-12-19T07:37:30Z</time>
      </trkpt>
      <trkpt lat="47.9566" lon="-2.54115">
        <ele>46.5</ele>
        <time>2024-12-19T07:37:31Z</time>
      </trkpt>
      <trkpt lat="47.95661" lon="-2.54114">
        <ele>46.3</ele>
        <time>2024-12-19T07:37:32Z</time>
      </trkpt>
      <trkpt lat="47.95662" lon="-2.54113">
        <ele>46</ele>
        <time>2024-12-19T07:37:33Z</time>
      </trkpt>
      <trkpt lat="47.95663" lon="-2.54111">
        <ele>45.7</ele>
        <time>2024-12-19T07:37:34Z</time>
      </trkpt>
      <trkpt lat="47.95664" lon="-2.5411">
        <ele>45.6</ele>
        <time>2024-12-19T07:37:35Z</time>
      </trkpt>
      <trkpt lat="47.95664" lon="-2.54109">
        <ele>45.5</ele>
        <time>2024-12-19T07:37:36Z</time>
      </trkpt>
      <trkpt lat="47.95664" lon="-2.54107">
        <ele>45.3</ele>
        <time>2024-12-19T07:37:37Z</time>
      </trkpt>
      <trkpt lat="47.95664" lon="-2.54106">
        <ele>45.2</ele>
        <time>2024-12-19T07:37:38Z</time>
      </trkpt>
      <trkpt lat="47.95665" lon="-2.54104">
        <ele>45</ele>
        <time>2024-12-19T07:37:39Z</time>
      </trkpt>
      <trkpt lat="47.95665" lon="-2.54101">
        <ele>44.8</ele>
        <time>2024-12-19T07:37:40Z</time>
      </trkpt>
      <trkpt lat="47.95666" lon="-2.54099">
        <ele>44.6</ele>
        <time>2024-12-19T07:37:41Z</time>
      </trkpt>
      <trkpt lat="47.95667" lon="-2.54097">
        <ele>44.7</ele>
        <time>2024-12-19T07:37:42Z</time>
      </trkpt>
      <trkpt lat="47.95668" lon="-2.54095">
        <ele>44.8</ele>
        <time>2024-12-19T07:37:43Z</time>
      </trkpt>
      <trkpt lat="47.95669" lon="-2.54094">
        <ele>44.9</ele>
        <time>2024-12-19T07:37:44Z</time>
      </trkpt>
      <trkpt lat="47.95669" lon="-2.54093">
        <ele>44.9</ele>
        <time>2024-12-19T07:37:45Z</time>
      </trkpt>
      <trkpt lat="47.9567" lon="-2.54092">
        <ele>44.9</ele>
        <time>2024-12-19T07:37:46Z</time>
      </trkpt>
      <trkpt lat="47.9567" lon="-2.5409">
        <ele>45</ele>
        <time>2024-12-19T07:37:47Z</time>
      </trkpt>
      <trkpt lat="47.95671" lon="-2.54088">
        <ele>45.1</ele>
        <time>2024-12-19T07:37:48Z</time>
      </trkpt>
      <trkpt lat="47.95672" lon="-2.54086">
        <ele>45.1</ele>
        <time>2024-12-19T07:37:49Z</time>
      </trkpt>
      <trkpt lat="47.95672" lon="-2.54085">
        <ele>45.1</ele>
        <time>2024-12-19T07:37:50Z</time>
      </trkpt>
      <trkpt lat="47.95673" lon="-2.54084">
        <ele>45.2</ele>
        <time>2024-12-19T07:37:51Z</time>
      </trkpt>
      <trkpt lat="47.95675" lon="-2.54082">
        <ele>45.5</ele>
        <time>2024-12-19T07:37:52Z</time>
      </trkpt>
      <trkpt lat="47.95676" lon="-2.5408">
        <ele>45.7</ele>
        <time>2024-12-19T07:37:53Z</time>
      </trkpt>
      <trkpt lat="47.95677" lon="-2.54079">
        <ele>46</ele>
        <time>2024-12-19T07:37:54Z</time>
      </trkpt>
      <trkpt lat="47.95679" lon="-2.54077">
        <ele>46.3</ele>
        <time>2024-12-19T07:37:55Z</time>
      </trkpt>
      <trkpt lat="47.95681" lon="-2.54076">
        <ele>46.5</ele>
        <time>2024-12-19T07:37:56Z</time>
      </trkpt>
      <trkpt lat="47.95682" lon="-2.54074">
        <ele>46.6</ele>
        <time>2024-12-19T07:37:57Z</time>
      </trkpt>
      <trkpt lat="47.95683" lon="-2.54073">
        <ele>46.6</ele>
        <time>2024-12-19T07:37:58Z</time>
      </trkpt>
      <trkpt lat="47.95683" lon="-2.54071">
        <ele>46.5</ele>
        <time>2024-12-19T07:37:59Z</time>
      </trkpt>
      <trkpt lat="47.95684" lon="-2.54069">
        <ele>46.4</ele>
        <time>2024-12-19T07:38:00Z</time>
      </trkpt>
      <trkpt lat="47.95684" lon="-2.54068">
        <ele>46.2</ele>
        <time>2024-12-19T07:38:01Z</time>
      </trkpt>
      <trkpt lat="47.95684" lon="-2.54067">
        <ele>46</ele>
        <time>2024-12-19T07:38:02Z</time>
      </trkpt>
      <trkpt lat="47.95684" lon="-2.54066">
        <ele>45.9</ele>
        <time>2024-12-19T07:38:03Z</time>
      </trkpt>
      <trkpt lat="47.95684" lon="-2.54064">
        <ele>45.7</ele>
        <time>2024-12-19T07:38:04Z</time>
      </trkpt>
      <trkpt lat="47.95684" lon="-2.54062">
        <ele>45.3</ele>
        <time>2024-12-19T07:38:05Z</time>
      </trkpt>
      <trkpt lat="47.95684" lon="-2.54061">
        <ele>45.1</ele>
        <time>2024-12-19T07:38:06Z</time>
      </trkpt>
      <trkpt lat="47.95683" lon="-2.5406">
        <ele>44.9</ele>
        <time>2024-12-19T07:38:07Z</time>
      </trkpt>
      <trkpt lat="47.95682" lon="-2.5406">
        <ele>44.7</ele>
        <time>2024-12-19T07:38:08Z</time>
      </trkpt>
      <trkpt lat="47.95681" lon="-2.54059">
        <ele>44.5</ele>
        <time>2024-12-19T07:38:09Z</time>
      </trkpt>
      <trkpt lat="47.95681" lon="-2.54058">
        <ele>44.3</ele>
        <time>2024-12-19T07:38:10Z</time>
      </trkpt>
      <trkpt lat="47.9568" lon="-2.54057">
        <ele>44.2</ele>
        <time>2024-12-19T07:38:11Z</time>
      </trkpt>
      <trkpt lat="47.9568" lon="-2.54056">
        <ele>44</ele>
        <time>2024-12-19T07:38:12Z</time>
      </trkpt>
      <trkpt lat="47.95679" lon="-2.54055">
        <ele>43.9</ele>
        <time>2024-12-19T07:38:13Z</time>
      </trkpt>
      <trkpt lat="47.95679" lon="-2.54055">
        <ele>43.9</ele>
        <time>2024-12-19T07:38:14Z</time>
      </trkpt>
      <trkpt lat="47.95679" lon="-2.54054">
        <ele>43.9</ele>
        <time>2024-12-19T07:38:15Z</time>
      </trkpt>
      <trkpt lat="47.95679" lon="-2.54053">
        <ele>43.9</ele>
        <time>2024-12-19T07:38:16Z</time>
      </trkpt>
      <trkpt lat="47.95678" lon="-2.54052">
        <ele>43.9</ele>
        <time>2024-12-19T07:38:17Z</time>
      </trkpt>
      <trkpt lat="47.95678" lon="-2.5405">
        <ele>43.9</ele>
        <time>2024-12-19T07:38:18Z</time>
      </trkpt>
      <trkpt lat="47.95677" lon="-2.54049">
        <ele>43.9</ele>
        <time>2024-12-19T07:38:19Z</time>
      </trkpt>
      <trkpt lat="47.95676" lon="-2.54048">
        <ele>43.9</ele>
        <time>2024-12-19T07:38:20Z</time>
      </trkpt>
      <trkpt lat="47.95676" lon="-2.54047">
        <ele>43.9</ele>
        <time>2024-12-19T07:38:21Z</time>
      </trkpt>
      <trkpt lat="47.95675" lon="-2.54047">
        <ele>43.8</ele>
        <time>2024-12-19T07:38:22Z</time>
      </trkpt>
      <trkpt lat="47.95674" lon="-2.54047">
        <ele>43.8</ele>
        <time>2024-12-19T07:38:23Z</time>
      </trkpt>
      <trkpt lat="47.95674" lon="-2.54047">
        <ele>43.8</ele>
        <time>2024-12-19T07:38:24Z</time>
      </trkpt>
      <trkpt lat="47.95674" lon="-2.54047">
        <ele>43.8</ele>
        <time>2024-12-19T07:38:25Z</time>
      </trkpt>
      <trkpt lat="47.95673" lon="-2.54048">
        <ele>43.8</ele>
        <time>2024-12-19T07:38:26Z</time>
      </trkpt>
      <trkpt lat="47.95672" lon="-2.54049">
        <ele>43.7</ele>
        <time>2024-12-19T07:38:27Z</time>
      </trkpt>
      <trkpt lat="47.95671" lon="-2.5405">
        <ele>43.6</ele>
        <time>2024-12-19T07:38:28Z</time>
      </trkpt>
      <trkpt lat="47.9567" lon="-2.54052">
        <ele>43.4</ele>
        <time>2024-12-19T07:38:29Z</time>
      </trkpt>
      <trkpt lat="47.95669" lon="-2.54054">
        <ele>43.3</ele>
        <time>2024-12-19T07:38:30Z</time>
      </trkpt>
      <trkpt lat="47.95668" lon="-2.54055">
        <ele>43.1</ele>
        <time>2024-12-19T07:38:31Z</time>
      </trkpt>
      <trkpt lat="47.95668" lon="-2.54056">
        <ele>43.1</ele>
        <time>2024-12-19T07:38:32Z</time>
      </trkpt>
      <trkpt lat="47.95667" lon="-2.54056">
        <ele>43</ele>
        <time>2024-12-19T07:38:33Z</time>
      </trkpt>
      <trkpt lat="47.95667" lon="-2.54056">
        <ele>43</ele>
        <time>2024-12-19T07:38:34Z</time>
      </trkpt>
      <trkpt lat="47.95667" lon="-2.54055">
        <ele>43</ele>
        <time>2024-12-19T07:38:35Z</time>
      </trkpt>
      <trkpt lat="47.95666" lon="-2.54057">
        <ele>43.2</ele>
        <time>2024-12-19T07:38:36Z</time>
      </trkpt>
      <trkpt lat="47.95664" lon="-2.54059">
        <ele>43.5</ele>
        <time>2024-12-19T07:38:37Z</time>
      </trkpt>
      <trkpt lat="47.95663" lon="-2.54061">
        <ele>43.6</ele>
        <time>2024-12-19T07:38:38Z</time>
      </trkpt>
      <trkpt lat="47.95663" lon="-2.54062">
        <ele>43.6</ele>
        <time>2024-12-19T07:38:39Z</time>
      </trkpt>
      <trkpt lat="47.95663" lon="-2.54062">
        <ele>43.6</ele>
        <time>2024-12-19T07:38:40Z</time>
      </trkpt>
      <trkpt lat="47.95663" lon="-2.54063">
        <ele>43.6</ele>
        <time>2024-12-19T07:38:41Z</time>
      </trkpt>
      <trkpt lat="47.95662" lon="-2.54064">
        <ele>43.7</ele>
        <time>2024-12-19T07:38:42Z</time>
      </trkpt>
      <trkpt lat="47.95661" lon="-2.54066">
        <ele>43.8</ele>
        <time>2024-12-19T07:38:43Z</time>
      </trkpt>
      <trkpt lat="47.95661" lon="-2.54068">
        <ele>43.7</ele>
        <time>2024-12-19T07:38:44Z</time>
      </trkpt>
      <trkpt lat="47.95661" lon="-2.54069">
        <ele>43.6</ele>
        <time>2024-12-19T07:38:45Z</time>
      </trkpt>
      <trkpt lat="47.95661" lon="-2.5407">
        <ele>43.6</ele>
        <time>2024-12-19T07:38:46Z</time>
      </trkpt>
      <trkpt lat="47.95661" lon="-2.54071">
        <ele>43.6</ele>
        <time>2024-12-19T07:38:47Z</time>
      </trkpt>
      <trkpt lat="47.9566" lon="-2.54073">
        <ele>43.6</ele>
        <time>2024-12-19T07:38:48Z</time>
      </trkpt>
      <trkpt lat="47.95658" lon="-2.54074">
        <ele>43.6</ele>
        <time>2024-12-19T07:38:49Z</time>
      </trkpt>
      <trkpt lat="47.95657" lon="-2.54077">
        <ele>43.5</ele>
        <time>2024-12-19T07:38:50Z</time>
      </trkpt>
      <trkpt lat="47.95656" lon="-2.54079">
        <ele>43.4</ele>
        <time>2024-12-19T07:38:51Z</time>
      </trkpt>
      <trkpt lat="47.95655" lon="-2.5408">
        <ele>43.3</ele>
        <time>2024-12-19T07:38:52Z</time>
      </trkpt>
      <trkpt lat="47.95655" lon="-2.54081">
        <ele>43.2</ele>
        <time>2024-12-19T07:38:53Z</time>
      </trkpt>
      <trkpt lat="47.95653" lon="-2.54082">
        <ele>43.2</ele>
        <time>2024-12-19T07:38:54Z</time>
      </trkpt>
      <trkpt lat="47.95652" lon="-2.54083">
        <ele>43.1</ele>
        <time>2024-12-19T07:38:55Z</time>
      </trkpt>
      <trkpt lat="47.95651" lon="-2.54083">
        <ele>43</ele>
        <time>2024-12-19T07:38:56Z</time>
      </trkpt>
      <trkpt lat="47.9565" lon="-2.54084">
        <ele>43</ele>
        <time>2024-12-19T07:38:57Z</time>
      </trkpt>
      <trkpt lat="47.95649" lon="-2.54083">
        <ele>43</ele>
        <time>2024-12-19T07:38:58Z</time>
      </trkpt>
      <trkpt lat="47.95648" lon="-2.54083">
        <ele>43.1</ele>
        <time>2024-12-19T07:38:59Z</time>
      </trkpt>
      <trkpt lat="47.95647" lon="-2.54083">
        <ele>43.1</ele>
        <time>2024-12-19T07:39:00Z</time>
      </trkpt>
      <trkpt lat="47.95645" lon="-2.54083">
        <ele>43.1</ele>
        <time>2024-12-19T07:39:01Z</time>
      </trkpt>
      <trkpt lat="47.95644" lon="-2.54083">
        <ele>43.1</ele>
        <time>2024-12-19T07:39:02Z</time>
      </trkpt>
      <trkpt lat="47.95642" lon="-2.54083">
        <ele>43.1</ele>
        <time>2024-12-19T07:39:03Z</time>
      </trkpt>
      <trkpt lat="47.9564" lon="-2.54083">
        <ele>43</ele>
        <time>2024-12-19T07:39:04Z</time>
      </trkpt>
      <trkpt lat="47.95639" lon="-2.54084">
        <ele>43</ele>
        <time>2024-12-19T07:39:05Z</time>
      </trkpt>
      <trkpt lat="47.95638" lon="-2.54084">
        <ele>43</ele>
        <time>2024-12-19T07:39:06Z</time>
      </trkpt>
      <trkpt lat="47.95637" lon="-2.54084">
        <ele>43</ele>
        <time>2024-12-19T07:39:07Z</time>
      </trkpt>
      <trkpt lat="47.95636" lon="-2.54084">
        <ele>43</ele>
        <time>2024-12-19T07:39:08Z</time>
      </trkpt>
      <trkpt lat="47.95634" lon="-2.54084">
        <ele>43</ele>
        <time>2024-12-19T07:39:09Z</time>
      </trkpt>
      <trkpt lat="47.95633" lon="-2.54084">
        <ele>43</ele>
        <time>2024-12-19T07:39:10Z</time>
      </trkpt>
      <trkpt lat="47.95631" lon="-2.54085">
        <ele>43</ele>
        <time>2024-12-19T07:39:11Z</time>
      </trkpt>
      <trkpt lat="47.9563" lon="-2.54085">
        <ele>43</ele>
        <time>2024-12-19T07:39:12Z</time>
      </trkpt>
      <trkpt lat="47.95629" lon="-2.54085">
        <ele>43</ele>
        <time>2024-12-19T07:39:13Z</time>
      </trkpt>
      <trkpt lat="47.95628" lon="-2.54085">
        <ele>43</ele>
        <time>2024-12-19T07:39:14Z</time>
      </trkpt>
      <trkpt lat="47.95626" lon="-2.54085">
        <ele>43</ele>
        <time>2024-12-19T07:39:15Z</time>
      </trkpt>
      <trkpt lat="47.95625" lon="-2.54085">
        <ele>43</ele>
        <time>2024-12-19T07:39:16Z</time>
      </trkpt>
      <trkpt lat="47.95623" lon="-2.54086">
        <ele>43</ele>
        <time>2024-12-19T07:39:17Z</time>
      </trkpt>
      <trkpt lat="47.95621" lon="-2.54086">
        <ele>43</ele>
        <time>2024-12-19T07:39:18Z</time>
      </trkpt>
      <trkpt lat="47.95618" lon="-2.54087">
        <ele>43</ele>
        <time>2024-12-19T07:39:19Z</time>
      </trkpt>
      <trkpt lat="47.95616" lon="-2.54089">
        <ele>43</ele>
        <time>2024-12-19T07:39:20Z</time>
      </trkpt>
      <trkpt lat="47.95614" lon="-2.54091">
        <ele>43</ele>
        <time>2024-12-19T07:39:21Z</time>
      </trkpt>
      <trkpt lat="47.95613" lon="-2.54092">
        <ele>43</ele>
        <time>2024-12-19T07:39:22Z</time>
      </trkpt>
      <trkpt lat="47.95611" lon="-2.54093">
        <ele>43</ele>
        <time>2024-12-19T07:39:23Z</time>
      </trkpt>
      <trkpt lat="47.95609" lon="-2.54093">
        <ele>43</ele>
        <time>2024-12-19T07:39:24Z</time>
      </trkpt>
      <trkpt lat="47.95608" lon="-2.54093">
        <ele>43</ele>
        <time>2024-12-19T07:39:25Z</time>
      </trkpt>
      <trkpt lat="47.95606" lon="-2.54093">
        <ele>43</ele>
        <time>2024-12-19T07:39:26Z</time>
      </trkpt>
      <trkpt lat="47.95605" lon="-2.54093">
        <ele>43</ele>
        <time>2024-12-19T07:39:27Z</time>
      </trkpt>
      <trkpt lat="47.95604" lon="-2.54093">
        <ele>43</ele>
        <time>2024-12-19T07:39:28Z</time>
      </trkpt>
      <trkpt lat="47.95603" lon="-2.54093">
        <ele>43</ele>
        <time>2024-12-19T07:39:29Z</time>
      </trkpt>
      <trkpt lat="47.95601" lon="-2.54093">
        <ele>43</ele>
        <time>2024-12-19T07:39:30Z</time>
      </trkpt>
      <trkpt lat="47.956" lon="-2.54093">
        <ele>43</ele>
        <time>2024-12-19T07:39:31Z</time>
      </trkpt>
      <trkpt lat="47.95599" lon="-2.54093">
        <ele>43</ele>
        <time>2024-12-19T07:39:32Z</time>
      </trkpt>
      <trkpt lat="47.95598" lon="-2.54093">
        <ele>43</ele>
        <time>2024-12-19T07:39:33Z</time>
      </trkpt>
      <trkpt lat="47.95596" lon="-2.54093">
        <ele>43</ele>
        <time>2024-12-19T07:39:34Z</time>
      </trkpt>
      <trkpt lat="47.95595" lon="-2.54093">
        <ele>43</ele>
        <time>2024-12-19T07:39:35Z</time>
      </trkpt>
      <trkpt lat="47.95594" lon="-2.54093">
        <ele>43</ele>
        <time>2024-12-19T07:39:36Z</time>
      </trkpt>
      <trkpt lat="47.95593" lon="-2.54093">
        <ele>43</ele>
        <time>2024-12-19T07:39:37Z</time>
      </trkpt>
      <trkpt lat="47.95592" lon="-2.54092">
        <ele>43</ele>
        <time>2024-12-19T07:39:38Z</time>
      </trkpt>
      <trkpt lat="47.9559" lon="-2.54091">
        <ele>43</ele>
        <time>2024-12-19T07:39:39Z</time>
      </trkpt>
      <trkpt lat="47.95589" lon="-2.54089">
        <ele>43</ele>
        <time>2024-12-19T07:39:40Z</time>
      </trkpt>
      <trkpt lat="47.95589" lon="-2.54088">
        <ele>43</ele>
        <time>2024-12-19T07:39:41Z</time>
      </trkpt>
      <trkpt lat="47.95588" lon="-2.54087">
        <ele>43</ele>
        <time>2024-12-19T07:39:42Z</time>
      </trkpt>
      <trkpt lat="47.95588" lon="-2.54086">
        <ele>43</ele>
        <time>2024-12-19T07:39:43Z</time>
      </trkpt>
      <trkpt lat="47.95587" lon="-2.54085">
        <ele>43</ele>
        <time>2024-12-19T07:39:44Z</time>
      </trkpt>
      <trkpt lat="47.95586" lon="-2.54085">
        <ele>43</ele>
        <time>2024-12-19T07:39:45Z</time>
      </trkpt>
      <trkpt lat="47.95585" lon="-2.54083">
        <ele>43</ele>
        <time>2024-12-19T07:39:46Z</time>
      </trkpt>
      <trkpt lat="47.95584" lon="-2.54082">
        <ele>43.1</ele>
        <time>2024-12-19T07:39:47Z</time>
      </trkpt>
      <trkpt lat="47.95583" lon="-2.54082">
        <ele>43.2</ele>
        <time>2024-12-19T07:39:48Z</time>
      </trkpt>
      <trkpt lat="47.95583" lon="-2.54081">
        <ele>43.3</ele>
        <time>2024-12-19T07:39:49Z</time>
      </trkpt>
      <trkpt lat="47.95581" lon="-2.5408">
        <ele>43.4</ele>
        <time>2024-12-19T07:39:50Z</time>
      </trkpt>
      <trkpt lat="47.9558" lon="-2.54079">
        <ele>43.5</ele>
        <time>2024-12-19T07:39:51Z</time>
      </trkpt>
      <trkpt lat="47.95579" lon="-2.54078">
        <ele>43.6</ele>
        <time>2024-12-19T07:39:52Z</time>
      </trkpt>
      <trkpt lat="47.95578" lon="-2.54077">
        <ele>43.7</ele>
        <time>2024-12-19T07:39:53Z</time>
      </trkpt>
      <trkpt lat="47.95577" lon="-2.54076">
        <ele>43.8</ele>
        <time>2024-12-19T07:39:54Z</time>
      </trkpt>
      <trkpt lat="47.95576" lon="-2.54075">
        <ele>43.9</ele>
        <time>2024-12-19T07:39:55Z</time>
      </trkpt>
      <trkpt lat="47.95574" lon="-2.54074">
        <ele>44.1</ele>
        <time>2024-12-19T07:39:56Z</time>
      </trkpt>
      <trkpt lat="47.95573" lon="-2.54072">
        <ele>44.3</ele>
        <time>2024-12-19T07:39:57Z</time>
      </trkpt>
      <trkpt lat="47.95572" lon="-2.54071">
        <ele>44.4</ele>
        <time>2024-12-19T07:39:58Z</time>
      </trkpt>
      <trkpt lat="47.95571" lon="-2.54069">
        <ele>44.6</ele>
        <time>2024-12-19T07:39:59Z</time>
      </trkpt>
      <trkpt lat="47.9557" lon="-2.54068">
        <ele>44.7</ele>
        <time>2024-12-19T07:40:00Z</time>
      </trkpt>
      <trkpt lat="47.95569" lon="-2.54068">
        <ele>44.8</ele>
        <time>2024-12-19T07:40:01Z</time>
      </trkpt>
      <trkpt lat="47.95567" lon="-2.54067">
        <ele>44.7</ele>
        <time>2024-12-19T07:40:02Z</time>
      </trkpt>
      <trkpt lat="47.95566" lon="-2.54067">
        <ele>44.7</ele>
        <time>2024-12-19T07:40:03Z</time>
      </trkpt>
      <trkpt lat="47.95564" lon="-2.54068">
        <ele>44.6</ele>
        <time>2024-12-19T07:40:04Z</time>
      </trkpt>
      <trkpt lat="47.95563" lon="-2.54068">
        <ele>44.5</ele>
        <time>2024-12-19T07:40:05Z</time>
      </trkpt>
      <trkpt lat="47.95561" lon="-2.54068">
        <ele>44.5</ele>
        <time>2024-12-19T07:40:06Z</time>
      </trkpt>
      <trkpt lat="47.95559" lon="-2.54067">
        <ele>44.5</ele>
        <time>2024-12-19T07:40:07Z</time>
      </trkpt>
      <trkpt lat="47.95557" lon="-2.54066">
        <ele>44.6</ele>
        <time>2024-12-19T07:40:08Z</time>
      </trkpt>
      <trkpt lat="47.95555" lon="-2.54066">
        <ele>44.6</ele>
        <time>2024-12-19T07:40:09Z</time>
      </trkpt>
      <trkpt lat="47.95554" lon="-2.54065">
        <ele>44.5</ele>
        <time>2024-12-19T07:40:10Z</time>
      </trkpt>
      <trkpt lat="47.95552" lon="-2.54066">
        <ele>44.4</ele>
        <time>2024-12-19T07:40:11Z</time>
      </trkpt>
      <trkpt lat="47.9555" lon="-2.54066">
        <ele>44.4</ele>
        <time>2024-12-19T07:40:12Z</time>
      </trkpt>
      <trkpt lat="47.95548" lon="-2.54065">
        <ele>44.4</ele>
        <time>2024-12-19T07:40:13Z</time>
      </trkpt>
      <trkpt lat="47.95547" lon="-2.54064">
        <ele>44.5</ele>
        <time>2024-12-19T07:40:14Z</time>
      </trkpt>
      <trkpt lat="47.95545" lon="-2.54063">
        <ele>44.6</ele>
        <time>2024-12-19T07:40:15Z</time>
      </trkpt>
      <trkpt lat="47.95544" lon="-2.54062">
        <ele>44.7</ele>
        <time>2024-12-19T07:40:16Z</time>
      </trkpt>
      <trkpt lat="47.95543" lon="-2.54062">
        <ele>44.7</ele>
        <time>2024-12-19T07:40:17Z</time>
      </trkpt>
      <trkpt lat="47.95542" lon="-2.54061">
        <ele>44.8</ele>
        <time>2024-12-19T07:40:18Z</time>
      </trkpt>
      <trkpt lat="47.95541" lon="-2.5406">
        <ele>44.8</ele>
        <time>2024-12-19T07:40:19Z</time>
      </trkpt>
      <trkpt lat="47.9554" lon="-2.54059">
        <ele>44.9</ele>
        <time>2024-12-19T07:40:20Z</time>
      </trkpt>
      <trkpt lat="47.95539" lon="-2.54058">
        <ele>45.1</ele>
        <time>2024-12-19T07:40:21Z</time>
      </trkpt>
      <trkpt lat="47.95539" lon="-2.54057">
        <ele>45.2</ele>
        <time>2024-12-19T07:40:22Z</time>
      </trkpt>
      <trkpt lat="47.95539" lon="-2.54055">
        <ele>45.5</ele>
        <time>2024-12-19T07:40:23Z</time>
      </trkpt>
      <trkpt lat="47.95538" lon="-2.54054">
        <ele>45.9</ele>
        <time>2024-12-19T07:40:24Z</time>
      </trkpt>
      <trkpt lat="47.95538" lon="-2.54053">
        <ele>46.2</ele>
        <time>2024-12-19T07:40:25Z</time>
      </trkpt>
      <trkpt lat="47.95537" lon="-2.54052">
        <ele>46.4</ele>
        <time>2024-12-19T07:40:26Z</time>
      </trkpt>
      <trkpt lat="47.95536" lon="-2.54051">
        <ele>46.5</ele>
        <time>2024-12-19T07:40:27Z</time>
      </trkpt>
      <trkpt lat="47.95535" lon="-2.54051">
        <ele>46.6</ele>
        <time>2024-12-19T07:40:28Z</time>
      </trkpt>
      <trkpt lat="47.95534" lon="-2.54051">
        <ele>46.6</ele>
        <time>2024-12-19T07:40:29Z</time>
      </trkpt>
      <trkpt lat="47.95533" lon="-2.5405">
        <ele>46.7</ele>
        <time>2024-12-19T07:40:30Z</time>
      </trkpt>
      <trkpt lat="47.95533" lon="-2.5405">
        <ele>46.9</ele>
        <time>2024-12-19T07:40:31Z</time>
      </trkpt>
      <trkpt lat="47.95532" lon="-2.54049">
        <ele>47.1</ele>
        <time>2024-12-19T07:40:32Z</time>
      </trkpt>
      <trkpt lat="47.95531" lon="-2.54048">
        <ele>47.3</ele>
        <time>2024-12-19T07:40:33Z</time>
      </trkpt>
      <trkpt lat="47.95531" lon="-2.54047">
        <ele>47.5</ele>
        <time>2024-12-19T07:40:34Z</time>
      </trkpt>
      <trkpt lat="47.9553" lon="-2.54047">
        <ele>47.6</ele>
        <time>2024-12-19T07:40:35Z</time>
      </trkpt>
      <trkpt lat="47.95529" lon="-2.54046">
        <ele>47.7</ele>
        <time>2024-12-19T07:40:36Z</time>
      </trkpt>
      <trkpt lat="47.95528" lon="-2.54046">
        <ele>47.8</ele>
        <time>2024-12-19T07:40:37Z</time>
      </trkpt>
      <trkpt lat="47.95528" lon="-2.54045">
        <ele>48</ele>
        <time>2024-12-19T07:40:38Z</time>
      </trkpt>
      <trkpt lat="47.95527" lon="-2.54045">
        <ele>48</ele>
        <time>2024-12-19T07:40:39Z</time>
      </trkpt>
      <trkpt lat="47.95527" lon="-2.54046">
        <ele>47.9</ele>
        <time>2024-12-19T07:40:40Z</time>
      </trkpt>
      <trkpt lat="47.95526" lon="-2.54046">
        <ele>47.9</ele>
        <time>2024-12-19T07:40:41Z</time>
      </trkpt>
      <trkpt lat="47.95525" lon="-2.54046">
        <ele>47.9</ele>
        <time>2024-12-19T07:40:42Z</time>
      </trkpt>
      <trkpt lat="47.95525" lon="-2.54045">
        <ele>48.1</ele>
        <time>2024-12-19T07:40:43Z</time>
      </trkpt>
      <trkpt lat="47.95524" lon="-2.54045">
        <ele>48.2</ele>
        <time>2024-12-19T07:40:44Z</time>
      </trkpt>
      <trkpt lat="47.95523" lon="-2.54044">
        <ele>48.4</ele>
        <time>2024-12-19T07:40:45Z</time>
      </trkpt>
      <trkpt lat="47.95522" lon="-2.54044">
        <ele>48.6</ele>
        <time>2024-12-19T07:40:46Z</time>
      </trkpt>
      <trkpt lat="47.95521" lon="-2.54043">
        <ele>48.8</ele>
        <time>2024-12-19T07:40:47Z</time>
      </trkpt>
      <trkpt lat="47.9552" lon="-2.54043">
        <ele>49</ele>
        <time>2024-12-19T07:40:48Z</time>
      </trkpt>
      <trkpt lat="47.95519" lon="-2.54042">
        <ele>49.2</ele>
        <time>2024-12-19T07:40:49Z</time>
      </trkpt>
      <trkpt lat="47.95518" lon="-2.54041">
        <ele>49.4</ele>
        <time>2024-12-19T07:40:50Z</time>
      </trkpt>
      <trkpt lat="47.95517" lon="-2.5404">
        <ele>49.7</ele>
        <time>2024-12-19T07:40:51Z</time>
      </trkpt>
      <trkpt lat="47.95516" lon="-2.54039">
        <ele>50</ele>
        <time>2024-12-19T07:40:52Z</time>
      </trkpt>
      <trkpt lat="47.95515" lon="-2.54038">
        <ele>50.4</ele>
        <time>2024-12-19T07:40:53Z</time>
      </trkpt>
      <trkpt lat="47.95514" lon="-2.54037">
        <ele>50.7</ele>
        <time>2024-12-19T07:40:54Z</time>
      </trkpt>
      <trkpt lat="47.95513" lon="-2.54036">
        <ele>50.9</ele>
        <time>2024-12-19T07:40:55Z</time>
      </trkpt>
      <trkpt lat="47.95512" lon="-2.54036">
        <ele>51.1</ele>
        <time>2024-12-19T07:40:56Z</time>
      </trkpt>
      <trkpt lat="47.95511" lon="-2.54035">
        <ele>51.2</ele>
        <time>2024-12-19T07:40:57Z</time>
      </trkpt>
      <trkpt lat="47.9551" lon="-2.54035">
        <ele>51.3</ele>
        <time>2024-12-19T07:40:58Z</time>
      </trkpt>
      <trkpt lat="47.95508" lon="-2.54035">
        <ele>51.4</ele>
        <time>2024-12-19T07:40:59Z</time>
      </trkpt>
      <trkpt lat="47.95507" lon="-2.54034">
        <ele>51.6</ele>
        <time>2024-12-19T07:41:00Z</time>
      </trkpt>
      <trkpt lat="47.95506" lon="-2.54033">
        <ele>51.8</ele>
        <time>2024-12-19T07:41:01Z</time>
      </trkpt>
      <trkpt lat="47.95505" lon="-2.54032">
        <ele>52.2</ele>
        <time>2024-12-19T07:41:02Z</time>
      </trkpt>
      <trkpt lat="47.95503" lon="-2.5403">
        <ele>52.4</ele>
        <time>2024-12-19T07:41:03Z</time>
      </trkpt>
      <trkpt lat="47.95502" lon="-2.5403">
        <ele>52.6</ele>
        <time>2024-12-19T07:41:04Z</time>
      </trkpt>
      <trkpt lat="47.955" lon="-2.54029">
        <ele>52.8</ele>
        <time>2024-12-19T07:41:05Z</time>
      </trkpt>
      <trkpt lat="47.95499" lon="-2.54028">
        <ele>53</ele>
        <time>2024-12-19T07:41:06Z</time>
      </trkpt>
      <trkpt lat="47.95498" lon="-2.54028">
        <ele>53.4</ele>
        <time>2024-12-19T07:41:07Z</time>
      </trkpt>
      <trkpt lat="47.95496" lon="-2.54027">
        <ele>53.7</ele>
        <time>2024-12-19T07:41:08Z</time>
      </trkpt>
      <trkpt lat="47.95495" lon="-2.54027">
        <ele>53.9</ele>
        <time>2024-12-19T07:41:09Z</time>
      </trkpt>
      <trkpt lat="47.95494" lon="-2.54027">
        <ele>54.2</ele>
        <time>2024-12-19T07:41:10Z</time>
      </trkpt>
      <trkpt lat="47.95493" lon="-2.54027">
        <ele>54.3</ele>
        <time>2024-12-19T07:41:11Z</time>
      </trkpt>
      <trkpt lat="47.95492" lon="-2.54026">
        <ele>54.5</ele>
        <time>2024-12-19T07:41:12Z</time>
      </trkpt>
      <trkpt lat="47.95491" lon="-2.54026">
        <ele>54.7</ele>
        <time>2024-12-19T07:41:13Z</time>
      </trkpt>
      <trkpt lat="47.95491" lon="-2.54025">
        <ele>54.8</ele>
        <time>2024-12-19T07:41:14Z</time>
      </trkpt>
      <trkpt lat="47.95491" lon="-2.54025">
        <ele>54.9</ele>
        <time>2024-12-19T07:41:15Z</time>
      </trkpt>
      <trkpt lat="47.95491" lon="-2.54024">
        <ele>55.1</ele>
        <time>2024-12-19T07:41:16Z</time>
      </trkpt>
      <trkpt lat="47.9549" lon="-2.54023">
        <ele>55.3</ele>
        <time>2024-12-19T07:41:17Z</time>
      </trkpt>
      <trkpt lat="47.95489" lon="-2.54023">
        <ele>55.5</ele>
        <time>2024-12-19T07:41:18Z</time>
      </trkpt>
      <trkpt lat="47.95488" lon="-2.54023">
        <ele>55.6</ele>
        <time>2024-12-19T07:41:19Z</time>
      </trkpt>
      <trkpt lat="47.95488" lon="-2.54022">
        <ele>55.8</ele>
        <time>2024-12-19T07:41:20Z</time>
      </trkpt>
      <trkpt lat="47.95487" lon="-2.54022">
        <ele>56</ele>
        <time>2024-12-19T07:41:21Z</time>
      </trkpt>
      <trkpt lat="47.95486" lon="-2.54021">
        <ele>56.3</ele>
        <time>2024-12-19T07:41:22Z</time>
      </trkpt>
      <trkpt lat="47.95485" lon="-2.54021">
        <ele>56.4</ele>
        <time>2024-12-19T07:41:23Z</time>
      </trkpt>
      <trkpt lat="47.95484" lon="-2.54021">
        <ele>56.5</ele>
        <time>2024-12-19T07:41:24Z</time>
      </trkpt>
      <trkpt lat="47.95482" lon="-2.54022">
        <ele>56.6</ele>
        <time>2024-12-19T07:41:25Z</time>
      </trkpt>
      <trkpt lat="47.9548" lon="-2.54022">
        <ele>56.8</ele>
        <time>2024-12-19T07:41:26Z</time>
      </trkpt>
      <trkpt lat="47.95479" lon="-2.54022">
        <ele>57</ele>
        <time>2024-12-19T07:41:27Z</time>
      </trkpt>
      <trkpt lat="47.95479" lon="-2.54021">
        <ele>57.2</ele>
        <time>2024-12-19T07:41:28Z</time>
      </trkpt>
      <trkpt lat="47.95478" lon="-2.54019">
        <ele>57.5</ele>
        <time>2024-12-19T07:41:29Z</time>
      </trkpt>
      <trkpt lat="47.95478" lon="-2.54018">
        <ele>57.7</ele>
        <time>2024-12-19T07:41:30Z</time>
      </trkpt>
      <trkpt lat="47.95478" lon="-2.54017">
        <ele>57.9</ele>
        <time>2024-12-19T07:41:31Z</time>
      </trkpt>
      <trkpt lat="47.95478" lon="-2.54016">
        <ele>58</ele>
        <time>2024-12-19T07:41:32Z</time>
      </trkpt>
      <trkpt lat="47.95478" lon="-2.54015">
        <ele>58.1</ele>
        <time>2024-12-19T07:41:33Z</time>
      </trkpt>
      <trkpt lat="47.95478" lon="-2.54014">
        <ele>58.3</ele>
        <time>2024-12-19T07:41:34Z</time>
      </trkpt>
      <trkpt lat="47.95478" lon="-2.54013">
        <ele>58.5</ele>
        <time>2024-12-19T07:41:35Z</time>
      </trkpt>
      <trkpt lat="47.95478" lon="-2.54012">
        <ele>58.7</ele>
        <time>2024-12-19T07:41:36Z</time>
      </trkpt>
      <trkpt lat="47.95477" lon="-2.54011">
        <ele>58.9</ele>
        <time>2024-12-19T07:41:37Z</time>
      </trkpt>
      <trkpt lat="47.95477" lon="-2.5401">
        <ele>59</ele>
        <time>2024-12-19T07:41:38Z</time>
      </trkpt>
      <trkpt lat="47.95477" lon="-2.54009">
        <ele>59.2</ele>
        <time>2024-12-19T07:41:39Z</time>
      </trkpt>
      <trkpt lat="47.95477" lon="-2.54008">
        <ele>59.4</ele>
        <time>2024-12-19T07:41:40Z</time>
      </trkpt>
      <trkpt lat="47.95477" lon="-2.54007">
        <ele>59.6</ele>
        <time>2024-12-19T07:41:41Z</time>
      </trkpt>
      <trkpt lat="47.95476" lon="-2.54005">
        <ele>59.9</ele>
        <time>2024-12-19T07:41:42Z</time>
      </trkpt>
      <trkpt lat="47.95476" lon="-2.54003">
        <ele>60.2</ele>
        <time>2024-12-19T07:41:43Z</time>
      </trkpt>
      <trkpt lat="47.95476" lon="-2.54002">
        <ele>60.5</ele>
        <time>2024-12-19T07:41:44Z</time>
      </trkpt>
      <trkpt lat="47.95476" lon="-2.54">
        <ele>60.7</ele>
        <time>2024-12-19T07:41:45Z</time>
      </trkpt>
      <trkpt lat="47.95476" lon="-2.53999">
        <ele>60.8</ele>
        <time>2024-12-19T07:41:46Z</time>
      </trkpt>
      <trkpt lat="47.95477" lon="-2.53999">
        <ele>60.8</ele>
        <time>2024-12-19T07:41:47Z</time>
      </trkpt>
      <trkpt lat="47.95477" lon="-2.53999">
        <ele>60.8</ele>
        <time>2024-12-19T07:41:48Z</time>
      </trkpt>
      <trkpt lat="47.95477" lon="-2.53999">
        <ele>60.8</ele>
        <time>2024-12-19T07:41:49Z</time>
      </trkpt>
      <trkpt lat="47.95477" lon="-2.53999">
        <ele>60.8</ele>
        <time>2024-12-19T07:41:50Z</time>
      </trkpt>
      <trkpt lat="47.95477" lon="-2.53997">
        <ele>61</ele>
        <time>2024-12-19T07:41:51Z</time>
      </trkpt>
      <trkpt lat="47.95477" lon="-2.53995">
        <ele>61.2</ele>
        <time>2024-12-19T07:41:52Z</time>
      </trkpt>
      <trkpt lat="47.95477" lon="-2.53994">
        <ele>61.4</ele>
        <time>2024-12-19T07:41:53Z</time>
      </trkpt>
      <trkpt lat="47.95477" lon="-2.53991">
        <ele>61.7</ele>
        <time>2024-12-19T07:41:54Z</time>
      </trkpt>
      <trkpt lat="47.95477" lon="-2.5399">
        <ele>61.9</ele>
        <time>2024-12-19T07:41:55Z</time>
      </trkpt>
      <trkpt lat="47.95477" lon="-2.53988">
        <ele>62.1</ele>
        <time>2024-12-19T07:41:56Z</time>
      </trkpt>
      <trkpt lat="47.95477" lon="-2.53986">
        <ele>62.4</ele>
        <time>2024-12-19T07:41:57Z</time>
      </trkpt>
      <trkpt lat="47.95477" lon="-2.53984">
        <ele>62.6</ele>
        <time>2024-12-19T07:41:58Z</time>
      </trkpt>
      <trkpt lat="47.95477" lon="-2.53983">
        <ele>62.8</ele>
        <time>2024-12-19T07:41:59Z</time>
      </trkpt>
      <trkpt lat="47.95477" lon="-2.53981">
        <ele>63</ele>
        <time>2024-12-19T07:42:00Z</time>
      </trkpt>
      <trkpt lat="47.95477" lon="-2.53979">
        <ele>63.2</ele>
        <time>2024-12-19T07:42:01Z</time>
      </trkpt>
      <trkpt lat="47.95477" lon="-2.53978">
        <ele>63.4</ele>
        <time>2024-12-19T07:42:02Z</time>
      </trkpt>
      <trkpt lat="47.95478" lon="-2.53976">
        <ele>63.6</ele>
        <time>2024-12-19T07:42:03Z</time>
      </trkpt>
      <trkpt lat="47.95478" lon="-2.53974">
        <ele>63.8</ele>
        <time>2024-12-19T07:42:04Z</time>
      </trkpt>
      <trkpt lat="47.95478" lon="-2.53973">
        <ele>63.9</ele>
        <time>2024-12-19T07:42:05Z</time>
      </trkpt>
      <trkpt lat="47.95479" lon="-2.53971">
        <ele>64.1</ele>
        <time>2024-12-19T07:42:06Z</time>
      </trkpt>
      <trkpt lat="47.9548" lon="-2.5397">
        <ele>64.2</ele>
        <time>2024-12-19T07:42:07Z</time>
      </trkpt>
      <trkpt lat="47.9548" lon="-2.53969">
        <ele>64.3</ele>
        <time>2024-12-19T07:42:08Z</time>
      </trkpt>
      <trkpt lat="47.95481" lon="-2.53968">
        <ele>64.4</ele>
        <time>2024-12-19T07:42:09Z</time>
      </trkpt>
      <trkpt lat="47.95481" lon="-2.53966">
        <ele>64.6</ele>
        <time>2024-12-19T07:42:10Z</time>
      </trkpt>
      <trkpt lat="47.95481" lon="-2.53965">
        <ele>64.7</ele>
        <time>2024-12-19T07:42:11Z</time>
      </trkpt>
      <trkpt lat="47.95482" lon="-2.53963">
        <ele>64.9</ele>
        <time>2024-12-19T07:42:12Z</time>
      </trkpt>
      <trkpt lat="47.95482" lon="-2.53961">
        <ele>65</ele>
        <time>2024-12-19T07:42:13Z</time>
      </trkpt>
      <trkpt lat="47.95482" lon="-2.5396">
        <ele>65.2</ele>
        <time>2024-12-19T07:42:14Z</time>
      </trkpt>
      <trkpt lat="47.95482" lon="-2.53958">
        <ele>65.4</ele>
        <time>2024-12-19T07:42:15Z</time>
      </trkpt>
      <trkpt lat="47.95482" lon="-2.53956">
        <ele>65.5</ele>
        <time>2024-12-19T07:42:16Z</time>
      </trkpt>
      <trkpt lat="47.95483" lon="-2.53955">
        <ele>65.6</ele>
        <time>2024-12-19T07:42:17Z</time>
      </trkpt>
      <trkpt lat="47.95483" lon="-2.53953">
        <ele>65.8</ele>
        <time>2024-12-19T07:42:18Z</time>
      </trkpt>
      <trkpt lat="47.95483" lon="-2.53952">
        <ele>65.9</ele>
        <time>2024-12-19T07:42:19Z</time>
      </trkpt>
      <trkpt lat="47.95483" lon="-2.53949">
        <ele>66.2</ele>
        <time>2024-12-19T07:42:20Z</time>
      </trkpt>
      <trkpt lat="47.95482" lon="-2.53947">
        <ele>66.4</ele>
        <time>2024-12-19T07:42:21Z</time>
      </trkpt>
      <trkpt lat="47.95482" lon="-2.53945">
        <ele>66.6</ele>
        <time>2024-12-19T07:42:22Z</time>
      </trkpt>
      <trkpt lat="47.95483" lon="-2.53944">
        <ele>66.6</ele>
        <time>2024-12-19T07:42:23Z</time>
      </trkpt>
      <trkpt lat="47.95484" lon="-2.53943">
        <ele>66.7</ele>
        <time>2024-12-19T07:42:24Z</time>
      </trkpt>
      <trkpt lat="47.95484" lon="-2.53942">
        <ele>66.8</ele>
        <time>2024-12-19T07:42:25Z</time>
      </trkpt>
      <trkpt lat="47.95485" lon="-2.53941">
        <ele>66.8</ele>
        <time>2024-12-19T07:42:26Z</time>
      </trkpt>
      <trkpt lat="47.95486" lon="-2.5394">
        <ele>66.9</ele>
        <time>2024-12-19T07:42:27Z</time>
      </trkpt>
      <trkpt lat="47.95487" lon="-2.53938">
        <ele>66.9</ele>
        <time>2024-12-19T07:42:28Z</time>
      </trkpt>
      <trkpt lat="47.95487" lon="-2.53937">
        <ele>67</ele>
        <time>2024-12-19T07:42:29Z</time>
      </trkpt>
      <trkpt lat="47.95488" lon="-2.53936">
        <ele>67.1</ele>
        <time>2024-12-19T07:42:30Z</time>
      </trkpt>
      <trkpt lat="47.95488" lon="-2.53935">
        <ele>67.1</ele>
        <time>2024-12-19T07:42:31Z</time>
      </trkpt>
      <trkpt lat="47.95489" lon="-2.53933">
        <ele>67.3</ele>
        <time>2024-12-19T07:42:32Z</time>
      </trkpt>
      <trkpt lat="47.9549" lon="-2.53931">
        <ele>67.3</ele>
        <time>2024-12-19T07:42:33Z</time>
      </trkpt>
      <trkpt lat="47.9549" lon="-2.5393">
        <ele>67.4</ele>
        <time>2024-12-19T07:42:34Z</time>
      </trkpt>
      <trkpt lat="47.95491" lon="-2.53929">
        <ele>67.4</ele>
        <time>2024-12-19T07:42:35Z</time>
      </trkpt>
      <trkpt lat="47.95491" lon="-2.53929">
        <ele>67.5</ele>
        <time>2024-12-19T07:42:36Z</time>
      </trkpt>
      <trkpt lat="47.95492" lon="-2.53928">
        <ele>67.5</ele>
        <time>2024-12-19T07:42:37Z</time>
      </trkpt>
      <trkpt lat="47.95492" lon="-2.53927">
        <ele>67.5</ele>
        <time>2024-12-19T07:42:38Z</time>
      </trkpt>
      <trkpt lat="47.95493" lon="-2.53926">
        <ele>67.6</ele>
        <time>2024-12-19T07:42:39Z</time>
      </trkpt>
      <trkpt lat="47.95493" lon="-2.53925">
        <ele>67.7</ele>
        <time>2024-12-19T07:42:40Z</time>
      </trkpt>
      <trkpt lat="47.95494" lon="-2.53923">
        <ele>67.7</ele>
        <time>2024-12-19T07:42:41Z</time>
      </trkpt>
      <trkpt lat="47.95494" lon="-2.53922">
        <ele>67.8</ele>
        <time>2024-12-19T07:42:42Z</time>
      </trkpt>
      <trkpt lat="47.95495" lon="-2.5392">
        <ele>67.9</ele>
        <time>2024-12-19T07:42:43Z</time>
      </trkpt>
      <trkpt lat="47.95496" lon="-2.53918">
        <ele>68</ele>
        <time>2024-12-19T07:42:44Z</time>
      </trkpt>
      <trkpt lat="47.95497" lon="-2.53917">
        <ele>68.1</ele>
        <time>2024-12-19T07:42:45Z</time>
      </trkpt>
      <trkpt lat="47.95497" lon="-2.53917">
        <ele>68.1</ele>
        <time>2024-12-19T07:42:46Z</time>
      </trkpt>
      <trkpt lat="47.95498" lon="-2.53916">
        <ele>68.1</ele>
        <time>2024-12-19T07:42:47Z</time>
      </trkpt>
      <trkpt lat="47.95499" lon="-2.53915">
        <ele>68.2</ele>
        <time>2024-12-19T07:42:48Z</time>
      </trkpt>
      <trkpt lat="47.955" lon="-2.53914">
        <ele>68.2</ele>
        <time>2024-12-19T07:42:49Z</time>
      </trkpt>
      <trkpt lat="47.95501" lon="-2.53913">
        <ele>68.3</ele>
        <time>2024-12-19T07:42:50Z</time>
      </trkpt>
      <trkpt lat="47.95501" lon="-2.53912">
        <ele>68.3</ele>
        <time>2024-12-19T07:42:51Z</time>
      </trkpt>
      <trkpt lat="47.95502" lon="-2.5391">
        <ele>68.5</ele>
        <time>2024-12-19T07:42:52Z</time>
      </trkpt>
      <trkpt lat="47.95502" lon="-2.53908">
        <ele>68.5</ele>
        <time>2024-12-19T07:42:53Z</time>
      </trkpt>
      <trkpt lat="47.95502" lon="-2.53907">
        <ele>68.6</ele>
        <time>2024-12-19T07:42:54Z</time>
      </trkpt>
      <trkpt lat="47.95502" lon="-2.53906">
        <ele>68.7</ele>
        <time>2024-12-19T07:42:55Z</time>
      </trkpt>
      <trkpt lat="47.95502" lon="-2.53904">
        <ele>68.9</ele>
        <time>2024-12-19T07:42:56Z</time>
      </trkpt>
      <trkpt lat="47.95502" lon="-2.53902">
        <ele>69</ele>
        <time>2024-12-19T07:42:57Z</time>
      </trkpt>
      <trkpt lat="47.95502" lon="-2.539">
        <ele>69.1</ele>
        <time>2024-12-19T07:42:58Z</time>
      </trkpt>
      <trkpt lat="47.95502" lon="-2.53898">
        <ele>69.3</ele>
        <time>2024-12-19T07:42:59Z</time>
      </trkpt>
      <trkpt lat="47.95502" lon="-2.53895">
        <ele>69.5</ele>
        <time>2024-12-19T07:43:00Z</time>
      </trkpt>
      <trkpt lat="47.95502" lon="-2.53892">
        <ele>69.7</ele>
        <time>2024-12-19T07:43:01Z</time>
      </trkpt>
      <trkpt lat="47.95501" lon="-2.5389">
        <ele>69.9</ele>
        <time>2024-12-19T07:43:02Z</time>
      </trkpt>
      <trkpt lat="47.95501" lon="-2.53889">
        <ele>70</ele>
        <time>2024-12-19T07:43:03Z</time>
      </trkpt>
      <trkpt lat="47.95501" lon="-2.53887">
        <ele>70</ele>
        <time>2024-12-19T07:43:04Z</time>
      </trkpt>
      <trkpt lat="47.95501" lon="-2.53885">
        <ele>70.1</ele>
        <time>2024-12-19T07:43:05Z</time>
      </trkpt>
      <trkpt lat="47.95501" lon="-2.53882">
        <ele>70.2</ele>
        <time>2024-12-19T07:43:06Z</time>
      </trkpt>
      <trkpt lat="47.95501" lon="-2.5388">
        <ele>70.3</ele>
        <time>2024-12-19T07:43:07Z</time>
      </trkpt>
      <trkpt lat="47.95501" lon="-2.53879">
        <ele>70.3</ele>
        <time>2024-12-19T07:43:08Z</time>
      </trkpt>
      <trkpt lat="47.95501" lon="-2.53878">
        <ele>70.4</ele>
        <time>2024-12-19T07:43:09Z</time>
      </trkpt>
      <trkpt lat="47.95501" lon="-2.53877">
        <ele>70.4</ele>
        <time>2024-12-19T07:43:10Z</time>
      </trkpt>
      <trkpt lat="47.95501" lon="-2.53875">
        <ele>70.5</ele>
        <time>2024-12-19T07:43:11Z</time>
      </trkpt>
      <trkpt lat="47.95501" lon="-2.53875">
        <ele>70.5</ele>
        <time>2024-12-19T07:43:12Z</time>
      </trkpt>
      <trkpt lat="47.955" lon="-2.53874">
        <ele>70.5</ele>
        <time>2024-12-19T07:43:13Z</time>
      </trkpt>
      <trkpt lat="47.955" lon="-2.53873">
        <ele>70.6</ele>
        <time>2024-12-19T07:43:14Z</time>
      </trkpt>
      <trkpt lat="47.955" lon="-2.53872">
        <ele>70.6</ele>
        <time>2024-12-19T07:43:15Z</time>
      </trkpt>
      <trkpt lat="47.95501" lon="-2.5387">
        <ele>70.7</ele>
        <time>2024-12-19T07:43:16Z</time>
      </trkpt>
      <trkpt lat="47.95501" lon="-2.53868">
        <ele>70.8</ele>
        <time>2024-12-19T07:43:17Z</time>
      </trkpt>
      <trkpt lat="47.95501" lon="-2.53866">
        <ele>70.8</ele>
        <time>2024-12-19T07:43:18Z</time>
      </trkpt>
      <trkpt lat="47.95501" lon="-2.53864">
        <ele>70.9</ele>
        <time>2024-12-19T07:43:19Z</time>
      </trkpt>
      <trkpt lat="47.95501" lon="-2.53862">
        <ele>71</ele>
        <time>2024-12-19T07:43:20Z</time>
      </trkpt>
      <trkpt lat="47.95502" lon="-2.53862">
        <ele>71</ele>
        <time>2024-12-19T07:43:21Z</time>
      </trkpt>
      <trkpt lat="47.95503" lon="-2.53861">
        <ele>71</ele>
        <time>2024-12-19T07:43:22Z</time>
      </trkpt>
      <trkpt lat="47.95503" lon="-2.53861">
        <ele>71</ele>
        <time>2024-12-19T07:43:23Z</time>
      </trkpt>
      <trkpt lat="47.95505" lon="-2.53861">
        <ele>71</ele>
        <time>2024-12-19T07:43:24Z</time>
      </trkpt>
      <trkpt lat="47.95506" lon="-2.53861">
        <ele>71</ele>
        <time>2024-12-19T07:43:25Z</time>
      </trkpt>
      <trkpt lat="47.95507" lon="-2.5386">
        <ele>71</ele>
        <time>2024-12-19T07:43:26Z</time>
      </trkpt>
      <trkpt lat="47.95507" lon="-2.5386">
        <ele>71</ele>
        <time>2024-12-19T07:43:27Z</time>
      </trkpt>
      <trkpt lat="47.95508" lon="-2.53858">
        <ele>71.1</ele>
        <time>2024-12-19T07:43:28Z</time>
      </trkpt>
      <trkpt lat="47.95508" lon="-2.53856">
        <ele>71.1</ele>
        <time>2024-12-19T07:43:29Z</time>
      </trkpt>
      <trkpt lat="47.95507" lon="-2.53853">
        <ele>71.2</ele>
        <time>2024-12-19T07:43:30Z</time>
      </trkpt>
      <trkpt lat="47.95506" lon="-2.53851">
        <ele>71.3</ele>
        <time>2024-12-19T07:43:31Z</time>
      </trkpt>
      <trkpt lat="47.95505" lon="-2.53848">
        <ele>71.4</ele>
        <time>2024-12-19T07:43:32Z</time>
      </trkpt>
      <trkpt lat="47.95504" lon="-2.53845">
        <ele>71.5</ele>
        <time>2024-12-19T07:43:33Z</time>
      </trkpt>
      <trkpt lat="47.95503" lon="-2.53842">
        <ele>71.6</ele>
        <time>2024-12-19T07:43:34Z</time>
      </trkpt>
      <trkpt lat="47.95502" lon="-2.5384">
        <ele>71.7</ele>
        <time>2024-12-19T07:43:35Z</time>
      </trkpt>
      <trkpt lat="47.95501" lon="-2.53838">
        <ele>71.8</ele>
        <time>2024-12-19T07:43:36Z</time>
      </trkpt>
      <trkpt lat="47.95499" lon="-2.53835">
        <ele>71.9</ele>
        <time>2024-12-19T07:43:37Z</time>
      </trkpt>
      <trkpt lat="47.95498" lon="-2.53833">
        <ele>72.1</ele>
        <time>2024-12-19T07:43:38Z</time>
      </trkpt>
      <trkpt lat="47.95497" lon="-2.53831">
        <ele>72.3</ele>
        <time>2024-12-19T07:43:39Z</time>
      </trkpt>
      <trkpt lat="47.95496" lon="-2.53829">
        <ele>72.4</ele>
        <time>2024-12-19T07:43:40Z</time>
      </trkpt>
      <trkpt lat="47.95495" lon="-2.53828">
        <ele>72.6</ele>
        <time>2024-12-19T07:43:41Z</time>
      </trkpt>
      <trkpt lat="47.95494" lon="-2.53826">
        <ele>72.8</ele>
        <time>2024-12-19T07:43:42Z</time>
      </trkpt>
      <trkpt lat="47.95493" lon="-2.53825">
        <ele>72.9</ele>
        <time>2024-12-19T07:43:43Z</time>
      </trkpt>
      <trkpt lat="47.95492" lon="-2.53824">
        <ele>73</ele>
        <time>2024-12-19T07:43:44Z</time>
      </trkpt>
      <trkpt lat="47.95492" lon="-2.53823">
        <ele>73.1</ele>
        <time>2024-12-19T07:43:45Z</time>
      </trkpt>
      <trkpt lat="47.95491" lon="-2.53822">
        <ele>73.2</ele>
        <time>2024-12-19T07:43:46Z</time>
      </trkpt>
      <trkpt lat="47.95489" lon="-2.53821">
        <ele>73.3</ele>
        <time>2024-12-19T07:43:47Z</time>
      </trkpt>
      <trkpt lat="47.95488" lon="-2.5382">
        <ele>73.4</ele>
        <time>2024-12-19T07:43:48Z</time>
      </trkpt>
      <trkpt lat="47.95487" lon="-2.5382">
        <ele>73.4</ele>
        <time>2024-12-19T07:43:49Z</time>
      </trkpt>
      <trkpt lat="47.95486" lon="-2.53819">
        <ele>73.5</ele>
        <time>2024-12-19T07:43:50Z</time>
      </trkpt>
      <trkpt lat="47.95485" lon="-2.53817">
        <ele>73.7</ele>
        <time>2024-12-19T07:43:51Z</time>
      </trkpt>
      <trkpt lat="47.95483" lon="-2.53816">
        <ele>73.9</ele>
        <time>2024-12-19T07:43:52Z</time>
      </trkpt>
      <trkpt lat="47.95482" lon="-2.53815">
        <ele>74</ele>
        <time>2024-12-19T07:43:53Z</time>
      </trkpt>
      <trkpt lat="47.95481" lon="-2.53814">
        <ele>74.1</ele>
        <time>2024-12-19T07:43:54Z</time>
      </trkpt>
      <trkpt lat="47.95481" lon="-2.53813">
        <ele>74.2</ele>
        <time>2024-12-19T07:43:55Z</time>
      </trkpt>
      <trkpt lat="47.9548" lon="-2.53811">
        <ele>74.3</ele>
        <time>2024-12-19T07:43:56Z</time>
      </trkpt>
      <trkpt lat="47.95478" lon="-2.5381">
        <ele>74.5</ele>
        <time>2024-12-19T07:43:57Z</time>
      </trkpt>
      <trkpt lat="47.95477" lon="-2.53809">
        <ele>74.6</ele>
        <time>2024-12-19T07:43:58Z</time>
      </trkpt>
      <trkpt lat="47.95476" lon="-2.53807">
        <ele>74.8</ele>
        <time>2024-12-19T07:43:59Z</time>
      </trkpt>
      <trkpt lat="47.95475" lon="-2.53806">
        <ele>74.9</ele>
        <time>2024-12-19T07:44:00Z</time>
      </trkpt>
      <trkpt lat="47.95474" lon="-2.53805">
        <ele>75</ele>
        <time>2024-12-19T07:44:01Z</time>
      </trkpt>
      <trkpt lat="47.95473" lon="-2.53804">
        <ele>75.1</ele>
        <time>2024-12-19T07:44:02Z</time>
      </trkpt>
      <trkpt lat="47.95471" lon="-2.53804">
        <ele>75.2</ele>
        <time>2024-12-19T07:44:03Z</time>
      </trkpt>
      <trkpt lat="47.95469" lon="-2.53803">
        <ele>75.3</ele>
        <time>2024-12-19T07:44:04Z</time>
      </trkpt>
      <trkpt lat="47.95468" lon="-2.53803">
        <ele>75.4</ele>
        <time>2024-12-19T07:44:05Z</time>
      </trkpt>
      <trkpt lat="47.95467" lon="-2.53802">
        <ele>75.5</ele>
        <time>2024-12-19T07:44:06Z</time>
      </trkpt>
      <trkpt lat="47.95466" lon="-2.53801">
        <ele>75.6</ele>
        <time>2024-12-19T07:44:07Z</time>
      </trkpt>
      <trkpt lat="47.95465" lon="-2.538">
        <ele>75.7</ele>
        <time>2024-12-19T07:44:08Z</time>
      </trkpt>
      <trkpt lat="47.95465" lon="-2.53798">
        <ele>75.8</ele>
        <time>2024-12-19T07:44:09Z</time>
      </trkpt>
      <trkpt lat="47.95464" lon="-2.53797">
        <ele>75.9</ele>
        <time>2024-12-19T07:44:10Z</time>
      </trkpt>
      <trkpt lat="47.95464" lon="-2.53795">
        <ele>76.1</ele>
        <time>2024-12-19T07:44:11Z</time>
      </trkpt>
      <trkpt lat="47.95463" lon="-2.53794">
        <ele>76.2</ele>
        <time>2024-12-19T07:44:12Z</time>
      </trkpt>
      <trkpt lat="47.95462" lon="-2.53793">
        <ele>76.3</ele>
        <time>2024-12-19T07:44:13Z</time>
      </trkpt>
      <trkpt lat="47.9546" lon="-2.53792">
        <ele>76.4</ele>
        <time>2024-12-19T07:44:14Z</time>
      </trkpt>
      <trkpt lat="47.95459" lon="-2.53791">
        <ele>76.5</ele>
        <time>2024-12-19T07:44:15Z</time>
      </trkpt>
      <trkpt lat="47.95459" lon="-2.53791">
        <ele>76.5</ele>
        <time>2024-12-19T07:44:16Z</time>
      </trkpt>
      <trkpt lat="47.95458" lon="-2.53791">
        <ele>76.6</ele>
        <time>2024-12-19T07:44:17Z</time>
      </trkpt>
      <trkpt lat="47.95456" lon="-2.53791">
        <ele>76.7</ele>
        <time>2024-12-19T07:44:18Z</time>
      </trkpt>
      <trkpt lat="47.95455" lon="-2.53791">
        <ele>76.7</ele>
        <time>2024-12-19T07:44:19Z</time>
      </trkpt>
      <trkpt lat="47.95454" lon="-2.53791">
        <ele>76.7</ele>
        <time>2024-12-19T07:44:20Z</time>
      </trkpt>
      <trkpt lat="47.95452" lon="-2.53792">
        <ele>76.7</ele>
        <time>2024-12-19T07:44:21Z</time>
      </trkpt>
      <trkpt lat="47.95451" lon="-2.53792">
        <ele>76.7</ele>
        <time>2024-12-19T07:44:22Z</time>
      </trkpt>
      <trkpt lat="47.9545" lon="-2.53792">
        <ele>76.8</ele>
        <time>2024-12-19T07:44:23Z</time>
      </trkpt>
      <trkpt lat="47.95448" lon="-2.53793">
        <ele>76.8</ele>
        <time>2024-12-19T07:44:24Z</time>
      </trkpt>
      <trkpt lat="47.95447" lon="-2.53794">
        <ele>76.7</ele>
        <time>2024-12-19T07:44:25Z</time>
      </trkpt>
      <trkpt lat="47.95446" lon="-2.53795">
        <ele>76.7</ele>
        <time>2024-12-19T07:44:26Z</time>
      </trkpt>
      <trkpt lat="47.95445" lon="-2.53795">
        <ele>76.7</ele>
        <time>2024-12-19T07:44:27Z</time>
      </trkpt>
      <trkpt lat="47.95444" lon="-2.53796">
        <ele>76.7</ele>
        <time>2024-12-19T07:44:28Z</time>
      </trkpt>
      <trkpt lat="47.95444" lon="-2.53797">
        <ele>76.7</ele>
        <time>2024-12-19T07:44:29Z</time>
      </trkpt>
      <trkpt lat="47.95444" lon="-2.53797">
        <ele>76.6</ele>
        <time>2024-12-19T07:44:30Z</time>
      </trkpt>
      <trkpt lat="47.95443" lon="-2.53798">
        <ele>76.6</ele>
        <time>2024-12-19T07:44:31Z</time>
      </trkpt>
      <trkpt lat="47.95442" lon="-2.53798">
        <ele>76.5</ele>
        <time>2024-12-19T07:44:32Z</time>
      </trkpt>
      <trkpt lat="47.95441" lon="-2.53799">
        <ele>76.5</ele>
        <time>2024-12-19T07:44:33Z</time>
      </trkpt>
      <trkpt lat="47.9544" lon="-2.53799">
        <ele>76.4</ele>
        <time>2024-12-19T07:44:34Z</time>
      </trkpt>
      <trkpt lat="47.95438" lon="-2.538">
        <ele>76.4</ele>
        <time>2024-12-19T07:44:35Z</time>
      </trkpt>
      <trkpt lat="47.95437" lon="-2.53801">
        <ele>76.3</ele>
        <time>2024-12-19T07:44:36Z</time>
      </trkpt>
      <trkpt lat="47.95435" lon="-2.53802">
        <ele>76.3</ele>
        <time>2024-12-19T07:44:37Z</time>
      </trkpt>
      <trkpt lat="47.95434" lon="-2.53802">
        <ele>76.2</ele>
        <time>2024-12-19T07:44:38Z</time>
      </trkpt>
      <trkpt lat="47.95433" lon="-2.53802">
        <ele>76.2</ele>
        <time>2024-12-19T07:44:39Z</time>
      </trkpt>
      <trkpt lat="47.95432" lon="-2.53803">
        <ele>76.2</ele>
        <time>2024-12-19T07:44:40Z</time>
      </trkpt>
      <trkpt lat="47.9543" lon="-2.53803">
        <ele>76.2</ele>
        <time>2024-12-19T07:44:41Z</time>
      </trkpt>
      <trkpt lat="47.95429" lon="-2.53804">
        <ele>76.1</ele>
        <time>2024-12-19T07:44:42Z</time>
      </trkpt>
      <trkpt lat="47.95428" lon="-2.53805">
        <ele>76</ele>
        <time>2024-12-19T07:44:43Z</time>
      </trkpt>
      <trkpt lat="47.95427" lon="-2.53806">
        <ele>76</ele>
        <time>2024-12-19T07:44:44Z</time>
      </trkpt>
      <trkpt lat="47.95426" lon="-2.53806">
        <ele>75.9</ele>
        <time>2024-12-19T07:44:45Z</time>
      </trkpt>
      <trkpt lat="47.95424" lon="-2.53806">
        <ele>75.9</ele>
        <time>2024-12-19T07:44:46Z</time>
      </trkpt>
      <trkpt lat="47.95423" lon="-2.53806">
        <ele>75.9</ele>
        <time>2024-12-19T07:44:47Z</time>
      </trkpt>
      <trkpt lat="47.95421" lon="-2.53806">
        <ele>75.9</ele>
        <time>2024-12-19T07:44:48Z</time>
      </trkpt>
      <trkpt lat="47.9542" lon="-2.53807">
        <ele>75.9</ele>
        <time>2024-12-19T07:44:49Z</time>
      </trkpt>
      <trkpt lat="47.95419" lon="-2.53807">
        <ele>75.9</ele>
        <time>2024-12-19T07:44:50Z</time>
      </trkpt>
      <trkpt lat="47.95418" lon="-2.53806">
        <ele>75.9</ele>
        <time>2024-12-19T07:44:51Z</time>
      </trkpt>
      <trkpt lat="47.95417" lon="-2.53807">
        <ele>75.9</ele>
        <time>2024-12-19T07:44:52Z</time>
      </trkpt>
      <trkpt lat="47.95416" lon="-2.53807">
        <ele>75.9</ele>
        <time>2024-12-19T07:44:53Z</time>
      </trkpt>
      <trkpt lat="47.95414" lon="-2.53807">
        <ele>75.8</ele>
        <time>2024-12-19T07:44:54Z</time>
      </trkpt>
      <trkpt lat="47.95413" lon="-2.53807">
        <ele>75.7</ele>
        <time>2024-12-19T07:44:55Z</time>
      </trkpt>
      <trkpt lat="47.95412" lon="-2.53807">
        <ele>75.7</ele>
        <time>2024-12-19T07:44:56Z</time>
      </trkpt>
      <trkpt lat="47.95411" lon="-2.53807">
        <ele>75.7</ele>
        <time>2024-12-19T07:44:57Z</time>
      </trkpt>
      <trkpt lat="47.9541" lon="-2.53807">
        <ele>75.6</ele>
        <time>2024-12-19T07:44:58Z</time>
      </trkpt>
      <trkpt lat="47.95408" lon="-2.53807">
        <ele>75.5</ele>
        <time>2024-12-19T07:44:59Z</time>
      </trkpt>
      <trkpt lat="47.95407" lon="-2.53807">
        <ele>75.5</ele>
        <time>2024-12-19T07:45:00Z</time>
      </trkpt>
      <trkpt lat="47.95405" lon="-2.53808">
        <ele>75.4</ele>
        <time>2024-12-19T07:45:01Z</time>
      </trkpt>
      <trkpt lat="47.95402" lon="-2.5381">
        <ele>75.1</ele>
        <time>2024-12-19T07:45:02Z</time>
      </trkpt>
      <trkpt lat="47.95399" lon="-2.53811">
        <ele>74.9</ele>
        <time>2024-12-19T07:45:03Z</time>
      </trkpt>
      <trkpt lat="47.95397" lon="-2.53813">
        <ele>74.7</ele>
        <time>2024-12-19T07:45:04Z</time>
      </trkpt>
      <trkpt lat="47.95395" lon="-2.53814">
        <ele>74.6</ele>
        <time>2024-12-19T07:45:05Z</time>
      </trkpt>
      <trkpt lat="47.95394" lon="-2.53814">
        <ele>74.5</ele>
        <time>2024-12-19T07:45:06Z</time>
      </trkpt>
      <trkpt lat="47.95394" lon="-2.53815">
        <ele>74.5</ele>
        <time>2024-12-19T07:45:07Z</time>
      </trkpt>
      <trkpt lat="47.95393" lon="-2.53815">
        <ele>74.4</ele>
        <time>2024-12-19T07:45:08Z</time>
      </trkpt>
      <trkpt lat="47.95392" lon="-2.53815">
        <ele>74.4</ele>
        <time>2024-12-19T07:45:09Z</time>
      </trkpt>
      <trkpt lat="47.95391" lon="-2.53814">
        <ele>74.4</ele>
        <time>2024-12-19T07:45:10Z</time>
      </trkpt>
      <trkpt lat="47.9539" lon="-2.53814">
        <ele>74.4</ele>
        <time>2024-12-19T07:45:11Z</time>
      </trkpt>
      <trkpt lat="47.95389" lon="-2.53814">
        <ele>74.4</ele>
        <time>2024-12-19T07:45:12Z</time>
      </trkpt>
      <trkpt lat="47.95388" lon="-2.53814">
        <ele>74.4</ele>
        <time>2024-12-19T07:45:13Z</time>
      </trkpt>
      <trkpt lat="47.95387" lon="-2.53813">
        <ele>74.5</ele>
        <time>2024-12-19T07:45:14Z</time>
      </trkpt>
      <trkpt lat="47.95386" lon="-2.53812">
        <ele>74.5</ele>
        <time>2024-12-19T07:45:15Z</time>
      </trkpt>
      <trkpt lat="47.95385" lon="-2.53812">
        <ele>74.5</ele>
        <time>2024-12-19T07:45:16Z</time>
      </trkpt>
      <trkpt lat="47.95385" lon="-2.53812">
        <ele>74.6</ele>
        <time>2024-12-19T07:45:17Z</time>
      </trkpt>
      <trkpt lat="47.95384" lon="-2.53811">
        <ele>74.6</ele>
        <time>2024-12-19T07:45:18Z</time>
      </trkpt>
      <trkpt lat="47.95383" lon="-2.53811">
        <ele>74.6</ele>
        <time>2024-12-19T07:45:19Z</time>
      </trkpt>
      <trkpt lat="47.95382" lon="-2.53811">
        <ele>74.6</ele>
        <time>2024-12-19T07:45:20Z</time>
      </trkpt>
      <trkpt lat="47.95381" lon="-2.53811">
        <ele>74.6</ele>
        <time>2024-12-19T07:45:21Z</time>
      </trkpt>
      <trkpt lat="47.9538" lon="-2.53811">
        <ele>74.6</ele>
        <time>2024-12-19T07:45:22Z</time>
      </trkpt>
      <trkpt lat="47.95379" lon="-2.53812">
        <ele>74.5</ele>
        <time>2024-12-19T07:45:23Z</time>
      </trkpt>
      <trkpt lat="47.95378" lon="-2.53813">
        <ele>74.5</ele>
        <time>2024-12-19T07:45:24Z</time>
      </trkpt>
      <trkpt lat="47.95376" lon="-2.53816">
        <ele>74.3</ele>
        <time>2024-12-19T07:45:25Z</time>
      </trkpt>
      <trkpt lat="47.95376" lon="-2.53818">
        <ele>74.1</ele>
        <time>2024-12-19T07:45:26Z</time>
      </trkpt>
      <trkpt lat="47.95375" lon="-2.53819">
        <ele>74</ele>
        <time>2024-12-19T07:45:27Z</time>
      </trkpt>
      <trkpt lat="47.95374" lon="-2.53821">
        <ele>73.9</ele>
        <time>2024-12-19T07:45:28Z</time>
      </trkpt>
      <trkpt lat="47.95372" lon="-2.53822">
        <ele>73.8</ele>
        <time>2024-12-19T07:45:29Z</time>
      </trkpt>
      <trkpt lat="47.95372" lon="-2.53824">
        <ele>73.7</ele>
        <time>2024-12-19T07:45:30Z</time>
      </trkpt>
      <trkpt lat="47.95371" lon="-2.53825">
        <ele>73.6</ele>
        <time>2024-12-19T07:45:31Z</time>
      </trkpt>
      <trkpt lat="47.95371" lon="-2.53827">
        <ele>73.5</ele>
        <time>2024-12-19T07:45:32Z</time>
      </trkpt>
      <trkpt lat="47.95371" lon="-2.53829">
        <ele>73.3</ele>
        <time>2024-12-19T07:45:33Z</time>
      </trkpt>
      <trkpt lat="47.9537" lon="-2.53831">
        <ele>73.1</ele>
        <time>2024-12-19T07:45:34Z</time>
      </trkpt>
      <trkpt lat="47.9537" lon="-2.53834">
        <ele>73</ele>
        <time>2024-12-19T07:45:35Z</time>
      </trkpt>
      <trkpt lat="47.9537" lon="-2.53836">
        <ele>72.8</ele>
        <time>2024-12-19T07:45:36Z</time>
      </trkpt>
      <trkpt lat="47.9537" lon="-2.53838">
        <ele>72.7</ele>
        <time>2024-12-19T07:45:37Z</time>
      </trkpt>
      <trkpt lat="47.9537" lon="-2.5384">
        <ele>72.6</ele>
        <time>2024-12-19T07:45:38Z</time>
      </trkpt>
      <trkpt lat="47.9537" lon="-2.53842">
        <ele>72.5</ele>
        <time>2024-12-19T07:45:39Z</time>
      </trkpt>
      <trkpt lat="47.95371" lon="-2.53845">
        <ele>72.3</ele>
        <time>2024-12-19T07:45:40Z</time>
      </trkpt>
      <trkpt lat="47.95371" lon="-2.53847">
        <ele>72.2</ele>
        <time>2024-12-19T07:45:41Z</time>
      </trkpt>
      <trkpt lat="47.95371" lon="-2.5385">
        <ele>72</ele>
        <time>2024-12-19T07:45:42Z</time>
      </trkpt>
      <trkpt lat="47.95371" lon="-2.53853">
        <ele>71.9</ele>
        <time>2024-12-19T07:45:43Z</time>
      </trkpt>
      <trkpt lat="47.95371" lon="-2.53856">
        <ele>71.7</ele>
        <time>2024-12-19T07:45:44Z</time>
      </trkpt>
      <trkpt lat="47.9537" lon="-2.53858">
        <ele>71.5</ele>
        <time>2024-12-19T07:45:45Z</time>
      </trkpt>
      <trkpt lat="47.9537" lon="-2.53861">
        <ele>71.3</ele>
        <time>2024-12-19T07:45:46Z</time>
      </trkpt>
      <trkpt lat="47.95369" lon="-2.53863">
        <ele>71.2</ele>
        <time>2024-12-19T07:45:47Z</time>
      </trkpt>
      <trkpt lat="47.95369" lon="-2.53866">
        <ele>71</ele>
        <time>2024-12-19T07:45:48Z</time>
      </trkpt>
      <trkpt lat="47.95369" lon="-2.53868">
        <ele>70.8</ele>
        <time>2024-12-19T07:45:49Z</time>
      </trkpt>
      <trkpt lat="47.95369" lon="-2.53871">
        <ele>70.6</ele>
        <time>2024-12-19T07:45:50Z</time>
      </trkpt>
      <trkpt lat="47.95369" lon="-2.53874">
        <ele>70.4</ele>
        <time>2024-12-19T07:45:51Z</time>
      </trkpt>
      <trkpt lat="47.95368" lon="-2.53876">
        <ele>70.2</ele>
        <time>2024-12-19T07:45:52Z</time>
      </trkpt>
      <trkpt lat="47.95368" lon="-2.53878">
        <ele>70</ele>
        <time>2024-12-19T07:45:53Z</time>
      </trkpt>
      <trkpt lat="47.95368" lon="-2.53881">
        <ele>69.8</ele>
        <time>2024-12-19T07:45:54Z</time>
      </trkpt>
      <trkpt lat="47.95367" lon="-2.53884">
        <ele>69.5</ele>
        <time>2024-12-19T07:45:55Z</time>
      </trkpt>
      <trkpt lat="47.95366" lon="-2.53887">
        <ele>69.3</ele>
        <time>2024-12-19T07:45:56Z</time>
      </trkpt>
      <trkpt lat="47.95366" lon="-2.53889">
        <ele>69.2</ele>
        <time>2024-12-19T07:45:57Z</time>
      </trkpt>
      <trkpt lat="47.95366" lon="-2.53892">
        <ele>69.1</ele>
        <time>2024-12-19T07:45:58Z</time>
      </trkpt>
      <trkpt lat="47.95366" lon="-2.53894">
        <ele>69</ele>
        <time>2024-12-19T07:45:59Z</time>
      </trkpt>
      <trkpt lat="47.95366" lon="-2.53896">
        <ele>68.9</ele>
        <time>2024-12-19T07:46:00Z</time>
      </trkpt>
      <trkpt lat="47.95367" lon="-2.53897">
        <ele>68.9</ele>
        <time>2024-12-19T07:46:01Z</time>
      </trkpt>
      <trkpt lat="47.95367" lon="-2.53899">
        <ele>68.8</ele>
        <time>2024-12-19T07:46:02Z</time>
      </trkpt>
      <trkpt lat="47.95368" lon="-2.53901">
        <ele>68.8</ele>
        <time>2024-12-19T07:46:03Z</time>
      </trkpt>
      <trkpt lat="47.95368" lon="-2.53902">
        <ele>68.8</ele>
        <time>2024-12-19T07:46:04Z</time>
      </trkpt>
      <trkpt lat="47.95369" lon="-2.53904">
        <ele>68.7</ele>
        <time>2024-12-19T07:46:05Z</time>
      </trkpt>
      <trkpt lat="47.95369" lon="-2.53905">
        <ele>68.7</ele>
        <time>2024-12-19T07:46:06Z</time>
      </trkpt>
      <trkpt lat="47.95369" lon="-2.53908">
        <ele>68.6</ele>
        <time>2024-12-19T07:46:07Z</time>
      </trkpt>
      <trkpt lat="47.95368" lon="-2.5391">
        <ele>68.5</ele>
        <time>2024-12-19T07:46:08Z</time>
      </trkpt>
      <trkpt lat="47.95368" lon="-2.53912">
        <ele>68.4</ele>
        <time>2024-12-19T07:46:09Z</time>
      </trkpt>
      <trkpt lat="47.95368" lon="-2.53914">
        <ele>68.3</ele>
        <time>2024-12-19T07:46:10Z</time>
      </trkpt>
      <trkpt lat="47.95368" lon="-2.53916">
        <ele>68.3</ele>
        <time>2024-12-19T07:46:11Z</time>
      </trkpt>
      <trkpt lat="47.95369" lon="-2.53917">
        <ele>68.3</ele>
        <time>2024-12-19T07:46:12Z</time>
      </trkpt>
      <trkpt lat="47.95369" lon="-2.53919">
        <ele>68.2</ele>
        <time>2024-12-19T07:46:13Z</time>
      </trkpt>
      <trkpt lat="47.95369" lon="-2.53921">
        <ele>68.2</ele>
        <time>2024-12-19T07:46:14Z</time>
      </trkpt>
      <trkpt lat="47.95369" lon="-2.53923">
        <ele>68.1</ele>
        <time>2024-12-19T07:46:15Z</time>
      </trkpt>
      <trkpt lat="47.95369" lon="-2.53924">
        <ele>68.1</ele>
        <time>2024-12-19T07:46:16Z</time>
      </trkpt>
      <trkpt lat="47.95368" lon="-2.53928">
        <ele>68</ele>
        <time>2024-12-19T07:46:18Z</time>
      </trkpt>
      <trkpt lat="47.95368" lon="-2.5393">
        <ele>67.9</ele>
        <time>2024-12-19T07:46:19Z</time>
      </trkpt>
      <trkpt lat="47.95367" lon="-2.53932">
        <ele>67.8</ele>
        <time>2024-12-19T07:46:20Z</time>
      </trkpt>
      <trkpt lat="47.95367" lon="-2.53933">
        <ele>67.7</ele>
        <time>2024-12-19T07:46:21Z</time>
      </trkpt>
      <trkpt lat="47.95366" lon="-2.53935">
        <ele>67.6</ele>
        <time>2024-12-19T07:46:22Z</time>
      </trkpt>
      <trkpt lat="47.95366" lon="-2.53937">
        <ele>67.6</ele>
        <time>2024-12-19T07:46:23Z</time>
      </trkpt>
      <trkpt lat="47.95365" lon="-2.53939">
        <ele>67.5</ele>
        <time>2024-12-19T07:46:24Z</time>
      </trkpt>
      <trkpt lat="47.95364" lon="-2.53942">
        <ele>67.3</ele>
        <time>2024-12-19T07:46:25Z</time>
      </trkpt>
      <trkpt lat="47.95363" lon="-2.53944">
        <ele>67.1</ele>
        <time>2024-12-19T07:46:26Z</time>
      </trkpt>
      <trkpt lat="47.95361" lon="-2.53947">
        <ele>67</ele>
        <time>2024-12-19T07:46:27Z</time>
      </trkpt>
      <trkpt lat="47.9536" lon="-2.53949">
        <ele>66.9</ele>
        <time>2024-12-19T07:46:28Z</time>
      </trkpt>
      <trkpt lat="47.95358" lon="-2.5395">
        <ele>66.9</ele>
        <time>2024-12-19T07:46:29Z</time>
      </trkpt>
      <trkpt lat="47.95356" lon="-2.53952">
        <ele>66.8</ele>
        <time>2024-12-19T07:46:30Z</time>
      </trkpt>
      <trkpt lat="47.95354" lon="-2.53953">
        <ele>66.8</ele>
        <time>2024-12-19T07:46:31Z</time>
      </trkpt>
      <trkpt lat="47.95353" lon="-2.53953">
        <ele>66.7</ele>
        <time>2024-12-19T07:46:32Z</time>
      </trkpt>
      <trkpt lat="47.95351" lon="-2.53953">
        <ele>66.6</ele>
        <time>2024-12-19T07:46:33Z</time>
      </trkpt>
      <trkpt lat="47.9535" lon="-2.53952">
        <ele>66.6</ele>
        <time>2024-12-19T07:46:34Z</time>
      </trkpt>
      <trkpt lat="47.95349" lon="-2.53952">
        <ele>66.6</ele>
        <time>2024-12-19T07:46:35Z</time>
      </trkpt>
      <trkpt lat="47.95348" lon="-2.53951">
        <ele>66.5</ele>
        <time>2024-12-19T07:46:36Z</time>
      </trkpt>
      <trkpt lat="47.95347" lon="-2.5395">
        <ele>66.5</ele>
        <time>2024-12-19T07:46:37Z</time>
      </trkpt>
      <trkpt lat="47.95346" lon="-2.53949">
        <ele>66.5</ele>
        <time>2024-12-19T07:46:38Z</time>
      </trkpt>
      <trkpt lat="47.95347" lon="-2.53949">
        <ele>66.5</ele>
        <time>2024-12-19T07:46:39Z</time>
      </trkpt>
      <trkpt lat="47.95346" lon="-2.5395">
        <ele>66.5</ele>
        <time>2024-12-19T07:46:40Z</time>
      </trkpt>
      <trkpt lat="47.95345" lon="-2.53949">
        <ele>66.4</ele>
        <time>2024-12-19T07:46:41Z</time>
      </trkpt>
      <trkpt lat="47.95344" lon="-2.5395">
        <ele>66.4</ele>
        <time>2024-12-19T07:46:42Z</time>
      </trkpt>
      <trkpt lat="47.95343" lon="-2.5395">
        <ele>66.4</ele>
        <time>2024-12-19T07:46:43Z</time>
      </trkpt>
      <trkpt lat="47.95342" lon="-2.53949">
        <ele>66.3</ele>
        <time>2024-12-19T07:46:44Z</time>
      </trkpt>
      <trkpt lat="47.95341" lon="-2.53949">
        <ele>66.3</ele>
        <time>2024-12-19T07:46:45Z</time>
      </trkpt>
      <trkpt lat="47.9534" lon="-2.53949">
        <ele>66.2</ele>
        <time>2024-12-19T07:46:46Z</time>
      </trkpt>
      <trkpt lat="47.95339" lon="-2.53949">
        <ele>66.2</ele>
        <time>2024-12-19T07:46:47Z</time>
      </trkpt>
      <trkpt lat="47.95337" lon="-2.53949">
        <ele>66.1</ele>
        <time>2024-12-19T07:46:48Z</time>
      </trkpt>
      <trkpt lat="47.95336" lon="-2.53949">
        <ele>66.1</ele>
        <time>2024-12-19T07:46:49Z</time>
      </trkpt>
      <trkpt lat="47.95336" lon="-2.53949">
        <ele>66.1</ele>
        <time>2024-12-19T07:46:50Z</time>
      </trkpt>
      <trkpt lat="47.95335" lon="-2.53948">
        <ele>66</ele>
        <time>2024-12-19T07:46:51Z</time>
      </trkpt>
      <trkpt lat="47.95334" lon="-2.53947">
        <ele>66</ele>
        <time>2024-12-19T07:46:52Z</time>
      </trkpt>
      <trkpt lat="47.95332" lon="-2.53947">
        <ele>65.9</ele>
        <time>2024-12-19T07:46:53Z</time>
      </trkpt>
      <trkpt lat="47.95331" lon="-2.53947">
        <ele>65.8</ele>
        <time>2024-12-19T07:46:54Z</time>
      </trkpt>
      <trkpt lat="47.9533" lon="-2.53946">
        <ele>65.8</ele>
        <time>2024-12-19T07:46:55Z</time>
      </trkpt>
      <trkpt lat="47.95329" lon="-2.53946">
        <ele>65.7</ele>
        <time>2024-12-19T07:46:56Z</time>
      </trkpt>
      <trkpt lat="47.95328" lon="-2.53945">
        <ele>65.6</ele>
        <time>2024-12-19T07:46:57Z</time>
      </trkpt>
      <trkpt lat="47.95326" lon="-2.53944">
        <ele>65.5</ele>
        <time>2024-12-19T07:46:58Z</time>
      </trkpt>
      <trkpt lat="47.95325" lon="-2.53943">
        <ele>65.5</ele>
        <time>2024-12-19T07:46:59Z</time>
      </trkpt>
      <trkpt lat="47.95323" lon="-2.53942">
        <ele>65.4</ele>
        <time>2024-12-19T07:47:00Z</time>
      </trkpt>
      <trkpt lat="47.95322" lon="-2.53941">
        <ele>65.4</ele>
        <time>2024-12-19T07:47:01Z</time>
      </trkpt>
      <trkpt lat="47.9532" lon="-2.53939">
        <ele>65.3</ele>
        <time>2024-12-19T07:47:02Z</time>
      </trkpt>
      <trkpt lat="47.95319" lon="-2.53938">
        <ele>65.3</ele>
        <time>2024-12-19T07:47:03Z</time>
      </trkpt>
      <trkpt lat="47.95317" lon="-2.53937">
        <ele>65.2</ele>
        <time>2024-12-19T07:47:04Z</time>
      </trkpt>
      <trkpt lat="47.95315" lon="-2.53936">
        <ele>65.2</ele>
        <time>2024-12-19T07:47:05Z</time>
      </trkpt>
      <trkpt lat="47.95313" lon="-2.53935">
        <ele>65.1</ele>
        <time>2024-12-19T07:47:06Z</time>
      </trkpt>
      <trkpt lat="47.95311" lon="-2.53934">
        <ele>65.1</ele>
        <time>2024-12-19T07:47:07Z</time>
      </trkpt>
      <trkpt lat="47.95309" lon="-2.53933">
        <ele>65</ele>
        <time>2024-12-19T07:47:08Z</time>
      </trkpt>
      <trkpt lat="47.95308" lon="-2.53932">
        <ele>65</ele>
        <time>2024-12-19T07:47:09Z</time>
      </trkpt>
      <trkpt lat="47.95306" lon="-2.53931">
        <ele>65</ele>
        <time>2024-12-19T07:47:10Z</time>
      </trkpt>
      <trkpt lat="47.95304" lon="-2.53929">
        <ele>65.1</ele>
        <time>2024-12-19T07:47:11Z</time>
      </trkpt>
      <trkpt lat="47.95303" lon="-2.53928">
        <ele>65.2</ele>
        <time>2024-12-19T07:47:12Z</time>
      </trkpt>
      <trkpt lat="47.95301" lon="-2.53927">
        <ele>65.2</ele>
        <time>2024-12-19T07:47:13Z</time>
      </trkpt>
      <trkpt lat="47.953" lon="-2.53927">
        <ele>65.3</ele>
        <time>2024-12-19T07:47:14Z</time>
      </trkpt>
      <trkpt lat="47.95298" lon="-2.53926">
        <ele>65.3</ele>
        <time>2024-12-19T07:47:15Z</time>
      </trkpt>
      <trkpt lat="47.95297" lon="-2.53926">
        <ele>65.3</ele>
        <time>2024-12-19T07:47:16Z</time>
      </trkpt>
      <trkpt lat="47.95296" lon="-2.53925">
        <ele>65.4</ele>
        <time>2024-12-19T07:47:17Z</time>
      </trkpt>
      <trkpt lat="47.95295" lon="-2.53924">
        <ele>65.4</ele>
        <time>2024-12-19T07:47:18Z</time>
      </trkpt>
      <trkpt lat="47.95294" lon="-2.53924">
        <ele>65.5</ele>
        <time>2024-12-19T07:47:19Z</time>
      </trkpt>
      <trkpt lat="47.95292" lon="-2.53924">
        <ele>65.5</ele>
        <time>2024-12-19T07:47:20Z</time>
      </trkpt>
      <trkpt lat="47.95291" lon="-2.53924">
        <ele>65.5</ele>
        <time>2024-12-19T07:47:21Z</time>
      </trkpt>
      <trkpt lat="47.9529" lon="-2.53924">
        <ele>65.5</ele>
        <time>2024-12-19T07:47:22Z</time>
      </trkpt>
      <trkpt lat="47.95289" lon="-2.53924">
        <ele>65.5</ele>
        <time>2024-12-19T07:47:23Z</time>
      </trkpt>
      <trkpt lat="47.95287" lon="-2.53924">
        <ele>65.5</ele>
        <time>2024-12-19T07:47:24Z</time>
      </trkpt>
      <trkpt lat="47.95286" lon="-2.53924">
        <ele>65.5</ele>
        <time>2024-12-19T07:47:25Z</time>
      </trkpt>
      <trkpt lat="47.95285" lon="-2.53924">
        <ele>65.5</ele>
        <time>2024-12-19T07:47:26Z</time>
      </trkpt>
      <trkpt lat="47.95283" lon="-2.53924">
        <ele>65.5</ele>
        <time>2024-12-19T07:47:27Z</time>
      </trkpt>
      <trkpt lat="47.95282" lon="-2.53924">
        <ele>65.5</ele>
        <time>2024-12-19T07:47:28Z</time>
      </trkpt>
      <trkpt lat="47.95281" lon="-2.53924">
        <ele>65.5</ele>
        <time>2024-12-19T07:47:29Z</time>
      </trkpt>
      <trkpt lat="47.9528" lon="-2.53924">
        <ele>65.5</ele>
        <time>2024-12-19T07:47:30Z</time>
      </trkpt>
      <trkpt lat="47.95278" lon="-2.53924">
        <ele>65.5</ele>
        <time>2024-12-19T07:47:31Z</time>
      </trkpt>
      <trkpt lat="47.95277" lon="-2.53924">
        <ele>65.5</ele>
        <time>2024-12-19T07:47:32Z</time>
      </trkpt>
      <trkpt lat="47.95276" lon="-2.53924">
        <ele>65.5</ele>
        <time>2024-12-19T07:47:33Z</time>
      </trkpt>
      <trkpt lat="47.95275" lon="-2.53924">
        <ele>65.6</ele>
        <time>2024-12-19T07:47:34Z</time>
      </trkpt>
      <trkpt lat="47.95274" lon="-2.53924">
        <ele>65.6</ele>
        <time>2024-12-19T07:47:35Z</time>
      </trkpt>
      <trkpt lat="47.95272" lon="-2.53924">
        <ele>65.6</ele>
        <time>2024-12-19T07:47:36Z</time>
      </trkpt>
      <trkpt lat="47.95271" lon="-2.53923">
        <ele>65.7</ele>
        <time>2024-12-19T07:47:37Z</time>
      </trkpt>
      <trkpt lat="47.9527" lon="-2.53923">
        <ele>65.8</ele>
        <time>2024-12-19T07:47:38Z</time>
      </trkpt>
      <trkpt lat="47.95269" lon="-2.53923">
        <ele>65.8</ele>
        <time>2024-12-19T07:47:39Z</time>
      </trkpt>
      <trkpt lat="47.95268" lon="-2.53922">
        <ele>65.9</ele>
        <time>2024-12-19T07:47:40Z</time>
      </trkpt>
      <trkpt lat="47.95267" lon="-2.53922">
        <ele>65.9</ele>
        <time>2024-12-19T07:47:41Z</time>
      </trkpt>
      <trkpt lat="47.95265" lon="-2.53922">
        <ele>66</ele>
        <time>2024-12-19T07:47:42Z</time>
      </trkpt>
      <trkpt lat="47.95264" lon="-2.53922">
        <ele>66</ele>
        <time>2024-12-19T07:47:43Z</time>
      </trkpt>
      <trkpt lat="47.95262" lon="-2.53923">
        <ele>66</ele>
        <time>2024-12-19T07:47:44Z</time>
      </trkpt>
      <trkpt lat="47.9526" lon="-2.53923">
        <ele>66</ele>
        <time>2024-12-19T07:47:45Z</time>
      </trkpt>
      <trkpt lat="47.95259" lon="-2.53924">
        <ele>66</ele>
        <time>2024-12-19T07:47:46Z</time>
      </trkpt>
      <trkpt lat="47.95258" lon="-2.53924">
        <ele>66</ele>
        <time>2024-12-19T07:47:47Z</time>
      </trkpt>
      <trkpt lat="47.95257" lon="-2.53924">
        <ele>66.1</ele>
        <time>2024-12-19T07:47:48Z</time>
      </trkpt>
      <trkpt lat="47.95255" lon="-2.53924">
        <ele>66.1</ele>
        <time>2024-12-19T07:47:49Z</time>
      </trkpt>
      <trkpt lat="47.95254" lon="-2.53923">
        <ele>66.2</ele>
        <time>2024-12-19T07:47:50Z</time>
      </trkpt>
      <trkpt lat="47.95253" lon="-2.53923">
        <ele>66.2</ele>
        <time>2024-12-19T07:47:51Z</time>
      </trkpt>
      <trkpt lat="47.95252" lon="-2.53923">
        <ele>66.3</ele>
        <time>2024-12-19T07:47:52Z</time>
      </trkpt>
      <trkpt lat="47.95251" lon="-2.53923">
        <ele>66.3</ele>
        <time>2024-12-19T07:47:53Z</time>
      </trkpt>
      <trkpt lat="47.95249" lon="-2.53923">
        <ele>66.3</ele>
        <time>2024-12-19T07:47:54Z</time>
      </trkpt>
      <trkpt lat="47.95247" lon="-2.53923">
        <ele>66.3</ele>
        <time>2024-12-19T07:47:55Z</time>
      </trkpt>
      <trkpt lat="47.95246" lon="-2.53923">
        <ele>66.3</ele>
        <time>2024-12-19T07:47:56Z</time>
      </trkpt>
      <trkpt lat="47.95245" lon="-2.53923">
        <ele>66.4</ele>
        <time>2024-12-19T07:47:57Z</time>
      </trkpt>
      <trkpt lat="47.95243" lon="-2.53923">
        <ele>66.4</ele>
        <time>2024-12-19T07:47:58Z</time>
      </trkpt>
      <trkpt lat="47.95242" lon="-2.53923">
        <ele>66.4</ele>
        <time>2024-12-19T07:47:59Z</time>
      </trkpt>
      <trkpt lat="47.95241" lon="-2.53923">
        <ele>66.4</ele>
        <time>2024-12-19T07:48:00Z</time>
      </trkpt>
      <trkpt lat="47.9524" lon="-2.53923">
        <ele>66.4</ele>
        <time>2024-12-19T07:48:01Z</time>
      </trkpt>
      <trkpt lat="47.95238" lon="-2.53923">
        <ele>66.4</ele>
        <time>2024-12-19T07:48:02Z</time>
      </trkpt>
      <trkpt lat="47.95237" lon="-2.53923">
        <ele>66.5</ele>
        <time>2024-12-19T07:48:03Z</time>
      </trkpt>
      <trkpt lat="47.95236" lon="-2.53922">
        <ele>66.5</ele>
        <time>2024-12-19T07:48:04Z</time>
      </trkpt>
      <trkpt lat="47.95234" lon="-2.53921">
        <ele>66.6</ele>
        <time>2024-12-19T07:48:05Z</time>
      </trkpt>
      <trkpt lat="47.95233" lon="-2.5392">
        <ele>66.7</ele>
        <time>2024-12-19T07:48:06Z</time>
      </trkpt>
      <trkpt lat="47.95231" lon="-2.5392">
        <ele>66.7</ele>
        <time>2024-12-19T07:48:07Z</time>
      </trkpt>
      <trkpt lat="47.9523" lon="-2.5392">
        <ele>66.8</ele>
        <time>2024-12-19T07:48:08Z</time>
      </trkpt>
      <trkpt lat="47.95228" lon="-2.53919">
        <ele>66.8</ele>
        <time>2024-12-19T07:48:09Z</time>
      </trkpt>
      <trkpt lat="47.95227" lon="-2.53919">
        <ele>66.9</ele>
        <time>2024-12-19T07:48:10Z</time>
      </trkpt>
      <trkpt lat="47.95225" lon="-2.53918">
        <ele>66.9</ele>
        <time>2024-12-19T07:48:11Z</time>
      </trkpt>
      <trkpt lat="47.95224" lon="-2.53917">
        <ele>66.9</ele>
        <time>2024-12-19T07:48:12Z</time>
      </trkpt>
      <trkpt lat="47.95223" lon="-2.53917">
        <ele>67</ele>
        <time>2024-12-19T07:48:13Z</time>
      </trkpt>
      <trkpt lat="47.95222" lon="-2.53916">
        <ele>67</ele>
        <time>2024-12-19T07:48:14Z</time>
      </trkpt>
      <trkpt lat="47.9522" lon="-2.53916">
        <ele>67</ele>
        <time>2024-12-19T07:48:15Z</time>
      </trkpt>
      <trkpt lat="47.95219" lon="-2.53915">
        <ele>67</ele>
        <time>2024-12-19T07:48:16Z</time>
      </trkpt>
      <trkpt lat="47.95217" lon="-2.53915">
        <ele>67</ele>
        <time>2024-12-19T07:48:17Z</time>
      </trkpt>
      <trkpt lat="47.95216" lon="-2.53914">
        <ele>67</ele>
        <time>2024-12-19T07:48:18Z</time>
      </trkpt>
      <trkpt lat="47.95215" lon="-2.53914">
        <ele>67</ele>
        <time>2024-12-19T07:48:19Z</time>
      </trkpt>
      <trkpt lat="47.95214" lon="-2.53914">
        <ele>67</ele>
        <time>2024-12-19T07:48:20Z</time>
      </trkpt>
      <trkpt lat="47.95212" lon="-2.53914">
        <ele>67</ele>
        <time>2024-12-19T07:48:21Z</time>
      </trkpt>
      <trkpt lat="47.95211" lon="-2.53914">
        <ele>67</ele>
        <time>2024-12-19T07:48:22Z</time>
      </trkpt>
      <trkpt lat="47.9521" lon="-2.53914">
        <ele>67</ele>
        <time>2024-12-19T07:48:23Z</time>
      </trkpt>
      <trkpt lat="47.95209" lon="-2.53914">
        <ele>67</ele>
        <time>2024-12-19T07:48:24Z</time>
      </trkpt>
      <trkpt lat="47.95208" lon="-2.53914">
        <ele>67</ele>
        <time>2024-12-19T07:48:25Z</time>
      </trkpt>
      <trkpt lat="47.95207" lon="-2.53914">
        <ele>67</ele>
        <time>2024-12-19T07:48:26Z</time>
      </trkpt>
      <trkpt lat="47.95205" lon="-2.53914">
        <ele>67.1</ele>
        <time>2024-12-19T07:48:27Z</time>
      </trkpt>
      <trkpt lat="47.95204" lon="-2.53914">
        <ele>67.1</ele>
        <time>2024-12-19T07:48:28Z</time>
      </trkpt>
      <trkpt lat="47.95203" lon="-2.53914">
        <ele>67.1</ele>
        <time>2024-12-19T07:48:29Z</time>
      </trkpt>
      <trkpt lat="47.95201" lon="-2.53914">
        <ele>67.1</ele>
        <time>2024-12-19T07:48:30Z</time>
      </trkpt>
      <trkpt lat="47.952" lon="-2.53914">
        <ele>67.1</ele>
        <time>2024-12-19T07:48:31Z</time>
      </trkpt>
      <trkpt lat="47.95198" lon="-2.53913">
        <ele>67.1</ele>
        <time>2024-12-19T07:48:32Z</time>
      </trkpt>
      <trkpt lat="47.95197" lon="-2.53913">
        <ele>67.1</ele>
        <time>2024-12-19T07:48:33Z</time>
      </trkpt>
      <trkpt lat="47.95196" lon="-2.53913">
        <ele>67.1</ele>
        <time>2024-12-19T07:48:34Z</time>
      </trkpt>
      <trkpt lat="47.95195" lon="-2.53913">
        <ele>67.1</ele>
        <time>2024-12-19T07:48:35Z</time>
      </trkpt>
      <trkpt lat="47.95194" lon="-2.53912">
        <ele>67.2</ele>
        <time>2024-12-19T07:48:36Z</time>
      </trkpt>
      <trkpt lat="47.95192" lon="-2.53912">
        <ele>67.3</ele>
        <time>2024-12-19T07:48:37Z</time>
      </trkpt>
      <trkpt lat="47.95191" lon="-2.53911">
        <ele>67.4</ele>
        <time>2024-12-19T07:48:38Z</time>
      </trkpt>
      <trkpt lat="47.9519" lon="-2.53911">
        <ele>67.5</ele>
        <time>2024-12-19T07:48:39Z</time>
      </trkpt>
      <trkpt lat="47.95188" lon="-2.53911">
        <ele>67.6</ele>
        <time>2024-12-19T07:48:40Z</time>
      </trkpt>
      <trkpt lat="47.95187" lon="-2.53911">
        <ele>67.7</ele>
        <time>2024-12-19T07:48:41Z</time>
      </trkpt>
      <trkpt lat="47.95186" lon="-2.53912">
        <ele>67.8</ele>
        <time>2024-12-19T07:48:42Z</time>
      </trkpt>
      <trkpt lat="47.95185" lon="-2.53912">
        <ele>67.8</ele>
        <time>2024-12-19T07:48:43Z</time>
      </trkpt>
      <trkpt lat="47.95183" lon="-2.53912">
        <ele>67.9</ele>
        <time>2024-12-19T07:48:44Z</time>
      </trkpt>
      <trkpt lat="47.95182" lon="-2.53912">
        <ele>68</ele>
        <time>2024-12-19T07:48:45Z</time>
      </trkpt>
      <trkpt lat="47.95179" lon="-2.53912">
        <ele>68.2</ele>
        <time>2024-12-19T07:48:48Z</time>
      </trkpt>
      <trkpt lat="47.95178" lon="-2.53912">
        <ele>68.3</ele>
        <time>2024-12-19T07:48:49Z</time>
      </trkpt>
      <trkpt lat="47.95177" lon="-2.53912">
        <ele>68.3</ele>
        <time>2024-12-19T07:48:50Z</time>
      </trkpt>
      <trkpt lat="47.95176" lon="-2.53912">
        <ele>68.4</ele>
        <time>2024-12-19T07:48:51Z</time>
      </trkpt>
      <trkpt lat="47.95175" lon="-2.53912">
        <ele>68.5</ele>
        <time>2024-12-19T07:48:52Z</time>
      </trkpt>
      <trkpt lat="47.95174" lon="-2.53911">
        <ele>68.5</ele>
        <time>2024-12-19T07:48:53Z</time>
      </trkpt>
      <trkpt lat="47.95173" lon="-2.53911">
        <ele>68.6</ele>
        <time>2024-12-19T07:48:54Z</time>
      </trkpt>
      <trkpt lat="47.95172" lon="-2.53909">
        <ele>68.7</ele>
        <time>2024-12-19T07:48:55Z</time>
      </trkpt>
      <trkpt lat="47.95171" lon="-2.53908">
        <ele>68.7</ele>
        <time>2024-12-19T07:48:56Z</time>
      </trkpt>
      <trkpt lat="47.9517" lon="-2.53907">
        <ele>68.8</ele>
        <time>2024-12-19T07:48:57Z</time>
      </trkpt>
      <trkpt lat="47.95169" lon="-2.53906">
        <ele>68.9</ele>
        <time>2024-12-19T07:48:58Z</time>
      </trkpt>
      <trkpt lat="47.95168" lon="-2.53904">
        <ele>68.9</ele>
        <time>2024-12-19T07:48:59Z</time>
      </trkpt>
      <trkpt lat="47.95167" lon="-2.53903">
        <ele>69</ele>
        <time>2024-12-19T07:49:00Z</time>
      </trkpt>
      <trkpt lat="47.95165" lon="-2.53902">
        <ele>69.1</ele>
        <time>2024-12-19T07:49:01Z</time>
      </trkpt>
      <trkpt lat="47.95164" lon="-2.53901">
        <ele>69.1</ele>
        <time>2024-12-19T07:49:02Z</time>
      </trkpt>
      <trkpt lat="47.95163" lon="-2.539">
        <ele>69.2</ele>
        <time>2024-12-19T07:49:03Z</time>
      </trkpt>
      <trkpt lat="47.95162" lon="-2.53898">
        <ele>69.2</ele>
        <time>2024-12-19T07:49:04Z</time>
      </trkpt>
      <trkpt lat="47.95162" lon="-2.53897">
        <ele>69.2</ele>
        <time>2024-12-19T07:49:05Z</time>
      </trkpt>
      <trkpt lat="47.95161" lon="-2.53895">
        <ele>69.3</ele>
        <time>2024-12-19T07:49:06Z</time>
      </trkpt>
      <trkpt lat="47.9516" lon="-2.53894">
        <ele>69.3</ele>
        <time>2024-12-19T07:49:07Z</time>
      </trkpt>
      <trkpt lat="47.95159" lon="-2.53892">
        <ele>69.3</ele>
        <time>2024-12-19T07:49:08Z</time>
      </trkpt>
      <trkpt lat="47.95159" lon="-2.53891">
        <ele>69.3</ele>
        <time>2024-12-19T07:49:09Z</time>
      </trkpt>
      <trkpt lat="47.95158" lon="-2.5389">
        <ele>69.3</ele>
        <time>2024-12-19T07:49:10Z</time>
      </trkpt>
      <trkpt lat="47.95158" lon="-2.53889">
        <ele>69.3</ele>
        <time>2024-12-19T07:49:11Z</time>
      </trkpt>
      <trkpt lat="47.95158" lon="-2.53888">
        <ele>69.3</ele>
        <time>2024-12-19T07:49:12Z</time>
      </trkpt>
      <trkpt lat="47.95158" lon="-2.53887">
        <ele>69.4</ele>
        <time>2024-12-19T07:49:13Z</time>
      </trkpt>
      <trkpt lat="47.95158" lon="-2.53886">
        <ele>69.5</ele>
        <time>2024-12-19T07:49:14Z</time>
      </trkpt>
      <trkpt lat="47.95157" lon="-2.53884">
        <ele>69.6</ele>
        <time>2024-12-19T07:49:15Z</time>
      </trkpt>
      <trkpt lat="47.95157" lon="-2.53882">
        <ele>69.8</ele>
        <time>2024-12-19T07:49:16Z</time>
      </trkpt>
      <trkpt lat="47.95157" lon="-2.5388">
        <ele>69.9</ele>
        <time>2024-12-19T07:49:17Z</time>
      </trkpt>
      <trkpt lat="47.95157" lon="-2.53878">
        <ele>70</ele>
        <time>2024-12-19T07:49:18Z</time>
      </trkpt>
      <trkpt lat="47.95157" lon="-2.53876">
        <ele>70.1</ele>
        <time>2024-12-19T07:49:19Z</time>
      </trkpt>
      <trkpt lat="47.95157" lon="-2.53874">
        <ele>70.3</ele>
        <time>2024-12-19T07:49:20Z</time>
      </trkpt>
      <trkpt lat="47.95158" lon="-2.53871">
        <ele>70.4</ele>
        <time>2024-12-19T07:49:21Z</time>
      </trkpt>
      <trkpt lat="47.95158" lon="-2.5387">
        <ele>70.5</ele>
        <time>2024-12-19T07:49:22Z</time>
      </trkpt>
      <trkpt lat="47.95157" lon="-2.53866">
        <ele>70.7</ele>
        <time>2024-12-19T07:49:24Z</time>
      </trkpt>
      <trkpt lat="47.95157" lon="-2.53864">
        <ele>70.8</ele>
        <time>2024-12-19T07:49:25Z</time>
      </trkpt>
      <trkpt lat="47.95156" lon="-2.53862">
        <ele>71</ele>
        <time>2024-12-19T07:49:26Z</time>
      </trkpt>
      <trkpt lat="47.95155" lon="-2.5386">
        <ele>71</ele>
        <time>2024-12-19T07:49:27Z</time>
      </trkpt>
      <trkpt lat="47.95155" lon="-2.53859">
        <ele>71.1</ele>
        <time>2024-12-19T07:49:28Z</time>
      </trkpt>
      <trkpt lat="47.95154" lon="-2.53857">
        <ele>71.1</ele>
        <time>2024-12-19T07:49:29Z</time>
      </trkpt>
      <trkpt lat="47.95152" lon="-2.53856">
        <ele>71.2</ele>
        <time>2024-12-19T07:49:30Z</time>
      </trkpt>
      <trkpt lat="47.95151" lon="-2.53854">
        <ele>71.2</ele>
        <time>2024-12-19T07:49:31Z</time>
      </trkpt>
      <trkpt lat="47.9515" lon="-2.53852">
        <ele>71.3</ele>
        <time>2024-12-19T07:49:32Z</time>
      </trkpt>
      <trkpt lat="47.95149" lon="-2.5385">
        <ele>71.3</ele>
        <time>2024-12-19T07:49:33Z</time>
      </trkpt>
      <trkpt lat="47.95149" lon="-2.53848">
        <ele>71.3</ele>
        <time>2024-12-19T07:49:34Z</time>
      </trkpt>
      <trkpt lat="47.95148" lon="-2.53847">
        <ele>71.3</ele>
        <time>2024-12-19T07:49:35Z</time>
      </trkpt>
      <trkpt lat="47.95147" lon="-2.53845">
        <ele>71.3</ele>
        <time>2024-12-19T07:49:36Z</time>
      </trkpt>
      <trkpt lat="47.95146" lon="-2.53844">
        <ele>71.3</ele>
        <time>2024-12-19T07:49:37Z</time>
      </trkpt>
      <trkpt lat="47.95146" lon="-2.53842">
        <ele>71.3</ele>
        <time>2024-12-19T07:49:38Z</time>
      </trkpt>
      <trkpt lat="47.95146" lon="-2.53841">
        <ele>71.3</ele>
        <time>2024-12-19T07:49:39Z</time>
      </trkpt>
      <trkpt lat="47.95145" lon="-2.53839">
        <ele>71.4</ele>
        <time>2024-12-19T07:49:40Z</time>
      </trkpt>
      <trkpt lat="47.95144" lon="-2.53838">
        <ele>71.3</ele>
        <time>2024-12-19T07:49:41Z</time>
      </trkpt>
      <trkpt lat="47.95143" lon="-2.53837">
        <ele>71.3</ele>
        <time>2024-12-19T07:49:42Z</time>
      </trkpt>
      <trkpt lat="47.95142" lon="-2.53836">
        <ele>71.2</ele>
        <time>2024-12-19T07:49:43Z</time>
      </trkpt>
      <trkpt lat="47.9514" lon="-2.53836">
        <ele>71.1</ele>
        <time>2024-12-19T07:49:44Z</time>
      </trkpt>
      <trkpt lat="47.95139" lon="-2.53835">
        <ele>71</ele>
        <time>2024-12-19T07:49:45Z</time>
      </trkpt>
      <trkpt lat="47.95137" lon="-2.53835">
        <ele>71.2</ele>
        <time>2024-12-19T07:49:46Z</time>
      </trkpt>
      <trkpt lat="47.95136" lon="-2.53834">
        <ele>71.3</ele>
        <time>2024-12-19T07:49:47Z</time>
      </trkpt>
      <trkpt lat="47.95136" lon="-2.53833">
        <ele>71.3</ele>
        <time>2024-12-19T07:49:48Z</time>
      </trkpt>
      <trkpt lat="47.95135" lon="-2.53832">
        <ele>71.5</ele>
        <time>2024-12-19T07:49:49Z</time>
      </trkpt>
      <trkpt lat="47.95134" lon="-2.53831">
        <ele>71.7</ele>
        <time>2024-12-19T07:49:50Z</time>
      </trkpt>
      <trkpt lat="47.95133" lon="-2.5383">
        <ele>71.8</ele>
        <time>2024-12-19T07:49:51Z</time>
      </trkpt>
      <trkpt lat="47.95132" lon="-2.53828">
        <ele>72</ele>
        <time>2024-12-19T07:49:52Z</time>
      </trkpt>
      <trkpt lat="47.95131" lon="-2.53827">
        <ele>72.2</ele>
        <time>2024-12-19T07:49:53Z</time>
      </trkpt>
      <trkpt lat="47.9513" lon="-2.53825">
        <ele>72.3</ele>
        <time>2024-12-19T07:49:54Z</time>
      </trkpt>
      <trkpt lat="47.95129" lon="-2.53824">
        <ele>72.5</ele>
        <time>2024-12-19T07:49:55Z</time>
      </trkpt>
      <trkpt lat="47.95128" lon="-2.53823">
        <ele>72.6</ele>
        <time>2024-12-19T07:49:56Z</time>
      </trkpt>
      <trkpt lat="47.95128" lon="-2.53822">
        <ele>72.7</ele>
        <time>2024-12-19T07:49:57Z</time>
      </trkpt>
      <trkpt lat="47.95127" lon="-2.53821">
        <ele>72.8</ele>
        <time>2024-12-19T07:49:58Z</time>
      </trkpt>
      <trkpt lat="47.95126" lon="-2.5382">
        <ele>72.9</ele>
        <time>2024-12-19T07:49:59Z</time>
      </trkpt>
      <trkpt lat="47.95124" lon="-2.5382">
        <ele>73</ele>
        <time>2024-12-19T07:50:00Z</time>
      </trkpt>
      <trkpt lat="47.95123" lon="-2.53818">
        <ele>73.2</ele>
        <time>2024-12-19T07:50:01Z</time>
      </trkpt>
      <trkpt lat="47.95122" lon="-2.53817">
        <ele>73.3</ele>
        <time>2024-12-19T07:50:02Z</time>
      </trkpt>
      <trkpt lat="47.95121" lon="-2.53816">
        <ele>73.4</ele>
        <time>2024-12-19T07:50:03Z</time>
      </trkpt>
      <trkpt lat="47.9512" lon="-2.53815">
        <ele>73.4</ele>
        <time>2024-12-19T07:50:04Z</time>
      </trkpt>
      <trkpt lat="47.95119" lon="-2.53814">
        <ele>73.5</ele>
        <time>2024-12-19T07:50:05Z</time>
      </trkpt>
      <trkpt lat="47.95118" lon="-2.53812">
        <ele>73.6</ele>
        <time>2024-12-19T07:50:06Z</time>
      </trkpt>
      <trkpt lat="47.95117" lon="-2.53811">
        <ele>73.7</ele>
        <time>2024-12-19T07:50:07Z</time>
      </trkpt>
      <trkpt lat="47.95116" lon="-2.5381">
        <ele>73.8</ele>
        <time>2024-12-19T07:50:08Z</time>
      </trkpt>
      <trkpt lat="47.95115" lon="-2.53809">
        <ele>73.8</ele>
        <time>2024-12-19T07:50:09Z</time>
      </trkpt>
      <trkpt lat="47.95114" lon="-2.53808">
        <ele>73.9</ele>
        <time>2024-12-19T07:50:10Z</time>
      </trkpt>
      <trkpt lat="47.95113" lon="-2.53807">
        <ele>73.9</ele>
        <time>2024-12-19T07:50:11Z</time>
      </trkpt>
      <trkpt lat="47.95112" lon="-2.53806">
        <ele>74</ele>
        <time>2024-12-19T07:50:12Z</time>
      </trkpt>
      <trkpt lat="47.95112" lon="-2.53804">
        <ele>74</ele>
        <time>2024-12-19T07:50:13Z</time>
      </trkpt>
      <trkpt lat="47.9511" lon="-2.53803">
        <ele>74.1</ele>
        <time>2024-12-19T07:50:14Z</time>
      </trkpt>
      <trkpt lat="47.95109" lon="-2.53801">
        <ele>74.2</ele>
        <time>2024-12-19T07:50:15Z</time>
      </trkpt>
      <trkpt lat="47.95108" lon="-2.538">
        <ele>74.3</ele>
        <time>2024-12-19T07:50:16Z</time>
      </trkpt>
      <trkpt lat="47.95107" lon="-2.53799">
        <ele>74.4</ele>
        <time>2024-12-19T07:50:17Z</time>
      </trkpt>
      <trkpt lat="47.95107" lon="-2.53798">
        <ele>74.5</ele>
        <time>2024-12-19T07:50:18Z</time>
      </trkpt>
      <trkpt lat="47.95106" lon="-2.53797">
        <ele>74.5</ele>
        <time>2024-12-19T07:50:19Z</time>
      </trkpt>
      <trkpt lat="47.95105" lon="-2.53796">
        <ele>74.6</ele>
        <time>2024-12-19T07:50:20Z</time>
      </trkpt>
      <trkpt lat="47.95104" lon="-2.53795">
        <ele>74.6</ele>
        <time>2024-12-19T07:50:21Z</time>
      </trkpt>
      <trkpt lat="47.95103" lon="-2.53794">
        <ele>74.6</ele>
        <time>2024-12-19T07:50:22Z</time>
      </trkpt>
      <trkpt lat="47.95102" lon="-2.53793">
        <ele>74.7</ele>
        <time>2024-12-19T07:50:23Z</time>
      </trkpt>
      <trkpt lat="47.95101" lon="-2.53793">
        <ele>74.7</ele>
        <time>2024-12-19T07:50:24Z</time>
      </trkpt>
      <trkpt lat="47.951" lon="-2.53792">
        <ele>74.7</ele>
        <time>2024-12-19T07:50:25Z</time>
      </trkpt>
      <trkpt lat="47.95099" lon="-2.53791">
        <ele>74.7</ele>
        <time>2024-12-19T07:50:26Z</time>
      </trkpt>
      <trkpt lat="47.95098" lon="-2.5379">
        <ele>74.7</ele>
        <time>2024-12-19T07:50:27Z</time>
      </trkpt>
      <trkpt lat="47.95097" lon="-2.53789">
        <ele>74.7</ele>
        <time>2024-12-19T07:50:28Z</time>
      </trkpt>
      <trkpt lat="47.95095" lon="-2.53788">
        <ele>74.7</ele>
        <time>2024-12-19T07:50:29Z</time>
      </trkpt>
      <trkpt lat="47.95094" lon="-2.53787">
        <ele>74.7</ele>
        <time>2024-12-19T07:50:30Z</time>
      </trkpt>
      <trkpt lat="47.95093" lon="-2.53786">
        <ele>74.6</ele>
        <time>2024-12-19T07:50:31Z</time>
      </trkpt>
      <trkpt lat="47.95092" lon="-2.53785">
        <ele>74.6</ele>
        <time>2024-12-19T07:50:32Z</time>
      </trkpt>
      <trkpt lat="47.95091" lon="-2.53783">
        <ele>74.5</ele>
        <time>2024-12-19T07:50:33Z</time>
      </trkpt>
      <trkpt lat="47.9509" lon="-2.53782">
        <ele>74.4</ele>
        <time>2024-12-19T07:50:34Z</time>
      </trkpt>
      <trkpt lat="47.95089" lon="-2.5378">
        <ele>74.3</ele>
        <time>2024-12-19T07:50:35Z</time>
      </trkpt>
      <trkpt lat="47.95088" lon="-2.53779">
        <ele>74.2</ele>
        <time>2024-12-19T07:50:36Z</time>
      </trkpt>
      <trkpt lat="47.95087" lon="-2.53779">
        <ele>74.2</ele>
        <time>2024-12-19T07:50:37Z</time>
      </trkpt>
      <trkpt lat="47.95086" lon="-2.53778">
        <ele>74.1</ele>
        <time>2024-12-19T07:50:38Z</time>
      </trkpt>
      <trkpt lat="47.95085" lon="-2.53777">
        <ele>74.1</ele>
        <time>2024-12-19T07:50:39Z</time>
      </trkpt>
      <trkpt lat="47.95084" lon="-2.53777">
        <ele>74.2</ele>
        <time>2024-12-19T07:50:40Z</time>
      </trkpt>
      <trkpt lat="47.95084" lon="-2.53775">
        <ele>74.3</ele>
        <time>2024-12-19T07:50:41Z</time>
      </trkpt>
      <trkpt lat="47.95082" lon="-2.53774">
        <ele>74.5</ele>
        <time>2024-12-19T07:50:42Z</time>
      </trkpt>
      <trkpt lat="47.95081" lon="-2.53773">
        <ele>74.7</ele>
        <time>2024-12-19T07:50:43Z</time>
      </trkpt>
      <trkpt lat="47.9508" lon="-2.53772">
        <ele>74.9</ele>
        <time>2024-12-19T07:50:44Z</time>
      </trkpt>
      <trkpt lat="47.95079" lon="-2.53771">
        <ele>75.1</ele>
        <time>2024-12-19T07:50:45Z</time>
      </trkpt>
      <trkpt lat="47.95078" lon="-2.5377">
        <ele>75.3</ele>
        <time>2024-12-19T07:50:46Z</time>
      </trkpt>
      <trkpt lat="47.95077" lon="-2.53769">
        <ele>75.5</ele>
        <time>2024-12-19T07:50:47Z</time>
      </trkpt>
      <trkpt lat="47.95075" lon="-2.53768">
        <ele>75.7</ele>
        <time>2024-12-19T07:50:48Z</time>
      </trkpt>
      <trkpt lat="47.95074" lon="-2.53767">
        <ele>75.9</ele>
        <time>2024-12-19T07:50:49Z</time>
      </trkpt>
      <trkpt lat="47.95073" lon="-2.53766">
        <ele>76</ele>
        <time>2024-12-19T07:50:50Z</time>
      </trkpt>
      <trkpt lat="47.95072" lon="-2.53765">
        <ele>76.2</ele>
        <time>2024-12-19T07:50:51Z</time>
      </trkpt>
      <trkpt lat="47.95071" lon="-2.53764">
        <ele>76.4</ele>
        <time>2024-12-19T07:50:52Z</time>
      </trkpt>
      <trkpt lat="47.9507" lon="-2.53763">
        <ele>76.6</ele>
        <time>2024-12-19T07:50:53Z</time>
      </trkpt>
      <trkpt lat="47.95068" lon="-2.53762">
        <ele>76.7</ele>
        <time>2024-12-19T07:50:54Z</time>
      </trkpt>
      <trkpt lat="47.95067" lon="-2.53761">
        <ele>76.8</ele>
        <time>2024-12-19T07:50:55Z</time>
      </trkpt>
      <trkpt lat="47.95066" lon="-2.5376">
        <ele>77</ele>
        <time>2024-12-19T07:50:56Z</time>
      </trkpt>
      <trkpt lat="47.95064" lon="-2.53759">
        <ele>77.2</ele>
        <time>2024-12-19T07:50:57Z</time>
      </trkpt>
      <trkpt lat="47.95063" lon="-2.53758">
        <ele>77.3</ele>
        <time>2024-12-19T07:50:58Z</time>
      </trkpt>
      <trkpt lat="47.95062" lon="-2.53758">
        <ele>77.4</ele>
        <time>2024-12-19T07:50:59Z</time>
      </trkpt>
      <trkpt lat="47.95061" lon="-2.53757">
        <ele>77.5</ele>
        <time>2024-12-19T07:51:00Z</time>
      </trkpt>
      <trkpt lat="47.9506" lon="-2.53756">
        <ele>77.6</ele>
        <time>2024-12-19T07:51:01Z</time>
      </trkpt>
      <trkpt lat="47.95059" lon="-2.53755">
        <ele>77.7</ele>
        <time>2024-12-19T07:51:02Z</time>
      </trkpt>
      <trkpt lat="47.95058" lon="-2.53754">
        <ele>77.8</ele>
        <time>2024-12-19T07:51:03Z</time>
      </trkpt>
      <trkpt lat="47.95057" lon="-2.53753">
        <ele>77.8</ele>
        <time>2024-12-19T07:51:04Z</time>
      </trkpt>
      <trkpt lat="47.95056" lon="-2.53752">
        <ele>77.9</ele>
        <time>2024-12-19T07:51:05Z</time>
      </trkpt>
      <trkpt lat="47.95055" lon="-2.53751">
        <ele>78</ele>
        <time>2024-12-19T07:51:06Z</time>
      </trkpt>
      <trkpt lat="47.95054" lon="-2.53751">
        <ele>78</ele>
        <time>2024-12-19T07:51:07Z</time>
      </trkpt>
      <trkpt lat="47.95053" lon="-2.5375">
        <ele>78</ele>
        <time>2024-12-19T07:51:08Z</time>
      </trkpt>
      <trkpt lat="47.95052" lon="-2.53749">
        <ele>78</ele>
        <time>2024-12-19T07:51:09Z</time>
      </trkpt>
      <trkpt lat="47.9505" lon="-2.53749">
        <ele>78</ele>
        <time>2024-12-19T07:51:10Z</time>
      </trkpt>
      <trkpt lat="47.95048" lon="-2.53748">
        <ele>78</ele>
        <time>2024-12-19T07:51:12Z</time>
      </trkpt>
      <trkpt lat="47.95046" lon="-2.53748">
        <ele>78</ele>
        <time>2024-12-19T07:51:13Z</time>
      </trkpt>
      <trkpt lat="47.95045" lon="-2.53748">
        <ele>78</ele>
        <time>2024-12-19T07:51:14Z</time>
      </trkpt>
      <trkpt lat="47.95043" lon="-2.53748">
        <ele>78</ele>
        <time>2024-12-19T07:51:15Z</time>
      </trkpt>
      <trkpt lat="47.95041" lon="-2.53748">
        <ele>78</ele>
        <time>2024-12-19T07:51:16Z</time>
      </trkpt>
      <trkpt lat="47.95039" lon="-2.53747">
        <ele>78.1</ele>
        <time>2024-12-19T07:51:17Z</time>
      </trkpt>
      <trkpt lat="47.95038" lon="-2.53746">
        <ele>78.1</ele>
        <time>2024-12-19T07:51:18Z</time>
      </trkpt>
      <trkpt lat="47.95037" lon="-2.53745">
        <ele>78.1</ele>
        <time>2024-12-19T07:51:19Z</time>
      </trkpt>
      <trkpt lat="47.95036" lon="-2.53745">
        <ele>78.1</ele>
        <time>2024-12-19T07:51:20Z</time>
      </trkpt>
      <trkpt lat="47.95035" lon="-2.53744">
        <ele>78.2</ele>
        <time>2024-12-19T07:51:21Z</time>
      </trkpt>
      <trkpt lat="47.95034" lon="-2.53744">
        <ele>78.2</ele>
        <time>2024-12-19T07:51:22Z</time>
      </trkpt>
      <trkpt lat="47.95033" lon="-2.53744">
        <ele>78.2</ele>
        <time>2024-12-19T07:51:23Z</time>
      </trkpt>
      <trkpt lat="47.95032" lon="-2.53743">
        <ele>78.2</ele>
        <time>2024-12-19T07:51:24Z</time>
      </trkpt>
      <trkpt lat="47.95031" lon="-2.53743">
        <ele>78.2</ele>
        <time>2024-12-19T07:51:25Z</time>
      </trkpt>
      <trkpt lat="47.9503" lon="-2.53742">
        <ele>78.3</ele>
        <time>2024-12-19T07:51:26Z</time>
      </trkpt>
      <trkpt lat="47.95029" lon="-2.53742">
        <ele>78.3</ele>
        <time>2024-12-19T07:51:27Z</time>
      </trkpt>
      <trkpt lat="47.95027" lon="-2.53742">
        <ele>78.3</ele>
        <time>2024-12-19T07:51:28Z</time>
      </trkpt>
      <trkpt lat="47.95026" lon="-2.53741">
        <ele>78.4</ele>
        <time>2024-12-19T07:51:29Z</time>
      </trkpt>
      <trkpt lat="47.95025" lon="-2.53741">
        <ele>78.4</ele>
        <time>2024-12-19T07:51:30Z</time>
      </trkpt>
      <trkpt lat="47.95024" lon="-2.53741">
        <ele>78.4</ele>
        <time>2024-12-19T07:51:31Z</time>
      </trkpt>
      <trkpt lat="47.95023" lon="-2.5374">
        <ele>78.5</ele>
        <time>2024-12-19T07:51:32Z</time>
      </trkpt>
      <trkpt lat="47.95022" lon="-2.5374">
        <ele>78.5</ele>
        <time>2024-12-19T07:51:33Z</time>
      </trkpt>
      <trkpt lat="47.95021" lon="-2.5374">
        <ele>78.5</ele>
        <time>2024-12-19T07:51:34Z</time>
      </trkpt>
      <trkpt lat="47.9502" lon="-2.53739">
        <ele>78.6</ele>
        <time>2024-12-19T07:51:35Z</time>
      </trkpt>
      <trkpt lat="47.95019" lon="-2.53739">
        <ele>78.6</ele>
        <time>2024-12-19T07:51:36Z</time>
      </trkpt>
      <trkpt lat="47.95018" lon="-2.53738">
        <ele>78.6</ele>
        <time>2024-12-19T07:51:37Z</time>
      </trkpt>
      <trkpt lat="47.95018" lon="-2.53738">
        <ele>78.7</ele>
        <time>2024-12-19T07:51:38Z</time>
      </trkpt>
      <trkpt lat="47.95017" lon="-2.53737">
        <ele>78.7</ele>
        <time>2024-12-19T07:51:39Z</time>
      </trkpt>
      <trkpt lat="47.95016" lon="-2.53736">
        <ele>78.7</ele>
        <time>2024-12-19T07:51:40Z</time>
      </trkpt>
      <trkpt lat="47.95014" lon="-2.53736">
        <ele>78.8</ele>
        <time>2024-12-19T07:51:41Z</time>
      </trkpt>
      <trkpt lat="47.95013" lon="-2.53735">
        <ele>78.8</ele>
        <time>2024-12-19T07:51:42Z</time>
      </trkpt>
      <trkpt lat="47.95011" lon="-2.53735">
        <ele>78.8</ele>
        <time>2024-12-19T07:51:43Z</time>
      </trkpt>
      <trkpt lat="47.9501" lon="-2.53735">
        <ele>78.8</ele>
        <time>2024-12-19T07:51:44Z</time>
      </trkpt>
      <trkpt lat="47.95008" lon="-2.53734">
        <ele>78.9</ele>
        <time>2024-12-19T07:51:45Z</time>
      </trkpt>
      <trkpt lat="47.95007" lon="-2.53734">
        <ele>78.9</ele>
        <time>2024-12-19T07:51:46Z</time>
      </trkpt>
      <trkpt lat="47.95006" lon="-2.53733">
        <ele>78.9</ele>
        <time>2024-12-19T07:51:47Z</time>
      </trkpt>
      <trkpt lat="47.95005" lon="-2.53732">
        <ele>78.9</ele>
        <time>2024-12-19T07:51:48Z</time>
      </trkpt>
      <trkpt lat="47.95004" lon="-2.53731">
        <ele>79</ele>
        <time>2024-12-19T07:51:49Z</time>
      </trkpt>
      <trkpt lat="47.95003" lon="-2.5373">
        <ele>79</ele>
        <time>2024-12-19T07:51:50Z</time>
      </trkpt>
      <trkpt lat="47.95003" lon="-2.53728">
        <ele>79</ele>
        <time>2024-12-19T07:51:51Z</time>
      </trkpt>
      <trkpt lat="47.95002" lon="-2.53727">
        <ele>79</ele>
        <time>2024-12-19T07:51:52Z</time>
      </trkpt>
      <trkpt lat="47.95002" lon="-2.53725">
        <ele>79</ele>
        <time>2024-12-19T07:51:53Z</time>
      </trkpt>
      <trkpt lat="47.95001" lon="-2.53724">
        <ele>79</ele>
        <time>2024-12-19T07:51:54Z</time>
      </trkpt>
      <trkpt lat="47.95001" lon="-2.53722">
        <ele>79</ele>
        <time>2024-12-19T07:51:55Z</time>
      </trkpt>
      <trkpt lat="47.95001" lon="-2.5372">
        <ele>79</ele>
        <time>2024-12-19T07:51:56Z</time>
      </trkpt>
      <trkpt lat="47.95001" lon="-2.53718">
        <ele>79</ele>
        <time>2024-12-19T07:51:57Z</time>
      </trkpt>
      <trkpt lat="47.95002" lon="-2.53717">
        <ele>79</ele>
        <time>2024-12-19T07:51:58Z</time>
      </trkpt>
      <trkpt lat="47.95002" lon="-2.53715">
        <ele>79</ele>
        <time>2024-12-19T07:51:59Z</time>
      </trkpt>
      <trkpt lat="47.95002" lon="-2.53713">
        <ele>79</ele>
        <time>2024-12-19T07:52:00Z</time>
      </trkpt>
      <trkpt lat="47.95002" lon="-2.53711">
        <ele>79</ele>
        <time>2024-12-19T07:52:01Z</time>
      </trkpt>
      <trkpt lat="47.95001" lon="-2.53709">
        <ele>79</ele>
        <time>2024-12-19T07:52:02Z</time>
      </trkpt>
      <trkpt lat="47.95001" lon="-2.53707">
        <ele>79</ele>
        <time>2024-12-19T07:52:03Z</time>
      </trkpt>
      <trkpt lat="47.95001" lon="-2.53705">
        <ele>79</ele>
        <time>2024-12-19T07:52:04Z</time>
      </trkpt>
      <trkpt lat="47.95" lon="-2.53702">
        <ele>79</ele>
        <time>2024-12-19T07:52:05Z</time>
      </trkpt>
      <trkpt lat="47.94999" lon="-2.537">
        <ele>79</ele>
        <time>2024-12-19T07:52:06Z</time>
      </trkpt>
      <trkpt lat="47.94998" lon="-2.53698">
        <ele>79</ele>
        <time>2024-12-19T07:52:07Z</time>
      </trkpt>
      <trkpt lat="47.94998" lon="-2.53696">
        <ele>79</ele>
        <time>2024-12-19T07:52:08Z</time>
      </trkpt>
      <trkpt lat="47.94997" lon="-2.53695">
        <ele>79</ele>
        <time>2024-12-19T07:52:09Z</time>
      </trkpt>
      <trkpt lat="47.94997" lon="-2.53693">
        <ele>79</ele>
        <time>2024-12-19T07:52:10Z</time>
      </trkpt>
      <trkpt lat="47.94996" lon="-2.53692">
        <ele>79</ele>
        <time>2024-12-19T07:52:11Z</time>
      </trkpt>
      <trkpt lat="47.94996" lon="-2.5369">
        <ele>79</ele>
        <time>2024-12-19T07:52:12Z</time>
      </trkpt>
      <trkpt lat="47.94995" lon="-2.53688">
        <ele>79</ele>
        <time>2024-12-19T07:52:13Z</time>
      </trkpt>
      <trkpt lat="47.94995" lon="-2.53685">
        <ele>79</ele>
        <time>2024-12-19T07:52:14Z</time>
      </trkpt>
      <trkpt lat="47.94994" lon="-2.53682">
        <ele>79</ele>
        <time>2024-12-19T07:52:15Z</time>
      </trkpt>
      <trkpt lat="47.94994" lon="-2.5368">
        <ele>79</ele>
        <time>2024-12-19T07:52:16Z</time>
      </trkpt>
      <trkpt lat="47.94993" lon="-2.53678">
        <ele>79</ele>
        <time>2024-12-19T07:52:17Z</time>
      </trkpt>
      <trkpt lat="47.94993" lon="-2.53676">
        <ele>79</ele>
        <time>2024-12-19T07:52:18Z</time>
      </trkpt>
      <trkpt lat="47.94992" lon="-2.53674">
        <ele>79</ele>
        <time>2024-12-19T07:52:19Z</time>
      </trkpt>
      <trkpt lat="47.94992" lon="-2.53673">
        <ele>79</ele>
        <time>2024-12-19T07:52:20Z</time>
      </trkpt>
      <trkpt lat="47.94992" lon="-2.53672">
        <ele>79</ele>
        <time>2024-12-19T07:52:21Z</time>
      </trkpt>
      <trkpt lat="47.94992" lon="-2.53671">
        <ele>79</ele>
        <time>2024-12-19T07:52:22Z</time>
      </trkpt>
      <trkpt lat="47.94992" lon="-2.53669">
        <ele>79</ele>
        <time>2024-12-19T07:52:23Z</time>
      </trkpt>
      <trkpt lat="47.94992" lon="-2.53668">
        <ele>79</ele>
        <time>2024-12-19T07:52:24Z</time>
      </trkpt>
      <trkpt lat="47.94992" lon="-2.53667">
        <ele>79</ele>
        <time>2024-12-19T07:52:25Z</time>
      </trkpt>
      <trkpt lat="47.94992" lon="-2.53665">
        <ele>79</ele>
        <time>2024-12-19T07:52:26Z</time>
      </trkpt>
      <trkpt lat="47.94992" lon="-2.53664">
        <ele>78.9</ele>
        <time>2024-12-19T07:52:27Z</time>
      </trkpt>
      <trkpt lat="47.94991" lon="-2.53662">
        <ele>78.8</ele>
        <time>2024-12-19T07:52:28Z</time>
      </trkpt>
      <trkpt lat="47.94991" lon="-2.53661">
        <ele>78.8</ele>
        <time>2024-12-19T07:52:29Z</time>
      </trkpt>
      <trkpt lat="47.94991" lon="-2.53661">
        <ele>78.8</ele>
        <time>2024-12-19T07:52:30Z</time>
      </trkpt>
      <trkpt lat="47.9499" lon="-2.5366">
        <ele>78.7</ele>
        <time>2024-12-19T07:52:31Z</time>
      </trkpt>
      <trkpt lat="47.9499" lon="-2.53658">
        <ele>78.7</ele>
        <time>2024-12-19T07:52:32Z</time>
      </trkpt>
      <trkpt lat="47.94989" lon="-2.53656">
        <ele>78.6</ele>
        <time>2024-12-19T07:52:33Z</time>
      </trkpt>
      <trkpt lat="47.94989" lon="-2.53655">
        <ele>78.6</ele>
        <time>2024-12-19T07:52:34Z</time>
      </trkpt>
      <trkpt lat="47.94989" lon="-2.53653">
        <ele>78.5</ele>
        <time>2024-12-19T07:52:35Z</time>
      </trkpt>
      <trkpt lat="47.94989" lon="-2.53652">
        <ele>78.5</ele>
        <time>2024-12-19T07:52:36Z</time>
      </trkpt>
      <trkpt lat="47.94988" lon="-2.53651">
        <ele>78.4</ele>
        <time>2024-12-19T07:52:37Z</time>
      </trkpt>
      <trkpt lat="47.94988" lon="-2.53648">
        <ele>78.3</ele>
        <time>2024-12-19T07:52:38Z</time>
      </trkpt>
      <trkpt lat="47.94987" lon="-2.53647">
        <ele>78.3</ele>
        <time>2024-12-19T07:52:39Z</time>
      </trkpt>
      <trkpt lat="47.94988" lon="-2.53645">
        <ele>78.2</ele>
        <time>2024-12-19T07:52:40Z</time>
      </trkpt>
      <trkpt lat="47.94988" lon="-2.53645">
        <ele>78.2</ele>
        <time>2024-12-19T07:52:41Z</time>
      </trkpt>
      <trkpt lat="47.94987" lon="-2.53644">
        <ele>78.2</ele>
        <time>2024-12-19T07:52:42Z</time>
      </trkpt>
      <trkpt lat="47.94987" lon="-2.53643">
        <ele>78.2</ele>
        <time>2024-12-19T07:52:43Z</time>
      </trkpt>
      <trkpt lat="47.94986" lon="-2.53642">
        <ele>78.1</ele>
        <time>2024-12-19T07:52:44Z</time>
      </trkpt>
      <trkpt lat="47.94985" lon="-2.5364">
        <ele>78.1</ele>
        <time>2024-12-19T07:52:45Z</time>
      </trkpt>
      <trkpt lat="47.94985" lon="-2.53638">
        <ele>78</ele>
        <time>2024-12-19T07:52:46Z</time>
      </trkpt>
      <trkpt lat="47.94984" lon="-2.53636">
        <ele>78</ele>
        <time>2024-12-19T07:52:47Z</time>
      </trkpt>
      <trkpt lat="47.94983" lon="-2.53635">
        <ele>78</ele>
        <time>2024-12-19T07:52:48Z</time>
      </trkpt>
      <trkpt lat="47.94982" lon="-2.53633">
        <ele>78</ele>
        <time>2024-12-19T07:52:49Z</time>
      </trkpt>
      <trkpt lat="47.94981" lon="-2.53631">
        <ele>78</ele>
        <time>2024-12-19T07:52:50Z</time>
      </trkpt>
      <trkpt lat="47.94981" lon="-2.5363">
        <ele>78</ele>
        <time>2024-12-19T07:52:51Z</time>
      </trkpt>
      <trkpt lat="47.9498" lon="-2.53629">
        <ele>78</ele>
        <time>2024-12-19T07:52:52Z</time>
      </trkpt>
      <trkpt lat="47.9498" lon="-2.53628">
        <ele>78</ele>
        <time>2024-12-19T07:52:53Z</time>
      </trkpt>
      <trkpt lat="47.94979" lon="-2.53628">
        <ele>78</ele>
        <time>2024-12-19T07:52:54Z</time>
      </trkpt>
      <trkpt lat="47.94979" lon="-2.53627">
        <ele>78</ele>
        <time>2024-12-19T07:52:55Z</time>
      </trkpt>
      <trkpt lat="47.94979" lon="-2.53626">
        <ele>78</ele>
        <time>2024-12-19T07:52:56Z</time>
      </trkpt>
      <trkpt lat="47.94978" lon="-2.53625">
        <ele>78</ele>
        <time>2024-12-19T07:52:57Z</time>
      </trkpt>
      <trkpt lat="47.94977" lon="-2.53624">
        <ele>78</ele>
        <time>2024-12-19T07:52:58Z</time>
      </trkpt>
      <trkpt lat="47.94976" lon="-2.53624">
        <ele>78</ele>
        <time>2024-12-19T07:52:59Z</time>
      </trkpt>
      <trkpt lat="47.94975" lon="-2.53623">
        <ele>78</ele>
        <time>2024-12-19T07:53:00Z</time>
      </trkpt>
      <trkpt lat="47.94974" lon="-2.53623">
        <ele>78</ele>
        <time>2024-12-19T07:53:01Z</time>
      </trkpt>
      <trkpt lat="47.94973" lon="-2.53622">
        <ele>78</ele>
        <time>2024-12-19T07:53:02Z</time>
      </trkpt>
      <trkpt lat="47.94973" lon="-2.5362">
        <ele>78</ele>
        <time>2024-12-19T07:53:03Z</time>
      </trkpt>
      <trkpt lat="47.94972" lon="-2.53618">
        <ele>78</ele>
        <time>2024-12-19T07:53:04Z</time>
      </trkpt>
      <trkpt lat="47.9497" lon="-2.53616">
        <ele>77.9</ele>
        <time>2024-12-19T07:53:05Z</time>
      </trkpt>
      <trkpt lat="47.94969" lon="-2.53614">
        <ele>77.9</ele>
        <time>2024-12-19T07:53:06Z</time>
      </trkpt>
      <trkpt lat="47.94968" lon="-2.53612">
        <ele>77.8</ele>
        <time>2024-12-19T07:53:07Z</time>
      </trkpt>
      <trkpt lat="47.94967" lon="-2.5361">
        <ele>77.7</ele>
        <time>2024-12-19T07:53:08Z</time>
      </trkpt>
      <trkpt lat="47.94965" lon="-2.53608">
        <ele>77.6</ele>
        <time>2024-12-19T07:53:09Z</time>
      </trkpt>
      <trkpt lat="47.94964" lon="-2.53606">
        <ele>77.5</ele>
        <time>2024-12-19T07:53:10Z</time>
      </trkpt>
      <trkpt lat="47.94963" lon="-2.53605">
        <ele>77.4</ele>
        <time>2024-12-19T07:53:11Z</time>
      </trkpt>
      <trkpt lat="47.94962" lon="-2.53604">
        <ele>77.3</ele>
        <time>2024-12-19T07:53:12Z</time>
      </trkpt>
      <trkpt lat="47.9496" lon="-2.53603">
        <ele>77.3</ele>
        <time>2024-12-19T07:53:13Z</time>
      </trkpt>
      <trkpt lat="47.94959" lon="-2.53601">
        <ele>77.2</ele>
        <time>2024-12-19T07:53:14Z</time>
      </trkpt>
      <trkpt lat="47.94959" lon="-2.53601">
        <ele>77.1</ele>
        <time>2024-12-19T07:53:15Z</time>
      </trkpt>
      <trkpt lat="47.94959" lon="-2.536">
        <ele>77.1</ele>
        <time>2024-12-19T07:53:16Z</time>
      </trkpt>
      <trkpt lat="47.94959" lon="-2.53599">
        <ele>77.1</ele>
        <time>2024-12-19T07:53:17Z</time>
      </trkpt>
      <trkpt lat="47.94959" lon="-2.53598">
        <ele>77.1</ele>
        <time>2024-12-19T07:53:18Z</time>
      </trkpt>
      <trkpt lat="47.94959" lon="-2.53597">
        <ele>77</ele>
        <time>2024-12-19T07:53:19Z</time>
      </trkpt>
      <trkpt lat="47.94959" lon="-2.53595">
        <ele>77</ele>
        <time>2024-12-19T07:53:20Z</time>
      </trkpt>
      <trkpt lat="47.94959" lon="-2.53594">
        <ele>76.9</ele>
        <time>2024-12-19T07:53:21Z</time>
      </trkpt>
      <trkpt lat="47.94959" lon="-2.53594">
        <ele>76.9</ele>
        <time>2024-12-19T07:53:22Z</time>
      </trkpt>
      <trkpt lat="47.94959" lon="-2.53592">
        <ele>76.8</ele>
        <time>2024-12-19T07:53:23Z</time>
      </trkpt>
      <trkpt lat="47.94959" lon="-2.5359">
        <ele>76.8</ele>
        <time>2024-12-19T07:53:24Z</time>
      </trkpt>
      <trkpt lat="47.94958" lon="-2.53588">
        <ele>76.7</ele>
        <time>2024-12-19T07:53:25Z</time>
      </trkpt>
      <trkpt lat="47.94957" lon="-2.53586">
        <ele>76.5</ele>
        <time>2024-12-19T07:53:26Z</time>
      </trkpt>
      <trkpt lat="47.94956" lon="-2.53583">
        <ele>76.4</ele>
        <time>2024-12-19T07:53:27Z</time>
      </trkpt>
      <trkpt lat="47.94955" lon="-2.5358">
        <ele>76.2</ele>
        <time>2024-12-19T07:53:28Z</time>
      </trkpt>
      <trkpt lat="47.94954" lon="-2.53577">
        <ele>76</ele>
        <time>2024-12-19T07:53:29Z</time>
      </trkpt>
      <trkpt lat="47.94953" lon="-2.53574">
        <ele>75.7</ele>
        <time>2024-12-19T07:53:30Z</time>
      </trkpt>
      <trkpt lat="47.94951" lon="-2.53571">
        <ele>75.4</ele>
        <time>2024-12-19T07:53:31Z</time>
      </trkpt>
      <trkpt lat="47.94949" lon="-2.53568">
        <ele>75.1</ele>
        <time>2024-12-19T07:53:32Z</time>
      </trkpt>
      <trkpt lat="47.94948" lon="-2.53564">
        <ele>74.8</ele>
        <time>2024-12-19T07:53:33Z</time>
      </trkpt>
      <trkpt lat="47.94947" lon="-2.53561">
        <ele>74.5</ele>
        <time>2024-12-19T07:53:34Z</time>
      </trkpt>
      <trkpt lat="47.94946" lon="-2.53557">
        <ele>74.2</ele>
        <time>2024-12-19T07:53:35Z</time>
      </trkpt>
      <trkpt lat="47.94946" lon="-2.53554">
        <ele>74</ele>
        <time>2024-12-19T07:53:36Z</time>
      </trkpt>
      <trkpt lat="47.94945" lon="-2.53551">
        <ele>73.9</ele>
        <time>2024-12-19T07:53:37Z</time>
      </trkpt>
      <trkpt lat="47.94945" lon="-2.53548">
        <ele>73.7</ele>
        <time>2024-12-19T07:53:38Z</time>
      </trkpt>
      <trkpt lat="47.94944" lon="-2.53546">
        <ele>73.6</ele>
        <time>2024-12-19T07:53:39Z</time>
      </trkpt>
      <trkpt lat="47.94944" lon="-2.53543">
        <ele>73.5</ele>
        <time>2024-12-19T07:53:40Z</time>
      </trkpt>
      <trkpt lat="47.94944" lon="-2.53541">
        <ele>73.4</ele>
        <time>2024-12-19T07:53:41Z</time>
      </trkpt>
      <trkpt lat="47.94944" lon="-2.53538">
        <ele>73.3</ele>
        <time>2024-12-19T07:53:42Z</time>
      </trkpt>
      <trkpt lat="47.94944" lon="-2.53536">
        <ele>73.3</ele>
        <time>2024-12-19T07:53:43Z</time>
      </trkpt>
      <trkpt lat="47.94944" lon="-2.53535">
        <ele>73.2</ele>
        <time>2024-12-19T07:53:44Z</time>
      </trkpt>
      <trkpt lat="47.94944" lon="-2.53534">
        <ele>73.2</ele>
        <time>2024-12-19T07:53:45Z</time>
      </trkpt>
      <trkpt lat="47.94943" lon="-2.53532">
        <ele>73.1</ele>
        <time>2024-12-19T07:53:46Z</time>
      </trkpt>
      <trkpt lat="47.94942" lon="-2.53531">
        <ele>73.1</ele>
        <time>2024-12-19T07:53:47Z</time>
      </trkpt>
      <trkpt lat="47.94942" lon="-2.5353">
        <ele>73</ele>
        <time>2024-12-19T07:53:48Z</time>
      </trkpt>
      <trkpt lat="47.94941" lon="-2.53529">
        <ele>72.9</ele>
        <time>2024-12-19T07:53:49Z</time>
      </trkpt>
      <trkpt lat="47.94941" lon="-2.53529">
        <ele>72.9</ele>
        <time>2024-12-19T07:53:50Z</time>
      </trkpt>
      <trkpt lat="47.94941" lon="-2.53527">
        <ele>72.9</ele>
        <time>2024-12-19T07:53:51Z</time>
      </trkpt>
      <trkpt lat="47.94941" lon="-2.53526">
        <ele>72.8</ele>
        <time>2024-12-19T07:53:52Z</time>
      </trkpt>
      <trkpt lat="47.9494" lon="-2.53525">
        <ele>72.8</ele>
        <time>2024-12-19T07:53:53Z</time>
      </trkpt>
      <trkpt lat="47.9494" lon="-2.53524">
        <ele>72.7</ele>
        <time>2024-12-19T07:53:54Z</time>
      </trkpt>
      <trkpt lat="47.9494" lon="-2.53522">
        <ele>72.6</ele>
        <time>2024-12-19T07:53:55Z</time>
      </trkpt>
      <trkpt lat="47.94941" lon="-2.5352">
        <ele>72.6</ele>
        <time>2024-12-19T07:53:56Z</time>
      </trkpt>
      <trkpt lat="47.94941" lon="-2.53518">
        <ele>72.5</ele>
        <time>2024-12-19T07:53:57Z</time>
      </trkpt>
      <trkpt lat="47.9494" lon="-2.53517">
        <ele>72.5</ele>
        <time>2024-12-19T07:53:58Z</time>
      </trkpt>
      <trkpt lat="47.9494" lon="-2.53516">
        <ele>72.4</ele>
        <time>2024-12-19T07:53:59Z</time>
      </trkpt>
      <trkpt lat="47.9494" lon="-2.53514">
        <ele>72.3</ele>
        <time>2024-12-19T07:54:00Z</time>
      </trkpt>
      <trkpt lat="47.9494" lon="-2.53513">
        <ele>72.3</ele>
        <time>2024-12-19T07:54:01Z</time>
      </trkpt>
      <trkpt lat="47.9494" lon="-2.53512">
        <ele>72.2</ele>
        <time>2024-12-19T07:54:02Z</time>
      </trkpt>
      <trkpt lat="47.9494" lon="-2.5351">
        <ele>72.2</ele>
        <time>2024-12-19T07:54:03Z</time>
      </trkpt>
      <trkpt lat="47.94939" lon="-2.53509">
        <ele>72.1</ele>
        <time>2024-12-19T07:54:04Z</time>
      </trkpt>
      <trkpt lat="47.94939" lon="-2.53507">
        <ele>72</ele>
        <time>2024-12-19T07:54:05Z</time>
      </trkpt>
      <trkpt lat="47.94938" lon="-2.53505">
        <ele>72</ele>
        <time>2024-12-19T07:54:06Z</time>
      </trkpt>
      <trkpt lat="47.94938" lon="-2.53504">
        <ele>71.9</ele>
        <time>2024-12-19T07:54:07Z</time>
      </trkpt>
      <trkpt lat="47.94938" lon="-2.53502">
        <ele>71.8</ele>
        <time>2024-12-19T07:54:08Z</time>
      </trkpt>
      <trkpt lat="47.94938" lon="-2.53501">
        <ele>71.8</ele>
        <time>2024-12-19T07:54:09Z</time>
      </trkpt>
      <trkpt lat="47.94938" lon="-2.53501">
        <ele>71.8</ele>
        <time>2024-12-19T07:54:10Z</time>
      </trkpt>
      <trkpt lat="47.94939" lon="-2.535">
        <ele>71.8</ele>
        <time>2024-12-19T07:54:11Z</time>
      </trkpt>
      <trkpt lat="47.94939" lon="-2.53499">
        <ele>71.8</ele>
        <time>2024-12-19T07:54:12Z</time>
      </trkpt>
      <trkpt lat="47.94938" lon="-2.53498">
        <ele>71.7</ele>
        <time>2024-12-19T07:54:13Z</time>
      </trkpt>
      <trkpt lat="47.94937" lon="-2.53496">
        <ele>71.6</ele>
        <time>2024-12-19T07:54:14Z</time>
      </trkpt>
      <trkpt lat="47.94937" lon="-2.53494">
        <ele>71.4</ele>
        <time>2024-12-19T07:54:15Z</time>
      </trkpt>
      <trkpt lat="47.94937" lon="-2.53492">
        <ele>71.3</ele>
        <time>2024-12-19T07:54:16Z</time>
      </trkpt>
      <trkpt lat="47.94936" lon="-2.5349">
        <ele>71.2</ele>
        <time>2024-12-19T07:54:17Z</time>
      </trkpt>
      <trkpt lat="47.94935" lon="-2.53489">
        <ele>71.1</ele>
        <time>2024-12-19T07:54:18Z</time>
      </trkpt>
      <trkpt lat="47.94934" lon="-2.53488">
        <ele>71</ele>
        <time>2024-12-19T07:54:19Z</time>
      </trkpt>
      <trkpt lat="47.94934" lon="-2.53486">
        <ele>70.9</ele>
        <time>2024-12-19T07:54:20Z</time>
      </trkpt>
      <trkpt lat="47.94933" lon="-2.53485">
        <ele>70.8</ele>
        <time>2024-12-19T07:54:21Z</time>
      </trkpt>
      <trkpt lat="47.94933" lon="-2.53482">
        <ele>70.7</ele>
        <time>2024-12-19T07:54:22Z</time>
      </trkpt>
      <trkpt lat="47.94932" lon="-2.5348">
        <ele>70.5</ele>
        <time>2024-12-19T07:54:23Z</time>
      </trkpt>
      <trkpt lat="47.94932" lon="-2.53478">
        <ele>70.4</ele>
        <time>2024-12-19T07:54:24Z</time>
      </trkpt>
      <trkpt lat="47.94932" lon="-2.53477">
        <ele>70.3</ele>
        <time>2024-12-19T07:54:25Z</time>
      </trkpt>
      <trkpt lat="47.94932" lon="-2.53475">
        <ele>70.3</ele>
        <time>2024-12-19T07:54:26Z</time>
      </trkpt>
      <trkpt lat="47.94933" lon="-2.53474">
        <ele>70.2</ele>
        <time>2024-12-19T07:54:27Z</time>
      </trkpt>
      <trkpt lat="47.94932" lon="-2.53472">
        <ele>70.1</ele>
        <time>2024-12-19T07:54:28Z</time>
      </trkpt>
      <trkpt lat="47.94932" lon="-2.5347">
        <ele>70</ele>
        <time>2024-12-19T07:54:29Z</time>
      </trkpt>
      <trkpt lat="47.9493" lon="-2.53468">
        <ele>69.8</ele>
        <time>2024-12-19T07:54:30Z</time>
      </trkpt>
      <trkpt lat="47.94929" lon="-2.53465">
        <ele>69.7</ele>
        <time>2024-12-19T07:54:31Z</time>
      </trkpt>
      <trkpt lat="47.94928" lon="-2.53463">
        <ele>69.5</ele>
        <time>2024-12-19T07:54:32Z</time>
      </trkpt>
      <trkpt lat="47.94927" lon="-2.53461">
        <ele>69.4</ele>
        <time>2024-12-19T07:54:33Z</time>
      </trkpt>
      <trkpt lat="47.94927" lon="-2.53459">
        <ele>69.3</ele>
        <time>2024-12-19T07:54:34Z</time>
      </trkpt>
      <trkpt lat="47.94926" lon="-2.53458">
        <ele>69.2</ele>
        <time>2024-12-19T07:54:35Z</time>
      </trkpt>
      <trkpt lat="47.94926" lon="-2.53457">
        <ele>69.1</ele>
        <time>2024-12-19T07:54:36Z</time>
      </trkpt>
      <trkpt lat="47.94926" lon="-2.53457">
        <ele>69.1</ele>
        <time>2024-12-19T07:54:37Z</time>
      </trkpt>
      <trkpt lat="47.94925" lon="-2.53456">
        <ele>69</ele>
        <time>2024-12-19T07:54:38Z</time>
      </trkpt>
      <trkpt lat="47.94925" lon="-2.53456">
        <ele>69</ele>
        <time>2024-12-19T07:54:39Z</time>
      </trkpt>
      <trkpt lat="47.94925" lon="-2.53455">
        <ele>69</ele>
        <time>2024-12-19T07:54:40Z</time>
      </trkpt>
      <trkpt lat="47.94925" lon="-2.53455">
        <ele>69</ele>
        <time>2024-12-19T07:54:41Z</time>
      </trkpt>
      <trkpt lat="47.94925" lon="-2.53456">
        <ele>69</ele>
        <time>2024-12-19T07:54:42Z</time>
      </trkpt>
      <trkpt lat="47.94925" lon="-2.53456">
        <ele>69</ele>
        <time>2024-12-19T07:54:43Z</time>
      </trkpt>
      <trkpt lat="47.94925" lon="-2.53456">
        <ele>69.1</ele>
        <time>2024-12-19T07:54:44Z</time>
      </trkpt>
      <trkpt lat="47.94925" lon="-2.53456">
        <ele>69</ele>
        <time>2024-12-19T07:54:45Z</time>
      </trkpt>
      <trkpt lat="47.94925" lon="-2.53456">
        <ele>69</ele>
        <time>2024-12-19T07:54:46Z</time>
      </trkpt>
      <trkpt lat="47.94925" lon="-2.53456">
        <ele>69</ele>
        <time>2024-12-19T07:54:47Z</time>
      </trkpt>
      <trkpt lat="47.94924" lon="-2.53456">
        <ele>69</ele>
        <time>2024-12-19T07:54:48Z</time>
      </trkpt>
      <trkpt lat="47.94924" lon="-2.53455">
        <ele>68.9</ele>
        <time>2024-12-19T07:54:49Z</time>
      </trkpt>
      <trkpt lat="47.94924" lon="-2.53455">
        <ele>68.9</ele>
        <time>2024-12-19T07:54:50Z</time>
      </trkpt>
      <trkpt lat="47.94924" lon="-2.53455">
        <ele>68.9</ele>
        <time>2024-12-19T07:54:51Z</time>
      </trkpt>
      <trkpt lat="47.94924" lon="-2.53455">
        <ele>68.9</ele>
        <time>2024-12-19T07:54:52Z</time>
      </trkpt>
      <trkpt lat="47.94925" lon="-2.53456">
        <ele>69</ele>
        <time>2024-12-19T07:54:53Z</time>
      </trkpt>
      <trkpt lat="47.94925" lon="-2.53456">
        <ele>69</ele>
        <time>2024-12-19T07:54:54Z</time>
      </trkpt>
      <trkpt lat="47.94925" lon="-2.53458">
        <ele>69.1</ele>
        <time>2024-12-19T07:54:55Z</time>
      </trkpt>
      <trkpt lat="47.94925" lon="-2.53459">
        <ele>69.1</ele>
        <time>2024-12-19T07:54:56Z</time>
      </trkpt>
      <trkpt lat="47.94924" lon="-2.53459">
        <ele>69.1</ele>
        <time>2024-12-19T07:54:57Z</time>
      </trkpt>
      <trkpt lat="47.94924" lon="-2.5346">
        <ele>69.1</ele>
        <time>2024-12-19T07:54:58Z</time>
      </trkpt>
      <trkpt lat="47.94924" lon="-2.5346">
        <ele>69.1</ele>
        <time>2024-12-19T07:54:59Z</time>
      </trkpt>
      <trkpt lat="47.94924" lon="-2.5346">
        <ele>69.1</ele>
        <time>2024-12-19T07:55:00Z</time>
      </trkpt>
      <trkpt lat="47.94925" lon="-2.53461">
        <ele>69.2</ele>
        <time>2024-12-19T07:55:01Z</time>
      </trkpt>
      <trkpt lat="47.94925" lon="-2.53462">
        <ele>69.2</ele>
        <time>2024-12-19T07:55:02Z</time>
      </trkpt>
      <trkpt lat="47.94925" lon="-2.53462">
        <ele>69.2</ele>
        <time>2024-12-19T07:55:03Z</time>
      </trkpt>
      <trkpt lat="47.94925" lon="-2.53462">
        <ele>69.3</ele>
        <time>2024-12-19T07:55:04Z</time>
      </trkpt>
      <trkpt lat="47.94926" lon="-2.53463">
        <ele>69.3</ele>
        <time>2024-12-19T07:55:05Z</time>
      </trkpt>
      <trkpt lat="47.94926" lon="-2.53463">
        <ele>69.4</ele>
        <time>2024-12-19T07:55:06Z</time>
      </trkpt>
      <trkpt lat="47.94927" lon="-2.53463">
        <ele>69.4</ele>
        <time>2024-12-19T07:55:07Z</time>
      </trkpt>
      <trkpt lat="47.94927" lon="-2.53463">
        <ele>69.4</ele>
        <time>2024-12-19T07:55:08Z</time>
      </trkpt>
      <trkpt lat="47.94927" lon="-2.53463">
        <ele>69.4</ele>
        <time>2024-12-19T07:55:09Z</time>
      </trkpt>
      <trkpt lat="47.94927" lon="-2.53463">
        <ele>69.4</ele>
        <time>2024-12-19T07:55:10Z</time>
      </trkpt>
      <trkpt lat="47.94927" lon="-2.53463">
        <ele>69.4</ele>
        <time>2024-12-19T07:55:11Z</time>
      </trkpt>
      <trkpt lat="47.94927" lon="-2.53463">
        <ele>69.4</ele>
        <time>2024-12-19T07:55:12Z</time>
      </trkpt>
      <trkpt lat="47.94927" lon="-2.53463">
        <ele>69.4</ele>
        <time>2024-12-19T07:55:13Z</time>
      </trkpt>
      <trkpt lat="47.94927" lon="-2.53463">
        <ele>69.4</ele>
        <time>2024-12-19T07:55:14Z</time>
      </trkpt>
      <trkpt lat="47.94927" lon="-2.53463">
        <ele>69.4</ele>
        <time>2024-12-19T07:55:15Z</time>
      </trkpt>
      <trkpt lat="47.94927" lon="-2.53463">
        <ele>69.4</ele>
        <time>2024-12-19T07:55:16Z</time>
      </trkpt>
      <trkpt lat="47.94927" lon="-2.53463">
        <ele>69.4</ele>
        <time>2024-12-19T07:55:17Z</time>
      </trkpt>
      <trkpt lat="47.94927" lon="-2.53463">
        <ele>69.4</ele>
        <time>2024-12-19T07:55:18Z</time>
      </trkpt>
      <trkpt lat="47.94927" lon="-2.53463">
        <ele>69.4</ele>
        <time>2024-12-19T07:55:19Z</time>
      </trkpt>
      <trkpt lat="47.94927" lon="-2.53463">
        <ele>69.4</ele>
        <time>2024-12-19T07:55:20Z</time>
      </trkpt>
      <trkpt lat="47.94927" lon="-2.53463">
        <ele>69.4</ele>
        <time>2024-12-19T07:55:21Z</time>
      </trkpt>
      <trkpt lat="47.94927" lon="-2.53463">
        <ele>69.4</ele>
        <time>2024-12-19T07:55:22Z</time>
      </trkpt>
      <trkpt lat="47.94927" lon="-2.53463">
        <ele>69.4</ele>
        <time>2024-12-19T07:55:23Z</time>
      </trkpt>
      <trkpt lat="47.94927" lon="-2.53463">
        <ele>69.4</ele>
        <time>2024-12-19T07:55:24Z</time>
      </trkpt>
      <trkpt lat="47.94927" lon="-2.53463">
        <ele>69.4</ele>
        <time>2024-12-19T07:55:25Z</time>
      </trkpt>
      <trkpt lat="47.94927" lon="-2.53463">
        <ele>69.4</ele>
        <time>2024-12-19T07:55:26Z</time>
      </trkpt>
      <trkpt lat="47.94927" lon="-2.53463">
        <ele>69.4</ele>
        <time>2024-12-19T07:55:27Z</time>
      </trkpt>
      <trkpt lat="47.94927" lon="-2.53463">
        <ele>69.4</ele>
        <time>2024-12-19T07:55:28Z</time>
      </trkpt>
      <trkpt lat="47.94927" lon="-2.53463">
        <ele>69.4</ele>
        <time>2024-12-19T07:55:29Z</time>
      </trkpt>
      <trkpt lat="47.94927" lon="-2.53463">
        <ele>69.4</ele>
        <time>2024-12-19T07:55:30Z</time>
      </trkpt>
      <trkpt lat="47.94927" lon="-2.53463">
        <ele>69.4</ele>
        <time>2024-12-19T07:55:31Z</time>
      </trkpt>
      <trkpt lat="47.94927" lon="-2.53463">
        <ele>69.4</ele>
        <time>2024-12-19T07:55:32Z</time>
      </trkpt>
      <trkpt lat="47.94927" lon="-2.53463">
        <ele>69.4</ele>
        <time>2024-12-19T07:55:33Z</time>
      </trkpt>
      <trkpt lat="47.94927" lon="-2.53463">
        <ele>69.4</ele>
        <time>2024-12-19T07:55:34Z</time>
      </trkpt>
      <trkpt lat="47.94927" lon="-2.53463">
        <ele>69.4</ele>
        <time>2024-12-19T07:55:35Z</time>
      </trkpt>
      <trkpt lat="47.94927" lon="-2.53463">
        <ele>69.4</ele>
        <time>2024-12-19T07:55:36Z</time>
      </trkpt>
      <trkpt lat="47.94927" lon="-2.53463">
        <ele>69.4</ele>
        <time>2024-12-19T07:55:37Z</time>
      </trkpt>
      <trkpt lat="47.94927" lon="-2.53463">
        <ele>69.4</ele>
        <time>2024-12-19T07:55:38Z</time>
      </trkpt>
      <trkpt lat="47.94927" lon="-2.53463">
        <ele>69.4</ele>
        <time>2024-12-19T07:55:39Z</time>
      </trkpt>
      <trkpt lat="47.94927" lon="-2.53463">
        <ele>69.4</ele>
        <time>2024-12-19T07:55:40Z</time>
      </trkpt>
      <trkpt lat="47.94927" lon="-2.53463">
        <ele>69.4</ele>
        <time>2024-12-19T07:55:41Z</time>
      </trkpt>
      <trkpt lat="47.94927" lon="-2.53463">
        <ele>69.4</ele>
        <time>2024-12-19T07:55:42Z</time>
      </trkpt>
      <trkpt lat="47.94927" lon="-2.53463">
        <ele>69.4</ele>
        <time>2024-12-19T07:55:43Z</time>
      </trkpt>
      <trkpt lat="47.94927" lon="-2.53463">
        <ele>69.4</ele>
        <time>2024-12-19T07:55:44Z</time>
      </trkpt>
      <trkpt lat="47.94927" lon="-2.53463">
        <ele>69.4</ele>
        <time>2024-12-19T07:55:45Z</time>
      </trkpt>
      <trkpt lat="47.94927" lon="-2.53462">
        <ele>69.4</ele>
        <time>2024-12-19T07:55:46Z</time>
      </trkpt>
      <trkpt lat="47.94927" lon="-2.53462">
        <ele>69.4</ele>
        <time>2024-12-19T07:55:47Z</time>
      </trkpt>
      <trkpt lat="47.94927" lon="-2.53462">
        <ele>69.4</ele>
        <time>2024-12-19T07:55:48Z</time>
      </trkpt>
      <trkpt lat="47.94927" lon="-2.53462">
        <ele>69.4</ele>
        <time>2024-12-19T07:55:49Z</time>
      </trkpt>
      <trkpt lat="47.94927" lon="-2.53461">
        <ele>69.4</ele>
        <time>2024-12-19T07:55:50Z</time>
      </trkpt>
      <trkpt lat="47.94927" lon="-2.53461">
        <ele>69.4</ele>
        <time>2024-12-19T07:55:51Z</time>
      </trkpt>
      <trkpt lat="47.94927" lon="-2.53461">
        <ele>69.4</ele>
        <time>2024-12-19T07:55:52Z</time>
      </trkpt>
      <trkpt lat="47.94927" lon="-2.53462">
        <ele>69.3</ele>
        <time>2024-12-19T07:55:53Z</time>
      </trkpt>
      <trkpt lat="47.94927" lon="-2.53462">
        <ele>69.4</ele>
        <time>2024-12-19T07:55:54Z</time>
      </trkpt>
      <trkpt lat="47.94927" lon="-2.53462">
        <ele>69.3</ele>
        <time>2024-12-19T07:55:55Z</time>
      </trkpt>
      <trkpt lat="47.94927" lon="-2.53462">
        <ele>69.4</ele>
        <time>2024-12-19T07:55:56Z</time>
      </trkpt>
      <trkpt lat="47.94927" lon="-2.53462">
        <ele>69.4</ele>
        <time>2024-12-19T07:55:57Z</time>
      </trkpt>
      <trkpt lat="47.94927" lon="-2.53462">
        <ele>69.4</ele>
        <time>2024-12-19T07:55:58Z</time>
      </trkpt>
      <trkpt lat="47.94927" lon="-2.53462">
        <ele>69.3</ele>
        <time>2024-12-19T07:55:59Z</time>
      </trkpt>
      <trkpt lat="47.94927" lon="-2.53462">
        <ele>69.3</ele>
        <time>2024-12-19T07:56:00Z</time>
      </trkpt>
      <trkpt lat="47.94926" lon="-2.53462">
        <ele>69.3</ele>
        <time>2024-12-19T07:56:01Z</time>
      </trkpt>
      <trkpt lat="47.94926" lon="-2.53462">
        <ele>69.3</ele>
        <time>2024-12-19T07:56:02Z</time>
      </trkpt>
      <trkpt lat="47.94926" lon="-2.53462">
        <ele>69.3</ele>
        <time>2024-12-19T07:56:03Z</time>
      </trkpt>
      <trkpt lat="47.94926" lon="-2.53462">
        <ele>69.3</ele>
        <time>2024-12-19T07:56:04Z</time>
      </trkpt>
      <trkpt lat="47.94926" lon="-2.53462">
        <ele>69.3</ele>
        <time>2024-12-19T07:56:05Z</time>
      </trkpt>
      <trkpt lat="47.94926" lon="-2.53462">
        <ele>69.3</ele>
        <time>2024-12-19T07:56:06Z</time>
      </trkpt>
      <trkpt lat="47.94926" lon="-2.53462">
        <ele>69.3</ele>
        <time>2024-12-19T07:56:07Z</time>
      </trkpt>
      <trkpt lat="47.94926" lon="-2.53462">
        <ele>69.3</ele>
        <time>2024-12-19T07:56:08Z</time>
      </trkpt>
      <trkpt lat="47.94926" lon="-2.53462">
        <ele>69.3</ele>
        <time>2024-12-19T07:56:09Z</time>
      </trkpt>
      <trkpt lat="47.94926" lon="-2.53462">
        <ele>69.3</ele>
        <time>2024-12-19T07:56:10Z</time>
      </trkpt>
      <trkpt lat="47.94926" lon="-2.53462">
        <ele>69.3</ele>
        <time>2024-12-19T07:56:11Z</time>
      </trkpt>
      <trkpt lat="47.94926" lon="-2.53462">
        <ele>69.3</ele>
        <time>2024-12-19T07:56:12Z</time>
      </trkpt>
      <trkpt lat="47.94926" lon="-2.53462">
        <ele>69.3</ele>
        <time>2024-12-19T07:56:13Z</time>
      </trkpt>
      <trkpt lat="47.94926" lon="-2.53462">
        <ele>69.3</ele>
        <time>2024-12-19T07:56:14Z</time>
      </trkpt>
      <trkpt lat="47.94926" lon="-2.53462">
        <ele>69.3</ele>
        <time>2024-12-19T07:56:15Z</time>
      </trkpt>
      <trkpt lat="47.94926" lon="-2.53462">
        <ele>69.3</ele>
        <time>2024-12-19T07:56:16Z</time>
      </trkpt>
      <trkpt lat="47.94926" lon="-2.53462">
        <ele>69.3</ele>
        <time>2024-12-19T07:56:17Z</time>
      </trkpt>
      <trkpt lat="47.94926" lon="-2.53462">
        <ele>69.3</ele>
        <time>2024-12-19T07:56:18Z</time>
      </trkpt>
      <trkpt lat="47.94926" lon="-2.53462">
        <ele>69.3</ele>
        <time>2024-12-19T07:56:19Z</time>
      </trkpt>
      <trkpt lat="47.94926" lon="-2.53462">
        <ele>69.3</ele>
        <time>2024-12-19T07:56:20Z</time>
      </trkpt>
      <trkpt lat="47.94926" lon="-2.53462">
        <ele>69.3</ele>
        <time>2024-12-19T07:56:21Z</time>
      </trkpt>
      <trkpt lat="47.94926" lon="-2.53462">
        <ele>69.3</ele>
        <time>2024-12-19T07:56:22Z</time>
      </trkpt>
      <trkpt lat="47.94926" lon="-2.53462">
        <ele>69.3</ele>
        <time>2024-12-19T07:56:23Z</time>
      </trkpt>
      <trkpt lat="47.94926" lon="-2.53462">
        <ele>69.3</ele>
        <time>2024-12-19T07:56:24Z</time>
      </trkpt>
      <trkpt lat="47.94926" lon="-2.53462">
        <ele>69.3</ele>
        <time>2024-12-19T07:56:25Z</time>
      </trkpt>
      <trkpt lat="47.94926" lon="-2.53462">
        <ele>69.3</ele>
        <time>2024-12-19T07:56:26Z</time>
      </trkpt>
      <trkpt lat="47.94926" lon="-2.53462">
        <ele>69.3</ele>
        <time>2024-12-19T07:56:27Z</time>
      </trkpt>
      <trkpt lat="47.94926" lon="-2.53462">
        <ele>69.3</ele>
        <time>2024-12-19T07:56:28Z</time>
      </trkpt>
      <trkpt lat="47.94926" lon="-2.53462">
        <ele>69.3</ele>
        <time>2024-12-19T07:56:29Z</time>
      </trkpt>
      <trkpt lat="47.94926" lon="-2.53462">
        <ele>69.3</ele>
        <time>2024-12-19T07:56:30Z</time>
      </trkpt>
      <trkpt lat="47.94926" lon="-2.53462">
        <ele>69.3</ele>
        <time>2024-12-19T07:56:31Z</time>
      </trkpt>
      <trkpt lat="47.94926" lon="-2.53462">
        <ele>69.3</ele>
        <time>2024-12-19T07:56:32Z</time>
      </trkpt>
      <trkpt lat="47.94926" lon="-2.53462">
        <ele>69.3</ele>
        <time>2024-12-19T07:56:33Z</time>
      </trkpt>
      <trkpt lat="47.94926" lon="-2.53461">
        <ele>69.2</ele>
        <time>2024-12-19T07:56:34Z</time>
      </trkpt>
      <trkpt lat="47.94926" lon="-2.53461">
        <ele>69.2</ele>
        <time>2024-12-19T07:56:35Z</time>
      </trkpt>
      <trkpt lat="47.94926" lon="-2.53461">
        <ele>69.2</ele>
        <time>2024-12-19T07:56:36Z</time>
      </trkpt>
      <trkpt lat="47.94926" lon="-2.53461">
        <ele>69.2</ele>
        <time>2024-12-19T07:56:37Z</time>
      </trkpt>
      <trkpt lat="47.94926" lon="-2.53461">
        <ele>69.2</ele>
        <time>2024-12-19T07:56:38Z</time>
      </trkpt>
      <trkpt lat="47.94926" lon="-2.53461">
        <ele>69.2</ele>
        <time>2024-12-19T07:56:39Z</time>
      </trkpt>
      <trkpt lat="47.94926" lon="-2.53461">
        <ele>69.2</ele>
        <time>2024-12-19T07:56:40Z</time>
      </trkpt>
      <trkpt lat="47.94926" lon="-2.53461">
        <ele>69.2</ele>
        <time>2024-12-19T07:56:41Z</time>
      </trkpt>
      <trkpt lat="47.94926" lon="-2.53461">
        <ele>69.2</ele>
        <time>2024-12-19T07:56:42Z</time>
      </trkpt>
      <trkpt lat="47.94926" lon="-2.53461">
        <ele>69.2</ele>
        <time>2024-12-19T07:56:43Z</time>
      </trkpt>
      <trkpt lat="47.94925" lon="-2.53461">
        <ele>69.2</ele>
        <time>2024-12-19T07:56:44Z</time>
      </trkpt>
      <trkpt lat="47.94924" lon="-2.53461">
        <ele>69.1</ele>
        <time>2024-12-19T07:56:45Z</time>
      </trkpt>
      <trkpt lat="47.94924" lon="-2.5346">
        <ele>69.1</ele>
        <time>2024-12-19T07:56:46Z</time>
      </trkpt>
      <trkpt lat="47.94923" lon="-2.5346">
        <ele>69</ele>
        <time>2024-12-19T07:56:47Z</time>
      </trkpt>
      <trkpt lat="47.94923" lon="-2.5346">
        <ele>69</ele>
        <time>2024-12-19T07:56:48Z</time>
      </trkpt>
      <trkpt lat="47.94923" lon="-2.53459">
        <ele>69</ele>
        <time>2024-12-19T07:56:49Z</time>
      </trkpt>
      <trkpt lat="47.94922" lon="-2.53459">
        <ele>68.9</ele>
        <time>2024-12-19T07:56:50Z</time>
      </trkpt>
      <trkpt lat="47.94922" lon="-2.5346">
        <ele>69</ele>
        <time>2024-12-19T07:56:51Z</time>
      </trkpt>
      <trkpt lat="47.94922" lon="-2.5346">
        <ele>69</ele>
        <time>2024-12-19T07:56:52Z</time>
      </trkpt>
      <trkpt lat="47.94922" lon="-2.5346">
        <ele>68.9</ele>
        <time>2024-12-19T07:56:53Z</time>
      </trkpt>
      <trkpt lat="47.94922" lon="-2.5346">
        <ele>68.9</ele>
        <time>2024-12-19T07:56:54Z</time>
      </trkpt>
      <trkpt lat="47.94921" lon="-2.53461">
        <ele>68.9</ele>
        <time>2024-12-19T07:56:55Z</time>
      </trkpt>
      <trkpt lat="47.94921" lon="-2.53461">
        <ele>68.9</ele>
        <time>2024-12-19T07:56:56Z</time>
      </trkpt>
      <trkpt lat="47.94921" lon="-2.53461">
        <ele>68.9</ele>
        <time>2024-12-19T07:56:57Z</time>
      </trkpt>
      <trkpt lat="47.9492" lon="-2.53461">
        <ele>68.9</ele>
        <time>2024-12-19T07:56:58Z</time>
      </trkpt>
      <trkpt lat="47.9492" lon="-2.53461">
        <ele>68.9</ele>
        <time>2024-12-19T07:56:59Z</time>
      </trkpt>
      <trkpt lat="47.9492" lon="-2.53462">
        <ele>68.9</ele>
        <time>2024-12-19T07:57:00Z</time>
      </trkpt>
      <trkpt lat="47.9492" lon="-2.53462">
        <ele>68.9</ele>
        <time>2024-12-19T07:57:01Z</time>
      </trkpt>
      <trkpt lat="47.9492" lon="-2.53463">
        <ele>68.9</ele>
        <time>2024-12-19T07:57:02Z</time>
      </trkpt>
      <trkpt lat="47.9492" lon="-2.53463">
        <ele>68.9</ele>
        <time>2024-12-19T07:57:03Z</time>
      </trkpt>
      <trkpt lat="47.9492" lon="-2.53463">
        <ele>68.9</ele>
        <time>2024-12-19T07:57:04Z</time>
      </trkpt>
      <trkpt lat="47.94921" lon="-2.53463">
        <ele>69</ele>
        <time>2024-12-19T07:57:05Z</time>
      </trkpt>
      <trkpt lat="47.94921" lon="-2.53463">
        <ele>69</ele>
        <time>2024-12-19T07:57:06Z</time>
      </trkpt>
      <trkpt lat="47.9492" lon="-2.53464">
        <ele>69</ele>
        <time>2024-12-19T07:57:07Z</time>
      </trkpt>
      <trkpt lat="47.9492" lon="-2.53464">
        <ele>69</ele>
        <time>2024-12-19T07:57:08Z</time>
      </trkpt>
      <trkpt lat="47.9492" lon="-2.53464">
        <ele>69</ele>
        <time>2024-12-19T07:57:09Z</time>
      </trkpt>
      <trkpt lat="47.9492" lon="-2.53464">
        <ele>69</ele>
        <time>2024-12-19T07:57:10Z</time>
      </trkpt>
      <trkpt lat="47.9492" lon="-2.53463">
        <ele>69</ele>
        <time>2024-12-19T07:57:11Z</time>
      </trkpt>
      <trkpt lat="47.94921" lon="-2.53463">
        <ele>69</ele>
        <time>2024-12-19T07:57:12Z</time>
      </trkpt>
      <trkpt lat="47.94921" lon="-2.53463">
        <ele>68.9</ele>
        <time>2024-12-19T07:57:13Z</time>
      </trkpt>
      <trkpt lat="47.94921" lon="-2.53463">
        <ele>68.9</ele>
        <time>2024-12-19T07:57:14Z</time>
      </trkpt>
      <trkpt lat="47.94921" lon="-2.53463">
        <ele>68.9</ele>
        <time>2024-12-19T07:57:15Z</time>
      </trkpt>
      <trkpt lat="47.94921" lon="-2.53463">
        <ele>68.9</ele>
        <time>2024-12-19T07:57:16Z</time>
      </trkpt>
      <trkpt lat="47.94921" lon="-2.53463">
        <ele>68.9</ele>
        <time>2024-12-19T07:57:17Z</time>
      </trkpt>
      <trkpt lat="47.94921" lon="-2.53463">
        <ele>68.9</ele>
        <time>2024-12-19T07:57:18Z</time>
      </trkpt>
      <trkpt lat="47.94921" lon="-2.53463">
        <ele>68.9</ele>
        <time>2024-12-19T07:57:19Z</time>
      </trkpt>
      <trkpt lat="47.94921" lon="-2.53463">
        <ele>68.9</ele>
        <time>2024-12-19T07:57:20Z</time>
      </trkpt>
      <trkpt lat="47.94921" lon="-2.53463">
        <ele>68.9</ele>
        <time>2024-12-19T07:57:21Z</time>
      </trkpt>
      <trkpt lat="47.94921" lon="-2.53463">
        <ele>68.9</ele>
        <time>2024-12-19T07:57:22Z</time>
      </trkpt>
      <trkpt lat="47.94921" lon="-2.53463">
        <ele>68.9</ele>
        <time>2024-12-19T07:57:23Z</time>
      </trkpt>
      <trkpt lat="47.94921" lon="-2.53463">
        <ele>68.9</ele>
        <time>2024-12-19T07:57:24Z</time>
      </trkpt>
      <trkpt lat="47.94921" lon="-2.53463">
        <ele>68.9</ele>
        <time>2024-12-19T07:57:25Z</time>
      </trkpt>
      <trkpt lat="47.94921" lon="-2.53463">
        <ele>68.9</ele>
        <time>2024-12-19T07:57:26Z</time>
      </trkpt>
      <trkpt lat="47.94921" lon="-2.53463">
        <ele>68.9</ele>
        <time>2024-12-19T07:57:27Z</time>
      </trkpt>
      <trkpt lat="47.94921" lon="-2.53463">
        <ele>68.9</ele>
        <time>2024-12-19T07:57:28Z</time>
      </trkpt>
      <trkpt lat="47.94921" lon="-2.53463">
        <ele>68.9</ele>
        <time>2024-12-19T07:57:29Z</time>
      </trkpt>
      <trkpt lat="47.94921" lon="-2.53463">
        <ele>68.9</ele>
        <time>2024-12-19T07:57:30Z</time>
      </trkpt>
      <trkpt lat="47.94921" lon="-2.53463">
        <ele>68.9</ele>
        <time>2024-12-19T07:57:31Z</time>
      </trkpt>
      <trkpt lat="47.94921" lon="-2.53463">
        <ele>68.9</ele>
        <time>2024-12-19T07:57:32Z</time>
      </trkpt>
      <trkpt lat="47.94921" lon="-2.53463">
        <ele>68.9</ele>
        <time>2024-12-19T07:57:33Z</time>
      </trkpt>
      <trkpt lat="47.94921" lon="-2.53463">
        <ele>68.9</ele>
        <time>2024-12-19T07:57:34Z</time>
      </trkpt>
      <trkpt lat="47.94921" lon="-2.53463">
        <ele>68.9</ele>
        <time>2024-12-19T07:57:35Z</time>
      </trkpt>
      <trkpt lat="47.94921" lon="-2.53463">
        <ele>68.9</ele>
        <time>2024-12-19T07:57:36Z</time>
      </trkpt>
      <trkpt lat="47.94921" lon="-2.53463">
        <ele>68.9</ele>
        <time>2024-12-19T07:57:37Z</time>
      </trkpt>
      <trkpt lat="47.94921" lon="-2.53463">
        <ele>68.9</ele>
        <time>2024-12-19T07:57:38Z</time>
      </trkpt>
      <trkpt lat="47.94921" lon="-2.53463">
        <ele>68.9</ele>
        <time>2024-12-19T07:57:39Z</time>
      </trkpt>
      <trkpt lat="47.94921" lon="-2.53463">
        <ele>68.9</ele>
        <time>2024-12-19T07:57:40Z</time>
      </trkpt>
      <trkpt lat="47.94921" lon="-2.53463">
        <ele>68.9</ele>
        <time>2024-12-19T07:57:41Z</time>
      </trkpt>
      <trkpt lat="47.94921" lon="-2.53463">
        <ele>68.9</ele>
        <time>2024-12-19T07:57:42Z</time>
      </trkpt>
      <trkpt lat="47.94921" lon="-2.53463">
        <ele>68.9</ele>
        <time>2024-12-19T07:57:43Z</time>
      </trkpt>
      <trkpt lat="47.94921" lon="-2.53463">
        <ele>68.9</ele>
        <time>2024-12-19T07:57:44Z</time>
      </trkpt>
      <trkpt lat="47.94921" lon="-2.53463">
        <ele>68.9</ele>
        <time>2024-12-19T07:57:45Z</time>
      </trkpt>
      <trkpt lat="47.94921" lon="-2.53463">
        <ele>68.9</ele>
        <time>2024-12-19T07:57:46Z</time>
      </trkpt>
      <trkpt lat="47.94921" lon="-2.53463">
        <ele>68.9</ele>
        <time>2024-12-19T07:57:47Z</time>
      </trkpt>
      <trkpt lat="47.94921" lon="-2.53463">
        <ele>68.9</ele>
        <time>2024-12-19T07:57:48Z</time>
      </trkpt>
      <trkpt lat="47.94921" lon="-2.53463">
        <ele>68.9</ele>
        <time>2024-12-19T07:57:49Z</time>
      </trkpt>
      <trkpt lat="47.94921" lon="-2.53463">
        <ele>68.9</ele>
        <time>2024-12-19T07:57:50Z</time>
      </trkpt>
      <trkpt lat="47.94921" lon="-2.53462">
        <ele>68.9</ele>
        <time>2024-12-19T07:57:51Z</time>
      </trkpt>
      <trkpt lat="47.9492" lon="-2.53462">
        <ele>68.9</ele>
        <time>2024-12-19T07:57:52Z</time>
      </trkpt>
      <trkpt lat="47.9492" lon="-2.53461">
        <ele>68.8</ele>
        <time>2024-12-19T07:57:53Z</time>
      </trkpt>
      <trkpt lat="47.9492" lon="-2.53461">
        <ele>68.8</ele>
        <time>2024-12-19T07:57:54Z</time>
      </trkpt>
      <trkpt lat="47.9492" lon="-2.53461">
        <ele>68.8</ele>
        <time>2024-12-19T07:57:55Z</time>
      </trkpt>
      <trkpt lat="47.9492" lon="-2.53461">
        <ele>68.8</ele>
        <time>2024-12-19T07:57:56Z</time>
      </trkpt>
      <trkpt lat="47.9492" lon="-2.53461">
        <ele>68.9</ele>
        <time>2024-12-19T07:57:57Z</time>
      </trkpt>
      <trkpt lat="47.9492" lon="-2.53461">
        <ele>68.9</ele>
        <time>2024-12-19T07:57:58Z</time>
      </trkpt>
      <trkpt lat="47.94921" lon="-2.53461">
        <ele>68.9</ele>
        <time>2024-12-19T07:57:59Z</time>
      </trkpt>
      <trkpt lat="47.94921" lon="-2.5346">
        <ele>68.9</ele>
        <time>2024-12-19T07:58:00Z</time>
      </trkpt>
      <trkpt lat="47.94922" lon="-2.53459">
        <ele>68.9</ele>
        <time>2024-12-19T07:58:01Z</time>
      </trkpt>
      <trkpt lat="47.94922" lon="-2.53459">
        <ele>68.9</ele>
        <time>2024-12-19T07:58:02Z</time>
      </trkpt>
      <trkpt lat="47.94922" lon="-2.53457">
        <ele>68.8</ele>
        <time>2024-12-19T07:58:03Z</time>
      </trkpt>
      <trkpt lat="47.94922" lon="-2.53456">
        <ele>68.8</ele>
        <time>2024-12-19T07:58:04Z</time>
      </trkpt>
      <trkpt lat="47.94923" lon="-2.53454">
        <ele>68.8</ele>
        <time>2024-12-19T07:58:05Z</time>
      </trkpt>
      <trkpt lat="47.94923" lon="-2.53452">
        <ele>68.7</ele>
        <time>2024-12-19T07:58:06Z</time>
      </trkpt>
      <trkpt lat="47.94923" lon="-2.53451">
        <ele>68.7</ele>
        <time>2024-12-19T07:58:07Z</time>
      </trkpt>
      <trkpt lat="47.94922" lon="-2.5345">
        <ele>68.6</ele>
        <time>2024-12-19T07:58:08Z</time>
      </trkpt>
      <trkpt lat="47.94922" lon="-2.53448">
        <ele>68.5</ele>
        <time>2024-12-19T07:58:09Z</time>
      </trkpt>
      <trkpt lat="47.94922" lon="-2.53447">
        <ele>68.5</ele>
        <time>2024-12-19T07:58:10Z</time>
      </trkpt>
      <trkpt lat="47.94921" lon="-2.53447">
        <ele>68.4</ele>
        <time>2024-12-19T07:58:11Z</time>
      </trkpt>
      <trkpt lat="47.94921" lon="-2.53446">
        <ele>68.4</ele>
        <time>2024-12-19T07:58:12Z</time>
      </trkpt>
      <trkpt lat="47.94921" lon="-2.53444">
        <ele>68.3</ele>
        <time>2024-12-19T07:58:13Z</time>
      </trkpt>
      <trkpt lat="47.94921" lon="-2.53443">
        <ele>68.3</ele>
        <time>2024-12-19T07:58:14Z</time>
      </trkpt>
      <trkpt lat="47.94922" lon="-2.53441">
        <ele>68.4</ele>
        <time>2024-12-19T07:58:15Z</time>
      </trkpt>
      <trkpt lat="47.94922" lon="-2.53439">
        <ele>68.4</ele>
        <time>2024-12-19T07:58:16Z</time>
      </trkpt>
      <trkpt lat="47.94922" lon="-2.53437">
        <ele>68.4</ele>
        <time>2024-12-19T07:58:17Z</time>
      </trkpt>
      <trkpt lat="47.94921" lon="-2.53436">
        <ele>68.3</ele>
        <time>2024-12-19T07:58:18Z</time>
      </trkpt>
      <trkpt lat="47.94921" lon="-2.53435">
        <ele>68.3</ele>
        <time>2024-12-19T07:58:19Z</time>
      </trkpt>
      <trkpt lat="47.94921" lon="-2.53435">
        <ele>68.3</ele>
        <time>2024-12-19T07:58:20Z</time>
      </trkpt>
      <trkpt lat="47.94921" lon="-2.53435">
        <ele>68.3</ele>
        <time>2024-12-19T07:58:21Z</time>
      </trkpt>
      <trkpt lat="47.9492" lon="-2.53433">
        <ele>68.3</ele>
        <time>2024-12-19T07:58:22Z</time>
      </trkpt>
      <trkpt lat="47.9492" lon="-2.53432">
        <ele>68.2</ele>
        <time>2024-12-19T07:58:23Z</time>
      </trkpt>
      <trkpt lat="47.94919" lon="-2.5343">
        <ele>68.2</ele>
        <time>2024-12-19T07:58:24Z</time>
      </trkpt>
      <trkpt lat="47.94918" lon="-2.53428">
        <ele>68.1</ele>
        <time>2024-12-19T07:58:25Z</time>
      </trkpt>
      <trkpt lat="47.94917" lon="-2.53426">
        <ele>68</ele>
        <time>2024-12-19T07:58:26Z</time>
      </trkpt>
      <trkpt lat="47.94916" lon="-2.53424">
        <ele>68</ele>
        <time>2024-12-19T07:58:27Z</time>
      </trkpt>
      <trkpt lat="47.94916" lon="-2.53423">
        <ele>68</ele>
        <time>2024-12-19T07:58:28Z</time>
      </trkpt>
      <trkpt lat="47.94916" lon="-2.53421">
        <ele>68</ele>
        <time>2024-12-19T07:58:29Z</time>
      </trkpt>
      <trkpt lat="47.94915" lon="-2.53421">
        <ele>67.9</ele>
        <time>2024-12-19T07:58:30Z</time>
      </trkpt>
      <trkpt lat="47.94915" lon="-2.53421">
        <ele>67.9</ele>
        <time>2024-12-19T07:58:31Z</time>
      </trkpt>
      <trkpt lat="47.94915" lon="-2.53422">
        <ele>67.9</ele>
        <time>2024-12-19T07:58:32Z</time>
      </trkpt>
      <trkpt lat="47.94914" lon="-2.53422">
        <ele>67.9</ele>
        <time>2024-12-19T07:58:33Z</time>
      </trkpt>
      <trkpt lat="47.94914" lon="-2.53423">
        <ele>67.9</ele>
        <time>2024-12-19T07:58:34Z</time>
      </trkpt>
      <trkpt lat="47.94914" lon="-2.53423">
        <ele>67.9</ele>
        <time>2024-12-19T07:58:35Z</time>
      </trkpt>
      <trkpt lat="47.94913" lon="-2.53423">
        <ele>67.8</ele>
        <time>2024-12-19T07:58:36Z</time>
      </trkpt>
      <trkpt lat="47.94913" lon="-2.53423">
        <ele>67.8</ele>
        <time>2024-12-19T07:58:37Z</time>
      </trkpt>
      <trkpt lat="47.94913" lon="-2.53423">
        <ele>67.8</ele>
        <time>2024-12-19T07:58:38Z</time>
      </trkpt>
      <trkpt lat="47.94913" lon="-2.53423">
        <ele>67.8</ele>
        <time>2024-12-19T07:58:39Z</time>
      </trkpt>
      <trkpt lat="47.94912" lon="-2.53422">
        <ele>67.8</ele>
        <time>2024-12-19T07:58:40Z</time>
      </trkpt>
      <trkpt lat="47.94912" lon="-2.53421">
        <ele>67.8</ele>
        <time>2024-12-19T07:58:41Z</time>
      </trkpt>
      <trkpt lat="47.94912" lon="-2.53422">
        <ele>67.8</ele>
        <time>2024-12-19T07:58:42Z</time>
      </trkpt>
      <trkpt lat="47.94911" lon="-2.53422">
        <ele>67.8</ele>
        <time>2024-12-19T07:58:43Z</time>
      </trkpt>
      <trkpt lat="47.94911" lon="-2.53422">
        <ele>67.7</ele>
        <time>2024-12-19T07:58:44Z</time>
      </trkpt>
      <trkpt lat="47.9491" lon="-2.53422">
        <ele>67.7</ele>
        <time>2024-12-19T07:58:45Z</time>
      </trkpt>
      <trkpt lat="47.94909" lon="-2.53422">
        <ele>67.7</ele>
        <time>2024-12-19T07:58:46Z</time>
      </trkpt>
      <trkpt lat="47.94908" lon="-2.53423">
        <ele>67.6</ele>
        <time>2024-12-19T07:58:47Z</time>
      </trkpt>
      <trkpt lat="47.94907" lon="-2.53423">
        <ele>67.6</ele>
        <time>2024-12-19T07:58:48Z</time>
      </trkpt>
      <trkpt lat="47.94906" lon="-2.53423">
        <ele>67.5</ele>
        <time>2024-12-19T07:58:49Z</time>
      </trkpt>
      <trkpt lat="47.94906" lon="-2.53423">
        <ele>67.5</ele>
        <time>2024-12-19T07:58:50Z</time>
      </trkpt>
      <trkpt lat="47.94905" lon="-2.53422">
        <ele>67.5</ele>
        <time>2024-12-19T07:58:51Z</time>
      </trkpt>
      <trkpt lat="47.94904" lon="-2.53421">
        <ele>67.5</ele>
        <time>2024-12-19T07:58:52Z</time>
      </trkpt>
      <trkpt lat="47.94903" lon="-2.5342">
        <ele>67.5</ele>
        <time>2024-12-19T07:58:53Z</time>
      </trkpt>
      <trkpt lat="47.94903" lon="-2.5342">
        <ele>67.4</ele>
        <time>2024-12-19T07:58:54Z</time>
      </trkpt>
      <trkpt lat="47.94902" lon="-2.53421">
        <ele>67.4</ele>
        <time>2024-12-19T07:58:55Z</time>
      </trkpt>
      <trkpt lat="47.949" lon="-2.53422">
        <ele>67.3</ele>
        <time>2024-12-19T07:58:56Z</time>
      </trkpt>
      <trkpt lat="47.94899" lon="-2.53422">
        <ele>67.2</ele>
        <time>2024-12-19T07:58:57Z</time>
      </trkpt>
      <trkpt lat="47.94898" lon="-2.53422">
        <ele>67.2</ele>
        <time>2024-12-19T07:58:58Z</time>
      </trkpt>
      <trkpt lat="47.94897" lon="-2.53422">
        <ele>67.2</ele>
        <time>2024-12-19T07:58:59Z</time>
      </trkpt>
      <trkpt lat="47.94896" lon="-2.53421">
        <ele>67.1</ele>
        <time>2024-12-19T07:59:00Z</time>
      </trkpt>
      <trkpt lat="47.94895" lon="-2.5342">
        <ele>67.1</ele>
        <time>2024-12-19T07:59:01Z</time>
      </trkpt>
      <trkpt lat="47.94895" lon="-2.53419">
        <ele>67.1</ele>
        <time>2024-12-19T07:59:02Z</time>
      </trkpt>
      <trkpt lat="47.94894" lon="-2.53418">
        <ele>67.1</ele>
        <time>2024-12-19T07:59:03Z</time>
      </trkpt>
      <trkpt lat="47.94893" lon="-2.53418">
        <ele>67.1</ele>
        <time>2024-12-19T07:59:04Z</time>
      </trkpt>
      <trkpt lat="47.94892" lon="-2.53417">
        <ele>67.1</ele>
        <time>2024-12-19T07:59:05Z</time>
      </trkpt>
      <trkpt lat="47.9489" lon="-2.53417">
        <ele>67</ele>
        <time>2024-12-19T07:59:06Z</time>
      </trkpt>
      <trkpt lat="47.94888" lon="-2.53417">
        <ele>66.9</ele>
        <time>2024-12-19T07:59:07Z</time>
      </trkpt>
      <trkpt lat="47.94887" lon="-2.53417">
        <ele>66.8</ele>
        <time>2024-12-19T07:59:08Z</time>
      </trkpt>
      <trkpt lat="47.94886" lon="-2.53416">
        <ele>66.8</ele>
        <time>2024-12-19T07:59:09Z</time>
      </trkpt>
      <trkpt lat="47.94884" lon="-2.53415">
        <ele>66.7</ele>
        <time>2024-12-19T07:59:10Z</time>
      </trkpt>
      <trkpt lat="47.94883" lon="-2.53414">
        <ele>66.6</ele>
        <time>2024-12-19T07:59:11Z</time>
      </trkpt>
      <trkpt lat="47.94882" lon="-2.53413">
        <ele>66.5</ele>
        <time>2024-12-19T07:59:12Z</time>
      </trkpt>
      <trkpt lat="47.94881" lon="-2.53413">
        <ele>66.4</ele>
        <time>2024-12-19T07:59:13Z</time>
      </trkpt>
      <trkpt lat="47.94879" lon="-2.53412">
        <ele>66.3</ele>
        <time>2024-12-19T07:59:14Z</time>
      </trkpt>
      <trkpt lat="47.94878" lon="-2.53412">
        <ele>66.2</ele>
        <time>2024-12-19T07:59:15Z</time>
      </trkpt>
      <trkpt lat="47.94876" lon="-2.53412">
        <ele>66.1</ele>
        <time>2024-12-19T07:59:16Z</time>
      </trkpt>
      <trkpt lat="47.94874" lon="-2.53411">
        <ele>65.9</ele>
        <time>2024-12-19T07:59:17Z</time>
      </trkpt>
      <trkpt lat="47.94872" lon="-2.53412">
        <ele>65.8</ele>
        <time>2024-12-19T07:59:18Z</time>
      </trkpt>
      <trkpt lat="47.9487" lon="-2.53412">
        <ele>65.6</ele>
        <time>2024-12-19T07:59:19Z</time>
      </trkpt>
      <trkpt lat="47.94869" lon="-2.53412">
        <ele>65.5</ele>
        <time>2024-12-19T07:59:20Z</time>
      </trkpt>
      <trkpt lat="47.94867" lon="-2.53413">
        <ele>65.4</ele>
        <time>2024-12-19T07:59:21Z</time>
      </trkpt>
      <trkpt lat="47.94866" lon="-2.53413">
        <ele>65.3</ele>
        <time>2024-12-19T07:59:22Z</time>
      </trkpt>
      <trkpt lat="47.94865" lon="-2.53413">
        <ele>65.3</ele>
        <time>2024-12-19T07:59:23Z</time>
      </trkpt>
      <trkpt lat="47.94864" lon="-2.53413">
        <ele>65.2</ele>
        <time>2024-12-19T07:59:24Z</time>
      </trkpt>
      <trkpt lat="47.94864" lon="-2.53413">
        <ele>65.2</ele>
        <time>2024-12-19T07:59:25Z</time>
      </trkpt>
      <trkpt lat="47.94863" lon="-2.53413">
        <ele>65.1</ele>
        <time>2024-12-19T07:59:26Z</time>
      </trkpt>
      <trkpt lat="47.94862" lon="-2.53413">
        <ele>65.1</ele>
        <time>2024-12-19T07:59:27Z</time>
      </trkpt>
      <trkpt lat="47.94862" lon="-2.53413">
        <ele>65</ele>
        <time>2024-12-19T07:59:28Z</time>
      </trkpt>
      <trkpt lat="47.94861" lon="-2.53413">
        <ele>65</ele>
        <time>2024-12-19T07:59:29Z</time>
      </trkpt>
      <trkpt lat="47.94861" lon="-2.53413">
        <ele>65</ele>
        <time>2024-12-19T07:59:30Z</time>
      </trkpt>
      <trkpt lat="47.9486" lon="-2.53413">
        <ele>64.9</ele>
        <time>2024-12-19T07:59:31Z</time>
      </trkpt>
      <trkpt lat="47.9486" lon="-2.53413">
        <ele>64.9</ele>
        <time>2024-12-19T07:59:32Z</time>
      </trkpt>
      <trkpt lat="47.94859" lon="-2.53413">
        <ele>64.8</ele>
        <time>2024-12-19T07:59:33Z</time>
      </trkpt>
      <trkpt lat="47.94856" lon="-2.53413">
        <ele>64.7</ele>
        <time>2024-12-19T07:59:34Z</time>
      </trkpt>
      <trkpt lat="47.94854" lon="-2.53414">
        <ele>64.5</ele>
        <time>2024-12-19T07:59:35Z</time>
      </trkpt>
      <trkpt lat="47.94852" lon="-2.53414">
        <ele>64.4</ele>
        <time>2024-12-19T07:59:36Z</time>
      </trkpt>
      <trkpt lat="47.9485" lon="-2.53414">
        <ele>64.3</ele>
        <time>2024-12-19T07:59:37Z</time>
      </trkpt>
      <trkpt lat="47.94848" lon="-2.53414">
        <ele>64.2</ele>
        <time>2024-12-19T07:59:38Z</time>
      </trkpt>
      <trkpt lat="47.94847" lon="-2.53414">
        <ele>64.1</ele>
        <time>2024-12-19T07:59:39Z</time>
      </trkpt>
      <trkpt lat="47.94846" lon="-2.53414">
        <ele>64</ele>
        <time>2024-12-19T07:59:40Z</time>
      </trkpt>
      <trkpt lat="47.94844" lon="-2.53414">
        <ele>63.9</ele>
        <time>2024-12-19T07:59:41Z</time>
      </trkpt>
      <trkpt lat="47.94843" lon="-2.53415">
        <ele>63.8</ele>
        <time>2024-12-19T07:59:42Z</time>
      </trkpt>
      <trkpt lat="47.94842" lon="-2.53415">
        <ele>63.7</ele>
        <time>2024-12-19T07:59:43Z</time>
      </trkpt>
      <trkpt lat="47.9484" lon="-2.53415">
        <ele>63.6</ele>
        <time>2024-12-19T07:59:44Z</time>
      </trkpt>
      <trkpt lat="47.94838" lon="-2.53415">
        <ele>63.4</ele>
        <time>2024-12-19T07:59:45Z</time>
      </trkpt>
      <trkpt lat="47.94837" lon="-2.53415">
        <ele>63.3</ele>
        <time>2024-12-19T07:59:46Z</time>
      </trkpt>
      <trkpt lat="47.94836" lon="-2.53416">
        <ele>63.2</ele>
        <time>2024-12-19T07:59:47Z</time>
      </trkpt>
      <trkpt lat="47.94835" lon="-2.53416">
        <ele>63.1</ele>
        <time>2024-12-19T07:59:48Z</time>
      </trkpt>
      <trkpt lat="47.94834" lon="-2.53416">
        <ele>63</ele>
        <time>2024-12-19T07:59:49Z</time>
      </trkpt>
      <trkpt lat="47.94833" lon="-2.53416">
        <ele>63.1</ele>
        <time>2024-12-19T07:59:50Z</time>
      </trkpt>
      <trkpt lat="47.94832" lon="-2.53416">
        <ele>63.1</ele>
        <time>2024-12-19T07:59:51Z</time>
      </trkpt>
      <trkpt lat="47.94831" lon="-2.53416">
        <ele>63.1</ele>
        <time>2024-12-19T07:59:52Z</time>
      </trkpt>
      <trkpt lat="47.9483" lon="-2.53416">
        <ele>63.2</ele>
        <time>2024-12-19T07:59:53Z</time>
      </trkpt>
      <trkpt lat="47.9483" lon="-2.53415">
        <ele>63.3</ele>
        <time>2024-12-19T07:59:54Z</time>
      </trkpt>
      <trkpt lat="47.94829" lon="-2.53414">
        <ele>63.4</ele>
        <time>2024-12-19T07:59:55Z</time>
      </trkpt>
      <trkpt lat="47.94828" lon="-2.53413">
        <ele>63.5</ele>
        <time>2024-12-19T07:59:56Z</time>
      </trkpt>
      <trkpt lat="47.94827" lon="-2.53413">
        <ele>63.5</ele>
        <time>2024-12-19T07:59:57Z</time>
      </trkpt>
      <trkpt lat="47.94826" lon="-2.53412">
        <ele>63.6</ele>
        <time>2024-12-19T07:59:58Z</time>
      </trkpt>
      <trkpt lat="47.94825" lon="-2.53411">
        <ele>63.7</ele>
        <time>2024-12-19T07:59:59Z</time>
      </trkpt>
      <trkpt lat="47.94824" lon="-2.53411">
        <ele>63.8</ele>
        <time>2024-12-19T08:00:00Z</time>
      </trkpt>
      <trkpt lat="47.94823" lon="-2.53411">
        <ele>63.8</ele>
        <time>2024-12-19T08:00:01Z</time>
      </trkpt>
      <trkpt lat="47.94822" lon="-2.53411">
        <ele>63.8</ele>
        <time>2024-12-19T08:00:02Z</time>
      </trkpt>
      <trkpt lat="47.94821" lon="-2.53411">
        <ele>63.8</ele>
        <time>2024-12-19T08:00:03Z</time>
      </trkpt>
      <trkpt lat="47.9482" lon="-2.53412">
        <ele>63.8</ele>
        <time>2024-12-19T08:00:04Z</time>
      </trkpt>
      <trkpt lat="47.94819" lon="-2.53412">
        <ele>63.8</ele>
        <time>2024-12-19T08:00:05Z</time>
      </trkpt>
      <trkpt lat="47.94818" lon="-2.53412">
        <ele>63.9</ele>
        <time>2024-12-19T08:00:06Z</time>
      </trkpt>
      <trkpt lat="47.94817" lon="-2.53413">
        <ele>63.9</ele>
        <time>2024-12-19T08:00:07Z</time>
      </trkpt>
      <trkpt lat="47.94815" lon="-2.53413">
        <ele>63.9</ele>
        <time>2024-12-19T08:00:08Z</time>
      </trkpt>
      <trkpt lat="47.94814" lon="-2.53413">
        <ele>64</ele>
        <time>2024-12-19T08:00:09Z</time>
      </trkpt>
      <trkpt lat="47.94814" lon="-2.53412">
        <ele>64</ele>
        <time>2024-12-19T08:00:10Z</time>
      </trkpt>
      <trkpt lat="47.94813" lon="-2.53412">
        <ele>64.1</ele>
        <time>2024-12-19T08:00:11Z</time>
      </trkpt>
      <trkpt lat="47.94811" lon="-2.53411">
        <ele>64.2</ele>
        <time>2024-12-19T08:00:12Z</time>
      </trkpt>
      <trkpt lat="47.9481" lon="-2.5341">
        <ele>64.3</ele>
        <time>2024-12-19T08:00:13Z</time>
      </trkpt>
      <trkpt lat="47.94809" lon="-2.5341">
        <ele>64.4</ele>
        <time>2024-12-19T08:00:14Z</time>
      </trkpt>
      <trkpt lat="47.94807" lon="-2.53409">
        <ele>64.5</ele>
        <time>2024-12-19T08:00:15Z</time>
      </trkpt>
      <trkpt lat="47.94807" lon="-2.53409">
        <ele>64.5</ele>
        <time>2024-12-19T08:00:16Z</time>
      </trkpt>
      <trkpt lat="47.94806" lon="-2.53408">
        <ele>64.6</ele>
        <time>2024-12-19T08:00:17Z</time>
      </trkpt>
      <trkpt lat="47.94805" lon="-2.53407">
        <ele>64.7</ele>
        <time>2024-12-19T08:00:18Z</time>
      </trkpt>
      <trkpt lat="47.94803" lon="-2.53405">
        <ele>64.8</ele>
        <time>2024-12-19T08:00:19Z</time>
      </trkpt>
      <trkpt lat="47.94802" lon="-2.53405">
        <ele>64.8</ele>
        <time>2024-12-19T08:00:20Z</time>
      </trkpt>
      <trkpt lat="47.94801" lon="-2.53405">
        <ele>64.8</ele>
        <time>2024-12-19T08:00:21Z</time>
      </trkpt>
      <trkpt lat="47.94799" lon="-2.53404">
        <ele>64.8</ele>
        <time>2024-12-19T08:00:22Z</time>
      </trkpt>
      <trkpt lat="47.94798" lon="-2.53405">
        <ele>64.7</ele>
        <time>2024-12-19T08:00:23Z</time>
      </trkpt>
      <trkpt lat="47.94796" lon="-2.53405">
        <ele>64.7</ele>
        <time>2024-12-19T08:00:24Z</time>
      </trkpt>
      <trkpt lat="47.94795" lon="-2.53405">
        <ele>64.6</ele>
        <time>2024-12-19T08:00:25Z</time>
      </trkpt>
      <trkpt lat="47.94793" lon="-2.53405">
        <ele>64.6</ele>
        <time>2024-12-19T08:00:26Z</time>
      </trkpt>
      <trkpt lat="47.94791" lon="-2.53404">
        <ele>64.6</ele>
        <time>2024-12-19T08:00:27Z</time>
      </trkpt>
      <trkpt lat="47.94789" lon="-2.53404">
        <ele>64.6</ele>
        <time>2024-12-19T08:00:28Z</time>
      </trkpt>
      <trkpt lat="47.94787" lon="-2.53405">
        <ele>64.5</ele>
        <time>2024-12-19T08:00:29Z</time>
      </trkpt>
      <trkpt lat="47.94786" lon="-2.53405">
        <ele>64.4</ele>
        <time>2024-12-19T08:00:30Z</time>
      </trkpt>
      <trkpt lat="47.94784" lon="-2.53406">
        <ele>64.3</ele>
        <time>2024-12-19T08:00:31Z</time>
      </trkpt>
      <trkpt lat="47.94782" lon="-2.53406">
        <ele>64.3</ele>
        <time>2024-12-19T08:00:32Z</time>
      </trkpt>
      <trkpt lat="47.94781" lon="-2.53406">
        <ele>64.3</ele>
        <time>2024-12-19T08:00:33Z</time>
      </trkpt>
      <trkpt lat="47.94779" lon="-2.53406">
        <ele>64.2</ele>
        <time>2024-12-19T08:00:34Z</time>
      </trkpt>
      <trkpt lat="47.94777" lon="-2.53406">
        <ele>64.2</ele>
        <time>2024-12-19T08:00:35Z</time>
      </trkpt>
      <trkpt lat="47.94776" lon="-2.53406">
        <ele>64.2</ele>
        <time>2024-12-19T08:00:36Z</time>
      </trkpt>
      <trkpt lat="47.94774" lon="-2.53405">
        <ele>64.3</ele>
        <time>2024-12-19T08:00:37Z</time>
      </trkpt>
      <trkpt lat="47.94774" lon="-2.53404">
        <ele>64.3</ele>
        <time>2024-12-19T08:00:38Z</time>
      </trkpt>
      <trkpt lat="47.94773" lon="-2.53404">
        <ele>64.4</ele>
        <time>2024-12-19T08:00:39Z</time>
      </trkpt>
      <trkpt lat="47.94773" lon="-2.53403">
        <ele>64.5</ele>
        <time>2024-12-19T08:00:40Z</time>
      </trkpt>
      <trkpt lat="47.94772" lon="-2.53403">
        <ele>64.5</ele>
        <time>2024-12-19T08:00:41Z</time>
      </trkpt>
      <trkpt lat="47.94771" lon="-2.53402">
        <ele>64.6</ele>
        <time>2024-12-19T08:00:42Z</time>
      </trkpt>
      <trkpt lat="47.94769" lon="-2.53402">
        <ele>64.6</ele>
        <time>2024-12-19T08:00:43Z</time>
      </trkpt>
      <trkpt lat="47.94768" lon="-2.53401">
        <ele>64.7</ele>
        <time>2024-12-19T08:00:44Z</time>
      </trkpt>
      <trkpt lat="47.94767" lon="-2.534">
        <ele>64.8</ele>
        <time>2024-12-19T08:00:45Z</time>
      </trkpt>
      <trkpt lat="47.94766" lon="-2.534">
        <ele>64.8</ele>
        <time>2024-12-19T08:00:46Z</time>
      </trkpt>
      <trkpt lat="47.94766" lon="-2.534">
        <ele>64.8</ele>
        <time>2024-12-19T08:00:47Z</time>
      </trkpt>
      <trkpt lat="47.94764" lon="-2.53401">
        <ele>64.7</ele>
        <time>2024-12-19T08:00:48Z</time>
      </trkpt>
      <trkpt lat="47.94763" lon="-2.53401">
        <ele>64.7</ele>
        <time>2024-12-19T08:00:49Z</time>
      </trkpt>
      <trkpt lat="47.94762" lon="-2.53402">
        <ele>64.6</ele>
        <time>2024-12-19T08:00:50Z</time>
      </trkpt>
      <trkpt lat="47.94762" lon="-2.53401">
        <ele>64.6</ele>
        <time>2024-12-19T08:00:51Z</time>
      </trkpt>
      <trkpt lat="47.94761" lon="-2.53402">
        <ele>64.6</ele>
        <time>2024-12-19T08:00:52Z</time>
      </trkpt>
      <trkpt lat="47.94761" lon="-2.53402">
        <ele>64.6</ele>
        <time>2024-12-19T08:00:53Z</time>
      </trkpt>
      <trkpt lat="47.9476" lon="-2.53401">
        <ele>64.6</ele>
        <time>2024-12-19T08:00:54Z</time>
      </trkpt>
      <trkpt lat="47.9476" lon="-2.53401">
        <ele>64.7</ele>
        <time>2024-12-19T08:00:55Z</time>
      </trkpt>
      <trkpt lat="47.9476" lon="-2.53401">
        <ele>64.7</ele>
        <time>2024-12-19T08:00:56Z</time>
      </trkpt>
      <trkpt lat="47.9476" lon="-2.53401">
        <ele>64.7</ele>
        <time>2024-12-19T08:00:57Z</time>
      </trkpt>
      <trkpt lat="47.94759" lon="-2.534">
        <ele>64.8</ele>
        <time>2024-12-19T08:00:58Z</time>
      </trkpt>
      <trkpt lat="47.94757" lon="-2.534">
        <ele>64.8</ele>
        <time>2024-12-19T08:00:59Z</time>
      </trkpt>
      <trkpt lat="47.94756" lon="-2.534">
        <ele>64.8</ele>
        <time>2024-12-19T08:01:00Z</time>
      </trkpt>
      <trkpt lat="47.94755" lon="-2.534">
        <ele>64.8</ele>
        <time>2024-12-19T08:01:01Z</time>
      </trkpt>
      <trkpt lat="47.94754" lon="-2.53399">
        <ele>64.9</ele>
        <time>2024-12-19T08:01:02Z</time>
      </trkpt>
      <trkpt lat="47.94752" lon="-2.53398">
        <ele>65</ele>
        <time>2024-12-19T08:01:03Z</time>
      </trkpt>
      <trkpt lat="47.94752" lon="-2.53397">
        <ele>65.1</ele>
        <time>2024-12-19T08:01:04Z</time>
      </trkpt>
      <trkpt lat="47.94751" lon="-2.53396">
        <ele>65.2</ele>
        <time>2024-12-19T08:01:05Z</time>
      </trkpt>
      <trkpt lat="47.9475" lon="-2.53395">
        <ele>65.3</ele>
        <time>2024-12-19T08:01:06Z</time>
      </trkpt>
      <trkpt lat="47.94749" lon="-2.53394">
        <ele>65.4</ele>
        <time>2024-12-19T08:01:07Z</time>
      </trkpt>
      <trkpt lat="47.94749" lon="-2.53393">
        <ele>65.6</ele>
        <time>2024-12-19T08:01:08Z</time>
      </trkpt>
      <trkpt lat="47.94748" lon="-2.53392">
        <ele>65.8</ele>
        <time>2024-12-19T08:01:09Z</time>
      </trkpt>
      <trkpt lat="47.94747" lon="-2.53391">
        <ele>65.9</ele>
        <time>2024-12-19T08:01:10Z</time>
      </trkpt>
      <trkpt lat="47.94746" lon="-2.5339">
        <ele>66.1</ele>
        <time>2024-12-19T08:01:11Z</time>
      </trkpt>
      <trkpt lat="47.94745" lon="-2.53388">
        <ele>66.2</ele>
        <time>2024-12-19T08:01:12Z</time>
      </trkpt>
      <trkpt lat="47.94743" lon="-2.53388">
        <ele>66.4</ele>
        <time>2024-12-19T08:01:13Z</time>
      </trkpt>
      <trkpt lat="47.94741" lon="-2.53387">
        <ele>66.5</ele>
        <time>2024-12-19T08:01:14Z</time>
      </trkpt>
      <trkpt lat="47.94741" lon="-2.53387">
        <ele>66.6</ele>
        <time>2024-12-19T08:01:15Z</time>
      </trkpt>
      <trkpt lat="47.9474" lon="-2.53386">
        <ele>66.7</ele>
        <time>2024-12-19T08:01:16Z</time>
      </trkpt>
      <trkpt lat="47.94739" lon="-2.53386">
        <ele>66.7</ele>
        <time>2024-12-19T08:01:17Z</time>
      </trkpt>
      <trkpt lat="47.94738" lon="-2.53386">
        <ele>66.8</ele>
        <time>2024-12-19T08:01:18Z</time>
      </trkpt>
      <trkpt lat="47.94737" lon="-2.53385">
        <ele>66.8</ele>
        <time>2024-12-19T08:01:19Z</time>
      </trkpt>
      <trkpt lat="47.94737" lon="-2.53385">
        <ele>66.9</ele>
        <time>2024-12-19T08:01:20Z</time>
      </trkpt>
      <trkpt lat="47.94736" lon="-2.53385">
        <ele>67</ele>
        <time>2024-12-19T08:01:21Z</time>
      </trkpt>
      <trkpt lat="47.94735" lon="-2.53384">
        <ele>67</ele>
        <time>2024-12-19T08:01:22Z</time>
      </trkpt>
      <trkpt lat="47.94734" lon="-2.53383">
        <ele>67.1</ele>
        <time>2024-12-19T08:01:23Z</time>
      </trkpt>
      <trkpt lat="47.94733" lon="-2.53383">
        <ele>67.2</ele>
        <time>2024-12-19T08:01:24Z</time>
      </trkpt>
      <trkpt lat="47.94733" lon="-2.53382">
        <ele>67.3</ele>
        <time>2024-12-19T08:01:25Z</time>
      </trkpt>
      <trkpt lat="47.94732" lon="-2.53381">
        <ele>67.4</ele>
        <time>2024-12-19T08:01:26Z</time>
      </trkpt>
      <trkpt lat="47.94731" lon="-2.53381">
        <ele>67.5</ele>
        <time>2024-12-19T08:01:27Z</time>
      </trkpt>
      <trkpt lat="47.9473" lon="-2.5338">
        <ele>67.5</ele>
        <time>2024-12-19T08:01:28Z</time>
      </trkpt>
      <trkpt lat="47.94728" lon="-2.53379">
        <ele>67.6</ele>
        <time>2024-12-19T08:01:29Z</time>
      </trkpt>
      <trkpt lat="47.94727" lon="-2.53378">
        <ele>67.7</ele>
        <time>2024-12-19T08:01:30Z</time>
      </trkpt>
      <trkpt lat="47.94726" lon="-2.53377">
        <ele>67.9</ele>
        <time>2024-12-19T08:01:31Z</time>
      </trkpt>
      <trkpt lat="47.94725" lon="-2.53375">
        <ele>68</ele>
        <time>2024-12-19T08:01:32Z</time>
      </trkpt>
      <trkpt lat="47.94724" lon="-2.53374">
        <ele>68.1</ele>
        <time>2024-12-19T08:01:33Z</time>
      </trkpt>
      <trkpt lat="47.94723" lon="-2.53374">
        <ele>68.1</ele>
        <time>2024-12-19T08:01:34Z</time>
      </trkpt>
      <trkpt lat="47.94722" lon="-2.53373">
        <ele>68.1</ele>
        <time>2024-12-19T08:01:35Z</time>
      </trkpt>
      <trkpt lat="47.94722" lon="-2.53372">
        <ele>68.2</ele>
        <time>2024-12-19T08:01:36Z</time>
      </trkpt>
      <trkpt lat="47.94721" lon="-2.5337">
        <ele>68.3</ele>
        <time>2024-12-19T08:01:37Z</time>
      </trkpt>
      <trkpt lat="47.94721" lon="-2.53369">
        <ele>68.3</ele>
        <time>2024-12-19T08:01:38Z</time>
      </trkpt>
      <trkpt lat="47.94721" lon="-2.53368">
        <ele>68.4</ele>
        <time>2024-12-19T08:01:39Z</time>
      </trkpt>
      <trkpt lat="47.9472" lon="-2.53366">
        <ele>68.5</ele>
        <time>2024-12-19T08:01:40Z</time>
      </trkpt>
      <trkpt lat="47.94719" lon="-2.53365">
        <ele>68.5</ele>
        <time>2024-12-19T08:01:41Z</time>
      </trkpt>
      <trkpt lat="47.94718" lon="-2.53363">
        <ele>68.6</ele>
        <time>2024-12-19T08:01:42Z</time>
      </trkpt>
      <trkpt lat="47.94718" lon="-2.53362">
        <ele>68.6</ele>
        <time>2024-12-19T08:01:43Z</time>
      </trkpt>
      <trkpt lat="47.94717" lon="-2.53362">
        <ele>68.6</ele>
        <time>2024-12-19T08:01:44Z</time>
      </trkpt>
      <trkpt lat="47.94717" lon="-2.53361">
        <ele>68.6</ele>
        <time>2024-12-19T08:01:45Z</time>
      </trkpt>
      <trkpt lat="47.94716" lon="-2.53362">
        <ele>68.5</ele>
        <time>2024-12-19T08:01:46Z</time>
      </trkpt>
      <trkpt lat="47.94715" lon="-2.53362">
        <ele>68.4</ele>
        <time>2024-12-19T08:01:47Z</time>
      </trkpt>
      <trkpt lat="47.94714" lon="-2.53362">
        <ele>68.4</ele>
        <time>2024-12-19T08:01:48Z</time>
      </trkpt>
      <trkpt lat="47.94713" lon="-2.53361">
        <ele>68.4</ele>
        <time>2024-12-19T08:01:49Z</time>
      </trkpt>
      <trkpt lat="47.94713" lon="-2.5336">
        <ele>68.4</ele>
        <time>2024-12-19T08:01:50Z</time>
      </trkpt>
      <trkpt lat="47.94711" lon="-2.53359">
        <ele>68.4</ele>
        <time>2024-12-19T08:01:51Z</time>
      </trkpt>
      <trkpt lat="47.9471" lon="-2.53358">
        <ele>68.4</ele>
        <time>2024-12-19T08:01:52Z</time>
      </trkpt>
      <trkpt lat="47.94708" lon="-2.53357">
        <ele>68.4</ele>
        <time>2024-12-19T08:01:53Z</time>
      </trkpt>
      <trkpt lat="47.94706" lon="-2.53357">
        <ele>68.4</ele>
        <time>2024-12-19T08:01:54Z</time>
      </trkpt>
      <trkpt lat="47.94705" lon="-2.53356">
        <ele>68.3</ele>
        <time>2024-12-19T08:01:55Z</time>
      </trkpt>
      <trkpt lat="47.94704" lon="-2.53355">
        <ele>68.3</ele>
        <time>2024-12-19T08:01:56Z</time>
      </trkpt>
      <trkpt lat="47.94702" lon="-2.53354">
        <ele>68.3</ele>
        <time>2024-12-19T08:01:57Z</time>
      </trkpt>
      <trkpt lat="47.94701" lon="-2.53353">
        <ele>68.3</ele>
        <time>2024-12-19T08:01:58Z</time>
      </trkpt>
      <trkpt lat="47.947" lon="-2.53353">
        <ele>68.3</ele>
        <time>2024-12-19T08:01:59Z</time>
      </trkpt>
      <trkpt lat="47.94698" lon="-2.53353">
        <ele>68.2</ele>
        <time>2024-12-19T08:02:00Z</time>
      </trkpt>
      <trkpt lat="47.94697" lon="-2.53353">
        <ele>68</ele>
        <time>2024-12-19T08:02:01Z</time>
      </trkpt>
      <trkpt lat="47.94695" lon="-2.53353">
        <ele>67.9</ele>
        <time>2024-12-19T08:02:02Z</time>
      </trkpt>
      <trkpt lat="47.94694" lon="-2.53352">
        <ele>67.9</ele>
        <time>2024-12-19T08:02:03Z</time>
      </trkpt>
      <trkpt lat="47.94692" lon="-2.5335">
        <ele>68</ele>
        <time>2024-12-19T08:02:04Z</time>
      </trkpt>
      <trkpt lat="47.9469" lon="-2.53348">
        <ele>68.1</ele>
        <time>2024-12-19T08:02:05Z</time>
      </trkpt>
      <trkpt lat="47.94689" lon="-2.53346">
        <ele>68.1</ele>
        <time>2024-12-19T08:02:06Z</time>
      </trkpt>
      <trkpt lat="47.94688" lon="-2.53345">
        <ele>68.1</ele>
        <time>2024-12-19T08:02:07Z</time>
      </trkpt>
      <trkpt lat="47.94687" lon="-2.53344">
        <ele>68.1</ele>
        <time>2024-12-19T08:02:08Z</time>
      </trkpt>
      <trkpt lat="47.94685" lon="-2.53342">
        <ele>68.1</ele>
        <time>2024-12-19T08:02:09Z</time>
      </trkpt>
      <trkpt lat="47.94684" lon="-2.53341">
        <ele>68.1</ele>
        <time>2024-12-19T08:02:10Z</time>
      </trkpt>
      <trkpt lat="47.94683" lon="-2.5334">
        <ele>68.1</ele>
        <time>2024-12-19T08:02:11Z</time>
      </trkpt>
      <trkpt lat="47.94682" lon="-2.53339">
        <ele>68.1</ele>
        <time>2024-12-19T08:02:12Z</time>
      </trkpt>
      <trkpt lat="47.94681" lon="-2.53338">
        <ele>68.1</ele>
        <time>2024-12-19T08:02:13Z</time>
      </trkpt>
      <trkpt lat="47.9468" lon="-2.53338">
        <ele>68</ele>
        <time>2024-12-19T08:02:14Z</time>
      </trkpt>
      <trkpt lat="47.94679" lon="-2.53337">
        <ele>67.9</ele>
        <time>2024-12-19T08:02:15Z</time>
      </trkpt>
      <trkpt lat="47.94678" lon="-2.53337">
        <ele>67.9</ele>
        <time>2024-12-19T08:02:16Z</time>
      </trkpt>
      <trkpt lat="47.94677" lon="-2.53336">
        <ele>67.9</ele>
        <time>2024-12-19T08:02:17Z</time>
      </trkpt>
      <trkpt lat="47.94676" lon="-2.53335">
        <ele>67.8</ele>
        <time>2024-12-19T08:02:18Z</time>
      </trkpt>
      <trkpt lat="47.94675" lon="-2.53334">
        <ele>67.8</ele>
        <time>2024-12-19T08:02:19Z</time>
      </trkpt>
      <trkpt lat="47.94674" lon="-2.53333">
        <ele>67.8</ele>
        <time>2024-12-19T08:02:20Z</time>
      </trkpt>
      <trkpt lat="47.94673" lon="-2.53332">
        <ele>67.7</ele>
        <time>2024-12-19T08:02:21Z</time>
      </trkpt>
      <trkpt lat="47.94672" lon="-2.53332">
        <ele>67.7</ele>
        <time>2024-12-19T08:02:22Z</time>
      </trkpt>
      <trkpt lat="47.9467" lon="-2.53332">
        <ele>67.6</ele>
        <time>2024-12-19T08:02:23Z</time>
      </trkpt>
      <trkpt lat="47.94669" lon="-2.53331">
        <ele>67.5</ele>
        <time>2024-12-19T08:02:24Z</time>
      </trkpt>
      <trkpt lat="47.94668" lon="-2.53331">
        <ele>67.4</ele>
        <time>2024-12-19T08:02:25Z</time>
      </trkpt>
      <trkpt lat="47.94666" lon="-2.5333">
        <ele>67.4</ele>
        <time>2024-12-19T08:02:26Z</time>
      </trkpt>
      <trkpt lat="47.94665" lon="-2.53328">
        <ele>67.5</ele>
        <time>2024-12-19T08:02:27Z</time>
      </trkpt>
      <trkpt lat="47.94664" lon="-2.53327">
        <ele>67.5</ele>
        <time>2024-12-19T08:02:28Z</time>
      </trkpt>
      <trkpt lat="47.94662" lon="-2.53327">
        <ele>67.6</ele>
        <time>2024-12-19T08:02:29Z</time>
      </trkpt>
      <trkpt lat="47.94661" lon="-2.53326">
        <ele>67.6</ele>
        <time>2024-12-19T08:02:30Z</time>
      </trkpt>
      <trkpt lat="47.94661" lon="-2.53326">
        <ele>67.6</ele>
        <time>2024-12-19T08:02:31Z</time>
      </trkpt>
      <trkpt lat="47.9466" lon="-2.53325">
        <ele>67.6</ele>
        <time>2024-12-19T08:02:32Z</time>
      </trkpt>
      <trkpt lat="47.94659" lon="-2.53324">
        <ele>67.7</ele>
        <time>2024-12-19T08:02:33Z</time>
      </trkpt>
      <trkpt lat="47.94657" lon="-2.53323">
        <ele>67.8</ele>
        <time>2024-12-19T08:02:34Z</time>
      </trkpt>
      <trkpt lat="47.94656" lon="-2.53322">
        <ele>67.8</ele>
        <time>2024-12-19T08:02:35Z</time>
      </trkpt>
      <trkpt lat="47.94654" lon="-2.53322">
        <ele>67.8</ele>
        <time>2024-12-19T08:02:36Z</time>
      </trkpt>
      <trkpt lat="47.94652" lon="-2.53322">
        <ele>67.7</ele>
        <time>2024-12-19T08:02:37Z</time>
      </trkpt>
      <trkpt lat="47.9465" lon="-2.53323">
        <ele>67.6</ele>
        <time>2024-12-19T08:02:38Z</time>
      </trkpt>
      <trkpt lat="47.94649" lon="-2.53322">
        <ele>67.6</ele>
        <time>2024-12-19T08:02:39Z</time>
      </trkpt>
      <trkpt lat="47.94647" lon="-2.53322">
        <ele>67.6</ele>
        <time>2024-12-19T08:02:40Z</time>
      </trkpt>
      <trkpt lat="47.94645" lon="-2.53321">
        <ele>67.6</ele>
        <time>2024-12-19T08:02:41Z</time>
      </trkpt>
      <trkpt lat="47.94644" lon="-2.53321">
        <ele>67.6</ele>
        <time>2024-12-19T08:02:42Z</time>
      </trkpt>
      <trkpt lat="47.94643" lon="-2.5332">
        <ele>67.6</ele>
        <time>2024-12-19T08:02:43Z</time>
      </trkpt>
      <trkpt lat="47.94642" lon="-2.5332">
        <ele>67.6</ele>
        <time>2024-12-19T08:02:44Z</time>
      </trkpt>
      <trkpt lat="47.94641" lon="-2.53319">
        <ele>67.6</ele>
        <time>2024-12-19T08:02:45Z</time>
      </trkpt>
      <trkpt lat="47.94639" lon="-2.53319">
        <ele>67.6</ele>
        <time>2024-12-19T08:02:46Z</time>
      </trkpt>
      <trkpt lat="47.94638" lon="-2.53318">
        <ele>67.7</ele>
        <time>2024-12-19T08:02:47Z</time>
      </trkpt>
      <trkpt lat="47.94637" lon="-2.53317">
        <ele>67.8</ele>
        <time>2024-12-19T08:02:48Z</time>
      </trkpt>
      <trkpt lat="47.94636" lon="-2.53317">
        <ele>67.8</ele>
        <time>2024-12-19T08:02:49Z</time>
      </trkpt>
      <trkpt lat="47.94635" lon="-2.53317">
        <ele>67.9</ele>
        <time>2024-12-19T08:02:50Z</time>
      </trkpt>
      <trkpt lat="47.94634" lon="-2.53316">
        <ele>68</ele>
        <time>2024-12-19T08:02:51Z</time>
      </trkpt>
      <trkpt lat="47.94633" lon="-2.53315">
        <ele>68.1</ele>
        <time>2024-12-19T08:02:52Z</time>
      </trkpt>
      <trkpt lat="47.94632" lon="-2.53313">
        <ele>68.2</ele>
        <time>2024-12-19T08:02:53Z</time>
      </trkpt>
      <trkpt lat="47.94631" lon="-2.53312">
        <ele>68.4</ele>
        <time>2024-12-19T08:02:54Z</time>
      </trkpt>
      <trkpt lat="47.9463" lon="-2.53311">
        <ele>68.5</ele>
        <time>2024-12-19T08:02:55Z</time>
      </trkpt>
      <trkpt lat="47.94629" lon="-2.53311">
        <ele>68.5</ele>
        <time>2024-12-19T08:02:56Z</time>
      </trkpt>
      <trkpt lat="47.94629" lon="-2.53311">
        <ele>68.5</ele>
        <time>2024-12-19T08:02:57Z</time>
      </trkpt>
      <trkpt lat="47.94628" lon="-2.53312">
        <ele>68.4</ele>
        <time>2024-12-19T08:02:58Z</time>
      </trkpt>
      <trkpt lat="47.94627" lon="-2.53312">
        <ele>68.4</ele>
        <time>2024-12-19T08:02:59Z</time>
      </trkpt>
      <trkpt lat="47.94626" lon="-2.53312">
        <ele>68.4</ele>
        <time>2024-12-19T08:03:00Z</time>
      </trkpt>
      <trkpt lat="47.94625" lon="-2.53312">
        <ele>68.5</ele>
        <time>2024-12-19T08:03:01Z</time>
      </trkpt>
      <trkpt lat="47.94624" lon="-2.53311">
        <ele>68.5</ele>
        <time>2024-12-19T08:03:02Z</time>
      </trkpt>
      <trkpt lat="47.94623" lon="-2.5331">
        <ele>68.6</ele>
        <time>2024-12-19T08:03:03Z</time>
      </trkpt>
      <trkpt lat="47.94622" lon="-2.5331">
        <ele>68.6</ele>
        <time>2024-12-19T08:03:04Z</time>
      </trkpt>
      <trkpt lat="47.94622" lon="-2.53311">
        <ele>68.6</ele>
        <time>2024-12-19T08:03:05Z</time>
      </trkpt>
      <trkpt lat="47.94621" lon="-2.53311">
        <ele>68.6</ele>
        <time>2024-12-19T08:03:06Z</time>
      </trkpt>
      <trkpt lat="47.94621" lon="-2.53311">
        <ele>68.6</ele>
        <time>2024-12-19T08:03:07Z</time>
      </trkpt>
      <trkpt lat="47.94619" lon="-2.53311">
        <ele>68.5</ele>
        <time>2024-12-19T08:03:08Z</time>
      </trkpt>
      <trkpt lat="47.94619" lon="-2.53312">
        <ele>68.5</ele>
        <time>2024-12-19T08:03:09Z</time>
      </trkpt>
      <trkpt lat="47.94618" lon="-2.53312">
        <ele>68.5</ele>
        <time>2024-12-19T08:03:10Z</time>
      </trkpt>
      <trkpt lat="47.94618" lon="-2.53312">
        <ele>68.5</ele>
        <time>2024-12-19T08:03:11Z</time>
      </trkpt>
      <trkpt lat="47.94617" lon="-2.53312">
        <ele>68.5</ele>
        <time>2024-12-19T08:03:12Z</time>
      </trkpt>
      <trkpt lat="47.94617" lon="-2.53312">
        <ele>68.5</ele>
        <time>2024-12-19T08:03:13Z</time>
      </trkpt>
      <trkpt lat="47.94617" lon="-2.53312">
        <ele>68.5</ele>
        <time>2024-12-19T08:03:14Z</time>
      </trkpt>
      <trkpt lat="47.94616" lon="-2.53312">
        <ele>68.5</ele>
        <time>2024-12-19T08:03:15Z</time>
      </trkpt>
      <trkpt lat="47.94616" lon="-2.53311">
        <ele>68.6</ele>
        <time>2024-12-19T08:03:16Z</time>
      </trkpt>
      <trkpt lat="47.94615" lon="-2.5331">
        <ele>68.6</ele>
        <time>2024-12-19T08:03:17Z</time>
      </trkpt>
      <trkpt lat="47.94614" lon="-2.53309">
        <ele>68.7</ele>
        <time>2024-12-19T08:03:18Z</time>
      </trkpt>
      <trkpt lat="47.94612" lon="-2.53309">
        <ele>68.8</ele>
        <time>2024-12-19T08:03:19Z</time>
      </trkpt>
      <trkpt lat="47.94609" lon="-2.5331">
        <ele>68.9</ele>
        <time>2024-12-19T08:03:20Z</time>
      </trkpt>
      <trkpt lat="47.94607" lon="-2.53311">
        <ele>68.9</ele>
        <time>2024-12-19T08:03:21Z</time>
      </trkpt>
      <trkpt lat="47.94606" lon="-2.53311">
        <ele>69</ele>
        <time>2024-12-19T08:03:22Z</time>
      </trkpt>
      <trkpt lat="47.94605" lon="-2.53312">
        <ele>69</ele>
        <time>2024-12-19T08:03:23Z</time>
      </trkpt>
      <trkpt lat="47.94604" lon="-2.53312">
        <ele>69.1</ele>
        <time>2024-12-19T08:03:24Z</time>
      </trkpt>
      <trkpt lat="47.94602" lon="-2.53312">
        <ele>69.2</ele>
        <time>2024-12-19T08:03:25Z</time>
      </trkpt>
      <trkpt lat="47.94601" lon="-2.53312">
        <ele>69.3</ele>
        <time>2024-12-19T08:03:26Z</time>
      </trkpt>
      <trkpt lat="47.94599" lon="-2.53311">
        <ele>69.5</ele>
        <time>2024-12-19T08:03:27Z</time>
      </trkpt>
      <trkpt lat="47.94598" lon="-2.5331">
        <ele>69.6</ele>
        <time>2024-12-19T08:03:28Z</time>
      </trkpt>
      <trkpt lat="47.94596" lon="-2.53309">
        <ele>69.8</ele>
        <time>2024-12-19T08:03:29Z</time>
      </trkpt>
      <trkpt lat="47.94595" lon="-2.53308">
        <ele>69.9</ele>
        <time>2024-12-19T08:03:30Z</time>
      </trkpt>
      <trkpt lat="47.94593" lon="-2.53307">
        <ele>70.2</ele>
        <time>2024-12-19T08:03:31Z</time>
      </trkpt>
      <trkpt lat="47.94592" lon="-2.53306">
        <ele>70.3</ele>
        <time>2024-12-19T08:03:32Z</time>
      </trkpt>
      <trkpt lat="47.9459" lon="-2.53306">
        <ele>70.5</ele>
        <time>2024-12-19T08:03:33Z</time>
      </trkpt>
      <trkpt lat="47.94589" lon="-2.53305">
        <ele>70.7</ele>
        <time>2024-12-19T08:03:34Z</time>
      </trkpt>
      <trkpt lat="47.94588" lon="-2.53304">
        <ele>70.8</ele>
        <time>2024-12-19T08:03:35Z</time>
      </trkpt>
      <trkpt lat="47.94587" lon="-2.53303">
        <ele>71</ele>
        <time>2024-12-19T08:03:36Z</time>
      </trkpt>
      <trkpt lat="47.94585" lon="-2.53301">
        <ele>71.2</ele>
        <time>2024-12-19T08:03:37Z</time>
      </trkpt>
      <trkpt lat="47.94584" lon="-2.53301">
        <ele>71.3</ele>
        <time>2024-12-19T08:03:38Z</time>
      </trkpt>
      <trkpt lat="47.94584" lon="-2.533">
        <ele>71.4</ele>
        <time>2024-12-19T08:03:39Z</time>
      </trkpt>
      <trkpt lat="47.94583" lon="-2.53299">
        <ele>71.5</ele>
        <time>2024-12-19T08:03:40Z</time>
      </trkpt>
      <trkpt lat="47.94583" lon="-2.53298">
        <ele>71.5</ele>
        <time>2024-12-19T08:03:41Z</time>
      </trkpt>
      <trkpt lat="47.94583" lon="-2.53297">
        <ele>71.6</ele>
        <time>2024-12-19T08:03:42Z</time>
      </trkpt>
      <trkpt lat="47.94582" lon="-2.53297">
        <ele>71.7</ele>
        <time>2024-12-19T08:03:43Z</time>
      </trkpt>
      <trkpt lat="47.94582" lon="-2.53296">
        <ele>71.8</ele>
        <time>2024-12-19T08:03:44Z</time>
      </trkpt>
      <trkpt lat="47.94582" lon="-2.53295">
        <ele>71.8</ele>
        <time>2024-12-19T08:03:45Z</time>
      </trkpt>
      <trkpt lat="47.94582" lon="-2.53295">
        <ele>71.8</ele>
        <time>2024-12-19T08:03:46Z</time>
      </trkpt>
      <trkpt lat="47.94582" lon="-2.53295">
        <ele>71.9</ele>
        <time>2024-12-19T08:03:47Z</time>
      </trkpt>
      <trkpt lat="47.94581" lon="-2.53294">
        <ele>71.9</ele>
        <time>2024-12-19T08:03:48Z</time>
      </trkpt>
      <trkpt lat="47.94581" lon="-2.53294">
        <ele>72</ele>
        <time>2024-12-19T08:03:49Z</time>
      </trkpt>
      <trkpt lat="47.9458" lon="-2.53293">
        <ele>72.1</ele>
        <time>2024-12-19T08:03:50Z</time>
      </trkpt>
      <trkpt lat="47.9458" lon="-2.53292">
        <ele>72.2</ele>
        <time>2024-12-19T08:03:51Z</time>
      </trkpt>
      <trkpt lat="47.94579" lon="-2.5329">
        <ele>72.4</ele>
        <time>2024-12-19T08:03:52Z</time>
      </trkpt>
      <trkpt lat="47.94578" lon="-2.53288">
        <ele>72.5</ele>
        <time>2024-12-19T08:03:53Z</time>
      </trkpt>
      <trkpt lat="47.94577" lon="-2.53287">
        <ele>72.7</ele>
        <time>2024-12-19T08:03:54Z</time>
      </trkpt>
      <trkpt lat="47.94576" lon="-2.53285">
        <ele>72.8</ele>
        <time>2024-12-19T08:03:55Z</time>
      </trkpt>
      <trkpt lat="47.94574" lon="-2.53283">
        <ele>73</ele>
        <time>2024-12-19T08:03:56Z</time>
      </trkpt>
      <trkpt lat="47.94573" lon="-2.53282">
        <ele>73.1</ele>
        <time>2024-12-19T08:03:57Z</time>
      </trkpt>
      <trkpt lat="47.94572" lon="-2.5328">
        <ele>73.3</ele>
        <time>2024-12-19T08:03:58Z</time>
      </trkpt>
      <trkpt lat="47.94569" lon="-2.53277">
        <ele>73.5</ele>
        <time>2024-12-19T08:03:59Z</time>
      </trkpt>
      <trkpt lat="47.94567" lon="-2.53276">
        <ele>73.6</ele>
        <time>2024-12-19T08:04:00Z</time>
      </trkpt>
      <trkpt lat="47.94565" lon="-2.53275">
        <ele>73.8</ele>
        <time>2024-12-19T08:04:01Z</time>
      </trkpt>
      <trkpt lat="47.94564" lon="-2.53274">
        <ele>73.8</ele>
        <time>2024-12-19T08:04:02Z</time>
      </trkpt>
      <trkpt lat="47.94563" lon="-2.53273">
        <ele>73.9</ele>
        <time>2024-12-19T08:04:03Z</time>
      </trkpt>
      <trkpt lat="47.94561" lon="-2.53273">
        <ele>74</ele>
        <time>2024-12-19T08:04:04Z</time>
      </trkpt>
      <trkpt lat="47.9456" lon="-2.53273">
        <ele>74</ele>
        <time>2024-12-19T08:04:05Z</time>
      </trkpt>
      <trkpt lat="47.94559" lon="-2.53272">
        <ele>74.1</ele>
        <time>2024-12-19T08:04:06Z</time>
      </trkpt>
      <trkpt lat="47.94557" lon="-2.53271">
        <ele>74.2</ele>
        <time>2024-12-19T08:04:07Z</time>
      </trkpt>
      <trkpt lat="47.94556" lon="-2.53271">
        <ele>74.2</ele>
        <time>2024-12-19T08:04:08Z</time>
      </trkpt>
      <trkpt lat="47.94555" lon="-2.5327">
        <ele>74.3</ele>
        <time>2024-12-19T08:04:09Z</time>
      </trkpt>
      <trkpt lat="47.94554" lon="-2.5327">
        <ele>74.3</ele>
        <time>2024-12-19T08:04:10Z</time>
      </trkpt>
      <trkpt lat="47.94553" lon="-2.53269">
        <ele>74.3</ele>
        <time>2024-12-19T08:04:11Z</time>
      </trkpt>
      <trkpt lat="47.94552" lon="-2.53268">
        <ele>74.3</ele>
        <time>2024-12-19T08:04:12Z</time>
      </trkpt>
      <trkpt lat="47.9455" lon="-2.53268">
        <ele>74.4</ele>
        <time>2024-12-19T08:04:13Z</time>
      </trkpt>
      <trkpt lat="47.94549" lon="-2.53267">
        <ele>74.4</ele>
        <time>2024-12-19T08:04:14Z</time>
      </trkpt>
      <trkpt lat="47.94547" lon="-2.53267">
        <ele>74.4</ele>
        <time>2024-12-19T08:04:15Z</time>
      </trkpt>
      <trkpt lat="47.94545" lon="-2.53266">
        <ele>74.4</ele>
        <time>2024-12-19T08:04:16Z</time>
      </trkpt>
      <trkpt lat="47.94543" lon="-2.53265">
        <ele>74.5</ele>
        <time>2024-12-19T08:04:17Z</time>
      </trkpt>
      <trkpt lat="47.94541" lon="-2.53264">
        <ele>74.5</ele>
        <time>2024-12-19T08:04:18Z</time>
      </trkpt>
      <trkpt lat="47.9454" lon="-2.53263">
        <ele>74.5</ele>
        <time>2024-12-19T08:04:19Z</time>
      </trkpt>
      <trkpt lat="47.94539" lon="-2.53262">
        <ele>74.6</ele>
        <time>2024-12-19T08:04:20Z</time>
      </trkpt>
      <trkpt lat="47.94537" lon="-2.53261">
        <ele>74.6</ele>
        <time>2024-12-19T08:04:21Z</time>
      </trkpt>
      <trkpt lat="47.94537" lon="-2.53261">
        <ele>74.6</ele>
        <time>2024-12-19T08:04:22Z</time>
      </trkpt>
      <trkpt lat="47.94536" lon="-2.53261">
        <ele>74.6</ele>
        <time>2024-12-19T08:04:23Z</time>
      </trkpt>
      <trkpt lat="47.94535" lon="-2.5326">
        <ele>74.6</ele>
        <time>2024-12-19T08:04:24Z</time>
      </trkpt>
      <trkpt lat="47.94535" lon="-2.53259">
        <ele>74.7</ele>
        <time>2024-12-19T08:04:25Z</time>
      </trkpt>
      <trkpt lat="47.94534" lon="-2.53259">
        <ele>74.7</ele>
        <time>2024-12-19T08:04:26Z</time>
      </trkpt>
      <trkpt lat="47.94535" lon="-2.53259">
        <ele>74.7</ele>
        <time>2024-12-19T08:04:27Z</time>
      </trkpt>
      <trkpt lat="47.94534" lon="-2.53258">
        <ele>74.7</ele>
        <time>2024-12-19T08:04:28Z</time>
      </trkpt>
      <trkpt lat="47.94534" lon="-2.53258">
        <ele>74.7</ele>
        <time>2024-12-19T08:04:29Z</time>
      </trkpt>
      <trkpt lat="47.94533" lon="-2.53258">
        <ele>74.7</ele>
        <time>2024-12-19T08:04:30Z</time>
      </trkpt>
      <trkpt lat="47.94532" lon="-2.53259">
        <ele>74.7</ele>
        <time>2024-12-19T08:04:31Z</time>
      </trkpt>
      <trkpt lat="47.94531" lon="-2.53258">
        <ele>74.7</ele>
        <time>2024-12-19T08:04:32Z</time>
      </trkpt>
      <trkpt lat="47.94529" lon="-2.53258">
        <ele>74.7</ele>
        <time>2024-12-19T08:04:33Z</time>
      </trkpt>
      <trkpt lat="47.94528" lon="-2.53257">
        <ele>74.8</ele>
        <time>2024-12-19T08:04:34Z</time>
      </trkpt>
      <trkpt lat="47.94527" lon="-2.53255">
        <ele>74.8</ele>
        <time>2024-12-19T08:04:35Z</time>
      </trkpt>
      <trkpt lat="47.94526" lon="-2.53254">
        <ele>74.9</ele>
        <time>2024-12-19T08:04:36Z</time>
      </trkpt>
      <trkpt lat="47.94525" lon="-2.53253">
        <ele>74.9</ele>
        <time>2024-12-19T08:04:37Z</time>
      </trkpt>
      <trkpt lat="47.94524" lon="-2.53252">
        <ele>75</ele>
        <time>2024-12-19T08:04:38Z</time>
      </trkpt>
      <trkpt lat="47.94522" lon="-2.53251">
        <ele>75</ele>
        <time>2024-12-19T08:04:39Z</time>
      </trkpt>
      <trkpt lat="47.94521" lon="-2.5325">
        <ele>75</ele>
        <time>2024-12-19T08:04:40Z</time>
      </trkpt>
      <trkpt lat="47.9452" lon="-2.53249">
        <ele>75</ele>
        <time>2024-12-19T08:04:41Z</time>
      </trkpt>
      <trkpt lat="47.94519" lon="-2.53248">
        <ele>75</ele>
        <time>2024-12-19T08:04:42Z</time>
      </trkpt>
      <trkpt lat="47.94519" lon="-2.53248">
        <ele>75.1</ele>
        <time>2024-12-19T08:04:43Z</time>
      </trkpt>
      <trkpt lat="47.94518" lon="-2.53247">
        <ele>75.1</ele>
        <time>2024-12-19T08:04:44Z</time>
      </trkpt>
      <trkpt lat="47.94517" lon="-2.53247">
        <ele>75.1</ele>
        <time>2024-12-19T08:04:45Z</time>
      </trkpt>
      <trkpt lat="47.94516" lon="-2.53246">
        <ele>75.1</ele>
        <time>2024-12-19T08:04:46Z</time>
      </trkpt>
      <trkpt lat="47.94516" lon="-2.53246">
        <ele>75.1</ele>
        <time>2024-12-19T08:04:47Z</time>
      </trkpt>
      <trkpt lat="47.94515" lon="-2.53245">
        <ele>75.1</ele>
        <time>2024-12-19T08:04:48Z</time>
      </trkpt>
      <trkpt lat="47.94514" lon="-2.53243">
        <ele>75.1</ele>
        <time>2024-12-19T08:04:49Z</time>
      </trkpt>
      <trkpt lat="47.94513" lon="-2.53242">
        <ele>75.1</ele>
        <time>2024-12-19T08:04:50Z</time>
      </trkpt>
      <trkpt lat="47.94512" lon="-2.53242">
        <ele>75.1</ele>
        <time>2024-12-19T08:04:51Z</time>
      </trkpt>
      <trkpt lat="47.94511" lon="-2.53241">
        <ele>75.1</ele>
        <time>2024-12-19T08:04:52Z</time>
      </trkpt>
      <trkpt lat="47.9451" lon="-2.53239">
        <ele>75.1</ele>
        <time>2024-12-19T08:04:53Z</time>
      </trkpt>
      <trkpt lat="47.94509" lon="-2.53239">
        <ele>75.1</ele>
        <time>2024-12-19T08:04:54Z</time>
      </trkpt>
      <trkpt lat="47.94508" lon="-2.53238">
        <ele>75.1</ele>
        <time>2024-12-19T08:04:55Z</time>
      </trkpt>
      <trkpt lat="47.94507" lon="-2.53237">
        <ele>75.1</ele>
        <time>2024-12-19T08:04:56Z</time>
      </trkpt>
      <trkpt lat="47.94506" lon="-2.53236">
        <ele>75.1</ele>
        <time>2024-12-19T08:04:57Z</time>
      </trkpt>
      <trkpt lat="47.94504" lon="-2.53235">
        <ele>75.1</ele>
        <time>2024-12-19T08:04:58Z</time>
      </trkpt>
      <trkpt lat="47.94503" lon="-2.53234">
        <ele>75.1</ele>
        <time>2024-12-19T08:04:59Z</time>
      </trkpt>
      <trkpt lat="47.94502" lon="-2.53233">
        <ele>75</ele>
        <time>2024-12-19T08:05:00Z</time>
      </trkpt>
      <trkpt lat="47.945" lon="-2.53233">
        <ele>75</ele>
        <time>2024-12-19T08:05:01Z</time>
      </trkpt>
      <trkpt lat="47.94499" lon="-2.53232">
        <ele>75</ele>
        <time>2024-12-19T08:05:02Z</time>
      </trkpt>
      <trkpt lat="47.94498" lon="-2.53232">
        <ele>75</ele>
        <time>2024-12-19T08:05:03Z</time>
      </trkpt>
      <trkpt lat="47.94498" lon="-2.53231">
        <ele>75</ele>
        <time>2024-12-19T08:05:04Z</time>
      </trkpt>
      <trkpt lat="47.94497" lon="-2.5323">
        <ele>75</ele>
        <time>2024-12-19T08:05:05Z</time>
      </trkpt>
      <trkpt lat="47.94496" lon="-2.53229">
        <ele>75</ele>
        <time>2024-12-19T08:05:06Z</time>
      </trkpt>
      <trkpt lat="47.94495" lon="-2.53228">
        <ele>75</ele>
        <time>2024-12-19T08:05:07Z</time>
      </trkpt>
      <trkpt lat="47.94495" lon="-2.53228">
        <ele>75</ele>
        <time>2024-12-19T08:05:08Z</time>
      </trkpt>
      <trkpt lat="47.94494" lon="-2.53228">
        <ele>75</ele>
        <time>2024-12-19T08:05:09Z</time>
      </trkpt>
      <trkpt lat="47.94494" lon="-2.53227">
        <ele>75</ele>
        <time>2024-12-19T08:05:10Z</time>
      </trkpt>
      <trkpt lat="47.94493" lon="-2.53227">
        <ele>75</ele>
        <time>2024-12-19T08:05:11Z</time>
      </trkpt>
      <trkpt lat="47.94492" lon="-2.53225">
        <ele>75</ele>
        <time>2024-12-19T08:05:12Z</time>
      </trkpt>
      <trkpt lat="47.9449" lon="-2.53225">
        <ele>75</ele>
        <time>2024-12-19T08:05:13Z</time>
      </trkpt>
      <trkpt lat="47.94488" lon="-2.53224">
        <ele>75</ele>
        <time>2024-12-19T08:05:14Z</time>
      </trkpt>
      <trkpt lat="47.94487" lon="-2.53224">
        <ele>75</ele>
        <time>2024-12-19T08:05:15Z</time>
      </trkpt>
      <trkpt lat="47.94486" lon="-2.53224">
        <ele>75</ele>
        <time>2024-12-19T08:05:16Z</time>
      </trkpt>
      <trkpt lat="47.94485" lon="-2.53223">
        <ele>75</ele>
        <time>2024-12-19T08:05:17Z</time>
      </trkpt>
      <trkpt lat="47.94484" lon="-2.53223">
        <ele>75</ele>
        <time>2024-12-19T08:05:18Z</time>
      </trkpt>
      <trkpt lat="47.94483" lon="-2.53223">
        <ele>75</ele>
        <time>2024-12-19T08:05:19Z</time>
      </trkpt>
      <trkpt lat="47.94481" lon="-2.53222">
        <ele>75</ele>
        <time>2024-12-19T08:05:20Z</time>
      </trkpt>
      <trkpt lat="47.9448" lon="-2.53221">
        <ele>75</ele>
        <time>2024-12-19T08:05:21Z</time>
      </trkpt>
      <trkpt lat="47.94478" lon="-2.5322">
        <ele>75</ele>
        <time>2024-12-19T08:05:22Z</time>
      </trkpt>
      <trkpt lat="47.94477" lon="-2.5322">
        <ele>75</ele>
        <time>2024-12-19T08:05:23Z</time>
      </trkpt>
      <trkpt lat="47.94476" lon="-2.53219">
        <ele>75</ele>
        <time>2024-12-19T08:05:24Z</time>
      </trkpt>
      <trkpt lat="47.94475" lon="-2.53219">
        <ele>75</ele>
        <time>2024-12-19T08:05:25Z</time>
      </trkpt>
      <trkpt lat="47.94474" lon="-2.53218">
        <ele>75</ele>
        <time>2024-12-19T08:05:26Z</time>
      </trkpt>
      <trkpt lat="47.94473" lon="-2.53217">
        <ele>75</ele>
        <time>2024-12-19T08:05:27Z</time>
      </trkpt>
      <trkpt lat="47.94473" lon="-2.53216">
        <ele>75</ele>
        <time>2024-12-19T08:05:28Z</time>
      </trkpt>
      <trkpt lat="47.94472" lon="-2.53215">
        <ele>75</ele>
        <time>2024-12-19T08:05:29Z</time>
      </trkpt>
      <trkpt lat="47.9447" lon="-2.53214">
        <ele>75</ele>
        <time>2024-12-19T08:05:30Z</time>
      </trkpt>
      <trkpt lat="47.94469" lon="-2.53213">
        <ele>75</ele>
        <time>2024-12-19T08:05:31Z</time>
      </trkpt>
      <trkpt lat="47.94467" lon="-2.53212">
        <ele>75</ele>
        <time>2024-12-19T08:05:32Z</time>
      </trkpt>
      <trkpt lat="47.94466" lon="-2.53212">
        <ele>75</ele>
        <time>2024-12-19T08:05:33Z</time>
      </trkpt>
      <trkpt lat="47.94466" lon="-2.53211">
        <ele>75</ele>
        <time>2024-12-19T08:05:34Z</time>
      </trkpt>
      <trkpt lat="47.94465" lon="-2.53211">
        <ele>75</ele>
        <time>2024-12-19T08:05:35Z</time>
      </trkpt>
      <trkpt lat="47.94465" lon="-2.5321">
        <ele>75</ele>
        <time>2024-12-19T08:05:36Z</time>
      </trkpt>
      <trkpt lat="47.94464" lon="-2.53209">
        <ele>75</ele>
        <time>2024-12-19T08:05:37Z</time>
      </trkpt>
      <trkpt lat="47.94464" lon="-2.53208">
        <ele>75</ele>
        <time>2024-12-19T08:05:38Z</time>
      </trkpt>
      <trkpt lat="47.94463" lon="-2.53207">
        <ele>75</ele>
        <time>2024-12-19T08:05:39Z</time>
      </trkpt>
      <trkpt lat="47.94462" lon="-2.53206">
        <ele>75</ele>
        <time>2024-12-19T08:05:40Z</time>
      </trkpt>
      <trkpt lat="47.94461" lon="-2.53205">
        <ele>75</ele>
        <time>2024-12-19T08:05:41Z</time>
      </trkpt>
      <trkpt lat="47.9446" lon="-2.53204">
        <ele>75</ele>
        <time>2024-12-19T08:05:42Z</time>
      </trkpt>
      <trkpt lat="47.94459" lon="-2.53202">
        <ele>75</ele>
        <time>2024-12-19T08:05:43Z</time>
      </trkpt>
      <trkpt lat="47.94458" lon="-2.53201">
        <ele>75</ele>
        <time>2024-12-19T08:05:44Z</time>
      </trkpt>
      <trkpt lat="47.94456" lon="-2.53199">
        <ele>75</ele>
        <time>2024-12-19T08:05:45Z</time>
      </trkpt>
      <trkpt lat="47.94454" lon="-2.53196">
        <ele>75</ele>
        <time>2024-12-19T08:05:46Z</time>
      </trkpt>
      <trkpt lat="47.94453" lon="-2.53194">
        <ele>75</ele>
        <time>2024-12-19T08:05:47Z</time>
      </trkpt>
      <trkpt lat="47.94452" lon="-2.53192">
        <ele>74.9</ele>
        <time>2024-12-19T08:05:48Z</time>
      </trkpt>
      <trkpt lat="47.94451" lon="-2.5319">
        <ele>74.9</ele>
        <time>2024-12-19T08:05:49Z</time>
      </trkpt>
      <trkpt lat="47.9445" lon="-2.53188">
        <ele>74.8</ele>
        <time>2024-12-19T08:05:50Z</time>
      </trkpt>
      <trkpt lat="47.94448" lon="-2.53187">
        <ele>74.8</ele>
        <time>2024-12-19T08:05:51Z</time>
      </trkpt>
      <trkpt lat="47.94447" lon="-2.53185">
        <ele>74.7</ele>
        <time>2024-12-19T08:05:52Z</time>
      </trkpt>
      <trkpt lat="47.94445" lon="-2.53184">
        <ele>74.6</ele>
        <time>2024-12-19T08:05:53Z</time>
      </trkpt>
      <trkpt lat="47.94444" lon="-2.53182">
        <ele>74.5</ele>
        <time>2024-12-19T08:05:54Z</time>
      </trkpt>
      <trkpt lat="47.94442" lon="-2.5318">
        <ele>74.4</ele>
        <time>2024-12-19T08:05:55Z</time>
      </trkpt>
      <trkpt lat="47.9444" lon="-2.53178">
        <ele>74.4</ele>
        <time>2024-12-19T08:05:56Z</time>
      </trkpt>
      <trkpt lat="47.94439" lon="-2.53177">
        <ele>74.3</ele>
        <time>2024-12-19T08:05:57Z</time>
      </trkpt>
      <trkpt lat="47.94439" lon="-2.53176">
        <ele>74.3</ele>
        <time>2024-12-19T08:05:58Z</time>
      </trkpt>
      <trkpt lat="47.94438" lon="-2.53175">
        <ele>74.2</ele>
        <time>2024-12-19T08:05:59Z</time>
      </trkpt>
      <trkpt lat="47.94437" lon="-2.53174">
        <ele>74.2</ele>
        <time>2024-12-19T08:06:00Z</time>
      </trkpt>
      <trkpt lat="47.94437" lon="-2.53174">
        <ele>74.2</ele>
        <time>2024-12-19T08:06:01Z</time>
      </trkpt>
      <trkpt lat="47.94436" lon="-2.53172">
        <ele>74.1</ele>
        <time>2024-12-19T08:06:02Z</time>
      </trkpt>
      <trkpt lat="47.94435" lon="-2.53171">
        <ele>74.1</ele>
        <time>2024-12-19T08:06:03Z</time>
      </trkpt>
      <trkpt lat="47.94433" lon="-2.5317">
        <ele>74.1</ele>
        <time>2024-12-19T08:06:04Z</time>
      </trkpt>
      <trkpt lat="47.94432" lon="-2.53169">
        <ele>74.1</ele>
        <time>2024-12-19T08:06:05Z</time>
      </trkpt>
      <trkpt lat="47.94432" lon="-2.53169">
        <ele>74</ele>
        <time>2024-12-19T08:06:06Z</time>
      </trkpt>
      <trkpt lat="47.94431" lon="-2.53168">
        <ele>74</ele>
        <time>2024-12-19T08:06:07Z</time>
      </trkpt>
      <trkpt lat="47.9443" lon="-2.53166">
        <ele>74</ele>
        <time>2024-12-19T08:06:08Z</time>
      </trkpt>
      <trkpt lat="47.94429" lon="-2.53165">
        <ele>74</ele>
        <time>2024-12-19T08:06:09Z</time>
      </trkpt>
      <trkpt lat="47.94427" lon="-2.53163">
        <ele>73.9</ele>
        <time>2024-12-19T08:06:10Z</time>
      </trkpt>
      <trkpt lat="47.94426" lon="-2.53162">
        <ele>73.9</ele>
        <time>2024-12-19T08:06:11Z</time>
      </trkpt>
      <trkpt lat="47.94425" lon="-2.5316">
        <ele>73.8</ele>
        <time>2024-12-19T08:06:12Z</time>
      </trkpt>
      <trkpt lat="47.94424" lon="-2.53159">
        <ele>73.8</ele>
        <time>2024-12-19T08:06:13Z</time>
      </trkpt>
      <trkpt lat="47.94423" lon="-2.53158">
        <ele>73.8</ele>
        <time>2024-12-19T08:06:14Z</time>
      </trkpt>
      <trkpt lat="47.94422" lon="-2.53157">
        <ele>73.7</ele>
        <time>2024-12-19T08:06:15Z</time>
      </trkpt>
      <trkpt lat="47.94421" lon="-2.53157">
        <ele>73.7</ele>
        <time>2024-12-19T08:06:16Z</time>
      </trkpt>
      <trkpt lat="47.9442" lon="-2.53156">
        <ele>73.7</ele>
        <time>2024-12-19T08:06:17Z</time>
      </trkpt>
      <trkpt lat="47.94419" lon="-2.53155">
        <ele>73.6</ele>
        <time>2024-12-19T08:06:18Z</time>
      </trkpt>
      <trkpt lat="47.94419" lon="-2.53154">
        <ele>73.6</ele>
        <time>2024-12-19T08:06:19Z</time>
      </trkpt>
      <trkpt lat="47.94418" lon="-2.53154">
        <ele>73.5</ele>
        <time>2024-12-19T08:06:20Z</time>
      </trkpt>
      <trkpt lat="47.94417" lon="-2.53153">
        <ele>73.5</ele>
        <time>2024-12-19T08:06:21Z</time>
      </trkpt>
      <trkpt lat="47.94417" lon="-2.53151">
        <ele>73.4</ele>
        <time>2024-12-19T08:06:22Z</time>
      </trkpt>
      <trkpt lat="47.94415" lon="-2.5315">
        <ele>73.3</ele>
        <time>2024-12-19T08:06:23Z</time>
      </trkpt>
      <trkpt lat="47.94414" lon="-2.53148">
        <ele>73.2</ele>
        <time>2024-12-19T08:06:24Z</time>
      </trkpt>
      <trkpt lat="47.94413" lon="-2.53147">
        <ele>73.1</ele>
        <time>2024-12-19T08:06:25Z</time>
      </trkpt>
      <trkpt lat="47.94412" lon="-2.53146">
        <ele>73.1</ele>
        <time>2024-12-19T08:06:26Z</time>
      </trkpt>
      <trkpt lat="47.94411" lon="-2.53145">
        <ele>73</ele>
        <time>2024-12-19T08:06:27Z</time>
      </trkpt>
      <trkpt lat="47.9441" lon="-2.53145">
        <ele>72.9</ele>
        <time>2024-12-19T08:06:28Z</time>
      </trkpt>
      <trkpt lat="47.94409" lon="-2.53144">
        <ele>72.9</ele>
        <time>2024-12-19T08:06:29Z</time>
      </trkpt>
      <trkpt lat="47.94408" lon="-2.53143">
        <ele>72.8</ele>
        <time>2024-12-19T08:06:30Z</time>
      </trkpt>
      <trkpt lat="47.94407" lon="-2.53143">
        <ele>72.8</ele>
        <time>2024-12-19T08:06:31Z</time>
      </trkpt>
      <trkpt lat="47.94407" lon="-2.53142">
        <ele>72.7</ele>
        <time>2024-12-19T08:06:32Z</time>
      </trkpt>
      <trkpt lat="47.94406" lon="-2.53141">
        <ele>72.6</ele>
        <time>2024-12-19T08:06:33Z</time>
      </trkpt>
      <trkpt lat="47.94405" lon="-2.5314">
        <ele>72.6</ele>
        <time>2024-12-19T08:06:34Z</time>
      </trkpt>
      <trkpt lat="47.94404" lon="-2.53138">
        <ele>72.6</ele>
        <time>2024-12-19T08:06:35Z</time>
      </trkpt>
      <trkpt lat="47.94404" lon="-2.53137">
        <ele>72.5</ele>
        <time>2024-12-19T08:06:36Z</time>
      </trkpt>
      <trkpt lat="47.94403" lon="-2.53136">
        <ele>72.5</ele>
        <time>2024-12-19T08:06:37Z</time>
      </trkpt>
      <trkpt lat="47.94403" lon="-2.53135">
        <ele>72.5</ele>
        <time>2024-12-19T08:06:38Z</time>
      </trkpt>
      <trkpt lat="47.94404" lon="-2.53133">
        <ele>72.5</ele>
        <time>2024-12-19T08:06:39Z</time>
      </trkpt>
      <trkpt lat="47.94404" lon="-2.53131">
        <ele>72.5</ele>
        <time>2024-12-19T08:06:40Z</time>
      </trkpt>
      <trkpt lat="47.94403" lon="-2.5313">
        <ele>72.5</ele>
        <time>2024-12-19T08:06:41Z</time>
      </trkpt>
      <trkpt lat="47.94402" lon="-2.5313">
        <ele>72.5</ele>
        <time>2024-12-19T08:06:42Z</time>
      </trkpt>
      <trkpt lat="47.944" lon="-2.5313">
        <ele>72.4</ele>
        <time>2024-12-19T08:06:43Z</time>
      </trkpt>
      <trkpt lat="47.94399" lon="-2.5313">
        <ele>72.4</ele>
        <time>2024-12-19T08:06:44Z</time>
      </trkpt>
      <trkpt lat="47.94398" lon="-2.53129">
        <ele>72.3</ele>
        <time>2024-12-19T08:06:45Z</time>
      </trkpt>
      <trkpt lat="47.94397" lon="-2.53128">
        <ele>72.3</ele>
        <time>2024-12-19T08:06:46Z</time>
      </trkpt>
      <trkpt lat="47.94397" lon="-2.53127">
        <ele>72.3</ele>
        <time>2024-12-19T08:06:47Z</time>
      </trkpt>
      <trkpt lat="47.94396" lon="-2.53126">
        <ele>72.2</ele>
        <time>2024-12-19T08:06:48Z</time>
      </trkpt>
      <trkpt lat="47.94395" lon="-2.53125">
        <ele>72.2</ele>
        <time>2024-12-19T08:06:49Z</time>
      </trkpt>
      <trkpt lat="47.94394" lon="-2.53124">
        <ele>72.2</ele>
        <time>2024-12-19T08:06:50Z</time>
      </trkpt>
      <trkpt lat="47.94393" lon="-2.53122">
        <ele>72.1</ele>
        <time>2024-12-19T08:06:51Z</time>
      </trkpt>
      <trkpt lat="47.94392" lon="-2.53121">
        <ele>72.1</ele>
        <time>2024-12-19T08:06:52Z</time>
      </trkpt>
      <trkpt lat="47.94391" lon="-2.53121">
        <ele>72.1</ele>
        <time>2024-12-19T08:06:53Z</time>
      </trkpt>
      <trkpt lat="47.9439" lon="-2.53119">
        <ele>72</ele>
        <time>2024-12-19T08:06:54Z</time>
      </trkpt>
      <trkpt lat="47.94389" lon="-2.53118">
        <ele>72</ele>
        <time>2024-12-19T08:06:55Z</time>
      </trkpt>
      <trkpt lat="47.94388" lon="-2.53117">
        <ele>71.9</ele>
        <time>2024-12-19T08:06:56Z</time>
      </trkpt>
      <trkpt lat="47.94387" lon="-2.53116">
        <ele>71.9</ele>
        <time>2024-12-19T08:06:57Z</time>
      </trkpt>
      <trkpt lat="47.94387" lon="-2.53115">
        <ele>71.8</ele>
        <time>2024-12-19T08:06:58Z</time>
      </trkpt>
      <trkpt lat="47.94386" lon="-2.53114">
        <ele>71.8</ele>
        <time>2024-12-19T08:06:59Z</time>
      </trkpt>
      <trkpt lat="47.94386" lon="-2.53112">
        <ele>71.8</ele>
        <time>2024-12-19T08:07:00Z</time>
      </trkpt>
      <trkpt lat="47.94384" lon="-2.53111">
        <ele>71.7</ele>
        <time>2024-12-19T08:07:01Z</time>
      </trkpt>
      <trkpt lat="47.94383" lon="-2.53111">
        <ele>71.6</ele>
        <time>2024-12-19T08:07:02Z</time>
      </trkpt>
      <trkpt lat="47.94382" lon="-2.53109">
        <ele>71.4</ele>
        <time>2024-12-19T08:07:03Z</time>
      </trkpt>
      <trkpt lat="47.9438" lon="-2.53108">
        <ele>71.3</ele>
        <time>2024-12-19T08:07:04Z</time>
      </trkpt>
      <trkpt lat="47.94379" lon="-2.53107">
        <ele>71.2</ele>
        <time>2024-12-19T08:07:05Z</time>
      </trkpt>
      <trkpt lat="47.94378" lon="-2.53106">
        <ele>71.1</ele>
        <time>2024-12-19T08:07:06Z</time>
      </trkpt>
      <trkpt lat="47.94376" lon="-2.53105">
        <ele>71</ele>
        <time>2024-12-19T08:07:07Z</time>
      </trkpt>
      <trkpt lat="47.94374" lon="-2.53104">
        <ele>70.8</ele>
        <time>2024-12-19T08:07:08Z</time>
      </trkpt>
      <trkpt lat="47.94373" lon="-2.53103">
        <ele>70.7</ele>
        <time>2024-12-19T08:07:09Z</time>
      </trkpt>
      <trkpt lat="47.94372" lon="-2.53103">
        <ele>70.7</ele>
        <time>2024-12-19T08:07:10Z</time>
      </trkpt>
      <trkpt lat="47.94371" lon="-2.53103">
        <ele>70.6</ele>
        <time>2024-12-19T08:07:11Z</time>
      </trkpt>
      <trkpt lat="47.94371" lon="-2.53103">
        <ele>70.6</ele>
        <time>2024-12-19T08:07:12Z</time>
      </trkpt>
      <trkpt lat="47.9437" lon="-2.53102">
        <ele>70.6</ele>
        <time>2024-12-19T08:07:13Z</time>
      </trkpt>
      <trkpt lat="47.9437" lon="-2.53101">
        <ele>70.5</ele>
        <time>2024-12-19T08:07:14Z</time>
      </trkpt>
      <trkpt lat="47.94369" lon="-2.53101">
        <ele>70.5</ele>
        <time>2024-12-19T08:07:15Z</time>
      </trkpt>
      <trkpt lat="47.94369" lon="-2.531">
        <ele>70.4</ele>
        <time>2024-12-19T08:07:16Z</time>
      </trkpt>
      <trkpt lat="47.94368" lon="-2.53099">
        <ele>70.4</ele>
        <time>2024-12-19T08:07:17Z</time>
      </trkpt>
      <trkpt lat="47.94366" lon="-2.53098">
        <ele>70.3</ele>
        <time>2024-12-19T08:07:18Z</time>
      </trkpt>
      <trkpt lat="47.94365" lon="-2.53096">
        <ele>70.2</ele>
        <time>2024-12-19T08:07:19Z</time>
      </trkpt>
      <trkpt lat="47.94364" lon="-2.53095">
        <ele>70.1</ele>
        <time>2024-12-19T08:07:20Z</time>
      </trkpt>
      <trkpt lat="47.94363" lon="-2.53094">
        <ele>70.1</ele>
        <time>2024-12-19T08:07:21Z</time>
      </trkpt>
      <trkpt lat="47.94363" lon="-2.53093">
        <ele>70.1</ele>
        <time>2024-12-19T08:07:22Z</time>
      </trkpt>
      <trkpt lat="47.94362" lon="-2.53092">
        <ele>70</ele>
        <time>2024-12-19T08:07:23Z</time>
      </trkpt>
      <trkpt lat="47.94361" lon="-2.53092">
        <ele>70</ele>
        <time>2024-12-19T08:07:24Z</time>
      </trkpt>
      <trkpt lat="47.9436" lon="-2.53091">
        <ele>69.8</ele>
        <time>2024-12-19T08:07:25Z</time>
      </trkpt>
      <trkpt lat="47.94359" lon="-2.53089">
        <ele>69.6</ele>
        <time>2024-12-19T08:07:26Z</time>
      </trkpt>
      <trkpt lat="47.94358" lon="-2.53088">
        <ele>69.5</ele>
        <time>2024-12-19T08:07:27Z</time>
      </trkpt>
      <trkpt lat="47.94356" lon="-2.53087">
        <ele>69.3</ele>
        <time>2024-12-19T08:07:28Z</time>
      </trkpt>
      <trkpt lat="47.94355" lon="-2.53085">
        <ele>69.2</ele>
        <time>2024-12-19T08:07:29Z</time>
      </trkpt>
      <trkpt lat="47.94354" lon="-2.53084">
        <ele>69</ele>
        <time>2024-12-19T08:07:30Z</time>
      </trkpt>
      <trkpt lat="47.94354" lon="-2.53082">
        <ele>68.8</ele>
        <time>2024-12-19T08:07:31Z</time>
      </trkpt>
      <trkpt lat="47.94353" lon="-2.5308">
        <ele>68.6</ele>
        <time>2024-12-19T08:07:32Z</time>
      </trkpt>
      <trkpt lat="47.94352" lon="-2.53078">
        <ele>68.4</ele>
        <time>2024-12-19T08:07:33Z</time>
      </trkpt>
      <trkpt lat="47.94351" lon="-2.53077">
        <ele>68.2</ele>
        <time>2024-12-19T08:07:34Z</time>
      </trkpt>
      <trkpt lat="47.94351" lon="-2.53076">
        <ele>68</ele>
        <time>2024-12-19T08:07:35Z</time>
      </trkpt>
      <trkpt lat="47.9435" lon="-2.53075">
        <ele>67.9</ele>
        <time>2024-12-19T08:07:36Z</time>
      </trkpt>
      <trkpt lat="47.94349" lon="-2.53075">
        <ele>67.8</ele>
        <time>2024-12-19T08:07:37Z</time>
      </trkpt>
      <trkpt lat="47.94348" lon="-2.53074">
        <ele>67.6</ele>
        <time>2024-12-19T08:07:38Z</time>
      </trkpt>
      <trkpt lat="47.94347" lon="-2.53072">
        <ele>67.4</ele>
        <time>2024-12-19T08:07:39Z</time>
      </trkpt>
      <trkpt lat="47.94347" lon="-2.53071">
        <ele>67.2</ele>
        <time>2024-12-19T08:07:40Z</time>
      </trkpt>
      <trkpt lat="47.94346" lon="-2.53069">
        <ele>67.1</ele>
        <time>2024-12-19T08:07:41Z</time>
      </trkpt>
      <trkpt lat="47.94345" lon="-2.53069">
        <ele>67</ele>
        <time>2024-12-19T08:07:42Z</time>
      </trkpt>
      <trkpt lat="47.94345" lon="-2.53068">
        <ele>66.9</ele>
        <time>2024-12-19T08:07:43Z</time>
      </trkpt>
      <trkpt lat="47.94344" lon="-2.53066">
        <ele>66.7</ele>
        <time>2024-12-19T08:07:44Z</time>
      </trkpt>
      <trkpt lat="47.94344" lon="-2.53065">
        <ele>66.6</ele>
        <time>2024-12-19T08:07:45Z</time>
      </trkpt>
      <trkpt lat="47.94343" lon="-2.53065">
        <ele>66.5</ele>
        <time>2024-12-19T08:07:46Z</time>
      </trkpt>
      <trkpt lat="47.94342" lon="-2.53066">
        <ele>66.4</ele>
        <time>2024-12-19T08:07:47Z</time>
      </trkpt>
      <trkpt lat="47.94341" lon="-2.53065">
        <ele>66.3</ele>
        <time>2024-12-19T08:07:48Z</time>
      </trkpt>
      <trkpt lat="47.9434" lon="-2.53064">
        <ele>66.1</ele>
        <time>2024-12-19T08:07:49Z</time>
      </trkpt>
      <trkpt lat="47.94339" lon="-2.53064">
        <ele>66</ele>
        <time>2024-12-19T08:07:50Z</time>
      </trkpt>
      <trkpt lat="47.94338" lon="-2.53064">
        <ele>65.8</ele>
        <time>2024-12-19T08:07:51Z</time>
      </trkpt>
      <trkpt lat="47.94337" lon="-2.53064">
        <ele>65.7</ele>
        <time>2024-12-19T08:07:52Z</time>
      </trkpt>
      <trkpt lat="47.94336" lon="-2.53063">
        <ele>65.6</ele>
        <time>2024-12-19T08:07:53Z</time>
      </trkpt>
      <trkpt lat="47.94336" lon="-2.53062">
        <ele>65.5</ele>
        <time>2024-12-19T08:07:54Z</time>
      </trkpt>
      <trkpt lat="47.94335" lon="-2.5306">
        <ele>65.3</ele>
        <time>2024-12-19T08:07:55Z</time>
      </trkpt>
      <trkpt lat="47.94334" lon="-2.53058">
        <ele>65.1</ele>
        <time>2024-12-19T08:07:56Z</time>
      </trkpt>
      <trkpt lat="47.94333" lon="-2.53056">
        <ele>65</ele>
        <time>2024-12-19T08:07:57Z</time>
      </trkpt>
      <trkpt lat="47.94332" lon="-2.53055">
        <ele>64.7</ele>
        <time>2024-12-19T08:07:58Z</time>
      </trkpt>
      <trkpt lat="47.94332" lon="-2.53052">
        <ele>64.4</ele>
        <time>2024-12-19T08:07:59Z</time>
      </trkpt>
      <trkpt lat="47.94331" lon="-2.53048">
        <ele>63.7</ele>
        <time>2024-12-19T08:08:00Z</time>
      </trkpt>
      <trkpt lat="47.94331" lon="-2.53044">
        <ele>63.3</ele>
        <time>2024-12-19T08:08:01Z</time>
      </trkpt>
      <trkpt lat="47.9433" lon="-2.53042">
        <ele>62.9</ele>
        <time>2024-12-19T08:08:02Z</time>
      </trkpt>
      <trkpt lat="47.9433" lon="-2.53041">
        <ele>62.8</ele>
        <time>2024-12-19T08:08:03Z</time>
      </trkpt>
      <trkpt lat="47.94329" lon="-2.5304">
        <ele>62.6</ele>
        <time>2024-12-19T08:08:04Z</time>
      </trkpt>
      <trkpt lat="47.94329" lon="-2.53038">
        <ele>62.4</ele>
        <time>2024-12-19T08:08:05Z</time>
      </trkpt>
      <trkpt lat="47.94329" lon="-2.53037">
        <ele>62.3</ele>
        <time>2024-12-19T08:08:06Z</time>
      </trkpt>
      <trkpt lat="47.94329" lon="-2.53036">
        <ele>62</ele>
        <time>2024-12-19T08:08:07Z</time>
      </trkpt>
      <trkpt lat="47.94328" lon="-2.53034">
        <ele>61.6</ele>
        <time>2024-12-19T08:08:08Z</time>
      </trkpt>
      <trkpt lat="47.94328" lon="-2.53033">
        <ele>61.5</ele>
        <time>2024-12-19T08:08:09Z</time>
      </trkpt>
      <trkpt lat="47.94328" lon="-2.53033">
        <ele>61.5</ele>
        <time>2024-12-19T08:08:10Z</time>
      </trkpt>
      <trkpt lat="47.94327" lon="-2.53032">
        <ele>61.4</ele>
        <time>2024-12-19T08:08:11Z</time>
      </trkpt>
      <trkpt lat="47.94327" lon="-2.53032">
        <ele>61.3</ele>
        <time>2024-12-19T08:08:12Z</time>
      </trkpt>
      <trkpt lat="47.94327" lon="-2.53031">
        <ele>61.3</ele>
        <time>2024-12-19T08:08:13Z</time>
      </trkpt>
      <trkpt lat="47.94327" lon="-2.53031">
        <ele>61.2</ele>
        <time>2024-12-19T08:08:14Z</time>
      </trkpt>
      <trkpt lat="47.94327" lon="-2.5303">
        <ele>61.2</ele>
        <time>2024-12-19T08:08:15Z</time>
      </trkpt>
      <trkpt lat="47.94327" lon="-2.53029">
        <ele>61.1</ele>
        <time>2024-12-19T08:08:16Z</time>
      </trkpt>
      <trkpt lat="47.94327" lon="-2.53029">
        <ele>61</ele>
        <time>2024-12-19T08:08:17Z</time>
      </trkpt>
      <trkpt lat="47.94327" lon="-2.53028">
        <ele>60.9</ele>
        <time>2024-12-19T08:08:18Z</time>
      </trkpt>
      <trkpt lat="47.94327" lon="-2.53028">
        <ele>60.9</ele>
        <time>2024-12-19T08:08:19Z</time>
      </trkpt>
      <trkpt lat="47.94327" lon="-2.53028">
        <ele>60.9</ele>
        <time>2024-12-19T08:08:20Z</time>
      </trkpt>
      <trkpt lat="47.94327" lon="-2.53027">
        <ele>60.9</ele>
        <time>2024-12-19T08:08:21Z</time>
      </trkpt>
      <trkpt lat="47.94327" lon="-2.53027">
        <ele>60.9</ele>
        <time>2024-12-19T08:08:22Z</time>
      </trkpt>
      <trkpt lat="47.94327" lon="-2.53027">
        <ele>60.9</ele>
        <time>2024-12-19T08:08:23Z</time>
      </trkpt>
      <trkpt lat="47.94327" lon="-2.53027">
        <ele>60.9</ele>
        <time>2024-12-19T08:08:24Z</time>
      </trkpt>
      <trkpt lat="47.94327" lon="-2.53026">
        <ele>60.7</ele>
        <time>2024-12-19T08:08:25Z</time>
      </trkpt>
      <trkpt lat="47.94325" lon="-2.53024">
        <ele>60.4</ele>
        <time>2024-12-19T08:08:26Z</time>
      </trkpt>
      <trkpt lat="47.94324" lon="-2.53023">
        <ele>60.1</ele>
        <time>2024-12-19T08:08:27Z</time>
      </trkpt>
      <trkpt lat="47.94323" lon="-2.53022">
        <ele>59.8</ele>
        <time>2024-12-19T08:08:28Z</time>
      </trkpt>
      <trkpt lat="47.94323" lon="-2.5302">
        <ele>59.6</ele>
        <time>2024-12-19T08:08:29Z</time>
      </trkpt>
      <trkpt lat="47.94322" lon="-2.53018">
        <ele>59.4</ele>
        <time>2024-12-19T08:08:30Z</time>
      </trkpt>
      <trkpt lat="47.94321" lon="-2.53015">
        <ele>59.1</ele>
        <time>2024-12-19T08:08:31Z</time>
      </trkpt>
      <trkpt lat="47.9432" lon="-2.53013">
        <ele>58.7</ele>
        <time>2024-12-19T08:08:32Z</time>
      </trkpt>
      <trkpt lat="47.94319" lon="-2.5301">
        <ele>58.4</ele>
        <time>2024-12-19T08:08:33Z</time>
      </trkpt>
      <trkpt lat="47.94317" lon="-2.53008">
        <ele>58.1</ele>
        <time>2024-12-19T08:08:34Z</time>
      </trkpt>
      <trkpt lat="47.94316" lon="-2.53006">
        <ele>57.9</ele>
        <time>2024-12-19T08:08:35Z</time>
      </trkpt>
      <trkpt lat="47.94316" lon="-2.53004">
        <ele>57.6</ele>
        <time>2024-12-19T08:08:36Z</time>
      </trkpt>
      <trkpt lat="47.94315" lon="-2.53002">
        <ele>57.5</ele>
        <time>2024-12-19T08:08:37Z</time>
      </trkpt>
      <trkpt lat="47.94315" lon="-2.53001">
        <ele>57.3</ele>
        <time>2024-12-19T08:08:38Z</time>
      </trkpt>
      <trkpt lat="47.94314" lon="-2.53">
        <ele>57.2</ele>
        <time>2024-12-19T08:08:39Z</time>
      </trkpt>
      <trkpt lat="47.94313" lon="-2.52998">
        <ele>57.1</ele>
        <time>2024-12-19T08:08:40Z</time>
      </trkpt>
      <trkpt lat="47.94313" lon="-2.52996">
        <ele>57</ele>
        <time>2024-12-19T08:08:41Z</time>
      </trkpt>
      <trkpt lat="47.94312" lon="-2.52994">
        <ele>56.8</ele>
        <time>2024-12-19T08:08:42Z</time>
      </trkpt>
      <trkpt lat="47.94312" lon="-2.52991">
        <ele>56.8</ele>
        <time>2024-12-19T08:08:43Z</time>
      </trkpt>
      <trkpt lat="47.94312" lon="-2.52988">
        <ele>56.7</ele>
        <time>2024-12-19T08:08:44Z</time>
      </trkpt>
      <trkpt lat="47.94311" lon="-2.52986">
        <ele>56.6</ele>
        <time>2024-12-19T08:08:45Z</time>
      </trkpt>
      <trkpt lat="47.94311" lon="-2.52984">
        <ele>56.5</ele>
        <time>2024-12-19T08:08:46Z</time>
      </trkpt>
      <trkpt lat="47.9431" lon="-2.52982">
        <ele>56.4</ele>
        <time>2024-12-19T08:08:47Z</time>
      </trkpt>
      <trkpt lat="47.9431" lon="-2.52981">
        <ele>56.4</ele>
        <time>2024-12-19T08:08:48Z</time>
      </trkpt>
      <trkpt lat="47.94309" lon="-2.52979">
        <ele>56.3</ele>
        <time>2024-12-19T08:08:49Z</time>
      </trkpt>
      <trkpt lat="47.94308" lon="-2.52977">
        <ele>56.2</ele>
        <time>2024-12-19T08:08:50Z</time>
      </trkpt>
      <trkpt lat="47.94307" lon="-2.52975">
        <ele>56.1</ele>
        <time>2024-12-19T08:08:51Z</time>
      </trkpt>
      <trkpt lat="47.94307" lon="-2.52974">
        <ele>56.1</ele>
        <time>2024-12-19T08:08:52Z</time>
      </trkpt>
      <trkpt lat="47.94306" lon="-2.52973">
        <ele>56</ele>
        <time>2024-12-19T08:08:53Z</time>
      </trkpt>
      <trkpt lat="47.94306" lon="-2.52973">
        <ele>56.1</ele>
        <time>2024-12-19T08:08:54Z</time>
      </trkpt>
      <trkpt lat="47.94306" lon="-2.52973">
        <ele>56.1</ele>
        <time>2024-12-19T08:08:55Z</time>
      </trkpt>
      <trkpt lat="47.94306" lon="-2.52973">
        <ele>56</ele>
        <time>2024-12-19T08:08:56Z</time>
      </trkpt>
      <trkpt lat="47.94306" lon="-2.52972">
        <ele>56</ele>
        <time>2024-12-19T08:08:57Z</time>
      </trkpt>
      <trkpt lat="47.94306" lon="-2.52972">
        <ele>56.1</ele>
        <time>2024-12-19T08:08:58Z</time>
      </trkpt>
      <trkpt lat="47.94306" lon="-2.52971">
        <ele>56.1</ele>
        <time>2024-12-19T08:08:59Z</time>
      </trkpt>
      <trkpt lat="47.94305" lon="-2.52969">
        <ele>56.2</ele>
        <time>2024-12-19T08:09:00Z</time>
      </trkpt>
      <trkpt lat="47.94305" lon="-2.52968">
        <ele>56.3</ele>
        <time>2024-12-19T08:09:01Z</time>
      </trkpt>
      <trkpt lat="47.94304" lon="-2.52967">
        <ele>56.4</ele>
        <time>2024-12-19T08:09:02Z</time>
      </trkpt>
      <trkpt lat="47.94304" lon="-2.52966">
        <ele>56.5</ele>
        <time>2024-12-19T08:09:03Z</time>
      </trkpt>
      <trkpt lat="47.94304" lon="-2.52966">
        <ele>56.4</ele>
        <time>2024-12-19T08:09:04Z</time>
      </trkpt>
      <trkpt lat="47.94304" lon="-2.52967">
        <ele>56.4</ele>
        <time>2024-12-19T08:09:05Z</time>
      </trkpt>
      <trkpt lat="47.94304" lon="-2.52966">
        <ele>56.5</ele>
        <time>2024-12-19T08:09:06Z</time>
      </trkpt>
      <trkpt lat="47.94303" lon="-2.52965">
        <ele>56.6</ele>
        <time>2024-12-19T08:09:07Z</time>
      </trkpt>
      <trkpt lat="47.94302" lon="-2.52964">
        <ele>56.7</ele>
        <time>2024-12-19T08:09:08Z</time>
      </trkpt>
      <trkpt lat="47.94302" lon="-2.52964">
        <ele>56.7</ele>
        <time>2024-12-19T08:09:09Z</time>
      </trkpt>
      <trkpt lat="47.94301" lon="-2.52965">
        <ele>56.6</ele>
        <time>2024-12-19T08:09:10Z</time>
      </trkpt>
      <trkpt lat="47.94301" lon="-2.52965">
        <ele>56.6</ele>
        <time>2024-12-19T08:09:11Z</time>
      </trkpt>
      <trkpt lat="47.943" lon="-2.52966">
        <ele>56.6</ele>
        <time>2024-12-19T08:09:12Z</time>
      </trkpt>
      <trkpt lat="47.94299" lon="-2.52967">
        <ele>56.5</ele>
        <time>2024-12-19T08:09:13Z</time>
      </trkpt>
      <trkpt lat="47.94298" lon="-2.52967">
        <ele>56.5</ele>
        <time>2024-12-19T08:09:14Z</time>
      </trkpt>
      <trkpt lat="47.94297" lon="-2.52967">
        <ele>56.5</ele>
        <time>2024-12-19T08:09:15Z</time>
      </trkpt>
      <trkpt lat="47.94296" lon="-2.52968">
        <ele>56.5</ele>
        <time>2024-12-19T08:09:16Z</time>
      </trkpt>
      <trkpt lat="47.94295" lon="-2.52967">
        <ele>56.5</ele>
        <time>2024-12-19T08:09:17Z</time>
      </trkpt>
      <trkpt lat="47.94293" lon="-2.52967">
        <ele>56.6</ele>
        <time>2024-12-19T08:09:19Z</time>
      </trkpt>
      <trkpt lat="47.94292" lon="-2.52967">
        <ele>56.6</ele>
        <time>2024-12-19T08:09:20Z</time>
      </trkpt>
      <trkpt lat="47.94292" lon="-2.52967">
        <ele>56.6</ele>
        <time>2024-12-19T08:09:21Z</time>
      </trkpt>
      <trkpt lat="47.94291" lon="-2.52966">
        <ele>56.7</ele>
        <time>2024-12-19T08:09:24Z</time>
      </trkpt>
      <trkpt lat="47.94291" lon="-2.52966">
        <ele>56.7</ele>
        <time>2024-12-19T08:09:25Z</time>
      </trkpt>
      <trkpt lat="47.9429" lon="-2.52967">
        <ele>56.6</ele>
        <time>2024-12-19T08:09:26Z</time>
      </trkpt>
      <trkpt lat="47.94289" lon="-2.52967">
        <ele>56.6</ele>
        <time>2024-12-19T08:09:27Z</time>
      </trkpt>
      <trkpt lat="47.94288" lon="-2.52968">
        <ele>56.5</ele>
        <time>2024-12-19T08:09:28Z</time>
      </trkpt>
      <trkpt lat="47.94288" lon="-2.52968">
        <ele>56.5</ele>
        <time>2024-12-19T08:09:29Z</time>
      </trkpt>
      <trkpt lat="47.94288" lon="-2.52968">
        <ele>56.5</ele>
        <time>2024-12-19T08:09:30Z</time>
      </trkpt>
      <trkpt lat="47.94286" lon="-2.52969">
        <ele>56.4</ele>
        <time>2024-12-19T08:09:31Z</time>
      </trkpt>
      <trkpt lat="47.94285" lon="-2.5297">
        <ele>56.3</ele>
        <time>2024-12-19T08:09:32Z</time>
      </trkpt>
      <trkpt lat="47.94284" lon="-2.5297">
        <ele>56.3</ele>
        <time>2024-12-19T08:09:33Z</time>
      </trkpt>
      <trkpt lat="47.94283" lon="-2.52971">
        <ele>56.2</ele>
        <time>2024-12-19T08:09:34Z</time>
      </trkpt>
      <trkpt lat="47.94282" lon="-2.52971">
        <ele>56.1</ele>
        <time>2024-12-19T08:09:35Z</time>
      </trkpt>
      <trkpt lat="47.94281" lon="-2.52972">
        <ele>56.1</ele>
        <time>2024-12-19T08:09:36Z</time>
      </trkpt>
      <trkpt lat="47.94279" lon="-2.52972">
        <ele>56</ele>
        <time>2024-12-19T08:09:37Z</time>
      </trkpt>
      <trkpt lat="47.94278" lon="-2.52973">
        <ele>56</ele>
        <time>2024-12-19T08:09:38Z</time>
      </trkpt>
      <trkpt lat="47.94277" lon="-2.52973">
        <ele>56.1</ele>
        <time>2024-12-19T08:09:39Z</time>
      </trkpt>
      <trkpt lat="47.94275" lon="-2.52973">
        <ele>56.2</ele>
        <time>2024-12-19T08:09:40Z</time>
      </trkpt>
      <trkpt lat="47.94274" lon="-2.52973">
        <ele>56.3</ele>
        <time>2024-12-19T08:09:41Z</time>
      </trkpt>
      <trkpt lat="47.94274" lon="-2.52973">
        <ele>56.4</ele>
        <time>2024-12-19T08:09:42Z</time>
      </trkpt>
      <trkpt lat="47.94273" lon="-2.52974">
        <ele>56.4</ele>
        <time>2024-12-19T08:09:43Z</time>
      </trkpt>
      <trkpt lat="47.94271" lon="-2.52974">
        <ele>56.5</ele>
        <time>2024-12-19T08:09:44Z</time>
      </trkpt>
      <trkpt lat="47.9427" lon="-2.52974">
        <ele>56.6</ele>
        <time>2024-12-19T08:09:45Z</time>
      </trkpt>
      <trkpt lat="47.94269" lon="-2.52974">
        <ele>56.7</ele>
        <time>2024-12-19T08:09:46Z</time>
      </trkpt>
      <trkpt lat="47.94269" lon="-2.52974">
        <ele>56.8</ele>
        <time>2024-12-19T08:09:47Z</time>
      </trkpt>
      <trkpt lat="47.94268" lon="-2.52975">
        <ele>56.8</ele>
        <time>2024-12-19T08:09:48Z</time>
      </trkpt>
      <trkpt lat="47.94267" lon="-2.52975">
        <ele>56.9</ele>
        <time>2024-12-19T08:09:49Z</time>
      </trkpt>
      <trkpt lat="47.94266" lon="-2.52976">
        <ele>56.9</ele>
        <time>2024-12-19T08:09:50Z</time>
      </trkpt>
      <trkpt lat="47.94265" lon="-2.52976">
        <ele>57</ele>
        <time>2024-12-19T08:09:51Z</time>
      </trkpt>
      <trkpt lat="47.94264" lon="-2.52976">
        <ele>57</ele>
        <time>2024-12-19T08:09:52Z</time>
      </trkpt>
      <trkpt lat="47.94264" lon="-2.52976">
        <ele>57.1</ele>
        <time>2024-12-19T08:09:53Z</time>
      </trkpt>
      <trkpt lat="47.94264" lon="-2.52976">
        <ele>57.1</ele>
        <time>2024-12-19T08:09:54Z</time>
      </trkpt>
      <trkpt lat="47.94263" lon="-2.52976">
        <ele>57.3</ele>
        <time>2024-12-19T08:09:55Z</time>
      </trkpt>
      <trkpt lat="47.94262" lon="-2.52975">
        <ele>57.4</ele>
        <time>2024-12-19T08:09:56Z</time>
      </trkpt>
      <trkpt lat="47.94261" lon="-2.52976">
        <ele>57.4</ele>
        <time>2024-12-19T08:09:57Z</time>
      </trkpt>
      <trkpt lat="47.9426" lon="-2.52976">
        <ele>57.5</ele>
        <time>2024-12-19T08:09:58Z</time>
      </trkpt>
      <trkpt lat="47.94259" lon="-2.52976">
        <ele>57.5</ele>
        <time>2024-12-19T08:09:59Z</time>
      </trkpt>
      <trkpt lat="47.94259" lon="-2.52977">
        <ele>57.6</ele>
        <time>2024-12-19T08:10:00Z</time>
      </trkpt>
      <trkpt lat="47.94257" lon="-2.52979">
        <ele>57.5</ele>
        <time>2024-12-19T08:10:01Z</time>
      </trkpt>
      <trkpt lat="47.94256" lon="-2.5298">
        <ele>57.5</ele>
        <time>2024-12-19T08:10:02Z</time>
      </trkpt>
      <trkpt lat="47.94256" lon="-2.52981">
        <ele>57.5</ele>
        <time>2024-12-19T08:10:03Z</time>
      </trkpt>
      <trkpt lat="47.94255" lon="-2.52981">
        <ele>57.5</ele>
        <time>2024-12-19T08:10:04Z</time>
      </trkpt>
      <trkpt lat="47.94254" lon="-2.52981">
        <ele>57.5</ele>
        <time>2024-12-19T08:10:05Z</time>
      </trkpt>
      <trkpt lat="47.94254" lon="-2.52981">
        <ele>57.6</ele>
        <time>2024-12-19T08:10:06Z</time>
      </trkpt>
      <trkpt lat="47.94253" lon="-2.52982">
        <ele>57.6</ele>
        <time>2024-12-19T08:10:07Z</time>
      </trkpt>
      <trkpt lat="47.94253" lon="-2.52982">
        <ele>57.7</ele>
        <time>2024-12-19T08:10:08Z</time>
      </trkpt>
      <trkpt lat="47.94252" lon="-2.52982">
        <ele>57.7</ele>
        <time>2024-12-19T08:10:09Z</time>
      </trkpt>
      <trkpt lat="47.94251" lon="-2.52983">
        <ele>57.7</ele>
        <time>2024-12-19T08:10:10Z</time>
      </trkpt>
      <trkpt lat="47.9425" lon="-2.52984">
        <ele>57.7</ele>
        <time>2024-12-19T08:10:11Z</time>
      </trkpt>
      <trkpt lat="47.94249" lon="-2.52985">
        <ele>57.8</ele>
        <time>2024-12-19T08:10:12Z</time>
      </trkpt>
      <trkpt lat="47.94248" lon="-2.52986">
        <ele>58</ele>
        <time>2024-12-19T08:10:13Z</time>
      </trkpt>
      <trkpt lat="47.94246" lon="-2.52986">
        <ele>58.2</ele>
        <time>2024-12-19T08:10:14Z</time>
      </trkpt>
      <trkpt lat="47.94245" lon="-2.52987">
        <ele>58.4</ele>
        <time>2024-12-19T08:10:15Z</time>
      </trkpt>
      <trkpt lat="47.94244" lon="-2.52988">
        <ele>58.5</ele>
        <time>2024-12-19T08:10:16Z</time>
      </trkpt>
      <trkpt lat="47.94243" lon="-2.52988">
        <ele>58.6</ele>
        <time>2024-12-19T08:10:17Z</time>
      </trkpt>
      <trkpt lat="47.94242" lon="-2.52988">
        <ele>58.8</ele>
        <time>2024-12-19T08:10:18Z</time>
      </trkpt>
      <trkpt lat="47.94241" lon="-2.52988">
        <ele>59</ele>
        <time>2024-12-19T08:10:19Z</time>
      </trkpt>
      <trkpt lat="47.9424" lon="-2.52989">
        <ele>59.1</ele>
        <time>2024-12-19T08:10:20Z</time>
      </trkpt>
      <trkpt lat="47.94239" lon="-2.5299">
        <ele>59.2</ele>
        <time>2024-12-19T08:10:21Z</time>
      </trkpt>
      <trkpt lat="47.94239" lon="-2.5299">
        <ele>59.3</ele>
        <time>2024-12-19T08:10:22Z</time>
      </trkpt>
      <trkpt lat="47.94238" lon="-2.52991">
        <ele>59.4</ele>
        <time>2024-12-19T08:10:23Z</time>
      </trkpt>
      <trkpt lat="47.94237" lon="-2.52991">
        <ele>59.4</ele>
        <time>2024-12-19T08:10:24Z</time>
      </trkpt>
      <trkpt lat="47.94237" lon="-2.52991">
        <ele>59.5</ele>
        <time>2024-12-19T08:10:25Z</time>
      </trkpt>
      <trkpt lat="47.94236" lon="-2.52991">
        <ele>59.6</ele>
        <time>2024-12-19T08:10:26Z</time>
      </trkpt>
      <trkpt lat="47.94236" lon="-2.52992">
        <ele>59.6</ele>
        <time>2024-12-19T08:10:27Z</time>
      </trkpt>
      <trkpt lat="47.94235" lon="-2.52992">
        <ele>59.8</ele>
        <time>2024-12-19T08:10:28Z</time>
      </trkpt>
      <trkpt lat="47.94234" lon="-2.52992">
        <ele>59.9</ele>
        <time>2024-12-19T08:10:29Z</time>
      </trkpt>
      <trkpt lat="47.94233" lon="-2.52992">
        <ele>60.1</ele>
        <time>2024-12-19T08:10:30Z</time>
      </trkpt>
      <trkpt lat="47.94231" lon="-2.52992">
        <ele>60.4</ele>
        <time>2024-12-19T08:10:31Z</time>
      </trkpt>
      <trkpt lat="47.9423" lon="-2.52992">
        <ele>60.7</ele>
        <time>2024-12-19T08:10:32Z</time>
      </trkpt>
      <trkpt lat="47.94228" lon="-2.52992">
        <ele>61</ele>
        <time>2024-12-19T08:10:33Z</time>
      </trkpt>
      <trkpt lat="47.94227" lon="-2.52993">
        <ele>61.2</ele>
        <time>2024-12-19T08:10:34Z</time>
      </trkpt>
      <trkpt lat="47.94226" lon="-2.52993">
        <ele>61.3</ele>
        <time>2024-12-19T08:10:35Z</time>
      </trkpt>
      <trkpt lat="47.94225" lon="-2.52993">
        <ele>61.5</ele>
        <time>2024-12-19T08:10:36Z</time>
      </trkpt>
      <trkpt lat="47.94224" lon="-2.52992">
        <ele>61.7</ele>
        <time>2024-12-19T08:10:37Z</time>
      </trkpt>
      <trkpt lat="47.94224" lon="-2.52992">
        <ele>61.9</ele>
        <time>2024-12-19T08:10:38Z</time>
      </trkpt>
      <trkpt lat="47.94223" lon="-2.52992">
        <ele>62.1</ele>
        <time>2024-12-19T08:10:39Z</time>
      </trkpt>
      <trkpt lat="47.94222" lon="-2.52991">
        <ele>62.2</ele>
        <time>2024-12-19T08:10:40Z</time>
      </trkpt>
      <trkpt lat="47.94222" lon="-2.52991">
        <ele>62.4</ele>
        <time>2024-12-19T08:10:41Z</time>
      </trkpt>
      <trkpt lat="47.94221" lon="-2.52991">
        <ele>62.5</ele>
        <time>2024-12-19T08:10:42Z</time>
      </trkpt>
      <trkpt lat="47.94221" lon="-2.52991">
        <ele>62.5</ele>
        <time>2024-12-19T08:10:43Z</time>
      </trkpt>
      <trkpt lat="47.9422" lon="-2.52991">
        <ele>62.6</ele>
        <time>2024-12-19T08:10:44Z</time>
      </trkpt>
      <trkpt lat="47.94219" lon="-2.52991">
        <ele>62.7</ele>
        <time>2024-12-19T08:10:45Z</time>
      </trkpt>
      <trkpt lat="47.94218" lon="-2.5299">
        <ele>62.9</ele>
        <time>2024-12-19T08:10:46Z</time>
      </trkpt>
      <trkpt lat="47.94218" lon="-2.52989">
        <ele>63.1</ele>
        <time>2024-12-19T08:10:47Z</time>
      </trkpt>
      <trkpt lat="47.94217" lon="-2.5299">
        <ele>63.1</ele>
        <time>2024-12-19T08:10:48Z</time>
      </trkpt>
      <trkpt lat="47.94216" lon="-2.5299">
        <ele>63.2</ele>
        <time>2024-12-19T08:10:49Z</time>
      </trkpt>
      <trkpt lat="47.94215" lon="-2.52991">
        <ele>63.2</ele>
        <time>2024-12-19T08:10:50Z</time>
      </trkpt>
      <trkpt lat="47.94214" lon="-2.52991">
        <ele>63.3</ele>
        <time>2024-12-19T08:10:51Z</time>
      </trkpt>
      <trkpt lat="47.94214" lon="-2.5299">
        <ele>63.4</ele>
        <time>2024-12-19T08:10:52Z</time>
      </trkpt>
      <trkpt lat="47.94213" lon="-2.52989">
        <ele>63.6</ele>
        <time>2024-12-19T08:10:53Z</time>
      </trkpt>
      <trkpt lat="47.94212" lon="-2.52989">
        <ele>63.8</ele>
        <time>2024-12-19T08:10:54Z</time>
      </trkpt>
      <trkpt lat="47.94211" lon="-2.52988">
        <ele>64</ele>
        <time>2024-12-19T08:10:55Z</time>
      </trkpt>
      <trkpt lat="47.9421" lon="-2.52987">
        <ele>64.2</ele>
        <time>2024-12-19T08:10:56Z</time>
      </trkpt>
      <trkpt lat="47.94209" lon="-2.52987">
        <ele>64.4</ele>
        <time>2024-12-19T08:10:57Z</time>
      </trkpt>
      <trkpt lat="47.94208" lon="-2.52987">
        <ele>64.4</ele>
        <time>2024-12-19T08:10:58Z</time>
      </trkpt>
      <trkpt lat="47.94207" lon="-2.52987">
        <ele>64.5</ele>
        <time>2024-12-19T08:10:59Z</time>
      </trkpt>
      <trkpt lat="47.94207" lon="-2.52987">
        <ele>64.6</ele>
        <time>2024-12-19T08:11:00Z</time>
      </trkpt>
      <trkpt lat="47.94206" lon="-2.52987">
        <ele>64.7</ele>
        <time>2024-12-19T08:11:01Z</time>
      </trkpt>
      <trkpt lat="47.94204" lon="-2.52988">
        <ele>64.8</ele>
        <time>2024-12-19T08:11:02Z</time>
      </trkpt>
      <trkpt lat="47.94203" lon="-2.52988">
        <ele>64.9</ele>
        <time>2024-12-19T08:11:03Z</time>
      </trkpt>
      <trkpt lat="47.94201" lon="-2.52987">
        <ele>65.1</ele>
        <time>2024-12-19T08:11:05Z</time>
      </trkpt>
      <trkpt lat="47.94201" lon="-2.52986">
        <ele>65.3</ele>
        <time>2024-12-19T08:11:06Z</time>
      </trkpt>
      <trkpt lat="47.942" lon="-2.52985">
        <ele>65.5</ele>
        <time>2024-12-19T08:11:07Z</time>
      </trkpt>
      <trkpt lat="47.94199" lon="-2.52984">
        <ele>65.7</ele>
        <time>2024-12-19T08:11:08Z</time>
      </trkpt>
      <trkpt lat="47.94198" lon="-2.52983">
        <ele>65.9</ele>
        <time>2024-12-19T08:11:09Z</time>
      </trkpt>
      <trkpt lat="47.94197" lon="-2.52983">
        <ele>66</ele>
        <time>2024-12-19T08:11:10Z</time>
      </trkpt>
      <trkpt lat="47.94196" lon="-2.52983">
        <ele>66.1</ele>
        <time>2024-12-19T08:11:11Z</time>
      </trkpt>
      <trkpt lat="47.94194" lon="-2.52983">
        <ele>66.3</ele>
        <time>2024-12-19T08:11:12Z</time>
      </trkpt>
      <trkpt lat="47.94192" lon="-2.52983">
        <ele>66.3</ele>
        <time>2024-12-19T08:11:13Z</time>
      </trkpt>
      <trkpt lat="47.94191" lon="-2.52982">
        <ele>66.4</ele>
        <time>2024-12-19T08:11:14Z</time>
      </trkpt>
      <trkpt lat="47.94189" lon="-2.52983">
        <ele>66.4</ele>
        <time>2024-12-19T08:11:15Z</time>
      </trkpt>
      <trkpt lat="47.94188" lon="-2.52982">
        <ele>66.5</ele>
        <time>2024-12-19T08:11:16Z</time>
      </trkpt>
      <trkpt lat="47.94188" lon="-2.52983">
        <ele>66.5</ele>
        <time>2024-12-19T08:11:17Z</time>
      </trkpt>
      <trkpt lat="47.94186" lon="-2.52983">
        <ele>66.6</ele>
        <time>2024-12-19T08:11:18Z</time>
      </trkpt>
      <trkpt lat="47.94185" lon="-2.52982">
        <ele>66.7</ele>
        <time>2024-12-19T08:11:19Z</time>
      </trkpt>
      <trkpt lat="47.94183" lon="-2.52981">
        <ele>66.8</ele>
        <time>2024-12-19T08:11:20Z</time>
      </trkpt>
      <trkpt lat="47.94182" lon="-2.5298">
        <ele>66.9</ele>
        <time>2024-12-19T08:11:21Z</time>
      </trkpt>
      <trkpt lat="47.94181" lon="-2.5298">
        <ele>67</ele>
        <time>2024-12-19T08:11:22Z</time>
      </trkpt>
      <trkpt lat="47.94181" lon="-2.52979">
        <ele>67</ele>
        <time>2024-12-19T08:11:23Z</time>
      </trkpt>
      <trkpt lat="47.9418" lon="-2.52978">
        <ele>67.1</ele>
        <time>2024-12-19T08:11:24Z</time>
      </trkpt>
      <trkpt lat="47.94179" lon="-2.52979">
        <ele>67.1</ele>
        <time>2024-12-19T08:11:25Z</time>
      </trkpt>
      <trkpt lat="47.94178" lon="-2.52979">
        <ele>67.1</ele>
        <time>2024-12-19T08:11:26Z</time>
      </trkpt>
      <trkpt lat="47.94178" lon="-2.5298">
        <ele>67</ele>
        <time>2024-12-19T08:11:27Z</time>
      </trkpt>
      <trkpt lat="47.94177" lon="-2.52981">
        <ele>67</ele>
        <time>2024-12-19T08:11:28Z</time>
      </trkpt>
      <trkpt lat="47.94177" lon="-2.52981">
        <ele>67</ele>
        <time>2024-12-19T08:11:29Z</time>
      </trkpt>
      <trkpt lat="47.94176" lon="-2.5298">
        <ele>67.1</ele>
        <time>2024-12-19T08:11:30Z</time>
      </trkpt>
      <trkpt lat="47.94175" lon="-2.5298">
        <ele>67.2</ele>
        <time>2024-12-19T08:11:31Z</time>
      </trkpt>
      <trkpt lat="47.94174" lon="-2.52979">
        <ele>67.2</ele>
        <time>2024-12-19T08:11:32Z</time>
      </trkpt>
      <trkpt lat="47.94173" lon="-2.52979">
        <ele>67.3</ele>
        <time>2024-12-19T08:11:33Z</time>
      </trkpt>
      <trkpt lat="47.94172" lon="-2.52978">
        <ele>67.4</ele>
        <time>2024-12-19T08:11:34Z</time>
      </trkpt>
      <trkpt lat="47.94171" lon="-2.52978">
        <ele>67.5</ele>
        <time>2024-12-19T08:11:35Z</time>
      </trkpt>
      <trkpt lat="47.94169" lon="-2.52977">
        <ele>67.5</ele>
        <time>2024-12-19T08:11:36Z</time>
      </trkpt>
      <trkpt lat="47.94168" lon="-2.52977">
        <ele>67.6</ele>
        <time>2024-12-19T08:11:37Z</time>
      </trkpt>
      <trkpt lat="47.94166" lon="-2.52977">
        <ele>67.7</ele>
        <time>2024-12-19T08:11:38Z</time>
      </trkpt>
      <trkpt lat="47.94164" lon="-2.52977">
        <ele>67.7</ele>
        <time>2024-12-19T08:11:39Z</time>
      </trkpt>
      <trkpt lat="47.94162" lon="-2.52977">
        <ele>67.6</ele>
        <time>2024-12-19T08:11:40Z</time>
      </trkpt>
      <trkpt lat="47.94161" lon="-2.52978">
        <ele>67.6</ele>
        <time>2024-12-19T08:11:41Z</time>
      </trkpt>
      <trkpt lat="47.9416" lon="-2.52977">
        <ele>67.6</ele>
        <time>2024-12-19T08:11:42Z</time>
      </trkpt>
      <trkpt lat="47.94159" lon="-2.52978">
        <ele>67.6</ele>
        <time>2024-12-19T08:11:43Z</time>
      </trkpt>
      <trkpt lat="47.94158" lon="-2.52978">
        <ele>67.6</ele>
        <time>2024-12-19T08:11:44Z</time>
      </trkpt>
      <trkpt lat="47.94157" lon="-2.52979">
        <ele>67.5</ele>
        <time>2024-12-19T08:11:45Z</time>
      </trkpt>
      <trkpt lat="47.94156" lon="-2.52979">
        <ele>67.5</ele>
        <time>2024-12-19T08:11:46Z</time>
      </trkpt>
      <trkpt lat="47.94154" lon="-2.5298">
        <ele>67.4</ele>
        <time>2024-12-19T08:11:47Z</time>
      </trkpt>
      <trkpt lat="47.94154" lon="-2.52981">
        <ele>67.4</ele>
        <time>2024-12-19T08:11:48Z</time>
      </trkpt>
      <trkpt lat="47.94151" lon="-2.52985">
        <ele>67.1</ele>
        <time>2024-12-19T08:11:49Z</time>
      </trkpt>
      <trkpt lat="47.94151" lon="-2.52987">
        <ele>67</ele>
        <time>2024-12-19T08:11:50Z</time>
      </trkpt>
      <trkpt lat="47.9415" lon="-2.52987">
        <ele>66.9</ele>
        <time>2024-12-19T08:11:51Z</time>
      </trkpt>
      <trkpt lat="47.9415" lon="-2.52988">
        <ele>66.9</ele>
        <time>2024-12-19T08:11:52Z</time>
      </trkpt>
      <trkpt lat="47.94149" lon="-2.52989">
        <ele>66.8</ele>
        <time>2024-12-19T08:11:53Z</time>
      </trkpt>
      <trkpt lat="47.94149" lon="-2.5299">
        <ele>66.7</ele>
        <time>2024-12-19T08:11:54Z</time>
      </trkpt>
      <trkpt lat="47.94149" lon="-2.5299">
        <ele>66.7</ele>
        <time>2024-12-19T08:11:55Z</time>
      </trkpt>
      <trkpt lat="47.94148" lon="-2.5299">
        <ele>66.7</ele>
        <time>2024-12-19T08:11:56Z</time>
      </trkpt>
      <trkpt lat="47.94146" lon="-2.5299">
        <ele>66.7</ele>
        <time>2024-12-19T08:11:57Z</time>
      </trkpt>
      <trkpt lat="47.94144" lon="-2.5299">
        <ele>66.8</ele>
        <time>2024-12-19T08:11:58Z</time>
      </trkpt>
      <trkpt lat="47.94143" lon="-2.52988">
        <ele>66.8</ele>
        <time>2024-12-19T08:11:59Z</time>
      </trkpt>
      <trkpt lat="47.94142" lon="-2.52988">
        <ele>66.9</ele>
        <time>2024-12-19T08:12:00Z</time>
      </trkpt>
      <trkpt lat="47.94141" lon="-2.52987">
        <ele>66.9</ele>
        <time>2024-12-19T08:12:01Z</time>
      </trkpt>
      <trkpt lat="47.9414" lon="-2.52987">
        <ele>67</ele>
        <time>2024-12-19T08:12:02Z</time>
      </trkpt>
      <trkpt lat="47.94139" lon="-2.52987">
        <ele>67</ele>
        <time>2024-12-19T08:12:03Z</time>
      </trkpt>
      <trkpt lat="47.94138" lon="-2.52986">
        <ele>67</ele>
        <time>2024-12-19T08:12:04Z</time>
      </trkpt>
      <trkpt lat="47.94137" lon="-2.52987">
        <ele>66.9</ele>
        <time>2024-12-19T08:12:05Z</time>
      </trkpt>
      <trkpt lat="47.94136" lon="-2.52987">
        <ele>67</ele>
        <time>2024-12-19T08:12:06Z</time>
      </trkpt>
      <trkpt lat="47.94134" lon="-2.52986">
        <ele>67</ele>
        <time>2024-12-19T08:12:07Z</time>
      </trkpt>
      <trkpt lat="47.94133" lon="-2.52985">
        <ele>67.1</ele>
        <time>2024-12-19T08:12:08Z</time>
      </trkpt>
      <trkpt lat="47.94132" lon="-2.52985">
        <ele>67.1</ele>
        <time>2024-12-19T08:12:09Z</time>
      </trkpt>
      <trkpt lat="47.94131" lon="-2.52985">
        <ele>67.1</ele>
        <time>2024-12-19T08:12:10Z</time>
      </trkpt>
      <trkpt lat="47.9413" lon="-2.52984">
        <ele>67.2</ele>
        <time>2024-12-19T08:12:11Z</time>
      </trkpt>
      <trkpt lat="47.94129" lon="-2.52983">
        <ele>67.2</ele>
        <time>2024-12-19T08:12:12Z</time>
      </trkpt>
      <trkpt lat="47.94128" lon="-2.52981">
        <ele>67.4</ele>
        <time>2024-12-19T08:12:13Z</time>
      </trkpt>
      <trkpt lat="47.94127" lon="-2.52979">
        <ele>67.5</ele>
        <time>2024-12-19T08:12:14Z</time>
      </trkpt>
      <trkpt lat="47.94126" lon="-2.52978">
        <ele>67.6</ele>
        <time>2024-12-19T08:12:15Z</time>
      </trkpt>
      <trkpt lat="47.94125" lon="-2.52977">
        <ele>67.7</ele>
        <time>2024-12-19T08:12:16Z</time>
      </trkpt>
      <trkpt lat="47.94124" lon="-2.52977">
        <ele>67.7</ele>
        <time>2024-12-19T08:12:17Z</time>
      </trkpt>
      <trkpt lat="47.94123" lon="-2.52977">
        <ele>67.6</ele>
        <time>2024-12-19T08:12:18Z</time>
      </trkpt>
      <trkpt lat="47.94122" lon="-2.52977">
        <ele>67.6</ele>
        <time>2024-12-19T08:12:19Z</time>
      </trkpt>
      <trkpt lat="47.94121" lon="-2.52978">
        <ele>67.6</ele>
        <time>2024-12-19T08:12:20Z</time>
      </trkpt>
      <trkpt lat="47.9412" lon="-2.52978">
        <ele>67.6</ele>
        <time>2024-12-19T08:12:21Z</time>
      </trkpt>
      <trkpt lat="47.94119" lon="-2.52977">
        <ele>67.7</ele>
        <time>2024-12-19T08:12:22Z</time>
      </trkpt>
      <trkpt lat="47.94118" lon="-2.52977">
        <ele>67.7</ele>
        <time>2024-12-19T08:12:23Z</time>
      </trkpt>
      <trkpt lat="47.94117" lon="-2.52977">
        <ele>67.6</ele>
        <time>2024-12-19T08:12:24Z</time>
      </trkpt>
      <trkpt lat="47.94116" lon="-2.52977">
        <ele>67.6</ele>
        <time>2024-12-19T08:12:25Z</time>
      </trkpt>
      <trkpt lat="47.94116" lon="-2.52978">
        <ele>67.6</ele>
        <time>2024-12-19T08:12:26Z</time>
      </trkpt>
      <trkpt lat="47.94115" lon="-2.52977">
        <ele>67.6</ele>
        <time>2024-12-19T08:12:27Z</time>
      </trkpt>
      <trkpt lat="47.94114" lon="-2.52976">
        <ele>67.7</ele>
        <time>2024-12-19T08:12:28Z</time>
      </trkpt>
      <trkpt lat="47.94113" lon="-2.52975">
        <ele>67.8</ele>
        <time>2024-12-19T08:12:29Z</time>
      </trkpt>
      <trkpt lat="47.94112" lon="-2.52974">
        <ele>67.9</ele>
        <time>2024-12-19T08:12:30Z</time>
      </trkpt>
      <trkpt lat="47.94111" lon="-2.52973">
        <ele>67.9</ele>
        <time>2024-12-19T08:12:31Z</time>
      </trkpt>
      <trkpt lat="47.9411" lon="-2.52972">
        <ele>68</ele>
        <time>2024-12-19T08:12:32Z</time>
      </trkpt>
      <trkpt lat="47.94109" lon="-2.52971">
        <ele>67.9</ele>
        <time>2024-12-19T08:12:33Z</time>
      </trkpt>
      <trkpt lat="47.94108" lon="-2.5297">
        <ele>67.9</ele>
        <time>2024-12-19T08:12:34Z</time>
      </trkpt>
      <trkpt lat="47.94108" lon="-2.52968">
        <ele>67.9</ele>
        <time>2024-12-19T08:12:35Z</time>
      </trkpt>
      <trkpt lat="47.94107" lon="-2.52966">
        <ele>67.9</ele>
        <time>2024-12-19T08:12:36Z</time>
      </trkpt>
      <trkpt lat="47.94106" lon="-2.52965">
        <ele>67.9</ele>
        <time>2024-12-19T08:12:37Z</time>
      </trkpt>
      <trkpt lat="47.94104" lon="-2.52963">
        <ele>67.8</ele>
        <time>2024-12-19T08:12:38Z</time>
      </trkpt>
      <trkpt lat="47.94103" lon="-2.52963">
        <ele>67.8</ele>
        <time>2024-12-19T08:12:39Z</time>
      </trkpt>
      <trkpt lat="47.94102" lon="-2.52962">
        <ele>67.8</ele>
        <time>2024-12-19T08:12:40Z</time>
      </trkpt>
      <trkpt lat="47.94101" lon="-2.52961">
        <ele>67.8</ele>
        <time>2024-12-19T08:12:41Z</time>
      </trkpt>
      <trkpt lat="47.941" lon="-2.5296">
        <ele>67.8</ele>
        <time>2024-12-19T08:12:42Z</time>
      </trkpt>
      <trkpt lat="47.94098" lon="-2.5296">
        <ele>67.7</ele>
        <time>2024-12-19T08:12:43Z</time>
      </trkpt>
      <trkpt lat="47.94098" lon="-2.52959">
        <ele>67.7</ele>
        <time>2024-12-19T08:12:44Z</time>
      </trkpt>
      <trkpt lat="47.94096" lon="-2.52958">
        <ele>67.7</ele>
        <time>2024-12-19T08:12:45Z</time>
      </trkpt>
      <trkpt lat="47.94096" lon="-2.52958">
        <ele>67.7</ele>
        <time>2024-12-19T08:12:46Z</time>
      </trkpt>
      <trkpt lat="47.94095" lon="-2.52957">
        <ele>67.7</ele>
        <time>2024-12-19T08:12:47Z</time>
      </trkpt>
      <trkpt lat="47.94094" lon="-2.52956">
        <ele>67.8</ele>
        <time>2024-12-19T08:12:48Z</time>
      </trkpt>
      <trkpt lat="47.94093" lon="-2.52955">
        <ele>67.8</ele>
        <time>2024-12-19T08:12:49Z</time>
      </trkpt>
      <trkpt lat="47.94091" lon="-2.52954">
        <ele>67.8</ele>
        <time>2024-12-19T08:12:50Z</time>
      </trkpt>
      <trkpt lat="47.9409" lon="-2.52953">
        <ele>67.8</ele>
        <time>2024-12-19T08:12:51Z</time>
      </trkpt>
      <trkpt lat="47.94088" lon="-2.52952">
        <ele>67.8</ele>
        <time>2024-12-19T08:12:52Z</time>
      </trkpt>
      <trkpt lat="47.94087" lon="-2.52951">
        <ele>67.8</ele>
        <time>2024-12-19T08:12:53Z</time>
      </trkpt>
      <trkpt lat="47.94086" lon="-2.5295">
        <ele>67.8</ele>
        <time>2024-12-19T08:12:54Z</time>
      </trkpt>
      <trkpt lat="47.94085" lon="-2.52949">
        <ele>67.8</ele>
        <time>2024-12-19T08:12:55Z</time>
      </trkpt>
      <trkpt lat="47.94084" lon="-2.52949">
        <ele>67.9</ele>
        <time>2024-12-19T08:12:56Z</time>
      </trkpt>
      <trkpt lat="47.94083" lon="-2.52948">
        <ele>67.9</ele>
        <time>2024-12-19T08:12:57Z</time>
      </trkpt>
      <trkpt lat="47.94082" lon="-2.52946">
        <ele>67.9</ele>
        <time>2024-12-19T08:12:58Z</time>
      </trkpt>
      <trkpt lat="47.94081" lon="-2.52945">
        <ele>67.9</ele>
        <time>2024-12-19T08:12:59Z</time>
      </trkpt>
      <trkpt lat="47.94081" lon="-2.52944">
        <ele>67.9</ele>
        <time>2024-12-19T08:13:00Z</time>
      </trkpt>
      <trkpt lat="47.9408" lon="-2.52943">
        <ele>68</ele>
        <time>2024-12-19T08:13:01Z</time>
      </trkpt>
      <trkpt lat="47.94079" lon="-2.52942">
        <ele>67.9</ele>
        <time>2024-12-19T08:13:02Z</time>
      </trkpt>
      <trkpt lat="47.94078" lon="-2.52941">
        <ele>67.9</ele>
        <time>2024-12-19T08:13:03Z</time>
      </trkpt>
      <trkpt lat="47.94077" lon="-2.52941">
        <ele>67.9</ele>
        <time>2024-12-19T08:13:04Z</time>
      </trkpt>
      <trkpt lat="47.94076" lon="-2.5294">
        <ele>67.9</ele>
        <time>2024-12-19T08:13:05Z</time>
      </trkpt>
      <trkpt lat="47.94074" lon="-2.52938">
        <ele>67.9</ele>
        <time>2024-12-19T08:13:06Z</time>
      </trkpt>
      <trkpt lat="47.94073" lon="-2.52937">
        <ele>67.9</ele>
        <time>2024-12-19T08:13:07Z</time>
      </trkpt>
      <trkpt lat="47.94072" lon="-2.52936">
        <ele>67.9</ele>
        <time>2024-12-19T08:13:08Z</time>
      </trkpt>
      <trkpt lat="47.94071" lon="-2.52935">
        <ele>67.9</ele>
        <time>2024-12-19T08:13:09Z</time>
      </trkpt>
      <trkpt lat="47.9407" lon="-2.52934">
        <ele>67.9</ele>
        <time>2024-12-19T08:13:10Z</time>
      </trkpt>
      <trkpt lat="47.94069" lon="-2.52933">
        <ele>67.9</ele>
        <time>2024-12-19T08:13:11Z</time>
      </trkpt>
      <trkpt lat="47.94068" lon="-2.52933">
        <ele>67.9</ele>
        <time>2024-12-19T08:13:12Z</time>
      </trkpt>
      <trkpt lat="47.94067" lon="-2.52932">
        <ele>67.8</ele>
        <time>2024-12-19T08:13:13Z</time>
      </trkpt>
      <trkpt lat="47.94066" lon="-2.52931">
        <ele>67.8</ele>
        <time>2024-12-19T08:13:14Z</time>
      </trkpt>
      <trkpt lat="47.94064" lon="-2.52931">
        <ele>67.8</ele>
        <time>2024-12-19T08:13:15Z</time>
      </trkpt>
      <trkpt lat="47.94063" lon="-2.5293">
        <ele>67.8</ele>
        <time>2024-12-19T08:13:16Z</time>
      </trkpt>
      <trkpt lat="47.94061" lon="-2.5293">
        <ele>67.7</ele>
        <time>2024-12-19T08:13:17Z</time>
      </trkpt>
      <trkpt lat="47.9406" lon="-2.5293">
        <ele>67.7</ele>
        <time>2024-12-19T08:13:18Z</time>
      </trkpt>
      <trkpt lat="47.94059" lon="-2.52929">
        <ele>67.7</ele>
        <time>2024-12-19T08:13:19Z</time>
      </trkpt>
      <trkpt lat="47.94058" lon="-2.5293">
        <ele>67.6</ele>
        <time>2024-12-19T08:13:20Z</time>
      </trkpt>
      <trkpt lat="47.94057" lon="-2.5293">
        <ele>67.6</ele>
        <time>2024-12-19T08:13:21Z</time>
      </trkpt>
      <trkpt lat="47.94056" lon="-2.5293">
        <ele>67.5</ele>
        <time>2024-12-19T08:13:22Z</time>
      </trkpt>
      <trkpt lat="47.94054" lon="-2.5293">
        <ele>67.5</ele>
        <time>2024-12-19T08:13:23Z</time>
      </trkpt>
      <trkpt lat="47.94053" lon="-2.52931">
        <ele>67.4</ele>
        <time>2024-12-19T08:13:24Z</time>
      </trkpt>
      <trkpt lat="47.94052" lon="-2.52931">
        <ele>67.3</ele>
        <time>2024-12-19T08:13:25Z</time>
      </trkpt>
      <trkpt lat="47.9405" lon="-2.5293">
        <ele>67.3</ele>
        <time>2024-12-19T08:13:26Z</time>
      </trkpt>
      <trkpt lat="47.94049" lon="-2.52929">
        <ele>67.3</ele>
        <time>2024-12-19T08:13:27Z</time>
      </trkpt>
      <trkpt lat="47.94048" lon="-2.52928">
        <ele>67.3</ele>
        <time>2024-12-19T08:13:28Z</time>
      </trkpt>
      <trkpt lat="47.94047" lon="-2.52927">
        <ele>67.3</ele>
        <time>2024-12-19T08:13:29Z</time>
      </trkpt>
      <trkpt lat="47.94046" lon="-2.52926">
        <ele>67.3</ele>
        <time>2024-12-19T08:13:30Z</time>
      </trkpt>
      <trkpt lat="47.94045" lon="-2.52925">
        <ele>67.3</ele>
        <time>2024-12-19T08:13:31Z</time>
      </trkpt>
      <trkpt lat="47.94045" lon="-2.52924">
        <ele>67.4</ele>
        <time>2024-12-19T08:13:32Z</time>
      </trkpt>
      <trkpt lat="47.94044" lon="-2.52922">
        <ele>67.4</ele>
        <time>2024-12-19T08:13:33Z</time>
      </trkpt>
      <trkpt lat="47.94042" lon="-2.52922">
        <ele>67.3</ele>
        <time>2024-12-19T08:13:34Z</time>
      </trkpt>
      <trkpt lat="47.94041" lon="-2.52921">
        <ele>67.3</ele>
        <time>2024-12-19T08:13:35Z</time>
      </trkpt>
      <trkpt lat="47.9404" lon="-2.52919">
        <ele>67.4</ele>
        <time>2024-12-19T08:13:36Z</time>
      </trkpt>
      <trkpt lat="47.94039" lon="-2.52918">
        <ele>67.4</ele>
        <time>2024-12-19T08:13:37Z</time>
      </trkpt>
      <trkpt lat="47.94039" lon="-2.52917">
        <ele>67.4</ele>
        <time>2024-12-19T08:13:38Z</time>
      </trkpt>
      <trkpt lat="47.94038" lon="-2.52916">
        <ele>67.4</ele>
        <time>2024-12-19T08:13:39Z</time>
      </trkpt>
      <trkpt lat="47.94037" lon="-2.52914">
        <ele>67.3</ele>
        <time>2024-12-19T08:13:40Z</time>
      </trkpt>
      <trkpt lat="47.94036" lon="-2.52913">
        <ele>67.3</ele>
        <time>2024-12-19T08:13:41Z</time>
      </trkpt>
      <trkpt lat="47.94034" lon="-2.52911">
        <ele>67.2</ele>
        <time>2024-12-19T08:13:42Z</time>
      </trkpt>
      <trkpt lat="47.94034" lon="-2.52911">
        <ele>67.2</ele>
        <time>2024-12-19T08:13:43Z</time>
      </trkpt>
      <trkpt lat="47.94033" lon="-2.5291">
        <ele>67.2</ele>
        <time>2024-12-19T08:13:44Z</time>
      </trkpt>
      <trkpt lat="47.94032" lon="-2.52909">
        <ele>67.2</ele>
        <time>2024-12-19T08:13:45Z</time>
      </trkpt>
      <trkpt lat="47.94031" lon="-2.52908">
        <ele>67.1</ele>
        <time>2024-12-19T08:13:46Z</time>
      </trkpt>
      <trkpt lat="47.94031" lon="-2.52907">
        <ele>67.1</ele>
        <time>2024-12-19T08:13:47Z</time>
      </trkpt>
      <trkpt lat="47.9403" lon="-2.52907">
        <ele>67.1</ele>
        <time>2024-12-19T08:13:48Z</time>
      </trkpt>
      <trkpt lat="47.94029" lon="-2.52906">
        <ele>67</ele>
        <time>2024-12-19T08:13:49Z</time>
      </trkpt>
      <trkpt lat="47.94028" lon="-2.52905">
        <ele>67</ele>
        <time>2024-12-19T08:13:50Z</time>
      </trkpt>
      <trkpt lat="47.94027" lon="-2.52904">
        <ele>67</ele>
        <time>2024-12-19T08:13:51Z</time>
      </trkpt>
      <trkpt lat="47.94025" lon="-2.52903">
        <ele>66.9</ele>
        <time>2024-12-19T08:13:52Z</time>
      </trkpt>
      <trkpt lat="47.94024" lon="-2.52902">
        <ele>66.9</ele>
        <time>2024-12-19T08:13:53Z</time>
      </trkpt>
      <trkpt lat="47.94023" lon="-2.52901">
        <ele>66.8</ele>
        <time>2024-12-19T08:13:54Z</time>
      </trkpt>
      <trkpt lat="47.94022" lon="-2.529">
        <ele>66.8</ele>
        <time>2024-12-19T08:13:55Z</time>
      </trkpt>
      <trkpt lat="47.94021" lon="-2.52899">
        <ele>66.8</ele>
        <time>2024-12-19T08:13:56Z</time>
      </trkpt>
      <trkpt lat="47.9402" lon="-2.52898">
        <ele>66.7</ele>
        <time>2024-12-19T08:13:57Z</time>
      </trkpt>
      <trkpt lat="47.94019" lon="-2.52897">
        <ele>66.7</ele>
        <time>2024-12-19T08:13:58Z</time>
      </trkpt>
      <trkpt lat="47.94017" lon="-2.52895">
        <ele>66.6</ele>
        <time>2024-12-19T08:13:59Z</time>
      </trkpt>
      <trkpt lat="47.94016" lon="-2.52894">
        <ele>66.6</ele>
        <time>2024-12-19T08:14:00Z</time>
      </trkpt>
      <trkpt lat="47.94016" lon="-2.52893">
        <ele>66.6</ele>
        <time>2024-12-19T08:14:01Z</time>
      </trkpt>
      <trkpt lat="47.94015" lon="-2.52892">
        <ele>66.5</ele>
        <time>2024-12-19T08:14:02Z</time>
      </trkpt>
      <trkpt lat="47.94014" lon="-2.52892">
        <ele>66.5</ele>
        <time>2024-12-19T08:14:03Z</time>
      </trkpt>
      <trkpt lat="47.94013" lon="-2.52891">
        <ele>66.5</ele>
        <time>2024-12-19T08:14:04Z</time>
      </trkpt>
      <trkpt lat="47.94012" lon="-2.52891">
        <ele>66.4</ele>
        <time>2024-12-19T08:14:05Z</time>
      </trkpt>
      <trkpt lat="47.94011" lon="-2.5289">
        <ele>66.4</ele>
        <time>2024-12-19T08:14:06Z</time>
      </trkpt>
      <trkpt lat="47.9401" lon="-2.5289">
        <ele>66.3</ele>
        <time>2024-12-19T08:14:07Z</time>
      </trkpt>
      <trkpt lat="47.94008" lon="-2.5289">
        <ele>66.3</ele>
        <time>2024-12-19T08:14:08Z</time>
      </trkpt>
      <trkpt lat="47.94007" lon="-2.52891">
        <ele>66.2</ele>
        <time>2024-12-19T08:14:09Z</time>
      </trkpt>
      <trkpt lat="47.94005" lon="-2.52893">
        <ele>66.2</ele>
        <time>2024-12-19T08:14:10Z</time>
      </trkpt>
      <trkpt lat="47.94004" lon="-2.52894">
        <ele>66.1</ele>
        <time>2024-12-19T08:14:11Z</time>
      </trkpt>
      <trkpt lat="47.94003" lon="-2.52895">
        <ele>66.1</ele>
        <time>2024-12-19T08:14:12Z</time>
      </trkpt>
      <trkpt lat="47.94001" lon="-2.52896">
        <ele>66.1</ele>
        <time>2024-12-19T08:14:13Z</time>
      </trkpt>
      <trkpt lat="47.94" lon="-2.52896">
        <ele>66</ele>
        <time>2024-12-19T08:14:14Z</time>
      </trkpt>
      <trkpt lat="47.93999" lon="-2.52897">
        <ele>65.9</ele>
        <time>2024-12-19T08:14:15Z</time>
      </trkpt>
      <trkpt lat="47.93998" lon="-2.52898">
        <ele>65.8</ele>
        <time>2024-12-19T08:14:16Z</time>
      </trkpt>
      <trkpt lat="47.93997" lon="-2.52898">
        <ele>65.8</ele>
        <time>2024-12-19T08:14:17Z</time>
      </trkpt>
      <trkpt lat="47.93996" lon="-2.52899">
        <ele>65.7</ele>
        <time>2024-12-19T08:14:18Z</time>
      </trkpt>
      <trkpt lat="47.93997" lon="-2.52899">
        <ele>65.7</ele>
        <time>2024-12-19T08:14:19Z</time>
      </trkpt>
      <trkpt lat="47.93997" lon="-2.52899">
        <ele>65.8</ele>
        <time>2024-12-19T08:14:20Z</time>
      </trkpt>
      <trkpt lat="47.93997" lon="-2.52899">
        <ele>65.8</ele>
        <time>2024-12-19T08:14:21Z</time>
      </trkpt>
      <trkpt lat="47.93996" lon="-2.52899">
        <ele>65.7</ele>
        <time>2024-12-19T08:14:22Z</time>
      </trkpt>
      <trkpt lat="47.93996" lon="-2.52899">
        <ele>65.7</ele>
        <time>2024-12-19T08:14:23Z</time>
      </trkpt>
      <trkpt lat="47.93996" lon="-2.52898">
        <ele>65.7</ele>
        <time>2024-12-19T08:14:24Z</time>
      </trkpt>
      <trkpt lat="47.93996" lon="-2.52898">
        <ele>65.7</ele>
        <time>2024-12-19T08:14:25Z</time>
      </trkpt>
      <trkpt lat="47.93996" lon="-2.52898">
        <ele>65.7</ele>
        <time>2024-12-19T08:14:26Z</time>
      </trkpt>
      <trkpt lat="47.93996" lon="-2.52898">
        <ele>65.7</ele>
        <time>2024-12-19T08:14:27Z</time>
      </trkpt>
      <trkpt lat="47.93996" lon="-2.52898">
        <ele>65.7</ele>
        <time>2024-12-19T08:14:28Z</time>
      </trkpt>
      <trkpt lat="47.93996" lon="-2.52898">
        <ele>65.7</ele>
        <time>2024-12-19T08:14:29Z</time>
      </trkpt>
      <trkpt lat="47.93996" lon="-2.52898">
        <ele>65.7</ele>
        <time>2024-12-19T08:14:30Z</time>
      </trkpt>
      <trkpt lat="47.93996" lon="-2.52898">
        <ele>65.7</ele>
        <time>2024-12-19T08:14:31Z</time>
      </trkpt>
      <trkpt lat="47.93996" lon="-2.52898">
        <ele>65.7</ele>
        <time>2024-12-19T08:14:32Z</time>
      </trkpt>
      <trkpt lat="47.93996" lon="-2.52898">
        <ele>65.7</ele>
        <time>2024-12-19T08:14:34Z</time>
      </trkpt>
      <trkpt lat="47.93996" lon="-2.52898">
        <ele>65.7</ele>
        <time>2024-12-19T08:14:35Z</time>
      </trkpt>
      <trkpt lat="47.93996" lon="-2.52898">
        <ele>65.7</ele>
        <time>2024-12-19T08:14:36Z</time>
      </trkpt>
      <trkpt lat="47.93996" lon="-2.52898">
        <ele>65.7</ele>
        <time>2024-12-19T08:14:37Z</time>
      </trkpt>
      <trkpt lat="47.93995" lon="-2.52899">
        <ele>65.6</ele>
        <time>2024-12-19T08:14:38Z</time>
      </trkpt>
      <trkpt lat="47.93994" lon="-2.529">
        <ele>65.6</ele>
        <time>2024-12-19T08:14:39Z</time>
      </trkpt>
      <trkpt lat="47.93993" lon="-2.52901">
        <ele>65.5</ele>
        <time>2024-12-19T08:14:40Z</time>
      </trkpt>
      <trkpt lat="47.93992" lon="-2.52902">
        <ele>65.4</ele>
        <time>2024-12-19T08:14:41Z</time>
      </trkpt>
      <trkpt lat="47.93991" lon="-2.52902">
        <ele>65.3</ele>
        <time>2024-12-19T08:14:42Z</time>
      </trkpt>
      <trkpt lat="47.9399" lon="-2.52903">
        <ele>65.3</ele>
        <time>2024-12-19T08:14:43Z</time>
      </trkpt>
      <trkpt lat="47.93989" lon="-2.52904">
        <ele>65.2</ele>
        <time>2024-12-19T08:14:44Z</time>
      </trkpt>
      <trkpt lat="47.93988" lon="-2.52905">
        <ele>65.1</ele>
        <time>2024-12-19T08:14:45Z</time>
      </trkpt>
      <trkpt lat="47.93987" lon="-2.52906">
        <ele>65</ele>
        <time>2024-12-19T08:14:46Z</time>
      </trkpt>
      <trkpt lat="47.93986" lon="-2.52906">
        <ele>65</ele>
        <time>2024-12-19T08:14:47Z</time>
      </trkpt>
      <trkpt lat="47.93986" lon="-2.52906">
        <ele>65</ele>
        <time>2024-12-19T08:14:48Z</time>
      </trkpt>
      <trkpt lat="47.93986" lon="-2.52907">
        <ele>65</ele>
        <time>2024-12-19T08:14:49Z</time>
      </trkpt>
      <trkpt lat="47.93986" lon="-2.52907">
        <ele>65</ele>
        <time>2024-12-19T08:14:50Z</time>
      </trkpt>
      <trkpt lat="47.93985" lon="-2.52907">
        <ele>64.9</ele>
        <time>2024-12-19T08:14:51Z</time>
      </trkpt>
      <trkpt lat="47.93984" lon="-2.52908">
        <ele>64.8</ele>
        <time>2024-12-19T08:14:52Z</time>
      </trkpt>
      <trkpt lat="47.93982" lon="-2.52909">
        <ele>64.7</ele>
        <time>2024-12-19T08:14:53Z</time>
      </trkpt>
      <trkpt lat="47.93981" lon="-2.52909">
        <ele>64.6</ele>
        <time>2024-12-19T08:14:54Z</time>
      </trkpt>
      <trkpt lat="47.9398" lon="-2.5291">
        <ele>64.6</ele>
        <time>2024-12-19T08:14:55Z</time>
      </trkpt>
      <trkpt lat="47.93979" lon="-2.52911">
        <ele>64.5</ele>
        <time>2024-12-19T08:14:56Z</time>
      </trkpt>
      <trkpt lat="47.93977" lon="-2.52912">
        <ele>64.4</ele>
        <time>2024-12-19T08:14:57Z</time>
      </trkpt>
      <trkpt lat="47.93976" lon="-2.52913">
        <ele>64.3</ele>
        <time>2024-12-19T08:14:58Z</time>
      </trkpt>
      <trkpt lat="47.93976" lon="-2.52914">
        <ele>64.2</ele>
        <time>2024-12-19T08:14:59Z</time>
      </trkpt>
      <trkpt lat="47.93974" lon="-2.52915">
        <ele>64.1</ele>
        <time>2024-12-19T08:15:00Z</time>
      </trkpt>
      <trkpt lat="47.93973" lon="-2.52916">
        <ele>64.1</ele>
        <time>2024-12-19T08:15:01Z</time>
      </trkpt>
      <trkpt lat="47.93972" lon="-2.52916">
        <ele>64</ele>
        <time>2024-12-19T08:15:02Z</time>
      </trkpt>
      <trkpt lat="47.93971" lon="-2.52916">
        <ele>63.9</ele>
        <time>2024-12-19T08:15:03Z</time>
      </trkpt>
      <trkpt lat="47.9397" lon="-2.52917">
        <ele>63.8</ele>
        <time>2024-12-19T08:15:04Z</time>
      </trkpt>
      <trkpt lat="47.93969" lon="-2.52918">
        <ele>63.8</ele>
        <time>2024-12-19T08:15:05Z</time>
      </trkpt>
      <trkpt lat="47.93968" lon="-2.52919">
        <ele>63.7</ele>
        <time>2024-12-19T08:15:06Z</time>
      </trkpt>
      <trkpt lat="47.93967" lon="-2.5292">
        <ele>63.6</ele>
        <time>2024-12-19T08:15:07Z</time>
      </trkpt>
      <trkpt lat="47.93966" lon="-2.52921">
        <ele>63.5</ele>
        <time>2024-12-19T08:15:08Z</time>
      </trkpt>
      <trkpt lat="47.93961" lon="-2.52925">
        <ele>63.2</ele>
        <time>2024-12-19T08:15:12Z</time>
      </trkpt>
      <trkpt lat="47.9396" lon="-2.52926">
        <ele>63.1</ele>
        <time>2024-12-19T08:15:13Z</time>
      </trkpt>
      <trkpt lat="47.93958" lon="-2.52927">
        <ele>63</ele>
        <time>2024-12-19T08:15:14Z</time>
      </trkpt>
      <trkpt lat="47.93957" lon="-2.52927">
        <ele>62.9</ele>
        <time>2024-12-19T08:15:15Z</time>
      </trkpt>
      <trkpt lat="47.93957" lon="-2.52927">
        <ele>62.9</ele>
        <time>2024-12-19T08:15:16Z</time>
      </trkpt>
      <trkpt lat="47.93956" lon="-2.52927">
        <ele>62.8</ele>
        <time>2024-12-19T08:15:17Z</time>
      </trkpt>
      <trkpt lat="47.93956" lon="-2.52926">
        <ele>62.8</ele>
        <time>2024-12-19T08:15:18Z</time>
      </trkpt>
      <trkpt lat="47.93954" lon="-2.52926">
        <ele>62.7</ele>
        <time>2024-12-19T08:15:19Z</time>
      </trkpt>
      <trkpt lat="47.93953" lon="-2.52927">
        <ele>62.6</ele>
        <time>2024-12-19T08:15:20Z</time>
      </trkpt>
      <trkpt lat="47.93952" lon="-2.52928">
        <ele>62.5</ele>
        <time>2024-12-19T08:15:21Z</time>
      </trkpt>
      <trkpt lat="47.93951" lon="-2.52929">
        <ele>62.5</ele>
        <time>2024-12-19T08:15:22Z</time>
      </trkpt>
      <trkpt lat="47.9395" lon="-2.52929">
        <ele>62.4</ele>
        <time>2024-12-19T08:15:23Z</time>
      </trkpt>
      <trkpt lat="47.93949" lon="-2.5293">
        <ele>62.3</ele>
        <time>2024-12-19T08:15:24Z</time>
      </trkpt>
      <trkpt lat="47.93948" lon="-2.52931">
        <ele>62.3</ele>
        <time>2024-12-19T08:15:25Z</time>
      </trkpt>
      <trkpt lat="47.93947" lon="-2.52932">
        <ele>62.2</ele>
        <time>2024-12-19T08:15:26Z</time>
      </trkpt>
      <trkpt lat="47.93947" lon="-2.52933">
        <ele>62.2</ele>
        <time>2024-12-19T08:15:27Z</time>
      </trkpt>
      <trkpt lat="47.93946" lon="-2.52933">
        <ele>62.1</ele>
        <time>2024-12-19T08:15:28Z</time>
      </trkpt>
      <trkpt lat="47.93945" lon="-2.52934">
        <ele>62</ele>
        <time>2024-12-19T08:15:29Z</time>
      </trkpt>
      <trkpt lat="47.93944" lon="-2.52935">
        <ele>62</ele>
        <time>2024-12-19T08:15:30Z</time>
      </trkpt>
      <trkpt lat="47.93943" lon="-2.52936">
        <ele>61.9</ele>
        <time>2024-12-19T08:15:31Z</time>
      </trkpt>
      <trkpt lat="47.93941" lon="-2.52936">
        <ele>61.8</ele>
        <time>2024-12-19T08:15:32Z</time>
      </trkpt>
      <trkpt lat="47.9394" lon="-2.52937">
        <ele>61.7</ele>
        <time>2024-12-19T08:15:33Z</time>
      </trkpt>
      <trkpt lat="47.93938" lon="-2.52938">
        <ele>61.6</ele>
        <time>2024-12-19T08:15:34Z</time>
      </trkpt>
      <trkpt lat="47.93937" lon="-2.52939">
        <ele>61.5</ele>
        <time>2024-12-19T08:15:35Z</time>
      </trkpt>
      <trkpt lat="47.93935" lon="-2.5294">
        <ele>61.4</ele>
        <time>2024-12-19T08:15:36Z</time>
      </trkpt>
      <trkpt lat="47.93934" lon="-2.5294">
        <ele>61.3</ele>
        <time>2024-12-19T08:15:37Z</time>
      </trkpt>
      <trkpt lat="47.93933" lon="-2.5294">
        <ele>61.3</ele>
        <time>2024-12-19T08:15:38Z</time>
      </trkpt>
      <trkpt lat="47.93932" lon="-2.52941">
        <ele>61.2</ele>
        <time>2024-12-19T08:15:39Z</time>
      </trkpt>
      <trkpt lat="47.93931" lon="-2.52941">
        <ele>61.1</ele>
        <time>2024-12-19T08:15:40Z</time>
      </trkpt>
      <trkpt lat="47.9393" lon="-2.52941">
        <ele>61</ele>
        <time>2024-12-19T08:15:41Z</time>
      </trkpt>
      <trkpt lat="47.93928" lon="-2.52941">
        <ele>60.9</ele>
        <time>2024-12-19T08:15:42Z</time>
      </trkpt>
      <trkpt lat="47.93927" lon="-2.52941">
        <ele>60.8</ele>
        <time>2024-12-19T08:15:43Z</time>
      </trkpt>
      <trkpt lat="47.93926" lon="-2.52942">
        <ele>60.7</ele>
        <time>2024-12-19T08:15:44Z</time>
      </trkpt>
      <trkpt lat="47.93925" lon="-2.52942">
        <ele>60.6</ele>
        <time>2024-12-19T08:15:45Z</time>
      </trkpt>
      <trkpt lat="47.93924" lon="-2.52943">
        <ele>60.6</ele>
        <time>2024-12-19T08:15:46Z</time>
      </trkpt>
      <trkpt lat="47.93923" lon="-2.52943">
        <ele>60.5</ele>
        <time>2024-12-19T08:15:47Z</time>
      </trkpt>
      <trkpt lat="47.93922" lon="-2.52944">
        <ele>60.4</ele>
        <time>2024-12-19T08:15:48Z</time>
      </trkpt>
      <trkpt lat="47.9392" lon="-2.52944">
        <ele>60.3</ele>
        <time>2024-12-19T08:15:49Z</time>
      </trkpt>
      <trkpt lat="47.93919" lon="-2.52944">
        <ele>60.2</ele>
        <time>2024-12-19T08:15:50Z</time>
      </trkpt>
      <trkpt lat="47.93917" lon="-2.52944">
        <ele>60.1</ele>
        <time>2024-12-19T08:15:51Z</time>
      </trkpt>
      <trkpt lat="47.93916" lon="-2.52943">
        <ele>60</ele>
        <time>2024-12-19T08:15:52Z</time>
      </trkpt>
      <trkpt lat="47.93914" lon="-2.52943">
        <ele>59.9</ele>
        <time>2024-12-19T08:15:53Z</time>
      </trkpt>
      <trkpt lat="47.93913" lon="-2.52942">
        <ele>59.8</ele>
        <time>2024-12-19T08:15:54Z</time>
      </trkpt>
      <trkpt lat="47.93912" lon="-2.52942">
        <ele>59.7</ele>
        <time>2024-12-19T08:15:55Z</time>
      </trkpt>
      <trkpt lat="47.93911" lon="-2.52941">
        <ele>59.7</ele>
        <time>2024-12-19T08:15:56Z</time>
      </trkpt>
      <trkpt lat="47.9391" lon="-2.5294">
        <ele>59.6</ele>
        <time>2024-12-19T08:15:57Z</time>
      </trkpt>
      <trkpt lat="47.93909" lon="-2.52938">
        <ele>59.5</ele>
        <time>2024-12-19T08:15:58Z</time>
      </trkpt>
      <trkpt lat="47.93908" lon="-2.52937">
        <ele>59.5</ele>
        <time>2024-12-19T08:15:59Z</time>
      </trkpt>
      <trkpt lat="47.93907" lon="-2.52935">
        <ele>59.4</ele>
        <time>2024-12-19T08:16:00Z</time>
      </trkpt>
      <trkpt lat="47.93906" lon="-2.52934">
        <ele>59.3</ele>
        <time>2024-12-19T08:16:01Z</time>
      </trkpt>
      <trkpt lat="47.93905" lon="-2.52932">
        <ele>59.2</ele>
        <time>2024-12-19T08:16:02Z</time>
      </trkpt>
      <trkpt lat="47.93904" lon="-2.52931">
        <ele>59.2</ele>
        <time>2024-12-19T08:16:03Z</time>
      </trkpt>
      <trkpt lat="47.93904" lon="-2.5293">
        <ele>59.1</ele>
        <time>2024-12-19T08:16:04Z</time>
      </trkpt>
      <trkpt lat="47.93903" lon="-2.52929">
        <ele>59</ele>
        <time>2024-12-19T08:16:05Z</time>
      </trkpt>
      <trkpt lat="47.93903" lon="-2.52927">
        <ele>59</ele>
        <time>2024-12-19T08:16:06Z</time>
      </trkpt>
      <trkpt lat="47.93902" lon="-2.52925">
        <ele>58.9</ele>
        <time>2024-12-19T08:16:07Z</time>
      </trkpt>
      <trkpt lat="47.93902" lon="-2.52922">
        <ele>58.9</ele>
        <time>2024-12-19T08:16:08Z</time>
      </trkpt>
      <trkpt lat="47.93901" lon="-2.5292">
        <ele>58.8</ele>
        <time>2024-12-19T08:16:09Z</time>
      </trkpt>
      <trkpt lat="47.93901" lon="-2.52918">
        <ele>58.7</ele>
        <time>2024-12-19T08:16:10Z</time>
      </trkpt>
      <trkpt lat="47.93901" lon="-2.52916">
        <ele>58.7</ele>
        <time>2024-12-19T08:16:11Z</time>
      </trkpt>
      <trkpt lat="47.93901" lon="-2.52914">
        <ele>58.6</ele>
        <time>2024-12-19T08:16:12Z</time>
      </trkpt>
      <trkpt lat="47.939" lon="-2.52912">
        <ele>58.5</ele>
        <time>2024-12-19T08:16:13Z</time>
      </trkpt>
      <trkpt lat="47.939" lon="-2.5291">
        <ele>58.4</ele>
        <time>2024-12-19T08:16:14Z</time>
      </trkpt>
      <trkpt lat="47.939" lon="-2.52908">
        <ele>58.4</ele>
        <time>2024-12-19T08:16:15Z</time>
      </trkpt>
      <trkpt lat="47.939" lon="-2.52906">
        <ele>58.3</ele>
        <time>2024-12-19T08:16:16Z</time>
      </trkpt>
      <trkpt lat="47.939" lon="-2.52904">
        <ele>58.2</ele>
        <time>2024-12-19T08:16:17Z</time>
      </trkpt>
      <trkpt lat="47.939" lon="-2.52902">
        <ele>58.1</ele>
        <time>2024-12-19T08:16:18Z</time>
      </trkpt>
      <trkpt lat="47.93899" lon="-2.52899">
        <ele>58</ele>
        <time>2024-12-19T08:16:19Z</time>
      </trkpt>
      <trkpt lat="47.93899" lon="-2.52897">
        <ele>57.9</ele>
        <time>2024-12-19T08:16:20Z</time>
      </trkpt>
      <trkpt lat="47.93899" lon="-2.52896">
        <ele>57.9</ele>
        <time>2024-12-19T08:16:21Z</time>
      </trkpt>
      <trkpt lat="47.93898" lon="-2.52894">
        <ele>57.8</ele>
        <time>2024-12-19T08:16:22Z</time>
      </trkpt>
      <trkpt lat="47.93898" lon="-2.52893">
        <ele>57.7</ele>
        <time>2024-12-19T08:16:23Z</time>
      </trkpt>
      <trkpt lat="47.93898" lon="-2.52892">
        <ele>57.7</ele>
        <time>2024-12-19T08:16:24Z</time>
      </trkpt>
      <trkpt lat="47.93897" lon="-2.5289">
        <ele>57.6</ele>
        <time>2024-12-19T08:16:25Z</time>
      </trkpt>
      <trkpt lat="47.93897" lon="-2.52888">
        <ele>57.6</ele>
        <time>2024-12-19T08:16:26Z</time>
      </trkpt>
      <trkpt lat="47.93897" lon="-2.52887">
        <ele>57.6</ele>
        <time>2024-12-19T08:16:27Z</time>
      </trkpt>
      <trkpt lat="47.93897" lon="-2.52885">
        <ele>57.5</ele>
        <time>2024-12-19T08:16:28Z</time>
      </trkpt>
      <trkpt lat="47.93896" lon="-2.52883">
        <ele>57.5</ele>
        <time>2024-12-19T08:16:29Z</time>
      </trkpt>
      <trkpt lat="47.93896" lon="-2.52881">
        <ele>57.5</ele>
        <time>2024-12-19T08:16:30Z</time>
      </trkpt>
      <trkpt lat="47.93896" lon="-2.52879">
        <ele>57.5</ele>
        <time>2024-12-19T08:16:31Z</time>
      </trkpt>
      <trkpt lat="47.93895" lon="-2.52877">
        <ele>57.5</ele>
        <time>2024-12-19T08:16:32Z</time>
      </trkpt>
      <trkpt lat="47.93895" lon="-2.52875">
        <ele>57.5</ele>
        <time>2024-12-19T08:16:33Z</time>
      </trkpt>
      <trkpt lat="47.93895" lon="-2.52874">
        <ele>57.5</ele>
        <time>2024-12-19T08:16:34Z</time>
      </trkpt>
      <trkpt lat="47.93895" lon="-2.52872">
        <ele>57.5</ele>
        <time>2024-12-19T08:16:35Z</time>
      </trkpt>
      <trkpt lat="47.93895" lon="-2.5287">
        <ele>57.4</ele>
        <time>2024-12-19T08:16:36Z</time>
      </trkpt>
      <trkpt lat="47.93895" lon="-2.52868">
        <ele>57.4</ele>
        <time>2024-12-19T08:16:37Z</time>
      </trkpt>
      <trkpt lat="47.93895" lon="-2.52867">
        <ele>57.4</ele>
        <time>2024-12-19T08:16:38Z</time>
      </trkpt>
      <trkpt lat="47.93894" lon="-2.52865">
        <ele>57.4</ele>
        <time>2024-12-19T08:16:39Z</time>
      </trkpt>
      <trkpt lat="47.93894" lon="-2.52864">
        <ele>57.4</ele>
        <time>2024-12-19T08:16:40Z</time>
      </trkpt>
      <trkpt lat="47.93894" lon="-2.52863">
        <ele>57.3</ele>
        <time>2024-12-19T08:16:41Z</time>
      </trkpt>
      <trkpt lat="47.93893" lon="-2.52861">
        <ele>57.3</ele>
        <time>2024-12-19T08:16:42Z</time>
      </trkpt>
      <trkpt lat="47.93892" lon="-2.5286">
        <ele>57.3</ele>
        <time>2024-12-19T08:16:43Z</time>
      </trkpt>
      <trkpt lat="47.93892" lon="-2.52858">
        <ele>57.2</ele>
        <time>2024-12-19T08:16:44Z</time>
      </trkpt>
      <trkpt lat="47.93891" lon="-2.52855">
        <ele>57.2</ele>
        <time>2024-12-19T08:16:45Z</time>
      </trkpt>
      <trkpt lat="47.93891" lon="-2.52853">
        <ele>57.1</ele>
        <time>2024-12-19T08:16:46Z</time>
      </trkpt>
      <trkpt lat="47.9389" lon="-2.52851">
        <ele>57.1</ele>
        <time>2024-12-19T08:16:47Z</time>
      </trkpt>
      <trkpt lat="47.9389" lon="-2.52849">
        <ele>57.1</ele>
        <time>2024-12-19T08:16:48Z</time>
      </trkpt>
      <trkpt lat="47.9389" lon="-2.52847">
        <ele>57.1</ele>
        <time>2024-12-19T08:16:49Z</time>
      </trkpt>
      <trkpt lat="47.93889" lon="-2.52845">
        <ele>57</ele>
        <time>2024-12-19T08:16:50Z</time>
      </trkpt>
      <trkpt lat="47.93889" lon="-2.52843">
        <ele>57</ele>
        <time>2024-12-19T08:16:51Z</time>
      </trkpt>
      <trkpt lat="47.93889" lon="-2.52841">
        <ele>57</ele>
        <time>2024-12-19T08:16:52Z</time>
      </trkpt>
      <trkpt lat="47.93889" lon="-2.52838">
        <ele>57</ele>
        <time>2024-12-19T08:16:53Z</time>
      </trkpt>
      <trkpt lat="47.93888" lon="-2.52836">
        <ele>57</ele>
        <time>2024-12-19T08:16:54Z</time>
      </trkpt>
      <trkpt lat="47.93888" lon="-2.52833">
        <ele>56.9</ele>
        <time>2024-12-19T08:16:55Z</time>
      </trkpt>
      <trkpt lat="47.93888" lon="-2.52831">
        <ele>56.9</ele>
        <time>2024-12-19T08:16:56Z</time>
      </trkpt>
      <trkpt lat="47.93887" lon="-2.52829">
        <ele>56.9</ele>
        <time>2024-12-19T08:16:57Z</time>
      </trkpt>
      <trkpt lat="47.93887" lon="-2.52828">
        <ele>56.8</ele>
        <time>2024-12-19T08:16:58Z</time>
      </trkpt>
      <trkpt lat="47.93886" lon="-2.52826">
        <ele>56.8</ele>
        <time>2024-12-19T08:16:59Z</time>
      </trkpt>
      <trkpt lat="47.93886" lon="-2.52824">
        <ele>56.8</ele>
        <time>2024-12-19T08:17:00Z</time>
      </trkpt>
      <trkpt lat="47.93885" lon="-2.52823">
        <ele>56.7</ele>
        <time>2024-12-19T08:17:01Z</time>
      </trkpt>
      <trkpt lat="47.93885" lon="-2.52821">
        <ele>56.7</ele>
        <time>2024-12-19T08:17:02Z</time>
      </trkpt>
      <trkpt lat="47.93885" lon="-2.52819">
        <ele>56.7</ele>
        <time>2024-12-19T08:17:03Z</time>
      </trkpt>
      <trkpt lat="47.93884" lon="-2.52817">
        <ele>56.6</ele>
        <time>2024-12-19T08:17:04Z</time>
      </trkpt>
      <trkpt lat="47.93884" lon="-2.52815">
        <ele>56.6</ele>
        <time>2024-12-19T08:17:05Z</time>
      </trkpt>
      <trkpt lat="47.93883" lon="-2.52813">
        <ele>56.6</ele>
        <time>2024-12-19T08:17:06Z</time>
      </trkpt>
      <trkpt lat="47.93883" lon="-2.52812">
        <ele>56.6</ele>
        <time>2024-12-19T08:17:07Z</time>
      </trkpt>
      <trkpt lat="47.93883" lon="-2.5281">
        <ele>56.6</ele>
        <time>2024-12-19T08:17:08Z</time>
      </trkpt>
      <trkpt lat="47.93883" lon="-2.52808">
        <ele>56.5</ele>
        <time>2024-12-19T08:17:09Z</time>
      </trkpt>
      <trkpt lat="47.93882" lon="-2.52806">
        <ele>56.5</ele>
        <time>2024-12-19T08:17:10Z</time>
      </trkpt>
      <trkpt lat="47.93882" lon="-2.52804">
        <ele>56.6</ele>
        <time>2024-12-19T08:17:11Z</time>
      </trkpt>
      <trkpt lat="47.93882" lon="-2.52802">
        <ele>56.6</ele>
        <time>2024-12-19T08:17:12Z</time>
      </trkpt>
      <trkpt lat="47.93881" lon="-2.528">
        <ele>56.6</ele>
        <time>2024-12-19T08:17:13Z</time>
      </trkpt>
      <trkpt lat="47.93881" lon="-2.52799">
        <ele>56.7</ele>
        <time>2024-12-19T08:17:14Z</time>
      </trkpt>
      <trkpt lat="47.93881" lon="-2.52797">
        <ele>56.7</ele>
        <time>2024-12-19T08:17:15Z</time>
      </trkpt>
      <trkpt lat="47.9388" lon="-2.52796">
        <ele>56.7</ele>
        <time>2024-12-19T08:17:16Z</time>
      </trkpt>
      <trkpt lat="47.9388" lon="-2.52794">
        <ele>56.8</ele>
        <time>2024-12-19T08:17:17Z</time>
      </trkpt>
      <trkpt lat="47.9388" lon="-2.52793">
        <ele>56.8</ele>
        <time>2024-12-19T08:17:18Z</time>
      </trkpt>
      <trkpt lat="47.93879" lon="-2.52791">
        <ele>56.8</ele>
        <time>2024-12-19T08:17:19Z</time>
      </trkpt>
      <trkpt lat="47.93879" lon="-2.52789">
        <ele>56.9</ele>
        <time>2024-12-19T08:17:20Z</time>
      </trkpt>
      <trkpt lat="47.93878" lon="-2.52787">
        <ele>56.9</ele>
        <time>2024-12-19T08:17:21Z</time>
      </trkpt>
      <trkpt lat="47.93878" lon="-2.52784">
        <ele>57</ele>
        <time>2024-12-19T08:17:22Z</time>
      </trkpt>
      <trkpt lat="47.93878" lon="-2.52782">
        <ele>57</ele>
        <time>2024-12-19T08:17:23Z</time>
      </trkpt>
      <trkpt lat="47.93878" lon="-2.52779">
        <ele>57.1</ele>
        <time>2024-12-19T08:17:24Z</time>
      </trkpt>
      <trkpt lat="47.93877" lon="-2.52777">
        <ele>57.2</ele>
        <time>2024-12-19T08:17:25Z</time>
      </trkpt>
      <trkpt lat="47.93877" lon="-2.52776">
        <ele>57.3</ele>
        <time>2024-12-19T08:17:26Z</time>
      </trkpt>
      <trkpt lat="47.93877" lon="-2.52774">
        <ele>57.4</ele>
        <time>2024-12-19T08:17:27Z</time>
      </trkpt>
      <trkpt lat="47.93876" lon="-2.52772">
        <ele>57.5</ele>
        <time>2024-12-19T08:17:28Z</time>
      </trkpt>
      <trkpt lat="47.93876" lon="-2.5277">
        <ele>57.6</ele>
        <time>2024-12-19T08:17:29Z</time>
      </trkpt>
      <trkpt lat="47.93876" lon="-2.52768">
        <ele>57.7</ele>
        <time>2024-12-19T08:17:30Z</time>
      </trkpt>
      <trkpt lat="47.93876" lon="-2.52766">
        <ele>57.9</ele>
        <time>2024-12-19T08:17:31Z</time>
      </trkpt>
      <trkpt lat="47.93875" lon="-2.52763">
        <ele>58.1</ele>
        <time>2024-12-19T08:17:32Z</time>
      </trkpt>
      <trkpt lat="47.93875" lon="-2.52761">
        <ele>58.2</ele>
        <time>2024-12-19T08:17:33Z</time>
      </trkpt>
      <trkpt lat="47.93875" lon="-2.52759">
        <ele>58.4</ele>
        <time>2024-12-19T08:17:34Z</time>
      </trkpt>
      <trkpt lat="47.93875" lon="-2.52756">
        <ele>58.6</ele>
        <time>2024-12-19T08:17:35Z</time>
      </trkpt>
      <trkpt lat="47.93875" lon="-2.52754">
        <ele>58.7</ele>
        <time>2024-12-19T08:17:36Z</time>
      </trkpt>
      <trkpt lat="47.93875" lon="-2.52752">
        <ele>58.8</ele>
        <time>2024-12-19T08:17:37Z</time>
      </trkpt>
      <trkpt lat="47.93875" lon="-2.5275">
        <ele>58.9</ele>
        <time>2024-12-19T08:17:38Z</time>
      </trkpt>
      <trkpt lat="47.93874" lon="-2.52748">
        <ele>59</ele>
        <time>2024-12-19T08:17:39Z</time>
      </trkpt>
      <trkpt lat="47.93874" lon="-2.52746">
        <ele>59</ele>
        <time>2024-12-19T08:17:40Z</time>
      </trkpt>
      <trkpt lat="47.93873" lon="-2.52744">
        <ele>59.1</ele>
        <time>2024-12-19T08:17:41Z</time>
      </trkpt>
      <trkpt lat="47.93873" lon="-2.52742">
        <ele>59.1</ele>
        <time>2024-12-19T08:17:42Z</time>
      </trkpt>
      <trkpt lat="47.93873" lon="-2.52739">
        <ele>59.2</ele>
        <time>2024-12-19T08:17:43Z</time>
      </trkpt>
      <trkpt lat="47.93872" lon="-2.52737">
        <ele>59.2</ele>
        <time>2024-12-19T08:17:44Z</time>
      </trkpt>
      <trkpt lat="47.93872" lon="-2.52736">
        <ele>59.3</ele>
        <time>2024-12-19T08:17:45Z</time>
      </trkpt>
      <trkpt lat="47.93871" lon="-2.52734">
        <ele>59.3</ele>
        <time>2024-12-19T08:17:46Z</time>
      </trkpt>
      <trkpt lat="47.93871" lon="-2.52731">
        <ele>59.4</ele>
        <time>2024-12-19T08:17:47Z</time>
      </trkpt>
      <trkpt lat="47.93871" lon="-2.52729">
        <ele>59.4</ele>
        <time>2024-12-19T08:17:48Z</time>
      </trkpt>
      <trkpt lat="47.93871" lon="-2.52728">
        <ele>59.5</ele>
        <time>2024-12-19T08:17:49Z</time>
      </trkpt>
      <trkpt lat="47.9387" lon="-2.52727">
        <ele>59.5</ele>
        <time>2024-12-19T08:17:50Z</time>
      </trkpt>
      <trkpt lat="47.9387" lon="-2.52726">
        <ele>59.5</ele>
        <time>2024-12-19T08:17:51Z</time>
      </trkpt>
      <trkpt lat="47.9387" lon="-2.52724">
        <ele>59.5</ele>
        <time>2024-12-19T08:17:52Z</time>
      </trkpt>
      <trkpt lat="47.9387" lon="-2.52723">
        <ele>59.6</ele>
        <time>2024-12-19T08:17:53Z</time>
      </trkpt>
      <trkpt lat="47.9387" lon="-2.52722">
        <ele>59.6</ele>
        <time>2024-12-19T08:17:54Z</time>
      </trkpt>
      <trkpt lat="47.93869" lon="-2.5272">
        <ele>59.7</ele>
        <time>2024-12-19T08:17:55Z</time>
      </trkpt>
      <trkpt lat="47.93869" lon="-2.52718">
        <ele>59.7</ele>
        <time>2024-12-19T08:17:56Z</time>
      </trkpt>
      <trkpt lat="47.93869" lon="-2.52716">
        <ele>59.8</ele>
        <time>2024-12-19T08:17:57Z</time>
      </trkpt>
      <trkpt lat="47.93868" lon="-2.52714">
        <ele>59.8</ele>
        <time>2024-12-19T08:17:58Z</time>
      </trkpt>
      <trkpt lat="47.93868" lon="-2.52713">
        <ele>59.8</ele>
        <time>2024-12-19T08:17:59Z</time>
      </trkpt>
      <trkpt lat="47.93868" lon="-2.52711">
        <ele>59.9</ele>
        <time>2024-12-19T08:18:00Z</time>
      </trkpt>
      <trkpt lat="47.93868" lon="-2.5271">
        <ele>59.9</ele>
        <time>2024-12-19T08:18:01Z</time>
      </trkpt>
      <trkpt lat="47.93868" lon="-2.52708">
        <ele>60</ele>
        <time>2024-12-19T08:18:02Z</time>
      </trkpt>
      <trkpt lat="47.93868" lon="-2.52707">
        <ele>60</ele>
        <time>2024-12-19T08:18:03Z</time>
      </trkpt>
      <trkpt lat="47.93867" lon="-2.52705">
        <ele>60.1</ele>
        <time>2024-12-19T08:18:04Z</time>
      </trkpt>
      <trkpt lat="47.93867" lon="-2.52704">
        <ele>60.1</ele>
        <time>2024-12-19T08:18:05Z</time>
      </trkpt>
      <trkpt lat="47.93866" lon="-2.52702">
        <ele>60.1</ele>
        <time>2024-12-19T08:18:06Z</time>
      </trkpt>
      <trkpt lat="47.93865" lon="-2.52701">
        <ele>60.1</ele>
        <time>2024-12-19T08:18:07Z</time>
      </trkpt>
      <trkpt lat="47.93865" lon="-2.527">
        <ele>60.1</ele>
        <time>2024-12-19T08:18:08Z</time>
      </trkpt>
      <trkpt lat="47.93864" lon="-2.52698">
        <ele>60.1</ele>
        <time>2024-12-19T08:18:09Z</time>
      </trkpt>
      <trkpt lat="47.93864" lon="-2.52695">
        <ele>60.1</ele>
        <time>2024-12-19T08:18:10Z</time>
      </trkpt>
      <trkpt lat="47.93863" lon="-2.52693">
        <ele>60.2</ele>
        <time>2024-12-19T08:18:11Z</time>
      </trkpt>
      <trkpt lat="47.93863" lon="-2.5269">
        <ele>60.3</ele>
        <time>2024-12-19T08:18:12Z</time>
      </trkpt>
      <trkpt lat="47.93862" lon="-2.52688">
        <ele>60.3</ele>
        <time>2024-12-19T08:18:13Z</time>
      </trkpt>
      <trkpt lat="47.93862" lon="-2.52686">
        <ele>60.4</ele>
        <time>2024-12-19T08:18:14Z</time>
      </trkpt>
      <trkpt lat="47.93862" lon="-2.52684">
        <ele>60.4</ele>
        <time>2024-12-19T08:18:15Z</time>
      </trkpt>
      <trkpt lat="47.93861" lon="-2.52682">
        <ele>60.4</ele>
        <time>2024-12-19T08:18:16Z</time>
      </trkpt>
      <trkpt lat="47.93861" lon="-2.5268">
        <ele>60.5</ele>
        <time>2024-12-19T08:18:17Z</time>
      </trkpt>
      <trkpt lat="47.9386" lon="-2.52679">
        <ele>60.5</ele>
        <time>2024-12-19T08:18:18Z</time>
      </trkpt>
      <trkpt lat="47.9386" lon="-2.52677">
        <ele>60.5</ele>
        <time>2024-12-19T08:18:19Z</time>
      </trkpt>
      <trkpt lat="47.9386" lon="-2.52675">
        <ele>60.6</ele>
        <time>2024-12-19T08:18:20Z</time>
      </trkpt>
      <trkpt lat="47.9386" lon="-2.52674">
        <ele>60.6</ele>
        <time>2024-12-19T08:18:21Z</time>
      </trkpt>
      <trkpt lat="47.93859" lon="-2.52671">
        <ele>60.6</ele>
        <time>2024-12-19T08:18:22Z</time>
      </trkpt>
      <trkpt lat="47.93859" lon="-2.52669">
        <ele>60.7</ele>
        <time>2024-12-19T08:18:23Z</time>
      </trkpt>
      <trkpt lat="47.93859" lon="-2.52667">
        <ele>60.8</ele>
        <time>2024-12-19T08:18:24Z</time>
      </trkpt>
      <trkpt lat="47.93859" lon="-2.52665">
        <ele>60.8</ele>
        <time>2024-12-19T08:18:25Z</time>
      </trkpt>
      <trkpt lat="47.93859" lon="-2.52663">
        <ele>60.9</ele>
        <time>2024-12-19T08:18:26Z</time>
      </trkpt>
      <trkpt lat="47.93858" lon="-2.52662">
        <ele>60.9</ele>
        <time>2024-12-19T08:18:27Z</time>
      </trkpt>
      <trkpt lat="47.93858" lon="-2.5266">
        <ele>60.9</ele>
        <time>2024-12-19T08:18:28Z</time>
      </trkpt>
      <trkpt lat="47.93858" lon="-2.52658">
        <ele>60.9</ele>
        <time>2024-12-19T08:18:29Z</time>
      </trkpt>
      <trkpt lat="47.93858" lon="-2.52656">
        <ele>61</ele>
        <time>2024-12-19T08:18:30Z</time>
      </trkpt>
      <trkpt lat="47.93857" lon="-2.52654">
        <ele>61.1</ele>
        <time>2024-12-19T08:18:31Z</time>
      </trkpt>
      <trkpt lat="47.93857" lon="-2.52652">
        <ele>61.1</ele>
        <time>2024-12-19T08:18:32Z</time>
      </trkpt>
      <trkpt lat="47.93857" lon="-2.5265">
        <ele>61.1</ele>
        <time>2024-12-19T08:18:33Z</time>
      </trkpt>
      <trkpt lat="47.93857" lon="-2.52648">
        <ele>61.2</ele>
        <time>2024-12-19T08:18:34Z</time>
      </trkpt>
      <trkpt lat="47.93856" lon="-2.52646">
        <ele>61.2</ele>
        <time>2024-12-19T08:18:35Z</time>
      </trkpt>
      <trkpt lat="47.93856" lon="-2.52643">
        <ele>61.3</ele>
        <time>2024-12-19T08:18:36Z</time>
      </trkpt>
      <trkpt lat="47.93856" lon="-2.52641">
        <ele>61.3</ele>
        <time>2024-12-19T08:18:37Z</time>
      </trkpt>
      <trkpt lat="47.93856" lon="-2.52639">
        <ele>61.4</ele>
        <time>2024-12-19T08:18:38Z</time>
      </trkpt>
      <trkpt lat="47.93855" lon="-2.52637">
        <ele>61.4</ele>
        <time>2024-12-19T08:18:39Z</time>
      </trkpt>
      <trkpt lat="47.93855" lon="-2.52635">
        <ele>61.4</ele>
        <time>2024-12-19T08:18:40Z</time>
      </trkpt>
      <trkpt lat="47.93855" lon="-2.52633">
        <ele>61.4</ele>
        <time>2024-12-19T08:18:41Z</time>
      </trkpt>
      <trkpt lat="47.93855" lon="-2.52631">
        <ele>61.4</ele>
        <time>2024-12-19T08:18:42Z</time>
      </trkpt>
      <trkpt lat="47.93855" lon="-2.52629">
        <ele>61.4</ele>
        <time>2024-12-19T08:18:43Z</time>
      </trkpt>
      <trkpt lat="47.93856" lon="-2.52627">
        <ele>61.4</ele>
        <time>2024-12-19T08:18:44Z</time>
      </trkpt>
      <trkpt lat="47.93856" lon="-2.52625">
        <ele>61.4</ele>
        <time>2024-12-19T08:18:45Z</time>
      </trkpt>
      <trkpt lat="47.93855" lon="-2.52623">
        <ele>61.4</ele>
        <time>2024-12-19T08:18:46Z</time>
      </trkpt>
      <trkpt lat="47.93855" lon="-2.52621">
        <ele>61.4</ele>
        <time>2024-12-19T08:18:47Z</time>
      </trkpt>
      <trkpt lat="47.93855" lon="-2.5262">
        <ele>61.3</ele>
        <time>2024-12-19T08:18:48Z</time>
      </trkpt>
      <trkpt lat="47.93855" lon="-2.52619">
        <ele>61.3</ele>
        <time>2024-12-19T08:18:49Z</time>
      </trkpt>
      <trkpt lat="47.93855" lon="-2.52617">
        <ele>61.3</ele>
        <time>2024-12-19T08:18:50Z</time>
      </trkpt>
      <trkpt lat="47.93855" lon="-2.52614">
        <ele>61.3</ele>
        <time>2024-12-19T08:18:51Z</time>
      </trkpt>
      <trkpt lat="47.93855" lon="-2.52612">
        <ele>61.3</ele>
        <time>2024-12-19T08:18:52Z</time>
      </trkpt>
      <trkpt lat="47.93855" lon="-2.5261">
        <ele>61.2</ele>
        <time>2024-12-19T08:18:53Z</time>
      </trkpt>
      <trkpt lat="47.93855" lon="-2.52608">
        <ele>61.2</ele>
        <time>2024-12-19T08:18:54Z</time>
      </trkpt>
      <trkpt lat="47.93855" lon="-2.52606">
        <ele>61.2</ele>
        <time>2024-12-19T08:18:55Z</time>
      </trkpt>
      <trkpt lat="47.93855" lon="-2.52605">
        <ele>61.2</ele>
        <time>2024-12-19T08:18:56Z</time>
      </trkpt>
      <trkpt lat="47.93856" lon="-2.52604">
        <ele>61.2</ele>
        <time>2024-12-19T08:18:57Z</time>
      </trkpt>
      <trkpt lat="47.93856" lon="-2.52603">
        <ele>61.2</ele>
        <time>2024-12-19T08:18:58Z</time>
      </trkpt>
      <trkpt lat="47.93856" lon="-2.52601">
        <ele>61.2</ele>
        <time>2024-12-19T08:18:59Z</time>
      </trkpt>
      <trkpt lat="47.93857" lon="-2.526">
        <ele>61.2</ele>
        <time>2024-12-19T08:19:00Z</time>
      </trkpt>
      <trkpt lat="47.93857" lon="-2.52599">
        <ele>61.1</ele>
        <time>2024-12-19T08:19:01Z</time>
      </trkpt>
      <trkpt lat="47.93857" lon="-2.52598">
        <ele>61.1</ele>
        <time>2024-12-19T08:19:02Z</time>
      </trkpt>
      <trkpt lat="47.93857" lon="-2.52596">
        <ele>61.1</ele>
        <time>2024-12-19T08:19:03Z</time>
      </trkpt>
      <trkpt lat="47.93857" lon="-2.52593">
        <ele>61</ele>
        <time>2024-12-19T08:19:04Z</time>
      </trkpt>
      <trkpt lat="47.93858" lon="-2.52591">
        <ele>61</ele>
        <time>2024-12-19T08:19:05Z</time>
      </trkpt>
      <trkpt lat="47.93858" lon="-2.52589">
        <ele>61</ele>
        <time>2024-12-19T08:19:06Z</time>
      </trkpt>
      <trkpt lat="47.93859" lon="-2.52587">
        <ele>61</ele>
        <time>2024-12-19T08:19:07Z</time>
      </trkpt>
      <trkpt lat="47.9386" lon="-2.52585">
        <ele>61</ele>
        <time>2024-12-19T08:19:08Z</time>
      </trkpt>
      <trkpt lat="47.9386" lon="-2.52584">
        <ele>60.9</ele>
        <time>2024-12-19T08:19:09Z</time>
      </trkpt>
      <trkpt lat="47.93861" lon="-2.52582">
        <ele>61</ele>
        <time>2024-12-19T08:19:10Z</time>
      </trkpt>
      <trkpt lat="47.93861" lon="-2.52579">
        <ele>61</ele>
        <time>2024-12-19T08:19:11Z</time>
      </trkpt>
      <trkpt lat="47.93862" lon="-2.52577">
        <ele>61</ele>
        <time>2024-12-19T08:19:12Z</time>
      </trkpt>
      <trkpt lat="47.93862" lon="-2.52574">
        <ele>61</ele>
        <time>2024-12-19T08:19:13Z</time>
      </trkpt>
      <trkpt lat="47.93862" lon="-2.52573">
        <ele>61</ele>
        <time>2024-12-19T08:19:14Z</time>
      </trkpt>
      <trkpt lat="47.93862" lon="-2.52572">
        <ele>61</ele>
        <time>2024-12-19T08:19:15Z</time>
      </trkpt>
      <trkpt lat="47.93861" lon="-2.52571">
        <ele>61</ele>
        <time>2024-12-19T08:19:16Z</time>
      </trkpt>
      <trkpt lat="47.93861" lon="-2.5257">
        <ele>61</ele>
        <time>2024-12-19T08:19:17Z</time>
      </trkpt>
      <trkpt lat="47.93861" lon="-2.52568">
        <ele>61</ele>
        <time>2024-12-19T08:19:18Z</time>
      </trkpt>
      <trkpt lat="47.93861" lon="-2.52566">
        <ele>61</ele>
        <time>2024-12-19T08:19:19Z</time>
      </trkpt>
      <trkpt lat="47.93862" lon="-2.52564">
        <ele>61</ele>
        <time>2024-12-19T08:19:20Z</time>
      </trkpt>
      <trkpt lat="47.93862" lon="-2.52561">
        <ele>61</ele>
        <time>2024-12-19T08:19:21Z</time>
      </trkpt>
      <trkpt lat="47.93862" lon="-2.52559">
        <ele>61</ele>
        <time>2024-12-19T08:19:22Z</time>
      </trkpt>
      <trkpt lat="47.93862" lon="-2.52557">
        <ele>61.1</ele>
        <time>2024-12-19T08:19:23Z</time>
      </trkpt>
      <trkpt lat="47.93862" lon="-2.52555">
        <ele>61.1</ele>
        <time>2024-12-19T08:19:24Z</time>
      </trkpt>
      <trkpt lat="47.93863" lon="-2.52554">
        <ele>61</ele>
        <time>2024-12-19T08:19:25Z</time>
      </trkpt>
      <trkpt lat="47.93863" lon="-2.52552">
        <ele>61</ele>
        <time>2024-12-19T08:19:26Z</time>
      </trkpt>
      <trkpt lat="47.93863" lon="-2.5255">
        <ele>60.9</ele>
        <time>2024-12-19T08:19:27Z</time>
      </trkpt>
      <trkpt lat="47.93863" lon="-2.52549">
        <ele>60.9</ele>
        <time>2024-12-19T08:19:28Z</time>
      </trkpt>
      <trkpt lat="47.93864" lon="-2.52547">
        <ele>60.9</ele>
        <time>2024-12-19T08:19:29Z</time>
      </trkpt>
      <trkpt lat="47.93864" lon="-2.52545">
        <ele>60.8</ele>
        <time>2024-12-19T08:19:30Z</time>
      </trkpt>
      <trkpt lat="47.93864" lon="-2.52543">
        <ele>60.7</ele>
        <time>2024-12-19T08:19:31Z</time>
      </trkpt>
      <trkpt lat="47.93864" lon="-2.52542">
        <ele>60.7</ele>
        <time>2024-12-19T08:19:32Z</time>
      </trkpt>
      <trkpt lat="47.93863" lon="-2.5254">
        <ele>60.6</ele>
        <time>2024-12-19T08:19:33Z</time>
      </trkpt>
      <trkpt lat="47.93863" lon="-2.52539">
        <ele>60.5</ele>
        <time>2024-12-19T08:19:34Z</time>
      </trkpt>
      <trkpt lat="47.93862" lon="-2.52537">
        <ele>60.4</ele>
        <time>2024-12-19T08:19:35Z</time>
      </trkpt>
      <trkpt lat="47.93862" lon="-2.52537">
        <ele>60.4</ele>
        <time>2024-12-19T08:19:36Z</time>
      </trkpt>
      <trkpt lat="47.93863" lon="-2.52536">
        <ele>60.4</ele>
        <time>2024-12-19T08:19:37Z</time>
      </trkpt>
      <trkpt lat="47.93863" lon="-2.52535">
        <ele>60.4</ele>
        <time>2024-12-19T08:19:38Z</time>
      </trkpt>
      <trkpt lat="47.93864" lon="-2.52533">
        <ele>60.4</ele>
        <time>2024-12-19T08:19:39Z</time>
      </trkpt>
      <trkpt lat="47.93864" lon="-2.52531">
        <ele>60.3</ele>
        <time>2024-12-19T08:19:40Z</time>
      </trkpt>
      <trkpt lat="47.93865" lon="-2.52529">
        <ele>60.3</ele>
        <time>2024-12-19T08:19:41Z</time>
      </trkpt>
      <trkpt lat="47.93865" lon="-2.52527">
        <ele>60.2</ele>
        <time>2024-12-19T08:19:42Z</time>
      </trkpt>
      <trkpt lat="47.93866" lon="-2.52524">
        <ele>60.2</ele>
        <time>2024-12-19T08:19:43Z</time>
      </trkpt>
      <trkpt lat="47.93866" lon="-2.52521">
        <ele>60.1</ele>
        <time>2024-12-19T08:19:44Z</time>
      </trkpt>
      <trkpt lat="47.93866" lon="-2.52517">
        <ele>60</ele>
        <time>2024-12-19T08:19:45Z</time>
      </trkpt>
      <trkpt lat="47.93866" lon="-2.52515">
        <ele>59.9</ele>
        <time>2024-12-19T08:19:46Z</time>
      </trkpt>
      <trkpt lat="47.93867" lon="-2.52512">
        <ele>59.8</ele>
        <time>2024-12-19T08:19:47Z</time>
      </trkpt>
      <trkpt lat="47.93867" lon="-2.5251">
        <ele>59.8</ele>
        <time>2024-12-19T08:19:48Z</time>
      </trkpt>
      <trkpt lat="47.93867" lon="-2.52508">
        <ele>59.7</ele>
        <time>2024-12-19T08:19:49Z</time>
      </trkpt>
      <trkpt lat="47.93867" lon="-2.52507">
        <ele>59.7</ele>
        <time>2024-12-19T08:19:50Z</time>
      </trkpt>
      <trkpt lat="47.93868" lon="-2.52505">
        <ele>59.6</ele>
        <time>2024-12-19T08:19:51Z</time>
      </trkpt>
      <trkpt lat="47.93868" lon="-2.52503">
        <ele>59.6</ele>
        <time>2024-12-19T08:19:52Z</time>
      </trkpt>
      <trkpt lat="47.93868" lon="-2.52502">
        <ele>59.5</ele>
        <time>2024-12-19T08:19:53Z</time>
      </trkpt>
      <trkpt lat="47.93868" lon="-2.525">
        <ele>59.5</ele>
        <time>2024-12-19T08:19:54Z</time>
      </trkpt>
      <trkpt lat="47.93868" lon="-2.52498">
        <ele>59.4</ele>
        <time>2024-12-19T08:19:55Z</time>
      </trkpt>
      <trkpt lat="47.93869" lon="-2.52496">
        <ele>59.3</ele>
        <time>2024-12-19T08:19:56Z</time>
      </trkpt>
      <trkpt lat="47.93869" lon="-2.52495">
        <ele>59.2</ele>
        <time>2024-12-19T08:19:57Z</time>
      </trkpt>
      <trkpt lat="47.9387" lon="-2.52493">
        <ele>59.1</ele>
        <time>2024-12-19T08:19:58Z</time>
      </trkpt>
      <trkpt lat="47.9387" lon="-2.5249">
        <ele>58.9</ele>
        <time>2024-12-19T08:19:59Z</time>
      </trkpt>
      <trkpt lat="47.9387" lon="-2.52488">
        <ele>58.8</ele>
        <time>2024-12-19T08:20:00Z</time>
      </trkpt>
      <trkpt lat="47.9387" lon="-2.52487">
        <ele>58.7</ele>
        <time>2024-12-19T08:20:01Z</time>
      </trkpt>
      <trkpt lat="47.9387" lon="-2.52485">
        <ele>58.6</ele>
        <time>2024-12-19T08:20:02Z</time>
      </trkpt>
      <trkpt lat="47.9387" lon="-2.52484">
        <ele>58.4</ele>
        <time>2024-12-19T08:20:03Z</time>
      </trkpt>
      <trkpt lat="47.9387" lon="-2.52482">
        <ele>58.3</ele>
        <time>2024-12-19T08:20:04Z</time>
      </trkpt>
      <trkpt lat="47.9387" lon="-2.5248">
        <ele>58.2</ele>
        <time>2024-12-19T08:20:05Z</time>
      </trkpt>
      <trkpt lat="47.9387" lon="-2.52478">
        <ele>58.1</ele>
        <time>2024-12-19T08:20:06Z</time>
      </trkpt>
      <trkpt lat="47.93871" lon="-2.52476">
        <ele>58</ele>
        <time>2024-12-19T08:20:07Z</time>
      </trkpt>
      <trkpt lat="47.93871" lon="-2.52475">
        <ele>57.9</ele>
        <time>2024-12-19T08:20:08Z</time>
      </trkpt>
      <trkpt lat="47.93872" lon="-2.52473">
        <ele>57.8</ele>
        <time>2024-12-19T08:20:09Z</time>
      </trkpt>
      <trkpt lat="47.93873" lon="-2.52471">
        <ele>57.8</ele>
        <time>2024-12-19T08:20:10Z</time>
      </trkpt>
      <trkpt lat="47.93874" lon="-2.52468">
        <ele>57.8</ele>
        <time>2024-12-19T08:20:11Z</time>
      </trkpt>
      <trkpt lat="47.93874" lon="-2.52467">
        <ele>57.8</ele>
        <time>2024-12-19T08:20:12Z</time>
      </trkpt>
      <trkpt lat="47.93875" lon="-2.52465">
        <ele>57.9</ele>
        <time>2024-12-19T08:20:13Z</time>
      </trkpt>
      <trkpt lat="47.93876" lon="-2.52464">
        <ele>57.9</ele>
        <time>2024-12-19T08:20:14Z</time>
      </trkpt>
      <trkpt lat="47.93877" lon="-2.52464">
        <ele>58</ele>
        <time>2024-12-19T08:20:15Z</time>
      </trkpt>
      <trkpt lat="47.93878" lon="-2.52464">
        <ele>58</ele>
        <time>2024-12-19T08:20:16Z</time>
      </trkpt>
      <trkpt lat="47.93879" lon="-2.52464">
        <ele>58.1</ele>
        <time>2024-12-19T08:20:17Z</time>
      </trkpt>
      <trkpt lat="47.9388" lon="-2.52465">
        <ele>58.2</ele>
        <time>2024-12-19T08:20:18Z</time>
      </trkpt>
      <trkpt lat="47.93881" lon="-2.52466">
        <ele>58.3</ele>
        <time>2024-12-19T08:20:19Z</time>
      </trkpt>
      <trkpt lat="47.93882" lon="-2.52466">
        <ele>58.4</ele>
        <time>2024-12-19T08:20:20Z</time>
      </trkpt>
      <trkpt lat="47.93883" lon="-2.52467">
        <ele>58.4</ele>
        <time>2024-12-19T08:20:21Z</time>
      </trkpt>
      <trkpt lat="47.93884" lon="-2.52467">
        <ele>58.5</ele>
        <time>2024-12-19T08:20:22Z</time>
      </trkpt>
      <trkpt lat="47.93885" lon="-2.52467">
        <ele>58.6</ele>
        <time>2024-12-19T08:20:23Z</time>
      </trkpt>
      <trkpt lat="47.93886" lon="-2.52468">
        <ele>58.7</ele>
        <time>2024-12-19T08:20:24Z</time>
      </trkpt>
      <trkpt lat="47.93887" lon="-2.52469">
        <ele>58.8</ele>
        <time>2024-12-19T08:20:25Z</time>
      </trkpt>
      <trkpt lat="47.93888" lon="-2.52471">
        <ele>58.9</ele>
        <time>2024-12-19T08:20:26Z</time>
      </trkpt>
      <trkpt lat="47.93889" lon="-2.52472">
        <ele>59</ele>
        <time>2024-12-19T08:20:27Z</time>
      </trkpt>
      <trkpt lat="47.9389" lon="-2.52473">
        <ele>59.1</ele>
        <time>2024-12-19T08:20:28Z</time>
      </trkpt>
      <trkpt lat="47.93891" lon="-2.52474">
        <ele>59.3</ele>
        <time>2024-12-19T08:20:29Z</time>
      </trkpt>
      <trkpt lat="47.93893" lon="-2.52475">
        <ele>59.5</ele>
        <time>2024-12-19T08:20:30Z</time>
      </trkpt>
      <trkpt lat="47.93894" lon="-2.52476">
        <ele>59.6</ele>
        <time>2024-12-19T08:20:31Z</time>
      </trkpt>
      <trkpt lat="47.93895" lon="-2.52477">
        <ele>59.8</ele>
        <time>2024-12-19T08:20:32Z</time>
      </trkpt>
      <trkpt lat="47.93896" lon="-2.52479">
        <ele>59.9</ele>
        <time>2024-12-19T08:20:33Z</time>
      </trkpt>
      <trkpt lat="47.93897" lon="-2.5248">
        <ele>60.1</ele>
        <time>2024-12-19T08:20:34Z</time>
      </trkpt>
      <trkpt lat="47.93898" lon="-2.52481">
        <ele>60.2</ele>
        <time>2024-12-19T08:20:35Z</time>
      </trkpt>
      <trkpt lat="47.93899" lon="-2.52482">
        <ele>60.3</ele>
        <time>2024-12-19T08:20:36Z</time>
      </trkpt>
      <trkpt lat="47.939" lon="-2.52482">
        <ele>60.4</ele>
        <time>2024-12-19T08:20:37Z</time>
      </trkpt>
      <trkpt lat="47.93901" lon="-2.52483">
        <ele>60.5</ele>
        <time>2024-12-19T08:20:38Z</time>
      </trkpt>
      <trkpt lat="47.93903" lon="-2.52484">
        <ele>60.6</ele>
        <time>2024-12-19T08:20:39Z</time>
      </trkpt>
      <trkpt lat="47.93904" lon="-2.52485">
        <ele>60.8</ele>
        <time>2024-12-19T08:20:40Z</time>
      </trkpt>
      <trkpt lat="47.93906" lon="-2.52486">
        <ele>60.9</ele>
        <time>2024-12-19T08:20:41Z</time>
      </trkpt>
      <trkpt lat="47.93906" lon="-2.52486">
        <ele>60.9</ele>
        <time>2024-12-19T08:20:42Z</time>
      </trkpt>
      <trkpt lat="47.93907" lon="-2.52487">
        <ele>61</ele>
        <time>2024-12-19T08:20:43Z</time>
      </trkpt>
      <trkpt lat="47.93909" lon="-2.52488">
        <ele>61.1</ele>
        <time>2024-12-19T08:20:44Z</time>
      </trkpt>
      <trkpt lat="47.9391" lon="-2.52489">
        <ele>61.2</ele>
        <time>2024-12-19T08:20:45Z</time>
      </trkpt>
      <trkpt lat="47.93911" lon="-2.5249">
        <ele>61.3</ele>
        <time>2024-12-19T08:20:46Z</time>
      </trkpt>
      <trkpt lat="47.93912" lon="-2.5249">
        <ele>61.4</ele>
        <time>2024-12-19T08:20:47Z</time>
      </trkpt>
      <trkpt lat="47.93913" lon="-2.5249">
        <ele>61.5</ele>
        <time>2024-12-19T08:20:48Z</time>
      </trkpt>
      <trkpt lat="47.93914" lon="-2.52489">
        <ele>61.5</ele>
        <time>2024-12-19T08:20:49Z</time>
      </trkpt>
      <trkpt lat="47.93915" lon="-2.52489">
        <ele>61.5</ele>
        <time>2024-12-19T08:20:50Z</time>
      </trkpt>
      <trkpt lat="47.93916" lon="-2.52488">
        <ele>61.5</ele>
        <time>2024-12-19T08:20:51Z</time>
      </trkpt>
      <trkpt lat="47.93917" lon="-2.52488">
        <ele>61.6</ele>
        <time>2024-12-19T08:20:52Z</time>
      </trkpt>
      <trkpt lat="47.93918" lon="-2.52488">
        <ele>61.6</ele>
        <time>2024-12-19T08:20:53Z</time>
      </trkpt>
      <trkpt lat="47.93918" lon="-2.52488">
        <ele>61.6</ele>
        <time>2024-12-19T08:20:54Z</time>
      </trkpt>
      <trkpt lat="47.93919" lon="-2.52488">
        <ele>61.6</ele>
        <time>2024-12-19T08:20:55Z</time>
      </trkpt>
      <trkpt lat="47.93919" lon="-2.52489">
        <ele>61.7</ele>
        <time>2024-12-19T08:20:56Z</time>
      </trkpt>
      <trkpt lat="47.9392" lon="-2.52489">
        <ele>61.7</ele>
        <time>2024-12-19T08:20:57Z</time>
      </trkpt>
      <trkpt lat="47.9392" lon="-2.52489">
        <ele>61.8</ele>
        <time>2024-12-19T08:20:58Z</time>
      </trkpt>
      <trkpt lat="47.93921" lon="-2.5249">
        <ele>61.8</ele>
        <time>2024-12-19T08:20:59Z</time>
      </trkpt>
      <trkpt lat="47.93923" lon="-2.5249">
        <ele>61.8</ele>
        <time>2024-12-19T08:21:00Z</time>
      </trkpt>
      <trkpt lat="47.93924" lon="-2.5249">
        <ele>61.9</ele>
        <time>2024-12-19T08:21:01Z</time>
      </trkpt>
      <trkpt lat="47.93925" lon="-2.5249">
        <ele>61.9</ele>
        <time>2024-12-19T08:21:02Z</time>
      </trkpt>
      <trkpt lat="47.93927" lon="-2.52489">
        <ele>62</ele>
        <time>2024-12-19T08:21:03Z</time>
      </trkpt>
      <trkpt lat="47.93928" lon="-2.52489">
        <ele>62</ele>
        <time>2024-12-19T08:21:04Z</time>
      </trkpt>
      <trkpt lat="47.93928" lon="-2.5249">
        <ele>62</ele>
        <time>2024-12-19T08:21:05Z</time>
      </trkpt>
      <trkpt lat="47.93928" lon="-2.5249">
        <ele>62.1</ele>
        <time>2024-12-19T08:21:06Z</time>
      </trkpt>
      <trkpt lat="47.93929" lon="-2.5249">
        <ele>62.1</ele>
        <time>2024-12-19T08:21:07Z</time>
      </trkpt>
      <trkpt lat="47.93929" lon="-2.5249">
        <ele>62.1</ele>
        <time>2024-12-19T08:21:08Z</time>
      </trkpt>
      <trkpt lat="47.93929" lon="-2.5249">
        <ele>62.1</ele>
        <time>2024-12-19T08:21:09Z</time>
      </trkpt>
      <trkpt lat="47.9393" lon="-2.52489">
        <ele>62.1</ele>
        <time>2024-12-19T08:21:10Z</time>
      </trkpt>
      <trkpt lat="47.9393" lon="-2.52489">
        <ele>62.1</ele>
        <time>2024-12-19T08:21:11Z</time>
      </trkpt>
      <trkpt lat="47.9393" lon="-2.52489">
        <ele>62.1</ele>
        <time>2024-12-19T08:21:12Z</time>
      </trkpt>
      <trkpt lat="47.93931" lon="-2.52488">
        <ele>62.1</ele>
        <time>2024-12-19T08:21:13Z</time>
      </trkpt>
      <trkpt lat="47.93931" lon="-2.52488">
        <ele>62.1</ele>
        <time>2024-12-19T08:21:14Z</time>
      </trkpt>
      <trkpt lat="47.93931" lon="-2.52488">
        <ele>62.1</ele>
        <time>2024-12-19T08:21:15Z</time>
      </trkpt>
      <trkpt lat="47.93932" lon="-2.52488">
        <ele>62.1</ele>
        <time>2024-12-19T08:21:16Z</time>
      </trkpt>
      <trkpt lat="47.93932" lon="-2.52488">
        <ele>62.1</ele>
        <time>2024-12-19T08:21:17Z</time>
      </trkpt>
      <trkpt lat="47.93932" lon="-2.52488">
        <ele>62.1</ele>
        <time>2024-12-19T08:21:18Z</time>
      </trkpt>
      <trkpt lat="47.93932" lon="-2.52488">
        <ele>62.1</ele>
        <time>2024-12-19T08:21:19Z</time>
      </trkpt>
      <trkpt lat="47.93932" lon="-2.52488">
        <ele>62.1</ele>
        <time>2024-12-19T08:21:20Z</time>
      </trkpt>
      <trkpt lat="47.93932" lon="-2.52488">
        <ele>62.1</ele>
        <time>2024-12-19T08:21:21Z</time>
      </trkpt>
      <trkpt lat="47.93932" lon="-2.52488">
        <ele>62.1</ele>
        <time>2024-12-19T08:21:22Z</time>
      </trkpt>
      <trkpt lat="47.93932" lon="-2.52488">
        <ele>62.1</ele>
        <time>2024-12-19T08:21:23Z</time>
      </trkpt>
      <trkpt lat="47.93932" lon="-2.52488">
        <ele>62.1</ele>
        <time>2024-12-19T08:21:24Z</time>
      </trkpt>
      <trkpt lat="47.93932" lon="-2.52488">
        <ele>62.1</ele>
        <time>2024-12-19T08:21:25Z</time>
      </trkpt>
      <trkpt lat="47.93932" lon="-2.52488">
        <ele>62.1</ele>
        <time>2024-12-19T08:21:26Z</time>
      </trkpt>
      <trkpt lat="47.93933" lon="-2.52488">
        <ele>62.1</ele>
        <time>2024-12-19T08:21:27Z</time>
      </trkpt>
      <trkpt lat="47.93933" lon="-2.52489">
        <ele>62.2</ele>
        <time>2024-12-19T08:21:28Z</time>
      </trkpt>
      <trkpt lat="47.93934" lon="-2.52489">
        <ele>62.2</ele>
        <time>2024-12-19T08:21:29Z</time>
      </trkpt>
      <trkpt lat="47.93934" lon="-2.52489">
        <ele>62.2</ele>
        <time>2024-12-19T08:21:30Z</time>
      </trkpt>
      <trkpt lat="47.93935" lon="-2.52489">
        <ele>62.2</ele>
        <time>2024-12-19T08:21:31Z</time>
      </trkpt>
      <trkpt lat="47.93935" lon="-2.52489">
        <ele>62.3</ele>
        <time>2024-12-19T08:21:32Z</time>
      </trkpt>
      <trkpt lat="47.93936" lon="-2.52489">
        <ele>62.3</ele>
        <time>2024-12-19T08:21:33Z</time>
      </trkpt>
      <trkpt lat="47.93937" lon="-2.52489">
        <ele>62.4</ele>
        <time>2024-12-19T08:21:34Z</time>
      </trkpt>
      <trkpt lat="47.93939" lon="-2.5249">
        <ele>62.4</ele>
        <time>2024-12-19T08:21:35Z</time>
      </trkpt>
      <trkpt lat="47.9394" lon="-2.5249">
        <ele>62.5</ele>
        <time>2024-12-19T08:21:36Z</time>
      </trkpt>
      <trkpt lat="47.93941" lon="-2.5249">
        <ele>62.5</ele>
        <time>2024-12-19T08:21:37Z</time>
      </trkpt>
      <trkpt lat="47.93943" lon="-2.52491">
        <ele>62.6</ele>
        <time>2024-12-19T08:21:38Z</time>
      </trkpt>
      <trkpt lat="47.93944" lon="-2.52491">
        <ele>62.7</ele>
        <time>2024-12-19T08:21:39Z</time>
      </trkpt>
      <trkpt lat="47.93945" lon="-2.52491">
        <ele>62.7</ele>
        <time>2024-12-19T08:21:40Z</time>
      </trkpt>
      <trkpt lat="47.93946" lon="-2.52491">
        <ele>62.7</ele>
        <time>2024-12-19T08:21:41Z</time>
      </trkpt>
      <trkpt lat="47.93947" lon="-2.52491">
        <ele>62.8</ele>
        <time>2024-12-19T08:21:42Z</time>
      </trkpt>
      <trkpt lat="47.93948" lon="-2.52491">
        <ele>62.8</ele>
        <time>2024-12-19T08:21:43Z</time>
      </trkpt>
      <trkpt lat="47.93949" lon="-2.52491">
        <ele>62.9</ele>
        <time>2024-12-19T08:21:44Z</time>
      </trkpt>
      <trkpt lat="47.93951" lon="-2.52492">
        <ele>62.9</ele>
        <time>2024-12-19T08:21:45Z</time>
      </trkpt>
      <trkpt lat="47.93953" lon="-2.52492">
        <ele>63</ele>
        <time>2024-12-19T08:21:46Z</time>
      </trkpt>
      <trkpt lat="47.93954" lon="-2.52493">
        <ele>63.1</ele>
        <time>2024-12-19T08:21:47Z</time>
      </trkpt>
      <trkpt lat="47.93954" lon="-2.52492">
        <ele>63.1</ele>
        <time>2024-12-19T08:21:48Z</time>
      </trkpt>
      <trkpt lat="47.93955" lon="-2.52492">
        <ele>63.1</ele>
        <time>2024-12-19T08:21:49Z</time>
      </trkpt>
      <trkpt lat="47.93956" lon="-2.52492">
        <ele>63.1</ele>
        <time>2024-12-19T08:21:50Z</time>
      </trkpt>
      <trkpt lat="47.93958" lon="-2.52492">
        <ele>63.2</ele>
        <time>2024-12-19T08:21:51Z</time>
      </trkpt>
      <trkpt lat="47.93959" lon="-2.52493">
        <ele>63.3</ele>
        <time>2024-12-19T08:21:52Z</time>
      </trkpt>
      <trkpt lat="47.9396" lon="-2.52493">
        <ele>63.3</ele>
        <time>2024-12-19T08:21:53Z</time>
      </trkpt>
      <trkpt lat="47.93961" lon="-2.52494">
        <ele>63.4</ele>
        <time>2024-12-19T08:21:54Z</time>
      </trkpt>
      <trkpt lat="47.93962" lon="-2.52494">
        <ele>63.4</ele>
        <time>2024-12-19T08:21:55Z</time>
      </trkpt>
      <trkpt lat="47.93963" lon="-2.52494">
        <ele>63.5</ele>
        <time>2024-12-19T08:21:56Z</time>
      </trkpt>
      <trkpt lat="47.93965" lon="-2.52494">
        <ele>63.5</ele>
        <time>2024-12-19T08:21:57Z</time>
      </trkpt>
      <trkpt lat="47.93966" lon="-2.52494">
        <ele>63.6</ele>
        <time>2024-12-19T08:21:58Z</time>
      </trkpt>
      <trkpt lat="47.93968" lon="-2.52494">
        <ele>63.6</ele>
        <time>2024-12-19T08:21:59Z</time>
      </trkpt>
      <trkpt lat="47.93969" lon="-2.52494">
        <ele>63.7</ele>
        <time>2024-12-19T08:22:00Z</time>
      </trkpt>
      <trkpt lat="47.9397" lon="-2.52494">
        <ele>63.7</ele>
        <time>2024-12-19T08:22:01Z</time>
      </trkpt>
      <trkpt lat="47.93971" lon="-2.52494">
        <ele>63.8</ele>
        <time>2024-12-19T08:22:02Z</time>
      </trkpt>
      <trkpt lat="47.93973" lon="-2.52494">
        <ele>63.8</ele>
        <time>2024-12-19T08:22:03Z</time>
      </trkpt>
      <trkpt lat="47.93974" lon="-2.52494">
        <ele>63.8</ele>
        <time>2024-12-19T08:22:04Z</time>
      </trkpt>
      <trkpt lat="47.93975" lon="-2.52493">
        <ele>63.8</ele>
        <time>2024-12-19T08:22:05Z</time>
      </trkpt>
      <trkpt lat="47.93976" lon="-2.52493">
        <ele>63.9</ele>
        <time>2024-12-19T08:22:06Z</time>
      </trkpt>
      <trkpt lat="47.93977" lon="-2.52494">
        <ele>63.9</ele>
        <time>2024-12-19T08:22:07Z</time>
      </trkpt>
      <trkpt lat="47.93979" lon="-2.52493">
        <ele>63.9</ele>
        <time>2024-12-19T08:22:08Z</time>
      </trkpt>
      <trkpt lat="47.9398" lon="-2.52493">
        <ele>64</ele>
        <time>2024-12-19T08:22:09Z</time>
      </trkpt>
      <trkpt lat="47.93982" lon="-2.52493">
        <ele>64</ele>
        <time>2024-12-19T08:22:10Z</time>
      </trkpt>
      <trkpt lat="47.93983" lon="-2.52493">
        <ele>64</ele>
        <time>2024-12-19T08:22:11Z</time>
      </trkpt>
      <trkpt lat="47.93985" lon="-2.52493">
        <ele>64.1</ele>
        <time>2024-12-19T08:22:12Z</time>
      </trkpt>
      <trkpt lat="47.93986" lon="-2.52493">
        <ele>64.1</ele>
        <time>2024-12-19T08:22:13Z</time>
      </trkpt>
      <trkpt lat="47.93986" lon="-2.52493">
        <ele>64.1</ele>
        <time>2024-12-19T08:22:14Z</time>
      </trkpt>
      <trkpt lat="47.93987" lon="-2.52492">
        <ele>64.1</ele>
        <time>2024-12-19T08:22:15Z</time>
      </trkpt>
      <trkpt lat="47.93989" lon="-2.52492">
        <ele>64.1</ele>
        <time>2024-12-19T08:22:16Z</time>
      </trkpt>
      <trkpt lat="47.9399" lon="-2.52491">
        <ele>64.1</ele>
        <time>2024-12-19T08:22:17Z</time>
      </trkpt>
      <trkpt lat="47.93991" lon="-2.52491">
        <ele>64.1</ele>
        <time>2024-12-19T08:22:18Z</time>
      </trkpt>
      <trkpt lat="47.93992" lon="-2.52491">
        <ele>64.2</ele>
        <time>2024-12-19T08:22:19Z</time>
      </trkpt>
      <trkpt lat="47.93993" lon="-2.52491">
        <ele>64.2</ele>
        <time>2024-12-19T08:22:20Z</time>
      </trkpt>
      <trkpt lat="47.93994" lon="-2.52491">
        <ele>64.2</ele>
        <time>2024-12-19T08:22:21Z</time>
      </trkpt>
      <trkpt lat="47.93996" lon="-2.52491">
        <ele>64.3</ele>
        <time>2024-12-19T08:22:23Z</time>
      </trkpt>
      <trkpt lat="47.93997" lon="-2.52491">
        <ele>64.3</ele>
        <time>2024-12-19T08:22:24Z</time>
      </trkpt>
      <trkpt lat="47.93998" lon="-2.52491">
        <ele>64.3</ele>
        <time>2024-12-19T08:22:25Z</time>
      </trkpt>
      <trkpt lat="47.93999" lon="-2.52491">
        <ele>64.3</ele>
        <time>2024-12-19T08:22:26Z</time>
      </trkpt>
      <trkpt lat="47.94" lon="-2.52491">
        <ele>64.3</ele>
        <time>2024-12-19T08:22:27Z</time>
      </trkpt>
      <trkpt lat="47.94001" lon="-2.52491">
        <ele>64.4</ele>
        <time>2024-12-19T08:22:28Z</time>
      </trkpt>
      <trkpt lat="47.94003" lon="-2.52491">
        <ele>64.4</ele>
        <time>2024-12-19T08:22:29Z</time>
      </trkpt>
      <trkpt lat="47.94004" lon="-2.52491">
        <ele>64.5</ele>
        <time>2024-12-19T08:22:30Z</time>
      </trkpt>
      <trkpt lat="47.94005" lon="-2.52491">
        <ele>64.5</ele>
        <time>2024-12-19T08:22:31Z</time>
      </trkpt>
      <trkpt lat="47.94006" lon="-2.52491">
        <ele>64.5</ele>
        <time>2024-12-19T08:22:32Z</time>
      </trkpt>
      <trkpt lat="47.94007" lon="-2.52491">
        <ele>64.6</ele>
        <time>2024-12-19T08:22:33Z</time>
      </trkpt>
      <trkpt lat="47.94008" lon="-2.5249">
        <ele>64.6</ele>
        <time>2024-12-19T08:22:34Z</time>
      </trkpt>
      <trkpt lat="47.9401" lon="-2.5249">
        <ele>64.6</ele>
        <time>2024-12-19T08:22:35Z</time>
      </trkpt>
      <trkpt lat="47.94011" lon="-2.5249">
        <ele>64.7</ele>
        <time>2024-12-19T08:22:36Z</time>
      </trkpt>
      <trkpt lat="47.94012" lon="-2.5249">
        <ele>64.7</ele>
        <time>2024-12-19T08:22:37Z</time>
      </trkpt>
      <trkpt lat="47.94014" lon="-2.52489">
        <ele>64.7</ele>
        <time>2024-12-19T08:22:38Z</time>
      </trkpt>
      <trkpt lat="47.94015" lon="-2.52489">
        <ele>64.8</ele>
        <time>2024-12-19T08:22:39Z</time>
      </trkpt>
      <trkpt lat="47.94016" lon="-2.52489">
        <ele>64.8</ele>
        <time>2024-12-19T08:22:40Z</time>
      </trkpt>
      <trkpt lat="47.94017" lon="-2.52489">
        <ele>64.8</ele>
        <time>2024-12-19T08:22:41Z</time>
      </trkpt>
      <trkpt lat="47.94019" lon="-2.52489">
        <ele>64.8</ele>
        <time>2024-12-19T08:22:42Z</time>
      </trkpt>
      <trkpt lat="47.9402" lon="-2.52488">
        <ele>64.9</ele>
        <time>2024-12-19T08:22:43Z</time>
      </trkpt>
      <trkpt lat="47.94022" lon="-2.52488">
        <ele>64.9</ele>
        <time>2024-12-19T08:22:44Z</time>
      </trkpt>
      <trkpt lat="47.94023" lon="-2.52488">
        <ele>64.9</ele>
        <time>2024-12-19T08:22:45Z</time>
      </trkpt>
      <trkpt lat="47.94024" lon="-2.52488">
        <ele>65</ele>
        <time>2024-12-19T08:22:46Z</time>
      </trkpt>
      <trkpt lat="47.94026" lon="-2.52488">
        <ele>65</ele>
        <time>2024-12-19T08:22:47Z</time>
      </trkpt>
      <trkpt lat="47.94027" lon="-2.52487">
        <ele>65.1</ele>
        <time>2024-12-19T08:22:48Z</time>
      </trkpt>
      <trkpt lat="47.94028" lon="-2.52487">
        <ele>65.1</ele>
        <time>2024-12-19T08:22:49Z</time>
      </trkpt>
      <trkpt lat="47.94029" lon="-2.52487">
        <ele>65.1</ele>
        <time>2024-12-19T08:22:50Z</time>
      </trkpt>
      <trkpt lat="47.9403" lon="-2.52487">
        <ele>65.1</ele>
        <time>2024-12-19T08:22:51Z</time>
      </trkpt>
      <trkpt lat="47.94031" lon="-2.52486">
        <ele>65.2</ele>
        <time>2024-12-19T08:22:52Z</time>
      </trkpt>
      <trkpt lat="47.94032" lon="-2.52486">
        <ele>65.2</ele>
        <time>2024-12-19T08:22:53Z</time>
      </trkpt>
      <trkpt lat="47.94034" lon="-2.52486">
        <ele>65.3</ele>
        <time>2024-12-19T08:22:54Z</time>
      </trkpt>
      <trkpt lat="47.94035" lon="-2.52486">
        <ele>65.4</ele>
        <time>2024-12-19T08:22:55Z</time>
      </trkpt>
      <trkpt lat="47.94036" lon="-2.52486">
        <ele>65.4</ele>
        <time>2024-12-19T08:22:56Z</time>
      </trkpt>
      <trkpt lat="47.94038" lon="-2.52486">
        <ele>65.5</ele>
        <time>2024-12-19T08:22:57Z</time>
      </trkpt>
      <trkpt lat="47.94039" lon="-2.52486">
        <ele>65.6</ele>
        <time>2024-12-19T08:22:58Z</time>
      </trkpt>
      <trkpt lat="47.9404" lon="-2.52486">
        <ele>65.6</ele>
        <time>2024-12-19T08:22:59Z</time>
      </trkpt>
      <trkpt lat="47.9404" lon="-2.52486">
        <ele>65.7</ele>
        <time>2024-12-19T08:23:00Z</time>
      </trkpt>
      <trkpt lat="47.94041" lon="-2.52486">
        <ele>65.7</ele>
        <time>2024-12-19T08:23:01Z</time>
      </trkpt>
      <trkpt lat="47.94042" lon="-2.52486">
        <ele>65.8</ele>
        <time>2024-12-19T08:23:02Z</time>
      </trkpt>
      <trkpt lat="47.94043" lon="-2.52487">
        <ele>65.9</ele>
        <time>2024-12-19T08:23:03Z</time>
      </trkpt>
      <trkpt lat="47.94043" lon="-2.52487">
        <ele>65.9</ele>
        <time>2024-12-19T08:23:04Z</time>
      </trkpt>
      <trkpt lat="47.94043" lon="-2.52487">
        <ele>65.9</ele>
        <time>2024-12-19T08:23:05Z</time>
      </trkpt>
      <trkpt lat="47.94043" lon="-2.52488">
        <ele>65.9</ele>
        <time>2024-12-19T08:23:06Z</time>
      </trkpt>
      <trkpt lat="47.94044" lon="-2.52488">
        <ele>65.9</ele>
        <time>2024-12-19T08:23:07Z</time>
      </trkpt>
      <trkpt lat="47.94044" lon="-2.52488">
        <ele>65.9</ele>
        <time>2024-12-19T08:23:08Z</time>
      </trkpt>
      <trkpt lat="47.94044" lon="-2.52488">
        <ele>65.9</ele>
        <time>2024-12-19T08:23:09Z</time>
      </trkpt>
      <trkpt lat="47.94044" lon="-2.52488">
        <ele>65.9</ele>
        <time>2024-12-19T08:23:10Z</time>
      </trkpt>
      <trkpt lat="47.94044" lon="-2.52488">
        <ele>65.9</ele>
        <time>2024-12-19T08:23:11Z</time>
      </trkpt>
      <trkpt lat="47.94044" lon="-2.52488">
        <ele>66</ele>
        <time>2024-12-19T08:23:12Z</time>
      </trkpt>
      <trkpt lat="47.94044" lon="-2.52488">
        <ele>66</ele>
        <time>2024-12-19T08:23:13Z</time>
      </trkpt>
      <trkpt lat="47.94044" lon="-2.52488">
        <ele>66</ele>
        <time>2024-12-19T08:23:14Z</time>
      </trkpt>
      <trkpt lat="47.94044" lon="-2.52488">
        <ele>66</ele>
        <time>2024-12-19T08:23:15Z</time>
      </trkpt>
      <trkpt lat="47.94044" lon="-2.52488">
        <ele>66</ele>
        <time>2024-12-19T08:23:16Z</time>
      </trkpt>
      <trkpt lat="47.94044" lon="-2.52488">
        <ele>66</ele>
        <time>2024-12-19T08:23:17Z</time>
      </trkpt>
      <trkpt lat="47.94044" lon="-2.52488">
        <ele>66</ele>
        <time>2024-12-19T08:23:18Z</time>
      </trkpt>
      <trkpt lat="47.94045" lon="-2.52488">
        <ele>66</ele>
        <time>2024-12-19T08:23:19Z</time>
      </trkpt>
      <trkpt lat="47.94046" lon="-2.52488">
        <ele>66.1</ele>
        <time>2024-12-19T08:23:20Z</time>
      </trkpt>
      <trkpt lat="47.94047" lon="-2.52487">
        <ele>66.1</ele>
        <time>2024-12-19T08:23:21Z</time>
      </trkpt>
      <trkpt lat="47.94047" lon="-2.52487">
        <ele>66.1</ele>
        <time>2024-12-19T08:23:22Z</time>
      </trkpt>
      <trkpt lat="47.94048" lon="-2.52487">
        <ele>66.1</ele>
        <time>2024-12-19T08:23:23Z</time>
      </trkpt>
      <trkpt lat="47.9405" lon="-2.52487">
        <ele>66.2</ele>
        <time>2024-12-19T08:23:24Z</time>
      </trkpt>
      <trkpt lat="47.94051" lon="-2.52487">
        <ele>66.3</ele>
        <time>2024-12-19T08:23:25Z</time>
      </trkpt>
      <trkpt lat="47.94052" lon="-2.52487">
        <ele>66.4</ele>
        <time>2024-12-19T08:23:26Z</time>
      </trkpt>
      <trkpt lat="47.94054" lon="-2.52487">
        <ele>66.4</ele>
        <time>2024-12-19T08:23:27Z</time>
      </trkpt>
      <trkpt lat="47.94055" lon="-2.52487">
        <ele>66.5</ele>
        <time>2024-12-19T08:23:28Z</time>
      </trkpt>
      <trkpt lat="47.94056" lon="-2.52487">
        <ele>66.6</ele>
        <time>2024-12-19T08:23:29Z</time>
      </trkpt>
      <trkpt lat="47.94057" lon="-2.52487">
        <ele>66.6</ele>
        <time>2024-12-19T08:23:30Z</time>
      </trkpt>
      <trkpt lat="47.94058" lon="-2.52487">
        <ele>66.7</ele>
        <time>2024-12-19T08:23:31Z</time>
      </trkpt>
      <trkpt lat="47.9406" lon="-2.52486">
        <ele>66.7</ele>
        <time>2024-12-19T08:23:32Z</time>
      </trkpt>
      <trkpt lat="47.9406" lon="-2.52486">
        <ele>66.8</ele>
        <time>2024-12-19T08:23:33Z</time>
      </trkpt>
      <trkpt lat="47.9406" lon="-2.52486">
        <ele>66.8</ele>
        <time>2024-12-19T08:23:34Z</time>
      </trkpt>
      <trkpt lat="47.94061" lon="-2.52486">
        <ele>66.8</ele>
        <time>2024-12-19T08:23:35Z</time>
      </trkpt>
      <trkpt lat="47.94063" lon="-2.52485">
        <ele>66.9</ele>
        <time>2024-12-19T08:23:36Z</time>
      </trkpt>
      <trkpt lat="47.94065" lon="-2.52485">
        <ele>66.9</ele>
        <time>2024-12-19T08:23:37Z</time>
      </trkpt>
      <trkpt lat="47.94066" lon="-2.52484">
        <ele>67</ele>
        <time>2024-12-19T08:23:38Z</time>
      </trkpt>
      <trkpt lat="47.94068" lon="-2.52484">
        <ele>67</ele>
        <time>2024-12-19T08:23:39Z</time>
      </trkpt>
      <trkpt lat="47.94068" lon="-2.52483">
        <ele>67</ele>
        <time>2024-12-19T08:23:40Z</time>
      </trkpt>
      <trkpt lat="47.94069" lon="-2.52483">
        <ele>67</ele>
        <time>2024-12-19T08:23:41Z</time>
      </trkpt>
      <trkpt lat="47.94069" lon="-2.52482">
        <ele>67</ele>
        <time>2024-12-19T08:23:42Z</time>
      </trkpt>
      <trkpt lat="47.9407" lon="-2.52482">
        <ele>67.1</ele>
        <time>2024-12-19T08:23:43Z</time>
      </trkpt>
      <trkpt lat="47.9407" lon="-2.52482">
        <ele>67.1</ele>
        <time>2024-12-19T08:23:44Z</time>
      </trkpt>
      <trkpt lat="47.94072" lon="-2.52482">
        <ele>67.1</ele>
        <time>2024-12-19T08:23:45Z</time>
      </trkpt>
      <trkpt lat="47.94073" lon="-2.52482">
        <ele>67.2</ele>
        <time>2024-12-19T08:23:46Z</time>
      </trkpt>
      <trkpt lat="47.94074" lon="-2.52481">
        <ele>67.2</ele>
        <time>2024-12-19T08:23:47Z</time>
      </trkpt>
      <trkpt lat="47.94075" lon="-2.52481">
        <ele>67.3</ele>
        <time>2024-12-19T08:23:48Z</time>
      </trkpt>
      <trkpt lat="47.94076" lon="-2.52481">
        <ele>67.3</ele>
        <time>2024-12-19T08:23:49Z</time>
      </trkpt>
      <trkpt lat="47.94077" lon="-2.5248">
        <ele>67.2</ele>
        <time>2024-12-19T08:23:50Z</time>
      </trkpt>
      <trkpt lat="47.94078" lon="-2.52479">
        <ele>67.3</ele>
        <time>2024-12-19T08:23:51Z</time>
      </trkpt>
      <trkpt lat="47.94079" lon="-2.52479">
        <ele>67.3</ele>
        <time>2024-12-19T08:23:52Z</time>
      </trkpt>
      <trkpt lat="47.94081" lon="-2.52478">
        <ele>67.3</ele>
        <time>2024-12-19T08:23:53Z</time>
      </trkpt>
      <trkpt lat="47.94082" lon="-2.52477">
        <ele>67.3</ele>
        <time>2024-12-19T08:23:54Z</time>
      </trkpt>
      <trkpt lat="47.94083" lon="-2.52477">
        <ele>67.4</ele>
        <time>2024-12-19T08:23:55Z</time>
      </trkpt>
      <trkpt lat="47.94084" lon="-2.52477">
        <ele>67.4</ele>
        <time>2024-12-19T08:23:56Z</time>
      </trkpt>
      <trkpt lat="47.94086" lon="-2.52477">
        <ele>67.5</ele>
        <time>2024-12-19T08:23:57Z</time>
      </trkpt>
      <trkpt lat="47.94087" lon="-2.52477">
        <ele>67.6</ele>
        <time>2024-12-19T08:23:58Z</time>
      </trkpt>
      <trkpt lat="47.94088" lon="-2.52477">
        <ele>67.6</ele>
        <time>2024-12-19T08:23:59Z</time>
      </trkpt>
      <trkpt lat="47.94089" lon="-2.52477">
        <ele>67.7</ele>
        <time>2024-12-19T08:24:00Z</time>
      </trkpt>
      <trkpt lat="47.9409" lon="-2.52477">
        <ele>67.8</ele>
        <time>2024-12-19T08:24:01Z</time>
      </trkpt>
      <trkpt lat="47.9409" lon="-2.52477">
        <ele>67.8</ele>
        <time>2024-12-19T08:24:02Z</time>
      </trkpt>
      <trkpt lat="47.94091" lon="-2.52476">
        <ele>67.8</ele>
        <time>2024-12-19T08:24:03Z</time>
      </trkpt>
      <trkpt lat="47.94092" lon="-2.52476">
        <ele>67.8</ele>
        <time>2024-12-19T08:24:04Z</time>
      </trkpt>
      <trkpt lat="47.94093" lon="-2.52475">
        <ele>67.9</ele>
        <time>2024-12-19T08:24:05Z</time>
      </trkpt>
      <trkpt lat="47.94094" lon="-2.52474">
        <ele>67.9</ele>
        <time>2024-12-19T08:24:06Z</time>
      </trkpt>
      <trkpt lat="47.94094" lon="-2.52474">
        <ele>67.9</ele>
        <time>2024-12-19T08:24:07Z</time>
      </trkpt>
      <trkpt lat="47.94095" lon="-2.52474">
        <ele>67.9</ele>
        <time>2024-12-19T08:24:08Z</time>
      </trkpt>
      <trkpt lat="47.94095" lon="-2.52473">
        <ele>67.8</ele>
        <time>2024-12-19T08:24:09Z</time>
      </trkpt>
      <trkpt lat="47.94095" lon="-2.52471">
        <ele>67.8</ele>
        <time>2024-12-19T08:24:10Z</time>
      </trkpt>
      <trkpt lat="47.94095" lon="-2.52471">
        <ele>67.8</ele>
        <time>2024-12-19T08:24:11Z</time>
      </trkpt>
      <trkpt lat="47.94095" lon="-2.52469">
        <ele>67.7</ele>
        <time>2024-12-19T08:24:12Z</time>
      </trkpt>
      <trkpt lat="47.94095" lon="-2.52469">
        <ele>67.7</ele>
        <time>2024-12-19T08:24:13Z</time>
      </trkpt>
      <trkpt lat="47.94095" lon="-2.52468">
        <ele>67.7</ele>
        <time>2024-12-19T08:24:14Z</time>
      </trkpt>
      <trkpt lat="47.94095" lon="-2.52468">
        <ele>67.7</ele>
        <time>2024-12-19T08:24:15Z</time>
      </trkpt>
      <trkpt lat="47.94095" lon="-2.52468">
        <ele>67.7</ele>
        <time>2024-12-19T08:24:16Z</time>
      </trkpt>
      <trkpt lat="47.94095" lon="-2.52468">
        <ele>67.7</ele>
        <time>2024-12-19T08:24:17Z</time>
      </trkpt>
      <trkpt lat="47.94095" lon="-2.52467">
        <ele>67.7</ele>
        <time>2024-12-19T08:24:18Z</time>
      </trkpt>
      <trkpt lat="47.94096" lon="-2.52467">
        <ele>67.7</ele>
        <time>2024-12-19T08:24:19Z</time>
      </trkpt>
      <trkpt lat="47.94096" lon="-2.52466">
        <ele>67.7</ele>
        <time>2024-12-19T08:24:20Z</time>
      </trkpt>
      <trkpt lat="47.94096" lon="-2.52465">
        <ele>67.7</ele>
        <time>2024-12-19T08:24:21Z</time>
      </trkpt>
      <trkpt lat="47.94096" lon="-2.52463">
        <ele>67.6</ele>
        <time>2024-12-19T08:24:22Z</time>
      </trkpt>
      <trkpt lat="47.94096" lon="-2.52461">
        <ele>67.5</ele>
        <time>2024-12-19T08:24:23Z</time>
      </trkpt>
      <trkpt lat="47.94096" lon="-2.5246">
        <ele>67.5</ele>
        <time>2024-12-19T08:24:24Z</time>
      </trkpt>
      <trkpt lat="47.94097" lon="-2.52458">
        <ele>67.4</ele>
        <time>2024-12-19T08:24:25Z</time>
      </trkpt>
      <trkpt lat="47.94097" lon="-2.52457">
        <ele>67.4</ele>
        <time>2024-12-19T08:24:26Z</time>
      </trkpt>
      <trkpt lat="47.94098" lon="-2.52456">
        <ele>67.4</ele>
        <time>2024-12-19T08:24:27Z</time>
      </trkpt>
      <trkpt lat="47.94098" lon="-2.52455">
        <ele>67.4</ele>
        <time>2024-12-19T08:24:28Z</time>
      </trkpt>
      <trkpt lat="47.94098" lon="-2.52454">
        <ele>67.4</ele>
        <time>2024-12-19T08:24:29Z</time>
      </trkpt>
      <trkpt lat="47.94098" lon="-2.52453">
        <ele>67.4</ele>
        <time>2024-12-19T08:24:30Z</time>
      </trkpt>
      <trkpt lat="47.94099" lon="-2.52451">
        <ele>67.3</ele>
        <time>2024-12-19T08:24:31Z</time>
      </trkpt>
      <trkpt lat="47.94099" lon="-2.5245">
        <ele>67.3</ele>
        <time>2024-12-19T08:24:32Z</time>
      </trkpt>
      <trkpt lat="47.94099" lon="-2.52448">
        <ele>67.3</ele>
        <time>2024-12-19T08:24:33Z</time>
      </trkpt>
      <trkpt lat="47.94099" lon="-2.52446">
        <ele>67.2</ele>
        <time>2024-12-19T08:24:34Z</time>
      </trkpt>
      <trkpt lat="47.94099" lon="-2.52444">
        <ele>67.1</ele>
        <time>2024-12-19T08:24:35Z</time>
      </trkpt>
      <trkpt lat="47.94099" lon="-2.52443">
        <ele>67</ele>
        <time>2024-12-19T08:24:36Z</time>
      </trkpt>
      <trkpt lat="47.94099" lon="-2.52441">
        <ele>66.8</ele>
        <time>2024-12-19T08:24:37Z</time>
      </trkpt>
      <trkpt lat="47.94099" lon="-2.52439">
        <ele>66.7</ele>
        <time>2024-12-19T08:24:38Z</time>
      </trkpt>
      <trkpt lat="47.94099" lon="-2.52438">
        <ele>66.6</ele>
        <time>2024-12-19T08:24:39Z</time>
      </trkpt>
      <trkpt lat="47.94099" lon="-2.52437">
        <ele>66.6</ele>
        <time>2024-12-19T08:24:40Z</time>
      </trkpt>
      <trkpt lat="47.94098" lon="-2.52436">
        <ele>66.5</ele>
        <time>2024-12-19T08:24:41Z</time>
      </trkpt>
      <trkpt lat="47.94098" lon="-2.52436">
        <ele>66.4</ele>
        <time>2024-12-19T08:24:42Z</time>
      </trkpt>
      <trkpt lat="47.94098" lon="-2.52434">
        <ele>66.3</ele>
        <time>2024-12-19T08:24:43Z</time>
      </trkpt>
      <trkpt lat="47.94098" lon="-2.52432">
        <ele>66.1</ele>
        <time>2024-12-19T08:24:44Z</time>
      </trkpt>
      <trkpt lat="47.94098" lon="-2.5243">
        <ele>66</ele>
        <time>2024-12-19T08:24:45Z</time>
      </trkpt>
      <trkpt lat="47.94099" lon="-2.52428">
        <ele>66</ele>
        <time>2024-12-19T08:24:46Z</time>
      </trkpt>
      <trkpt lat="47.94099" lon="-2.52427">
        <ele>65.8</ele>
        <time>2024-12-19T08:24:47Z</time>
      </trkpt>
      <trkpt lat="47.94099" lon="-2.52425">
        <ele>65.7</ele>
        <time>2024-12-19T08:24:48Z</time>
      </trkpt>
      <trkpt lat="47.94099" lon="-2.52423">
        <ele>65.5</ele>
        <time>2024-12-19T08:24:49Z</time>
      </trkpt>
      <trkpt lat="47.94099" lon="-2.52421">
        <ele>65.4</ele>
        <time>2024-12-19T08:24:50Z</time>
      </trkpt>
      <trkpt lat="47.94099" lon="-2.5242">
        <ele>65.3</ele>
        <time>2024-12-19T08:24:51Z</time>
      </trkpt>
      <trkpt lat="47.94098" lon="-2.52419">
        <ele>65.3</ele>
        <time>2024-12-19T08:24:52Z</time>
      </trkpt>
      <trkpt lat="47.94098" lon="-2.52415">
        <ele>64.9</ele>
        <time>2024-12-19T08:24:54Z</time>
      </trkpt>
      <trkpt lat="47.94098" lon="-2.52413">
        <ele>64.7</ele>
        <time>2024-12-19T08:24:55Z</time>
      </trkpt>
      <trkpt lat="47.94097" lon="-2.5241">
        <ele>64.5</ele>
        <time>2024-12-19T08:24:56Z</time>
      </trkpt>
      <trkpt lat="47.94097" lon="-2.52408">
        <ele>64.3</ele>
        <time>2024-12-19T08:24:57Z</time>
      </trkpt>
      <trkpt lat="47.94097" lon="-2.52406">
        <ele>64.2</ele>
        <time>2024-12-19T08:24:58Z</time>
      </trkpt>
      <trkpt lat="47.94096" lon="-2.52403">
        <ele>64</ele>
        <time>2024-12-19T08:24:59Z</time>
      </trkpt>
      <trkpt lat="47.94096" lon="-2.52401">
        <ele>63.8</ele>
        <time>2024-12-19T08:25:00Z</time>
      </trkpt>
      <trkpt lat="47.94096" lon="-2.52398">
        <ele>63.6</ele>
        <time>2024-12-19T08:25:01Z</time>
      </trkpt>
      <trkpt lat="47.94096" lon="-2.52395">
        <ele>63.3</ele>
        <time>2024-12-19T08:25:02Z</time>
      </trkpt>
      <trkpt lat="47.94095" lon="-2.52393">
        <ele>63.1</ele>
        <time>2024-12-19T08:25:03Z</time>
      </trkpt>
      <trkpt lat="47.94094" lon="-2.52392">
        <ele>63</ele>
        <time>2024-12-19T08:25:04Z</time>
      </trkpt>
      <trkpt lat="47.94094" lon="-2.5239">
        <ele>62.8</ele>
        <time>2024-12-19T08:25:05Z</time>
      </trkpt>
      <trkpt lat="47.94093" lon="-2.52387">
        <ele>62.6</ele>
        <time>2024-12-19T08:25:06Z</time>
      </trkpt>
      <trkpt lat="47.94093" lon="-2.52385">
        <ele>62.4</ele>
        <time>2024-12-19T08:25:07Z</time>
      </trkpt>
      <trkpt lat="47.94093" lon="-2.52383">
        <ele>62.2</ele>
        <time>2024-12-19T08:25:08Z</time>
      </trkpt>
      <trkpt lat="47.94093" lon="-2.52381">
        <ele>62</ele>
        <time>2024-12-19T08:25:09Z</time>
      </trkpt>
      <trkpt lat="47.94092" lon="-2.52379">
        <ele>61.8</ele>
        <time>2024-12-19T08:25:10Z</time>
      </trkpt>
      <trkpt lat="47.94092" lon="-2.52378">
        <ele>61.7</ele>
        <time>2024-12-19T08:25:11Z</time>
      </trkpt>
      <trkpt lat="47.94091" lon="-2.52377">
        <ele>61.6</ele>
        <time>2024-12-19T08:25:12Z</time>
      </trkpt>
      <trkpt lat="47.94091" lon="-2.52375">
        <ele>61.4</ele>
        <time>2024-12-19T08:25:13Z</time>
      </trkpt>
      <trkpt lat="47.9409" lon="-2.52375">
        <ele>61.3</ele>
        <time>2024-12-19T08:25:14Z</time>
      </trkpt>
      <trkpt lat="47.9409" lon="-2.52372">
        <ele>61.1</ele>
        <time>2024-12-19T08:25:15Z</time>
      </trkpt>
      <trkpt lat="47.94089" lon="-2.52371">
        <ele>61</ele>
        <time>2024-12-19T08:25:16Z</time>
      </trkpt>
      <trkpt lat="47.9409" lon="-2.52369">
        <ele>60.8</ele>
        <time>2024-12-19T08:25:17Z</time>
      </trkpt>
      <trkpt lat="47.9409" lon="-2.52366">
        <ele>60.6</ele>
        <time>2024-12-19T08:25:18Z</time>
      </trkpt>
      <trkpt lat="47.9409" lon="-2.52364">
        <ele>60.5</ele>
        <time>2024-12-19T08:25:19Z</time>
      </trkpt>
      <trkpt lat="47.9409" lon="-2.52363">
        <ele>60.3</ele>
        <time>2024-12-19T08:25:20Z</time>
      </trkpt>
      <trkpt lat="47.94089" lon="-2.52361">
        <ele>60.2</ele>
        <time>2024-12-19T08:25:21Z</time>
      </trkpt>
      <trkpt lat="47.94089" lon="-2.52359">
        <ele>60</ele>
        <time>2024-12-19T08:25:22Z</time>
      </trkpt>
      <trkpt lat="47.94088" lon="-2.52357">
        <ele>59.7</ele>
        <time>2024-12-19T08:25:23Z</time>
      </trkpt>
      <trkpt lat="47.94088" lon="-2.52356">
        <ele>59.6</ele>
        <time>2024-12-19T08:25:24Z</time>
      </trkpt>
      <trkpt lat="47.94088" lon="-2.52354">
        <ele>59.5</ele>
        <time>2024-12-19T08:25:25Z</time>
      </trkpt>
      <trkpt lat="47.94087" lon="-2.52352">
        <ele>59.2</ele>
        <time>2024-12-19T08:25:26Z</time>
      </trkpt>
      <trkpt lat="47.94087" lon="-2.52351">
        <ele>59.1</ele>
        <time>2024-12-19T08:25:27Z</time>
      </trkpt>
      <trkpt lat="47.94088" lon="-2.5235">
        <ele>59</ele>
        <time>2024-12-19T08:25:28Z</time>
      </trkpt>
      <trkpt lat="47.94087" lon="-2.52349">
        <ele>58.9</ele>
        <time>2024-12-19T08:25:29Z</time>
      </trkpt>
      <trkpt lat="47.94087" lon="-2.52348">
        <ele>58.8</ele>
        <time>2024-12-19T08:25:30Z</time>
      </trkpt>
      <trkpt lat="47.94087" lon="-2.52347">
        <ele>58.7</ele>
        <time>2024-12-19T08:25:31Z</time>
      </trkpt>
      <trkpt lat="47.94087" lon="-2.52346">
        <ele>58.6</ele>
        <time>2024-12-19T08:25:32Z</time>
      </trkpt>
      <trkpt lat="47.94087" lon="-2.52346">
        <ele>58.5</ele>
        <time>2024-12-19T08:25:33Z</time>
      </trkpt>
      <trkpt lat="47.94087" lon="-2.52344">
        <ele>58.4</ele>
        <time>2024-12-19T08:25:34Z</time>
      </trkpt>
      <trkpt lat="47.94087" lon="-2.52344">
        <ele>58.3</ele>
        <time>2024-12-19T08:25:35Z</time>
      </trkpt>
      <trkpt lat="47.94087" lon="-2.52343">
        <ele>58.2</ele>
        <time>2024-12-19T08:25:36Z</time>
      </trkpt>
      <trkpt lat="47.94087" lon="-2.52343">
        <ele>58.2</ele>
        <time>2024-12-19T08:25:37Z</time>
      </trkpt>
      <trkpt lat="47.94087" lon="-2.52342">
        <ele>58.2</ele>
        <time>2024-12-19T08:25:38Z</time>
      </trkpt>
      <trkpt lat="47.94088" lon="-2.52341">
        <ele>58.1</ele>
        <time>2024-12-19T08:25:39Z</time>
      </trkpt>
      <trkpt lat="47.94088" lon="-2.52339">
        <ele>58</ele>
        <time>2024-12-19T08:25:40Z</time>
      </trkpt>
      <trkpt lat="47.94089" lon="-2.52338">
        <ele>57.9</ele>
        <time>2024-12-19T08:25:41Z</time>
      </trkpt>
      <trkpt lat="47.9409" lon="-2.52337">
        <ele>57.8</ele>
        <time>2024-12-19T08:25:42Z</time>
      </trkpt>
      <trkpt lat="47.9409" lon="-2.52336">
        <ele>57.8</ele>
        <time>2024-12-19T08:25:43Z</time>
      </trkpt>
      <trkpt lat="47.94091" lon="-2.52335">
        <ele>57.7</ele>
        <time>2024-12-19T08:25:44Z</time>
      </trkpt>
      <trkpt lat="47.94091" lon="-2.52334">
        <ele>57.6</ele>
        <time>2024-12-19T08:25:45Z</time>
      </trkpt>
      <trkpt lat="47.94092" lon="-2.52333">
        <ele>57.6</ele>
        <time>2024-12-19T08:25:46Z</time>
      </trkpt>
      <trkpt lat="47.94094" lon="-2.52332">
        <ele>57.6</ele>
        <time>2024-12-19T08:25:47Z</time>
      </trkpt>
      <trkpt lat="47.94095" lon="-2.52331">
        <ele>57.5</ele>
        <time>2024-12-19T08:25:48Z</time>
      </trkpt>
      <trkpt lat="47.94097" lon="-2.52329">
        <ele>57.5</ele>
        <time>2024-12-19T08:25:49Z</time>
      </trkpt>
      <trkpt lat="47.94097" lon="-2.52328">
        <ele>57.3</ele>
        <time>2024-12-19T08:25:50Z</time>
      </trkpt>
      <trkpt lat="47.94098" lon="-2.52326">
        <ele>57.2</ele>
        <time>2024-12-19T08:25:51Z</time>
      </trkpt>
      <trkpt lat="47.94099" lon="-2.52325">
        <ele>57</ele>
        <time>2024-12-19T08:25:52Z</time>
      </trkpt>
      <trkpt lat="47.941" lon="-2.52323">
        <ele>56.8</ele>
        <time>2024-12-19T08:25:53Z</time>
      </trkpt>
      <trkpt lat="47.94101" lon="-2.52321">
        <ele>56.7</ele>
        <time>2024-12-19T08:25:54Z</time>
      </trkpt>
      <trkpt lat="47.94101" lon="-2.5232">
        <ele>56.5</ele>
        <time>2024-12-19T08:25:55Z</time>
      </trkpt>
      <trkpt lat="47.94102" lon="-2.52319">
        <ele>56.4</ele>
        <time>2024-12-19T08:25:56Z</time>
      </trkpt>
      <trkpt lat="47.94103" lon="-2.52317">
        <ele>56.2</ele>
        <time>2024-12-19T08:25:57Z</time>
      </trkpt>
      <trkpt lat="47.94104" lon="-2.52315">
        <ele>56</ele>
        <time>2024-12-19T08:25:58Z</time>
      </trkpt>
      <trkpt lat="47.94104" lon="-2.52312">
        <ele>55.6</ele>
        <time>2024-12-19T08:25:59Z</time>
      </trkpt>
      <trkpt lat="47.94105" lon="-2.52309">
        <ele>55.2</ele>
        <time>2024-12-19T08:26:00Z</time>
      </trkpt>
      <trkpt lat="47.94105" lon="-2.52306">
        <ele>54.9</ele>
        <time>2024-12-19T08:26:01Z</time>
      </trkpt>
      <trkpt lat="47.94106" lon="-2.52304">
        <ele>54.6</ele>
        <time>2024-12-19T08:26:02Z</time>
      </trkpt>
      <trkpt lat="47.94107" lon="-2.52301">
        <ele>54.4</ele>
        <time>2024-12-19T08:26:03Z</time>
      </trkpt>
      <trkpt lat="47.94107" lon="-2.52299">
        <ele>54.1</ele>
        <time>2024-12-19T08:26:04Z</time>
      </trkpt>
      <trkpt lat="47.94108" lon="-2.52296">
        <ele>53.9</ele>
        <time>2024-12-19T08:26:05Z</time>
      </trkpt>
      <trkpt lat="47.94109" lon="-2.52294">
        <ele>53.6</ele>
        <time>2024-12-19T08:26:06Z</time>
      </trkpt>
      <trkpt lat="47.94109" lon="-2.52291">
        <ele>53.4</ele>
        <time>2024-12-19T08:26:07Z</time>
      </trkpt>
      <trkpt lat="47.9411" lon="-2.52289">
        <ele>53.1</ele>
        <time>2024-12-19T08:26:08Z</time>
      </trkpt>
      <trkpt lat="47.9411" lon="-2.52288">
        <ele>53</ele>
        <time>2024-12-19T08:26:09Z</time>
      </trkpt>
      <trkpt lat="47.94111" lon="-2.52287">
        <ele>52.9</ele>
        <time>2024-12-19T08:26:10Z</time>
      </trkpt>
      <trkpt lat="47.94112" lon="-2.52285">
        <ele>52.8</ele>
        <time>2024-12-19T08:26:11Z</time>
      </trkpt>
      <trkpt lat="47.94113" lon="-2.52283">
        <ele>52.7</ele>
        <time>2024-12-19T08:26:12Z</time>
      </trkpt>
      <trkpt lat="47.94114" lon="-2.52281">
        <ele>52.6</ele>
        <time>2024-12-19T08:26:13Z</time>
      </trkpt>
      <trkpt lat="47.94114" lon="-2.5228">
        <ele>52.6</ele>
        <time>2024-12-19T08:26:14Z</time>
      </trkpt>
      <trkpt lat="47.94115" lon="-2.52279">
        <ele>52.5</ele>
        <time>2024-12-19T08:26:15Z</time>
      </trkpt>
      <trkpt lat="47.94115" lon="-2.52278">
        <ele>52.5</ele>
        <time>2024-12-19T08:26:16Z</time>
      </trkpt>
      <trkpt lat="47.94116" lon="-2.52277">
        <ele>52.5</ele>
        <time>2024-12-19T08:26:17Z</time>
      </trkpt>
      <trkpt lat="47.94117" lon="-2.52276">
        <ele>52.5</ele>
        <time>2024-12-19T08:26:18Z</time>
      </trkpt>
      <trkpt lat="47.94118" lon="-2.52275">
        <ele>52.6</ele>
        <time>2024-12-19T08:26:19Z</time>
      </trkpt>
      <trkpt lat="47.9412" lon="-2.52273">
        <ele>52.7</ele>
        <time>2024-12-19T08:26:20Z</time>
      </trkpt>
      <trkpt lat="47.94121" lon="-2.52272">
        <ele>52.8</ele>
        <time>2024-12-19T08:26:21Z</time>
      </trkpt>
      <trkpt lat="47.94121" lon="-2.52271">
        <ele>52.8</ele>
        <time>2024-12-19T08:26:22Z</time>
      </trkpt>
      <trkpt lat="47.94122" lon="-2.52268">
        <ele>52.7</ele>
        <time>2024-12-19T08:26:23Z</time>
      </trkpt>
      <trkpt lat="47.94122" lon="-2.52267">
        <ele>52.6</ele>
        <time>2024-12-19T08:26:24Z</time>
      </trkpt>
      <trkpt lat="47.94123" lon="-2.52265">
        <ele>52.6</ele>
        <time>2024-12-19T08:26:25Z</time>
      </trkpt>
      <trkpt lat="47.94123" lon="-2.52263">
        <ele>52.5</ele>
        <time>2024-12-19T08:26:26Z</time>
      </trkpt>
      <trkpt lat="47.94123" lon="-2.52261">
        <ele>52.5</ele>
        <time>2024-12-19T08:26:27Z</time>
      </trkpt>
      <trkpt lat="47.94124" lon="-2.52259">
        <ele>52.4</ele>
        <time>2024-12-19T08:26:28Z</time>
      </trkpt>
      <trkpt lat="47.94124" lon="-2.52257">
        <ele>52.3</ele>
        <time>2024-12-19T08:26:29Z</time>
      </trkpt>
      <trkpt lat="47.94125" lon="-2.52256">
        <ele>52.3</ele>
        <time>2024-12-19T08:26:30Z</time>
      </trkpt>
      <trkpt lat="47.94125" lon="-2.52254">
        <ele>52.2</ele>
        <time>2024-12-19T08:26:31Z</time>
      </trkpt>
      <trkpt lat="47.94125" lon="-2.52252">
        <ele>52.1</ele>
        <time>2024-12-19T08:26:32Z</time>
      </trkpt>
      <trkpt lat="47.94125" lon="-2.52249">
        <ele>52</ele>
        <time>2024-12-19T08:26:33Z</time>
      </trkpt>
      <trkpt lat="47.94126" lon="-2.52247">
        <ele>52</ele>
        <time>2024-12-19T08:26:34Z</time>
      </trkpt>
      <trkpt lat="47.94126" lon="-2.52246">
        <ele>52</ele>
        <time>2024-12-19T08:26:35Z</time>
      </trkpt>
      <trkpt lat="47.94125" lon="-2.52244">
        <ele>52</ele>
        <time>2024-12-19T08:26:36Z</time>
      </trkpt>
      <trkpt lat="47.94125" lon="-2.52242">
        <ele>52</ele>
        <time>2024-12-19T08:26:37Z</time>
      </trkpt>
      <trkpt lat="47.94125" lon="-2.52241">
        <ele>52</ele>
        <time>2024-12-19T08:26:38Z</time>
      </trkpt>
      <trkpt lat="47.94126" lon="-2.52239">
        <ele>52</ele>
        <time>2024-12-19T08:26:39Z</time>
      </trkpt>
      <trkpt lat="47.94126" lon="-2.52237">
        <ele>52</ele>
        <time>2024-12-19T08:26:40Z</time>
      </trkpt>
      <trkpt lat="47.94126" lon="-2.52236">
        <ele>52</ele>
        <time>2024-12-19T08:26:41Z</time>
      </trkpt>
      <trkpt lat="47.94126" lon="-2.52234">
        <ele>52</ele>
        <time>2024-12-19T08:26:42Z</time>
      </trkpt>
      <trkpt lat="47.94126" lon="-2.52232">
        <ele>52</ele>
        <time>2024-12-19T08:26:43Z</time>
      </trkpt>
      <trkpt lat="47.94127" lon="-2.5223">
        <ele>52</ele>
        <time>2024-12-19T08:26:44Z</time>
      </trkpt>
      <trkpt lat="47.94126" lon="-2.52228">
        <ele>51.9</ele>
        <time>2024-12-19T08:26:45Z</time>
      </trkpt>
      <trkpt lat="47.94126" lon="-2.52226">
        <ele>52</ele>
        <time>2024-12-19T08:26:46Z</time>
      </trkpt>
      <trkpt lat="47.94125" lon="-2.52223">
        <ele>52</ele>
        <time>2024-12-19T08:26:47Z</time>
      </trkpt>
      <trkpt lat="47.94124" lon="-2.52221">
        <ele>52.2</ele>
        <time>2024-12-19T08:26:48Z</time>
      </trkpt>
      <trkpt lat="47.94124" lon="-2.52219">
        <ele>52.4</ele>
        <time>2024-12-19T08:26:49Z</time>
      </trkpt>
      <trkpt lat="47.94123" lon="-2.52217">
        <ele>52.6</ele>
        <time>2024-12-19T08:26:50Z</time>
      </trkpt>
      <trkpt lat="47.94122" lon="-2.52216">
        <ele>52.8</ele>
        <time>2024-12-19T08:26:51Z</time>
      </trkpt>
      <trkpt lat="47.94122" lon="-2.52214">
        <ele>52.9</ele>
        <time>2024-12-19T08:26:52Z</time>
      </trkpt>
      <trkpt lat="47.94121" lon="-2.52213">
        <ele>53.1</ele>
        <time>2024-12-19T08:26:53Z</time>
      </trkpt>
      <trkpt lat="47.94121" lon="-2.52211">
        <ele>53.2</ele>
        <time>2024-12-19T08:26:54Z</time>
      </trkpt>
      <trkpt lat="47.94121" lon="-2.5221">
        <ele>53.3</ele>
        <time>2024-12-19T08:26:55Z</time>
      </trkpt>
      <trkpt lat="47.94121" lon="-2.52209">
        <ele>53.4</ele>
        <time>2024-12-19T08:26:56Z</time>
      </trkpt>
      <trkpt lat="47.94121" lon="-2.52209">
        <ele>53.4</ele>
        <time>2024-12-19T08:26:57Z</time>
      </trkpt>
      <trkpt lat="47.94121" lon="-2.52208">
        <ele>53.4</ele>
        <time>2024-12-19T08:26:58Z</time>
      </trkpt>
      <trkpt lat="47.94121" lon="-2.52208">
        <ele>53.5</ele>
        <time>2024-12-19T08:26:59Z</time>
      </trkpt>
      <trkpt lat="47.94121" lon="-2.52208">
        <ele>53.5</ele>
        <time>2024-12-19T08:27:00Z</time>
      </trkpt>
      <trkpt lat="47.94121" lon="-2.52207">
        <ele>53.5</ele>
        <time>2024-12-19T08:27:01Z</time>
      </trkpt>
      <trkpt lat="47.94121" lon="-2.52207">
        <ele>53.5</ele>
        <time>2024-12-19T08:27:02Z</time>
      </trkpt>
      <trkpt lat="47.94121" lon="-2.52207">
        <ele>53.6</ele>
        <time>2024-12-19T08:27:03Z</time>
      </trkpt>
      <trkpt lat="47.94121" lon="-2.52206">
        <ele>53.6</ele>
        <time>2024-12-19T08:27:04Z</time>
      </trkpt>
      <trkpt lat="47.94121" lon="-2.52206">
        <ele>53.7</ele>
        <time>2024-12-19T08:27:05Z</time>
      </trkpt>
      <trkpt lat="47.94121" lon="-2.52205">
        <ele>53.7</ele>
        <time>2024-12-19T08:27:06Z</time>
      </trkpt>
      <trkpt lat="47.94121" lon="-2.52204">
        <ele>53.8</ele>
        <time>2024-12-19T08:27:07Z</time>
      </trkpt>
      <trkpt lat="47.94121" lon="-2.52202">
        <ele>54</ele>
        <time>2024-12-19T08:27:08Z</time>
      </trkpt>
      <trkpt lat="47.94121" lon="-2.52201">
        <ele>54.1</ele>
        <time>2024-12-19T08:27:09Z</time>
      </trkpt>
      <trkpt lat="47.94121" lon="-2.522">
        <ele>54.2</ele>
        <time>2024-12-19T08:27:10Z</time>
      </trkpt>
      <trkpt lat="47.94121" lon="-2.52198">
        <ele>54.3</ele>
        <time>2024-12-19T08:27:11Z</time>
      </trkpt>
      <trkpt lat="47.9412" lon="-2.52196">
        <ele>54.5</ele>
        <time>2024-12-19T08:27:12Z</time>
      </trkpt>
      <trkpt lat="47.9412" lon="-2.52194">
        <ele>54.7</ele>
        <time>2024-12-19T08:27:13Z</time>
      </trkpt>
      <trkpt lat="47.9412" lon="-2.52192">
        <ele>55</ele>
        <time>2024-12-19T08:27:14Z</time>
      </trkpt>
      <trkpt lat="47.9412" lon="-2.5219">
        <ele>55.2</ele>
        <time>2024-12-19T08:27:15Z</time>
      </trkpt>
      <trkpt lat="47.9412" lon="-2.52189">
        <ele>55.3</ele>
        <time>2024-12-19T08:27:16Z</time>
      </trkpt>
      <trkpt lat="47.94119" lon="-2.52188">
        <ele>55.5</ele>
        <time>2024-12-19T08:27:17Z</time>
      </trkpt>
      <trkpt lat="47.94119" lon="-2.52186">
        <ele>55.6</ele>
        <time>2024-12-19T08:27:18Z</time>
      </trkpt>
      <trkpt lat="47.94119" lon="-2.52186">
        <ele>55.7</ele>
        <time>2024-12-19T08:27:19Z</time>
      </trkpt>
      <trkpt lat="47.94119" lon="-2.52185">
        <ele>55.9</ele>
        <time>2024-12-19T08:27:20Z</time>
      </trkpt>
      <trkpt lat="47.94118" lon="-2.52184">
        <ele>56</ele>
        <time>2024-12-19T08:27:21Z</time>
      </trkpt>
      <trkpt lat="47.94118" lon="-2.52183">
        <ele>56.1</ele>
        <time>2024-12-19T08:27:22Z</time>
      </trkpt>
      <trkpt lat="47.94118" lon="-2.52182">
        <ele>56.2</ele>
        <time>2024-12-19T08:27:23Z</time>
      </trkpt>
      <trkpt lat="47.94118" lon="-2.5218">
        <ele>56.5</ele>
        <time>2024-12-19T08:27:24Z</time>
      </trkpt>
      <trkpt lat="47.94118" lon="-2.52177">
        <ele>56.7</ele>
        <time>2024-12-19T08:27:26Z</time>
      </trkpt>
      <trkpt lat="47.94119" lon="-2.52176">
        <ele>56.7</ele>
        <time>2024-12-19T08:27:27Z</time>
      </trkpt>
      <trkpt lat="47.94119" lon="-2.52175">
        <ele>56.8</ele>
        <time>2024-12-19T08:27:28Z</time>
      </trkpt>
      <trkpt lat="47.94119" lon="-2.52174">
        <ele>56.8</ele>
        <time>2024-12-19T08:27:29Z</time>
      </trkpt>
      <trkpt lat="47.9412" lon="-2.52174">
        <ele>56.8</ele>
        <time>2024-12-19T08:27:30Z</time>
      </trkpt>
      <trkpt lat="47.94119" lon="-2.52173">
        <ele>56.9</ele>
        <time>2024-12-19T08:27:31Z</time>
      </trkpt>
      <trkpt lat="47.94119" lon="-2.52172">
        <ele>57</ele>
        <time>2024-12-19T08:27:32Z</time>
      </trkpt>
      <trkpt lat="47.94119" lon="-2.52172">
        <ele>57</ele>
        <time>2024-12-19T08:27:33Z</time>
      </trkpt>
      <trkpt lat="47.94119" lon="-2.52172">
        <ele>57.1</ele>
        <time>2024-12-19T08:27:34Z</time>
      </trkpt>
      <trkpt lat="47.94119" lon="-2.52171">
        <ele>57.2</ele>
        <time>2024-12-19T08:27:35Z</time>
      </trkpt>
      <trkpt lat="47.94118" lon="-2.5217">
        <ele>57.3</ele>
        <time>2024-12-19T08:27:36Z</time>
      </trkpt>
      <trkpt lat="47.94119" lon="-2.52169">
        <ele>57.4</ele>
        <time>2024-12-19T08:27:37Z</time>
      </trkpt>
      <trkpt lat="47.94118" lon="-2.52168">
        <ele>57.5</ele>
        <time>2024-12-19T08:27:38Z</time>
      </trkpt>
      <trkpt lat="47.94118" lon="-2.52167">
        <ele>57.7</ele>
        <time>2024-12-19T08:27:39Z</time>
      </trkpt>
      <trkpt lat="47.94118" lon="-2.52167">
        <ele>57.7</ele>
        <time>2024-12-19T08:27:40Z</time>
      </trkpt>
      <trkpt lat="47.94118" lon="-2.52166">
        <ele>57.8</ele>
        <time>2024-12-19T08:27:41Z</time>
      </trkpt>
      <trkpt lat="47.94118" lon="-2.52166">
        <ele>57.8</ele>
        <time>2024-12-19T08:27:42Z</time>
      </trkpt>
      <trkpt lat="47.94118" lon="-2.52166">
        <ele>57.9</ele>
        <time>2024-12-19T08:27:43Z</time>
      </trkpt>
      <trkpt lat="47.94118" lon="-2.52165">
        <ele>58</ele>
        <time>2024-12-19T08:27:44Z</time>
      </trkpt>
      <trkpt lat="47.94118" lon="-2.52164">
        <ele>58.1</ele>
        <time>2024-12-19T08:27:45Z</time>
      </trkpt>
      <trkpt lat="47.94118" lon="-2.52164">
        <ele>58.1</ele>
        <time>2024-12-19T08:27:46Z</time>
      </trkpt>
      <trkpt lat="47.94118" lon="-2.52163">
        <ele>58.2</ele>
        <time>2024-12-19T08:27:47Z</time>
      </trkpt>
      <trkpt lat="47.94118" lon="-2.52163">
        <ele>58.2</ele>
        <time>2024-12-19T08:27:48Z</time>
      </trkpt>
      <trkpt lat="47.94118" lon="-2.52163">
        <ele>58.2</ele>
        <time>2024-12-19T08:27:49Z</time>
      </trkpt>
      <trkpt lat="47.94117" lon="-2.52163">
        <ele>58.3</ele>
        <time>2024-12-19T08:27:50Z</time>
      </trkpt>
      <trkpt lat="47.94117" lon="-2.52162">
        <ele>58.4</ele>
        <time>2024-12-19T08:27:51Z</time>
      </trkpt>
      <trkpt lat="47.94117" lon="-2.52162">
        <ele>58.5</ele>
        <time>2024-12-19T08:27:52Z</time>
      </trkpt>
      <trkpt lat="47.94117" lon="-2.52161">
        <ele>58.6</ele>
        <time>2024-12-19T08:27:53Z</time>
      </trkpt>
      <trkpt lat="47.94117" lon="-2.52159">
        <ele>58.8</ele>
        <time>2024-12-19T08:27:54Z</time>
      </trkpt>
      <trkpt lat="47.94118" lon="-2.52157">
        <ele>58.9</ele>
        <time>2024-12-19T08:27:55Z</time>
      </trkpt>
      <trkpt lat="47.94118" lon="-2.52155">
        <ele>59</ele>
        <time>2024-12-19T08:27:56Z</time>
      </trkpt>
      <trkpt lat="47.94119" lon="-2.52153">
        <ele>59.1</ele>
        <time>2024-12-19T08:27:57Z</time>
      </trkpt>
      <trkpt lat="47.9412" lon="-2.52152">
        <ele>59.1</ele>
        <time>2024-12-19T08:27:58Z</time>
      </trkpt>
      <trkpt lat="47.9412" lon="-2.5215">
        <ele>59.2</ele>
        <time>2024-12-19T08:27:59Z</time>
      </trkpt>
      <trkpt lat="47.9412" lon="-2.52149">
        <ele>59.3</ele>
        <time>2024-12-19T08:28:00Z</time>
      </trkpt>
      <trkpt lat="47.9412" lon="-2.52147">
        <ele>59.5</ele>
        <time>2024-12-19T08:28:01Z</time>
      </trkpt>
      <trkpt lat="47.94121" lon="-2.52145">
        <ele>59.6</ele>
        <time>2024-12-19T08:28:02Z</time>
      </trkpt>
      <trkpt lat="47.9412" lon="-2.52142">
        <ele>60.2</ele>
        <time>2024-12-19T08:28:03Z</time>
      </trkpt>
      <trkpt lat="47.94119" lon="-2.5214">
        <ele>60.4</ele>
        <time>2024-12-19T08:28:04Z</time>
      </trkpt>
      <trkpt lat="47.94119" lon="-2.52139">
        <ele>60.6</ele>
        <time>2024-12-19T08:28:05Z</time>
      </trkpt>
      <trkpt lat="47.94119" lon="-2.52138">
        <ele>60.8</ele>
        <time>2024-12-19T08:28:06Z</time>
      </trkpt>
      <trkpt lat="47.94118" lon="-2.52138">
        <ele>60.9</ele>
        <time>2024-12-19T08:28:07Z</time>
      </trkpt>
      <trkpt lat="47.94118" lon="-2.52137">
        <ele>61</ele>
        <time>2024-12-19T08:28:08Z</time>
      </trkpt>
      <trkpt lat="47.94118" lon="-2.52136">
        <ele>61.1</ele>
        <time>2024-12-19T08:28:09Z</time>
      </trkpt>
      <trkpt lat="47.94118" lon="-2.52135">
        <ele>61.2</ele>
        <time>2024-12-19T08:28:10Z</time>
      </trkpt>
      <trkpt lat="47.94119" lon="-2.52134">
        <ele>61.4</ele>
        <time>2024-12-19T08:28:11Z</time>
      </trkpt>
      <trkpt lat="47.94119" lon="-2.52132">
        <ele>61.5</ele>
        <time>2024-12-19T08:28:12Z</time>
      </trkpt>
      <trkpt lat="47.9412" lon="-2.5213">
        <ele>61.6</ele>
        <time>2024-12-19T08:28:13Z</time>
      </trkpt>
      <trkpt lat="47.9412" lon="-2.52129">
        <ele>61.7</ele>
        <time>2024-12-19T08:28:14Z</time>
      </trkpt>
      <trkpt lat="47.9412" lon="-2.52128">
        <ele>61.8</ele>
        <time>2024-12-19T08:28:15Z</time>
      </trkpt>
      <trkpt lat="47.94121" lon="-2.52127">
        <ele>61.9</ele>
        <time>2024-12-19T08:28:16Z</time>
      </trkpt>
      <trkpt lat="47.94121" lon="-2.52126">
        <ele>61.9</ele>
        <time>2024-12-19T08:28:17Z</time>
      </trkpt>
      <trkpt lat="47.94122" lon="-2.52124">
        <ele>62.1</ele>
        <time>2024-12-19T08:28:18Z</time>
      </trkpt>
      <trkpt lat="47.94122" lon="-2.52123">
        <ele>62.2</ele>
        <time>2024-12-19T08:28:19Z</time>
      </trkpt>
      <trkpt lat="47.94122" lon="-2.52122">
        <ele>62.3</ele>
        <time>2024-12-19T08:28:20Z</time>
      </trkpt>
      <trkpt lat="47.94122" lon="-2.52121">
        <ele>62.5</ele>
        <time>2024-12-19T08:28:21Z</time>
      </trkpt>
      <trkpt lat="47.94121" lon="-2.52121">
        <ele>62.6</ele>
        <time>2024-12-19T08:28:22Z</time>
      </trkpt>
      <trkpt lat="47.94121" lon="-2.5212">
        <ele>62.6</ele>
        <time>2024-12-19T08:28:23Z</time>
      </trkpt>
      <trkpt lat="47.94121" lon="-2.5212">
        <ele>62.6</ele>
        <time>2024-12-19T08:28:24Z</time>
      </trkpt>
      <trkpt lat="47.94121" lon="-2.5212">
        <ele>62.7</ele>
        <time>2024-12-19T08:28:25Z</time>
      </trkpt>
      <trkpt lat="47.94121" lon="-2.52119">
        <ele>62.8</ele>
        <time>2024-12-19T08:28:26Z</time>
      </trkpt>
      <trkpt lat="47.94122" lon="-2.52118">
        <ele>62.8</ele>
        <time>2024-12-19T08:28:27Z</time>
      </trkpt>
      <trkpt lat="47.94122" lon="-2.52117">
        <ele>62.8</ele>
        <time>2024-12-19T08:28:28Z</time>
      </trkpt>
      <trkpt lat="47.94122" lon="-2.52117">
        <ele>62.9</ele>
        <time>2024-12-19T08:28:29Z</time>
      </trkpt>
      <trkpt lat="47.94123" lon="-2.52116">
        <ele>62.9</ele>
        <time>2024-12-19T08:28:30Z</time>
      </trkpt>
      <trkpt lat="47.94123" lon="-2.52115">
        <ele>63</ele>
        <time>2024-12-19T08:28:31Z</time>
      </trkpt>
      <trkpt lat="47.94123" lon="-2.52112">
        <ele>63.2</ele>
        <time>2024-12-19T08:28:32Z</time>
      </trkpt>
      <trkpt lat="47.94124" lon="-2.5211">
        <ele>63.4</ele>
        <time>2024-12-19T08:28:33Z</time>
      </trkpt>
      <trkpt lat="47.94124" lon="-2.52109">
        <ele>63.5</ele>
        <time>2024-12-19T08:28:34Z</time>
      </trkpt>
      <trkpt lat="47.94123" lon="-2.52107">
        <ele>63.9</ele>
        <time>2024-12-19T08:28:35Z</time>
      </trkpt>
      <trkpt lat="47.94123" lon="-2.52106">
        <ele>64</ele>
        <time>2024-12-19T08:28:36Z</time>
      </trkpt>
      <trkpt lat="47.94123" lon="-2.52104">
        <ele>64.3</ele>
        <time>2024-12-19T08:28:37Z</time>
      </trkpt>
      <trkpt lat="47.94123" lon="-2.52103">
        <ele>64.5</ele>
        <time>2024-12-19T08:28:38Z</time>
      </trkpt>
      <trkpt lat="47.94122" lon="-2.52102">
        <ele>64.7</ele>
        <time>2024-12-19T08:28:39Z</time>
      </trkpt>
      <trkpt lat="47.94122" lon="-2.52101">
        <ele>64.8</ele>
        <time>2024-12-19T08:28:40Z</time>
      </trkpt>
      <trkpt lat="47.94123" lon="-2.521">
        <ele>64.8</ele>
        <time>2024-12-19T08:28:41Z</time>
      </trkpt>
      <trkpt lat="47.94123" lon="-2.521">
        <ele>64.9</ele>
        <time>2024-12-19T08:28:42Z</time>
      </trkpt>
      <trkpt lat="47.94123" lon="-2.52099">
        <ele>65</ele>
        <time>2024-12-19T08:28:43Z</time>
      </trkpt>
      <trkpt lat="47.94124" lon="-2.52098">
        <ele>64.9</ele>
        <time>2024-12-19T08:28:44Z</time>
      </trkpt>
      <trkpt lat="47.94124" lon="-2.52097">
        <ele>65.1</ele>
        <time>2024-12-19T08:28:45Z</time>
      </trkpt>
      <trkpt lat="47.94123" lon="-2.52095">
        <ele>65.5</ele>
        <time>2024-12-19T08:28:46Z</time>
      </trkpt>
      <trkpt lat="47.94123" lon="-2.52094">
        <ele>65.7</ele>
        <time>2024-12-19T08:28:47Z</time>
      </trkpt>
      <trkpt lat="47.94123" lon="-2.52093">
        <ele>65.8</ele>
        <time>2024-12-19T08:28:48Z</time>
      </trkpt>
      <trkpt lat="47.94122" lon="-2.52091">
        <ele>66</ele>
        <time>2024-12-19T08:28:49Z</time>
      </trkpt>
      <trkpt lat="47.94123" lon="-2.52091">
        <ele>66</ele>
        <time>2024-12-19T08:28:50Z</time>
      </trkpt>
      <trkpt lat="47.94123" lon="-2.5209">
        <ele>66.1</ele>
        <time>2024-12-19T08:28:51Z</time>
      </trkpt>
      <trkpt lat="47.94123" lon="-2.52089">
        <ele>66.2</ele>
        <time>2024-12-19T08:28:52Z</time>
      </trkpt>
      <trkpt lat="47.94123" lon="-2.52088">
        <ele>66.3</ele>
        <time>2024-12-19T08:28:53Z</time>
      </trkpt>
      <trkpt lat="47.94124" lon="-2.52087">
        <ele>66.4</ele>
        <time>2024-12-19T08:28:54Z</time>
      </trkpt>
      <trkpt lat="47.94124" lon="-2.52083">
        <ele>66.7</ele>
        <time>2024-12-19T08:28:55Z</time>
      </trkpt>
      <trkpt lat="47.94124" lon="-2.52082">
        <ele>66.8</ele>
        <time>2024-12-19T08:28:56Z</time>
      </trkpt>
      <trkpt lat="47.94125" lon="-2.52081">
        <ele>66.9</ele>
        <time>2024-12-19T08:28:57Z</time>
      </trkpt>
      <trkpt lat="47.94125" lon="-2.5208">
        <ele>66.9</ele>
        <time>2024-12-19T08:28:58Z</time>
      </trkpt>
      <trkpt lat="47.94125" lon="-2.52079">
        <ele>67</ele>
        <time>2024-12-19T08:28:59Z</time>
      </trkpt>
      <trkpt lat="47.94125" lon="-2.52078">
        <ele>67.1</ele>
        <time>2024-12-19T08:29:00Z</time>
      </trkpt>
      <trkpt lat="47.94125" lon="-2.52078">
        <ele>67.1</ele>
        <time>2024-12-19T08:29:01Z</time>
      </trkpt>
      <trkpt lat="47.94125" lon="-2.52077">
        <ele>67.2</ele>
        <time>2024-12-19T08:29:02Z</time>
      </trkpt>
      <trkpt lat="47.94125" lon="-2.52077">
        <ele>67.2</ele>
        <time>2024-12-19T08:29:03Z</time>
      </trkpt>
      <trkpt lat="47.94125" lon="-2.52076">
        <ele>67.2</ele>
        <time>2024-12-19T08:29:04Z</time>
      </trkpt>
      <trkpt lat="47.94126" lon="-2.52076">
        <ele>67.3</ele>
        <time>2024-12-19T08:29:05Z</time>
      </trkpt>
      <trkpt lat="47.94126" lon="-2.52075">
        <ele>67.3</ele>
        <time>2024-12-19T08:29:06Z</time>
      </trkpt>
      <trkpt lat="47.94127" lon="-2.52074">
        <ele>67.3</ele>
        <time>2024-12-19T08:29:07Z</time>
      </trkpt>
      <trkpt lat="47.94127" lon="-2.52073">
        <ele>67.3</ele>
        <time>2024-12-19T08:29:08Z</time>
      </trkpt>
      <trkpt lat="47.94127" lon="-2.52073">
        <ele>67.3</ele>
        <time>2024-12-19T08:29:09Z</time>
      </trkpt>
      <trkpt lat="47.94128" lon="-2.52072">
        <ele>67.3</ele>
        <time>2024-12-19T08:29:10Z</time>
      </trkpt>
      <trkpt lat="47.94129" lon="-2.52071">
        <ele>67.2</ele>
        <time>2024-12-19T08:29:11Z</time>
      </trkpt>
      <trkpt lat="47.94129" lon="-2.52071">
        <ele>67.2</ele>
        <time>2024-12-19T08:29:12Z</time>
      </trkpt>
      <trkpt lat="47.94129" lon="-2.52068">
        <ele>67.7</ele>
        <time>2024-12-19T08:29:13Z</time>
      </trkpt>
      <trkpt lat="47.94128" lon="-2.52066">
        <ele>68</ele>
        <time>2024-12-19T08:29:14Z</time>
      </trkpt>
      <trkpt lat="47.94128" lon="-2.52065">
        <ele>68.2</ele>
        <time>2024-12-19T08:29:15Z</time>
      </trkpt>
      <trkpt lat="47.94127" lon="-2.52064">
        <ele>68.3</ele>
        <time>2024-12-19T08:29:16Z</time>
      </trkpt>
      <trkpt lat="47.94127" lon="-2.52063">
        <ele>68.4</ele>
        <time>2024-12-19T08:29:17Z</time>
      </trkpt>
      <trkpt lat="47.94127" lon="-2.52062">
        <ele>68.5</ele>
        <time>2024-12-19T08:29:18Z</time>
      </trkpt>
      <trkpt lat="47.94127" lon="-2.52061">
        <ele>68.6</ele>
        <time>2024-12-19T08:29:19Z</time>
      </trkpt>
      <trkpt lat="47.94127" lon="-2.52061">
        <ele>68.8</ele>
        <time>2024-12-19T08:29:20Z</time>
      </trkpt>
      <trkpt lat="47.94126" lon="-2.5206">
        <ele>68.9</ele>
        <time>2024-12-19T08:29:21Z</time>
      </trkpt>
      <trkpt lat="47.94126" lon="-2.52059">
        <ele>69</ele>
        <time>2024-12-19T08:29:22Z</time>
      </trkpt>
      <trkpt lat="47.94126" lon="-2.52059">
        <ele>69</ele>
        <time>2024-12-19T08:29:23Z</time>
      </trkpt>
      <trkpt lat="47.94126" lon="-2.52059">
        <ele>69</ele>
        <time>2024-12-19T08:29:25Z</time>
      </trkpt>
      <trkpt lat="47.94126" lon="-2.52059">
        <ele>69</ele>
        <time>2024-12-19T08:29:26Z</time>
      </trkpt>
      <trkpt lat="47.94126" lon="-2.52059">
        <ele>69</ele>
        <time>2024-12-19T08:29:27Z</time>
      </trkpt>
      <trkpt lat="47.94126" lon="-2.52059">
        <ele>69</ele>
        <time>2024-12-19T08:29:28Z</time>
      </trkpt>
      <trkpt lat="47.94126" lon="-2.52059">
        <ele>69</ele>
        <time>2024-12-19T08:29:29Z</time>
      </trkpt>
      <trkpt lat="47.94126" lon="-2.52059">
        <ele>69</ele>
        <time>2024-12-19T08:29:30Z</time>
      </trkpt>
      <trkpt lat="47.94126" lon="-2.52059">
        <ele>69</ele>
        <time>2024-12-19T08:29:31Z</time>
      </trkpt>
      <trkpt lat="47.94126" lon="-2.52059">
        <ele>69</ele>
        <time>2024-12-19T08:29:32Z</time>
      </trkpt>
      <trkpt lat="47.94126" lon="-2.52059">
        <ele>69</ele>
        <time>2024-12-19T08:29:33Z</time>
      </trkpt>
      <trkpt lat="47.94126" lon="-2.52059">
        <ele>69</ele>
        <time>2024-12-19T08:29:34Z</time>
      </trkpt>
      <trkpt lat="47.94126" lon="-2.52059">
        <ele>69</ele>
        <time>2024-12-19T08:29:35Z</time>
      </trkpt>
      <trkpt lat="47.94126" lon="-2.52059">
        <ele>69</ele>
        <time>2024-12-19T08:29:36Z</time>
      </trkpt>
      <trkpt lat="47.94126" lon="-2.52059">
        <ele>69</ele>
        <time>2024-12-19T08:29:37Z</time>
      </trkpt>
      <trkpt lat="47.94126" lon="-2.52059">
        <ele>69</ele>
        <time>2024-12-19T08:29:38Z</time>
      </trkpt>
      <trkpt lat="47.94126" lon="-2.52059">
        <ele>69</ele>
        <time>2024-12-19T08:29:39Z</time>
      </trkpt>
      <trkpt lat="47.94126" lon="-2.52059">
        <ele>69</ele>
        <time>2024-12-19T08:29:40Z</time>
      </trkpt>
      <trkpt lat="47.94126" lon="-2.52059">
        <ele>69</ele>
        <time>2024-12-19T08:29:41Z</time>
      </trkpt>
      <trkpt lat="47.94126" lon="-2.52059">
        <ele>69</ele>
        <time>2024-12-19T08:29:42Z</time>
      </trkpt>
      <trkpt lat="47.94126" lon="-2.52059">
        <ele>69</ele>
        <time>2024-12-19T08:29:43Z</time>
      </trkpt>
      <trkpt lat="47.94126" lon="-2.52059">
        <ele>69</ele>
        <time>2024-12-19T08:29:44Z</time>
      </trkpt>
      <trkpt lat="47.94126" lon="-2.52059">
        <ele>69</ele>
        <time>2024-12-19T08:29:45Z</time>
      </trkpt>
      <trkpt lat="47.94126" lon="-2.52059">
        <ele>69</ele>
        <time>2024-12-19T08:29:46Z</time>
      </trkpt>
      <trkpt lat="47.94126" lon="-2.52059">
        <ele>69</ele>
        <time>2024-12-19T08:29:47Z</time>
      </trkpt>
      <trkpt lat="47.94126" lon="-2.52059">
        <ele>69</ele>
        <time>2024-12-19T08:29:48Z</time>
      </trkpt>
      <trkpt lat="47.94126" lon="-2.52059">
        <ele>69</ele>
        <time>2024-12-19T08:29:49Z</time>
      </trkpt>
      <trkpt lat="47.94126" lon="-2.52059">
        <ele>69</ele>
        <time>2024-12-19T08:29:50Z</time>
      </trkpt>
      <trkpt lat="47.94126" lon="-2.52059">
        <ele>69</ele>
        <time>2024-12-19T08:29:51Z</time>
      </trkpt>
      <trkpt lat="47.94126" lon="-2.52059">
        <ele>69</ele>
        <time>2024-12-19T08:29:52Z</time>
      </trkpt>
      <trkpt lat="47.94126" lon="-2.52059">
        <ele>69</ele>
        <time>2024-12-19T08:29:53Z</time>
      </trkpt>
      <trkpt lat="47.94126" lon="-2.52059">
        <ele>69</ele>
        <time>2024-12-19T08:29:54Z</time>
      </trkpt>
      <trkpt lat="47.94126" lon="-2.52059">
        <ele>69</ele>
        <time>2024-12-19T08:29:55Z</time>
      </trkpt>
      <trkpt lat="47.94126" lon="-2.52059">
        <ele>69</ele>
        <time>2024-12-19T08:29:56Z</time>
      </trkpt>
      <trkpt lat="47.94126" lon="-2.52059">
        <ele>69</ele>
        <time>2024-12-19T08:29:57Z</time>
      </trkpt>
      <trkpt lat="47.94126" lon="-2.52059">
        <ele>69</ele>
        <time>2024-12-19T08:29:58Z</time>
      </trkpt>
      <trkpt lat="47.94126" lon="-2.52059">
        <ele>69</ele>
        <time>2024-12-19T08:29:59Z</time>
      </trkpt>
      <trkpt lat="47.94126" lon="-2.52059">
        <ele>69</ele>
        <time>2024-12-19T08:30:00Z</time>
      </trkpt>
      <trkpt lat="47.94126" lon="-2.52059">
        <ele>69</ele>
        <time>2024-12-19T08:30:01Z</time>
      </trkpt>
      <trkpt lat="47.94126" lon="-2.52059">
        <ele>69</ele>
        <time>2024-12-19T08:30:02Z</time>
      </trkpt>
      <trkpt lat="47.94126" lon="-2.52059">
        <ele>69</ele>
        <time>2024-12-19T08:30:03Z</time>
      </trkpt>
      <trkpt lat="47.94127" lon="-2.52059">
        <ele>69</ele>
        <time>2024-12-19T08:30:04Z</time>
      </trkpt>
      <trkpt lat="47.94126" lon="-2.52058">
        <ele>69.1</ele>
        <time>2024-12-19T08:30:05Z</time>
      </trkpt>
      <trkpt lat="47.94125" lon="-2.52058">
        <ele>69.3</ele>
        <time>2024-12-19T08:30:06Z</time>
      </trkpt>
      <trkpt lat="47.94124" lon="-2.52056">
        <ele>69.5</ele>
        <time>2024-12-19T08:30:07Z</time>
      </trkpt>
      <trkpt lat="47.94123" lon="-2.52055">
        <ele>69.7</ele>
        <time>2024-12-19T08:30:08Z</time>
      </trkpt>
      <trkpt lat="47.94123" lon="-2.52054">
        <ele>69.8</ele>
        <time>2024-12-19T08:30:09Z</time>
      </trkpt>
      <trkpt lat="47.94122" lon="-2.52053">
        <ele>69.9</ele>
        <time>2024-12-19T08:30:10Z</time>
      </trkpt>
      <trkpt lat="47.94122" lon="-2.52052">
        <ele>70.1</ele>
        <time>2024-12-19T08:30:11Z</time>
      </trkpt>
      <trkpt lat="47.9412" lon="-2.52051">
        <ele>70.3</ele>
        <time>2024-12-19T08:30:12Z</time>
      </trkpt>
      <trkpt lat="47.94119" lon="-2.5205">
        <ele>70.4</ele>
        <time>2024-12-19T08:30:13Z</time>
      </trkpt>
      <trkpt lat="47.94119" lon="-2.52049">
        <ele>70.6</ele>
        <time>2024-12-19T08:30:14Z</time>
      </trkpt>
      <trkpt lat="47.94118" lon="-2.52048">
        <ele>70.7</ele>
        <time>2024-12-19T08:30:15Z</time>
      </trkpt>
      <trkpt lat="47.94117" lon="-2.52046">
        <ele>70.9</ele>
        <time>2024-12-19T08:30:16Z</time>
      </trkpt>
      <trkpt lat="47.94117" lon="-2.52043">
        <ele>71</ele>
        <time>2024-12-19T08:30:17Z</time>
      </trkpt>
      <trkpt lat="47.94116" lon="-2.52041">
        <ele>71.2</ele>
        <time>2024-12-19T08:30:18Z</time>
      </trkpt>
      <trkpt lat="47.94116" lon="-2.5204">
        <ele>71.3</ele>
        <time>2024-12-19T08:30:19Z</time>
      </trkpt>
      <trkpt lat="47.94115" lon="-2.52038">
        <ele>71.4</ele>
        <time>2024-12-19T08:30:20Z</time>
      </trkpt>
      <trkpt lat="47.94114" lon="-2.52036">
        <ele>71.6</ele>
        <time>2024-12-19T08:30:21Z</time>
      </trkpt>
      <trkpt lat="47.94113" lon="-2.52034">
        <ele>71.7</ele>
        <time>2024-12-19T08:30:22Z</time>
      </trkpt>
      <trkpt lat="47.94113" lon="-2.52032">
        <ele>71.8</ele>
        <time>2024-12-19T08:30:23Z</time>
      </trkpt>
      <trkpt lat="47.94112" lon="-2.5203">
        <ele>71.9</ele>
        <time>2024-12-19T08:30:24Z</time>
      </trkpt>
      <trkpt lat="47.94111" lon="-2.52028">
        <ele>72</ele>
        <time>2024-12-19T08:30:25Z</time>
      </trkpt>
      <trkpt lat="47.94111" lon="-2.52026">
        <ele>72.1</ele>
        <time>2024-12-19T08:30:26Z</time>
      </trkpt>
      <trkpt lat="47.9411" lon="-2.52018">
        <ele>72.8</ele>
        <time>2024-12-19T08:30:30Z</time>
      </trkpt>
      <trkpt lat="47.9411" lon="-2.52015">
        <ele>72.9</ele>
        <time>2024-12-19T08:30:31Z</time>
      </trkpt>
      <trkpt lat="47.94109" lon="-2.52014">
        <ele>73.1</ele>
        <time>2024-12-19T08:30:32Z</time>
      </trkpt>
      <trkpt lat="47.94109" lon="-2.52013">
        <ele>73.2</ele>
        <time>2024-12-19T08:30:33Z</time>
      </trkpt>
      <trkpt lat="47.94109" lon="-2.52011">
        <ele>73.3</ele>
        <time>2024-12-19T08:30:34Z</time>
      </trkpt>
      <trkpt lat="47.94108" lon="-2.5201">
        <ele>73.4</ele>
        <time>2024-12-19T08:30:35Z</time>
      </trkpt>
      <trkpt lat="47.94107" lon="-2.52008">
        <ele>73.6</ele>
        <time>2024-12-19T08:30:36Z</time>
      </trkpt>
      <trkpt lat="47.94107" lon="-2.52006">
        <ele>73.7</ele>
        <time>2024-12-19T08:30:37Z</time>
      </trkpt>
      <trkpt lat="47.94107" lon="-2.52004">
        <ele>73.8</ele>
        <time>2024-12-19T08:30:38Z</time>
      </trkpt>
      <trkpt lat="47.94107" lon="-2.52003">
        <ele>73.9</ele>
        <time>2024-12-19T08:30:39Z</time>
      </trkpt>
      <trkpt lat="47.94107" lon="-2.52002">
        <ele>74</ele>
        <time>2024-12-19T08:30:40Z</time>
      </trkpt>
      <trkpt lat="47.94107" lon="-2.52">
        <ele>74.2</ele>
        <time>2024-12-19T08:30:41Z</time>
      </trkpt>
      <trkpt lat="47.94106" lon="-2.51998">
        <ele>74.2</ele>
        <time>2024-12-19T08:30:42Z</time>
      </trkpt>
      <trkpt lat="47.94106" lon="-2.51997">
        <ele>74.3</ele>
        <time>2024-12-19T08:30:43Z</time>
      </trkpt>
      <trkpt lat="47.94106" lon="-2.51996">
        <ele>74.3</ele>
        <time>2024-12-19T08:30:44Z</time>
      </trkpt>
      <trkpt lat="47.94105" lon="-2.51994">
        <ele>74.4</ele>
        <time>2024-12-19T08:30:45Z</time>
      </trkpt>
      <trkpt lat="47.94105" lon="-2.51993">
        <ele>74.4</ele>
        <time>2024-12-19T08:30:46Z</time>
      </trkpt>
      <trkpt lat="47.94104" lon="-2.51991">
        <ele>74.5</ele>
        <time>2024-12-19T08:30:47Z</time>
      </trkpt>
      <trkpt lat="47.94104" lon="-2.51989">
        <ele>74.6</ele>
        <time>2024-12-19T08:30:48Z</time>
      </trkpt>
      <trkpt lat="47.94104" lon="-2.51988">
        <ele>74.6</ele>
        <time>2024-12-19T08:30:49Z</time>
      </trkpt>
      <trkpt lat="47.94103" lon="-2.51987">
        <ele>74.6</ele>
        <time>2024-12-19T08:30:50Z</time>
      </trkpt>
      <trkpt lat="47.94103" lon="-2.51985">
        <ele>74.7</ele>
        <time>2024-12-19T08:30:51Z</time>
      </trkpt>
      <trkpt lat="47.94102" lon="-2.51983">
        <ele>74.7</ele>
        <time>2024-12-19T08:30:52Z</time>
      </trkpt>
      <trkpt lat="47.94101" lon="-2.51981">
        <ele>74.8</ele>
        <time>2024-12-19T08:30:53Z</time>
      </trkpt>
      <trkpt lat="47.94101" lon="-2.5198">
        <ele>74.8</ele>
        <time>2024-12-19T08:30:54Z</time>
      </trkpt>
      <trkpt lat="47.94101" lon="-2.51979">
        <ele>74.8</ele>
        <time>2024-12-19T08:30:55Z</time>
      </trkpt>
      <trkpt lat="47.94101" lon="-2.51978">
        <ele>74.9</ele>
        <time>2024-12-19T08:30:56Z</time>
      </trkpt>
      <trkpt lat="47.94101" lon="-2.51977">
        <ele>74.9</ele>
        <time>2024-12-19T08:30:57Z</time>
      </trkpt>
      <trkpt lat="47.94101" lon="-2.51975">
        <ele>74.9</ele>
        <time>2024-12-19T08:30:58Z</time>
      </trkpt>
      <trkpt lat="47.94101" lon="-2.51972">
        <ele>75</ele>
        <time>2024-12-19T08:30:59Z</time>
      </trkpt>
      <trkpt lat="47.94102" lon="-2.51971">
        <ele>75</ele>
        <time>2024-12-19T08:31:00Z</time>
      </trkpt>
      <trkpt lat="47.94102" lon="-2.51969">
        <ele>75.1</ele>
        <time>2024-12-19T08:31:01Z</time>
      </trkpt>
      <trkpt lat="47.94102" lon="-2.51967">
        <ele>75.1</ele>
        <time>2024-12-19T08:31:02Z</time>
      </trkpt>
      <trkpt lat="47.94102" lon="-2.51965">
        <ele>75.2</ele>
        <time>2024-12-19T08:31:03Z</time>
      </trkpt>
      <trkpt lat="47.94101" lon="-2.51963">
        <ele>75.2</ele>
        <time>2024-12-19T08:31:04Z</time>
      </trkpt>
      <trkpt lat="47.94101" lon="-2.51961">
        <ele>75.3</ele>
        <time>2024-12-19T08:31:05Z</time>
      </trkpt>
      <trkpt lat="47.941" lon="-2.51959">
        <ele>75.3</ele>
        <time>2024-12-19T08:31:06Z</time>
      </trkpt>
      <trkpt lat="47.941" lon="-2.51959">
        <ele>75.3</ele>
        <time>2024-12-19T08:31:07Z</time>
      </trkpt>
      <trkpt lat="47.941" lon="-2.51958">
        <ele>75.3</ele>
        <time>2024-12-19T08:31:08Z</time>
      </trkpt>
      <trkpt lat="47.941" lon="-2.51957">
        <ele>75.3</ele>
        <time>2024-12-19T08:31:09Z</time>
      </trkpt>
      <trkpt lat="47.94099" lon="-2.51955">
        <ele>75.4</ele>
        <time>2024-12-19T08:31:10Z</time>
      </trkpt>
      <trkpt lat="47.94099" lon="-2.51953">
        <ele>75.4</ele>
        <time>2024-12-19T08:31:11Z</time>
      </trkpt>
      <trkpt lat="47.94099" lon="-2.51951">
        <ele>75.4</ele>
        <time>2024-12-19T08:31:12Z</time>
      </trkpt>
      <trkpt lat="47.941" lon="-2.51949">
        <ele>75.5</ele>
        <time>2024-12-19T08:31:13Z</time>
      </trkpt>
      <trkpt lat="47.941" lon="-2.51948">
        <ele>75.5</ele>
        <time>2024-12-19T08:31:14Z</time>
      </trkpt>
      <trkpt lat="47.941" lon="-2.51947">
        <ele>75.6</ele>
        <time>2024-12-19T08:31:15Z</time>
      </trkpt>
      <trkpt lat="47.941" lon="-2.51946">
        <ele>75.6</ele>
        <time>2024-12-19T08:31:16Z</time>
      </trkpt>
      <trkpt lat="47.941" lon="-2.51945">
        <ele>75.6</ele>
        <time>2024-12-19T08:31:17Z</time>
      </trkpt>
      <trkpt lat="47.94101" lon="-2.51945">
        <ele>75.6</ele>
        <time>2024-12-19T08:31:18Z</time>
      </trkpt>
      <trkpt lat="47.94101" lon="-2.51947">
        <ele>75.6</ele>
        <time>2024-12-19T08:31:19Z</time>
      </trkpt>
      <trkpt lat="47.94101" lon="-2.51947">
        <ele>75.6</ele>
        <time>2024-12-19T08:31:20Z</time>
      </trkpt>
      <trkpt lat="47.94101" lon="-2.51946">
        <ele>75.6</ele>
        <time>2024-12-19T08:31:21Z</time>
      </trkpt>
      <trkpt lat="47.94101" lon="-2.51944">
        <ele>75.7</ele>
        <time>2024-12-19T08:31:22Z</time>
      </trkpt>
      <trkpt lat="47.94101" lon="-2.51942">
        <ele>75.7</ele>
        <time>2024-12-19T08:31:23Z</time>
      </trkpt>
      <trkpt lat="47.94102" lon="-2.51942">
        <ele>75.8</ele>
        <time>2024-12-19T08:31:24Z</time>
      </trkpt>
      <trkpt lat="47.94102" lon="-2.5194">
        <ele>75.8</ele>
        <time>2024-12-19T08:31:25Z</time>
      </trkpt>
      <trkpt lat="47.94103" lon="-2.51939">
        <ele>75.9</ele>
        <time>2024-12-19T08:31:26Z</time>
      </trkpt>
      <trkpt lat="47.94104" lon="-2.51938">
        <ele>76</ele>
        <time>2024-12-19T08:31:27Z</time>
      </trkpt>
      <trkpt lat="47.94104" lon="-2.51937">
        <ele>76</ele>
        <time>2024-12-19T08:31:28Z</time>
      </trkpt>
      <trkpt lat="47.94105" lon="-2.51935">
        <ele>76.1</ele>
        <time>2024-12-19T08:31:29Z</time>
      </trkpt>
      <trkpt lat="47.94106" lon="-2.51934">
        <ele>76.2</ele>
        <time>2024-12-19T08:31:30Z</time>
      </trkpt>
      <trkpt lat="47.94107" lon="-2.51933">
        <ele>76.3</ele>
        <time>2024-12-19T08:31:31Z</time>
      </trkpt>
      <trkpt lat="47.94108" lon="-2.51932">
        <ele>76.4</ele>
        <time>2024-12-19T08:31:32Z</time>
      </trkpt>
      <trkpt lat="47.94109" lon="-2.51931">
        <ele>76.4</ele>
        <time>2024-12-19T08:31:33Z</time>
      </trkpt>
      <trkpt lat="47.9411" lon="-2.51929">
        <ele>76.5</ele>
        <time>2024-12-19T08:31:34Z</time>
      </trkpt>
      <trkpt lat="47.9411" lon="-2.51927">
        <ele>76.6</ele>
        <time>2024-12-19T08:31:35Z</time>
      </trkpt>
      <trkpt lat="47.94111" lon="-2.51924">
        <ele>76.7</ele>
        <time>2024-12-19T08:31:36Z</time>
      </trkpt>
      <trkpt lat="47.94112" lon="-2.51922">
        <ele>76.8</ele>
        <time>2024-12-19T08:31:37Z</time>
      </trkpt>
      <trkpt lat="47.94113" lon="-2.51921">
        <ele>76.9</ele>
        <time>2024-12-19T08:31:38Z</time>
      </trkpt>
      <trkpt lat="47.94114" lon="-2.51919">
        <ele>76.9</ele>
        <time>2024-12-19T08:31:39Z</time>
      </trkpt>
      <trkpt lat="47.94115" lon="-2.51918">
        <ele>77</ele>
        <time>2024-12-19T08:31:40Z</time>
      </trkpt>
      <trkpt lat="47.94116" lon="-2.51916">
        <ele>77</ele>
        <time>2024-12-19T08:31:41Z</time>
      </trkpt>
      <trkpt lat="47.94117" lon="-2.51914">
        <ele>77</ele>
        <time>2024-12-19T08:31:42Z</time>
      </trkpt>
      <trkpt lat="47.94118" lon="-2.51912">
        <ele>77</ele>
        <time>2024-12-19T08:31:43Z</time>
      </trkpt>
      <trkpt lat="47.94118" lon="-2.51911">
        <ele>77</ele>
        <time>2024-12-19T08:31:44Z</time>
      </trkpt>
      <trkpt lat="47.94119" lon="-2.51909">
        <ele>77</ele>
        <time>2024-12-19T08:31:45Z</time>
      </trkpt>
      <trkpt lat="47.9412" lon="-2.51907">
        <ele>77</ele>
        <time>2024-12-19T08:31:46Z</time>
      </trkpt>
      <trkpt lat="47.94121" lon="-2.51905">
        <ele>77</ele>
        <time>2024-12-19T08:31:47Z</time>
      </trkpt>
      <trkpt lat="47.94122" lon="-2.51904">
        <ele>77</ele>
        <time>2024-12-19T08:31:48Z</time>
      </trkpt>
      <trkpt lat="47.94122" lon="-2.51902">
        <ele>77</ele>
        <time>2024-12-19T08:31:49Z</time>
      </trkpt>
      <trkpt lat="47.94123" lon="-2.519">
        <ele>77</ele>
        <time>2024-12-19T08:31:51Z</time>
      </trkpt>
      <trkpt lat="47.94123" lon="-2.51898">
        <ele>77</ele>
        <time>2024-12-19T08:31:52Z</time>
      </trkpt>
      <trkpt lat="47.94124" lon="-2.51897">
        <ele>77</ele>
        <time>2024-12-19T08:31:53Z</time>
      </trkpt>
      <trkpt lat="47.94125" lon="-2.51895">
        <ele>77</ele>
        <time>2024-12-19T08:31:54Z</time>
      </trkpt>
      <trkpt lat="47.94125" lon="-2.51894">
        <ele>77</ele>
        <time>2024-12-19T08:31:55Z</time>
      </trkpt>
      <trkpt lat="47.94125" lon="-2.51893">
        <ele>77</ele>
        <time>2024-12-19T08:31:56Z</time>
      </trkpt>
      <trkpt lat="47.94126" lon="-2.51891">
        <ele>77</ele>
        <time>2024-12-19T08:31:57Z</time>
      </trkpt>
      <trkpt lat="47.94127" lon="-2.5189">
        <ele>77</ele>
        <time>2024-12-19T08:31:58Z</time>
      </trkpt>
      <trkpt lat="47.94128" lon="-2.51888">
        <ele>77</ele>
        <time>2024-12-19T08:31:59Z</time>
      </trkpt>
      <trkpt lat="47.94129" lon="-2.51887">
        <ele>77</ele>
        <time>2024-12-19T08:32:00Z</time>
      </trkpt>
      <trkpt lat="47.94129" lon="-2.51886">
        <ele>77.1</ele>
        <time>2024-12-19T08:32:01Z</time>
      </trkpt>
      <trkpt lat="47.9413" lon="-2.51885">
        <ele>77.1</ele>
        <time>2024-12-19T08:32:02Z</time>
      </trkpt>
      <trkpt lat="47.94131" lon="-2.51884">
        <ele>77.1</ele>
        <time>2024-12-19T08:32:03Z</time>
      </trkpt>
      <trkpt lat="47.94132" lon="-2.51883">
        <ele>77.2</ele>
        <time>2024-12-19T08:32:04Z</time>
      </trkpt>
      <trkpt lat="47.94133" lon="-2.51882">
        <ele>77.2</ele>
        <time>2024-12-19T08:32:05Z</time>
      </trkpt>
      <trkpt lat="47.94134" lon="-2.51882">
        <ele>77.2</ele>
        <time>2024-12-19T08:32:06Z</time>
      </trkpt>
      <trkpt lat="47.94134" lon="-2.51881">
        <ele>77.2</ele>
        <time>2024-12-19T08:32:07Z</time>
      </trkpt>
      <trkpt lat="47.94135" lon="-2.5188">
        <ele>77.3</ele>
        <time>2024-12-19T08:32:08Z</time>
      </trkpt>
      <trkpt lat="47.94136" lon="-2.51878">
        <ele>77.3</ele>
        <time>2024-12-19T08:32:09Z</time>
      </trkpt>
      <trkpt lat="47.94136" lon="-2.51877">
        <ele>77.4</ele>
        <time>2024-12-19T08:32:10Z</time>
      </trkpt>
      <trkpt lat="47.94137" lon="-2.51876">
        <ele>77.4</ele>
        <time>2024-12-19T08:32:11Z</time>
      </trkpt>
      <trkpt lat="47.94138" lon="-2.51875">
        <ele>77.5</ele>
        <time>2024-12-19T08:32:12Z</time>
      </trkpt>
      <trkpt lat="47.94138" lon="-2.51873">
        <ele>77.6</ele>
        <time>2024-12-19T08:32:13Z</time>
      </trkpt>
      <trkpt lat="47.94139" lon="-2.51872">
        <ele>77.6</ele>
        <time>2024-12-19T08:32:14Z</time>
      </trkpt>
      <trkpt lat="47.9414" lon="-2.5187">
        <ele>77.7</ele>
        <time>2024-12-19T08:32:15Z</time>
      </trkpt>
      <trkpt lat="47.9414" lon="-2.51868">
        <ele>77.7</ele>
        <time>2024-12-19T08:32:16Z</time>
      </trkpt>
      <trkpt lat="47.94141" lon="-2.51867">
        <ele>77.8</ele>
        <time>2024-12-19T08:32:17Z</time>
      </trkpt>
      <trkpt lat="47.94141" lon="-2.51865">
        <ele>77.8</ele>
        <time>2024-12-19T08:32:18Z</time>
      </trkpt>
      <trkpt lat="47.94141" lon="-2.51864">
        <ele>77.9</ele>
        <time>2024-12-19T08:32:19Z</time>
      </trkpt>
      <trkpt lat="47.94141" lon="-2.51862">
        <ele>78</ele>
        <time>2024-12-19T08:32:20Z</time>
      </trkpt>
      <trkpt lat="47.94142" lon="-2.5186">
        <ele>78</ele>
        <time>2024-12-19T08:32:21Z</time>
      </trkpt>
      <trkpt lat="47.94143" lon="-2.51859">
        <ele>78</ele>
        <time>2024-12-19T08:32:22Z</time>
      </trkpt>
      <trkpt lat="47.94144" lon="-2.51857">
        <ele>78</ele>
        <time>2024-12-19T08:32:23Z</time>
      </trkpt>
      <trkpt lat="47.94145" lon="-2.51856">
        <ele>78</ele>
        <time>2024-12-19T08:32:24Z</time>
      </trkpt>
      <trkpt lat="47.94146" lon="-2.51854">
        <ele>78</ele>
        <time>2024-12-19T08:32:25Z</time>
      </trkpt>
      <trkpt lat="47.94147" lon="-2.51853">
        <ele>78</ele>
        <time>2024-12-19T08:32:26Z</time>
      </trkpt>
      <trkpt lat="47.94147" lon="-2.51851">
        <ele>78</ele>
        <time>2024-12-19T08:32:27Z</time>
      </trkpt>
      <trkpt lat="47.94148" lon="-2.5185">
        <ele>78</ele>
        <time>2024-12-19T08:32:28Z</time>
      </trkpt>
      <trkpt lat="47.94148" lon="-2.51848">
        <ele>78</ele>
        <time>2024-12-19T08:32:29Z</time>
      </trkpt>
      <trkpt lat="47.94149" lon="-2.51846">
        <ele>78</ele>
        <time>2024-12-19T08:32:30Z</time>
      </trkpt>
      <trkpt lat="47.9415" lon="-2.51844">
        <ele>78</ele>
        <time>2024-12-19T08:32:31Z</time>
      </trkpt>
      <trkpt lat="47.94151" lon="-2.51842">
        <ele>78</ele>
        <time>2024-12-19T08:32:32Z</time>
      </trkpt>
      <trkpt lat="47.94152" lon="-2.51841">
        <ele>78</ele>
        <time>2024-12-19T08:32:33Z</time>
      </trkpt>
      <trkpt lat="47.94152" lon="-2.5184">
        <ele>78</ele>
        <time>2024-12-19T08:32:34Z</time>
      </trkpt>
      <trkpt lat="47.94152" lon="-2.51838">
        <ele>78</ele>
        <time>2024-12-19T08:32:35Z</time>
      </trkpt>
      <trkpt lat="47.94153" lon="-2.51837">
        <ele>78</ele>
        <time>2024-12-19T08:32:36Z</time>
      </trkpt>
      <trkpt lat="47.94153" lon="-2.51836">
        <ele>78</ele>
        <time>2024-12-19T08:32:37Z</time>
      </trkpt>
      <trkpt lat="47.94154" lon="-2.51835">
        <ele>78</ele>
        <time>2024-12-19T08:32:38Z</time>
      </trkpt>
      <trkpt lat="47.94154" lon="-2.51834">
        <ele>78</ele>
        <time>2024-12-19T08:32:39Z</time>
      </trkpt>
      <trkpt lat="47.94155" lon="-2.51831">
        <ele>78</ele>
        <time>2024-12-19T08:32:40Z</time>
      </trkpt>
      <trkpt lat="47.94155" lon="-2.51829">
        <ele>78.1</ele>
        <time>2024-12-19T08:32:41Z</time>
      </trkpt>
      <trkpt lat="47.94155" lon="-2.51826">
        <ele>78.2</ele>
        <time>2024-12-19T08:32:42Z</time>
      </trkpt>
      <trkpt lat="47.94156" lon="-2.51824">
        <ele>78.2</ele>
        <time>2024-12-19T08:32:43Z</time>
      </trkpt>
      <trkpt lat="47.94156" lon="-2.51822">
        <ele>78.3</ele>
        <time>2024-12-19T08:32:44Z</time>
      </trkpt>
      <trkpt lat="47.94156" lon="-2.5182">
        <ele>78.3</ele>
        <time>2024-12-19T08:32:45Z</time>
      </trkpt>
      <trkpt lat="47.94156" lon="-2.51818">
        <ele>78.3</ele>
        <time>2024-12-19T08:32:46Z</time>
      </trkpt>
      <trkpt lat="47.94156" lon="-2.51817">
        <ele>78.4</ele>
        <time>2024-12-19T08:32:47Z</time>
      </trkpt>
      <trkpt lat="47.94156" lon="-2.51815">
        <ele>78.4</ele>
        <time>2024-12-19T08:32:48Z</time>
      </trkpt>
      <trkpt lat="47.94156" lon="-2.51814">
        <ele>78.4</ele>
        <time>2024-12-19T08:32:49Z</time>
      </trkpt>
      <trkpt lat="47.94156" lon="-2.51813">
        <ele>78.4</ele>
        <time>2024-12-19T08:32:50Z</time>
      </trkpt>
      <trkpt lat="47.94156" lon="-2.51812">
        <ele>78.5</ele>
        <time>2024-12-19T08:32:51Z</time>
      </trkpt>
      <trkpt lat="47.94156" lon="-2.51811">
        <ele>78.5</ele>
        <time>2024-12-19T08:32:52Z</time>
      </trkpt>
      <trkpt lat="47.94156" lon="-2.5181">
        <ele>78.5</ele>
        <time>2024-12-19T08:32:53Z</time>
      </trkpt>
      <trkpt lat="47.94156" lon="-2.51809">
        <ele>78.5</ele>
        <time>2024-12-19T08:32:54Z</time>
      </trkpt>
      <trkpt lat="47.94156" lon="-2.51808">
        <ele>78.6</ele>
        <time>2024-12-19T08:32:55Z</time>
      </trkpt>
      <trkpt lat="47.94156" lon="-2.51807">
        <ele>78.6</ele>
        <time>2024-12-19T08:32:56Z</time>
      </trkpt>
      <trkpt lat="47.94156" lon="-2.51806">
        <ele>78.6</ele>
        <time>2024-12-19T08:32:57Z</time>
      </trkpt>
      <trkpt lat="47.94156" lon="-2.51805">
        <ele>78.6</ele>
        <time>2024-12-19T08:32:58Z</time>
      </trkpt>
      <trkpt lat="47.94156" lon="-2.51803">
        <ele>78.6</ele>
        <time>2024-12-19T08:32:59Z</time>
      </trkpt>
      <trkpt lat="47.94156" lon="-2.51801">
        <ele>78.6</ele>
        <time>2024-12-19T08:33:00Z</time>
      </trkpt>
      <trkpt lat="47.94157" lon="-2.51798">
        <ele>78.6</ele>
        <time>2024-12-19T08:33:01Z</time>
      </trkpt>
      <trkpt lat="47.94157" lon="-2.51796">
        <ele>78.6</ele>
        <time>2024-12-19T08:33:02Z</time>
      </trkpt>
      <trkpt lat="47.94157" lon="-2.51794">
        <ele>78.7</ele>
        <time>2024-12-19T08:33:03Z</time>
      </trkpt>
      <trkpt lat="47.94157" lon="-2.51793">
        <ele>78.7</ele>
        <time>2024-12-19T08:33:04Z</time>
      </trkpt>
      <trkpt lat="47.94157" lon="-2.51791">
        <ele>78.6</ele>
        <time>2024-12-19T08:33:05Z</time>
      </trkpt>
      <trkpt lat="47.94156" lon="-2.51789">
        <ele>78.6</ele>
        <time>2024-12-19T08:33:06Z</time>
      </trkpt>
      <trkpt lat="47.94156" lon="-2.51787">
        <ele>78.6</ele>
        <time>2024-12-19T08:33:07Z</time>
      </trkpt>
      <trkpt lat="47.94155" lon="-2.51786">
        <ele>78.6</ele>
        <time>2024-12-19T08:33:08Z</time>
      </trkpt>
      <trkpt lat="47.94155" lon="-2.51784">
        <ele>78.6</ele>
        <time>2024-12-19T08:33:09Z</time>
      </trkpt>
      <trkpt lat="47.94154" lon="-2.51782">
        <ele>78.5</ele>
        <time>2024-12-19T08:33:10Z</time>
      </trkpt>
      <trkpt lat="47.94154" lon="-2.5178">
        <ele>78.5</ele>
        <time>2024-12-19T08:33:11Z</time>
      </trkpt>
      <trkpt lat="47.94153" lon="-2.51778">
        <ele>78.5</ele>
        <time>2024-12-19T08:33:12Z</time>
      </trkpt>
      <trkpt lat="47.94153" lon="-2.51776">
        <ele>78.5</ele>
        <time>2024-12-19T08:33:13Z</time>
      </trkpt>
      <trkpt lat="47.94152" lon="-2.51775">
        <ele>78.4</ele>
        <time>2024-12-19T08:33:14Z</time>
      </trkpt>
      <trkpt lat="47.94151" lon="-2.51772">
        <ele>78.3</ele>
        <time>2024-12-19T08:33:15Z</time>
      </trkpt>
      <trkpt lat="47.94151" lon="-2.5177">
        <ele>78.3</ele>
        <time>2024-12-19T08:33:16Z</time>
      </trkpt>
      <trkpt lat="47.9415" lon="-2.51767">
        <ele>78.3</ele>
        <time>2024-12-19T08:33:17Z</time>
      </trkpt>
      <trkpt lat="47.9415" lon="-2.51765">
        <ele>78.2</ele>
        <time>2024-12-19T08:33:18Z</time>
      </trkpt>
      <trkpt lat="47.94149" lon="-2.51763">
        <ele>78.2</ele>
        <time>2024-12-19T08:33:19Z</time>
      </trkpt>
      <trkpt lat="47.94148" lon="-2.51761">
        <ele>78.1</ele>
        <time>2024-12-19T08:33:20Z</time>
      </trkpt>
      <trkpt lat="47.94148" lon="-2.5176">
        <ele>78.1</ele>
        <time>2024-12-19T08:33:21Z</time>
      </trkpt>
      <trkpt lat="47.94147" lon="-2.5176">
        <ele>78.1</ele>
        <time>2024-12-19T08:33:22Z</time>
      </trkpt>
      <trkpt lat="47.94147" lon="-2.51759">
        <ele>78.1</ele>
        <time>2024-12-19T08:33:23Z</time>
      </trkpt>
      <trkpt lat="47.94146" lon="-2.51758">
        <ele>78.1</ele>
        <time>2024-12-19T08:33:24Z</time>
      </trkpt>
      <trkpt lat="47.94146" lon="-2.51756">
        <ele>78.1</ele>
        <time>2024-12-19T08:33:25Z</time>
      </trkpt>
      <trkpt lat="47.94146" lon="-2.51754">
        <ele>78</ele>
        <time>2024-12-19T08:33:26Z</time>
      </trkpt>
      <trkpt lat="47.94146" lon="-2.51751">
        <ele>78</ele>
        <time>2024-12-19T08:33:27Z</time>
      </trkpt>
      <trkpt lat="47.94146" lon="-2.51749">
        <ele>78</ele>
        <time>2024-12-19T08:33:28Z</time>
      </trkpt>
      <trkpt lat="47.94146" lon="-2.51747">
        <ele>77.9</ele>
        <time>2024-12-19T08:33:29Z</time>
      </trkpt>
      <trkpt lat="47.94146" lon="-2.51744">
        <ele>77.8</ele>
        <time>2024-12-19T08:33:30Z</time>
      </trkpt>
      <trkpt lat="47.94145" lon="-2.5174">
        <ele>77.7</ele>
        <time>2024-12-19T08:33:31Z</time>
      </trkpt>
      <trkpt lat="47.94145" lon="-2.51737">
        <ele>77.6</ele>
        <time>2024-12-19T08:33:32Z</time>
      </trkpt>
      <trkpt lat="47.94145" lon="-2.51734">
        <ele>77.5</ele>
        <time>2024-12-19T08:33:33Z</time>
      </trkpt>
      <trkpt lat="47.94144" lon="-2.51731">
        <ele>77.4</ele>
        <time>2024-12-19T08:33:34Z</time>
      </trkpt>
      <trkpt lat="47.94144" lon="-2.51728">
        <ele>77.4</ele>
        <time>2024-12-19T08:33:35Z</time>
      </trkpt>
      <trkpt lat="47.94144" lon="-2.51725">
        <ele>77.3</ele>
        <time>2024-12-19T08:33:36Z</time>
      </trkpt>
      <trkpt lat="47.94143" lon="-2.51724">
        <ele>77.2</ele>
        <time>2024-12-19T08:33:37Z</time>
      </trkpt>
      <trkpt lat="47.94143" lon="-2.51723">
        <ele>77.2</ele>
        <time>2024-12-19T08:33:38Z</time>
      </trkpt>
      <trkpt lat="47.94143" lon="-2.51722">
        <ele>77.1</ele>
        <time>2024-12-19T08:33:39Z</time>
      </trkpt>
      <trkpt lat="47.94142" lon="-2.51719">
        <ele>77.1</ele>
        <time>2024-12-19T08:33:40Z</time>
      </trkpt>
      <trkpt lat="47.94142" lon="-2.51717">
        <ele>77.1</ele>
        <time>2024-12-19T08:33:41Z</time>
      </trkpt>
      <trkpt lat="47.94142" lon="-2.51715">
        <ele>77.1</ele>
        <time>2024-12-19T08:33:42Z</time>
      </trkpt>
      <trkpt lat="47.94142" lon="-2.51712">
        <ele>77.1</ele>
        <time>2024-12-19T08:33:43Z</time>
      </trkpt>
      <trkpt lat="47.94143" lon="-2.5171">
        <ele>77.1</ele>
        <time>2024-12-19T08:33:44Z</time>
      </trkpt>
      <trkpt lat="47.94143" lon="-2.51708">
        <ele>77.1</ele>
        <time>2024-12-19T08:33:45Z</time>
      </trkpt>
      <trkpt lat="47.94143" lon="-2.51706">
        <ele>77.1</ele>
        <time>2024-12-19T08:33:46Z</time>
      </trkpt>
      <trkpt lat="47.94142" lon="-2.51703">
        <ele>77</ele>
        <time>2024-12-19T08:33:47Z</time>
      </trkpt>
      <trkpt lat="47.94142" lon="-2.51701">
        <ele>77</ele>
        <time>2024-12-19T08:33:48Z</time>
      </trkpt>
      <trkpt lat="47.94142" lon="-2.517">
        <ele>77</ele>
        <time>2024-12-19T08:33:49Z</time>
      </trkpt>
      <trkpt lat="47.94142" lon="-2.51699">
        <ele>77</ele>
        <time>2024-12-19T08:33:50Z</time>
      </trkpt>
      <trkpt lat="47.94141" lon="-2.51698">
        <ele>77</ele>
        <time>2024-12-19T08:33:51Z</time>
      </trkpt>
      <trkpt lat="47.94141" lon="-2.51697">
        <ele>77</ele>
        <time>2024-12-19T08:33:52Z</time>
      </trkpt>
      <trkpt lat="47.94141" lon="-2.51695">
        <ele>77</ele>
        <time>2024-12-19T08:33:53Z</time>
      </trkpt>
      <trkpt lat="47.94141" lon="-2.51694">
        <ele>77</ele>
        <time>2024-12-19T08:33:54Z</time>
      </trkpt>
      <trkpt lat="47.94141" lon="-2.51693">
        <ele>76.9</ele>
        <time>2024-12-19T08:33:55Z</time>
      </trkpt>
      <trkpt lat="47.94141" lon="-2.51692">
        <ele>76.9</ele>
        <time>2024-12-19T08:33:56Z</time>
      </trkpt>
      <trkpt lat="47.9414" lon="-2.51694">
        <ele>77</ele>
        <time>2024-12-19T08:33:57Z</time>
      </trkpt>
      <trkpt lat="47.9414" lon="-2.51694">
        <ele>77</ele>
        <time>2024-12-19T08:33:58Z</time>
      </trkpt>
      <trkpt lat="47.94141" lon="-2.51692">
        <ele>76.9</ele>
        <time>2024-12-19T08:33:59Z</time>
      </trkpt>
      <trkpt lat="47.94141" lon="-2.51691">
        <ele>76.9</ele>
        <time>2024-12-19T08:34:00Z</time>
      </trkpt>
      <trkpt lat="47.94141" lon="-2.51691">
        <ele>76.9</ele>
        <time>2024-12-19T08:34:01Z</time>
      </trkpt>
      <trkpt lat="47.94141" lon="-2.5169">
        <ele>76.9</ele>
        <time>2024-12-19T08:34:02Z</time>
      </trkpt>
      <trkpt lat="47.94141" lon="-2.5169">
        <ele>76.8</ele>
        <time>2024-12-19T08:34:03Z</time>
      </trkpt>
      <trkpt lat="47.94141" lon="-2.51689">
        <ele>76.8</ele>
        <time>2024-12-19T08:34:04Z</time>
      </trkpt>
      <trkpt lat="47.94141" lon="-2.51688">
        <ele>76.8</ele>
        <time>2024-12-19T08:34:05Z</time>
      </trkpt>
      <trkpt lat="47.94141" lon="-2.51687">
        <ele>76.8</ele>
        <time>2024-12-19T08:34:06Z</time>
      </trkpt>
      <trkpt lat="47.94142" lon="-2.51686">
        <ele>76.7</ele>
        <time>2024-12-19T08:34:07Z</time>
      </trkpt>
      <trkpt lat="47.94142" lon="-2.51684">
        <ele>76.7</ele>
        <time>2024-12-19T08:34:08Z</time>
      </trkpt>
      <trkpt lat="47.94142" lon="-2.51683">
        <ele>76.6</ele>
        <time>2024-12-19T08:34:09Z</time>
      </trkpt>
      <trkpt lat="47.94142" lon="-2.51682">
        <ele>76.6</ele>
        <time>2024-12-19T08:34:10Z</time>
      </trkpt>
      <trkpt lat="47.94142" lon="-2.51681">
        <ele>76.6</ele>
        <time>2024-12-19T08:34:11Z</time>
      </trkpt>
      <trkpt lat="47.94142" lon="-2.51679">
        <ele>76.5</ele>
        <time>2024-12-19T08:34:12Z</time>
      </trkpt>
      <trkpt lat="47.94142" lon="-2.51676">
        <ele>76.4</ele>
        <time>2024-12-19T08:34:13Z</time>
      </trkpt>
      <trkpt lat="47.94141" lon="-2.51675">
        <ele>76.4</ele>
        <time>2024-12-19T08:34:14Z</time>
      </trkpt>
      <trkpt lat="47.94141" lon="-2.51674">
        <ele>76.3</ele>
        <time>2024-12-19T08:34:15Z</time>
      </trkpt>
      <trkpt lat="47.94141" lon="-2.51672">
        <ele>76.2</ele>
        <time>2024-12-19T08:34:16Z</time>
      </trkpt>
      <trkpt lat="47.94141" lon="-2.5167">
        <ele>76.2</ele>
        <time>2024-12-19T08:34:17Z</time>
      </trkpt>
      <trkpt lat="47.9414" lon="-2.51669">
        <ele>76.1</ele>
        <time>2024-12-19T08:34:18Z</time>
      </trkpt>
      <trkpt lat="47.9414" lon="-2.51667">
        <ele>76.1</ele>
        <time>2024-12-19T08:34:19Z</time>
      </trkpt>
      <trkpt lat="47.9414" lon="-2.51666">
        <ele>76.1</ele>
        <time>2024-12-19T08:34:20Z</time>
      </trkpt>
      <trkpt lat="47.9414" lon="-2.51664">
        <ele>76</ele>
        <time>2024-12-19T08:34:21Z</time>
      </trkpt>
      <trkpt lat="47.9414" lon="-2.51662">
        <ele>76</ele>
        <time>2024-12-19T08:34:22Z</time>
      </trkpt>
      <trkpt lat="47.94139" lon="-2.5166">
        <ele>76</ele>
        <time>2024-12-19T08:34:23Z</time>
      </trkpt>
      <trkpt lat="47.94139" lon="-2.51659">
        <ele>76</ele>
        <time>2024-12-19T08:34:24Z</time>
      </trkpt>
      <trkpt lat="47.94138" lon="-2.51658">
        <ele>76</ele>
        <time>2024-12-19T08:34:25Z</time>
      </trkpt>
      <trkpt lat="47.94138" lon="-2.51657">
        <ele>76</ele>
        <time>2024-12-19T08:34:26Z</time>
      </trkpt>
      <trkpt lat="47.94138" lon="-2.51657">
        <ele>76</ele>
        <time>2024-12-19T08:34:27Z</time>
      </trkpt>
      <trkpt lat="47.94138" lon="-2.51655">
        <ele>76</ele>
        <time>2024-12-19T08:34:28Z</time>
      </trkpt>
      <trkpt lat="47.94139" lon="-2.51654">
        <ele>76</ele>
        <time>2024-12-19T08:34:29Z</time>
      </trkpt>
      <trkpt lat="47.94139" lon="-2.51654">
        <ele>76</ele>
        <time>2024-12-19T08:34:30Z</time>
      </trkpt>
      <trkpt lat="47.94138" lon="-2.51652">
        <ele>76</ele>
        <time>2024-12-19T08:34:31Z</time>
      </trkpt>
      <trkpt lat="47.94138" lon="-2.5165">
        <ele>76</ele>
        <time>2024-12-19T08:34:32Z</time>
      </trkpt>
      <trkpt lat="47.94138" lon="-2.51648">
        <ele>75.9</ele>
        <time>2024-12-19T08:34:33Z</time>
      </trkpt>
      <trkpt lat="47.94137" lon="-2.51646">
        <ele>75.9</ele>
        <time>2024-12-19T08:34:34Z</time>
      </trkpt>
      <trkpt lat="47.94137" lon="-2.51644">
        <ele>75.9</ele>
        <time>2024-12-19T08:34:35Z</time>
      </trkpt>
      <trkpt lat="47.94136" lon="-2.51642">
        <ele>75.8</ele>
        <time>2024-12-19T08:34:36Z</time>
      </trkpt>
      <trkpt lat="47.94136" lon="-2.51639">
        <ele>75.8</ele>
        <time>2024-12-19T08:34:37Z</time>
      </trkpt>
      <trkpt lat="47.94136" lon="-2.51637">
        <ele>75.7</ele>
        <time>2024-12-19T08:34:38Z</time>
      </trkpt>
      <trkpt lat="47.94136" lon="-2.51635">
        <ele>75.7</ele>
        <time>2024-12-19T08:34:39Z</time>
      </trkpt>
      <trkpt lat="47.94136" lon="-2.51633">
        <ele>75.6</ele>
        <time>2024-12-19T08:34:40Z</time>
      </trkpt>
      <trkpt lat="47.94136" lon="-2.51631">
        <ele>75.5</ele>
        <time>2024-12-19T08:34:41Z</time>
      </trkpt>
      <trkpt lat="47.94135" lon="-2.51629">
        <ele>75.4</ele>
        <time>2024-12-19T08:34:42Z</time>
      </trkpt>
      <trkpt lat="47.94135" lon="-2.51627">
        <ele>75.3</ele>
        <time>2024-12-19T08:34:43Z</time>
      </trkpt>
      <trkpt lat="47.94135" lon="-2.51624">
        <ele>75.2</ele>
        <time>2024-12-19T08:34:44Z</time>
      </trkpt>
      <trkpt lat="47.94135" lon="-2.51623">
        <ele>75.2</ele>
        <time>2024-12-19T08:34:45Z</time>
      </trkpt>
      <trkpt lat="47.94135" lon="-2.51621">
        <ele>75.2</ele>
        <time>2024-12-19T08:34:46Z</time>
      </trkpt>
      <trkpt lat="47.94135" lon="-2.51619">
        <ele>75.1</ele>
        <time>2024-12-19T08:34:47Z</time>
      </trkpt>
      <trkpt lat="47.94136" lon="-2.51618">
        <ele>75.1</ele>
        <time>2024-12-19T08:34:48Z</time>
      </trkpt>
      <trkpt lat="47.94136" lon="-2.51616">
        <ele>75</ele>
        <time>2024-12-19T08:34:49Z</time>
      </trkpt>
      <trkpt lat="47.94136" lon="-2.51615">
        <ele>75</ele>
        <time>2024-12-19T08:34:50Z</time>
      </trkpt>
      <trkpt lat="47.94136" lon="-2.51613">
        <ele>75</ele>
        <time>2024-12-19T08:34:51Z</time>
      </trkpt>
      <trkpt lat="47.94136" lon="-2.51612">
        <ele>74.9</ele>
        <time>2024-12-19T08:34:52Z</time>
      </trkpt>
      <trkpt lat="47.94136" lon="-2.51611">
        <ele>74.9</ele>
        <time>2024-12-19T08:34:53Z</time>
      </trkpt>
      <trkpt lat="47.94135" lon="-2.51609">
        <ele>74.8</ele>
        <time>2024-12-19T08:34:54Z</time>
      </trkpt>
      <trkpt lat="47.94135" lon="-2.51607">
        <ele>74.8</ele>
        <time>2024-12-19T08:34:55Z</time>
      </trkpt>
      <trkpt lat="47.94134" lon="-2.51605">
        <ele>74.8</ele>
        <time>2024-12-19T08:34:56Z</time>
      </trkpt>
      <trkpt lat="47.94134" lon="-2.51603">
        <ele>74.7</ele>
        <time>2024-12-19T08:34:57Z</time>
      </trkpt>
      <trkpt lat="47.94134" lon="-2.51602">
        <ele>74.7</ele>
        <time>2024-12-19T08:34:58Z</time>
      </trkpt>
      <trkpt lat="47.94134" lon="-2.51601">
        <ele>74.7</ele>
        <time>2024-12-19T08:34:59Z</time>
      </trkpt>
      <trkpt lat="47.94134" lon="-2.516">
        <ele>74.7</ele>
        <time>2024-12-19T08:35:00Z</time>
      </trkpt>
      <trkpt lat="47.94134" lon="-2.51598">
        <ele>74.7</ele>
        <time>2024-12-19T08:35:01Z</time>
      </trkpt>
      <trkpt lat="47.94134" lon="-2.51596">
        <ele>74.6</ele>
        <time>2024-12-19T08:35:02Z</time>
      </trkpt>
      <trkpt lat="47.94133" lon="-2.51594">
        <ele>74.6</ele>
        <time>2024-12-19T08:35:03Z</time>
      </trkpt>
      <trkpt lat="47.94133" lon="-2.51594">
        <ele>74.5</ele>
        <time>2024-12-19T08:35:04Z</time>
      </trkpt>
      <trkpt lat="47.94133" lon="-2.51593">
        <ele>74.5</ele>
        <time>2024-12-19T08:35:05Z</time>
      </trkpt>
      <trkpt lat="47.94133" lon="-2.51592">
        <ele>74.5</ele>
        <time>2024-12-19T08:35:06Z</time>
      </trkpt>
      <trkpt lat="47.94132" lon="-2.51591">
        <ele>74.4</ele>
        <time>2024-12-19T08:35:07Z</time>
      </trkpt>
      <trkpt lat="47.94132" lon="-2.5159">
        <ele>74.4</ele>
        <time>2024-12-19T08:35:08Z</time>
      </trkpt>
      <trkpt lat="47.94132" lon="-2.51589">
        <ele>74.4</ele>
        <time>2024-12-19T08:35:09Z</time>
      </trkpt>
      <trkpt lat="47.94133" lon="-2.51587">
        <ele>74.4</ele>
        <time>2024-12-19T08:35:10Z</time>
      </trkpt>
      <trkpt lat="47.94133" lon="-2.51586">
        <ele>74.3</ele>
        <time>2024-12-19T08:35:11Z</time>
      </trkpt>
      <trkpt lat="47.94132" lon="-2.51584">
        <ele>74.3</ele>
        <time>2024-12-19T08:35:12Z</time>
      </trkpt>
      <trkpt lat="47.94132" lon="-2.51583">
        <ele>74.2</ele>
        <time>2024-12-19T08:35:13Z</time>
      </trkpt>
      <trkpt lat="47.94131" lon="-2.51581">
        <ele>74.1</ele>
        <time>2024-12-19T08:35:14Z</time>
      </trkpt>
      <trkpt lat="47.94131" lon="-2.5158">
        <ele>74</ele>
        <time>2024-12-19T08:35:15Z</time>
      </trkpt>
      <trkpt lat="47.9413" lon="-2.51578">
        <ele>73.9</ele>
        <time>2024-12-19T08:35:16Z</time>
      </trkpt>
      <trkpt lat="47.9413" lon="-2.51576">
        <ele>73.7</ele>
        <time>2024-12-19T08:35:17Z</time>
      </trkpt>
      <trkpt lat="47.94129" lon="-2.51574">
        <ele>73.6</ele>
        <time>2024-12-19T08:35:18Z</time>
      </trkpt>
      <trkpt lat="47.94128" lon="-2.51573">
        <ele>73.5</ele>
        <time>2024-12-19T08:35:19Z</time>
      </trkpt>
      <trkpt lat="47.94128" lon="-2.51571">
        <ele>73.3</ele>
        <time>2024-12-19T08:35:20Z</time>
      </trkpt>
      <trkpt lat="47.94128" lon="-2.51568">
        <ele>73.2</ele>
        <time>2024-12-19T08:35:21Z</time>
      </trkpt>
      <trkpt lat="47.94127" lon="-2.51566">
        <ele>73.1</ele>
        <time>2024-12-19T08:35:22Z</time>
      </trkpt>
      <trkpt lat="47.94127" lon="-2.51564">
        <ele>73</ele>
        <time>2024-12-19T08:35:23Z</time>
      </trkpt>
      <trkpt lat="47.94127" lon="-2.51561">
        <ele>72.9</ele>
        <time>2024-12-19T08:35:24Z</time>
      </trkpt>
      <trkpt lat="47.94127" lon="-2.51559">
        <ele>72.8</ele>
        <time>2024-12-19T08:35:25Z</time>
      </trkpt>
      <trkpt lat="47.94126" lon="-2.51557">
        <ele>72.7</ele>
        <time>2024-12-19T08:35:26Z</time>
      </trkpt>
      <trkpt lat="47.94126" lon="-2.51555">
        <ele>72.5</ele>
        <time>2024-12-19T08:35:27Z</time>
      </trkpt>
      <trkpt lat="47.94125" lon="-2.51552">
        <ele>72.4</ele>
        <time>2024-12-19T08:35:28Z</time>
      </trkpt>
      <trkpt lat="47.94125" lon="-2.5155">
        <ele>72.2</ele>
        <time>2024-12-19T08:35:29Z</time>
      </trkpt>
      <trkpt lat="47.94124" lon="-2.51548">
        <ele>72.1</ele>
        <time>2024-12-19T08:35:30Z</time>
      </trkpt>
      <trkpt lat="47.94124" lon="-2.51546">
        <ele>72</ele>
        <time>2024-12-19T08:35:31Z</time>
      </trkpt>
      <trkpt lat="47.94124" lon="-2.51544">
        <ele>71.9</ele>
        <time>2024-12-19T08:35:32Z</time>
      </trkpt>
      <trkpt lat="47.94123" lon="-2.51542">
        <ele>71.8</ele>
        <time>2024-12-19T08:35:33Z</time>
      </trkpt>
      <trkpt lat="47.94123" lon="-2.5154">
        <ele>71.7</ele>
        <time>2024-12-19T08:35:34Z</time>
      </trkpt>
      <trkpt lat="47.94122" lon="-2.51538">
        <ele>71.5</ele>
        <time>2024-12-19T08:35:35Z</time>
      </trkpt>
      <trkpt lat="47.94122" lon="-2.51536">
        <ele>71.4</ele>
        <time>2024-12-19T08:35:36Z</time>
      </trkpt>
      <trkpt lat="47.94121" lon="-2.51535">
        <ele>71.3</ele>
        <time>2024-12-19T08:35:37Z</time>
      </trkpt>
      <trkpt lat="47.94121" lon="-2.51533">
        <ele>71.2</ele>
        <time>2024-12-19T08:35:38Z</time>
      </trkpt>
      <trkpt lat="47.94121" lon="-2.51532">
        <ele>71.2</ele>
        <time>2024-12-19T08:35:39Z</time>
      </trkpt>
      <trkpt lat="47.94121" lon="-2.51531">
        <ele>71.1</ele>
        <time>2024-12-19T08:35:40Z</time>
      </trkpt>
      <trkpt lat="47.9412" lon="-2.51529">
        <ele>71</ele>
        <time>2024-12-19T08:35:41Z</time>
      </trkpt>
      <trkpt lat="47.9412" lon="-2.51528">
        <ele>71</ele>
        <time>2024-12-19T08:35:42Z</time>
      </trkpt>
      <trkpt lat="47.9412" lon="-2.51526">
        <ele>70.8</ele>
        <time>2024-12-19T08:35:43Z</time>
      </trkpt>
      <trkpt lat="47.9412" lon="-2.51524">
        <ele>70.6</ele>
        <time>2024-12-19T08:35:44Z</time>
      </trkpt>
      <trkpt lat="47.9412" lon="-2.51523">
        <ele>70.4</ele>
        <time>2024-12-19T08:35:45Z</time>
      </trkpt>
      <trkpt lat="47.9412" lon="-2.51521">
        <ele>70.3</ele>
        <time>2024-12-19T08:35:46Z</time>
      </trkpt>
      <trkpt lat="47.9412" lon="-2.5152">
        <ele>70.2</ele>
        <time>2024-12-19T08:35:47Z</time>
      </trkpt>
      <trkpt lat="47.9412" lon="-2.5152">
        <ele>70.2</ele>
        <time>2024-12-19T08:35:48Z</time>
      </trkpt>
      <trkpt lat="47.9412" lon="-2.5152">
        <ele>70.2</ele>
        <time>2024-12-19T08:35:49Z</time>
      </trkpt>
      <trkpt lat="47.9412" lon="-2.51519">
        <ele>70.1</ele>
        <time>2024-12-19T08:35:50Z</time>
      </trkpt>
      <trkpt lat="47.9412" lon="-2.51517">
        <ele>69.9</ele>
        <time>2024-12-19T08:35:51Z</time>
      </trkpt>
      <trkpt lat="47.94119" lon="-2.51516">
        <ele>69.7</ele>
        <time>2024-12-19T08:35:52Z</time>
      </trkpt>
      <trkpt lat="47.94119" lon="-2.51515">
        <ele>69.6</ele>
        <time>2024-12-19T08:35:53Z</time>
      </trkpt>
      <trkpt lat="47.94119" lon="-2.51513">
        <ele>69.4</ele>
        <time>2024-12-19T08:35:54Z</time>
      </trkpt>
      <trkpt lat="47.94119" lon="-2.51512">
        <ele>69.3</ele>
        <time>2024-12-19T08:35:55Z</time>
      </trkpt>
      <trkpt lat="47.94119" lon="-2.51512">
        <ele>69.3</ele>
        <time>2024-12-19T08:35:56Z</time>
      </trkpt>
      <trkpt lat="47.94119" lon="-2.51511">
        <ele>69.2</ele>
        <time>2024-12-19T08:35:57Z</time>
      </trkpt>
      <trkpt lat="47.9412" lon="-2.5151">
        <ele>69.2</ele>
        <time>2024-12-19T08:35:58Z</time>
      </trkpt>
      <trkpt lat="47.9412" lon="-2.51509">
        <ele>69.1</ele>
        <time>2024-12-19T08:35:59Z</time>
      </trkpt>
      <trkpt lat="47.9412" lon="-2.51508">
        <ele>69</ele>
        <time>2024-12-19T08:36:00Z</time>
      </trkpt>
      <trkpt lat="47.9412" lon="-2.51507">
        <ele>68.9</ele>
        <time>2024-12-19T08:36:01Z</time>
      </trkpt>
      <trkpt lat="47.9412" lon="-2.51506">
        <ele>68.8</ele>
        <time>2024-12-19T08:36:02Z</time>
      </trkpt>
      <trkpt lat="47.9412" lon="-2.51505">
        <ele>68.7</ele>
        <time>2024-12-19T08:36:03Z</time>
      </trkpt>
      <trkpt lat="47.9412" lon="-2.51504">
        <ele>68.6</ele>
        <time>2024-12-19T08:36:04Z</time>
      </trkpt>
      <trkpt lat="47.9412" lon="-2.51503">
        <ele>68.5</ele>
        <time>2024-12-19T08:36:05Z</time>
      </trkpt>
      <trkpt lat="47.94119" lon="-2.51502">
        <ele>68.4</ele>
        <time>2024-12-19T08:36:06Z</time>
      </trkpt>
      <trkpt lat="47.94119" lon="-2.51502">
        <ele>68.4</ele>
        <time>2024-12-19T08:36:07Z</time>
      </trkpt>
      <trkpt lat="47.94119" lon="-2.51501">
        <ele>68.3</ele>
        <time>2024-12-19T08:36:08Z</time>
      </trkpt>
      <trkpt lat="47.94119" lon="-2.51501">
        <ele>68.2</ele>
        <time>2024-12-19T08:36:09Z</time>
      </trkpt>
      <trkpt lat="47.94119" lon="-2.515">
        <ele>68.1</ele>
        <time>2024-12-19T08:36:10Z</time>
      </trkpt>
      <trkpt lat="47.94118" lon="-2.51499">
        <ele>67.9</ele>
        <time>2024-12-19T08:36:11Z</time>
      </trkpt>
      <trkpt lat="47.94117" lon="-2.51498">
        <ele>67.7</ele>
        <time>2024-12-19T08:36:12Z</time>
      </trkpt>
      <trkpt lat="47.94117" lon="-2.51496">
        <ele>67.5</ele>
        <time>2024-12-19T08:36:13Z</time>
      </trkpt>
      <trkpt lat="47.94116" lon="-2.51494">
        <ele>67.2</ele>
        <time>2024-12-19T08:36:14Z</time>
      </trkpt>
      <trkpt lat="47.94115" lon="-2.51493">
        <ele>67</ele>
        <time>2024-12-19T08:36:15Z</time>
      </trkpt>
      <trkpt lat="47.94114" lon="-2.51491">
        <ele>66.7</ele>
        <time>2024-12-19T08:36:16Z</time>
      </trkpt>
      <trkpt lat="47.94113" lon="-2.5149">
        <ele>66.5</ele>
        <time>2024-12-19T08:36:17Z</time>
      </trkpt>
      <trkpt lat="47.94112" lon="-2.51488">
        <ele>66.3</ele>
        <time>2024-12-19T08:36:18Z</time>
      </trkpt>
      <trkpt lat="47.94112" lon="-2.51486">
        <ele>66.1</ele>
        <time>2024-12-19T08:36:19Z</time>
      </trkpt>
      <trkpt lat="47.94112" lon="-2.51485">
        <ele>66</ele>
        <time>2024-12-19T08:36:20Z</time>
      </trkpt>
      <trkpt lat="47.94112" lon="-2.51484">
        <ele>65.9</ele>
        <time>2024-12-19T08:36:21Z</time>
      </trkpt>
      <trkpt lat="47.94112" lon="-2.51483">
        <ele>65.9</ele>
        <time>2024-12-19T08:36:22Z</time>
      </trkpt>
      <trkpt lat="47.94113" lon="-2.51482">
        <ele>65.9</ele>
        <time>2024-12-19T08:36:23Z</time>
      </trkpt>
      <trkpt lat="47.94113" lon="-2.51481">
        <ele>65.8</ele>
        <time>2024-12-19T08:36:24Z</time>
      </trkpt>
      <trkpt lat="47.94113" lon="-2.5148">
        <ele>65.8</ele>
        <time>2024-12-19T08:36:25Z</time>
      </trkpt>
      <trkpt lat="47.94113" lon="-2.51478">
        <ele>65.7</ele>
        <time>2024-12-19T08:36:26Z</time>
      </trkpt>
      <trkpt lat="47.94113" lon="-2.51478">
        <ele>65.6</ele>
        <time>2024-12-19T08:36:27Z</time>
      </trkpt>
      <trkpt lat="47.94113" lon="-2.51476">
        <ele>65.5</ele>
        <time>2024-12-19T08:36:28Z</time>
      </trkpt>
      <trkpt lat="47.94113" lon="-2.51474">
        <ele>65.3</ele>
        <time>2024-12-19T08:36:29Z</time>
      </trkpt>
      <trkpt lat="47.94113" lon="-2.51472">
        <ele>65.2</ele>
        <time>2024-12-19T08:36:30Z</time>
      </trkpt>
      <trkpt lat="47.94113" lon="-2.51471">
        <ele>65.2</ele>
        <time>2024-12-19T08:36:31Z</time>
      </trkpt>
      <trkpt lat="47.94113" lon="-2.51469">
        <ele>65.3</ele>
        <time>2024-12-19T08:36:32Z</time>
      </trkpt>
      <trkpt lat="47.94113" lon="-2.51467">
        <ele>65.3</ele>
        <time>2024-12-19T08:36:33Z</time>
      </trkpt>
      <trkpt lat="47.94113" lon="-2.51466">
        <ele>65.4</ele>
        <time>2024-12-19T08:36:34Z</time>
      </trkpt>
      <trkpt lat="47.94113" lon="-2.51464">
        <ele>65.4</ele>
        <time>2024-12-19T08:36:35Z</time>
      </trkpt>
      <trkpt lat="47.94113" lon="-2.5146">
        <ele>65.6</ele>
        <time>2024-12-19T08:36:37Z</time>
      </trkpt>
      <trkpt lat="47.94113" lon="-2.51458">
        <ele>65.6</ele>
        <time>2024-12-19T08:36:38Z</time>
      </trkpt>
      <trkpt lat="47.94113" lon="-2.51456">
        <ele>65.7</ele>
        <time>2024-12-19T08:36:39Z</time>
      </trkpt>
      <trkpt lat="47.94113" lon="-2.51454">
        <ele>65.7</ele>
        <time>2024-12-19T08:36:40Z</time>
      </trkpt>
      <trkpt lat="47.94113" lon="-2.51453">
        <ele>65.7</ele>
        <time>2024-12-19T08:36:41Z</time>
      </trkpt>
      <trkpt lat="47.94113" lon="-2.51452">
        <ele>65.8</ele>
        <time>2024-12-19T08:36:42Z</time>
      </trkpt>
      <trkpt lat="47.94113" lon="-2.51451">
        <ele>65.8</ele>
        <time>2024-12-19T08:36:43Z</time>
      </trkpt>
      <trkpt lat="47.94112" lon="-2.51449">
        <ele>65.8</ele>
        <time>2024-12-19T08:36:44Z</time>
      </trkpt>
      <trkpt lat="47.94112" lon="-2.51448">
        <ele>65.9</ele>
        <time>2024-12-19T08:36:45Z</time>
      </trkpt>
      <trkpt lat="47.94112" lon="-2.51447">
        <ele>65.9</ele>
        <time>2024-12-19T08:36:46Z</time>
      </trkpt>
      <trkpt lat="47.94111" lon="-2.51445">
        <ele>66</ele>
        <time>2024-12-19T08:36:47Z</time>
      </trkpt>
      <trkpt lat="47.94111" lon="-2.51443">
        <ele>66.1</ele>
        <time>2024-12-19T08:36:48Z</time>
      </trkpt>
      <trkpt lat="47.9411" lon="-2.51442">
        <ele>66.2</ele>
        <time>2024-12-19T08:36:49Z</time>
      </trkpt>
      <trkpt lat="47.9411" lon="-2.5144">
        <ele>66.4</ele>
        <time>2024-12-19T08:36:50Z</time>
      </trkpt>
      <trkpt lat="47.9411" lon="-2.51438">
        <ele>66.5</ele>
        <time>2024-12-19T08:36:51Z</time>
      </trkpt>
      <trkpt lat="47.9411" lon="-2.51436">
        <ele>66.7</ele>
        <time>2024-12-19T08:36:52Z</time>
      </trkpt>
      <trkpt lat="47.9411" lon="-2.51433">
        <ele>66.9</ele>
        <time>2024-12-19T08:36:53Z</time>
      </trkpt>
      <trkpt lat="47.94109" lon="-2.51431">
        <ele>67.1</ele>
        <time>2024-12-19T08:36:54Z</time>
      </trkpt>
      <trkpt lat="47.94109" lon="-2.51429">
        <ele>67.3</ele>
        <time>2024-12-19T08:36:55Z</time>
      </trkpt>
      <trkpt lat="47.94108" lon="-2.51427">
        <ele>67.5</ele>
        <time>2024-12-19T08:36:56Z</time>
      </trkpt>
      <trkpt lat="47.94108" lon="-2.51425">
        <ele>67.7</ele>
        <time>2024-12-19T08:36:57Z</time>
      </trkpt>
      <trkpt lat="47.94107" lon="-2.51423">
        <ele>67.8</ele>
        <time>2024-12-19T08:36:58Z</time>
      </trkpt>
      <trkpt lat="47.94107" lon="-2.51422">
        <ele>67.9</ele>
        <time>2024-12-19T08:36:59Z</time>
      </trkpt>
      <trkpt lat="47.94107" lon="-2.5142">
        <ele>68</ele>
        <time>2024-12-19T08:37:00Z</time>
      </trkpt>
      <trkpt lat="47.94106" lon="-2.51418">
        <ele>68.3</ele>
        <time>2024-12-19T08:37:01Z</time>
      </trkpt>
      <trkpt lat="47.94105" lon="-2.51416">
        <ele>68.5</ele>
        <time>2024-12-19T08:37:02Z</time>
      </trkpt>
      <trkpt lat="47.94105" lon="-2.51414">
        <ele>68.7</ele>
        <time>2024-12-19T08:37:03Z</time>
      </trkpt>
      <trkpt lat="47.94104" lon="-2.51412">
        <ele>68.9</ele>
        <time>2024-12-19T08:37:04Z</time>
      </trkpt>
      <trkpt lat="47.94104" lon="-2.5141">
        <ele>69</ele>
        <time>2024-12-19T08:37:05Z</time>
      </trkpt>
      <trkpt lat="47.94104" lon="-2.51409">
        <ele>69.1</ele>
        <time>2024-12-19T08:37:06Z</time>
      </trkpt>
      <trkpt lat="47.94105" lon="-2.51407">
        <ele>69.1</ele>
        <time>2024-12-19T08:37:07Z</time>
      </trkpt>
      <trkpt lat="47.94105" lon="-2.51406">
        <ele>69.2</ele>
        <time>2024-12-19T08:37:08Z</time>
      </trkpt>
      <trkpt lat="47.94105" lon="-2.51404">
        <ele>69.3</ele>
        <time>2024-12-19T08:37:09Z</time>
      </trkpt>
      <trkpt lat="47.94105" lon="-2.51404">
        <ele>69.4</ele>
        <time>2024-12-19T08:37:10Z</time>
      </trkpt>
      <trkpt lat="47.94105" lon="-2.51403">
        <ele>69.5</ele>
        <time>2024-12-19T08:37:11Z</time>
      </trkpt>
      <trkpt lat="47.94104" lon="-2.51401">
        <ele>69.6</ele>
        <time>2024-12-19T08:37:12Z</time>
      </trkpt>
      <trkpt lat="47.94104" lon="-2.51399">
        <ele>69.8</ele>
        <time>2024-12-19T08:37:13Z</time>
      </trkpt>
      <trkpt lat="47.94103" lon="-2.51397">
        <ele>69.9</ele>
        <time>2024-12-19T08:37:14Z</time>
      </trkpt>
      <trkpt lat="47.94103" lon="-2.51396">
        <ele>70.1</ele>
        <time>2024-12-19T08:37:15Z</time>
      </trkpt>
      <trkpt lat="47.94103" lon="-2.51394">
        <ele>70.3</ele>
        <time>2024-12-19T08:37:16Z</time>
      </trkpt>
      <trkpt lat="47.94102" lon="-2.51392">
        <ele>70.5</ele>
        <time>2024-12-19T08:37:17Z</time>
      </trkpt>
      <trkpt lat="47.94101" lon="-2.5139">
        <ele>70.6</ele>
        <time>2024-12-19T08:37:18Z</time>
      </trkpt>
      <trkpt lat="47.94101" lon="-2.51388">
        <ele>70.8</ele>
        <time>2024-12-19T08:37:19Z</time>
      </trkpt>
      <trkpt lat="47.94101" lon="-2.51386">
        <ele>70.9</ele>
        <time>2024-12-19T08:37:20Z</time>
      </trkpt>
      <trkpt lat="47.941" lon="-2.51384">
        <ele>71.1</ele>
        <time>2024-12-19T08:37:21Z</time>
      </trkpt>
      <trkpt lat="47.941" lon="-2.51382">
        <ele>71.2</ele>
        <time>2024-12-19T08:37:22Z</time>
      </trkpt>
      <trkpt lat="47.941" lon="-2.51381">
        <ele>71.3</ele>
        <time>2024-12-19T08:37:23Z</time>
      </trkpt>
      <trkpt lat="47.941" lon="-2.51379">
        <ele>71.4</ele>
        <time>2024-12-19T08:37:24Z</time>
      </trkpt>
      <trkpt lat="47.941" lon="-2.51378">
        <ele>71.5</ele>
        <time>2024-12-19T08:37:25Z</time>
      </trkpt>
      <trkpt lat="47.941" lon="-2.51376">
        <ele>71.6</ele>
        <time>2024-12-19T08:37:26Z</time>
      </trkpt>
      <trkpt lat="47.941" lon="-2.51374">
        <ele>71.7</ele>
        <time>2024-12-19T08:37:27Z</time>
      </trkpt>
      <trkpt lat="47.94099" lon="-2.51372">
        <ele>71.8</ele>
        <time>2024-12-19T08:37:28Z</time>
      </trkpt>
      <trkpt lat="47.94099" lon="-2.51371">
        <ele>71.9</ele>
        <time>2024-12-19T08:37:29Z</time>
      </trkpt>
      <trkpt lat="47.94099" lon="-2.51369">
        <ele>72</ele>
        <time>2024-12-19T08:37:30Z</time>
      </trkpt>
      <trkpt lat="47.94098" lon="-2.51367">
        <ele>72.1</ele>
        <time>2024-12-19T08:37:31Z</time>
      </trkpt>
      <trkpt lat="47.94098" lon="-2.51365">
        <ele>72.3</ele>
        <time>2024-12-19T08:37:32Z</time>
      </trkpt>
      <trkpt lat="47.94098" lon="-2.51363">
        <ele>72.4</ele>
        <time>2024-12-19T08:37:33Z</time>
      </trkpt>
      <trkpt lat="47.94097" lon="-2.51361">
        <ele>72.5</ele>
        <time>2024-12-19T08:37:34Z</time>
      </trkpt>
      <trkpt lat="47.94097" lon="-2.51359">
        <ele>72.6</ele>
        <time>2024-12-19T08:37:35Z</time>
      </trkpt>
      <trkpt lat="47.94097" lon="-2.51357">
        <ele>72.7</ele>
        <time>2024-12-19T08:37:36Z</time>
      </trkpt>
      <trkpt lat="47.94096" lon="-2.51354">
        <ele>72.8</ele>
        <time>2024-12-19T08:37:37Z</time>
      </trkpt>
      <trkpt lat="47.94096" lon="-2.51352">
        <ele>72.9</ele>
        <time>2024-12-19T08:37:38Z</time>
      </trkpt>
      <trkpt lat="47.94095" lon="-2.51349">
        <ele>73</ele>
        <time>2024-12-19T08:37:39Z</time>
      </trkpt>
      <trkpt lat="47.94095" lon="-2.51347">
        <ele>73.1</ele>
        <time>2024-12-19T08:37:40Z</time>
      </trkpt>
      <trkpt lat="47.94094" lon="-2.51344">
        <ele>73.2</ele>
        <time>2024-12-19T08:37:41Z</time>
      </trkpt>
      <trkpt lat="47.94093" lon="-2.51342">
        <ele>73.3</ele>
        <time>2024-12-19T08:37:42Z</time>
      </trkpt>
      <trkpt lat="47.94093" lon="-2.5134">
        <ele>73.4</ele>
        <time>2024-12-19T08:37:43Z</time>
      </trkpt>
      <trkpt lat="47.94093" lon="-2.51338">
        <ele>73.5</ele>
        <time>2024-12-19T08:37:44Z</time>
      </trkpt>
      <trkpt lat="47.94092" lon="-2.51336">
        <ele>73.6</ele>
        <time>2024-12-19T08:37:45Z</time>
      </trkpt>
      <trkpt lat="47.94092" lon="-2.51333">
        <ele>73.7</ele>
        <time>2024-12-19T08:37:46Z</time>
      </trkpt>
      <trkpt lat="47.94092" lon="-2.51331">
        <ele>73.7</ele>
        <time>2024-12-19T08:37:47Z</time>
      </trkpt>
      <trkpt lat="47.94092" lon="-2.5133">
        <ele>73.7</ele>
        <time>2024-12-19T08:37:48Z</time>
      </trkpt>
      <trkpt lat="47.94091" lon="-2.51329">
        <ele>73.8</ele>
        <time>2024-12-19T08:37:49Z</time>
      </trkpt>
      <trkpt lat="47.94091" lon="-2.51327">
        <ele>73.8</ele>
        <time>2024-12-19T08:37:50Z</time>
      </trkpt>
      <trkpt lat="47.94091" lon="-2.51326">
        <ele>73.8</ele>
        <time>2024-12-19T08:37:51Z</time>
      </trkpt>
      <trkpt lat="47.94091" lon="-2.51325">
        <ele>73.8</ele>
        <time>2024-12-19T08:37:52Z</time>
      </trkpt>
      <trkpt lat="47.94091" lon="-2.51323">
        <ele>73.8</ele>
        <time>2024-12-19T08:37:53Z</time>
      </trkpt>
      <trkpt lat="47.94091" lon="-2.51322">
        <ele>73.8</ele>
        <time>2024-12-19T08:37:54Z</time>
      </trkpt>
      <trkpt lat="47.94091" lon="-2.5132">
        <ele>73.8</ele>
        <time>2024-12-19T08:37:55Z</time>
      </trkpt>
      <trkpt lat="47.94092" lon="-2.5132">
        <ele>73.8</ele>
        <time>2024-12-19T08:37:56Z</time>
      </trkpt>
      <trkpt lat="47.94093" lon="-2.51318">
        <ele>73.8</ele>
        <time>2024-12-19T08:37:57Z</time>
      </trkpt>
      <trkpt lat="47.94094" lon="-2.51317">
        <ele>73.9</ele>
        <time>2024-12-19T08:37:58Z</time>
      </trkpt>
      <trkpt lat="47.94095" lon="-2.51315">
        <ele>73.9</ele>
        <time>2024-12-19T08:37:59Z</time>
      </trkpt>
      <trkpt lat="47.94096" lon="-2.51313">
        <ele>73.9</ele>
        <time>2024-12-19T08:38:00Z</time>
      </trkpt>
      <trkpt lat="47.94098" lon="-2.51311">
        <ele>73.9</ele>
        <time>2024-12-19T08:38:01Z</time>
      </trkpt>
      <trkpt lat="47.94099" lon="-2.5131">
        <ele>73.9</ele>
        <time>2024-12-19T08:38:02Z</time>
      </trkpt>
      <trkpt lat="47.941" lon="-2.5131">
        <ele>73.9</ele>
        <time>2024-12-19T08:38:03Z</time>
      </trkpt>
      <trkpt lat="47.94102" lon="-2.51309">
        <ele>73.9</ele>
        <time>2024-12-19T08:38:04Z</time>
      </trkpt>
      <trkpt lat="47.94103" lon="-2.51308">
        <ele>73.9</ele>
        <time>2024-12-19T08:38:05Z</time>
      </trkpt>
      <trkpt lat="47.94105" lon="-2.51307">
        <ele>74</ele>
        <time>2024-12-19T08:38:06Z</time>
      </trkpt>
      <trkpt lat="47.94106" lon="-2.51307">
        <ele>74</ele>
        <time>2024-12-19T08:38:07Z</time>
      </trkpt>
      <trkpt lat="47.94107" lon="-2.51306">
        <ele>74</ele>
        <time>2024-12-19T08:38:08Z</time>
      </trkpt>
      <trkpt lat="47.94109" lon="-2.51305">
        <ele>74</ele>
        <time>2024-12-19T08:38:09Z</time>
      </trkpt>
      <trkpt lat="47.9411" lon="-2.51305">
        <ele>74.1</ele>
        <time>2024-12-19T08:38:10Z</time>
      </trkpt>
      <trkpt lat="47.9411" lon="-2.51304">
        <ele>74.1</ele>
        <time>2024-12-19T08:38:11Z</time>
      </trkpt>
      <trkpt lat="47.94111" lon="-2.51304">
        <ele>74.1</ele>
        <time>2024-12-19T08:38:12Z</time>
      </trkpt>
      <trkpt lat="47.94112" lon="-2.51304">
        <ele>74.1</ele>
        <time>2024-12-19T08:38:13Z</time>
      </trkpt>
      <trkpt lat="47.94113" lon="-2.51303">
        <ele>74.2</ele>
        <time>2024-12-19T08:38:14Z</time>
      </trkpt>
      <trkpt lat="47.94115" lon="-2.51303">
        <ele>74.2</ele>
        <time>2024-12-19T08:38:15Z</time>
      </trkpt>
      <trkpt lat="47.94116" lon="-2.51302">
        <ele>74.2</ele>
        <time>2024-12-19T08:38:16Z</time>
      </trkpt>
      <trkpt lat="47.94118" lon="-2.51302">
        <ele>74.3</ele>
        <time>2024-12-19T08:38:17Z</time>
      </trkpt>
      <trkpt lat="47.94118" lon="-2.51301">
        <ele>74.3</ele>
        <time>2024-12-19T08:38:18Z</time>
      </trkpt>
      <trkpt lat="47.94119" lon="-2.51301">
        <ele>74.3</ele>
        <time>2024-12-19T08:38:19Z</time>
      </trkpt>
      <trkpt lat="47.9412" lon="-2.51301">
        <ele>74.4</ele>
        <time>2024-12-19T08:38:20Z</time>
      </trkpt>
      <trkpt lat="47.94121" lon="-2.513">
        <ele>74.4</ele>
        <time>2024-12-19T08:38:21Z</time>
      </trkpt>
      <trkpt lat="47.94122" lon="-2.51299">
        <ele>74.5</ele>
        <time>2024-12-19T08:38:22Z</time>
      </trkpt>
      <trkpt lat="47.94124" lon="-2.51299">
        <ele>74.5</ele>
        <time>2024-12-19T08:38:23Z</time>
      </trkpt>
      <trkpt lat="47.94125" lon="-2.51298">
        <ele>74.5</ele>
        <time>2024-12-19T08:38:24Z</time>
      </trkpt>
      <trkpt lat="47.94126" lon="-2.51298">
        <ele>74.6</ele>
        <time>2024-12-19T08:38:25Z</time>
      </trkpt>
      <trkpt lat="47.94127" lon="-2.51297">
        <ele>74.6</ele>
        <time>2024-12-19T08:38:26Z</time>
      </trkpt>
      <trkpt lat="47.94128" lon="-2.51297">
        <ele>74.6</ele>
        <time>2024-12-19T08:38:27Z</time>
      </trkpt>
      <trkpt lat="47.94129" lon="-2.51296">
        <ele>74.7</ele>
        <time>2024-12-19T08:38:28Z</time>
      </trkpt>
      <trkpt lat="47.9413" lon="-2.51295">
        <ele>74.8</ele>
        <time>2024-12-19T08:38:29Z</time>
      </trkpt>
      <trkpt lat="47.94131" lon="-2.51294">
        <ele>74.8</ele>
        <time>2024-12-19T08:38:30Z</time>
      </trkpt>
      <trkpt lat="47.94131" lon="-2.51293">
        <ele>74.9</ele>
        <time>2024-12-19T08:38:31Z</time>
      </trkpt>
      <trkpt lat="47.94131" lon="-2.51293">
        <ele>74.9</ele>
        <time>2024-12-19T08:38:32Z</time>
      </trkpt>
      <trkpt lat="47.94132" lon="-2.51292">
        <ele>75</ele>
        <time>2024-12-19T08:38:33Z</time>
      </trkpt>
      <trkpt lat="47.94133" lon="-2.51291">
        <ele>75.1</ele>
        <time>2024-12-19T08:38:34Z</time>
      </trkpt>
      <trkpt lat="47.94134" lon="-2.5129">
        <ele>75.1</ele>
        <time>2024-12-19T08:38:35Z</time>
      </trkpt>
      <trkpt lat="47.94135" lon="-2.51289">
        <ele>75.2</ele>
        <time>2024-12-19T08:38:36Z</time>
      </trkpt>
      <trkpt lat="47.94136" lon="-2.51288">
        <ele>75.3</ele>
        <time>2024-12-19T08:38:37Z</time>
      </trkpt>
      <trkpt lat="47.94136" lon="-2.51287">
        <ele>75.4</ele>
        <time>2024-12-19T08:38:38Z</time>
      </trkpt>
      <trkpt lat="47.94136" lon="-2.51286">
        <ele>75.4</ele>
        <time>2024-12-19T08:38:39Z</time>
      </trkpt>
      <trkpt lat="47.94136" lon="-2.51284">
        <ele>75.6</ele>
        <time>2024-12-19T08:38:40Z</time>
      </trkpt>
      <trkpt lat="47.94136" lon="-2.51283">
        <ele>75.7</ele>
        <time>2024-12-19T08:38:41Z</time>
      </trkpt>
      <trkpt lat="47.94136" lon="-2.51282">
        <ele>75.7</ele>
        <time>2024-12-19T08:38:42Z</time>
      </trkpt>
      <trkpt lat="47.94136" lon="-2.5128">
        <ele>75.8</ele>
        <time>2024-12-19T08:38:43Z</time>
      </trkpt>
      <trkpt lat="47.94136" lon="-2.51278">
        <ele>76</ele>
        <time>2024-12-19T08:38:44Z</time>
      </trkpt>
      <trkpt lat="47.94136" lon="-2.51275">
        <ele>76.1</ele>
        <time>2024-12-19T08:38:45Z</time>
      </trkpt>
      <trkpt lat="47.94136" lon="-2.51273">
        <ele>76.2</ele>
        <time>2024-12-19T08:38:46Z</time>
      </trkpt>
      <trkpt lat="47.94136" lon="-2.51271">
        <ele>76.2</ele>
        <time>2024-12-19T08:38:47Z</time>
      </trkpt>
      <trkpt lat="47.94136" lon="-2.5127">
        <ele>76.3</ele>
        <time>2024-12-19T08:38:48Z</time>
      </trkpt>
      <trkpt lat="47.94135" lon="-2.51268">
        <ele>76.3</ele>
        <time>2024-12-19T08:38:49Z</time>
      </trkpt>
      <trkpt lat="47.94136" lon="-2.51266">
        <ele>76.4</ele>
        <time>2024-12-19T08:38:50Z</time>
      </trkpt>
      <trkpt lat="47.94136" lon="-2.51264">
        <ele>76.4</ele>
        <time>2024-12-19T08:38:51Z</time>
      </trkpt>
      <trkpt lat="47.94136" lon="-2.51262">
        <ele>76.5</ele>
        <time>2024-12-19T08:38:52Z</time>
      </trkpt>
      <trkpt lat="47.94136" lon="-2.51261">
        <ele>76.5</ele>
        <time>2024-12-19T08:38:53Z</time>
      </trkpt>
      <trkpt lat="47.94136" lon="-2.51259">
        <ele>76.6</ele>
        <time>2024-12-19T08:38:54Z</time>
      </trkpt>
      <trkpt lat="47.94136" lon="-2.51257">
        <ele>76.7</ele>
        <time>2024-12-19T08:38:55Z</time>
      </trkpt>
      <trkpt lat="47.94136" lon="-2.51256">
        <ele>76.7</ele>
        <time>2024-12-19T08:38:56Z</time>
      </trkpt>
      <trkpt lat="47.94136" lon="-2.51254">
        <ele>76.8</ele>
        <time>2024-12-19T08:38:57Z</time>
      </trkpt>
      <trkpt lat="47.94136" lon="-2.51253">
        <ele>76.8</ele>
        <time>2024-12-19T08:38:58Z</time>
      </trkpt>
      <trkpt lat="47.94136" lon="-2.51252">
        <ele>76.8</ele>
        <time>2024-12-19T08:38:59Z</time>
      </trkpt>
      <trkpt lat="47.94135" lon="-2.51251">
        <ele>76.8</ele>
        <time>2024-12-19T08:39:00Z</time>
      </trkpt>
      <trkpt lat="47.94135" lon="-2.51251">
        <ele>76.8</ele>
        <time>2024-12-19T08:39:01Z</time>
      </trkpt>
      <trkpt lat="47.94135" lon="-2.51251">
        <ele>76.8</ele>
        <time>2024-12-19T08:39:02Z</time>
      </trkpt>
      <trkpt lat="47.94134" lon="-2.5125">
        <ele>76.8</ele>
        <time>2024-12-19T08:39:03Z</time>
      </trkpt>
      <trkpt lat="47.94135" lon="-2.51251">
        <ele>76.8</ele>
        <time>2024-12-19T08:39:04Z</time>
      </trkpt>
      <trkpt lat="47.94136" lon="-2.5125">
        <ele>76.9</ele>
        <time>2024-12-19T08:39:05Z</time>
      </trkpt>
      <trkpt lat="47.94136" lon="-2.5125">
        <ele>76.9</ele>
        <time>2024-12-19T08:39:06Z</time>
      </trkpt>
      <trkpt lat="47.94136" lon="-2.51249">
        <ele>76.9</ele>
        <time>2024-12-19T08:39:07Z</time>
      </trkpt>
      <trkpt lat="47.94137" lon="-2.51248">
        <ele>77</ele>
        <time>2024-12-19T08:39:08Z</time>
      </trkpt>
      <trkpt lat="47.94138" lon="-2.51247">
        <ele>77.1</ele>
        <time>2024-12-19T08:39:09Z</time>
      </trkpt>
      <trkpt lat="47.94139" lon="-2.51245">
        <ele>77.2</ele>
        <time>2024-12-19T08:39:10Z</time>
      </trkpt>
      <trkpt lat="47.9414" lon="-2.51245">
        <ele>77.2</ele>
        <time>2024-12-19T08:39:11Z</time>
      </trkpt>
      <trkpt lat="47.94141" lon="-2.51244">
        <ele>77.2</ele>
        <time>2024-12-19T08:39:12Z</time>
      </trkpt>
      <trkpt lat="47.94142" lon="-2.51243">
        <ele>77.3</ele>
        <time>2024-12-19T08:39:13Z</time>
      </trkpt>
      <trkpt lat="47.94142" lon="-2.51242">
        <ele>77.3</ele>
        <time>2024-12-19T08:39:14Z</time>
      </trkpt>
      <trkpt lat="47.94143" lon="-2.51241">
        <ele>77.3</ele>
        <time>2024-12-19T08:39:15Z</time>
      </trkpt>
      <trkpt lat="47.94144" lon="-2.51239">
        <ele>77.4</ele>
        <time>2024-12-19T08:39:16Z</time>
      </trkpt>
      <trkpt lat="47.94145" lon="-2.51238">
        <ele>77.4</ele>
        <time>2024-12-19T08:39:17Z</time>
      </trkpt>
      <trkpt lat="47.94146" lon="-2.51238">
        <ele>77.4</ele>
        <time>2024-12-19T08:39:18Z</time>
      </trkpt>
      <trkpt lat="47.94146" lon="-2.51237">
        <ele>77.5</ele>
        <time>2024-12-19T08:39:19Z</time>
      </trkpt>
      <trkpt lat="47.94147" lon="-2.51235">
        <ele>77.5</ele>
        <time>2024-12-19T08:39:20Z</time>
      </trkpt>
      <trkpt lat="47.94148" lon="-2.51234">
        <ele>77.6</ele>
        <time>2024-12-19T08:39:21Z</time>
      </trkpt>
      <trkpt lat="47.94148" lon="-2.51233">
        <ele>77.6</ele>
        <time>2024-12-19T08:39:22Z</time>
      </trkpt>
      <trkpt lat="47.94149" lon="-2.51232">
        <ele>77.6</ele>
        <time>2024-12-19T08:39:23Z</time>
      </trkpt>
      <trkpt lat="47.9415" lon="-2.51231">
        <ele>77.7</ele>
        <time>2024-12-19T08:39:24Z</time>
      </trkpt>
      <trkpt lat="47.94151" lon="-2.5123">
        <ele>77.7</ele>
        <time>2024-12-19T08:39:25Z</time>
      </trkpt>
      <trkpt lat="47.94152" lon="-2.51229">
        <ele>77.8</ele>
        <time>2024-12-19T08:39:26Z</time>
      </trkpt>
      <trkpt lat="47.94153" lon="-2.51228">
        <ele>77.8</ele>
        <time>2024-12-19T08:39:27Z</time>
      </trkpt>
      <trkpt lat="47.94154" lon="-2.51227">
        <ele>77.8</ele>
        <time>2024-12-19T08:39:28Z</time>
      </trkpt>
      <trkpt lat="47.94156" lon="-2.51226">
        <ele>77.8</ele>
        <time>2024-12-19T08:39:29Z</time>
      </trkpt>
      <trkpt lat="47.94158" lon="-2.51226">
        <ele>77.9</ele>
        <time>2024-12-19T08:39:30Z</time>
      </trkpt>
      <trkpt lat="47.94159" lon="-2.51226">
        <ele>77.9</ele>
        <time>2024-12-19T08:39:31Z</time>
      </trkpt>
      <trkpt lat="47.9416" lon="-2.51226">
        <ele>77.9</ele>
        <time>2024-12-19T08:39:32Z</time>
      </trkpt>
      <trkpt lat="47.94162" lon="-2.51224">
        <ele>77.9</ele>
        <time>2024-12-19T08:39:33Z</time>
      </trkpt>
      <trkpt lat="47.94163" lon="-2.51223">
        <ele>78</ele>
        <time>2024-12-19T08:39:34Z</time>
      </trkpt>
      <trkpt lat="47.94165" lon="-2.51222">
        <ele>78</ele>
        <time>2024-12-19T08:39:35Z</time>
      </trkpt>
      <trkpt lat="47.94166" lon="-2.5122">
        <ele>78.1</ele>
        <time>2024-12-19T08:39:36Z</time>
      </trkpt>
      <trkpt lat="47.94167" lon="-2.51219">
        <ele>78.1</ele>
        <time>2024-12-19T08:39:37Z</time>
      </trkpt>
      <trkpt lat="47.94168" lon="-2.51218">
        <ele>78.2</ele>
        <time>2024-12-19T08:39:38Z</time>
      </trkpt>
      <trkpt lat="47.94169" lon="-2.51217">
        <ele>78.2</ele>
        <time>2024-12-19T08:39:39Z</time>
      </trkpt>
      <trkpt lat="47.9417" lon="-2.51216">
        <ele>78.2</ele>
        <time>2024-12-19T08:39:40Z</time>
      </trkpt>
      <trkpt lat="47.94172" lon="-2.51216">
        <ele>78.2</ele>
        <time>2024-12-19T08:39:41Z</time>
      </trkpt>
      <trkpt lat="47.94173" lon="-2.51215">
        <ele>78.3</ele>
        <time>2024-12-19T08:39:42Z</time>
      </trkpt>
      <trkpt lat="47.94175" lon="-2.51215">
        <ele>78.3</ele>
        <time>2024-12-19T08:39:43Z</time>
      </trkpt>
      <trkpt lat="47.94176" lon="-2.51215">
        <ele>78.3</ele>
        <time>2024-12-19T08:39:44Z</time>
      </trkpt>
      <trkpt lat="47.94176" lon="-2.51215">
        <ele>78.3</ele>
        <time>2024-12-19T08:39:45Z</time>
      </trkpt>
      <trkpt lat="47.94177" lon="-2.51215">
        <ele>78.3</ele>
        <time>2024-12-19T08:39:46Z</time>
      </trkpt>
      <trkpt lat="47.94178" lon="-2.51214">
        <ele>78.3</ele>
        <time>2024-12-19T08:39:47Z</time>
      </trkpt>
      <trkpt lat="47.94179" lon="-2.51214">
        <ele>78.3</ele>
        <time>2024-12-19T08:39:48Z</time>
      </trkpt>
      <trkpt lat="47.9418" lon="-2.51214">
        <ele>78.3</ele>
        <time>2024-12-19T08:39:49Z</time>
      </trkpt>
      <trkpt lat="47.94181" lon="-2.51213">
        <ele>78.3</ele>
        <time>2024-12-19T08:39:50Z</time>
      </trkpt>
      <trkpt lat="47.94182" lon="-2.51213">
        <ele>78.3</ele>
        <time>2024-12-19T08:39:51Z</time>
      </trkpt>
      <trkpt lat="47.94183" lon="-2.51212">
        <ele>78.4</ele>
        <time>2024-12-19T08:39:52Z</time>
      </trkpt>
      <trkpt lat="47.94185" lon="-2.51211">
        <ele>78.4</ele>
        <time>2024-12-19T08:39:53Z</time>
      </trkpt>
      <trkpt lat="47.94185" lon="-2.51211">
        <ele>78.4</ele>
        <time>2024-12-19T08:39:54Z</time>
      </trkpt>
      <trkpt lat="47.94186" lon="-2.5121">
        <ele>78.5</ele>
        <time>2024-12-19T08:39:55Z</time>
      </trkpt>
      <trkpt lat="47.94187" lon="-2.51208">
        <ele>78.5</ele>
        <time>2024-12-19T08:39:56Z</time>
      </trkpt>
      <trkpt lat="47.94188" lon="-2.51206">
        <ele>78.6</ele>
        <time>2024-12-19T08:39:57Z</time>
      </trkpt>
      <trkpt lat="47.94188" lon="-2.51204">
        <ele>78.7</ele>
        <time>2024-12-19T08:39:58Z</time>
      </trkpt>
      <trkpt lat="47.94188" lon="-2.51202">
        <ele>78.7</ele>
        <time>2024-12-19T08:39:59Z</time>
      </trkpt>
      <trkpt lat="47.94188" lon="-2.512">
        <ele>78.8</ele>
        <time>2024-12-19T08:40:00Z</time>
      </trkpt>
      <trkpt lat="47.94187" lon="-2.51198">
        <ele>78.9</ele>
        <time>2024-12-19T08:40:01Z</time>
      </trkpt>
      <trkpt lat="47.94186" lon="-2.51196">
        <ele>79</ele>
        <time>2024-12-19T08:40:02Z</time>
      </trkpt>
      <trkpt lat="47.94185" lon="-2.51194">
        <ele>79</ele>
        <time>2024-12-19T08:40:03Z</time>
      </trkpt>
      <trkpt lat="47.94185" lon="-2.51193">
        <ele>79</ele>
        <time>2024-12-19T08:40:04Z</time>
      </trkpt>
      <trkpt lat="47.94185" lon="-2.51191">
        <ele>79.1</ele>
        <time>2024-12-19T08:40:05Z</time>
      </trkpt>
      <trkpt lat="47.94184" lon="-2.51189">
        <ele>79.1</ele>
        <time>2024-12-19T08:40:06Z</time>
      </trkpt>
      <trkpt lat="47.94183" lon="-2.51188">
        <ele>79.1</ele>
        <time>2024-12-19T08:40:07Z</time>
      </trkpt>
      <trkpt lat="47.94182" lon="-2.51185">
        <ele>79.2</ele>
        <time>2024-12-19T08:40:08Z</time>
      </trkpt>
      <trkpt lat="47.94182" lon="-2.51183">
        <ele>79.2</ele>
        <time>2024-12-19T08:40:09Z</time>
      </trkpt>
      <trkpt lat="47.94181" lon="-2.51182">
        <ele>79.2</ele>
        <time>2024-12-19T08:40:10Z</time>
      </trkpt>
      <trkpt lat="47.9418" lon="-2.51181">
        <ele>79.2</ele>
        <time>2024-12-19T08:40:11Z</time>
      </trkpt>
      <trkpt lat="47.9418" lon="-2.51179">
        <ele>79.3</ele>
        <time>2024-12-19T08:40:12Z</time>
      </trkpt>
      <trkpt lat="47.94179" lon="-2.51178">
        <ele>79.3</ele>
        <time>2024-12-19T08:40:13Z</time>
      </trkpt>
      <trkpt lat="47.94178" lon="-2.51176">
        <ele>79.3</ele>
        <time>2024-12-19T08:40:14Z</time>
      </trkpt>
      <trkpt lat="47.94177" lon="-2.51175">
        <ele>79.3</ele>
        <time>2024-12-19T08:40:15Z</time>
      </trkpt>
      <trkpt lat="47.94177" lon="-2.51173">
        <ele>79.3</ele>
        <time>2024-12-19T08:40:16Z</time>
      </trkpt>
      <trkpt lat="47.94176" lon="-2.51171">
        <ele>79.3</ele>
        <time>2024-12-19T08:40:17Z</time>
      </trkpt>
      <trkpt lat="47.94175" lon="-2.5117">
        <ele>79.3</ele>
        <time>2024-12-19T08:40:18Z</time>
      </trkpt>
      <trkpt lat="47.94174" lon="-2.51168">
        <ele>79.3</ele>
        <time>2024-12-19T08:40:19Z</time>
      </trkpt>
      <trkpt lat="47.94174" lon="-2.51166">
        <ele>79.3</ele>
        <time>2024-12-19T08:40:20Z</time>
      </trkpt>
      <trkpt lat="47.94173" lon="-2.51164">
        <ele>79.3</ele>
        <time>2024-12-19T08:40:21Z</time>
      </trkpt>
      <trkpt lat="47.94172" lon="-2.51163">
        <ele>79.3</ele>
        <time>2024-12-19T08:40:22Z</time>
      </trkpt>
      <trkpt lat="47.94171" lon="-2.51162">
        <ele>79.3</ele>
        <time>2024-12-19T08:40:23Z</time>
      </trkpt>
      <trkpt lat="47.94171" lon="-2.51161">
        <ele>79.3</ele>
        <time>2024-12-19T08:40:24Z</time>
      </trkpt>
      <trkpt lat="47.9417" lon="-2.51159">
        <ele>79.3</ele>
        <time>2024-12-19T08:40:25Z</time>
      </trkpt>
      <trkpt lat="47.94169" lon="-2.51158">
        <ele>79.4</ele>
        <time>2024-12-19T08:40:26Z</time>
      </trkpt>
      <trkpt lat="47.94168" lon="-2.51157">
        <ele>79.4</ele>
        <time>2024-12-19T08:40:27Z</time>
      </trkpt>
      <trkpt lat="47.94168" lon="-2.51156">
        <ele>79.4</ele>
        <time>2024-12-19T08:40:28Z</time>
      </trkpt>
      <trkpt lat="47.94167" lon="-2.51155">
        <ele>79.4</ele>
        <time>2024-12-19T08:40:29Z</time>
      </trkpt>
      <trkpt lat="47.94166" lon="-2.51154">
        <ele>79.5</ele>
        <time>2024-12-19T08:40:30Z</time>
      </trkpt>
      <trkpt lat="47.94166" lon="-2.51153">
        <ele>79.5</ele>
        <time>2024-12-19T08:40:31Z</time>
      </trkpt>
      <trkpt lat="47.94165" lon="-2.51152">
        <ele>79.5</ele>
        <time>2024-12-19T08:40:32Z</time>
      </trkpt>
      <trkpt lat="47.94164" lon="-2.51151">
        <ele>79.5</ele>
        <time>2024-12-19T08:40:33Z</time>
      </trkpt>
      <trkpt lat="47.94164" lon="-2.51149">
        <ele>79.6</ele>
        <time>2024-12-19T08:40:34Z</time>
      </trkpt>
      <trkpt lat="47.94163" lon="-2.51147">
        <ele>79.6</ele>
        <time>2024-12-19T08:40:35Z</time>
      </trkpt>
      <trkpt lat="47.94163" lon="-2.51146">
        <ele>79.7</ele>
        <time>2024-12-19T08:40:36Z</time>
      </trkpt>
      <trkpt lat="47.94162" lon="-2.51144">
        <ele>79.7</ele>
        <time>2024-12-19T08:40:37Z</time>
      </trkpt>
      <trkpt lat="47.94162" lon="-2.51142">
        <ele>79.7</ele>
        <time>2024-12-19T08:40:38Z</time>
      </trkpt>
      <trkpt lat="47.94162" lon="-2.51141">
        <ele>79.8</ele>
        <time>2024-12-19T08:40:39Z</time>
      </trkpt>
      <trkpt lat="47.94161" lon="-2.5114">
        <ele>79.8</ele>
        <time>2024-12-19T08:40:40Z</time>
      </trkpt>
      <trkpt lat="47.94161" lon="-2.51139">
        <ele>79.8</ele>
        <time>2024-12-19T08:40:41Z</time>
      </trkpt>
      <trkpt lat="47.9416" lon="-2.51138">
        <ele>79.8</ele>
        <time>2024-12-19T08:40:42Z</time>
      </trkpt>
      <trkpt lat="47.94159" lon="-2.51137">
        <ele>79.8</ele>
        <time>2024-12-19T08:40:43Z</time>
      </trkpt>
      <trkpt lat="47.94158" lon="-2.51135">
        <ele>79.8</ele>
        <time>2024-12-19T08:40:44Z</time>
      </trkpt>
      <trkpt lat="47.94158" lon="-2.51134">
        <ele>79.9</ele>
        <time>2024-12-19T08:40:45Z</time>
      </trkpt>
      <trkpt lat="47.94158" lon="-2.51132">
        <ele>79.9</ele>
        <time>2024-12-19T08:40:46Z</time>
      </trkpt>
      <trkpt lat="47.94157" lon="-2.51131">
        <ele>80</ele>
        <time>2024-12-19T08:40:47Z</time>
      </trkpt>
      <trkpt lat="47.94157" lon="-2.51129">
        <ele>80</ele>
        <time>2024-12-19T08:40:48Z</time>
      </trkpt>
      <trkpt lat="47.94157" lon="-2.51127">
        <ele>80.1</ele>
        <time>2024-12-19T08:40:49Z</time>
      </trkpt>
      <trkpt lat="47.94157" lon="-2.51126">
        <ele>80.1</ele>
        <time>2024-12-19T08:40:50Z</time>
      </trkpt>
      <trkpt lat="47.94156" lon="-2.51124">
        <ele>80.2</ele>
        <time>2024-12-19T08:40:51Z</time>
      </trkpt>
      <trkpt lat="47.94156" lon="-2.51122">
        <ele>80.2</ele>
        <time>2024-12-19T08:40:52Z</time>
      </trkpt>
      <trkpt lat="47.94155" lon="-2.51121">
        <ele>80.2</ele>
        <time>2024-12-19T08:40:53Z</time>
      </trkpt>
      <trkpt lat="47.94155" lon="-2.5112">
        <ele>80.2</ele>
        <time>2024-12-19T08:40:54Z</time>
      </trkpt>
      <trkpt lat="47.94154" lon="-2.51119">
        <ele>80.3</ele>
        <time>2024-12-19T08:40:55Z</time>
      </trkpt>
      <trkpt lat="47.94153" lon="-2.51117">
        <ele>80.3</ele>
        <time>2024-12-19T08:40:56Z</time>
      </trkpt>
      <trkpt lat="47.94152" lon="-2.51116">
        <ele>80.3</ele>
        <time>2024-12-19T08:40:57Z</time>
      </trkpt>
      <trkpt lat="47.94151" lon="-2.51115">
        <ele>80.3</ele>
        <time>2024-12-19T08:40:58Z</time>
      </trkpt>
      <trkpt lat="47.94151" lon="-2.51113">
        <ele>80.3</ele>
        <time>2024-12-19T08:40:59Z</time>
      </trkpt>
      <trkpt lat="47.9415" lon="-2.51112">
        <ele>80.4</ele>
        <time>2024-12-19T08:41:00Z</time>
      </trkpt>
      <trkpt lat="47.9415" lon="-2.5111">
        <ele>80.4</ele>
        <time>2024-12-19T08:41:01Z</time>
      </trkpt>
      <trkpt lat="47.94149" lon="-2.51109">
        <ele>80.4</ele>
        <time>2024-12-19T08:41:02Z</time>
      </trkpt>
      <trkpt lat="47.94149" lon="-2.51108">
        <ele>80.4</ele>
        <time>2024-12-19T08:41:03Z</time>
      </trkpt>
      <trkpt lat="47.94149" lon="-2.51106">
        <ele>80.5</ele>
        <time>2024-12-19T08:41:04Z</time>
      </trkpt>
      <trkpt lat="47.94149" lon="-2.51104">
        <ele>80.5</ele>
        <time>2024-12-19T08:41:05Z</time>
      </trkpt>
      <trkpt lat="47.94149" lon="-2.51102">
        <ele>80.6</ele>
        <time>2024-12-19T08:41:06Z</time>
      </trkpt>
      <trkpt lat="47.94149" lon="-2.511">
        <ele>80.6</ele>
        <time>2024-12-19T08:41:07Z</time>
      </trkpt>
      <trkpt lat="47.94148" lon="-2.51099">
        <ele>80.6</ele>
        <time>2024-12-19T08:41:08Z</time>
      </trkpt>
      <trkpt lat="47.94148" lon="-2.51099">
        <ele>80.6</ele>
        <time>2024-12-19T08:41:09Z</time>
      </trkpt>
      <trkpt lat="47.94148" lon="-2.51099">
        <ele>80.6</ele>
        <time>2024-12-19T08:41:10Z</time>
      </trkpt>
      <trkpt lat="47.94147" lon="-2.51098">
        <ele>80.6</ele>
        <time>2024-12-19T08:41:11Z</time>
      </trkpt>
      <trkpt lat="47.94146" lon="-2.51096">
        <ele>80.7</ele>
        <time>2024-12-19T08:41:12Z</time>
      </trkpt>
      <trkpt lat="47.94145" lon="-2.51094">
        <ele>80.7</ele>
        <time>2024-12-19T08:41:13Z</time>
      </trkpt>
      <trkpt lat="47.94144" lon="-2.51092">
        <ele>80.7</ele>
        <time>2024-12-19T08:41:14Z</time>
      </trkpt>
      <trkpt lat="47.94143" lon="-2.51091">
        <ele>80.8</ele>
        <time>2024-12-19T08:41:15Z</time>
      </trkpt>
      <trkpt lat="47.94143" lon="-2.51089">
        <ele>80.8</ele>
        <time>2024-12-19T08:41:16Z</time>
      </trkpt>
      <trkpt lat="47.94143" lon="-2.51088">
        <ele>80.9</ele>
        <time>2024-12-19T08:41:17Z</time>
      </trkpt>
      <trkpt lat="47.94143" lon="-2.51087">
        <ele>80.9</ele>
        <time>2024-12-19T08:41:18Z</time>
      </trkpt>
      <trkpt lat="47.94143" lon="-2.51085">
        <ele>80.9</ele>
        <time>2024-12-19T08:41:19Z</time>
      </trkpt>
      <trkpt lat="47.94143" lon="-2.51083">
        <ele>81</ele>
        <time>2024-12-19T08:41:20Z</time>
      </trkpt>
      <trkpt lat="47.94142" lon="-2.51081">
        <ele>81</ele>
        <time>2024-12-19T08:41:21Z</time>
      </trkpt>
      <trkpt lat="47.94142" lon="-2.51079">
        <ele>81</ele>
        <time>2024-12-19T08:41:22Z</time>
      </trkpt>
      <trkpt lat="47.94141" lon="-2.51077">
        <ele>81</ele>
        <time>2024-12-19T08:41:23Z</time>
      </trkpt>
      <trkpt lat="47.9414" lon="-2.51075">
        <ele>81</ele>
        <time>2024-12-19T08:41:24Z</time>
      </trkpt>
      <trkpt lat="47.9414" lon="-2.51074">
        <ele>81</ele>
        <time>2024-12-19T08:41:25Z</time>
      </trkpt>
      <trkpt lat="47.94139" lon="-2.51073">
        <ele>81</ele>
        <time>2024-12-19T08:41:26Z</time>
      </trkpt>
      <trkpt lat="47.94139" lon="-2.51072">
        <ele>81</ele>
        <time>2024-12-19T08:41:27Z</time>
      </trkpt>
      <trkpt lat="47.94138" lon="-2.51071">
        <ele>81</ele>
        <time>2024-12-19T08:41:28Z</time>
      </trkpt>
      <trkpt lat="47.94137" lon="-2.5107">
        <ele>81</ele>
        <time>2024-12-19T08:41:29Z</time>
      </trkpt>
      <trkpt lat="47.94136" lon="-2.51069">
        <ele>80.9</ele>
        <time>2024-12-19T08:41:30Z</time>
      </trkpt>
      <trkpt lat="47.94135" lon="-2.51068">
        <ele>80.9</ele>
        <time>2024-12-19T08:41:31Z</time>
      </trkpt>
      <trkpt lat="47.94134" lon="-2.51068">
        <ele>80.9</ele>
        <time>2024-12-19T08:41:32Z</time>
      </trkpt>
      <trkpt lat="47.94132" lon="-2.51066">
        <ele>80.9</ele>
        <time>2024-12-19T08:41:33Z</time>
      </trkpt>
      <trkpt lat="47.94131" lon="-2.51065">
        <ele>80.9</ele>
        <time>2024-12-19T08:41:34Z</time>
      </trkpt>
      <trkpt lat="47.9413" lon="-2.51065">
        <ele>80.9</ele>
        <time>2024-12-19T08:41:35Z</time>
      </trkpt>
      <trkpt lat="47.94129" lon="-2.51063">
        <ele>80.9</ele>
        <time>2024-12-19T08:41:36Z</time>
      </trkpt>
      <trkpt lat="47.94129" lon="-2.51062">
        <ele>80.9</ele>
        <time>2024-12-19T08:41:37Z</time>
      </trkpt>
      <trkpt lat="47.94128" lon="-2.5106">
        <ele>80.9</ele>
        <time>2024-12-19T08:41:38Z</time>
      </trkpt>
      <trkpt lat="47.94128" lon="-2.51058">
        <ele>81</ele>
        <time>2024-12-19T08:41:39Z</time>
      </trkpt>
      <trkpt lat="47.94128" lon="-2.51057">
        <ele>81</ele>
        <time>2024-12-19T08:41:40Z</time>
      </trkpt>
      <trkpt lat="47.94127" lon="-2.51056">
        <ele>81</ele>
        <time>2024-12-19T08:41:41Z</time>
      </trkpt>
      <trkpt lat="47.94126" lon="-2.51054">
        <ele>81</ele>
        <time>2024-12-19T08:41:42Z</time>
      </trkpt>
      <trkpt lat="47.94125" lon="-2.51053">
        <ele>81</ele>
        <time>2024-12-19T08:41:43Z</time>
      </trkpt>
      <trkpt lat="47.94125" lon="-2.51052">
        <ele>81.1</ele>
        <time>2024-12-19T08:41:44Z</time>
      </trkpt>
      <trkpt lat="47.94124" lon="-2.51051">
        <ele>81.1</ele>
        <time>2024-12-19T08:41:45Z</time>
      </trkpt>
      <trkpt lat="47.94124" lon="-2.51049">
        <ele>81.1</ele>
        <time>2024-12-19T08:41:46Z</time>
      </trkpt>
      <trkpt lat="47.94123" lon="-2.51047">
        <ele>81.1</ele>
        <time>2024-12-19T08:41:47Z</time>
      </trkpt>
      <trkpt lat="47.94122" lon="-2.51045">
        <ele>81.2</ele>
        <time>2024-12-19T08:41:48Z</time>
      </trkpt>
      <trkpt lat="47.94122" lon="-2.51043">
        <ele>81.2</ele>
        <time>2024-12-19T08:41:49Z</time>
      </trkpt>
      <trkpt lat="47.94121" lon="-2.51041">
        <ele>81.2</ele>
        <time>2024-12-19T08:41:50Z</time>
      </trkpt>
      <trkpt lat="47.94121" lon="-2.5104">
        <ele>81.2</ele>
        <time>2024-12-19T08:41:51Z</time>
      </trkpt>
      <trkpt lat="47.9412" lon="-2.51038">
        <ele>81.2</ele>
        <time>2024-12-19T08:41:52Z</time>
      </trkpt>
      <trkpt lat="47.94119" lon="-2.51036">
        <ele>81.2</ele>
        <time>2024-12-19T08:41:53Z</time>
      </trkpt>
      <trkpt lat="47.94118" lon="-2.51035">
        <ele>81.2</ele>
        <time>2024-12-19T08:41:54Z</time>
      </trkpt>
      <trkpt lat="47.94117" lon="-2.51033">
        <ele>81.2</ele>
        <time>2024-12-19T08:41:55Z</time>
      </trkpt>
      <trkpt lat="47.94117" lon="-2.51031">
        <ele>81.2</ele>
        <time>2024-12-19T08:41:56Z</time>
      </trkpt>
      <trkpt lat="47.94116" lon="-2.51029">
        <ele>81.2</ele>
        <time>2024-12-19T08:41:57Z</time>
      </trkpt>
      <trkpt lat="47.94115" lon="-2.51028">
        <ele>81.2</ele>
        <time>2024-12-19T08:41:58Z</time>
      </trkpt>
      <trkpt lat="47.94115" lon="-2.51026">
        <ele>81.2</ele>
        <time>2024-12-19T08:41:59Z</time>
      </trkpt>
      <trkpt lat="47.94114" lon="-2.51023">
        <ele>81.2</ele>
        <time>2024-12-19T08:42:00Z</time>
      </trkpt>
      <trkpt lat="47.94113" lon="-2.51022">
        <ele>81.3</ele>
        <time>2024-12-19T08:42:01Z</time>
      </trkpt>
      <trkpt lat="47.94113" lon="-2.51021">
        <ele>81.3</ele>
        <time>2024-12-19T08:42:02Z</time>
      </trkpt>
      <trkpt lat="47.94112" lon="-2.5102">
        <ele>81.3</ele>
        <time>2024-12-19T08:42:03Z</time>
      </trkpt>
      <trkpt lat="47.94112" lon="-2.51018">
        <ele>81.3</ele>
        <time>2024-12-19T08:42:04Z</time>
      </trkpt>
      <trkpt lat="47.94111" lon="-2.51017">
        <ele>81.4</ele>
        <time>2024-12-19T08:42:05Z</time>
      </trkpt>
      <trkpt lat="47.9411" lon="-2.51015">
        <ele>81.4</ele>
        <time>2024-12-19T08:42:06Z</time>
      </trkpt>
      <trkpt lat="47.94109" lon="-2.51013">
        <ele>81.5</ele>
        <time>2024-12-19T08:42:07Z</time>
      </trkpt>
      <trkpt lat="47.94109" lon="-2.51011">
        <ele>81.5</ele>
        <time>2024-12-19T08:42:08Z</time>
      </trkpt>
      <trkpt lat="47.94108" lon="-2.5101">
        <ele>81.6</ele>
        <time>2024-12-19T08:42:09Z</time>
      </trkpt>
      <trkpt lat="47.94108" lon="-2.51008">
        <ele>81.6</ele>
        <time>2024-12-19T08:42:10Z</time>
      </trkpt>
      <trkpt lat="47.94108" lon="-2.51006">
        <ele>81.7</ele>
        <time>2024-12-19T08:42:11Z</time>
      </trkpt>
      <trkpt lat="47.94108" lon="-2.51004">
        <ele>81.7</ele>
        <time>2024-12-19T08:42:12Z</time>
      </trkpt>
      <trkpt lat="47.94108" lon="-2.51002">
        <ele>81.8</ele>
        <time>2024-12-19T08:42:13Z</time>
      </trkpt>
      <trkpt lat="47.94108" lon="-2.51001">
        <ele>81.9</ele>
        <time>2024-12-19T08:42:14Z</time>
      </trkpt>
      <trkpt lat="47.94108" lon="-2.50999">
        <ele>81.9</ele>
        <time>2024-12-19T08:42:15Z</time>
      </trkpt>
      <trkpt lat="47.94108" lon="-2.50997">
        <ele>81.9</ele>
        <time>2024-12-19T08:42:16Z</time>
      </trkpt>
      <trkpt lat="47.94107" lon="-2.50995">
        <ele>81.9</ele>
        <time>2024-12-19T08:42:17Z</time>
      </trkpt>
      <trkpt lat="47.94106" lon="-2.50993">
        <ele>81.9</ele>
        <time>2024-12-19T08:42:18Z</time>
      </trkpt>
      <trkpt lat="47.94105" lon="-2.50992">
        <ele>81.8</ele>
        <time>2024-12-19T08:42:19Z</time>
      </trkpt>
      <trkpt lat="47.94104" lon="-2.5099">
        <ele>81.8</ele>
        <time>2024-12-19T08:42:20Z</time>
      </trkpt>
      <trkpt lat="47.94102" lon="-2.50988">
        <ele>81.8</ele>
        <time>2024-12-19T08:42:21Z</time>
      </trkpt>
      <trkpt lat="47.94101" lon="-2.50985">
        <ele>81.8</ele>
        <time>2024-12-19T08:42:22Z</time>
      </trkpt>
      <trkpt lat="47.941" lon="-2.50983">
        <ele>81.8</ele>
        <time>2024-12-19T08:42:23Z</time>
      </trkpt>
      <trkpt lat="47.941" lon="-2.50982">
        <ele>81.9</ele>
        <time>2024-12-19T08:42:24Z</time>
      </trkpt>
      <trkpt lat="47.94099" lon="-2.5098">
        <ele>81.9</ele>
        <time>2024-12-19T08:42:25Z</time>
      </trkpt>
      <trkpt lat="47.94098" lon="-2.50978">
        <ele>81.9</ele>
        <time>2024-12-19T08:42:26Z</time>
      </trkpt>
      <trkpt lat="47.94097" lon="-2.50975">
        <ele>81.9</ele>
        <time>2024-12-19T08:42:27Z</time>
      </trkpt>
      <trkpt lat="47.94096" lon="-2.50973">
        <ele>82</ele>
        <time>2024-12-19T08:42:28Z</time>
      </trkpt>
      <trkpt lat="47.94095" lon="-2.50972">
        <ele>82</ele>
        <time>2024-12-19T08:42:29Z</time>
      </trkpt>
      <trkpt lat="47.94094" lon="-2.50971">
        <ele>82.1</ele>
        <time>2024-12-19T08:42:30Z</time>
      </trkpt>
      <trkpt lat="47.94093" lon="-2.50969">
        <ele>82.1</ele>
        <time>2024-12-19T08:42:31Z</time>
      </trkpt>
      <trkpt lat="47.94092" lon="-2.50967">
        <ele>82.2</ele>
        <time>2024-12-19T08:42:32Z</time>
      </trkpt>
      <trkpt lat="47.94092" lon="-2.50965">
        <ele>82.3</ele>
        <time>2024-12-19T08:42:33Z</time>
      </trkpt>
      <trkpt lat="47.94091" lon="-2.50962">
        <ele>82.4</ele>
        <time>2024-12-19T08:42:34Z</time>
      </trkpt>
      <trkpt lat="47.94091" lon="-2.5096">
        <ele>82.4</ele>
        <time>2024-12-19T08:42:35Z</time>
      </trkpt>
      <trkpt lat="47.9409" lon="-2.50958">
        <ele>82.5</ele>
        <time>2024-12-19T08:42:36Z</time>
      </trkpt>
      <trkpt lat="47.94089" lon="-2.50956">
        <ele>82.6</ele>
        <time>2024-12-19T08:42:37Z</time>
      </trkpt>
      <trkpt lat="47.94089" lon="-2.50955">
        <ele>82.6</ele>
        <time>2024-12-19T08:42:38Z</time>
      </trkpt>
      <trkpt lat="47.94089" lon="-2.50954">
        <ele>82.7</ele>
        <time>2024-12-19T08:42:39Z</time>
      </trkpt>
      <trkpt lat="47.94088" lon="-2.50953">
        <ele>82.7</ele>
        <time>2024-12-19T08:42:40Z</time>
      </trkpt>
      <trkpt lat="47.94087" lon="-2.50951">
        <ele>82.8</ele>
        <time>2024-12-19T08:42:41Z</time>
      </trkpt>
      <trkpt lat="47.94087" lon="-2.50949">
        <ele>82.8</ele>
        <time>2024-12-19T08:42:42Z</time>
      </trkpt>
      <trkpt lat="47.94087" lon="-2.50946">
        <ele>82.9</ele>
        <time>2024-12-19T08:42:43Z</time>
      </trkpt>
      <trkpt lat="47.94087" lon="-2.50944">
        <ele>83</ele>
        <time>2024-12-19T08:42:44Z</time>
      </trkpt>
      <trkpt lat="47.94086" lon="-2.50943">
        <ele>83</ele>
        <time>2024-12-19T08:42:45Z</time>
      </trkpt>
      <trkpt lat="47.94086" lon="-2.50942">
        <ele>83</ele>
        <time>2024-12-19T08:42:46Z</time>
      </trkpt>
      <trkpt lat="47.94086" lon="-2.50942">
        <ele>83</ele>
        <time>2024-12-19T08:42:47Z</time>
      </trkpt>
      <trkpt lat="47.94086" lon="-2.50941">
        <ele>83</ele>
        <time>2024-12-19T08:42:48Z</time>
      </trkpt>
      <trkpt lat="47.94086" lon="-2.50941">
        <ele>83</ele>
        <time>2024-12-19T08:42:49Z</time>
      </trkpt>
      <trkpt lat="47.94086" lon="-2.5094">
        <ele>83</ele>
        <time>2024-12-19T08:42:50Z</time>
      </trkpt>
      <trkpt lat="47.94086" lon="-2.50937">
        <ele>83</ele>
        <time>2024-12-19T08:42:51Z</time>
      </trkpt>
      <trkpt lat="47.94086" lon="-2.50934">
        <ele>83</ele>
        <time>2024-12-19T08:42:52Z</time>
      </trkpt>
      <trkpt lat="47.94086" lon="-2.50932">
        <ele>83</ele>
        <time>2024-12-19T08:42:53Z</time>
      </trkpt>
      <trkpt lat="47.94085" lon="-2.50931">
        <ele>83</ele>
        <time>2024-12-19T08:42:54Z</time>
      </trkpt>
      <trkpt lat="47.94085" lon="-2.50928">
        <ele>83</ele>
        <time>2024-12-19T08:42:55Z</time>
      </trkpt>
      <trkpt lat="47.94085" lon="-2.50926">
        <ele>83</ele>
        <time>2024-12-19T08:42:56Z</time>
      </trkpt>
      <trkpt lat="47.94086" lon="-2.50925">
        <ele>83.1</ele>
        <time>2024-12-19T08:42:57Z</time>
      </trkpt>
      <trkpt lat="47.94086" lon="-2.50923">
        <ele>83.1</ele>
        <time>2024-12-19T08:42:58Z</time>
      </trkpt>
      <trkpt lat="47.94086" lon="-2.5092">
        <ele>83.1</ele>
        <time>2024-12-19T08:42:59Z</time>
      </trkpt>
      <trkpt lat="47.94086" lon="-2.50919">
        <ele>83.1</ele>
        <time>2024-12-19T08:43:00Z</time>
      </trkpt>
      <trkpt lat="47.94086" lon="-2.50917">
        <ele>83.1</ele>
        <time>2024-12-19T08:43:01Z</time>
      </trkpt>
      <trkpt lat="47.94085" lon="-2.50917">
        <ele>83.1</ele>
        <time>2024-12-19T08:43:02Z</time>
      </trkpt>
      <trkpt lat="47.94085" lon="-2.50916">
        <ele>83.1</ele>
        <time>2024-12-19T08:43:03Z</time>
      </trkpt>
      <trkpt lat="47.94084" lon="-2.50915">
        <ele>83.1</ele>
        <time>2024-12-19T08:43:04Z</time>
      </trkpt>
      <trkpt lat="47.94084" lon="-2.50914">
        <ele>83.1</ele>
        <time>2024-12-19T08:43:05Z</time>
      </trkpt>
      <trkpt lat="47.94084" lon="-2.50912">
        <ele>83.2</ele>
        <time>2024-12-19T08:43:06Z</time>
      </trkpt>
      <trkpt lat="47.94083" lon="-2.50909">
        <ele>83.3</ele>
        <time>2024-12-19T08:43:07Z</time>
      </trkpt>
      <trkpt lat="47.94083" lon="-2.50907">
        <ele>83.3</ele>
        <time>2024-12-19T08:43:08Z</time>
      </trkpt>
      <trkpt lat="47.94082" lon="-2.50905">
        <ele>83.4</ele>
        <time>2024-12-19T08:43:09Z</time>
      </trkpt>
      <trkpt lat="47.94082" lon="-2.50903">
        <ele>83.5</ele>
        <time>2024-12-19T08:43:10Z</time>
      </trkpt>
      <trkpt lat="47.94081" lon="-2.50901">
        <ele>83.5</ele>
        <time>2024-12-19T08:43:11Z</time>
      </trkpt>
      <trkpt lat="47.94081" lon="-2.50899">
        <ele>83.6</ele>
        <time>2024-12-19T08:43:12Z</time>
      </trkpt>
      <trkpt lat="47.9408" lon="-2.50897">
        <ele>83.6</ele>
        <time>2024-12-19T08:43:13Z</time>
      </trkpt>
      <trkpt lat="47.9408" lon="-2.50895">
        <ele>83.7</ele>
        <time>2024-12-19T08:43:14Z</time>
      </trkpt>
      <trkpt lat="47.9408" lon="-2.50893">
        <ele>83.7</ele>
        <time>2024-12-19T08:43:15Z</time>
      </trkpt>
      <trkpt lat="47.9408" lon="-2.5089">
        <ele>83.8</ele>
        <time>2024-12-19T08:43:16Z</time>
      </trkpt>
      <trkpt lat="47.94079" lon="-2.50888">
        <ele>83.9</ele>
        <time>2024-12-19T08:43:17Z</time>
      </trkpt>
      <trkpt lat="47.9408" lon="-2.50886">
        <ele>83.9</ele>
        <time>2024-12-19T08:43:18Z</time>
      </trkpt>
      <trkpt lat="47.9408" lon="-2.50884">
        <ele>83.9</ele>
        <time>2024-12-19T08:43:19Z</time>
      </trkpt>
      <trkpt lat="47.94081" lon="-2.50882">
        <ele>83.9</ele>
        <time>2024-12-19T08:43:20Z</time>
      </trkpt>
      <trkpt lat="47.94082" lon="-2.5088">
        <ele>84</ele>
        <time>2024-12-19T08:43:21Z</time>
      </trkpt>
      <trkpt lat="47.94083" lon="-2.50878">
        <ele>84</ele>
        <time>2024-12-19T08:43:22Z</time>
      </trkpt>
      <trkpt lat="47.94083" lon="-2.50876">
        <ele>84</ele>
        <time>2024-12-19T08:43:23Z</time>
      </trkpt>
      <trkpt lat="47.94083" lon="-2.50873">
        <ele>84</ele>
        <time>2024-12-19T08:43:24Z</time>
      </trkpt>
      <trkpt lat="47.94082" lon="-2.50871">
        <ele>84</ele>
        <time>2024-12-19T08:43:25Z</time>
      </trkpt>
      <trkpt lat="47.94082" lon="-2.50869">
        <ele>84</ele>
        <time>2024-12-19T08:43:26Z</time>
      </trkpt>
      <trkpt lat="47.94081" lon="-2.50867">
        <ele>84</ele>
        <time>2024-12-19T08:43:27Z</time>
      </trkpt>
      <trkpt lat="47.94081" lon="-2.50865">
        <ele>84</ele>
        <time>2024-12-19T08:43:28Z</time>
      </trkpt>
      <trkpt lat="47.94081" lon="-2.50864">
        <ele>84</ele>
        <time>2024-12-19T08:43:29Z</time>
      </trkpt>
      <trkpt lat="47.94081" lon="-2.50862">
        <ele>84</ele>
        <time>2024-12-19T08:43:30Z</time>
      </trkpt>
      <trkpt lat="47.94081" lon="-2.5086">
        <ele>84</ele>
        <time>2024-12-19T08:43:31Z</time>
      </trkpt>
      <trkpt lat="47.94081" lon="-2.50859">
        <ele>84.1</ele>
        <time>2024-12-19T08:43:32Z</time>
      </trkpt>
      <trkpt lat="47.9408" lon="-2.50857">
        <ele>84.2</ele>
        <time>2024-12-19T08:43:33Z</time>
      </trkpt>
      <trkpt lat="47.94079" lon="-2.50855">
        <ele>84.2</ele>
        <time>2024-12-19T08:43:34Z</time>
      </trkpt>
      <trkpt lat="47.94079" lon="-2.50853">
        <ele>84.3</ele>
        <time>2024-12-19T08:43:35Z</time>
      </trkpt>
      <trkpt lat="47.94078" lon="-2.5085">
        <ele>84.4</ele>
        <time>2024-12-19T08:43:36Z</time>
      </trkpt>
      <trkpt lat="47.94077" lon="-2.50847">
        <ele>84.5</ele>
        <time>2024-12-19T08:43:37Z</time>
      </trkpt>
      <trkpt lat="47.94077" lon="-2.50845">
        <ele>84.6</ele>
        <time>2024-12-19T08:43:38Z</time>
      </trkpt>
      <trkpt lat="47.94076" lon="-2.50844">
        <ele>84.6</ele>
        <time>2024-12-19T08:43:39Z</time>
      </trkpt>
      <trkpt lat="47.94076" lon="-2.50843">
        <ele>84.7</ele>
        <time>2024-12-19T08:43:40Z</time>
      </trkpt>
      <trkpt lat="47.94075" lon="-2.50841">
        <ele>84.7</ele>
        <time>2024-12-19T08:43:41Z</time>
      </trkpt>
      <trkpt lat="47.94075" lon="-2.5084">
        <ele>84.8</ele>
        <time>2024-12-19T08:43:42Z</time>
      </trkpt>
      <trkpt lat="47.94074" lon="-2.50839">
        <ele>84.8</ele>
        <time>2024-12-19T08:43:43Z</time>
      </trkpt>
      <trkpt lat="47.94073" lon="-2.50838">
        <ele>84.8</ele>
        <time>2024-12-19T08:43:44Z</time>
      </trkpt>
      <trkpt lat="47.94073" lon="-2.50837">
        <ele>84.9</ele>
        <time>2024-12-19T08:43:45Z</time>
      </trkpt>
      <trkpt lat="47.94072" lon="-2.50835">
        <ele>85</ele>
        <time>2024-12-19T08:43:46Z</time>
      </trkpt>
      <trkpt lat="47.94072" lon="-2.50833">
        <ele>85</ele>
        <time>2024-12-19T08:43:47Z</time>
      </trkpt>
      <trkpt lat="47.94072" lon="-2.50831">
        <ele>85</ele>
        <time>2024-12-19T08:43:48Z</time>
      </trkpt>
      <trkpt lat="47.94071" lon="-2.5083">
        <ele>85</ele>
        <time>2024-12-19T08:43:49Z</time>
      </trkpt>
      <trkpt lat="47.94071" lon="-2.50829">
        <ele>85</ele>
        <time>2024-12-19T08:43:50Z</time>
      </trkpt>
      <trkpt lat="47.94071" lon="-2.50827">
        <ele>85</ele>
        <time>2024-12-19T08:43:51Z</time>
      </trkpt>
      <trkpt lat="47.9407" lon="-2.50825">
        <ele>85</ele>
        <time>2024-12-19T08:43:52Z</time>
      </trkpt>
      <trkpt lat="47.9407" lon="-2.50822">
        <ele>85</ele>
        <time>2024-12-19T08:43:53Z</time>
      </trkpt>
      <trkpt lat="47.94069" lon="-2.5082">
        <ele>85</ele>
        <time>2024-12-19T08:43:54Z</time>
      </trkpt>
      <trkpt lat="47.94069" lon="-2.50818">
        <ele>85</ele>
        <time>2024-12-19T08:43:55Z</time>
      </trkpt>
      <trkpt lat="47.94069" lon="-2.50815">
        <ele>85</ele>
        <time>2024-12-19T08:43:56Z</time>
      </trkpt>
      <trkpt lat="47.94069" lon="-2.50813">
        <ele>85</ele>
        <time>2024-12-19T08:43:57Z</time>
      </trkpt>
      <trkpt lat="47.94068" lon="-2.50812">
        <ele>85</ele>
        <time>2024-12-19T08:43:58Z</time>
      </trkpt>
      <trkpt lat="47.94068" lon="-2.5081">
        <ele>85</ele>
        <time>2024-12-19T08:43:59Z</time>
      </trkpt>
      <trkpt lat="47.94067" lon="-2.50808">
        <ele>85</ele>
        <time>2024-12-19T08:44:00Z</time>
      </trkpt>
      <trkpt lat="47.94068" lon="-2.50808">
        <ele>85</ele>
        <time>2024-12-19T08:44:01Z</time>
      </trkpt>
      <trkpt lat="47.94067" lon="-2.50807">
        <ele>85</ele>
        <time>2024-12-19T08:44:02Z</time>
      </trkpt>
      <trkpt lat="47.94068" lon="-2.50805">
        <ele>85</ele>
        <time>2024-12-19T08:44:03Z</time>
      </trkpt>
      <trkpt lat="47.94068" lon="-2.50803">
        <ele>85</ele>
        <time>2024-12-19T08:44:04Z</time>
      </trkpt>
      <trkpt lat="47.94068" lon="-2.50802">
        <ele>85</ele>
        <time>2024-12-19T08:44:05Z</time>
      </trkpt>
      <trkpt lat="47.94067" lon="-2.50801">
        <ele>85</ele>
        <time>2024-12-19T08:44:06Z</time>
      </trkpt>
      <trkpt lat="47.94067" lon="-2.50799">
        <ele>85</ele>
        <time>2024-12-19T08:44:07Z</time>
      </trkpt>
      <trkpt lat="47.94067" lon="-2.50798">
        <ele>85</ele>
        <time>2024-12-19T08:44:08Z</time>
      </trkpt>
      <trkpt lat="47.94066" lon="-2.50797">
        <ele>85</ele>
        <time>2024-12-19T08:44:09Z</time>
      </trkpt>
      <trkpt lat="47.94065" lon="-2.50796">
        <ele>85</ele>
        <time>2024-12-19T08:44:10Z</time>
      </trkpt>
      <trkpt lat="47.94065" lon="-2.50794">
        <ele>85</ele>
        <time>2024-12-19T08:44:11Z</time>
      </trkpt>
      <trkpt lat="47.94065" lon="-2.50792">
        <ele>85</ele>
        <time>2024-12-19T08:44:12Z</time>
      </trkpt>
      <trkpt lat="47.94064" lon="-2.50791">
        <ele>85</ele>
        <time>2024-12-19T08:44:13Z</time>
      </trkpt>
      <trkpt lat="47.94064" lon="-2.50789">
        <ele>85</ele>
        <time>2024-12-19T08:44:14Z</time>
      </trkpt>
      <trkpt lat="47.94064" lon="-2.50787">
        <ele>85</ele>
        <time>2024-12-19T08:44:15Z</time>
      </trkpt>
      <trkpt lat="47.94064" lon="-2.50785">
        <ele>85</ele>
        <time>2024-12-19T08:44:16Z</time>
      </trkpt>
      <trkpt lat="47.94063" lon="-2.50784">
        <ele>85</ele>
        <time>2024-12-19T08:44:17Z</time>
      </trkpt>
      <trkpt lat="47.94063" lon="-2.50782">
        <ele>85</ele>
        <time>2024-12-19T08:44:18Z</time>
      </trkpt>
      <trkpt lat="47.94062" lon="-2.50781">
        <ele>85</ele>
        <time>2024-12-19T08:44:19Z</time>
      </trkpt>
      <trkpt lat="47.94061" lon="-2.5078">
        <ele>85</ele>
        <time>2024-12-19T08:44:20Z</time>
      </trkpt>
      <trkpt lat="47.94061" lon="-2.50779">
        <ele>85</ele>
        <time>2024-12-19T08:44:21Z</time>
      </trkpt>
      <trkpt lat="47.9406" lon="-2.50777">
        <ele>85</ele>
        <time>2024-12-19T08:44:22Z</time>
      </trkpt>
      <trkpt lat="47.9406" lon="-2.50776">
        <ele>85</ele>
        <time>2024-12-19T08:44:23Z</time>
      </trkpt>
      <trkpt lat="47.9406" lon="-2.50775">
        <ele>85</ele>
        <time>2024-12-19T08:44:24Z</time>
      </trkpt>
      <trkpt lat="47.9406" lon="-2.50774">
        <ele>85</ele>
        <time>2024-12-19T08:44:25Z</time>
      </trkpt>
      <trkpt lat="47.9406" lon="-2.50772">
        <ele>85</ele>
        <time>2024-12-19T08:44:26Z</time>
      </trkpt>
      <trkpt lat="47.94059" lon="-2.5077">
        <ele>85</ele>
        <time>2024-12-19T08:44:27Z</time>
      </trkpt>
      <trkpt lat="47.94059" lon="-2.50768">
        <ele>85</ele>
        <time>2024-12-19T08:44:28Z</time>
      </trkpt>
      <trkpt lat="47.94058" lon="-2.50767">
        <ele>85</ele>
        <time>2024-12-19T08:44:29Z</time>
      </trkpt>
      <trkpt lat="47.94058" lon="-2.50766">
        <ele>85</ele>
        <time>2024-12-19T08:44:30Z</time>
      </trkpt>
      <trkpt lat="47.94057" lon="-2.50764">
        <ele>85</ele>
        <time>2024-12-19T08:44:31Z</time>
      </trkpt>
      <trkpt lat="47.94056" lon="-2.50763">
        <ele>85</ele>
        <time>2024-12-19T08:44:32Z</time>
      </trkpt>
      <trkpt lat="47.94056" lon="-2.50762">
        <ele>85</ele>
        <time>2024-12-19T08:44:33Z</time>
      </trkpt>
      <trkpt lat="47.94056" lon="-2.5076">
        <ele>85</ele>
        <time>2024-12-19T08:44:34Z</time>
      </trkpt>
      <trkpt lat="47.94055" lon="-2.50759">
        <ele>85</ele>
        <time>2024-12-19T08:44:35Z</time>
      </trkpt>
      <trkpt lat="47.94055" lon="-2.50756">
        <ele>85</ele>
        <time>2024-12-19T08:44:36Z</time>
      </trkpt>
      <trkpt lat="47.94055" lon="-2.50754">
        <ele>85</ele>
        <time>2024-12-19T08:44:37Z</time>
      </trkpt>
      <trkpt lat="47.94055" lon="-2.50753">
        <ele>85</ele>
        <time>2024-12-19T08:44:38Z</time>
      </trkpt>
      <trkpt lat="47.94054" lon="-2.50752">
        <ele>85</ele>
        <time>2024-12-19T08:44:39Z</time>
      </trkpt>
      <trkpt lat="47.94054" lon="-2.50751">
        <ele>85</ele>
        <time>2024-12-19T08:44:40Z</time>
      </trkpt>
      <trkpt lat="47.94054" lon="-2.50749">
        <ele>85</ele>
        <time>2024-12-19T08:44:41Z</time>
      </trkpt>
      <trkpt lat="47.94054" lon="-2.50747">
        <ele>85</ele>
        <time>2024-12-19T08:44:42Z</time>
      </trkpt>
      <trkpt lat="47.94054" lon="-2.50745">
        <ele>85</ele>
        <time>2024-12-19T08:44:43Z</time>
      </trkpt>
      <trkpt lat="47.94053" lon="-2.50744">
        <ele>85</ele>
        <time>2024-12-19T08:44:44Z</time>
      </trkpt>
      <trkpt lat="47.94053" lon="-2.50741">
        <ele>85</ele>
        <time>2024-12-19T08:44:45Z</time>
      </trkpt>
      <trkpt lat="47.94053" lon="-2.50739">
        <ele>85</ele>
        <time>2024-12-19T08:44:46Z</time>
      </trkpt>
      <trkpt lat="47.94052" lon="-2.50736">
        <ele>85</ele>
        <time>2024-12-19T08:44:47Z</time>
      </trkpt>
      <trkpt lat="47.94052" lon="-2.50733">
        <ele>85</ele>
        <time>2024-12-19T08:44:48Z</time>
      </trkpt>
      <trkpt lat="47.94052" lon="-2.5073">
        <ele>85</ele>
        <time>2024-12-19T08:44:49Z</time>
      </trkpt>
      <trkpt lat="47.94051" lon="-2.50728">
        <ele>85</ele>
        <time>2024-12-19T08:44:50Z</time>
      </trkpt>
      <trkpt lat="47.94051" lon="-2.50726">
        <ele>85</ele>
        <time>2024-12-19T08:44:51Z</time>
      </trkpt>
      <trkpt lat="47.94051" lon="-2.50723">
        <ele>85</ele>
        <time>2024-12-19T08:44:52Z</time>
      </trkpt>
      <trkpt lat="47.94051" lon="-2.50721">
        <ele>85</ele>
        <time>2024-12-19T08:44:53Z</time>
      </trkpt>
      <trkpt lat="47.94051" lon="-2.50718">
        <ele>85</ele>
        <time>2024-12-19T08:44:54Z</time>
      </trkpt>
      <trkpt lat="47.94051" lon="-2.50716">
        <ele>85</ele>
        <time>2024-12-19T08:44:55Z</time>
      </trkpt>
      <trkpt lat="47.94051" lon="-2.50713">
        <ele>85</ele>
        <time>2024-12-19T08:44:56Z</time>
      </trkpt>
      <trkpt lat="47.94051" lon="-2.5071">
        <ele>85</ele>
        <time>2024-12-19T08:44:57Z</time>
      </trkpt>
      <trkpt lat="47.9405" lon="-2.50707">
        <ele>85</ele>
        <time>2024-12-19T08:44:58Z</time>
      </trkpt>
      <trkpt lat="47.94049" lon="-2.50703">
        <ele>85</ele>
        <time>2024-12-19T08:44:59Z</time>
      </trkpt>
      <trkpt lat="47.94049" lon="-2.507">
        <ele>85</ele>
        <time>2024-12-19T08:45:00Z</time>
      </trkpt>
      <trkpt lat="47.94049" lon="-2.50698">
        <ele>85</ele>
        <time>2024-12-19T08:45:01Z</time>
      </trkpt>
      <trkpt lat="47.94049" lon="-2.50697">
        <ele>85</ele>
        <time>2024-12-19T08:45:02Z</time>
      </trkpt>
      <trkpt lat="47.94049" lon="-2.50695">
        <ele>85</ele>
        <time>2024-12-19T08:45:03Z</time>
      </trkpt>
      <trkpt lat="47.94049" lon="-2.50693">
        <ele>85</ele>
        <time>2024-12-19T08:45:04Z</time>
      </trkpt>
      <trkpt lat="47.94049" lon="-2.50691">
        <ele>85</ele>
        <time>2024-12-19T08:45:05Z</time>
      </trkpt>
      <trkpt lat="47.94048" lon="-2.50688">
        <ele>85</ele>
        <time>2024-12-19T08:45:06Z</time>
      </trkpt>
      <trkpt lat="47.94048" lon="-2.50686">
        <ele>85</ele>
        <time>2024-12-19T08:45:07Z</time>
      </trkpt>
      <trkpt lat="47.94047" lon="-2.50685">
        <ele>85</ele>
        <time>2024-12-19T08:45:08Z</time>
      </trkpt>
      <trkpt lat="47.94047" lon="-2.50684">
        <ele>85</ele>
        <time>2024-12-19T08:45:09Z</time>
      </trkpt>
      <trkpt lat="47.94046" lon="-2.50682">
        <ele>85</ele>
        <time>2024-12-19T08:45:10Z</time>
      </trkpt>
      <trkpt lat="47.94045" lon="-2.50681">
        <ele>85</ele>
        <time>2024-12-19T08:45:11Z</time>
      </trkpt>
      <trkpt lat="47.94045" lon="-2.5068">
        <ele>85</ele>
        <time>2024-12-19T08:45:12Z</time>
      </trkpt>
      <trkpt lat="47.94044" lon="-2.5068">
        <ele>85</ele>
        <time>2024-12-19T08:45:13Z</time>
      </trkpt>
      <trkpt lat="47.94044" lon="-2.50678">
        <ele>85</ele>
        <time>2024-12-19T08:45:14Z</time>
      </trkpt>
      <trkpt lat="47.94043" lon="-2.50676">
        <ele>85</ele>
        <time>2024-12-19T08:45:15Z</time>
      </trkpt>
      <trkpt lat="47.94042" lon="-2.50674">
        <ele>85</ele>
        <time>2024-12-19T08:45:16Z</time>
      </trkpt>
      <trkpt lat="47.94041" lon="-2.50672">
        <ele>85</ele>
        <time>2024-12-19T08:45:17Z</time>
      </trkpt>
      <trkpt lat="47.94041" lon="-2.5067">
        <ele>85</ele>
        <time>2024-12-19T08:45:18Z</time>
      </trkpt>
      <trkpt lat="47.9404" lon="-2.50668">
        <ele>85</ele>
        <time>2024-12-19T08:45:19Z</time>
      </trkpt>
      <trkpt lat="47.9404" lon="-2.50666">
        <ele>85</ele>
        <time>2024-12-19T08:45:20Z</time>
      </trkpt>
      <trkpt lat="47.9404" lon="-2.50664">
        <ele>85</ele>
        <time>2024-12-19T08:45:21Z</time>
      </trkpt>
      <trkpt lat="47.94039" lon="-2.50662">
        <ele>85</ele>
        <time>2024-12-19T08:45:22Z</time>
      </trkpt>
      <trkpt lat="47.94039" lon="-2.5066">
        <ele>85</ele>
        <time>2024-12-19T08:45:23Z</time>
      </trkpt>
      <trkpt lat="47.94038" lon="-2.50658">
        <ele>85</ele>
        <time>2024-12-19T08:45:24Z</time>
      </trkpt>
      <trkpt lat="47.94037" lon="-2.50657">
        <ele>85</ele>
        <time>2024-12-19T08:45:25Z</time>
      </trkpt>
      <trkpt lat="47.94037" lon="-2.50656">
        <ele>85</ele>
        <time>2024-12-19T08:45:26Z</time>
      </trkpt>
      <trkpt lat="47.94036" lon="-2.50655">
        <ele>85</ele>
        <time>2024-12-19T08:45:27Z</time>
      </trkpt>
      <trkpt lat="47.94035" lon="-2.50653">
        <ele>85</ele>
        <time>2024-12-19T08:45:28Z</time>
      </trkpt>
      <trkpt lat="47.94035" lon="-2.50651">
        <ele>85</ele>
        <time>2024-12-19T08:45:29Z</time>
      </trkpt>
      <trkpt lat="47.94034" lon="-2.50648">
        <ele>85</ele>
        <time>2024-12-19T08:45:30Z</time>
      </trkpt>
      <trkpt lat="47.94034" lon="-2.50646">
        <ele>85</ele>
        <time>2024-12-19T08:45:31Z</time>
      </trkpt>
      <trkpt lat="47.94033" lon="-2.50644">
        <ele>85</ele>
        <time>2024-12-19T08:45:32Z</time>
      </trkpt>
      <trkpt lat="47.94033" lon="-2.50643">
        <ele>85</ele>
        <time>2024-12-19T08:45:33Z</time>
      </trkpt>
      <trkpt lat="47.94033" lon="-2.5064">
        <ele>85</ele>
        <time>2024-12-19T08:45:34Z</time>
      </trkpt>
      <trkpt lat="47.94033" lon="-2.50638">
        <ele>85</ele>
        <time>2024-12-19T08:45:35Z</time>
      </trkpt>
      <trkpt lat="47.94032" lon="-2.50636">
        <ele>84.9</ele>
        <time>2024-12-19T08:45:36Z</time>
      </trkpt>
      <trkpt lat="47.94032" lon="-2.50635">
        <ele>84.8</ele>
        <time>2024-12-19T08:45:37Z</time>
      </trkpt>
      <trkpt lat="47.94031" lon="-2.50633">
        <ele>84.8</ele>
        <time>2024-12-19T08:45:38Z</time>
      </trkpt>
      <trkpt lat="47.94031" lon="-2.50632">
        <ele>84.7</ele>
        <time>2024-12-19T08:45:39Z</time>
      </trkpt>
      <trkpt lat="47.9403" lon="-2.5063">
        <ele>84.7</ele>
        <time>2024-12-19T08:45:40Z</time>
      </trkpt>
      <trkpt lat="47.9403" lon="-2.50629">
        <ele>84.6</ele>
        <time>2024-12-19T08:45:41Z</time>
      </trkpt>
      <trkpt lat="47.94029" lon="-2.50627">
        <ele>84.6</ele>
        <time>2024-12-19T08:45:42Z</time>
      </trkpt>
      <trkpt lat="47.94028" lon="-2.50624">
        <ele>84.5</ele>
        <time>2024-12-19T08:45:43Z</time>
      </trkpt>
      <trkpt lat="47.94028" lon="-2.50622">
        <ele>84.4</ele>
        <time>2024-12-19T08:45:44Z</time>
      </trkpt>
      <trkpt lat="47.94027" lon="-2.5062">
        <ele>84.3</ele>
        <time>2024-12-19T08:45:45Z</time>
      </trkpt>
      <trkpt lat="47.94027" lon="-2.50618">
        <ele>84.2</ele>
        <time>2024-12-19T08:45:46Z</time>
      </trkpt>
      <trkpt lat="47.94026" lon="-2.50615">
        <ele>84.2</ele>
        <time>2024-12-19T08:45:47Z</time>
      </trkpt>
      <trkpt lat="47.94025" lon="-2.50614">
        <ele>84.1</ele>
        <time>2024-12-19T08:45:48Z</time>
      </trkpt>
      <trkpt lat="47.94025" lon="-2.50613">
        <ele>84.1</ele>
        <time>2024-12-19T08:45:49Z</time>
      </trkpt>
      <trkpt lat="47.94025" lon="-2.50612">
        <ele>84</ele>
        <time>2024-12-19T08:45:50Z</time>
      </trkpt>
      <trkpt lat="47.94024" lon="-2.5061">
        <ele>84</ele>
        <time>2024-12-19T08:45:51Z</time>
      </trkpt>
      <trkpt lat="47.94023" lon="-2.50608">
        <ele>84</ele>
        <time>2024-12-19T08:45:52Z</time>
      </trkpt>
      <trkpt lat="47.94023" lon="-2.50606">
        <ele>84</ele>
        <time>2024-12-19T08:45:53Z</time>
      </trkpt>
      <trkpt lat="47.94022" lon="-2.50605">
        <ele>84</ele>
        <time>2024-12-19T08:45:54Z</time>
      </trkpt>
      <trkpt lat="47.94022" lon="-2.50604">
        <ele>83.9</ele>
        <time>2024-12-19T08:45:55Z</time>
      </trkpt>
      <trkpt lat="47.94022" lon="-2.50603">
        <ele>83.9</ele>
        <time>2024-12-19T08:45:56Z</time>
      </trkpt>
      <trkpt lat="47.94022" lon="-2.50603">
        <ele>83.9</ele>
        <time>2024-12-19T08:45:57Z</time>
      </trkpt>
      <trkpt lat="47.94022" lon="-2.50602">
        <ele>83.9</ele>
        <time>2024-12-19T08:45:58Z</time>
      </trkpt>
      <trkpt lat="47.94022" lon="-2.50601">
        <ele>83.9</ele>
        <time>2024-12-19T08:45:59Z</time>
      </trkpt>
      <trkpt lat="47.94022" lon="-2.50599">
        <ele>83.9</ele>
        <time>2024-12-19T08:46:00Z</time>
      </trkpt>
      <trkpt lat="47.94022" lon="-2.50598">
        <ele>83.9</ele>
        <time>2024-12-19T08:46:01Z</time>
      </trkpt>
      <trkpt lat="47.94022" lon="-2.50596">
        <ele>83.9</ele>
        <time>2024-12-19T08:46:02Z</time>
      </trkpt>
      <trkpt lat="47.94022" lon="-2.50595">
        <ele>83.9</ele>
        <time>2024-12-19T08:46:03Z</time>
      </trkpt>
      <trkpt lat="47.94022" lon="-2.50593">
        <ele>83.9</ele>
        <time>2024-12-19T08:46:04Z</time>
      </trkpt>
      <trkpt lat="47.94022" lon="-2.50591">
        <ele>83.8</ele>
        <time>2024-12-19T08:46:05Z</time>
      </trkpt>
      <trkpt lat="47.94022" lon="-2.5059">
        <ele>83.8</ele>
        <time>2024-12-19T08:46:06Z</time>
      </trkpt>
      <trkpt lat="47.94021" lon="-2.50589">
        <ele>83.8</ele>
        <time>2024-12-19T08:46:07Z</time>
      </trkpt>
      <trkpt lat="47.94021" lon="-2.50586">
        <ele>83.8</ele>
        <time>2024-12-19T08:46:08Z</time>
      </trkpt>
      <trkpt lat="47.94021" lon="-2.50584">
        <ele>83.8</ele>
        <time>2024-12-19T08:46:09Z</time>
      </trkpt>
      <trkpt lat="47.9402" lon="-2.50582">
        <ele>83.7</ele>
        <time>2024-12-19T08:46:10Z</time>
      </trkpt>
      <trkpt lat="47.9402" lon="-2.5058">
        <ele>83.6</ele>
        <time>2024-12-19T08:46:11Z</time>
      </trkpt>
      <trkpt lat="47.94019" lon="-2.50577">
        <ele>83.5</ele>
        <time>2024-12-19T08:46:12Z</time>
      </trkpt>
      <trkpt lat="47.94019" lon="-2.50576">
        <ele>83.4</ele>
        <time>2024-12-19T08:46:13Z</time>
      </trkpt>
      <trkpt lat="47.94019" lon="-2.50575">
        <ele>83.4</ele>
        <time>2024-12-19T08:46:14Z</time>
      </trkpt>
      <trkpt lat="47.94019" lon="-2.50573">
        <ele>83.3</ele>
        <time>2024-12-19T08:46:15Z</time>
      </trkpt>
      <trkpt lat="47.94018" lon="-2.50572">
        <ele>83.2</ele>
        <time>2024-12-19T08:46:16Z</time>
      </trkpt>
      <trkpt lat="47.94018" lon="-2.50571">
        <ele>83.2</ele>
        <time>2024-12-19T08:46:17Z</time>
      </trkpt>
      <trkpt lat="47.94017" lon="-2.5057">
        <ele>83.1</ele>
        <time>2024-12-19T08:46:18Z</time>
      </trkpt>
      <trkpt lat="47.94016" lon="-2.50568">
        <ele>83</ele>
        <time>2024-12-19T08:46:19Z</time>
      </trkpt>
      <trkpt lat="47.94016" lon="-2.50567">
        <ele>83</ele>
        <time>2024-12-19T08:46:20Z</time>
      </trkpt>
      <trkpt lat="47.94016" lon="-2.50566">
        <ele>83</ele>
        <time>2024-12-19T08:46:21Z</time>
      </trkpt>
      <trkpt lat="47.94016" lon="-2.50565">
        <ele>82.9</ele>
        <time>2024-12-19T08:46:22Z</time>
      </trkpt>
      <trkpt lat="47.94016" lon="-2.50565">
        <ele>82.9</ele>
        <time>2024-12-19T08:46:23Z</time>
      </trkpt>
      <trkpt lat="47.94016" lon="-2.50564">
        <ele>82.9</ele>
        <time>2024-12-19T08:46:24Z</time>
      </trkpt>
      <trkpt lat="47.94016" lon="-2.50563">
        <ele>82.8</ele>
        <time>2024-12-19T08:46:25Z</time>
      </trkpt>
      <trkpt lat="47.94016" lon="-2.50562">
        <ele>82.8</ele>
        <time>2024-12-19T08:46:26Z</time>
      </trkpt>
      <trkpt lat="47.94016" lon="-2.50561">
        <ele>82.7</ele>
        <time>2024-12-19T08:46:27Z</time>
      </trkpt>
      <trkpt lat="47.94016" lon="-2.50559">
        <ele>82.7</ele>
        <time>2024-12-19T08:46:28Z</time>
      </trkpt>
      <trkpt lat="47.94016" lon="-2.50558">
        <ele>82.7</ele>
        <time>2024-12-19T08:46:29Z</time>
      </trkpt>
      <trkpt lat="47.94016" lon="-2.50558">
        <ele>82.6</ele>
        <time>2024-12-19T08:46:30Z</time>
      </trkpt>
      <trkpt lat="47.94016" lon="-2.50557">
        <ele>82.6</ele>
        <time>2024-12-19T08:46:31Z</time>
      </trkpt>
      <trkpt lat="47.94016" lon="-2.50556">
        <ele>82.6</ele>
        <time>2024-12-19T08:46:32Z</time>
      </trkpt>
      <trkpt lat="47.94016" lon="-2.50555">
        <ele>82.5</ele>
        <time>2024-12-19T08:46:33Z</time>
      </trkpt>
      <trkpt lat="47.94015" lon="-2.50553">
        <ele>82.5</ele>
        <time>2024-12-19T08:46:34Z</time>
      </trkpt>
      <trkpt lat="47.94015" lon="-2.50551">
        <ele>82.5</ele>
        <time>2024-12-19T08:46:35Z</time>
      </trkpt>
      <trkpt lat="47.94016" lon="-2.50549">
        <ele>82.4</ele>
        <time>2024-12-19T08:46:36Z</time>
      </trkpt>
      <trkpt lat="47.94016" lon="-2.50547">
        <ele>82.4</ele>
        <time>2024-12-19T08:46:37Z</time>
      </trkpt>
      <trkpt lat="47.94016" lon="-2.50545">
        <ele>82.3</ele>
        <time>2024-12-19T08:46:38Z</time>
      </trkpt>
      <trkpt lat="47.94015" lon="-2.50544">
        <ele>82.3</ele>
        <time>2024-12-19T08:46:39Z</time>
      </trkpt>
      <trkpt lat="47.94015" lon="-2.50541">
        <ele>82.3</ele>
        <time>2024-12-19T08:46:40Z</time>
      </trkpt>
      <trkpt lat="47.94015" lon="-2.50539">
        <ele>82.2</ele>
        <time>2024-12-19T08:46:41Z</time>
      </trkpt>
      <trkpt lat="47.94015" lon="-2.50538">
        <ele>82.2</ele>
        <time>2024-12-19T08:46:42Z</time>
      </trkpt>
      <trkpt lat="47.94014" lon="-2.50535">
        <ele>82.1</ele>
        <time>2024-12-19T08:46:43Z</time>
      </trkpt>
      <trkpt lat="47.94013" lon="-2.50532">
        <ele>82.1</ele>
        <time>2024-12-19T08:46:44Z</time>
      </trkpt>
      <trkpt lat="47.94013" lon="-2.50531">
        <ele>82</ele>
        <time>2024-12-19T08:46:45Z</time>
      </trkpt>
      <trkpt lat="47.94012" lon="-2.50529">
        <ele>82</ele>
        <time>2024-12-19T08:46:46Z</time>
      </trkpt>
      <trkpt lat="47.94012" lon="-2.50528">
        <ele>82</ele>
        <time>2024-12-19T08:46:47Z</time>
      </trkpt>
      <trkpt lat="47.94011" lon="-2.50527">
        <ele>82</ele>
        <time>2024-12-19T08:46:48Z</time>
      </trkpt>
      <trkpt lat="47.94011" lon="-2.50526">
        <ele>82</ele>
        <time>2024-12-19T08:46:49Z</time>
      </trkpt>
      <trkpt lat="47.9401" lon="-2.50525">
        <ele>81.9</ele>
        <time>2024-12-19T08:46:50Z</time>
      </trkpt>
      <trkpt lat="47.9401" lon="-2.50524">
        <ele>81.9</ele>
        <time>2024-12-19T08:46:51Z</time>
      </trkpt>
      <trkpt lat="47.94009" lon="-2.50522">
        <ele>81.9</ele>
        <time>2024-12-19T08:46:52Z</time>
      </trkpt>
      <trkpt lat="47.94008" lon="-2.50519">
        <ele>81.8</ele>
        <time>2024-12-19T08:46:53Z</time>
      </trkpt>
      <trkpt lat="47.94008" lon="-2.50517">
        <ele>81.7</ele>
        <time>2024-12-19T08:46:54Z</time>
      </trkpt>
      <trkpt lat="47.94007" lon="-2.50514">
        <ele>81.6</ele>
        <time>2024-12-19T08:46:55Z</time>
      </trkpt>
      <trkpt lat="47.94007" lon="-2.50512">
        <ele>81.6</ele>
        <time>2024-12-19T08:46:56Z</time>
      </trkpt>
      <trkpt lat="47.94006" lon="-2.50508">
        <ele>81.4</ele>
        <time>2024-12-19T08:46:58Z</time>
      </trkpt>
      <trkpt lat="47.94005" lon="-2.50505">
        <ele>81.3</ele>
        <time>2024-12-19T08:46:59Z</time>
      </trkpt>
      <trkpt lat="47.94004" lon="-2.50504">
        <ele>81.3</ele>
        <time>2024-12-19T08:47:00Z</time>
      </trkpt>
      <trkpt lat="47.94004" lon="-2.50502">
        <ele>81.2</ele>
        <time>2024-12-19T08:47:01Z</time>
      </trkpt>
      <trkpt lat="47.94003" lon="-2.505">
        <ele>81.1</ele>
        <time>2024-12-19T08:47:02Z</time>
      </trkpt>
      <trkpt lat="47.94002" lon="-2.50499">
        <ele>81</ele>
        <time>2024-12-19T08:47:03Z</time>
      </trkpt>
      <trkpt lat="47.94002" lon="-2.50497">
        <ele>81</ele>
        <time>2024-12-19T08:47:04Z</time>
      </trkpt>
      <trkpt lat="47.94001" lon="-2.50496">
        <ele>80.9</ele>
        <time>2024-12-19T08:47:05Z</time>
      </trkpt>
      <trkpt lat="47.94001" lon="-2.50494">
        <ele>80.8</ele>
        <time>2024-12-19T08:47:06Z</time>
      </trkpt>
      <trkpt lat="47.94001" lon="-2.50492">
        <ele>80.7</ele>
        <time>2024-12-19T08:47:07Z</time>
      </trkpt>
      <trkpt lat="47.94001" lon="-2.5049">
        <ele>80.7</ele>
        <time>2024-12-19T08:47:08Z</time>
      </trkpt>
      <trkpt lat="47.94" lon="-2.50489">
        <ele>80.6</ele>
        <time>2024-12-19T08:47:09Z</time>
      </trkpt>
      <trkpt lat="47.94" lon="-2.50488">
        <ele>80.6</ele>
        <time>2024-12-19T08:47:10Z</time>
      </trkpt>
      <trkpt lat="47.94" lon="-2.50486">
        <ele>80.5</ele>
        <time>2024-12-19T08:47:11Z</time>
      </trkpt>
      <trkpt lat="47.94" lon="-2.50483">
        <ele>80.4</ele>
        <time>2024-12-19T08:47:12Z</time>
      </trkpt>
      <trkpt lat="47.93999" lon="-2.50481">
        <ele>80.3</ele>
        <time>2024-12-19T08:47:13Z</time>
      </trkpt>
      <trkpt lat="47.93999" lon="-2.50478">
        <ele>80.1</ele>
        <time>2024-12-19T08:47:14Z</time>
      </trkpt>
      <trkpt lat="47.93998" lon="-2.50475">
        <ele>80</ele>
        <time>2024-12-19T08:47:15Z</time>
      </trkpt>
      <trkpt lat="47.93997" lon="-2.50472">
        <ele>79.9</ele>
        <time>2024-12-19T08:47:16Z</time>
      </trkpt>
      <trkpt lat="47.93997" lon="-2.5047">
        <ele>79.8</ele>
        <time>2024-12-19T08:47:17Z</time>
      </trkpt>
      <trkpt lat="47.93996" lon="-2.50468">
        <ele>79.7</ele>
        <time>2024-12-19T08:47:18Z</time>
      </trkpt>
      <trkpt lat="47.93996" lon="-2.50466">
        <ele>79.6</ele>
        <time>2024-12-19T08:47:19Z</time>
      </trkpt>
      <trkpt lat="47.93995" lon="-2.50464">
        <ele>79.5</ele>
        <time>2024-12-19T08:47:20Z</time>
      </trkpt>
      <trkpt lat="47.93994" lon="-2.50462">
        <ele>79.4</ele>
        <time>2024-12-19T08:47:21Z</time>
      </trkpt>
      <trkpt lat="47.93993" lon="-2.50459">
        <ele>79.3</ele>
        <time>2024-12-19T08:47:22Z</time>
      </trkpt>
      <trkpt lat="47.93993" lon="-2.50456">
        <ele>79.2</ele>
        <time>2024-12-19T08:47:23Z</time>
      </trkpt>
      <trkpt lat="47.93992" lon="-2.50454">
        <ele>79</ele>
        <time>2024-12-19T08:47:24Z</time>
      </trkpt>
      <trkpt lat="47.9399" lon="-2.50452">
        <ele>78.9</ele>
        <time>2024-12-19T08:47:25Z</time>
      </trkpt>
      <trkpt lat="47.93989" lon="-2.50449">
        <ele>78.8</ele>
        <time>2024-12-19T08:47:26Z</time>
      </trkpt>
      <trkpt lat="47.93988" lon="-2.50446">
        <ele>78.6</ele>
        <time>2024-12-19T08:47:27Z</time>
      </trkpt>
      <trkpt lat="47.93988" lon="-2.50444">
        <ele>78.6</ele>
        <time>2024-12-19T08:47:28Z</time>
      </trkpt>
      <trkpt lat="47.93987" lon="-2.50442">
        <ele>78.5</ele>
        <time>2024-12-19T08:47:29Z</time>
      </trkpt>
      <trkpt lat="47.93986" lon="-2.50441">
        <ele>78.5</ele>
        <time>2024-12-19T08:47:30Z</time>
      </trkpt>
      <trkpt lat="47.93985" lon="-2.50439">
        <ele>78.5</ele>
        <time>2024-12-19T08:47:31Z</time>
      </trkpt>
      <trkpt lat="47.93984" lon="-2.50437">
        <ele>78.4</ele>
        <time>2024-12-19T08:47:32Z</time>
      </trkpt>
      <trkpt lat="47.93983" lon="-2.50436">
        <ele>78.4</ele>
        <time>2024-12-19T08:47:33Z</time>
      </trkpt>
      <trkpt lat="47.93983" lon="-2.50434">
        <ele>78.4</ele>
        <time>2024-12-19T08:47:34Z</time>
      </trkpt>
      <trkpt lat="47.93982" lon="-2.50433">
        <ele>78.4</ele>
        <time>2024-12-19T08:47:35Z</time>
      </trkpt>
      <trkpt lat="47.93982" lon="-2.50431">
        <ele>78.3</ele>
        <time>2024-12-19T08:47:36Z</time>
      </trkpt>
      <trkpt lat="47.93982" lon="-2.5043">
        <ele>78.3</ele>
        <time>2024-12-19T08:47:37Z</time>
      </trkpt>
      <trkpt lat="47.93981" lon="-2.50428">
        <ele>78.3</ele>
        <time>2024-12-19T08:47:38Z</time>
      </trkpt>
      <trkpt lat="47.93981" lon="-2.50426">
        <ele>78.3</ele>
        <time>2024-12-19T08:47:39Z</time>
      </trkpt>
      <trkpt lat="47.9398" lon="-2.50425">
        <ele>78.3</ele>
        <time>2024-12-19T08:47:40Z</time>
      </trkpt>
      <trkpt lat="47.93979" lon="-2.50425">
        <ele>78.3</ele>
        <time>2024-12-19T08:47:41Z</time>
      </trkpt>
      <trkpt lat="47.93979" lon="-2.50425">
        <ele>78.2</ele>
        <time>2024-12-19T08:47:42Z</time>
      </trkpt>
      <trkpt lat="47.93978" lon="-2.50424">
        <ele>78.2</ele>
        <time>2024-12-19T08:47:43Z</time>
      </trkpt>
      <trkpt lat="47.93978" lon="-2.50424">
        <ele>78.2</ele>
        <time>2024-12-19T08:47:44Z</time>
      </trkpt>
      <trkpt lat="47.93978" lon="-2.50422">
        <ele>78.2</ele>
        <time>2024-12-19T08:47:45Z</time>
      </trkpt>
      <trkpt lat="47.93977" lon="-2.50421">
        <ele>78.2</ele>
        <time>2024-12-19T08:47:46Z</time>
      </trkpt>
      <trkpt lat="47.93977" lon="-2.5042">
        <ele>78.2</ele>
        <time>2024-12-19T08:47:47Z</time>
      </trkpt>
      <trkpt lat="47.93977" lon="-2.50418">
        <ele>78.2</ele>
        <time>2024-12-19T08:47:48Z</time>
      </trkpt>
      <trkpt lat="47.93977" lon="-2.50417">
        <ele>78.2</ele>
        <time>2024-12-19T08:47:49Z</time>
      </trkpt>
      <trkpt lat="47.93978" lon="-2.50415">
        <ele>78.1</ele>
        <time>2024-12-19T08:47:50Z</time>
      </trkpt>
      <trkpt lat="47.93978" lon="-2.50414">
        <ele>78.1</ele>
        <time>2024-12-19T08:47:51Z</time>
      </trkpt>
      <trkpt lat="47.93978" lon="-2.50413">
        <ele>78</ele>
        <time>2024-12-19T08:47:52Z</time>
      </trkpt>
      <trkpt lat="47.93977" lon="-2.50411">
        <ele>78</ele>
        <time>2024-12-19T08:47:53Z</time>
      </trkpt>
      <trkpt lat="47.93977" lon="-2.50409">
        <ele>77.9</ele>
        <time>2024-12-19T08:47:54Z</time>
      </trkpt>
      <trkpt lat="47.93977" lon="-2.50408">
        <ele>77.9</ele>
        <time>2024-12-19T08:47:55Z</time>
      </trkpt>
      <trkpt lat="47.93978" lon="-2.50406">
        <ele>77.8</ele>
        <time>2024-12-19T08:47:56Z</time>
      </trkpt>
      <trkpt lat="47.93978" lon="-2.50404">
        <ele>77.7</ele>
        <time>2024-12-19T08:47:57Z</time>
      </trkpt>
      <trkpt lat="47.93977" lon="-2.50402">
        <ele>77.7</ele>
        <time>2024-12-19T08:47:58Z</time>
      </trkpt>
      <trkpt lat="47.93977" lon="-2.50401">
        <ele>77.6</ele>
        <time>2024-12-19T08:47:59Z</time>
      </trkpt>
      <trkpt lat="47.93976" lon="-2.50399">
        <ele>77.5</ele>
        <time>2024-12-19T08:48:00Z</time>
      </trkpt>
      <trkpt lat="47.93975" lon="-2.50397">
        <ele>77.4</ele>
        <time>2024-12-19T08:48:01Z</time>
      </trkpt>
      <trkpt lat="47.93974" lon="-2.50395">
        <ele>77.3</ele>
        <time>2024-12-19T08:48:02Z</time>
      </trkpt>
      <trkpt lat="47.93973" lon="-2.50394">
        <ele>77.2</ele>
        <time>2024-12-19T08:48:03Z</time>
      </trkpt>
      <trkpt lat="47.93973" lon="-2.50393">
        <ele>77.2</ele>
        <time>2024-12-19T08:48:04Z</time>
      </trkpt>
      <trkpt lat="47.93973" lon="-2.50391">
        <ele>77.1</ele>
        <time>2024-12-19T08:48:05Z</time>
      </trkpt>
      <trkpt lat="47.93972" lon="-2.50389">
        <ele>77</ele>
        <time>2024-12-19T08:48:06Z</time>
      </trkpt>
      <trkpt lat="47.93972" lon="-2.50387">
        <ele>76.9</ele>
        <time>2024-12-19T08:48:07Z</time>
      </trkpt>
      <trkpt lat="47.93972" lon="-2.50386">
        <ele>76.8</ele>
        <time>2024-12-19T08:48:08Z</time>
      </trkpt>
      <trkpt lat="47.93971" lon="-2.50384">
        <ele>76.7</ele>
        <time>2024-12-19T08:48:09Z</time>
      </trkpt>
      <trkpt lat="47.9397" lon="-2.50381">
        <ele>76.6</ele>
        <time>2024-12-19T08:48:10Z</time>
      </trkpt>
      <trkpt lat="47.93969" lon="-2.50379">
        <ele>76.4</ele>
        <time>2024-12-19T08:48:11Z</time>
      </trkpt>
      <trkpt lat="47.93968" lon="-2.50377">
        <ele>76.3</ele>
        <time>2024-12-19T08:48:12Z</time>
      </trkpt>
      <trkpt lat="47.93968" lon="-2.50375">
        <ele>76.2</ele>
        <time>2024-12-19T08:48:13Z</time>
      </trkpt>
      <trkpt lat="47.93967" lon="-2.50374">
        <ele>76.1</ele>
        <time>2024-12-19T08:48:14Z</time>
      </trkpt>
      <trkpt lat="47.93967" lon="-2.50372">
        <ele>76</ele>
        <time>2024-12-19T08:48:15Z</time>
      </trkpt>
      <trkpt lat="47.93967" lon="-2.50371">
        <ele>76</ele>
        <time>2024-12-19T08:48:16Z</time>
      </trkpt>
      <trkpt lat="47.93967" lon="-2.5037">
        <ele>75.9</ele>
        <time>2024-12-19T08:48:17Z</time>
      </trkpt>
      <trkpt lat="47.93966" lon="-2.50368">
        <ele>75.8</ele>
        <time>2024-12-19T08:48:18Z</time>
      </trkpt>
      <trkpt lat="47.93966" lon="-2.50365">
        <ele>75.7</ele>
        <time>2024-12-19T08:48:19Z</time>
      </trkpt>
      <trkpt lat="47.93965" lon="-2.50363">
        <ele>75.6</ele>
        <time>2024-12-19T08:48:20Z</time>
      </trkpt>
      <trkpt lat="47.93964" lon="-2.50361">
        <ele>75.4</ele>
        <time>2024-12-19T08:48:21Z</time>
      </trkpt>
      <trkpt lat="47.93964" lon="-2.5036">
        <ele>75.3</ele>
        <time>2024-12-19T08:48:22Z</time>
      </trkpt>
      <trkpt lat="47.93963" lon="-2.50358">
        <ele>75.1</ele>
        <time>2024-12-19T08:48:23Z</time>
      </trkpt>
      <trkpt lat="47.93963" lon="-2.50356">
        <ele>75</ele>
        <time>2024-12-19T08:48:24Z</time>
      </trkpt>
      <trkpt lat="47.93963" lon="-2.50354">
        <ele>74.9</ele>
        <time>2024-12-19T08:48:25Z</time>
      </trkpt>
      <trkpt lat="47.93963" lon="-2.50353">
        <ele>74.8</ele>
        <time>2024-12-19T08:48:26Z</time>
      </trkpt>
      <trkpt lat="47.93962" lon="-2.50352">
        <ele>74.7</ele>
        <time>2024-12-19T08:48:27Z</time>
      </trkpt>
      <trkpt lat="47.93962" lon="-2.50349">
        <ele>74.6</ele>
        <time>2024-12-19T08:48:28Z</time>
      </trkpt>
      <trkpt lat="47.93962" lon="-2.50347">
        <ele>74.4</ele>
        <time>2024-12-19T08:48:29Z</time>
      </trkpt>
      <trkpt lat="47.93962" lon="-2.50345">
        <ele>74.3</ele>
        <time>2024-12-19T08:48:30Z</time>
      </trkpt>
      <trkpt lat="47.93961" lon="-2.50344">
        <ele>74.2</ele>
        <time>2024-12-19T08:48:31Z</time>
      </trkpt>
      <trkpt lat="47.93961" lon="-2.50343">
        <ele>74.1</ele>
        <time>2024-12-19T08:48:32Z</time>
      </trkpt>
      <trkpt lat="47.93961" lon="-2.50342">
        <ele>74.1</ele>
        <time>2024-12-19T08:48:33Z</time>
      </trkpt>
      <trkpt lat="47.93961" lon="-2.5034">
        <ele>74</ele>
        <time>2024-12-19T08:48:34Z</time>
      </trkpt>
      <trkpt lat="47.9396" lon="-2.50338">
        <ele>73.9</ele>
        <time>2024-12-19T08:48:35Z</time>
      </trkpt>
      <trkpt lat="47.9396" lon="-2.50337">
        <ele>73.7</ele>
        <time>2024-12-19T08:48:36Z</time>
      </trkpt>
      <trkpt lat="47.93959" lon="-2.50334">
        <ele>73.6</ele>
        <time>2024-12-19T08:48:37Z</time>
      </trkpt>
      <trkpt lat="47.93958" lon="-2.50333">
        <ele>73.5</ele>
        <time>2024-12-19T08:48:38Z</time>
      </trkpt>
      <trkpt lat="47.93957" lon="-2.50332">
        <ele>73.4</ele>
        <time>2024-12-19T08:48:39Z</time>
      </trkpt>
      <trkpt lat="47.93956" lon="-2.5033">
        <ele>73.3</ele>
        <time>2024-12-19T08:48:40Z</time>
      </trkpt>
      <trkpt lat="47.93955" lon="-2.50328">
        <ele>73.3</ele>
        <time>2024-12-19T08:48:41Z</time>
      </trkpt>
      <trkpt lat="47.93955" lon="-2.50327">
        <ele>73.2</ele>
        <time>2024-12-19T08:48:42Z</time>
      </trkpt>
      <trkpt lat="47.93954" lon="-2.50325">
        <ele>73.1</ele>
        <time>2024-12-19T08:48:43Z</time>
      </trkpt>
      <trkpt lat="47.93953" lon="-2.50323">
        <ele>73.1</ele>
        <time>2024-12-19T08:48:44Z</time>
      </trkpt>
      <trkpt lat="47.93953" lon="-2.50321">
        <ele>73</ele>
        <time>2024-12-19T08:48:45Z</time>
      </trkpt>
      <trkpt lat="47.93952" lon="-2.50319">
        <ele>72.9</ele>
        <time>2024-12-19T08:48:46Z</time>
      </trkpt>
      <trkpt lat="47.93951" lon="-2.50317">
        <ele>72.8</ele>
        <time>2024-12-19T08:48:47Z</time>
      </trkpt>
      <trkpt lat="47.93951" lon="-2.50315">
        <ele>72.7</ele>
        <time>2024-12-19T08:48:48Z</time>
      </trkpt>
      <trkpt lat="47.9395" lon="-2.50313">
        <ele>72.6</ele>
        <time>2024-12-19T08:48:49Z</time>
      </trkpt>
      <trkpt lat="47.9395" lon="-2.50311">
        <ele>72.5</ele>
        <time>2024-12-19T08:48:50Z</time>
      </trkpt>
      <trkpt lat="47.93949" lon="-2.5031">
        <ele>72.5</ele>
        <time>2024-12-19T08:48:51Z</time>
      </trkpt>
      <trkpt lat="47.93949" lon="-2.50308">
        <ele>72.4</ele>
        <time>2024-12-19T08:48:52Z</time>
      </trkpt>
      <trkpt lat="47.93948" lon="-2.50307">
        <ele>72.3</ele>
        <time>2024-12-19T08:48:53Z</time>
      </trkpt>
      <trkpt lat="47.93948" lon="-2.50306">
        <ele>72.2</ele>
        <time>2024-12-19T08:48:54Z</time>
      </trkpt>
      <trkpt lat="47.93947" lon="-2.50304">
        <ele>72.3</ele>
        <time>2024-12-19T08:48:55Z</time>
      </trkpt>
      <trkpt lat="47.93947" lon="-2.50303">
        <ele>72.4</ele>
        <time>2024-12-19T08:48:56Z</time>
      </trkpt>
      <trkpt lat="47.93946" lon="-2.50301">
        <ele>72.5</ele>
        <time>2024-12-19T08:48:57Z</time>
      </trkpt>
      <trkpt lat="47.93946" lon="-2.503">
        <ele>72.6</ele>
        <time>2024-12-19T08:48:58Z</time>
      </trkpt>
      <trkpt lat="47.93946" lon="-2.50299">
        <ele>72.6</ele>
        <time>2024-12-19T08:48:59Z</time>
      </trkpt>
      <trkpt lat="47.93946" lon="-2.50298">
        <ele>72.7</ele>
        <time>2024-12-19T08:49:00Z</time>
      </trkpt>
      <trkpt lat="47.93945" lon="-2.50296">
        <ele>72.8</ele>
        <time>2024-12-19T08:49:01Z</time>
      </trkpt>
      <trkpt lat="47.93945" lon="-2.50294">
        <ele>72.9</ele>
        <time>2024-12-19T08:49:02Z</time>
      </trkpt>
      <trkpt lat="47.93945" lon="-2.50292">
        <ele>73.1</ele>
        <time>2024-12-19T08:49:03Z</time>
      </trkpt>
      <trkpt lat="47.93945" lon="-2.5029">
        <ele>73.2</ele>
        <time>2024-12-19T08:49:04Z</time>
      </trkpt>
      <trkpt lat="47.93945" lon="-2.50288">
        <ele>73.3</ele>
        <time>2024-12-19T08:49:05Z</time>
      </trkpt>
      <trkpt lat="47.93944" lon="-2.50287">
        <ele>73.3</ele>
        <time>2024-12-19T08:49:06Z</time>
      </trkpt>
      <trkpt lat="47.93944" lon="-2.50286">
        <ele>73.4</ele>
        <time>2024-12-19T08:49:07Z</time>
      </trkpt>
      <trkpt lat="47.93944" lon="-2.50284">
        <ele>73.5</ele>
        <time>2024-12-19T08:49:08Z</time>
      </trkpt>
      <trkpt lat="47.93945" lon="-2.50283">
        <ele>73.7</ele>
        <time>2024-12-19T08:49:09Z</time>
      </trkpt>
      <trkpt lat="47.93946" lon="-2.50281">
        <ele>74</ele>
        <time>2024-12-19T08:49:10Z</time>
      </trkpt>
      <trkpt lat="47.93946" lon="-2.5028">
        <ele>74.1</ele>
        <time>2024-12-19T08:49:11Z</time>
      </trkpt>
      <trkpt lat="47.93946" lon="-2.50279">
        <ele>74.2</ele>
        <time>2024-12-19T08:49:12Z</time>
      </trkpt>
      <trkpt lat="47.93946" lon="-2.50278">
        <ele>74.2</ele>
        <time>2024-12-19T08:49:13Z</time>
      </trkpt>
      <trkpt lat="47.93945" lon="-2.50276">
        <ele>74.4</ele>
        <time>2024-12-19T08:49:14Z</time>
      </trkpt>
      <trkpt lat="47.93945" lon="-2.50275">
        <ele>74.6</ele>
        <time>2024-12-19T08:49:15Z</time>
      </trkpt>
      <trkpt lat="47.93944" lon="-2.50273">
        <ele>74.9</ele>
        <time>2024-12-19T08:49:16Z</time>
      </trkpt>
      <trkpt lat="47.93944" lon="-2.50271">
        <ele>75.1</ele>
        <time>2024-12-19T08:49:17Z</time>
      </trkpt>
      <trkpt lat="47.93943" lon="-2.50269">
        <ele>75.4</ele>
        <time>2024-12-19T08:49:18Z</time>
      </trkpt>
      <trkpt lat="47.93943" lon="-2.50267">
        <ele>75.7</ele>
        <time>2024-12-19T08:49:19Z</time>
      </trkpt>
      <trkpt lat="47.93942" lon="-2.50265">
        <ele>75.9</ele>
        <time>2024-12-19T08:49:20Z</time>
      </trkpt>
      <trkpt lat="47.93942" lon="-2.50264">
        <ele>76.1</ele>
        <time>2024-12-19T08:49:21Z</time>
      </trkpt>
      <trkpt lat="47.93941" lon="-2.50262">
        <ele>76.4</ele>
        <time>2024-12-19T08:49:22Z</time>
      </trkpt>
      <trkpt lat="47.93941" lon="-2.5026">
        <ele>76.7</ele>
        <time>2024-12-19T08:49:23Z</time>
      </trkpt>
      <trkpt lat="47.93941" lon="-2.50258">
        <ele>76.9</ele>
        <time>2024-12-19T08:49:24Z</time>
      </trkpt>
      <trkpt lat="47.93941" lon="-2.50257">
        <ele>77.1</ele>
        <time>2024-12-19T08:49:25Z</time>
      </trkpt>
      <trkpt lat="47.93941" lon="-2.50256">
        <ele>77.2</ele>
        <time>2024-12-19T08:49:26Z</time>
      </trkpt>
      <trkpt lat="47.93941" lon="-2.50256">
        <ele>77.3</ele>
        <time>2024-12-19T08:49:27Z</time>
      </trkpt>
      <trkpt lat="47.93941" lon="-2.50255">
        <ele>77.4</ele>
        <time>2024-12-19T08:49:28Z</time>
      </trkpt>
      <trkpt lat="47.9394" lon="-2.50253">
        <ele>77.6</ele>
        <time>2024-12-19T08:49:29Z</time>
      </trkpt>
      <trkpt lat="47.9394" lon="-2.50252">
        <ele>77.7</ele>
        <time>2024-12-19T08:49:30Z</time>
      </trkpt>
      <trkpt lat="47.9394" lon="-2.50251">
        <ele>77.9</ele>
        <time>2024-12-19T08:49:31Z</time>
      </trkpt>
      <trkpt lat="47.93939" lon="-2.50249">
        <ele>77.9</ele>
        <time>2024-12-19T08:49:32Z</time>
      </trkpt>
      <trkpt lat="47.93938" lon="-2.50248">
        <ele>77.9</ele>
        <time>2024-12-19T08:49:33Z</time>
      </trkpt>
      <trkpt lat="47.93938" lon="-2.50246">
        <ele>77.8</ele>
        <time>2024-12-19T08:49:34Z</time>
      </trkpt>
      <trkpt lat="47.93937" lon="-2.50245">
        <ele>77.8</ele>
        <time>2024-12-19T08:49:35Z</time>
      </trkpt>
      <trkpt lat="47.93936" lon="-2.50243">
        <ele>77.9</ele>
        <time>2024-12-19T08:49:36Z</time>
      </trkpt>
      <trkpt lat="47.93936" lon="-2.50241">
        <ele>77.9</ele>
        <time>2024-12-19T08:49:37Z</time>
      </trkpt>
      <trkpt lat="47.93936" lon="-2.5024">
        <ele>78</ele>
        <time>2024-12-19T08:49:38Z</time>
      </trkpt>
      <trkpt lat="47.93935" lon="-2.50238">
        <ele>78</ele>
        <time>2024-12-19T08:49:39Z</time>
      </trkpt>
      <trkpt lat="47.93935" lon="-2.50237">
        <ele>78.1</ele>
        <time>2024-12-19T08:49:40Z</time>
      </trkpt>
      <trkpt lat="47.93935" lon="-2.50235">
        <ele>78.1</ele>
        <time>2024-12-19T08:49:41Z</time>
      </trkpt>
      <trkpt lat="47.93934" lon="-2.50233">
        <ele>78.1</ele>
        <time>2024-12-19T08:49:42Z</time>
      </trkpt>
      <trkpt lat="47.93933" lon="-2.50231">
        <ele>78.1</ele>
        <time>2024-12-19T08:49:43Z</time>
      </trkpt>
      <trkpt lat="47.93933" lon="-2.5023">
        <ele>78.1</ele>
        <time>2024-12-19T08:49:44Z</time>
      </trkpt>
      <trkpt lat="47.93933" lon="-2.50228">
        <ele>78.1</ele>
        <time>2024-12-19T08:49:45Z</time>
      </trkpt>
      <trkpt lat="47.93932" lon="-2.50226">
        <ele>78.1</ele>
        <time>2024-12-19T08:49:46Z</time>
      </trkpt>
      <trkpt lat="47.93932" lon="-2.50225">
        <ele>78.1</ele>
        <time>2024-12-19T08:49:47Z</time>
      </trkpt>
      <trkpt lat="47.93931" lon="-2.50224">
        <ele>78.1</ele>
        <time>2024-12-19T08:49:48Z</time>
      </trkpt>
      <trkpt lat="47.93931" lon="-2.50222">
        <ele>78</ele>
        <time>2024-12-19T08:49:49Z</time>
      </trkpt>
      <trkpt lat="47.9393" lon="-2.5022">
        <ele>77.9</ele>
        <time>2024-12-19T08:49:50Z</time>
      </trkpt>
      <trkpt lat="47.93929" lon="-2.50218">
        <ele>77.8</ele>
        <time>2024-12-19T08:49:51Z</time>
      </trkpt>
      <trkpt lat="47.93928" lon="-2.50217">
        <ele>77.8</ele>
        <time>2024-12-19T08:49:52Z</time>
      </trkpt>
      <trkpt lat="47.93928" lon="-2.50215">
        <ele>77.7</ele>
        <time>2024-12-19T08:49:53Z</time>
      </trkpt>
      <trkpt lat="47.93927" lon="-2.50214">
        <ele>77.7</ele>
        <time>2024-12-19T08:49:54Z</time>
      </trkpt>
      <trkpt lat="47.93926" lon="-2.50212">
        <ele>77.7</ele>
        <time>2024-12-19T08:49:55Z</time>
      </trkpt>
      <trkpt lat="47.93925" lon="-2.5021">
        <ele>77.7</ele>
        <time>2024-12-19T08:49:56Z</time>
      </trkpt>
      <trkpt lat="47.93925" lon="-2.50209">
        <ele>77.7</ele>
        <time>2024-12-19T08:49:57Z</time>
      </trkpt>
      <trkpt lat="47.93924" lon="-2.50207">
        <ele>77.6</ele>
        <time>2024-12-19T08:49:58Z</time>
      </trkpt>
      <trkpt lat="47.93923" lon="-2.50206">
        <ele>77.6</ele>
        <time>2024-12-19T08:49:59Z</time>
      </trkpt>
      <trkpt lat="47.93922" lon="-2.50205">
        <ele>77.6</ele>
        <time>2024-12-19T08:50:00Z</time>
      </trkpt>
      <trkpt lat="47.93922" lon="-2.50203">
        <ele>77.7</ele>
        <time>2024-12-19T08:50:01Z</time>
      </trkpt>
      <trkpt lat="47.93921" lon="-2.50202">
        <ele>77.7</ele>
        <time>2024-12-19T08:50:02Z</time>
      </trkpt>
      <trkpt lat="47.93921" lon="-2.50202">
        <ele>77.7</ele>
        <time>2024-12-19T08:50:03Z</time>
      </trkpt>
      <trkpt lat="47.93921" lon="-2.50202">
        <ele>77.6</ele>
        <time>2024-12-19T08:50:04Z</time>
      </trkpt>
      <trkpt lat="47.9392" lon="-2.50202">
        <ele>77.6</ele>
        <time>2024-12-19T08:50:05Z</time>
      </trkpt>
      <trkpt lat="47.9392" lon="-2.502">
        <ele>77.7</ele>
        <time>2024-12-19T08:50:06Z</time>
      </trkpt>
      <trkpt lat="47.93919" lon="-2.50198">
        <ele>77.9</ele>
        <time>2024-12-19T08:50:07Z</time>
      </trkpt>
      <trkpt lat="47.93918" lon="-2.50196">
        <ele>78</ele>
        <time>2024-12-19T08:50:08Z</time>
      </trkpt>
      <trkpt lat="47.93917" lon="-2.50194">
        <ele>78.1</ele>
        <time>2024-12-19T08:50:09Z</time>
      </trkpt>
      <trkpt lat="47.93916" lon="-2.50193">
        <ele>78.1</ele>
        <time>2024-12-19T08:50:10Z</time>
      </trkpt>
      <trkpt lat="47.93916" lon="-2.50192">
        <ele>78.1</ele>
        <time>2024-12-19T08:50:11Z</time>
      </trkpt>
      <trkpt lat="47.93915" lon="-2.50192">
        <ele>78</ele>
        <time>2024-12-19T08:50:12Z</time>
      </trkpt>
      <trkpt lat="47.93915" lon="-2.50191">
        <ele>78.1</ele>
        <time>2024-12-19T08:50:13Z</time>
      </trkpt>
      <trkpt lat="47.93914" lon="-2.50189">
        <ele>78.1</ele>
        <time>2024-12-19T08:50:14Z</time>
      </trkpt>
      <trkpt lat="47.93914" lon="-2.50189">
        <ele>78.1</ele>
        <time>2024-12-19T08:50:15Z</time>
      </trkpt>
      <trkpt lat="47.93914" lon="-2.50188">
        <ele>78.1</ele>
        <time>2024-12-19T08:50:16Z</time>
      </trkpt>
      <trkpt lat="47.93914" lon="-2.50187">
        <ele>78.2</ele>
        <time>2024-12-19T08:50:17Z</time>
      </trkpt>
      <trkpt lat="47.93913" lon="-2.50187">
        <ele>78.2</ele>
        <time>2024-12-19T08:50:18Z</time>
      </trkpt>
      <trkpt lat="47.93913" lon="-2.50185">
        <ele>78.2</ele>
        <time>2024-12-19T08:50:19Z</time>
      </trkpt>
      <trkpt lat="47.93912" lon="-2.50183">
        <ele>78.3</ele>
        <time>2024-12-19T08:50:20Z</time>
      </trkpt>
      <trkpt lat="47.93911" lon="-2.50181">
        <ele>78.4</ele>
        <time>2024-12-19T08:50:21Z</time>
      </trkpt>
      <trkpt lat="47.93911" lon="-2.50179">
        <ele>78.5</ele>
        <time>2024-12-19T08:50:22Z</time>
      </trkpt>
      <trkpt lat="47.9391" lon="-2.50176">
        <ele>78.5</ele>
        <time>2024-12-19T08:50:23Z</time>
      </trkpt>
      <trkpt lat="47.93909" lon="-2.50174">
        <ele>78.6</ele>
        <time>2024-12-19T08:50:24Z</time>
      </trkpt>
      <trkpt lat="47.93908" lon="-2.50172">
        <ele>78.7</ele>
        <time>2024-12-19T08:50:25Z</time>
      </trkpt>
      <trkpt lat="47.93908" lon="-2.5017">
        <ele>78.8</ele>
        <time>2024-12-19T08:50:26Z</time>
      </trkpt>
      <trkpt lat="47.93908" lon="-2.50169">
        <ele>78.8</ele>
        <time>2024-12-19T08:50:27Z</time>
      </trkpt>
      <trkpt lat="47.93907" lon="-2.50169">
        <ele>78.8</ele>
        <time>2024-12-19T08:50:28Z</time>
      </trkpt>
      <trkpt lat="47.93907" lon="-2.50168">
        <ele>78.9</ele>
        <time>2024-12-19T08:50:29Z</time>
      </trkpt>
      <trkpt lat="47.93907" lon="-2.50168">
        <ele>78.9</ele>
        <time>2024-12-19T08:50:30Z</time>
      </trkpt>
      <trkpt lat="47.93907" lon="-2.50167">
        <ele>78.9</ele>
        <time>2024-12-19T08:50:31Z</time>
      </trkpt>
      <trkpt lat="47.93906" lon="-2.50166">
        <ele>78.9</ele>
        <time>2024-12-19T08:50:32Z</time>
      </trkpt>
      <trkpt lat="47.93906" lon="-2.50164">
        <ele>78.9</ele>
        <time>2024-12-19T08:50:33Z</time>
      </trkpt>
      <trkpt lat="47.93906" lon="-2.50162">
        <ele>79</ele>
        <time>2024-12-19T08:50:34Z</time>
      </trkpt>
      <trkpt lat="47.93905" lon="-2.5016">
        <ele>79</ele>
        <time>2024-12-19T08:50:35Z</time>
      </trkpt>
      <trkpt lat="47.93905" lon="-2.50158">
        <ele>79</ele>
        <time>2024-12-19T08:50:36Z</time>
      </trkpt>
      <trkpt lat="47.93904" lon="-2.50155">
        <ele>79.1</ele>
        <time>2024-12-19T08:50:37Z</time>
      </trkpt>
      <trkpt lat="47.93904" lon="-2.50153">
        <ele>79.1</ele>
        <time>2024-12-19T08:50:38Z</time>
      </trkpt>
      <trkpt lat="47.93903" lon="-2.50151">
        <ele>79.1</ele>
        <time>2024-12-19T08:50:39Z</time>
      </trkpt>
      <trkpt lat="47.93903" lon="-2.50149">
        <ele>79.1</ele>
        <time>2024-12-19T08:50:40Z</time>
      </trkpt>
      <trkpt lat="47.93903" lon="-2.50148">
        <ele>79.2</ele>
        <time>2024-12-19T08:50:41Z</time>
      </trkpt>
      <trkpt lat="47.93902" lon="-2.50146">
        <ele>79.2</ele>
        <time>2024-12-19T08:50:42Z</time>
      </trkpt>
      <trkpt lat="47.93903" lon="-2.50144">
        <ele>79.3</ele>
        <time>2024-12-19T08:50:43Z</time>
      </trkpt>
      <trkpt lat="47.93903" lon="-2.50143">
        <ele>79.4</ele>
        <time>2024-12-19T08:50:44Z</time>
      </trkpt>
      <trkpt lat="47.93903" lon="-2.50142">
        <ele>79.4</ele>
        <time>2024-12-19T08:50:45Z</time>
      </trkpt>
      <trkpt lat="47.93904" lon="-2.50141">
        <ele>79.5</ele>
        <time>2024-12-19T08:50:46Z</time>
      </trkpt>
      <trkpt lat="47.93904" lon="-2.5014">
        <ele>79.6</ele>
        <time>2024-12-19T08:50:47Z</time>
      </trkpt>
      <trkpt lat="47.93904" lon="-2.50139">
        <ele>79.6</ele>
        <time>2024-12-19T08:50:48Z</time>
      </trkpt>
      <trkpt lat="47.93904" lon="-2.50137">
        <ele>79.7</ele>
        <time>2024-12-19T08:50:49Z</time>
      </trkpt>
      <trkpt lat="47.93903" lon="-2.50136">
        <ele>79.6</ele>
        <time>2024-12-19T08:50:50Z</time>
      </trkpt>
      <trkpt lat="47.93903" lon="-2.50135">
        <ele>79.6</ele>
        <time>2024-12-19T08:50:51Z</time>
      </trkpt>
      <trkpt lat="47.93902" lon="-2.50133">
        <ele>79.6</ele>
        <time>2024-12-19T08:50:52Z</time>
      </trkpt>
      <trkpt lat="47.93902" lon="-2.50131">
        <ele>79.7</ele>
        <time>2024-12-19T08:50:53Z</time>
      </trkpt>
      <trkpt lat="47.93902" lon="-2.50129">
        <ele>79.8</ele>
        <time>2024-12-19T08:50:54Z</time>
      </trkpt>
      <trkpt lat="47.93901" lon="-2.50127">
        <ele>79.8</ele>
        <time>2024-12-19T08:50:55Z</time>
      </trkpt>
      <trkpt lat="47.93901" lon="-2.50126">
        <ele>79.8</ele>
        <time>2024-12-19T08:50:56Z</time>
      </trkpt>
      <trkpt lat="47.93901" lon="-2.50124">
        <ele>79.9</ele>
        <time>2024-12-19T08:50:57Z</time>
      </trkpt>
      <trkpt lat="47.939" lon="-2.50122">
        <ele>79.9</ele>
        <time>2024-12-19T08:50:58Z</time>
      </trkpt>
      <trkpt lat="47.939" lon="-2.50121">
        <ele>80</ele>
        <time>2024-12-19T08:50:59Z</time>
      </trkpt>
      <trkpt lat="47.93899" lon="-2.5012">
        <ele>80</ele>
        <time>2024-12-19T08:51:00Z</time>
      </trkpt>
      <trkpt lat="47.93899" lon="-2.50118">
        <ele>80.1</ele>
        <time>2024-12-19T08:51:01Z</time>
      </trkpt>
      <trkpt lat="47.93899" lon="-2.50116">
        <ele>80.1</ele>
        <time>2024-12-19T08:51:02Z</time>
      </trkpt>
      <trkpt lat="47.93898" lon="-2.50115">
        <ele>80.1</ele>
        <time>2024-12-19T08:51:03Z</time>
      </trkpt>
      <trkpt lat="47.93897" lon="-2.50114">
        <ele>80.1</ele>
        <time>2024-12-19T08:51:04Z</time>
      </trkpt>
      <trkpt lat="47.93896" lon="-2.50113">
        <ele>80.2</ele>
        <time>2024-12-19T08:51:05Z</time>
      </trkpt>
      <trkpt lat="47.93895" lon="-2.50112">
        <ele>80.2</ele>
        <time>2024-12-19T08:51:06Z</time>
      </trkpt>
      <trkpt lat="47.93894" lon="-2.5011">
        <ele>80.2</ele>
        <time>2024-12-19T08:51:07Z</time>
      </trkpt>
      <trkpt lat="47.93894" lon="-2.50108">
        <ele>80.3</ele>
        <time>2024-12-19T08:51:08Z</time>
      </trkpt>
      <trkpt lat="47.93893" lon="-2.50106">
        <ele>80.3</ele>
        <time>2024-12-19T08:51:09Z</time>
      </trkpt>
      <trkpt lat="47.93893" lon="-2.50105">
        <ele>80.4</ele>
        <time>2024-12-19T08:51:10Z</time>
      </trkpt>
      <trkpt lat="47.93892" lon="-2.50103">
        <ele>80.4</ele>
        <time>2024-12-19T08:51:11Z</time>
      </trkpt>
      <trkpt lat="47.93892" lon="-2.50101">
        <ele>80.5</ele>
        <time>2024-12-19T08:51:12Z</time>
      </trkpt>
      <trkpt lat="47.93891" lon="-2.501">
        <ele>80.5</ele>
        <time>2024-12-19T08:51:13Z</time>
      </trkpt>
      <trkpt lat="47.93891" lon="-2.50098">
        <ele>80.5</ele>
        <time>2024-12-19T08:51:14Z</time>
      </trkpt>
      <trkpt lat="47.9389" lon="-2.50097">
        <ele>80.6</ele>
        <time>2024-12-19T08:51:15Z</time>
      </trkpt>
      <trkpt lat="47.9389" lon="-2.50095">
        <ele>80.6</ele>
        <time>2024-12-19T08:51:16Z</time>
      </trkpt>
      <trkpt lat="47.93889" lon="-2.50094">
        <ele>80.6</ele>
        <time>2024-12-19T08:51:17Z</time>
      </trkpt>
      <trkpt lat="47.93889" lon="-2.50092">
        <ele>80.7</ele>
        <time>2024-12-19T08:51:18Z</time>
      </trkpt>
      <trkpt lat="47.93888" lon="-2.50091">
        <ele>80.7</ele>
        <time>2024-12-19T08:51:19Z</time>
      </trkpt>
      <trkpt lat="47.93888" lon="-2.50089">
        <ele>80.8</ele>
        <time>2024-12-19T08:51:20Z</time>
      </trkpt>
      <trkpt lat="47.93887" lon="-2.50087">
        <ele>80.9</ele>
        <time>2024-12-19T08:51:21Z</time>
      </trkpt>
      <trkpt lat="47.93887" lon="-2.50086">
        <ele>80.9</ele>
        <time>2024-12-19T08:51:22Z</time>
      </trkpt>
      <trkpt lat="47.93886" lon="-2.50083">
        <ele>81</ele>
        <time>2024-12-19T08:51:23Z</time>
      </trkpt>
      <trkpt lat="47.93885" lon="-2.50082">
        <ele>81.1</ele>
        <time>2024-12-19T08:51:24Z</time>
      </trkpt>
      <trkpt lat="47.93884" lon="-2.50079">
        <ele>81.1</ele>
        <time>2024-12-19T08:51:25Z</time>
      </trkpt>
      <trkpt lat="47.93883" lon="-2.50077">
        <ele>81.2</ele>
        <time>2024-12-19T08:51:26Z</time>
      </trkpt>
      <trkpt lat="47.93883" lon="-2.50076">
        <ele>81.3</ele>
        <time>2024-12-19T08:51:27Z</time>
      </trkpt>
      <trkpt lat="47.93882" lon="-2.50074">
        <ele>81.3</ele>
        <time>2024-12-19T08:51:28Z</time>
      </trkpt>
      <trkpt lat="47.93881" lon="-2.50072">
        <ele>81.4</ele>
        <time>2024-12-19T08:51:29Z</time>
      </trkpt>
      <trkpt lat="47.9388" lon="-2.50071">
        <ele>81.5</ele>
        <time>2024-12-19T08:51:30Z</time>
      </trkpt>
      <trkpt lat="47.93879" lon="-2.50069">
        <ele>81.5</ele>
        <time>2024-12-19T08:51:31Z</time>
      </trkpt>
      <trkpt lat="47.93879" lon="-2.50068">
        <ele>81.6</ele>
        <time>2024-12-19T08:51:32Z</time>
      </trkpt>
      <trkpt lat="47.93878" lon="-2.50066">
        <ele>81.6</ele>
        <time>2024-12-19T08:51:33Z</time>
      </trkpt>
      <trkpt lat="47.93878" lon="-2.50065">
        <ele>81.6</ele>
        <time>2024-12-19T08:51:34Z</time>
      </trkpt>
      <trkpt lat="47.93878" lon="-2.50066">
        <ele>81.6</ele>
        <time>2024-12-19T08:51:35Z</time>
      </trkpt>
      <trkpt lat="47.93878" lon="-2.50065">
        <ele>81.6</ele>
        <time>2024-12-19T08:51:36Z</time>
      </trkpt>
      <trkpt lat="47.93878" lon="-2.50066">
        <ele>81.6</ele>
        <time>2024-12-19T08:51:37Z</time>
      </trkpt>
      <trkpt lat="47.93878" lon="-2.50066">
        <ele>81.6</ele>
        <time>2024-12-19T08:51:38Z</time>
      </trkpt>
      <trkpt lat="47.93878" lon="-2.50065">
        <ele>81.6</ele>
        <time>2024-12-19T08:51:39Z</time>
      </trkpt>
      <trkpt lat="47.93878" lon="-2.50065">
        <ele>81.6</ele>
        <time>2024-12-19T08:51:40Z</time>
      </trkpt>
      <trkpt lat="47.93878" lon="-2.50065">
        <ele>81.7</ele>
        <time>2024-12-19T08:51:41Z</time>
      </trkpt>
      <trkpt lat="47.93878" lon="-2.50066">
        <ele>81.6</ele>
        <time>2024-12-19T08:51:42Z</time>
      </trkpt>
      <trkpt lat="47.93877" lon="-2.50066">
        <ele>81.6</ele>
        <time>2024-12-19T08:51:43Z</time>
      </trkpt>
      <trkpt lat="47.93877" lon="-2.50066">
        <ele>81.6</ele>
        <time>2024-12-19T08:51:44Z</time>
      </trkpt>
      <trkpt lat="47.93877" lon="-2.50066">
        <ele>81.6</ele>
        <time>2024-12-19T08:51:45Z</time>
      </trkpt>
      <trkpt lat="47.93877" lon="-2.50066">
        <ele>81.6</ele>
        <time>2024-12-19T08:51:46Z</time>
      </trkpt>
      <trkpt lat="47.93877" lon="-2.50066">
        <ele>81.6</ele>
        <time>2024-12-19T08:51:47Z</time>
      </trkpt>
      <trkpt lat="47.93876" lon="-2.50066">
        <ele>81.6</ele>
        <time>2024-12-19T08:51:48Z</time>
      </trkpt>
      <trkpt lat="47.93876" lon="-2.50066">
        <ele>81.6</ele>
        <time>2024-12-19T08:51:49Z</time>
      </trkpt>
      <trkpt lat="47.93876" lon="-2.50066">
        <ele>81.6</ele>
        <time>2024-12-19T08:51:50Z</time>
      </trkpt>
      <trkpt lat="47.93876" lon="-2.50065">
        <ele>81.7</ele>
        <time>2024-12-19T08:51:51Z</time>
      </trkpt>
      <trkpt lat="47.93876" lon="-2.50064">
        <ele>81.7</ele>
        <time>2024-12-19T08:51:52Z</time>
      </trkpt>
      <trkpt lat="47.93876" lon="-2.50063">
        <ele>81.7</ele>
        <time>2024-12-19T08:51:53Z</time>
      </trkpt>
      <trkpt lat="47.93876" lon="-2.50063">
        <ele>81.7</ele>
        <time>2024-12-19T08:51:54Z</time>
      </trkpt>
      <trkpt lat="47.93876" lon="-2.50063">
        <ele>81.7</ele>
        <time>2024-12-19T08:51:55Z</time>
      </trkpt>
      <trkpt lat="47.93876" lon="-2.50064">
        <ele>81.7</ele>
        <time>2024-12-19T08:51:56Z</time>
      </trkpt>
      <trkpt lat="47.93876" lon="-2.50063">
        <ele>81.7</ele>
        <time>2024-12-19T08:51:57Z</time>
      </trkpt>
      <trkpt lat="47.93876" lon="-2.50063">
        <ele>81.7</ele>
        <time>2024-12-19T08:51:58Z</time>
      </trkpt>
      <trkpt lat="47.93876" lon="-2.50063">
        <ele>81.7</ele>
        <time>2024-12-19T08:51:59Z</time>
      </trkpt>
      <trkpt lat="47.93876" lon="-2.50063">
        <ele>81.7</ele>
        <time>2024-12-19T08:52:00Z</time>
      </trkpt>
      <trkpt lat="47.93876" lon="-2.50063">
        <ele>81.7</ele>
        <time>2024-12-19T08:52:01Z</time>
      </trkpt>
      <trkpt lat="47.93877" lon="-2.50064">
        <ele>81.7</ele>
        <time>2024-12-19T08:52:02Z</time>
      </trkpt>
      <trkpt lat="47.93877" lon="-2.50064">
        <ele>81.7</ele>
        <time>2024-12-19T08:52:03Z</time>
      </trkpt>
      <trkpt lat="47.93877" lon="-2.50064">
        <ele>81.7</ele>
        <time>2024-12-19T08:52:04Z</time>
      </trkpt>
      <trkpt lat="47.93877" lon="-2.50064">
        <ele>81.7</ele>
        <time>2024-12-19T08:52:05Z</time>
      </trkpt>
      <trkpt lat="47.93877" lon="-2.50064">
        <ele>81.7</ele>
        <time>2024-12-19T08:52:06Z</time>
      </trkpt>
      <trkpt lat="47.93877" lon="-2.50064">
        <ele>81.7</ele>
        <time>2024-12-19T08:52:07Z</time>
      </trkpt>
      <trkpt lat="47.93877" lon="-2.50064">
        <ele>81.7</ele>
        <time>2024-12-19T08:52:10Z</time>
      </trkpt>
      <trkpt lat="47.93877" lon="-2.50064">
        <ele>81.7</ele>
        <time>2024-12-19T08:52:11Z</time>
      </trkpt>
      <trkpt lat="47.93877" lon="-2.50064">
        <ele>81.7</ele>
        <time>2024-12-19T08:52:12Z</time>
      </trkpt>
      <trkpt lat="47.93876" lon="-2.50064">
        <ele>81.7</ele>
        <time>2024-12-19T08:52:13Z</time>
      </trkpt>
      <trkpt lat="47.93876" lon="-2.50064">
        <ele>81.7</ele>
        <time>2024-12-19T08:52:14Z</time>
      </trkpt>
      <trkpt lat="47.93876" lon="-2.50064">
        <ele>81.7</ele>
        <time>2024-12-19T08:52:15Z</time>
      </trkpt>
      <trkpt lat="47.93876" lon="-2.50064">
        <ele>81.7</ele>
        <time>2024-12-19T08:52:16Z</time>
      </trkpt>
      <trkpt lat="47.93876" lon="-2.50064">
        <ele>81.7</ele>
        <time>2024-12-19T08:52:17Z</time>
      </trkpt>
      <trkpt lat="47.93876" lon="-2.50064">
        <ele>81.7</ele>
        <time>2024-12-19T08:52:18Z</time>
      </trkpt>
      <trkpt lat="47.93876" lon="-2.50064">
        <ele>81.7</ele>
        <time>2024-12-19T08:52:19Z</time>
      </trkpt>
      <trkpt lat="47.93876" lon="-2.50064">
        <ele>81.7</ele>
        <time>2024-12-19T08:52:20Z</time>
      </trkpt>
      <trkpt lat="47.93876" lon="-2.50064">
        <ele>81.7</ele>
        <time>2024-12-19T08:52:21Z</time>
      </trkpt>
      <trkpt lat="47.93876" lon="-2.50064">
        <ele>81.7</ele>
        <time>2024-12-19T08:52:22Z</time>
      </trkpt>
      <trkpt lat="47.93876" lon="-2.50064">
        <ele>81.7</ele>
        <time>2024-12-19T08:52:23Z</time>
      </trkpt>
      <trkpt lat="47.93876" lon="-2.50064">
        <ele>81.7</ele>
        <time>2024-12-19T08:52:24Z</time>
      </trkpt>
      <trkpt lat="47.93876" lon="-2.50064">
        <ele>81.7</ele>
        <time>2024-12-19T08:52:25Z</time>
      </trkpt>
      <trkpt lat="47.93876" lon="-2.50064">
        <ele>81.7</ele>
        <time>2024-12-19T08:52:26Z</time>
      </trkpt>
      <trkpt lat="47.93876" lon="-2.50064">
        <ele>81.7</ele>
        <time>2024-12-19T08:52:27Z</time>
      </trkpt>
      <trkpt lat="47.93876" lon="-2.50064">
        <ele>81.7</ele>
        <time>2024-12-19T08:52:28Z</time>
      </trkpt>
      <trkpt lat="47.93876" lon="-2.50064">
        <ele>81.7</ele>
        <time>2024-12-19T08:52:29Z</time>
      </trkpt>
      <trkpt lat="47.93876" lon="-2.50064">
        <ele>81.7</ele>
        <time>2024-12-19T08:52:30Z</time>
      </trkpt>
      <trkpt lat="47.93876" lon="-2.50064">
        <ele>81.7</ele>
        <time>2024-12-19T08:52:31Z</time>
      </trkpt>
      <trkpt lat="47.93876" lon="-2.50064">
        <ele>81.7</ele>
        <time>2024-12-19T08:52:32Z</time>
      </trkpt>
      <trkpt lat="47.93876" lon="-2.50064">
        <ele>81.7</ele>
        <time>2024-12-19T08:52:33Z</time>
      </trkpt>
      <trkpt lat="47.93876" lon="-2.50064">
        <ele>81.7</ele>
        <time>2024-12-19T08:52:34Z</time>
      </trkpt>
      <trkpt lat="47.93876" lon="-2.50064">
        <ele>81.7</ele>
        <time>2024-12-19T08:52:35Z</time>
      </trkpt>
      <trkpt lat="47.93876" lon="-2.50064">
        <ele>81.7</ele>
        <time>2024-12-19T08:52:36Z</time>
      </trkpt>
      <trkpt lat="47.93876" lon="-2.50064">
        <ele>81.7</ele>
        <time>2024-12-19T08:52:37Z</time>
      </trkpt>
      <trkpt lat="47.93876" lon="-2.50064">
        <ele>81.7</ele>
        <time>2024-12-19T08:52:38Z</time>
      </trkpt>
      <trkpt lat="47.93876" lon="-2.50064">
        <ele>81.7</ele>
        <time>2024-12-19T08:52:39Z</time>
      </trkpt>
      <trkpt lat="47.93876" lon="-2.50064">
        <ele>81.7</ele>
        <time>2024-12-19T08:52:40Z</time>
      </trkpt>
      <trkpt lat="47.93876" lon="-2.50064">
        <ele>81.7</ele>
        <time>2024-12-19T08:52:41Z</time>
      </trkpt>
      <trkpt lat="47.93876" lon="-2.50064">
        <ele>81.7</ele>
        <time>2024-12-19T08:52:42Z</time>
      </trkpt>
      <trkpt lat="47.93876" lon="-2.50064">
        <ele>81.7</ele>
        <time>2024-12-19T08:52:43Z</time>
      </trkpt>
      <trkpt lat="47.93876" lon="-2.50064">
        <ele>81.7</ele>
        <time>2024-12-19T08:52:44Z</time>
      </trkpt>
      <trkpt lat="47.93876" lon="-2.50064">
        <ele>81.7</ele>
        <time>2024-12-19T08:52:45Z</time>
      </trkpt>
      <trkpt lat="47.93876" lon="-2.50064">
        <ele>81.7</ele>
        <time>2024-12-19T08:52:46Z</time>
      </trkpt>
      <trkpt lat="47.93876" lon="-2.50064">
        <ele>81.7</ele>
        <time>2024-12-19T08:52:47Z</time>
      </trkpt>
      <trkpt lat="47.93876" lon="-2.50064">
        <ele>81.7</ele>
        <time>2024-12-19T08:52:48Z</time>
      </trkpt>
      <trkpt lat="47.93876" lon="-2.50064">
        <ele>81.7</ele>
        <time>2024-12-19T08:52:49Z</time>
      </trkpt>
      <trkpt lat="47.93876" lon="-2.50063">
        <ele>81.7</ele>
        <time>2024-12-19T08:52:50Z</time>
      </trkpt>
      <trkpt lat="47.93875" lon="-2.50063">
        <ele>81.8</ele>
        <time>2024-12-19T08:52:51Z</time>
      </trkpt>
      <trkpt lat="47.93875" lon="-2.50062">
        <ele>81.8</ele>
        <time>2024-12-19T08:52:52Z</time>
      </trkpt>
      <trkpt lat="47.93874" lon="-2.50061">
        <ele>81.8</ele>
        <time>2024-12-19T08:52:53Z</time>
      </trkpt>
      <trkpt lat="47.93874" lon="-2.5006">
        <ele>81.9</ele>
        <time>2024-12-19T08:52:54Z</time>
      </trkpt>
      <trkpt lat="47.93873" lon="-2.50059">
        <ele>81.9</ele>
        <time>2024-12-19T08:52:55Z</time>
      </trkpt>
      <trkpt lat="47.93874" lon="-2.50059">
        <ele>81.9</ele>
        <time>2024-12-19T08:52:56Z</time>
      </trkpt>
      <trkpt lat="47.93873" lon="-2.50059">
        <ele>81.9</ele>
        <time>2024-12-19T08:52:57Z</time>
      </trkpt>
      <trkpt lat="47.93873" lon="-2.50059">
        <ele>81.9</ele>
        <time>2024-12-19T08:52:58Z</time>
      </trkpt>
      <trkpt lat="47.93873" lon="-2.50058">
        <ele>81.9</ele>
        <time>2024-12-19T08:52:59Z</time>
      </trkpt>
      <trkpt lat="47.93873" lon="-2.50057">
        <ele>81.9</ele>
        <time>2024-12-19T08:53:00Z</time>
      </trkpt>
      <trkpt lat="47.93872" lon="-2.50056">
        <ele>82</ele>
        <time>2024-12-19T08:53:01Z</time>
      </trkpt>
      <trkpt lat="47.93871" lon="-2.50055">
        <ele>82</ele>
        <time>2024-12-19T08:53:02Z</time>
      </trkpt>
      <trkpt lat="47.93871" lon="-2.50054">
        <ele>82.1</ele>
        <time>2024-12-19T08:53:03Z</time>
      </trkpt>
      <trkpt lat="47.93871" lon="-2.50053">
        <ele>82.2</ele>
        <time>2024-12-19T08:53:04Z</time>
      </trkpt>
      <trkpt lat="47.9387" lon="-2.50053">
        <ele>82.2</ele>
        <time>2024-12-19T08:53:05Z</time>
      </trkpt>
      <trkpt lat="47.93869" lon="-2.50052">
        <ele>82.2</ele>
        <time>2024-12-19T08:53:06Z</time>
      </trkpt>
      <trkpt lat="47.93867" lon="-2.50052">
        <ele>82.3</ele>
        <time>2024-12-19T08:53:07Z</time>
      </trkpt>
      <trkpt lat="47.93866" lon="-2.50051">
        <ele>82.3</ele>
        <time>2024-12-19T08:53:08Z</time>
      </trkpt>
      <trkpt lat="47.93864" lon="-2.50052">
        <ele>82.3</ele>
        <time>2024-12-19T08:53:09Z</time>
      </trkpt>
      <trkpt lat="47.93863" lon="-2.50052">
        <ele>82.3</ele>
        <time>2024-12-19T08:53:10Z</time>
      </trkpt>
      <trkpt lat="47.93862" lon="-2.50052">
        <ele>82.2</ele>
        <time>2024-12-19T08:53:11Z</time>
      </trkpt>
      <trkpt lat="47.93861" lon="-2.50052">
        <ele>82.2</ele>
        <time>2024-12-19T08:53:12Z</time>
      </trkpt>
      <trkpt lat="47.93859" lon="-2.50052">
        <ele>82.2</ele>
        <time>2024-12-19T08:53:13Z</time>
      </trkpt>
      <trkpt lat="47.93858" lon="-2.50053">
        <ele>82.2</ele>
        <time>2024-12-19T08:53:14Z</time>
      </trkpt>
      <trkpt lat="47.93856" lon="-2.50053">
        <ele>82.2</ele>
        <time>2024-12-19T08:53:15Z</time>
      </trkpt>
      <trkpt lat="47.93855" lon="-2.50053">
        <ele>82.2</ele>
        <time>2024-12-19T08:53:16Z</time>
      </trkpt>
      <trkpt lat="47.93854" lon="-2.50053">
        <ele>82.2</ele>
        <time>2024-12-19T08:53:17Z</time>
      </trkpt>
      <trkpt lat="47.93853" lon="-2.50053">
        <ele>82.2</ele>
        <time>2024-12-19T08:53:18Z</time>
      </trkpt>
      <trkpt lat="47.93851" lon="-2.50053">
        <ele>82.2</ele>
        <time>2024-12-19T08:53:19Z</time>
      </trkpt>
      <trkpt lat="47.9385" lon="-2.50053">
        <ele>82.2</ele>
        <time>2024-12-19T08:53:20Z</time>
      </trkpt>
      <trkpt lat="47.93849" lon="-2.50053">
        <ele>82.2</ele>
        <time>2024-12-19T08:53:21Z</time>
      </trkpt>
      <trkpt lat="47.93848" lon="-2.50053">
        <ele>82.2</ele>
        <time>2024-12-19T08:53:22Z</time>
      </trkpt>
      <trkpt lat="47.93847" lon="-2.50053">
        <ele>82.2</ele>
        <time>2024-12-19T08:53:23Z</time>
      </trkpt>
      <trkpt lat="47.93846" lon="-2.50053">
        <ele>82.3</ele>
        <time>2024-12-19T08:53:24Z</time>
      </trkpt>
      <trkpt lat="47.93844" lon="-2.50053">
        <ele>82.3</ele>
        <time>2024-12-19T08:53:25Z</time>
      </trkpt>
      <trkpt lat="47.93843" lon="-2.50053">
        <ele>82.3</ele>
        <time>2024-12-19T08:53:26Z</time>
      </trkpt>
      <trkpt lat="47.93842" lon="-2.50053">
        <ele>82.3</ele>
        <time>2024-12-19T08:53:27Z</time>
      </trkpt>
      <trkpt lat="47.9384" lon="-2.50053">
        <ele>82.3</ele>
        <time>2024-12-19T08:53:28Z</time>
      </trkpt>
      <trkpt lat="47.93839" lon="-2.50053">
        <ele>82.3</ele>
        <time>2024-12-19T08:53:29Z</time>
      </trkpt>
      <trkpt lat="47.93837" lon="-2.50053">
        <ele>82.2</ele>
        <time>2024-12-19T08:53:30Z</time>
      </trkpt>
      <trkpt lat="47.93836" lon="-2.50053">
        <ele>82.2</ele>
        <time>2024-12-19T08:53:31Z</time>
      </trkpt>
      <trkpt lat="47.93835" lon="-2.50053">
        <ele>82.3</ele>
        <time>2024-12-19T08:53:32Z</time>
      </trkpt>
      <trkpt lat="47.93835" lon="-2.50052">
        <ele>82.3</ele>
        <time>2024-12-19T08:53:33Z</time>
      </trkpt>
      <trkpt lat="47.93834" lon="-2.50052">
        <ele>82.4</ele>
        <time>2024-12-19T08:53:34Z</time>
      </trkpt>
      <trkpt lat="47.93833" lon="-2.50052">
        <ele>82.4</ele>
        <time>2024-12-19T08:53:35Z</time>
      </trkpt>
      <trkpt lat="47.93831" lon="-2.50051">
        <ele>82.5</ele>
        <time>2024-12-19T08:53:36Z</time>
      </trkpt>
      <trkpt lat="47.9383" lon="-2.50051">
        <ele>82.5</ele>
        <time>2024-12-19T08:53:37Z</time>
      </trkpt>
      <trkpt lat="47.93829" lon="-2.50052">
        <ele>82.5</ele>
        <time>2024-12-19T08:53:38Z</time>
      </trkpt>
      <trkpt lat="47.93828" lon="-2.50051">
        <ele>82.6</ele>
        <time>2024-12-19T08:53:39Z</time>
      </trkpt>
      <trkpt lat="47.93827" lon="-2.50051">
        <ele>82.7</ele>
        <time>2024-12-19T08:53:40Z</time>
      </trkpt>
      <trkpt lat="47.93826" lon="-2.5005">
        <ele>82.8</ele>
        <time>2024-12-19T08:53:41Z</time>
      </trkpt>
      <trkpt lat="47.93824" lon="-2.50049">
        <ele>82.9</ele>
        <time>2024-12-19T08:53:42Z</time>
      </trkpt>
      <trkpt lat="47.93823" lon="-2.50048">
        <ele>83</ele>
        <time>2024-12-19T08:53:43Z</time>
      </trkpt>
      <trkpt lat="47.93822" lon="-2.50047">
        <ele>83.1</ele>
        <time>2024-12-19T08:53:44Z</time>
      </trkpt>
      <trkpt lat="47.93821" lon="-2.50046">
        <ele>83.1</ele>
        <time>2024-12-19T08:53:45Z</time>
      </trkpt>
      <trkpt lat="47.9382" lon="-2.50045">
        <ele>83.2</ele>
        <time>2024-12-19T08:53:46Z</time>
      </trkpt>
      <trkpt lat="47.93818" lon="-2.50045">
        <ele>83.3</ele>
        <time>2024-12-19T08:53:47Z</time>
      </trkpt>
      <trkpt lat="47.93817" lon="-2.50044">
        <ele>83.3</ele>
        <time>2024-12-19T08:53:48Z</time>
      </trkpt>
      <trkpt lat="47.93816" lon="-2.50044">
        <ele>83.4</ele>
        <time>2024-12-19T08:53:49Z</time>
      </trkpt>
      <trkpt lat="47.93815" lon="-2.50043">
        <ele>83.4</ele>
        <time>2024-12-19T08:53:50Z</time>
      </trkpt>
      <trkpt lat="47.93814" lon="-2.50043">
        <ele>83.5</ele>
        <time>2024-12-19T08:53:51Z</time>
      </trkpt>
      <trkpt lat="47.93813" lon="-2.50041">
        <ele>83.5</ele>
        <time>2024-12-19T08:53:52Z</time>
      </trkpt>
      <trkpt lat="47.93812" lon="-2.5004">
        <ele>83.6</ele>
        <time>2024-12-19T08:53:53Z</time>
      </trkpt>
      <trkpt lat="47.93812" lon="-2.50039">
        <ele>83.7</ele>
        <time>2024-12-19T08:53:54Z</time>
      </trkpt>
      <trkpt lat="47.93811" lon="-2.50037">
        <ele>83.7</ele>
        <time>2024-12-19T08:53:55Z</time>
      </trkpt>
      <trkpt lat="47.9381" lon="-2.50036">
        <ele>83.8</ele>
        <time>2024-12-19T08:53:56Z</time>
      </trkpt>
      <trkpt lat="47.93809" lon="-2.50031">
        <ele>84</ele>
        <time>2024-12-19T08:53:58Z</time>
      </trkpt>
      <trkpt lat="47.93809" lon="-2.50029">
        <ele>84.1</ele>
        <time>2024-12-19T08:53:59Z</time>
      </trkpt>
      <trkpt lat="47.93809" lon="-2.50027">
        <ele>84.1</ele>
        <time>2024-12-19T08:54:00Z</time>
      </trkpt>
      <trkpt lat="47.93808" lon="-2.50026">
        <ele>84.2</ele>
        <time>2024-12-19T08:54:01Z</time>
      </trkpt>
      <trkpt lat="47.93808" lon="-2.50024">
        <ele>84.2</ele>
        <time>2024-12-19T08:54:02Z</time>
      </trkpt>
      <trkpt lat="47.93807" lon="-2.50022">
        <ele>84.2</ele>
        <time>2024-12-19T08:54:03Z</time>
      </trkpt>
      <trkpt lat="47.93807" lon="-2.5002">
        <ele>84.3</ele>
        <time>2024-12-19T08:54:04Z</time>
      </trkpt>
      <trkpt lat="47.93807" lon="-2.50018">
        <ele>84.4</ele>
        <time>2024-12-19T08:54:05Z</time>
      </trkpt>
      <trkpt lat="47.93807" lon="-2.50016">
        <ele>84.4</ele>
        <time>2024-12-19T08:54:06Z</time>
      </trkpt>
      <trkpt lat="47.93808" lon="-2.50014">
        <ele>84.5</ele>
        <time>2024-12-19T08:54:07Z</time>
      </trkpt>
      <trkpt lat="47.93808" lon="-2.50012">
        <ele>84.6</ele>
        <time>2024-12-19T08:54:08Z</time>
      </trkpt>
      <trkpt lat="47.93808" lon="-2.5001">
        <ele>84.6</ele>
        <time>2024-12-19T08:54:09Z</time>
      </trkpt>
      <trkpt lat="47.93808" lon="-2.50008">
        <ele>84.7</ele>
        <time>2024-12-19T08:54:10Z</time>
      </trkpt>
      <trkpt lat="47.93808" lon="-2.50006">
        <ele>84.7</ele>
        <time>2024-12-19T08:54:11Z</time>
      </trkpt>
      <trkpt lat="47.93809" lon="-2.50005">
        <ele>84.8</ele>
        <time>2024-12-19T08:54:12Z</time>
      </trkpt>
      <trkpt lat="47.93809" lon="-2.50003">
        <ele>84.8</ele>
        <time>2024-12-19T08:54:13Z</time>
      </trkpt>
      <trkpt lat="47.93809" lon="-2.50001">
        <ele>84.9</ele>
        <time>2024-12-19T08:54:14Z</time>
      </trkpt>
      <trkpt lat="47.93809" lon="-2.49999">
        <ele>84.9</ele>
        <time>2024-12-19T08:54:15Z</time>
      </trkpt>
      <trkpt lat="47.93809" lon="-2.49998">
        <ele>84.9</ele>
        <time>2024-12-19T08:54:16Z</time>
      </trkpt>
      <trkpt lat="47.93809" lon="-2.49996">
        <ele>84.9</ele>
        <time>2024-12-19T08:54:17Z</time>
      </trkpt>
      <trkpt lat="47.9381" lon="-2.49995">
        <ele>84.9</ele>
        <time>2024-12-19T08:54:18Z</time>
      </trkpt>
      <trkpt lat="47.9381" lon="-2.49994">
        <ele>84.9</ele>
        <time>2024-12-19T08:54:19Z</time>
      </trkpt>
      <trkpt lat="47.9381" lon="-2.49992">
        <ele>84.9</ele>
        <time>2024-12-19T08:54:20Z</time>
      </trkpt>
      <trkpt lat="47.9381" lon="-2.49991">
        <ele>84.9</ele>
        <time>2024-12-19T08:54:21Z</time>
      </trkpt>
      <trkpt lat="47.93811" lon="-2.4999">
        <ele>84.9</ele>
        <time>2024-12-19T08:54:22Z</time>
      </trkpt>
      <trkpt lat="47.93811" lon="-2.49988">
        <ele>84.9</ele>
        <time>2024-12-19T08:54:23Z</time>
      </trkpt>
      <trkpt lat="47.93812" lon="-2.49986">
        <ele>84.9</ele>
        <time>2024-12-19T08:54:24Z</time>
      </trkpt>
      <trkpt lat="47.93812" lon="-2.49984">
        <ele>84.9</ele>
        <time>2024-12-19T08:54:25Z</time>
      </trkpt>
      <trkpt lat="47.93813" lon="-2.49982">
        <ele>84.9</ele>
        <time>2024-12-19T08:54:26Z</time>
      </trkpt>
      <trkpt lat="47.93813" lon="-2.4998">
        <ele>84.9</ele>
        <time>2024-12-19T08:54:27Z</time>
      </trkpt>
      <trkpt lat="47.93813" lon="-2.49978">
        <ele>84.9</ele>
        <time>2024-12-19T08:54:28Z</time>
      </trkpt>
      <trkpt lat="47.93814" lon="-2.49977">
        <ele>85</ele>
        <time>2024-12-19T08:54:29Z</time>
      </trkpt>
      <trkpt lat="47.93814" lon="-2.49975">
        <ele>85</ele>
        <time>2024-12-19T08:54:30Z</time>
      </trkpt>
      <trkpt lat="47.93814" lon="-2.49974">
        <ele>85</ele>
        <time>2024-12-19T08:54:31Z</time>
      </trkpt>
      <trkpt lat="47.93814" lon="-2.49972">
        <ele>85</ele>
        <time>2024-12-19T08:54:32Z</time>
      </trkpt>
      <trkpt lat="47.93814" lon="-2.49971">
        <ele>85</ele>
        <time>2024-12-19T08:54:33Z</time>
      </trkpt>
      <trkpt lat="47.93814" lon="-2.49969">
        <ele>85.1</ele>
        <time>2024-12-19T08:54:34Z</time>
      </trkpt>
      <trkpt lat="47.93814" lon="-2.49967">
        <ele>85.1</ele>
        <time>2024-12-19T08:54:35Z</time>
      </trkpt>
      <trkpt lat="47.93814" lon="-2.49964">
        <ele>85.2</ele>
        <time>2024-12-19T08:54:36Z</time>
      </trkpt>
      <trkpt lat="47.93814" lon="-2.49962">
        <ele>85.3</ele>
        <time>2024-12-19T08:54:37Z</time>
      </trkpt>
      <trkpt lat="47.93815" lon="-2.49959">
        <ele>85.3</ele>
        <time>2024-12-19T08:54:38Z</time>
      </trkpt>
      <trkpt lat="47.93815" lon="-2.49957">
        <ele>85.4</ele>
        <time>2024-12-19T08:54:39Z</time>
      </trkpt>
      <trkpt lat="47.93816" lon="-2.49955">
        <ele>85.4</ele>
        <time>2024-12-19T08:54:40Z</time>
      </trkpt>
      <trkpt lat="47.93816" lon="-2.49953">
        <ele>85.4</ele>
        <time>2024-12-19T08:54:41Z</time>
      </trkpt>
      <trkpt lat="47.93817" lon="-2.49951">
        <ele>85.5</ele>
        <time>2024-12-19T08:54:42Z</time>
      </trkpt>
      <trkpt lat="47.93817" lon="-2.49949">
        <ele>85.5</ele>
        <time>2024-12-19T08:54:43Z</time>
      </trkpt>
      <trkpt lat="47.93818" lon="-2.49947">
        <ele>85.5</ele>
        <time>2024-12-19T08:54:44Z</time>
      </trkpt>
      <trkpt lat="47.93819" lon="-2.49946">
        <ele>85.5</ele>
        <time>2024-12-19T08:54:45Z</time>
      </trkpt>
      <trkpt lat="47.93819" lon="-2.49945">
        <ele>85.5</ele>
        <time>2024-12-19T08:54:46Z</time>
      </trkpt>
      <trkpt lat="47.93819" lon="-2.49943">
        <ele>85.5</ele>
        <time>2024-12-19T08:54:47Z</time>
      </trkpt>
      <trkpt lat="47.93819" lon="-2.49941">
        <ele>85.6</ele>
        <time>2024-12-19T08:54:48Z</time>
      </trkpt>
      <trkpt lat="47.93819" lon="-2.49939">
        <ele>85.6</ele>
        <time>2024-12-19T08:54:49Z</time>
      </trkpt>
      <trkpt lat="47.93819" lon="-2.49938">
        <ele>85.6</ele>
        <time>2024-12-19T08:54:50Z</time>
      </trkpt>
      <trkpt lat="47.93819" lon="-2.49936">
        <ele>85.7</ele>
        <time>2024-12-19T08:54:51Z</time>
      </trkpt>
      <trkpt lat="47.93819" lon="-2.49933">
        <ele>85.7</ele>
        <time>2024-12-19T08:54:52Z</time>
      </trkpt>
      <trkpt lat="47.93819" lon="-2.49931">
        <ele>85.8</ele>
        <time>2024-12-19T08:54:53Z</time>
      </trkpt>
      <trkpt lat="47.93819" lon="-2.49929">
        <ele>85.8</ele>
        <time>2024-12-19T08:54:54Z</time>
      </trkpt>
      <trkpt lat="47.9382" lon="-2.49926">
        <ele>85.8</ele>
        <time>2024-12-19T08:54:55Z</time>
      </trkpt>
      <trkpt lat="47.9382" lon="-2.49924">
        <ele>85.9</ele>
        <time>2024-12-19T08:54:56Z</time>
      </trkpt>
      <trkpt lat="47.9382" lon="-2.49922">
        <ele>85.9</ele>
        <time>2024-12-19T08:54:57Z</time>
      </trkpt>
      <trkpt lat="47.9382" lon="-2.49921">
        <ele>85.9</ele>
        <time>2024-12-19T08:54:58Z</time>
      </trkpt>
      <trkpt lat="47.9382" lon="-2.4992">
        <ele>85.9</ele>
        <time>2024-12-19T08:54:59Z</time>
      </trkpt>
      <trkpt lat="47.9382" lon="-2.49922">
        <ele>85.9</ele>
        <time>2024-12-19T08:55:00Z</time>
      </trkpt>
      <trkpt lat="47.9382" lon="-2.49922">
        <ele>85.9</ele>
        <time>2024-12-19T08:55:01Z</time>
      </trkpt>
      <trkpt lat="47.9382" lon="-2.49922">
        <ele>85.9</ele>
        <time>2024-12-19T08:55:02Z</time>
      </trkpt>
      <trkpt lat="47.9382" lon="-2.49922">
        <ele>85.9</ele>
        <time>2024-12-19T08:55:03Z</time>
      </trkpt>
      <trkpt lat="47.9382" lon="-2.49922">
        <ele>85.9</ele>
        <time>2024-12-19T08:55:04Z</time>
      </trkpt>
      <trkpt lat="47.9382" lon="-2.49921">
        <ele>85.9</ele>
        <time>2024-12-19T08:55:05Z</time>
      </trkpt>
      <trkpt lat="47.9382" lon="-2.49921">
        <ele>85.9</ele>
        <time>2024-12-19T08:55:06Z</time>
      </trkpt>
      <trkpt lat="47.9382" lon="-2.49921">
        <ele>85.9</ele>
        <time>2024-12-19T08:55:07Z</time>
      </trkpt>
      <trkpt lat="47.93821" lon="-2.4992">
        <ele>85.9</ele>
        <time>2024-12-19T08:55:08Z</time>
      </trkpt>
      <trkpt lat="47.93821" lon="-2.49918">
        <ele>86</ele>
        <time>2024-12-19T08:55:09Z</time>
      </trkpt>
      <trkpt lat="47.93822" lon="-2.49916">
        <ele>86</ele>
        <time>2024-12-19T08:55:10Z</time>
      </trkpt>
      <trkpt lat="47.93822" lon="-2.49914">
        <ele>86</ele>
        <time>2024-12-19T08:55:11Z</time>
      </trkpt>
      <trkpt lat="47.93822" lon="-2.49913">
        <ele>86</ele>
        <time>2024-12-19T08:55:12Z</time>
      </trkpt>
      <trkpt lat="47.93823" lon="-2.49911">
        <ele>86</ele>
        <time>2024-12-19T08:55:13Z</time>
      </trkpt>
      <trkpt lat="47.93823" lon="-2.4991">
        <ele>86</ele>
        <time>2024-12-19T08:55:14Z</time>
      </trkpt>
      <trkpt lat="47.93823" lon="-2.49909">
        <ele>86</ele>
        <time>2024-12-19T08:55:15Z</time>
      </trkpt>
      <trkpt lat="47.93823" lon="-2.49908">
        <ele>86</ele>
        <time>2024-12-19T08:55:16Z</time>
      </trkpt>
      <trkpt lat="47.93824" lon="-2.49906">
        <ele>86</ele>
        <time>2024-12-19T08:55:17Z</time>
      </trkpt>
      <trkpt lat="47.93824" lon="-2.49903">
        <ele>86</ele>
        <time>2024-12-19T08:55:18Z</time>
      </trkpt>
      <trkpt lat="47.93825" lon="-2.49901">
        <ele>86</ele>
        <time>2024-12-19T08:55:19Z</time>
      </trkpt>
      <trkpt lat="47.93825" lon="-2.49899">
        <ele>86</ele>
        <time>2024-12-19T08:55:20Z</time>
      </trkpt>
      <trkpt lat="47.93825" lon="-2.49897">
        <ele>86</ele>
        <time>2024-12-19T08:55:21Z</time>
      </trkpt>
      <trkpt lat="47.93825" lon="-2.49894">
        <ele>86</ele>
        <time>2024-12-19T08:55:22Z</time>
      </trkpt>
      <trkpt lat="47.93825" lon="-2.49892">
        <ele>86</ele>
        <time>2024-12-19T08:55:23Z</time>
      </trkpt>
      <trkpt lat="47.93825" lon="-2.4989">
        <ele>86</ele>
        <time>2024-12-19T08:55:24Z</time>
      </trkpt>
      <trkpt lat="47.93824" lon="-2.49888">
        <ele>86</ele>
        <time>2024-12-19T08:55:25Z</time>
      </trkpt>
      <trkpt lat="47.93824" lon="-2.49886">
        <ele>86</ele>
        <time>2024-12-19T08:55:26Z</time>
      </trkpt>
      <trkpt lat="47.93824" lon="-2.49884">
        <ele>85.9</ele>
        <time>2024-12-19T08:55:27Z</time>
      </trkpt>
      <trkpt lat="47.93824" lon="-2.49882">
        <ele>85.9</ele>
        <time>2024-12-19T08:55:28Z</time>
      </trkpt>
      <trkpt lat="47.93824" lon="-2.4988">
        <ele>85.9</ele>
        <time>2024-12-19T08:55:29Z</time>
      </trkpt>
      <trkpt lat="47.93824" lon="-2.49879">
        <ele>85.9</ele>
        <time>2024-12-19T08:55:30Z</time>
      </trkpt>
      <trkpt lat="47.93825" lon="-2.49877">
        <ele>85.9</ele>
        <time>2024-12-19T08:55:31Z</time>
      </trkpt>
      <trkpt lat="47.93825" lon="-2.49876">
        <ele>85.9</ele>
        <time>2024-12-19T08:55:32Z</time>
      </trkpt>
      <trkpt lat="47.93826" lon="-2.49874">
        <ele>85.8</ele>
        <time>2024-12-19T08:55:33Z</time>
      </trkpt>
      <trkpt lat="47.93826" lon="-2.49873">
        <ele>85.8</ele>
        <time>2024-12-19T08:55:34Z</time>
      </trkpt>
      <trkpt lat="47.93826" lon="-2.49871">
        <ele>85.8</ele>
        <time>2024-12-19T08:55:35Z</time>
      </trkpt>
      <trkpt lat="47.93826" lon="-2.4987">
        <ele>85.8</ele>
        <time>2024-12-19T08:55:36Z</time>
      </trkpt>
      <trkpt lat="47.93825" lon="-2.49869">
        <ele>85.8</ele>
        <time>2024-12-19T08:55:37Z</time>
      </trkpt>
      <trkpt lat="47.93825" lon="-2.49869">
        <ele>85.8</ele>
        <time>2024-12-19T08:55:38Z</time>
      </trkpt>
      <trkpt lat="47.93825" lon="-2.49869">
        <ele>85.8</ele>
        <time>2024-12-19T08:55:39Z</time>
      </trkpt>
      <trkpt lat="47.93825" lon="-2.49867">
        <ele>85.8</ele>
        <time>2024-12-19T08:55:40Z</time>
      </trkpt>
      <trkpt lat="47.93825" lon="-2.49865">
        <ele>85.7</ele>
        <time>2024-12-19T08:55:41Z</time>
      </trkpt>
      <trkpt lat="47.93825" lon="-2.49863">
        <ele>85.7</ele>
        <time>2024-12-19T08:55:42Z</time>
      </trkpt>
      <trkpt lat="47.93825" lon="-2.49861">
        <ele>85.7</ele>
        <time>2024-12-19T08:55:43Z</time>
      </trkpt>
      <trkpt lat="47.93825" lon="-2.49859">
        <ele>85.7</ele>
        <time>2024-12-19T08:55:44Z</time>
      </trkpt>
      <trkpt lat="47.93825" lon="-2.49856">
        <ele>85.7</ele>
        <time>2024-12-19T08:55:45Z</time>
      </trkpt>
      <trkpt lat="47.93825" lon="-2.49854">
        <ele>85.7</ele>
        <time>2024-12-19T08:55:46Z</time>
      </trkpt>
      <trkpt lat="47.93825" lon="-2.49852">
        <ele>85.7</ele>
        <time>2024-12-19T08:55:47Z</time>
      </trkpt>
      <trkpt lat="47.93825" lon="-2.49849">
        <ele>85.7</ele>
        <time>2024-12-19T08:55:48Z</time>
      </trkpt>
      <trkpt lat="47.93826" lon="-2.49846">
        <ele>85.7</ele>
        <time>2024-12-19T08:55:49Z</time>
      </trkpt>
      <trkpt lat="47.93826" lon="-2.49843">
        <ele>85.7</ele>
        <time>2024-12-19T08:55:50Z</time>
      </trkpt>
      <trkpt lat="47.93827" lon="-2.49841">
        <ele>85.8</ele>
        <time>2024-12-19T08:55:51Z</time>
      </trkpt>
      <trkpt lat="47.93827" lon="-2.49838">
        <ele>85.8</ele>
        <time>2024-12-19T08:55:52Z</time>
      </trkpt>
      <trkpt lat="47.93827" lon="-2.49836">
        <ele>85.8</ele>
        <time>2024-12-19T08:55:53Z</time>
      </trkpt>
      <trkpt lat="47.93827" lon="-2.49833">
        <ele>85.8</ele>
        <time>2024-12-19T08:55:54Z</time>
      </trkpt>
      <trkpt lat="47.93827" lon="-2.49831">
        <ele>85.8</ele>
        <time>2024-12-19T08:55:55Z</time>
      </trkpt>
      <trkpt lat="47.93827" lon="-2.4983">
        <ele>85.8</ele>
        <time>2024-12-19T08:55:56Z</time>
      </trkpt>
      <trkpt lat="47.93828" lon="-2.49828">
        <ele>85.8</ele>
        <time>2024-12-19T08:55:57Z</time>
      </trkpt>
      <trkpt lat="47.93828" lon="-2.49827">
        <ele>85.8</ele>
        <time>2024-12-19T08:55:58Z</time>
      </trkpt>
      <trkpt lat="47.93828" lon="-2.49824">
        <ele>85.8</ele>
        <time>2024-12-19T08:55:59Z</time>
      </trkpt>
      <trkpt lat="47.93829" lon="-2.49822">
        <ele>85.8</ele>
        <time>2024-12-19T08:56:00Z</time>
      </trkpt>
      <trkpt lat="47.93829" lon="-2.4982">
        <ele>85.8</ele>
        <time>2024-12-19T08:56:01Z</time>
      </trkpt>
      <trkpt lat="47.9383" lon="-2.49818">
        <ele>85.9</ele>
        <time>2024-12-19T08:56:02Z</time>
      </trkpt>
      <trkpt lat="47.9383" lon="-2.49816">
        <ele>85.9</ele>
        <time>2024-12-19T08:56:03Z</time>
      </trkpt>
      <trkpt lat="47.9383" lon="-2.49814">
        <ele>85.9</ele>
        <time>2024-12-19T08:56:04Z</time>
      </trkpt>
      <trkpt lat="47.93831" lon="-2.49813">
        <ele>85.9</ele>
        <time>2024-12-19T08:56:05Z</time>
      </trkpt>
      <trkpt lat="47.93831" lon="-2.49811">
        <ele>85.9</ele>
        <time>2024-12-19T08:56:06Z</time>
      </trkpt>
      <trkpt lat="47.93831" lon="-2.4981">
        <ele>85.9</ele>
        <time>2024-12-19T08:56:07Z</time>
      </trkpt>
      <trkpt lat="47.93831" lon="-2.49809">
        <ele>85.9</ele>
        <time>2024-12-19T08:56:08Z</time>
      </trkpt>
      <trkpt lat="47.93831" lon="-2.49808">
        <ele>85.9</ele>
        <time>2024-12-19T08:56:09Z</time>
      </trkpt>
      <trkpt lat="47.9383" lon="-2.49807">
        <ele>85.9</ele>
        <time>2024-12-19T08:56:10Z</time>
      </trkpt>
      <trkpt lat="47.93831" lon="-2.49806">
        <ele>85.9</ele>
        <time>2024-12-19T08:56:11Z</time>
      </trkpt>
      <trkpt lat="47.9383" lon="-2.49803">
        <ele>86</ele>
        <time>2024-12-19T08:56:12Z</time>
      </trkpt>
      <trkpt lat="47.9383" lon="-2.49801">
        <ele>86.2</ele>
        <time>2024-12-19T08:56:13Z</time>
      </trkpt>
      <trkpt lat="47.93831" lon="-2.49798">
        <ele>86.4</ele>
        <time>2024-12-19T08:56:14Z</time>
      </trkpt>
      <trkpt lat="47.93831" lon="-2.49796">
        <ele>86.6</ele>
        <time>2024-12-19T08:56:15Z</time>
      </trkpt>
      <trkpt lat="47.93832" lon="-2.49794">
        <ele>86.7</ele>
        <time>2024-12-19T08:56:16Z</time>
      </trkpt>
      <trkpt lat="47.93832" lon="-2.49793">
        <ele>86.9</ele>
        <time>2024-12-19T08:56:17Z</time>
      </trkpt>
      <trkpt lat="47.93833" lon="-2.49791">
        <ele>87</ele>
        <time>2024-12-19T08:56:18Z</time>
      </trkpt>
      <trkpt lat="47.93834" lon="-2.4979">
        <ele>87.1</ele>
        <time>2024-12-19T08:56:19Z</time>
      </trkpt>
      <trkpt lat="47.93835" lon="-2.49788">
        <ele>87.2</ele>
        <time>2024-12-19T08:56:20Z</time>
      </trkpt>
      <trkpt lat="47.93836" lon="-2.49787">
        <ele>87.3</ele>
        <time>2024-12-19T08:56:21Z</time>
      </trkpt>
      <trkpt lat="47.93836" lon="-2.49785">
        <ele>87.3</ele>
        <time>2024-12-19T08:56:22Z</time>
      </trkpt>
      <trkpt lat="47.93837" lon="-2.49784">
        <ele>87.4</ele>
        <time>2024-12-19T08:56:23Z</time>
      </trkpt>
      <trkpt lat="47.93837" lon="-2.49783">
        <ele>87.4</ele>
        <time>2024-12-19T08:56:24Z</time>
      </trkpt>
      <trkpt lat="47.93838" lon="-2.49781">
        <ele>87.5</ele>
        <time>2024-12-19T08:56:25Z</time>
      </trkpt>
      <trkpt lat="47.93838" lon="-2.49779">
        <ele>87.6</ele>
        <time>2024-12-19T08:56:26Z</time>
      </trkpt>
      <trkpt lat="47.93839" lon="-2.49776">
        <ele>87.5</ele>
        <time>2024-12-19T08:56:28Z</time>
      </trkpt>
      <trkpt lat="47.9384" lon="-2.49774">
        <ele>87.4</ele>
        <time>2024-12-19T08:56:29Z</time>
      </trkpt>
      <trkpt lat="47.9384" lon="-2.49772">
        <ele>87.4</ele>
        <time>2024-12-19T08:56:30Z</time>
      </trkpt>
      <trkpt lat="47.9384" lon="-2.4977">
        <ele>87.3</ele>
        <time>2024-12-19T08:56:31Z</time>
      </trkpt>
      <trkpt lat="47.93841" lon="-2.49769">
        <ele>87.2</ele>
        <time>2024-12-19T08:56:32Z</time>
      </trkpt>
      <trkpt lat="47.93841" lon="-2.49767">
        <ele>87.1</ele>
        <time>2024-12-19T08:56:33Z</time>
      </trkpt>
      <trkpt lat="47.93842" lon="-2.49765">
        <ele>87.1</ele>
        <time>2024-12-19T08:56:34Z</time>
      </trkpt>
      <trkpt lat="47.93843" lon="-2.49763">
        <ele>87</ele>
        <time>2024-12-19T08:56:35Z</time>
      </trkpt>
      <trkpt lat="47.93843" lon="-2.49761">
        <ele>86.9</ele>
        <time>2024-12-19T08:56:36Z</time>
      </trkpt>
      <trkpt lat="47.93844" lon="-2.49759">
        <ele>86.8</ele>
        <time>2024-12-19T08:56:37Z</time>
      </trkpt>
      <trkpt lat="47.93844" lon="-2.49757">
        <ele>86.7</ele>
        <time>2024-12-19T08:56:38Z</time>
      </trkpt>
      <trkpt lat="47.93845" lon="-2.49755">
        <ele>86.7</ele>
        <time>2024-12-19T08:56:39Z</time>
      </trkpt>
      <trkpt lat="47.93846" lon="-2.49753">
        <ele>86.6</ele>
        <time>2024-12-19T08:56:40Z</time>
      </trkpt>
      <trkpt lat="47.93847" lon="-2.49751">
        <ele>86.5</ele>
        <time>2024-12-19T08:56:41Z</time>
      </trkpt>
      <trkpt lat="47.93847" lon="-2.49748">
        <ele>86.5</ele>
        <time>2024-12-19T08:56:42Z</time>
      </trkpt>
      <trkpt lat="47.93848" lon="-2.49746">
        <ele>86.6</ele>
        <time>2024-12-19T08:56:43Z</time>
      </trkpt>
      <trkpt lat="47.93849" lon="-2.49745">
        <ele>86.6</ele>
        <time>2024-12-19T08:56:44Z</time>
      </trkpt>
      <trkpt lat="47.9385" lon="-2.49743">
        <ele>86.7</ele>
        <time>2024-12-19T08:56:45Z</time>
      </trkpt>
      <trkpt lat="47.93851" lon="-2.49741">
        <ele>86.8</ele>
        <time>2024-12-19T08:56:46Z</time>
      </trkpt>
      <trkpt lat="47.93852" lon="-2.49739">
        <ele>86.8</ele>
        <time>2024-12-19T08:56:47Z</time>
      </trkpt>
      <trkpt lat="47.93853" lon="-2.49738">
        <ele>87</ele>
        <time>2024-12-19T08:56:48Z</time>
      </trkpt>
      <trkpt lat="47.93854" lon="-2.49736">
        <ele>87.1</ele>
        <time>2024-12-19T08:56:49Z</time>
      </trkpt>
      <trkpt lat="47.93854" lon="-2.49734">
        <ele>87.3</ele>
        <time>2024-12-19T08:56:50Z</time>
      </trkpt>
      <trkpt lat="47.93855" lon="-2.49732">
        <ele>87.5</ele>
        <time>2024-12-19T08:56:51Z</time>
      </trkpt>
      <trkpt lat="47.93856" lon="-2.4973">
        <ele>87.7</ele>
        <time>2024-12-19T08:56:52Z</time>
      </trkpt>
      <trkpt lat="47.93857" lon="-2.49728">
        <ele>88</ele>
        <time>2024-12-19T08:56:53Z</time>
      </trkpt>
      <trkpt lat="47.93858" lon="-2.49726">
        <ele>88.2</ele>
        <time>2024-12-19T08:56:54Z</time>
      </trkpt>
      <trkpt lat="47.93859" lon="-2.49724">
        <ele>88.5</ele>
        <time>2024-12-19T08:56:55Z</time>
      </trkpt>
      <trkpt lat="47.9386" lon="-2.49722">
        <ele>88.8</ele>
        <time>2024-12-19T08:56:56Z</time>
      </trkpt>
      <trkpt lat="47.93861" lon="-2.49721">
        <ele>88.9</ele>
        <time>2024-12-19T08:56:57Z</time>
      </trkpt>
      <trkpt lat="47.93862" lon="-2.49719">
        <ele>88.8</ele>
        <time>2024-12-19T08:56:58Z</time>
      </trkpt>
      <trkpt lat="47.93863" lon="-2.49717">
        <ele>88.6</ele>
        <time>2024-12-19T08:56:59Z</time>
      </trkpt>
      <trkpt lat="47.93864" lon="-2.49716">
        <ele>88.5</ele>
        <time>2024-12-19T08:57:00Z</time>
      </trkpt>
      <trkpt lat="47.93864" lon="-2.49715">
        <ele>88.4</ele>
        <time>2024-12-19T08:57:01Z</time>
      </trkpt>
      <trkpt lat="47.93865" lon="-2.49714">
        <ele>88.3</ele>
        <time>2024-12-19T08:57:02Z</time>
      </trkpt>
      <trkpt lat="47.93865" lon="-2.49713">
        <ele>88.3</ele>
        <time>2024-12-19T08:57:03Z</time>
      </trkpt>
      <trkpt lat="47.93866" lon="-2.49712">
        <ele>88.2</ele>
        <time>2024-12-19T08:57:04Z</time>
      </trkpt>
      <trkpt lat="47.93867" lon="-2.49711">
        <ele>88.1</ele>
        <time>2024-12-19T08:57:05Z</time>
      </trkpt>
      <trkpt lat="47.93868" lon="-2.4971">
        <ele>88</ele>
        <time>2024-12-19T08:57:06Z</time>
      </trkpt>
      <trkpt lat="47.93869" lon="-2.4971">
        <ele>87.9</ele>
        <time>2024-12-19T08:57:07Z</time>
      </trkpt>
      <trkpt lat="47.93871" lon="-2.49709">
        <ele>87.8</ele>
        <time>2024-12-19T08:57:08Z</time>
      </trkpt>
      <trkpt lat="47.93872" lon="-2.49708">
        <ele>87.7</ele>
        <time>2024-12-19T08:57:09Z</time>
      </trkpt>
      <trkpt lat="47.93873" lon="-2.49707">
        <ele>87.7</ele>
        <time>2024-12-19T08:57:10Z</time>
      </trkpt>
      <trkpt lat="47.93874" lon="-2.49705">
        <ele>87.7</ele>
        <time>2024-12-19T08:57:11Z</time>
      </trkpt>
      <trkpt lat="47.93874" lon="-2.49704">
        <ele>87.7</ele>
        <time>2024-12-19T08:57:12Z</time>
      </trkpt>
      <trkpt lat="47.93875" lon="-2.49702">
        <ele>87.7</ele>
        <time>2024-12-19T08:57:13Z</time>
      </trkpt>
      <trkpt lat="47.93876" lon="-2.497">
        <ele>87.8</ele>
        <time>2024-12-19T08:57:14Z</time>
      </trkpt>
      <trkpt lat="47.93876" lon="-2.49699">
        <ele>87.8</ele>
        <time>2024-12-19T08:57:15Z</time>
      </trkpt>
      <trkpt lat="47.93877" lon="-2.49698">
        <ele>87.8</ele>
        <time>2024-12-19T08:57:16Z</time>
      </trkpt>
      <trkpt lat="47.93878" lon="-2.49697">
        <ele>87.9</ele>
        <time>2024-12-19T08:57:17Z</time>
      </trkpt>
      <trkpt lat="47.9388" lon="-2.49696">
        <ele>87.9</ele>
        <time>2024-12-19T08:57:18Z</time>
      </trkpt>
      <trkpt lat="47.93881" lon="-2.49695">
        <ele>88</ele>
        <time>2024-12-19T08:57:19Z</time>
      </trkpt>
      <trkpt lat="47.93882" lon="-2.49693">
        <ele>88</ele>
        <time>2024-12-19T08:57:20Z</time>
      </trkpt>
      <trkpt lat="47.93884" lon="-2.49692">
        <ele>88</ele>
        <time>2024-12-19T08:57:21Z</time>
      </trkpt>
      <trkpt lat="47.93885" lon="-2.49691">
        <ele>87.9</ele>
        <time>2024-12-19T08:57:22Z</time>
      </trkpt>
      <trkpt lat="47.93886" lon="-2.4969">
        <ele>87.9</ele>
        <time>2024-12-19T08:57:23Z</time>
      </trkpt>
      <trkpt lat="47.93887" lon="-2.49689">
        <ele>88</ele>
        <time>2024-12-19T08:57:24Z</time>
      </trkpt>
      <trkpt lat="47.93888" lon="-2.49688">
        <ele>88</ele>
        <time>2024-12-19T08:57:25Z</time>
      </trkpt>
      <trkpt lat="47.9389" lon="-2.49688">
        <ele>87.9</ele>
        <time>2024-12-19T08:57:26Z</time>
      </trkpt>
      <trkpt lat="47.93891" lon="-2.49688">
        <ele>87.7</ele>
        <time>2024-12-19T08:57:27Z</time>
      </trkpt>
      <trkpt lat="47.93893" lon="-2.49687">
        <ele>87.5</ele>
        <time>2024-12-19T08:57:28Z</time>
      </trkpt>
      <trkpt lat="47.93894" lon="-2.49685">
        <ele>87.4</ele>
        <time>2024-12-19T08:57:29Z</time>
      </trkpt>
      <trkpt lat="47.93895" lon="-2.49684">
        <ele>87.3</ele>
        <time>2024-12-19T08:57:30Z</time>
      </trkpt>
      <trkpt lat="47.93896" lon="-2.49682">
        <ele>87.2</ele>
        <time>2024-12-19T08:57:31Z</time>
      </trkpt>
      <trkpt lat="47.93897" lon="-2.4968">
        <ele>87.2</ele>
        <time>2024-12-19T08:57:32Z</time>
      </trkpt>
      <trkpt lat="47.93897" lon="-2.49678">
        <ele>87.2</ele>
        <time>2024-12-19T08:57:33Z</time>
      </trkpt>
      <trkpt lat="47.93897" lon="-2.49677">
        <ele>87.2</ele>
        <time>2024-12-19T08:57:34Z</time>
      </trkpt>
      <trkpt lat="47.93898" lon="-2.49675">
        <ele>87.2</ele>
        <time>2024-12-19T08:57:35Z</time>
      </trkpt>
      <trkpt lat="47.93898" lon="-2.49673">
        <ele>87.2</ele>
        <time>2024-12-19T08:57:36Z</time>
      </trkpt>
      <trkpt lat="47.93899" lon="-2.49672">
        <ele>87.1</ele>
        <time>2024-12-19T08:57:37Z</time>
      </trkpt>
      <trkpt lat="47.939" lon="-2.49671">
        <ele>87.1</ele>
        <time>2024-12-19T08:57:38Z</time>
      </trkpt>
      <trkpt lat="47.93901" lon="-2.4967">
        <ele>87</ele>
        <time>2024-12-19T08:57:39Z</time>
      </trkpt>
      <trkpt lat="47.93905" lon="-2.49666">
        <ele>86.8</ele>
        <time>2024-12-19T08:57:42Z</time>
      </trkpt>
      <trkpt lat="47.93906" lon="-2.49665">
        <ele>86.5</ele>
        <time>2024-12-19T08:57:43Z</time>
      </trkpt>
      <trkpt lat="47.93908" lon="-2.49663">
        <ele>86.3</ele>
        <time>2024-12-19T08:57:44Z</time>
      </trkpt>
      <trkpt lat="47.93909" lon="-2.49662">
        <ele>86.1</ele>
        <time>2024-12-19T08:57:45Z</time>
      </trkpt>
      <trkpt lat="47.9391" lon="-2.49661">
        <ele>86</ele>
        <time>2024-12-19T08:57:46Z</time>
      </trkpt>
      <trkpt lat="47.93911" lon="-2.4966">
        <ele>85.8</ele>
        <time>2024-12-19T08:57:47Z</time>
      </trkpt>
      <trkpt lat="47.93913" lon="-2.49659">
        <ele>85.7</ele>
        <time>2024-12-19T08:57:48Z</time>
      </trkpt>
      <trkpt lat="47.93914" lon="-2.49659">
        <ele>85.6</ele>
        <time>2024-12-19T08:57:49Z</time>
      </trkpt>
      <trkpt lat="47.93916" lon="-2.49658">
        <ele>85.4</ele>
        <time>2024-12-19T08:57:50Z</time>
      </trkpt>
      <trkpt lat="47.93917" lon="-2.49657">
        <ele>85.3</ele>
        <time>2024-12-19T08:57:51Z</time>
      </trkpt>
      <trkpt lat="47.93917" lon="-2.49657">
        <ele>85.3</ele>
        <time>2024-12-19T08:57:52Z</time>
      </trkpt>
      <trkpt lat="47.93918" lon="-2.49655">
        <ele>85.1</ele>
        <time>2024-12-19T08:57:53Z</time>
      </trkpt>
      <trkpt lat="47.9392" lon="-2.49654">
        <ele>85</ele>
        <time>2024-12-19T08:57:54Z</time>
      </trkpt>
      <trkpt lat="47.93921" lon="-2.49653">
        <ele>84.9</ele>
        <time>2024-12-19T08:57:55Z</time>
      </trkpt>
      <trkpt lat="47.93922" lon="-2.49651">
        <ele>84.8</ele>
        <time>2024-12-19T08:57:56Z</time>
      </trkpt>
      <trkpt lat="47.93923" lon="-2.4965">
        <ele>84.8</ele>
        <time>2024-12-19T08:57:57Z</time>
      </trkpt>
      <trkpt lat="47.93924" lon="-2.49649">
        <ele>84.7</ele>
        <time>2024-12-19T08:57:58Z</time>
      </trkpt>
      <trkpt lat="47.93925" lon="-2.49648">
        <ele>84.7</ele>
        <time>2024-12-19T08:57:59Z</time>
      </trkpt>
      <trkpt lat="47.93927" lon="-2.49647">
        <ele>84.6</ele>
        <time>2024-12-19T08:58:00Z</time>
      </trkpt>
      <trkpt lat="47.93928" lon="-2.49645">
        <ele>84.6</ele>
        <time>2024-12-19T08:58:01Z</time>
      </trkpt>
      <trkpt lat="47.93929" lon="-2.49644">
        <ele>84.6</ele>
        <time>2024-12-19T08:58:02Z</time>
      </trkpt>
      <trkpt lat="47.9393" lon="-2.49642">
        <ele>84.5</ele>
        <time>2024-12-19T08:58:03Z</time>
      </trkpt>
      <trkpt lat="47.93931" lon="-2.49641">
        <ele>84.5</ele>
        <time>2024-12-19T08:58:04Z</time>
      </trkpt>
      <trkpt lat="47.93932" lon="-2.49639">
        <ele>84.5</ele>
        <time>2024-12-19T08:58:05Z</time>
      </trkpt>
      <trkpt lat="47.93932" lon="-2.49638">
        <ele>84.7</ele>
        <time>2024-12-19T08:58:06Z</time>
      </trkpt>
      <trkpt lat="47.93933" lon="-2.49636">
        <ele>84.8</ele>
        <time>2024-12-19T08:58:07Z</time>
      </trkpt>
      <trkpt lat="47.93934" lon="-2.49635">
        <ele>84.9</ele>
        <time>2024-12-19T08:58:08Z</time>
      </trkpt>
      <trkpt lat="47.93935" lon="-2.49634">
        <ele>85</ele>
        <time>2024-12-19T08:58:09Z</time>
      </trkpt>
      <trkpt lat="47.93936" lon="-2.49633">
        <ele>85.2</ele>
        <time>2024-12-19T08:58:10Z</time>
      </trkpt>
      <trkpt lat="47.93937" lon="-2.49631">
        <ele>85.3</ele>
        <time>2024-12-19T08:58:11Z</time>
      </trkpt>
      <trkpt lat="47.93938" lon="-2.4963">
        <ele>85.5</ele>
        <time>2024-12-19T08:58:12Z</time>
      </trkpt>
      <trkpt lat="47.93939" lon="-2.49629">
        <ele>85.6</ele>
        <time>2024-12-19T08:58:13Z</time>
      </trkpt>
      <trkpt lat="47.9394" lon="-2.49628">
        <ele>85.8</ele>
        <time>2024-12-19T08:58:14Z</time>
      </trkpt>
      <trkpt lat="47.93941" lon="-2.49627">
        <ele>86</ele>
        <time>2024-12-19T08:58:15Z</time>
      </trkpt>
      <trkpt lat="47.93942" lon="-2.49626">
        <ele>86.2</ele>
        <time>2024-12-19T08:58:16Z</time>
      </trkpt>
      <trkpt lat="47.93943" lon="-2.49626">
        <ele>86.4</ele>
        <time>2024-12-19T08:58:17Z</time>
      </trkpt>
      <trkpt lat="47.93944" lon="-2.49625">
        <ele>86.5</ele>
        <time>2024-12-19T08:58:18Z</time>
      </trkpt>
      <trkpt lat="47.93945" lon="-2.49625">
        <ele>86.6</ele>
        <time>2024-12-19T08:58:19Z</time>
      </trkpt>
      <trkpt lat="47.93946" lon="-2.49624">
        <ele>86.7</ele>
        <time>2024-12-19T08:58:20Z</time>
      </trkpt>
      <trkpt lat="47.93947" lon="-2.49623">
        <ele>86.8</ele>
        <time>2024-12-19T08:58:21Z</time>
      </trkpt>
      <trkpt lat="47.93948" lon="-2.49622">
        <ele>87</ele>
        <time>2024-12-19T08:58:22Z</time>
      </trkpt>
      <trkpt lat="47.93949" lon="-2.49621">
        <ele>87.1</ele>
        <time>2024-12-19T08:58:23Z</time>
      </trkpt>
      <trkpt lat="47.9395" lon="-2.4962">
        <ele>87.2</ele>
        <time>2024-12-19T08:58:24Z</time>
      </trkpt>
      <trkpt lat="47.93951" lon="-2.49619">
        <ele>87.3</ele>
        <time>2024-12-19T08:58:25Z</time>
      </trkpt>
      <trkpt lat="47.93953" lon="-2.49619">
        <ele>87.4</ele>
        <time>2024-12-19T08:58:26Z</time>
      </trkpt>
      <trkpt lat="47.93954" lon="-2.49618">
        <ele>87.5</ele>
        <time>2024-12-19T08:58:27Z</time>
      </trkpt>
      <trkpt lat="47.93956" lon="-2.49617">
        <ele>87.6</ele>
        <time>2024-12-19T08:58:28Z</time>
      </trkpt>
      <trkpt lat="47.93957" lon="-2.49616">
        <ele>87.7</ele>
        <time>2024-12-19T08:58:29Z</time>
      </trkpt>
      <trkpt lat="47.93958" lon="-2.49615">
        <ele>87.8</ele>
        <time>2024-12-19T08:58:30Z</time>
      </trkpt>
      <trkpt lat="47.9396" lon="-2.49615">
        <ele>87.8</ele>
        <time>2024-12-19T08:58:31Z</time>
      </trkpt>
      <trkpt lat="47.93961" lon="-2.49615">
        <ele>87.8</ele>
        <time>2024-12-19T08:58:32Z</time>
      </trkpt>
      <trkpt lat="47.93963" lon="-2.49615">
        <ele>87.9</ele>
        <time>2024-12-19T08:58:33Z</time>
      </trkpt>
      <trkpt lat="47.93964" lon="-2.49615">
        <ele>87.9</ele>
        <time>2024-12-19T08:58:34Z</time>
      </trkpt>
      <trkpt lat="47.93966" lon="-2.49615">
        <ele>87.9</ele>
        <time>2024-12-19T08:58:35Z</time>
      </trkpt>
      <trkpt lat="47.93967" lon="-2.49614">
        <ele>87.9</ele>
        <time>2024-12-19T08:58:36Z</time>
      </trkpt>
      <trkpt lat="47.93969" lon="-2.49614">
        <ele>88</ele>
        <time>2024-12-19T08:58:37Z</time>
      </trkpt>
      <trkpt lat="47.93969" lon="-2.49615">
        <ele>88</ele>
        <time>2024-12-19T08:58:38Z</time>
      </trkpt>
      <trkpt lat="47.93969" lon="-2.49614">
        <ele>88</ele>
        <time>2024-12-19T08:58:39Z</time>
      </trkpt>
      <trkpt lat="47.9397" lon="-2.49614">
        <ele>88</ele>
        <time>2024-12-19T08:58:40Z</time>
      </trkpt>
      <trkpt lat="47.93971" lon="-2.49612">
        <ele>88</ele>
        <time>2024-12-19T08:58:41Z</time>
      </trkpt>
      <trkpt lat="47.93972" lon="-2.49611">
        <ele>88</ele>
        <time>2024-12-19T08:58:42Z</time>
      </trkpt>
      <trkpt lat="47.93972" lon="-2.49609">
        <ele>87.9</ele>
        <time>2024-12-19T08:58:43Z</time>
      </trkpt>
      <trkpt lat="47.93973" lon="-2.49608">
        <ele>87.9</ele>
        <time>2024-12-19T08:58:44Z</time>
      </trkpt>
      <trkpt lat="47.93974" lon="-2.49606">
        <ele>87.8</ele>
        <time>2024-12-19T08:58:45Z</time>
      </trkpt>
      <trkpt lat="47.93975" lon="-2.49605">
        <ele>87.8</ele>
        <time>2024-12-19T08:58:46Z</time>
      </trkpt>
      <trkpt lat="47.93975" lon="-2.49603">
        <ele>87.7</ele>
        <time>2024-12-19T08:58:47Z</time>
      </trkpt>
      <trkpt lat="47.93976" lon="-2.49602">
        <ele>87.7</ele>
        <time>2024-12-19T08:58:48Z</time>
      </trkpt>
      <trkpt lat="47.93977" lon="-2.496">
        <ele>87.6</ele>
        <time>2024-12-19T08:58:49Z</time>
      </trkpt>
      <trkpt lat="47.93977" lon="-2.49599">
        <ele>87.6</ele>
        <time>2024-12-19T08:58:50Z</time>
      </trkpt>
      <trkpt lat="47.93978" lon="-2.49597">
        <ele>87.5</ele>
        <time>2024-12-19T08:58:51Z</time>
      </trkpt>
      <trkpt lat="47.93977" lon="-2.49595">
        <ele>87.4</ele>
        <time>2024-12-19T08:58:52Z</time>
      </trkpt>
      <trkpt lat="47.93977" lon="-2.49593">
        <ele>87.4</ele>
        <time>2024-12-19T08:58:53Z</time>
      </trkpt>
      <trkpt lat="47.93977" lon="-2.49592">
        <ele>87.3</ele>
        <time>2024-12-19T08:58:54Z</time>
      </trkpt>
      <trkpt lat="47.93976" lon="-2.4959">
        <ele>87.2</ele>
        <time>2024-12-19T08:58:55Z</time>
      </trkpt>
      <trkpt lat="47.93976" lon="-2.49588">
        <ele>87.2</ele>
        <time>2024-12-19T08:58:56Z</time>
      </trkpt>
      <trkpt lat="47.93976" lon="-2.49586">
        <ele>87.1</ele>
        <time>2024-12-19T08:58:57Z</time>
      </trkpt>
      <trkpt lat="47.93976" lon="-2.49584">
        <ele>87</ele>
        <time>2024-12-19T08:58:58Z</time>
      </trkpt>
      <trkpt lat="47.93976" lon="-2.49582">
        <ele>87</ele>
        <time>2024-12-19T08:58:59Z</time>
      </trkpt>
      <trkpt lat="47.93976" lon="-2.4958">
        <ele>87</ele>
        <time>2024-12-19T08:59:00Z</time>
      </trkpt>
      <trkpt lat="47.93976" lon="-2.49577">
        <ele>87</ele>
        <time>2024-12-19T08:59:01Z</time>
      </trkpt>
      <trkpt lat="47.93975" lon="-2.49574">
        <ele>87</ele>
        <time>2024-12-19T08:59:02Z</time>
      </trkpt>
      <trkpt lat="47.93975" lon="-2.49572">
        <ele>87</ele>
        <time>2024-12-19T08:59:03Z</time>
      </trkpt>
      <trkpt lat="47.93974" lon="-2.49569">
        <ele>87</ele>
        <time>2024-12-19T08:59:04Z</time>
      </trkpt>
      <trkpt lat="47.93974" lon="-2.49567">
        <ele>87</ele>
        <time>2024-12-19T08:59:05Z</time>
      </trkpt>
      <trkpt lat="47.93974" lon="-2.49566">
        <ele>87</ele>
        <time>2024-12-19T08:59:06Z</time>
      </trkpt>
      <trkpt lat="47.93974" lon="-2.49566">
        <ele>87</ele>
        <time>2024-12-19T08:59:07Z</time>
      </trkpt>
      <trkpt lat="47.93974" lon="-2.49566">
        <ele>87</ele>
        <time>2024-12-19T08:59:08Z</time>
      </trkpt>
      <trkpt lat="47.93974" lon="-2.49566">
        <ele>87</ele>
        <time>2024-12-19T08:59:09Z</time>
      </trkpt>
      <trkpt lat="47.93974" lon="-2.49566">
        <ele>87</ele>
        <time>2024-12-19T08:59:10Z</time>
      </trkpt>
      <trkpt lat="47.93974" lon="-2.49566">
        <ele>87</ele>
        <time>2024-12-19T08:59:11Z</time>
      </trkpt>
      <trkpt lat="47.93974" lon="-2.49566">
        <ele>87</ele>
        <time>2024-12-19T08:59:12Z</time>
      </trkpt>
      <trkpt lat="47.93974" lon="-2.49565">
        <ele>87</ele>
        <time>2024-12-19T08:59:13Z</time>
      </trkpt>
      <trkpt lat="47.93973" lon="-2.49565">
        <ele>87</ele>
        <time>2024-12-19T08:59:14Z</time>
      </trkpt>
      <trkpt lat="47.93973" lon="-2.49565">
        <ele>87</ele>
        <time>2024-12-19T08:59:15Z</time>
      </trkpt>
      <trkpt lat="47.93973" lon="-2.49565">
        <ele>87</ele>
        <time>2024-12-19T08:59:16Z</time>
      </trkpt>
      <trkpt lat="47.93973" lon="-2.49565">
        <ele>87</ele>
        <time>2024-12-19T08:59:17Z</time>
      </trkpt>
      <trkpt lat="47.93973" lon="-2.49565">
        <ele>87</ele>
        <time>2024-12-19T08:59:18Z</time>
      </trkpt>
      <trkpt lat="47.93973" lon="-2.49565">
        <ele>87</ele>
        <time>2024-12-19T08:59:19Z</time>
      </trkpt>
      <trkpt lat="47.93973" lon="-2.49565">
        <ele>87</ele>
        <time>2024-12-19T08:59:20Z</time>
      </trkpt>
      <trkpt lat="47.93973" lon="-2.49565">
        <ele>87</ele>
        <time>2024-12-19T08:59:21Z</time>
      </trkpt>
      <trkpt lat="47.93973" lon="-2.49565">
        <ele>87</ele>
        <time>2024-12-19T08:59:22Z</time>
      </trkpt>
      <trkpt lat="47.93973" lon="-2.49565">
        <ele>87</ele>
        <time>2024-12-19T08:59:23Z</time>
      </trkpt>
      <trkpt lat="47.93973" lon="-2.49563">
        <ele>87</ele>
        <time>2024-12-19T08:59:24Z</time>
      </trkpt>
      <trkpt lat="47.93972" lon="-2.49562">
        <ele>87</ele>
        <time>2024-12-19T08:59:25Z</time>
      </trkpt>
      <trkpt lat="47.93972" lon="-2.4956">
        <ele>87</ele>
        <time>2024-12-19T08:59:26Z</time>
      </trkpt>
      <trkpt lat="47.93972" lon="-2.49558">
        <ele>87</ele>
        <time>2024-12-19T08:59:27Z</time>
      </trkpt>
      <trkpt lat="47.93971" lon="-2.49556">
        <ele>87</ele>
        <time>2024-12-19T08:59:28Z</time>
      </trkpt>
      <trkpt lat="47.93971" lon="-2.49554">
        <ele>86.9</ele>
        <time>2024-12-19T08:59:29Z</time>
      </trkpt>
      <trkpt lat="47.93971" lon="-2.49553">
        <ele>86.8</ele>
        <time>2024-12-19T08:59:30Z</time>
      </trkpt>
      <trkpt lat="47.93971" lon="-2.49551">
        <ele>86.8</ele>
        <time>2024-12-19T08:59:31Z</time>
      </trkpt>
      <trkpt lat="47.93971" lon="-2.49549">
        <ele>86.7</ele>
        <time>2024-12-19T08:59:32Z</time>
      </trkpt>
      <trkpt lat="47.93971" lon="-2.49547">
        <ele>86.6</ele>
        <time>2024-12-19T08:59:33Z</time>
      </trkpt>
      <trkpt lat="47.93971" lon="-2.49546">
        <ele>86.6</ele>
        <time>2024-12-19T08:59:34Z</time>
      </trkpt>
      <trkpt lat="47.9397" lon="-2.49544">
        <ele>86.5</ele>
        <time>2024-12-19T08:59:35Z</time>
      </trkpt>
      <trkpt lat="47.9397" lon="-2.49542">
        <ele>86.4</ele>
        <time>2024-12-19T08:59:36Z</time>
      </trkpt>
      <trkpt lat="47.9397" lon="-2.4954">
        <ele>86.3</ele>
        <time>2024-12-19T08:59:37Z</time>
      </trkpt>
      <trkpt lat="47.93969" lon="-2.49539">
        <ele>86.3</ele>
        <time>2024-12-19T08:59:38Z</time>
      </trkpt>
      <trkpt lat="47.93969" lon="-2.49538">
        <ele>86.2</ele>
        <time>2024-12-19T08:59:39Z</time>
      </trkpt>
      <trkpt lat="47.93968" lon="-2.49536">
        <ele>86.1</ele>
        <time>2024-12-19T08:59:40Z</time>
      </trkpt>
      <trkpt lat="47.93968" lon="-2.49534">
        <ele>86.1</ele>
        <time>2024-12-19T08:59:41Z</time>
      </trkpt>
      <trkpt lat="47.93967" lon="-2.49533">
        <ele>86</ele>
        <time>2024-12-19T08:59:42Z</time>
      </trkpt>
      <trkpt lat="47.93967" lon="-2.49531">
        <ele>85.9</ele>
        <time>2024-12-19T08:59:43Z</time>
      </trkpt>
      <trkpt lat="47.93967" lon="-2.49529">
        <ele>85.8</ele>
        <time>2024-12-19T08:59:44Z</time>
      </trkpt>
      <trkpt lat="47.93966" lon="-2.49528">
        <ele>85.8</ele>
        <time>2024-12-19T08:59:45Z</time>
      </trkpt>
      <trkpt lat="47.93967" lon="-2.49526">
        <ele>85.7</ele>
        <time>2024-12-19T08:59:46Z</time>
      </trkpt>
      <trkpt lat="47.93967" lon="-2.49524">
        <ele>85.7</ele>
        <time>2024-12-19T08:59:47Z</time>
      </trkpt>
      <trkpt lat="47.93969" lon="-2.49522">
        <ele>85.7</ele>
        <time>2024-12-19T08:59:48Z</time>
      </trkpt>
      <trkpt lat="47.9397" lon="-2.49521">
        <ele>85.7</ele>
        <time>2024-12-19T08:59:49Z</time>
      </trkpt>
      <trkpt lat="47.9397" lon="-2.4952">
        <ele>85.6</ele>
        <time>2024-12-19T08:59:50Z</time>
      </trkpt>
      <trkpt lat="47.9397" lon="-2.49518">
        <ele>85.6</ele>
        <time>2024-12-19T08:59:51Z</time>
      </trkpt>
      <trkpt lat="47.9397" lon="-2.49517">
        <ele>85.6</ele>
        <time>2024-12-19T08:59:52Z</time>
      </trkpt>
      <trkpt lat="47.93971" lon="-2.49516">
        <ele>85.5</ele>
        <time>2024-12-19T08:59:53Z</time>
      </trkpt>
      <trkpt lat="47.9397" lon="-2.49515">
        <ele>85.5</ele>
        <time>2024-12-19T08:59:54Z</time>
      </trkpt>
      <trkpt lat="47.9397" lon="-2.49513">
        <ele>85.4</ele>
        <time>2024-12-19T08:59:55Z</time>
      </trkpt>
      <trkpt lat="47.9397" lon="-2.49511">
        <ele>85.4</ele>
        <time>2024-12-19T08:59:56Z</time>
      </trkpt>
      <trkpt lat="47.93969" lon="-2.49509">
        <ele>85.3</ele>
        <time>2024-12-19T08:59:57Z</time>
      </trkpt>
      <trkpt lat="47.93969" lon="-2.49507">
        <ele>85.2</ele>
        <time>2024-12-19T08:59:58Z</time>
      </trkpt>
      <trkpt lat="47.93969" lon="-2.49504">
        <ele>85.1</ele>
        <time>2024-12-19T08:59:59Z</time>
      </trkpt>
      <trkpt lat="47.93969" lon="-2.49502">
        <ele>85</ele>
        <time>2024-12-19T09:00:00Z</time>
      </trkpt>
      <trkpt lat="47.93969" lon="-2.495">
        <ele>85</ele>
        <time>2024-12-19T09:00:01Z</time>
      </trkpt>
      <trkpt lat="47.93969" lon="-2.49498">
        <ele>85</ele>
        <time>2024-12-19T09:00:02Z</time>
      </trkpt>
      <trkpt lat="47.93969" lon="-2.49496">
        <ele>85</ele>
        <time>2024-12-19T09:00:03Z</time>
      </trkpt>
      <trkpt lat="47.93969" lon="-2.49495">
        <ele>85</ele>
        <time>2024-12-19T09:00:04Z</time>
      </trkpt>
      <trkpt lat="47.9397" lon="-2.49493">
        <ele>85</ele>
        <time>2024-12-19T09:00:05Z</time>
      </trkpt>
      <trkpt lat="47.9397" lon="-2.49491">
        <ele>85</ele>
        <time>2024-12-19T09:00:06Z</time>
      </trkpt>
      <trkpt lat="47.9397" lon="-2.49489">
        <ele>85</ele>
        <time>2024-12-19T09:00:07Z</time>
      </trkpt>
      <trkpt lat="47.93969" lon="-2.49487">
        <ele>85</ele>
        <time>2024-12-19T09:00:08Z</time>
      </trkpt>
      <trkpt lat="47.93969" lon="-2.49484">
        <ele>84.9</ele>
        <time>2024-12-19T09:00:09Z</time>
      </trkpt>
      <trkpt lat="47.93969" lon="-2.49481">
        <ele>84.9</ele>
        <time>2024-12-19T09:00:10Z</time>
      </trkpt>
      <trkpt lat="47.93968" lon="-2.49479">
        <ele>84.9</ele>
        <time>2024-12-19T09:00:11Z</time>
      </trkpt>
      <trkpt lat="47.93968" lon="-2.49477">
        <ele>84.9</ele>
        <time>2024-12-19T09:00:12Z</time>
      </trkpt>
      <trkpt lat="47.93967" lon="-2.49475">
        <ele>84.8</ele>
        <time>2024-12-19T09:00:13Z</time>
      </trkpt>
      <trkpt lat="47.93967" lon="-2.49474">
        <ele>84.8</ele>
        <time>2024-12-19T09:00:14Z</time>
      </trkpt>
      <trkpt lat="47.93966" lon="-2.49472">
        <ele>84.8</ele>
        <time>2024-12-19T09:00:15Z</time>
      </trkpt>
      <trkpt lat="47.93966" lon="-2.49471">
        <ele>84.7</ele>
        <time>2024-12-19T09:00:16Z</time>
      </trkpt>
      <trkpt lat="47.93965" lon="-2.49468">
        <ele>84.6</ele>
        <time>2024-12-19T09:00:17Z</time>
      </trkpt>
      <trkpt lat="47.93965" lon="-2.49466">
        <ele>84.6</ele>
        <time>2024-12-19T09:00:18Z</time>
      </trkpt>
      <trkpt lat="47.93964" lon="-2.49463">
        <ele>84.5</ele>
        <time>2024-12-19T09:00:19Z</time>
      </trkpt>
      <trkpt lat="47.93964" lon="-2.49462">
        <ele>84.4</ele>
        <time>2024-12-19T09:00:20Z</time>
      </trkpt>
      <trkpt lat="47.93964" lon="-2.49461">
        <ele>84.4</ele>
        <time>2024-12-19T09:00:21Z</time>
      </trkpt>
      <trkpt lat="47.93964" lon="-2.49459">
        <ele>84.4</ele>
        <time>2024-12-19T09:00:22Z</time>
      </trkpt>
      <trkpt lat="47.93965" lon="-2.49458">
        <ele>84.3</ele>
        <time>2024-12-19T09:00:23Z</time>
      </trkpt>
      <trkpt lat="47.93965" lon="-2.49456">
        <ele>84.3</ele>
        <time>2024-12-19T09:00:24Z</time>
      </trkpt>
      <trkpt lat="47.93965" lon="-2.49454">
        <ele>84.3</ele>
        <time>2024-12-19T09:00:25Z</time>
      </trkpt>
      <trkpt lat="47.93965" lon="-2.49453">
        <ele>84.2</ele>
        <time>2024-12-19T09:00:26Z</time>
      </trkpt>
      <trkpt lat="47.93965" lon="-2.49452">
        <ele>84.2</ele>
        <time>2024-12-19T09:00:27Z</time>
      </trkpt>
      <trkpt lat="47.93964" lon="-2.4945">
        <ele>84.1</ele>
        <time>2024-12-19T09:00:28Z</time>
      </trkpt>
      <trkpt lat="47.93964" lon="-2.49448">
        <ele>84.1</ele>
        <time>2024-12-19T09:00:29Z</time>
      </trkpt>
      <trkpt lat="47.93963" lon="-2.49446">
        <ele>84</ele>
        <time>2024-12-19T09:00:30Z</time>
      </trkpt>
      <trkpt lat="47.93963" lon="-2.49443">
        <ele>84</ele>
        <time>2024-12-19T09:00:31Z</time>
      </trkpt>
      <trkpt lat="47.93963" lon="-2.49442">
        <ele>83.9</ele>
        <time>2024-12-19T09:00:32Z</time>
      </trkpt>
      <trkpt lat="47.93962" lon="-2.4944">
        <ele>83.8</ele>
        <time>2024-12-19T09:00:33Z</time>
      </trkpt>
      <trkpt lat="47.93962" lon="-2.49439">
        <ele>83.8</ele>
        <time>2024-12-19T09:00:34Z</time>
      </trkpt>
      <trkpt lat="47.93962" lon="-2.49437">
        <ele>83.7</ele>
        <time>2024-12-19T09:00:35Z</time>
      </trkpt>
      <trkpt lat="47.93962" lon="-2.49436">
        <ele>83.7</ele>
        <time>2024-12-19T09:00:36Z</time>
      </trkpt>
      <trkpt lat="47.93961" lon="-2.49434">
        <ele>83.6</ele>
        <time>2024-12-19T09:00:37Z</time>
      </trkpt>
      <trkpt lat="47.93961" lon="-2.49432">
        <ele>83.5</ele>
        <time>2024-12-19T09:00:38Z</time>
      </trkpt>
      <trkpt lat="47.93961" lon="-2.49429">
        <ele>83.5</ele>
        <time>2024-12-19T09:00:39Z</time>
      </trkpt>
      <trkpt lat="47.9396" lon="-2.49427">
        <ele>83.4</ele>
        <time>2024-12-19T09:00:40Z</time>
      </trkpt>
      <trkpt lat="47.9396" lon="-2.49425">
        <ele>83.3</ele>
        <time>2024-12-19T09:00:41Z</time>
      </trkpt>
      <trkpt lat="47.9396" lon="-2.49423">
        <ele>83.2</ele>
        <time>2024-12-19T09:00:42Z</time>
      </trkpt>
      <trkpt lat="47.9396" lon="-2.49422">
        <ele>83.2</ele>
        <time>2024-12-19T09:00:43Z</time>
      </trkpt>
      <trkpt lat="47.9396" lon="-2.49419">
        <ele>83.1</ele>
        <time>2024-12-19T09:00:44Z</time>
      </trkpt>
      <trkpt lat="47.9396" lon="-2.49418">
        <ele>83</ele>
        <time>2024-12-19T09:00:45Z</time>
      </trkpt>
      <trkpt lat="47.93959" lon="-2.49415">
        <ele>83</ele>
        <time>2024-12-19T09:00:46Z</time>
      </trkpt>
      <trkpt lat="47.93959" lon="-2.49413">
        <ele>83</ele>
        <time>2024-12-19T09:00:47Z</time>
      </trkpt>
      <trkpt lat="47.93958" lon="-2.49411">
        <ele>83</ele>
        <time>2024-12-19T09:00:48Z</time>
      </trkpt>
      <trkpt lat="47.93958" lon="-2.49409">
        <ele>83</ele>
        <time>2024-12-19T09:00:49Z</time>
      </trkpt>
      <trkpt lat="47.93958" lon="-2.49407">
        <ele>83</ele>
        <time>2024-12-19T09:00:50Z</time>
      </trkpt>
      <trkpt lat="47.93958" lon="-2.49405">
        <ele>83</ele>
        <time>2024-12-19T09:00:51Z</time>
      </trkpt>
      <trkpt lat="47.93958" lon="-2.49402">
        <ele>83</ele>
        <time>2024-12-19T09:00:52Z</time>
      </trkpt>
      <trkpt lat="47.93958" lon="-2.49401">
        <ele>83</ele>
        <time>2024-12-19T09:00:53Z</time>
      </trkpt>
      <trkpt lat="47.93957" lon="-2.49399">
        <ele>83</ele>
        <time>2024-12-19T09:00:54Z</time>
      </trkpt>
      <trkpt lat="47.93957" lon="-2.49397">
        <ele>83</ele>
        <time>2024-12-19T09:00:55Z</time>
      </trkpt>
      <trkpt lat="47.93956" lon="-2.49395">
        <ele>83</ele>
        <time>2024-12-19T09:00:56Z</time>
      </trkpt>
      <trkpt lat="47.93956" lon="-2.49392">
        <ele>83</ele>
        <time>2024-12-19T09:00:57Z</time>
      </trkpt>
      <trkpt lat="47.93955" lon="-2.4939">
        <ele>83</ele>
        <time>2024-12-19T09:00:58Z</time>
      </trkpt>
      <trkpt lat="47.93955" lon="-2.49389">
        <ele>83</ele>
        <time>2024-12-19T09:00:59Z</time>
      </trkpt>
      <trkpt lat="47.93955" lon="-2.49386">
        <ele>83</ele>
        <time>2024-12-19T09:01:00Z</time>
      </trkpt>
      <trkpt lat="47.93954" lon="-2.49384">
        <ele>83</ele>
        <time>2024-12-19T09:01:01Z</time>
      </trkpt>
      <trkpt lat="47.93954" lon="-2.49382">
        <ele>83</ele>
        <time>2024-12-19T09:01:02Z</time>
      </trkpt>
      <trkpt lat="47.93954" lon="-2.4938">
        <ele>83</ele>
        <time>2024-12-19T09:01:03Z</time>
      </trkpt>
      <trkpt lat="47.93954" lon="-2.49378">
        <ele>83</ele>
        <time>2024-12-19T09:01:04Z</time>
      </trkpt>
      <trkpt lat="47.93953" lon="-2.49375">
        <ele>83</ele>
        <time>2024-12-19T09:01:05Z</time>
      </trkpt>
      <trkpt lat="47.93953" lon="-2.49373">
        <ele>83</ele>
        <time>2024-12-19T09:01:06Z</time>
      </trkpt>
      <trkpt lat="47.93952" lon="-2.49372">
        <ele>83</ele>
        <time>2024-12-19T09:01:07Z</time>
      </trkpt>
      <trkpt lat="47.93952" lon="-2.4937">
        <ele>83</ele>
        <time>2024-12-19T09:01:08Z</time>
      </trkpt>
      <trkpt lat="47.93951" lon="-2.49369">
        <ele>83</ele>
        <time>2024-12-19T09:01:09Z</time>
      </trkpt>
      <trkpt lat="47.93951" lon="-2.49366">
        <ele>83</ele>
        <time>2024-12-19T09:01:10Z</time>
      </trkpt>
      <trkpt lat="47.9395" lon="-2.49364">
        <ele>83</ele>
        <time>2024-12-19T09:01:11Z</time>
      </trkpt>
      <trkpt lat="47.9395" lon="-2.49361">
        <ele>83</ele>
        <time>2024-12-19T09:01:12Z</time>
      </trkpt>
      <trkpt lat="47.93949" lon="-2.4936">
        <ele>83</ele>
        <time>2024-12-19T09:01:13Z</time>
      </trkpt>
      <trkpt lat="47.93949" lon="-2.49358">
        <ele>82.9</ele>
        <time>2024-12-19T09:01:14Z</time>
      </trkpt>
      <trkpt lat="47.9395" lon="-2.49357">
        <ele>82.9</ele>
        <time>2024-12-19T09:01:15Z</time>
      </trkpt>
      <trkpt lat="47.9395" lon="-2.49355">
        <ele>82.8</ele>
        <time>2024-12-19T09:01:16Z</time>
      </trkpt>
      <trkpt lat="47.93949" lon="-2.49353">
        <ele>82.7</ele>
        <time>2024-12-19T09:01:17Z</time>
      </trkpt>
      <trkpt lat="47.93949" lon="-2.49351">
        <ele>82.7</ele>
        <time>2024-12-19T09:01:18Z</time>
      </trkpt>
      <trkpt lat="47.93949" lon="-2.4935">
        <ele>82.7</ele>
        <time>2024-12-19T09:01:19Z</time>
      </trkpt>
      <trkpt lat="47.93949" lon="-2.4935">
        <ele>82.7</ele>
        <time>2024-12-19T09:01:20Z</time>
      </trkpt>
      <trkpt lat="47.93949" lon="-2.49348">
        <ele>82.6</ele>
        <time>2024-12-19T09:01:21Z</time>
      </trkpt>
      <trkpt lat="47.93949" lon="-2.49346">
        <ele>82.5</ele>
        <time>2024-12-19T09:01:22Z</time>
      </trkpt>
      <trkpt lat="47.93948" lon="-2.49344">
        <ele>82.5</ele>
        <time>2024-12-19T09:01:23Z</time>
      </trkpt>
      <trkpt lat="47.93947" lon="-2.49341">
        <ele>82.4</ele>
        <time>2024-12-19T09:01:24Z</time>
      </trkpt>
      <trkpt lat="47.93947" lon="-2.4934">
        <ele>82.3</ele>
        <time>2024-12-19T09:01:25Z</time>
      </trkpt>
      <trkpt lat="47.93947" lon="-2.49338">
        <ele>82.2</ele>
        <time>2024-12-19T09:01:26Z</time>
      </trkpt>
      <trkpt lat="47.93946" lon="-2.49336">
        <ele>82.2</ele>
        <time>2024-12-19T09:01:27Z</time>
      </trkpt>
      <trkpt lat="47.93946" lon="-2.49334">
        <ele>82.1</ele>
        <time>2024-12-19T09:01:28Z</time>
      </trkpt>
      <trkpt lat="47.93946" lon="-2.49332">
        <ele>82</ele>
        <time>2024-12-19T09:01:29Z</time>
      </trkpt>
      <trkpt lat="47.93945" lon="-2.4933">
        <ele>82</ele>
        <time>2024-12-19T09:01:30Z</time>
      </trkpt>
      <trkpt lat="47.93945" lon="-2.49329">
        <ele>82</ele>
        <time>2024-12-19T09:01:31Z</time>
      </trkpt>
      <trkpt lat="47.93944" lon="-2.49328">
        <ele>82</ele>
        <time>2024-12-19T09:01:32Z</time>
      </trkpt>
      <trkpt lat="47.93943" lon="-2.49325">
        <ele>82</ele>
        <time>2024-12-19T09:01:33Z</time>
      </trkpt>
      <trkpt lat="47.93942" lon="-2.49323">
        <ele>82</ele>
        <time>2024-12-19T09:01:34Z</time>
      </trkpt>
      <trkpt lat="47.93942" lon="-2.49321">
        <ele>82</ele>
        <time>2024-12-19T09:01:35Z</time>
      </trkpt>
      <trkpt lat="47.93941" lon="-2.49319">
        <ele>82</ele>
        <time>2024-12-19T09:01:36Z</time>
      </trkpt>
      <trkpt lat="47.93941" lon="-2.49317">
        <ele>82</ele>
        <time>2024-12-19T09:01:37Z</time>
      </trkpt>
      <trkpt lat="47.9394" lon="-2.49315">
        <ele>82</ele>
        <time>2024-12-19T09:01:38Z</time>
      </trkpt>
      <trkpt lat="47.9394" lon="-2.49312">
        <ele>82</ele>
        <time>2024-12-19T09:01:39Z</time>
      </trkpt>
      <trkpt lat="47.93939" lon="-2.4931">
        <ele>82</ele>
        <time>2024-12-19T09:01:40Z</time>
      </trkpt>
      <trkpt lat="47.93939" lon="-2.49308">
        <ele>82</ele>
        <time>2024-12-19T09:01:41Z</time>
      </trkpt>
      <trkpt lat="47.93939" lon="-2.49307">
        <ele>82</ele>
        <time>2024-12-19T09:01:42Z</time>
      </trkpt>
      <trkpt lat="47.93938" lon="-2.49305">
        <ele>82</ele>
        <time>2024-12-19T09:01:43Z</time>
      </trkpt>
      <trkpt lat="47.93938" lon="-2.49302">
        <ele>82</ele>
        <time>2024-12-19T09:01:44Z</time>
      </trkpt>
      <trkpt lat="47.93938" lon="-2.49301">
        <ele>82</ele>
        <time>2024-12-19T09:01:45Z</time>
      </trkpt>
      <trkpt lat="47.93938" lon="-2.49299">
        <ele>82</ele>
        <time>2024-12-19T09:01:46Z</time>
      </trkpt>
      <trkpt lat="47.93937" lon="-2.49297">
        <ele>82</ele>
        <time>2024-12-19T09:01:47Z</time>
      </trkpt>
      <trkpt lat="47.93937" lon="-2.49295">
        <ele>82</ele>
        <time>2024-12-19T09:01:48Z</time>
      </trkpt>
      <trkpt lat="47.93937" lon="-2.49293">
        <ele>82</ele>
        <time>2024-12-19T09:01:49Z</time>
      </trkpt>
      <trkpt lat="47.93937" lon="-2.4929">
        <ele>82</ele>
        <time>2024-12-19T09:01:50Z</time>
      </trkpt>
      <trkpt lat="47.93937" lon="-2.49288">
        <ele>82</ele>
        <time>2024-12-19T09:01:51Z</time>
      </trkpt>
      <trkpt lat="47.93937" lon="-2.49286">
        <ele>82</ele>
        <time>2024-12-19T09:01:52Z</time>
      </trkpt>
      <trkpt lat="47.93936" lon="-2.49285">
        <ele>82</ele>
        <time>2024-12-19T09:01:53Z</time>
      </trkpt>
      <trkpt lat="47.93936" lon="-2.49283">
        <ele>82</ele>
        <time>2024-12-19T09:01:54Z</time>
      </trkpt>
      <trkpt lat="47.93936" lon="-2.49281">
        <ele>82</ele>
        <time>2024-12-19T09:01:55Z</time>
      </trkpt>
      <trkpt lat="47.93935" lon="-2.49279">
        <ele>82</ele>
        <time>2024-12-19T09:01:56Z</time>
      </trkpt>
      <trkpt lat="47.93935" lon="-2.49277">
        <ele>82</ele>
        <time>2024-12-19T09:01:57Z</time>
      </trkpt>
      <trkpt lat="47.93935" lon="-2.49275">
        <ele>81.9</ele>
        <time>2024-12-19T09:01:58Z</time>
      </trkpt>
      <trkpt lat="47.93935" lon="-2.49273">
        <ele>81.9</ele>
        <time>2024-12-19T09:01:59Z</time>
      </trkpt>
      <trkpt lat="47.93935" lon="-2.49272">
        <ele>81.9</ele>
        <time>2024-12-19T09:02:00Z</time>
      </trkpt>
      <trkpt lat="47.93934" lon="-2.4927">
        <ele>81.8</ele>
        <time>2024-12-19T09:02:01Z</time>
      </trkpt>
      <trkpt lat="47.93935" lon="-2.49268">
        <ele>81.8</ele>
        <time>2024-12-19T09:02:02Z</time>
      </trkpt>
      <trkpt lat="47.93935" lon="-2.49267">
        <ele>81.7</ele>
        <time>2024-12-19T09:02:03Z</time>
      </trkpt>
      <trkpt lat="47.93934" lon="-2.49265">
        <ele>81.7</ele>
        <time>2024-12-19T09:02:04Z</time>
      </trkpt>
      <trkpt lat="47.93934" lon="-2.49263">
        <ele>81.7</ele>
        <time>2024-12-19T09:02:05Z</time>
      </trkpt>
      <trkpt lat="47.93933" lon="-2.49261">
        <ele>81.6</ele>
        <time>2024-12-19T09:02:06Z</time>
      </trkpt>
      <trkpt lat="47.93933" lon="-2.49258">
        <ele>81.6</ele>
        <time>2024-12-19T09:02:07Z</time>
      </trkpt>
      <trkpt lat="47.93932" lon="-2.49256">
        <ele>81.6</ele>
        <time>2024-12-19T09:02:08Z</time>
      </trkpt>
      <trkpt lat="47.93932" lon="-2.49255">
        <ele>81.5</ele>
        <time>2024-12-19T09:02:09Z</time>
      </trkpt>
      <trkpt lat="47.93932" lon="-2.49253">
        <ele>81.5</ele>
        <time>2024-12-19T09:02:10Z</time>
      </trkpt>
      <trkpt lat="47.93931" lon="-2.4925">
        <ele>81.5</ele>
        <time>2024-12-19T09:02:11Z</time>
      </trkpt>
      <trkpt lat="47.93931" lon="-2.49248">
        <ele>81.5</ele>
        <time>2024-12-19T09:02:12Z</time>
      </trkpt>
      <trkpt lat="47.93931" lon="-2.49246">
        <ele>81.4</ele>
        <time>2024-12-19T09:02:13Z</time>
      </trkpt>
      <trkpt lat="47.93931" lon="-2.49244">
        <ele>81.4</ele>
        <time>2024-12-19T09:02:14Z</time>
      </trkpt>
      <trkpt lat="47.93931" lon="-2.49243">
        <ele>81.3</ele>
        <time>2024-12-19T09:02:15Z</time>
      </trkpt>
      <trkpt lat="47.93932" lon="-2.49241">
        <ele>81.3</ele>
        <time>2024-12-19T09:02:16Z</time>
      </trkpt>
      <trkpt lat="47.93932" lon="-2.49239">
        <ele>81.3</ele>
        <time>2024-12-19T09:02:17Z</time>
      </trkpt>
      <trkpt lat="47.93931" lon="-2.49238">
        <ele>81.3</ele>
        <time>2024-12-19T09:02:18Z</time>
      </trkpt>
      <trkpt lat="47.93931" lon="-2.49236">
        <ele>81.2</ele>
        <time>2024-12-19T09:02:19Z</time>
      </trkpt>
      <trkpt lat="47.9393" lon="-2.49234">
        <ele>81.2</ele>
        <time>2024-12-19T09:02:20Z</time>
      </trkpt>
      <trkpt lat="47.93929" lon="-2.49231">
        <ele>81.2</ele>
        <time>2024-12-19T09:02:21Z</time>
      </trkpt>
      <trkpt lat="47.93928" lon="-2.49229">
        <ele>81.1</ele>
        <time>2024-12-19T09:02:22Z</time>
      </trkpt>
      <trkpt lat="47.93928" lon="-2.49227">
        <ele>81.1</ele>
        <time>2024-12-19T09:02:23Z</time>
      </trkpt>
      <trkpt lat="47.93927" lon="-2.49225">
        <ele>81.1</ele>
        <time>2024-12-19T09:02:24Z</time>
      </trkpt>
      <trkpt lat="47.93927" lon="-2.49223">
        <ele>81</ele>
        <time>2024-12-19T09:02:25Z</time>
      </trkpt>
      <trkpt lat="47.93926" lon="-2.49221">
        <ele>81</ele>
        <time>2024-12-19T09:02:26Z</time>
      </trkpt>
      <trkpt lat="47.93926" lon="-2.4922">
        <ele>81</ele>
        <time>2024-12-19T09:02:27Z</time>
      </trkpt>
      <trkpt lat="47.93926" lon="-2.49218">
        <ele>81</ele>
        <time>2024-12-19T09:02:28Z</time>
      </trkpt>
      <trkpt lat="47.93926" lon="-2.49216">
        <ele>81</ele>
        <time>2024-12-19T09:02:29Z</time>
      </trkpt>
      <trkpt lat="47.93925" lon="-2.49214">
        <ele>81</ele>
        <time>2024-12-19T09:02:30Z</time>
      </trkpt>
      <trkpt lat="47.93925" lon="-2.49213">
        <ele>81</ele>
        <time>2024-12-19T09:02:31Z</time>
      </trkpt>
      <trkpt lat="47.93925" lon="-2.49211">
        <ele>81</ele>
        <time>2024-12-19T09:02:32Z</time>
      </trkpt>
      <trkpt lat="47.93924" lon="-2.49209">
        <ele>81</ele>
        <time>2024-12-19T09:02:33Z</time>
      </trkpt>
      <trkpt lat="47.93924" lon="-2.49208">
        <ele>81</ele>
        <time>2024-12-19T09:02:34Z</time>
      </trkpt>
      <trkpt lat="47.93924" lon="-2.49206">
        <ele>81</ele>
        <time>2024-12-19T09:02:35Z</time>
      </trkpt>
      <trkpt lat="47.93924" lon="-2.49204">
        <ele>81</ele>
        <time>2024-12-19T09:02:36Z</time>
      </trkpt>
      <trkpt lat="47.93924" lon="-2.49202">
        <ele>81</ele>
        <time>2024-12-19T09:02:37Z</time>
      </trkpt>
      <trkpt lat="47.93924" lon="-2.49199">
        <ele>81</ele>
        <time>2024-12-19T09:02:38Z</time>
      </trkpt>
      <trkpt lat="47.93924" lon="-2.49197">
        <ele>81</ele>
        <time>2024-12-19T09:02:39Z</time>
      </trkpt>
      <trkpt lat="47.93924" lon="-2.49195">
        <ele>81</ele>
        <time>2024-12-19T09:02:40Z</time>
      </trkpt>
      <trkpt lat="47.93923" lon="-2.49193">
        <ele>81</ele>
        <time>2024-12-19T09:02:41Z</time>
      </trkpt>
      <trkpt lat="47.93923" lon="-2.49191">
        <ele>81</ele>
        <time>2024-12-19T09:02:42Z</time>
      </trkpt>
      <trkpt lat="47.93923" lon="-2.49188">
        <ele>81</ele>
        <time>2024-12-19T09:02:43Z</time>
      </trkpt>
      <trkpt lat="47.93922" lon="-2.49187">
        <ele>81</ele>
        <time>2024-12-19T09:02:44Z</time>
      </trkpt>
      <trkpt lat="47.93922" lon="-2.49185">
        <ele>81</ele>
        <time>2024-12-19T09:02:45Z</time>
      </trkpt>
      <trkpt lat="47.93922" lon="-2.49183">
        <ele>81</ele>
        <time>2024-12-19T09:02:46Z</time>
      </trkpt>
      <trkpt lat="47.93921" lon="-2.49182">
        <ele>81</ele>
        <time>2024-12-19T09:02:47Z</time>
      </trkpt>
      <trkpt lat="47.93921" lon="-2.4918">
        <ele>81</ele>
        <time>2024-12-19T09:02:48Z</time>
      </trkpt>
      <trkpt lat="47.9392" lon="-2.49178">
        <ele>81</ele>
        <time>2024-12-19T09:02:49Z</time>
      </trkpt>
      <trkpt lat="47.9392" lon="-2.49175">
        <ele>81</ele>
        <time>2024-12-19T09:02:50Z</time>
      </trkpt>
      <trkpt lat="47.93919" lon="-2.49173">
        <ele>81</ele>
        <time>2024-12-19T09:02:51Z</time>
      </trkpt>
      <trkpt lat="47.93919" lon="-2.4917">
        <ele>81</ele>
        <time>2024-12-19T09:02:52Z</time>
      </trkpt>
      <trkpt lat="47.93918" lon="-2.49168">
        <ele>81</ele>
        <time>2024-12-19T09:02:53Z</time>
      </trkpt>
      <trkpt lat="47.93918" lon="-2.49166">
        <ele>81</ele>
        <time>2024-12-19T09:02:54Z</time>
      </trkpt>
      <trkpt lat="47.93917" lon="-2.49164">
        <ele>81</ele>
        <time>2024-12-19T09:02:55Z</time>
      </trkpt>
      <trkpt lat="47.93917" lon="-2.49162">
        <ele>81</ele>
        <time>2024-12-19T09:02:56Z</time>
      </trkpt>
      <trkpt lat="47.93917" lon="-2.49161">
        <ele>81</ele>
        <time>2024-12-19T09:02:57Z</time>
      </trkpt>
      <trkpt lat="47.93917" lon="-2.4916">
        <ele>81</ele>
        <time>2024-12-19T09:02:58Z</time>
      </trkpt>
      <trkpt lat="47.93917" lon="-2.49159">
        <ele>81</ele>
        <time>2024-12-19T09:02:59Z</time>
      </trkpt>
      <trkpt lat="47.93916" lon="-2.49158">
        <ele>81</ele>
        <time>2024-12-19T09:03:00Z</time>
      </trkpt>
      <trkpt lat="47.93916" lon="-2.49157">
        <ele>81</ele>
        <time>2024-12-19T09:03:01Z</time>
      </trkpt>
      <trkpt lat="47.93916" lon="-2.49157">
        <ele>81</ele>
        <time>2024-12-19T09:03:02Z</time>
      </trkpt>
      <trkpt lat="47.93916" lon="-2.49157">
        <ele>81</ele>
        <time>2024-12-19T09:03:03Z</time>
      </trkpt>
      <trkpt lat="47.93916" lon="-2.49157">
        <ele>81</ele>
        <time>2024-12-19T09:03:04Z</time>
      </trkpt>
      <trkpt lat="47.93916" lon="-2.49156">
        <ele>80.9</ele>
        <time>2024-12-19T09:03:05Z</time>
      </trkpt>
      <trkpt lat="47.93915" lon="-2.49156">
        <ele>80.9</ele>
        <time>2024-12-19T09:03:06Z</time>
      </trkpt>
      <trkpt lat="47.93915" lon="-2.49156">
        <ele>80.9</ele>
        <time>2024-12-19T09:03:07Z</time>
      </trkpt>
      <trkpt lat="47.93915" lon="-2.49156">
        <ele>80.9</ele>
        <time>2024-12-19T09:03:08Z</time>
      </trkpt>
      <trkpt lat="47.93915" lon="-2.49156">
        <ele>80.9</ele>
        <time>2024-12-19T09:03:09Z</time>
      </trkpt>
      <trkpt lat="47.93915" lon="-2.49156">
        <ele>80.9</ele>
        <time>2024-12-19T09:03:10Z</time>
      </trkpt>
      <trkpt lat="47.93914" lon="-2.49156">
        <ele>80.9</ele>
        <time>2024-12-19T09:03:11Z</time>
      </trkpt>
      <trkpt lat="47.93913" lon="-2.49156">
        <ele>80.8</ele>
        <time>2024-12-19T09:03:12Z</time>
      </trkpt>
      <trkpt lat="47.93911" lon="-2.49157">
        <ele>80.7</ele>
        <time>2024-12-19T09:03:13Z</time>
      </trkpt>
      <trkpt lat="47.9391" lon="-2.49158">
        <ele>80.7</ele>
        <time>2024-12-19T09:03:14Z</time>
      </trkpt>
      <trkpt lat="47.93909" lon="-2.49159">
        <ele>80.6</ele>
        <time>2024-12-19T09:03:15Z</time>
      </trkpt>
      <trkpt lat="47.93908" lon="-2.4916">
        <ele>80.6</ele>
        <time>2024-12-19T09:03:16Z</time>
      </trkpt>
      <trkpt lat="47.93907" lon="-2.4916">
        <ele>80.5</ele>
        <time>2024-12-19T09:03:17Z</time>
      </trkpt>
      <trkpt lat="47.93905" lon="-2.4916">
        <ele>80.5</ele>
        <time>2024-12-19T09:03:18Z</time>
      </trkpt>
      <trkpt lat="47.93904" lon="-2.4916">
        <ele>80.4</ele>
        <time>2024-12-19T09:03:19Z</time>
      </trkpt>
      <trkpt lat="47.93903" lon="-2.49161">
        <ele>80.4</ele>
        <time>2024-12-19T09:03:20Z</time>
      </trkpt>
      <trkpt lat="47.93902" lon="-2.49161">
        <ele>80.4</ele>
        <time>2024-12-19T09:03:21Z</time>
      </trkpt>
      <trkpt lat="47.939" lon="-2.49163">
        <ele>80.3</ele>
        <time>2024-12-19T09:03:22Z</time>
      </trkpt>
      <trkpt lat="47.93899" lon="-2.49164">
        <ele>80.3</ele>
        <time>2024-12-19T09:03:23Z</time>
      </trkpt>
      <trkpt lat="47.93898" lon="-2.49166">
        <ele>80.3</ele>
        <time>2024-12-19T09:03:24Z</time>
      </trkpt>
      <trkpt lat="47.93897" lon="-2.49167">
        <ele>80.3</ele>
        <time>2024-12-19T09:03:25Z</time>
      </trkpt>
      <trkpt lat="47.93897" lon="-2.49169">
        <ele>80.3</ele>
        <time>2024-12-19T09:03:26Z</time>
      </trkpt>
      <trkpt lat="47.93896" lon="-2.49171">
        <ele>80.4</ele>
        <time>2024-12-19T09:03:27Z</time>
      </trkpt>
      <trkpt lat="47.93896" lon="-2.49172">
        <ele>80.4</ele>
        <time>2024-12-19T09:03:28Z</time>
      </trkpt>
      <trkpt lat="47.93895" lon="-2.49174">
        <ele>80.4</ele>
        <time>2024-12-19T09:03:29Z</time>
      </trkpt>
      <trkpt lat="47.93894" lon="-2.49175">
        <ele>80.4</ele>
        <time>2024-12-19T09:03:30Z</time>
      </trkpt>
      <trkpt lat="47.93893" lon="-2.49177">
        <ele>80.5</ele>
        <time>2024-12-19T09:03:31Z</time>
      </trkpt>
      <trkpt lat="47.93892" lon="-2.49178">
        <ele>80.5</ele>
        <time>2024-12-19T09:03:32Z</time>
      </trkpt>
      <trkpt lat="47.93891" lon="-2.4918">
        <ele>80.5</ele>
        <time>2024-12-19T09:03:33Z</time>
      </trkpt>
      <trkpt lat="47.9389" lon="-2.49181">
        <ele>80.5</ele>
        <time>2024-12-19T09:03:34Z</time>
      </trkpt>
      <trkpt lat="47.93888" lon="-2.49182">
        <ele>80.5</ele>
        <time>2024-12-19T09:03:35Z</time>
      </trkpt>
      <trkpt lat="47.93887" lon="-2.49183">
        <ele>80.5</ele>
        <time>2024-12-19T09:03:36Z</time>
      </trkpt>
      <trkpt lat="47.93886" lon="-2.49184">
        <ele>80.5</ele>
        <time>2024-12-19T09:03:37Z</time>
      </trkpt>
      <trkpt lat="47.93885" lon="-2.49185">
        <ele>80.5</ele>
        <time>2024-12-19T09:03:38Z</time>
      </trkpt>
      <trkpt lat="47.93884" lon="-2.49186">
        <ele>80.5</ele>
        <time>2024-12-19T09:03:39Z</time>
      </trkpt>
      <trkpt lat="47.93883" lon="-2.49187">
        <ele>80.5</ele>
        <time>2024-12-19T09:03:40Z</time>
      </trkpt>
      <trkpt lat="47.93882" lon="-2.49188">
        <ele>80.5</ele>
        <time>2024-12-19T09:03:41Z</time>
      </trkpt>
      <trkpt lat="47.9388" lon="-2.49189">
        <ele>80.5</ele>
        <time>2024-12-19T09:03:42Z</time>
      </trkpt>
      <trkpt lat="47.93879" lon="-2.4919">
        <ele>80.5</ele>
        <time>2024-12-19T09:03:43Z</time>
      </trkpt>
      <trkpt lat="47.93878" lon="-2.49191">
        <ele>80.5</ele>
        <time>2024-12-19T09:03:44Z</time>
      </trkpt>
      <trkpt lat="47.93877" lon="-2.49191">
        <ele>80.4</ele>
        <time>2024-12-19T09:03:45Z</time>
      </trkpt>
      <trkpt lat="47.93876" lon="-2.49192">
        <ele>80.4</ele>
        <time>2024-12-19T09:03:46Z</time>
      </trkpt>
      <trkpt lat="47.93875" lon="-2.49191">
        <ele>80.4</ele>
        <time>2024-12-19T09:03:47Z</time>
      </trkpt>
      <trkpt lat="47.93875" lon="-2.4919">
        <ele>80.3</ele>
        <time>2024-12-19T09:03:48Z</time>
      </trkpt>
      <trkpt lat="47.93875" lon="-2.49188">
        <ele>80.2</ele>
        <time>2024-12-19T09:03:49Z</time>
      </trkpt>
      <trkpt lat="47.93874" lon="-2.49187">
        <ele>80.2</ele>
        <time>2024-12-19T09:03:50Z</time>
      </trkpt>
      <trkpt lat="47.93874" lon="-2.49185">
        <ele>80.1</ele>
        <time>2024-12-19T09:03:51Z</time>
      </trkpt>
      <trkpt lat="47.93874" lon="-2.49184">
        <ele>80.1</ele>
        <time>2024-12-19T09:03:52Z</time>
      </trkpt>
      <trkpt lat="47.93875" lon="-2.49183">
        <ele>80.1</ele>
        <time>2024-12-19T09:03:53Z</time>
      </trkpt>
      <trkpt lat="47.93875" lon="-2.49182">
        <ele>80.1</ele>
        <time>2024-12-19T09:03:54Z</time>
      </trkpt>
      <trkpt lat="47.93876" lon="-2.49183">
        <ele>80.1</ele>
        <time>2024-12-19T09:03:55Z</time>
      </trkpt>
      <trkpt lat="47.93876" lon="-2.49183">
        <ele>80.1</ele>
        <time>2024-12-19T09:03:56Z</time>
      </trkpt>
      <trkpt lat="47.93877" lon="-2.49182">
        <ele>80.1</ele>
        <time>2024-12-19T09:03:57Z</time>
      </trkpt>
      <trkpt lat="47.93878" lon="-2.49182">
        <ele>80.1</ele>
        <time>2024-12-19T09:03:58Z</time>
      </trkpt>
      <trkpt lat="47.93879" lon="-2.49181">
        <ele>80.1</ele>
        <time>2024-12-19T09:03:59Z</time>
      </trkpt>
      <trkpt lat="47.9388" lon="-2.4918">
        <ele>80.1</ele>
        <time>2024-12-19T09:04:00Z</time>
      </trkpt>
      <trkpt lat="47.9388" lon="-2.49179">
        <ele>80.1</ele>
        <time>2024-12-19T09:04:01Z</time>
      </trkpt>
      <trkpt lat="47.93881" lon="-2.49178">
        <ele>80.1</ele>
        <time>2024-12-19T09:04:02Z</time>
      </trkpt>
      <trkpt lat="47.93881" lon="-2.49177">
        <ele>80.1</ele>
        <time>2024-12-19T09:04:03Z</time>
      </trkpt>
      <trkpt lat="47.93882" lon="-2.49176">
        <ele>80.1</ele>
        <time>2024-12-19T09:04:04Z</time>
      </trkpt>
      <trkpt lat="47.93882" lon="-2.49174">
        <ele>80</ele>
        <time>2024-12-19T09:04:05Z</time>
      </trkpt>
      <trkpt lat="47.93883" lon="-2.49173">
        <ele>80</ele>
        <time>2024-12-19T09:04:06Z</time>
      </trkpt>
      <trkpt lat="47.93883" lon="-2.49172">
        <ele>80</ele>
        <time>2024-12-19T09:04:07Z</time>
      </trkpt>
      <trkpt lat="47.93884" lon="-2.49171">
        <ele>80</ele>
        <time>2024-12-19T09:04:08Z</time>
      </trkpt>
      <trkpt lat="47.93885" lon="-2.49169">
        <ele>79.9</ele>
        <time>2024-12-19T09:04:09Z</time>
      </trkpt>
      <trkpt lat="47.93885" lon="-2.49168">
        <ele>79.9</ele>
        <time>2024-12-19T09:04:10Z</time>
      </trkpt>
      <trkpt lat="47.93886" lon="-2.49167">
        <ele>79.9</ele>
        <time>2024-12-19T09:04:11Z</time>
      </trkpt>
      <trkpt lat="47.93887" lon="-2.49166">
        <ele>79.9</ele>
        <time>2024-12-19T09:04:12Z</time>
      </trkpt>
      <trkpt lat="47.93887" lon="-2.49165">
        <ele>79.9</ele>
        <time>2024-12-19T09:04:13Z</time>
      </trkpt>
      <trkpt lat="47.93887" lon="-2.49164">
        <ele>79.9</ele>
        <time>2024-12-19T09:04:14Z</time>
      </trkpt>
      <trkpt lat="47.93888" lon="-2.49163">
        <ele>79.9</ele>
        <time>2024-12-19T09:04:15Z</time>
      </trkpt>
      <trkpt lat="47.93889" lon="-2.49162">
        <ele>79.8</ele>
        <time>2024-12-19T09:04:16Z</time>
      </trkpt>
      <trkpt lat="47.93889" lon="-2.4916">
        <ele>79.8</ele>
        <time>2024-12-19T09:04:17Z</time>
      </trkpt>
      <trkpt lat="47.93889" lon="-2.49159">
        <ele>79.7</ele>
        <time>2024-12-19T09:04:18Z</time>
      </trkpt>
      <trkpt lat="47.93889" lon="-2.49159">
        <ele>79.7</ele>
        <time>2024-12-19T09:04:19Z</time>
      </trkpt>
      <trkpt lat="47.93889" lon="-2.49158">
        <ele>79.7</ele>
        <time>2024-12-19T09:04:20Z</time>
      </trkpt>
      <trkpt lat="47.9389" lon="-2.49157">
        <ele>79.7</ele>
        <time>2024-12-19T09:04:21Z</time>
      </trkpt>
      <trkpt lat="47.9389" lon="-2.49155">
        <ele>79.6</ele>
        <time>2024-12-19T09:04:22Z</time>
      </trkpt>
      <trkpt lat="47.9389" lon="-2.49154">
        <ele>79.6</ele>
        <time>2024-12-19T09:04:23Z</time>
      </trkpt>
      <trkpt lat="47.93891" lon="-2.49153">
        <ele>79.6</ele>
        <time>2024-12-19T09:04:24Z</time>
      </trkpt>
      <trkpt lat="47.93891" lon="-2.49152">
        <ele>79.6</ele>
        <time>2024-12-19T09:04:25Z</time>
      </trkpt>
      <trkpt lat="47.93891" lon="-2.49151">
        <ele>79.6</ele>
        <time>2024-12-19T09:04:26Z</time>
      </trkpt>
      <trkpt lat="47.93891" lon="-2.49151">
        <ele>79.6</ele>
        <time>2024-12-19T09:04:27Z</time>
      </trkpt>
      <trkpt lat="47.93891" lon="-2.49151">
        <ele>79.6</ele>
        <time>2024-12-19T09:04:28Z</time>
      </trkpt>
      <trkpt lat="47.93892" lon="-2.49151">
        <ele>79.6</ele>
        <time>2024-12-19T09:04:29Z</time>
      </trkpt>
      <trkpt lat="47.93892" lon="-2.4915">
        <ele>79.6</ele>
        <time>2024-12-19T09:04:30Z</time>
      </trkpt>
      <trkpt lat="47.93893" lon="-2.49149">
        <ele>79.6</ele>
        <time>2024-12-19T09:04:31Z</time>
      </trkpt>
      <trkpt lat="47.93893" lon="-2.49149">
        <ele>79.6</ele>
        <time>2024-12-19T09:04:32Z</time>
      </trkpt>
      <trkpt lat="47.93893" lon="-2.49148">
        <ele>79.6</ele>
        <time>2024-12-19T09:04:33Z</time>
      </trkpt>
      <trkpt lat="47.93893" lon="-2.49148">
        <ele>79.6</ele>
        <time>2024-12-19T09:04:34Z</time>
      </trkpt>
      <trkpt lat="47.93893" lon="-2.49147">
        <ele>79.5</ele>
        <time>2024-12-19T09:04:35Z</time>
      </trkpt>
      <trkpt lat="47.93893" lon="-2.49146">
        <ele>79.5</ele>
        <time>2024-12-19T09:04:36Z</time>
      </trkpt>
      <trkpt lat="47.93893" lon="-2.49145">
        <ele>79.5</ele>
        <time>2024-12-19T09:04:37Z</time>
      </trkpt>
      <trkpt lat="47.93893" lon="-2.49145">
        <ele>79.4</ele>
        <time>2024-12-19T09:04:38Z</time>
      </trkpt>
      <trkpt lat="47.93893" lon="-2.49144">
        <ele>79.4</ele>
        <time>2024-12-19T09:04:39Z</time>
      </trkpt>
      <trkpt lat="47.93893" lon="-2.49144">
        <ele>79.4</ele>
        <time>2024-12-19T09:04:40Z</time>
      </trkpt>
      <trkpt lat="47.93893" lon="-2.49144">
        <ele>79.4</ele>
        <time>2024-12-19T09:04:41Z</time>
      </trkpt>
      <trkpt lat="47.93893" lon="-2.49144">
        <ele>79.4</ele>
        <time>2024-12-19T09:04:42Z</time>
      </trkpt>
      <trkpt lat="47.93893" lon="-2.49143">
        <ele>79.4</ele>
        <time>2024-12-19T09:04:43Z</time>
      </trkpt>
      <trkpt lat="47.93893" lon="-2.49143">
        <ele>79.4</ele>
        <time>2024-12-19T09:04:44Z</time>
      </trkpt>
      <trkpt lat="47.93893" lon="-2.49143">
        <ele>79.4</ele>
        <time>2024-12-19T09:04:45Z</time>
      </trkpt>
      <trkpt lat="47.93893" lon="-2.49142">
        <ele>79.4</ele>
        <time>2024-12-19T09:04:46Z</time>
      </trkpt>
      <trkpt lat="47.93893" lon="-2.49141">
        <ele>79.4</ele>
        <time>2024-12-19T09:04:47Z</time>
      </trkpt>
      <trkpt lat="47.93894" lon="-2.4914">
        <ele>79.4</ele>
        <time>2024-12-19T09:04:48Z</time>
      </trkpt>
      <trkpt lat="47.93894" lon="-2.49139">
        <ele>79.4</ele>
        <time>2024-12-19T09:04:49Z</time>
      </trkpt>
      <trkpt lat="47.93894" lon="-2.49138">
        <ele>79.4</ele>
        <time>2024-12-19T09:04:50Z</time>
      </trkpt>
      <trkpt lat="47.93893" lon="-2.49137">
        <ele>79.4</ele>
        <time>2024-12-19T09:04:51Z</time>
      </trkpt>
      <trkpt lat="47.93893" lon="-2.49136">
        <ele>79.4</ele>
        <time>2024-12-19T09:04:52Z</time>
      </trkpt>
      <trkpt lat="47.93893" lon="-2.49135">
        <ele>79.4</ele>
        <time>2024-12-19T09:04:53Z</time>
      </trkpt>
      <trkpt lat="47.93893" lon="-2.49134">
        <ele>79.4</ele>
        <time>2024-12-19T09:04:54Z</time>
      </trkpt>
      <trkpt lat="47.93892" lon="-2.49132">
        <ele>79.4</ele>
        <time>2024-12-19T09:04:55Z</time>
      </trkpt>
      <trkpt lat="47.93891" lon="-2.49131">
        <ele>79.4</ele>
        <time>2024-12-19T09:04:56Z</time>
      </trkpt>
      <trkpt lat="47.93891" lon="-2.4913">
        <ele>79.4</ele>
        <time>2024-12-19T09:04:57Z</time>
      </trkpt>
      <trkpt lat="47.9389" lon="-2.49129">
        <ele>79.4</ele>
        <time>2024-12-19T09:04:58Z</time>
      </trkpt>
      <trkpt lat="47.9389" lon="-2.49129">
        <ele>79.4</ele>
        <time>2024-12-19T09:04:59Z</time>
      </trkpt>
      <trkpt lat="47.93889" lon="-2.49128">
        <ele>79.4</ele>
        <time>2024-12-19T09:05:00Z</time>
      </trkpt>
      <trkpt lat="47.93889" lon="-2.49128">
        <ele>79.4</ele>
        <time>2024-12-19T09:05:01Z</time>
      </trkpt>
      <trkpt lat="47.93888" lon="-2.49128">
        <ele>79.4</ele>
        <time>2024-12-19T09:05:02Z</time>
      </trkpt>
      <trkpt lat="47.93888" lon="-2.49128">
        <ele>79.4</ele>
        <time>2024-12-19T09:05:03Z</time>
      </trkpt>
      <trkpt lat="47.93887" lon="-2.49127">
        <ele>79.4</ele>
        <time>2024-12-19T09:05:04Z</time>
      </trkpt>
      <trkpt lat="47.93887" lon="-2.49128">
        <ele>79.4</ele>
        <time>2024-12-19T09:05:05Z</time>
      </trkpt>
      <trkpt lat="47.93887" lon="-2.49128">
        <ele>79.4</ele>
        <time>2024-12-19T09:05:06Z</time>
      </trkpt>
      <trkpt lat="47.93887" lon="-2.49128">
        <ele>79.4</ele>
        <time>2024-12-19T09:05:07Z</time>
      </trkpt>
      <trkpt lat="47.93887" lon="-2.49128">
        <ele>79.4</ele>
        <time>2024-12-19T09:05:08Z</time>
      </trkpt>
      <trkpt lat="47.93887" lon="-2.49128">
        <ele>79.4</ele>
        <time>2024-12-19T09:05:09Z</time>
      </trkpt>
      <trkpt lat="47.93887" lon="-2.49128">
        <ele>79.4</ele>
        <time>2024-12-19T09:05:10Z</time>
      </trkpt>
      <trkpt lat="47.93887" lon="-2.49128">
        <ele>79.4</ele>
        <time>2024-12-19T09:05:11Z</time>
      </trkpt>
      <trkpt lat="47.93887" lon="-2.49128">
        <ele>79.4</ele>
        <time>2024-12-19T09:05:12Z</time>
      </trkpt>
      <trkpt lat="47.93887" lon="-2.49128">
        <ele>79.4</ele>
        <time>2024-12-19T09:05:13Z</time>
      </trkpt>
      <trkpt lat="47.93887" lon="-2.49128">
        <ele>79.4</ele>
        <time>2024-12-19T09:05:14Z</time>
      </trkpt>
      <trkpt lat="47.93887" lon="-2.49128">
        <ele>79.4</ele>
        <time>2024-12-19T09:05:15Z</time>
      </trkpt>
      <trkpt lat="47.93887" lon="-2.49128">
        <ele>79.4</ele>
        <time>2024-12-19T09:05:16Z</time>
      </trkpt>
      <trkpt lat="47.93887" lon="-2.49128">
        <ele>79.4</ele>
        <time>2024-12-19T09:05:17Z</time>
      </trkpt>
      <trkpt lat="47.93887" lon="-2.49128">
        <ele>79.4</ele>
        <time>2024-12-19T09:05:18Z</time>
      </trkpt>
      <trkpt lat="47.93887" lon="-2.49128">
        <ele>79.4</ele>
        <time>2024-12-19T09:05:19Z</time>
      </trkpt>
      <trkpt lat="47.93887" lon="-2.49128">
        <ele>79.4</ele>
        <time>2024-12-19T09:05:20Z</time>
      </trkpt>
      <trkpt lat="47.93887" lon="-2.49128">
        <ele>79.4</ele>
        <time>2024-12-19T09:05:21Z</time>
      </trkpt>
      <trkpt lat="47.93887" lon="-2.49128">
        <ele>79.4</ele>
        <time>2024-12-19T09:05:22Z</time>
      </trkpt>
      <trkpt lat="47.93887" lon="-2.49128">
        <ele>79.4</ele>
        <time>2024-12-19T09:05:23Z</time>
      </trkpt>
      <trkpt lat="47.93887" lon="-2.49128">
        <ele>79.4</ele>
        <time>2024-12-19T09:05:24Z</time>
      </trkpt>
      <trkpt lat="47.93887" lon="-2.49128">
        <ele>79.4</ele>
        <time>2024-12-19T09:05:25Z</time>
      </trkpt>
      <trkpt lat="47.93887" lon="-2.49128">
        <ele>79.4</ele>
        <time>2024-12-19T09:05:26Z</time>
      </trkpt>
      <trkpt lat="47.93887" lon="-2.49128">
        <ele>79.4</ele>
        <time>2024-12-19T09:05:27Z</time>
      </trkpt>
      <trkpt lat="47.93887" lon="-2.49128">
        <ele>79.4</ele>
        <time>2024-12-19T09:05:28Z</time>
      </trkpt>
      <trkpt lat="47.93887" lon="-2.49128">
        <ele>79.4</ele>
        <time>2024-12-19T09:05:29Z</time>
      </trkpt>
      <trkpt lat="47.93887" lon="-2.49128">
        <ele>79.4</ele>
        <time>2024-12-19T09:05:30Z</time>
      </trkpt>
      <trkpt lat="47.93887" lon="-2.49128">
        <ele>79.4</ele>
        <time>2024-12-19T09:05:31Z</time>
      </trkpt>
      <trkpt lat="47.93887" lon="-2.49128">
        <ele>79.4</ele>
        <time>2024-12-19T09:05:32Z</time>
      </trkpt>
      <trkpt lat="47.93887" lon="-2.49128">
        <ele>79.4</ele>
        <time>2024-12-19T09:05:33Z</time>
      </trkpt>
      <trkpt lat="47.93887" lon="-2.49128">
        <ele>79.4</ele>
        <time>2024-12-19T09:05:34Z</time>
      </trkpt>
      <trkpt lat="47.93887" lon="-2.49128">
        <ele>79.4</ele>
        <time>2024-12-19T09:05:35Z</time>
      </trkpt>
      <trkpt lat="47.93887" lon="-2.49128">
        <ele>79.4</ele>
        <time>2024-12-19T09:05:36Z</time>
      </trkpt>
      <trkpt lat="47.93887" lon="-2.49128">
        <ele>79.4</ele>
        <time>2024-12-19T09:05:37Z</time>
      </trkpt>
      <trkpt lat="47.93887" lon="-2.49128">
        <ele>79.4</ele>
        <time>2024-12-19T09:05:38Z</time>
      </trkpt>
      <trkpt lat="47.93887" lon="-2.49128">
        <ele>79.4</ele>
        <time>2024-12-19T09:05:39Z</time>
      </trkpt>
      <trkpt lat="47.93887" lon="-2.49128">
        <ele>79.4</ele>
        <time>2024-12-19T09:05:40Z</time>
      </trkpt>
      <trkpt lat="47.93887" lon="-2.49128">
        <ele>79.4</ele>
        <time>2024-12-19T09:05:41Z</time>
      </trkpt>
      <trkpt lat="47.93887" lon="-2.49128">
        <ele>79.4</ele>
        <time>2024-12-19T09:05:42Z</time>
      </trkpt>
      <trkpt lat="47.93887" lon="-2.49128">
        <ele>79.4</ele>
        <time>2024-12-19T09:05:43Z</time>
      </trkpt>
      <trkpt lat="47.93887" lon="-2.49128">
        <ele>79.4</ele>
        <time>2024-12-19T09:05:44Z</time>
      </trkpt>
      <trkpt lat="47.93887" lon="-2.49128">
        <ele>79.4</ele>
        <time>2024-12-19T09:05:45Z</time>
      </trkpt>
      <trkpt lat="47.93887" lon="-2.49128">
        <ele>79.4</ele>
        <time>2024-12-19T09:05:46Z</time>
      </trkpt>
      <trkpt lat="47.93887" lon="-2.49128">
        <ele>79.4</ele>
        <time>2024-12-19T09:05:47Z</time>
      </trkpt>
      <trkpt lat="47.93887" lon="-2.49129">
        <ele>79.4</ele>
        <time>2024-12-19T09:05:48Z</time>
      </trkpt>
      <trkpt lat="47.93888" lon="-2.49128">
        <ele>79.4</ele>
        <time>2024-12-19T09:05:49Z</time>
      </trkpt>
      <trkpt lat="47.93888" lon="-2.49128">
        <ele>79.4</ele>
        <time>2024-12-19T09:05:50Z</time>
      </trkpt>
      <trkpt lat="47.93888" lon="-2.49127">
        <ele>79.4</ele>
        <time>2024-12-19T09:05:51Z</time>
      </trkpt>
      <trkpt lat="47.93889" lon="-2.49126">
        <ele>79.5</ele>
        <time>2024-12-19T09:05:52Z</time>
      </trkpt>
      <trkpt lat="47.93889" lon="-2.49124">
        <ele>79.5</ele>
        <time>2024-12-19T09:05:53Z</time>
      </trkpt>
      <trkpt lat="47.93889" lon="-2.49123">
        <ele>79.6</ele>
        <time>2024-12-19T09:05:54Z</time>
      </trkpt>
      <trkpt lat="47.9389" lon="-2.49121">
        <ele>79.7</ele>
        <time>2024-12-19T09:05:55Z</time>
      </trkpt>
      <trkpt lat="47.9389" lon="-2.4912">
        <ele>79.7</ele>
        <time>2024-12-19T09:05:56Z</time>
      </trkpt>
      <trkpt lat="47.9389" lon="-2.49119">
        <ele>79.8</ele>
        <time>2024-12-19T09:05:57Z</time>
      </trkpt>
      <trkpt lat="47.9389" lon="-2.49118">
        <ele>79.8</ele>
        <time>2024-12-19T09:05:58Z</time>
      </trkpt>
      <trkpt lat="47.9389" lon="-2.49118">
        <ele>79.8</ele>
        <time>2024-12-19T09:05:59Z</time>
      </trkpt>
      <trkpt lat="47.9389" lon="-2.49118">
        <ele>79.8</ele>
        <time>2024-12-19T09:06:00Z</time>
      </trkpt>
      <trkpt lat="47.9389" lon="-2.49118">
        <ele>79.8</ele>
        <time>2024-12-19T09:06:01Z</time>
      </trkpt>
      <trkpt lat="47.9389" lon="-2.49118">
        <ele>79.8</ele>
        <time>2024-12-19T09:06:02Z</time>
      </trkpt>
      <trkpt lat="47.9389" lon="-2.49117">
        <ele>79.8</ele>
        <time>2024-12-19T09:06:03Z</time>
      </trkpt>
      <trkpt lat="47.9389" lon="-2.49117">
        <ele>79.8</ele>
        <time>2024-12-19T09:06:04Z</time>
      </trkpt>
      <trkpt lat="47.9389" lon="-2.49117">
        <ele>79.8</ele>
        <time>2024-12-19T09:06:05Z</time>
      </trkpt>
      <trkpt lat="47.9389" lon="-2.49117">
        <ele>79.8</ele>
        <time>2024-12-19T09:06:06Z</time>
      </trkpt>
      <trkpt lat="47.93889" lon="-2.49117">
        <ele>79.8</ele>
        <time>2024-12-19T09:06:07Z</time>
      </trkpt>
      <trkpt lat="47.93889" lon="-2.49117">
        <ele>79.8</ele>
        <time>2024-12-19T09:06:09Z</time>
      </trkpt>
      <trkpt lat="47.93889" lon="-2.49117">
        <ele>79.8</ele>
        <time>2024-12-19T09:06:10Z</time>
      </trkpt>
      <trkpt lat="47.93889" lon="-2.49117">
        <ele>79.8</ele>
        <time>2024-12-19T09:06:11Z</time>
      </trkpt>
      <trkpt lat="47.93889" lon="-2.49117">
        <ele>79.8</ele>
        <time>2024-12-19T09:06:12Z</time>
      </trkpt>
      <trkpt lat="47.93889" lon="-2.49117">
        <ele>79.8</ele>
        <time>2024-12-19T09:06:13Z</time>
      </trkpt>
      <trkpt lat="47.93889" lon="-2.49117">
        <ele>79.8</ele>
        <time>2024-12-19T09:06:14Z</time>
      </trkpt>
      <trkpt lat="47.93889" lon="-2.49117">
        <ele>79.8</ele>
        <time>2024-12-19T09:06:15Z</time>
      </trkpt>
      <trkpt lat="47.93889" lon="-2.49117">
        <ele>79.8</ele>
        <time>2024-12-19T09:06:16Z</time>
      </trkpt>
      <trkpt lat="47.93889" lon="-2.49117">
        <ele>79.8</ele>
        <time>2024-12-19T09:06:17Z</time>
      </trkpt>
      <trkpt lat="47.93889" lon="-2.49117">
        <ele>79.8</ele>
        <time>2024-12-19T09:06:18Z</time>
      </trkpt>
      <trkpt lat="47.93889" lon="-2.49117">
        <ele>79.8</ele>
        <time>2024-12-19T09:06:19Z</time>
      </trkpt>
      <trkpt lat="47.93889" lon="-2.49117">
        <ele>79.8</ele>
        <time>2024-12-19T09:06:20Z</time>
      </trkpt>
      <trkpt lat="47.93889" lon="-2.49117">
        <ele>79.8</ele>
        <time>2024-12-19T09:06:21Z</time>
      </trkpt>
      <trkpt lat="47.93889" lon="-2.49117">
        <ele>79.8</ele>
        <time>2024-12-19T09:06:22Z</time>
      </trkpt>
      <trkpt lat="47.93889" lon="-2.49117">
        <ele>79.8</ele>
        <time>2024-12-19T09:06:23Z</time>
      </trkpt>
      <trkpt lat="47.93889" lon="-2.49117">
        <ele>79.8</ele>
        <time>2024-12-19T09:06:24Z</time>
      </trkpt>
      <trkpt lat="47.93889" lon="-2.49117">
        <ele>79.8</ele>
        <time>2024-12-19T09:06:25Z</time>
      </trkpt>
      <trkpt lat="47.93889" lon="-2.49117">
        <ele>79.8</ele>
        <time>2024-12-19T09:06:26Z</time>
      </trkpt>
      <trkpt lat="47.93889" lon="-2.49117">
        <ele>79.8</ele>
        <time>2024-12-19T09:06:27Z</time>
      </trkpt>
      <trkpt lat="47.93889" lon="-2.49117">
        <ele>79.8</ele>
        <time>2024-12-19T09:06:28Z</time>
      </trkpt>
      <trkpt lat="47.93889" lon="-2.49117">
        <ele>79.8</ele>
        <time>2024-12-19T09:06:29Z</time>
      </trkpt>
      <trkpt lat="47.93889" lon="-2.49117">
        <ele>79.8</ele>
        <time>2024-12-19T09:06:30Z</time>
      </trkpt>
      <trkpt lat="47.93889" lon="-2.49117">
        <ele>79.8</ele>
        <time>2024-12-19T09:06:31Z</time>
      </trkpt>
      <trkpt lat="47.93889" lon="-2.49117">
        <ele>79.8</ele>
        <time>2024-12-19T09:06:32Z</time>
      </trkpt>
      <trkpt lat="47.93889" lon="-2.49117">
        <ele>79.8</ele>
        <time>2024-12-19T09:06:33Z</time>
      </trkpt>
      <trkpt lat="47.93889" lon="-2.49117">
        <ele>79.8</ele>
        <time>2024-12-19T09:06:34Z</time>
      </trkpt>
      <trkpt lat="47.93889" lon="-2.49117">
        <ele>79.8</ele>
        <time>2024-12-19T09:06:35Z</time>
      </trkpt>
      <trkpt lat="47.93889" lon="-2.49117">
        <ele>79.8</ele>
        <time>2024-12-19T09:06:36Z</time>
      </trkpt>
      <trkpt lat="47.93889" lon="-2.49117">
        <ele>79.8</ele>
        <time>2024-12-19T09:06:37Z</time>
      </trkpt>
      <trkpt lat="47.93889" lon="-2.49117">
        <ele>79.8</ele>
        <time>2024-12-19T09:06:38Z</time>
      </trkpt>
      <trkpt lat="47.93889" lon="-2.49117">
        <ele>79.8</ele>
        <time>2024-12-19T09:06:39Z</time>
      </trkpt>
      <trkpt lat="47.93889" lon="-2.49117">
        <ele>79.8</ele>
        <time>2024-12-19T09:06:40Z</time>
      </trkpt>
      <trkpt lat="47.93889" lon="-2.49118">
        <ele>79.8</ele>
        <time>2024-12-19T09:06:41Z</time>
      </trkpt>
      <trkpt lat="47.93889" lon="-2.49118">
        <ele>79.7</ele>
        <time>2024-12-19T09:06:42Z</time>
      </trkpt>
      <trkpt lat="47.93889" lon="-2.49118">
        <ele>79.7</ele>
        <time>2024-12-19T09:06:43Z</time>
      </trkpt>
      <trkpt lat="47.93888" lon="-2.49119">
        <ele>79.7</ele>
        <time>2024-12-19T09:06:44Z</time>
      </trkpt>
      <trkpt lat="47.93888" lon="-2.4912">
        <ele>79.7</ele>
        <time>2024-12-19T09:06:45Z</time>
      </trkpt>
      <trkpt lat="47.93888" lon="-2.49121">
        <ele>79.7</ele>
        <time>2024-12-19T09:06:46Z</time>
      </trkpt>
      <trkpt lat="47.93889" lon="-2.4912">
        <ele>79.7</ele>
        <time>2024-12-19T09:06:47Z</time>
      </trkpt>
      <trkpt lat="47.93889" lon="-2.4912">
        <ele>79.7</ele>
        <time>2024-12-19T09:06:48Z</time>
      </trkpt>
      <trkpt lat="47.93889" lon="-2.4912">
        <ele>79.7</ele>
        <time>2024-12-19T09:06:49Z</time>
      </trkpt>
      <trkpt lat="47.93889" lon="-2.4912">
        <ele>79.7</ele>
        <time>2024-12-19T09:06:50Z</time>
      </trkpt>
      <trkpt lat="47.93889" lon="-2.4912">
        <ele>79.7</ele>
        <time>2024-12-19T09:06:51Z</time>
      </trkpt>
      <trkpt lat="47.93888" lon="-2.4912">
        <ele>79.7</ele>
        <time>2024-12-19T09:06:52Z</time>
      </trkpt>
      <trkpt lat="47.93888" lon="-2.4912">
        <ele>79.7</ele>
        <time>2024-12-19T09:06:53Z</time>
      </trkpt>
      <trkpt lat="47.93888" lon="-2.4912">
        <ele>79.7</ele>
        <time>2024-12-19T09:06:54Z</time>
      </trkpt>
      <trkpt lat="47.93888" lon="-2.4912">
        <ele>79.7</ele>
        <time>2024-12-19T09:06:55Z</time>
      </trkpt>
      <trkpt lat="47.93888" lon="-2.4912">
        <ele>79.6</ele>
        <time>2024-12-19T09:06:56Z</time>
      </trkpt>
      <trkpt lat="47.93888" lon="-2.4912">
        <ele>79.6</ele>
        <time>2024-12-19T09:06:57Z</time>
      </trkpt>
      <trkpt lat="47.93888" lon="-2.49121">
        <ele>79.6</ele>
        <time>2024-12-19T09:06:58Z</time>
      </trkpt>
      <trkpt lat="47.93888" lon="-2.49121">
        <ele>79.6</ele>
        <time>2024-12-19T09:06:59Z</time>
      </trkpt>
      <trkpt lat="47.93888" lon="-2.49121">
        <ele>79.6</ele>
        <time>2024-12-19T09:07:00Z</time>
      </trkpt>
      <trkpt lat="47.93888" lon="-2.49121">
        <ele>79.6</ele>
        <time>2024-12-19T09:07:01Z</time>
      </trkpt>
      <trkpt lat="47.93888" lon="-2.49121">
        <ele>79.6</ele>
        <time>2024-12-19T09:07:02Z</time>
      </trkpt>
      <trkpt lat="47.93888" lon="-2.49121">
        <ele>79.6</ele>
        <time>2024-12-19T09:07:03Z</time>
      </trkpt>
      <trkpt lat="47.93888" lon="-2.49121">
        <ele>79.6</ele>
        <time>2024-12-19T09:07:04Z</time>
      </trkpt>
      <trkpt lat="47.93888" lon="-2.49121">
        <ele>79.6</ele>
        <time>2024-12-19T09:07:05Z</time>
      </trkpt>
      <trkpt lat="47.93888" lon="-2.49121">
        <ele>79.6</ele>
        <time>2024-12-19T09:07:06Z</time>
      </trkpt>
      <trkpt lat="47.93888" lon="-2.49121">
        <ele>79.6</ele>
        <time>2024-12-19T09:07:07Z</time>
      </trkpt>
      <trkpt lat="47.93888" lon="-2.49121">
        <ele>79.6</ele>
        <time>2024-12-19T09:07:08Z</time>
      </trkpt>
      <trkpt lat="47.93888" lon="-2.49121">
        <ele>79.6</ele>
        <time>2024-12-19T09:07:09Z</time>
      </trkpt>
      <trkpt lat="47.93888" lon="-2.49121">
        <ele>79.6</ele>
        <time>2024-12-19T09:07:10Z</time>
      </trkpt>
      <trkpt lat="47.93888" lon="-2.49121">
        <ele>79.6</ele>
        <time>2024-12-19T09:07:11Z</time>
      </trkpt>
      <trkpt lat="47.93888" lon="-2.49121">
        <ele>79.6</ele>
        <time>2024-12-19T09:07:12Z</time>
      </trkpt>
      <trkpt lat="47.93888" lon="-2.49121">
        <ele>79.6</ele>
        <time>2024-12-19T09:07:13Z</time>
      </trkpt>
      <trkpt lat="47.93888" lon="-2.49121">
        <ele>79.6</ele>
        <time>2024-12-19T09:07:14Z</time>
      </trkpt>
      <trkpt lat="47.93888" lon="-2.49121">
        <ele>79.6</ele>
        <time>2024-12-19T09:07:19Z</time>
      </trkpt>
      <trkpt lat="47.93888" lon="-2.49121">
        <ele>79.6</ele>
        <time>2024-12-19T09:07:20Z</time>
      </trkpt>
      <trkpt lat="47.93888" lon="-2.49121">
        <ele>79.6</ele>
        <time>2024-12-19T09:07:21Z</time>
      </trkpt>
      <trkpt lat="47.93888" lon="-2.49121">
        <ele>79.6</ele>
        <time>2024-12-19T09:07:22Z</time>
      </trkpt>
      <trkpt lat="47.93888" lon="-2.49121">
        <ele>79.6</ele>
        <time>2024-12-19T09:07:23Z</time>
      </trkpt>
      <trkpt lat="47.93888" lon="-2.49121">
        <ele>79.6</ele>
        <time>2024-12-19T09:07:24Z</time>
      </trkpt>
      <trkpt lat="47.93888" lon="-2.49121">
        <ele>79.6</ele>
        <time>2024-12-19T09:07:25Z</time>
      </trkpt>
      <trkpt lat="47.93888" lon="-2.49121">
        <ele>79.6</ele>
        <time>2024-12-19T09:07:26Z</time>
      </trkpt>
      <trkpt lat="47.93888" lon="-2.49121">
        <ele>79.6</ele>
        <time>2024-12-19T09:07:27Z</time>
      </trkpt>
      <trkpt lat="47.93888" lon="-2.49121">
        <ele>79.6</ele>
        <time>2024-12-19T09:07:28Z</time>
      </trkpt>
      <trkpt lat="47.93888" lon="-2.49121">
        <ele>79.6</ele>
        <time>2024-12-19T09:07:29Z</time>
      </trkpt>
      <trkpt lat="47.93888" lon="-2.49121">
        <ele>79.6</ele>
        <time>2024-12-19T09:07:30Z</time>
      </trkpt>
      <trkpt lat="47.93888" lon="-2.49121">
        <ele>79.6</ele>
        <time>2024-12-19T09:07:31Z</time>
      </trkpt>
      <trkpt lat="47.93888" lon="-2.49121">
        <ele>79.6</ele>
        <time>2024-12-19T09:07:32Z</time>
      </trkpt>
      <trkpt lat="47.93888" lon="-2.49121">
        <ele>79.6</ele>
        <time>2024-12-19T09:07:33Z</time>
      </trkpt>
      <trkpt lat="47.93888" lon="-2.49121">
        <ele>79.6</ele>
        <time>2024-12-19T09:07:34Z</time>
      </trkpt>
      <trkpt lat="47.93888" lon="-2.49121">
        <ele>79.6</ele>
        <time>2024-12-19T09:07:35Z</time>
      </trkpt>
      <trkpt lat="47.93888" lon="-2.49121">
        <ele>79.6</ele>
        <time>2024-12-19T09:07:36Z</time>
      </trkpt>
      <trkpt lat="47.93888" lon="-2.49121">
        <ele>79.6</ele>
        <time>2024-12-19T09:07:37Z</time>
      </trkpt>
      <trkpt lat="47.93888" lon="-2.49121">
        <ele>79.6</ele>
        <time>2024-12-19T09:07:38Z</time>
      </trkpt>
      <trkpt lat="47.93888" lon="-2.49121">
        <ele>79.6</ele>
        <time>2024-12-19T09:07:39Z</time>
      </trkpt>
      <trkpt lat="47.93888" lon="-2.49121">
        <ele>79.6</ele>
        <time>2024-12-19T09:07:40Z</time>
      </trkpt>
      <trkpt lat="47.93888" lon="-2.49121">
        <ele>79.6</ele>
        <time>2024-12-19T09:07:41Z</time>
      </trkpt>
      <trkpt lat="47.93888" lon="-2.49121">
        <ele>79.6</ele>
        <time>2024-12-19T09:07:42Z</time>
      </trkpt>
      <trkpt lat="47.93888" lon="-2.49121">
        <ele>79.6</ele>
        <time>2024-12-19T09:07:43Z</time>
      </trkpt>
      <trkpt lat="47.93888" lon="-2.49121">
        <ele>79.6</ele>
        <time>2024-12-19T09:07:44Z</time>
      </trkpt>
      <trkpt lat="47.93888" lon="-2.49121">
        <ele>79.6</ele>
        <time>2024-12-19T09:07:45Z</time>
      </trkpt>
      <trkpt lat="47.93888" lon="-2.49121">
        <ele>79.6</ele>
        <time>2024-12-19T09:07:46Z</time>
      </trkpt>
      <trkpt lat="47.93888" lon="-2.49121">
        <ele>79.6</ele>
        <time>2024-12-19T09:07:47Z</time>
      </trkpt>
      <trkpt lat="47.93888" lon="-2.49121">
        <ele>79.6</ele>
        <time>2024-12-19T09:07:48Z</time>
      </trkpt>
      <trkpt lat="47.93888" lon="-2.49121">
        <ele>79.6</ele>
        <time>2024-12-19T09:07:49Z</time>
      </trkpt>
      <trkpt lat="47.93888" lon="-2.49121">
        <ele>79.6</ele>
        <time>2024-12-19T09:07:50Z</time>
      </trkpt>
      <trkpt lat="47.93888" lon="-2.49121">
        <ele>79.6</ele>
        <time>2024-12-19T09:07:51Z</time>
      </trkpt>
      <trkpt lat="47.93888" lon="-2.49121">
        <ele>79.6</ele>
        <time>2024-12-19T09:07:52Z</time>
      </trkpt>
      <trkpt lat="47.93888" lon="-2.49121">
        <ele>79.6</ele>
        <time>2024-12-19T09:07:53Z</time>
      </trkpt>
      <trkpt lat="47.93888" lon="-2.49121">
        <ele>79.6</ele>
        <time>2024-12-19T09:07:54Z</time>
      </trkpt>
      <trkpt lat="47.93888" lon="-2.49121">
        <ele>79.6</ele>
        <time>2024-12-19T09:07:55Z</time>
      </trkpt>
      <trkpt lat="47.93888" lon="-2.49121">
        <ele>79.6</ele>
        <time>2024-12-19T09:07:56Z</time>
      </trkpt>
      <trkpt lat="47.93888" lon="-2.49121">
        <ele>79.6</ele>
        <time>2024-12-19T09:07:57Z</time>
      </trkpt>
      <trkpt lat="47.93888" lon="-2.49121">
        <ele>79.6</ele>
        <time>2024-12-19T09:07:58Z</time>
      </trkpt>
      <trkpt lat="47.93888" lon="-2.49121">
        <ele>79.6</ele>
        <time>2024-12-19T09:07:59Z</time>
      </trkpt>
      <trkpt lat="47.93888" lon="-2.49121">
        <ele>79.6</ele>
        <time>2024-12-19T09:08:00Z</time>
      </trkpt>
      <trkpt lat="47.93888" lon="-2.49121">
        <ele>79.6</ele>
        <time>2024-12-19T09:08:01Z</time>
      </trkpt>
      <trkpt lat="47.93888" lon="-2.49121">
        <ele>79.6</ele>
        <time>2024-12-19T09:08:02Z</time>
      </trkpt>
      <trkpt lat="47.93888" lon="-2.49121">
        <ele>79.6</ele>
        <time>2024-12-19T09:08:03Z</time>
      </trkpt>
      <trkpt lat="47.93888" lon="-2.49121">
        <ele>79.6</ele>
        <time>2024-12-19T09:08:04Z</time>
      </trkpt>
      <trkpt lat="47.93888" lon="-2.49121">
        <ele>79.6</ele>
        <time>2024-12-19T09:08:05Z</time>
      </trkpt>
      <trkpt lat="47.93888" lon="-2.49121">
        <ele>79.6</ele>
        <time>2024-12-19T09:08:06Z</time>
      </trkpt>
      <trkpt lat="47.93888" lon="-2.49121">
        <ele>79.6</ele>
        <time>2024-12-19T09:08:07Z</time>
      </trkpt>
      <trkpt lat="47.93888" lon="-2.49121">
        <ele>79.6</ele>
        <time>2024-12-19T09:08:08Z</time>
      </trkpt>
      <trkpt lat="47.93888" lon="-2.49121">
        <ele>79.6</ele>
        <time>2024-12-19T09:08:09Z</time>
      </trkpt>
      <trkpt lat="47.93888" lon="-2.49121">
        <ele>79.6</ele>
        <time>2024-12-19T09:08:10Z</time>
      </trkpt>
      <trkpt lat="47.93888" lon="-2.49121">
        <ele>79.6</ele>
        <time>2024-12-19T09:08:11Z</time>
      </trkpt>
      <trkpt lat="47.93888" lon="-2.49121">
        <ele>79.6</ele>
        <time>2024-12-19T09:08:12Z</time>
      </trkpt>
      <trkpt lat="47.93888" lon="-2.49121">
        <ele>79.6</ele>
        <time>2024-12-19T09:08:13Z</time>
      </trkpt>
      <trkpt lat="47.93888" lon="-2.49121">
        <ele>79.6</ele>
        <time>2024-12-19T09:08:15Z</time>
      </trkpt>
      <trkpt lat="47.93888" lon="-2.49121">
        <ele>79.6</ele>
        <time>2024-12-19T09:08:16Z</time>
      </trkpt>
      <trkpt lat="47.93888" lon="-2.49121">
        <ele>79.6</ele>
        <time>2024-12-19T09:08:17Z</time>
      </trkpt>
      <trkpt lat="47.93888" lon="-2.49121">
        <ele>79.6</ele>
        <time>2024-12-19T09:08:18Z</time>
      </trkpt>
      <trkpt lat="47.93888" lon="-2.49121">
        <ele>79.6</ele>
        <time>2024-12-19T09:08:19Z</time>
      </trkpt>
      <trkpt lat="47.93888" lon="-2.49121">
        <ele>79.6</ele>
        <time>2024-12-19T09:08:20Z</time>
      </trkpt>
      <trkpt lat="47.93888" lon="-2.49121">
        <ele>79.6</ele>
        <time>2024-12-19T09:08:21Z</time>
      </trkpt>
      <trkpt lat="47.93888" lon="-2.49121">
        <ele>79.6</ele>
        <time>2024-12-19T09:08:22Z</time>
      </trkpt>
      <trkpt lat="47.93888" lon="-2.49121">
        <ele>79.6</ele>
        <time>2024-12-19T09:08:23Z</time>
      </trkpt>
      <trkpt lat="47.93888" lon="-2.49121">
        <ele>79.6</ele>
        <time>2024-12-19T09:08:24Z</time>
      </trkpt>
      <trkpt lat="47.93888" lon="-2.49121">
        <ele>79.6</ele>
        <time>2024-12-19T09:08:25Z</time>
      </trkpt>
      <trkpt lat="47.93888" lon="-2.49121">
        <ele>79.6</ele>
        <time>2024-12-19T09:08:26Z</time>
      </trkpt>
      <trkpt lat="47.93888" lon="-2.49121">
        <ele>79.6</ele>
        <time>2024-12-19T09:08:27Z</time>
      </trkpt>
      <trkpt lat="47.93888" lon="-2.49121">
        <ele>79.6</ele>
        <time>2024-12-19T09:08:28Z</time>
      </trkpt>
      <trkpt lat="47.93888" lon="-2.49121">
        <ele>79.6</ele>
        <time>2024-12-19T09:08:29Z</time>
      </trkpt>
      <trkpt lat="47.93888" lon="-2.49121">
        <ele>79.6</ele>
        <time>2024-12-19T09:08:30Z</time>
      </trkpt>
      <trkpt lat="47.93888" lon="-2.49121">
        <ele>79.6</ele>
        <time>2024-12-19T09:08:31Z</time>
      </trkpt>
      <trkpt lat="47.93888" lon="-2.49121">
        <ele>79.6</ele>
        <time>2024-12-19T09:08:32Z</time>
      </trkpt>
      <trkpt lat="47.93888" lon="-2.49121">
        <ele>79.6</ele>
        <time>2024-12-19T09:08:33Z</time>
      </trkpt>
      <trkpt lat="47.93888" lon="-2.49121">
        <ele>79.6</ele>
        <time>2024-12-19T09:08:34Z</time>
      </trkpt>
      <trkpt lat="47.93888" lon="-2.49121">
        <ele>79.6</ele>
        <time>2024-12-19T09:08:35Z</time>
      </trkpt>
      <trkpt lat="47.93888" lon="-2.49121">
        <ele>79.6</ele>
        <time>2024-12-19T09:08:36Z</time>
      </trkpt>
      <trkpt lat="47.93888" lon="-2.49121">
        <ele>79.6</ele>
        <time>2024-12-19T09:08:37Z</time>
      </trkpt>
      <trkpt lat="47.93888" lon="-2.49121">
        <ele>79.6</ele>
        <time>2024-12-19T09:08:38Z</time>
      </trkpt>
      <trkpt lat="47.93888" lon="-2.49121">
        <ele>79.6</ele>
        <time>2024-12-19T09:08:39Z</time>
      </trkpt>
      <trkpt lat="47.93888" lon="-2.49121">
        <ele>79.6</ele>
        <time>2024-12-19T09:08:40Z</time>
      </trkpt>
      <trkpt lat="47.93888" lon="-2.49121">
        <ele>79.6</ele>
        <time>2024-12-19T09:08:41Z</time>
      </trkpt>
      <trkpt lat="47.93888" lon="-2.49121">
        <ele>79.6</ele>
        <time>2024-12-19T09:08:42Z</time>
      </trkpt>
      <trkpt lat="47.93888" lon="-2.49121">
        <ele>79.6</ele>
        <time>2024-12-19T09:08:43Z</time>
      </trkpt>
      <trkpt lat="47.93888" lon="-2.49121">
        <ele>79.6</ele>
        <time>2024-12-19T09:08:44Z</time>
      </trkpt>
      <trkpt lat="47.93888" lon="-2.49121">
        <ele>79.6</ele>
        <time>2024-12-19T09:08:45Z</time>
      </trkpt>
      <trkpt lat="47.93888" lon="-2.49121">
        <ele>79.6</ele>
        <time>2024-12-19T09:08:46Z</time>
      </trkpt>
      <trkpt lat="47.93888" lon="-2.49121">
        <ele>79.6</ele>
        <time>2024-12-19T09:08:47Z</time>
      </trkpt>
      <trkpt lat="47.93888" lon="-2.49121">
        <ele>79.6</ele>
        <time>2024-12-19T09:08:48Z</time>
      </trkpt>
      <trkpt lat="47.93888" lon="-2.49121">
        <ele>79.6</ele>
        <time>2024-12-19T09:08:49Z</time>
      </trkpt>
      <trkpt lat="47.93888" lon="-2.49121">
        <ele>79.6</ele>
        <time>2024-12-19T09:08:50Z</time>
      </trkpt>
      <trkpt lat="47.93888" lon="-2.49121">
        <ele>79.6</ele>
        <time>2024-12-19T09:08:51Z</time>
      </trkpt>
      <trkpt lat="47.93888" lon="-2.49121">
        <ele>79.6</ele>
        <time>2024-12-19T09:08:52Z</time>
      </trkpt>
      <trkpt lat="47.93888" lon="-2.49121">
        <ele>79.6</ele>
        <time>2024-12-19T09:08:53Z</time>
      </trkpt>
      <trkpt lat="47.93888" lon="-2.49121">
        <ele>79.6</ele>
        <time>2024-12-19T09:08:54Z</time>
      </trkpt>
      <trkpt lat="47.93888" lon="-2.49121">
        <ele>79.6</ele>
        <time>2024-12-19T09:08:55Z</time>
      </trkpt>
      <trkpt lat="47.93888" lon="-2.49121">
        <ele>79.6</ele>
        <time>2024-12-19T09:08:56Z</time>
      </trkpt>
      <trkpt lat="47.93888" lon="-2.49121">
        <ele>79.6</ele>
        <time>2024-12-19T09:08:57Z</time>
      </trkpt>
      <trkpt lat="47.93888" lon="-2.49121">
        <ele>79.6</ele>
        <time>2024-12-19T09:08:58Z</time>
      </trkpt>
      <trkpt lat="47.93888" lon="-2.49121">
        <ele>79.6</ele>
        <time>2024-12-19T09:08:59Z</time>
      </trkpt>
      <trkpt lat="47.93888" lon="-2.49121">
        <ele>79.6</ele>
        <time>2024-12-19T09:09:00Z</time>
      </trkpt>
      <trkpt lat="47.93888" lon="-2.49121">
        <ele>79.6</ele>
        <time>2024-12-19T09:09:01Z</time>
      </trkpt>
      <trkpt lat="47.93888" lon="-2.49121">
        <ele>79.6</ele>
        <time>2024-12-19T09:09:02Z</time>
      </trkpt>
      <trkpt lat="47.93888" lon="-2.49121">
        <ele>79.6</ele>
        <time>2024-12-19T09:09:03Z</time>
      </trkpt>
      <trkpt lat="47.93888" lon="-2.49121">
        <ele>79.6</ele>
        <time>2024-12-19T09:09:04Z</time>
      </trkpt>
      <trkpt lat="47.93888" lon="-2.49121">
        <ele>79.6</ele>
        <time>2024-12-19T09:09:05Z</time>
      </trkpt>
      <trkpt lat="47.93888" lon="-2.49121">
        <ele>79.6</ele>
        <time>2024-12-19T09:09:06Z</time>
      </trkpt>
      <trkpt lat="47.93888" lon="-2.49121">
        <ele>79.6</ele>
        <time>2024-12-19T09:09:07Z</time>
      </trkpt>
      <trkpt lat="47.93888" lon="-2.49121">
        <ele>79.6</ele>
        <time>2024-12-19T09:09:08Z</time>
      </trkpt>
      <trkpt lat="47.93888" lon="-2.49121">
        <ele>79.6</ele>
        <time>2024-12-19T09:09:09Z</time>
      </trkpt>
      <trkpt lat="47.93888" lon="-2.49121">
        <ele>79.6</ele>
        <time>2024-12-19T09:09:10Z</time>
      </trkpt>
      <trkpt lat="47.93888" lon="-2.49121">
        <ele>79.6</ele>
        <time>2024-12-19T09:09:11Z</time>
      </trkpt>
      <trkpt lat="47.93888" lon="-2.49121">
        <ele>79.6</ele>
        <time>2024-12-19T09:09:12Z</time>
      </trkpt>
      <trkpt lat="47.93888" lon="-2.49121">
        <ele>79.6</ele>
        <time>2024-12-19T09:09:13Z</time>
      </trkpt>
      <trkpt lat="47.93888" lon="-2.49121">
        <ele>79.6</ele>
        <time>2024-12-19T09:09:14Z</time>
      </trkpt>
      <trkpt lat="47.93888" lon="-2.49121">
        <ele>79.6</ele>
        <time>2024-12-19T09:09:15Z</time>
      </trkpt>
      <trkpt lat="47.93888" lon="-2.49121">
        <ele>79.6</ele>
        <time>2024-12-19T09:09:16Z</time>
      </trkpt>
      <trkpt lat="47.93888" lon="-2.49121">
        <ele>79.6</ele>
        <time>2024-12-19T09:09:17Z</time>
      </trkpt>
      <trkpt lat="47.93888" lon="-2.49121">
        <ele>79.6</ele>
        <time>2024-12-19T09:09:18Z</time>
      </trkpt>
      <trkpt lat="47.93888" lon="-2.49121">
        <ele>79.6</ele>
        <time>2024-12-19T09:09:19Z</time>
      </trkpt>
      <trkpt lat="47.93888" lon="-2.49121">
        <ele>79.6</ele>
        <time>2024-12-19T09:09:20Z</time>
      </trkpt>
      <trkpt lat="47.93888" lon="-2.49121">
        <ele>79.6</ele>
        <time>2024-12-19T09:09:21Z</time>
      </trkpt>
      <trkpt lat="47.93888" lon="-2.49121">
        <ele>79.6</ele>
        <time>2024-12-19T09:09:22Z</time>
      </trkpt>
      <trkpt lat="47.93888" lon="-2.49121">
        <ele>79.6</ele>
        <time>2024-12-19T09:09:23Z</time>
      </trkpt>
      <trkpt lat="47.93888" lon="-2.49121">
        <ele>79.6</ele>
        <time>2024-12-19T09:09:24Z</time>
      </trkpt>
      <trkpt lat="47.93888" lon="-2.49121">
        <ele>79.6</ele>
        <time>2024-12-19T09:09:25Z</time>
      </trkpt>
      <trkpt lat="47.93888" lon="-2.49121">
        <ele>79.6</ele>
        <time>2024-12-19T09:09:26Z</time>
      </trkpt>
      <trkpt lat="47.93888" lon="-2.49121">
        <ele>79.6</ele>
        <time>2024-12-19T09:09:27Z</time>
      </trkpt>
      <trkpt lat="47.93888" lon="-2.49121">
        <ele>79.6</ele>
        <time>2024-12-19T09:09:28Z</time>
      </trkpt>
      <trkpt lat="47.93888" lon="-2.49121">
        <ele>79.6</ele>
        <time>2024-12-19T09:09:29Z</time>
      </trkpt>
      <trkpt lat="47.93888" lon="-2.49121">
        <ele>79.6</ele>
        <time>2024-12-19T09:09:30Z</time>
      </trkpt>
      <trkpt lat="47.93888" lon="-2.49121">
        <ele>79.6</ele>
        <time>2024-12-19T09:09:31Z</time>
      </trkpt>
      <trkpt lat="47.93888" lon="-2.49121">
        <ele>79.6</ele>
        <time>2024-12-19T09:09:32Z</time>
      </trkpt>
      <trkpt lat="47.93888" lon="-2.49121">
        <ele>79.6</ele>
        <time>2024-12-19T09:09:33Z</time>
      </trkpt>
      <trkpt lat="47.93888" lon="-2.49121">
        <ele>79.6</ele>
        <time>2024-12-19T09:09:34Z</time>
      </trkpt>
      <trkpt lat="47.93888" lon="-2.49121">
        <ele>79.6</ele>
        <time>2024-12-19T09:09:35Z</time>
      </trkpt>
      <trkpt lat="47.93888" lon="-2.49121">
        <ele>79.6</ele>
        <time>2024-12-19T09:09:36Z</time>
      </trkpt>
      <trkpt lat="47.93888" lon="-2.49121">
        <ele>79.6</ele>
        <time>2024-12-19T09:09:37Z</time>
      </trkpt>
      <trkpt lat="47.93888" lon="-2.49121">
        <ele>79.6</ele>
        <time>2024-12-19T09:09:38Z</time>
      </trkpt>
      <trkpt lat="47.93888" lon="-2.49121">
        <ele>79.6</ele>
        <time>2024-12-19T09:09:39Z</time>
      </trkpt>
      <trkpt lat="47.93888" lon="-2.49121">
        <ele>79.6</ele>
        <time>2024-12-19T09:09:40Z</time>
      </trkpt>
      <trkpt lat="47.93888" lon="-2.49121">
        <ele>79.6</ele>
        <time>2024-12-19T09:09:41Z</time>
      </trkpt>
      <trkpt lat="47.93888" lon="-2.49121">
        <ele>79.6</ele>
        <time>2024-12-19T09:09:42Z</time>
      </trkpt>
      <trkpt lat="47.93888" lon="-2.49121">
        <ele>79.6</ele>
        <time>2024-12-19T09:09:43Z</time>
      </trkpt>
      <trkpt lat="47.93888" lon="-2.49121">
        <ele>79.6</ele>
        <time>2024-12-19T09:09:44Z</time>
      </trkpt>
      <trkpt lat="47.93888" lon="-2.49121">
        <ele>79.6</ele>
        <time>2024-12-19T09:09:45Z</time>
      </trkpt>
      <trkpt lat="47.93888" lon="-2.49121">
        <ele>79.6</ele>
        <time>2024-12-19T09:09:46Z</time>
      </trkpt>
      <trkpt lat="47.93888" lon="-2.49121">
        <ele>79.6</ele>
        <time>2024-12-19T09:09:47Z</time>
      </trkpt>
      <trkpt lat="47.93888" lon="-2.49121">
        <ele>79.6</ele>
        <time>2024-12-19T09:09:48Z</time>
      </trkpt>
      <trkpt lat="47.93888" lon="-2.49121">
        <ele>79.6</ele>
        <time>2024-12-19T09:09:49Z</time>
      </trkpt>
      <trkpt lat="47.93888" lon="-2.49121">
        <ele>79.6</ele>
        <time>2024-12-19T09:09:50Z</time>
      </trkpt>
      <trkpt lat="47.93888" lon="-2.49121">
        <ele>79.6</ele>
        <time>2024-12-19T09:09:51Z</time>
      </trkpt>
      <trkpt lat="47.93888" lon="-2.49121">
        <ele>79.6</ele>
        <time>2024-12-19T09:09:52Z</time>
      </trkpt>
      <trkpt lat="47.93888" lon="-2.49121">
        <ele>79.6</ele>
        <time>2024-12-19T09:09:53Z</time>
      </trkpt>
      <trkpt lat="47.93888" lon="-2.49121">
        <ele>79.6</ele>
        <time>2024-12-19T09:09:54Z</time>
      </trkpt>
      <trkpt lat="47.93888" lon="-2.49121">
        <ele>79.6</ele>
        <time>2024-12-19T09:09:55Z</time>
      </trkpt>
      <trkpt lat="47.93888" lon="-2.49121">
        <ele>79.6</ele>
        <time>2024-12-19T09:09:56Z</time>
      </trkpt>
      <trkpt lat="47.93888" lon="-2.49121">
        <ele>79.6</ele>
        <time>2024-12-19T09:09:57Z</time>
      </trkpt>
      <trkpt lat="47.93888" lon="-2.49121">
        <ele>79.6</ele>
        <time>2024-12-19T09:09:58Z</time>
      </trkpt>
      <trkpt lat="47.93888" lon="-2.49121">
        <ele>79.6</ele>
        <time>2024-12-19T09:09:59Z</time>
      </trkpt>
      <trkpt lat="47.93888" lon="-2.49121">
        <ele>79.6</ele>
        <time>2024-12-19T09:10:00Z</time>
      </trkpt>
      <trkpt lat="47.93888" lon="-2.49121">
        <ele>79.6</ele>
        <time>2024-12-19T09:10:01Z</time>
      </trkpt>
      <trkpt lat="47.93888" lon="-2.49121">
        <ele>79.6</ele>
        <time>2024-12-19T09:10:02Z</time>
      </trkpt>
      <trkpt lat="47.93888" lon="-2.49121">
        <ele>79.6</ele>
        <time>2024-12-19T09:10:03Z</time>
      </trkpt>
      <trkpt lat="47.93888" lon="-2.49121">
        <ele>79.6</ele>
        <time>2024-12-19T09:10:04Z</time>
      </trkpt>
      <trkpt lat="47.93888" lon="-2.49121">
        <ele>79.6</ele>
        <time>2024-12-19T09:10:05Z</time>
      </trkpt>
      <trkpt lat="47.93888" lon="-2.49121">
        <ele>79.6</ele>
        <time>2024-12-19T09:10:06Z</time>
      </trkpt>
      <trkpt lat="47.93888" lon="-2.49121">
        <ele>79.6</ele>
        <time>2024-12-19T09:10:07Z</time>
      </trkpt>
      <trkpt lat="47.93888" lon="-2.49121">
        <ele>79.6</ele>
        <time>2024-12-19T09:10:08Z</time>
      </trkpt>
      <trkpt lat="47.93888" lon="-2.49121">
        <ele>79.6</ele>
        <time>2024-12-19T09:10:09Z</time>
      </trkpt>
      <trkpt lat="47.93888" lon="-2.49121">
        <ele>79.6</ele>
        <time>2024-12-19T09:10:10Z</time>
      </trkpt>
      <trkpt lat="47.93888" lon="-2.49121">
        <ele>79.6</ele>
        <time>2024-12-19T09:10:11Z</time>
      </trkpt>
      <trkpt lat="47.93888" lon="-2.49121">
        <ele>79.6</ele>
        <time>2024-12-19T09:10:12Z</time>
      </trkpt>
      <trkpt lat="47.93888" lon="-2.49121">
        <ele>79.6</ele>
        <time>2024-12-19T09:10:13Z</time>
      </trkpt>
      <trkpt lat="47.93888" lon="-2.49121">
        <ele>79.6</ele>
        <time>2024-12-19T09:10:14Z</time>
      </trkpt>
      <trkpt lat="47.93888" lon="-2.49121">
        <ele>79.6</ele>
        <time>2024-12-19T09:10:15Z</time>
      </trkpt>
      <trkpt lat="47.93888" lon="-2.49121">
        <ele>79.6</ele>
        <time>2024-12-19T09:10:16Z</time>
      </trkpt>
      <trkpt lat="47.93888" lon="-2.49121">
        <ele>79.6</ele>
        <time>2024-12-19T09:10:17Z</time>
      </trkpt>
      <trkpt lat="47.93888" lon="-2.49121">
        <ele>79.6</ele>
        <time>2024-12-19T09:10:18Z</time>
      </trkpt>
      <trkpt lat="47.93888" lon="-2.49121">
        <ele>79.6</ele>
        <time>2024-12-19T09:10:19Z</time>
      </trkpt>
      <trkpt lat="47.93888" lon="-2.49121">
        <ele>79.6</ele>
        <time>2024-12-19T09:10:20Z</time>
      </trkpt>
      <trkpt lat="47.93888" lon="-2.49121">
        <ele>79.6</ele>
        <time>2024-12-19T09:10:21Z</time>
      </trkpt>
      <trkpt lat="47.93888" lon="-2.49121">
        <ele>79.6</ele>
        <time>2024-12-19T09:10:22Z</time>
      </trkpt>
      <trkpt lat="47.93888" lon="-2.49121">
        <ele>79.6</ele>
        <time>2024-12-19T09:10:23Z</time>
      </trkpt>
      <trkpt lat="47.93888" lon="-2.49121">
        <ele>79.6</ele>
        <time>2024-12-19T09:10:24Z</time>
      </trkpt>
      <trkpt lat="47.93888" lon="-2.49121">
        <ele>79.6</ele>
        <time>2024-12-19T09:10:25Z</time>
      </trkpt>
      <trkpt lat="47.93888" lon="-2.49121">
        <ele>79.6</ele>
        <time>2024-12-19T09:10:26Z</time>
      </trkpt>
      <trkpt lat="47.93888" lon="-2.49121">
        <ele>79.6</ele>
        <time>2024-12-19T09:10:27Z</time>
      </trkpt>
      <trkpt lat="47.93888" lon="-2.49121">
        <ele>79.6</ele>
        <time>2024-12-19T09:10:28Z</time>
      </trkpt>
      <trkpt lat="47.93888" lon="-2.49121">
        <ele>79.6</ele>
        <time>2024-12-19T09:10:29Z</time>
      </trkpt>
      <trkpt lat="47.93888" lon="-2.49121">
        <ele>79.6</ele>
        <time>2024-12-19T09:10:30Z</time>
      </trkpt>
      <trkpt lat="47.93888" lon="-2.49121">
        <ele>79.6</ele>
        <time>2024-12-19T09:10:31Z</time>
      </trkpt>
      <trkpt lat="47.93888" lon="-2.49121">
        <ele>79.6</ele>
        <time>2024-12-19T09:10:32Z</time>
      </trkpt>
      <trkpt lat="47.93888" lon="-2.49121">
        <ele>79.6</ele>
        <time>2024-12-19T09:10:33Z</time>
      </trkpt>
      <trkpt lat="47.93888" lon="-2.49121">
        <ele>79.6</ele>
        <time>2024-12-19T09:10:34Z</time>
      </trkpt>
      <trkpt lat="47.93888" lon="-2.49121">
        <ele>79.6</ele>
        <time>2024-12-19T09:10:35Z</time>
      </trkpt>
      <trkpt lat="47.93888" lon="-2.49121">
        <ele>79.6</ele>
        <time>2024-12-19T09:10:36Z</time>
      </trkpt>
      <trkpt lat="47.93888" lon="-2.49121">
        <ele>79.6</ele>
        <time>2024-12-19T09:10:37Z</time>
      </trkpt>
      <trkpt lat="47.93888" lon="-2.49121">
        <ele>79.6</ele>
        <time>2024-12-19T09:10:38Z</time>
      </trkpt>
      <trkpt lat="47.93888" lon="-2.49121">
        <ele>79.6</ele>
        <time>2024-12-19T09:10:39Z</time>
      </trkpt>
      <trkpt lat="47.93888" lon="-2.49121">
        <ele>79.6</ele>
        <time>2024-12-19T09:10:40Z</time>
      </trkpt>
      <trkpt lat="47.93888" lon="-2.49121">
        <ele>79.6</ele>
        <time>2024-12-19T09:10:41Z</time>
      </trkpt>
      <trkpt lat="47.93888" lon="-2.49121">
        <ele>79.6</ele>
        <time>2024-12-19T09:10:42Z</time>
      </trkpt>
      <trkpt lat="47.93888" lon="-2.49121">
        <ele>79.6</ele>
        <time>2024-12-19T09:10:43Z</time>
      </trkpt>
      <trkpt lat="47.93888" lon="-2.49121">
        <ele>79.6</ele>
        <time>2024-12-19T09:10:44Z</time>
      </trkpt>
      <trkpt lat="47.93888" lon="-2.49121">
        <ele>79.6</ele>
        <time>2024-12-19T09:10:45Z</time>
      </trkpt>
      <trkpt lat="47.93888" lon="-2.49121">
        <ele>79.6</ele>
        <time>2024-12-19T09:10:46Z</time>
      </trkpt>
      <trkpt lat="47.93888" lon="-2.49121">
        <ele>79.6</ele>
        <time>2024-12-19T09:10:47Z</time>
      </trkpt>
      <trkpt lat="47.93888" lon="-2.49121">
        <ele>79.6</ele>
        <time>2024-12-19T09:10:48Z</time>
      </trkpt>
      <trkpt lat="47.93888" lon="-2.49121">
        <ele>79.6</ele>
        <time>2024-12-19T09:10:49Z</time>
      </trkpt>
      <trkpt lat="47.93888" lon="-2.49121">
        <ele>79.6</ele>
        <time>2024-12-19T09:10:50Z</time>
      </trkpt>
      <trkpt lat="47.93888" lon="-2.49121">
        <ele>79.6</ele>
        <time>2024-12-19T09:10:51Z</time>
      </trkpt>
      <trkpt lat="47.93888" lon="-2.49121">
        <ele>79.6</ele>
        <time>2024-12-19T09:10:52Z</time>
      </trkpt>
      <trkpt lat="47.93888" lon="-2.49121">
        <ele>79.6</ele>
        <time>2024-12-19T09:10:53Z</time>
      </trkpt>
      <trkpt lat="47.93888" lon="-2.49121">
        <ele>79.6</ele>
        <time>2024-12-19T09:10:54Z</time>
      </trkpt>
      <trkpt lat="47.93888" lon="-2.49121">
        <ele>79.6</ele>
        <time>2024-12-19T09:10:55Z</time>
      </trkpt>
      <trkpt lat="47.93888" lon="-2.49121">
        <ele>79.6</ele>
        <time>2024-12-19T09:10:56Z</time>
      </trkpt>
      <trkpt lat="47.93888" lon="-2.49121">
        <ele>79.6</ele>
        <time>2024-12-19T09:10:57Z</time>
      </trkpt>
      <trkpt lat="47.93888" lon="-2.49121">
        <ele>79.6</ele>
        <time>2024-12-19T09:10:58Z</time>
      </trkpt>
      <trkpt lat="47.93888" lon="-2.49121">
        <ele>79.6</ele>
        <time>2024-12-19T09:10:59Z</time>
      </trkpt>
      <trkpt lat="47.93888" lon="-2.49121">
        <ele>79.6</ele>
        <time>2024-12-19T09:11:00Z</time>
      </trkpt>
      <trkpt lat="47.93888" lon="-2.49121">
        <ele>79.6</ele>
        <time>2024-12-19T09:11:01Z</time>
      </trkpt>
      <trkpt lat="47.93888" lon="-2.49121">
        <ele>79.6</ele>
        <time>2024-12-19T09:11:02Z</time>
      </trkpt>
      <trkpt lat="47.93888" lon="-2.49121">
        <ele>79.6</ele>
        <time>2024-12-19T09:11:03Z</time>
      </trkpt>
      <trkpt lat="47.93888" lon="-2.49121">
        <ele>79.6</ele>
        <time>2024-12-19T09:11:04Z</time>
      </trkpt>
      <trkpt lat="47.93888" lon="-2.49121">
        <ele>79.6</ele>
        <time>2024-12-19T09:11:05Z</time>
      </trkpt>
      <trkpt lat="47.93888" lon="-2.49121">
        <ele>79.6</ele>
        <time>2024-12-19T09:11:06Z</time>
      </trkpt>
      <trkpt lat="47.93888" lon="-2.49121">
        <ele>79.6</ele>
        <time>2024-12-19T09:11:07Z</time>
      </trkpt>
      <trkpt lat="47.93888" lon="-2.49121">
        <ele>79.6</ele>
        <time>2024-12-19T09:11:08Z</time>
      </trkpt>
      <trkpt lat="47.93888" lon="-2.49121">
        <ele>79.6</ele>
        <time>2024-12-19T09:11:09Z</time>
      </trkpt>
      <trkpt lat="47.93888" lon="-2.49121">
        <ele>79.6</ele>
        <time>2024-12-19T09:11:10Z</time>
      </trkpt>
      <trkpt lat="47.93888" lon="-2.49121">
        <ele>79.6</ele>
        <time>2024-12-19T09:11:11Z</time>
      </trkpt>
      <trkpt lat="47.93888" lon="-2.49121">
        <ele>79.6</ele>
        <time>2024-12-19T09:11:12Z</time>
      </trkpt>
      <trkpt lat="47.93888" lon="-2.49121">
        <ele>79.6</ele>
        <time>2024-12-19T09:11:13Z</time>
      </trkpt>
      <trkpt lat="47.93888" lon="-2.49121">
        <ele>79.6</ele>
        <time>2024-12-19T09:11:14Z</time>
      </trkpt>
      <trkpt lat="47.93888" lon="-2.49121">
        <ele>79.6</ele>
        <time>2024-12-19T09:11:15Z</time>
      </trkpt>
      <trkpt lat="47.93888" lon="-2.49121">
        <ele>79.6</ele>
        <time>2024-12-19T09:11:16Z</time>
      </trkpt>
      <trkpt lat="47.93888" lon="-2.49121">
        <ele>79.6</ele>
        <time>2024-12-19T09:11:17Z</time>
      </trkpt>
      <trkpt lat="47.93888" lon="-2.49121">
        <ele>79.6</ele>
        <time>2024-12-19T09:11:18Z</time>
      </trkpt>
      <trkpt lat="47.93888" lon="-2.49121">
        <ele>79.6</ele>
        <time>2024-12-19T09:11:19Z</time>
      </trkpt>
      <trkpt lat="47.93888" lon="-2.49121">
        <ele>79.6</ele>
        <time>2024-12-19T09:11:20Z</time>
      </trkpt>
      <trkpt lat="47.93888" lon="-2.49121">
        <ele>79.6</ele>
        <time>2024-12-19T09:11:21Z</time>
      </trkpt>
      <trkpt lat="47.93888" lon="-2.49121">
        <ele>79.6</ele>
        <time>2024-12-19T09:11:22Z</time>
      </trkpt>
      <trkpt lat="47.93888" lon="-2.49121">
        <ele>79.6</ele>
        <time>2024-12-19T09:11:23Z</time>
      </trkpt>
      <trkpt lat="47.93888" lon="-2.49121">
        <ele>79.6</ele>
        <time>2024-12-19T09:11:24Z</time>
      </trkpt>
      <trkpt lat="47.93888" lon="-2.49121">
        <ele>79.6</ele>
        <time>2024-12-19T09:11:25Z</time>
      </trkpt>
      <trkpt lat="47.93888" lon="-2.49121">
        <ele>79.6</ele>
        <time>2024-12-19T09:11:26Z</time>
      </trkpt>
      <trkpt lat="47.93888" lon="-2.49121">
        <ele>79.6</ele>
        <time>2024-12-19T09:11:27Z</time>
      </trkpt>
      <trkpt lat="47.93888" lon="-2.49121">
        <ele>79.6</ele>
        <time>2024-12-19T09:11:28Z</time>
      </trkpt>
      <trkpt lat="47.93888" lon="-2.49121">
        <ele>79.6</ele>
        <time>2024-12-19T09:11:29Z</time>
      </trkpt>
      <trkpt lat="47.93888" lon="-2.49121">
        <ele>79.6</ele>
        <time>2024-12-19T09:11:30Z</time>
      </trkpt>
      <trkpt lat="47.93888" lon="-2.49121">
        <ele>79.6</ele>
        <time>2024-12-19T09:11:31Z</time>
      </trkpt>
      <trkpt lat="47.93888" lon="-2.49121">
        <ele>79.6</ele>
        <time>2024-12-19T09:11:32Z</time>
      </trkpt>
      <trkpt lat="47.93888" lon="-2.49121">
        <ele>79.6</ele>
        <time>2024-12-19T09:11:33Z</time>
      </trkpt>
      <trkpt lat="47.93888" lon="-2.49121">
        <ele>79.6</ele>
        <time>2024-12-19T09:11:34Z</time>
      </trkpt>
      <trkpt lat="47.93888" lon="-2.49121">
        <ele>79.6</ele>
        <time>2024-12-19T09:11:35Z</time>
      </trkpt>
      <trkpt lat="47.93888" lon="-2.49121">
        <ele>79.6</ele>
        <time>2024-12-19T09:11:36Z</time>
      </trkpt>
      <trkpt lat="47.93888" lon="-2.49121">
        <ele>79.6</ele>
        <time>2024-12-19T09:11:37Z</time>
      </trkpt>
      <trkpt lat="47.93888" lon="-2.49121">
        <ele>79.6</ele>
        <time>2024-12-19T09:11:38Z</time>
      </trkpt>
      <trkpt lat="47.93888" lon="-2.49121">
        <ele>79.6</ele>
        <time>2024-12-19T09:11:39Z</time>
      </trkpt>
      <trkpt lat="47.93888" lon="-2.49121">
        <ele>79.6</ele>
        <time>2024-12-19T09:11:40Z</time>
      </trkpt>
      <trkpt lat="47.93888" lon="-2.49121">
        <ele>79.6</ele>
        <time>2024-12-19T09:11:41Z</time>
      </trkpt>
      <trkpt lat="47.93888" lon="-2.49121">
        <ele>79.6</ele>
        <time>2024-12-19T09:11:42Z</time>
      </trkpt>
      <trkpt lat="47.93888" lon="-2.49121">
        <ele>79.6</ele>
        <time>2024-12-19T09:11:43Z</time>
      </trkpt>
      <trkpt lat="47.93888" lon="-2.49121">
        <ele>79.6</ele>
        <time>2024-12-19T09:11:44Z</time>
      </trkpt>
      <trkpt lat="47.93888" lon="-2.49121">
        <ele>79.6</ele>
        <time>2024-12-19T09:11:45Z</time>
      </trkpt>
      <trkpt lat="47.93888" lon="-2.49121">
        <ele>79.6</ele>
        <time>2024-12-19T09:11:46Z</time>
      </trkpt>
      <trkpt lat="47.93888" lon="-2.49121">
        <ele>79.6</ele>
        <time>2024-12-19T09:11:47Z</time>
      </trkpt>
      <trkpt lat="47.93888" lon="-2.49121">
        <ele>79.6</ele>
        <time>2024-12-19T09:11:48Z</time>
      </trkpt>
      <trkpt lat="47.93888" lon="-2.49121">
        <ele>79.6</ele>
        <time>2024-12-19T09:11:49Z</time>
      </trkpt>
      <trkpt lat="47.93888" lon="-2.49121">
        <ele>79.6</ele>
        <time>2024-12-19T09:11:50Z</time>
      </trkpt>
      <trkpt lat="47.93888" lon="-2.49121">
        <ele>79.6</ele>
        <time>2024-12-19T09:11:51Z</time>
      </trkpt>
      <trkpt lat="47.93888" lon="-2.49121">
        <ele>79.6</ele>
        <time>2024-12-19T09:11:52Z</time>
      </trkpt>
      <trkpt lat="47.93888" lon="-2.49121">
        <ele>79.6</ele>
        <time>2024-12-19T09:11:53Z</time>
      </trkpt>
      <trkpt lat="47.93888" lon="-2.49121">
        <ele>79.6</ele>
        <time>2024-12-19T09:11:54Z</time>
      </trkpt>
      <trkpt lat="47.93888" lon="-2.49121">
        <ele>79.6</ele>
        <time>2024-12-19T09:11:55Z</time>
      </trkpt>
      <trkpt lat="47.93888" lon="-2.49121">
        <ele>79.6</ele>
        <time>2024-12-19T09:11:56Z</time>
      </trkpt>
      <trkpt lat="47.93888" lon="-2.49121">
        <ele>79.6</ele>
        <time>2024-12-19T09:11:57Z</time>
      </trkpt>
      <trkpt lat="47.93888" lon="-2.49121">
        <ele>79.6</ele>
        <time>2024-12-19T09:11:58Z</time>
      </trkpt>
      <trkpt lat="47.93888" lon="-2.49121">
        <ele>79.6</ele>
        <time>2024-12-19T09:11:59Z</time>
      </trkpt>
      <trkpt lat="47.93888" lon="-2.49121">
        <ele>79.6</ele>
        <time>2024-12-19T09:12:00Z</time>
      </trkpt>
      <trkpt lat="47.93888" lon="-2.49121">
        <ele>79.6</ele>
        <time>2024-12-19T09:12:01Z</time>
      </trkpt>
      <trkpt lat="47.93888" lon="-2.49121">
        <ele>79.6</ele>
        <time>2024-12-19T09:12:02Z</time>
      </trkpt>
      <trkpt lat="47.93888" lon="-2.49121">
        <ele>79.6</ele>
        <time>2024-12-19T09:12:03Z</time>
      </trkpt>
      <trkpt lat="47.93888" lon="-2.49121">
        <ele>79.6</ele>
        <time>2024-12-19T09:12:04Z</time>
      </trkpt>
      <trkpt lat="47.93888" lon="-2.49121">
        <ele>79.6</ele>
        <time>2024-12-19T09:12:05Z</time>
      </trkpt>
      <trkpt lat="47.93888" lon="-2.49121">
        <ele>79.6</ele>
        <time>2024-12-19T09:12:06Z</time>
      </trkpt>
      <trkpt lat="47.93888" lon="-2.49121">
        <ele>79.6</ele>
        <time>2024-12-19T09:12:07Z</time>
      </trkpt>
      <trkpt lat="47.93888" lon="-2.49121">
        <ele>79.6</ele>
        <time>2024-12-19T09:12:08Z</time>
      </trkpt>
      <trkpt lat="47.93888" lon="-2.49121">
        <ele>79.6</ele>
        <time>2024-12-19T09:12:09Z</time>
      </trkpt>
      <trkpt lat="47.93888" lon="-2.49121">
        <ele>79.6</ele>
        <time>2024-12-19T09:12:10Z</time>
      </trkpt>
      <trkpt lat="47.93888" lon="-2.49121">
        <ele>79.6</ele>
        <time>2024-12-19T09:12:11Z</time>
      </trkpt>
      <trkpt lat="47.93888" lon="-2.49121">
        <ele>79.6</ele>
        <time>2024-12-19T09:12:12Z</time>
      </trkpt>
      <trkpt lat="47.93888" lon="-2.49121">
        <ele>79.6</ele>
        <time>2024-12-19T09:12:13Z</time>
      </trkpt>
      <trkpt lat="47.93888" lon="-2.49121">
        <ele>79.6</ele>
        <time>2024-12-19T09:12:14Z</time>
      </trkpt>
      <trkpt lat="47.93888" lon="-2.49121">
        <ele>79.6</ele>
        <time>2024-12-19T09:12:15Z</time>
      </trkpt>
      <trkpt lat="47.93888" lon="-2.49121">
        <ele>79.6</ele>
        <time>2024-12-19T09:12:16Z</time>
      </trkpt>
      <trkpt lat="47.93888" lon="-2.49121">
        <ele>79.6</ele>
        <time>2024-12-19T09:12:17Z</time>
      </trkpt>
      <trkpt lat="47.93888" lon="-2.49121">
        <ele>79.6</ele>
        <time>2024-12-19T09:12:18Z</time>
      </trkpt>
      <trkpt lat="47.93888" lon="-2.49121">
        <ele>79.6</ele>
        <time>2024-12-19T09:12:19Z</time>
      </trkpt>
      <trkpt lat="47.93888" lon="-2.49121">
        <ele>79.6</ele>
        <time>2024-12-19T09:12:20Z</time>
      </trkpt>
      <trkpt lat="47.93888" lon="-2.49121">
        <ele>79.6</ele>
        <time>2024-12-19T09:12:21Z</time>
      </trkpt>
      <trkpt lat="47.93888" lon="-2.49121">
        <ele>79.6</ele>
        <time>2024-12-19T09:12:22Z</time>
      </trkpt>
      <trkpt lat="47.93888" lon="-2.49121">
        <ele>79.6</ele>
        <time>2024-12-19T09:12:23Z</time>
      </trkpt>
      <trkpt lat="47.93888" lon="-2.49121">
        <ele>79.6</ele>
        <time>2024-12-19T09:12:24Z</time>
      </trkpt>
      <trkpt lat="47.93888" lon="-2.49121">
        <ele>79.6</ele>
        <time>2024-12-19T09:12:25Z</time>
      </trkpt>
      <trkpt lat="47.93888" lon="-2.49121">
        <ele>79.6</ele>
        <time>2024-12-19T09:12:26Z</time>
      </trkpt>
      <trkpt lat="47.93888" lon="-2.49121">
        <ele>79.6</ele>
        <time>2024-12-19T09:12:27Z</time>
      </trkpt>
      <trkpt lat="47.93888" lon="-2.49121">
        <ele>79.6</ele>
        <time>2024-12-19T09:12:28Z</time>
      </trkpt>
      <trkpt lat="47.93888" lon="-2.49121">
        <ele>79.6</ele>
        <time>2024-12-19T09:12:29Z</time>
      </trkpt>
      <trkpt lat="47.93888" lon="-2.49121">
        <ele>79.6</ele>
        <time>2024-12-19T09:12:30Z</time>
      </trkpt>
      <trkpt lat="47.93888" lon="-2.49121">
        <ele>79.6</ele>
        <time>2024-12-19T09:12:31Z</time>
      </trkpt>
      <trkpt lat="47.93888" lon="-2.49121">
        <ele>79.6</ele>
        <time>2024-12-19T09:12:32Z</time>
      </trkpt>
      <trkpt lat="47.93888" lon="-2.49121">
        <ele>79.6</ele>
        <time>2024-12-19T09:12:33Z</time>
      </trkpt>
      <trkpt lat="47.93888" lon="-2.49121">
        <ele>79.6</ele>
        <time>2024-12-19T09:12:34Z</time>
      </trkpt>
      <trkpt lat="47.93888" lon="-2.49121">
        <ele>79.6</ele>
        <time>2024-12-19T09:12:35Z</time>
      </trkpt>
      <trkpt lat="47.93888" lon="-2.49121">
        <ele>79.6</ele>
        <time>2024-12-19T09:12:36Z</time>
      </trkpt>
      <trkpt lat="47.93888" lon="-2.49121">
        <ele>79.6</ele>
        <time>2024-12-19T09:12:37Z</time>
      </trkpt>
      <trkpt lat="47.93888" lon="-2.49121">
        <ele>79.6</ele>
        <time>2024-12-19T09:12:38Z</time>
      </trkpt>
      <trkpt lat="47.93888" lon="-2.49121">
        <ele>79.6</ele>
        <time>2024-12-19T09:12:39Z</time>
      </trkpt>
      <trkpt lat="47.93888" lon="-2.49121">
        <ele>79.6</ele>
        <time>2024-12-19T09:12:40Z</time>
      </trkpt>
      <trkpt lat="47.93888" lon="-2.49121">
        <ele>79.6</ele>
        <time>2024-12-19T09:12:41Z</time>
      </trkpt>
      <trkpt lat="47.93888" lon="-2.49121">
        <ele>79.6</ele>
        <time>2024-12-19T09:12:42Z</time>
      </trkpt>
      <trkpt lat="47.93888" lon="-2.49121">
        <ele>79.6</ele>
        <time>2024-12-19T09:12:43Z</time>
      </trkpt>
      <trkpt lat="47.93888" lon="-2.49121">
        <ele>79.6</ele>
        <time>2024-12-19T09:12:44Z</time>
      </trkpt>
      <trkpt lat="47.93888" lon="-2.49121">
        <ele>79.6</ele>
        <time>2024-12-19T09:12:45Z</time>
      </trkpt>
      <trkpt lat="47.93888" lon="-2.49121">
        <ele>79.6</ele>
        <time>2024-12-19T09:12:46Z</time>
      </trkpt>
      <trkpt lat="47.93888" lon="-2.49121">
        <ele>79.6</ele>
        <time>2024-12-19T09:12:47Z</time>
      </trkpt>
      <trkpt lat="47.93888" lon="-2.49121">
        <ele>79.6</ele>
        <time>2024-12-19T09:12:48Z</time>
      </trkpt>
      <trkpt lat="47.93888" lon="-2.49121">
        <ele>79.6</ele>
        <time>2024-12-19T09:12:49Z</time>
      </trkpt>
      <trkpt lat="47.93888" lon="-2.49121">
        <ele>79.6</ele>
        <time>2024-12-19T09:12:50Z</time>
      </trkpt>
      <trkpt lat="47.93888" lon="-2.49121">
        <ele>79.6</ele>
        <time>2024-12-19T09:12:51Z</time>
      </trkpt>
      <trkpt lat="47.93888" lon="-2.49121">
        <ele>79.6</ele>
        <time>2024-12-19T09:12:52Z</time>
      </trkpt>
      <trkpt lat="47.93888" lon="-2.49121">
        <ele>79.6</ele>
        <time>2024-12-19T09:12:53Z</time>
      </trkpt>
      <trkpt lat="47.93888" lon="-2.49121">
        <ele>79.6</ele>
        <time>2024-12-19T09:12:54Z</time>
      </trkpt>
      <trkpt lat="47.93888" lon="-2.49121">
        <ele>79.6</ele>
        <time>2024-12-19T09:12:55Z</time>
      </trkpt>
      <trkpt lat="47.93888" lon="-2.49121">
        <ele>79.6</ele>
        <time>2024-12-19T09:12:56Z</time>
      </trkpt>
      <trkpt lat="47.93888" lon="-2.49121">
        <ele>79.6</ele>
        <time>2024-12-19T09:12:57Z</time>
      </trkpt>
      <trkpt lat="47.93888" lon="-2.49121">
        <ele>79.6</ele>
        <time>2024-12-19T09:12:58Z</time>
      </trkpt>
      <trkpt lat="47.93888" lon="-2.49121">
        <ele>79.6</ele>
        <time>2024-12-19T09:12:59Z</time>
      </trkpt>
      <trkpt lat="47.93888" lon="-2.49121">
        <ele>79.6</ele>
        <time>2024-12-19T09:13:00Z</time>
      </trkpt>
      <trkpt lat="47.93888" lon="-2.49121">
        <ele>79.6</ele>
        <time>2024-12-19T09:13:01Z</time>
      </trkpt>
      <trkpt lat="47.93888" lon="-2.49121">
        <ele>79.6</ele>
        <time>2024-12-19T09:13:02Z</time>
      </trkpt>
      <trkpt lat="47.93888" lon="-2.49121">
        <ele>79.6</ele>
        <time>2024-12-19T09:13:03Z</time>
      </trkpt>
      <trkpt lat="47.93888" lon="-2.49121">
        <ele>79.6</ele>
        <time>2024-12-19T09:13:04Z</time>
      </trkpt>
      <trkpt lat="47.93888" lon="-2.49121">
        <ele>79.6</ele>
        <time>2024-12-19T09:13:05Z</time>
      </trkpt>
      <trkpt lat="47.93888" lon="-2.49121">
        <ele>79.6</ele>
        <time>2024-12-19T09:13:06Z</time>
      </trkpt>
      <trkpt lat="47.93888" lon="-2.49121">
        <ele>79.6</ele>
        <time>2024-12-19T09:13:07Z</time>
      </trkpt>
      <trkpt lat="47.93888" lon="-2.49121">
        <ele>79.6</ele>
        <time>2024-12-19T09:13:08Z</time>
      </trkpt>
      <trkpt lat="47.93888" lon="-2.49121">
        <ele>79.6</ele>
        <time>2024-12-19T09:13:09Z</time>
      </trkpt>
      <trkpt lat="47.93888" lon="-2.49121">
        <ele>79.6</ele>
        <time>2024-12-19T09:13:10Z</time>
      </trkpt>
      <trkpt lat="47.93888" lon="-2.49121">
        <ele>79.6</ele>
        <time>2024-12-19T09:13:11Z</time>
      </trkpt>
      <trkpt lat="47.93888" lon="-2.49121">
        <ele>79.6</ele>
        <time>2024-12-19T09:13:12Z</time>
      </trkpt>
      <trkpt lat="47.93888" lon="-2.49121">
        <ele>79.6</ele>
        <time>2024-12-19T09:13:13Z</time>
      </trkpt>
      <trkpt lat="47.93888" lon="-2.49121">
        <ele>79.6</ele>
        <time>2024-12-19T09:13:14Z</time>
      </trkpt>
      <trkpt lat="47.93888" lon="-2.49121">
        <ele>79.6</ele>
        <time>2024-12-19T09:13:15Z</time>
      </trkpt>
      <trkpt lat="47.93888" lon="-2.49121">
        <ele>79.6</ele>
        <time>2024-12-19T09:13:16Z</time>
      </trkpt>
      <trkpt lat="47.93888" lon="-2.49121">
        <ele>79.6</ele>
        <time>2024-12-19T09:13:17Z</time>
      </trkpt>
      <trkpt lat="47.93888" lon="-2.49121">
        <ele>79.6</ele>
        <time>2024-12-19T09:13:18Z</time>
      </trkpt>
      <trkpt lat="47.93888" lon="-2.49121">
        <ele>79.6</ele>
        <time>2024-12-19T09:13:19Z</time>
      </trkpt>
      <trkpt lat="47.93888" lon="-2.49121">
        <ele>79.6</ele>
        <time>2024-12-19T09:13:20Z</time>
      </trkpt>
      <trkpt lat="47.93888" lon="-2.49121">
        <ele>79.6</ele>
        <time>2024-12-19T09:13:21Z</time>
      </trkpt>
      <trkpt lat="47.93888" lon="-2.49121">
        <ele>79.6</ele>
        <time>2024-12-19T09:13:22Z</time>
      </trkpt>
      <trkpt lat="47.93888" lon="-2.49121">
        <ele>79.6</ele>
        <time>2024-12-19T09:13:23Z</time>
      </trkpt>
      <trkpt lat="47.93888" lon="-2.49121">
        <ele>79.6</ele>
        <time>2024-12-19T09:13:24Z</time>
      </trkpt>
      <trkpt lat="47.93888" lon="-2.49121">
        <ele>79.6</ele>
        <time>2024-12-19T09:13:25Z</time>
      </trkpt>
      <trkpt lat="47.93888" lon="-2.49121">
        <ele>79.6</ele>
        <time>2024-12-19T09:13:26Z</time>
      </trkpt>
      <trkpt lat="47.93888" lon="-2.49121">
        <ele>79.6</ele>
        <time>2024-12-19T09:13:27Z</time>
      </trkpt>
      <trkpt lat="47.93888" lon="-2.49121">
        <ele>79.6</ele>
        <time>2024-12-19T09:13:28Z</time>
      </trkpt>
      <trkpt lat="47.93888" lon="-2.49121">
        <ele>79.6</ele>
        <time>2024-12-19T09:13:29Z</time>
      </trkpt>
      <trkpt lat="47.93888" lon="-2.49121">
        <ele>79.6</ele>
        <time>2024-12-19T09:13:30Z</time>
      </trkpt>
      <trkpt lat="47.93888" lon="-2.49121">
        <ele>79.6</ele>
        <time>2024-12-19T09:13:31Z</time>
      </trkpt>
      <trkpt lat="47.93888" lon="-2.49121">
        <ele>79.6</ele>
        <time>2024-12-19T09:13:32Z</time>
      </trkpt>
      <trkpt lat="47.93888" lon="-2.49121">
        <ele>79.6</ele>
        <time>2024-12-19T09:13:33Z</time>
      </trkpt>
      <trkpt lat="47.93888" lon="-2.49121">
        <ele>79.6</ele>
        <time>2024-12-19T09:13:34Z</time>
      </trkpt>
      <trkpt lat="47.93888" lon="-2.49121">
        <ele>79.6</ele>
        <time>2024-12-19T09:13:35Z</time>
      </trkpt>
      <trkpt lat="47.93888" lon="-2.49121">
        <ele>79.6</ele>
        <time>2024-12-19T09:13:36Z</time>
      </trkpt>
      <trkpt lat="47.93888" lon="-2.49121">
        <ele>79.6</ele>
        <time>2024-12-19T09:13:37Z</time>
      </trkpt>
      <trkpt lat="47.93888" lon="-2.49121">
        <ele>79.6</ele>
        <time>2024-12-19T09:13:38Z</time>
      </trkpt>
      <trkpt lat="47.93888" lon="-2.49121">
        <ele>79.6</ele>
        <time>2024-12-19T09:13:39Z</time>
      </trkpt>
      <trkpt lat="47.93888" lon="-2.49121">
        <ele>79.6</ele>
        <time>2024-12-19T09:13:40Z</time>
      </trkpt>
      <trkpt lat="47.93888" lon="-2.49121">
        <ele>79.6</ele>
        <time>2024-12-19T09:13:41Z</time>
      </trkpt>
      <trkpt lat="47.93888" lon="-2.49121">
        <ele>79.6</ele>
        <time>2024-12-19T09:13:42Z</time>
      </trkpt>
      <trkpt lat="47.93888" lon="-2.49121">
        <ele>79.6</ele>
        <time>2024-12-19T09:13:43Z</time>
      </trkpt>
      <trkpt lat="47.93888" lon="-2.49121">
        <ele>79.6</ele>
        <time>2024-12-19T09:13:44Z</time>
      </trkpt>
      <trkpt lat="47.93888" lon="-2.49121">
        <ele>79.6</ele>
        <time>2024-12-19T09:13:45Z</time>
      </trkpt>
      <trkpt lat="47.93888" lon="-2.49121">
        <ele>79.6</ele>
        <time>2024-12-19T09:13:46Z</time>
      </trkpt>
      <trkpt lat="47.93888" lon="-2.49121">
        <ele>79.6</ele>
        <time>2024-12-19T09:13:47Z</time>
      </trkpt>
      <trkpt lat="47.93888" lon="-2.49121">
        <ele>79.6</ele>
        <time>2024-12-19T09:13:48Z</time>
      </trkpt>
      <trkpt lat="47.93888" lon="-2.49121">
        <ele>79.6</ele>
        <time>2024-12-19T09:13:49Z</time>
      </trkpt>
      <trkpt lat="47.93888" lon="-2.49121">
        <ele>79.6</ele>
        <time>2024-12-19T09:13:50Z</time>
      </trkpt>
      <trkpt lat="47.93888" lon="-2.49121">
        <ele>79.6</ele>
        <time>2024-12-19T09:13:51Z</time>
      </trkpt>
      <trkpt lat="47.93888" lon="-2.49121">
        <ele>79.6</ele>
        <time>2024-12-19T09:13:52Z</time>
      </trkpt>
      <trkpt lat="47.93888" lon="-2.49121">
        <ele>79.6</ele>
        <time>2024-12-19T09:13:53Z</time>
      </trkpt>
      <trkpt lat="47.93888" lon="-2.49121">
        <ele>79.6</ele>
        <time>2024-12-19T09:13:54Z</time>
      </trkpt>
      <trkpt lat="47.93888" lon="-2.49121">
        <ele>79.6</ele>
        <time>2024-12-19T09:13:55Z</time>
      </trkpt>
      <trkpt lat="47.93888" lon="-2.49121">
        <ele>79.6</ele>
        <time>2024-12-19T09:13:56Z</time>
      </trkpt>
      <trkpt lat="47.93888" lon="-2.49121">
        <ele>79.6</ele>
        <time>2024-12-19T09:13:57Z</time>
      </trkpt>
      <trkpt lat="47.93888" lon="-2.49121">
        <ele>79.6</ele>
        <time>2024-12-19T09:13:58Z</time>
      </trkpt>
      <trkpt lat="47.93888" lon="-2.49121">
        <ele>79.6</ele>
        <time>2024-12-19T09:13:59Z</time>
      </trkpt>
      <trkpt lat="47.93888" lon="-2.49121">
        <ele>79.6</ele>
        <time>2024-12-19T09:14:00Z</time>
      </trkpt>
      <trkpt lat="47.93888" lon="-2.49121">
        <ele>79.6</ele>
        <time>2024-12-19T09:14:01Z</time>
      </trkpt>
      <trkpt lat="47.93888" lon="-2.49121">
        <ele>79.6</ele>
        <time>2024-12-19T09:14:02Z</time>
      </trkpt>
      <trkpt lat="47.93888" lon="-2.49121">
        <ele>79.6</ele>
        <time>2024-12-19T09:14:03Z</time>
      </trkpt>
      <trkpt lat="47.93888" lon="-2.49121">
        <ele>79.6</ele>
        <time>2024-12-19T09:14:04Z</time>
      </trkpt>
      <trkpt lat="47.93888" lon="-2.49121">
        <ele>79.6</ele>
        <time>2024-12-19T09:14:05Z</time>
      </trkpt>
      <trkpt lat="47.93888" lon="-2.49121">
        <ele>79.6</ele>
        <time>2024-12-19T09:14:06Z</time>
      </trkpt>
      <trkpt lat="47.93888" lon="-2.49121">
        <ele>79.6</ele>
        <time>2024-12-19T09:14:07Z</time>
      </trkpt>
      <trkpt lat="47.93888" lon="-2.49121">
        <ele>79.6</ele>
        <time>2024-12-19T09:14:08Z</time>
      </trkpt>
      <trkpt lat="47.93888" lon="-2.49121">
        <ele>79.6</ele>
        <time>2024-12-19T09:14:09Z</time>
      </trkpt>
      <trkpt lat="47.93888" lon="-2.49121">
        <ele>79.6</ele>
        <time>2024-12-19T09:14:10Z</time>
      </trkpt>
      <trkpt lat="47.93888" lon="-2.49121">
        <ele>79.6</ele>
        <time>2024-12-19T09:14:11Z</time>
      </trkpt>
      <trkpt lat="47.93888" lon="-2.49121">
        <ele>79.6</ele>
        <time>2024-12-19T09:14:12Z</time>
      </trkpt>
      <trkpt lat="47.93888" lon="-2.49121">
        <ele>79.6</ele>
        <time>2024-12-19T09:14:13Z</time>
      </trkpt>
      <trkpt lat="47.93888" lon="-2.49121">
        <ele>79.6</ele>
        <time>2024-12-19T09:14:14Z</time>
      </trkpt>
      <trkpt lat="47.93888" lon="-2.49121">
        <ele>79.6</ele>
        <time>2024-12-19T09:14:15Z</time>
      </trkpt>
      <trkpt lat="47.93888" lon="-2.49121">
        <ele>79.6</ele>
        <time>2024-12-19T09:14:16Z</time>
      </trkpt>
      <trkpt lat="47.93888" lon="-2.49121">
        <ele>79.6</ele>
        <time>2024-12-19T09:14:17Z</time>
      </trkpt>
      <trkpt lat="47.93888" lon="-2.49121">
        <ele>79.6</ele>
        <time>2024-12-19T09:14:18Z</time>
      </trkpt>
      <trkpt lat="47.93888" lon="-2.49121">
        <ele>79.6</ele>
        <time>2024-12-19T09:14:19Z</time>
      </trkpt>
      <trkpt lat="47.93888" lon="-2.49121">
        <ele>79.6</ele>
        <time>2024-12-19T09:14:20Z</time>
      </trkpt>
      <trkpt lat="47.93888" lon="-2.49121">
        <ele>79.6</ele>
        <time>2024-12-19T09:14:21Z</time>
      </trkpt>
      <trkpt lat="47.93888" lon="-2.49121">
        <ele>79.6</ele>
        <time>2024-12-19T09:14:22Z</time>
      </trkpt>
      <trkpt lat="47.93888" lon="-2.49121">
        <ele>79.6</ele>
        <time>2024-12-19T09:14:23Z</time>
      </trkpt>
      <trkpt lat="47.93888" lon="-2.49121">
        <ele>79.6</ele>
        <time>2024-12-19T09:14:24Z</time>
      </trkpt>
      <trkpt lat="47.93888" lon="-2.49121">
        <ele>79.6</ele>
        <time>2024-12-19T09:14:25Z</time>
      </trkpt>
      <trkpt lat="47.93888" lon="-2.49121">
        <ele>79.6</ele>
        <time>2024-12-19T09:14:26Z</time>
      </trkpt>
      <trkpt lat="47.93888" lon="-2.49121">
        <ele>79.6</ele>
        <time>2024-12-19T09:14:27Z</time>
      </trkpt>
      <trkpt lat="47.93888" lon="-2.49121">
        <ele>79.6</ele>
        <time>2024-12-19T09:14:28Z</time>
      </trkpt>
      <trkpt lat="47.93888" lon="-2.49121">
        <ele>79.6</ele>
        <time>2024-12-19T09:14:29Z</time>
      </trkpt>
      <trkpt lat="47.93888" lon="-2.49121">
        <ele>79.6</ele>
        <time>2024-12-19T09:14:30Z</time>
      </trkpt>
      <trkpt lat="47.93888" lon="-2.49121">
        <ele>79.6</ele>
        <time>2024-12-19T09:14:31Z</time>
      </trkpt>
      <trkpt lat="47.93888" lon="-2.49121">
        <ele>79.6</ele>
        <time>2024-12-19T09:14:32Z</time>
      </trkpt>
      <trkpt lat="47.93888" lon="-2.49121">
        <ele>79.6</ele>
        <time>2024-12-19T09:14:33Z</time>
      </trkpt>
      <trkpt lat="47.93888" lon="-2.49121">
        <ele>79.6</ele>
        <time>2024-12-19T09:14:34Z</time>
      </trkpt>
      <trkpt lat="47.93888" lon="-2.49121">
        <ele>79.6</ele>
        <time>2024-12-19T09:14:35Z</time>
      </trkpt>
      <trkpt lat="47.93888" lon="-2.49121">
        <ele>79.6</ele>
        <time>2024-12-19T09:14:36Z</time>
      </trkpt>
      <trkpt lat="47.93888" lon="-2.49121">
        <ele>79.6</ele>
        <time>2024-12-19T09:14:38Z</time>
      </trkpt>
      <trkpt lat="47.93888" lon="-2.49121">
        <ele>79.6</ele>
        <time>2024-12-19T09:14:39Z</time>
      </trkpt>
      <trkpt lat="47.93888" lon="-2.49121">
        <ele>79.6</ele>
        <time>2024-12-19T09:14:40Z</time>
      </trkpt>
      <trkpt lat="47.93888" lon="-2.49121">
        <ele>79.6</ele>
        <time>2024-12-19T09:14:41Z</time>
      </trkpt>
      <trkpt lat="47.93888" lon="-2.49121">
        <ele>79.6</ele>
        <time>2024-12-19T09:14:42Z</time>
      </trkpt>
      <trkpt lat="47.93888" lon="-2.49121">
        <ele>79.6</ele>
        <time>2024-12-19T09:14:43Z</time>
      </trkpt>
      <trkpt lat="47.93888" lon="-2.49121">
        <ele>79.6</ele>
        <time>2024-12-19T09:14:44Z</time>
      </trkpt>
      <trkpt lat="47.93888" lon="-2.49121">
        <ele>79.6</ele>
        <time>2024-12-19T09:14:45Z</time>
      </trkpt>
      <trkpt lat="47.93888" lon="-2.49121">
        <ele>79.6</ele>
        <time>2024-12-19T09:14:46Z</time>
      </trkpt>
      <trkpt lat="47.93888" lon="-2.49121">
        <ele>79.6</ele>
        <time>2024-12-19T09:14:47Z</time>
      </trkpt>
      <trkpt lat="47.93888" lon="-2.49121">
        <ele>79.6</ele>
        <time>2024-12-19T09:14:48Z</time>
      </trkpt>
      <trkpt lat="47.93888" lon="-2.49121">
        <ele>79.6</ele>
        <time>2024-12-19T09:14:49Z</time>
      </trkpt>
      <trkpt lat="47.93888" lon="-2.49121">
        <ele>79.6</ele>
        <time>2024-12-19T09:14:50Z</time>
      </trkpt>
      <trkpt lat="47.93888" lon="-2.49121">
        <ele>79.6</ele>
        <time>2024-12-19T09:14:51Z</time>
      </trkpt>
      <trkpt lat="47.93888" lon="-2.49121">
        <ele>79.6</ele>
        <time>2024-12-19T09:14:52Z</time>
      </trkpt>
      <trkpt lat="47.93888" lon="-2.49121">
        <ele>79.6</ele>
        <time>2024-12-19T09:14:53Z</time>
      </trkpt>
      <trkpt lat="47.93888" lon="-2.49121">
        <ele>79.6</ele>
        <time>2024-12-19T09:14:54Z</time>
      </trkpt>
      <trkpt lat="47.93888" lon="-2.49121">
        <ele>79.6</ele>
        <time>2024-12-19T09:14:55Z</time>
      </trkpt>
      <trkpt lat="47.93888" lon="-2.49121">
        <ele>79.6</ele>
        <time>2024-12-19T09:14:56Z</time>
      </trkpt>
      <trkpt lat="47.93888" lon="-2.49121">
        <ele>79.6</ele>
        <time>2024-12-19T09:14:57Z</time>
      </trkpt>
      <trkpt lat="47.93888" lon="-2.49121">
        <ele>79.6</ele>
        <time>2024-12-19T09:14:58Z</time>
      </trkpt>
      <trkpt lat="47.93888" lon="-2.49121">
        <ele>79.6</ele>
        <time>2024-12-19T09:14:59Z</time>
      </trkpt>
      <trkpt lat="47.93888" lon="-2.49121">
        <ele>79.6</ele>
        <time>2024-12-19T09:15:00Z</time>
      </trkpt>
      <trkpt lat="47.93888" lon="-2.49121">
        <ele>79.6</ele>
        <time>2024-12-19T09:15:01Z</time>
      </trkpt>
      <trkpt lat="47.93888" lon="-2.49121">
        <ele>79.6</ele>
        <time>2024-12-19T09:15:02Z</time>
      </trkpt>
      <trkpt lat="47.93888" lon="-2.49121">
        <ele>79.6</ele>
        <time>2024-12-19T09:15:03Z</time>
      </trkpt>
      <trkpt lat="47.93889" lon="-2.49121">
        <ele>79.6</ele>
        <time>2024-12-19T09:15:04Z</time>
      </trkpt>
      <trkpt lat="47.93889" lon="-2.49121">
        <ele>79.7</ele>
        <time>2024-12-19T09:15:05Z</time>
      </trkpt>
      <trkpt lat="47.9389" lon="-2.49121">
        <ele>79.7</ele>
        <time>2024-12-19T09:15:06Z</time>
      </trkpt>
      <trkpt lat="47.93891" lon="-2.49121">
        <ele>79.7</ele>
        <time>2024-12-19T09:15:07Z</time>
      </trkpt>
      <trkpt lat="47.93891" lon="-2.49121">
        <ele>79.7</ele>
        <time>2024-12-19T09:15:08Z</time>
      </trkpt>
      <trkpt lat="47.93891" lon="-2.49121">
        <ele>79.7</ele>
        <time>2024-12-19T09:15:09Z</time>
      </trkpt>
      <trkpt lat="47.9389" lon="-2.49121">
        <ele>79.7</ele>
        <time>2024-12-19T09:15:10Z</time>
      </trkpt>
      <trkpt lat="47.9389" lon="-2.49121">
        <ele>79.7</ele>
        <time>2024-12-19T09:15:11Z</time>
      </trkpt>
      <trkpt lat="47.9389" lon="-2.49121">
        <ele>79.7</ele>
        <time>2024-12-19T09:15:12Z</time>
      </trkpt>
      <trkpt lat="47.9389" lon="-2.49121">
        <ele>79.7</ele>
        <time>2024-12-19T09:15:13Z</time>
      </trkpt>
      <trkpt lat="47.9389" lon="-2.49121">
        <ele>79.7</ele>
        <time>2024-12-19T09:15:14Z</time>
      </trkpt>
      <trkpt lat="47.9389" lon="-2.49121">
        <ele>79.7</ele>
        <time>2024-12-19T09:15:15Z</time>
      </trkpt>
      <trkpt lat="47.93889" lon="-2.49121">
        <ele>79.7</ele>
        <time>2024-12-19T09:15:16Z</time>
      </trkpt>
      <trkpt lat="47.93889" lon="-2.49121">
        <ele>79.7</ele>
        <time>2024-12-19T09:15:17Z</time>
      </trkpt>
      <trkpt lat="47.93889" lon="-2.49121">
        <ele>79.7</ele>
        <time>2024-12-19T09:15:18Z</time>
      </trkpt>
      <trkpt lat="47.93889" lon="-2.49121">
        <ele>79.7</ele>
        <time>2024-12-19T09:15:19Z</time>
      </trkpt>
      <trkpt lat="47.93889" lon="-2.49121">
        <ele>79.7</ele>
        <time>2024-12-19T09:15:20Z</time>
      </trkpt>
      <trkpt lat="47.93889" lon="-2.49121">
        <ele>79.7</ele>
        <time>2024-12-19T09:15:21Z</time>
      </trkpt>
      <trkpt lat="47.93889" lon="-2.49121">
        <ele>79.7</ele>
        <time>2024-12-19T09:15:22Z</time>
      </trkpt>
      <trkpt lat="47.93889" lon="-2.49121">
        <ele>79.7</ele>
        <time>2024-12-19T09:15:23Z</time>
      </trkpt>
      <trkpt lat="47.93889" lon="-2.49121">
        <ele>79.7</ele>
        <time>2024-12-19T09:15:24Z</time>
      </trkpt>
      <trkpt lat="47.93889" lon="-2.49121">
        <ele>79.7</ele>
        <time>2024-12-19T09:15:25Z</time>
      </trkpt>
      <trkpt lat="47.93889" lon="-2.49121">
        <ele>79.7</ele>
        <time>2024-12-19T09:15:26Z</time>
      </trkpt>
      <trkpt lat="47.93889" lon="-2.49121">
        <ele>79.7</ele>
        <time>2024-12-19T09:15:27Z</time>
      </trkpt>
      <trkpt lat="47.93889" lon="-2.49121">
        <ele>79.7</ele>
        <time>2024-12-19T09:15:28Z</time>
      </trkpt>
      <trkpt lat="47.93889" lon="-2.49121">
        <ele>79.7</ele>
        <time>2024-12-19T09:15:29Z</time>
      </trkpt>
      <trkpt lat="47.93889" lon="-2.49121">
        <ele>79.7</ele>
        <time>2024-12-19T09:15:30Z</time>
      </trkpt>
      <trkpt lat="47.93888" lon="-2.49121">
        <ele>79.6</ele>
        <time>2024-12-19T09:15:31Z</time>
      </trkpt>
      <trkpt lat="47.93887" lon="-2.49121">
        <ele>79.6</ele>
        <time>2024-12-19T09:15:32Z</time>
      </trkpt>
      <trkpt lat="47.93886" lon="-2.49121">
        <ele>79.6</ele>
        <time>2024-12-19T09:15:33Z</time>
      </trkpt>
      <trkpt lat="47.93885" lon="-2.49121">
        <ele>79.5</ele>
        <time>2024-12-19T09:15:34Z</time>
      </trkpt>
      <trkpt lat="47.93884" lon="-2.49121">
        <ele>79.5</ele>
        <time>2024-12-19T09:15:35Z</time>
      </trkpt>
      <trkpt lat="47.93883" lon="-2.49121">
        <ele>79.5</ele>
        <time>2024-12-19T09:15:36Z</time>
      </trkpt>
      <trkpt lat="47.93883" lon="-2.4912">
        <ele>79.5</ele>
        <time>2024-12-19T09:15:37Z</time>
      </trkpt>
      <trkpt lat="47.93882" lon="-2.49119">
        <ele>79.5</ele>
        <time>2024-12-19T09:15:38Z</time>
      </trkpt>
      <trkpt lat="47.93882" lon="-2.49118">
        <ele>79.6</ele>
        <time>2024-12-19T09:15:39Z</time>
      </trkpt>
      <trkpt lat="47.93882" lon="-2.49117">
        <ele>79.6</ele>
        <time>2024-12-19T09:15:40Z</time>
      </trkpt>
      <trkpt lat="47.93882" lon="-2.49115">
        <ele>79.6</ele>
        <time>2024-12-19T09:15:41Z</time>
      </trkpt>
      <trkpt lat="47.93881" lon="-2.49114">
        <ele>79.7</ele>
        <time>2024-12-19T09:15:42Z</time>
      </trkpt>
      <trkpt lat="47.93881" lon="-2.49112">
        <ele>79.7</ele>
        <time>2024-12-19T09:15:43Z</time>
      </trkpt>
      <trkpt lat="47.9388" lon="-2.49111">
        <ele>79.7</ele>
        <time>2024-12-19T09:15:44Z</time>
      </trkpt>
      <trkpt lat="47.9388" lon="-2.49109">
        <ele>79.7</ele>
        <time>2024-12-19T09:15:45Z</time>
      </trkpt>
      <trkpt lat="47.93879" lon="-2.49107">
        <ele>79.7</ele>
        <time>2024-12-19T09:15:46Z</time>
      </trkpt>
      <trkpt lat="47.93879" lon="-2.49105">
        <ele>79.6</ele>
        <time>2024-12-19T09:15:47Z</time>
      </trkpt>
      <trkpt lat="47.93878" lon="-2.49102">
        <ele>79.6</ele>
        <time>2024-12-19T09:15:48Z</time>
      </trkpt>
      <trkpt lat="47.93878" lon="-2.491">
        <ele>79.6</ele>
        <time>2024-12-19T09:15:49Z</time>
      </trkpt>
      <trkpt lat="47.93878" lon="-2.49098">
        <ele>79.6</ele>
        <time>2024-12-19T09:15:50Z</time>
      </trkpt>
      <trkpt lat="47.93877" lon="-2.49096">
        <ele>79.6</ele>
        <time>2024-12-19T09:15:51Z</time>
      </trkpt>
      <trkpt lat="47.93877" lon="-2.49094">
        <ele>79.6</ele>
        <time>2024-12-19T09:15:52Z</time>
      </trkpt>
      <trkpt lat="47.93877" lon="-2.49093">
        <ele>79.6</ele>
        <time>2024-12-19T09:15:53Z</time>
      </trkpt>
      <trkpt lat="47.93876" lon="-2.49091">
        <ele>79.5</ele>
        <time>2024-12-19T09:15:54Z</time>
      </trkpt>
      <trkpt lat="47.93875" lon="-2.4909">
        <ele>79.5</ele>
        <time>2024-12-19T09:15:55Z</time>
      </trkpt>
      <trkpt lat="47.93875" lon="-2.49089">
        <ele>79.5</ele>
        <time>2024-12-19T09:15:56Z</time>
      </trkpt>
      <trkpt lat="47.93874" lon="-2.49087">
        <ele>79.5</ele>
        <time>2024-12-19T09:15:57Z</time>
      </trkpt>
      <trkpt lat="47.93873" lon="-2.49085">
        <ele>79.4</ele>
        <time>2024-12-19T09:15:58Z</time>
      </trkpt>
      <trkpt lat="47.93873" lon="-2.49084">
        <ele>79.4</ele>
        <time>2024-12-19T09:15:59Z</time>
      </trkpt>
      <trkpt lat="47.93872" lon="-2.49081">
        <ele>79.4</ele>
        <time>2024-12-19T09:16:00Z</time>
      </trkpt>
      <trkpt lat="47.93871" lon="-2.49079">
        <ele>79.4</ele>
        <time>2024-12-19T09:16:01Z</time>
      </trkpt>
      <trkpt lat="47.93871" lon="-2.49077">
        <ele>79.4</ele>
        <time>2024-12-19T09:16:02Z</time>
      </trkpt>
      <trkpt lat="47.93871" lon="-2.49075">
        <ele>79.4</ele>
        <time>2024-12-19T09:16:03Z</time>
      </trkpt>
      <trkpt lat="47.9387" lon="-2.49073">
        <ele>79.5</ele>
        <time>2024-12-19T09:16:04Z</time>
      </trkpt>
      <trkpt lat="47.9387" lon="-2.49071">
        <ele>79.5</ele>
        <time>2024-12-19T09:16:05Z</time>
      </trkpt>
      <trkpt lat="47.93869" lon="-2.49069">
        <ele>79.5</ele>
        <time>2024-12-19T09:16:06Z</time>
      </trkpt>
      <trkpt lat="47.93869" lon="-2.49067">
        <ele>79.4</ele>
        <time>2024-12-19T09:16:07Z</time>
      </trkpt>
      <trkpt lat="47.93868" lon="-2.49065">
        <ele>79.4</ele>
        <time>2024-12-19T09:16:08Z</time>
      </trkpt>
      <trkpt lat="47.93868" lon="-2.49064">
        <ele>79.4</ele>
        <time>2024-12-19T09:16:09Z</time>
      </trkpt>
      <trkpt lat="47.93868" lon="-2.49063">
        <ele>79.4</ele>
        <time>2024-12-19T09:16:10Z</time>
      </trkpt>
      <trkpt lat="47.93867" lon="-2.49062">
        <ele>79.4</ele>
        <time>2024-12-19T09:16:11Z</time>
      </trkpt>
      <trkpt lat="47.93867" lon="-2.4906">
        <ele>79.4</ele>
        <time>2024-12-19T09:16:12Z</time>
      </trkpt>
      <trkpt lat="47.93866" lon="-2.49058">
        <ele>79.3</ele>
        <time>2024-12-19T09:16:13Z</time>
      </trkpt>
      <trkpt lat="47.93866" lon="-2.49056">
        <ele>79.3</ele>
        <time>2024-12-19T09:16:14Z</time>
      </trkpt>
      <trkpt lat="47.93865" lon="-2.49054">
        <ele>79.3</ele>
        <time>2024-12-19T09:16:15Z</time>
      </trkpt>
      <trkpt lat="47.93865" lon="-2.49053">
        <ele>79.3</ele>
        <time>2024-12-19T09:16:16Z</time>
      </trkpt>
      <trkpt lat="47.93864" lon="-2.49051">
        <ele>79.2</ele>
        <time>2024-12-19T09:16:17Z</time>
      </trkpt>
      <trkpt lat="47.93864" lon="-2.4905">
        <ele>79.2</ele>
        <time>2024-12-19T09:16:18Z</time>
      </trkpt>
      <trkpt lat="47.93864" lon="-2.49048">
        <ele>79.2</ele>
        <time>2024-12-19T09:16:19Z</time>
      </trkpt>
      <trkpt lat="47.93864" lon="-2.49046">
        <ele>79.2</ele>
        <time>2024-12-19T09:16:20Z</time>
      </trkpt>
      <trkpt lat="47.93863" lon="-2.49044">
        <ele>79.2</ele>
        <time>2024-12-19T09:16:21Z</time>
      </trkpt>
      <trkpt lat="47.93863" lon="-2.49042">
        <ele>79.1</ele>
        <time>2024-12-19T09:16:22Z</time>
      </trkpt>
      <trkpt lat="47.93863" lon="-2.49041">
        <ele>79.1</ele>
        <time>2024-12-19T09:16:23Z</time>
      </trkpt>
      <trkpt lat="47.93863" lon="-2.4904">
        <ele>79.1</ele>
        <time>2024-12-19T09:16:24Z</time>
      </trkpt>
      <trkpt lat="47.93862" lon="-2.49039">
        <ele>79.1</ele>
        <time>2024-12-19T09:16:25Z</time>
      </trkpt>
      <trkpt lat="47.93862" lon="-2.49038">
        <ele>79</ele>
        <time>2024-12-19T09:16:26Z</time>
      </trkpt>
      <trkpt lat="47.93861" lon="-2.49037">
        <ele>79</ele>
        <time>2024-12-19T09:16:27Z</time>
      </trkpt>
      <trkpt lat="47.9386" lon="-2.49036">
        <ele>79</ele>
        <time>2024-12-19T09:16:28Z</time>
      </trkpt>
      <trkpt lat="47.9386" lon="-2.49035">
        <ele>79</ele>
        <time>2024-12-19T09:16:29Z</time>
      </trkpt>
      <trkpt lat="47.93859" lon="-2.49035">
        <ele>79</ele>
        <time>2024-12-19T09:16:30Z</time>
      </trkpt>
      <trkpt lat="47.93859" lon="-2.49034">
        <ele>79</ele>
        <time>2024-12-19T09:16:31Z</time>
      </trkpt>
      <trkpt lat="47.93858" lon="-2.49033">
        <ele>79</ele>
        <time>2024-12-19T09:16:32Z</time>
      </trkpt>
      <trkpt lat="47.93856" lon="-2.49032">
        <ele>79</ele>
        <time>2024-12-19T09:16:33Z</time>
      </trkpt>
      <trkpt lat="47.93854" lon="-2.49031">
        <ele>79</ele>
        <time>2024-12-19T09:16:34Z</time>
      </trkpt>
      <trkpt lat="47.93853" lon="-2.4903">
        <ele>79</ele>
        <time>2024-12-19T09:16:35Z</time>
      </trkpt>
      <trkpt lat="47.93851" lon="-2.49029">
        <ele>79</ele>
        <time>2024-12-19T09:16:36Z</time>
      </trkpt>
      <trkpt lat="47.9385" lon="-2.49028">
        <ele>79</ele>
        <time>2024-12-19T09:16:37Z</time>
      </trkpt>
      <trkpt lat="47.93849" lon="-2.49027">
        <ele>79</ele>
        <time>2024-12-19T09:16:38Z</time>
      </trkpt>
      <trkpt lat="47.93848" lon="-2.49026">
        <ele>79</ele>
        <time>2024-12-19T09:16:39Z</time>
      </trkpt>
      <trkpt lat="47.93846" lon="-2.49024">
        <ele>79.1</ele>
        <time>2024-12-19T09:16:40Z</time>
      </trkpt>
      <trkpt lat="47.93845" lon="-2.49022">
        <ele>79.1</ele>
        <time>2024-12-19T09:16:41Z</time>
      </trkpt>
      <trkpt lat="47.93844" lon="-2.4902">
        <ele>79.1</ele>
        <time>2024-12-19T09:16:42Z</time>
      </trkpt>
      <trkpt lat="47.93844" lon="-2.49018">
        <ele>79.1</ele>
        <time>2024-12-19T09:16:43Z</time>
      </trkpt>
      <trkpt lat="47.93844" lon="-2.49016">
        <ele>79.2</ele>
        <time>2024-12-19T09:16:44Z</time>
      </trkpt>
      <trkpt lat="47.93844" lon="-2.49015">
        <ele>79.2</ele>
        <time>2024-12-19T09:16:45Z</time>
      </trkpt>
      <trkpt lat="47.93844" lon="-2.49014">
        <ele>79.2</ele>
        <time>2024-12-19T09:16:46Z</time>
      </trkpt>
      <trkpt lat="47.93843" lon="-2.49011">
        <ele>79.2</ele>
        <time>2024-12-19T09:16:47Z</time>
      </trkpt>
      <trkpt lat="47.93843" lon="-2.49009">
        <ele>79.2</ele>
        <time>2024-12-19T09:16:48Z</time>
      </trkpt>
      <trkpt lat="47.93843" lon="-2.49006">
        <ele>79.3</ele>
        <time>2024-12-19T09:16:49Z</time>
      </trkpt>
      <trkpt lat="47.93843" lon="-2.49004">
        <ele>79.3</ele>
        <time>2024-12-19T09:16:50Z</time>
      </trkpt>
      <trkpt lat="47.93842" lon="-2.49002">
        <ele>79.3</ele>
        <time>2024-12-19T09:16:51Z</time>
      </trkpt>
      <trkpt lat="47.93842" lon="-2.49">
        <ele>79.3</ele>
        <time>2024-12-19T09:16:52Z</time>
      </trkpt>
      <trkpt lat="47.93841" lon="-2.48998">
        <ele>79.4</ele>
        <time>2024-12-19T09:16:53Z</time>
      </trkpt>
      <trkpt lat="47.93841" lon="-2.48996">
        <ele>79.5</ele>
        <time>2024-12-19T09:16:54Z</time>
      </trkpt>
      <trkpt lat="47.9384" lon="-2.48994">
        <ele>79.7</ele>
        <time>2024-12-19T09:16:55Z</time>
      </trkpt>
      <trkpt lat="47.9384" lon="-2.48992">
        <ele>79.8</ele>
        <time>2024-12-19T09:16:56Z</time>
      </trkpt>
      <trkpt lat="47.93839" lon="-2.4899">
        <ele>79.9</ele>
        <time>2024-12-19T09:16:57Z</time>
      </trkpt>
      <trkpt lat="47.93838" lon="-2.48988">
        <ele>80</ele>
        <time>2024-12-19T09:16:58Z</time>
      </trkpt>
      <trkpt lat="47.93838" lon="-2.48987">
        <ele>80</ele>
        <time>2024-12-19T09:16:59Z</time>
      </trkpt>
      <trkpt lat="47.93837" lon="-2.48985">
        <ele>80.1</ele>
        <time>2024-12-19T09:17:00Z</time>
      </trkpt>
      <trkpt lat="47.93837" lon="-2.48984">
        <ele>80.2</ele>
        <time>2024-12-19T09:17:01Z</time>
      </trkpt>
      <trkpt lat="47.93837" lon="-2.48982">
        <ele>80.4</ele>
        <time>2024-12-19T09:17:02Z</time>
      </trkpt>
      <trkpt lat="47.93836" lon="-2.4898">
        <ele>80.5</ele>
        <time>2024-12-19T09:17:03Z</time>
      </trkpt>
      <trkpt lat="47.93836" lon="-2.48978">
        <ele>80.6</ele>
        <time>2024-12-19T09:17:04Z</time>
      </trkpt>
      <trkpt lat="47.93836" lon="-2.48976">
        <ele>80.8</ele>
        <time>2024-12-19T09:17:05Z</time>
      </trkpt>
      <trkpt lat="47.93836" lon="-2.48974">
        <ele>80.9</ele>
        <time>2024-12-19T09:17:06Z</time>
      </trkpt>
      <trkpt lat="47.93836" lon="-2.48972">
        <ele>81</ele>
        <time>2024-12-19T09:17:07Z</time>
      </trkpt>
      <trkpt lat="47.93836" lon="-2.4897">
        <ele>81</ele>
        <time>2024-12-19T09:17:08Z</time>
      </trkpt>
      <trkpt lat="47.93837" lon="-2.48969">
        <ele>81</ele>
        <time>2024-12-19T09:17:09Z</time>
      </trkpt>
      <trkpt lat="47.93837" lon="-2.48967">
        <ele>81</ele>
        <time>2024-12-19T09:17:10Z</time>
      </trkpt>
      <trkpt lat="47.93837" lon="-2.48966">
        <ele>81</ele>
        <time>2024-12-19T09:17:11Z</time>
      </trkpt>
      <trkpt lat="47.93837" lon="-2.48965">
        <ele>81</ele>
        <time>2024-12-19T09:17:12Z</time>
      </trkpt>
      <trkpt lat="47.93837" lon="-2.48964">
        <ele>81</ele>
        <time>2024-12-19T09:17:13Z</time>
      </trkpt>
      <trkpt lat="47.93837" lon="-2.48963">
        <ele>81</ele>
        <time>2024-12-19T09:17:14Z</time>
      </trkpt>
      <trkpt lat="47.93837" lon="-2.48961">
        <ele>81</ele>
        <time>2024-12-19T09:17:15Z</time>
      </trkpt>
      <trkpt lat="47.93836" lon="-2.48959">
        <ele>81</ele>
        <time>2024-12-19T09:17:16Z</time>
      </trkpt>
      <trkpt lat="47.93836" lon="-2.48958">
        <ele>81</ele>
        <time>2024-12-19T09:17:17Z</time>
      </trkpt>
      <trkpt lat="47.93836" lon="-2.48957">
        <ele>81</ele>
        <time>2024-12-19T09:17:18Z</time>
      </trkpt>
      <trkpt lat="47.93836" lon="-2.48955">
        <ele>81.1</ele>
        <time>2024-12-19T09:17:19Z</time>
      </trkpt>
      <trkpt lat="47.93835" lon="-2.48952">
        <ele>81</ele>
        <time>2024-12-19T09:17:20Z</time>
      </trkpt>
      <trkpt lat="47.93835" lon="-2.4895">
        <ele>81.1</ele>
        <time>2024-12-19T09:17:21Z</time>
      </trkpt>
      <trkpt lat="47.93835" lon="-2.48948">
        <ele>81.1</ele>
        <time>2024-12-19T09:17:22Z</time>
      </trkpt>
      <trkpt lat="47.93835" lon="-2.48946">
        <ele>81.1</ele>
        <time>2024-12-19T09:17:23Z</time>
      </trkpt>
      <trkpt lat="47.93835" lon="-2.48943">
        <ele>81.1</ele>
        <time>2024-12-19T09:17:24Z</time>
      </trkpt>
      <trkpt lat="47.93835" lon="-2.4894">
        <ele>81.2</ele>
        <time>2024-12-19T09:17:25Z</time>
      </trkpt>
      <trkpt lat="47.93836" lon="-2.48939">
        <ele>81.3</ele>
        <time>2024-12-19T09:17:26Z</time>
      </trkpt>
      <trkpt lat="47.93836" lon="-2.48938">
        <ele>81.3</ele>
        <time>2024-12-19T09:17:27Z</time>
      </trkpt>
      <trkpt lat="47.93836" lon="-2.48937">
        <ele>81.3</ele>
        <time>2024-12-19T09:17:28Z</time>
      </trkpt>
      <trkpt lat="47.93836" lon="-2.48936">
        <ele>81.4</ele>
        <time>2024-12-19T09:17:29Z</time>
      </trkpt>
      <trkpt lat="47.93837" lon="-2.48934">
        <ele>81.5</ele>
        <time>2024-12-19T09:17:30Z</time>
      </trkpt>
      <trkpt lat="47.93837" lon="-2.48932">
        <ele>81.5</ele>
        <time>2024-12-19T09:17:31Z</time>
      </trkpt>
      <trkpt lat="47.93837" lon="-2.48931">
        <ele>81.6</ele>
        <time>2024-12-19T09:17:32Z</time>
      </trkpt>
      <trkpt lat="47.93836" lon="-2.48929">
        <ele>81.6</ele>
        <time>2024-12-19T09:17:33Z</time>
      </trkpt>
      <trkpt lat="47.93836" lon="-2.48927">
        <ele>81.7</ele>
        <time>2024-12-19T09:17:34Z</time>
      </trkpt>
      <trkpt lat="47.93836" lon="-2.48925">
        <ele>81.7</ele>
        <time>2024-12-19T09:17:35Z</time>
      </trkpt>
      <trkpt lat="47.93837" lon="-2.48923">
        <ele>81.8</ele>
        <time>2024-12-19T09:17:36Z</time>
      </trkpt>
      <trkpt lat="47.93837" lon="-2.48922">
        <ele>81.8</ele>
        <time>2024-12-19T09:17:37Z</time>
      </trkpt>
      <trkpt lat="47.93837" lon="-2.4892">
        <ele>81.9</ele>
        <time>2024-12-19T09:17:38Z</time>
      </trkpt>
      <trkpt lat="47.93837" lon="-2.48917">
        <ele>82</ele>
        <time>2024-12-19T09:17:39Z</time>
      </trkpt>
      <trkpt lat="47.93837" lon="-2.48915">
        <ele>82.1</ele>
        <time>2024-12-19T09:17:40Z</time>
      </trkpt>
      <trkpt lat="47.93837" lon="-2.48912">
        <ele>82.2</ele>
        <time>2024-12-19T09:17:41Z</time>
      </trkpt>
      <trkpt lat="47.93837" lon="-2.4891">
        <ele>82.3</ele>
        <time>2024-12-19T09:17:42Z</time>
      </trkpt>
      <trkpt lat="47.93837" lon="-2.48907">
        <ele>82.3</ele>
        <time>2024-12-19T09:17:43Z</time>
      </trkpt>
      <trkpt lat="47.93837" lon="-2.48905">
        <ele>82.4</ele>
        <time>2024-12-19T09:17:44Z</time>
      </trkpt>
      <trkpt lat="47.93837" lon="-2.48903">
        <ele>82.5</ele>
        <time>2024-12-19T09:17:45Z</time>
      </trkpt>
      <trkpt lat="47.93838" lon="-2.48901">
        <ele>82.6</ele>
        <time>2024-12-19T09:17:46Z</time>
      </trkpt>
      <trkpt lat="47.93838" lon="-2.48899">
        <ele>82.6</ele>
        <time>2024-12-19T09:17:47Z</time>
      </trkpt>
      <trkpt lat="47.93837" lon="-2.48897">
        <ele>82.7</ele>
        <time>2024-12-19T09:17:48Z</time>
      </trkpt>
      <trkpt lat="47.93837" lon="-2.48895">
        <ele>82.8</ele>
        <time>2024-12-19T09:17:49Z</time>
      </trkpt>
      <trkpt lat="47.93837" lon="-2.48892">
        <ele>82.9</ele>
        <time>2024-12-19T09:17:50Z</time>
      </trkpt>
      <trkpt lat="47.93837" lon="-2.4889">
        <ele>83</ele>
        <time>2024-12-19T09:17:51Z</time>
      </trkpt>
      <trkpt lat="47.93837" lon="-2.48888">
        <ele>83</ele>
        <time>2024-12-19T09:17:52Z</time>
      </trkpt>
      <trkpt lat="47.93836" lon="-2.48886">
        <ele>83</ele>
        <time>2024-12-19T09:17:53Z</time>
      </trkpt>
      <trkpt lat="47.93836" lon="-2.48883">
        <ele>83</ele>
        <time>2024-12-19T09:17:54Z</time>
      </trkpt>
      <trkpt lat="47.93837" lon="-2.4888">
        <ele>83</ele>
        <time>2024-12-19T09:17:55Z</time>
      </trkpt>
      <trkpt lat="47.93837" lon="-2.48878">
        <ele>83</ele>
        <time>2024-12-19T09:17:56Z</time>
      </trkpt>
      <trkpt lat="47.93837" lon="-2.48875">
        <ele>83</ele>
        <time>2024-12-19T09:17:57Z</time>
      </trkpt>
      <trkpt lat="47.93837" lon="-2.48873">
        <ele>83</ele>
        <time>2024-12-19T09:17:58Z</time>
      </trkpt>
      <trkpt lat="47.93837" lon="-2.48871">
        <ele>83</ele>
        <time>2024-12-19T09:17:59Z</time>
      </trkpt>
      <trkpt lat="47.93837" lon="-2.4887">
        <ele>83</ele>
        <time>2024-12-19T09:18:00Z</time>
      </trkpt>
      <trkpt lat="47.93837" lon="-2.48868">
        <ele>83</ele>
        <time>2024-12-19T09:18:01Z</time>
      </trkpt>
      <trkpt lat="47.93837" lon="-2.48867">
        <ele>83</ele>
        <time>2024-12-19T09:18:02Z</time>
      </trkpt>
      <trkpt lat="47.93837" lon="-2.48865">
        <ele>83</ele>
        <time>2024-12-19T09:18:03Z</time>
      </trkpt>
      <trkpt lat="47.93838" lon="-2.48864">
        <ele>83</ele>
        <time>2024-12-19T09:18:04Z</time>
      </trkpt>
      <trkpt lat="47.93838" lon="-2.48863">
        <ele>83</ele>
        <time>2024-12-19T09:18:05Z</time>
      </trkpt>
      <trkpt lat="47.93839" lon="-2.48862">
        <ele>83</ele>
        <time>2024-12-19T09:18:06Z</time>
      </trkpt>
      <trkpt lat="47.93839" lon="-2.48861">
        <ele>83</ele>
        <time>2024-12-19T09:18:07Z</time>
      </trkpt>
      <trkpt lat="47.9384" lon="-2.48859">
        <ele>83</ele>
        <time>2024-12-19T09:18:08Z</time>
      </trkpt>
      <trkpt lat="47.9384" lon="-2.48858">
        <ele>83.1</ele>
        <time>2024-12-19T09:18:09Z</time>
      </trkpt>
      <trkpt lat="47.93839" lon="-2.48856">
        <ele>83.1</ele>
        <time>2024-12-19T09:18:10Z</time>
      </trkpt>
      <trkpt lat="47.93839" lon="-2.48854">
        <ele>83.2</ele>
        <time>2024-12-19T09:18:11Z</time>
      </trkpt>
      <trkpt lat="47.93839" lon="-2.48853">
        <ele>83.2</ele>
        <time>2024-12-19T09:18:12Z</time>
      </trkpt>
      <trkpt lat="47.93839" lon="-2.48851">
        <ele>83.3</ele>
        <time>2024-12-19T09:18:13Z</time>
      </trkpt>
      <trkpt lat="47.93839" lon="-2.48849">
        <ele>83.3</ele>
        <time>2024-12-19T09:18:14Z</time>
      </trkpt>
      <trkpt lat="47.9384" lon="-2.48847">
        <ele>83.4</ele>
        <time>2024-12-19T09:18:15Z</time>
      </trkpt>
      <trkpt lat="47.9384" lon="-2.48846">
        <ele>83.4</ele>
        <time>2024-12-19T09:18:16Z</time>
      </trkpt>
      <trkpt lat="47.93841" lon="-2.48845">
        <ele>83.4</ele>
        <time>2024-12-19T09:18:17Z</time>
      </trkpt>
      <trkpt lat="47.93841" lon="-2.48843">
        <ele>83.5</ele>
        <time>2024-12-19T09:18:18Z</time>
      </trkpt>
      <trkpt lat="47.93842" lon="-2.48842">
        <ele>83.5</ele>
        <time>2024-12-19T09:18:19Z</time>
      </trkpt>
      <trkpt lat="47.93842" lon="-2.4884">
        <ele>83.5</ele>
        <time>2024-12-19T09:18:20Z</time>
      </trkpt>
      <trkpt lat="47.93842" lon="-2.48838">
        <ele>83.6</ele>
        <time>2024-12-19T09:18:21Z</time>
      </trkpt>
      <trkpt lat="47.93842" lon="-2.48837">
        <ele>83.6</ele>
        <time>2024-12-19T09:18:22Z</time>
      </trkpt>
      <trkpt lat="47.93842" lon="-2.48836">
        <ele>83.6</ele>
        <time>2024-12-19T09:18:23Z</time>
      </trkpt>
      <trkpt lat="47.93842" lon="-2.48835">
        <ele>83.6</ele>
        <time>2024-12-19T09:18:24Z</time>
      </trkpt>
      <trkpt lat="47.93842" lon="-2.48833">
        <ele>83.7</ele>
        <time>2024-12-19T09:18:25Z</time>
      </trkpt>
      <trkpt lat="47.93841" lon="-2.48831">
        <ele>83.7</ele>
        <time>2024-12-19T09:18:26Z</time>
      </trkpt>
      <trkpt lat="47.9384" lon="-2.4883">
        <ele>83.8</ele>
        <time>2024-12-19T09:18:27Z</time>
      </trkpt>
      <trkpt lat="47.93839" lon="-2.48828">
        <ele>83.8</ele>
        <time>2024-12-19T09:18:28Z</time>
      </trkpt>
      <trkpt lat="47.93839" lon="-2.48827">
        <ele>83.8</ele>
        <time>2024-12-19T09:18:29Z</time>
      </trkpt>
      <trkpt lat="47.93839" lon="-2.48826">
        <ele>83.9</ele>
        <time>2024-12-19T09:18:30Z</time>
      </trkpt>
      <trkpt lat="47.93838" lon="-2.48824">
        <ele>83.9</ele>
        <time>2024-12-19T09:18:31Z</time>
      </trkpt>
      <trkpt lat="47.93838" lon="-2.48823">
        <ele>83.9</ele>
        <time>2024-12-19T09:18:32Z</time>
      </trkpt>
      <trkpt lat="47.93838" lon="-2.48822">
        <ele>83.9</ele>
        <time>2024-12-19T09:18:33Z</time>
      </trkpt>
      <trkpt lat="47.93837" lon="-2.48821">
        <ele>83.9</ele>
        <time>2024-12-19T09:18:34Z</time>
      </trkpt>
      <trkpt lat="47.93837" lon="-2.4882">
        <ele>83.9</ele>
        <time>2024-12-19T09:18:35Z</time>
      </trkpt>
      <trkpt lat="47.93836" lon="-2.48818">
        <ele>84</ele>
        <time>2024-12-19T09:18:36Z</time>
      </trkpt>
      <trkpt lat="47.93835" lon="-2.48817">
        <ele>84</ele>
        <time>2024-12-19T09:18:37Z</time>
      </trkpt>
      <trkpt lat="47.93834" lon="-2.48817">
        <ele>84</ele>
        <time>2024-12-19T09:18:38Z</time>
      </trkpt>
      <trkpt lat="47.93833" lon="-2.48816">
        <ele>84</ele>
        <time>2024-12-19T09:18:39Z</time>
      </trkpt>
      <trkpt lat="47.93832" lon="-2.48815">
        <ele>84</ele>
        <time>2024-12-19T09:18:40Z</time>
      </trkpt>
      <trkpt lat="47.93832" lon="-2.48815">
        <ele>84</ele>
        <time>2024-12-19T09:18:41Z</time>
      </trkpt>
      <trkpt lat="47.93831" lon="-2.48814">
        <ele>84.1</ele>
        <time>2024-12-19T09:18:42Z</time>
      </trkpt>
      <trkpt lat="47.93831" lon="-2.48814">
        <ele>84.1</ele>
        <time>2024-12-19T09:18:43Z</time>
      </trkpt>
      <trkpt lat="47.9383" lon="-2.48814">
        <ele>84.1</ele>
        <time>2024-12-19T09:18:44Z</time>
      </trkpt>
      <trkpt lat="47.9383" lon="-2.48813">
        <ele>84.1</ele>
        <time>2024-12-19T09:18:45Z</time>
      </trkpt>
      <trkpt lat="47.9383" lon="-2.48813">
        <ele>84.1</ele>
        <time>2024-12-19T09:18:46Z</time>
      </trkpt>
      <trkpt lat="47.93829" lon="-2.48812">
        <ele>84.1</ele>
        <time>2024-12-19T09:18:47Z</time>
      </trkpt>
      <trkpt lat="47.93829" lon="-2.48811">
        <ele>84.1</ele>
        <time>2024-12-19T09:18:48Z</time>
      </trkpt>
      <trkpt lat="47.93828" lon="-2.48808">
        <ele>84.2</ele>
        <time>2024-12-19T09:18:49Z</time>
      </trkpt>
      <trkpt lat="47.93826" lon="-2.48806">
        <ele>84.3</ele>
        <time>2024-12-19T09:18:50Z</time>
      </trkpt>
      <trkpt lat="47.93825" lon="-2.48804">
        <ele>84.3</ele>
        <time>2024-12-19T09:18:51Z</time>
      </trkpt>
      <trkpt lat="47.93824" lon="-2.48803">
        <ele>84.4</ele>
        <time>2024-12-19T09:18:52Z</time>
      </trkpt>
      <trkpt lat="47.93821" lon="-2.488">
        <ele>84.6</ele>
        <time>2024-12-19T09:18:53Z</time>
      </trkpt>
      <trkpt lat="47.9382" lon="-2.48799">
        <ele>84.6</ele>
        <time>2024-12-19T09:18:54Z</time>
      </trkpt>
      <trkpt lat="47.93819" lon="-2.48798">
        <ele>84.7</ele>
        <time>2024-12-19T09:18:55Z</time>
      </trkpt>
      <trkpt lat="47.93818" lon="-2.48797">
        <ele>84.7</ele>
        <time>2024-12-19T09:18:56Z</time>
      </trkpt>
      <trkpt lat="47.93816" lon="-2.48795">
        <ele>84.8</ele>
        <time>2024-12-19T09:18:57Z</time>
      </trkpt>
      <trkpt lat="47.93814" lon="-2.48793">
        <ele>84.8</ele>
        <time>2024-12-19T09:18:58Z</time>
      </trkpt>
      <trkpt lat="47.93813" lon="-2.48792">
        <ele>84.9</ele>
        <time>2024-12-19T09:18:59Z</time>
      </trkpt>
      <trkpt lat="47.93812" lon="-2.48791">
        <ele>84.9</ele>
        <time>2024-12-19T09:19:00Z</time>
      </trkpt>
      <trkpt lat="47.93811" lon="-2.4879">
        <ele>84.9</ele>
        <time>2024-12-19T09:19:01Z</time>
      </trkpt>
      <trkpt lat="47.9381" lon="-2.48789">
        <ele>84.9</ele>
        <time>2024-12-19T09:19:02Z</time>
      </trkpt>
      <trkpt lat="47.93809" lon="-2.48788">
        <ele>85</ele>
        <time>2024-12-19T09:19:03Z</time>
      </trkpt>
      <trkpt lat="47.93808" lon="-2.48788">
        <ele>85</ele>
        <time>2024-12-19T09:19:04Z</time>
      </trkpt>
      <trkpt lat="47.93807" lon="-2.48787">
        <ele>85</ele>
        <time>2024-12-19T09:19:05Z</time>
      </trkpt>
      <trkpt lat="47.93805" lon="-2.48785">
        <ele>85</ele>
        <time>2024-12-19T09:19:06Z</time>
      </trkpt>
      <trkpt lat="47.93804" lon="-2.48785">
        <ele>85</ele>
        <time>2024-12-19T09:19:07Z</time>
      </trkpt>
      <trkpt lat="47.93804" lon="-2.48784">
        <ele>85</ele>
        <time>2024-12-19T09:19:08Z</time>
      </trkpt>
      <trkpt lat="47.93803" lon="-2.48784">
        <ele>85</ele>
        <time>2024-12-19T09:19:09Z</time>
      </trkpt>
      <trkpt lat="47.93803" lon="-2.48783">
        <ele>85</ele>
        <time>2024-12-19T09:19:10Z</time>
      </trkpt>
      <trkpt lat="47.93802" lon="-2.48784">
        <ele>85</ele>
        <time>2024-12-19T09:19:11Z</time>
      </trkpt>
      <trkpt lat="47.93801" lon="-2.48784">
        <ele>85</ele>
        <time>2024-12-19T09:19:12Z</time>
      </trkpt>
      <trkpt lat="47.938" lon="-2.48783">
        <ele>85</ele>
        <time>2024-12-19T09:19:13Z</time>
      </trkpt>
      <trkpt lat="47.93798" lon="-2.48782">
        <ele>85</ele>
        <time>2024-12-19T09:19:14Z</time>
      </trkpt>
      <trkpt lat="47.93797" lon="-2.48781">
        <ele>85</ele>
        <time>2024-12-19T09:19:15Z</time>
      </trkpt>
      <trkpt lat="47.93796" lon="-2.4878">
        <ele>85</ele>
        <time>2024-12-19T09:19:16Z</time>
      </trkpt>
      <trkpt lat="47.93795" lon="-2.48779">
        <ele>85</ele>
        <time>2024-12-19T09:19:17Z</time>
      </trkpt>
      <trkpt lat="47.93794" lon="-2.48778">
        <ele>85</ele>
        <time>2024-12-19T09:19:18Z</time>
      </trkpt>
      <trkpt lat="47.93793" lon="-2.48778">
        <ele>85</ele>
        <time>2024-12-19T09:19:19Z</time>
      </trkpt>
      <trkpt lat="47.93792" lon="-2.48779">
        <ele>85</ele>
        <time>2024-12-19T09:19:20Z</time>
      </trkpt>
      <trkpt lat="47.93791" lon="-2.4878">
        <ele>85</ele>
        <time>2024-12-19T09:19:21Z</time>
      </trkpt>
      <trkpt lat="47.9379" lon="-2.4878">
        <ele>85</ele>
        <time>2024-12-19T09:19:22Z</time>
      </trkpt>
      <trkpt lat="47.93789" lon="-2.48779">
        <ele>85</ele>
        <time>2024-12-19T09:19:23Z</time>
      </trkpt>
      <trkpt lat="47.93788" lon="-2.48779">
        <ele>85</ele>
        <time>2024-12-19T09:19:24Z</time>
      </trkpt>
      <trkpt lat="47.93788" lon="-2.48778">
        <ele>85</ele>
        <time>2024-12-19T09:19:25Z</time>
      </trkpt>
      <trkpt lat="47.93787" lon="-2.48778">
        <ele>85</ele>
        <time>2024-12-19T09:19:26Z</time>
      </trkpt>
      <trkpt lat="47.93785" lon="-2.48778">
        <ele>85</ele>
        <time>2024-12-19T09:19:27Z</time>
      </trkpt>
      <trkpt lat="47.93785" lon="-2.48779">
        <ele>85</ele>
        <time>2024-12-19T09:19:28Z</time>
      </trkpt>
      <trkpt lat="47.93784" lon="-2.4878">
        <ele>85</ele>
        <time>2024-12-19T09:19:29Z</time>
      </trkpt>
      <trkpt lat="47.93783" lon="-2.4878">
        <ele>85</ele>
        <time>2024-12-19T09:19:30Z</time>
      </trkpt>
      <trkpt lat="47.93782" lon="-2.4878">
        <ele>85</ele>
        <time>2024-12-19T09:19:31Z</time>
      </trkpt>
      <trkpt lat="47.93781" lon="-2.4878">
        <ele>85</ele>
        <time>2024-12-19T09:19:32Z</time>
      </trkpt>
      <trkpt lat="47.9378" lon="-2.4878">
        <ele>85</ele>
        <time>2024-12-19T09:19:33Z</time>
      </trkpt>
      <trkpt lat="47.93779" lon="-2.4878">
        <ele>85</ele>
        <time>2024-12-19T09:19:34Z</time>
      </trkpt>
      <trkpt lat="47.93778" lon="-2.4878">
        <ele>85</ele>
        <time>2024-12-19T09:19:35Z</time>
      </trkpt>
      <trkpt lat="47.93777" lon="-2.48781">
        <ele>85</ele>
        <time>2024-12-19T09:19:36Z</time>
      </trkpt>
      <trkpt lat="47.93776" lon="-2.48781">
        <ele>84.9</ele>
        <time>2024-12-19T09:19:37Z</time>
      </trkpt>
      <trkpt lat="47.93775" lon="-2.48781">
        <ele>84.9</ele>
        <time>2024-12-19T09:19:38Z</time>
      </trkpt>
      <trkpt lat="47.93774" lon="-2.48781">
        <ele>84.9</ele>
        <time>2024-12-19T09:19:39Z</time>
      </trkpt>
      <trkpt lat="47.93774" lon="-2.4878">
        <ele>84.9</ele>
        <time>2024-12-19T09:19:40Z</time>
      </trkpt>
      <trkpt lat="47.93774" lon="-2.4878">
        <ele>84.9</ele>
        <time>2024-12-19T09:19:41Z</time>
      </trkpt>
      <trkpt lat="47.93773" lon="-2.4878">
        <ele>84.8</ele>
        <time>2024-12-19T09:19:42Z</time>
      </trkpt>
      <trkpt lat="47.93773" lon="-2.4878">
        <ele>84.8</ele>
        <time>2024-12-19T09:19:43Z</time>
      </trkpt>
      <trkpt lat="47.93772" lon="-2.48781">
        <ele>84.8</ele>
        <time>2024-12-19T09:19:44Z</time>
      </trkpt>
      <trkpt lat="47.93772" lon="-2.48781">
        <ele>84.8</ele>
        <time>2024-12-19T09:19:45Z</time>
      </trkpt>
      <trkpt lat="47.93772" lon="-2.48782">
        <ele>84.8</ele>
        <time>2024-12-19T09:19:46Z</time>
      </trkpt>
      <trkpt lat="47.93772" lon="-2.48782">
        <ele>84.8</ele>
        <time>2024-12-19T09:19:47Z</time>
      </trkpt>
      <trkpt lat="47.93772" lon="-2.48782">
        <ele>84.8</ele>
        <time>2024-12-19T09:19:48Z</time>
      </trkpt>
      <trkpt lat="47.93771" lon="-2.48783">
        <ele>84.8</ele>
        <time>2024-12-19T09:19:49Z</time>
      </trkpt>
      <trkpt lat="47.93771" lon="-2.48783">
        <ele>84.7</ele>
        <time>2024-12-19T09:19:50Z</time>
      </trkpt>
      <trkpt lat="47.9377" lon="-2.48782">
        <ele>84.7</ele>
        <time>2024-12-19T09:19:51Z</time>
      </trkpt>
      <trkpt lat="47.9377" lon="-2.48783">
        <ele>84.7</ele>
        <time>2024-12-19T09:19:52Z</time>
      </trkpt>
      <trkpt lat="47.9377" lon="-2.48783">
        <ele>84.7</ele>
        <time>2024-12-19T09:19:53Z</time>
      </trkpt>
      <trkpt lat="47.9377" lon="-2.48782">
        <ele>84.7</ele>
        <time>2024-12-19T09:19:54Z</time>
      </trkpt>
      <trkpt lat="47.9377" lon="-2.48782">
        <ele>84.7</ele>
        <time>2024-12-19T09:19:55Z</time>
      </trkpt>
      <trkpt lat="47.9377" lon="-2.48782">
        <ele>84.7</ele>
        <time>2024-12-19T09:19:56Z</time>
      </trkpt>
      <trkpt lat="47.9377" lon="-2.48782">
        <ele>84.7</ele>
        <time>2024-12-19T09:19:57Z</time>
      </trkpt>
      <trkpt lat="47.9377" lon="-2.48782">
        <ele>84.7</ele>
        <time>2024-12-19T09:19:58Z</time>
      </trkpt>
      <trkpt lat="47.93769" lon="-2.48782">
        <ele>84.7</ele>
        <time>2024-12-19T09:19:59Z</time>
      </trkpt>
      <trkpt lat="47.93769" lon="-2.48782">
        <ele>84.7</ele>
        <time>2024-12-19T09:20:00Z</time>
      </trkpt>
      <trkpt lat="47.93769" lon="-2.48782">
        <ele>84.7</ele>
        <time>2024-12-19T09:20:01Z</time>
      </trkpt>
      <trkpt lat="47.93769" lon="-2.48782">
        <ele>84.7</ele>
        <time>2024-12-19T09:20:02Z</time>
      </trkpt>
      <trkpt lat="47.93769" lon="-2.48782">
        <ele>84.7</ele>
        <time>2024-12-19T09:20:03Z</time>
      </trkpt>
      <trkpt lat="47.93769" lon="-2.48782">
        <ele>84.7</ele>
        <time>2024-12-19T09:20:04Z</time>
      </trkpt>
      <trkpt lat="47.93769" lon="-2.48782">
        <ele>84.7</ele>
        <time>2024-12-19T09:20:05Z</time>
      </trkpt>
      <trkpt lat="47.93769" lon="-2.48782">
        <ele>84.7</ele>
        <time>2024-12-19T09:20:06Z</time>
      </trkpt>
      <trkpt lat="47.93769" lon="-2.48782">
        <ele>84.7</ele>
        <time>2024-12-19T09:20:07Z</time>
      </trkpt>
      <trkpt lat="47.93769" lon="-2.4878">
        <ele>84.7</ele>
        <time>2024-12-19T09:20:08Z</time>
      </trkpt>
      <trkpt lat="47.93769" lon="-2.48779">
        <ele>84.7</ele>
        <time>2024-12-19T09:20:09Z</time>
      </trkpt>
      <trkpt lat="47.93769" lon="-2.48777">
        <ele>84.7</ele>
        <time>2024-12-19T09:20:10Z</time>
      </trkpt>
      <trkpt lat="47.93767" lon="-2.48775">
        <ele>84.7</ele>
        <time>2024-12-19T09:20:11Z</time>
      </trkpt>
      <trkpt lat="47.93767" lon="-2.48774">
        <ele>84.7</ele>
        <time>2024-12-19T09:20:12Z</time>
      </trkpt>
      <trkpt lat="47.93766" lon="-2.48773">
        <ele>84.7</ele>
        <time>2024-12-19T09:20:13Z</time>
      </trkpt>
      <trkpt lat="47.93766" lon="-2.48772">
        <ele>84.7</ele>
        <time>2024-12-19T09:20:14Z</time>
      </trkpt>
      <trkpt lat="47.93766" lon="-2.4877">
        <ele>84.7</ele>
        <time>2024-12-19T09:20:15Z</time>
      </trkpt>
      <trkpt lat="47.93766" lon="-2.48768">
        <ele>84.7</ele>
        <time>2024-12-19T09:20:16Z</time>
      </trkpt>
      <trkpt lat="47.93765" lon="-2.48765">
        <ele>84.7</ele>
        <time>2024-12-19T09:20:17Z</time>
      </trkpt>
      <trkpt lat="47.93765" lon="-2.48764">
        <ele>84.8</ele>
        <time>2024-12-19T09:20:18Z</time>
      </trkpt>
      <trkpt lat="47.93764" lon="-2.48762">
        <ele>84.8</ele>
        <time>2024-12-19T09:20:19Z</time>
      </trkpt>
      <trkpt lat="47.93764" lon="-2.4876">
        <ele>84.8</ele>
        <time>2024-12-19T09:20:20Z</time>
      </trkpt>
      <trkpt lat="47.93764" lon="-2.48759">
        <ele>84.8</ele>
        <time>2024-12-19T09:20:21Z</time>
      </trkpt>
      <trkpt lat="47.93764" lon="-2.48758">
        <ele>84.9</ele>
        <time>2024-12-19T09:20:22Z</time>
      </trkpt>
      <trkpt lat="47.93764" lon="-2.48757">
        <ele>84.9</ele>
        <time>2024-12-19T09:20:23Z</time>
      </trkpt>
      <trkpt lat="47.93764" lon="-2.48755">
        <ele>84.9</ele>
        <time>2024-12-19T09:20:24Z</time>
      </trkpt>
      <trkpt lat="47.93764" lon="-2.48753">
        <ele>85</ele>
        <time>2024-12-19T09:20:25Z</time>
      </trkpt>
      <trkpt lat="47.93764" lon="-2.4875">
        <ele>85</ele>
        <time>2024-12-19T09:20:26Z</time>
      </trkpt>
      <trkpt lat="47.93764" lon="-2.48749">
        <ele>85</ele>
        <time>2024-12-19T09:20:27Z</time>
      </trkpt>
      <trkpt lat="47.93764" lon="-2.48747">
        <ele>85</ele>
        <time>2024-12-19T09:20:28Z</time>
      </trkpt>
      <trkpt lat="47.93763" lon="-2.48745">
        <ele>85</ele>
        <time>2024-12-19T09:20:29Z</time>
      </trkpt>
      <trkpt lat="47.93763" lon="-2.48743">
        <ele>85</ele>
        <time>2024-12-19T09:20:30Z</time>
      </trkpt>
      <trkpt lat="47.93762" lon="-2.48741">
        <ele>85</ele>
        <time>2024-12-19T09:20:31Z</time>
      </trkpt>
      <trkpt lat="47.93762" lon="-2.4874">
        <ele>85</ele>
        <time>2024-12-19T09:20:32Z</time>
      </trkpt>
      <trkpt lat="47.93761" lon="-2.48739">
        <ele>85</ele>
        <time>2024-12-19T09:20:33Z</time>
      </trkpt>
      <trkpt lat="47.93761" lon="-2.48737">
        <ele>85</ele>
        <time>2024-12-19T09:20:34Z</time>
      </trkpt>
      <trkpt lat="47.9376" lon="-2.48736">
        <ele>85</ele>
        <time>2024-12-19T09:20:35Z</time>
      </trkpt>
      <trkpt lat="47.9376" lon="-2.48734">
        <ele>85</ele>
        <time>2024-12-19T09:20:36Z</time>
      </trkpt>
      <trkpt lat="47.93759" lon="-2.48733">
        <ele>85</ele>
        <time>2024-12-19T09:20:37Z</time>
      </trkpt>
      <trkpt lat="47.93758" lon="-2.48732">
        <ele>85</ele>
        <time>2024-12-19T09:20:38Z</time>
      </trkpt>
      <trkpt lat="47.93758" lon="-2.48731">
        <ele>85</ele>
        <time>2024-12-19T09:20:39Z</time>
      </trkpt>
      <trkpt lat="47.93758" lon="-2.48729">
        <ele>85</ele>
        <time>2024-12-19T09:20:40Z</time>
      </trkpt>
      <trkpt lat="47.93758" lon="-2.48728">
        <ele>85</ele>
        <time>2024-12-19T09:20:41Z</time>
      </trkpt>
      <trkpt lat="47.93758" lon="-2.48726">
        <ele>85</ele>
        <time>2024-12-19T09:20:42Z</time>
      </trkpt>
      <trkpt lat="47.93758" lon="-2.48724">
        <ele>85</ele>
        <time>2024-12-19T09:20:43Z</time>
      </trkpt>
      <trkpt lat="47.93759" lon="-2.48722">
        <ele>85</ele>
        <time>2024-12-19T09:20:44Z</time>
      </trkpt>
      <trkpt lat="47.93759" lon="-2.48721">
        <ele>85</ele>
        <time>2024-12-19T09:20:45Z</time>
      </trkpt>
      <trkpt lat="47.93759" lon="-2.48719">
        <ele>85.1</ele>
        <time>2024-12-19T09:20:46Z</time>
      </trkpt>
      <trkpt lat="47.9376" lon="-2.48719">
        <ele>85.1</ele>
        <time>2024-12-19T09:20:47Z</time>
      </trkpt>
      <trkpt lat="47.9376" lon="-2.48719">
        <ele>85.1</ele>
        <time>2024-12-19T09:20:48Z</time>
      </trkpt>
      <trkpt lat="47.9376" lon="-2.48719">
        <ele>85.1</ele>
        <time>2024-12-19T09:20:49Z</time>
      </trkpt>
      <trkpt lat="47.9376" lon="-2.48717">
        <ele>85.1</ele>
        <time>2024-12-19T09:20:50Z</time>
      </trkpt>
      <trkpt lat="47.9376" lon="-2.48716">
        <ele>85.2</ele>
        <time>2024-12-19T09:20:51Z</time>
      </trkpt>
      <trkpt lat="47.93759" lon="-2.48714">
        <ele>85.2</ele>
        <time>2024-12-19T09:20:52Z</time>
      </trkpt>
      <trkpt lat="47.93759" lon="-2.48712">
        <ele>85.2</ele>
        <time>2024-12-19T09:20:53Z</time>
      </trkpt>
      <trkpt lat="47.93759" lon="-2.48711">
        <ele>85.3</ele>
        <time>2024-12-19T09:20:54Z</time>
      </trkpt>
      <trkpt lat="47.93759" lon="-2.4871">
        <ele>85.3</ele>
        <time>2024-12-19T09:20:55Z</time>
      </trkpt>
      <trkpt lat="47.9376" lon="-2.48709">
        <ele>85.3</ele>
        <time>2024-12-19T09:20:56Z</time>
      </trkpt>
      <trkpt lat="47.9376" lon="-2.48708">
        <ele>85.3</ele>
        <time>2024-12-19T09:20:57Z</time>
      </trkpt>
      <trkpt lat="47.93761" lon="-2.48706">
        <ele>85.4</ele>
        <time>2024-12-19T09:20:58Z</time>
      </trkpt>
      <trkpt lat="47.93761" lon="-2.48704">
        <ele>85.4</ele>
        <time>2024-12-19T09:20:59Z</time>
      </trkpt>
      <trkpt lat="47.93762" lon="-2.48702">
        <ele>85.4</ele>
        <time>2024-12-19T09:21:00Z</time>
      </trkpt>
      <trkpt lat="47.93762" lon="-2.48702">
        <ele>85.4</ele>
        <time>2024-12-19T09:21:01Z</time>
      </trkpt>
      <trkpt lat="47.93762" lon="-2.48702">
        <ele>85.4</ele>
        <time>2024-12-19T09:21:02Z</time>
      </trkpt>
      <trkpt lat="47.93763" lon="-2.48701">
        <ele>85.4</ele>
        <time>2024-12-19T09:21:03Z</time>
      </trkpt>
      <trkpt lat="47.93763" lon="-2.48702">
        <ele>85.4</ele>
        <time>2024-12-19T09:21:04Z</time>
      </trkpt>
      <trkpt lat="47.93762" lon="-2.48702">
        <ele>85.4</ele>
        <time>2024-12-19T09:21:05Z</time>
      </trkpt>
      <trkpt lat="47.93763" lon="-2.48703">
        <ele>85.4</ele>
        <time>2024-12-19T09:21:06Z</time>
      </trkpt>
      <trkpt lat="47.93763" lon="-2.48703">
        <ele>85.4</ele>
        <time>2024-12-19T09:21:07Z</time>
      </trkpt>
      <trkpt lat="47.93763" lon="-2.48704">
        <ele>85.4</ele>
        <time>2024-12-19T09:21:08Z</time>
      </trkpt>
      <trkpt lat="47.93762" lon="-2.48704">
        <ele>85.4</ele>
        <time>2024-12-19T09:21:09Z</time>
      </trkpt>
      <trkpt lat="47.93762" lon="-2.48704">
        <ele>85.4</ele>
        <time>2024-12-19T09:21:10Z</time>
      </trkpt>
      <trkpt lat="47.93762" lon="-2.48704">
        <ele>85.4</ele>
        <time>2024-12-19T09:21:11Z</time>
      </trkpt>
      <trkpt lat="47.93761" lon="-2.48704">
        <ele>85.4</ele>
        <time>2024-12-19T09:21:12Z</time>
      </trkpt>
      <trkpt lat="47.93761" lon="-2.48704">
        <ele>85.4</ele>
        <time>2024-12-19T09:21:13Z</time>
      </trkpt>
      <trkpt lat="47.93761" lon="-2.48704">
        <ele>85.4</ele>
        <time>2024-12-19T09:21:14Z</time>
      </trkpt>
      <trkpt lat="47.93761" lon="-2.48704">
        <ele>85.4</ele>
        <time>2024-12-19T09:21:15Z</time>
      </trkpt>
      <trkpt lat="47.93761" lon="-2.48704">
        <ele>85.4</ele>
        <time>2024-12-19T09:21:16Z</time>
      </trkpt>
      <trkpt lat="47.93761" lon="-2.48703">
        <ele>85.4</ele>
        <time>2024-12-19T09:21:17Z</time>
      </trkpt>
      <trkpt lat="47.93761" lon="-2.48703">
        <ele>85.4</ele>
        <time>2024-12-19T09:21:18Z</time>
      </trkpt>
      <trkpt lat="47.93761" lon="-2.48703">
        <ele>85.4</ele>
        <time>2024-12-19T09:21:19Z</time>
      </trkpt>
      <trkpt lat="47.93761" lon="-2.48703">
        <ele>85.4</ele>
        <time>2024-12-19T09:21:20Z</time>
      </trkpt>
      <trkpt lat="47.93761" lon="-2.48703">
        <ele>85.4</ele>
        <time>2024-12-19T09:21:21Z</time>
      </trkpt>
      <trkpt lat="47.93761" lon="-2.48703">
        <ele>85.4</ele>
        <time>2024-12-19T09:21:22Z</time>
      </trkpt>
      <trkpt lat="47.93761" lon="-2.48703">
        <ele>85.4</ele>
        <time>2024-12-19T09:21:23Z</time>
      </trkpt>
      <trkpt lat="47.93761" lon="-2.48703">
        <ele>85.4</ele>
        <time>2024-12-19T09:21:24Z</time>
      </trkpt>
      <trkpt lat="47.93761" lon="-2.48703">
        <ele>85.4</ele>
        <time>2024-12-19T09:21:25Z</time>
      </trkpt>
      <trkpt lat="47.93761" lon="-2.48703">
        <ele>85.4</ele>
        <time>2024-12-19T09:21:26Z</time>
      </trkpt>
      <trkpt lat="47.93761" lon="-2.48703">
        <ele>85.4</ele>
        <time>2024-12-19T09:21:27Z</time>
      </trkpt>
      <trkpt lat="47.93761" lon="-2.48703">
        <ele>85.4</ele>
        <time>2024-12-19T09:21:28Z</time>
      </trkpt>
      <trkpt lat="47.93761" lon="-2.48703">
        <ele>85.4</ele>
        <time>2024-12-19T09:21:29Z</time>
      </trkpt>
      <trkpt lat="47.93761" lon="-2.48703">
        <ele>85.4</ele>
        <time>2024-12-19T09:21:30Z</time>
      </trkpt>
      <trkpt lat="47.93761" lon="-2.48703">
        <ele>85.4</ele>
        <time>2024-12-19T09:21:31Z</time>
      </trkpt>
      <trkpt lat="47.93761" lon="-2.48703">
        <ele>85.4</ele>
        <time>2024-12-19T09:21:32Z</time>
      </trkpt>
      <trkpt lat="47.93761" lon="-2.48703">
        <ele>85.4</ele>
        <time>2024-12-19T09:21:33Z</time>
      </trkpt>
      <trkpt lat="47.93761" lon="-2.48703">
        <ele>85.4</ele>
        <time>2024-12-19T09:21:34Z</time>
      </trkpt>
      <trkpt lat="47.93761" lon="-2.48703">
        <ele>85.4</ele>
        <time>2024-12-19T09:21:35Z</time>
      </trkpt>
      <trkpt lat="47.93761" lon="-2.48703">
        <ele>85.4</ele>
        <time>2024-12-19T09:21:36Z</time>
      </trkpt>
      <trkpt lat="47.93761" lon="-2.48703">
        <ele>85.4</ele>
        <time>2024-12-19T09:21:37Z</time>
      </trkpt>
      <trkpt lat="47.93761" lon="-2.48703">
        <ele>85.4</ele>
        <time>2024-12-19T09:21:38Z</time>
      </trkpt>
      <trkpt lat="47.93761" lon="-2.48703">
        <ele>85.4</ele>
        <time>2024-12-19T09:21:39Z</time>
      </trkpt>
      <trkpt lat="47.93761" lon="-2.48703">
        <ele>85.4</ele>
        <time>2024-12-19T09:21:40Z</time>
      </trkpt>
      <trkpt lat="47.93761" lon="-2.48702">
        <ele>85.4</ele>
        <time>2024-12-19T09:21:41Z</time>
      </trkpt>
      <trkpt lat="47.93762" lon="-2.48701">
        <ele>85.4</ele>
        <time>2024-12-19T09:21:42Z</time>
      </trkpt>
      <trkpt lat="47.93763" lon="-2.487">
        <ele>85.4</ele>
        <time>2024-12-19T09:21:43Z</time>
      </trkpt>
      <trkpt lat="47.93763" lon="-2.48699">
        <ele>85.4</ele>
        <time>2024-12-19T09:21:44Z</time>
      </trkpt>
      <trkpt lat="47.93763" lon="-2.48699">
        <ele>85.4</ele>
        <time>2024-12-19T09:21:45Z</time>
      </trkpt>
      <trkpt lat="47.93763" lon="-2.48699">
        <ele>85.4</ele>
        <time>2024-12-19T09:21:46Z</time>
      </trkpt>
      <trkpt lat="47.93763" lon="-2.48699">
        <ele>85.5</ele>
        <time>2024-12-19T09:21:47Z</time>
      </trkpt>
      <trkpt lat="47.93763" lon="-2.48699">
        <ele>85.5</ele>
        <time>2024-12-19T09:21:48Z</time>
      </trkpt>
      <trkpt lat="47.93763" lon="-2.48699">
        <ele>85.4</ele>
        <time>2024-12-19T09:21:49Z</time>
      </trkpt>
      <trkpt lat="47.93764" lon="-2.48697">
        <ele>85.4</ele>
        <time>2024-12-19T09:21:50Z</time>
      </trkpt>
      <trkpt lat="47.93765" lon="-2.48697">
        <ele>85.4</ele>
        <time>2024-12-19T09:21:51Z</time>
      </trkpt>
      <trkpt lat="47.93766" lon="-2.48696">
        <ele>85.4</ele>
        <time>2024-12-19T09:21:52Z</time>
      </trkpt>
      <trkpt lat="47.93767" lon="-2.48696">
        <ele>85.4</ele>
        <time>2024-12-19T09:21:53Z</time>
      </trkpt>
      <trkpt lat="47.93768" lon="-2.48696">
        <ele>85.3</ele>
        <time>2024-12-19T09:21:54Z</time>
      </trkpt>
      <trkpt lat="47.93769" lon="-2.48695">
        <ele>85.3</ele>
        <time>2024-12-19T09:21:55Z</time>
      </trkpt>
      <trkpt lat="47.93769" lon="-2.48694">
        <ele>85.3</ele>
        <time>2024-12-19T09:21:56Z</time>
      </trkpt>
      <trkpt lat="47.93769" lon="-2.48693">
        <ele>85.3</ele>
        <time>2024-12-19T09:21:57Z</time>
      </trkpt>
      <trkpt lat="47.93769" lon="-2.48693">
        <ele>85.3</ele>
        <time>2024-12-19T09:21:58Z</time>
      </trkpt>
      <trkpt lat="47.93769" lon="-2.48692">
        <ele>85.3</ele>
        <time>2024-12-19T09:21:59Z</time>
      </trkpt>
      <trkpt lat="47.93768" lon="-2.48691">
        <ele>85.3</ele>
        <time>2024-12-19T09:22:00Z</time>
      </trkpt>
      <trkpt lat="47.93767" lon="-2.4869">
        <ele>85.3</ele>
        <time>2024-12-19T09:22:01Z</time>
      </trkpt>
      <trkpt lat="47.93767" lon="-2.4869">
        <ele>85.3</ele>
        <time>2024-12-19T09:22:02Z</time>
      </trkpt>
      <trkpt lat="47.93766" lon="-2.48691">
        <ele>85.4</ele>
        <time>2024-12-19T09:22:03Z</time>
      </trkpt>
      <trkpt lat="47.93766" lon="-2.48691">
        <ele>85.4</ele>
        <time>2024-12-19T09:22:04Z</time>
      </trkpt>
      <trkpt lat="47.93765" lon="-2.4869">
        <ele>85.4</ele>
        <time>2024-12-19T09:22:05Z</time>
      </trkpt>
      <trkpt lat="47.93765" lon="-2.4869">
        <ele>85.4</ele>
        <time>2024-12-19T09:22:06Z</time>
      </trkpt>
      <trkpt lat="47.93765" lon="-2.4869">
        <ele>85.4</ele>
        <time>2024-12-19T09:22:07Z</time>
      </trkpt>
      <trkpt lat="47.93765" lon="-2.4869">
        <ele>85.4</ele>
        <time>2024-12-19T09:22:08Z</time>
      </trkpt>
      <trkpt lat="47.93765" lon="-2.4869">
        <ele>85.4</ele>
        <time>2024-12-19T09:22:09Z</time>
      </trkpt>
      <trkpt lat="47.93765" lon="-2.4869">
        <ele>85.4</ele>
        <time>2024-12-19T09:22:10Z</time>
      </trkpt>
      <trkpt lat="47.93766" lon="-2.4869">
        <ele>85.4</ele>
        <time>2024-12-19T09:22:11Z</time>
      </trkpt>
      <trkpt lat="47.93766" lon="-2.4869">
        <ele>85.4</ele>
        <time>2024-12-19T09:22:12Z</time>
      </trkpt>
      <trkpt lat="47.93767" lon="-2.4869">
        <ele>85.3</ele>
        <time>2024-12-19T09:22:13Z</time>
      </trkpt>
      <trkpt lat="47.93768" lon="-2.48689">
        <ele>85.3</ele>
        <time>2024-12-19T09:22:14Z</time>
      </trkpt>
      <trkpt lat="47.93768" lon="-2.48689">
        <ele>85.3</ele>
        <time>2024-12-19T09:22:15Z</time>
      </trkpt>
      <trkpt lat="47.93769" lon="-2.48689">
        <ele>85.3</ele>
        <time>2024-12-19T09:22:16Z</time>
      </trkpt>
      <trkpt lat="47.93769" lon="-2.48688">
        <ele>85.2</ele>
        <time>2024-12-19T09:22:17Z</time>
      </trkpt>
      <trkpt lat="47.93769" lon="-2.48688">
        <ele>85.2</ele>
        <time>2024-12-19T09:22:18Z</time>
      </trkpt>
      <trkpt lat="47.93769" lon="-2.48687">
        <ele>85.2</ele>
        <time>2024-12-19T09:22:19Z</time>
      </trkpt>
      <trkpt lat="47.93769" lon="-2.48687">
        <ele>85.2</ele>
        <time>2024-12-19T09:22:20Z</time>
      </trkpt>
      <trkpt lat="47.93768" lon="-2.48687">
        <ele>85.2</ele>
        <time>2024-12-19T09:22:21Z</time>
      </trkpt>
      <trkpt lat="47.93768" lon="-2.48687">
        <ele>85.3</ele>
        <time>2024-12-19T09:22:22Z</time>
      </trkpt>
      <trkpt lat="47.93768" lon="-2.48687">
        <ele>85.3</ele>
        <time>2024-12-19T09:22:23Z</time>
      </trkpt>
      <trkpt lat="47.93768" lon="-2.48686">
        <ele>85.3</ele>
        <time>2024-12-19T09:22:24Z</time>
      </trkpt>
      <trkpt lat="47.93768" lon="-2.48686">
        <ele>85.3</ele>
        <time>2024-12-19T09:22:25Z</time>
      </trkpt>
      <trkpt lat="47.93767" lon="-2.48686">
        <ele>85.3</ele>
        <time>2024-12-19T09:22:26Z</time>
      </trkpt>
      <trkpt lat="47.93768" lon="-2.48686">
        <ele>85.3</ele>
        <time>2024-12-19T09:22:27Z</time>
      </trkpt>
      <trkpt lat="47.93768" lon="-2.48686">
        <ele>85.3</ele>
        <time>2024-12-19T09:22:28Z</time>
      </trkpt>
      <trkpt lat="47.93768" lon="-2.48686">
        <ele>85.3</ele>
        <time>2024-12-19T09:22:29Z</time>
      </trkpt>
      <trkpt lat="47.93768" lon="-2.48686">
        <ele>85.2</ele>
        <time>2024-12-19T09:22:30Z</time>
      </trkpt>
      <trkpt lat="47.93768" lon="-2.48686">
        <ele>85.2</ele>
        <time>2024-12-19T09:22:31Z</time>
      </trkpt>
      <trkpt lat="47.93767" lon="-2.48686">
        <ele>85.3</ele>
        <time>2024-12-19T09:22:32Z</time>
      </trkpt>
      <trkpt lat="47.93766" lon="-2.48686">
        <ele>85.3</ele>
        <time>2024-12-19T09:22:33Z</time>
      </trkpt>
      <trkpt lat="47.93765" lon="-2.48687">
        <ele>85.4</ele>
        <time>2024-12-19T09:22:34Z</time>
      </trkpt>
      <trkpt lat="47.93763" lon="-2.48688">
        <ele>85.4</ele>
        <time>2024-12-19T09:22:35Z</time>
      </trkpt>
      <trkpt lat="47.93762" lon="-2.48689">
        <ele>85.5</ele>
        <time>2024-12-19T09:22:36Z</time>
      </trkpt>
      <trkpt lat="47.93762" lon="-2.4869">
        <ele>85.5</ele>
        <time>2024-12-19T09:22:37Z</time>
      </trkpt>
      <trkpt lat="47.93762" lon="-2.4869">
        <ele>85.5</ele>
        <time>2024-12-19T09:22:38Z</time>
      </trkpt>
      <trkpt lat="47.93762" lon="-2.48691">
        <ele>85.5</ele>
        <time>2024-12-19T09:22:39Z</time>
      </trkpt>
      <trkpt lat="47.93762" lon="-2.48691">
        <ele>85.5</ele>
        <time>2024-12-19T09:22:40Z</time>
      </trkpt>
      <trkpt lat="47.93762" lon="-2.48691">
        <ele>85.5</ele>
        <time>2024-12-19T09:22:41Z</time>
      </trkpt>
      <trkpt lat="47.93762" lon="-2.4869">
        <ele>85.5</ele>
        <time>2024-12-19T09:22:44Z</time>
      </trkpt>
      <trkpt lat="47.93762" lon="-2.4869">
        <ele>85.5</ele>
        <time>2024-12-19T09:22:45Z</time>
      </trkpt>
      <trkpt lat="47.93762" lon="-2.48689">
        <ele>85.5</ele>
        <time>2024-12-19T09:22:46Z</time>
      </trkpt>
      <trkpt lat="47.93762" lon="-2.48689">
        <ele>85.5</ele>
        <time>2024-12-19T09:22:47Z</time>
      </trkpt>
      <trkpt lat="47.93762" lon="-2.48689">
        <ele>85.5</ele>
        <time>2024-12-19T09:22:48Z</time>
      </trkpt>
      <trkpt lat="47.93762" lon="-2.48688">
        <ele>85.4</ele>
        <time>2024-12-19T09:22:49Z</time>
      </trkpt>
      <trkpt lat="47.93762" lon="-2.48687">
        <ele>85.4</ele>
        <time>2024-12-19T09:22:50Z</time>
      </trkpt>
      <trkpt lat="47.93762" lon="-2.48687">
        <ele>85.4</ele>
        <time>2024-12-19T09:22:51Z</time>
      </trkpt>
      <trkpt lat="47.93762" lon="-2.48687">
        <ele>85.4</ele>
        <time>2024-12-19T09:22:52Z</time>
      </trkpt>
      <trkpt lat="47.93762" lon="-2.48686">
        <ele>85.4</ele>
        <time>2024-12-19T09:22:53Z</time>
      </trkpt>
      <trkpt lat="47.93762" lon="-2.48686">
        <ele>85.4</ele>
        <time>2024-12-19T09:22:54Z</time>
      </trkpt>
      <trkpt lat="47.93762" lon="-2.48686">
        <ele>85.4</ele>
        <time>2024-12-19T09:22:55Z</time>
      </trkpt>
      <trkpt lat="47.93762" lon="-2.48686">
        <ele>85.4</ele>
        <time>2024-12-19T09:22:56Z</time>
      </trkpt>
      <trkpt lat="47.93762" lon="-2.48686">
        <ele>85.4</ele>
        <time>2024-12-19T09:22:57Z</time>
      </trkpt>
      <trkpt lat="47.93762" lon="-2.48686">
        <ele>85.4</ele>
        <time>2024-12-19T09:22:58Z</time>
      </trkpt>
      <trkpt lat="47.93761" lon="-2.48686">
        <ele>85.4</ele>
        <time>2024-12-19T09:22:59Z</time>
      </trkpt>
      <trkpt lat="47.93761" lon="-2.48686">
        <ele>85.4</ele>
        <time>2024-12-19T09:23:00Z</time>
      </trkpt>
      <trkpt lat="47.93761" lon="-2.48686">
        <ele>85.4</ele>
        <time>2024-12-19T09:23:01Z</time>
      </trkpt>
      <trkpt lat="47.93761" lon="-2.48686">
        <ele>85.4</ele>
        <time>2024-12-19T09:23:02Z</time>
      </trkpt>
      <trkpt lat="47.93761" lon="-2.48686">
        <ele>85.4</ele>
        <time>2024-12-19T09:23:03Z</time>
      </trkpt>
      <trkpt lat="47.93761" lon="-2.48686">
        <ele>85.4</ele>
        <time>2024-12-19T09:23:04Z</time>
      </trkpt>
      <trkpt lat="47.93761" lon="-2.48686">
        <ele>85.4</ele>
        <time>2024-12-19T09:23:05Z</time>
      </trkpt>
      <trkpt lat="47.93761" lon="-2.48686">
        <ele>85.4</ele>
        <time>2024-12-19T09:23:07Z</time>
      </trkpt>
      <trkpt lat="47.93761" lon="-2.48686">
        <ele>85.4</ele>
        <time>2024-12-19T09:23:08Z</time>
      </trkpt>
      <trkpt lat="47.93761" lon="-2.48686">
        <ele>85.4</ele>
        <time>2024-12-19T09:23:09Z</time>
      </trkpt>
      <trkpt lat="47.93761" lon="-2.48686">
        <ele>85.4</ele>
        <time>2024-12-19T09:23:10Z</time>
      </trkpt>
      <trkpt lat="47.93761" lon="-2.48686">
        <ele>85.4</ele>
        <time>2024-12-19T09:23:11Z</time>
      </trkpt>
      <trkpt lat="47.93761" lon="-2.48687">
        <ele>85.4</ele>
        <time>2024-12-19T09:23:12Z</time>
      </trkpt>
      <trkpt lat="47.93761" lon="-2.48687">
        <ele>85.4</ele>
        <time>2024-12-19T09:23:13Z</time>
      </trkpt>
      <trkpt lat="47.93761" lon="-2.48687">
        <ele>85.4</ele>
        <time>2024-12-19T09:23:14Z</time>
      </trkpt>
      <trkpt lat="47.93761" lon="-2.48687">
        <ele>85.4</ele>
        <time>2024-12-19T09:23:15Z</time>
      </trkpt>
      <trkpt lat="47.93761" lon="-2.48687">
        <ele>85.4</ele>
        <time>2024-12-19T09:23:16Z</time>
      </trkpt>
      <trkpt lat="47.93761" lon="-2.48687">
        <ele>85.4</ele>
        <time>2024-12-19T09:23:18Z</time>
      </trkpt>
      <trkpt lat="47.93761" lon="-2.48687">
        <ele>85.4</ele>
        <time>2024-12-19T09:23:19Z</time>
      </trkpt>
      <trkpt lat="47.93761" lon="-2.48687">
        <ele>85.4</ele>
        <time>2024-12-19T09:23:20Z</time>
      </trkpt>
      <trkpt lat="47.93761" lon="-2.48687">
        <ele>85.4</ele>
        <time>2024-12-19T09:23:21Z</time>
      </trkpt>
      <trkpt lat="47.93761" lon="-2.48687">
        <ele>85.4</ele>
        <time>2024-12-19T09:23:22Z</time>
      </trkpt>
      <trkpt lat="47.93761" lon="-2.48687">
        <ele>85.4</ele>
        <time>2024-12-19T09:23:23Z</time>
      </trkpt>
      <trkpt lat="47.93761" lon="-2.48687">
        <ele>85.4</ele>
        <time>2024-12-19T09:23:24Z</time>
      </trkpt>
      <trkpt lat="47.93761" lon="-2.48687">
        <ele>85.4</ele>
        <time>2024-12-19T09:23:25Z</time>
      </trkpt>
      <trkpt lat="47.93761" lon="-2.48687">
        <ele>85.4</ele>
        <time>2024-12-19T09:23:26Z</time>
      </trkpt>
      <trkpt lat="47.93761" lon="-2.48687">
        <ele>85.4</ele>
        <time>2024-12-19T09:23:27Z</time>
      </trkpt>
      <trkpt lat="47.93761" lon="-2.48687">
        <ele>85.4</ele>
        <time>2024-12-19T09:23:28Z</time>
      </trkpt>
      <trkpt lat="47.93761" lon="-2.48687">
        <ele>85.4</ele>
        <time>2024-12-19T09:23:29Z</time>
      </trkpt>
      <trkpt lat="47.93761" lon="-2.48687">
        <ele>85.4</ele>
        <time>2024-12-19T09:23:30Z</time>
      </trkpt>
      <trkpt lat="47.93761" lon="-2.48687">
        <ele>85.4</ele>
        <time>2024-12-19T09:23:31Z</time>
      </trkpt>
      <trkpt lat="47.93761" lon="-2.48687">
        <ele>85.4</ele>
        <time>2024-12-19T09:23:32Z</time>
      </trkpt>
      <trkpt lat="47.93761" lon="-2.48687">
        <ele>85.4</ele>
        <time>2024-12-19T09:23:33Z</time>
      </trkpt>
      <trkpt lat="47.93761" lon="-2.48687">
        <ele>85.4</ele>
        <time>2024-12-19T09:23:34Z</time>
      </trkpt>
      <trkpt lat="47.93761" lon="-2.48687">
        <ele>85.4</ele>
        <time>2024-12-19T09:23:35Z</time>
      </trkpt>
      <trkpt lat="47.93761" lon="-2.48687">
        <ele>85.4</ele>
        <time>2024-12-19T09:23:36Z</time>
      </trkpt>
      <trkpt lat="47.93761" lon="-2.48687">
        <ele>85.4</ele>
        <time>2024-12-19T09:23:37Z</time>
      </trkpt>
      <trkpt lat="47.93761" lon="-2.48687">
        <ele>85.4</ele>
        <time>2024-12-19T09:23:38Z</time>
      </trkpt>
      <trkpt lat="47.93761" lon="-2.48687">
        <ele>85.4</ele>
        <time>2024-12-19T09:23:39Z</time>
      </trkpt>
      <trkpt lat="47.93761" lon="-2.48687">
        <ele>85.4</ele>
        <time>2024-12-19T09:23:40Z</time>
      </trkpt>
      <trkpt lat="47.93761" lon="-2.48687">
        <ele>85.4</ele>
        <time>2024-12-19T09:23:41Z</time>
      </trkpt>
      <trkpt lat="47.93761" lon="-2.48687">
        <ele>85.4</ele>
        <time>2024-12-19T09:23:42Z</time>
      </trkpt>
      <trkpt lat="47.93761" lon="-2.48687">
        <ele>85.4</ele>
        <time>2024-12-19T09:23:43Z</time>
      </trkpt>
      <trkpt lat="47.93761" lon="-2.48687">
        <ele>85.4</ele>
        <time>2024-12-19T09:23:44Z</time>
      </trkpt>
      <trkpt lat="47.93761" lon="-2.48687">
        <ele>85.4</ele>
        <time>2024-12-19T09:23:45Z</time>
      </trkpt>
      <trkpt lat="47.93761" lon="-2.48687">
        <ele>85.4</ele>
        <time>2024-12-19T09:23:46Z</time>
      </trkpt>
      <trkpt lat="47.93761" lon="-2.48687">
        <ele>85.4</ele>
        <time>2024-12-19T09:23:47Z</time>
      </trkpt>
      <trkpt lat="47.93761" lon="-2.48687">
        <ele>85.4</ele>
        <time>2024-12-19T09:23:48Z</time>
      </trkpt>
      <trkpt lat="47.93761" lon="-2.48687">
        <ele>85.4</ele>
        <time>2024-12-19T09:23:49Z</time>
      </trkpt>
      <trkpt lat="47.93761" lon="-2.48687">
        <ele>85.4</ele>
        <time>2024-12-19T09:23:50Z</time>
      </trkpt>
      <trkpt lat="47.93761" lon="-2.48687">
        <ele>85.4</ele>
        <time>2024-12-19T09:23:51Z</time>
      </trkpt>
      <trkpt lat="47.93761" lon="-2.48687">
        <ele>85.4</ele>
        <time>2024-12-19T09:23:52Z</time>
      </trkpt>
      <trkpt lat="47.93761" lon="-2.48687">
        <ele>85.4</ele>
        <time>2024-12-19T09:23:53Z</time>
      </trkpt>
      <trkpt lat="47.93761" lon="-2.48687">
        <ele>85.4</ele>
        <time>2024-12-19T09:23:54Z</time>
      </trkpt>
      <trkpt lat="47.93761" lon="-2.48687">
        <ele>85.4</ele>
        <time>2024-12-19T09:23:55Z</time>
      </trkpt>
      <trkpt lat="47.93761" lon="-2.48687">
        <ele>85.4</ele>
        <time>2024-12-19T09:23:56Z</time>
      </trkpt>
      <trkpt lat="47.93761" lon="-2.48687">
        <ele>85.4</ele>
        <time>2024-12-19T09:23:57Z</time>
      </trkpt>
      <trkpt lat="47.93761" lon="-2.48687">
        <ele>85.4</ele>
        <time>2024-12-19T09:23:58Z</time>
      </trkpt>
      <trkpt lat="47.93761" lon="-2.48687">
        <ele>85.4</ele>
        <time>2024-12-19T09:23:59Z</time>
      </trkpt>
      <trkpt lat="47.93761" lon="-2.48687">
        <ele>85.4</ele>
        <time>2024-12-19T09:24:00Z</time>
      </trkpt>
      <trkpt lat="47.93761" lon="-2.48687">
        <ele>85.4</ele>
        <time>2024-12-19T09:24:01Z</time>
      </trkpt>
      <trkpt lat="47.93761" lon="-2.48687">
        <ele>85.4</ele>
        <time>2024-12-19T09:24:02Z</time>
      </trkpt>
      <trkpt lat="47.93763" lon="-2.48686">
        <ele>85.4</ele>
        <time>2024-12-19T09:24:03Z</time>
      </trkpt>
      <trkpt lat="47.93764" lon="-2.48685">
        <ele>85.3</ele>
        <time>2024-12-19T09:24:04Z</time>
      </trkpt>
      <trkpt lat="47.93766" lon="-2.48686">
        <ele>85.3</ele>
        <time>2024-12-19T09:24:05Z</time>
      </trkpt>
      <trkpt lat="47.93767" lon="-2.48687">
        <ele>85.3</ele>
        <time>2024-12-19T09:24:06Z</time>
      </trkpt>
      <trkpt lat="47.93769" lon="-2.48687">
        <ele>85.2</ele>
        <time>2024-12-19T09:24:07Z</time>
      </trkpt>
      <trkpt lat="47.93772" lon="-2.48686">
        <ele>85.2</ele>
        <time>2024-12-19T09:24:08Z</time>
      </trkpt>
      <trkpt lat="47.93773" lon="-2.48685">
        <ele>85.1</ele>
        <time>2024-12-19T09:24:09Z</time>
      </trkpt>
      <trkpt lat="47.93775" lon="-2.48684">
        <ele>85.1</ele>
        <time>2024-12-19T09:24:10Z</time>
      </trkpt>
      <trkpt lat="47.93775" lon="-2.48684">
        <ele>85.1</ele>
        <time>2024-12-19T09:24:11Z</time>
      </trkpt>
      <trkpt lat="47.93776" lon="-2.48684">
        <ele>85</ele>
        <time>2024-12-19T09:24:12Z</time>
      </trkpt>
      <trkpt lat="47.93776" lon="-2.48683">
        <ele>85</ele>
        <time>2024-12-19T09:24:13Z</time>
      </trkpt>
      <trkpt lat="47.93776" lon="-2.48683">
        <ele>85</ele>
        <time>2024-12-19T09:24:14Z</time>
      </trkpt>
      <trkpt lat="47.93776" lon="-2.48684">
        <ele>85</ele>
        <time>2024-12-19T09:24:15Z</time>
      </trkpt>
      <trkpt lat="47.93776" lon="-2.48684">
        <ele>85</ele>
        <time>2024-12-19T09:24:16Z</time>
      </trkpt>
      <trkpt lat="47.93776" lon="-2.48684">
        <ele>85</ele>
        <time>2024-12-19T09:24:17Z</time>
      </trkpt>
      <trkpt lat="47.93776" lon="-2.48685">
        <ele>85</ele>
        <time>2024-12-19T09:24:18Z</time>
      </trkpt>
      <trkpt lat="47.93776" lon="-2.48685">
        <ele>85</ele>
        <time>2024-12-19T09:24:19Z</time>
      </trkpt>
      <trkpt lat="47.93776" lon="-2.48685">
        <ele>85</ele>
        <time>2024-12-19T09:24:21Z</time>
      </trkpt>
      <trkpt lat="47.93776" lon="-2.48686">
        <ele>85</ele>
        <time>2024-12-19T09:24:22Z</time>
      </trkpt>
      <trkpt lat="47.93776" lon="-2.48686">
        <ele>85</ele>
        <time>2024-12-19T09:24:23Z</time>
      </trkpt>
      <trkpt lat="47.93776" lon="-2.48687">
        <ele>85</ele>
        <time>2024-12-19T09:24:24Z</time>
      </trkpt>
      <trkpt lat="47.93776" lon="-2.48687">
        <ele>85.1</ele>
        <time>2024-12-19T09:24:25Z</time>
      </trkpt>
      <trkpt lat="47.93776" lon="-2.48687">
        <ele>85.1</ele>
        <time>2024-12-19T09:24:26Z</time>
      </trkpt>
      <trkpt lat="47.93776" lon="-2.48687">
        <ele>85.1</ele>
        <time>2024-12-19T09:24:27Z</time>
      </trkpt>
      <trkpt lat="47.93776" lon="-2.48687">
        <ele>85.1</ele>
        <time>2024-12-19T09:24:28Z</time>
      </trkpt>
      <trkpt lat="47.93776" lon="-2.48687">
        <ele>85.1</ele>
        <time>2024-12-19T09:24:29Z</time>
      </trkpt>
      <trkpt lat="47.93776" lon="-2.48687">
        <ele>85.1</ele>
        <time>2024-12-19T09:24:30Z</time>
      </trkpt>
      <trkpt lat="47.93776" lon="-2.48687">
        <ele>85.1</ele>
        <time>2024-12-19T09:24:31Z</time>
      </trkpt>
      <trkpt lat="47.93776" lon="-2.48687">
        <ele>85.1</ele>
        <time>2024-12-19T09:24:32Z</time>
      </trkpt>
      <trkpt lat="47.93776" lon="-2.48687">
        <ele>85.1</ele>
        <time>2024-12-19T09:24:33Z</time>
      </trkpt>
      <trkpt lat="47.93776" lon="-2.48687">
        <ele>85.1</ele>
        <time>2024-12-19T09:24:34Z</time>
      </trkpt>
      <trkpt lat="47.93775" lon="-2.48687">
        <ele>85.1</ele>
        <time>2024-12-19T09:24:35Z</time>
      </trkpt>
      <trkpt lat="47.93775" lon="-2.48686">
        <ele>85.1</ele>
        <time>2024-12-19T09:24:36Z</time>
      </trkpt>
      <trkpt lat="47.93775" lon="-2.48686">
        <ele>85.1</ele>
        <time>2024-12-19T09:24:37Z</time>
      </trkpt>
      <trkpt lat="47.93775" lon="-2.48687">
        <ele>85.1</ele>
        <time>2024-12-19T09:24:38Z</time>
      </trkpt>
      <trkpt lat="47.93775" lon="-2.48687">
        <ele>85.1</ele>
        <time>2024-12-19T09:24:39Z</time>
      </trkpt>
      <trkpt lat="47.93775" lon="-2.48687">
        <ele>85.1</ele>
        <time>2024-12-19T09:24:40Z</time>
      </trkpt>
      <trkpt lat="47.93775" lon="-2.48687">
        <ele>85.1</ele>
        <time>2024-12-19T09:24:41Z</time>
      </trkpt>
      <trkpt lat="47.93776" lon="-2.48688">
        <ele>85.1</ele>
        <time>2024-12-19T09:24:42Z</time>
      </trkpt>
      <trkpt lat="47.93775" lon="-2.48688">
        <ele>85.1</ele>
        <time>2024-12-19T09:24:43Z</time>
      </trkpt>
      <trkpt lat="47.93775" lon="-2.48688">
        <ele>85.1</ele>
        <time>2024-12-19T09:24:44Z</time>
      </trkpt>
      <trkpt lat="47.93776" lon="-2.48688">
        <ele>85.1</ele>
        <time>2024-12-19T09:24:45Z</time>
      </trkpt>
      <trkpt lat="47.93776" lon="-2.48688">
        <ele>85.1</ele>
        <time>2024-12-19T09:24:47Z</time>
      </trkpt>
      <trkpt lat="47.93776" lon="-2.48687">
        <ele>85.1</ele>
        <time>2024-12-19T09:24:48Z</time>
      </trkpt>
      <trkpt lat="47.93776" lon="-2.48687">
        <ele>85</ele>
        <time>2024-12-19T09:24:49Z</time>
      </trkpt>
      <trkpt lat="47.93776" lon="-2.48687">
        <ele>85</ele>
        <time>2024-12-19T09:24:50Z</time>
      </trkpt>
      <trkpt lat="47.93776" lon="-2.48687">
        <ele>85</ele>
        <time>2024-12-19T09:24:51Z</time>
      </trkpt>
      <trkpt lat="47.93776" lon="-2.48687">
        <ele>85</ele>
        <time>2024-12-19T09:24:52Z</time>
      </trkpt>
      <trkpt lat="47.93776" lon="-2.48687">
        <ele>85</ele>
        <time>2024-12-19T09:24:53Z</time>
      </trkpt>
      <trkpt lat="47.93776" lon="-2.48687">
        <ele>85</ele>
        <time>2024-12-19T09:24:54Z</time>
      </trkpt>
      <trkpt lat="47.93776" lon="-2.48687">
        <ele>85</ele>
        <time>2024-12-19T09:24:55Z</time>
      </trkpt>
      <trkpt lat="47.93776" lon="-2.48687">
        <ele>85</ele>
        <time>2024-12-19T09:24:56Z</time>
      </trkpt>
      <trkpt lat="47.93776" lon="-2.48687">
        <ele>85</ele>
        <time>2024-12-19T09:24:57Z</time>
      </trkpt>
      <trkpt lat="47.93776" lon="-2.48687">
        <ele>85</ele>
        <time>2024-12-19T09:24:58Z</time>
      </trkpt>
      <trkpt lat="47.93776" lon="-2.48687">
        <ele>85</ele>
        <time>2024-12-19T09:24:59Z</time>
      </trkpt>
      <trkpt lat="47.93776" lon="-2.48687">
        <ele>85</ele>
        <time>2024-12-19T09:25:00Z</time>
      </trkpt>
      <trkpt lat="47.93776" lon="-2.48687">
        <ele>85</ele>
        <time>2024-12-19T09:25:01Z</time>
      </trkpt>
      <trkpt lat="47.93776" lon="-2.48687">
        <ele>85</ele>
        <time>2024-12-19T09:25:02Z</time>
      </trkpt>
      <trkpt lat="47.93776" lon="-2.48687">
        <ele>85</ele>
        <time>2024-12-19T09:25:03Z</time>
      </trkpt>
      <trkpt lat="47.93776" lon="-2.48687">
        <ele>85</ele>
        <time>2024-12-19T09:25:04Z</time>
      </trkpt>
      <trkpt lat="47.93777" lon="-2.48688">
        <ele>85</ele>
        <time>2024-12-19T09:25:05Z</time>
      </trkpt>
      <trkpt lat="47.93777" lon="-2.48688">
        <ele>85</ele>
        <time>2024-12-19T09:25:06Z</time>
      </trkpt>
      <trkpt lat="47.93777" lon="-2.48688">
        <ele>85</ele>
        <time>2024-12-19T09:25:07Z</time>
      </trkpt>
      <trkpt lat="47.93777" lon="-2.48689">
        <ele>85</ele>
        <time>2024-12-19T09:25:08Z</time>
      </trkpt>
      <trkpt lat="47.93777" lon="-2.48689">
        <ele>85</ele>
        <time>2024-12-19T09:25:09Z</time>
      </trkpt>
      <trkpt lat="47.93777" lon="-2.48689">
        <ele>85</ele>
        <time>2024-12-19T09:25:10Z</time>
      </trkpt>
      <trkpt lat="47.93777" lon="-2.48689">
        <ele>85</ele>
        <time>2024-12-19T09:25:11Z</time>
      </trkpt>
      <trkpt lat="47.93777" lon="-2.4869">
        <ele>85</ele>
        <time>2024-12-19T09:25:12Z</time>
      </trkpt>
      <trkpt lat="47.93778" lon="-2.4869">
        <ele>85</ele>
        <time>2024-12-19T09:25:13Z</time>
      </trkpt>
      <trkpt lat="47.93778" lon="-2.4869">
        <ele>85</ele>
        <time>2024-12-19T09:25:14Z</time>
      </trkpt>
      <trkpt lat="47.93778" lon="-2.4869">
        <ele>85</ele>
        <time>2024-12-19T09:25:15Z</time>
      </trkpt>
      <trkpt lat="47.93778" lon="-2.4869">
        <ele>85</ele>
        <time>2024-12-19T09:25:16Z</time>
      </trkpt>
      <trkpt lat="47.93778" lon="-2.4869">
        <ele>85</ele>
        <time>2024-12-19T09:25:17Z</time>
      </trkpt>
      <trkpt lat="47.93778" lon="-2.4869">
        <ele>85</ele>
        <time>2024-12-19T09:25:18Z</time>
      </trkpt>
      <trkpt lat="47.93778" lon="-2.4869">
        <ele>85</ele>
        <time>2024-12-19T09:25:19Z</time>
      </trkpt>
      <trkpt lat="47.93778" lon="-2.4869">
        <ele>85</ele>
        <time>2024-12-19T09:25:20Z</time>
      </trkpt>
      <trkpt lat="47.93778" lon="-2.4869">
        <ele>85</ele>
        <time>2024-12-19T09:25:21Z</time>
      </trkpt>
      <trkpt lat="47.93778" lon="-2.4869">
        <ele>85</ele>
        <time>2024-12-19T09:25:22Z</time>
      </trkpt>
      <trkpt lat="47.93778" lon="-2.4869">
        <ele>85</ele>
        <time>2024-12-19T09:25:23Z</time>
      </trkpt>
      <trkpt lat="47.93778" lon="-2.4869">
        <ele>85</ele>
        <time>2024-12-19T09:25:24Z</time>
      </trkpt>
      <trkpt lat="47.93778" lon="-2.4869">
        <ele>85</ele>
        <time>2024-12-19T09:25:25Z</time>
      </trkpt>
      <trkpt lat="47.93778" lon="-2.4869">
        <ele>85</ele>
        <time>2024-12-19T09:25:26Z</time>
      </trkpt>
      <trkpt lat="47.93778" lon="-2.4869">
        <ele>85</ele>
        <time>2024-12-19T09:25:27Z</time>
      </trkpt>
      <trkpt lat="47.93778" lon="-2.4869">
        <ele>85</ele>
        <time>2024-12-19T09:25:28Z</time>
      </trkpt>
      <trkpt lat="47.93778" lon="-2.4869">
        <ele>85</ele>
        <time>2024-12-19T09:25:29Z</time>
      </trkpt>
      <trkpt lat="47.93778" lon="-2.4869">
        <ele>85</ele>
        <time>2024-12-19T09:25:30Z</time>
      </trkpt>
      <trkpt lat="47.93778" lon="-2.48689">
        <ele>85</ele>
        <time>2024-12-19T09:25:31Z</time>
      </trkpt>
      <trkpt lat="47.93779" lon="-2.48687">
        <ele>85</ele>
        <time>2024-12-19T09:25:32Z</time>
      </trkpt>
      <trkpt lat="47.93779" lon="-2.48686">
        <ele>85</ele>
        <time>2024-12-19T09:25:33Z</time>
      </trkpt>
      <trkpt lat="47.9378" lon="-2.48685">
        <ele>85</ele>
        <time>2024-12-19T09:25:34Z</time>
      </trkpt>
      <trkpt lat="47.93781" lon="-2.48685">
        <ele>85.1</ele>
        <time>2024-12-19T09:25:35Z</time>
      </trkpt>
      <trkpt lat="47.93782" lon="-2.48684">
        <ele>85.1</ele>
        <time>2024-12-19T09:25:36Z</time>
      </trkpt>
      <trkpt lat="47.93784" lon="-2.48684">
        <ele>85.1</ele>
        <time>2024-12-19T09:25:37Z</time>
      </trkpt>
      <trkpt lat="47.93786" lon="-2.48683">
        <ele>85.2</ele>
        <time>2024-12-19T09:25:38Z</time>
      </trkpt>
      <trkpt lat="47.93787" lon="-2.48682">
        <ele>85.2</ele>
        <time>2024-12-19T09:25:39Z</time>
      </trkpt>
      <trkpt lat="47.93788" lon="-2.48681">
        <ele>85.2</ele>
        <time>2024-12-19T09:25:40Z</time>
      </trkpt>
      <trkpt lat="47.9379" lon="-2.4868">
        <ele>85.2</ele>
        <time>2024-12-19T09:25:41Z</time>
      </trkpt>
      <trkpt lat="47.93791" lon="-2.48679">
        <ele>85.2</ele>
        <time>2024-12-19T09:25:42Z</time>
      </trkpt>
      <trkpt lat="47.93792" lon="-2.48678">
        <ele>85.2</ele>
        <time>2024-12-19T09:25:43Z</time>
      </trkpt>
      <trkpt lat="47.93793" lon="-2.48678">
        <ele>85.2</ele>
        <time>2024-12-19T09:25:44Z</time>
      </trkpt>
      <trkpt lat="47.93795" lon="-2.48677">
        <ele>85.2</ele>
        <time>2024-12-19T09:25:45Z</time>
      </trkpt>
      <trkpt lat="47.93796" lon="-2.48676">
        <ele>85.2</ele>
        <time>2024-12-19T09:25:46Z</time>
      </trkpt>
      <trkpt lat="47.93798" lon="-2.48677">
        <ele>85.3</ele>
        <time>2024-12-19T09:25:47Z</time>
      </trkpt>
      <trkpt lat="47.938" lon="-2.48677">
        <ele>85.3</ele>
        <time>2024-12-19T09:25:48Z</time>
      </trkpt>
      <trkpt lat="47.93801" lon="-2.48678">
        <ele>85.3</ele>
        <time>2024-12-19T09:25:49Z</time>
      </trkpt>
      <trkpt lat="47.93802" lon="-2.48679">
        <ele>85.4</ele>
        <time>2024-12-19T09:25:50Z</time>
      </trkpt>
      <trkpt lat="47.93802" lon="-2.4868">
        <ele>85.4</ele>
        <time>2024-12-19T09:25:51Z</time>
      </trkpt>
      <trkpt lat="47.93802" lon="-2.48681">
        <ele>85.5</ele>
        <time>2024-12-19T09:25:52Z</time>
      </trkpt>
      <trkpt lat="47.93801" lon="-2.48682">
        <ele>85.5</ele>
        <time>2024-12-19T09:25:53Z</time>
      </trkpt>
      <trkpt lat="47.93801" lon="-2.48682">
        <ele>85.5</ele>
        <time>2024-12-19T09:25:54Z</time>
      </trkpt>
      <trkpt lat="47.938" lon="-2.48683">
        <ele>85.5</ele>
        <time>2024-12-19T09:25:55Z</time>
      </trkpt>
      <trkpt lat="47.938" lon="-2.48683">
        <ele>85.5</ele>
        <time>2024-12-19T09:25:56Z</time>
      </trkpt>
      <trkpt lat="47.938" lon="-2.48683">
        <ele>85.5</ele>
        <time>2024-12-19T09:25:57Z</time>
      </trkpt>
      <trkpt lat="47.93801" lon="-2.48682">
        <ele>85.5</ele>
        <time>2024-12-19T09:25:58Z</time>
      </trkpt>
      <trkpt lat="47.93801" lon="-2.48683">
        <ele>85.5</ele>
        <time>2024-12-19T09:25:59Z</time>
      </trkpt>
      <trkpt lat="47.93801" lon="-2.48683">
        <ele>85.5</ele>
        <time>2024-12-19T09:26:00Z</time>
      </trkpt>
      <trkpt lat="47.93801" lon="-2.48682">
        <ele>85.5</ele>
        <time>2024-12-19T09:26:01Z</time>
      </trkpt>
      <trkpt lat="47.93801" lon="-2.48682">
        <ele>85.5</ele>
        <time>2024-12-19T09:26:02Z</time>
      </trkpt>
      <trkpt lat="47.93801" lon="-2.48682">
        <ele>85.5</ele>
        <time>2024-12-19T09:26:03Z</time>
      </trkpt>
      <trkpt lat="47.93801" lon="-2.48682">
        <ele>85.5</ele>
        <time>2024-12-19T09:26:04Z</time>
      </trkpt>
      <trkpt lat="47.93801" lon="-2.48682">
        <ele>85.5</ele>
        <time>2024-12-19T09:26:05Z</time>
      </trkpt>
      <trkpt lat="47.93801" lon="-2.48682">
        <ele>85.5</ele>
        <time>2024-12-19T09:26:06Z</time>
      </trkpt>
      <trkpt lat="47.93801" lon="-2.48682">
        <ele>85.5</ele>
        <time>2024-12-19T09:26:07Z</time>
      </trkpt>
      <trkpt lat="47.93801" lon="-2.48682">
        <ele>85.5</ele>
        <time>2024-12-19T09:26:08Z</time>
      </trkpt>
      <trkpt lat="47.93801" lon="-2.48682">
        <ele>85.5</ele>
        <time>2024-12-19T09:26:09Z</time>
      </trkpt>
      <trkpt lat="47.93801" lon="-2.48682">
        <ele>85.5</ele>
        <time>2024-12-19T09:26:10Z</time>
      </trkpt>
      <trkpt lat="47.93801" lon="-2.48682">
        <ele>85.5</ele>
        <time>2024-12-19T09:26:11Z</time>
      </trkpt>
      <trkpt lat="47.93801" lon="-2.48682">
        <ele>85.5</ele>
        <time>2024-12-19T09:26:12Z</time>
      </trkpt>
      <trkpt lat="47.93801" lon="-2.48682">
        <ele>85.5</ele>
        <time>2024-12-19T09:26:13Z</time>
      </trkpt>
      <trkpt lat="47.93801" lon="-2.48682">
        <ele>85.5</ele>
        <time>2024-12-19T09:26:14Z</time>
      </trkpt>
      <trkpt lat="47.93801" lon="-2.48682">
        <ele>85.5</ele>
        <time>2024-12-19T09:26:15Z</time>
      </trkpt>
      <trkpt lat="47.93801" lon="-2.48682">
        <ele>85.5</ele>
        <time>2024-12-19T09:26:16Z</time>
      </trkpt>
      <trkpt lat="47.93801" lon="-2.48682">
        <ele>85.5</ele>
        <time>2024-12-19T09:26:17Z</time>
      </trkpt>
      <trkpt lat="47.93801" lon="-2.48682">
        <ele>85.5</ele>
        <time>2024-12-19T09:26:18Z</time>
      </trkpt>
      <trkpt lat="47.93801" lon="-2.48682">
        <ele>85.5</ele>
        <time>2024-12-19T09:26:19Z</time>
      </trkpt>
      <trkpt lat="47.93801" lon="-2.48682">
        <ele>85.5</ele>
        <time>2024-12-19T09:26:20Z</time>
      </trkpt>
      <trkpt lat="47.93801" lon="-2.48682">
        <ele>85.5</ele>
        <time>2024-12-19T09:26:21Z</time>
      </trkpt>
      <trkpt lat="47.93801" lon="-2.48682">
        <ele>85.5</ele>
        <time>2024-12-19T09:26:22Z</time>
      </trkpt>
      <trkpt lat="47.93801" lon="-2.48682">
        <ele>85.5</ele>
        <time>2024-12-19T09:26:23Z</time>
      </trkpt>
      <trkpt lat="47.93801" lon="-2.48682">
        <ele>85.5</ele>
        <time>2024-12-19T09:26:24Z</time>
      </trkpt>
      <trkpt lat="47.93801" lon="-2.48682">
        <ele>85.5</ele>
        <time>2024-12-19T09:26:25Z</time>
      </trkpt>
      <trkpt lat="47.93801" lon="-2.48682">
        <ele>85.5</ele>
        <time>2024-12-19T09:26:26Z</time>
      </trkpt>
      <trkpt lat="47.93801" lon="-2.48682">
        <ele>85.5</ele>
        <time>2024-12-19T09:26:27Z</time>
      </trkpt>
      <trkpt lat="47.93801" lon="-2.48682">
        <ele>85.5</ele>
        <time>2024-12-19T09:26:28Z</time>
      </trkpt>
      <trkpt lat="47.93801" lon="-2.48682">
        <ele>85.5</ele>
        <time>2024-12-19T09:26:29Z</time>
      </trkpt>
      <trkpt lat="47.93801" lon="-2.48682">
        <ele>85.5</ele>
        <time>2024-12-19T09:26:30Z</time>
      </trkpt>
      <trkpt lat="47.93801" lon="-2.48682">
        <ele>85.5</ele>
        <time>2024-12-19T09:26:31Z</time>
      </trkpt>
      <trkpt lat="47.93801" lon="-2.48682">
        <ele>85.5</ele>
        <time>2024-12-19T09:26:32Z</time>
      </trkpt>
      <trkpt lat="47.93801" lon="-2.48682">
        <ele>85.5</ele>
        <time>2024-12-19T09:26:33Z</time>
      </trkpt>
      <trkpt lat="47.93801" lon="-2.48682">
        <ele>85.5</ele>
        <time>2024-12-19T09:26:34Z</time>
      </trkpt>
      <trkpt lat="47.93801" lon="-2.48682">
        <ele>85.5</ele>
        <time>2024-12-19T09:26:35Z</time>
      </trkpt>
      <trkpt lat="47.93801" lon="-2.48682">
        <ele>85.5</ele>
        <time>2024-12-19T09:26:36Z</time>
      </trkpt>
      <trkpt lat="47.93801" lon="-2.48682">
        <ele>85.5</ele>
        <time>2024-12-19T09:26:37Z</time>
      </trkpt>
      <trkpt lat="47.93801" lon="-2.48682">
        <ele>85.5</ele>
        <time>2024-12-19T09:26:38Z</time>
      </trkpt>
      <trkpt lat="47.93801" lon="-2.48682">
        <ele>85.5</ele>
        <time>2024-12-19T09:26:39Z</time>
      </trkpt>
      <trkpt lat="47.93801" lon="-2.48682">
        <ele>85.5</ele>
        <time>2024-12-19T09:26:40Z</time>
      </trkpt>
      <trkpt lat="47.93801" lon="-2.48682">
        <ele>85.5</ele>
        <time>2024-12-19T09:26:41Z</time>
      </trkpt>
      <trkpt lat="47.93801" lon="-2.48682">
        <ele>85.5</ele>
        <time>2024-12-19T09:26:42Z</time>
      </trkpt>
      <trkpt lat="47.93801" lon="-2.48682">
        <ele>85.5</ele>
        <time>2024-12-19T09:26:43Z</time>
      </trkpt>
      <trkpt lat="47.93801" lon="-2.48682">
        <ele>85.5</ele>
        <time>2024-12-19T09:26:44Z</time>
      </trkpt>
      <trkpt lat="47.93801" lon="-2.48682">
        <ele>85.5</ele>
        <time>2024-12-19T09:26:45Z</time>
      </trkpt>
      <trkpt lat="47.93801" lon="-2.48682">
        <ele>85.5</ele>
        <time>2024-12-19T09:26:46Z</time>
      </trkpt>
      <trkpt lat="47.93801" lon="-2.48682">
        <ele>85.5</ele>
        <time>2024-12-19T09:26:47Z</time>
      </trkpt>
      <trkpt lat="47.93801" lon="-2.48682">
        <ele>85.5</ele>
        <time>2024-12-19T09:26:48Z</time>
      </trkpt>
      <trkpt lat="47.93801" lon="-2.48682">
        <ele>85.5</ele>
        <time>2024-12-19T09:26:49Z</time>
      </trkpt>
      <trkpt lat="47.93801" lon="-2.48682">
        <ele>85.5</ele>
        <time>2024-12-19T09:26:50Z</time>
      </trkpt>
      <trkpt lat="47.93801" lon="-2.48682">
        <ele>85.5</ele>
        <time>2024-12-19T09:26:51Z</time>
      </trkpt>
      <trkpt lat="47.93801" lon="-2.48682">
        <ele>85.5</ele>
        <time>2024-12-19T09:26:52Z</time>
      </trkpt>
      <trkpt lat="47.93801" lon="-2.48682">
        <ele>85.5</ele>
        <time>2024-12-19T09:26:53Z</time>
      </trkpt>
      <trkpt lat="47.93801" lon="-2.48682">
        <ele>85.5</ele>
        <time>2024-12-19T09:26:54Z</time>
      </trkpt>
      <trkpt lat="47.93801" lon="-2.48682">
        <ele>85.5</ele>
        <time>2024-12-19T09:26:55Z</time>
      </trkpt>
      <trkpt lat="47.93801" lon="-2.48682">
        <ele>85.5</ele>
        <time>2024-12-19T09:26:56Z</time>
      </trkpt>
      <trkpt lat="47.93801" lon="-2.48682">
        <ele>85.5</ele>
        <time>2024-12-19T09:26:57Z</time>
      </trkpt>
      <trkpt lat="47.93801" lon="-2.48682">
        <ele>85.5</ele>
        <time>2024-12-19T09:26:58Z</time>
      </trkpt>
      <trkpt lat="47.93801" lon="-2.48682">
        <ele>85.5</ele>
        <time>2024-12-19T09:26:59Z</time>
      </trkpt>
      <trkpt lat="47.93801" lon="-2.48682">
        <ele>85.5</ele>
        <time>2024-12-19T09:27:00Z</time>
      </trkpt>
      <trkpt lat="47.93801" lon="-2.48682">
        <ele>85.5</ele>
        <time>2024-12-19T09:27:01Z</time>
      </trkpt>
      <trkpt lat="47.93801" lon="-2.48682">
        <ele>85.5</ele>
        <time>2024-12-19T09:27:02Z</time>
      </trkpt>
      <trkpt lat="47.93801" lon="-2.48682">
        <ele>85.5</ele>
        <time>2024-12-19T09:27:03Z</time>
      </trkpt>
      <trkpt lat="47.93801" lon="-2.48682">
        <ele>85.5</ele>
        <time>2024-12-19T09:27:04Z</time>
      </trkpt>
      <trkpt lat="47.93801" lon="-2.48682">
        <ele>85.5</ele>
        <time>2024-12-19T09:27:05Z</time>
      </trkpt>
      <trkpt lat="47.93801" lon="-2.48682">
        <ele>85.5</ele>
        <time>2024-12-19T09:27:06Z</time>
      </trkpt>
      <trkpt lat="47.93801" lon="-2.48682">
        <ele>85.5</ele>
        <time>2024-12-19T09:27:07Z</time>
      </trkpt>
      <trkpt lat="47.93802" lon="-2.48681">
        <ele>85.4</ele>
        <time>2024-12-19T09:27:08Z</time>
      </trkpt>
      <trkpt lat="47.93802" lon="-2.4868">
        <ele>85.4</ele>
        <time>2024-12-19T09:27:09Z</time>
      </trkpt>
      <trkpt lat="47.93804" lon="-2.48678">
        <ele>85.4</ele>
        <time>2024-12-19T09:27:10Z</time>
      </trkpt>
      <trkpt lat="47.93805" lon="-2.48677">
        <ele>85.4</ele>
        <time>2024-12-19T09:27:11Z</time>
      </trkpt>
      <trkpt lat="47.93806" lon="-2.48676">
        <ele>85.3</ele>
        <time>2024-12-19T09:27:12Z</time>
      </trkpt>
      <trkpt lat="47.93807" lon="-2.48675">
        <ele>85.3</ele>
        <time>2024-12-19T09:27:13Z</time>
      </trkpt>
      <trkpt lat="47.93808" lon="-2.48674">
        <ele>85.3</ele>
        <time>2024-12-19T09:27:14Z</time>
      </trkpt>
      <trkpt lat="47.93809" lon="-2.48673">
        <ele>85.3</ele>
        <time>2024-12-19T09:27:15Z</time>
      </trkpt>
      <trkpt lat="47.9381" lon="-2.48673">
        <ele>85.4</ele>
        <time>2024-12-19T09:27:16Z</time>
      </trkpt>
      <trkpt lat="47.93811" lon="-2.48674">
        <ele>85.4</ele>
        <time>2024-12-19T09:27:17Z</time>
      </trkpt>
      <trkpt lat="47.93812" lon="-2.48674">
        <ele>85.4</ele>
        <time>2024-12-19T09:27:18Z</time>
      </trkpt>
      <trkpt lat="47.93813" lon="-2.48675">
        <ele>85.5</ele>
        <time>2024-12-19T09:27:19Z</time>
      </trkpt>
      <trkpt lat="47.93814" lon="-2.48676">
        <ele>85.5</ele>
        <time>2024-12-19T09:27:20Z</time>
      </trkpt>
      <trkpt lat="47.93815" lon="-2.48678">
        <ele>85.6</ele>
        <time>2024-12-19T09:27:21Z</time>
      </trkpt>
      <trkpt lat="47.93816" lon="-2.48679">
        <ele>85.7</ele>
        <time>2024-12-19T09:27:22Z</time>
      </trkpt>
      <trkpt lat="47.93817" lon="-2.4868">
        <ele>85.7</ele>
        <time>2024-12-19T09:27:23Z</time>
      </trkpt>
      <trkpt lat="47.93818" lon="-2.48682">
        <ele>85.7</ele>
        <time>2024-12-19T09:27:24Z</time>
      </trkpt>
      <trkpt lat="47.93818" lon="-2.48685">
        <ele>85.8</ele>
        <time>2024-12-19T09:27:25Z</time>
      </trkpt>
      <trkpt lat="47.93819" lon="-2.48688">
        <ele>85.9</ele>
        <time>2024-12-19T09:27:26Z</time>
      </trkpt>
      <trkpt lat="47.93819" lon="-2.4869">
        <ele>85.9</ele>
        <time>2024-12-19T09:27:27Z</time>
      </trkpt>
      <trkpt lat="47.9382" lon="-2.48692">
        <ele>86</ele>
        <time>2024-12-19T09:27:28Z</time>
      </trkpt>
      <trkpt lat="47.9382" lon="-2.48694">
        <ele>86</ele>
        <time>2024-12-19T09:27:29Z</time>
      </trkpt>
      <trkpt lat="47.93821" lon="-2.48695">
        <ele>86</ele>
        <time>2024-12-19T09:27:30Z</time>
      </trkpt>
      <trkpt lat="47.93822" lon="-2.48697">
        <ele>86</ele>
        <time>2024-12-19T09:27:31Z</time>
      </trkpt>
      <trkpt lat="47.93822" lon="-2.48699">
        <ele>86</ele>
        <time>2024-12-19T09:27:32Z</time>
      </trkpt>
      <trkpt lat="47.93823" lon="-2.48701">
        <ele>86</ele>
        <time>2024-12-19T09:27:33Z</time>
      </trkpt>
      <trkpt lat="47.93823" lon="-2.48702">
        <ele>86</ele>
        <time>2024-12-19T09:27:34Z</time>
      </trkpt>
      <trkpt lat="47.93824" lon="-2.48703">
        <ele>86</ele>
        <time>2024-12-19T09:27:35Z</time>
      </trkpt>
      <trkpt lat="47.93824" lon="-2.48705">
        <ele>86</ele>
        <time>2024-12-19T09:27:36Z</time>
      </trkpt>
      <trkpt lat="47.93825" lon="-2.48706">
        <ele>86</ele>
        <time>2024-12-19T09:27:37Z</time>
      </trkpt>
      <trkpt lat="47.93825" lon="-2.48707">
        <ele>86</ele>
        <time>2024-12-19T09:27:38Z</time>
      </trkpt>
      <trkpt lat="47.93825" lon="-2.48708">
        <ele>86</ele>
        <time>2024-12-19T09:27:39Z</time>
      </trkpt>
      <trkpt lat="47.93826" lon="-2.48709">
        <ele>86</ele>
        <time>2024-12-19T09:27:40Z</time>
      </trkpt>
      <trkpt lat="47.93827" lon="-2.48712">
        <ele>86</ele>
        <time>2024-12-19T09:27:41Z</time>
      </trkpt>
      <trkpt lat="47.93827" lon="-2.48714">
        <ele>86</ele>
        <time>2024-12-19T09:27:42Z</time>
      </trkpt>
      <trkpt lat="47.93828" lon="-2.48716">
        <ele>86</ele>
        <time>2024-12-19T09:27:43Z</time>
      </trkpt>
      <trkpt lat="47.93828" lon="-2.48718">
        <ele>86</ele>
        <time>2024-12-19T09:27:44Z</time>
      </trkpt>
      <trkpt lat="47.93828" lon="-2.48721">
        <ele>86</ele>
        <time>2024-12-19T09:27:45Z</time>
      </trkpt>
      <trkpt lat="47.93829" lon="-2.48723">
        <ele>86</ele>
        <time>2024-12-19T09:27:46Z</time>
      </trkpt>
      <trkpt lat="47.9383" lon="-2.48725">
        <ele>85.9</ele>
        <time>2024-12-19T09:27:47Z</time>
      </trkpt>
      <trkpt lat="47.9383" lon="-2.48727">
        <ele>85.8</ele>
        <time>2024-12-19T09:27:48Z</time>
      </trkpt>
      <trkpt lat="47.93831" lon="-2.48729">
        <ele>85.7</ele>
        <time>2024-12-19T09:27:49Z</time>
      </trkpt>
      <trkpt lat="47.93831" lon="-2.48731">
        <ele>85.7</ele>
        <time>2024-12-19T09:27:50Z</time>
      </trkpt>
      <trkpt lat="47.93832" lon="-2.48733">
        <ele>85.6</ele>
        <time>2024-12-19T09:27:51Z</time>
      </trkpt>
      <trkpt lat="47.93833" lon="-2.48735">
        <ele>85.5</ele>
        <time>2024-12-19T09:27:52Z</time>
      </trkpt>
      <trkpt lat="47.93833" lon="-2.48738">
        <ele>85.4</ele>
        <time>2024-12-19T09:27:53Z</time>
      </trkpt>
      <trkpt lat="47.93834" lon="-2.4874">
        <ele>85.3</ele>
        <time>2024-12-19T09:27:54Z</time>
      </trkpt>
      <trkpt lat="47.93834" lon="-2.48743">
        <ele>85.2</ele>
        <time>2024-12-19T09:27:55Z</time>
      </trkpt>
      <trkpt lat="47.93835" lon="-2.48746">
        <ele>85.2</ele>
        <time>2024-12-19T09:27:56Z</time>
      </trkpt>
      <trkpt lat="47.93835" lon="-2.48748">
        <ele>85.1</ele>
        <time>2024-12-19T09:27:57Z</time>
      </trkpt>
      <trkpt lat="47.93836" lon="-2.4875">
        <ele>85</ele>
        <time>2024-12-19T09:27:58Z</time>
      </trkpt>
      <trkpt lat="47.93837" lon="-2.48752">
        <ele>85</ele>
        <time>2024-12-19T09:27:59Z</time>
      </trkpt>
      <trkpt lat="47.93837" lon="-2.48754">
        <ele>85</ele>
        <time>2024-12-19T09:28:00Z</time>
      </trkpt>
      <trkpt lat="47.93837" lon="-2.48755">
        <ele>85</ele>
        <time>2024-12-19T09:28:01Z</time>
      </trkpt>
      <trkpt lat="47.93838" lon="-2.48756">
        <ele>85</ele>
        <time>2024-12-19T09:28:02Z</time>
      </trkpt>
      <trkpt lat="47.93838" lon="-2.48758">
        <ele>85</ele>
        <time>2024-12-19T09:28:03Z</time>
      </trkpt>
      <trkpt lat="47.93839" lon="-2.4876">
        <ele>85</ele>
        <time>2024-12-19T09:28:04Z</time>
      </trkpt>
      <trkpt lat="47.93839" lon="-2.48762">
        <ele>85</ele>
        <time>2024-12-19T09:28:05Z</time>
      </trkpt>
      <trkpt lat="47.9384" lon="-2.48763">
        <ele>85</ele>
        <time>2024-12-19T09:28:06Z</time>
      </trkpt>
      <trkpt lat="47.9384" lon="-2.48765">
        <ele>85</ele>
        <time>2024-12-19T09:28:07Z</time>
      </trkpt>
      <trkpt lat="47.9384" lon="-2.48767">
        <ele>85</ele>
        <time>2024-12-19T09:28:08Z</time>
      </trkpt>
      <trkpt lat="47.93841" lon="-2.48768">
        <ele>85</ele>
        <time>2024-12-19T09:28:09Z</time>
      </trkpt>
      <trkpt lat="47.93842" lon="-2.48773">
        <ele>85</ele>
        <time>2024-12-19T09:28:13Z</time>
      </trkpt>
      <trkpt lat="47.93843" lon="-2.48775">
        <ele>85</ele>
        <time>2024-12-19T09:28:14Z</time>
      </trkpt>
      <trkpt lat="47.93843" lon="-2.48777">
        <ele>85</ele>
        <time>2024-12-19T09:28:15Z</time>
      </trkpt>
      <trkpt lat="47.93844" lon="-2.48778">
        <ele>85</ele>
        <time>2024-12-19T09:28:16Z</time>
      </trkpt>
      <trkpt lat="47.93844" lon="-2.4878">
        <ele>84.9</ele>
        <time>2024-12-19T09:28:17Z</time>
      </trkpt>
      <trkpt lat="47.93844" lon="-2.48783">
        <ele>84.8</ele>
        <time>2024-12-19T09:28:18Z</time>
      </trkpt>
      <trkpt lat="47.93844" lon="-2.48784">
        <ele>84.8</ele>
        <time>2024-12-19T09:28:19Z</time>
      </trkpt>
      <trkpt lat="47.93845" lon="-2.48786">
        <ele>84.7</ele>
        <time>2024-12-19T09:28:20Z</time>
      </trkpt>
      <trkpt lat="47.93845" lon="-2.48788">
        <ele>84.6</ele>
        <time>2024-12-19T09:28:21Z</time>
      </trkpt>
      <trkpt lat="47.93845" lon="-2.4879">
        <ele>84.5</ele>
        <time>2024-12-19T09:28:22Z</time>
      </trkpt>
      <trkpt lat="47.93845" lon="-2.48792">
        <ele>84.5</ele>
        <time>2024-12-19T09:28:23Z</time>
      </trkpt>
      <trkpt lat="47.93845" lon="-2.48794">
        <ele>84.4</ele>
        <time>2024-12-19T09:28:24Z</time>
      </trkpt>
      <trkpt lat="47.93846" lon="-2.48796">
        <ele>84.3</ele>
        <time>2024-12-19T09:28:25Z</time>
      </trkpt>
      <trkpt lat="47.93845" lon="-2.48798">
        <ele>84.3</ele>
        <time>2024-12-19T09:28:26Z</time>
      </trkpt>
      <trkpt lat="47.93845" lon="-2.488">
        <ele>84.2</ele>
        <time>2024-12-19T09:28:27Z</time>
      </trkpt>
      <trkpt lat="47.93845" lon="-2.48801">
        <ele>84.1</ele>
        <time>2024-12-19T09:28:28Z</time>
      </trkpt>
      <trkpt lat="47.93845" lon="-2.48804">
        <ele>84.1</ele>
        <time>2024-12-19T09:28:29Z</time>
      </trkpt>
      <trkpt lat="47.93846" lon="-2.48806">
        <ele>84</ele>
        <time>2024-12-19T09:28:30Z</time>
      </trkpt>
      <trkpt lat="47.93846" lon="-2.48807">
        <ele>84</ele>
        <time>2024-12-19T09:28:31Z</time>
      </trkpt>
      <trkpt lat="47.93846" lon="-2.48809">
        <ele>83.9</ele>
        <time>2024-12-19T09:28:32Z</time>
      </trkpt>
      <trkpt lat="47.93846" lon="-2.4881">
        <ele>83.9</ele>
        <time>2024-12-19T09:28:33Z</time>
      </trkpt>
      <trkpt lat="47.93846" lon="-2.48811">
        <ele>83.9</ele>
        <time>2024-12-19T09:28:34Z</time>
      </trkpt>
      <trkpt lat="47.93846" lon="-2.48812">
        <ele>83.9</ele>
        <time>2024-12-19T09:28:35Z</time>
      </trkpt>
      <trkpt lat="47.93846" lon="-2.48812">
        <ele>83.9</ele>
        <time>2024-12-19T09:28:36Z</time>
      </trkpt>
      <trkpt lat="47.93847" lon="-2.48813">
        <ele>83.9</ele>
        <time>2024-12-19T09:28:37Z</time>
      </trkpt>
      <trkpt lat="47.93849" lon="-2.48813">
        <ele>83.8</ele>
        <time>2024-12-19T09:28:38Z</time>
      </trkpt>
      <trkpt lat="47.9385" lon="-2.48814">
        <ele>83.8</ele>
        <time>2024-12-19T09:28:39Z</time>
      </trkpt>
      <trkpt lat="47.93851" lon="-2.48815">
        <ele>83.8</ele>
        <time>2024-12-19T09:28:40Z</time>
      </trkpt>
      <trkpt lat="47.93852" lon="-2.48816">
        <ele>83.8</ele>
        <time>2024-12-19T09:28:41Z</time>
      </trkpt>
      <trkpt lat="47.93853" lon="-2.48817">
        <ele>83.7</ele>
        <time>2024-12-19T09:28:42Z</time>
      </trkpt>
      <trkpt lat="47.93854" lon="-2.48818">
        <ele>83.7</ele>
        <time>2024-12-19T09:28:43Z</time>
      </trkpt>
      <trkpt lat="47.93854" lon="-2.4882">
        <ele>83.6</ele>
        <time>2024-12-19T09:28:44Z</time>
      </trkpt>
      <trkpt lat="47.93855" lon="-2.48822">
        <ele>83.6</ele>
        <time>2024-12-19T09:28:45Z</time>
      </trkpt>
      <trkpt lat="47.93856" lon="-2.48823">
        <ele>83.5</ele>
        <time>2024-12-19T09:28:46Z</time>
      </trkpt>
      <trkpt lat="47.93857" lon="-2.48823">
        <ele>83.5</ele>
        <time>2024-12-19T09:28:47Z</time>
      </trkpt>
      <trkpt lat="47.93857" lon="-2.48823">
        <ele>83.5</ele>
        <time>2024-12-19T09:28:48Z</time>
      </trkpt>
      <trkpt lat="47.93858" lon="-2.48824">
        <ele>83.4</ele>
        <time>2024-12-19T09:28:49Z</time>
      </trkpt>
      <trkpt lat="47.9386" lon="-2.48824">
        <ele>83.4</ele>
        <time>2024-12-19T09:28:50Z</time>
      </trkpt>
      <trkpt lat="47.93861" lon="-2.48824">
        <ele>83.3</ele>
        <time>2024-12-19T09:28:51Z</time>
      </trkpt>
      <trkpt lat="47.93862" lon="-2.48824">
        <ele>83.3</ele>
        <time>2024-12-19T09:28:52Z</time>
      </trkpt>
      <trkpt lat="47.93863" lon="-2.48825">
        <ele>83.3</ele>
        <time>2024-12-19T09:28:53Z</time>
      </trkpt>
      <trkpt lat="47.93864" lon="-2.48826">
        <ele>83.3</ele>
        <time>2024-12-19T09:28:54Z</time>
      </trkpt>
      <trkpt lat="47.93865" lon="-2.48826">
        <ele>83.4</ele>
        <time>2024-12-19T09:28:55Z</time>
      </trkpt>
      <trkpt lat="47.93866" lon="-2.48827">
        <ele>83.4</ele>
        <time>2024-12-19T09:28:56Z</time>
      </trkpt>
      <trkpt lat="47.93869" lon="-2.48828">
        <ele>83.4</ele>
        <time>2024-12-19T09:28:57Z</time>
      </trkpt>
      <trkpt lat="47.93871" lon="-2.48829">
        <ele>83.5</ele>
        <time>2024-12-19T09:28:58Z</time>
      </trkpt>
      <trkpt lat="47.93873" lon="-2.48829">
        <ele>83.5</ele>
        <time>2024-12-19T09:28:59Z</time>
      </trkpt>
      <trkpt lat="47.93874" lon="-2.48829">
        <ele>83.6</ele>
        <time>2024-12-19T09:29:00Z</time>
      </trkpt>
      <trkpt lat="47.93876" lon="-2.4883">
        <ele>83.6</ele>
        <time>2024-12-19T09:29:01Z</time>
      </trkpt>
      <trkpt lat="47.93877" lon="-2.4883">
        <ele>83.6</ele>
        <time>2024-12-19T09:29:02Z</time>
      </trkpt>
      <trkpt lat="47.93879" lon="-2.4883">
        <ele>83.7</ele>
        <time>2024-12-19T09:29:03Z</time>
      </trkpt>
      <trkpt lat="47.93881" lon="-2.48831">
        <ele>83.7</ele>
        <time>2024-12-19T09:29:04Z</time>
      </trkpt>
      <trkpt lat="47.93882" lon="-2.4883">
        <ele>83.8</ele>
        <time>2024-12-19T09:29:05Z</time>
      </trkpt>
      <trkpt lat="47.93883" lon="-2.48829">
        <ele>83.8</ele>
        <time>2024-12-19T09:29:06Z</time>
      </trkpt>
      <trkpt lat="47.93883" lon="-2.48829">
        <ele>83.8</ele>
        <time>2024-12-19T09:29:07Z</time>
      </trkpt>
      <trkpt lat="47.93883" lon="-2.48829">
        <ele>83.8</ele>
        <time>2024-12-19T09:29:08Z</time>
      </trkpt>
      <trkpt lat="47.93885" lon="-2.48829">
        <ele>83.9</ele>
        <time>2024-12-19T09:29:09Z</time>
      </trkpt>
      <trkpt lat="47.93886" lon="-2.48829">
        <ele>83.9</ele>
        <time>2024-12-19T09:29:10Z</time>
      </trkpt>
      <trkpt lat="47.93888" lon="-2.48829">
        <ele>84</ele>
        <time>2024-12-19T09:29:11Z</time>
      </trkpt>
      <trkpt lat="47.9389" lon="-2.48829">
        <ele>84</ele>
        <time>2024-12-19T09:29:12Z</time>
      </trkpt>
      <trkpt lat="47.93891" lon="-2.4883">
        <ele>83.9</ele>
        <time>2024-12-19T09:29:13Z</time>
      </trkpt>
      <trkpt lat="47.93892" lon="-2.4883">
        <ele>83.9</ele>
        <time>2024-12-19T09:29:14Z</time>
      </trkpt>
      <trkpt lat="47.93892" lon="-2.4883">
        <ele>83.9</ele>
        <time>2024-12-19T09:29:15Z</time>
      </trkpt>
      <trkpt lat="47.93892" lon="-2.4883">
        <ele>83.9</ele>
        <time>2024-12-19T09:29:16Z</time>
      </trkpt>
      <trkpt lat="47.93892" lon="-2.4883">
        <ele>83.9</ele>
        <time>2024-12-19T09:29:17Z</time>
      </trkpt>
      <trkpt lat="47.93892" lon="-2.4883">
        <ele>83.9</ele>
        <time>2024-12-19T09:29:18Z</time>
      </trkpt>
      <trkpt lat="47.93892" lon="-2.4883">
        <ele>83.9</ele>
        <time>2024-12-19T09:29:19Z</time>
      </trkpt>
      <trkpt lat="47.93893" lon="-2.4883">
        <ele>83.9</ele>
        <time>2024-12-19T09:29:20Z</time>
      </trkpt>
      <trkpt lat="47.93893" lon="-2.48831">
        <ele>83.9</ele>
        <time>2024-12-19T09:29:21Z</time>
      </trkpt>
      <trkpt lat="47.93893" lon="-2.48831">
        <ele>83.9</ele>
        <time>2024-12-19T09:29:22Z</time>
      </trkpt>
      <trkpt lat="47.93893" lon="-2.48831">
        <ele>83.9</ele>
        <time>2024-12-19T09:29:23Z</time>
      </trkpt>
      <trkpt lat="47.93893" lon="-2.48832">
        <ele>83.9</ele>
        <time>2024-12-19T09:29:24Z</time>
      </trkpt>
      <trkpt lat="47.93892" lon="-2.48832">
        <ele>83.9</ele>
        <time>2024-12-19T09:29:25Z</time>
      </trkpt>
      <trkpt lat="47.93892" lon="-2.48832">
        <ele>83.9</ele>
        <time>2024-12-19T09:29:26Z</time>
      </trkpt>
      <trkpt lat="47.93892" lon="-2.48831">
        <ele>83.9</ele>
        <time>2024-12-19T09:29:27Z</time>
      </trkpt>
      <trkpt lat="47.93892" lon="-2.48831">
        <ele>83.9</ele>
        <time>2024-12-19T09:29:28Z</time>
      </trkpt>
      <trkpt lat="47.93891" lon="-2.48831">
        <ele>83.9</ele>
        <time>2024-12-19T09:29:29Z</time>
      </trkpt>
      <trkpt lat="47.93891" lon="-2.48831">
        <ele>83.9</ele>
        <time>2024-12-19T09:29:30Z</time>
      </trkpt>
      <trkpt lat="47.93892" lon="-2.48831">
        <ele>83.9</ele>
        <time>2024-12-19T09:29:31Z</time>
      </trkpt>
      <trkpt lat="47.93893" lon="-2.48831">
        <ele>83.9</ele>
        <time>2024-12-19T09:29:32Z</time>
      </trkpt>
      <trkpt lat="47.93894" lon="-2.48831">
        <ele>83.8</ele>
        <time>2024-12-19T09:29:33Z</time>
      </trkpt>
      <trkpt lat="47.93895" lon="-2.48831">
        <ele>83.8</ele>
        <time>2024-12-19T09:29:34Z</time>
      </trkpt>
      <trkpt lat="47.93896" lon="-2.4883">
        <ele>83.8</ele>
        <time>2024-12-19T09:29:35Z</time>
      </trkpt>
      <trkpt lat="47.93898" lon="-2.4883">
        <ele>83.7</ele>
        <time>2024-12-19T09:29:36Z</time>
      </trkpt>
      <trkpt lat="47.93899" lon="-2.48829">
        <ele>83.7</ele>
        <time>2024-12-19T09:29:37Z</time>
      </trkpt>
      <trkpt lat="47.939" lon="-2.48828">
        <ele>83.7</ele>
        <time>2024-12-19T09:29:38Z</time>
      </trkpt>
      <trkpt lat="47.93901" lon="-2.48828">
        <ele>83.6</ele>
        <time>2024-12-19T09:29:39Z</time>
      </trkpt>
      <trkpt lat="47.93903" lon="-2.48828">
        <ele>83.6</ele>
        <time>2024-12-19T09:29:40Z</time>
      </trkpt>
      <trkpt lat="47.93904" lon="-2.48828">
        <ele>83.6</ele>
        <time>2024-12-19T09:29:41Z</time>
      </trkpt>
      <trkpt lat="47.93905" lon="-2.48828">
        <ele>83.5</ele>
        <time>2024-12-19T09:29:42Z</time>
      </trkpt>
      <trkpt lat="47.93906" lon="-2.48828">
        <ele>83.5</ele>
        <time>2024-12-19T09:29:43Z</time>
      </trkpt>
      <trkpt lat="47.93907" lon="-2.48828">
        <ele>83.5</ele>
        <time>2024-12-19T09:29:44Z</time>
      </trkpt>
      <trkpt lat="47.93908" lon="-2.48827">
        <ele>83.5</ele>
        <time>2024-12-19T09:29:45Z</time>
      </trkpt>
      <trkpt lat="47.93909" lon="-2.48828">
        <ele>83.4</ele>
        <time>2024-12-19T09:29:46Z</time>
      </trkpt>
      <trkpt lat="47.93911" lon="-2.48827">
        <ele>83.4</ele>
        <time>2024-12-19T09:29:47Z</time>
      </trkpt>
      <trkpt lat="47.93912" lon="-2.48827">
        <ele>83.4</ele>
        <time>2024-12-19T09:29:48Z</time>
      </trkpt>
      <trkpt lat="47.93913" lon="-2.48827">
        <ele>83.4</ele>
        <time>2024-12-19T09:29:49Z</time>
      </trkpt>
      <trkpt lat="47.93914" lon="-2.48826">
        <ele>83.3</ele>
        <time>2024-12-19T09:29:50Z</time>
      </trkpt>
      <trkpt lat="47.93915" lon="-2.48826">
        <ele>83.3</ele>
        <time>2024-12-19T09:29:51Z</time>
      </trkpt>
      <trkpt lat="47.93917" lon="-2.48825">
        <ele>83.3</ele>
        <time>2024-12-19T09:29:52Z</time>
      </trkpt>
      <trkpt lat="47.93919" lon="-2.48824">
        <ele>83.3</ele>
        <time>2024-12-19T09:29:53Z</time>
      </trkpt>
      <trkpt lat="47.93921" lon="-2.48823">
        <ele>83.3</ele>
        <time>2024-12-19T09:29:54Z</time>
      </trkpt>
      <trkpt lat="47.93924" lon="-2.48822">
        <ele>83.3</ele>
        <time>2024-12-19T09:29:55Z</time>
      </trkpt>
      <trkpt lat="47.93926" lon="-2.4882">
        <ele>83.3</ele>
        <time>2024-12-19T09:29:56Z</time>
      </trkpt>
      <trkpt lat="47.93929" lon="-2.48819">
        <ele>83.3</ele>
        <time>2024-12-19T09:29:57Z</time>
      </trkpt>
      <trkpt lat="47.93931" lon="-2.48818">
        <ele>83.3</ele>
        <time>2024-12-19T09:29:58Z</time>
      </trkpt>
      <trkpt lat="47.93933" lon="-2.48817">
        <ele>83.2</ele>
        <time>2024-12-19T09:29:59Z</time>
      </trkpt>
      <trkpt lat="47.93935" lon="-2.48816">
        <ele>83.2</ele>
        <time>2024-12-19T09:30:00Z</time>
      </trkpt>
      <trkpt lat="47.93937" lon="-2.48815">
        <ele>83.2</ele>
        <time>2024-12-19T09:30:01Z</time>
      </trkpt>
      <trkpt lat="47.93939" lon="-2.48814">
        <ele>83.1</ele>
        <time>2024-12-19T09:30:02Z</time>
      </trkpt>
      <trkpt lat="47.93941" lon="-2.48812">
        <ele>83.1</ele>
        <time>2024-12-19T09:30:03Z</time>
      </trkpt>
      <trkpt lat="47.93943" lon="-2.48811">
        <ele>83.1</ele>
        <time>2024-12-19T09:30:04Z</time>
      </trkpt>
      <trkpt lat="47.93944" lon="-2.48809">
        <ele>83</ele>
        <time>2024-12-19T09:30:05Z</time>
      </trkpt>
      <trkpt lat="47.93945" lon="-2.48808">
        <ele>83</ele>
        <time>2024-12-19T09:30:06Z</time>
      </trkpt>
      <trkpt lat="47.93947" lon="-2.48807">
        <ele>83</ele>
        <time>2024-12-19T09:30:07Z</time>
      </trkpt>
      <trkpt lat="47.93949" lon="-2.48806">
        <ele>83</ele>
        <time>2024-12-19T09:30:08Z</time>
      </trkpt>
      <trkpt lat="47.9395" lon="-2.48805">
        <ele>83</ele>
        <time>2024-12-19T09:30:09Z</time>
      </trkpt>
      <trkpt lat="47.93952" lon="-2.48805">
        <ele>83</ele>
        <time>2024-12-19T09:30:10Z</time>
      </trkpt>
      <trkpt lat="47.93953" lon="-2.48803">
        <ele>83.1</ele>
        <time>2024-12-19T09:30:11Z</time>
      </trkpt>
      <trkpt lat="47.93955" lon="-2.48802">
        <ele>83.1</ele>
        <time>2024-12-19T09:30:12Z</time>
      </trkpt>
      <trkpt lat="47.93956" lon="-2.48801">
        <ele>83.1</ele>
        <time>2024-12-19T09:30:13Z</time>
      </trkpt>
      <trkpt lat="47.93956" lon="-2.48799">
        <ele>83.1</ele>
        <time>2024-12-19T09:30:14Z</time>
      </trkpt>
      <trkpt lat="47.93957" lon="-2.48798">
        <ele>83.1</ele>
        <time>2024-12-19T09:30:15Z</time>
      </trkpt>
      <trkpt lat="47.93958" lon="-2.48798">
        <ele>83.1</ele>
        <time>2024-12-19T09:30:16Z</time>
      </trkpt>
      <trkpt lat="47.93959" lon="-2.48797">
        <ele>83.1</ele>
        <time>2024-12-19T09:30:17Z</time>
      </trkpt>
      <trkpt lat="47.93961" lon="-2.48797">
        <ele>83.1</ele>
        <time>2024-12-19T09:30:18Z</time>
      </trkpt>
      <trkpt lat="47.93962" lon="-2.48796">
        <ele>83.1</ele>
        <time>2024-12-19T09:30:19Z</time>
      </trkpt>
      <trkpt lat="47.93964" lon="-2.48795">
        <ele>83.1</ele>
        <time>2024-12-19T09:30:20Z</time>
      </trkpt>
      <trkpt lat="47.93965" lon="-2.48795">
        <ele>83.1</ele>
        <time>2024-12-19T09:30:21Z</time>
      </trkpt>
      <trkpt lat="47.93966" lon="-2.48794">
        <ele>83.1</ele>
        <time>2024-12-19T09:30:22Z</time>
      </trkpt>
      <trkpt lat="47.93968" lon="-2.48793">
        <ele>83.1</ele>
        <time>2024-12-19T09:30:23Z</time>
      </trkpt>
      <trkpt lat="47.93969" lon="-2.48793">
        <ele>83.1</ele>
        <time>2024-12-19T09:30:24Z</time>
      </trkpt>
      <trkpt lat="47.9397" lon="-2.48792">
        <ele>83</ele>
        <time>2024-12-19T09:30:25Z</time>
      </trkpt>
      <trkpt lat="47.93972" lon="-2.48792">
        <ele>83</ele>
        <time>2024-12-19T09:30:26Z</time>
      </trkpt>
      <trkpt lat="47.93973" lon="-2.48792">
        <ele>83</ele>
        <time>2024-12-19T09:30:27Z</time>
      </trkpt>
      <trkpt lat="47.93974" lon="-2.48792">
        <ele>83</ele>
        <time>2024-12-19T09:30:28Z</time>
      </trkpt>
      <trkpt lat="47.93975" lon="-2.48792">
        <ele>83</ele>
        <time>2024-12-19T09:30:29Z</time>
      </trkpt>
      <trkpt lat="47.93976" lon="-2.48792">
        <ele>83</ele>
        <time>2024-12-19T09:30:30Z</time>
      </trkpt>
      <trkpt lat="47.93977" lon="-2.48792">
        <ele>83</ele>
        <time>2024-12-19T09:30:31Z</time>
      </trkpt>
      <trkpt lat="47.93978" lon="-2.48791">
        <ele>83</ele>
        <time>2024-12-19T09:30:32Z</time>
      </trkpt>
      <trkpt lat="47.9398" lon="-2.4879">
        <ele>83</ele>
        <time>2024-12-19T09:30:33Z</time>
      </trkpt>
      <trkpt lat="47.93981" lon="-2.48789">
        <ele>83</ele>
        <time>2024-12-19T09:30:34Z</time>
      </trkpt>
      <trkpt lat="47.93983" lon="-2.48788">
        <ele>83</ele>
        <time>2024-12-19T09:30:35Z</time>
      </trkpt>
      <trkpt lat="47.93984" lon="-2.48788">
        <ele>83</ele>
        <time>2024-12-19T09:30:36Z</time>
      </trkpt>
      <trkpt lat="47.93984" lon="-2.48787">
        <ele>83</ele>
        <time>2024-12-19T09:30:37Z</time>
      </trkpt>
      <trkpt lat="47.93985" lon="-2.48787">
        <ele>83</ele>
        <time>2024-12-19T09:30:38Z</time>
      </trkpt>
      <trkpt lat="47.93985" lon="-2.48787">
        <ele>83</ele>
        <time>2024-12-19T09:30:39Z</time>
      </trkpt>
      <trkpt lat="47.93986" lon="-2.48785">
        <ele>83</ele>
        <time>2024-12-19T09:30:40Z</time>
      </trkpt>
      <trkpt lat="47.93988" lon="-2.48783">
        <ele>83</ele>
        <time>2024-12-19T09:30:41Z</time>
      </trkpt>
      <trkpt lat="47.9399" lon="-2.48782">
        <ele>83</ele>
        <time>2024-12-19T09:30:42Z</time>
      </trkpt>
      <trkpt lat="47.93992" lon="-2.48781">
        <ele>83</ele>
        <time>2024-12-19T09:30:43Z</time>
      </trkpt>
      <trkpt lat="47.93994" lon="-2.4878">
        <ele>83</ele>
        <time>2024-12-19T09:30:44Z</time>
      </trkpt>
      <trkpt lat="47.93996" lon="-2.48779">
        <ele>83</ele>
        <time>2024-12-19T09:30:45Z</time>
      </trkpt>
      <trkpt lat="47.93997" lon="-2.48777">
        <ele>83</ele>
        <time>2024-12-19T09:30:46Z</time>
      </trkpt>
      <trkpt lat="47.93998" lon="-2.48776">
        <ele>83.1</ele>
        <time>2024-12-19T09:30:47Z</time>
      </trkpt>
      <trkpt lat="47.93998" lon="-2.48775">
        <ele>83.1</ele>
        <time>2024-12-19T09:30:48Z</time>
      </trkpt>
      <trkpt lat="47.93999" lon="-2.48774">
        <ele>83.1</ele>
        <time>2024-12-19T09:30:49Z</time>
      </trkpt>
      <trkpt lat="47.94" lon="-2.48773">
        <ele>83.2</ele>
        <time>2024-12-19T09:30:50Z</time>
      </trkpt>
      <trkpt lat="47.94" lon="-2.48771">
        <ele>83.2</ele>
        <time>2024-12-19T09:30:51Z</time>
      </trkpt>
      <trkpt lat="47.94" lon="-2.48769">
        <ele>83.3</ele>
        <time>2024-12-19T09:30:52Z</time>
      </trkpt>
      <trkpt lat="47.93999" lon="-2.48767">
        <ele>83.4</ele>
        <time>2024-12-19T09:30:53Z</time>
      </trkpt>
      <trkpt lat="47.93999" lon="-2.48765">
        <ele>83.5</ele>
        <time>2024-12-19T09:30:54Z</time>
      </trkpt>
      <trkpt lat="47.93998" lon="-2.48763">
        <ele>83.5</ele>
        <time>2024-12-19T09:30:55Z</time>
      </trkpt>
      <trkpt lat="47.93997" lon="-2.48761">
        <ele>83.5</ele>
        <time>2024-12-19T09:30:56Z</time>
      </trkpt>
      <trkpt lat="47.93997" lon="-2.4876">
        <ele>83.6</ele>
        <time>2024-12-19T09:30:57Z</time>
      </trkpt>
      <trkpt lat="47.93997" lon="-2.48758">
        <ele>83.6</ele>
        <time>2024-12-19T09:30:58Z</time>
      </trkpt>
      <trkpt lat="47.93996" lon="-2.48756">
        <ele>83.7</ele>
        <time>2024-12-19T09:30:59Z</time>
      </trkpt>
      <trkpt lat="47.93995" lon="-2.48754">
        <ele>83.7</ele>
        <time>2024-12-19T09:31:00Z</time>
      </trkpt>
      <trkpt lat="47.93994" lon="-2.48751">
        <ele>83.8</ele>
        <time>2024-12-19T09:31:01Z</time>
      </trkpt>
      <trkpt lat="47.93995" lon="-2.4875">
        <ele>83.8</ele>
        <time>2024-12-19T09:31:02Z</time>
      </trkpt>
      <trkpt lat="47.93995" lon="-2.48747">
        <ele>83.8</ele>
        <time>2024-12-19T09:31:03Z</time>
      </trkpt>
      <trkpt lat="47.93994" lon="-2.48745">
        <ele>83.8</ele>
        <time>2024-12-19T09:31:04Z</time>
      </trkpt>
      <trkpt lat="47.93994" lon="-2.48743">
        <ele>83.8</ele>
        <time>2024-12-19T09:31:05Z</time>
      </trkpt>
      <trkpt lat="47.93994" lon="-2.48741">
        <ele>83.8</ele>
        <time>2024-12-19T09:31:06Z</time>
      </trkpt>
      <trkpt lat="47.93994" lon="-2.48739">
        <ele>83.9</ele>
        <time>2024-12-19T09:31:07Z</time>
      </trkpt>
      <trkpt lat="47.93995" lon="-2.48738">
        <ele>83.9</ele>
        <time>2024-12-19T09:31:08Z</time>
      </trkpt>
      <trkpt lat="47.93995" lon="-2.48738">
        <ele>83.9</ele>
        <time>2024-12-19T09:31:09Z</time>
      </trkpt>
      <trkpt lat="47.93996" lon="-2.48736">
        <ele>83.9</ele>
        <time>2024-12-19T09:31:10Z</time>
      </trkpt>
      <trkpt lat="47.93996" lon="-2.48735">
        <ele>83.9</ele>
        <time>2024-12-19T09:31:11Z</time>
      </trkpt>
      <trkpt lat="47.93996" lon="-2.48733">
        <ele>83.9</ele>
        <time>2024-12-19T09:31:12Z</time>
      </trkpt>
      <trkpt lat="47.93997" lon="-2.48732">
        <ele>84</ele>
        <time>2024-12-19T09:31:13Z</time>
      </trkpt>
      <trkpt lat="47.93997" lon="-2.48731">
        <ele>84</ele>
        <time>2024-12-19T09:31:14Z</time>
      </trkpt>
      <trkpt lat="47.93998" lon="-2.4873">
        <ele>84</ele>
        <time>2024-12-19T09:31:15Z</time>
      </trkpt>
      <trkpt lat="47.93998" lon="-2.48729">
        <ele>84</ele>
        <time>2024-12-19T09:31:16Z</time>
      </trkpt>
      <trkpt lat="47.93997" lon="-2.48727">
        <ele>84</ele>
        <time>2024-12-19T09:31:17Z</time>
      </trkpt>
      <trkpt lat="47.93996" lon="-2.48724">
        <ele>84</ele>
        <time>2024-12-19T09:31:18Z</time>
      </trkpt>
      <trkpt lat="47.93995" lon="-2.48721">
        <ele>84</ele>
        <time>2024-12-19T09:31:19Z</time>
      </trkpt>
      <trkpt lat="47.93995" lon="-2.48718">
        <ele>84</ele>
        <time>2024-12-19T09:31:20Z</time>
      </trkpt>
      <trkpt lat="47.93994" lon="-2.48714">
        <ele>84</ele>
        <time>2024-12-19T09:31:21Z</time>
      </trkpt>
      <trkpt lat="47.93994" lon="-2.48711">
        <ele>84</ele>
        <time>2024-12-19T09:31:22Z</time>
      </trkpt>
      <trkpt lat="47.93994" lon="-2.48709">
        <ele>84</ele>
        <time>2024-12-19T09:31:23Z</time>
      </trkpt>
      <trkpt lat="47.93993" lon="-2.48705">
        <ele>84</ele>
        <time>2024-12-19T09:31:24Z</time>
      </trkpt>
      <trkpt lat="47.93993" lon="-2.48704">
        <ele>84</ele>
        <time>2024-12-19T09:31:25Z</time>
      </trkpt>
      <trkpt lat="47.93993" lon="-2.48702">
        <ele>84</ele>
        <time>2024-12-19T09:31:26Z</time>
      </trkpt>
      <trkpt lat="47.93992" lon="-2.487">
        <ele>84</ele>
        <time>2024-12-19T09:31:27Z</time>
      </trkpt>
      <trkpt lat="47.93992" lon="-2.48697">
        <ele>84</ele>
        <time>2024-12-19T09:31:28Z</time>
      </trkpt>
      <trkpt lat="47.93991" lon="-2.48695">
        <ele>84</ele>
        <time>2024-12-19T09:31:29Z</time>
      </trkpt>
      <trkpt lat="47.9399" lon="-2.48692">
        <ele>84</ele>
        <time>2024-12-19T09:31:30Z</time>
      </trkpt>
      <trkpt lat="47.93989" lon="-2.4869">
        <ele>84</ele>
        <time>2024-12-19T09:31:31Z</time>
      </trkpt>
      <trkpt lat="47.93989" lon="-2.48689">
        <ele>84</ele>
        <time>2024-12-19T09:31:32Z</time>
      </trkpt>
      <trkpt lat="47.93989" lon="-2.48687">
        <ele>84</ele>
        <time>2024-12-19T09:31:33Z</time>
      </trkpt>
      <trkpt lat="47.93988" lon="-2.48687">
        <ele>84</ele>
        <time>2024-12-19T09:31:34Z</time>
      </trkpt>
      <trkpt lat="47.93988" lon="-2.48686">
        <ele>84</ele>
        <time>2024-12-19T09:31:35Z</time>
      </trkpt>
      <trkpt lat="47.93987" lon="-2.48685">
        <ele>84</ele>
        <time>2024-12-19T09:31:36Z</time>
      </trkpt>
      <trkpt lat="47.93987" lon="-2.48683">
        <ele>84</ele>
        <time>2024-12-19T09:31:37Z</time>
      </trkpt>
      <trkpt lat="47.93987" lon="-2.48681">
        <ele>84</ele>
        <time>2024-12-19T09:31:38Z</time>
      </trkpt>
      <trkpt lat="47.93987" lon="-2.4868">
        <ele>84</ele>
        <time>2024-12-19T09:31:39Z</time>
      </trkpt>
      <trkpt lat="47.93986" lon="-2.48677">
        <ele>84</ele>
        <time>2024-12-19T09:31:40Z</time>
      </trkpt>
      <trkpt lat="47.93986" lon="-2.48675">
        <ele>84</ele>
        <time>2024-12-19T09:31:41Z</time>
      </trkpt>
      <trkpt lat="47.93986" lon="-2.48673">
        <ele>84</ele>
        <time>2024-12-19T09:31:42Z</time>
      </trkpt>
      <trkpt lat="47.93985" lon="-2.4867">
        <ele>84</ele>
        <time>2024-12-19T09:31:43Z</time>
      </trkpt>
      <trkpt lat="47.93985" lon="-2.48669">
        <ele>84</ele>
        <time>2024-12-19T09:31:44Z</time>
      </trkpt>
      <trkpt lat="47.93985" lon="-2.48667">
        <ele>84</ele>
        <time>2024-12-19T09:31:45Z</time>
      </trkpt>
      <trkpt lat="47.93985" lon="-2.48665">
        <ele>84</ele>
        <time>2024-12-19T09:31:46Z</time>
      </trkpt>
      <trkpt lat="47.93984" lon="-2.48662">
        <ele>84</ele>
        <time>2024-12-19T09:31:47Z</time>
      </trkpt>
      <trkpt lat="47.93984" lon="-2.48657">
        <ele>84</ele>
        <time>2024-12-19T09:31:49Z</time>
      </trkpt>
      <trkpt lat="47.93984" lon="-2.48654">
        <ele>84</ele>
        <time>2024-12-19T09:31:50Z</time>
      </trkpt>
      <trkpt lat="47.93984" lon="-2.48652">
        <ele>84</ele>
        <time>2024-12-19T09:31:51Z</time>
      </trkpt>
      <trkpt lat="47.93984" lon="-2.4865">
        <ele>84</ele>
        <time>2024-12-19T09:31:52Z</time>
      </trkpt>
      <trkpt lat="47.93983" lon="-2.48649">
        <ele>84</ele>
        <time>2024-12-19T09:31:53Z</time>
      </trkpt>
      <trkpt lat="47.93983" lon="-2.48648">
        <ele>84</ele>
        <time>2024-12-19T09:31:54Z</time>
      </trkpt>
      <trkpt lat="47.93983" lon="-2.48646">
        <ele>84</ele>
        <time>2024-12-19T09:31:55Z</time>
      </trkpt>
      <trkpt lat="47.93983" lon="-2.48644">
        <ele>84</ele>
        <time>2024-12-19T09:31:56Z</time>
      </trkpt>
      <trkpt lat="47.93982" lon="-2.48642">
        <ele>84</ele>
        <time>2024-12-19T09:31:57Z</time>
      </trkpt>
      <trkpt lat="47.93982" lon="-2.4864">
        <ele>84</ele>
        <time>2024-12-19T09:31:58Z</time>
      </trkpt>
      <trkpt lat="47.93982" lon="-2.48638">
        <ele>84</ele>
        <time>2024-12-19T09:31:59Z</time>
      </trkpt>
      <trkpt lat="47.93982" lon="-2.48636">
        <ele>84</ele>
        <time>2024-12-19T09:32:00Z</time>
      </trkpt>
      <trkpt lat="47.93981" lon="-2.48635">
        <ele>84</ele>
        <time>2024-12-19T09:32:01Z</time>
      </trkpt>
      <trkpt lat="47.93981" lon="-2.48633">
        <ele>84.1</ele>
        <time>2024-12-19T09:32:02Z</time>
      </trkpt>
      <trkpt lat="47.93981" lon="-2.4863">
        <ele>84.1</ele>
        <time>2024-12-19T09:32:03Z</time>
      </trkpt>
      <trkpt lat="47.9398" lon="-2.48627">
        <ele>84.1</ele>
        <time>2024-12-19T09:32:04Z</time>
      </trkpt>
      <trkpt lat="47.9398" lon="-2.48624">
        <ele>84.2</ele>
        <time>2024-12-19T09:32:05Z</time>
      </trkpt>
      <trkpt lat="47.9398" lon="-2.48622">
        <ele>84.2</ele>
        <time>2024-12-19T09:32:06Z</time>
      </trkpt>
      <trkpt lat="47.9398" lon="-2.48619">
        <ele>84.2</ele>
        <time>2024-12-19T09:32:07Z</time>
      </trkpt>
      <trkpt lat="47.93979" lon="-2.48617">
        <ele>84.2</ele>
        <time>2024-12-19T09:32:08Z</time>
      </trkpt>
      <trkpt lat="47.93979" lon="-2.48615">
        <ele>84.2</ele>
        <time>2024-12-19T09:32:09Z</time>
      </trkpt>
      <trkpt lat="47.93979" lon="-2.48614">
        <ele>84.2</ele>
        <time>2024-12-19T09:32:10Z</time>
      </trkpt>
      <trkpt lat="47.9398" lon="-2.48612">
        <ele>84.3</ele>
        <time>2024-12-19T09:32:11Z</time>
      </trkpt>
      <trkpt lat="47.9398" lon="-2.48611">
        <ele>84.3</ele>
        <time>2024-12-19T09:32:12Z</time>
      </trkpt>
      <trkpt lat="47.93979" lon="-2.48609">
        <ele>84.3</ele>
        <time>2024-12-19T09:32:13Z</time>
      </trkpt>
      <trkpt lat="47.93979" lon="-2.48607">
        <ele>84.3</ele>
        <time>2024-12-19T09:32:14Z</time>
      </trkpt>
      <trkpt lat="47.93978" lon="-2.48605">
        <ele>84.4</ele>
        <time>2024-12-19T09:32:15Z</time>
      </trkpt>
      <trkpt lat="47.93978" lon="-2.48602">
        <ele>84.5</ele>
        <time>2024-12-19T09:32:16Z</time>
      </trkpt>
      <trkpt lat="47.93977" lon="-2.486">
        <ele>84.5</ele>
        <time>2024-12-19T09:32:17Z</time>
      </trkpt>
      <trkpt lat="47.93977" lon="-2.48598">
        <ele>84.6</ele>
        <time>2024-12-19T09:32:18Z</time>
      </trkpt>
      <trkpt lat="47.93977" lon="-2.48596">
        <ele>84.6</ele>
        <time>2024-12-19T09:32:19Z</time>
      </trkpt>
      <trkpt lat="47.93976" lon="-2.48594">
        <ele>84.7</ele>
        <time>2024-12-19T09:32:20Z</time>
      </trkpt>
      <trkpt lat="47.93976" lon="-2.48592">
        <ele>84.7</ele>
        <time>2024-12-19T09:32:21Z</time>
      </trkpt>
      <trkpt lat="47.93976" lon="-2.4859">
        <ele>84.8</ele>
        <time>2024-12-19T09:32:22Z</time>
      </trkpt>
      <trkpt lat="47.93975" lon="-2.48588">
        <ele>84.8</ele>
        <time>2024-12-19T09:32:23Z</time>
      </trkpt>
      <trkpt lat="47.93975" lon="-2.48586">
        <ele>84.9</ele>
        <time>2024-12-19T09:32:24Z</time>
      </trkpt>
      <trkpt lat="47.93975" lon="-2.48584">
        <ele>85</ele>
        <time>2024-12-19T09:32:25Z</time>
      </trkpt>
      <trkpt lat="47.93974" lon="-2.48581">
        <ele>85</ele>
        <time>2024-12-19T09:32:26Z</time>
      </trkpt>
      <trkpt lat="47.93974" lon="-2.48579">
        <ele>85</ele>
        <time>2024-12-19T09:32:27Z</time>
      </trkpt>
      <trkpt lat="47.93974" lon="-2.48577">
        <ele>85</ele>
        <time>2024-12-19T09:32:28Z</time>
      </trkpt>
      <trkpt lat="47.93974" lon="-2.48576">
        <ele>85</ele>
        <time>2024-12-19T09:32:29Z</time>
      </trkpt>
      <trkpt lat="47.93974" lon="-2.48573">
        <ele>85</ele>
        <time>2024-12-19T09:32:30Z</time>
      </trkpt>
      <trkpt lat="47.93974" lon="-2.48571">
        <ele>85</ele>
        <time>2024-12-19T09:32:31Z</time>
      </trkpt>
      <trkpt lat="47.93974" lon="-2.48569">
        <ele>85</ele>
        <time>2024-12-19T09:32:32Z</time>
      </trkpt>
      <trkpt lat="47.93974" lon="-2.48567">
        <ele>85</ele>
        <time>2024-12-19T09:32:33Z</time>
      </trkpt>
      <trkpt lat="47.93974" lon="-2.48566">
        <ele>85</ele>
        <time>2024-12-19T09:32:34Z</time>
      </trkpt>
      <trkpt lat="47.93973" lon="-2.48563">
        <ele>85</ele>
        <time>2024-12-19T09:32:35Z</time>
      </trkpt>
      <trkpt lat="47.93973" lon="-2.4856">
        <ele>85</ele>
        <time>2024-12-19T09:32:36Z</time>
      </trkpt>
      <trkpt lat="47.93973" lon="-2.48558">
        <ele>85</ele>
        <time>2024-12-19T09:32:37Z</time>
      </trkpt>
      <trkpt lat="47.93973" lon="-2.48557">
        <ele>85</ele>
        <time>2024-12-19T09:32:38Z</time>
      </trkpt>
      <trkpt lat="47.93973" lon="-2.48555">
        <ele>85</ele>
        <time>2024-12-19T09:32:39Z</time>
      </trkpt>
      <trkpt lat="47.93972" lon="-2.48553">
        <ele>85</ele>
        <time>2024-12-19T09:32:40Z</time>
      </trkpt>
      <trkpt lat="47.93971" lon="-2.48549">
        <ele>85</ele>
        <time>2024-12-19T09:32:42Z</time>
      </trkpt>
      <trkpt lat="47.93971" lon="-2.48547">
        <ele>85</ele>
        <time>2024-12-19T09:32:43Z</time>
      </trkpt>
      <trkpt lat="47.93971" lon="-2.48545">
        <ele>85</ele>
        <time>2024-12-19T09:32:44Z</time>
      </trkpt>
      <trkpt lat="47.9397" lon="-2.48543">
        <ele>85</ele>
        <time>2024-12-19T09:32:45Z</time>
      </trkpt>
      <trkpt lat="47.9397" lon="-2.48541">
        <ele>85</ele>
        <time>2024-12-19T09:32:46Z</time>
      </trkpt>
      <trkpt lat="47.9397" lon="-2.48539">
        <ele>85</ele>
        <time>2024-12-19T09:32:47Z</time>
      </trkpt>
      <trkpt lat="47.9397" lon="-2.48537">
        <ele>85</ele>
        <time>2024-12-19T09:32:48Z</time>
      </trkpt>
      <trkpt lat="47.9397" lon="-2.48534">
        <ele>85</ele>
        <time>2024-12-19T09:32:49Z</time>
      </trkpt>
      <trkpt lat="47.93969" lon="-2.48532">
        <ele>85</ele>
        <time>2024-12-19T09:32:50Z</time>
      </trkpt>
      <trkpt lat="47.93969" lon="-2.4853">
        <ele>85</ele>
        <time>2024-12-19T09:32:51Z</time>
      </trkpt>
      <trkpt lat="47.93969" lon="-2.48527">
        <ele>85</ele>
        <time>2024-12-19T09:32:52Z</time>
      </trkpt>
      <trkpt lat="47.93968" lon="-2.48525">
        <ele>85</ele>
        <time>2024-12-19T09:32:53Z</time>
      </trkpt>
      <trkpt lat="47.93968" lon="-2.48523">
        <ele>85</ele>
        <time>2024-12-19T09:32:54Z</time>
      </trkpt>
      <trkpt lat="47.93968" lon="-2.48521">
        <ele>85</ele>
        <time>2024-12-19T09:32:55Z</time>
      </trkpt>
      <trkpt lat="47.93968" lon="-2.48519">
        <ele>85</ele>
        <time>2024-12-19T09:32:56Z</time>
      </trkpt>
      <trkpt lat="47.93968" lon="-2.48518">
        <ele>84.9</ele>
        <time>2024-12-19T09:32:57Z</time>
      </trkpt>
      <trkpt lat="47.93968" lon="-2.48517">
        <ele>84.9</ele>
        <time>2024-12-19T09:32:58Z</time>
      </trkpt>
      <trkpt lat="47.93968" lon="-2.48515">
        <ele>84.9</ele>
        <time>2024-12-19T09:32:59Z</time>
      </trkpt>
      <trkpt lat="47.93968" lon="-2.48513">
        <ele>84.9</ele>
        <time>2024-12-19T09:33:00Z</time>
      </trkpt>
      <trkpt lat="47.93968" lon="-2.48511">
        <ele>84.9</ele>
        <time>2024-12-19T09:33:01Z</time>
      </trkpt>
      <trkpt lat="47.93967" lon="-2.4851">
        <ele>84.9</ele>
        <time>2024-12-19T09:33:02Z</time>
      </trkpt>
      <trkpt lat="47.93967" lon="-2.48508">
        <ele>84.9</ele>
        <time>2024-12-19T09:33:03Z</time>
      </trkpt>
      <trkpt lat="47.93967" lon="-2.48507">
        <ele>84.9</ele>
        <time>2024-12-19T09:33:04Z</time>
      </trkpt>
      <trkpt lat="47.93967" lon="-2.48505">
        <ele>84.9</ele>
        <time>2024-12-19T09:33:05Z</time>
      </trkpt>
      <trkpt lat="47.93968" lon="-2.48503">
        <ele>84.9</ele>
        <time>2024-12-19T09:33:06Z</time>
      </trkpt>
      <trkpt lat="47.93968" lon="-2.48502">
        <ele>84.9</ele>
        <time>2024-12-19T09:33:07Z</time>
      </trkpt>
      <trkpt lat="47.93968" lon="-2.48501">
        <ele>84.9</ele>
        <time>2024-12-19T09:33:08Z</time>
      </trkpt>
      <trkpt lat="47.93968" lon="-2.485">
        <ele>84.8</ele>
        <time>2024-12-19T09:33:09Z</time>
      </trkpt>
      <trkpt lat="47.93968" lon="-2.48498">
        <ele>84.8</ele>
        <time>2024-12-19T09:33:10Z</time>
      </trkpt>
      <trkpt lat="47.93967" lon="-2.48497">
        <ele>84.8</ele>
        <time>2024-12-19T09:33:11Z</time>
      </trkpt>
      <trkpt lat="47.93967" lon="-2.48495">
        <ele>84.9</ele>
        <time>2024-12-19T09:33:12Z</time>
      </trkpt>
      <trkpt lat="47.93968" lon="-2.48494">
        <ele>84.9</ele>
        <time>2024-12-19T09:33:13Z</time>
      </trkpt>
      <trkpt lat="47.93968" lon="-2.48493">
        <ele>84.9</ele>
        <time>2024-12-19T09:33:14Z</time>
      </trkpt>
      <trkpt lat="47.93968" lon="-2.48492">
        <ele>84.9</ele>
        <time>2024-12-19T09:33:15Z</time>
      </trkpt>
      <trkpt lat="47.93968" lon="-2.4849">
        <ele>84.9</ele>
        <time>2024-12-19T09:33:16Z</time>
      </trkpt>
      <trkpt lat="47.93969" lon="-2.48488">
        <ele>84.9</ele>
        <time>2024-12-19T09:33:17Z</time>
      </trkpt>
      <trkpt lat="47.93968" lon="-2.48487">
        <ele>84.9</ele>
        <time>2024-12-19T09:33:18Z</time>
      </trkpt>
      <trkpt lat="47.93968" lon="-2.48485">
        <ele>84.9</ele>
        <time>2024-12-19T09:33:19Z</time>
      </trkpt>
      <trkpt lat="47.93968" lon="-2.48484">
        <ele>84.9</ele>
        <time>2024-12-19T09:33:20Z</time>
      </trkpt>
      <trkpt lat="47.93967" lon="-2.48482">
        <ele>84.9</ele>
        <time>2024-12-19T09:33:21Z</time>
      </trkpt>
      <trkpt lat="47.93967" lon="-2.4848">
        <ele>84.9</ele>
        <time>2024-12-19T09:33:22Z</time>
      </trkpt>
      <trkpt lat="47.93967" lon="-2.48479">
        <ele>85</ele>
        <time>2024-12-19T09:33:23Z</time>
      </trkpt>
      <trkpt lat="47.93967" lon="-2.48477">
        <ele>85</ele>
        <time>2024-12-19T09:33:24Z</time>
      </trkpt>
      <trkpt lat="47.93967" lon="-2.48476">
        <ele>85</ele>
        <time>2024-12-19T09:33:25Z</time>
      </trkpt>
      <trkpt lat="47.93967" lon="-2.48473">
        <ele>85</ele>
        <time>2024-12-19T09:33:26Z</time>
      </trkpt>
      <trkpt lat="47.93966" lon="-2.48471">
        <ele>85</ele>
        <time>2024-12-19T09:33:27Z</time>
      </trkpt>
      <trkpt lat="47.93966" lon="-2.48469">
        <ele>85</ele>
        <time>2024-12-19T09:33:28Z</time>
      </trkpt>
      <trkpt lat="47.93966" lon="-2.48466">
        <ele>84.9</ele>
        <time>2024-12-19T09:33:29Z</time>
      </trkpt>
      <trkpt lat="47.93965" lon="-2.48464">
        <ele>84.9</ele>
        <time>2024-12-19T09:33:30Z</time>
      </trkpt>
      <trkpt lat="47.93965" lon="-2.48462">
        <ele>84.9</ele>
        <time>2024-12-19T09:33:31Z</time>
      </trkpt>
      <trkpt lat="47.93965" lon="-2.4846">
        <ele>84.9</ele>
        <time>2024-12-19T09:33:32Z</time>
      </trkpt>
      <trkpt lat="47.93965" lon="-2.48458">
        <ele>84.9</ele>
        <time>2024-12-19T09:33:33Z</time>
      </trkpt>
      <trkpt lat="47.93964" lon="-2.48456">
        <ele>84.8</ele>
        <time>2024-12-19T09:33:34Z</time>
      </trkpt>
      <trkpt lat="47.93964" lon="-2.48455">
        <ele>84.8</ele>
        <time>2024-12-19T09:33:35Z</time>
      </trkpt>
      <trkpt lat="47.93964" lon="-2.48453">
        <ele>84.8</ele>
        <time>2024-12-19T09:33:36Z</time>
      </trkpt>
      <trkpt lat="47.93964" lon="-2.48451">
        <ele>84.8</ele>
        <time>2024-12-19T09:33:37Z</time>
      </trkpt>
      <trkpt lat="47.93964" lon="-2.48448">
        <ele>84.7</ele>
        <time>2024-12-19T09:33:38Z</time>
      </trkpt>
      <trkpt lat="47.93963" lon="-2.48446">
        <ele>84.7</ele>
        <time>2024-12-19T09:33:39Z</time>
      </trkpt>
      <trkpt lat="47.93963" lon="-2.48444">
        <ele>84.6</ele>
        <time>2024-12-19T09:33:40Z</time>
      </trkpt>
      <trkpt lat="47.93962" lon="-2.48442">
        <ele>84.6</ele>
        <time>2024-12-19T09:33:41Z</time>
      </trkpt>
      <trkpt lat="47.93962" lon="-2.48439">
        <ele>84.6</ele>
        <time>2024-12-19T09:33:42Z</time>
      </trkpt>
      <trkpt lat="47.93961" lon="-2.48437">
        <ele>84.6</ele>
        <time>2024-12-19T09:33:43Z</time>
      </trkpt>
      <trkpt lat="47.93961" lon="-2.48435">
        <ele>84.6</ele>
        <time>2024-12-19T09:33:44Z</time>
      </trkpt>
      <trkpt lat="47.93961" lon="-2.48433">
        <ele>84.6</ele>
        <time>2024-12-19T09:33:45Z</time>
      </trkpt>
      <trkpt lat="47.93961" lon="-2.48432">
        <ele>84.6</ele>
        <time>2024-12-19T09:33:46Z</time>
      </trkpt>
      <trkpt lat="47.93961" lon="-2.4843">
        <ele>84.6</ele>
        <time>2024-12-19T09:33:47Z</time>
      </trkpt>
      <trkpt lat="47.9396" lon="-2.48429">
        <ele>84.6</ele>
        <time>2024-12-19T09:33:48Z</time>
      </trkpt>
      <trkpt lat="47.9396" lon="-2.48427">
        <ele>84.6</ele>
        <time>2024-12-19T09:33:49Z</time>
      </trkpt>
      <trkpt lat="47.9396" lon="-2.48425">
        <ele>84.5</ele>
        <time>2024-12-19T09:33:50Z</time>
      </trkpt>
      <trkpt lat="47.93959" lon="-2.48423">
        <ele>84.5</ele>
        <time>2024-12-19T09:33:51Z</time>
      </trkpt>
      <trkpt lat="47.93959" lon="-2.48421">
        <ele>84.5</ele>
        <time>2024-12-19T09:33:52Z</time>
      </trkpt>
      <trkpt lat="47.93959" lon="-2.48419">
        <ele>84.5</ele>
        <time>2024-12-19T09:33:53Z</time>
      </trkpt>
      <trkpt lat="47.93959" lon="-2.48417">
        <ele>84.5</ele>
        <time>2024-12-19T09:33:54Z</time>
      </trkpt>
      <trkpt lat="47.93959" lon="-2.48415">
        <ele>84.5</ele>
        <time>2024-12-19T09:33:55Z</time>
      </trkpt>
      <trkpt lat="47.93959" lon="-2.48414">
        <ele>84.5</ele>
        <time>2024-12-19T09:33:56Z</time>
      </trkpt>
      <trkpt lat="47.93959" lon="-2.48412">
        <ele>84.5</ele>
        <time>2024-12-19T09:33:57Z</time>
      </trkpt>
      <trkpt lat="47.93959" lon="-2.4841">
        <ele>84.5</ele>
        <time>2024-12-19T09:33:58Z</time>
      </trkpt>
      <trkpt lat="47.93959" lon="-2.48408">
        <ele>84.5</ele>
        <time>2024-12-19T09:33:59Z</time>
      </trkpt>
      <trkpt lat="47.93959" lon="-2.48407">
        <ele>84.5</ele>
        <time>2024-12-19T09:34:00Z</time>
      </trkpt>
      <trkpt lat="47.93958" lon="-2.48405">
        <ele>84.5</ele>
        <time>2024-12-19T09:34:01Z</time>
      </trkpt>
      <trkpt lat="47.93958" lon="-2.48404">
        <ele>84.5</ele>
        <time>2024-12-19T09:34:02Z</time>
      </trkpt>
      <trkpt lat="47.93957" lon="-2.48402">
        <ele>84.5</ele>
        <time>2024-12-19T09:34:03Z</time>
      </trkpt>
      <trkpt lat="47.93957" lon="-2.48401">
        <ele>84.5</ele>
        <time>2024-12-19T09:34:04Z</time>
      </trkpt>
      <trkpt lat="47.93957" lon="-2.48399">
        <ele>84.4</ele>
        <time>2024-12-19T09:34:05Z</time>
      </trkpt>
      <trkpt lat="47.93957" lon="-2.48399">
        <ele>84.5</ele>
        <time>2024-12-19T09:34:06Z</time>
      </trkpt>
      <trkpt lat="47.93957" lon="-2.48398">
        <ele>84.5</ele>
        <time>2024-12-19T09:34:07Z</time>
      </trkpt>
      <trkpt lat="47.93958" lon="-2.48396">
        <ele>84.5</ele>
        <time>2024-12-19T09:34:08Z</time>
      </trkpt>
      <trkpt lat="47.93958" lon="-2.48395">
        <ele>84.5</ele>
        <time>2024-12-19T09:34:09Z</time>
      </trkpt>
      <trkpt lat="47.93958" lon="-2.48393">
        <ele>84.5</ele>
        <time>2024-12-19T09:34:10Z</time>
      </trkpt>
      <trkpt lat="47.93959" lon="-2.48391">
        <ele>84.5</ele>
        <time>2024-12-19T09:34:11Z</time>
      </trkpt>
      <trkpt lat="47.93958" lon="-2.48389">
        <ele>84.5</ele>
        <time>2024-12-19T09:34:12Z</time>
      </trkpt>
      <trkpt lat="47.93958" lon="-2.48388">
        <ele>84.5</ele>
        <time>2024-12-19T09:34:13Z</time>
      </trkpt>
      <trkpt lat="47.93958" lon="-2.48387">
        <ele>84.5</ele>
        <time>2024-12-19T09:34:14Z</time>
      </trkpt>
      <trkpt lat="47.93958" lon="-2.48385">
        <ele>84.6</ele>
        <time>2024-12-19T09:34:15Z</time>
      </trkpt>
      <trkpt lat="47.93958" lon="-2.48383">
        <ele>84.6</ele>
        <time>2024-12-19T09:34:16Z</time>
      </trkpt>
      <trkpt lat="47.93958" lon="-2.48381">
        <ele>84.6</ele>
        <time>2024-12-19T09:34:17Z</time>
      </trkpt>
      <trkpt lat="47.93958" lon="-2.48378">
        <ele>84.7</ele>
        <time>2024-12-19T09:34:18Z</time>
      </trkpt>
      <trkpt lat="47.93957" lon="-2.48376">
        <ele>84.7</ele>
        <time>2024-12-19T09:34:19Z</time>
      </trkpt>
      <trkpt lat="47.93957" lon="-2.48373">
        <ele>84.8</ele>
        <time>2024-12-19T09:34:20Z</time>
      </trkpt>
      <trkpt lat="47.93957" lon="-2.48371">
        <ele>84.8</ele>
        <time>2024-12-19T09:34:21Z</time>
      </trkpt>
      <trkpt lat="47.93957" lon="-2.48368">
        <ele>84.9</ele>
        <time>2024-12-19T09:34:22Z</time>
      </trkpt>
      <trkpt lat="47.93956" lon="-2.48366">
        <ele>84.9</ele>
        <time>2024-12-19T09:34:23Z</time>
      </trkpt>
      <trkpt lat="47.93955" lon="-2.48363">
        <ele>85</ele>
        <time>2024-12-19T09:34:24Z</time>
      </trkpt>
      <trkpt lat="47.93954" lon="-2.4836">
        <ele>85</ele>
        <time>2024-12-19T09:34:25Z</time>
      </trkpt>
      <trkpt lat="47.93953" lon="-2.48357">
        <ele>85</ele>
        <time>2024-12-19T09:34:26Z</time>
      </trkpt>
      <trkpt lat="47.93952" lon="-2.48355">
        <ele>85</ele>
        <time>2024-12-19T09:34:27Z</time>
      </trkpt>
      <trkpt lat="47.93951" lon="-2.48352">
        <ele>85</ele>
        <time>2024-12-19T09:34:28Z</time>
      </trkpt>
      <trkpt lat="47.93951" lon="-2.48349">
        <ele>85</ele>
        <time>2024-12-19T09:34:29Z</time>
      </trkpt>
      <trkpt lat="47.93951" lon="-2.48347">
        <ele>85</ele>
        <time>2024-12-19T09:34:30Z</time>
      </trkpt>
      <trkpt lat="47.93951" lon="-2.48346">
        <ele>85</ele>
        <time>2024-12-19T09:34:31Z</time>
      </trkpt>
      <trkpt lat="47.93951" lon="-2.48344">
        <ele>85</ele>
        <time>2024-12-19T09:34:32Z</time>
      </trkpt>
      <trkpt lat="47.93952" lon="-2.48343">
        <ele>85</ele>
        <time>2024-12-19T09:34:33Z</time>
      </trkpt>
      <trkpt lat="47.93952" lon="-2.48342">
        <ele>85</ele>
        <time>2024-12-19T09:34:34Z</time>
      </trkpt>
      <trkpt lat="47.93952" lon="-2.4834">
        <ele>85</ele>
        <time>2024-12-19T09:34:35Z</time>
      </trkpt>
      <trkpt lat="47.93952" lon="-2.48338">
        <ele>85</ele>
        <time>2024-12-19T09:34:36Z</time>
      </trkpt>
      <trkpt lat="47.93952" lon="-2.48336">
        <ele>85</ele>
        <time>2024-12-19T09:34:37Z</time>
      </trkpt>
      <trkpt lat="47.93951" lon="-2.48334">
        <ele>85</ele>
        <time>2024-12-19T09:34:38Z</time>
      </trkpt>
      <trkpt lat="47.93951" lon="-2.48332">
        <ele>85</ele>
        <time>2024-12-19T09:34:39Z</time>
      </trkpt>
      <trkpt lat="47.93951" lon="-2.4833">
        <ele>85</ele>
        <time>2024-12-19T09:34:40Z</time>
      </trkpt>
      <trkpt lat="47.93951" lon="-2.48328">
        <ele>85</ele>
        <time>2024-12-19T09:34:41Z</time>
      </trkpt>
      <trkpt lat="47.93951" lon="-2.48327">
        <ele>85</ele>
        <time>2024-12-19T09:34:42Z</time>
      </trkpt>
      <trkpt lat="47.93951" lon="-2.48326">
        <ele>85</ele>
        <time>2024-12-19T09:34:43Z</time>
      </trkpt>
      <trkpt lat="47.93951" lon="-2.48324">
        <ele>85</ele>
        <time>2024-12-19T09:34:44Z</time>
      </trkpt>
      <trkpt lat="47.93951" lon="-2.48323">
        <ele>85</ele>
        <time>2024-12-19T09:34:45Z</time>
      </trkpt>
      <trkpt lat="47.93951" lon="-2.48321">
        <ele>85</ele>
        <time>2024-12-19T09:34:46Z</time>
      </trkpt>
      <trkpt lat="47.93951" lon="-2.4832">
        <ele>85</ele>
        <time>2024-12-19T09:34:47Z</time>
      </trkpt>
      <trkpt lat="47.93951" lon="-2.48318">
        <ele>85</ele>
        <time>2024-12-19T09:34:48Z</time>
      </trkpt>
      <trkpt lat="47.9395" lon="-2.48316">
        <ele>85</ele>
        <time>2024-12-19T09:34:49Z</time>
      </trkpt>
      <trkpt lat="47.9395" lon="-2.48314">
        <ele>85</ele>
        <time>2024-12-19T09:34:50Z</time>
      </trkpt>
      <trkpt lat="47.9395" lon="-2.48312">
        <ele>85</ele>
        <time>2024-12-19T09:34:51Z</time>
      </trkpt>
      <trkpt lat="47.9395" lon="-2.4831">
        <ele>85</ele>
        <time>2024-12-19T09:34:52Z</time>
      </trkpt>
      <trkpt lat="47.9395" lon="-2.48308">
        <ele>85</ele>
        <time>2024-12-19T09:34:53Z</time>
      </trkpt>
      <trkpt lat="47.9395" lon="-2.48306">
        <ele>85</ele>
        <time>2024-12-19T09:34:54Z</time>
      </trkpt>
      <trkpt lat="47.9395" lon="-2.48305">
        <ele>85</ele>
        <time>2024-12-19T09:34:55Z</time>
      </trkpt>
      <trkpt lat="47.9395" lon="-2.48303">
        <ele>85</ele>
        <time>2024-12-19T09:34:56Z</time>
      </trkpt>
      <trkpt lat="47.9395" lon="-2.48301">
        <ele>85</ele>
        <time>2024-12-19T09:34:57Z</time>
      </trkpt>
      <trkpt lat="47.9395" lon="-2.48298">
        <ele>85</ele>
        <time>2024-12-19T09:34:58Z</time>
      </trkpt>
      <trkpt lat="47.9395" lon="-2.48296">
        <ele>85</ele>
        <time>2024-12-19T09:34:59Z</time>
      </trkpt>
      <trkpt lat="47.93949" lon="-2.48294">
        <ele>85</ele>
        <time>2024-12-19T09:35:00Z</time>
      </trkpt>
      <trkpt lat="47.93948" lon="-2.48292">
        <ele>85</ele>
        <time>2024-12-19T09:35:01Z</time>
      </trkpt>
      <trkpt lat="47.93947" lon="-2.4829">
        <ele>85</ele>
        <time>2024-12-19T09:35:02Z</time>
      </trkpt>
      <trkpt lat="47.93946" lon="-2.48288">
        <ele>85</ele>
        <time>2024-12-19T09:35:03Z</time>
      </trkpt>
      <trkpt lat="47.93946" lon="-2.48286">
        <ele>85</ele>
        <time>2024-12-19T09:35:04Z</time>
      </trkpt>
      <trkpt lat="47.93946" lon="-2.48284">
        <ele>85</ele>
        <time>2024-12-19T09:35:05Z</time>
      </trkpt>
      <trkpt lat="47.93945" lon="-2.48282">
        <ele>85</ele>
        <time>2024-12-19T09:35:06Z</time>
      </trkpt>
      <trkpt lat="47.93945" lon="-2.4828">
        <ele>85</ele>
        <time>2024-12-19T09:35:07Z</time>
      </trkpt>
      <trkpt lat="47.93945" lon="-2.48278">
        <ele>85</ele>
        <time>2024-12-19T09:35:08Z</time>
      </trkpt>
      <trkpt lat="47.93945" lon="-2.48277">
        <ele>85</ele>
        <time>2024-12-19T09:35:09Z</time>
      </trkpt>
      <trkpt lat="47.93945" lon="-2.48275">
        <ele>85</ele>
        <time>2024-12-19T09:35:10Z</time>
      </trkpt>
      <trkpt lat="47.93945" lon="-2.48273">
        <ele>85</ele>
        <time>2024-12-19T09:35:11Z</time>
      </trkpt>
      <trkpt lat="47.93945" lon="-2.48271">
        <ele>85</ele>
        <time>2024-12-19T09:35:12Z</time>
      </trkpt>
      <trkpt lat="47.93945" lon="-2.48269">
        <ele>85</ele>
        <time>2024-12-19T09:35:13Z</time>
      </trkpt>
      <trkpt lat="47.93944" lon="-2.48266">
        <ele>85</ele>
        <time>2024-12-19T09:35:14Z</time>
      </trkpt>
      <trkpt lat="47.93944" lon="-2.48264">
        <ele>85</ele>
        <time>2024-12-19T09:35:15Z</time>
      </trkpt>
      <trkpt lat="47.93943" lon="-2.48262">
        <ele>85</ele>
        <time>2024-12-19T09:35:16Z</time>
      </trkpt>
      <trkpt lat="47.93943" lon="-2.4826">
        <ele>84.9</ele>
        <time>2024-12-19T09:35:17Z</time>
      </trkpt>
      <trkpt lat="47.93942" lon="-2.48257">
        <ele>84.9</ele>
        <time>2024-12-19T09:35:18Z</time>
      </trkpt>
      <trkpt lat="47.93942" lon="-2.48255">
        <ele>84.9</ele>
        <time>2024-12-19T09:35:19Z</time>
      </trkpt>
      <trkpt lat="47.93942" lon="-2.48253">
        <ele>84.9</ele>
        <time>2024-12-19T09:35:20Z</time>
      </trkpt>
      <trkpt lat="47.93941" lon="-2.48251">
        <ele>84.9</ele>
        <time>2024-12-19T09:35:21Z</time>
      </trkpt>
      <trkpt lat="47.93941" lon="-2.48248">
        <ele>84.9</ele>
        <time>2024-12-19T09:35:22Z</time>
      </trkpt>
      <trkpt lat="47.9394" lon="-2.48246">
        <ele>84.9</ele>
        <time>2024-12-19T09:35:23Z</time>
      </trkpt>
      <trkpt lat="47.9394" lon="-2.48244">
        <ele>84.9</ele>
        <time>2024-12-19T09:35:24Z</time>
      </trkpt>
      <trkpt lat="47.93941" lon="-2.48242">
        <ele>84.9</ele>
        <time>2024-12-19T09:35:25Z</time>
      </trkpt>
      <trkpt lat="47.93941" lon="-2.48239">
        <ele>84.9</ele>
        <time>2024-12-19T09:35:26Z</time>
      </trkpt>
      <trkpt lat="47.93941" lon="-2.48237">
        <ele>84.9</ele>
        <time>2024-12-19T09:35:27Z</time>
      </trkpt>
      <trkpt lat="47.93942" lon="-2.48235">
        <ele>84.9</ele>
        <time>2024-12-19T09:35:28Z</time>
      </trkpt>
      <trkpt lat="47.93943" lon="-2.48233">
        <ele>84.9</ele>
        <time>2024-12-19T09:35:29Z</time>
      </trkpt>
      <trkpt lat="47.93944" lon="-2.48232">
        <ele>85</ele>
        <time>2024-12-19T09:35:30Z</time>
      </trkpt>
      <trkpt lat="47.93945" lon="-2.48231">
        <ele>85</ele>
        <time>2024-12-19T09:35:31Z</time>
      </trkpt>
      <trkpt lat="47.93947" lon="-2.48231">
        <ele>85</ele>
        <time>2024-12-19T09:35:32Z</time>
      </trkpt>
      <trkpt lat="47.93949" lon="-2.4823">
        <ele>85</ele>
        <time>2024-12-19T09:35:33Z</time>
      </trkpt>
      <trkpt lat="47.9395" lon="-2.4823">
        <ele>85</ele>
        <time>2024-12-19T09:35:34Z</time>
      </trkpt>
      <trkpt lat="47.93952" lon="-2.48229">
        <ele>85</ele>
        <time>2024-12-19T09:35:35Z</time>
      </trkpt>
      <trkpt lat="47.93953" lon="-2.48229">
        <ele>85</ele>
        <time>2024-12-19T09:35:36Z</time>
      </trkpt>
      <trkpt lat="47.93955" lon="-2.48229">
        <ele>85</ele>
        <time>2024-12-19T09:35:37Z</time>
      </trkpt>
      <trkpt lat="47.93956" lon="-2.48229">
        <ele>85</ele>
        <time>2024-12-19T09:35:38Z</time>
      </trkpt>
      <trkpt lat="47.93958" lon="-2.48229">
        <ele>85</ele>
        <time>2024-12-19T09:35:39Z</time>
      </trkpt>
      <trkpt lat="47.93958" lon="-2.48229">
        <ele>85</ele>
        <time>2024-12-19T09:35:40Z</time>
      </trkpt>
      <trkpt lat="47.93959" lon="-2.48229">
        <ele>85</ele>
        <time>2024-12-19T09:35:41Z</time>
      </trkpt>
      <trkpt lat="47.9396" lon="-2.4823">
        <ele>85</ele>
        <time>2024-12-19T09:35:42Z</time>
      </trkpt>
      <trkpt lat="47.93961" lon="-2.48229">
        <ele>85</ele>
        <time>2024-12-19T09:35:43Z</time>
      </trkpt>
      <trkpt lat="47.93963" lon="-2.48229">
        <ele>85</ele>
        <time>2024-12-19T09:35:44Z</time>
      </trkpt>
      <trkpt lat="47.93964" lon="-2.48229">
        <ele>85</ele>
        <time>2024-12-19T09:35:45Z</time>
      </trkpt>
      <trkpt lat="47.93966" lon="-2.48229">
        <ele>85</ele>
        <time>2024-12-19T09:35:46Z</time>
      </trkpt>
      <trkpt lat="47.93967" lon="-2.48228">
        <ele>85</ele>
        <time>2024-12-19T09:35:47Z</time>
      </trkpt>
      <trkpt lat="47.93968" lon="-2.48228">
        <ele>85</ele>
        <time>2024-12-19T09:35:48Z</time>
      </trkpt>
      <trkpt lat="47.9397" lon="-2.48228">
        <ele>85</ele>
        <time>2024-12-19T09:35:49Z</time>
      </trkpt>
      <trkpt lat="47.93971" lon="-2.48228">
        <ele>85</ele>
        <time>2024-12-19T09:35:50Z</time>
      </trkpt>
      <trkpt lat="47.93972" lon="-2.48227">
        <ele>85</ele>
        <time>2024-12-19T09:35:51Z</time>
      </trkpt>
      <trkpt lat="47.93973" lon="-2.48227">
        <ele>85</ele>
        <time>2024-12-19T09:35:52Z</time>
      </trkpt>
      <trkpt lat="47.93974" lon="-2.48227">
        <ele>85.1</ele>
        <time>2024-12-19T09:35:53Z</time>
      </trkpt>
      <trkpt lat="47.93975" lon="-2.48227">
        <ele>85.1</ele>
        <time>2024-12-19T09:35:54Z</time>
      </trkpt>
      <trkpt lat="47.93976" lon="-2.48226">
        <ele>85.1</ele>
        <time>2024-12-19T09:35:55Z</time>
      </trkpt>
      <trkpt lat="47.93977" lon="-2.48226">
        <ele>85.2</ele>
        <time>2024-12-19T09:35:56Z</time>
      </trkpt>
      <trkpt lat="47.93979" lon="-2.48225">
        <ele>85.2</ele>
        <time>2024-12-19T09:35:57Z</time>
      </trkpt>
      <trkpt lat="47.9398" lon="-2.48224">
        <ele>85.3</ele>
        <time>2024-12-19T09:35:58Z</time>
      </trkpt>
      <trkpt lat="47.93982" lon="-2.48223">
        <ele>85.3</ele>
        <time>2024-12-19T09:35:59Z</time>
      </trkpt>
      <trkpt lat="47.93983" lon="-2.48222">
        <ele>85.4</ele>
        <time>2024-12-19T09:36:00Z</time>
      </trkpt>
      <trkpt lat="47.93985" lon="-2.48221">
        <ele>85.4</ele>
        <time>2024-12-19T09:36:01Z</time>
      </trkpt>
      <trkpt lat="47.93986" lon="-2.48221">
        <ele>85.5</ele>
        <time>2024-12-19T09:36:02Z</time>
      </trkpt>
      <trkpt lat="47.93986" lon="-2.4822">
        <ele>85.5</ele>
        <time>2024-12-19T09:36:03Z</time>
      </trkpt>
      <trkpt lat="47.93987" lon="-2.48219">
        <ele>85.5</ele>
        <time>2024-12-19T09:36:04Z</time>
      </trkpt>
      <trkpt lat="47.93987" lon="-2.48218">
        <ele>85.5</ele>
        <time>2024-12-19T09:36:05Z</time>
      </trkpt>
      <trkpt lat="47.93988" lon="-2.48217">
        <ele>85.6</ele>
        <time>2024-12-19T09:36:06Z</time>
      </trkpt>
      <trkpt lat="47.93989" lon="-2.48216">
        <ele>85.6</ele>
        <time>2024-12-19T09:36:07Z</time>
      </trkpt>
      <trkpt lat="47.9399" lon="-2.48215">
        <ele>85.6</ele>
        <time>2024-12-19T09:36:08Z</time>
      </trkpt>
      <trkpt lat="47.9399" lon="-2.48213">
        <ele>85.7</ele>
        <time>2024-12-19T09:36:09Z</time>
      </trkpt>
      <trkpt lat="47.9399" lon="-2.48212">
        <ele>85.6</ele>
        <time>2024-12-19T09:36:10Z</time>
      </trkpt>
      <trkpt lat="47.9399" lon="-2.48211">
        <ele>85.6</ele>
        <time>2024-12-19T09:36:11Z</time>
      </trkpt>
      <trkpt lat="47.93989" lon="-2.4821">
        <ele>85.6</ele>
        <time>2024-12-19T09:36:12Z</time>
      </trkpt>
      <trkpt lat="47.93989" lon="-2.48208">
        <ele>85.6</ele>
        <time>2024-12-19T09:36:13Z</time>
      </trkpt>
      <trkpt lat="47.93989" lon="-2.48206">
        <ele>85.6</ele>
        <time>2024-12-19T09:36:14Z</time>
      </trkpt>
      <trkpt lat="47.93988" lon="-2.48204">
        <ele>85.6</ele>
        <time>2024-12-19T09:36:15Z</time>
      </trkpt>
      <trkpt lat="47.93988" lon="-2.48203">
        <ele>85.6</ele>
        <time>2024-12-19T09:36:16Z</time>
      </trkpt>
      <trkpt lat="47.93988" lon="-2.482">
        <ele>85.6</ele>
        <time>2024-12-19T09:36:17Z</time>
      </trkpt>
      <trkpt lat="47.93989" lon="-2.48198">
        <ele>85.6</ele>
        <time>2024-12-19T09:36:18Z</time>
      </trkpt>
      <trkpt lat="47.93988" lon="-2.48196">
        <ele>85.6</ele>
        <time>2024-12-19T09:36:19Z</time>
      </trkpt>
      <trkpt lat="47.93988" lon="-2.48194">
        <ele>85.6</ele>
        <time>2024-12-19T09:36:20Z</time>
      </trkpt>
      <trkpt lat="47.93988" lon="-2.48192">
        <ele>85.6</ele>
        <time>2024-12-19T09:36:21Z</time>
      </trkpt>
      <trkpt lat="47.93988" lon="-2.48191">
        <ele>85.6</ele>
        <time>2024-12-19T09:36:22Z</time>
      </trkpt>
      <trkpt lat="47.93988" lon="-2.48189">
        <ele>85.6</ele>
        <time>2024-12-19T09:36:23Z</time>
      </trkpt>
      <trkpt lat="47.93988" lon="-2.48187">
        <ele>85.6</ele>
        <time>2024-12-19T09:36:24Z</time>
      </trkpt>
      <trkpt lat="47.93988" lon="-2.48185">
        <ele>85.6</ele>
        <time>2024-12-19T09:36:25Z</time>
      </trkpt>
      <trkpt lat="47.93988" lon="-2.48184">
        <ele>85.6</ele>
        <time>2024-12-19T09:36:26Z</time>
      </trkpt>
      <trkpt lat="47.93989" lon="-2.48182">
        <ele>85.6</ele>
        <time>2024-12-19T09:36:27Z</time>
      </trkpt>
      <trkpt lat="47.93989" lon="-2.48181">
        <ele>85.6</ele>
        <time>2024-12-19T09:36:28Z</time>
      </trkpt>
      <trkpt lat="47.93989" lon="-2.48179">
        <ele>85.6</ele>
        <time>2024-12-19T09:36:29Z</time>
      </trkpt>
      <trkpt lat="47.93989" lon="-2.48177">
        <ele>85.6</ele>
        <time>2024-12-19T09:36:30Z</time>
      </trkpt>
      <trkpt lat="47.93989" lon="-2.48174">
        <ele>85.6</ele>
        <time>2024-12-19T09:36:31Z</time>
      </trkpt>
      <trkpt lat="47.93989" lon="-2.48172">
        <ele>85.6</ele>
        <time>2024-12-19T09:36:32Z</time>
      </trkpt>
      <trkpt lat="47.93989" lon="-2.4817">
        <ele>85.6</ele>
        <time>2024-12-19T09:36:33Z</time>
      </trkpt>
      <trkpt lat="47.93988" lon="-2.48168">
        <ele>85.6</ele>
        <time>2024-12-19T09:36:34Z</time>
      </trkpt>
      <trkpt lat="47.93988" lon="-2.48166">
        <ele>85.6</ele>
        <time>2024-12-19T09:36:35Z</time>
      </trkpt>
      <trkpt lat="47.93988" lon="-2.48164">
        <ele>85.6</ele>
        <time>2024-12-19T09:36:36Z</time>
      </trkpt>
      <trkpt lat="47.93988" lon="-2.48161">
        <ele>85.6</ele>
        <time>2024-12-19T09:36:37Z</time>
      </trkpt>
      <trkpt lat="47.93987" lon="-2.48158">
        <ele>85.5</ele>
        <time>2024-12-19T09:36:38Z</time>
      </trkpt>
      <trkpt lat="47.93987" lon="-2.48156">
        <ele>85.5</ele>
        <time>2024-12-19T09:36:39Z</time>
      </trkpt>
      <trkpt lat="47.93987" lon="-2.48154">
        <ele>85.5</ele>
        <time>2024-12-19T09:36:40Z</time>
      </trkpt>
      <trkpt lat="47.93987" lon="-2.48152">
        <ele>85.5</ele>
        <time>2024-12-19T09:36:41Z</time>
      </trkpt>
      <trkpt lat="47.93987" lon="-2.4815">
        <ele>85.5</ele>
        <time>2024-12-19T09:36:42Z</time>
      </trkpt>
      <trkpt lat="47.93987" lon="-2.48148">
        <ele>85.5</ele>
        <time>2024-12-19T09:36:43Z</time>
      </trkpt>
      <trkpt lat="47.93987" lon="-2.48146">
        <ele>85.5</ele>
        <time>2024-12-19T09:36:44Z</time>
      </trkpt>
      <trkpt lat="47.93988" lon="-2.48144">
        <ele>85.6</ele>
        <time>2024-12-19T09:36:45Z</time>
      </trkpt>
      <trkpt lat="47.93988" lon="-2.48142">
        <ele>85.6</ele>
        <time>2024-12-19T09:36:46Z</time>
      </trkpt>
      <trkpt lat="47.93988" lon="-2.48141">
        <ele>85.6</ele>
        <time>2024-12-19T09:36:47Z</time>
      </trkpt>
      <trkpt lat="47.93988" lon="-2.48139">
        <ele>85.6</ele>
        <time>2024-12-19T09:36:48Z</time>
      </trkpt>
      <trkpt lat="47.93988" lon="-2.48137">
        <ele>85.5</ele>
        <time>2024-12-19T09:36:49Z</time>
      </trkpt>
      <trkpt lat="47.93988" lon="-2.48135">
        <ele>85.5</ele>
        <time>2024-12-19T09:36:50Z</time>
      </trkpt>
      <trkpt lat="47.93988" lon="-2.48133">
        <ele>85.4</ele>
        <time>2024-12-19T09:36:51Z</time>
      </trkpt>
      <trkpt lat="47.93987" lon="-2.48131">
        <ele>85.4</ele>
        <time>2024-12-19T09:36:52Z</time>
      </trkpt>
      <trkpt lat="47.93987" lon="-2.48129">
        <ele>85.4</ele>
        <time>2024-12-19T09:36:53Z</time>
      </trkpt>
      <trkpt lat="47.93987" lon="-2.48127">
        <ele>85.3</ele>
        <time>2024-12-19T09:36:54Z</time>
      </trkpt>
      <trkpt lat="47.93987" lon="-2.48126">
        <ele>85.3</ele>
        <time>2024-12-19T09:36:55Z</time>
      </trkpt>
      <trkpt lat="47.93988" lon="-2.48125">
        <ele>85.3</ele>
        <time>2024-12-19T09:36:56Z</time>
      </trkpt>
      <trkpt lat="47.93988" lon="-2.48123">
        <ele>85.2</ele>
        <time>2024-12-19T09:36:57Z</time>
      </trkpt>
      <trkpt lat="47.93988" lon="-2.48121">
        <ele>85.2</ele>
        <time>2024-12-19T09:36:58Z</time>
      </trkpt>
      <trkpt lat="47.93987" lon="-2.48118">
        <ele>85.1</ele>
        <time>2024-12-19T09:36:59Z</time>
      </trkpt>
      <trkpt lat="47.93987" lon="-2.48115">
        <ele>85.1</ele>
        <time>2024-12-19T09:37:00Z</time>
      </trkpt>
      <trkpt lat="47.93987" lon="-2.48113">
        <ele>85</ele>
        <time>2024-12-19T09:37:01Z</time>
      </trkpt>
      <trkpt lat="47.93987" lon="-2.48111">
        <ele>85</ele>
        <time>2024-12-19T09:37:02Z</time>
      </trkpt>
      <trkpt lat="47.93986" lon="-2.4811">
        <ele>85</ele>
        <time>2024-12-19T09:37:03Z</time>
      </trkpt>
      <trkpt lat="47.93986" lon="-2.48108">
        <ele>84.9</ele>
        <time>2024-12-19T09:37:04Z</time>
      </trkpt>
      <trkpt lat="47.93986" lon="-2.48106">
        <ele>84.9</ele>
        <time>2024-12-19T09:37:05Z</time>
      </trkpt>
      <trkpt lat="47.93985" lon="-2.48103">
        <ele>84.9</ele>
        <time>2024-12-19T09:37:06Z</time>
      </trkpt>
      <trkpt lat="47.93985" lon="-2.48101">
        <ele>84.8</ele>
        <time>2024-12-19T09:37:07Z</time>
      </trkpt>
      <trkpt lat="47.93984" lon="-2.48099">
        <ele>84.7</ele>
        <time>2024-12-19T09:37:08Z</time>
      </trkpt>
      <trkpt lat="47.93984" lon="-2.48096">
        <ele>84.7</ele>
        <time>2024-12-19T09:37:09Z</time>
      </trkpt>
      <trkpt lat="47.93983" lon="-2.48093">
        <ele>84.6</ele>
        <time>2024-12-19T09:37:10Z</time>
      </trkpt>
      <trkpt lat="47.93983" lon="-2.4809">
        <ele>84.5</ele>
        <time>2024-12-19T09:37:11Z</time>
      </trkpt>
      <trkpt lat="47.93982" lon="-2.48087">
        <ele>84.4</ele>
        <time>2024-12-19T09:37:12Z</time>
      </trkpt>
      <trkpt lat="47.93982" lon="-2.48085">
        <ele>84.4</ele>
        <time>2024-12-19T09:37:13Z</time>
      </trkpt>
      <trkpt lat="47.93982" lon="-2.48082">
        <ele>84.4</ele>
        <time>2024-12-19T09:37:14Z</time>
      </trkpt>
      <trkpt lat="47.93982" lon="-2.48081">
        <ele>84.3</ele>
        <time>2024-12-19T09:37:15Z</time>
      </trkpt>
      <trkpt lat="47.93982" lon="-2.48078">
        <ele>84.3</ele>
        <time>2024-12-19T09:37:16Z</time>
      </trkpt>
      <trkpt lat="47.93982" lon="-2.48075">
        <ele>84.2</ele>
        <time>2024-12-19T09:37:17Z</time>
      </trkpt>
      <trkpt lat="47.93982" lon="-2.48073">
        <ele>84.2</ele>
        <time>2024-12-19T09:37:18Z</time>
      </trkpt>
      <trkpt lat="47.93981" lon="-2.48071">
        <ele>84.2</ele>
        <time>2024-12-19T09:37:19Z</time>
      </trkpt>
      <trkpt lat="47.93981" lon="-2.48069">
        <ele>84.1</ele>
        <time>2024-12-19T09:37:20Z</time>
      </trkpt>
      <trkpt lat="47.9398" lon="-2.48066">
        <ele>84.1</ele>
        <time>2024-12-19T09:37:21Z</time>
      </trkpt>
      <trkpt lat="47.9398" lon="-2.48065">
        <ele>84.1</ele>
        <time>2024-12-19T09:37:22Z</time>
      </trkpt>
      <trkpt lat="47.9398" lon="-2.48063">
        <ele>84.1</ele>
        <time>2024-12-19T09:37:23Z</time>
      </trkpt>
      <trkpt lat="47.9398" lon="-2.48061">
        <ele>84.1</ele>
        <time>2024-12-19T09:37:24Z</time>
      </trkpt>
      <trkpt lat="47.93979" lon="-2.48059">
        <ele>84</ele>
        <time>2024-12-19T09:37:25Z</time>
      </trkpt>
      <trkpt lat="47.93979" lon="-2.48057">
        <ele>84</ele>
        <time>2024-12-19T09:37:26Z</time>
      </trkpt>
      <trkpt lat="47.93979" lon="-2.48054">
        <ele>84</ele>
        <time>2024-12-19T09:37:27Z</time>
      </trkpt>
      <trkpt lat="47.93978" lon="-2.48051">
        <ele>83.9</ele>
        <time>2024-12-19T09:37:28Z</time>
      </trkpt>
      <trkpt lat="47.93978" lon="-2.48049">
        <ele>83.8</ele>
        <time>2024-12-19T09:37:29Z</time>
      </trkpt>
      <trkpt lat="47.93978" lon="-2.48047">
        <ele>83.7</ele>
        <time>2024-12-19T09:37:30Z</time>
      </trkpt>
      <trkpt lat="47.93978" lon="-2.48045">
        <ele>83.7</ele>
        <time>2024-12-19T09:37:31Z</time>
      </trkpt>
      <trkpt lat="47.93978" lon="-2.48044">
        <ele>83.7</ele>
        <time>2024-12-19T09:37:32Z</time>
      </trkpt>
      <trkpt lat="47.93978" lon="-2.48041">
        <ele>83.6</ele>
        <time>2024-12-19T09:37:33Z</time>
      </trkpt>
      <trkpt lat="47.93979" lon="-2.4804">
        <ele>83.6</ele>
        <time>2024-12-19T09:37:34Z</time>
      </trkpt>
      <trkpt lat="47.93979" lon="-2.48038">
        <ele>83.5</ele>
        <time>2024-12-19T09:37:35Z</time>
      </trkpt>
      <trkpt lat="47.93979" lon="-2.48037">
        <ele>83.5</ele>
        <time>2024-12-19T09:37:36Z</time>
      </trkpt>
      <trkpt lat="47.93978" lon="-2.48035">
        <ele>83.4</ele>
        <time>2024-12-19T09:37:37Z</time>
      </trkpt>
      <trkpt lat="47.93978" lon="-2.48034">
        <ele>83.4</ele>
        <time>2024-12-19T09:37:38Z</time>
      </trkpt>
      <trkpt lat="47.93978" lon="-2.48031">
        <ele>83.3</ele>
        <time>2024-12-19T09:37:39Z</time>
      </trkpt>
      <trkpt lat="47.93978" lon="-2.48029">
        <ele>83.2</ele>
        <time>2024-12-19T09:37:40Z</time>
      </trkpt>
      <trkpt lat="47.93978" lon="-2.48027">
        <ele>83.2</ele>
        <time>2024-12-19T09:37:41Z</time>
      </trkpt>
      <trkpt lat="47.93978" lon="-2.48025">
        <ele>83.2</ele>
        <time>2024-12-19T09:37:42Z</time>
      </trkpt>
      <trkpt lat="47.93977" lon="-2.48023">
        <ele>83.2</ele>
        <time>2024-12-19T09:37:43Z</time>
      </trkpt>
      <trkpt lat="47.93977" lon="-2.48021">
        <ele>83.1</ele>
        <time>2024-12-19T09:37:44Z</time>
      </trkpt>
      <trkpt lat="47.93977" lon="-2.48019">
        <ele>83.1</ele>
        <time>2024-12-19T09:37:45Z</time>
      </trkpt>
      <trkpt lat="47.93977" lon="-2.48017">
        <ele>83.1</ele>
        <time>2024-12-19T09:37:46Z</time>
      </trkpt>
      <trkpt lat="47.93977" lon="-2.48015">
        <ele>83.1</ele>
        <time>2024-12-19T09:37:47Z</time>
      </trkpt>
      <trkpt lat="47.93977" lon="-2.48013">
        <ele>83.1</ele>
        <time>2024-12-19T09:37:48Z</time>
      </trkpt>
      <trkpt lat="47.93977" lon="-2.48011">
        <ele>83.1</ele>
        <time>2024-12-19T09:37:49Z</time>
      </trkpt>
      <trkpt lat="47.93977" lon="-2.48009">
        <ele>83</ele>
        <time>2024-12-19T09:37:50Z</time>
      </trkpt>
      <trkpt lat="47.93977" lon="-2.48007">
        <ele>83</ele>
        <time>2024-12-19T09:37:51Z</time>
      </trkpt>
      <trkpt lat="47.93976" lon="-2.48005">
        <ele>83</ele>
        <time>2024-12-19T09:37:52Z</time>
      </trkpt>
      <trkpt lat="47.93976" lon="-2.48004">
        <ele>83</ele>
        <time>2024-12-19T09:37:53Z</time>
      </trkpt>
      <trkpt lat="47.93976" lon="-2.48002">
        <ele>83</ele>
        <time>2024-12-19T09:37:54Z</time>
      </trkpt>
      <trkpt lat="47.93976" lon="-2.48001">
        <ele>83</ele>
        <time>2024-12-19T09:37:55Z</time>
      </trkpt>
      <trkpt lat="47.93976" lon="-2.47999">
        <ele>83</ele>
        <time>2024-12-19T09:37:56Z</time>
      </trkpt>
      <trkpt lat="47.93975" lon="-2.47996">
        <ele>82.9</ele>
        <time>2024-12-19T09:37:57Z</time>
      </trkpt>
      <trkpt lat="47.93975" lon="-2.47994">
        <ele>82.8</ele>
        <time>2024-12-19T09:37:58Z</time>
      </trkpt>
      <trkpt lat="47.93975" lon="-2.47991">
        <ele>82.7</ele>
        <time>2024-12-19T09:37:59Z</time>
      </trkpt>
      <trkpt lat="47.93975" lon="-2.47988">
        <ele>82.6</ele>
        <time>2024-12-19T09:38:00Z</time>
      </trkpt>
      <trkpt lat="47.93974" lon="-2.47986">
        <ele>82.5</ele>
        <time>2024-12-19T09:38:01Z</time>
      </trkpt>
      <trkpt lat="47.93974" lon="-2.47983">
        <ele>82.4</ele>
        <time>2024-12-19T09:38:02Z</time>
      </trkpt>
      <trkpt lat="47.93974" lon="-2.47982">
        <ele>82.4</ele>
        <time>2024-12-19T09:38:03Z</time>
      </trkpt>
      <trkpt lat="47.93974" lon="-2.4798">
        <ele>82.3</ele>
        <time>2024-12-19T09:38:04Z</time>
      </trkpt>
      <trkpt lat="47.93975" lon="-2.4798">
        <ele>82.4</ele>
        <time>2024-12-19T09:38:05Z</time>
      </trkpt>
      <trkpt lat="47.93976" lon="-2.47979">
        <ele>82.4</ele>
        <time>2024-12-19T09:38:06Z</time>
      </trkpt>
      <trkpt lat="47.93977" lon="-2.47979">
        <ele>82.4</ele>
        <time>2024-12-19T09:38:07Z</time>
      </trkpt>
      <trkpt lat="47.93978" lon="-2.47978">
        <ele>82.4</ele>
        <time>2024-12-19T09:38:08Z</time>
      </trkpt>
      <trkpt lat="47.93978" lon="-2.47976">
        <ele>82.3</ele>
        <time>2024-12-19T09:38:09Z</time>
      </trkpt>
      <trkpt lat="47.93978" lon="-2.47974">
        <ele>82.3</ele>
        <time>2024-12-19T09:38:10Z</time>
      </trkpt>
      <trkpt lat="47.93978" lon="-2.47972">
        <ele>82.2</ele>
        <time>2024-12-19T09:38:11Z</time>
      </trkpt>
      <trkpt lat="47.93978" lon="-2.4797">
        <ele>82.1</ele>
        <time>2024-12-19T09:38:12Z</time>
      </trkpt>
      <trkpt lat="47.93978" lon="-2.47969">
        <ele>82.1</ele>
        <time>2024-12-19T09:38:13Z</time>
      </trkpt>
      <trkpt lat="47.93978" lon="-2.47967">
        <ele>82</ele>
        <time>2024-12-19T09:38:14Z</time>
      </trkpt>
      <trkpt lat="47.93978" lon="-2.47965">
        <ele>81.9</ele>
        <time>2024-12-19T09:38:15Z</time>
      </trkpt>
      <trkpt lat="47.93977" lon="-2.47962">
        <ele>81.8</ele>
        <time>2024-12-19T09:38:16Z</time>
      </trkpt>
      <trkpt lat="47.93977" lon="-2.4796">
        <ele>81.7</ele>
        <time>2024-12-19T09:38:17Z</time>
      </trkpt>
      <trkpt lat="47.93977" lon="-2.47957">
        <ele>81.6</ele>
        <time>2024-12-19T09:38:18Z</time>
      </trkpt>
      <trkpt lat="47.93977" lon="-2.47954">
        <ele>81.5</ele>
        <time>2024-12-19T09:38:19Z</time>
      </trkpt>
      <trkpt lat="47.93977" lon="-2.47952">
        <ele>81.4</ele>
        <time>2024-12-19T09:38:20Z</time>
      </trkpt>
      <trkpt lat="47.93977" lon="-2.4795">
        <ele>81.4</ele>
        <time>2024-12-19T09:38:21Z</time>
      </trkpt>
      <trkpt lat="47.93977" lon="-2.47949">
        <ele>81.3</ele>
        <time>2024-12-19T09:38:22Z</time>
      </trkpt>
      <trkpt lat="47.93976" lon="-2.47947">
        <ele>81.2</ele>
        <time>2024-12-19T09:38:23Z</time>
      </trkpt>
      <trkpt lat="47.93976" lon="-2.47945">
        <ele>81.2</ele>
        <time>2024-12-19T09:38:24Z</time>
      </trkpt>
      <trkpt lat="47.93976" lon="-2.47943">
        <ele>81.1</ele>
        <time>2024-12-19T09:38:25Z</time>
      </trkpt>
      <trkpt lat="47.93976" lon="-2.47941">
        <ele>81</ele>
        <time>2024-12-19T09:38:26Z</time>
      </trkpt>
      <trkpt lat="47.93976" lon="-2.47939">
        <ele>81</ele>
        <time>2024-12-19T09:38:27Z</time>
      </trkpt>
      <trkpt lat="47.93977" lon="-2.47938">
        <ele>81</ele>
        <time>2024-12-19T09:38:28Z</time>
      </trkpt>
      <trkpt lat="47.93978" lon="-2.47938">
        <ele>81</ele>
        <time>2024-12-19T09:38:29Z</time>
      </trkpt>
      <trkpt lat="47.93979" lon="-2.47937">
        <ele>80.9</ele>
        <time>2024-12-19T09:38:30Z</time>
      </trkpt>
      <trkpt lat="47.93981" lon="-2.47935">
        <ele>81</ele>
        <time>2024-12-19T09:38:32Z</time>
      </trkpt>
      <trkpt lat="47.93982" lon="-2.47934">
        <ele>81</ele>
        <time>2024-12-19T09:38:33Z</time>
      </trkpt>
      <trkpt lat="47.93983" lon="-2.47934">
        <ele>81</ele>
        <time>2024-12-19T09:38:34Z</time>
      </trkpt>
      <trkpt lat="47.93984" lon="-2.47934">
        <ele>81</ele>
        <time>2024-12-19T09:38:35Z</time>
      </trkpt>
      <trkpt lat="47.93985" lon="-2.47934">
        <ele>81.1</ele>
        <time>2024-12-19T09:38:36Z</time>
      </trkpt>
      <trkpt lat="47.93987" lon="-2.47934">
        <ele>81.1</ele>
        <time>2024-12-19T09:38:37Z</time>
      </trkpt>
      <trkpt lat="47.93987" lon="-2.47934">
        <ele>81.2</ele>
        <time>2024-12-19T09:38:38Z</time>
      </trkpt>
      <trkpt lat="47.93988" lon="-2.47935">
        <ele>81.2</ele>
        <time>2024-12-19T09:38:39Z</time>
      </trkpt>
      <trkpt lat="47.93988" lon="-2.47935">
        <ele>81.2</ele>
        <time>2024-12-19T09:38:40Z</time>
      </trkpt>
      <trkpt lat="47.93989" lon="-2.47936">
        <ele>81.3</ele>
        <time>2024-12-19T09:38:41Z</time>
      </trkpt>
      <trkpt lat="47.9399" lon="-2.47936">
        <ele>81.3</ele>
        <time>2024-12-19T09:38:42Z</time>
      </trkpt>
      <trkpt lat="47.9399" lon="-2.47936">
        <ele>81.4</ele>
        <time>2024-12-19T09:38:43Z</time>
      </trkpt>
      <trkpt lat="47.93991" lon="-2.47936">
        <ele>81.4</ele>
        <time>2024-12-19T09:38:44Z</time>
      </trkpt>
      <trkpt lat="47.93992" lon="-2.47936">
        <ele>81.4</ele>
        <time>2024-12-19T09:38:45Z</time>
      </trkpt>
      <trkpt lat="47.93993" lon="-2.47936">
        <ele>81.4</ele>
        <time>2024-12-19T09:38:46Z</time>
      </trkpt>
      <trkpt lat="47.93994" lon="-2.47936">
        <ele>81.5</ele>
        <time>2024-12-19T09:38:47Z</time>
      </trkpt>
      <trkpt lat="47.93995" lon="-2.47936">
        <ele>81.5</ele>
        <time>2024-12-19T09:38:48Z</time>
      </trkpt>
      <trkpt lat="47.93996" lon="-2.47936">
        <ele>81.5</ele>
        <time>2024-12-19T09:38:49Z</time>
      </trkpt>
      <trkpt lat="47.93997" lon="-2.47936">
        <ele>81.6</ele>
        <time>2024-12-19T09:38:50Z</time>
      </trkpt>
      <trkpt lat="47.93998" lon="-2.47936">
        <ele>81.6</ele>
        <time>2024-12-19T09:38:51Z</time>
      </trkpt>
      <trkpt lat="47.94" lon="-2.47935">
        <ele>81.7</ele>
        <time>2024-12-19T09:38:52Z</time>
      </trkpt>
      <trkpt lat="47.94001" lon="-2.47935">
        <ele>81.7</ele>
        <time>2024-12-19T09:38:53Z</time>
      </trkpt>
      <trkpt lat="47.94003" lon="-2.47935">
        <ele>81.8</ele>
        <time>2024-12-19T09:38:54Z</time>
      </trkpt>
      <trkpt lat="47.94004" lon="-2.47935">
        <ele>81.8</ele>
        <time>2024-12-19T09:38:55Z</time>
      </trkpt>
      <trkpt lat="47.94005" lon="-2.47935">
        <ele>81.9</ele>
        <time>2024-12-19T09:38:56Z</time>
      </trkpt>
      <trkpt lat="47.94006" lon="-2.47936">
        <ele>81.9</ele>
        <time>2024-12-19T09:38:57Z</time>
      </trkpt>
      <trkpt lat="47.94008" lon="-2.47936">
        <ele>82</ele>
        <time>2024-12-19T09:38:58Z</time>
      </trkpt>
      <trkpt lat="47.94008" lon="-2.47936">
        <ele>82</ele>
        <time>2024-12-19T09:38:59Z</time>
      </trkpt>
      <trkpt lat="47.94008" lon="-2.47936">
        <ele>82</ele>
        <time>2024-12-19T09:39:00Z</time>
      </trkpt>
      <trkpt lat="47.94009" lon="-2.47936">
        <ele>82</ele>
        <time>2024-12-19T09:39:01Z</time>
      </trkpt>
      <trkpt lat="47.94009" lon="-2.47936">
        <ele>82</ele>
        <time>2024-12-19T09:39:02Z</time>
      </trkpt>
      <trkpt lat="47.94009" lon="-2.47937">
        <ele>82</ele>
        <time>2024-12-19T09:39:03Z</time>
      </trkpt>
      <trkpt lat="47.9401" lon="-2.47937">
        <ele>82.1</ele>
        <time>2024-12-19T09:39:04Z</time>
      </trkpt>
      <trkpt lat="47.94011" lon="-2.47938">
        <ele>82.1</ele>
        <time>2024-12-19T09:39:05Z</time>
      </trkpt>
      <trkpt lat="47.94011" lon="-2.47938">
        <ele>82.2</ele>
        <time>2024-12-19T09:39:06Z</time>
      </trkpt>
      <trkpt lat="47.94012" lon="-2.47938">
        <ele>82.2</ele>
        <time>2024-12-19T09:39:07Z</time>
      </trkpt>
      <trkpt lat="47.94013" lon="-2.47938">
        <ele>82.3</ele>
        <time>2024-12-19T09:39:08Z</time>
      </trkpt>
      <trkpt lat="47.94014" lon="-2.47938">
        <ele>82.3</ele>
        <time>2024-12-19T09:39:09Z</time>
      </trkpt>
      <trkpt lat="47.94016" lon="-2.47938">
        <ele>82.3</ele>
        <time>2024-12-19T09:39:10Z</time>
      </trkpt>
      <trkpt lat="47.94017" lon="-2.47938">
        <ele>82.4</ele>
        <time>2024-12-19T09:39:11Z</time>
      </trkpt>
      <trkpt lat="47.94018" lon="-2.47938">
        <ele>82.4</ele>
        <time>2024-12-19T09:39:12Z</time>
      </trkpt>
      <trkpt lat="47.94019" lon="-2.47938">
        <ele>82.5</ele>
        <time>2024-12-19T09:39:13Z</time>
      </trkpt>
      <trkpt lat="47.9402" lon="-2.47938">
        <ele>82.5</ele>
        <time>2024-12-19T09:39:14Z</time>
      </trkpt>
      <trkpt lat="47.94022" lon="-2.47938">
        <ele>82.5</ele>
        <time>2024-12-19T09:39:15Z</time>
      </trkpt>
      <trkpt lat="47.94023" lon="-2.47938">
        <ele>82.6</ele>
        <time>2024-12-19T09:39:16Z</time>
      </trkpt>
      <trkpt lat="47.94024" lon="-2.47938">
        <ele>82.6</ele>
        <time>2024-12-19T09:39:17Z</time>
      </trkpt>
      <trkpt lat="47.94026" lon="-2.47938">
        <ele>82.7</ele>
        <time>2024-12-19T09:39:18Z</time>
      </trkpt>
      <trkpt lat="47.94027" lon="-2.47937">
        <ele>82.7</ele>
        <time>2024-12-19T09:39:19Z</time>
      </trkpt>
      <trkpt lat="47.94029" lon="-2.47937">
        <ele>82.8</ele>
        <time>2024-12-19T09:39:20Z</time>
      </trkpt>
      <trkpt lat="47.9403" lon="-2.47937">
        <ele>82.8</ele>
        <time>2024-12-19T09:39:21Z</time>
      </trkpt>
      <trkpt lat="47.94031" lon="-2.47937">
        <ele>82.8</ele>
        <time>2024-12-19T09:39:22Z</time>
      </trkpt>
      <trkpt lat="47.94032" lon="-2.47937">
        <ele>82.9</ele>
        <time>2024-12-19T09:39:23Z</time>
      </trkpt>
      <trkpt lat="47.94033" lon="-2.47937">
        <ele>82.9</ele>
        <time>2024-12-19T09:39:24Z</time>
      </trkpt>
      <trkpt lat="47.94034" lon="-2.47937">
        <ele>82.9</ele>
        <time>2024-12-19T09:39:25Z</time>
      </trkpt>
      <trkpt lat="47.94035" lon="-2.47936">
        <ele>83</ele>
        <time>2024-12-19T09:39:26Z</time>
      </trkpt>
      <trkpt lat="47.94036" lon="-2.47936">
        <ele>83</ele>
        <time>2024-12-19T09:39:27Z</time>
      </trkpt>
      <trkpt lat="47.94037" lon="-2.47936">
        <ele>83</ele>
        <time>2024-12-19T09:39:28Z</time>
      </trkpt>
      <trkpt lat="47.94039" lon="-2.47935">
        <ele>83</ele>
        <time>2024-12-19T09:39:29Z</time>
      </trkpt>
      <trkpt lat="47.9404" lon="-2.47934">
        <ele>83.1</ele>
        <time>2024-12-19T09:39:30Z</time>
      </trkpt>
      <trkpt lat="47.94042" lon="-2.47934">
        <ele>83.1</ele>
        <time>2024-12-19T09:39:31Z</time>
      </trkpt>
      <trkpt lat="47.94043" lon="-2.47934">
        <ele>83.2</ele>
        <time>2024-12-19T09:39:32Z</time>
      </trkpt>
      <trkpt lat="47.94044" lon="-2.47934">
        <ele>83.2</ele>
        <time>2024-12-19T09:39:33Z</time>
      </trkpt>
      <trkpt lat="47.94045" lon="-2.47933">
        <ele>83.2</ele>
        <time>2024-12-19T09:39:34Z</time>
      </trkpt>
      <trkpt lat="47.94046" lon="-2.47933">
        <ele>83.2</ele>
        <time>2024-12-19T09:39:35Z</time>
      </trkpt>
      <trkpt lat="47.94047" lon="-2.47933">
        <ele>83.3</ele>
        <time>2024-12-19T09:39:36Z</time>
      </trkpt>
      <trkpt lat="47.94048" lon="-2.47932">
        <ele>83.3</ele>
        <time>2024-12-19T09:39:37Z</time>
      </trkpt>
      <trkpt lat="47.94049" lon="-2.47932">
        <ele>83.3</ele>
        <time>2024-12-19T09:39:38Z</time>
      </trkpt>
      <trkpt lat="47.94051" lon="-2.47932">
        <ele>83.4</ele>
        <time>2024-12-19T09:39:39Z</time>
      </trkpt>
      <trkpt lat="47.94051" lon="-2.47932">
        <ele>83.4</ele>
        <time>2024-12-19T09:39:40Z</time>
      </trkpt>
      <trkpt lat="47.94052" lon="-2.47931">
        <ele>83.4</ele>
        <time>2024-12-19T09:39:41Z</time>
      </trkpt>
      <trkpt lat="47.94053" lon="-2.47931">
        <ele>83.4</ele>
        <time>2024-12-19T09:39:42Z</time>
      </trkpt>
      <trkpt lat="47.94054" lon="-2.4793">
        <ele>83.5</ele>
        <time>2024-12-19T09:39:43Z</time>
      </trkpt>
      <trkpt lat="47.94056" lon="-2.4793">
        <ele>83.5</ele>
        <time>2024-12-19T09:39:44Z</time>
      </trkpt>
      <trkpt lat="47.94057" lon="-2.4793">
        <ele>83.5</ele>
        <time>2024-12-19T09:39:45Z</time>
      </trkpt>
      <trkpt lat="47.94059" lon="-2.4793">
        <ele>83.5</ele>
        <time>2024-12-19T09:39:46Z</time>
      </trkpt>
      <trkpt lat="47.9406" lon="-2.47929">
        <ele>83.4</ele>
        <time>2024-12-19T09:39:47Z</time>
      </trkpt>
      <trkpt lat="47.94062" lon="-2.47929">
        <ele>83.4</ele>
        <time>2024-12-19T09:39:48Z</time>
      </trkpt>
      <trkpt lat="47.94063" lon="-2.47928">
        <ele>83.4</ele>
        <time>2024-12-19T09:39:49Z</time>
      </trkpt>
      <trkpt lat="47.94065" lon="-2.47927">
        <ele>83.4</ele>
        <time>2024-12-19T09:39:50Z</time>
      </trkpt>
      <trkpt lat="47.94067" lon="-2.47927">
        <ele>83.4</ele>
        <time>2024-12-19T09:39:51Z</time>
      </trkpt>
      <trkpt lat="47.94067" lon="-2.47927">
        <ele>83.4</ele>
        <time>2024-12-19T09:39:52Z</time>
      </trkpt>
      <trkpt lat="47.94068" lon="-2.47927">
        <ele>83.4</ele>
        <time>2024-12-19T09:39:53Z</time>
      </trkpt>
      <trkpt lat="47.94069" lon="-2.47926">
        <ele>83.3</ele>
        <time>2024-12-19T09:39:54Z</time>
      </trkpt>
      <trkpt lat="47.9407" lon="-2.47926">
        <ele>83.3</ele>
        <time>2024-12-19T09:39:55Z</time>
      </trkpt>
      <trkpt lat="47.94071" lon="-2.47926">
        <ele>83.3</ele>
        <time>2024-12-19T09:39:56Z</time>
      </trkpt>
      <trkpt lat="47.94071" lon="-2.47925">
        <ele>83.3</ele>
        <time>2024-12-19T09:39:57Z</time>
      </trkpt>
      <trkpt lat="47.94073" lon="-2.47925">
        <ele>83.3</ele>
        <time>2024-12-19T09:39:58Z</time>
      </trkpt>
      <trkpt lat="47.94073" lon="-2.47924">
        <ele>83.3</ele>
        <time>2024-12-19T09:39:59Z</time>
      </trkpt>
      <trkpt lat="47.94074" lon="-2.47924">
        <ele>83.3</ele>
        <time>2024-12-19T09:40:00Z</time>
      </trkpt>
      <trkpt lat="47.94076" lon="-2.47925">
        <ele>83.3</ele>
        <time>2024-12-19T09:40:01Z</time>
      </trkpt>
      <trkpt lat="47.94076" lon="-2.47925">
        <ele>83.3</ele>
        <time>2024-12-19T09:40:02Z</time>
      </trkpt>
      <trkpt lat="47.94077" lon="-2.47925">
        <ele>83.3</ele>
        <time>2024-12-19T09:40:03Z</time>
      </trkpt>
      <trkpt lat="47.94078" lon="-2.47926">
        <ele>83.3</ele>
        <time>2024-12-19T09:40:04Z</time>
      </trkpt>
      <trkpt lat="47.94079" lon="-2.47926">
        <ele>83.3</ele>
        <time>2024-12-19T09:40:05Z</time>
      </trkpt>
      <trkpt lat="47.9408" lon="-2.47925">
        <ele>83.3</ele>
        <time>2024-12-19T09:40:06Z</time>
      </trkpt>
      <trkpt lat="47.94082" lon="-2.47925">
        <ele>83.3</ele>
        <time>2024-12-19T09:40:07Z</time>
      </trkpt>
      <trkpt lat="47.94084" lon="-2.47926">
        <ele>83.3</ele>
        <time>2024-12-19T09:40:08Z</time>
      </trkpt>
      <trkpt lat="47.94085" lon="-2.47926">
        <ele>83.3</ele>
        <time>2024-12-19T09:40:09Z</time>
      </trkpt>
      <trkpt lat="47.94086" lon="-2.47925">
        <ele>83.3</ele>
        <time>2024-12-19T09:40:10Z</time>
      </trkpt>
      <trkpt lat="47.94088" lon="-2.47925">
        <ele>83.3</ele>
        <time>2024-12-19T09:40:11Z</time>
      </trkpt>
      <trkpt lat="47.94089" lon="-2.47926">
        <ele>83.3</ele>
        <time>2024-12-19T09:40:12Z</time>
      </trkpt>
      <trkpt lat="47.9409" lon="-2.47926">
        <ele>83.3</ele>
        <time>2024-12-19T09:40:13Z</time>
      </trkpt>
      <trkpt lat="47.94091" lon="-2.47926">
        <ele>83.3</ele>
        <time>2024-12-19T09:40:14Z</time>
      </trkpt>
      <trkpt lat="47.94092" lon="-2.47926">
        <ele>83.3</ele>
        <time>2024-12-19T09:40:15Z</time>
      </trkpt>
      <trkpt lat="47.94093" lon="-2.47925">
        <ele>83.3</ele>
        <time>2024-12-19T09:40:16Z</time>
      </trkpt>
      <trkpt lat="47.94095" lon="-2.47924">
        <ele>83.3</ele>
        <time>2024-12-19T09:40:17Z</time>
      </trkpt>
      <trkpt lat="47.94096" lon="-2.47924">
        <ele>83.2</ele>
        <time>2024-12-19T09:40:18Z</time>
      </trkpt>
      <trkpt lat="47.94097" lon="-2.47923">
        <ele>83.2</ele>
        <time>2024-12-19T09:40:19Z</time>
      </trkpt>
      <trkpt lat="47.94099" lon="-2.47923">
        <ele>83.2</ele>
        <time>2024-12-19T09:40:20Z</time>
      </trkpt>
      <trkpt lat="47.941" lon="-2.47923">
        <ele>83.2</ele>
        <time>2024-12-19T09:40:21Z</time>
      </trkpt>
      <trkpt lat="47.94101" lon="-2.47923">
        <ele>83.2</ele>
        <time>2024-12-19T09:40:22Z</time>
      </trkpt>
      <trkpt lat="47.94102" lon="-2.47922">
        <ele>83.2</ele>
        <time>2024-12-19T09:40:23Z</time>
      </trkpt>
      <trkpt lat="47.94102" lon="-2.47922">
        <ele>83.2</ele>
        <time>2024-12-19T09:40:24Z</time>
      </trkpt>
      <trkpt lat="47.94102" lon="-2.4792">
        <ele>83.1</ele>
        <time>2024-12-19T09:40:25Z</time>
      </trkpt>
      <trkpt lat="47.94102" lon="-2.4792">
        <ele>83.1</ele>
        <time>2024-12-19T09:40:26Z</time>
      </trkpt>
      <trkpt lat="47.94102" lon="-2.47919">
        <ele>83.1</ele>
        <time>2024-12-19T09:40:27Z</time>
      </trkpt>
      <trkpt lat="47.94102" lon="-2.4792">
        <ele>83.1</ele>
        <time>2024-12-19T09:40:28Z</time>
      </trkpt>
      <trkpt lat="47.94102" lon="-2.4792">
        <ele>83.1</ele>
        <time>2024-12-19T09:40:29Z</time>
      </trkpt>
      <trkpt lat="47.94102" lon="-2.4792">
        <ele>83.1</ele>
        <time>2024-12-19T09:40:30Z</time>
      </trkpt>
      <trkpt lat="47.94103" lon="-2.47919">
        <ele>83.1</ele>
        <time>2024-12-19T09:40:31Z</time>
      </trkpt>
      <trkpt lat="47.94103" lon="-2.47919">
        <ele>83.1</ele>
        <time>2024-12-19T09:40:32Z</time>
      </trkpt>
      <trkpt lat="47.94104" lon="-2.47919">
        <ele>83.1</ele>
        <time>2024-12-19T09:40:33Z</time>
      </trkpt>
      <trkpt lat="47.94105" lon="-2.47919">
        <ele>83.1</ele>
        <time>2024-12-19T09:40:34Z</time>
      </trkpt>
      <trkpt lat="47.94107" lon="-2.47919">
        <ele>83.1</ele>
        <time>2024-12-19T09:40:35Z</time>
      </trkpt>
      <trkpt lat="47.94108" lon="-2.47919">
        <ele>83.1</ele>
        <time>2024-12-19T09:40:36Z</time>
      </trkpt>
      <trkpt lat="47.94109" lon="-2.47919">
        <ele>83.1</ele>
        <time>2024-12-19T09:40:37Z</time>
      </trkpt>
      <trkpt lat="47.94109" lon="-2.4792">
        <ele>83.1</ele>
        <time>2024-12-19T09:40:38Z</time>
      </trkpt>
      <trkpt lat="47.94109" lon="-2.47921">
        <ele>83.1</ele>
        <time>2024-12-19T09:40:39Z</time>
      </trkpt>
      <trkpt lat="47.94109" lon="-2.47921">
        <ele>83.1</ele>
        <time>2024-12-19T09:40:40Z</time>
      </trkpt>
      <trkpt lat="47.9411" lon="-2.47921">
        <ele>83.1</ele>
        <time>2024-12-19T09:40:41Z</time>
      </trkpt>
      <trkpt lat="47.94111" lon="-2.4792">
        <ele>83.1</ele>
        <time>2024-12-19T09:40:42Z</time>
      </trkpt>
      <trkpt lat="47.94112" lon="-2.4792">
        <ele>83.1</ele>
        <time>2024-12-19T09:40:43Z</time>
      </trkpt>
      <trkpt lat="47.94113" lon="-2.47919">
        <ele>83</ele>
        <time>2024-12-19T09:40:44Z</time>
      </trkpt>
      <trkpt lat="47.94115" lon="-2.47918">
        <ele>82.9</ele>
        <time>2024-12-19T09:40:45Z</time>
      </trkpt>
      <trkpt lat="47.94116" lon="-2.47917">
        <ele>82.8</ele>
        <time>2024-12-19T09:40:46Z</time>
      </trkpt>
      <trkpt lat="47.94117" lon="-2.47916">
        <ele>82.8</ele>
        <time>2024-12-19T09:40:47Z</time>
      </trkpt>
      <trkpt lat="47.94119" lon="-2.47916">
        <ele>82.7</ele>
        <time>2024-12-19T09:40:48Z</time>
      </trkpt>
      <trkpt lat="47.9412" lon="-2.47915">
        <ele>82.6</ele>
        <time>2024-12-19T09:40:49Z</time>
      </trkpt>
      <trkpt lat="47.94122" lon="-2.47914">
        <ele>82.5</ele>
        <time>2024-12-19T09:40:50Z</time>
      </trkpt>
      <trkpt lat="47.94124" lon="-2.47913">
        <ele>82.5</ele>
        <time>2024-12-19T09:40:51Z</time>
      </trkpt>
      <trkpt lat="47.94125" lon="-2.47912">
        <ele>82.4</ele>
        <time>2024-12-19T09:40:52Z</time>
      </trkpt>
      <trkpt lat="47.94127" lon="-2.47911">
        <ele>82.3</ele>
        <time>2024-12-19T09:40:53Z</time>
      </trkpt>
      <trkpt lat="47.94128" lon="-2.4791">
        <ele>82.3</ele>
        <time>2024-12-19T09:40:54Z</time>
      </trkpt>
      <trkpt lat="47.9413" lon="-2.47909">
        <ele>82.2</ele>
        <time>2024-12-19T09:40:55Z</time>
      </trkpt>
      <trkpt lat="47.94131" lon="-2.47909">
        <ele>82.2</ele>
        <time>2024-12-19T09:40:56Z</time>
      </trkpt>
      <trkpt lat="47.94133" lon="-2.47908">
        <ele>82.1</ele>
        <time>2024-12-19T09:40:57Z</time>
      </trkpt>
      <trkpt lat="47.94135" lon="-2.47907">
        <ele>82.1</ele>
        <time>2024-12-19T09:40:58Z</time>
      </trkpt>
      <trkpt lat="47.94137" lon="-2.47907">
        <ele>82.1</ele>
        <time>2024-12-19T09:40:59Z</time>
      </trkpt>
      <trkpt lat="47.94138" lon="-2.47906">
        <ele>82</ele>
        <time>2024-12-19T09:41:00Z</time>
      </trkpt>
      <trkpt lat="47.9414" lon="-2.47905">
        <ele>82</ele>
        <time>2024-12-19T09:41:01Z</time>
      </trkpt>
      <trkpt lat="47.94141" lon="-2.47904">
        <ele>81.9</ele>
        <time>2024-12-19T09:41:02Z</time>
      </trkpt>
      <trkpt lat="47.94142" lon="-2.47904">
        <ele>81.8</ele>
        <time>2024-12-19T09:41:03Z</time>
      </trkpt>
      <trkpt lat="47.94143" lon="-2.47904">
        <ele>81.8</ele>
        <time>2024-12-19T09:41:04Z</time>
      </trkpt>
      <trkpt lat="47.94144" lon="-2.47903">
        <ele>81.7</ele>
        <time>2024-12-19T09:41:05Z</time>
      </trkpt>
      <trkpt lat="47.94145" lon="-2.47903">
        <ele>81.7</ele>
        <time>2024-12-19T09:41:06Z</time>
      </trkpt>
      <trkpt lat="47.94146" lon="-2.47902">
        <ele>81.6</ele>
        <time>2024-12-19T09:41:07Z</time>
      </trkpt>
      <trkpt lat="47.94147" lon="-2.47901">
        <ele>81.5</ele>
        <time>2024-12-19T09:41:08Z</time>
      </trkpt>
      <trkpt lat="47.94148" lon="-2.47901">
        <ele>81.5</ele>
        <time>2024-12-19T09:41:09Z</time>
      </trkpt>
      <trkpt lat="47.94149" lon="-2.47901">
        <ele>81.5</ele>
        <time>2024-12-19T09:41:10Z</time>
      </trkpt>
      <trkpt lat="47.94149" lon="-2.47901">
        <ele>81.4</ele>
        <time>2024-12-19T09:41:11Z</time>
      </trkpt>
      <trkpt lat="47.9415" lon="-2.479">
        <ele>81.4</ele>
        <time>2024-12-19T09:41:12Z</time>
      </trkpt>
      <trkpt lat="47.94151" lon="-2.479">
        <ele>81.3</ele>
        <time>2024-12-19T09:41:13Z</time>
      </trkpt>
      <trkpt lat="47.94151" lon="-2.479">
        <ele>81.3</ele>
        <time>2024-12-19T09:41:14Z</time>
      </trkpt>
      <trkpt lat="47.94152" lon="-2.479">
        <ele>81.3</ele>
        <time>2024-12-19T09:41:15Z</time>
      </trkpt>
      <trkpt lat="47.94152" lon="-2.479">
        <ele>81.3</ele>
        <time>2024-12-19T09:41:16Z</time>
      </trkpt>
      <trkpt lat="47.94152" lon="-2.479">
        <ele>81.2</ele>
        <time>2024-12-19T09:41:17Z</time>
      </trkpt>
      <trkpt lat="47.94152" lon="-2.47899">
        <ele>81.2</ele>
        <time>2024-12-19T09:41:18Z</time>
      </trkpt>
      <trkpt lat="47.94153" lon="-2.47899">
        <ele>81.2</ele>
        <time>2024-12-19T09:41:19Z</time>
      </trkpt>
      <trkpt lat="47.94153" lon="-2.47897">
        <ele>81.1</ele>
        <time>2024-12-19T09:41:20Z</time>
      </trkpt>
      <trkpt lat="47.94154" lon="-2.47896">
        <ele>81</ele>
        <time>2024-12-19T09:41:21Z</time>
      </trkpt>
      <trkpt lat="47.94155" lon="-2.47894">
        <ele>80.9</ele>
        <time>2024-12-19T09:41:22Z</time>
      </trkpt>
      <trkpt lat="47.94157" lon="-2.47893">
        <ele>80.8</ele>
        <time>2024-12-19T09:41:23Z</time>
      </trkpt>
      <trkpt lat="47.94159" lon="-2.47892">
        <ele>80.6</ele>
        <time>2024-12-19T09:41:24Z</time>
      </trkpt>
      <trkpt lat="47.94162" lon="-2.47892">
        <ele>80.4</ele>
        <time>2024-12-19T09:41:25Z</time>
      </trkpt>
      <trkpt lat="47.94166" lon="-2.47892">
        <ele>80.2</ele>
        <time>2024-12-19T09:41:26Z</time>
      </trkpt>
      <trkpt lat="47.94168" lon="-2.47892">
        <ele>80.1</ele>
        <time>2024-12-19T09:41:27Z</time>
      </trkpt>
      <trkpt lat="47.9417" lon="-2.47892">
        <ele>79.9</ele>
        <time>2024-12-19T09:41:28Z</time>
      </trkpt>
      <trkpt lat="47.94172" lon="-2.47892">
        <ele>79.8</ele>
        <time>2024-12-19T09:41:29Z</time>
      </trkpt>
      <trkpt lat="47.94173" lon="-2.47891">
        <ele>79.7</ele>
        <time>2024-12-19T09:41:30Z</time>
      </trkpt>
      <trkpt lat="47.94173" lon="-2.47891">
        <ele>79.6</ele>
        <time>2024-12-19T09:41:31Z</time>
      </trkpt>
      <trkpt lat="47.94173" lon="-2.4789">
        <ele>79.6</ele>
        <time>2024-12-19T09:41:32Z</time>
      </trkpt>
      <trkpt lat="47.94173" lon="-2.47889">
        <ele>79.6</ele>
        <time>2024-12-19T09:41:33Z</time>
      </trkpt>
      <trkpt lat="47.94173" lon="-2.47888">
        <ele>79.5</ele>
        <time>2024-12-19T09:41:34Z</time>
      </trkpt>
      <trkpt lat="47.94173" lon="-2.47887">
        <ele>79.4</ele>
        <time>2024-12-19T09:41:35Z</time>
      </trkpt>
      <trkpt lat="47.94173" lon="-2.47885">
        <ele>79.3</ele>
        <time>2024-12-19T09:41:36Z</time>
      </trkpt>
      <trkpt lat="47.94173" lon="-2.47884">
        <ele>79.2</ele>
        <time>2024-12-19T09:41:37Z</time>
      </trkpt>
      <trkpt lat="47.94173" lon="-2.47883">
        <ele>79.1</ele>
        <time>2024-12-19T09:41:38Z</time>
      </trkpt>
      <trkpt lat="47.94173" lon="-2.47882">
        <ele>79</ele>
        <time>2024-12-19T09:41:39Z</time>
      </trkpt>
      <trkpt lat="47.94174" lon="-2.4788">
        <ele>78.9</ele>
        <time>2024-12-19T09:41:40Z</time>
      </trkpt>
      <trkpt lat="47.94174" lon="-2.47879">
        <ele>78.8</ele>
        <time>2024-12-19T09:41:41Z</time>
      </trkpt>
      <trkpt lat="47.94174" lon="-2.47878">
        <ele>78.7</ele>
        <time>2024-12-19T09:41:42Z</time>
      </trkpt>
      <trkpt lat="47.94175" lon="-2.47877">
        <ele>78.6</ele>
        <time>2024-12-19T09:41:43Z</time>
      </trkpt>
      <trkpt lat="47.94176" lon="-2.47877">
        <ele>78.4</ele>
        <time>2024-12-19T09:41:44Z</time>
      </trkpt>
      <trkpt lat="47.94177" lon="-2.47876">
        <ele>78.3</ele>
        <time>2024-12-19T09:41:45Z</time>
      </trkpt>
      <trkpt lat="47.94179" lon="-2.47874">
        <ele>78.1</ele>
        <time>2024-12-19T09:41:46Z</time>
      </trkpt>
      <trkpt lat="47.9418" lon="-2.47873">
        <ele>77.9</ele>
        <time>2024-12-19T09:41:47Z</time>
      </trkpt>
      <trkpt lat="47.94181" lon="-2.47872">
        <ele>77.8</ele>
        <time>2024-12-19T09:41:48Z</time>
      </trkpt>
      <trkpt lat="47.94182" lon="-2.47872">
        <ele>77.7</ele>
        <time>2024-12-19T09:41:49Z</time>
      </trkpt>
      <trkpt lat="47.94183" lon="-2.47871">
        <ele>77.6</ele>
        <time>2024-12-19T09:41:50Z</time>
      </trkpt>
      <trkpt lat="47.94184" lon="-2.4787">
        <ele>77.4</ele>
        <time>2024-12-19T09:41:51Z</time>
      </trkpt>
      <trkpt lat="47.94184" lon="-2.47869">
        <ele>77.3</ele>
        <time>2024-12-19T09:41:52Z</time>
      </trkpt>
      <trkpt lat="47.94185" lon="-2.47868">
        <ele>77.2</ele>
        <time>2024-12-19T09:41:53Z</time>
      </trkpt>
      <trkpt lat="47.94185" lon="-2.47867">
        <ele>77.1</ele>
        <time>2024-12-19T09:41:54Z</time>
      </trkpt>
      <trkpt lat="47.94186" lon="-2.47866">
        <ele>76.9</ele>
        <time>2024-12-19T09:41:55Z</time>
      </trkpt>
      <trkpt lat="47.94187" lon="-2.47864">
        <ele>76.7</ele>
        <time>2024-12-19T09:41:56Z</time>
      </trkpt>
      <trkpt lat="47.94188" lon="-2.47862">
        <ele>76.5</ele>
        <time>2024-12-19T09:41:57Z</time>
      </trkpt>
      <trkpt lat="47.9419" lon="-2.4786">
        <ele>76.3</ele>
        <time>2024-12-19T09:41:58Z</time>
      </trkpt>
      <trkpt lat="47.94191" lon="-2.47858">
        <ele>76</ele>
        <time>2024-12-19T09:41:59Z</time>
      </trkpt>
      <trkpt lat="47.94193" lon="-2.47856">
        <ele>75.8</ele>
        <time>2024-12-19T09:42:00Z</time>
      </trkpt>
      <trkpt lat="47.94194" lon="-2.47855">
        <ele>75.5</ele>
        <time>2024-12-19T09:42:01Z</time>
      </trkpt>
      <trkpt lat="47.94196" lon="-2.47853">
        <ele>75.3</ele>
        <time>2024-12-19T09:42:02Z</time>
      </trkpt>
      <trkpt lat="47.94197" lon="-2.47851">
        <ele>75.1</ele>
        <time>2024-12-19T09:42:03Z</time>
      </trkpt>
      <trkpt lat="47.94198" lon="-2.4785">
        <ele>74.9</ele>
        <time>2024-12-19T09:42:04Z</time>
      </trkpt>
      <trkpt lat="47.942" lon="-2.47848">
        <ele>74.7</ele>
        <time>2024-12-19T09:42:05Z</time>
      </trkpt>
      <trkpt lat="47.94201" lon="-2.47847">
        <ele>74.6</ele>
        <time>2024-12-19T09:42:06Z</time>
      </trkpt>
      <trkpt lat="47.94202" lon="-2.47846">
        <ele>74.4</ele>
        <time>2024-12-19T09:42:07Z</time>
      </trkpt>
      <trkpt lat="47.94203" lon="-2.47845">
        <ele>74.2</ele>
        <time>2024-12-19T09:42:08Z</time>
      </trkpt>
      <trkpt lat="47.94204" lon="-2.47844">
        <ele>74</ele>
        <time>2024-12-19T09:42:09Z</time>
      </trkpt>
      <trkpt lat="47.94206" lon="-2.47843">
        <ele>73.9</ele>
        <time>2024-12-19T09:42:10Z</time>
      </trkpt>
      <trkpt lat="47.94207" lon="-2.47842">
        <ele>73.7</ele>
        <time>2024-12-19T09:42:11Z</time>
      </trkpt>
      <trkpt lat="47.94208" lon="-2.47841">
        <ele>73.5</ele>
        <time>2024-12-19T09:42:12Z</time>
      </trkpt>
      <trkpt lat="47.94209" lon="-2.4784">
        <ele>73.4</ele>
        <time>2024-12-19T09:42:13Z</time>
      </trkpt>
      <trkpt lat="47.94211" lon="-2.4784">
        <ele>73.3</ele>
        <time>2024-12-19T09:42:14Z</time>
      </trkpt>
      <trkpt lat="47.94213" lon="-2.47839">
        <ele>73.1</ele>
        <time>2024-12-19T09:42:15Z</time>
      </trkpt>
      <trkpt lat="47.94214" lon="-2.47838">
        <ele>72.9</ele>
        <time>2024-12-19T09:42:16Z</time>
      </trkpt>
      <trkpt lat="47.94215" lon="-2.47837">
        <ele>72.8</ele>
        <time>2024-12-19T09:42:17Z</time>
      </trkpt>
      <trkpt lat="47.94216" lon="-2.47835">
        <ele>72.6</ele>
        <time>2024-12-19T09:42:18Z</time>
      </trkpt>
      <trkpt lat="47.94218" lon="-2.47834">
        <ele>72.3</ele>
        <time>2024-12-19T09:42:19Z</time>
      </trkpt>
      <trkpt lat="47.94219" lon="-2.47832">
        <ele>72.2</ele>
        <time>2024-12-19T09:42:20Z</time>
      </trkpt>
      <trkpt lat="47.94219" lon="-2.47832">
        <ele>72.1</ele>
        <time>2024-12-19T09:42:21Z</time>
      </trkpt>
      <trkpt lat="47.9422" lon="-2.47831">
        <ele>72</ele>
        <time>2024-12-19T09:42:22Z</time>
      </trkpt>
      <trkpt lat="47.94221" lon="-2.47831">
        <ele>72</ele>
        <time>2024-12-19T09:42:23Z</time>
      </trkpt>
      <trkpt lat="47.94221" lon="-2.47831">
        <ele>71.9</ele>
        <time>2024-12-19T09:42:24Z</time>
      </trkpt>
      <trkpt lat="47.94221" lon="-2.4783">
        <ele>71.8</ele>
        <time>2024-12-19T09:42:25Z</time>
      </trkpt>
      <trkpt lat="47.94222" lon="-2.4783">
        <ele>71.7</ele>
        <time>2024-12-19T09:42:26Z</time>
      </trkpt>
      <trkpt lat="47.94223" lon="-2.47829">
        <ele>71.7</ele>
        <time>2024-12-19T09:42:27Z</time>
      </trkpt>
      <trkpt lat="47.94223" lon="-2.47828">
        <ele>71.6</ele>
        <time>2024-12-19T09:42:28Z</time>
      </trkpt>
      <trkpt lat="47.94224" lon="-2.47827">
        <ele>71.5</ele>
        <time>2024-12-19T09:42:29Z</time>
      </trkpt>
      <trkpt lat="47.94225" lon="-2.47826">
        <ele>71.3</ele>
        <time>2024-12-19T09:42:30Z</time>
      </trkpt>
      <trkpt lat="47.94226" lon="-2.47825">
        <ele>71.2</ele>
        <time>2024-12-19T09:42:31Z</time>
      </trkpt>
      <trkpt lat="47.94227" lon="-2.47824">
        <ele>71.1</ele>
        <time>2024-12-19T09:42:32Z</time>
      </trkpt>
      <trkpt lat="47.94227" lon="-2.47824">
        <ele>71.1</ele>
        <time>2024-12-19T09:42:33Z</time>
      </trkpt>
      <trkpt lat="47.94227" lon="-2.47823">
        <ele>71.1</ele>
        <time>2024-12-19T09:42:34Z</time>
      </trkpt>
      <trkpt lat="47.94227" lon="-2.47823">
        <ele>71</ele>
        <time>2024-12-19T09:42:35Z</time>
      </trkpt>
      <trkpt lat="47.94228" lon="-2.47822">
        <ele>70.9</ele>
        <time>2024-12-19T09:42:36Z</time>
      </trkpt>
      <trkpt lat="47.9423" lon="-2.47821">
        <ele>70.7</ele>
        <time>2024-12-19T09:42:37Z</time>
      </trkpt>
      <trkpt lat="47.94231" lon="-2.4782">
        <ele>70.6</ele>
        <time>2024-12-19T09:42:38Z</time>
      </trkpt>
      <trkpt lat="47.94232" lon="-2.47819">
        <ele>70.4</ele>
        <time>2024-12-19T09:42:39Z</time>
      </trkpt>
      <trkpt lat="47.94233" lon="-2.47817">
        <ele>70.2</ele>
        <time>2024-12-19T09:42:40Z</time>
      </trkpt>
      <trkpt lat="47.94234" lon="-2.47816">
        <ele>70</ele>
        <time>2024-12-19T09:42:41Z</time>
      </trkpt>
      <trkpt lat="47.94235" lon="-2.47815">
        <ele>69.9</ele>
        <time>2024-12-19T09:42:42Z</time>
      </trkpt>
      <trkpt lat="47.94236" lon="-2.47814">
        <ele>69.8</ele>
        <time>2024-12-19T09:42:43Z</time>
      </trkpt>
      <trkpt lat="47.94237" lon="-2.47813">
        <ele>69.7</ele>
        <time>2024-12-19T09:42:44Z</time>
      </trkpt>
      <trkpt lat="47.94237" lon="-2.47813">
        <ele>69.5</ele>
        <time>2024-12-19T09:42:45Z</time>
      </trkpt>
      <trkpt lat="47.94239" lon="-2.47812">
        <ele>69.4</ele>
        <time>2024-12-19T09:42:46Z</time>
      </trkpt>
      <trkpt lat="47.9424" lon="-2.47812">
        <ele>69.3</ele>
        <time>2024-12-19T09:42:47Z</time>
      </trkpt>
      <trkpt lat="47.94241" lon="-2.47812">
        <ele>69.2</ele>
        <time>2024-12-19T09:42:48Z</time>
      </trkpt>
      <trkpt lat="47.94242" lon="-2.47811">
        <ele>69.1</ele>
        <time>2024-12-19T09:42:49Z</time>
      </trkpt>
      <trkpt lat="47.94243" lon="-2.47811">
        <ele>69</ele>
        <time>2024-12-19T09:42:50Z</time>
      </trkpt>
      <trkpt lat="47.94245" lon="-2.47811">
        <ele>68.9</ele>
        <time>2024-12-19T09:42:51Z</time>
      </trkpt>
      <trkpt lat="47.94246" lon="-2.47811">
        <ele>68.8</ele>
        <time>2024-12-19T09:42:52Z</time>
      </trkpt>
      <trkpt lat="47.94247" lon="-2.47811">
        <ele>68.7</ele>
        <time>2024-12-19T09:42:53Z</time>
      </trkpt>
      <trkpt lat="47.94248" lon="-2.4781">
        <ele>68.7</ele>
        <time>2024-12-19T09:42:54Z</time>
      </trkpt>
      <trkpt lat="47.94248" lon="-2.4781">
        <ele>68.6</ele>
        <time>2024-12-19T09:42:55Z</time>
      </trkpt>
      <trkpt lat="47.94249" lon="-2.4781">
        <ele>68.6</ele>
        <time>2024-12-19T09:42:56Z</time>
      </trkpt>
      <trkpt lat="47.94249" lon="-2.47809">
        <ele>68.5</ele>
        <time>2024-12-19T09:42:57Z</time>
      </trkpt>
      <trkpt lat="47.9425" lon="-2.47809">
        <ele>68.4</ele>
        <time>2024-12-19T09:42:58Z</time>
      </trkpt>
      <trkpt lat="47.9425" lon="-2.47807">
        <ele>68.2</ele>
        <time>2024-12-19T09:42:59Z</time>
      </trkpt>
      <trkpt lat="47.94251" lon="-2.47806">
        <ele>68.1</ele>
        <time>2024-12-19T09:43:00Z</time>
      </trkpt>
      <trkpt lat="47.94251" lon="-2.47806">
        <ele>68</ele>
        <time>2024-12-19T09:43:01Z</time>
      </trkpt>
      <trkpt lat="47.94252" lon="-2.47805">
        <ele>67.9</ele>
        <time>2024-12-19T09:43:02Z</time>
      </trkpt>
      <trkpt lat="47.94252" lon="-2.47805">
        <ele>67.9</ele>
        <time>2024-12-19T09:43:03Z</time>
      </trkpt>
      <trkpt lat="47.94253" lon="-2.47804">
        <ele>67.8</ele>
        <time>2024-12-19T09:43:04Z</time>
      </trkpt>
      <trkpt lat="47.94253" lon="-2.47804">
        <ele>67.8</ele>
        <time>2024-12-19T09:43:05Z</time>
      </trkpt>
      <trkpt lat="47.94253" lon="-2.47803">
        <ele>67.7</ele>
        <time>2024-12-19T09:43:06Z</time>
      </trkpt>
      <trkpt lat="47.94253" lon="-2.47803">
        <ele>67.7</ele>
        <time>2024-12-19T09:43:07Z</time>
      </trkpt>
      <trkpt lat="47.94253" lon="-2.47802">
        <ele>67.6</ele>
        <time>2024-12-19T09:43:08Z</time>
      </trkpt>
      <trkpt lat="47.94254" lon="-2.47802">
        <ele>67.6</ele>
        <time>2024-12-19T09:43:09Z</time>
      </trkpt>
      <trkpt lat="47.94255" lon="-2.47801">
        <ele>67.5</ele>
        <time>2024-12-19T09:43:10Z</time>
      </trkpt>
      <trkpt lat="47.94256" lon="-2.478">
        <ele>67.4</ele>
        <time>2024-12-19T09:43:11Z</time>
      </trkpt>
      <trkpt lat="47.94257" lon="-2.478">
        <ele>67.3</ele>
        <time>2024-12-19T09:43:12Z</time>
      </trkpt>
      <trkpt lat="47.94258" lon="-2.47799">
        <ele>67.3</ele>
        <time>2024-12-19T09:43:13Z</time>
      </trkpt>
      <trkpt lat="47.9426" lon="-2.47799">
        <ele>67.2</ele>
        <time>2024-12-19T09:43:14Z</time>
      </trkpt>
      <trkpt lat="47.94262" lon="-2.47798">
        <ele>67.1</ele>
        <time>2024-12-19T09:43:15Z</time>
      </trkpt>
      <trkpt lat="47.94264" lon="-2.47798">
        <ele>66.9</ele>
        <time>2024-12-19T09:43:16Z</time>
      </trkpt>
      <trkpt lat="47.94265" lon="-2.47797">
        <ele>66.8</ele>
        <time>2024-12-19T09:43:17Z</time>
      </trkpt>
      <trkpt lat="47.94266" lon="-2.47796">
        <ele>66.7</ele>
        <time>2024-12-19T09:43:18Z</time>
      </trkpt>
      <trkpt lat="47.94268" lon="-2.47795">
        <ele>66.6</ele>
        <time>2024-12-19T09:43:19Z</time>
      </trkpt>
      <trkpt lat="47.94269" lon="-2.47794">
        <ele>66.5</ele>
        <time>2024-12-19T09:43:20Z</time>
      </trkpt>
      <trkpt lat="47.9427" lon="-2.47793">
        <ele>66.4</ele>
        <time>2024-12-19T09:43:21Z</time>
      </trkpt>
      <trkpt lat="47.94271" lon="-2.47792">
        <ele>66.3</ele>
        <time>2024-12-19T09:43:22Z</time>
      </trkpt>
      <trkpt lat="47.94272" lon="-2.47792">
        <ele>66.2</ele>
        <time>2024-12-19T09:43:23Z</time>
      </trkpt>
      <trkpt lat="47.94272" lon="-2.47791">
        <ele>66.2</ele>
        <time>2024-12-19T09:43:24Z</time>
      </trkpt>
      <trkpt lat="47.94273" lon="-2.47791">
        <ele>66.1</ele>
        <time>2024-12-19T09:43:25Z</time>
      </trkpt>
      <trkpt lat="47.94273" lon="-2.4779">
        <ele>66.1</ele>
        <time>2024-12-19T09:43:26Z</time>
      </trkpt>
      <trkpt lat="47.94273" lon="-2.4779">
        <ele>66</ele>
        <time>2024-12-19T09:43:27Z</time>
      </trkpt>
      <trkpt lat="47.94273" lon="-2.47789">
        <ele>65.9</ele>
        <time>2024-12-19T09:43:28Z</time>
      </trkpt>
      <trkpt lat="47.94274" lon="-2.47788">
        <ele>65.9</ele>
        <time>2024-12-19T09:43:29Z</time>
      </trkpt>
      <trkpt lat="47.94274" lon="-2.47788">
        <ele>65.9</ele>
        <time>2024-12-19T09:43:30Z</time>
      </trkpt>
      <trkpt lat="47.94274" lon="-2.47787">
        <ele>65.8</ele>
        <time>2024-12-19T09:43:31Z</time>
      </trkpt>
      <trkpt lat="47.94274" lon="-2.47787">
        <ele>65.8</ele>
        <time>2024-12-19T09:43:32Z</time>
      </trkpt>
      <trkpt lat="47.94275" lon="-2.47786">
        <ele>65.7</ele>
        <time>2024-12-19T09:43:33Z</time>
      </trkpt>
      <trkpt lat="47.94276" lon="-2.47785">
        <ele>65.6</ele>
        <time>2024-12-19T09:43:34Z</time>
      </trkpt>
      <trkpt lat="47.94279" lon="-2.47784">
        <ele>65.4</ele>
        <time>2024-12-19T09:43:36Z</time>
      </trkpt>
      <trkpt lat="47.9428" lon="-2.47783">
        <ele>65.4</ele>
        <time>2024-12-19T09:43:37Z</time>
      </trkpt>
      <trkpt lat="47.94281" lon="-2.47782">
        <ele>65.3</ele>
        <time>2024-12-19T09:43:38Z</time>
      </trkpt>
      <trkpt lat="47.94282" lon="-2.47782">
        <ele>65.3</ele>
        <time>2024-12-19T09:43:39Z</time>
      </trkpt>
      <trkpt lat="47.94283" lon="-2.4778">
        <ele>65.1</ele>
        <time>2024-12-19T09:43:40Z</time>
      </trkpt>
      <trkpt lat="47.94284" lon="-2.47779">
        <ele>65</ele>
        <time>2024-12-19T09:43:41Z</time>
      </trkpt>
      <trkpt lat="47.94285" lon="-2.47777">
        <ele>65</ele>
        <time>2024-12-19T09:43:42Z</time>
      </trkpt>
      <trkpt lat="47.94286" lon="-2.47776">
        <ele>64.9</ele>
        <time>2024-12-19T09:43:43Z</time>
      </trkpt>
      <trkpt lat="47.94287" lon="-2.47776">
        <ele>64.8</ele>
        <time>2024-12-19T09:43:44Z</time>
      </trkpt>
      <trkpt lat="47.94289" lon="-2.47775">
        <ele>64.8</ele>
        <time>2024-12-19T09:43:45Z</time>
      </trkpt>
      <trkpt lat="47.9429" lon="-2.47774">
        <ele>64.7</ele>
        <time>2024-12-19T09:43:46Z</time>
      </trkpt>
      <trkpt lat="47.94291" lon="-2.47774">
        <ele>64.7</ele>
        <time>2024-12-19T09:43:47Z</time>
      </trkpt>
      <trkpt lat="47.94291" lon="-2.47773">
        <ele>64.7</ele>
        <time>2024-12-19T09:43:48Z</time>
      </trkpt>
      <trkpt lat="47.94292" lon="-2.47772">
        <ele>64.6</ele>
        <time>2024-12-19T09:43:49Z</time>
      </trkpt>
      <trkpt lat="47.94293" lon="-2.47771">
        <ele>64.5</ele>
        <time>2024-12-19T09:43:50Z</time>
      </trkpt>
      <trkpt lat="47.94294" lon="-2.47771">
        <ele>64.5</ele>
        <time>2024-12-19T09:43:51Z</time>
      </trkpt>
      <trkpt lat="47.94295" lon="-2.47771">
        <ele>64.5</ele>
        <time>2024-12-19T09:43:52Z</time>
      </trkpt>
      <trkpt lat="47.94295" lon="-2.4777">
        <ele>64.5</ele>
        <time>2024-12-19T09:43:53Z</time>
      </trkpt>
      <trkpt lat="47.94296" lon="-2.4777">
        <ele>64.4</ele>
        <time>2024-12-19T09:43:54Z</time>
      </trkpt>
      <trkpt lat="47.94297" lon="-2.47769">
        <ele>64.4</ele>
        <time>2024-12-19T09:43:55Z</time>
      </trkpt>
      <trkpt lat="47.94298" lon="-2.47769">
        <ele>64.4</ele>
        <time>2024-12-19T09:43:56Z</time>
      </trkpt>
      <trkpt lat="47.94298" lon="-2.47768">
        <ele>64.3</ele>
        <time>2024-12-19T09:43:57Z</time>
      </trkpt>
      <trkpt lat="47.94299" lon="-2.47767">
        <ele>64.3</ele>
        <time>2024-12-19T09:43:58Z</time>
      </trkpt>
      <trkpt lat="47.94299" lon="-2.47767">
        <ele>64.2</ele>
        <time>2024-12-19T09:43:59Z</time>
      </trkpt>
      <trkpt lat="47.94299" lon="-2.47767">
        <ele>64.2</ele>
        <time>2024-12-19T09:44:00Z</time>
      </trkpt>
      <trkpt lat="47.943" lon="-2.47767">
        <ele>64.2</ele>
        <time>2024-12-19T09:44:01Z</time>
      </trkpt>
      <trkpt lat="47.94301" lon="-2.47767">
        <ele>64.2</ele>
        <time>2024-12-19T09:44:02Z</time>
      </trkpt>
      <trkpt lat="47.94302" lon="-2.47766">
        <ele>64.1</ele>
        <time>2024-12-19T09:44:03Z</time>
      </trkpt>
      <trkpt lat="47.94303" lon="-2.47764">
        <ele>64</ele>
        <time>2024-12-19T09:44:04Z</time>
      </trkpt>
      <trkpt lat="47.94304" lon="-2.47763">
        <ele>63.9</ele>
        <time>2024-12-19T09:44:05Z</time>
      </trkpt>
      <trkpt lat="47.94307" lon="-2.47762">
        <ele>63.8</ele>
        <time>2024-12-19T09:44:06Z</time>
      </trkpt>
      <trkpt lat="47.9431" lon="-2.4776">
        <ele>63.8</ele>
        <time>2024-12-19T09:44:07Z</time>
      </trkpt>
      <trkpt lat="47.94313" lon="-2.47759">
        <ele>63.7</ele>
        <time>2024-12-19T09:44:08Z</time>
      </trkpt>
      <trkpt lat="47.94315" lon="-2.47759">
        <ele>63.8</ele>
        <time>2024-12-19T09:44:09Z</time>
      </trkpt>
      <trkpt lat="47.94318" lon="-2.47758">
        <ele>63.8</ele>
        <time>2024-12-19T09:44:10Z</time>
      </trkpt>
      <trkpt lat="47.94319" lon="-2.47757">
        <ele>63.8</ele>
        <time>2024-12-19T09:44:11Z</time>
      </trkpt>
      <trkpt lat="47.94321" lon="-2.47756">
        <ele>63.7</ele>
        <time>2024-12-19T09:44:12Z</time>
      </trkpt>
      <trkpt lat="47.94322" lon="-2.47755">
        <ele>63.7</ele>
        <time>2024-12-19T09:44:13Z</time>
      </trkpt>
      <trkpt lat="47.94322" lon="-2.47754">
        <ele>63.7</ele>
        <time>2024-12-19T09:44:14Z</time>
      </trkpt>
      <trkpt lat="47.94323" lon="-2.47752">
        <ele>63.7</ele>
        <time>2024-12-19T09:44:15Z</time>
      </trkpt>
      <trkpt lat="47.94324" lon="-2.47751">
        <ele>63.7</ele>
        <time>2024-12-19T09:44:16Z</time>
      </trkpt>
      <trkpt lat="47.94324" lon="-2.4775">
        <ele>63.7</ele>
        <time>2024-12-19T09:44:17Z</time>
      </trkpt>
      <trkpt lat="47.94324" lon="-2.4775">
        <ele>63.6</ele>
        <time>2024-12-19T09:44:18Z</time>
      </trkpt>
      <trkpt lat="47.94324" lon="-2.47749">
        <ele>63.6</ele>
        <time>2024-12-19T09:44:19Z</time>
      </trkpt>
      <trkpt lat="47.94325" lon="-2.47748">
        <ele>63.6</ele>
        <time>2024-12-19T09:44:20Z</time>
      </trkpt>
      <trkpt lat="47.94326" lon="-2.47747">
        <ele>63.7</ele>
        <time>2024-12-19T09:44:21Z</time>
      </trkpt>
      <trkpt lat="47.94327" lon="-2.47747">
        <ele>63.7</ele>
        <time>2024-12-19T09:44:22Z</time>
      </trkpt>
      <trkpt lat="47.94328" lon="-2.47746">
        <ele>63.7</ele>
        <time>2024-12-19T09:44:23Z</time>
      </trkpt>
      <trkpt lat="47.94329" lon="-2.47745">
        <ele>63.8</ele>
        <time>2024-12-19T09:44:24Z</time>
      </trkpt>
      <trkpt lat="47.9433" lon="-2.47745">
        <ele>63.9</ele>
        <time>2024-12-19T09:44:25Z</time>
      </trkpt>
      <trkpt lat="47.94332" lon="-2.47745">
        <ele>63.9</ele>
        <time>2024-12-19T09:44:26Z</time>
      </trkpt>
      <trkpt lat="47.94332" lon="-2.47744">
        <ele>63.9</ele>
        <time>2024-12-19T09:44:27Z</time>
      </trkpt>
      <trkpt lat="47.94331" lon="-2.47744">
        <ele>63.9</ele>
        <time>2024-12-19T09:44:28Z</time>
      </trkpt>
      <trkpt lat="47.94332" lon="-2.47744">
        <ele>63.9</ele>
        <time>2024-12-19T09:44:29Z</time>
      </trkpt>
      <trkpt lat="47.94333" lon="-2.47744">
        <ele>64</ele>
        <time>2024-12-19T09:44:30Z</time>
      </trkpt>
      <trkpt lat="47.94334" lon="-2.47744">
        <ele>64</ele>
        <time>2024-12-19T09:44:31Z</time>
      </trkpt>
      <trkpt lat="47.94335" lon="-2.47744">
        <ele>64.1</ele>
        <time>2024-12-19T09:44:32Z</time>
      </trkpt>
      <trkpt lat="47.94336" lon="-2.47743">
        <ele>64.2</ele>
        <time>2024-12-19T09:44:33Z</time>
      </trkpt>
      <trkpt lat="47.94337" lon="-2.47743">
        <ele>64.3</ele>
        <time>2024-12-19T09:44:34Z</time>
      </trkpt>
      <trkpt lat="47.94339" lon="-2.47743">
        <ele>64.4</ele>
        <time>2024-12-19T09:44:35Z</time>
      </trkpt>
      <trkpt lat="47.9434" lon="-2.47742">
        <ele>64.6</ele>
        <time>2024-12-19T09:44:36Z</time>
      </trkpt>
      <trkpt lat="47.94342" lon="-2.47742">
        <ele>64.7</ele>
        <time>2024-12-19T09:44:37Z</time>
      </trkpt>
      <trkpt lat="47.94343" lon="-2.47741">
        <ele>64.8</ele>
        <time>2024-12-19T09:44:38Z</time>
      </trkpt>
      <trkpt lat="47.94344" lon="-2.47741">
        <ele>64.9</ele>
        <time>2024-12-19T09:44:39Z</time>
      </trkpt>
      <trkpt lat="47.94346" lon="-2.4774">
        <ele>65.1</ele>
        <time>2024-12-19T09:44:40Z</time>
      </trkpt>
      <trkpt lat="47.94347" lon="-2.4774">
        <ele>65.2</ele>
        <time>2024-12-19T09:44:41Z</time>
      </trkpt>
      <trkpt lat="47.94349" lon="-2.4774">
        <ele>65.3</ele>
        <time>2024-12-19T09:44:42Z</time>
      </trkpt>
      <trkpt lat="47.9435" lon="-2.4774">
        <ele>65.4</ele>
        <time>2024-12-19T09:44:43Z</time>
      </trkpt>
      <trkpt lat="47.94351" lon="-2.4774">
        <ele>65.5</ele>
        <time>2024-12-19T09:44:44Z</time>
      </trkpt>
      <trkpt lat="47.94352" lon="-2.4774">
        <ele>65.5</ele>
        <time>2024-12-19T09:44:45Z</time>
      </trkpt>
      <trkpt lat="47.94351" lon="-2.47741">
        <ele>65.5</ele>
        <time>2024-12-19T09:44:46Z</time>
      </trkpt>
      <trkpt lat="47.9435" lon="-2.47741">
        <ele>65.4</ele>
        <time>2024-12-19T09:44:47Z</time>
      </trkpt>
      <trkpt lat="47.94351" lon="-2.47741">
        <ele>65.5</ele>
        <time>2024-12-19T09:44:48Z</time>
      </trkpt>
      <trkpt lat="47.94352" lon="-2.47741">
        <ele>65.5</ele>
        <time>2024-12-19T09:44:49Z</time>
      </trkpt>
      <trkpt lat="47.94352" lon="-2.47741">
        <ele>65.6</ele>
        <time>2024-12-19T09:44:50Z</time>
      </trkpt>
      <trkpt lat="47.94353" lon="-2.4774">
        <ele>65.6</ele>
        <time>2024-12-19T09:44:51Z</time>
      </trkpt>
      <trkpt lat="47.94354" lon="-2.4774">
        <ele>65.7</ele>
        <time>2024-12-19T09:44:52Z</time>
      </trkpt>
      <trkpt lat="47.94355" lon="-2.4774">
        <ele>65.8</ele>
        <time>2024-12-19T09:44:53Z</time>
      </trkpt>
      <trkpt lat="47.94356" lon="-2.4774">
        <ele>65.9</ele>
        <time>2024-12-19T09:44:54Z</time>
      </trkpt>
      <trkpt lat="47.94357" lon="-2.47739">
        <ele>66</ele>
        <time>2024-12-19T09:44:55Z</time>
      </trkpt>
      <trkpt lat="47.94358" lon="-2.47739">
        <ele>66.1</ele>
        <time>2024-12-19T09:44:56Z</time>
      </trkpt>
      <trkpt lat="47.9436" lon="-2.47739">
        <ele>66.3</ele>
        <time>2024-12-19T09:44:57Z</time>
      </trkpt>
      <trkpt lat="47.94361" lon="-2.47739">
        <ele>66.4</ele>
        <time>2024-12-19T09:44:58Z</time>
      </trkpt>
      <trkpt lat="47.94363" lon="-2.47739">
        <ele>66.5</ele>
        <time>2024-12-19T09:44:59Z</time>
      </trkpt>
      <trkpt lat="47.94364" lon="-2.47738">
        <ele>66.6</ele>
        <time>2024-12-19T09:45:00Z</time>
      </trkpt>
      <trkpt lat="47.94364" lon="-2.47738">
        <ele>66.6</ele>
        <time>2024-12-19T09:45:01Z</time>
      </trkpt>
      <trkpt lat="47.94365" lon="-2.47738">
        <ele>66.6</ele>
        <time>2024-12-19T09:45:02Z</time>
      </trkpt>
      <trkpt lat="47.94366" lon="-2.47738">
        <ele>66.7</ele>
        <time>2024-12-19T09:45:03Z</time>
      </trkpt>
      <trkpt lat="47.94368" lon="-2.47737">
        <ele>66.8</ele>
        <time>2024-12-19T09:45:04Z</time>
      </trkpt>
      <trkpt lat="47.94369" lon="-2.47737">
        <ele>66.9</ele>
        <time>2024-12-19T09:45:05Z</time>
      </trkpt>
      <trkpt lat="47.9437" lon="-2.47737">
        <ele>67</ele>
        <time>2024-12-19T09:45:06Z</time>
      </trkpt>
      <trkpt lat="47.94372" lon="-2.47737">
        <ele>67</ele>
        <time>2024-12-19T09:45:07Z</time>
      </trkpt>
      <trkpt lat="47.94373" lon="-2.47737">
        <ele>67.1</ele>
        <time>2024-12-19T09:45:08Z</time>
      </trkpt>
      <trkpt lat="47.94374" lon="-2.47737">
        <ele>67.2</ele>
        <time>2024-12-19T09:45:09Z</time>
      </trkpt>
      <trkpt lat="47.94375" lon="-2.47736">
        <ele>67.3</ele>
        <time>2024-12-19T09:45:10Z</time>
      </trkpt>
      <trkpt lat="47.94376" lon="-2.47736">
        <ele>67.3</ele>
        <time>2024-12-19T09:45:11Z</time>
      </trkpt>
      <trkpt lat="47.94378" lon="-2.47735">
        <ele>67.4</ele>
        <time>2024-12-19T09:45:12Z</time>
      </trkpt>
      <trkpt lat="47.94379" lon="-2.47735">
        <ele>67.5</ele>
        <time>2024-12-19T09:45:13Z</time>
      </trkpt>
      <trkpt lat="47.9438" lon="-2.47735">
        <ele>67.5</ele>
        <time>2024-12-19T09:45:14Z</time>
      </trkpt>
      <trkpt lat="47.94382" lon="-2.47735">
        <ele>67.6</ele>
        <time>2024-12-19T09:45:15Z</time>
      </trkpt>
      <trkpt lat="47.94383" lon="-2.47735">
        <ele>67.7</ele>
        <time>2024-12-19T09:45:16Z</time>
      </trkpt>
      <trkpt lat="47.94384" lon="-2.47736">
        <ele>67.7</ele>
        <time>2024-12-19T09:45:17Z</time>
      </trkpt>
      <trkpt lat="47.94386" lon="-2.47736">
        <ele>67.8</ele>
        <time>2024-12-19T09:45:18Z</time>
      </trkpt>
      <trkpt lat="47.94387" lon="-2.47736">
        <ele>67.9</ele>
        <time>2024-12-19T09:45:19Z</time>
      </trkpt>
      <trkpt lat="47.94388" lon="-2.47736">
        <ele>68</ele>
        <time>2024-12-19T09:45:20Z</time>
      </trkpt>
      <trkpt lat="47.9439" lon="-2.47736">
        <ele>68</ele>
        <time>2024-12-19T09:45:21Z</time>
      </trkpt>
      <trkpt lat="47.94391" lon="-2.47737">
        <ele>68.1</ele>
        <time>2024-12-19T09:45:22Z</time>
      </trkpt>
      <trkpt lat="47.94393" lon="-2.47737">
        <ele>68.2</ele>
        <time>2024-12-19T09:45:23Z</time>
      </trkpt>
      <trkpt lat="47.94395" lon="-2.47737">
        <ele>68.2</ele>
        <time>2024-12-19T09:45:24Z</time>
      </trkpt>
      <trkpt lat="47.94396" lon="-2.47737">
        <ele>68.3</ele>
        <time>2024-12-19T09:45:25Z</time>
      </trkpt>
      <trkpt lat="47.94398" lon="-2.47737">
        <ele>68.3</ele>
        <time>2024-12-19T09:45:26Z</time>
      </trkpt>
      <trkpt lat="47.94399" lon="-2.47737">
        <ele>68.4</ele>
        <time>2024-12-19T09:45:27Z</time>
      </trkpt>
      <trkpt lat="47.944" lon="-2.47738">
        <ele>68.4</ele>
        <time>2024-12-19T09:45:28Z</time>
      </trkpt>
      <trkpt lat="47.94402" lon="-2.47738">
        <ele>68.5</ele>
        <time>2024-12-19T09:45:29Z</time>
      </trkpt>
      <trkpt lat="47.94404" lon="-2.47738">
        <ele>68.5</ele>
        <time>2024-12-19T09:45:30Z</time>
      </trkpt>
      <trkpt lat="47.94406" lon="-2.47738">
        <ele>68.6</ele>
        <time>2024-12-19T09:45:31Z</time>
      </trkpt>
      <trkpt lat="47.94407" lon="-2.47738">
        <ele>68.6</ele>
        <time>2024-12-19T09:45:32Z</time>
      </trkpt>
      <trkpt lat="47.94408" lon="-2.47739">
        <ele>68.7</ele>
        <time>2024-12-19T09:45:33Z</time>
      </trkpt>
      <trkpt lat="47.94409" lon="-2.47739">
        <ele>68.7</ele>
        <time>2024-12-19T09:45:34Z</time>
      </trkpt>
      <trkpt lat="47.94411" lon="-2.47739">
        <ele>68.8</ele>
        <time>2024-12-19T09:45:35Z</time>
      </trkpt>
      <trkpt lat="47.94413" lon="-2.47739">
        <ele>68.9</ele>
        <time>2024-12-19T09:45:36Z</time>
      </trkpt>
      <trkpt lat="47.94415" lon="-2.47738">
        <ele>69</ele>
        <time>2024-12-19T09:45:37Z</time>
      </trkpt>
      <trkpt lat="47.94417" lon="-2.47738">
        <ele>69</ele>
        <time>2024-12-19T09:45:38Z</time>
      </trkpt>
      <trkpt lat="47.94418" lon="-2.47738">
        <ele>69</ele>
        <time>2024-12-19T09:45:39Z</time>
      </trkpt>
      <trkpt lat="47.94419" lon="-2.47738">
        <ele>69</ele>
        <time>2024-12-19T09:45:40Z</time>
      </trkpt>
      <trkpt lat="47.94421" lon="-2.47738">
        <ele>68.9</ele>
        <time>2024-12-19T09:45:41Z</time>
      </trkpt>
      <trkpt lat="47.94422" lon="-2.47738">
        <ele>68.9</ele>
        <time>2024-12-19T09:45:42Z</time>
      </trkpt>
      <trkpt lat="47.94423" lon="-2.47739">
        <ele>68.9</ele>
        <time>2024-12-19T09:45:43Z</time>
      </trkpt>
      <trkpt lat="47.94424" lon="-2.47739">
        <ele>68.9</ele>
        <time>2024-12-19T09:45:44Z</time>
      </trkpt>
      <trkpt lat="47.94425" lon="-2.47739">
        <ele>68.9</ele>
        <time>2024-12-19T09:45:45Z</time>
      </trkpt>
      <trkpt lat="47.94425" lon="-2.4774">
        <ele>68.9</ele>
        <time>2024-12-19T09:45:46Z</time>
      </trkpt>
      <trkpt lat="47.94426" lon="-2.4774">
        <ele>68.9</ele>
        <time>2024-12-19T09:45:47Z</time>
      </trkpt>
      <trkpt lat="47.94428" lon="-2.4774">
        <ele>68.9</ele>
        <time>2024-12-19T09:45:48Z</time>
      </trkpt>
      <trkpt lat="47.94429" lon="-2.4774">
        <ele>68.8</ele>
        <time>2024-12-19T09:45:49Z</time>
      </trkpt>
      <trkpt lat="47.9443" lon="-2.4774">
        <ele>68.8</ele>
        <time>2024-12-19T09:45:50Z</time>
      </trkpt>
      <trkpt lat="47.94431" lon="-2.4774">
        <ele>68.8</ele>
        <time>2024-12-19T09:45:51Z</time>
      </trkpt>
      <trkpt lat="47.94433" lon="-2.47741">
        <ele>68.8</ele>
        <time>2024-12-19T09:45:52Z</time>
      </trkpt>
      <trkpt lat="47.94435" lon="-2.47741">
        <ele>68.8</ele>
        <time>2024-12-19T09:45:53Z</time>
      </trkpt>
      <trkpt lat="47.94436" lon="-2.47741">
        <ele>68.8</ele>
        <time>2024-12-19T09:45:54Z</time>
      </trkpt>
      <trkpt lat="47.94438" lon="-2.47741">
        <ele>68.7</ele>
        <time>2024-12-19T09:45:55Z</time>
      </trkpt>
      <trkpt lat="47.9444" lon="-2.47741">
        <ele>68.7</ele>
        <time>2024-12-19T09:45:56Z</time>
      </trkpt>
      <trkpt lat="47.94441" lon="-2.47742">
        <ele>68.7</ele>
        <time>2024-12-19T09:45:57Z</time>
      </trkpt>
      <trkpt lat="47.94442" lon="-2.47742">
        <ele>68.7</ele>
        <time>2024-12-19T09:45:58Z</time>
      </trkpt>
      <trkpt lat="47.94443" lon="-2.47742">
        <ele>68.7</ele>
        <time>2024-12-19T09:45:59Z</time>
      </trkpt>
      <trkpt lat="47.94445" lon="-2.47742">
        <ele>68.7</ele>
        <time>2024-12-19T09:46:00Z</time>
      </trkpt>
      <trkpt lat="47.94446" lon="-2.47742">
        <ele>68.6</ele>
        <time>2024-12-19T09:46:01Z</time>
      </trkpt>
      <trkpt lat="47.94448" lon="-2.47742">
        <ele>68.6</ele>
        <time>2024-12-19T09:46:02Z</time>
      </trkpt>
      <trkpt lat="47.94449" lon="-2.47741">
        <ele>68.5</ele>
        <time>2024-12-19T09:46:03Z</time>
      </trkpt>
      <trkpt lat="47.94451" lon="-2.47741">
        <ele>68.5</ele>
        <time>2024-12-19T09:46:04Z</time>
      </trkpt>
      <trkpt lat="47.94451" lon="-2.47741">
        <ele>68.4</ele>
        <time>2024-12-19T09:46:05Z</time>
      </trkpt>
      <trkpt lat="47.94452" lon="-2.4774">
        <ele>68.4</ele>
        <time>2024-12-19T09:46:06Z</time>
      </trkpt>
      <trkpt lat="47.94454" lon="-2.4774">
        <ele>68.3</ele>
        <time>2024-12-19T09:46:07Z</time>
      </trkpt>
      <trkpt lat="47.94455" lon="-2.47739">
        <ele>68.3</ele>
        <time>2024-12-19T09:46:08Z</time>
      </trkpt>
      <trkpt lat="47.94456" lon="-2.47739">
        <ele>68.2</ele>
        <time>2024-12-19T09:46:09Z</time>
      </trkpt>
      <trkpt lat="47.94458" lon="-2.47738">
        <ele>68.1</ele>
        <time>2024-12-19T09:46:10Z</time>
      </trkpt>
      <trkpt lat="47.94459" lon="-2.47738">
        <ele>68</ele>
        <time>2024-12-19T09:46:11Z</time>
      </trkpt>
      <trkpt lat="47.9446" lon="-2.47737">
        <ele>68</ele>
        <time>2024-12-19T09:46:12Z</time>
      </trkpt>
      <trkpt lat="47.94461" lon="-2.47737">
        <ele>67.9</ele>
        <time>2024-12-19T09:46:13Z</time>
      </trkpt>
      <trkpt lat="47.94462" lon="-2.47736">
        <ele>67.9</ele>
        <time>2024-12-19T09:46:14Z</time>
      </trkpt>
      <trkpt lat="47.94465" lon="-2.47735">
        <ele>67.7</ele>
        <time>2024-12-19T09:46:18Z</time>
      </trkpt>
      <trkpt lat="47.94466" lon="-2.47734">
        <ele>67.6</ele>
        <time>2024-12-19T09:46:19Z</time>
      </trkpt>
      <trkpt lat="47.94468" lon="-2.47733">
        <ele>67.6</ele>
        <time>2024-12-19T09:46:20Z</time>
      </trkpt>
      <trkpt lat="47.94468" lon="-2.47731">
        <ele>67.5</ele>
        <time>2024-12-19T09:46:21Z</time>
      </trkpt>
      <trkpt lat="47.94469" lon="-2.47729">
        <ele>67.4</ele>
        <time>2024-12-19T09:46:22Z</time>
      </trkpt>
      <trkpt lat="47.94469" lon="-2.47727">
        <ele>67.3</ele>
        <time>2024-12-19T09:46:23Z</time>
      </trkpt>
      <trkpt lat="47.94469" lon="-2.47725">
        <ele>67.2</ele>
        <time>2024-12-19T09:46:24Z</time>
      </trkpt>
      <trkpt lat="47.94468" lon="-2.47723">
        <ele>67.2</ele>
        <time>2024-12-19T09:46:25Z</time>
      </trkpt>
      <trkpt lat="47.94468" lon="-2.47722">
        <ele>67.2</ele>
        <time>2024-12-19T09:46:26Z</time>
      </trkpt>
      <trkpt lat="47.94467" lon="-2.4772">
        <ele>67.2</ele>
        <time>2024-12-19T09:46:27Z</time>
      </trkpt>
      <trkpt lat="47.94466" lon="-2.47718">
        <ele>67.2</ele>
        <time>2024-12-19T09:46:28Z</time>
      </trkpt>
      <trkpt lat="47.94466" lon="-2.47717">
        <ele>67.2</ele>
        <time>2024-12-19T09:46:29Z</time>
      </trkpt>
      <trkpt lat="47.94465" lon="-2.47715">
        <ele>67.2</ele>
        <time>2024-12-19T09:46:30Z</time>
      </trkpt>
      <trkpt lat="47.94465" lon="-2.47714">
        <ele>67.2</ele>
        <time>2024-12-19T09:46:31Z</time>
      </trkpt>
      <trkpt lat="47.94465" lon="-2.47712">
        <ele>67.2</ele>
        <time>2024-12-19T09:46:32Z</time>
      </trkpt>
      <trkpt lat="47.94464" lon="-2.47711">
        <ele>67.2</ele>
        <time>2024-12-19T09:46:33Z</time>
      </trkpt>
      <trkpt lat="47.94464" lon="-2.47708">
        <ele>67.2</ele>
        <time>2024-12-19T09:46:34Z</time>
      </trkpt>
      <trkpt lat="47.94463" lon="-2.47706">
        <ele>67.1</ele>
        <time>2024-12-19T09:46:35Z</time>
      </trkpt>
      <trkpt lat="47.94463" lon="-2.47705">
        <ele>67.1</ele>
        <time>2024-12-19T09:46:36Z</time>
      </trkpt>
      <trkpt lat="47.94462" lon="-2.47703">
        <ele>67.1</ele>
        <time>2024-12-19T09:46:37Z</time>
      </trkpt>
      <trkpt lat="47.94461" lon="-2.47702">
        <ele>67.1</ele>
        <time>2024-12-19T09:46:38Z</time>
      </trkpt>
      <trkpt lat="47.9446" lon="-2.47701">
        <ele>67.1</ele>
        <time>2024-12-19T09:46:39Z</time>
      </trkpt>
      <trkpt lat="47.9446" lon="-2.47699">
        <ele>67.1</ele>
        <time>2024-12-19T09:46:40Z</time>
      </trkpt>
      <trkpt lat="47.94459" lon="-2.47698">
        <ele>67.1</ele>
        <time>2024-12-19T09:46:41Z</time>
      </trkpt>
      <trkpt lat="47.94459" lon="-2.47696">
        <ele>67</ele>
        <time>2024-12-19T09:46:42Z</time>
      </trkpt>
      <trkpt lat="47.94459" lon="-2.47695">
        <ele>67</ele>
        <time>2024-12-19T09:46:43Z</time>
      </trkpt>
      <trkpt lat="47.94458" lon="-2.47693">
        <ele>67</ele>
        <time>2024-12-19T09:46:44Z</time>
      </trkpt>
      <trkpt lat="47.94458" lon="-2.47691">
        <ele>66.9</ele>
        <time>2024-12-19T09:46:45Z</time>
      </trkpt>
      <trkpt lat="47.94457" lon="-2.47689">
        <ele>66.9</ele>
        <time>2024-12-19T09:46:46Z</time>
      </trkpt>
      <trkpt lat="47.94457" lon="-2.47687">
        <ele>66.9</ele>
        <time>2024-12-19T09:46:47Z</time>
      </trkpt>
      <trkpt lat="47.94457" lon="-2.47685">
        <ele>66.9</ele>
        <time>2024-12-19T09:46:48Z</time>
      </trkpt>
      <trkpt lat="47.94457" lon="-2.47684">
        <ele>66.8</ele>
        <time>2024-12-19T09:46:49Z</time>
      </trkpt>
      <trkpt lat="47.94456" lon="-2.47683">
        <ele>66.8</ele>
        <time>2024-12-19T09:46:50Z</time>
      </trkpt>
      <trkpt lat="47.94456" lon="-2.47682">
        <ele>66.8</ele>
        <time>2024-12-19T09:46:51Z</time>
      </trkpt>
      <trkpt lat="47.94456" lon="-2.4768">
        <ele>66.8</ele>
        <time>2024-12-19T09:46:52Z</time>
      </trkpt>
      <trkpt lat="47.94455" lon="-2.47678">
        <ele>66.8</ele>
        <time>2024-12-19T09:46:53Z</time>
      </trkpt>
      <trkpt lat="47.94455" lon="-2.47676">
        <ele>66.8</ele>
        <time>2024-12-19T09:46:54Z</time>
      </trkpt>
      <trkpt lat="47.94454" lon="-2.47675">
        <ele>66.8</ele>
        <time>2024-12-19T09:46:55Z</time>
      </trkpt>
      <trkpt lat="47.94454" lon="-2.47673">
        <ele>66.7</ele>
        <time>2024-12-19T09:46:56Z</time>
      </trkpt>
      <trkpt lat="47.94453" lon="-2.47671">
        <ele>66.7</ele>
        <time>2024-12-19T09:46:57Z</time>
      </trkpt>
      <trkpt lat="47.94453" lon="-2.47669">
        <ele>66.7</ele>
        <time>2024-12-19T09:46:58Z</time>
      </trkpt>
      <trkpt lat="47.94452" lon="-2.47667">
        <ele>66.7</ele>
        <time>2024-12-19T09:46:59Z</time>
      </trkpt>
      <trkpt lat="47.94452" lon="-2.47665">
        <ele>66.6</ele>
        <time>2024-12-19T09:47:00Z</time>
      </trkpt>
      <trkpt lat="47.94451" lon="-2.47664">
        <ele>66.6</ele>
        <time>2024-12-19T09:47:01Z</time>
      </trkpt>
      <trkpt lat="47.94451" lon="-2.47662">
        <ele>66.4</ele>
        <time>2024-12-19T09:47:02Z</time>
      </trkpt>
      <trkpt lat="47.94451" lon="-2.47659">
        <ele>66.3</ele>
        <time>2024-12-19T09:47:03Z</time>
      </trkpt>
      <trkpt lat="47.9445" lon="-2.47657">
        <ele>66.2</ele>
        <time>2024-12-19T09:47:04Z</time>
      </trkpt>
      <trkpt lat="47.9445" lon="-2.47655">
        <ele>66</ele>
        <time>2024-12-19T09:47:05Z</time>
      </trkpt>
      <trkpt lat="47.94449" lon="-2.47653">
        <ele>65.9</ele>
        <time>2024-12-19T09:47:06Z</time>
      </trkpt>
      <trkpt lat="47.94449" lon="-2.47651">
        <ele>65.8</ele>
        <time>2024-12-19T09:47:07Z</time>
      </trkpt>
      <trkpt lat="47.94448" lon="-2.47649">
        <ele>65.7</ele>
        <time>2024-12-19T09:47:08Z</time>
      </trkpt>
      <trkpt lat="47.94448" lon="-2.47648">
        <ele>65.6</ele>
        <time>2024-12-19T09:47:09Z</time>
      </trkpt>
      <trkpt lat="47.94448" lon="-2.47646">
        <ele>65.5</ele>
        <time>2024-12-19T09:47:10Z</time>
      </trkpt>
      <trkpt lat="47.94447" lon="-2.47644">
        <ele>65.4</ele>
        <time>2024-12-19T09:47:11Z</time>
      </trkpt>
      <trkpt lat="47.94447" lon="-2.47642">
        <ele>65.2</ele>
        <time>2024-12-19T09:47:12Z</time>
      </trkpt>
      <trkpt lat="47.94447" lon="-2.4764">
        <ele>65.1</ele>
        <time>2024-12-19T09:47:13Z</time>
      </trkpt>
      <trkpt lat="47.94447" lon="-2.47639">
        <ele>65</ele>
        <time>2024-12-19T09:47:14Z</time>
      </trkpt>
      <trkpt lat="47.94448" lon="-2.47639">
        <ele>65</ele>
        <time>2024-12-19T09:47:15Z</time>
      </trkpt>
      <trkpt lat="47.94448" lon="-2.47638">
        <ele>65</ele>
        <time>2024-12-19T09:47:16Z</time>
      </trkpt>
      <trkpt lat="47.94448" lon="-2.47638">
        <ele>65</ele>
        <time>2024-12-19T09:47:17Z</time>
      </trkpt>
      <trkpt lat="47.94449" lon="-2.47638">
        <ele>65</ele>
        <time>2024-12-19T09:47:18Z</time>
      </trkpt>
      <trkpt lat="47.9445" lon="-2.47637">
        <ele>65</ele>
        <time>2024-12-19T09:47:19Z</time>
      </trkpt>
      <trkpt lat="47.94451" lon="-2.47636">
        <ele>65</ele>
        <time>2024-12-19T09:47:20Z</time>
      </trkpt>
      <trkpt lat="47.94453" lon="-2.47634">
        <ele>64.9</ele>
        <time>2024-12-19T09:47:21Z</time>
      </trkpt>
      <trkpt lat="47.94454" lon="-2.47633">
        <ele>64.9</ele>
        <time>2024-12-19T09:47:22Z</time>
      </trkpt>
      <trkpt lat="47.94455" lon="-2.47631">
        <ele>64.9</ele>
        <time>2024-12-19T09:47:23Z</time>
      </trkpt>
      <trkpt lat="47.94456" lon="-2.4763">
        <ele>64.9</ele>
        <time>2024-12-19T09:47:24Z</time>
      </trkpt>
      <trkpt lat="47.94457" lon="-2.47629">
        <ele>64.8</ele>
        <time>2024-12-19T09:47:25Z</time>
      </trkpt>
      <trkpt lat="47.94459" lon="-2.47628">
        <ele>64.8</ele>
        <time>2024-12-19T09:47:26Z</time>
      </trkpt>
      <trkpt lat="47.9446" lon="-2.47627">
        <ele>64.8</ele>
        <time>2024-12-19T09:47:27Z</time>
      </trkpt>
      <trkpt lat="47.94461" lon="-2.47626">
        <ele>64.7</ele>
        <time>2024-12-19T09:47:28Z</time>
      </trkpt>
      <trkpt lat="47.94463" lon="-2.47625">
        <ele>64.7</ele>
        <time>2024-12-19T09:47:29Z</time>
      </trkpt>
      <trkpt lat="47.94465" lon="-2.47624">
        <ele>64.6</ele>
        <time>2024-12-19T09:47:30Z</time>
      </trkpt>
      <trkpt lat="47.94466" lon="-2.47623">
        <ele>64.6</ele>
        <time>2024-12-19T09:47:31Z</time>
      </trkpt>
      <trkpt lat="47.94468" lon="-2.47623">
        <ele>64.5</ele>
        <time>2024-12-19T09:47:32Z</time>
      </trkpt>
      <trkpt lat="47.94469" lon="-2.47623">
        <ele>64.5</ele>
        <time>2024-12-19T09:47:33Z</time>
      </trkpt>
      <trkpt lat="47.9447" lon="-2.47622">
        <ele>64.4</ele>
        <time>2024-12-19T09:47:34Z</time>
      </trkpt>
      <trkpt lat="47.94472" lon="-2.4762">
        <ele>64.3</ele>
        <time>2024-12-19T09:47:35Z</time>
      </trkpt>
      <trkpt lat="47.94473" lon="-2.47619">
        <ele>64.3</ele>
        <time>2024-12-19T09:47:36Z</time>
      </trkpt>
      <trkpt lat="47.94474" lon="-2.47617">
        <ele>64.2</ele>
        <time>2024-12-19T09:47:37Z</time>
      </trkpt>
      <trkpt lat="47.94475" lon="-2.47615">
        <ele>64.1</ele>
        <time>2024-12-19T09:47:38Z</time>
      </trkpt>
      <trkpt lat="47.94475" lon="-2.47614">
        <ele>64.1</ele>
        <time>2024-12-19T09:47:39Z</time>
      </trkpt>
      <trkpt lat="47.94475" lon="-2.47613">
        <ele>64.1</ele>
        <time>2024-12-19T09:47:40Z</time>
      </trkpt>
      <trkpt lat="47.94475" lon="-2.47612">
        <ele>64</ele>
        <time>2024-12-19T09:47:41Z</time>
      </trkpt>
      <trkpt lat="47.94475" lon="-2.4761">
        <ele>64</ele>
        <time>2024-12-19T09:47:42Z</time>
      </trkpt>
      <trkpt lat="47.94476" lon="-2.47611">
        <ele>64</ele>
        <time>2024-12-19T09:47:43Z</time>
      </trkpt>
      <trkpt lat="47.94476" lon="-2.4761">
        <ele>64</ele>
        <time>2024-12-19T09:47:44Z</time>
      </trkpt>
      <trkpt lat="47.94477" lon="-2.4761">
        <ele>64</ele>
        <time>2024-12-19T09:47:45Z</time>
      </trkpt>
      <trkpt lat="47.94478" lon="-2.47608">
        <ele>64</ele>
        <time>2024-12-19T09:47:46Z</time>
      </trkpt>
      <trkpt lat="47.94478" lon="-2.47606">
        <ele>64</ele>
        <time>2024-12-19T09:47:47Z</time>
      </trkpt>
      <trkpt lat="47.94478" lon="-2.47605">
        <ele>63.9</ele>
        <time>2024-12-19T09:47:48Z</time>
      </trkpt>
      <trkpt lat="47.94478" lon="-2.47603">
        <ele>63.9</ele>
        <time>2024-12-19T09:47:49Z</time>
      </trkpt>
      <trkpt lat="47.94478" lon="-2.47601">
        <ele>63.9</ele>
        <time>2024-12-19T09:47:50Z</time>
      </trkpt>
      <trkpt lat="47.94477" lon="-2.476">
        <ele>63.9</ele>
        <time>2024-12-19T09:47:51Z</time>
      </trkpt>
      <trkpt lat="47.94477" lon="-2.47598">
        <ele>63.9</ele>
        <time>2024-12-19T09:47:52Z</time>
      </trkpt>
      <trkpt lat="47.94477" lon="-2.47597">
        <ele>63.9</ele>
        <time>2024-12-19T09:47:53Z</time>
      </trkpt>
      <trkpt lat="47.94476" lon="-2.47595">
        <ele>63.9</ele>
        <time>2024-12-19T09:47:54Z</time>
      </trkpt>
      <trkpt lat="47.94476" lon="-2.47594">
        <ele>63.9</ele>
        <time>2024-12-19T09:47:55Z</time>
      </trkpt>
      <trkpt lat="47.94476" lon="-2.47592">
        <ele>63.9</ele>
        <time>2024-12-19T09:47:56Z</time>
      </trkpt>
      <trkpt lat="47.94476" lon="-2.47591">
        <ele>63.9</ele>
        <time>2024-12-19T09:47:57Z</time>
      </trkpt>
      <trkpt lat="47.94477" lon="-2.4759">
        <ele>63.9</ele>
        <time>2024-12-19T09:47:58Z</time>
      </trkpt>
      <trkpt lat="47.94477" lon="-2.4759">
        <ele>63.9</ele>
        <time>2024-12-19T09:47:59Z</time>
      </trkpt>
      <trkpt lat="47.94477" lon="-2.47589">
        <ele>63.8</ele>
        <time>2024-12-19T09:48:00Z</time>
      </trkpt>
      <trkpt lat="47.94477" lon="-2.47588">
        <ele>63.8</ele>
        <time>2024-12-19T09:48:01Z</time>
      </trkpt>
      <trkpt lat="47.94477" lon="-2.47586">
        <ele>63.8</ele>
        <time>2024-12-19T09:48:02Z</time>
      </trkpt>
      <trkpt lat="47.94477" lon="-2.47585">
        <ele>63.8</ele>
        <time>2024-12-19T09:48:03Z</time>
      </trkpt>
      <trkpt lat="47.94477" lon="-2.47584">
        <ele>63.8</ele>
        <time>2024-12-19T09:48:04Z</time>
      </trkpt>
      <trkpt lat="47.94478" lon="-2.47583">
        <ele>63.8</ele>
        <time>2024-12-19T09:48:05Z</time>
      </trkpt>
      <trkpt lat="47.94478" lon="-2.47582">
        <ele>63.7</ele>
        <time>2024-12-19T09:48:06Z</time>
      </trkpt>
      <trkpt lat="47.94478" lon="-2.4758">
        <ele>63.6</ele>
        <time>2024-12-19T09:48:07Z</time>
      </trkpt>
      <trkpt lat="47.94478" lon="-2.47578">
        <ele>63.5</ele>
        <time>2024-12-19T09:48:08Z</time>
      </trkpt>
      <trkpt lat="47.94478" lon="-2.47576">
        <ele>63.5</ele>
        <time>2024-12-19T09:48:09Z</time>
      </trkpt>
      <trkpt lat="47.94478" lon="-2.47574">
        <ele>63.4</ele>
        <time>2024-12-19T09:48:10Z</time>
      </trkpt>
      <trkpt lat="47.94478" lon="-2.47572">
        <ele>63.3</ele>
        <time>2024-12-19T09:48:11Z</time>
      </trkpt>
      <trkpt lat="47.94478" lon="-2.4757">
        <ele>63.2</ele>
        <time>2024-12-19T09:48:12Z</time>
      </trkpt>
      <trkpt lat="47.94478" lon="-2.47569">
        <ele>63.2</ele>
        <time>2024-12-19T09:48:13Z</time>
      </trkpt>
      <trkpt lat="47.94478" lon="-2.47567">
        <ele>63.1</ele>
        <time>2024-12-19T09:48:14Z</time>
      </trkpt>
      <trkpt lat="47.94478" lon="-2.47565">
        <ele>63</ele>
        <time>2024-12-19T09:48:15Z</time>
      </trkpt>
      <trkpt lat="47.94478" lon="-2.47564">
        <ele>63</ele>
        <time>2024-12-19T09:48:16Z</time>
      </trkpt>
      <trkpt lat="47.94478" lon="-2.47563">
        <ele>62.9</ele>
        <time>2024-12-19T09:48:17Z</time>
      </trkpt>
      <trkpt lat="47.94478" lon="-2.47562">
        <ele>62.9</ele>
        <time>2024-12-19T09:48:18Z</time>
      </trkpt>
      <trkpt lat="47.94478" lon="-2.4756">
        <ele>62.8</ele>
        <time>2024-12-19T09:48:19Z</time>
      </trkpt>
      <trkpt lat="47.94479" lon="-2.47558">
        <ele>62.7</ele>
        <time>2024-12-19T09:48:20Z</time>
      </trkpt>
      <trkpt lat="47.94479" lon="-2.47556">
        <ele>62.6</ele>
        <time>2024-12-19T09:48:21Z</time>
      </trkpt>
      <trkpt lat="47.94479" lon="-2.47554">
        <ele>62.5</ele>
        <time>2024-12-19T09:48:22Z</time>
      </trkpt>
      <trkpt lat="47.94479" lon="-2.47552">
        <ele>62.4</ele>
        <time>2024-12-19T09:48:23Z</time>
      </trkpt>
      <trkpt lat="47.9448" lon="-2.47551">
        <ele>62.3</ele>
        <time>2024-12-19T09:48:24Z</time>
      </trkpt>
      <trkpt lat="47.94482" lon="-2.47549">
        <ele>62.2</ele>
        <time>2024-12-19T09:48:25Z</time>
      </trkpt>
      <trkpt lat="47.94483" lon="-2.47549">
        <ele>62.1</ele>
        <time>2024-12-19T09:48:26Z</time>
      </trkpt>
      <trkpt lat="47.94484" lon="-2.47548">
        <ele>62</ele>
        <time>2024-12-19T09:48:27Z</time>
      </trkpt>
      <trkpt lat="47.94485" lon="-2.47547">
        <ele>61.9</ele>
        <time>2024-12-19T09:48:28Z</time>
      </trkpt>
      <trkpt lat="47.94486" lon="-2.47547">
        <ele>61.8</ele>
        <time>2024-12-19T09:48:29Z</time>
      </trkpt>
      <trkpt lat="47.94487" lon="-2.47547">
        <ele>61.8</ele>
        <time>2024-12-19T09:48:30Z</time>
      </trkpt>
      <trkpt lat="47.94488" lon="-2.47546">
        <ele>61.7</ele>
        <time>2024-12-19T09:48:31Z</time>
      </trkpt>
      <trkpt lat="47.94489" lon="-2.47547">
        <ele>61.7</ele>
        <time>2024-12-19T09:48:32Z</time>
      </trkpt>
      <trkpt lat="47.9449" lon="-2.47547">
        <ele>61.6</ele>
        <time>2024-12-19T09:48:33Z</time>
      </trkpt>
      <trkpt lat="47.94491" lon="-2.47547">
        <ele>61.6</ele>
        <time>2024-12-19T09:48:34Z</time>
      </trkpt>
      <trkpt lat="47.94492" lon="-2.47547">
        <ele>61.5</ele>
        <time>2024-12-19T09:48:35Z</time>
      </trkpt>
      <trkpt lat="47.94493" lon="-2.47548">
        <ele>61.5</ele>
        <time>2024-12-19T09:48:36Z</time>
      </trkpt>
      <trkpt lat="47.94493" lon="-2.47548">
        <ele>61.4</ele>
        <time>2024-12-19T09:48:37Z</time>
      </trkpt>
      <trkpt lat="47.94494" lon="-2.47548">
        <ele>61.4</ele>
        <time>2024-12-19T09:48:38Z</time>
      </trkpt>
      <trkpt lat="47.94495" lon="-2.47548">
        <ele>61.3</ele>
        <time>2024-12-19T09:48:39Z</time>
      </trkpt>
      <trkpt lat="47.94496" lon="-2.47548">
        <ele>61.3</ele>
        <time>2024-12-19T09:48:40Z</time>
      </trkpt>
      <trkpt lat="47.94496" lon="-2.47548">
        <ele>61.2</ele>
        <time>2024-12-19T09:48:41Z</time>
      </trkpt>
      <trkpt lat="47.94497" lon="-2.47548">
        <ele>61.2</ele>
        <time>2024-12-19T09:48:42Z</time>
      </trkpt>
      <trkpt lat="47.94499" lon="-2.47548">
        <ele>61.1</ele>
        <time>2024-12-19T09:48:43Z</time>
      </trkpt>
      <trkpt lat="47.945" lon="-2.47549">
        <ele>61</ele>
        <time>2024-12-19T09:48:44Z</time>
      </trkpt>
      <trkpt lat="47.94501" lon="-2.47549">
        <ele>61</ele>
        <time>2024-12-19T09:48:45Z</time>
      </trkpt>
      <trkpt lat="47.94502" lon="-2.47549">
        <ele>60.9</ele>
        <time>2024-12-19T09:48:46Z</time>
      </trkpt>
      <trkpt lat="47.94503" lon="-2.4755">
        <ele>60.9</ele>
        <time>2024-12-19T09:48:47Z</time>
      </trkpt>
      <trkpt lat="47.94505" lon="-2.47551">
        <ele>60.8</ele>
        <time>2024-12-19T09:48:48Z</time>
      </trkpt>
      <trkpt lat="47.94507" lon="-2.47552">
        <ele>60.7</ele>
        <time>2024-12-19T09:48:49Z</time>
      </trkpt>
      <trkpt lat="47.94509" lon="-2.47552">
        <ele>60.7</ele>
        <time>2024-12-19T09:48:50Z</time>
      </trkpt>
      <trkpt lat="47.9451" lon="-2.47553">
        <ele>60.6</ele>
        <time>2024-12-19T09:48:51Z</time>
      </trkpt>
      <trkpt lat="47.94512" lon="-2.47553">
        <ele>60.5</ele>
        <time>2024-12-19T09:48:52Z</time>
      </trkpt>
      <trkpt lat="47.94514" lon="-2.47554">
        <ele>60.4</ele>
        <time>2024-12-19T09:48:53Z</time>
      </trkpt>
      <trkpt lat="47.94517" lon="-2.47553">
        <ele>60.4</ele>
        <time>2024-12-19T09:48:54Z</time>
      </trkpt>
      <trkpt lat="47.94518" lon="-2.47553">
        <ele>60.3</ele>
        <time>2024-12-19T09:48:55Z</time>
      </trkpt>
      <trkpt lat="47.94519" lon="-2.47553">
        <ele>60.3</ele>
        <time>2024-12-19T09:48:56Z</time>
      </trkpt>
      <trkpt lat="47.9452" lon="-2.47554">
        <ele>60.2</ele>
        <time>2024-12-19T09:48:57Z</time>
      </trkpt>
      <trkpt lat="47.94521" lon="-2.47554">
        <ele>60.2</ele>
        <time>2024-12-19T09:48:58Z</time>
      </trkpt>
      <trkpt lat="47.94521" lon="-2.47555">
        <ele>60.2</ele>
        <time>2024-12-19T09:48:59Z</time>
      </trkpt>
      <trkpt lat="47.94522" lon="-2.47556">
        <ele>60.3</ele>
        <time>2024-12-19T09:49:00Z</time>
      </trkpt>
      <trkpt lat="47.94523" lon="-2.47557">
        <ele>60.3</ele>
        <time>2024-12-19T09:49:01Z</time>
      </trkpt>
      <trkpt lat="47.94524" lon="-2.47558">
        <ele>60.2</ele>
        <time>2024-12-19T09:49:02Z</time>
      </trkpt>
      <trkpt lat="47.94524" lon="-2.47559">
        <ele>60.3</ele>
        <time>2024-12-19T09:49:03Z</time>
      </trkpt>
      <trkpt lat="47.94525" lon="-2.4756">
        <ele>60.3</ele>
        <time>2024-12-19T09:49:04Z</time>
      </trkpt>
      <trkpt lat="47.94525" lon="-2.4756">
        <ele>60.3</ele>
        <time>2024-12-19T09:49:05Z</time>
      </trkpt>
      <trkpt lat="47.94526" lon="-2.4756">
        <ele>60.3</ele>
        <time>2024-12-19T09:49:06Z</time>
      </trkpt>
      <trkpt lat="47.94526" lon="-2.4756">
        <ele>60.2</ele>
        <time>2024-12-19T09:49:07Z</time>
      </trkpt>
      <trkpt lat="47.94527" lon="-2.4756">
        <ele>60.2</ele>
        <time>2024-12-19T09:49:08Z</time>
      </trkpt>
      <trkpt lat="47.94527" lon="-2.47559">
        <ele>60.2</ele>
        <time>2024-12-19T09:49:09Z</time>
      </trkpt>
      <trkpt lat="47.94528" lon="-2.47559">
        <ele>60.1</ele>
        <time>2024-12-19T09:49:10Z</time>
      </trkpt>
      <trkpt lat="47.94529" lon="-2.47558">
        <ele>60</ele>
        <time>2024-12-19T09:49:11Z</time>
      </trkpt>
      <trkpt lat="47.94529" lon="-2.47556">
        <ele>59.9</ele>
        <time>2024-12-19T09:49:12Z</time>
      </trkpt>
      <trkpt lat="47.9453" lon="-2.47554">
        <ele>59.8</ele>
        <time>2024-12-19T09:49:13Z</time>
      </trkpt>
      <trkpt lat="47.9453" lon="-2.47552">
        <ele>59.7</ele>
        <time>2024-12-19T09:49:14Z</time>
      </trkpt>
      <trkpt lat="47.9453" lon="-2.4755">
        <ele>59.7</ele>
        <time>2024-12-19T09:49:15Z</time>
      </trkpt>
      <trkpt lat="47.9453" lon="-2.47548">
        <ele>59.6</ele>
        <time>2024-12-19T09:49:16Z</time>
      </trkpt>
      <trkpt lat="47.9453" lon="-2.47547">
        <ele>59.5</ele>
        <time>2024-12-19T09:49:17Z</time>
      </trkpt>
      <trkpt lat="47.9453" lon="-2.47545">
        <ele>59.5</ele>
        <time>2024-12-19T09:49:18Z</time>
      </trkpt>
      <trkpt lat="47.9453" lon="-2.47544">
        <ele>59.4</ele>
        <time>2024-12-19T09:49:19Z</time>
      </trkpt>
      <trkpt lat="47.94531" lon="-2.47542">
        <ele>59.3</ele>
        <time>2024-12-19T09:49:20Z</time>
      </trkpt>
      <trkpt lat="47.94531" lon="-2.47541">
        <ele>59.2</ele>
        <time>2024-12-19T09:49:21Z</time>
      </trkpt>
      <trkpt lat="47.94532" lon="-2.4754">
        <ele>59.2</ele>
        <time>2024-12-19T09:49:22Z</time>
      </trkpt>
      <trkpt lat="47.94532" lon="-2.47539">
        <ele>59.1</ele>
        <time>2024-12-19T09:49:23Z</time>
      </trkpt>
      <trkpt lat="47.94533" lon="-2.47538">
        <ele>59</ele>
        <time>2024-12-19T09:49:24Z</time>
      </trkpt>
      <trkpt lat="47.94534" lon="-2.47536">
        <ele>58.9</ele>
        <time>2024-12-19T09:49:25Z</time>
      </trkpt>
      <trkpt lat="47.94534" lon="-2.47534">
        <ele>58.8</ele>
        <time>2024-12-19T09:49:26Z</time>
      </trkpt>
      <trkpt lat="47.94535" lon="-2.47533">
        <ele>58.7</ele>
        <time>2024-12-19T09:49:27Z</time>
      </trkpt>
      <trkpt lat="47.94536" lon="-2.47532">
        <ele>58.6</ele>
        <time>2024-12-19T09:49:28Z</time>
      </trkpt>
      <trkpt lat="47.94536" lon="-2.47532">
        <ele>58.5</ele>
        <time>2024-12-19T09:49:29Z</time>
      </trkpt>
      <trkpt lat="47.94537" lon="-2.47531">
        <ele>58.5</ele>
        <time>2024-12-19T09:49:30Z</time>
      </trkpt>
      <trkpt lat="47.94537" lon="-2.47531">
        <ele>58.5</ele>
        <time>2024-12-19T09:49:31Z</time>
      </trkpt>
      <trkpt lat="47.94537" lon="-2.4753">
        <ele>58.4</ele>
        <time>2024-12-19T09:49:32Z</time>
      </trkpt>
      <trkpt lat="47.94536" lon="-2.47529">
        <ele>58.4</ele>
        <time>2024-12-19T09:49:33Z</time>
      </trkpt>
      <trkpt lat="47.94536" lon="-2.47527">
        <ele>58.4</ele>
        <time>2024-12-19T09:49:34Z</time>
      </trkpt>
      <trkpt lat="47.94535" lon="-2.47526">
        <ele>58.4</ele>
        <time>2024-12-19T09:49:35Z</time>
      </trkpt>
      <trkpt lat="47.94535" lon="-2.47524">
        <ele>58.3</ele>
        <time>2024-12-19T09:49:36Z</time>
      </trkpt>
      <trkpt lat="47.94535" lon="-2.47523">
        <ele>58.2</ele>
        <time>2024-12-19T09:49:37Z</time>
      </trkpt>
      <trkpt lat="47.94536" lon="-2.47521">
        <ele>58.1</ele>
        <time>2024-12-19T09:49:38Z</time>
      </trkpt>
      <trkpt lat="47.94536" lon="-2.47521">
        <ele>58.1</ele>
        <time>2024-12-19T09:49:39Z</time>
      </trkpt>
      <trkpt lat="47.94537" lon="-2.47521">
        <ele>58</ele>
        <time>2024-12-19T09:49:40Z</time>
      </trkpt>
      <trkpt lat="47.94538" lon="-2.4752">
        <ele>57.9</ele>
        <time>2024-12-19T09:49:41Z</time>
      </trkpt>
      <trkpt lat="47.94539" lon="-2.4752">
        <ele>57.8</ele>
        <time>2024-12-19T09:49:42Z</time>
      </trkpt>
      <trkpt lat="47.9454" lon="-2.4752">
        <ele>57.7</ele>
        <time>2024-12-19T09:49:43Z</time>
      </trkpt>
      <trkpt lat="47.94542" lon="-2.47519">
        <ele>57.5</ele>
        <time>2024-12-19T09:49:44Z</time>
      </trkpt>
      <trkpt lat="47.94543" lon="-2.47518">
        <ele>57.3</ele>
        <time>2024-12-19T09:49:45Z</time>
      </trkpt>
      <trkpt lat="47.94544" lon="-2.47517">
        <ele>57.3</ele>
        <time>2024-12-19T09:49:46Z</time>
      </trkpt>
      <trkpt lat="47.94545" lon="-2.47515">
        <ele>57.1</ele>
        <time>2024-12-19T09:49:47Z</time>
      </trkpt>
      <trkpt lat="47.94545" lon="-2.47514">
        <ele>56.9</ele>
        <time>2024-12-19T09:49:48Z</time>
      </trkpt>
      <trkpt lat="47.94546" lon="-2.47513">
        <ele>56.8</ele>
        <time>2024-12-19T09:49:49Z</time>
      </trkpt>
      <trkpt lat="47.94547" lon="-2.47512">
        <ele>56.7</ele>
        <time>2024-12-19T09:49:50Z</time>
      </trkpt>
      <trkpt lat="47.94549" lon="-2.47511">
        <ele>56.4</ele>
        <time>2024-12-19T09:49:51Z</time>
      </trkpt>
      <trkpt lat="47.94549" lon="-2.47509">
        <ele>56.2</ele>
        <time>2024-12-19T09:49:52Z</time>
      </trkpt>
      <trkpt lat="47.9455" lon="-2.47506">
        <ele>56</ele>
        <time>2024-12-19T09:49:54Z</time>
      </trkpt>
      <trkpt lat="47.94551" lon="-2.47504">
        <ele>55.8</ele>
        <time>2024-12-19T09:49:55Z</time>
      </trkpt>
      <trkpt lat="47.94551" lon="-2.47503">
        <ele>55.6</ele>
        <time>2024-12-19T09:49:56Z</time>
      </trkpt>
      <trkpt lat="47.94552" lon="-2.47502">
        <ele>55.5</ele>
        <time>2024-12-19T09:49:57Z</time>
      </trkpt>
      <trkpt lat="47.94552" lon="-2.47501">
        <ele>55.4</ele>
        <time>2024-12-19T09:49:58Z</time>
      </trkpt>
      <trkpt lat="47.94553" lon="-2.47499">
        <ele>55.3</ele>
        <time>2024-12-19T09:49:59Z</time>
      </trkpt>
      <trkpt lat="47.94553" lon="-2.47497">
        <ele>55.2</ele>
        <time>2024-12-19T09:50:00Z</time>
      </trkpt>
      <trkpt lat="47.94553" lon="-2.47496">
        <ele>55.1</ele>
        <time>2024-12-19T09:50:01Z</time>
      </trkpt>
      <trkpt lat="47.94554" lon="-2.47494">
        <ele>55</ele>
        <time>2024-12-19T09:50:02Z</time>
      </trkpt>
      <trkpt lat="47.94554" lon="-2.47493">
        <ele>54.9</ele>
        <time>2024-12-19T09:50:03Z</time>
      </trkpt>
      <trkpt lat="47.94555" lon="-2.47491">
        <ele>54.7</ele>
        <time>2024-12-19T09:50:04Z</time>
      </trkpt>
      <trkpt lat="47.94555" lon="-2.47489">
        <ele>54.6</ele>
        <time>2024-12-19T09:50:05Z</time>
      </trkpt>
      <trkpt lat="47.94556" lon="-2.47487">
        <ele>54.5</ele>
        <time>2024-12-19T09:50:06Z</time>
      </trkpt>
      <trkpt lat="47.94556" lon="-2.47486">
        <ele>54.5</ele>
        <time>2024-12-19T09:50:07Z</time>
      </trkpt>
      <trkpt lat="47.94555" lon="-2.47484">
        <ele>54.4</ele>
        <time>2024-12-19T09:50:08Z</time>
      </trkpt>
      <trkpt lat="47.94556" lon="-2.47482">
        <ele>54.4</ele>
        <time>2024-12-19T09:50:09Z</time>
      </trkpt>
      <trkpt lat="47.94556" lon="-2.4748">
        <ele>54.3</ele>
        <time>2024-12-19T09:50:10Z</time>
      </trkpt>
      <trkpt lat="47.94557" lon="-2.47478">
        <ele>54.1</ele>
        <time>2024-12-19T09:50:11Z</time>
      </trkpt>
      <trkpt lat="47.94558" lon="-2.47476">
        <ele>54</ele>
        <time>2024-12-19T09:50:12Z</time>
      </trkpt>
      <trkpt lat="47.94558" lon="-2.47474">
        <ele>53.9</ele>
        <time>2024-12-19T09:50:13Z</time>
      </trkpt>
      <trkpt lat="47.94559" lon="-2.47472">
        <ele>53.7</ele>
        <time>2024-12-19T09:50:14Z</time>
      </trkpt>
      <trkpt lat="47.94559" lon="-2.4747">
        <ele>53.6</ele>
        <time>2024-12-19T09:50:15Z</time>
      </trkpt>
      <trkpt lat="47.9456" lon="-2.47469">
        <ele>53.5</ele>
        <time>2024-12-19T09:50:16Z</time>
      </trkpt>
      <trkpt lat="47.9456" lon="-2.47468">
        <ele>53.4</ele>
        <time>2024-12-19T09:50:17Z</time>
      </trkpt>
      <trkpt lat="47.94561" lon="-2.47467">
        <ele>53.3</ele>
        <time>2024-12-19T09:50:18Z</time>
      </trkpt>
      <trkpt lat="47.94561" lon="-2.47466">
        <ele>53.2</ele>
        <time>2024-12-19T09:50:19Z</time>
      </trkpt>
      <trkpt lat="47.94562" lon="-2.47464">
        <ele>53</ele>
        <time>2024-12-19T09:50:20Z</time>
      </trkpt>
      <trkpt lat="47.94563" lon="-2.47462">
        <ele>52.9</ele>
        <time>2024-12-19T09:50:21Z</time>
      </trkpt>
      <trkpt lat="47.94563" lon="-2.4746">
        <ele>52.7</ele>
        <time>2024-12-19T09:50:22Z</time>
      </trkpt>
      <trkpt lat="47.94563" lon="-2.47459">
        <ele>52.6</ele>
        <time>2024-12-19T09:50:23Z</time>
      </trkpt>
      <trkpt lat="47.94563" lon="-2.47457">
        <ele>52.5</ele>
        <time>2024-12-19T09:50:24Z</time>
      </trkpt>
      <trkpt lat="47.94564" lon="-2.47456">
        <ele>52.4</ele>
        <time>2024-12-19T09:50:25Z</time>
      </trkpt>
      <trkpt lat="47.94564" lon="-2.47454">
        <ele>52.3</ele>
        <time>2024-12-19T09:50:26Z</time>
      </trkpt>
      <trkpt lat="47.94564" lon="-2.47453">
        <ele>52.2</ele>
        <time>2024-12-19T09:50:27Z</time>
      </trkpt>
      <trkpt lat="47.94564" lon="-2.47451">
        <ele>52.1</ele>
        <time>2024-12-19T09:50:28Z</time>
      </trkpt>
      <trkpt lat="47.94564" lon="-2.47449">
        <ele>52</ele>
        <time>2024-12-19T09:50:29Z</time>
      </trkpt>
      <trkpt lat="47.94564" lon="-2.47447">
        <ele>51.8</ele>
        <time>2024-12-19T09:50:30Z</time>
      </trkpt>
      <trkpt lat="47.94565" lon="-2.47445">
        <ele>51.7</ele>
        <time>2024-12-19T09:50:31Z</time>
      </trkpt>
      <trkpt lat="47.94565" lon="-2.47444">
        <ele>51.7</ele>
        <time>2024-12-19T09:50:32Z</time>
      </trkpt>
      <trkpt lat="47.94565" lon="-2.47442">
        <ele>51.6</ele>
        <time>2024-12-19T09:50:33Z</time>
      </trkpt>
      <trkpt lat="47.94566" lon="-2.4744">
        <ele>51.6</ele>
        <time>2024-12-19T09:50:34Z</time>
      </trkpt>
      <trkpt lat="47.94567" lon="-2.47439">
        <ele>51.5</ele>
        <time>2024-12-19T09:50:35Z</time>
      </trkpt>
      <trkpt lat="47.94567" lon="-2.47437">
        <ele>51.5</ele>
        <time>2024-12-19T09:50:36Z</time>
      </trkpt>
      <trkpt lat="47.94568" lon="-2.47436">
        <ele>51.4</ele>
        <time>2024-12-19T09:50:37Z</time>
      </trkpt>
      <trkpt lat="47.94568" lon="-2.47435">
        <ele>51.4</ele>
        <time>2024-12-19T09:50:38Z</time>
      </trkpt>
      <trkpt lat="47.94569" lon="-2.47433">
        <ele>51.3</ele>
        <time>2024-12-19T09:50:39Z</time>
      </trkpt>
      <trkpt lat="47.94569" lon="-2.47432">
        <ele>51.3</ele>
        <time>2024-12-19T09:50:40Z</time>
      </trkpt>
      <trkpt lat="47.94569" lon="-2.4743">
        <ele>51.3</ele>
        <time>2024-12-19T09:50:41Z</time>
      </trkpt>
      <trkpt lat="47.94569" lon="-2.47429">
        <ele>51.2</ele>
        <time>2024-12-19T09:50:42Z</time>
      </trkpt>
      <trkpt lat="47.9457" lon="-2.47428">
        <ele>51.2</ele>
        <time>2024-12-19T09:50:43Z</time>
      </trkpt>
      <trkpt lat="47.9457" lon="-2.47426">
        <ele>51.1</ele>
        <time>2024-12-19T09:50:44Z</time>
      </trkpt>
      <trkpt lat="47.94571" lon="-2.47425">
        <ele>51.1</ele>
        <time>2024-12-19T09:50:45Z</time>
      </trkpt>
      <trkpt lat="47.94572" lon="-2.47423">
        <ele>50.9</ele>
        <time>2024-12-19T09:50:46Z</time>
      </trkpt>
      <trkpt lat="47.94573" lon="-2.4742">
        <ele>50.8</ele>
        <time>2024-12-19T09:50:47Z</time>
      </trkpt>
      <trkpt lat="47.94574" lon="-2.47418">
        <ele>50.7</ele>
        <time>2024-12-19T09:50:48Z</time>
      </trkpt>
      <trkpt lat="47.94574" lon="-2.47417">
        <ele>50.6</ele>
        <time>2024-12-19T09:50:49Z</time>
      </trkpt>
      <trkpt lat="47.94575" lon="-2.47415">
        <ele>50.5</ele>
        <time>2024-12-19T09:50:50Z</time>
      </trkpt>
      <trkpt lat="47.94576" lon="-2.47412">
        <ele>50.2</ele>
        <time>2024-12-19T09:50:51Z</time>
      </trkpt>
      <trkpt lat="47.94576" lon="-2.4741">
        <ele>50.1</ele>
        <time>2024-12-19T09:50:52Z</time>
      </trkpt>
      <trkpt lat="47.94576" lon="-2.47409">
        <ele>50</ele>
        <time>2024-12-19T09:50:53Z</time>
      </trkpt>
      <trkpt lat="47.94576" lon="-2.47409">
        <ele>50</ele>
        <time>2024-12-19T09:50:54Z</time>
      </trkpt>
      <trkpt lat="47.94576" lon="-2.47408">
        <ele>50</ele>
        <time>2024-12-19T09:50:55Z</time>
      </trkpt>
      <trkpt lat="47.94576" lon="-2.47408">
        <ele>50</ele>
        <time>2024-12-19T09:50:56Z</time>
      </trkpt>
      <trkpt lat="47.94576" lon="-2.47407">
        <ele>49.9</ele>
        <time>2024-12-19T09:50:57Z</time>
      </trkpt>
      <trkpt lat="47.94576" lon="-2.47406">
        <ele>49.8</ele>
        <time>2024-12-19T09:50:58Z</time>
      </trkpt>
      <trkpt lat="47.94576" lon="-2.47406">
        <ele>49.8</ele>
        <time>2024-12-19T09:50:59Z</time>
      </trkpt>
      <trkpt lat="47.94577" lon="-2.47405">
        <ele>49.8</ele>
        <time>2024-12-19T09:51:00Z</time>
      </trkpt>
      <trkpt lat="47.94577" lon="-2.47405">
        <ele>49.7</ele>
        <time>2024-12-19T09:51:01Z</time>
      </trkpt>
      <trkpt lat="47.94577" lon="-2.47404">
        <ele>49.7</ele>
        <time>2024-12-19T09:51:02Z</time>
      </trkpt>
      <trkpt lat="47.94577" lon="-2.47403">
        <ele>49.6</ele>
        <time>2024-12-19T09:51:03Z</time>
      </trkpt>
      <trkpt lat="47.94578" lon="-2.47402">
        <ele>49.5</ele>
        <time>2024-12-19T09:51:04Z</time>
      </trkpt>
      <trkpt lat="47.94578" lon="-2.47401">
        <ele>49.3</ele>
        <time>2024-12-19T09:51:05Z</time>
      </trkpt>
      <trkpt lat="47.94579" lon="-2.47399">
        <ele>49.1</ele>
        <time>2024-12-19T09:51:06Z</time>
      </trkpt>
      <trkpt lat="47.9458" lon="-2.47397">
        <ele>48.9</ele>
        <time>2024-12-19T09:51:07Z</time>
      </trkpt>
      <trkpt lat="47.94581" lon="-2.47395">
        <ele>48.7</ele>
        <time>2024-12-19T09:51:08Z</time>
      </trkpt>
      <trkpt lat="47.94582" lon="-2.47393">
        <ele>48.5</ele>
        <time>2024-12-19T09:51:09Z</time>
      </trkpt>
      <trkpt lat="47.94582" lon="-2.47392">
        <ele>48.3</ele>
        <time>2024-12-19T09:51:10Z</time>
      </trkpt>
      <trkpt lat="47.94583" lon="-2.4739">
        <ele>48.1</ele>
        <time>2024-12-19T09:51:11Z</time>
      </trkpt>
      <trkpt lat="47.94583" lon="-2.47389">
        <ele>48</ele>
        <time>2024-12-19T09:51:12Z</time>
      </trkpt>
      <trkpt lat="47.94584" lon="-2.47387">
        <ele>48</ele>
        <time>2024-12-19T09:51:13Z</time>
      </trkpt>
      <trkpt lat="47.94584" lon="-2.47386">
        <ele>48.1</ele>
        <time>2024-12-19T09:51:14Z</time>
      </trkpt>
      <trkpt lat="47.94585" lon="-2.47384">
        <ele>48.1</ele>
        <time>2024-12-19T09:51:15Z</time>
      </trkpt>
      <trkpt lat="47.94585" lon="-2.47382">
        <ele>48.2</ele>
        <time>2024-12-19T09:51:16Z</time>
      </trkpt>
      <trkpt lat="47.94586" lon="-2.47379">
        <ele>48.2</ele>
        <time>2024-12-19T09:51:17Z</time>
      </trkpt>
      <trkpt lat="47.94586" lon="-2.47377">
        <ele>48.2</ele>
        <time>2024-12-19T09:51:18Z</time>
      </trkpt>
      <trkpt lat="47.94587" lon="-2.47375">
        <ele>48.2</ele>
        <time>2024-12-19T09:51:19Z</time>
      </trkpt>
      <trkpt lat="47.94587" lon="-2.47373">
        <ele>48.3</ele>
        <time>2024-12-19T09:51:20Z</time>
      </trkpt>
      <trkpt lat="47.94588" lon="-2.47371">
        <ele>48.3</ele>
        <time>2024-12-19T09:51:21Z</time>
      </trkpt>
      <trkpt lat="47.94588" lon="-2.4737">
        <ele>48.3</ele>
        <time>2024-12-19T09:51:22Z</time>
      </trkpt>
      <trkpt lat="47.94589" lon="-2.47368">
        <ele>48.3</ele>
        <time>2024-12-19T09:51:23Z</time>
      </trkpt>
      <trkpt lat="47.9459" lon="-2.47365">
        <ele>48.2</ele>
        <time>2024-12-19T09:51:24Z</time>
      </trkpt>
      <trkpt lat="47.9459" lon="-2.47363">
        <ele>48.2</ele>
        <time>2024-12-19T09:51:25Z</time>
      </trkpt>
      <trkpt lat="47.94591" lon="-2.47362">
        <ele>48.2</ele>
        <time>2024-12-19T09:51:26Z</time>
      </trkpt>
      <trkpt lat="47.94592" lon="-2.4736">
        <ele>48.1</ele>
        <time>2024-12-19T09:51:27Z</time>
      </trkpt>
      <trkpt lat="47.94592" lon="-2.47358">
        <ele>48</ele>
        <time>2024-12-19T09:51:28Z</time>
      </trkpt>
      <trkpt lat="47.94592" lon="-2.47356">
        <ele>47.9</ele>
        <time>2024-12-19T09:51:29Z</time>
      </trkpt>
      <trkpt lat="47.94593" lon="-2.47355">
        <ele>47.7</ele>
        <time>2024-12-19T09:51:30Z</time>
      </trkpt>
      <trkpt lat="47.94593" lon="-2.47353">
        <ele>47.6</ele>
        <time>2024-12-19T09:51:31Z</time>
      </trkpt>
      <trkpt lat="47.94594" lon="-2.47352">
        <ele>47.5</ele>
        <time>2024-12-19T09:51:32Z</time>
      </trkpt>
      <trkpt lat="47.94594" lon="-2.47351">
        <ele>47.4</ele>
        <time>2024-12-19T09:51:33Z</time>
      </trkpt>
      <trkpt lat="47.94595" lon="-2.47349">
        <ele>47.4</ele>
        <time>2024-12-19T09:51:34Z</time>
      </trkpt>
      <trkpt lat="47.94595" lon="-2.47348">
        <ele>47.3</ele>
        <time>2024-12-19T09:51:35Z</time>
      </trkpt>
      <trkpt lat="47.94595" lon="-2.47346">
        <ele>47.2</ele>
        <time>2024-12-19T09:51:36Z</time>
      </trkpt>
      <trkpt lat="47.94595" lon="-2.47344">
        <ele>47.1</ele>
        <time>2024-12-19T09:51:37Z</time>
      </trkpt>
      <trkpt lat="47.94595" lon="-2.47342">
        <ele>47</ele>
        <time>2024-12-19T09:51:38Z</time>
      </trkpt>
      <trkpt lat="47.94596" lon="-2.4734">
        <ele>46.9</ele>
        <time>2024-12-19T09:51:39Z</time>
      </trkpt>
      <trkpt lat="47.94597" lon="-2.47339">
        <ele>46.8</ele>
        <time>2024-12-19T09:51:40Z</time>
      </trkpt>
      <trkpt lat="47.94597" lon="-2.47337">
        <ele>46.6</ele>
        <time>2024-12-19T09:51:41Z</time>
      </trkpt>
      <trkpt lat="47.94598" lon="-2.47336">
        <ele>46.5</ele>
        <time>2024-12-19T09:51:42Z</time>
      </trkpt>
      <trkpt lat="47.94599" lon="-2.47334">
        <ele>46.4</ele>
        <time>2024-12-19T09:51:43Z</time>
      </trkpt>
      <trkpt lat="47.94599" lon="-2.47333">
        <ele>46.3</ele>
        <time>2024-12-19T09:51:44Z</time>
      </trkpt>
      <trkpt lat="47.946" lon="-2.47331">
        <ele>46.1</ele>
        <time>2024-12-19T09:51:45Z</time>
      </trkpt>
      <trkpt lat="47.946" lon="-2.47328">
        <ele>46</ele>
        <time>2024-12-19T09:51:46Z</time>
      </trkpt>
      <trkpt lat="47.94601" lon="-2.47326">
        <ele>45.9</ele>
        <time>2024-12-19T09:51:47Z</time>
      </trkpt>
      <trkpt lat="47.94601" lon="-2.47325">
        <ele>45.7</ele>
        <time>2024-12-19T09:51:48Z</time>
      </trkpt>
      <trkpt lat="47.94602" lon="-2.47323">
        <ele>45.6</ele>
        <time>2024-12-19T09:51:49Z</time>
      </trkpt>
      <trkpt lat="47.94603" lon="-2.47321">
        <ele>45.4</ele>
        <time>2024-12-19T09:51:50Z</time>
      </trkpt>
      <trkpt lat="47.94603" lon="-2.47319">
        <ele>45.3</ele>
        <time>2024-12-19T09:51:51Z</time>
      </trkpt>
      <trkpt lat="47.94604" lon="-2.47317">
        <ele>45.2</ele>
        <time>2024-12-19T09:51:52Z</time>
      </trkpt>
      <trkpt lat="47.94604" lon="-2.47315">
        <ele>45.1</ele>
        <time>2024-12-19T09:51:53Z</time>
      </trkpt>
      <trkpt lat="47.94604" lon="-2.47314">
        <ele>45</ele>
        <time>2024-12-19T09:51:54Z</time>
      </trkpt>
      <trkpt lat="47.94605" lon="-2.47312">
        <ele>44.8</ele>
        <time>2024-12-19T09:51:55Z</time>
      </trkpt>
      <trkpt lat="47.94606" lon="-2.4731">
        <ele>44.7</ele>
        <time>2024-12-19T09:51:56Z</time>
      </trkpt>
      <trkpt lat="47.94606" lon="-2.47308">
        <ele>44.6</ele>
        <time>2024-12-19T09:51:57Z</time>
      </trkpt>
      <trkpt lat="47.94607" lon="-2.47307">
        <ele>44.5</ele>
        <time>2024-12-19T09:51:58Z</time>
      </trkpt>
      <trkpt lat="47.94607" lon="-2.47305">
        <ele>44.4</ele>
        <time>2024-12-19T09:51:59Z</time>
      </trkpt>
      <trkpt lat="47.94607" lon="-2.47303">
        <ele>44.2</ele>
        <time>2024-12-19T09:52:00Z</time>
      </trkpt>
      <trkpt lat="47.94607" lon="-2.47302">
        <ele>44</ele>
        <time>2024-12-19T09:52:01Z</time>
      </trkpt>
      <trkpt lat="47.94607" lon="-2.47301">
        <ele>43.7</ele>
        <time>2024-12-19T09:52:02Z</time>
      </trkpt>
      <trkpt lat="47.94608" lon="-2.47299">
        <ele>43.5</ele>
        <time>2024-12-19T09:52:03Z</time>
      </trkpt>
      <trkpt lat="47.94608" lon="-2.47296">
        <ele>43.1</ele>
        <time>2024-12-19T09:52:04Z</time>
      </trkpt>
      <trkpt lat="47.94607" lon="-2.47295">
        <ele>43</ele>
        <time>2024-12-19T09:52:05Z</time>
      </trkpt>
      <trkpt lat="47.94607" lon="-2.47294">
        <ele>42.9</ele>
        <time>2024-12-19T09:52:06Z</time>
      </trkpt>
      <trkpt lat="47.94607" lon="-2.47293">
        <ele>42.9</ele>
        <time>2024-12-19T09:52:07Z</time>
      </trkpt>
      <trkpt lat="47.94607" lon="-2.47293">
        <ele>42.8</ele>
        <time>2024-12-19T09:52:08Z</time>
      </trkpt>
      <trkpt lat="47.94607" lon="-2.47293">
        <ele>42.8</ele>
        <time>2024-12-19T09:52:09Z</time>
      </trkpt>
      <trkpt lat="47.94607" lon="-2.47293">
        <ele>42.8</ele>
        <time>2024-12-19T09:52:10Z</time>
      </trkpt>
      <trkpt lat="47.94608" lon="-2.47293">
        <ele>42.7</ele>
        <time>2024-12-19T09:52:11Z</time>
      </trkpt>
      <trkpt lat="47.94607" lon="-2.47293">
        <ele>42.7</ele>
        <time>2024-12-19T09:52:12Z</time>
      </trkpt>
      <trkpt lat="47.94607" lon="-2.47293">
        <ele>42.8</ele>
        <time>2024-12-19T09:52:13Z</time>
      </trkpt>
      <trkpt lat="47.94607" lon="-2.47293">
        <ele>42.8</ele>
        <time>2024-12-19T09:52:14Z</time>
      </trkpt>
      <trkpt lat="47.94607" lon="-2.47292">
        <ele>42.7</ele>
        <time>2024-12-19T09:52:15Z</time>
      </trkpt>
      <trkpt lat="47.94607" lon="-2.47291">
        <ele>42.6</ele>
        <time>2024-12-19T09:52:16Z</time>
      </trkpt>
      <trkpt lat="47.94606" lon="-2.4729">
        <ele>42.6</ele>
        <time>2024-12-19T09:52:17Z</time>
      </trkpt>
      <trkpt lat="47.94605" lon="-2.47289">
        <ele>42.6</ele>
        <time>2024-12-19T09:52:18Z</time>
      </trkpt>
      <trkpt lat="47.94605" lon="-2.47288">
        <ele>42.6</ele>
        <time>2024-12-19T09:52:19Z</time>
      </trkpt>
      <trkpt lat="47.94604" lon="-2.47287">
        <ele>42.5</ele>
        <time>2024-12-19T09:52:20Z</time>
      </trkpt>
      <trkpt lat="47.94604" lon="-2.47286">
        <ele>42.5</ele>
        <time>2024-12-19T09:52:21Z</time>
      </trkpt>
      <trkpt lat="47.94603" lon="-2.47285">
        <ele>42.5</ele>
        <time>2024-12-19T09:52:22Z</time>
      </trkpt>
      <trkpt lat="47.94603" lon="-2.47284">
        <ele>42.5</ele>
        <time>2024-12-19T09:52:23Z</time>
      </trkpt>
      <trkpt lat="47.94602" lon="-2.47283">
        <ele>42.6</ele>
        <time>2024-12-19T09:52:24Z</time>
      </trkpt>
      <trkpt lat="47.94601" lon="-2.47282">
        <ele>42.6</ele>
        <time>2024-12-19T09:52:25Z</time>
      </trkpt>
      <trkpt lat="47.94601" lon="-2.47281">
        <ele>42.5</ele>
        <time>2024-12-19T09:52:26Z</time>
      </trkpt>
      <trkpt lat="47.946" lon="-2.4728">
        <ele>42.6</ele>
        <time>2024-12-19T09:52:27Z</time>
      </trkpt>
      <trkpt lat="47.946" lon="-2.47279">
        <ele>42.6</ele>
        <time>2024-12-19T09:52:28Z</time>
      </trkpt>
      <trkpt lat="47.94599" lon="-2.47278">
        <ele>42.6</ele>
        <time>2024-12-19T09:52:29Z</time>
      </trkpt>
      <trkpt lat="47.94599" lon="-2.47277">
        <ele>42.6</ele>
        <time>2024-12-19T09:52:30Z</time>
      </trkpt>
      <trkpt lat="47.94599" lon="-2.47277">
        <ele>42.6</ele>
        <time>2024-12-19T09:52:31Z</time>
      </trkpt>
      <trkpt lat="47.94598" lon="-2.47276">
        <ele>42.5</ele>
        <time>2024-12-19T09:52:32Z</time>
      </trkpt>
      <trkpt lat="47.94597" lon="-2.47275">
        <ele>42.5</ele>
        <time>2024-12-19T09:52:33Z</time>
      </trkpt>
      <trkpt lat="47.94597" lon="-2.47273">
        <ele>42.5</ele>
        <time>2024-12-19T09:52:34Z</time>
      </trkpt>
      <trkpt lat="47.94596" lon="-2.47272">
        <ele>42.5</ele>
        <time>2024-12-19T09:52:35Z</time>
      </trkpt>
      <trkpt lat="47.94595" lon="-2.47272">
        <ele>42.6</ele>
        <time>2024-12-19T09:52:36Z</time>
      </trkpt>
      <trkpt lat="47.94594" lon="-2.47271">
        <ele>42.7</ele>
        <time>2024-12-19T09:52:37Z</time>
      </trkpt>
      <trkpt lat="47.94594" lon="-2.4727">
        <ele>42.7</ele>
        <time>2024-12-19T09:52:38Z</time>
      </trkpt>
      <trkpt lat="47.94593" lon="-2.47269">
        <ele>42.6</ele>
        <time>2024-12-19T09:52:39Z</time>
      </trkpt>
      <trkpt lat="47.94593" lon="-2.47267">
        <ele>42.6</ele>
        <time>2024-12-19T09:52:40Z</time>
      </trkpt>
      <trkpt lat="47.94592" lon="-2.47266">
        <ele>42.5</ele>
        <time>2024-12-19T09:52:41Z</time>
      </trkpt>
      <trkpt lat="47.94592" lon="-2.47265">
        <ele>42.5</ele>
        <time>2024-12-19T09:52:42Z</time>
      </trkpt>
      <trkpt lat="47.94591" lon="-2.47264">
        <ele>42.6</ele>
        <time>2024-12-19T09:52:43Z</time>
      </trkpt>
      <trkpt lat="47.9459" lon="-2.47262">
        <ele>42.6</ele>
        <time>2024-12-19T09:52:44Z</time>
      </trkpt>
      <trkpt lat="47.9459" lon="-2.4726">
        <ele>42.7</ele>
        <time>2024-12-19T09:52:45Z</time>
      </trkpt>
      <trkpt lat="47.94588" lon="-2.47257">
        <ele>42.8</ele>
        <time>2024-12-19T09:52:46Z</time>
      </trkpt>
      <trkpt lat="47.94587" lon="-2.47255">
        <ele>43</ele>
        <time>2024-12-19T09:52:47Z</time>
      </trkpt>
      <trkpt lat="47.94586" lon="-2.47254">
        <ele>43.3</ele>
        <time>2024-12-19T09:52:48Z</time>
      </trkpt>
      <trkpt lat="47.94584" lon="-2.47252">
        <ele>43.7</ele>
        <time>2024-12-19T09:52:49Z</time>
      </trkpt>
      <trkpt lat="47.94583" lon="-2.47249">
        <ele>43.9</ele>
        <time>2024-12-19T09:52:50Z</time>
      </trkpt>
      <trkpt lat="47.94582" lon="-2.47248">
        <ele>43.5</ele>
        <time>2024-12-19T09:52:51Z</time>
      </trkpt>
      <trkpt lat="47.9458" lon="-2.47245">
        <ele>43.1</ele>
        <time>2024-12-19T09:52:52Z</time>
      </trkpt>
      <trkpt lat="47.94579" lon="-2.47244">
        <ele>42.7</ele>
        <time>2024-12-19T09:52:53Z</time>
      </trkpt>
      <trkpt lat="47.94578" lon="-2.47242">
        <ele>42.5</ele>
        <time>2024-12-19T09:52:54Z</time>
      </trkpt>
      <trkpt lat="47.94577" lon="-2.4724">
        <ele>42.3</ele>
        <time>2024-12-19T09:52:55Z</time>
      </trkpt>
      <trkpt lat="47.94576" lon="-2.47239">
        <ele>42.1</ele>
        <time>2024-12-19T09:52:56Z</time>
      </trkpt>
      <trkpt lat="47.94575" lon="-2.47237">
        <ele>41.9</ele>
        <time>2024-12-19T09:52:57Z</time>
      </trkpt>
      <trkpt lat="47.94574" lon="-2.47236">
        <ele>41.8</ele>
        <time>2024-12-19T09:52:58Z</time>
      </trkpt>
      <trkpt lat="47.94574" lon="-2.47235">
        <ele>41.7</ele>
        <time>2024-12-19T09:52:59Z</time>
      </trkpt>
      <trkpt lat="47.94573" lon="-2.47234">
        <ele>41.5</ele>
        <time>2024-12-19T09:53:00Z</time>
      </trkpt>
      <trkpt lat="47.94572" lon="-2.47233">
        <ele>41.4</ele>
        <time>2024-12-19T09:53:01Z</time>
      </trkpt>
      <trkpt lat="47.94572" lon="-2.47232">
        <ele>41.3</ele>
        <time>2024-12-19T09:53:02Z</time>
      </trkpt>
      <trkpt lat="47.94571" lon="-2.4723">
        <ele>41.2</ele>
        <time>2024-12-19T09:53:03Z</time>
      </trkpt>
      <trkpt lat="47.9457" lon="-2.47229">
        <ele>41.1</ele>
        <time>2024-12-19T09:53:04Z</time>
      </trkpt>
      <trkpt lat="47.94569" lon="-2.47227">
        <ele>41.1</ele>
        <time>2024-12-19T09:53:05Z</time>
      </trkpt>
      <trkpt lat="47.94568" lon="-2.47226">
        <ele>41.1</ele>
        <time>2024-12-19T09:53:06Z</time>
      </trkpt>
      <trkpt lat="47.94567" lon="-2.47225">
        <ele>41.2</ele>
        <time>2024-12-19T09:53:07Z</time>
      </trkpt>
      <trkpt lat="47.94566" lon="-2.47224">
        <ele>41.3</ele>
        <time>2024-12-19T09:53:08Z</time>
      </trkpt>
      <trkpt lat="47.94565" lon="-2.47223">
        <ele>41.3</ele>
        <time>2024-12-19T09:53:09Z</time>
      </trkpt>
      <trkpt lat="47.94565" lon="-2.47222">
        <ele>41.4</ele>
        <time>2024-12-19T09:53:10Z</time>
      </trkpt>
      <trkpt lat="47.94564" lon="-2.47221">
        <ele>41.5</ele>
        <time>2024-12-19T09:53:11Z</time>
      </trkpt>
      <trkpt lat="47.94563" lon="-2.4722">
        <ele>41.5</ele>
        <time>2024-12-19T09:53:12Z</time>
      </trkpt>
      <trkpt lat="47.94562" lon="-2.47219">
        <ele>41.5</ele>
        <time>2024-12-19T09:53:13Z</time>
      </trkpt>
      <trkpt lat="47.94561" lon="-2.47217">
        <ele>41.5</ele>
        <time>2024-12-19T09:53:14Z</time>
      </trkpt>
      <trkpt lat="47.9456" lon="-2.47216">
        <ele>41.4</ele>
        <time>2024-12-19T09:53:15Z</time>
      </trkpt>
      <trkpt lat="47.94559" lon="-2.47214">
        <ele>41.3</ele>
        <time>2024-12-19T09:53:16Z</time>
      </trkpt>
      <trkpt lat="47.94558" lon="-2.47213">
        <ele>41.2</ele>
        <time>2024-12-19T09:53:17Z</time>
      </trkpt>
      <trkpt lat="47.94557" lon="-2.47211">
        <ele>41</ele>
        <time>2024-12-19T09:53:18Z</time>
      </trkpt>
      <trkpt lat="47.94557" lon="-2.47209">
        <ele>40.9</ele>
        <time>2024-12-19T09:53:19Z</time>
      </trkpt>
      <trkpt lat="47.94556" lon="-2.47208">
        <ele>40.8</ele>
        <time>2024-12-19T09:53:20Z</time>
      </trkpt>
      <trkpt lat="47.94555" lon="-2.47206">
        <ele>40.6</ele>
        <time>2024-12-19T09:53:21Z</time>
      </trkpt>
      <trkpt lat="47.94554" lon="-2.47204">
        <ele>40.4</ele>
        <time>2024-12-19T09:53:22Z</time>
      </trkpt>
      <trkpt lat="47.94553" lon="-2.47203">
        <ele>40.3</ele>
        <time>2024-12-19T09:53:23Z</time>
      </trkpt>
      <trkpt lat="47.94552" lon="-2.47202">
        <ele>40.3</ele>
        <time>2024-12-19T09:53:24Z</time>
      </trkpt>
      <trkpt lat="47.94551" lon="-2.47201">
        <ele>40.3</ele>
        <time>2024-12-19T09:53:25Z</time>
      </trkpt>
      <trkpt lat="47.9455" lon="-2.47201">
        <ele>40.3</ele>
        <time>2024-12-19T09:53:26Z</time>
      </trkpt>
      <trkpt lat="47.9455" lon="-2.47201">
        <ele>40.4</ele>
        <time>2024-12-19T09:53:27Z</time>
      </trkpt>
      <trkpt lat="47.9455" lon="-2.47201">
        <ele>40.5</ele>
        <time>2024-12-19T09:53:28Z</time>
      </trkpt>
      <trkpt lat="47.94549" lon="-2.47199">
        <ele>40.4</ele>
        <time>2024-12-19T09:53:29Z</time>
      </trkpt>
      <trkpt lat="47.94548" lon="-2.47199">
        <ele>40.5</ele>
        <time>2024-12-19T09:53:30Z</time>
      </trkpt>
      <trkpt lat="47.94547" lon="-2.47199">
        <ele>40.5</ele>
        <time>2024-12-19T09:53:31Z</time>
      </trkpt>
      <trkpt lat="47.94546" lon="-2.47197">
        <ele>40.5</ele>
        <time>2024-12-19T09:53:32Z</time>
      </trkpt>
      <trkpt lat="47.94546" lon="-2.47197">
        <ele>40.4</ele>
        <time>2024-12-19T09:53:33Z</time>
      </trkpt>
      <trkpt lat="47.94545" lon="-2.47195">
        <ele>40.3</ele>
        <time>2024-12-19T09:53:34Z</time>
      </trkpt>
      <trkpt lat="47.94544" lon="-2.47192">
        <ele>40</ele>
        <time>2024-12-19T09:53:35Z</time>
      </trkpt>
      <trkpt lat="47.94542" lon="-2.4719">
        <ele>39.8</ele>
        <time>2024-12-19T09:53:36Z</time>
      </trkpt>
      <trkpt lat="47.94541" lon="-2.47188">
        <ele>39.7</ele>
        <time>2024-12-19T09:53:37Z</time>
      </trkpt>
      <trkpt lat="47.9454" lon="-2.47185">
        <ele>39.4</ele>
        <time>2024-12-19T09:53:38Z</time>
      </trkpt>
      <trkpt lat="47.94539" lon="-2.47183">
        <ele>39.2</ele>
        <time>2024-12-19T09:53:39Z</time>
      </trkpt>
      <trkpt lat="47.94538" lon="-2.47182">
        <ele>39.1</ele>
        <time>2024-12-19T09:53:40Z</time>
      </trkpt>
      <trkpt lat="47.94537" lon="-2.4718">
        <ele>39</ele>
        <time>2024-12-19T09:53:41Z</time>
      </trkpt>
      <trkpt lat="47.94536" lon="-2.47177">
        <ele>38.9</ele>
        <time>2024-12-19T09:53:42Z</time>
      </trkpt>
      <trkpt lat="47.94535" lon="-2.47176">
        <ele>38.8</ele>
        <time>2024-12-19T09:53:43Z</time>
      </trkpt>
      <trkpt lat="47.94534" lon="-2.47174">
        <ele>38.6</ele>
        <time>2024-12-19T09:53:44Z</time>
      </trkpt>
      <trkpt lat="47.94533" lon="-2.47173">
        <ele>38.6</ele>
        <time>2024-12-19T09:53:45Z</time>
      </trkpt>
      <trkpt lat="47.94533" lon="-2.47172">
        <ele>38.5</ele>
        <time>2024-12-19T09:53:46Z</time>
      </trkpt>
      <trkpt lat="47.94533" lon="-2.47171">
        <ele>38.4</ele>
        <time>2024-12-19T09:53:47Z</time>
      </trkpt>
      <trkpt lat="47.94532" lon="-2.4717">
        <ele>38.4</ele>
        <time>2024-12-19T09:53:48Z</time>
      </trkpt>
      <trkpt lat="47.94531" lon="-2.47168">
        <ele>38.3</ele>
        <time>2024-12-19T09:53:49Z</time>
      </trkpt>
      <trkpt lat="47.9453" lon="-2.47166">
        <ele>38.2</ele>
        <time>2024-12-19T09:53:50Z</time>
      </trkpt>
      <trkpt lat="47.9453" lon="-2.47164">
        <ele>38.3</ele>
        <time>2024-12-19T09:53:51Z</time>
      </trkpt>
      <trkpt lat="47.9453" lon="-2.47162">
        <ele>38.2</ele>
        <time>2024-12-19T09:53:52Z</time>
      </trkpt>
      <trkpt lat="47.9453" lon="-2.47161">
        <ele>38.1</ele>
        <time>2024-12-19T09:53:53Z</time>
      </trkpt>
      <trkpt lat="47.9453" lon="-2.47159">
        <ele>37.9</ele>
        <time>2024-12-19T09:53:54Z</time>
      </trkpt>
      <trkpt lat="47.9453" lon="-2.47157">
        <ele>37.7</ele>
        <time>2024-12-19T09:53:55Z</time>
      </trkpt>
      <trkpt lat="47.9453" lon="-2.47155">
        <ele>37.6</ele>
        <time>2024-12-19T09:53:56Z</time>
      </trkpt>
      <trkpt lat="47.9453" lon="-2.47154">
        <ele>37.4</ele>
        <time>2024-12-19T09:53:57Z</time>
      </trkpt>
      <trkpt lat="47.9453" lon="-2.47153">
        <ele>37.3</ele>
        <time>2024-12-19T09:53:58Z</time>
      </trkpt>
      <trkpt lat="47.94531" lon="-2.47151">
        <ele>37.2</ele>
        <time>2024-12-19T09:53:59Z</time>
      </trkpt>
      <trkpt lat="47.94531" lon="-2.4715">
        <ele>37</ele>
        <time>2024-12-19T09:54:00Z</time>
      </trkpt>
      <trkpt lat="47.94531" lon="-2.47149">
        <ele>36.8</ele>
        <time>2024-12-19T09:54:01Z</time>
      </trkpt>
      <trkpt lat="47.94532" lon="-2.47148">
        <ele>36.6</ele>
        <time>2024-12-19T09:54:02Z</time>
      </trkpt>
      <trkpt lat="47.94533" lon="-2.47147">
        <ele>36.3</ele>
        <time>2024-12-19T09:54:03Z</time>
      </trkpt>
      <trkpt lat="47.94534" lon="-2.47146">
        <ele>36</ele>
        <time>2024-12-19T09:54:04Z</time>
      </trkpt>
      <trkpt lat="47.94534" lon="-2.47145">
        <ele>35.8</ele>
        <time>2024-12-19T09:54:05Z</time>
      </trkpt>
      <trkpt lat="47.94534" lon="-2.47144">
        <ele>35.7</ele>
        <time>2024-12-19T09:54:06Z</time>
      </trkpt>
      <trkpt lat="47.94534" lon="-2.47142">
        <ele>35.7</ele>
        <time>2024-12-19T09:54:07Z</time>
      </trkpt>
      <trkpt lat="47.94534" lon="-2.47141">
        <ele>35.5</ele>
        <time>2024-12-19T09:54:08Z</time>
      </trkpt>
      <trkpt lat="47.94534" lon="-2.4714">
        <ele>35.4</ele>
        <time>2024-12-19T09:54:09Z</time>
      </trkpt>
      <trkpt lat="47.94534" lon="-2.47138">
        <ele>35.4</ele>
        <time>2024-12-19T09:54:10Z</time>
      </trkpt>
      <trkpt lat="47.94534" lon="-2.47137">
        <ele>35.3</ele>
        <time>2024-12-19T09:54:11Z</time>
      </trkpt>
      <trkpt lat="47.94534" lon="-2.47136">
        <ele>35.2</ele>
        <time>2024-12-19T09:54:12Z</time>
      </trkpt>
      <trkpt lat="47.94534" lon="-2.47134">
        <ele>35.2</ele>
        <time>2024-12-19T09:54:13Z</time>
      </trkpt>
      <trkpt lat="47.94534" lon="-2.47133">
        <ele>35.2</ele>
        <time>2024-12-19T09:54:14Z</time>
      </trkpt>
      <trkpt lat="47.94533" lon="-2.47131">
        <ele>35.2</ele>
        <time>2024-12-19T09:54:15Z</time>
      </trkpt>
      <trkpt lat="47.94533" lon="-2.4713">
        <ele>35.1</ele>
        <time>2024-12-19T09:54:16Z</time>
      </trkpt>
      <trkpt lat="47.94534" lon="-2.47129">
        <ele>35</ele>
        <time>2024-12-19T09:54:17Z</time>
      </trkpt>
      <trkpt lat="47.94535" lon="-2.47129">
        <ele>34.8</ele>
        <time>2024-12-19T09:54:18Z</time>
      </trkpt>
      <trkpt lat="47.94535" lon="-2.47129">
        <ele>34.6</ele>
        <time>2024-12-19T09:54:19Z</time>
      </trkpt>
      <trkpt lat="47.94536" lon="-2.47128">
        <ele>34.4</ele>
        <time>2024-12-19T09:54:20Z</time>
      </trkpt>
      <trkpt lat="47.94537" lon="-2.47127">
        <ele>34.2</ele>
        <time>2024-12-19T09:54:21Z</time>
      </trkpt>
      <trkpt lat="47.94537" lon="-2.47126">
        <ele>34.1</ele>
        <time>2024-12-19T09:54:22Z</time>
      </trkpt>
      <trkpt lat="47.94537" lon="-2.47124">
        <ele>33.9</ele>
        <time>2024-12-19T09:54:23Z</time>
      </trkpt>
      <trkpt lat="47.94537" lon="-2.47122">
        <ele>33.9</ele>
        <time>2024-12-19T09:54:24Z</time>
      </trkpt>
      <trkpt lat="47.94536" lon="-2.47119">
        <ele>33.9</ele>
        <time>2024-12-19T09:54:25Z</time>
      </trkpt>
      <trkpt lat="47.94536" lon="-2.47118">
        <ele>33.9</ele>
        <time>2024-12-19T09:54:26Z</time>
      </trkpt>
      <trkpt lat="47.94536" lon="-2.47117">
        <ele>33.9</ele>
        <time>2024-12-19T09:54:27Z</time>
      </trkpt>
      <trkpt lat="47.94535" lon="-2.47115">
        <ele>33.8</ele>
        <time>2024-12-19T09:54:28Z</time>
      </trkpt>
      <trkpt lat="47.94535" lon="-2.47113">
        <ele>33.8</ele>
        <time>2024-12-19T09:54:29Z</time>
      </trkpt>
      <trkpt lat="47.94534" lon="-2.47111">
        <ele>33.8</ele>
        <time>2024-12-19T09:54:30Z</time>
      </trkpt>
      <trkpt lat="47.94534" lon="-2.47108">
        <ele>33.9</ele>
        <time>2024-12-19T09:54:31Z</time>
      </trkpt>
      <trkpt lat="47.94533" lon="-2.47106">
        <ele>34</ele>
        <time>2024-12-19T09:54:32Z</time>
      </trkpt>
      <trkpt lat="47.94532" lon="-2.47104">
        <ele>34</ele>
        <time>2024-12-19T09:54:33Z</time>
      </trkpt>
      <trkpt lat="47.94531" lon="-2.47102">
        <ele>34.1</ele>
        <time>2024-12-19T09:54:34Z</time>
      </trkpt>
      <trkpt lat="47.9453" lon="-2.471">
        <ele>34.2</ele>
        <time>2024-12-19T09:54:35Z</time>
      </trkpt>
      <trkpt lat="47.9453" lon="-2.47099">
        <ele>34.2</ele>
        <time>2024-12-19T09:54:36Z</time>
      </trkpt>
      <trkpt lat="47.9453" lon="-2.47097">
        <ele>34.2</ele>
        <time>2024-12-19T09:54:37Z</time>
      </trkpt>
      <trkpt lat="47.94528" lon="-2.47096">
        <ele>34.4</ele>
        <time>2024-12-19T09:54:38Z</time>
      </trkpt>
      <trkpt lat="47.94527" lon="-2.47095">
        <ele>34.5</ele>
        <time>2024-12-19T09:54:39Z</time>
      </trkpt>
      <trkpt lat="47.94527" lon="-2.47094">
        <ele>34.5</ele>
        <time>2024-12-19T09:54:40Z</time>
      </trkpt>
      <trkpt lat="47.94528" lon="-2.47094">
        <ele>34.4</ele>
        <time>2024-12-19T09:54:41Z</time>
      </trkpt>
      <trkpt lat="47.94528" lon="-2.47094">
        <ele>34.4</ele>
        <time>2024-12-19T09:54:42Z</time>
      </trkpt>
      <trkpt lat="47.94527" lon="-2.47094">
        <ele>34.5</ele>
        <time>2024-12-19T09:54:43Z</time>
      </trkpt>
      <trkpt lat="47.94527" lon="-2.47093">
        <ele>34.5</ele>
        <time>2024-12-19T09:54:44Z</time>
      </trkpt>
      <trkpt lat="47.94527" lon="-2.47092">
        <ele>34.6</ele>
        <time>2024-12-19T09:54:45Z</time>
      </trkpt>
      <trkpt lat="47.94527" lon="-2.47092">
        <ele>34.6</ele>
        <time>2024-12-19T09:54:46Z</time>
      </trkpt>
      <trkpt lat="47.94526" lon="-2.47091">
        <ele>34.6</ele>
        <time>2024-12-19T09:54:47Z</time>
      </trkpt>
      <trkpt lat="47.94526" lon="-2.47088">
        <ele>34.5</ele>
        <time>2024-12-19T09:54:48Z</time>
      </trkpt>
      <trkpt lat="47.94526" lon="-2.47086">
        <ele>34.5</ele>
        <time>2024-12-19T09:54:49Z</time>
      </trkpt>
      <trkpt lat="47.94525" lon="-2.47083">
        <ele>34.6</ele>
        <time>2024-12-19T09:54:50Z</time>
      </trkpt>
      <trkpt lat="47.94524" lon="-2.4708">
        <ele>34.5</ele>
        <time>2024-12-19T09:54:51Z</time>
      </trkpt>
      <trkpt lat="47.94523" lon="-2.47077">
        <ele>34.4</ele>
        <time>2024-12-19T09:54:52Z</time>
      </trkpt>
      <trkpt lat="47.94522" lon="-2.47073">
        <ele>34.3</ele>
        <time>2024-12-19T09:54:53Z</time>
      </trkpt>
      <trkpt lat="47.94522" lon="-2.47071">
        <ele>34.2</ele>
        <time>2024-12-19T09:54:54Z</time>
      </trkpt>
      <trkpt lat="47.94521" lon="-2.47069">
        <ele>34.1</ele>
        <time>2024-12-19T09:54:55Z</time>
      </trkpt>
      <trkpt lat="47.9452" lon="-2.47066">
        <ele>34.1</ele>
        <time>2024-12-19T09:54:56Z</time>
      </trkpt>
      <trkpt lat="47.9452" lon="-2.47064">
        <ele>34</ele>
        <time>2024-12-19T09:54:57Z</time>
      </trkpt>
      <trkpt lat="47.94519" lon="-2.4706">
        <ele>34</ele>
        <time>2024-12-19T09:54:58Z</time>
      </trkpt>
      <trkpt lat="47.94518" lon="-2.47058">
        <ele>34</ele>
        <time>2024-12-19T09:54:59Z</time>
      </trkpt>
      <trkpt lat="47.94517" lon="-2.47056">
        <ele>34</ele>
        <time>2024-12-19T09:55:00Z</time>
      </trkpt>
      <trkpt lat="47.94517" lon="-2.47053">
        <ele>34</ele>
        <time>2024-12-19T09:55:01Z</time>
      </trkpt>
      <trkpt lat="47.94516" lon="-2.4705">
        <ele>34</ele>
        <time>2024-12-19T09:55:02Z</time>
      </trkpt>
      <trkpt lat="47.94516" lon="-2.47046">
        <ele>34</ele>
        <time>2024-12-19T09:55:03Z</time>
      </trkpt>
      <trkpt lat="47.94515" lon="-2.47043">
        <ele>34.1</ele>
        <time>2024-12-19T09:55:04Z</time>
      </trkpt>
      <trkpt lat="47.94513" lon="-2.4704">
        <ele>34.3</ele>
        <time>2024-12-19T09:55:05Z</time>
      </trkpt>
      <trkpt lat="47.94512" lon="-2.47037">
        <ele>34.4</ele>
        <time>2024-12-19T09:55:06Z</time>
      </trkpt>
      <trkpt lat="47.94511" lon="-2.47034">
        <ele>34.5</ele>
        <time>2024-12-19T09:55:07Z</time>
      </trkpt>
      <trkpt lat="47.9451" lon="-2.47031">
        <ele>34.6</ele>
        <time>2024-12-19T09:55:08Z</time>
      </trkpt>
      <trkpt lat="47.94509" lon="-2.47029">
        <ele>34.7</ele>
        <time>2024-12-19T09:55:09Z</time>
      </trkpt>
      <trkpt lat="47.94509" lon="-2.47026">
        <ele>34.6</ele>
        <time>2024-12-19T09:55:10Z</time>
      </trkpt>
      <trkpt lat="47.94509" lon="-2.47024">
        <ele>34.6</ele>
        <time>2024-12-19T09:55:11Z</time>
      </trkpt>
      <trkpt lat="47.94508" lon="-2.47022">
        <ele>34.5</ele>
        <time>2024-12-19T09:55:12Z</time>
      </trkpt>
      <trkpt lat="47.94508" lon="-2.4702">
        <ele>34.4</ele>
        <time>2024-12-19T09:55:13Z</time>
      </trkpt>
      <trkpt lat="47.94508" lon="-2.47017">
        <ele>34.3</ele>
        <time>2024-12-19T09:55:14Z</time>
      </trkpt>
      <trkpt lat="47.94507" lon="-2.47015">
        <ele>34.2</ele>
        <time>2024-12-19T09:55:15Z</time>
      </trkpt>
      <trkpt lat="47.94507" lon="-2.47013">
        <ele>34</ele>
        <time>2024-12-19T09:55:16Z</time>
      </trkpt>
      <trkpt lat="47.94507" lon="-2.47011">
        <ele>33.9</ele>
        <time>2024-12-19T09:55:17Z</time>
      </trkpt>
      <trkpt lat="47.94507" lon="-2.4701">
        <ele>33.7</ele>
        <time>2024-12-19T09:55:18Z</time>
      </trkpt>
      <trkpt lat="47.94507" lon="-2.47008">
        <ele>33.5</ele>
        <time>2024-12-19T09:55:19Z</time>
      </trkpt>
      <trkpt lat="47.94508" lon="-2.47006">
        <ele>33.4</ele>
        <time>2024-12-19T09:55:20Z</time>
      </trkpt>
      <trkpt lat="47.94508" lon="-2.47004">
        <ele>33.2</ele>
        <time>2024-12-19T09:55:21Z</time>
      </trkpt>
      <trkpt lat="47.94507" lon="-2.47003">
        <ele>33.2</ele>
        <time>2024-12-19T09:55:22Z</time>
      </trkpt>
      <trkpt lat="47.94507" lon="-2.47">
        <ele>33.1</ele>
        <time>2024-12-19T09:55:23Z</time>
      </trkpt>
      <trkpt lat="47.94506" lon="-2.46999">
        <ele>33.1</ele>
        <time>2024-12-19T09:55:24Z</time>
      </trkpt>
      <trkpt lat="47.94506" lon="-2.46998">
        <ele>33.2</ele>
        <time>2024-12-19T09:55:25Z</time>
      </trkpt>
      <trkpt lat="47.94506" lon="-2.46997">
        <ele>33.1</ele>
        <time>2024-12-19T09:55:26Z</time>
      </trkpt>
      <trkpt lat="47.94507" lon="-2.46996">
        <ele>33</ele>
        <time>2024-12-19T09:55:27Z</time>
      </trkpt>
      <trkpt lat="47.94508" lon="-2.46995">
        <ele>32.9</ele>
        <time>2024-12-19T09:55:28Z</time>
      </trkpt>
      <trkpt lat="47.94509" lon="-2.46995">
        <ele>32.7</ele>
        <time>2024-12-19T09:55:29Z</time>
      </trkpt>
      <trkpt lat="47.9451" lon="-2.46994">
        <ele>32.6</ele>
        <time>2024-12-19T09:55:30Z</time>
      </trkpt>
      <trkpt lat="47.94511" lon="-2.46993">
        <ele>32.5</ele>
        <time>2024-12-19T09:55:31Z</time>
      </trkpt>
      <trkpt lat="47.94511" lon="-2.46992">
        <ele>32.4</ele>
        <time>2024-12-19T09:55:32Z</time>
      </trkpt>
      <trkpt lat="47.94512" lon="-2.4699">
        <ele>32.2</ele>
        <time>2024-12-19T09:55:33Z</time>
      </trkpt>
      <trkpt lat="47.94513" lon="-2.46989">
        <ele>32.1</ele>
        <time>2024-12-19T09:55:34Z</time>
      </trkpt>
      <trkpt lat="47.94514" lon="-2.46988">
        <ele>32.1</ele>
        <time>2024-12-19T09:55:35Z</time>
      </trkpt>
      <trkpt lat="47.94514" lon="-2.46987">
        <ele>32</ele>
        <time>2024-12-19T09:55:36Z</time>
      </trkpt>
      <trkpt lat="47.94514" lon="-2.46985">
        <ele>32</ele>
        <time>2024-12-19T09:55:37Z</time>
      </trkpt>
      <trkpt lat="47.94513" lon="-2.46983">
        <ele>32.1</ele>
        <time>2024-12-19T09:55:38Z</time>
      </trkpt>
      <trkpt lat="47.94513" lon="-2.46981">
        <ele>32.1</ele>
        <time>2024-12-19T09:55:39Z</time>
      </trkpt>
      <trkpt lat="47.94513" lon="-2.4698">
        <ele>32.1</ele>
        <time>2024-12-19T09:55:40Z</time>
      </trkpt>
      <trkpt lat="47.94514" lon="-2.46979">
        <ele>32</ele>
        <time>2024-12-19T09:55:41Z</time>
      </trkpt>
      <trkpt lat="47.94515" lon="-2.46977">
        <ele>31.8</ele>
        <time>2024-12-19T09:55:42Z</time>
      </trkpt>
      <trkpt lat="47.94516" lon="-2.46976">
        <ele>31.7</ele>
        <time>2024-12-19T09:55:43Z</time>
      </trkpt>
      <trkpt lat="47.94516" lon="-2.46974">
        <ele>31.7</ele>
        <time>2024-12-19T09:55:44Z</time>
      </trkpt>
      <trkpt lat="47.94517" lon="-2.46973">
        <ele>31.6</ele>
        <time>2024-12-19T09:55:45Z</time>
      </trkpt>
      <trkpt lat="47.94517" lon="-2.46971">
        <ele>31.6</ele>
        <time>2024-12-19T09:55:46Z</time>
      </trkpt>
      <trkpt lat="47.94517" lon="-2.46969">
        <ele>31.6</ele>
        <time>2024-12-19T09:55:47Z</time>
      </trkpt>
      <trkpt lat="47.94517" lon="-2.46968">
        <ele>31.6</ele>
        <time>2024-12-19T09:55:48Z</time>
      </trkpt>
      <trkpt lat="47.94517" lon="-2.46965">
        <ele>31.6</ele>
        <time>2024-12-19T09:55:49Z</time>
      </trkpt>
      <trkpt lat="47.94517" lon="-2.46963">
        <ele>31.6</ele>
        <time>2024-12-19T09:55:50Z</time>
      </trkpt>
      <trkpt lat="47.94517" lon="-2.4696">
        <ele>31.7</ele>
        <time>2024-12-19T09:55:51Z</time>
      </trkpt>
      <trkpt lat="47.94516" lon="-2.46958">
        <ele>31.7</ele>
        <time>2024-12-19T09:55:52Z</time>
      </trkpt>
      <trkpt lat="47.94516" lon="-2.46956">
        <ele>31.8</ele>
        <time>2024-12-19T09:55:53Z</time>
      </trkpt>
      <trkpt lat="47.94516" lon="-2.46954">
        <ele>31.8</ele>
        <time>2024-12-19T09:55:54Z</time>
      </trkpt>
      <trkpt lat="47.94517" lon="-2.46952">
        <ele>31.8</ele>
        <time>2024-12-19T09:55:55Z</time>
      </trkpt>
      <trkpt lat="47.94517" lon="-2.46951">
        <ele>31.8</ele>
        <time>2024-12-19T09:55:56Z</time>
      </trkpt>
      <trkpt lat="47.94517" lon="-2.46949">
        <ele>31.8</ele>
        <time>2024-12-19T09:55:57Z</time>
      </trkpt>
      <trkpt lat="47.94517" lon="-2.46948">
        <ele>31.8</ele>
        <time>2024-12-19T09:55:58Z</time>
      </trkpt>
      <trkpt lat="47.94517" lon="-2.46947">
        <ele>31.8</ele>
        <time>2024-12-19T09:55:59Z</time>
      </trkpt>
      <trkpt lat="47.94516" lon="-2.46945">
        <ele>31.8</ele>
        <time>2024-12-19T09:56:00Z</time>
      </trkpt>
      <trkpt lat="47.94516" lon="-2.46943">
        <ele>31.9</ele>
        <time>2024-12-19T09:56:01Z</time>
      </trkpt>
      <trkpt lat="47.94516" lon="-2.4694">
        <ele>31.9</ele>
        <time>2024-12-19T09:56:02Z</time>
      </trkpt>
      <trkpt lat="47.94515" lon="-2.46938">
        <ele>32</ele>
        <time>2024-12-19T09:56:03Z</time>
      </trkpt>
      <trkpt lat="47.94515" lon="-2.46935">
        <ele>32.1</ele>
        <time>2024-12-19T09:56:04Z</time>
      </trkpt>
      <trkpt lat="47.94515" lon="-2.46933">
        <ele>32.1</ele>
        <time>2024-12-19T09:56:05Z</time>
      </trkpt>
      <trkpt lat="47.94514" lon="-2.46929">
        <ele>32.2</ele>
        <time>2024-12-19T09:56:06Z</time>
      </trkpt>
      <trkpt lat="47.94514" lon="-2.46926">
        <ele>32.3</ele>
        <time>2024-12-19T09:56:07Z</time>
      </trkpt>
      <trkpt lat="47.94514" lon="-2.46924">
        <ele>32.4</ele>
        <time>2024-12-19T09:56:08Z</time>
      </trkpt>
      <trkpt lat="47.94514" lon="-2.46923">
        <ele>32.4</ele>
        <time>2024-12-19T09:56:09Z</time>
      </trkpt>
      <trkpt lat="47.94515" lon="-2.46923">
        <ele>32.3</ele>
        <time>2024-12-19T09:56:10Z</time>
      </trkpt>
      <trkpt lat="47.94515" lon="-2.46922">
        <ele>32.3</ele>
        <time>2024-12-19T09:56:11Z</time>
      </trkpt>
      <trkpt lat="47.94516" lon="-2.46921">
        <ele>32.2</ele>
        <time>2024-12-19T09:56:12Z</time>
      </trkpt>
      <trkpt lat="47.94517" lon="-2.4692">
        <ele>32.2</ele>
        <time>2024-12-19T09:56:13Z</time>
      </trkpt>
      <trkpt lat="47.94517" lon="-2.46919">
        <ele>32.1</ele>
        <time>2024-12-19T09:56:14Z</time>
      </trkpt>
      <trkpt lat="47.94517" lon="-2.46917">
        <ele>32.1</ele>
        <time>2024-12-19T09:56:15Z</time>
      </trkpt>
      <trkpt lat="47.94517" lon="-2.46915">
        <ele>32.2</ele>
        <time>2024-12-19T09:56:16Z</time>
      </trkpt>
      <trkpt lat="47.94517" lon="-2.46912">
        <ele>32.3</ele>
        <time>2024-12-19T09:56:17Z</time>
      </trkpt>
      <trkpt lat="47.94517" lon="-2.4691">
        <ele>32.4</ele>
        <time>2024-12-19T09:56:18Z</time>
      </trkpt>
      <trkpt lat="47.94517" lon="-2.46908">
        <ele>32.4</ele>
        <time>2024-12-19T09:56:19Z</time>
      </trkpt>
      <trkpt lat="47.94517" lon="-2.46907">
        <ele>32.4</ele>
        <time>2024-12-19T09:56:20Z</time>
      </trkpt>
      <trkpt lat="47.94517" lon="-2.46905">
        <ele>32.4</ele>
        <time>2024-12-19T09:56:21Z</time>
      </trkpt>
      <trkpt lat="47.94517" lon="-2.46904">
        <ele>32.5</ele>
        <time>2024-12-19T09:56:22Z</time>
      </trkpt>
      <trkpt lat="47.94517" lon="-2.46902">
        <ele>32.5</ele>
        <time>2024-12-19T09:56:23Z</time>
      </trkpt>
      <trkpt lat="47.94517" lon="-2.46901">
        <ele>32.6</ele>
        <time>2024-12-19T09:56:24Z</time>
      </trkpt>
      <trkpt lat="47.94518" lon="-2.46899">
        <ele>32.6</ele>
        <time>2024-12-19T09:56:25Z</time>
      </trkpt>
      <trkpt lat="47.94518" lon="-2.46896">
        <ele>32.6</ele>
        <time>2024-12-19T09:56:26Z</time>
      </trkpt>
      <trkpt lat="47.94518" lon="-2.46895">
        <ele>32.6</ele>
        <time>2024-12-19T09:56:27Z</time>
      </trkpt>
      <trkpt lat="47.94519" lon="-2.46893">
        <ele>32.5</ele>
        <time>2024-12-19T09:56:28Z</time>
      </trkpt>
      <trkpt lat="47.94519" lon="-2.46891">
        <ele>32.5</ele>
        <time>2024-12-19T09:56:29Z</time>
      </trkpt>
      <trkpt lat="47.94519" lon="-2.4689">
        <ele>32.5</ele>
        <time>2024-12-19T09:56:30Z</time>
      </trkpt>
      <trkpt lat="47.94519" lon="-2.46889">
        <ele>32.5</ele>
        <time>2024-12-19T09:56:31Z</time>
      </trkpt>
      <trkpt lat="47.9452" lon="-2.46888">
        <ele>32.5</ele>
        <time>2024-12-19T09:56:32Z</time>
      </trkpt>
      <trkpt lat="47.9452" lon="-2.46886">
        <ele>32.4</ele>
        <time>2024-12-19T09:56:33Z</time>
      </trkpt>
      <trkpt lat="47.94521" lon="-2.46884">
        <ele>32.3</ele>
        <time>2024-12-19T09:56:34Z</time>
      </trkpt>
      <trkpt lat="47.94521" lon="-2.46883">
        <ele>32.2</ele>
        <time>2024-12-19T09:56:35Z</time>
      </trkpt>
      <trkpt lat="47.94522" lon="-2.46881">
        <ele>32.1</ele>
        <time>2024-12-19T09:56:36Z</time>
      </trkpt>
      <trkpt lat="47.94523" lon="-2.4688">
        <ele>31.9</ele>
        <time>2024-12-19T09:56:37Z</time>
      </trkpt>
      <trkpt lat="47.94523" lon="-2.46879">
        <ele>31.8</ele>
        <time>2024-12-19T09:56:38Z</time>
      </trkpt>
      <trkpt lat="47.94524" lon="-2.46877">
        <ele>31.8</ele>
        <time>2024-12-19T09:56:39Z</time>
      </trkpt>
      <trkpt lat="47.94524" lon="-2.46876">
        <ele>31.6</ele>
        <time>2024-12-19T09:56:40Z</time>
      </trkpt>
      <trkpt lat="47.94525" lon="-2.46874">
        <ele>31.5</ele>
        <time>2024-12-19T09:56:41Z</time>
      </trkpt>
      <trkpt lat="47.94526" lon="-2.46873">
        <ele>31.3</ele>
        <time>2024-12-19T09:56:42Z</time>
      </trkpt>
      <trkpt lat="47.94527" lon="-2.46873">
        <ele>31.2</ele>
        <time>2024-12-19T09:56:43Z</time>
      </trkpt>
      <trkpt lat="47.94527" lon="-2.46871">
        <ele>31.1</ele>
        <time>2024-12-19T09:56:44Z</time>
      </trkpt>
      <trkpt lat="47.94528" lon="-2.4687">
        <ele>31</ele>
        <time>2024-12-19T09:56:45Z</time>
      </trkpt>
      <trkpt lat="47.94528" lon="-2.46869">
        <ele>31</ele>
        <time>2024-12-19T09:56:46Z</time>
      </trkpt>
      <trkpt lat="47.94528" lon="-2.46867">
        <ele>31</ele>
        <time>2024-12-19T09:56:47Z</time>
      </trkpt>
      <trkpt lat="47.94529" lon="-2.46866">
        <ele>31</ele>
        <time>2024-12-19T09:56:48Z</time>
      </trkpt>
      <trkpt lat="47.94529" lon="-2.46864">
        <ele>31</ele>
        <time>2024-12-19T09:56:49Z</time>
      </trkpt>
      <trkpt lat="47.94529" lon="-2.46862">
        <ele>30.9</ele>
        <time>2024-12-19T09:56:50Z</time>
      </trkpt>
      <trkpt lat="47.94529" lon="-2.46861">
        <ele>30.9</ele>
        <time>2024-12-19T09:56:51Z</time>
      </trkpt>
      <trkpt lat="47.94529" lon="-2.46859">
        <ele>30.9</ele>
        <time>2024-12-19T09:56:52Z</time>
      </trkpt>
      <trkpt lat="47.94528" lon="-2.46856">
        <ele>30.8</ele>
        <time>2024-12-19T09:56:53Z</time>
      </trkpt>
      <trkpt lat="47.94527" lon="-2.46852">
        <ele>30.8</ele>
        <time>2024-12-19T09:56:54Z</time>
      </trkpt>
      <trkpt lat="47.94526" lon="-2.46849">
        <ele>30.9</ele>
        <time>2024-12-19T09:56:55Z</time>
      </trkpt>
      <trkpt lat="47.94525" lon="-2.46845">
        <ele>30.9</ele>
        <time>2024-12-19T09:56:56Z</time>
      </trkpt>
      <trkpt lat="47.94525" lon="-2.46842">
        <ele>30.8</ele>
        <time>2024-12-19T09:56:57Z</time>
      </trkpt>
      <trkpt lat="47.94525" lon="-2.4684">
        <ele>30.7</ele>
        <time>2024-12-19T09:56:58Z</time>
      </trkpt>
      <trkpt lat="47.94526" lon="-2.46838">
        <ele>30.6</ele>
        <time>2024-12-19T09:56:59Z</time>
      </trkpt>
      <trkpt lat="47.94525" lon="-2.46835">
        <ele>30.6</ele>
        <time>2024-12-19T09:57:00Z</time>
      </trkpt>
      <trkpt lat="47.94525" lon="-2.46832">
        <ele>30.6</ele>
        <time>2024-12-19T09:57:01Z</time>
      </trkpt>
      <trkpt lat="47.94525" lon="-2.46829">
        <ele>30.6</ele>
        <time>2024-12-19T09:57:02Z</time>
      </trkpt>
      <trkpt lat="47.94525" lon="-2.46827">
        <ele>30.5</ele>
        <time>2024-12-19T09:57:03Z</time>
      </trkpt>
      <trkpt lat="47.94526" lon="-2.46825">
        <ele>30.5</ele>
        <time>2024-12-19T09:57:04Z</time>
      </trkpt>
      <trkpt lat="47.94526" lon="-2.46823">
        <ele>30.4</ele>
        <time>2024-12-19T09:57:05Z</time>
      </trkpt>
      <trkpt lat="47.94525" lon="-2.46819">
        <ele>30.6</ele>
        <time>2024-12-19T09:57:06Z</time>
      </trkpt>
      <trkpt lat="47.94524" lon="-2.46816">
        <ele>30.7</ele>
        <time>2024-12-19T09:57:07Z</time>
      </trkpt>
      <trkpt lat="47.94524" lon="-2.46813">
        <ele>30.7</ele>
        <time>2024-12-19T09:57:08Z</time>
      </trkpt>
      <trkpt lat="47.94524" lon="-2.46812">
        <ele>30.7</ele>
        <time>2024-12-19T09:57:09Z</time>
      </trkpt>
      <trkpt lat="47.94524" lon="-2.46811">
        <ele>30.7</ele>
        <time>2024-12-19T09:57:10Z</time>
      </trkpt>
      <trkpt lat="47.94524" lon="-2.46809">
        <ele>30.6</ele>
        <time>2024-12-19T09:57:11Z</time>
      </trkpt>
      <trkpt lat="47.94525" lon="-2.46808">
        <ele>30.6</ele>
        <time>2024-12-19T09:57:12Z</time>
      </trkpt>
      <trkpt lat="47.94525" lon="-2.46806">
        <ele>30.6</ele>
        <time>2024-12-19T09:57:13Z</time>
      </trkpt>
      <trkpt lat="47.94525" lon="-2.46804">
        <ele>30.6</ele>
        <time>2024-12-19T09:57:14Z</time>
      </trkpt>
      <trkpt lat="47.94525" lon="-2.46803">
        <ele>30.5</ele>
        <time>2024-12-19T09:57:15Z</time>
      </trkpt>
      <trkpt lat="47.94526" lon="-2.46803">
        <ele>30.4</ele>
        <time>2024-12-19T09:57:16Z</time>
      </trkpt>
      <trkpt lat="47.94527" lon="-2.46803">
        <ele>30.3</ele>
        <time>2024-12-19T09:57:17Z</time>
      </trkpt>
      <trkpt lat="47.94528" lon="-2.46803">
        <ele>30.1</ele>
        <time>2024-12-19T09:57:18Z</time>
      </trkpt>
      <trkpt lat="47.94528" lon="-2.46802">
        <ele>30.1</ele>
        <time>2024-12-19T09:57:19Z</time>
      </trkpt>
      <trkpt lat="47.94529" lon="-2.46801">
        <ele>30.2</ele>
        <time>2024-12-19T09:57:20Z</time>
      </trkpt>
      <trkpt lat="47.94529" lon="-2.468">
        <ele>30.2</ele>
        <time>2024-12-19T09:57:21Z</time>
      </trkpt>
      <trkpt lat="47.94529" lon="-2.46799">
        <ele>30.2</ele>
        <time>2024-12-19T09:57:22Z</time>
      </trkpt>
      <trkpt lat="47.9453" lon="-2.46797">
        <ele>30.3</ele>
        <time>2024-12-19T09:57:23Z</time>
      </trkpt>
      <trkpt lat="47.94531" lon="-2.46795">
        <ele>30.3</ele>
        <time>2024-12-19T09:57:24Z</time>
      </trkpt>
      <trkpt lat="47.94531" lon="-2.46794">
        <ele>30.4</ele>
        <time>2024-12-19T09:57:25Z</time>
      </trkpt>
      <trkpt lat="47.94531" lon="-2.46793">
        <ele>30.4</ele>
        <time>2024-12-19T09:57:26Z</time>
      </trkpt>
      <trkpt lat="47.94531" lon="-2.46792">
        <ele>30.5</ele>
        <time>2024-12-19T09:57:27Z</time>
      </trkpt>
      <trkpt lat="47.9453" lon="-2.4679">
        <ele>30.5</ele>
        <time>2024-12-19T09:57:28Z</time>
      </trkpt>
      <trkpt lat="47.9453" lon="-2.46788">
        <ele>30.6</ele>
        <time>2024-12-19T09:57:29Z</time>
      </trkpt>
      <trkpt lat="47.9453" lon="-2.46785">
        <ele>30.7</ele>
        <time>2024-12-19T09:57:30Z</time>
      </trkpt>
      <trkpt lat="47.94529" lon="-2.46782">
        <ele>30.8</ele>
        <time>2024-12-19T09:57:31Z</time>
      </trkpt>
      <trkpt lat="47.94528" lon="-2.4678">
        <ele>30.9</ele>
        <time>2024-12-19T09:57:32Z</time>
      </trkpt>
      <trkpt lat="47.94528" lon="-2.46776">
        <ele>31</ele>
        <time>2024-12-19T09:57:33Z</time>
      </trkpt>
      <trkpt lat="47.94528" lon="-2.46774">
        <ele>31</ele>
        <time>2024-12-19T09:57:34Z</time>
      </trkpt>
      <trkpt lat="47.94528" lon="-2.46772">
        <ele>31</ele>
        <time>2024-12-19T09:57:35Z</time>
      </trkpt>
      <trkpt lat="47.94527" lon="-2.46771">
        <ele>31</ele>
        <time>2024-12-19T09:57:36Z</time>
      </trkpt>
      <trkpt lat="47.94527" lon="-2.46769">
        <ele>31.1</ele>
        <time>2024-12-19T09:57:37Z</time>
      </trkpt>
      <trkpt lat="47.94527" lon="-2.46766">
        <ele>31.1</ele>
        <time>2024-12-19T09:57:38Z</time>
      </trkpt>
      <trkpt lat="47.94527" lon="-2.46764">
        <ele>31.1</ele>
        <time>2024-12-19T09:57:39Z</time>
      </trkpt>
      <trkpt lat="47.94527" lon="-2.46762">
        <ele>31.1</ele>
        <time>2024-12-19T09:57:40Z</time>
      </trkpt>
      <trkpt lat="47.94527" lon="-2.46761">
        <ele>31.1</ele>
        <time>2024-12-19T09:57:41Z</time>
      </trkpt>
      <trkpt lat="47.94527" lon="-2.46759">
        <ele>31.1</ele>
        <time>2024-12-19T09:57:42Z</time>
      </trkpt>
      <trkpt lat="47.94527" lon="-2.46758">
        <ele>31.1</ele>
        <time>2024-12-19T09:57:43Z</time>
      </trkpt>
      <trkpt lat="47.94527" lon="-2.46757">
        <ele>31.1</ele>
        <time>2024-12-19T09:57:44Z</time>
      </trkpt>
      <trkpt lat="47.94527" lon="-2.46756">
        <ele>31</ele>
        <time>2024-12-19T09:57:45Z</time>
      </trkpt>
      <trkpt lat="47.94527" lon="-2.46755">
        <ele>31</ele>
        <time>2024-12-19T09:57:46Z</time>
      </trkpt>
      <trkpt lat="47.94527" lon="-2.46753">
        <ele>31</ele>
        <time>2024-12-19T09:57:47Z</time>
      </trkpt>
      <trkpt lat="47.94527" lon="-2.46752">
        <ele>31</ele>
        <time>2024-12-19T09:57:48Z</time>
      </trkpt>
      <trkpt lat="47.94528" lon="-2.46751">
        <ele>31</ele>
        <time>2024-12-19T09:57:49Z</time>
      </trkpt>
      <trkpt lat="47.94528" lon="-2.46749">
        <ele>30.9</ele>
        <time>2024-12-19T09:57:50Z</time>
      </trkpt>
      <trkpt lat="47.94528" lon="-2.46746">
        <ele>30.9</ele>
        <time>2024-12-19T09:57:51Z</time>
      </trkpt>
      <trkpt lat="47.94528" lon="-2.46745">
        <ele>30.8</ele>
        <time>2024-12-19T09:57:52Z</time>
      </trkpt>
      <trkpt lat="47.94528" lon="-2.46743">
        <ele>30.8</ele>
        <time>2024-12-19T09:57:53Z</time>
      </trkpt>
      <trkpt lat="47.94528" lon="-2.46742">
        <ele>30.7</ele>
        <time>2024-12-19T09:57:54Z</time>
      </trkpt>
      <trkpt lat="47.94527" lon="-2.4674">
        <ele>30.7</ele>
        <time>2024-12-19T09:57:55Z</time>
      </trkpt>
      <trkpt lat="47.94527" lon="-2.46737">
        <ele>30.6</ele>
        <time>2024-12-19T09:57:56Z</time>
      </trkpt>
      <trkpt lat="47.94527" lon="-2.46734">
        <ele>30.5</ele>
        <time>2024-12-19T09:57:57Z</time>
      </trkpt>
      <trkpt lat="47.94526" lon="-2.46731">
        <ele>30.5</ele>
        <time>2024-12-19T09:57:58Z</time>
      </trkpt>
      <trkpt lat="47.94526" lon="-2.4673">
        <ele>30.4</ele>
        <time>2024-12-19T09:57:59Z</time>
      </trkpt>
      <trkpt lat="47.94525" lon="-2.46727">
        <ele>30.4</ele>
        <time>2024-12-19T09:58:00Z</time>
      </trkpt>
      <trkpt lat="47.94524" lon="-2.46725">
        <ele>30.4</ele>
        <time>2024-12-19T09:58:01Z</time>
      </trkpt>
      <trkpt lat="47.94524" lon="-2.46723">
        <ele>30.3</ele>
        <time>2024-12-19T09:58:02Z</time>
      </trkpt>
      <trkpt lat="47.94523" lon="-2.46722">
        <ele>30.3</ele>
        <time>2024-12-19T09:58:03Z</time>
      </trkpt>
      <trkpt lat="47.94523" lon="-2.4672">
        <ele>30.4</ele>
        <time>2024-12-19T09:58:04Z</time>
      </trkpt>
      <trkpt lat="47.94523" lon="-2.46719">
        <ele>30.5</ele>
        <time>2024-12-19T09:58:05Z</time>
      </trkpt>
      <trkpt lat="47.94522" lon="-2.46718">
        <ele>30.6</ele>
        <time>2024-12-19T09:58:06Z</time>
      </trkpt>
      <trkpt lat="47.94522" lon="-2.46718">
        <ele>30.6</ele>
        <time>2024-12-19T09:58:07Z</time>
      </trkpt>
      <trkpt lat="47.94522" lon="-2.46718">
        <ele>30.6</ele>
        <time>2024-12-19T09:58:08Z</time>
      </trkpt>
      <trkpt lat="47.94522" lon="-2.46718">
        <ele>30.6</ele>
        <time>2024-12-19T09:58:09Z</time>
      </trkpt>
      <trkpt lat="47.94522" lon="-2.46717">
        <ele>30.7</ele>
        <time>2024-12-19T09:58:10Z</time>
      </trkpt>
      <trkpt lat="47.94522" lon="-2.46717">
        <ele>30.7</ele>
        <time>2024-12-19T09:58:11Z</time>
      </trkpt>
      <trkpt lat="47.94522" lon="-2.46717">
        <ele>30.7</ele>
        <time>2024-12-19T09:58:12Z</time>
      </trkpt>
      <trkpt lat="47.94522" lon="-2.46716">
        <ele>30.7</ele>
        <time>2024-12-19T09:58:13Z</time>
      </trkpt>
      <trkpt lat="47.94522" lon="-2.46714">
        <ele>30.8</ele>
        <time>2024-12-19T09:58:14Z</time>
      </trkpt>
      <trkpt lat="47.94522" lon="-2.46712">
        <ele>30.9</ele>
        <time>2024-12-19T09:58:15Z</time>
      </trkpt>
      <trkpt lat="47.94522" lon="-2.4671">
        <ele>30.9</ele>
        <time>2024-12-19T09:58:16Z</time>
      </trkpt>
      <trkpt lat="47.94523" lon="-2.46708">
        <ele>31</ele>
        <time>2024-12-19T09:58:17Z</time>
      </trkpt>
      <trkpt lat="47.94523" lon="-2.46707">
        <ele>31</ele>
        <time>2024-12-19T09:58:18Z</time>
      </trkpt>
      <trkpt lat="47.94524" lon="-2.46705">
        <ele>31</ele>
        <time>2024-12-19T09:58:19Z</time>
      </trkpt>
      <trkpt lat="47.94523" lon="-2.46703">
        <ele>31.1</ele>
        <time>2024-12-19T09:58:20Z</time>
      </trkpt>
      <trkpt lat="47.94523" lon="-2.46701">
        <ele>31.2</ele>
        <time>2024-12-19T09:58:21Z</time>
      </trkpt>
      <trkpt lat="47.94523" lon="-2.46699">
        <ele>31.3</ele>
        <time>2024-12-19T09:58:22Z</time>
      </trkpt>
      <trkpt lat="47.94524" lon="-2.46697">
        <ele>31.3</ele>
        <time>2024-12-19T09:58:23Z</time>
      </trkpt>
      <trkpt lat="47.94524" lon="-2.46695">
        <ele>31.4</ele>
        <time>2024-12-19T09:58:24Z</time>
      </trkpt>
      <trkpt lat="47.94524" lon="-2.46693">
        <ele>31.3</ele>
        <time>2024-12-19T09:58:25Z</time>
      </trkpt>
      <trkpt lat="47.94525" lon="-2.4669">
        <ele>31.2</ele>
        <time>2024-12-19T09:58:26Z</time>
      </trkpt>
      <trkpt lat="47.94526" lon="-2.46687">
        <ele>31</ele>
        <time>2024-12-19T09:58:27Z</time>
      </trkpt>
      <trkpt lat="47.94526" lon="-2.46685">
        <ele>30.8</ele>
        <time>2024-12-19T09:58:28Z</time>
      </trkpt>
      <trkpt lat="47.94527" lon="-2.46683">
        <ele>30.7</ele>
        <time>2024-12-19T09:58:29Z</time>
      </trkpt>
      <trkpt lat="47.94527" lon="-2.46681">
        <ele>30.6</ele>
        <time>2024-12-19T09:58:30Z</time>
      </trkpt>
      <trkpt lat="47.94528" lon="-2.46679">
        <ele>30.4</ele>
        <time>2024-12-19T09:58:31Z</time>
      </trkpt>
      <trkpt lat="47.94528" lon="-2.46677">
        <ele>30.4</ele>
        <time>2024-12-19T09:58:32Z</time>
      </trkpt>
      <trkpt lat="47.94528" lon="-2.46676">
        <ele>30.3</ele>
        <time>2024-12-19T09:58:33Z</time>
      </trkpt>
      <trkpt lat="47.94529" lon="-2.46675">
        <ele>30.3</ele>
        <time>2024-12-19T09:58:34Z</time>
      </trkpt>
      <trkpt lat="47.94529" lon="-2.46674">
        <ele>30.2</ele>
        <time>2024-12-19T09:58:35Z</time>
      </trkpt>
      <trkpt lat="47.94529" lon="-2.46673">
        <ele>30.2</ele>
        <time>2024-12-19T09:58:36Z</time>
      </trkpt>
      <trkpt lat="47.94529" lon="-2.46672">
        <ele>30.2</ele>
        <time>2024-12-19T09:58:37Z</time>
      </trkpt>
      <trkpt lat="47.94529" lon="-2.46671">
        <ele>30.1</ele>
        <time>2024-12-19T09:58:38Z</time>
      </trkpt>
      <trkpt lat="47.94529" lon="-2.46669">
        <ele>30.1</ele>
        <time>2024-12-19T09:58:39Z</time>
      </trkpt>
      <trkpt lat="47.9453" lon="-2.46668">
        <ele>30</ele>
        <time>2024-12-19T09:58:40Z</time>
      </trkpt>
      <trkpt lat="47.9453" lon="-2.46666">
        <ele>30</ele>
        <time>2024-12-19T09:58:41Z</time>
      </trkpt>
      <trkpt lat="47.9453" lon="-2.46665">
        <ele>30.1</ele>
        <time>2024-12-19T09:58:42Z</time>
      </trkpt>
      <trkpt lat="47.9453" lon="-2.46664">
        <ele>30.2</ele>
        <time>2024-12-19T09:58:43Z</time>
      </trkpt>
      <trkpt lat="47.9453" lon="-2.46662">
        <ele>30.3</ele>
        <time>2024-12-19T09:58:44Z</time>
      </trkpt>
      <trkpt lat="47.9453" lon="-2.46661">
        <ele>30.4</ele>
        <time>2024-12-19T09:58:45Z</time>
      </trkpt>
      <trkpt lat="47.9453" lon="-2.46659">
        <ele>30.5</ele>
        <time>2024-12-19T09:58:46Z</time>
      </trkpt>
      <trkpt lat="47.9453" lon="-2.46658">
        <ele>30.6</ele>
        <time>2024-12-19T09:58:47Z</time>
      </trkpt>
      <trkpt lat="47.94531" lon="-2.46656">
        <ele>30.7</ele>
        <time>2024-12-19T09:58:48Z</time>
      </trkpt>
      <trkpt lat="47.94531" lon="-2.46654">
        <ele>30.8</ele>
        <time>2024-12-19T09:58:49Z</time>
      </trkpt>
      <trkpt lat="47.94531" lon="-2.46652">
        <ele>30.9</ele>
        <time>2024-12-19T09:58:50Z</time>
      </trkpt>
      <trkpt lat="47.94531" lon="-2.4665">
        <ele>31</ele>
        <time>2024-12-19T09:58:51Z</time>
      </trkpt>
      <trkpt lat="47.94532" lon="-2.46649">
        <ele>31.1</ele>
        <time>2024-12-19T09:58:52Z</time>
      </trkpt>
      <trkpt lat="47.94532" lon="-2.46648">
        <ele>31.2</ele>
        <time>2024-12-19T09:58:53Z</time>
      </trkpt>
      <trkpt lat="47.94532" lon="-2.46646">
        <ele>31.2</ele>
        <time>2024-12-19T09:58:54Z</time>
      </trkpt>
      <trkpt lat="47.94533" lon="-2.46645">
        <ele>31.3</ele>
        <time>2024-12-19T09:58:55Z</time>
      </trkpt>
      <trkpt lat="47.94534" lon="-2.46644">
        <ele>31.3</ele>
        <time>2024-12-19T09:58:56Z</time>
      </trkpt>
      <trkpt lat="47.94534" lon="-2.46642">
        <ele>31.3</ele>
        <time>2024-12-19T09:58:57Z</time>
      </trkpt>
      <trkpt lat="47.94535" lon="-2.4664">
        <ele>31.4</ele>
        <time>2024-12-19T09:58:58Z</time>
      </trkpt>
      <trkpt lat="47.94534" lon="-2.46638">
        <ele>31.6</ele>
        <time>2024-12-19T09:58:59Z</time>
      </trkpt>
      <trkpt lat="47.94534" lon="-2.46636">
        <ele>31.6</ele>
        <time>2024-12-19T09:59:00Z</time>
      </trkpt>
      <trkpt lat="47.94533" lon="-2.46634">
        <ele>31.7</ele>
        <time>2024-12-19T09:59:01Z</time>
      </trkpt>
      <trkpt lat="47.94533" lon="-2.46632">
        <ele>31.8</ele>
        <time>2024-12-19T09:59:02Z</time>
      </trkpt>
      <trkpt lat="47.94533" lon="-2.46631">
        <ele>31.8</ele>
        <time>2024-12-19T09:59:03Z</time>
      </trkpt>
      <trkpt lat="47.94533" lon="-2.4663">
        <ele>31.8</ele>
        <time>2024-12-19T09:59:04Z</time>
      </trkpt>
      <trkpt lat="47.94534" lon="-2.46629">
        <ele>31.7</ele>
        <time>2024-12-19T09:59:05Z</time>
      </trkpt>
      <trkpt lat="47.94534" lon="-2.46627">
        <ele>31.8</ele>
        <time>2024-12-19T09:59:06Z</time>
      </trkpt>
      <trkpt lat="47.94534" lon="-2.46626">
        <ele>31.9</ele>
        <time>2024-12-19T09:59:07Z</time>
      </trkpt>
      <trkpt lat="47.94532" lon="-2.46623">
        <ele>32.1</ele>
        <time>2024-12-19T09:59:08Z</time>
      </trkpt>
      <trkpt lat="47.94532" lon="-2.46622">
        <ele>32.1</ele>
        <time>2024-12-19T09:59:09Z</time>
      </trkpt>
      <trkpt lat="47.94532" lon="-2.46621">
        <ele>32.2</ele>
        <time>2024-12-19T09:59:10Z</time>
      </trkpt>
      <trkpt lat="47.94532" lon="-2.4662">
        <ele>32.2</ele>
        <time>2024-12-19T09:59:11Z</time>
      </trkpt>
      <trkpt lat="47.94532" lon="-2.46618">
        <ele>32.2</ele>
        <time>2024-12-19T09:59:12Z</time>
      </trkpt>
      <trkpt lat="47.94533" lon="-2.46617">
        <ele>32.2</ele>
        <time>2024-12-19T09:59:13Z</time>
      </trkpt>
      <trkpt lat="47.94533" lon="-2.46615">
        <ele>32.2</ele>
        <time>2024-12-19T09:59:14Z</time>
      </trkpt>
      <trkpt lat="47.94533" lon="-2.46613">
        <ele>32.2</ele>
        <time>2024-12-19T09:59:15Z</time>
      </trkpt>
      <trkpt lat="47.94534" lon="-2.46612">
        <ele>32.2</ele>
        <time>2024-12-19T09:59:16Z</time>
      </trkpt>
      <trkpt lat="47.94534" lon="-2.46611">
        <ele>32.1</ele>
        <time>2024-12-19T09:59:17Z</time>
      </trkpt>
      <trkpt lat="47.94534" lon="-2.46611">
        <ele>32.1</ele>
        <time>2024-12-19T09:59:18Z</time>
      </trkpt>
      <trkpt lat="47.94535" lon="-2.46609">
        <ele>32.1</ele>
        <time>2024-12-19T09:59:19Z</time>
      </trkpt>
      <trkpt lat="47.94535" lon="-2.46607">
        <ele>32.2</ele>
        <time>2024-12-19T09:59:20Z</time>
      </trkpt>
      <trkpt lat="47.94535" lon="-2.46605">
        <ele>32.3</ele>
        <time>2024-12-19T09:59:21Z</time>
      </trkpt>
      <trkpt lat="47.94535" lon="-2.46602">
        <ele>32.4</ele>
        <time>2024-12-19T09:59:22Z</time>
      </trkpt>
      <trkpt lat="47.94535" lon="-2.466">
        <ele>32.6</ele>
        <time>2024-12-19T09:59:23Z</time>
      </trkpt>
      <trkpt lat="47.94535" lon="-2.46598">
        <ele>32.7</ele>
        <time>2024-12-19T09:59:24Z</time>
      </trkpt>
      <trkpt lat="47.94535" lon="-2.46595">
        <ele>32.8</ele>
        <time>2024-12-19T09:59:25Z</time>
      </trkpt>
      <trkpt lat="47.94535" lon="-2.46593">
        <ele>32.9</ele>
        <time>2024-12-19T09:59:26Z</time>
      </trkpt>
      <trkpt lat="47.94535" lon="-2.46592">
        <ele>33</ele>
        <time>2024-12-19T09:59:27Z</time>
      </trkpt>
      <trkpt lat="47.94535" lon="-2.4659">
        <ele>33.1</ele>
        <time>2024-12-19T09:59:28Z</time>
      </trkpt>
      <trkpt lat="47.94535" lon="-2.46589">
        <ele>33.2</ele>
        <time>2024-12-19T09:59:29Z</time>
      </trkpt>
      <trkpt lat="47.94535" lon="-2.46588">
        <ele>33.2</ele>
        <time>2024-12-19T09:59:30Z</time>
      </trkpt>
      <trkpt lat="47.94535" lon="-2.46587">
        <ele>33.3</ele>
        <time>2024-12-19T09:59:31Z</time>
      </trkpt>
      <trkpt lat="47.94535" lon="-2.46586">
        <ele>33.3</ele>
        <time>2024-12-19T09:59:32Z</time>
      </trkpt>
      <trkpt lat="47.94535" lon="-2.46584">
        <ele>33.4</ele>
        <time>2024-12-19T09:59:33Z</time>
      </trkpt>
      <trkpt lat="47.94535" lon="-2.46583">
        <ele>33.5</ele>
        <time>2024-12-19T09:59:34Z</time>
      </trkpt>
      <trkpt lat="47.94535" lon="-2.46581">
        <ele>33.5</ele>
        <time>2024-12-19T09:59:35Z</time>
      </trkpt>
      <trkpt lat="47.94534" lon="-2.46578">
        <ele>33.6</ele>
        <time>2024-12-19T09:59:36Z</time>
      </trkpt>
      <trkpt lat="47.94534" lon="-2.46577">
        <ele>33.6</ele>
        <time>2024-12-19T09:59:37Z</time>
      </trkpt>
      <trkpt lat="47.94534" lon="-2.46575">
        <ele>33.6</ele>
        <time>2024-12-19T09:59:38Z</time>
      </trkpt>
      <trkpt lat="47.94534" lon="-2.46574">
        <ele>33.6</ele>
        <time>2024-12-19T09:59:39Z</time>
      </trkpt>
      <trkpt lat="47.94534" lon="-2.46572">
        <ele>33.6</ele>
        <time>2024-12-19T09:59:40Z</time>
      </trkpt>
      <trkpt lat="47.94534" lon="-2.46571">
        <ele>33.7</ele>
        <time>2024-12-19T09:59:41Z</time>
      </trkpt>
      <trkpt lat="47.94534" lon="-2.46569">
        <ele>33.7</ele>
        <time>2024-12-19T09:59:42Z</time>
      </trkpt>
      <trkpt lat="47.94533" lon="-2.46568">
        <ele>33.7</ele>
        <time>2024-12-19T09:59:43Z</time>
      </trkpt>
      <trkpt lat="47.94533" lon="-2.46567">
        <ele>33.8</ele>
        <time>2024-12-19T09:59:44Z</time>
      </trkpt>
      <trkpt lat="47.94532" lon="-2.46565">
        <ele>33.8</ele>
        <time>2024-12-19T09:59:45Z</time>
      </trkpt>
      <trkpt lat="47.94531" lon="-2.46563">
        <ele>33.8</ele>
        <time>2024-12-19T09:59:46Z</time>
      </trkpt>
      <trkpt lat="47.94531" lon="-2.46561">
        <ele>33.9</ele>
        <time>2024-12-19T09:59:47Z</time>
      </trkpt>
      <trkpt lat="47.9453" lon="-2.46559">
        <ele>33.9</ele>
        <time>2024-12-19T09:59:48Z</time>
      </trkpt>
      <trkpt lat="47.94529" lon="-2.46556">
        <ele>33.9</ele>
        <time>2024-12-19T09:59:49Z</time>
      </trkpt>
      <trkpt lat="47.94529" lon="-2.46554">
        <ele>34</ele>
        <time>2024-12-19T09:59:50Z</time>
      </trkpt>
      <trkpt lat="47.94528" lon="-2.46551">
        <ele>34</ele>
        <time>2024-12-19T09:59:51Z</time>
      </trkpt>
      <trkpt lat="47.94527" lon="-2.46549">
        <ele>34</ele>
        <time>2024-12-19T09:59:52Z</time>
      </trkpt>
      <trkpt lat="47.94527" lon="-2.46546">
        <ele>34</ele>
        <time>2024-12-19T09:59:53Z</time>
      </trkpt>
      <trkpt lat="47.94526" lon="-2.46543">
        <ele>34</ele>
        <time>2024-12-19T09:59:54Z</time>
      </trkpt>
      <trkpt lat="47.94525" lon="-2.46541">
        <ele>34</ele>
        <time>2024-12-19T09:59:55Z</time>
      </trkpt>
      <trkpt lat="47.94524" lon="-2.46539">
        <ele>34</ele>
        <time>2024-12-19T09:59:56Z</time>
      </trkpt>
      <trkpt lat="47.94523" lon="-2.46537">
        <ele>34</ele>
        <time>2024-12-19T09:59:57Z</time>
      </trkpt>
      <trkpt lat="47.94523" lon="-2.46535">
        <ele>34</ele>
        <time>2024-12-19T09:59:58Z</time>
      </trkpt>
      <trkpt lat="47.94523" lon="-2.46534">
        <ele>34</ele>
        <time>2024-12-19T09:59:59Z</time>
      </trkpt>
      <trkpt lat="47.94523" lon="-2.46532">
        <ele>34</ele>
        <time>2024-12-19T10:00:00Z</time>
      </trkpt>
      <trkpt lat="47.94524" lon="-2.46531">
        <ele>34</ele>
        <time>2024-12-19T10:00:01Z</time>
      </trkpt>
      <trkpt lat="47.94524" lon="-2.46529">
        <ele>34</ele>
        <time>2024-12-19T10:00:02Z</time>
      </trkpt>
      <trkpt lat="47.94523" lon="-2.46527">
        <ele>34</ele>
        <time>2024-12-19T10:00:03Z</time>
      </trkpt>
      <trkpt lat="47.94523" lon="-2.46524">
        <ele>34</ele>
        <time>2024-12-19T10:00:04Z</time>
      </trkpt>
      <trkpt lat="47.94522" lon="-2.46521">
        <ele>34</ele>
        <time>2024-12-19T10:00:05Z</time>
      </trkpt>
      <trkpt lat="47.94522" lon="-2.46519">
        <ele>34</ele>
        <time>2024-12-19T10:00:06Z</time>
      </trkpt>
      <trkpt lat="47.94521" lon="-2.46516">
        <ele>34</ele>
        <time>2024-12-19T10:00:07Z</time>
      </trkpt>
      <trkpt lat="47.94521" lon="-2.46514">
        <ele>34</ele>
        <time>2024-12-19T10:00:08Z</time>
      </trkpt>
      <trkpt lat="47.9452" lon="-2.46512">
        <ele>34</ele>
        <time>2024-12-19T10:00:09Z</time>
      </trkpt>
      <trkpt lat="47.9452" lon="-2.46509">
        <ele>34</ele>
        <time>2024-12-19T10:00:10Z</time>
      </trkpt>
      <trkpt lat="47.94519" lon="-2.46508">
        <ele>34</ele>
        <time>2024-12-19T10:00:11Z</time>
      </trkpt>
      <trkpt lat="47.94519" lon="-2.46506">
        <ele>34</ele>
        <time>2024-12-19T10:00:12Z</time>
      </trkpt>
      <trkpt lat="47.94519" lon="-2.46504">
        <ele>34</ele>
        <time>2024-12-19T10:00:13Z</time>
      </trkpt>
      <trkpt lat="47.94519" lon="-2.46503">
        <ele>34</ele>
        <time>2024-12-19T10:00:14Z</time>
      </trkpt>
      <trkpt lat="47.94519" lon="-2.465">
        <ele>34</ele>
        <time>2024-12-19T10:00:15Z</time>
      </trkpt>
      <trkpt lat="47.94518" lon="-2.46498">
        <ele>34</ele>
        <time>2024-12-19T10:00:16Z</time>
      </trkpt>
      <trkpt lat="47.94518" lon="-2.46496">
        <ele>34</ele>
        <time>2024-12-19T10:00:17Z</time>
      </trkpt>
      <trkpt lat="47.94517" lon="-2.46493">
        <ele>34</ele>
        <time>2024-12-19T10:00:18Z</time>
      </trkpt>
      <trkpt lat="47.94517" lon="-2.46491">
        <ele>34</ele>
        <time>2024-12-19T10:00:19Z</time>
      </trkpt>
      <trkpt lat="47.94516" lon="-2.46489">
        <ele>34</ele>
        <time>2024-12-19T10:00:20Z</time>
      </trkpt>
      <trkpt lat="47.94516" lon="-2.46487">
        <ele>34</ele>
        <time>2024-12-19T10:00:21Z</time>
      </trkpt>
      <trkpt lat="47.94516" lon="-2.46485">
        <ele>34</ele>
        <time>2024-12-19T10:00:22Z</time>
      </trkpt>
      <trkpt lat="47.94515" lon="-2.46483">
        <ele>34</ele>
        <time>2024-12-19T10:00:23Z</time>
      </trkpt>
      <trkpt lat="47.94514" lon="-2.46481">
        <ele>34</ele>
        <time>2024-12-19T10:00:24Z</time>
      </trkpt>
      <trkpt lat="47.94514" lon="-2.46478">
        <ele>34</ele>
        <time>2024-12-19T10:00:25Z</time>
      </trkpt>
      <trkpt lat="47.94513" lon="-2.46475">
        <ele>34</ele>
        <time>2024-12-19T10:00:26Z</time>
      </trkpt>
      <trkpt lat="47.94512" lon="-2.46472">
        <ele>34</ele>
        <time>2024-12-19T10:00:27Z</time>
      </trkpt>
      <trkpt lat="47.94512" lon="-2.4647">
        <ele>34</ele>
        <time>2024-12-19T10:00:28Z</time>
      </trkpt>
      <trkpt lat="47.94512" lon="-2.46468">
        <ele>34</ele>
        <time>2024-12-19T10:00:29Z</time>
      </trkpt>
      <trkpt lat="47.94512" lon="-2.46465">
        <ele>34</ele>
        <time>2024-12-19T10:00:30Z</time>
      </trkpt>
      <trkpt lat="47.94513" lon="-2.46464">
        <ele>34</ele>
        <time>2024-12-19T10:00:31Z</time>
      </trkpt>
      <trkpt lat="47.94513" lon="-2.46462">
        <ele>34</ele>
        <time>2024-12-19T10:00:32Z</time>
      </trkpt>
      <trkpt lat="47.94513" lon="-2.46461">
        <ele>34</ele>
        <time>2024-12-19T10:00:33Z</time>
      </trkpt>
      <trkpt lat="47.94513" lon="-2.46459">
        <ele>34</ele>
        <time>2024-12-19T10:00:34Z</time>
      </trkpt>
      <trkpt lat="47.94513" lon="-2.46457">
        <ele>34</ele>
        <time>2024-12-19T10:00:35Z</time>
      </trkpt>
      <trkpt lat="47.94513" lon="-2.46455">
        <ele>34</ele>
        <time>2024-12-19T10:00:36Z</time>
      </trkpt>
      <trkpt lat="47.94513" lon="-2.46453">
        <ele>34</ele>
        <time>2024-12-19T10:00:37Z</time>
      </trkpt>
      <trkpt lat="47.94513" lon="-2.46451">
        <ele>34</ele>
        <time>2024-12-19T10:00:38Z</time>
      </trkpt>
      <trkpt lat="47.94513" lon="-2.46449">
        <ele>34</ele>
        <time>2024-12-19T10:00:39Z</time>
      </trkpt>
      <trkpt lat="47.94512" lon="-2.46446">
        <ele>34</ele>
        <time>2024-12-19T10:00:40Z</time>
      </trkpt>
      <trkpt lat="47.94511" lon="-2.46444">
        <ele>34</ele>
        <time>2024-12-19T10:00:41Z</time>
      </trkpt>
      <trkpt lat="47.94511" lon="-2.46442">
        <ele>34</ele>
        <time>2024-12-19T10:00:42Z</time>
      </trkpt>
      <trkpt lat="47.9451" lon="-2.46441">
        <ele>33.9</ele>
        <time>2024-12-19T10:00:43Z</time>
      </trkpt>
      <trkpt lat="47.9451" lon="-2.46439">
        <ele>33.9</ele>
        <time>2024-12-19T10:00:44Z</time>
      </trkpt>
      <trkpt lat="47.94509" lon="-2.46437">
        <ele>33.9</ele>
        <time>2024-12-19T10:00:45Z</time>
      </trkpt>
      <trkpt lat="47.94509" lon="-2.46436">
        <ele>33.9</ele>
        <time>2024-12-19T10:00:46Z</time>
      </trkpt>
      <trkpt lat="47.94509" lon="-2.46434">
        <ele>33.9</ele>
        <time>2024-12-19T10:00:47Z</time>
      </trkpt>
      <trkpt lat="47.94509" lon="-2.46432">
        <ele>33.9</ele>
        <time>2024-12-19T10:00:48Z</time>
      </trkpt>
      <trkpt lat="47.94508" lon="-2.46431">
        <ele>33.8</ele>
        <time>2024-12-19T10:00:49Z</time>
      </trkpt>
      <trkpt lat="47.94508" lon="-2.46429">
        <ele>33.8</ele>
        <time>2024-12-19T10:00:50Z</time>
      </trkpt>
      <trkpt lat="47.94508" lon="-2.46428">
        <ele>33.8</ele>
        <time>2024-12-19T10:00:51Z</time>
      </trkpt>
      <trkpt lat="47.94508" lon="-2.46427">
        <ele>33.8</ele>
        <time>2024-12-19T10:00:52Z</time>
      </trkpt>
      <trkpt lat="47.94508" lon="-2.46426">
        <ele>33.8</ele>
        <time>2024-12-19T10:00:53Z</time>
      </trkpt>
      <trkpt lat="47.94507" lon="-2.46424">
        <ele>33.8</ele>
        <time>2024-12-19T10:00:54Z</time>
      </trkpt>
      <trkpt lat="47.94507" lon="-2.46423">
        <ele>33.8</ele>
        <time>2024-12-19T10:00:55Z</time>
      </trkpt>
      <trkpt lat="47.94507" lon="-2.46422">
        <ele>33.8</ele>
        <time>2024-12-19T10:00:56Z</time>
      </trkpt>
      <trkpt lat="47.94507" lon="-2.4642">
        <ele>33.8</ele>
        <time>2024-12-19T10:00:57Z</time>
      </trkpt>
      <trkpt lat="47.94507" lon="-2.46419">
        <ele>33.8</ele>
        <time>2024-12-19T10:00:58Z</time>
      </trkpt>
      <trkpt lat="47.94507" lon="-2.46417">
        <ele>33.8</ele>
        <time>2024-12-19T10:00:59Z</time>
      </trkpt>
      <trkpt lat="47.94507" lon="-2.46416">
        <ele>33.7</ele>
        <time>2024-12-19T10:01:00Z</time>
      </trkpt>
      <trkpt lat="47.94507" lon="-2.46414">
        <ele>33.7</ele>
        <time>2024-12-19T10:01:01Z</time>
      </trkpt>
      <trkpt lat="47.94507" lon="-2.46413">
        <ele>33.8</ele>
        <time>2024-12-19T10:01:02Z</time>
      </trkpt>
      <trkpt lat="47.94506" lon="-2.46412">
        <ele>33.8</ele>
        <time>2024-12-19T10:01:03Z</time>
      </trkpt>
      <trkpt lat="47.94506" lon="-2.46411">
        <ele>33.8</ele>
        <time>2024-12-19T10:01:04Z</time>
      </trkpt>
      <trkpt lat="47.94505" lon="-2.46408">
        <ele>33.8</ele>
        <time>2024-12-19T10:01:05Z</time>
      </trkpt>
      <trkpt lat="47.94504" lon="-2.46406">
        <ele>33.9</ele>
        <time>2024-12-19T10:01:06Z</time>
      </trkpt>
      <trkpt lat="47.94504" lon="-2.46404">
        <ele>33.9</ele>
        <time>2024-12-19T10:01:07Z</time>
      </trkpt>
      <trkpt lat="47.94503" lon="-2.46403">
        <ele>33.9</ele>
        <time>2024-12-19T10:01:08Z</time>
      </trkpt>
      <trkpt lat="47.94503" lon="-2.46401">
        <ele>33.9</ele>
        <time>2024-12-19T10:01:09Z</time>
      </trkpt>
      <trkpt lat="47.94502" lon="-2.464">
        <ele>33.9</ele>
        <time>2024-12-19T10:01:10Z</time>
      </trkpt>
      <trkpt lat="47.94502" lon="-2.46398">
        <ele>33.9</ele>
        <time>2024-12-19T10:01:11Z</time>
      </trkpt>
      <trkpt lat="47.94502" lon="-2.46397">
        <ele>33.9</ele>
        <time>2024-12-19T10:01:12Z</time>
      </trkpt>
      <trkpt lat="47.94501" lon="-2.46396">
        <ele>34</ele>
        <time>2024-12-19T10:01:13Z</time>
      </trkpt>
      <trkpt lat="47.94501" lon="-2.46395">
        <ele>34</ele>
        <time>2024-12-19T10:01:14Z</time>
      </trkpt>
      <trkpt lat="47.945" lon="-2.46394">
        <ele>34</ele>
        <time>2024-12-19T10:01:15Z</time>
      </trkpt>
      <trkpt lat="47.94499" lon="-2.46392">
        <ele>34</ele>
        <time>2024-12-19T10:01:16Z</time>
      </trkpt>
      <trkpt lat="47.94498" lon="-2.46391">
        <ele>34</ele>
        <time>2024-12-19T10:01:17Z</time>
      </trkpt>
      <trkpt lat="47.94498" lon="-2.46389">
        <ele>34</ele>
        <time>2024-12-19T10:01:18Z</time>
      </trkpt>
      <trkpt lat="47.94498" lon="-2.46387">
        <ele>33.9</ele>
        <time>2024-12-19T10:01:19Z</time>
      </trkpt>
      <trkpt lat="47.94498" lon="-2.46385">
        <ele>33.9</ele>
        <time>2024-12-19T10:01:20Z</time>
      </trkpt>
      <trkpt lat="47.94497" lon="-2.46384">
        <ele>33.8</ele>
        <time>2024-12-19T10:01:21Z</time>
      </trkpt>
      <trkpt lat="47.94497" lon="-2.46382">
        <ele>33.8</ele>
        <time>2024-12-19T10:01:22Z</time>
      </trkpt>
      <trkpt lat="47.94497" lon="-2.4638">
        <ele>33.7</ele>
        <time>2024-12-19T10:01:23Z</time>
      </trkpt>
      <trkpt lat="47.94497" lon="-2.46379">
        <ele>33.7</ele>
        <time>2024-12-19T10:01:24Z</time>
      </trkpt>
      <trkpt lat="47.94497" lon="-2.46378">
        <ele>33.6</ele>
        <time>2024-12-19T10:01:25Z</time>
      </trkpt>
      <trkpt lat="47.94497" lon="-2.46375">
        <ele>33.6</ele>
        <time>2024-12-19T10:01:26Z</time>
      </trkpt>
      <trkpt lat="47.94496" lon="-2.46373">
        <ele>33.5</ele>
        <time>2024-12-19T10:01:27Z</time>
      </trkpt>
      <trkpt lat="47.94496" lon="-2.4637">
        <ele>33.4</ele>
        <time>2024-12-19T10:01:28Z</time>
      </trkpt>
      <trkpt lat="47.94495" lon="-2.46367">
        <ele>33.3</ele>
        <time>2024-12-19T10:01:29Z</time>
      </trkpt>
      <trkpt lat="47.94495" lon="-2.46365">
        <ele>33.3</ele>
        <time>2024-12-19T10:01:30Z</time>
      </trkpt>
      <trkpt lat="47.94495" lon="-2.46363">
        <ele>33.3</ele>
        <time>2024-12-19T10:01:31Z</time>
      </trkpt>
      <trkpt lat="47.94494" lon="-2.46361">
        <ele>33.2</ele>
        <time>2024-12-19T10:01:32Z</time>
      </trkpt>
      <trkpt lat="47.94494" lon="-2.46359">
        <ele>33.2</ele>
        <time>2024-12-19T10:01:33Z</time>
      </trkpt>
      <trkpt lat="47.94494" lon="-2.46358">
        <ele>33.2</ele>
        <time>2024-12-19T10:01:34Z</time>
      </trkpt>
      <trkpt lat="47.94493" lon="-2.46357">
        <ele>33.2</ele>
        <time>2024-12-19T10:01:35Z</time>
      </trkpt>
      <trkpt lat="47.94493" lon="-2.46356">
        <ele>33.3</ele>
        <time>2024-12-19T10:01:36Z</time>
      </trkpt>
      <trkpt lat="47.94493" lon="-2.46356">
        <ele>33.3</ele>
        <time>2024-12-19T10:01:37Z</time>
      </trkpt>
      <trkpt lat="47.94493" lon="-2.46354">
        <ele>33.3</ele>
        <time>2024-12-19T10:01:38Z</time>
      </trkpt>
      <trkpt lat="47.94492" lon="-2.46353">
        <ele>33.3</ele>
        <time>2024-12-19T10:01:39Z</time>
      </trkpt>
      <trkpt lat="47.94492" lon="-2.4635">
        <ele>33.3</ele>
        <time>2024-12-19T10:01:40Z</time>
      </trkpt>
      <trkpt lat="47.94491" lon="-2.46347">
        <ele>33.3</ele>
        <time>2024-12-19T10:01:41Z</time>
      </trkpt>
      <trkpt lat="47.9449" lon="-2.46344">
        <ele>33.4</ele>
        <time>2024-12-19T10:01:42Z</time>
      </trkpt>
      <trkpt lat="47.94489" lon="-2.46341">
        <ele>33.4</ele>
        <time>2024-12-19T10:01:43Z</time>
      </trkpt>
      <trkpt lat="47.94488" lon="-2.46338">
        <ele>33.4</ele>
        <time>2024-12-19T10:01:44Z</time>
      </trkpt>
      <trkpt lat="47.94487" lon="-2.46336">
        <ele>33.5</ele>
        <time>2024-12-19T10:01:45Z</time>
      </trkpt>
      <trkpt lat="47.94486" lon="-2.46333">
        <ele>33.5</ele>
        <time>2024-12-19T10:01:46Z</time>
      </trkpt>
      <trkpt lat="47.94486" lon="-2.46331">
        <ele>33.5</ele>
        <time>2024-12-19T10:01:47Z</time>
      </trkpt>
      <trkpt lat="47.94485" lon="-2.46328">
        <ele>33.4</ele>
        <time>2024-12-19T10:01:48Z</time>
      </trkpt>
      <trkpt lat="47.94484" lon="-2.46326">
        <ele>33.4</ele>
        <time>2024-12-19T10:01:49Z</time>
      </trkpt>
      <trkpt lat="47.94484" lon="-2.46324">
        <ele>33.4</ele>
        <time>2024-12-19T10:01:50Z</time>
      </trkpt>
      <trkpt lat="47.94483" lon="-2.46322">
        <ele>33.3</ele>
        <time>2024-12-19T10:01:51Z</time>
      </trkpt>
      <trkpt lat="47.94483" lon="-2.4632">
        <ele>33.3</ele>
        <time>2024-12-19T10:01:52Z</time>
      </trkpt>
      <trkpt lat="47.94483" lon="-2.46318">
        <ele>33.3</ele>
        <time>2024-12-19T10:01:53Z</time>
      </trkpt>
      <trkpt lat="47.94482" lon="-2.46316">
        <ele>33.2</ele>
        <time>2024-12-19T10:01:54Z</time>
      </trkpt>
      <trkpt lat="47.94481" lon="-2.46313">
        <ele>33.2</ele>
        <time>2024-12-19T10:01:55Z</time>
      </trkpt>
      <trkpt lat="47.9448" lon="-2.46311">
        <ele>33.1</ele>
        <time>2024-12-19T10:01:56Z</time>
      </trkpt>
      <trkpt lat="47.9448" lon="-2.46309">
        <ele>33.1</ele>
        <time>2024-12-19T10:01:57Z</time>
      </trkpt>
      <trkpt lat="47.94479" lon="-2.46306">
        <ele>33</ele>
        <time>2024-12-19T10:01:58Z</time>
      </trkpt>
      <trkpt lat="47.94478" lon="-2.46303">
        <ele>33</ele>
        <time>2024-12-19T10:01:59Z</time>
      </trkpt>
      <trkpt lat="47.94477" lon="-2.46301">
        <ele>33</ele>
        <time>2024-12-19T10:02:00Z</time>
      </trkpt>
      <trkpt lat="47.94476" lon="-2.46298">
        <ele>33</ele>
        <time>2024-12-19T10:02:01Z</time>
      </trkpt>
      <trkpt lat="47.94475" lon="-2.46296">
        <ele>33</ele>
        <time>2024-12-19T10:02:02Z</time>
      </trkpt>
      <trkpt lat="47.94475" lon="-2.46294">
        <ele>33</ele>
        <time>2024-12-19T10:02:03Z</time>
      </trkpt>
      <trkpt lat="47.94474" lon="-2.46292">
        <ele>33</ele>
        <time>2024-12-19T10:02:04Z</time>
      </trkpt>
      <trkpt lat="47.94474" lon="-2.4629">
        <ele>33</ele>
        <time>2024-12-19T10:02:05Z</time>
      </trkpt>
      <trkpt lat="47.94473" lon="-2.46289">
        <ele>33</ele>
        <time>2024-12-19T10:02:06Z</time>
      </trkpt>
      <trkpt lat="47.94473" lon="-2.46287">
        <ele>33</ele>
        <time>2024-12-19T10:02:07Z</time>
      </trkpt>
      <trkpt lat="47.94473" lon="-2.46285">
        <ele>33</ele>
        <time>2024-12-19T10:02:08Z</time>
      </trkpt>
      <trkpt lat="47.94472" lon="-2.46283">
        <ele>33</ele>
        <time>2024-12-19T10:02:09Z</time>
      </trkpt>
      <trkpt lat="47.94472" lon="-2.4628">
        <ele>33</ele>
        <time>2024-12-19T10:02:10Z</time>
      </trkpt>
      <trkpt lat="47.94471" lon="-2.46278">
        <ele>33</ele>
        <time>2024-12-19T10:02:11Z</time>
      </trkpt>
      <trkpt lat="47.94471" lon="-2.46276">
        <ele>33</ele>
        <time>2024-12-19T10:02:12Z</time>
      </trkpt>
      <trkpt lat="47.9447" lon="-2.46275">
        <ele>33</ele>
        <time>2024-12-19T10:02:13Z</time>
      </trkpt>
      <trkpt lat="47.94469" lon="-2.46273">
        <ele>33</ele>
        <time>2024-12-19T10:02:14Z</time>
      </trkpt>
      <trkpt lat="47.94469" lon="-2.46271">
        <ele>33</ele>
        <time>2024-12-19T10:02:15Z</time>
      </trkpt>
      <trkpt lat="47.94468" lon="-2.46269">
        <ele>33</ele>
        <time>2024-12-19T10:02:16Z</time>
      </trkpt>
      <trkpt lat="47.94467" lon="-2.46267">
        <ele>33</ele>
        <time>2024-12-19T10:02:17Z</time>
      </trkpt>
      <trkpt lat="47.94467" lon="-2.46266">
        <ele>33</ele>
        <time>2024-12-19T10:02:18Z</time>
      </trkpt>
      <trkpt lat="47.94466" lon="-2.46264">
        <ele>33</ele>
        <time>2024-12-19T10:02:19Z</time>
      </trkpt>
      <trkpt lat="47.94466" lon="-2.46262">
        <ele>33</ele>
        <time>2024-12-19T10:02:20Z</time>
      </trkpt>
      <trkpt lat="47.94466" lon="-2.4626">
        <ele>33</ele>
        <time>2024-12-19T10:02:21Z</time>
      </trkpt>
      <trkpt lat="47.94466" lon="-2.46258">
        <ele>33</ele>
        <time>2024-12-19T10:02:22Z</time>
      </trkpt>
      <trkpt lat="47.94465" lon="-2.46257">
        <ele>33</ele>
        <time>2024-12-19T10:02:23Z</time>
      </trkpt>
      <trkpt lat="47.94465" lon="-2.46256">
        <ele>33</ele>
        <time>2024-12-19T10:02:24Z</time>
      </trkpt>
      <trkpt lat="47.94465" lon="-2.46255">
        <ele>33</ele>
        <time>2024-12-19T10:02:25Z</time>
      </trkpt>
      <trkpt lat="47.94465" lon="-2.46253">
        <ele>33</ele>
        <time>2024-12-19T10:02:26Z</time>
      </trkpt>
      <trkpt lat="47.94465" lon="-2.46252">
        <ele>33</ele>
        <time>2024-12-19T10:02:27Z</time>
      </trkpt>
      <trkpt lat="47.94465" lon="-2.4625">
        <ele>33</ele>
        <time>2024-12-19T10:02:28Z</time>
      </trkpt>
      <trkpt lat="47.94464" lon="-2.46249">
        <ele>33</ele>
        <time>2024-12-19T10:02:29Z</time>
      </trkpt>
      <trkpt lat="47.94465" lon="-2.46249">
        <ele>33</ele>
        <time>2024-12-19T10:02:30Z</time>
      </trkpt>
      <trkpt lat="47.94465" lon="-2.4625">
        <ele>33</ele>
        <time>2024-12-19T10:02:31Z</time>
      </trkpt>
      <trkpt lat="47.94464" lon="-2.4625">
        <ele>33</ele>
        <time>2024-12-19T10:02:32Z</time>
      </trkpt>
      <trkpt lat="47.94464" lon="-2.4625">
        <ele>33</ele>
        <time>2024-12-19T10:02:33Z</time>
      </trkpt>
      <trkpt lat="47.94465" lon="-2.4625">
        <ele>33</ele>
        <time>2024-12-19T10:02:34Z</time>
      </trkpt>
      <trkpt lat="47.94465" lon="-2.4625">
        <ele>33</ele>
        <time>2024-12-19T10:02:35Z</time>
      </trkpt>
      <trkpt lat="47.94465" lon="-2.4625">
        <ele>33</ele>
        <time>2024-12-19T10:02:36Z</time>
      </trkpt>
      <trkpt lat="47.94466" lon="-2.4625">
        <ele>33</ele>
        <time>2024-12-19T10:02:37Z</time>
      </trkpt>
      <trkpt lat="47.94465" lon="-2.46248">
        <ele>33</ele>
        <time>2024-12-19T10:02:38Z</time>
      </trkpt>
      <trkpt lat="47.94465" lon="-2.46247">
        <ele>32.9</ele>
        <time>2024-12-19T10:02:39Z</time>
      </trkpt>
      <trkpt lat="47.94464" lon="-2.46245">
        <ele>32.9</ele>
        <time>2024-12-19T10:02:40Z</time>
      </trkpt>
      <trkpt lat="47.94464" lon="-2.46244">
        <ele>32.8</ele>
        <time>2024-12-19T10:02:41Z</time>
      </trkpt>
      <trkpt lat="47.94465" lon="-2.46242">
        <ele>32.8</ele>
        <time>2024-12-19T10:02:42Z</time>
      </trkpt>
      <trkpt lat="47.94465" lon="-2.4624">
        <ele>32.7</ele>
        <time>2024-12-19T10:02:43Z</time>
      </trkpt>
      <trkpt lat="47.94465" lon="-2.46239">
        <ele>32.7</ele>
        <time>2024-12-19T10:02:44Z</time>
      </trkpt>
      <trkpt lat="47.94465" lon="-2.46237">
        <ele>32.7</ele>
        <time>2024-12-19T10:02:45Z</time>
      </trkpt>
      <trkpt lat="47.94465" lon="-2.46236">
        <ele>32.6</ele>
        <time>2024-12-19T10:02:46Z</time>
      </trkpt>
      <trkpt lat="47.94465" lon="-2.46235">
        <ele>32.6</ele>
        <time>2024-12-19T10:02:47Z</time>
      </trkpt>
      <trkpt lat="47.94465" lon="-2.46234">
        <ele>32.6</ele>
        <time>2024-12-19T10:02:48Z</time>
      </trkpt>
      <trkpt lat="47.94464" lon="-2.46233">
        <ele>32.6</ele>
        <time>2024-12-19T10:02:49Z</time>
      </trkpt>
      <trkpt lat="47.94464" lon="-2.46231">
        <ele>32.5</ele>
        <time>2024-12-19T10:02:50Z</time>
      </trkpt>
      <trkpt lat="47.94464" lon="-2.46229">
        <ele>32.5</ele>
        <time>2024-12-19T10:02:51Z</time>
      </trkpt>
      <trkpt lat="47.94463" lon="-2.46228">
        <ele>32.5</ele>
        <time>2024-12-19T10:02:52Z</time>
      </trkpt>
      <trkpt lat="47.94463" lon="-2.46228">
        <ele>32.5</ele>
        <time>2024-12-19T10:02:53Z</time>
      </trkpt>
      <trkpt lat="47.94463" lon="-2.46227">
        <ele>32.4</ele>
        <time>2024-12-19T10:02:54Z</time>
      </trkpt>
      <trkpt lat="47.94463" lon="-2.46226">
        <ele>32.4</ele>
        <time>2024-12-19T10:02:55Z</time>
      </trkpt>
      <trkpt lat="47.94463" lon="-2.46225">
        <ele>32.4</ele>
        <time>2024-12-19T10:02:56Z</time>
      </trkpt>
      <trkpt lat="47.94463" lon="-2.46224">
        <ele>32.4</ele>
        <time>2024-12-19T10:02:57Z</time>
      </trkpt>
      <trkpt lat="47.94462" lon="-2.46222">
        <ele>32.4</ele>
        <time>2024-12-19T10:02:58Z</time>
      </trkpt>
      <trkpt lat="47.94462" lon="-2.46221">
        <ele>32.3</ele>
        <time>2024-12-19T10:02:59Z</time>
      </trkpt>
      <trkpt lat="47.94461" lon="-2.46218">
        <ele>32.3</ele>
        <time>2024-12-19T10:03:00Z</time>
      </trkpt>
      <trkpt lat="47.94461" lon="-2.46217">
        <ele>32.3</ele>
        <time>2024-12-19T10:03:01Z</time>
      </trkpt>
      <trkpt lat="47.9446" lon="-2.46215">
        <ele>32.3</ele>
        <time>2024-12-19T10:03:02Z</time>
      </trkpt>
      <trkpt lat="47.9446" lon="-2.46214">
        <ele>32.3</ele>
        <time>2024-12-19T10:03:03Z</time>
      </trkpt>
      <trkpt lat="47.9446" lon="-2.46212">
        <ele>32.3</ele>
        <time>2024-12-19T10:03:04Z</time>
      </trkpt>
      <trkpt lat="47.94459" lon="-2.4621">
        <ele>32.3</ele>
        <time>2024-12-19T10:03:05Z</time>
      </trkpt>
      <trkpt lat="47.94458" lon="-2.46208">
        <ele>32.3</ele>
        <time>2024-12-19T10:03:06Z</time>
      </trkpt>
      <trkpt lat="47.94458" lon="-2.46207">
        <ele>32.2</ele>
        <time>2024-12-19T10:03:07Z</time>
      </trkpt>
      <trkpt lat="47.94458" lon="-2.46206">
        <ele>32.2</ele>
        <time>2024-12-19T10:03:08Z</time>
      </trkpt>
      <trkpt lat="47.94458" lon="-2.46205">
        <ele>32.2</ele>
        <time>2024-12-19T10:03:09Z</time>
      </trkpt>
      <trkpt lat="47.94458" lon="-2.46203">
        <ele>32.2</ele>
        <time>2024-12-19T10:03:10Z</time>
      </trkpt>
      <trkpt lat="47.94458" lon="-2.46202">
        <ele>32.1</ele>
        <time>2024-12-19T10:03:11Z</time>
      </trkpt>
      <trkpt lat="47.94458" lon="-2.462">
        <ele>32.1</ele>
        <time>2024-12-19T10:03:12Z</time>
      </trkpt>
      <trkpt lat="47.94458" lon="-2.46199">
        <ele>32.1</ele>
        <time>2024-12-19T10:03:13Z</time>
      </trkpt>
      <trkpt lat="47.94458" lon="-2.46197">
        <ele>32.1</ele>
        <time>2024-12-19T10:03:14Z</time>
      </trkpt>
      <trkpt lat="47.94457" lon="-2.46196">
        <ele>32</ele>
        <time>2024-12-19T10:03:15Z</time>
      </trkpt>
      <trkpt lat="47.94457" lon="-2.46194">
        <ele>32</ele>
        <time>2024-12-19T10:03:16Z</time>
      </trkpt>
      <trkpt lat="47.94456" lon="-2.46192">
        <ele>32</ele>
        <time>2024-12-19T10:03:17Z</time>
      </trkpt>
      <trkpt lat="47.94455" lon="-2.46189">
        <ele>31.9</ele>
        <time>2024-12-19T10:03:18Z</time>
      </trkpt>
      <trkpt lat="47.94454" lon="-2.46186">
        <ele>31.9</ele>
        <time>2024-12-19T10:03:19Z</time>
      </trkpt>
      <trkpt lat="47.94453" lon="-2.46183">
        <ele>31.9</ele>
        <time>2024-12-19T10:03:20Z</time>
      </trkpt>
      <trkpt lat="47.94452" lon="-2.4618">
        <ele>31.9</ele>
        <time>2024-12-19T10:03:21Z</time>
      </trkpt>
      <trkpt lat="47.94451" lon="-2.46177">
        <ele>31.9</ele>
        <time>2024-12-19T10:03:22Z</time>
      </trkpt>
      <trkpt lat="47.9445" lon="-2.46175">
        <ele>31.9</ele>
        <time>2024-12-19T10:03:23Z</time>
      </trkpt>
      <trkpt lat="47.94449" lon="-2.46172">
        <ele>31.9</ele>
        <time>2024-12-19T10:03:24Z</time>
      </trkpt>
      <trkpt lat="47.94448" lon="-2.4617">
        <ele>31.9</ele>
        <time>2024-12-19T10:03:25Z</time>
      </trkpt>
      <trkpt lat="47.94447" lon="-2.46169">
        <ele>31.9</ele>
        <time>2024-12-19T10:03:26Z</time>
      </trkpt>
      <trkpt lat="47.94446" lon="-2.46168">
        <ele>32</ele>
        <time>2024-12-19T10:03:27Z</time>
      </trkpt>
      <trkpt lat="47.94444" lon="-2.46167">
        <ele>32</ele>
        <time>2024-12-19T10:03:28Z</time>
      </trkpt>
      <trkpt lat="47.94443" lon="-2.46165">
        <ele>32</ele>
        <time>2024-12-19T10:03:29Z</time>
      </trkpt>
      <trkpt lat="47.94442" lon="-2.46164">
        <ele>32</ele>
        <time>2024-12-19T10:03:30Z</time>
      </trkpt>
      <trkpt lat="47.9444" lon="-2.46162">
        <ele>32</ele>
        <time>2024-12-19T10:03:31Z</time>
      </trkpt>
      <trkpt lat="47.94439" lon="-2.4616">
        <ele>32</ele>
        <time>2024-12-19T10:03:32Z</time>
      </trkpt>
      <trkpt lat="47.94437" lon="-2.46158">
        <ele>32</ele>
        <time>2024-12-19T10:03:33Z</time>
      </trkpt>
      <trkpt lat="47.94436" lon="-2.46157">
        <ele>32</ele>
        <time>2024-12-19T10:03:34Z</time>
      </trkpt>
      <trkpt lat="47.94435" lon="-2.46156">
        <ele>32</ele>
        <time>2024-12-19T10:03:35Z</time>
      </trkpt>
      <trkpt lat="47.94435" lon="-2.46155">
        <ele>32</ele>
        <time>2024-12-19T10:03:36Z</time>
      </trkpt>
      <trkpt lat="47.94435" lon="-2.46155">
        <ele>32</ele>
        <time>2024-12-19T10:03:37Z</time>
      </trkpt>
      <trkpt lat="47.94434" lon="-2.46155">
        <ele>32</ele>
        <time>2024-12-19T10:03:38Z</time>
      </trkpt>
      <trkpt lat="47.94433" lon="-2.46155">
        <ele>32</ele>
        <time>2024-12-19T10:03:39Z</time>
      </trkpt>
      <trkpt lat="47.94433" lon="-2.46155">
        <ele>32</ele>
        <time>2024-12-19T10:03:40Z</time>
      </trkpt>
      <trkpt lat="47.94431" lon="-2.46155">
        <ele>32</ele>
        <time>2024-12-19T10:03:41Z</time>
      </trkpt>
      <trkpt lat="47.9443" lon="-2.46154">
        <ele>32</ele>
        <time>2024-12-19T10:03:42Z</time>
      </trkpt>
      <trkpt lat="47.94429" lon="-2.46154">
        <ele>32</ele>
        <time>2024-12-19T10:03:43Z</time>
      </trkpt>
      <trkpt lat="47.94428" lon="-2.46154">
        <ele>32</ele>
        <time>2024-12-19T10:03:44Z</time>
      </trkpt>
      <trkpt lat="47.94427" lon="-2.46153">
        <ele>32</ele>
        <time>2024-12-19T10:03:45Z</time>
      </trkpt>
      <trkpt lat="47.94426" lon="-2.46152">
        <ele>32</ele>
        <time>2024-12-19T10:03:46Z</time>
      </trkpt>
      <trkpt lat="47.94425" lon="-2.46151">
        <ele>32</ele>
        <time>2024-12-19T10:03:47Z</time>
      </trkpt>
      <trkpt lat="47.94424" lon="-2.46151">
        <ele>32</ele>
        <time>2024-12-19T10:03:48Z</time>
      </trkpt>
      <trkpt lat="47.94423" lon="-2.46151">
        <ele>32</ele>
        <time>2024-12-19T10:03:49Z</time>
      </trkpt>
      <trkpt lat="47.94421" lon="-2.46151">
        <ele>32</ele>
        <time>2024-12-19T10:03:50Z</time>
      </trkpt>
      <trkpt lat="47.9442" lon="-2.46151">
        <ele>32</ele>
        <time>2024-12-19T10:03:51Z</time>
      </trkpt>
      <trkpt lat="47.94418" lon="-2.46151">
        <ele>32</ele>
        <time>2024-12-19T10:03:52Z</time>
      </trkpt>
      <trkpt lat="47.94417" lon="-2.46152">
        <ele>32</ele>
        <time>2024-12-19T10:03:53Z</time>
      </trkpt>
      <trkpt lat="47.94415" lon="-2.46151">
        <ele>32.1</ele>
        <time>2024-12-19T10:03:54Z</time>
      </trkpt>
      <trkpt lat="47.94414" lon="-2.46151">
        <ele>32.1</ele>
        <time>2024-12-19T10:03:55Z</time>
      </trkpt>
      <trkpt lat="47.94412" lon="-2.4615">
        <ele>32.2</ele>
        <time>2024-12-19T10:03:56Z</time>
      </trkpt>
      <trkpt lat="47.94411" lon="-2.4615">
        <ele>32.2</ele>
        <time>2024-12-19T10:03:57Z</time>
      </trkpt>
      <trkpt lat="47.9441" lon="-2.46149">
        <ele>32.2</ele>
        <time>2024-12-19T10:03:58Z</time>
      </trkpt>
      <trkpt lat="47.94409" lon="-2.46149">
        <ele>32.3</ele>
        <time>2024-12-19T10:03:59Z</time>
      </trkpt>
      <trkpt lat="47.94408" lon="-2.46149">
        <ele>32.3</ele>
        <time>2024-12-19T10:04:00Z</time>
      </trkpt>
      <trkpt lat="47.94407" lon="-2.46149">
        <ele>32.3</ele>
        <time>2024-12-19T10:04:01Z</time>
      </trkpt>
      <trkpt lat="47.94407" lon="-2.46149">
        <ele>32.4</ele>
        <time>2024-12-19T10:04:02Z</time>
      </trkpt>
      <trkpt lat="47.94405" lon="-2.4615">
        <ele>32.4</ele>
        <time>2024-12-19T10:04:03Z</time>
      </trkpt>
      <trkpt lat="47.94404" lon="-2.46151">
        <ele>32.4</ele>
        <time>2024-12-19T10:04:04Z</time>
      </trkpt>
      <trkpt lat="47.94403" lon="-2.46153">
        <ele>32.5</ele>
        <time>2024-12-19T10:04:05Z</time>
      </trkpt>
      <trkpt lat="47.94403" lon="-2.46154">
        <ele>32.5</ele>
        <time>2024-12-19T10:04:06Z</time>
      </trkpt>
      <trkpt lat="47.94402" lon="-2.46155">
        <ele>32.5</ele>
        <time>2024-12-19T10:04:07Z</time>
      </trkpt>
      <trkpt lat="47.94401" lon="-2.46155">
        <ele>32.6</ele>
        <time>2024-12-19T10:04:08Z</time>
      </trkpt>
      <trkpt lat="47.944" lon="-2.46157">
        <ele>32.6</ele>
        <time>2024-12-19T10:04:09Z</time>
      </trkpt>
      <trkpt lat="47.94399" lon="-2.46158">
        <ele>32.6</ele>
        <time>2024-12-19T10:04:10Z</time>
      </trkpt>
      <trkpt lat="47.94399" lon="-2.46159">
        <ele>32.6</ele>
        <time>2024-12-19T10:04:11Z</time>
      </trkpt>
      <trkpt lat="47.94398" lon="-2.4616">
        <ele>32.7</ele>
        <time>2024-12-19T10:04:12Z</time>
      </trkpt>
      <trkpt lat="47.94396" lon="-2.46161">
        <ele>32.7</ele>
        <time>2024-12-19T10:04:13Z</time>
      </trkpt>
      <trkpt lat="47.94395" lon="-2.46162">
        <ele>32.8</ele>
        <time>2024-12-19T10:04:14Z</time>
      </trkpt>
      <trkpt lat="47.94394" lon="-2.46163">
        <ele>32.8</ele>
        <time>2024-12-19T10:04:15Z</time>
      </trkpt>
      <trkpt lat="47.94393" lon="-2.46163">
        <ele>32.9</ele>
        <time>2024-12-19T10:04:16Z</time>
      </trkpt>
      <trkpt lat="47.94392" lon="-2.46164">
        <ele>32.9</ele>
        <time>2024-12-19T10:04:17Z</time>
      </trkpt>
      <trkpt lat="47.9439" lon="-2.46166">
        <ele>32.9</ele>
        <time>2024-12-19T10:04:18Z</time>
      </trkpt>
      <trkpt lat="47.9439" lon="-2.46167">
        <ele>33</ele>
        <time>2024-12-19T10:04:19Z</time>
      </trkpt>
      <trkpt lat="47.94389" lon="-2.46168">
        <ele>33</ele>
        <time>2024-12-19T10:04:20Z</time>
      </trkpt>
      <trkpt lat="47.94388" lon="-2.46168">
        <ele>33</ele>
        <time>2024-12-19T10:04:21Z</time>
      </trkpt>
      <trkpt lat="47.94386" lon="-2.46169">
        <ele>33</ele>
        <time>2024-12-19T10:04:22Z</time>
      </trkpt>
      <trkpt lat="47.94385" lon="-2.46169">
        <ele>33</ele>
        <time>2024-12-19T10:04:23Z</time>
      </trkpt>
      <trkpt lat="47.94384" lon="-2.4617">
        <ele>33</ele>
        <time>2024-12-19T10:04:24Z</time>
      </trkpt>
      <trkpt lat="47.94383" lon="-2.46171">
        <ele>33</ele>
        <time>2024-12-19T10:04:25Z</time>
      </trkpt>
      <trkpt lat="47.94382" lon="-2.46172">
        <ele>33</ele>
        <time>2024-12-19T10:04:26Z</time>
      </trkpt>
      <trkpt lat="47.9438" lon="-2.46173">
        <ele>33</ele>
        <time>2024-12-19T10:04:27Z</time>
      </trkpt>
      <trkpt lat="47.94379" lon="-2.46174">
        <ele>33</ele>
        <time>2024-12-19T10:04:28Z</time>
      </trkpt>
      <trkpt lat="47.94378" lon="-2.46175">
        <ele>33</ele>
        <time>2024-12-19T10:04:29Z</time>
      </trkpt>
      <trkpt lat="47.94377" lon="-2.46175">
        <ele>33</ele>
        <time>2024-12-19T10:04:30Z</time>
      </trkpt>
      <trkpt lat="47.94376" lon="-2.46176">
        <ele>33</ele>
        <time>2024-12-19T10:04:31Z</time>
      </trkpt>
      <trkpt lat="47.94375" lon="-2.46176">
        <ele>33</ele>
        <time>2024-12-19T10:04:32Z</time>
      </trkpt>
      <trkpt lat="47.94375" lon="-2.46177">
        <ele>33</ele>
        <time>2024-12-19T10:04:33Z</time>
      </trkpt>
      <trkpt lat="47.94374" lon="-2.46178">
        <ele>33</ele>
        <time>2024-12-19T10:04:34Z</time>
      </trkpt>
      <trkpt lat="47.94373" lon="-2.46179">
        <ele>33</ele>
        <time>2024-12-19T10:04:35Z</time>
      </trkpt>
      <trkpt lat="47.94373" lon="-2.4618">
        <ele>33</ele>
        <time>2024-12-19T10:04:36Z</time>
      </trkpt>
      <trkpt lat="47.94372" lon="-2.46181">
        <ele>33</ele>
        <time>2024-12-19T10:04:37Z</time>
      </trkpt>
      <trkpt lat="47.94372" lon="-2.46181">
        <ele>33</ele>
        <time>2024-12-19T10:04:38Z</time>
      </trkpt>
      <trkpt lat="47.94371" lon="-2.46182">
        <ele>33</ele>
        <time>2024-12-19T10:04:39Z</time>
      </trkpt>
      <trkpt lat="47.94371" lon="-2.46182">
        <ele>33</ele>
        <time>2024-12-19T10:04:40Z</time>
      </trkpt>
      <trkpt lat="47.9437" lon="-2.46182">
        <ele>33</ele>
        <time>2024-12-19T10:04:41Z</time>
      </trkpt>
      <trkpt lat="47.9437" lon="-2.46183">
        <ele>33</ele>
        <time>2024-12-19T10:04:42Z</time>
      </trkpt>
      <trkpt lat="47.94369" lon="-2.46183">
        <ele>33</ele>
        <time>2024-12-19T10:04:43Z</time>
      </trkpt>
      <trkpt lat="47.94369" lon="-2.46183">
        <ele>33</ele>
        <time>2024-12-19T10:04:44Z</time>
      </trkpt>
      <trkpt lat="47.94368" lon="-2.46184">
        <ele>33</ele>
        <time>2024-12-19T10:04:45Z</time>
      </trkpt>
      <trkpt lat="47.94368" lon="-2.46185">
        <ele>33</ele>
        <time>2024-12-19T10:04:46Z</time>
      </trkpt>
      <trkpt lat="47.94368" lon="-2.46187">
        <ele>33</ele>
        <time>2024-12-19T10:04:47Z</time>
      </trkpt>
      <trkpt lat="47.94368" lon="-2.46188">
        <ele>33</ele>
        <time>2024-12-19T10:04:48Z</time>
      </trkpt>
      <trkpt lat="47.94367" lon="-2.46189">
        <ele>33</ele>
        <time>2024-12-19T10:04:49Z</time>
      </trkpt>
      <trkpt lat="47.94367" lon="-2.4619">
        <ele>33</ele>
        <time>2024-12-19T10:04:50Z</time>
      </trkpt>
      <trkpt lat="47.94366" lon="-2.46191">
        <ele>33</ele>
        <time>2024-12-19T10:04:51Z</time>
      </trkpt>
      <trkpt lat="47.94365" lon="-2.46191">
        <ele>33</ele>
        <time>2024-12-19T10:04:52Z</time>
      </trkpt>
      <trkpt lat="47.94364" lon="-2.46193">
        <ele>33</ele>
        <time>2024-12-19T10:04:53Z</time>
      </trkpt>
      <trkpt lat="47.94363" lon="-2.46195">
        <ele>33</ele>
        <time>2024-12-19T10:04:54Z</time>
      </trkpt>
      <trkpt lat="47.94363" lon="-2.46196">
        <ele>33</ele>
        <time>2024-12-19T10:04:55Z</time>
      </trkpt>
      <trkpt lat="47.94362" lon="-2.46197">
        <ele>33</ele>
        <time>2024-12-19T10:04:56Z</time>
      </trkpt>
      <trkpt lat="47.94362" lon="-2.46199">
        <ele>33</ele>
        <time>2024-12-19T10:04:57Z</time>
      </trkpt>
      <trkpt lat="47.94361" lon="-2.462">
        <ele>33</ele>
        <time>2024-12-19T10:04:58Z</time>
      </trkpt>
      <trkpt lat="47.94361" lon="-2.46201">
        <ele>33</ele>
        <time>2024-12-19T10:04:59Z</time>
      </trkpt>
      <trkpt lat="47.9436" lon="-2.46202">
        <ele>33</ele>
        <time>2024-12-19T10:05:00Z</time>
      </trkpt>
      <trkpt lat="47.94359" lon="-2.46204">
        <ele>33</ele>
        <time>2024-12-19T10:05:01Z</time>
      </trkpt>
      <trkpt lat="47.94358" lon="-2.46205">
        <ele>33</ele>
        <time>2024-12-19T10:05:02Z</time>
      </trkpt>
      <trkpt lat="47.94358" lon="-2.46206">
        <ele>33</ele>
        <time>2024-12-19T10:05:03Z</time>
      </trkpt>
      <trkpt lat="47.94357" lon="-2.46208">
        <ele>33</ele>
        <time>2024-12-19T10:05:04Z</time>
      </trkpt>
      <trkpt lat="47.94356" lon="-2.46209">
        <ele>33</ele>
        <time>2024-12-19T10:05:05Z</time>
      </trkpt>
      <trkpt lat="47.94355" lon="-2.46211">
        <ele>33</ele>
        <time>2024-12-19T10:05:06Z</time>
      </trkpt>
      <trkpt lat="47.94354" lon="-2.46212">
        <ele>33</ele>
        <time>2024-12-19T10:05:07Z</time>
      </trkpt>
      <trkpt lat="47.94354" lon="-2.46214">
        <ele>33</ele>
        <time>2024-12-19T10:05:08Z</time>
      </trkpt>
      <trkpt lat="47.94353" lon="-2.46216">
        <ele>33</ele>
        <time>2024-12-19T10:05:09Z</time>
      </trkpt>
      <trkpt lat="47.94351" lon="-2.46219">
        <ele>33</ele>
        <time>2024-12-19T10:05:10Z</time>
      </trkpt>
      <trkpt lat="47.9435" lon="-2.46222">
        <ele>33</ele>
        <time>2024-12-19T10:05:11Z</time>
      </trkpt>
      <trkpt lat="47.94349" lon="-2.46224">
        <ele>33.1</ele>
        <time>2024-12-19T10:05:12Z</time>
      </trkpt>
      <trkpt lat="47.94348" lon="-2.46226">
        <ele>33.1</ele>
        <time>2024-12-19T10:05:13Z</time>
      </trkpt>
      <trkpt lat="47.94348" lon="-2.46227">
        <ele>33.2</ele>
        <time>2024-12-19T10:05:14Z</time>
      </trkpt>
      <trkpt lat="47.94347" lon="-2.46228">
        <ele>33.2</ele>
        <time>2024-12-19T10:05:15Z</time>
      </trkpt>
      <trkpt lat="47.94346" lon="-2.46229">
        <ele>33.3</ele>
        <time>2024-12-19T10:05:16Z</time>
      </trkpt>
      <trkpt lat="47.94345" lon="-2.46231">
        <ele>33.3</ele>
        <time>2024-12-19T10:05:17Z</time>
      </trkpt>
      <trkpt lat="47.94344" lon="-2.46233">
        <ele>33.4</ele>
        <time>2024-12-19T10:05:18Z</time>
      </trkpt>
      <trkpt lat="47.94342" lon="-2.46235">
        <ele>33.5</ele>
        <time>2024-12-19T10:05:19Z</time>
      </trkpt>
      <trkpt lat="47.94341" lon="-2.46237">
        <ele>33.5</ele>
        <time>2024-12-19T10:05:20Z</time>
      </trkpt>
      <trkpt lat="47.9434" lon="-2.46238">
        <ele>33.6</ele>
        <time>2024-12-19T10:05:21Z</time>
      </trkpt>
      <trkpt lat="47.94338" lon="-2.46239">
        <ele>33.6</ele>
        <time>2024-12-19T10:05:22Z</time>
      </trkpt>
      <trkpt lat="47.94337" lon="-2.46241">
        <ele>33.7</ele>
        <time>2024-12-19T10:05:23Z</time>
      </trkpt>
      <trkpt lat="47.94336" lon="-2.46242">
        <ele>33.7</ele>
        <time>2024-12-19T10:05:24Z</time>
      </trkpt>
      <trkpt lat="47.94334" lon="-2.46243">
        <ele>33.7</ele>
        <time>2024-12-19T10:05:25Z</time>
      </trkpt>
      <trkpt lat="47.94332" lon="-2.46245">
        <ele>33.8</ele>
        <time>2024-12-19T10:05:26Z</time>
      </trkpt>
      <trkpt lat="47.94331" lon="-2.46245">
        <ele>33.8</ele>
        <time>2024-12-19T10:05:27Z</time>
      </trkpt>
      <trkpt lat="47.9433" lon="-2.46246">
        <ele>33.8</ele>
        <time>2024-12-19T10:05:28Z</time>
      </trkpt>
      <trkpt lat="47.94329" lon="-2.46246">
        <ele>33.9</ele>
        <time>2024-12-19T10:05:29Z</time>
      </trkpt>
      <trkpt lat="47.94329" lon="-2.46247">
        <ele>33.9</ele>
        <time>2024-12-19T10:05:30Z</time>
      </trkpt>
      <trkpt lat="47.94328" lon="-2.46247">
        <ele>33.9</ele>
        <time>2024-12-19T10:05:31Z</time>
      </trkpt>
      <trkpt lat="47.94327" lon="-2.46246">
        <ele>33.9</ele>
        <time>2024-12-19T10:05:32Z</time>
      </trkpt>
      <trkpt lat="47.94326" lon="-2.46246">
        <ele>33.9</ele>
        <time>2024-12-19T10:05:33Z</time>
      </trkpt>
      <trkpt lat="47.94323" lon="-2.46245">
        <ele>33.8</ele>
        <time>2024-12-19T10:05:35Z</time>
      </trkpt>
      <trkpt lat="47.94322" lon="-2.46245">
        <ele>33.8</ele>
        <time>2024-12-19T10:05:36Z</time>
      </trkpt>
      <trkpt lat="47.94322" lon="-2.46245">
        <ele>33.8</ele>
        <time>2024-12-19T10:05:37Z</time>
      </trkpt>
      <trkpt lat="47.94321" lon="-2.46244">
        <ele>33.8</ele>
        <time>2024-12-19T10:05:38Z</time>
      </trkpt>
      <trkpt lat="47.94319" lon="-2.46243">
        <ele>33.8</ele>
        <time>2024-12-19T10:05:39Z</time>
      </trkpt>
      <trkpt lat="47.94318" lon="-2.46242">
        <ele>33.7</ele>
        <time>2024-12-19T10:05:40Z</time>
      </trkpt>
      <trkpt lat="47.94317" lon="-2.46241">
        <ele>33.7</ele>
        <time>2024-12-19T10:05:41Z</time>
      </trkpt>
      <trkpt lat="47.94317" lon="-2.4624">
        <ele>33.6</ele>
        <time>2024-12-19T10:05:42Z</time>
      </trkpt>
      <trkpt lat="47.94316" lon="-2.46239">
        <ele>33.6</ele>
        <time>2024-12-19T10:05:43Z</time>
      </trkpt>
      <trkpt lat="47.94315" lon="-2.46239">
        <ele>33.6</ele>
        <time>2024-12-19T10:05:44Z</time>
      </trkpt>
      <trkpt lat="47.94314" lon="-2.4624">
        <ele>33.6</ele>
        <time>2024-12-19T10:05:45Z</time>
      </trkpt>
      <trkpt lat="47.94313" lon="-2.4624">
        <ele>33.7</ele>
        <time>2024-12-19T10:05:46Z</time>
      </trkpt>
      <trkpt lat="47.94312" lon="-2.46241">
        <ele>33.7</ele>
        <time>2024-12-19T10:05:47Z</time>
      </trkpt>
      <trkpt lat="47.94311" lon="-2.4624">
        <ele>33.7</ele>
        <time>2024-12-19T10:05:48Z</time>
      </trkpt>
      <trkpt lat="47.94309" lon="-2.46239">
        <ele>33.6</ele>
        <time>2024-12-19T10:05:49Z</time>
      </trkpt>
      <trkpt lat="47.94308" lon="-2.46236">
        <ele>33.5</ele>
        <time>2024-12-19T10:05:50Z</time>
      </trkpt>
      <trkpt lat="47.94306" lon="-2.46233">
        <ele>33.4</ele>
        <time>2024-12-19T10:05:51Z</time>
      </trkpt>
      <trkpt lat="47.94305" lon="-2.4623">
        <ele>33.3</ele>
        <time>2024-12-19T10:05:52Z</time>
      </trkpt>
      <trkpt lat="47.94304" lon="-2.46229">
        <ele>33.3</ele>
        <time>2024-12-19T10:05:53Z</time>
      </trkpt>
      <trkpt lat="47.94303" lon="-2.46227">
        <ele>33.3</ele>
        <time>2024-12-19T10:05:54Z</time>
      </trkpt>
      <trkpt lat="47.94301" lon="-2.46226">
        <ele>33.3</ele>
        <time>2024-12-19T10:05:55Z</time>
      </trkpt>
      <trkpt lat="47.943" lon="-2.46224">
        <ele>33.3</ele>
        <time>2024-12-19T10:05:56Z</time>
      </trkpt>
      <trkpt lat="47.94299" lon="-2.46224">
        <ele>33.3</ele>
        <time>2024-12-19T10:05:57Z</time>
      </trkpt>
      <trkpt lat="47.94297" lon="-2.46224">
        <ele>33.3</ele>
        <time>2024-12-19T10:05:58Z</time>
      </trkpt>
      <trkpt lat="47.94295" lon="-2.46223">
        <ele>33.4</ele>
        <time>2024-12-19T10:05:59Z</time>
      </trkpt>
      <trkpt lat="47.94293" lon="-2.46221">
        <ele>33.4</ele>
        <time>2024-12-19T10:06:00Z</time>
      </trkpt>
      <trkpt lat="47.94287" lon="-2.46214">
        <ele>33.5</ele>
        <time>2024-12-19T10:06:04Z</time>
      </trkpt>
      <trkpt lat="47.94286" lon="-2.46213">
        <ele>33.5</ele>
        <time>2024-12-19T10:06:05Z</time>
      </trkpt>
      <trkpt lat="47.94285" lon="-2.46211">
        <ele>33.4</ele>
        <time>2024-12-19T10:06:06Z</time>
      </trkpt>
      <trkpt lat="47.94284" lon="-2.46209">
        <ele>33.4</ele>
        <time>2024-12-19T10:06:07Z</time>
      </trkpt>
      <trkpt lat="47.94283" lon="-2.46207">
        <ele>33.4</ele>
        <time>2024-12-19T10:06:08Z</time>
      </trkpt>
      <trkpt lat="47.94282" lon="-2.46206">
        <ele>33.3</ele>
        <time>2024-12-19T10:06:09Z</time>
      </trkpt>
      <trkpt lat="47.94282" lon="-2.46204">
        <ele>33.3</ele>
        <time>2024-12-19T10:06:10Z</time>
      </trkpt>
      <trkpt lat="47.94281" lon="-2.46203">
        <ele>33.3</ele>
        <time>2024-12-19T10:06:11Z</time>
      </trkpt>
      <trkpt lat="47.94279" lon="-2.46202">
        <ele>33.2</ele>
        <time>2024-12-19T10:06:12Z</time>
      </trkpt>
      <trkpt lat="47.94279" lon="-2.46202">
        <ele>33.2</ele>
        <time>2024-12-19T10:06:13Z</time>
      </trkpt>
      <trkpt lat="47.94278" lon="-2.46201">
        <ele>33.2</ele>
        <time>2024-12-19T10:06:14Z</time>
      </trkpt>
      <trkpt lat="47.94277" lon="-2.46199">
        <ele>33.2</ele>
        <time>2024-12-19T10:06:15Z</time>
      </trkpt>
      <trkpt lat="47.94276" lon="-2.46199">
        <ele>33.1</ele>
        <time>2024-12-19T10:06:16Z</time>
      </trkpt>
      <trkpt lat="47.94275" lon="-2.46198">
        <ele>33.1</ele>
        <time>2024-12-19T10:06:17Z</time>
      </trkpt>
      <trkpt lat="47.94275" lon="-2.46197">
        <ele>33.1</ele>
        <time>2024-12-19T10:06:18Z</time>
      </trkpt>
      <trkpt lat="47.94274" lon="-2.46196">
        <ele>33.1</ele>
        <time>2024-12-19T10:06:19Z</time>
      </trkpt>
      <trkpt lat="47.94273" lon="-2.46195">
        <ele>33</ele>
        <time>2024-12-19T10:06:20Z</time>
      </trkpt>
      <trkpt lat="47.94271" lon="-2.46195">
        <ele>33</ele>
        <time>2024-12-19T10:06:21Z</time>
      </trkpt>
      <trkpt lat="47.9427" lon="-2.46194">
        <ele>33</ele>
        <time>2024-12-19T10:06:22Z</time>
      </trkpt>
      <trkpt lat="47.94268" lon="-2.46194">
        <ele>33</ele>
        <time>2024-12-19T10:06:23Z</time>
      </trkpt>
      <trkpt lat="47.94267" lon="-2.46194">
        <ele>33</ele>
        <time>2024-12-19T10:06:24Z</time>
      </trkpt>
      <trkpt lat="47.94265" lon="-2.46192">
        <ele>33</ele>
        <time>2024-12-19T10:06:25Z</time>
      </trkpt>
      <trkpt lat="47.94264" lon="-2.46191">
        <ele>33</ele>
        <time>2024-12-19T10:06:26Z</time>
      </trkpt>
      <trkpt lat="47.94263" lon="-2.46189">
        <ele>33</ele>
        <time>2024-12-19T10:06:27Z</time>
      </trkpt>
      <trkpt lat="47.94262" lon="-2.46188">
        <ele>33</ele>
        <time>2024-12-19T10:06:28Z</time>
      </trkpt>
      <trkpt lat="47.94261" lon="-2.46188">
        <ele>33</ele>
        <time>2024-12-19T10:06:29Z</time>
      </trkpt>
      <trkpt lat="47.94261" lon="-2.46187">
        <ele>33</ele>
        <time>2024-12-19T10:06:30Z</time>
      </trkpt>
      <trkpt lat="47.9426" lon="-2.46186">
        <ele>33</ele>
        <time>2024-12-19T10:06:31Z</time>
      </trkpt>
      <trkpt lat="47.94259" lon="-2.46184">
        <ele>33</ele>
        <time>2024-12-19T10:06:32Z</time>
      </trkpt>
      <trkpt lat="47.94258" lon="-2.46183">
        <ele>33</ele>
        <time>2024-12-19T10:06:33Z</time>
      </trkpt>
      <trkpt lat="47.94256" lon="-2.46182">
        <ele>33</ele>
        <time>2024-12-19T10:06:34Z</time>
      </trkpt>
      <trkpt lat="47.94255" lon="-2.4618">
        <ele>33</ele>
        <time>2024-12-19T10:06:35Z</time>
      </trkpt>
      <trkpt lat="47.94254" lon="-2.46178">
        <ele>33</ele>
        <time>2024-12-19T10:06:36Z</time>
      </trkpt>
      <trkpt lat="47.94253" lon="-2.46176">
        <ele>33</ele>
        <time>2024-12-19T10:06:37Z</time>
      </trkpt>
      <trkpt lat="47.94252" lon="-2.46174">
        <ele>33</ele>
        <time>2024-12-19T10:06:38Z</time>
      </trkpt>
      <trkpt lat="47.94251" lon="-2.46174">
        <ele>33</ele>
        <time>2024-12-19T10:06:39Z</time>
      </trkpt>
      <trkpt lat="47.94251" lon="-2.46174">
        <ele>33</ele>
        <time>2024-12-19T10:06:40Z</time>
      </trkpt>
      <trkpt lat="47.94251" lon="-2.46174">
        <ele>33</ele>
        <time>2024-12-19T10:06:41Z</time>
      </trkpt>
      <trkpt lat="47.9425" lon="-2.46174">
        <ele>33</ele>
        <time>2024-12-19T10:06:42Z</time>
      </trkpt>
      <trkpt lat="47.9425" lon="-2.46174">
        <ele>33</ele>
        <time>2024-12-19T10:06:43Z</time>
      </trkpt>
      <trkpt lat="47.9425" lon="-2.46174">
        <ele>33</ele>
        <time>2024-12-19T10:06:44Z</time>
      </trkpt>
      <trkpt lat="47.9425" lon="-2.46174">
        <ele>33</ele>
        <time>2024-12-19T10:06:45Z</time>
      </trkpt>
      <trkpt lat="47.9425" lon="-2.46174">
        <ele>33</ele>
        <time>2024-12-19T10:06:46Z</time>
      </trkpt>
      <trkpt lat="47.9425" lon="-2.46174">
        <ele>33</ele>
        <time>2024-12-19T10:06:47Z</time>
      </trkpt>
      <trkpt lat="47.9425" lon="-2.46174">
        <ele>33</ele>
        <time>2024-12-19T10:06:48Z</time>
      </trkpt>
      <trkpt lat="47.94249" lon="-2.46174">
        <ele>33</ele>
        <time>2024-12-19T10:06:49Z</time>
      </trkpt>
      <trkpt lat="47.94249" lon="-2.46174">
        <ele>33</ele>
        <time>2024-12-19T10:06:50Z</time>
      </trkpt>
      <trkpt lat="47.94249" lon="-2.46173">
        <ele>33</ele>
        <time>2024-12-19T10:06:51Z</time>
      </trkpt>
      <trkpt lat="47.94247" lon="-2.46172">
        <ele>33</ele>
        <time>2024-12-19T10:06:52Z</time>
      </trkpt>
      <trkpt lat="47.94246" lon="-2.46171">
        <ele>33</ele>
        <time>2024-12-19T10:06:53Z</time>
      </trkpt>
      <trkpt lat="47.94245" lon="-2.4617">
        <ele>33</ele>
        <time>2024-12-19T10:06:54Z</time>
      </trkpt>
      <trkpt lat="47.94243" lon="-2.46169">
        <ele>33</ele>
        <time>2024-12-19T10:06:55Z</time>
      </trkpt>
      <trkpt lat="47.94241" lon="-2.46168">
        <ele>33</ele>
        <time>2024-12-19T10:06:56Z</time>
      </trkpt>
      <trkpt lat="47.9424" lon="-2.46168">
        <ele>33</ele>
        <time>2024-12-19T10:06:57Z</time>
      </trkpt>
      <trkpt lat="47.94238" lon="-2.46166">
        <ele>33</ele>
        <time>2024-12-19T10:06:58Z</time>
      </trkpt>
      <trkpt lat="47.94237" lon="-2.46165">
        <ele>33</ele>
        <time>2024-12-19T10:06:59Z</time>
      </trkpt>
      <trkpt lat="47.94235" lon="-2.46165">
        <ele>33</ele>
        <time>2024-12-19T10:07:00Z</time>
      </trkpt>
      <trkpt lat="47.94233" lon="-2.46164">
        <ele>33</ele>
        <time>2024-12-19T10:07:01Z</time>
      </trkpt>
      <trkpt lat="47.94231" lon="-2.46163">
        <ele>33</ele>
        <time>2024-12-19T10:07:02Z</time>
      </trkpt>
      <trkpt lat="47.94229" lon="-2.46162">
        <ele>33</ele>
        <time>2024-12-19T10:07:03Z</time>
      </trkpt>
      <trkpt lat="47.94227" lon="-2.46162">
        <ele>33</ele>
        <time>2024-12-19T10:07:04Z</time>
      </trkpt>
      <trkpt lat="47.94226" lon="-2.46161">
        <ele>33</ele>
        <time>2024-12-19T10:07:05Z</time>
      </trkpt>
      <trkpt lat="47.94224" lon="-2.4616">
        <ele>33</ele>
        <time>2024-12-19T10:07:06Z</time>
      </trkpt>
      <trkpt lat="47.94223" lon="-2.4616">
        <ele>33</ele>
        <time>2024-12-19T10:07:07Z</time>
      </trkpt>
      <trkpt lat="47.94222" lon="-2.4616">
        <ele>33</ele>
        <time>2024-12-19T10:07:08Z</time>
      </trkpt>
      <trkpt lat="47.94221" lon="-2.4616">
        <ele>33</ele>
        <time>2024-12-19T10:07:09Z</time>
      </trkpt>
      <trkpt lat="47.9422" lon="-2.4616">
        <ele>33</ele>
        <time>2024-12-19T10:07:10Z</time>
      </trkpt>
      <trkpt lat="47.94219" lon="-2.4616">
        <ele>33</ele>
        <time>2024-12-19T10:07:11Z</time>
      </trkpt>
      <trkpt lat="47.94218" lon="-2.46161">
        <ele>33</ele>
        <time>2024-12-19T10:07:12Z</time>
      </trkpt>
      <trkpt lat="47.94217" lon="-2.46161">
        <ele>33</ele>
        <time>2024-12-19T10:07:13Z</time>
      </trkpt>
      <trkpt lat="47.94216" lon="-2.46162">
        <ele>33</ele>
        <time>2024-12-19T10:07:14Z</time>
      </trkpt>
      <trkpt lat="47.94215" lon="-2.46164">
        <ele>33</ele>
        <time>2024-12-19T10:07:15Z</time>
      </trkpt>
      <trkpt lat="47.94214" lon="-2.46165">
        <ele>33</ele>
        <time>2024-12-19T10:07:16Z</time>
      </trkpt>
      <trkpt lat="47.94214" lon="-2.46166">
        <ele>33</ele>
        <time>2024-12-19T10:07:17Z</time>
      </trkpt>
      <trkpt lat="47.94213" lon="-2.46167">
        <ele>33</ele>
        <time>2024-12-19T10:07:18Z</time>
      </trkpt>
      <trkpt lat="47.94213" lon="-2.46168">
        <ele>33</ele>
        <time>2024-12-19T10:07:19Z</time>
      </trkpt>
      <trkpt lat="47.94212" lon="-2.4617">
        <ele>33</ele>
        <time>2024-12-19T10:07:20Z</time>
      </trkpt>
      <trkpt lat="47.94212" lon="-2.46172">
        <ele>33.1</ele>
        <time>2024-12-19T10:07:21Z</time>
      </trkpt>
      <trkpt lat="47.94211" lon="-2.46173">
        <ele>33.1</ele>
        <time>2024-12-19T10:07:22Z</time>
      </trkpt>
      <trkpt lat="47.9421" lon="-2.46174">
        <ele>33.1</ele>
        <time>2024-12-19T10:07:23Z</time>
      </trkpt>
      <trkpt lat="47.9421" lon="-2.46175">
        <ele>33.1</ele>
        <time>2024-12-19T10:07:24Z</time>
      </trkpt>
      <trkpt lat="47.94209" lon="-2.46177">
        <ele>33.2</ele>
        <time>2024-12-19T10:07:25Z</time>
      </trkpt>
      <trkpt lat="47.94209" lon="-2.46178">
        <ele>33.2</ele>
        <time>2024-12-19T10:07:26Z</time>
      </trkpt>
      <trkpt lat="47.94208" lon="-2.4618">
        <ele>33.3</ele>
        <time>2024-12-19T10:07:27Z</time>
      </trkpt>
      <trkpt lat="47.94207" lon="-2.46183">
        <ele>33.3</ele>
        <time>2024-12-19T10:07:28Z</time>
      </trkpt>
      <trkpt lat="47.94206" lon="-2.46185">
        <ele>33.4</ele>
        <time>2024-12-19T10:07:29Z</time>
      </trkpt>
      <trkpt lat="47.94205" lon="-2.46186">
        <ele>33.4</ele>
        <time>2024-12-19T10:07:30Z</time>
      </trkpt>
      <trkpt lat="47.94205" lon="-2.46188">
        <ele>33.5</ele>
        <time>2024-12-19T10:07:31Z</time>
      </trkpt>
      <trkpt lat="47.94204" lon="-2.4619">
        <ele>33.6</ele>
        <time>2024-12-19T10:07:32Z</time>
      </trkpt>
      <trkpt lat="47.94203" lon="-2.46192">
        <ele>33.6</ele>
        <time>2024-12-19T10:07:33Z</time>
      </trkpt>
      <trkpt lat="47.94203" lon="-2.46194">
        <ele>33.7</ele>
        <time>2024-12-19T10:07:34Z</time>
      </trkpt>
      <trkpt lat="47.94202" lon="-2.46195">
        <ele>33.7</ele>
        <time>2024-12-19T10:07:35Z</time>
      </trkpt>
      <trkpt lat="47.94202" lon="-2.46197">
        <ele>33.8</ele>
        <time>2024-12-19T10:07:36Z</time>
      </trkpt>
      <trkpt lat="47.94202" lon="-2.46198">
        <ele>33.9</ele>
        <time>2024-12-19T10:07:37Z</time>
      </trkpt>
      <trkpt lat="47.94201" lon="-2.462">
        <ele>34</ele>
        <time>2024-12-19T10:07:38Z</time>
      </trkpt>
      <trkpt lat="47.942" lon="-2.46202">
        <ele>34.1</ele>
        <time>2024-12-19T10:07:39Z</time>
      </trkpt>
      <trkpt lat="47.942" lon="-2.46203">
        <ele>34.1</ele>
        <time>2024-12-19T10:07:40Z</time>
      </trkpt>
      <trkpt lat="47.94199" lon="-2.46204">
        <ele>34.2</ele>
        <time>2024-12-19T10:07:41Z</time>
      </trkpt>
      <trkpt lat="47.94199" lon="-2.46205">
        <ele>34.2</ele>
        <time>2024-12-19T10:07:42Z</time>
      </trkpt>
      <trkpt lat="47.94199" lon="-2.46206">
        <ele>34.2</ele>
        <time>2024-12-19T10:07:43Z</time>
      </trkpt>
      <trkpt lat="47.94199" lon="-2.46207">
        <ele>34.3</ele>
        <time>2024-12-19T10:07:44Z</time>
      </trkpt>
      <trkpt lat="47.94198" lon="-2.46208">
        <ele>34.3</ele>
        <time>2024-12-19T10:07:45Z</time>
      </trkpt>
      <trkpt lat="47.94198" lon="-2.46209">
        <ele>34.4</ele>
        <time>2024-12-19T10:07:46Z</time>
      </trkpt>
      <trkpt lat="47.94197" lon="-2.4621">
        <ele>34.5</ele>
        <time>2024-12-19T10:07:47Z</time>
      </trkpt>
      <trkpt lat="47.94196" lon="-2.46212">
        <ele>34.6</ele>
        <time>2024-12-19T10:07:48Z</time>
      </trkpt>
      <trkpt lat="47.94196" lon="-2.46213">
        <ele>34.6</ele>
        <time>2024-12-19T10:07:49Z</time>
      </trkpt>
      <trkpt lat="47.94195" lon="-2.46214">
        <ele>34.7</ele>
        <time>2024-12-19T10:07:50Z</time>
      </trkpt>
      <trkpt lat="47.94194" lon="-2.46215">
        <ele>34.7</ele>
        <time>2024-12-19T10:07:51Z</time>
      </trkpt>
      <trkpt lat="47.94193" lon="-2.46215">
        <ele>34.8</ele>
        <time>2024-12-19T10:07:52Z</time>
      </trkpt>
      <trkpt lat="47.94193" lon="-2.46216">
        <ele>34.8</ele>
        <time>2024-12-19T10:07:53Z</time>
      </trkpt>
      <trkpt lat="47.94192" lon="-2.46217">
        <ele>34.8</ele>
        <time>2024-12-19T10:07:54Z</time>
      </trkpt>
      <trkpt lat="47.94192" lon="-2.46218">
        <ele>34.8</ele>
        <time>2024-12-19T10:07:55Z</time>
      </trkpt>
      <trkpt lat="47.94192" lon="-2.46219">
        <ele>34.9</ele>
        <time>2024-12-19T10:07:56Z</time>
      </trkpt>
      <trkpt lat="47.94191" lon="-2.4622">
        <ele>34.9</ele>
        <time>2024-12-19T10:07:57Z</time>
      </trkpt>
      <trkpt lat="47.94191" lon="-2.46221">
        <ele>34.9</ele>
        <time>2024-12-19T10:07:58Z</time>
      </trkpt>
      <trkpt lat="47.9419" lon="-2.46222">
        <ele>35</ele>
        <time>2024-12-19T10:07:59Z</time>
      </trkpt>
      <trkpt lat="47.94189" lon="-2.46224">
        <ele>35.1</ele>
        <time>2024-12-19T10:08:00Z</time>
      </trkpt>
      <trkpt lat="47.94189" lon="-2.46225">
        <ele>35.1</ele>
        <time>2024-12-19T10:08:01Z</time>
      </trkpt>
      <trkpt lat="47.94188" lon="-2.46227">
        <ele>35.2</ele>
        <time>2024-12-19T10:08:02Z</time>
      </trkpt>
      <trkpt lat="47.94186" lon="-2.46228">
        <ele>35.3</ele>
        <time>2024-12-19T10:08:03Z</time>
      </trkpt>
      <trkpt lat="47.94185" lon="-2.46229">
        <ele>35.3</ele>
        <time>2024-12-19T10:08:04Z</time>
      </trkpt>
      <trkpt lat="47.94185" lon="-2.4623">
        <ele>35.4</ele>
        <time>2024-12-19T10:08:05Z</time>
      </trkpt>
      <trkpt lat="47.94184" lon="-2.46232">
        <ele>35.5</ele>
        <time>2024-12-19T10:08:06Z</time>
      </trkpt>
      <trkpt lat="47.94183" lon="-2.46232">
        <ele>35.5</ele>
        <time>2024-12-19T10:08:07Z</time>
      </trkpt>
      <trkpt lat="47.94183" lon="-2.46233">
        <ele>35.5</ele>
        <time>2024-12-19T10:08:08Z</time>
      </trkpt>
      <trkpt lat="47.94183" lon="-2.46233">
        <ele>35.6</ele>
        <time>2024-12-19T10:08:09Z</time>
      </trkpt>
      <trkpt lat="47.94183" lon="-2.46234">
        <ele>35.6</ele>
        <time>2024-12-19T10:08:10Z</time>
      </trkpt>
      <trkpt lat="47.94182" lon="-2.46234">
        <ele>35.6</ele>
        <time>2024-12-19T10:08:11Z</time>
      </trkpt>
      <trkpt lat="47.94182" lon="-2.46235">
        <ele>35.6</ele>
        <time>2024-12-19T10:08:12Z</time>
      </trkpt>
      <trkpt lat="47.94181" lon="-2.46236">
        <ele>35.7</ele>
        <time>2024-12-19T10:08:13Z</time>
      </trkpt>
      <trkpt lat="47.94181" lon="-2.46237">
        <ele>35.8</ele>
        <time>2024-12-19T10:08:14Z</time>
      </trkpt>
      <trkpt lat="47.9418" lon="-2.46238">
        <ele>35.9</ele>
        <time>2024-12-19T10:08:15Z</time>
      </trkpt>
      <trkpt lat="47.9418" lon="-2.46239">
        <ele>35.9</ele>
        <time>2024-12-19T10:08:16Z</time>
      </trkpt>
      <trkpt lat="47.94179" lon="-2.46241">
        <ele>36</ele>
        <time>2024-12-19T10:08:17Z</time>
      </trkpt>
      <trkpt lat="47.94178" lon="-2.46243">
        <ele>36.2</ele>
        <time>2024-12-19T10:08:18Z</time>
      </trkpt>
      <trkpt lat="47.94177" lon="-2.46244">
        <ele>36.3</ele>
        <time>2024-12-19T10:08:19Z</time>
      </trkpt>
      <trkpt lat="47.94176" lon="-2.46245">
        <ele>36.4</ele>
        <time>2024-12-19T10:08:20Z</time>
      </trkpt>
      <trkpt lat="47.94175" lon="-2.46247">
        <ele>36.5</ele>
        <time>2024-12-19T10:08:21Z</time>
      </trkpt>
      <trkpt lat="47.94174" lon="-2.46248">
        <ele>36.6</ele>
        <time>2024-12-19T10:08:22Z</time>
      </trkpt>
      <trkpt lat="47.94173" lon="-2.4625">
        <ele>36.7</ele>
        <time>2024-12-19T10:08:23Z</time>
      </trkpt>
      <trkpt lat="47.94173" lon="-2.46252">
        <ele>36.9</ele>
        <time>2024-12-19T10:08:24Z</time>
      </trkpt>
      <trkpt lat="47.94172" lon="-2.46254">
        <ele>37</ele>
        <time>2024-12-19T10:08:25Z</time>
      </trkpt>
      <trkpt lat="47.94172" lon="-2.46257">
        <ele>37.1</ele>
        <time>2024-12-19T10:08:26Z</time>
      </trkpt>
      <trkpt lat="47.94171" lon="-2.46259">
        <ele>37.2</ele>
        <time>2024-12-19T10:08:27Z</time>
      </trkpt>
      <trkpt lat="47.9417" lon="-2.46262">
        <ele>37.3</ele>
        <time>2024-12-19T10:08:28Z</time>
      </trkpt>
      <trkpt lat="47.9417" lon="-2.46264">
        <ele>37.4</ele>
        <time>2024-12-19T10:08:29Z</time>
      </trkpt>
      <trkpt lat="47.94169" lon="-2.46265">
        <ele>37.5</ele>
        <time>2024-12-19T10:08:30Z</time>
      </trkpt>
      <trkpt lat="47.94169" lon="-2.46267">
        <ele>37.6</ele>
        <time>2024-12-19T10:08:31Z</time>
      </trkpt>
      <trkpt lat="47.94168" lon="-2.4627">
        <ele>37.7</ele>
        <time>2024-12-19T10:08:32Z</time>
      </trkpt>
      <trkpt lat="47.94167" lon="-2.46271">
        <ele>37.8</ele>
        <time>2024-12-19T10:08:33Z</time>
      </trkpt>
      <trkpt lat="47.94166" lon="-2.46272">
        <ele>37.8</ele>
        <time>2024-12-19T10:08:34Z</time>
      </trkpt>
      <trkpt lat="47.94165" lon="-2.46273">
        <ele>37.8</ele>
        <time>2024-12-19T10:08:35Z</time>
      </trkpt>
      <trkpt lat="47.94164" lon="-2.46273">
        <ele>37.9</ele>
        <time>2024-12-19T10:08:36Z</time>
      </trkpt>
      <trkpt lat="47.94163" lon="-2.46274">
        <ele>37.9</ele>
        <time>2024-12-19T10:08:37Z</time>
      </trkpt>
      <trkpt lat="47.94162" lon="-2.46275">
        <ele>37.9</ele>
        <time>2024-12-19T10:08:38Z</time>
      </trkpt>
      <trkpt lat="47.94162" lon="-2.46276">
        <ele>37.9</ele>
        <time>2024-12-19T10:08:39Z</time>
      </trkpt>
      <trkpt lat="47.94161" lon="-2.46278">
        <ele>38</ele>
        <time>2024-12-19T10:08:40Z</time>
      </trkpt>
      <trkpt lat="47.9416" lon="-2.46279">
        <ele>38.1</ele>
        <time>2024-12-19T10:08:41Z</time>
      </trkpt>
      <trkpt lat="47.94159" lon="-2.46281">
        <ele>38.1</ele>
        <time>2024-12-19T10:08:42Z</time>
      </trkpt>
      <trkpt lat="47.94158" lon="-2.46283">
        <ele>38.2</ele>
        <time>2024-12-19T10:08:43Z</time>
      </trkpt>
      <trkpt lat="47.94157" lon="-2.46285">
        <ele>38.2</ele>
        <time>2024-12-19T10:08:44Z</time>
      </trkpt>
      <trkpt lat="47.94156" lon="-2.46286">
        <ele>38.3</ele>
        <time>2024-12-19T10:08:45Z</time>
      </trkpt>
      <trkpt lat="47.94155" lon="-2.46288">
        <ele>38.4</ele>
        <time>2024-12-19T10:08:46Z</time>
      </trkpt>
      <trkpt lat="47.94155" lon="-2.46289">
        <ele>38.4</ele>
        <time>2024-12-19T10:08:47Z</time>
      </trkpt>
      <trkpt lat="47.94154" lon="-2.46291">
        <ele>38.5</ele>
        <time>2024-12-19T10:08:48Z</time>
      </trkpt>
      <trkpt lat="47.94154" lon="-2.46293">
        <ele>38.5</ele>
        <time>2024-12-19T10:08:49Z</time>
      </trkpt>
      <trkpt lat="47.94153" lon="-2.46294">
        <ele>38.6</ele>
        <time>2024-12-19T10:08:50Z</time>
      </trkpt>
      <trkpt lat="47.94153" lon="-2.46296">
        <ele>38.7</ele>
        <time>2024-12-19T10:08:51Z</time>
      </trkpt>
      <trkpt lat="47.94152" lon="-2.46298">
        <ele>38.7</ele>
        <time>2024-12-19T10:08:52Z</time>
      </trkpt>
      <trkpt lat="47.94151" lon="-2.46299">
        <ele>38.8</ele>
        <time>2024-12-19T10:08:53Z</time>
      </trkpt>
      <trkpt lat="47.9415" lon="-2.463">
        <ele>38.8</ele>
        <time>2024-12-19T10:08:54Z</time>
      </trkpt>
      <trkpt lat="47.9415" lon="-2.46301">
        <ele>38.9</ele>
        <time>2024-12-19T10:08:55Z</time>
      </trkpt>
      <trkpt lat="47.9415" lon="-2.46303">
        <ele>38.9</ele>
        <time>2024-12-19T10:08:56Z</time>
      </trkpt>
      <trkpt lat="47.94149" lon="-2.46304">
        <ele>38.9</ele>
        <time>2024-12-19T10:08:57Z</time>
      </trkpt>
      <trkpt lat="47.94149" lon="-2.46306">
        <ele>39</ele>
        <time>2024-12-19T10:08:58Z</time>
      </trkpt>
      <trkpt lat="47.94148" lon="-2.46307">
        <ele>39.1</ele>
        <time>2024-12-19T10:08:59Z</time>
      </trkpt>
      <trkpt lat="47.94148" lon="-2.46309">
        <ele>39.1</ele>
        <time>2024-12-19T10:09:00Z</time>
      </trkpt>
      <trkpt lat="47.94147" lon="-2.46311">
        <ele>39.2</ele>
        <time>2024-12-19T10:09:01Z</time>
      </trkpt>
      <trkpt lat="47.94147" lon="-2.46312">
        <ele>39.2</ele>
        <time>2024-12-19T10:09:02Z</time>
      </trkpt>
      <trkpt lat="47.94146" lon="-2.46314">
        <ele>39.3</ele>
        <time>2024-12-19T10:09:03Z</time>
      </trkpt>
      <trkpt lat="47.94146" lon="-2.46315">
        <ele>39.3</ele>
        <time>2024-12-19T10:09:04Z</time>
      </trkpt>
      <trkpt lat="47.94146" lon="-2.46316">
        <ele>39.4</ele>
        <time>2024-12-19T10:09:05Z</time>
      </trkpt>
      <trkpt lat="47.94145" lon="-2.46317">
        <ele>39.4</ele>
        <time>2024-12-19T10:09:06Z</time>
      </trkpt>
      <trkpt lat="47.94145" lon="-2.46318">
        <ele>39.5</ele>
        <time>2024-12-19T10:09:07Z</time>
      </trkpt>
      <trkpt lat="47.94144" lon="-2.4632">
        <ele>39.5</ele>
        <time>2024-12-19T10:09:08Z</time>
      </trkpt>
      <trkpt lat="47.94144" lon="-2.46322">
        <ele>39.6</ele>
        <time>2024-12-19T10:09:09Z</time>
      </trkpt>
      <trkpt lat="47.94143" lon="-2.46323">
        <ele>39.6</ele>
        <time>2024-12-19T10:09:10Z</time>
      </trkpt>
      <trkpt lat="47.94142" lon="-2.46324">
        <ele>39.7</ele>
        <time>2024-12-19T10:09:11Z</time>
      </trkpt>
      <trkpt lat="47.94141" lon="-2.46326">
        <ele>39.7</ele>
        <time>2024-12-19T10:09:12Z</time>
      </trkpt>
      <trkpt lat="47.9414" lon="-2.46328">
        <ele>39.8</ele>
        <time>2024-12-19T10:09:13Z</time>
      </trkpt>
      <trkpt lat="47.94139" lon="-2.4633">
        <ele>39.9</ele>
        <time>2024-12-19T10:09:14Z</time>
      </trkpt>
      <trkpt lat="47.94138" lon="-2.46331">
        <ele>39.9</ele>
        <time>2024-12-19T10:09:15Z</time>
      </trkpt>
      <trkpt lat="47.94137" lon="-2.46333">
        <ele>40</ele>
        <time>2024-12-19T10:09:16Z</time>
      </trkpt>
      <trkpt lat="47.94136" lon="-2.46335">
        <ele>40</ele>
        <time>2024-12-19T10:09:17Z</time>
      </trkpt>
      <trkpt lat="47.94135" lon="-2.46337">
        <ele>40</ele>
        <time>2024-12-19T10:09:18Z</time>
      </trkpt>
      <trkpt lat="47.94134" lon="-2.46338">
        <ele>40</ele>
        <time>2024-12-19T10:09:19Z</time>
      </trkpt>
      <trkpt lat="47.94133" lon="-2.46339">
        <ele>40</ele>
        <time>2024-12-19T10:09:20Z</time>
      </trkpt>
      <trkpt lat="47.94133" lon="-2.4634">
        <ele>40.1</ele>
        <time>2024-12-19T10:09:21Z</time>
      </trkpt>
      <trkpt lat="47.94132" lon="-2.46341">
        <ele>40.1</ele>
        <time>2024-12-19T10:09:22Z</time>
      </trkpt>
      <trkpt lat="47.94132" lon="-2.46341">
        <ele>40.1</ele>
        <time>2024-12-19T10:09:23Z</time>
      </trkpt>
      <trkpt lat="47.94131" lon="-2.46342">
        <ele>40.1</ele>
        <time>2024-12-19T10:09:24Z</time>
      </trkpt>
      <trkpt lat="47.94131" lon="-2.46344">
        <ele>40.1</ele>
        <time>2024-12-19T10:09:25Z</time>
      </trkpt>
      <trkpt lat="47.9413" lon="-2.46345">
        <ele>40.1</ele>
        <time>2024-12-19T10:09:26Z</time>
      </trkpt>
      <trkpt lat="47.9413" lon="-2.46347">
        <ele>40.2</ele>
        <time>2024-12-19T10:09:27Z</time>
      </trkpt>
      <trkpt lat="47.94129" lon="-2.46348">
        <ele>40.2</ele>
        <time>2024-12-19T10:09:28Z</time>
      </trkpt>
      <trkpt lat="47.94129" lon="-2.4635">
        <ele>40.2</ele>
        <time>2024-12-19T10:09:29Z</time>
      </trkpt>
      <trkpt lat="47.94128" lon="-2.46351">
        <ele>40.3</ele>
        <time>2024-12-19T10:09:30Z</time>
      </trkpt>
      <trkpt lat="47.94127" lon="-2.46353">
        <ele>40.3</ele>
        <time>2024-12-19T10:09:31Z</time>
      </trkpt>
      <trkpt lat="47.94126" lon="-2.46355">
        <ele>40.4</ele>
        <time>2024-12-19T10:09:32Z</time>
      </trkpt>
      <trkpt lat="47.94125" lon="-2.46357">
        <ele>40.4</ele>
        <time>2024-12-19T10:09:33Z</time>
      </trkpt>
      <trkpt lat="47.94124" lon="-2.46359">
        <ele>40.5</ele>
        <time>2024-12-19T10:09:34Z</time>
      </trkpt>
      <trkpt lat="47.94123" lon="-2.46361">
        <ele>40.6</ele>
        <time>2024-12-19T10:09:35Z</time>
      </trkpt>
      <trkpt lat="47.94122" lon="-2.46362">
        <ele>40.6</ele>
        <time>2024-12-19T10:09:36Z</time>
      </trkpt>
      <trkpt lat="47.94121" lon="-2.46364">
        <ele>40.7</ele>
        <time>2024-12-19T10:09:37Z</time>
      </trkpt>
      <trkpt lat="47.94121" lon="-2.46365">
        <ele>40.7</ele>
        <time>2024-12-19T10:09:38Z</time>
      </trkpt>
      <trkpt lat="47.9412" lon="-2.46366">
        <ele>40.7</ele>
        <time>2024-12-19T10:09:39Z</time>
      </trkpt>
      <trkpt lat="47.9412" lon="-2.46366">
        <ele>40.7</ele>
        <time>2024-12-19T10:09:40Z</time>
      </trkpt>
      <trkpt lat="47.9412" lon="-2.46366">
        <ele>40.7</ele>
        <time>2024-12-19T10:09:41Z</time>
      </trkpt>
      <trkpt lat="47.9412" lon="-2.46367">
        <ele>40.7</ele>
        <time>2024-12-19T10:09:42Z</time>
      </trkpt>
      <trkpt lat="47.94119" lon="-2.46367">
        <ele>40.8</ele>
        <time>2024-12-19T10:09:43Z</time>
      </trkpt>
      <trkpt lat="47.94119" lon="-2.46368">
        <ele>40.8</ele>
        <time>2024-12-19T10:09:44Z</time>
      </trkpt>
      <trkpt lat="47.94119" lon="-2.46369">
        <ele>40.8</ele>
        <time>2024-12-19T10:09:45Z</time>
      </trkpt>
      <trkpt lat="47.94118" lon="-2.4637">
        <ele>40.8</ele>
        <time>2024-12-19T10:09:46Z</time>
      </trkpt>
      <trkpt lat="47.94117" lon="-2.46371">
        <ele>40.9</ele>
        <time>2024-12-19T10:09:47Z</time>
      </trkpt>
      <trkpt lat="47.94116" lon="-2.46372">
        <ele>40.9</ele>
        <time>2024-12-19T10:09:48Z</time>
      </trkpt>
      <trkpt lat="47.94115" lon="-2.46373">
        <ele>40.9</ele>
        <time>2024-12-19T10:09:49Z</time>
      </trkpt>
      <trkpt lat="47.94114" lon="-2.46374">
        <ele>40.9</ele>
        <time>2024-12-19T10:09:50Z</time>
      </trkpt>
      <trkpt lat="47.94114" lon="-2.46375">
        <ele>41</ele>
        <time>2024-12-19T10:09:51Z</time>
      </trkpt>
      <trkpt lat="47.94113" lon="-2.46376">
        <ele>41</ele>
        <time>2024-12-19T10:09:52Z</time>
      </trkpt>
      <trkpt lat="47.94112" lon="-2.46377">
        <ele>41</ele>
        <time>2024-12-19T10:09:53Z</time>
      </trkpt>
      <trkpt lat="47.94112" lon="-2.46379">
        <ele>41</ele>
        <time>2024-12-19T10:09:54Z</time>
      </trkpt>
      <trkpt lat="47.94111" lon="-2.4638">
        <ele>41</ele>
        <time>2024-12-19T10:09:55Z</time>
      </trkpt>
      <trkpt lat="47.9411" lon="-2.46382">
        <ele>41</ele>
        <time>2024-12-19T10:09:56Z</time>
      </trkpt>
      <trkpt lat="47.94108" lon="-2.46383">
        <ele>41</ele>
        <time>2024-12-19T10:09:57Z</time>
      </trkpt>
      <trkpt lat="47.94107" lon="-2.46385">
        <ele>41</ele>
        <time>2024-12-19T10:09:58Z</time>
      </trkpt>
      <trkpt lat="47.94106" lon="-2.46387">
        <ele>41</ele>
        <time>2024-12-19T10:09:59Z</time>
      </trkpt>
      <trkpt lat="47.94105" lon="-2.46389">
        <ele>41</ele>
        <time>2024-12-19T10:10:00Z</time>
      </trkpt>
      <trkpt lat="47.94104" lon="-2.4639">
        <ele>41.1</ele>
        <time>2024-12-19T10:10:01Z</time>
      </trkpt>
      <trkpt lat="47.94103" lon="-2.46391">
        <ele>41.2</ele>
        <time>2024-12-19T10:10:02Z</time>
      </trkpt>
      <trkpt lat="47.94102" lon="-2.46393">
        <ele>41.2</ele>
        <time>2024-12-19T10:10:03Z</time>
      </trkpt>
      <trkpt lat="47.94101" lon="-2.46394">
        <ele>41.3</ele>
        <time>2024-12-19T10:10:04Z</time>
      </trkpt>
      <trkpt lat="47.94101" lon="-2.46394">
        <ele>41.3</ele>
        <time>2024-12-19T10:10:05Z</time>
      </trkpt>
      <trkpt lat="47.941" lon="-2.46395">
        <ele>41.4</ele>
        <time>2024-12-19T10:10:06Z</time>
      </trkpt>
      <trkpt lat="47.94099" lon="-2.46396">
        <ele>41.4</ele>
        <time>2024-12-19T10:10:07Z</time>
      </trkpt>
      <trkpt lat="47.94097" lon="-2.46398">
        <ele>41.5</ele>
        <time>2024-12-19T10:10:08Z</time>
      </trkpt>
      <trkpt lat="47.94096" lon="-2.464">
        <ele>41.6</ele>
        <time>2024-12-19T10:10:09Z</time>
      </trkpt>
      <trkpt lat="47.94096" lon="-2.46402">
        <ele>41.7</ele>
        <time>2024-12-19T10:10:10Z</time>
      </trkpt>
      <trkpt lat="47.94095" lon="-2.46404">
        <ele>41.8</ele>
        <time>2024-12-19T10:10:11Z</time>
      </trkpt>
      <trkpt lat="47.94094" lon="-2.46407">
        <ele>41.9</ele>
        <time>2024-12-19T10:10:12Z</time>
      </trkpt>
      <trkpt lat="47.94094" lon="-2.46409">
        <ele>42</ele>
        <time>2024-12-19T10:10:13Z</time>
      </trkpt>
      <trkpt lat="47.94094" lon="-2.46412">
        <ele>42.1</ele>
        <time>2024-12-19T10:10:14Z</time>
      </trkpt>
      <trkpt lat="47.94093" lon="-2.46414">
        <ele>42.2</ele>
        <time>2024-12-19T10:10:15Z</time>
      </trkpt>
      <trkpt lat="47.94093" lon="-2.46415">
        <ele>42.3</ele>
        <time>2024-12-19T10:10:16Z</time>
      </trkpt>
      <trkpt lat="47.94093" lon="-2.46416">
        <ele>42.3</ele>
        <time>2024-12-19T10:10:17Z</time>
      </trkpt>
      <trkpt lat="47.94092" lon="-2.46417">
        <ele>42.3</ele>
        <time>2024-12-19T10:10:18Z</time>
      </trkpt>
      <trkpt lat="47.94092" lon="-2.46419">
        <ele>42.4</ele>
        <time>2024-12-19T10:10:19Z</time>
      </trkpt>
      <trkpt lat="47.94091" lon="-2.46421">
        <ele>42.4</ele>
        <time>2024-12-19T10:10:20Z</time>
      </trkpt>
      <trkpt lat="47.94091" lon="-2.46423">
        <ele>42.5</ele>
        <time>2024-12-19T10:10:21Z</time>
      </trkpt>
      <trkpt lat="47.9409" lon="-2.46425">
        <ele>42.5</ele>
        <time>2024-12-19T10:10:22Z</time>
      </trkpt>
      <trkpt lat="47.94089" lon="-2.46427">
        <ele>42.6</ele>
        <time>2024-12-19T10:10:23Z</time>
      </trkpt>
      <trkpt lat="47.94088" lon="-2.46429">
        <ele>42.6</ele>
        <time>2024-12-19T10:10:24Z</time>
      </trkpt>
      <trkpt lat="47.94088" lon="-2.46431">
        <ele>42.7</ele>
        <time>2024-12-19T10:10:25Z</time>
      </trkpt>
      <trkpt lat="47.94087" lon="-2.46432">
        <ele>42.7</ele>
        <time>2024-12-19T10:10:26Z</time>
      </trkpt>
      <trkpt lat="47.94086" lon="-2.46434">
        <ele>42.7</ele>
        <time>2024-12-19T10:10:27Z</time>
      </trkpt>
      <trkpt lat="47.94085" lon="-2.46435">
        <ele>42.7</ele>
        <time>2024-12-19T10:10:28Z</time>
      </trkpt>
      <trkpt lat="47.94084" lon="-2.46436">
        <ele>42.7</ele>
        <time>2024-12-19T10:10:29Z</time>
      </trkpt>
      <trkpt lat="47.94082" lon="-2.46438">
        <ele>42.8</ele>
        <time>2024-12-19T10:10:30Z</time>
      </trkpt>
      <trkpt lat="47.94081" lon="-2.46438">
        <ele>42.9</ele>
        <time>2024-12-19T10:10:31Z</time>
      </trkpt>
      <trkpt lat="47.94079" lon="-2.46439">
        <ele>42.9</ele>
        <time>2024-12-19T10:10:32Z</time>
      </trkpt>
      <trkpt lat="47.94078" lon="-2.46439">
        <ele>43</ele>
        <time>2024-12-19T10:10:33Z</time>
      </trkpt>
      <trkpt lat="47.94076" lon="-2.46439">
        <ele>43</ele>
        <time>2024-12-19T10:10:34Z</time>
      </trkpt>
      <trkpt lat="47.94075" lon="-2.46438">
        <ele>43</ele>
        <time>2024-12-19T10:10:35Z</time>
      </trkpt>
      <trkpt lat="47.94074" lon="-2.46438">
        <ele>43</ele>
        <time>2024-12-19T10:10:36Z</time>
      </trkpt>
      <trkpt lat="47.94073" lon="-2.46437">
        <ele>43</ele>
        <time>2024-12-19T10:10:37Z</time>
      </trkpt>
      <trkpt lat="47.94072" lon="-2.46436">
        <ele>43</ele>
        <time>2024-12-19T10:10:38Z</time>
      </trkpt>
      <trkpt lat="47.94071" lon="-2.46435">
        <ele>43</ele>
        <time>2024-12-19T10:10:39Z</time>
      </trkpt>
      <trkpt lat="47.9407" lon="-2.46433">
        <ele>42.9</ele>
        <time>2024-12-19T10:10:40Z</time>
      </trkpt>
      <trkpt lat="47.9407" lon="-2.46432">
        <ele>42.8</ele>
        <time>2024-12-19T10:10:41Z</time>
      </trkpt>
      <trkpt lat="47.94068" lon="-2.4643">
        <ele>42.7</ele>
        <time>2024-12-19T10:10:42Z</time>
      </trkpt>
      <trkpt lat="47.94067" lon="-2.46429">
        <ele>42.7</ele>
        <time>2024-12-19T10:10:43Z</time>
      </trkpt>
      <trkpt lat="47.94066" lon="-2.46428">
        <ele>42.6</ele>
        <time>2024-12-19T10:10:44Z</time>
      </trkpt>
      <trkpt lat="47.94065" lon="-2.46427">
        <ele>42.6</ele>
        <time>2024-12-19T10:10:45Z</time>
      </trkpt>
      <trkpt lat="47.94065" lon="-2.46426">
        <ele>42.6</ele>
        <time>2024-12-19T10:10:46Z</time>
      </trkpt>
      <trkpt lat="47.94063" lon="-2.46425">
        <ele>42.5</ele>
        <time>2024-12-19T10:10:47Z</time>
      </trkpt>
      <trkpt lat="47.94061" lon="-2.46424">
        <ele>42.5</ele>
        <time>2024-12-19T10:10:49Z</time>
      </trkpt>
      <trkpt lat="47.9406" lon="-2.46424">
        <ele>42.5</ele>
        <time>2024-12-19T10:10:50Z</time>
      </trkpt>
      <trkpt lat="47.94059" lon="-2.46424">
        <ele>42.5</ele>
        <time>2024-12-19T10:10:51Z</time>
      </trkpt>
      <trkpt lat="47.94058" lon="-2.46424">
        <ele>42.5</ele>
        <time>2024-12-19T10:10:52Z</time>
      </trkpt>
      <trkpt lat="47.94057" lon="-2.46423">
        <ele>42.4</ele>
        <time>2024-12-19T10:10:53Z</time>
      </trkpt>
      <trkpt lat="47.94056" lon="-2.46422">
        <ele>42.4</ele>
        <time>2024-12-19T10:10:54Z</time>
      </trkpt>
      <trkpt lat="47.94055" lon="-2.46421">
        <ele>42.3</ele>
        <time>2024-12-19T10:10:55Z</time>
      </trkpt>
      <trkpt lat="47.94055" lon="-2.46421">
        <ele>42.3</ele>
        <time>2024-12-19T10:10:56Z</time>
      </trkpt>
      <trkpt lat="47.94054" lon="-2.46421">
        <ele>42.3</ele>
        <time>2024-12-19T10:10:57Z</time>
      </trkpt>
      <trkpt lat="47.94053" lon="-2.46421">
        <ele>42.2</ele>
        <time>2024-12-19T10:10:58Z</time>
      </trkpt>
      <trkpt lat="47.94052" lon="-2.4642">
        <ele>42.2</ele>
        <time>2024-12-19T10:10:59Z</time>
      </trkpt>
      <trkpt lat="47.94051" lon="-2.46419">
        <ele>42.1</ele>
        <time>2024-12-19T10:11:00Z</time>
      </trkpt>
      <trkpt lat="47.94051" lon="-2.46418">
        <ele>41.9</ele>
        <time>2024-12-19T10:11:01Z</time>
      </trkpt>
      <trkpt lat="47.9405" lon="-2.46418">
        <ele>41.9</ele>
        <time>2024-12-19T10:11:02Z</time>
      </trkpt>
      <trkpt lat="47.94048" lon="-2.46418">
        <ele>41.9</ele>
        <time>2024-12-19T10:11:03Z</time>
      </trkpt>
      <trkpt lat="47.94047" lon="-2.46419">
        <ele>41.9</ele>
        <time>2024-12-19T10:11:04Z</time>
      </trkpt>
      <trkpt lat="47.94046" lon="-2.46419">
        <ele>41.9</ele>
        <time>2024-12-19T10:11:05Z</time>
      </trkpt>
      <trkpt lat="47.94045" lon="-2.46419">
        <ele>41.8</ele>
        <time>2024-12-19T10:11:06Z</time>
      </trkpt>
      <trkpt lat="47.94043" lon="-2.46418">
        <ele>41.7</ele>
        <time>2024-12-19T10:11:07Z</time>
      </trkpt>
      <trkpt lat="47.94042" lon="-2.46418">
        <ele>41.6</ele>
        <time>2024-12-19T10:11:08Z</time>
      </trkpt>
      <trkpt lat="47.94041" lon="-2.46417">
        <ele>41.5</ele>
        <time>2024-12-19T10:11:09Z</time>
      </trkpt>
      <trkpt lat="47.94039" lon="-2.46417">
        <ele>41.4</ele>
        <time>2024-12-19T10:11:10Z</time>
      </trkpt>
      <trkpt lat="47.94038" lon="-2.46416">
        <ele>41.4</ele>
        <time>2024-12-19T10:11:11Z</time>
      </trkpt>
      <trkpt lat="47.94037" lon="-2.46416">
        <ele>41.3</ele>
        <time>2024-12-19T10:11:12Z</time>
      </trkpt>
      <trkpt lat="47.94035" lon="-2.46414">
        <ele>41.2</ele>
        <time>2024-12-19T10:11:13Z</time>
      </trkpt>
      <trkpt lat="47.94034" lon="-2.46413">
        <ele>41.1</ele>
        <time>2024-12-19T10:11:14Z</time>
      </trkpt>
      <trkpt lat="47.94033" lon="-2.46412">
        <ele>41</ele>
        <time>2024-12-19T10:11:15Z</time>
      </trkpt>
      <trkpt lat="47.94031" lon="-2.46411">
        <ele>40.9</ele>
        <time>2024-12-19T10:11:16Z</time>
      </trkpt>
      <trkpt lat="47.9403" lon="-2.46411">
        <ele>40.9</ele>
        <time>2024-12-19T10:11:17Z</time>
      </trkpt>
      <trkpt lat="47.94029" lon="-2.4641">
        <ele>40.8</ele>
        <time>2024-12-19T10:11:18Z</time>
      </trkpt>
      <trkpt lat="47.94027" lon="-2.4641">
        <ele>40.7</ele>
        <time>2024-12-19T10:11:19Z</time>
      </trkpt>
      <trkpt lat="47.94026" lon="-2.4641">
        <ele>40.7</ele>
        <time>2024-12-19T10:11:20Z</time>
      </trkpt>
      <trkpt lat="47.94024" lon="-2.46409">
        <ele>40.7</ele>
        <time>2024-12-19T10:11:21Z</time>
      </trkpt>
      <trkpt lat="47.94023" lon="-2.46409">
        <ele>40.7</ele>
        <time>2024-12-19T10:11:22Z</time>
      </trkpt>
      <trkpt lat="47.94022" lon="-2.46409">
        <ele>40.7</ele>
        <time>2024-12-19T10:11:23Z</time>
      </trkpt>
      <trkpt lat="47.94021" lon="-2.4641">
        <ele>40.7</ele>
        <time>2024-12-19T10:11:24Z</time>
      </trkpt>
      <trkpt lat="47.9402" lon="-2.4641">
        <ele>40.7</ele>
        <time>2024-12-19T10:11:25Z</time>
      </trkpt>
      <trkpt lat="47.94019" lon="-2.46409">
        <ele>40.7</ele>
        <time>2024-12-19T10:11:26Z</time>
      </trkpt>
      <trkpt lat="47.94019" lon="-2.46409">
        <ele>40.6</ele>
        <time>2024-12-19T10:11:27Z</time>
      </trkpt>
      <trkpt lat="47.94019" lon="-2.46408">
        <ele>40.6</ele>
        <time>2024-12-19T10:11:28Z</time>
      </trkpt>
      <trkpt lat="47.94018" lon="-2.46408">
        <ele>40.6</ele>
        <time>2024-12-19T10:11:29Z</time>
      </trkpt>
      <trkpt lat="47.94018" lon="-2.46407">
        <ele>40.6</ele>
        <time>2024-12-19T10:11:30Z</time>
      </trkpt>
      <trkpt lat="47.94018" lon="-2.46407">
        <ele>40.5</ele>
        <time>2024-12-19T10:11:31Z</time>
      </trkpt>
      <trkpt lat="47.94017" lon="-2.46406">
        <ele>40.5</ele>
        <time>2024-12-19T10:11:32Z</time>
      </trkpt>
      <trkpt lat="47.94016" lon="-2.46406">
        <ele>40.4</ele>
        <time>2024-12-19T10:11:33Z</time>
      </trkpt>
      <trkpt lat="47.94016" lon="-2.46406">
        <ele>40.4</ele>
        <time>2024-12-19T10:11:34Z</time>
      </trkpt>
      <trkpt lat="47.94015" lon="-2.46406">
        <ele>40.5</ele>
        <time>2024-12-19T10:11:35Z</time>
      </trkpt>
      <trkpt lat="47.94014" lon="-2.46407">
        <ele>40.5</ele>
        <time>2024-12-19T10:11:36Z</time>
      </trkpt>
      <trkpt lat="47.94013" lon="-2.46407">
        <ele>40.5</ele>
        <time>2024-12-19T10:11:37Z</time>
      </trkpt>
      <trkpt lat="47.94012" lon="-2.46407">
        <ele>40.5</ele>
        <time>2024-12-19T10:11:38Z</time>
      </trkpt>
      <trkpt lat="47.94011" lon="-2.46407">
        <ele>40.5</ele>
        <time>2024-12-19T10:11:39Z</time>
      </trkpt>
      <trkpt lat="47.9401" lon="-2.46407">
        <ele>40.4</ele>
        <time>2024-12-19T10:11:40Z</time>
      </trkpt>
      <trkpt lat="47.94009" lon="-2.46407">
        <ele>40.4</ele>
        <time>2024-12-19T10:11:41Z</time>
      </trkpt>
      <trkpt lat="47.94007" lon="-2.46406">
        <ele>40.3</ele>
        <time>2024-12-19T10:11:42Z</time>
      </trkpt>
      <trkpt lat="47.94005" lon="-2.46405">
        <ele>40.2</ele>
        <time>2024-12-19T10:11:43Z</time>
      </trkpt>
      <trkpt lat="47.94004" lon="-2.46404">
        <ele>40.2</ele>
        <time>2024-12-19T10:11:44Z</time>
      </trkpt>
      <trkpt lat="47.94003" lon="-2.46404">
        <ele>40.1</ele>
        <time>2024-12-19T10:11:45Z</time>
      </trkpt>
      <trkpt lat="47.94002" lon="-2.46403">
        <ele>40</ele>
        <time>2024-12-19T10:11:46Z</time>
      </trkpt>
      <trkpt lat="47.94" lon="-2.46402">
        <ele>40</ele>
        <time>2024-12-19T10:11:47Z</time>
      </trkpt>
      <trkpt lat="47.93999" lon="-2.46402">
        <ele>39.9</ele>
        <time>2024-12-19T10:11:48Z</time>
      </trkpt>
      <trkpt lat="47.93998" lon="-2.46402">
        <ele>39.9</ele>
        <time>2024-12-19T10:11:49Z</time>
      </trkpt>
      <trkpt lat="47.93997" lon="-2.46402">
        <ele>39.8</ele>
        <time>2024-12-19T10:11:50Z</time>
      </trkpt>
      <trkpt lat="47.93995" lon="-2.46401">
        <ele>39.7</ele>
        <time>2024-12-19T10:11:51Z</time>
      </trkpt>
      <trkpt lat="47.93994" lon="-2.46401">
        <ele>39.6</ele>
        <time>2024-12-19T10:11:52Z</time>
      </trkpt>
      <trkpt lat="47.93992" lon="-2.464">
        <ele>39.5</ele>
        <time>2024-12-19T10:11:53Z</time>
      </trkpt>
      <trkpt lat="47.93991" lon="-2.464">
        <ele>39.4</ele>
        <time>2024-12-19T10:11:54Z</time>
      </trkpt>
      <trkpt lat="47.93989" lon="-2.46399">
        <ele>39.4</ele>
        <time>2024-12-19T10:11:55Z</time>
      </trkpt>
      <trkpt lat="47.93988" lon="-2.46399">
        <ele>39.3</ele>
        <time>2024-12-19T10:11:56Z</time>
      </trkpt>
      <trkpt lat="47.93987" lon="-2.46399">
        <ele>39.2</ele>
        <time>2024-12-19T10:11:57Z</time>
      </trkpt>
      <trkpt lat="47.93985" lon="-2.46398">
        <ele>39.2</ele>
        <time>2024-12-19T10:11:58Z</time>
      </trkpt>
      <trkpt lat="47.93984" lon="-2.46398">
        <ele>39.1</ele>
        <time>2024-12-19T10:11:59Z</time>
      </trkpt>
      <trkpt lat="47.93982" lon="-2.46398">
        <ele>39</ele>
        <time>2024-12-19T10:12:00Z</time>
      </trkpt>
      <trkpt lat="47.93981" lon="-2.46398">
        <ele>38.9</ele>
        <time>2024-12-19T10:12:01Z</time>
      </trkpt>
      <trkpt lat="47.93979" lon="-2.46397">
        <ele>38.9</ele>
        <time>2024-12-19T10:12:02Z</time>
      </trkpt>
      <trkpt lat="47.93978" lon="-2.46397">
        <ele>38.8</ele>
        <time>2024-12-19T10:12:03Z</time>
      </trkpt>
      <trkpt lat="47.93977" lon="-2.46396">
        <ele>38.7</ele>
        <time>2024-12-19T10:12:04Z</time>
      </trkpt>
      <trkpt lat="47.93975" lon="-2.46396">
        <ele>38.6</ele>
        <time>2024-12-19T10:12:05Z</time>
      </trkpt>
      <trkpt lat="47.93974" lon="-2.46395">
        <ele>38.5</ele>
        <time>2024-12-19T10:12:06Z</time>
      </trkpt>
      <trkpt lat="47.93972" lon="-2.46394">
        <ele>38.4</ele>
        <time>2024-12-19T10:12:07Z</time>
      </trkpt>
      <trkpt lat="47.93971" lon="-2.46394">
        <ele>38.3</ele>
        <time>2024-12-19T10:12:08Z</time>
      </trkpt>
      <trkpt lat="47.93969" lon="-2.46393">
        <ele>38.3</ele>
        <time>2024-12-19T10:12:09Z</time>
      </trkpt>
      <trkpt lat="47.93967" lon="-2.46392">
        <ele>38.2</ele>
        <time>2024-12-19T10:12:10Z</time>
      </trkpt>
      <trkpt lat="47.93966" lon="-2.46392">
        <ele>38.2</ele>
        <time>2024-12-19T10:12:11Z</time>
      </trkpt>
      <trkpt lat="47.93964" lon="-2.46391">
        <ele>38.2</ele>
        <time>2024-12-19T10:12:12Z</time>
      </trkpt>
      <trkpt lat="47.93963" lon="-2.46391">
        <ele>38.1</ele>
        <time>2024-12-19T10:12:13Z</time>
      </trkpt>
      <trkpt lat="47.93961" lon="-2.4639">
        <ele>38.1</ele>
        <time>2024-12-19T10:12:14Z</time>
      </trkpt>
      <trkpt lat="47.9396" lon="-2.4639">
        <ele>38.1</ele>
        <time>2024-12-19T10:12:15Z</time>
      </trkpt>
      <trkpt lat="47.93958" lon="-2.46389">
        <ele>38</ele>
        <time>2024-12-19T10:12:16Z</time>
      </trkpt>
      <trkpt lat="47.93956" lon="-2.46389">
        <ele>38</ele>
        <time>2024-12-19T10:12:17Z</time>
      </trkpt>
      <trkpt lat="47.93954" lon="-2.46388">
        <ele>38</ele>
        <time>2024-12-19T10:12:18Z</time>
      </trkpt>
      <trkpt lat="47.93952" lon="-2.46388">
        <ele>37.9</ele>
        <time>2024-12-19T10:12:19Z</time>
      </trkpt>
      <trkpt lat="47.9395" lon="-2.46387">
        <ele>37.9</ele>
        <time>2024-12-19T10:12:20Z</time>
      </trkpt>
      <trkpt lat="47.93949" lon="-2.46387">
        <ele>37.9</ele>
        <time>2024-12-19T10:12:21Z</time>
      </trkpt>
      <trkpt lat="47.93947" lon="-2.46387">
        <ele>37.8</ele>
        <time>2024-12-19T10:12:22Z</time>
      </trkpt>
      <trkpt lat="47.93946" lon="-2.46387">
        <ele>37.8</ele>
        <time>2024-12-19T10:12:23Z</time>
      </trkpt>
      <trkpt lat="47.93944" lon="-2.46387">
        <ele>37.9</ele>
        <time>2024-12-19T10:12:24Z</time>
      </trkpt>
      <trkpt lat="47.93942" lon="-2.46387">
        <ele>38</ele>
        <time>2024-12-19T10:12:25Z</time>
      </trkpt>
      <trkpt lat="47.93941" lon="-2.46388">
        <ele>38.2</ele>
        <time>2024-12-19T10:12:26Z</time>
      </trkpt>
      <trkpt lat="47.93939" lon="-2.46388">
        <ele>38.3</ele>
        <time>2024-12-19T10:12:27Z</time>
      </trkpt>
      <trkpt lat="47.93938" lon="-2.46389">
        <ele>38.5</ele>
        <time>2024-12-19T10:12:28Z</time>
      </trkpt>
      <trkpt lat="47.93937" lon="-2.46389">
        <ele>38.5</ele>
        <time>2024-12-19T10:12:29Z</time>
      </trkpt>
      <trkpt lat="47.93936" lon="-2.46389">
        <ele>38.6</ele>
        <time>2024-12-19T10:12:30Z</time>
      </trkpt>
      <trkpt lat="47.93935" lon="-2.46388">
        <ele>38.6</ele>
        <time>2024-12-19T10:12:31Z</time>
      </trkpt>
      <trkpt lat="47.93934" lon="-2.46388">
        <ele>38.7</ele>
        <time>2024-12-19T10:12:32Z</time>
      </trkpt>
      <trkpt lat="47.93932" lon="-2.46388">
        <ele>38.9</ele>
        <time>2024-12-19T10:12:33Z</time>
      </trkpt>
      <trkpt lat="47.93931" lon="-2.46388">
        <ele>39</ele>
        <time>2024-12-19T10:12:34Z</time>
      </trkpt>
      <trkpt lat="47.93929" lon="-2.46389">
        <ele>39.1</ele>
        <time>2024-12-19T10:12:35Z</time>
      </trkpt>
      <trkpt lat="47.93928" lon="-2.46389">
        <ele>39.2</ele>
        <time>2024-12-19T10:12:36Z</time>
      </trkpt>
      <trkpt lat="47.93926" lon="-2.46388">
        <ele>39.3</ele>
        <time>2024-12-19T10:12:37Z</time>
      </trkpt>
      <trkpt lat="47.93925" lon="-2.46387">
        <ele>39.4</ele>
        <time>2024-12-19T10:12:38Z</time>
      </trkpt>
      <trkpt lat="47.93923" lon="-2.46385">
        <ele>39.5</ele>
        <time>2024-12-19T10:12:39Z</time>
      </trkpt>
      <trkpt lat="47.93922" lon="-2.46385">
        <ele>39.5</ele>
        <time>2024-12-19T10:12:40Z</time>
      </trkpt>
      <trkpt lat="47.93921" lon="-2.46384">
        <ele>39.6</ele>
        <time>2024-12-19T10:12:41Z</time>
      </trkpt>
      <trkpt lat="47.9392" lon="-2.46383">
        <ele>39.7</ele>
        <time>2024-12-19T10:12:42Z</time>
      </trkpt>
      <trkpt lat="47.93919" lon="-2.46382">
        <ele>39.8</ele>
        <time>2024-12-19T10:12:43Z</time>
      </trkpt>
      <trkpt lat="47.93918" lon="-2.46382">
        <ele>39.8</ele>
        <time>2024-12-19T10:12:44Z</time>
      </trkpt>
      <trkpt lat="47.93917" lon="-2.46381">
        <ele>39.9</ele>
        <time>2024-12-19T10:12:45Z</time>
      </trkpt>
      <trkpt lat="47.93916" lon="-2.46381">
        <ele>40</ele>
        <time>2024-12-19T10:12:46Z</time>
      </trkpt>
      <trkpt lat="47.93915" lon="-2.4638">
        <ele>40</ele>
        <time>2024-12-19T10:12:47Z</time>
      </trkpt>
      <trkpt lat="47.93914" lon="-2.4638">
        <ele>39.9</ele>
        <time>2024-12-19T10:12:48Z</time>
      </trkpt>
      <trkpt lat="47.93912" lon="-2.46379">
        <ele>39.9</ele>
        <time>2024-12-19T10:12:49Z</time>
      </trkpt>
      <trkpt lat="47.9391" lon="-2.46379">
        <ele>39.8</ele>
        <time>2024-12-19T10:12:50Z</time>
      </trkpt>
      <trkpt lat="47.93909" lon="-2.46379">
        <ele>39.8</ele>
        <time>2024-12-19T10:12:51Z</time>
      </trkpt>
      <trkpt lat="47.93907" lon="-2.46379">
        <ele>39.8</ele>
        <time>2024-12-19T10:12:52Z</time>
      </trkpt>
      <trkpt lat="47.93905" lon="-2.46379">
        <ele>39.7</ele>
        <time>2024-12-19T10:12:53Z</time>
      </trkpt>
      <trkpt lat="47.93903" lon="-2.46378">
        <ele>39.7</ele>
        <time>2024-12-19T10:12:54Z</time>
      </trkpt>
      <trkpt lat="47.93901" lon="-2.46379">
        <ele>39.6</ele>
        <time>2024-12-19T10:12:55Z</time>
      </trkpt>
      <trkpt lat="47.93896" lon="-2.46382">
        <ele>39.4</ele>
        <time>2024-12-19T10:12:56Z</time>
      </trkpt>
      <trkpt lat="47.93871" lon="-2.46407">
        <ele>39.7</ele>
        <time>2024-12-19T10:12:57Z</time>
      </trkpt>
      <trkpt lat="47.93894" lon="-2.46403">
        <ele>40.9</ele>
        <time>2024-12-19T10:12:58Z</time>
      </trkpt>
      <trkpt lat="47.93894" lon="-2.46395">
        <ele>40</ele>
        <time>2024-12-19T10:12:59Z</time>
      </trkpt>
      <trkpt lat="47.93893" lon="-2.46393">
        <ele>39.6</ele>
        <time>2024-12-19T10:13:00Z</time>
      </trkpt>
      <trkpt lat="47.93892" lon="-2.4639">
        <ele>39.3</ele>
        <time>2024-12-19T10:13:01Z</time>
      </trkpt>
      <trkpt lat="47.93891" lon="-2.46389">
        <ele>39.1</ele>
        <time>2024-12-19T10:13:02Z</time>
      </trkpt>
      <trkpt lat="47.9389" lon="-2.46387">
        <ele>39.1</ele>
        <time>2024-12-19T10:13:03Z</time>
      </trkpt>
      <trkpt lat="47.93889" lon="-2.46387">
        <ele>39.1</ele>
        <time>2024-12-19T10:13:04Z</time>
      </trkpt>
      <trkpt lat="47.93888" lon="-2.46387">
        <ele>39</ele>
        <time>2024-12-19T10:13:05Z</time>
      </trkpt>
      <trkpt lat="47.93887" lon="-2.46387">
        <ele>39</ele>
        <time>2024-12-19T10:13:06Z</time>
      </trkpt>
      <trkpt lat="47.93885" lon="-2.46388">
        <ele>38.9</ele>
        <time>2024-12-19T10:13:07Z</time>
      </trkpt>
      <trkpt lat="47.93884" lon="-2.46388">
        <ele>38.8</ele>
        <time>2024-12-19T10:13:08Z</time>
      </trkpt>
      <trkpt lat="47.93883" lon="-2.46388">
        <ele>38.8</ele>
        <time>2024-12-19T10:13:09Z</time>
      </trkpt>
      <trkpt lat="47.93882" lon="-2.46388">
        <ele>38.7</ele>
        <time>2024-12-19T10:13:10Z</time>
      </trkpt>
      <trkpt lat="47.9388" lon="-2.46388">
        <ele>38.7</ele>
        <time>2024-12-19T10:13:11Z</time>
      </trkpt>
      <trkpt lat="47.93879" lon="-2.46388">
        <ele>38.7</ele>
        <time>2024-12-19T10:13:12Z</time>
      </trkpt>
      <trkpt lat="47.93878" lon="-2.46389">
        <ele>38.6</ele>
        <time>2024-12-19T10:13:13Z</time>
      </trkpt>
      <trkpt lat="47.93877" lon="-2.4639">
        <ele>38.7</ele>
        <time>2024-12-19T10:13:14Z</time>
      </trkpt>
      <trkpt lat="47.93876" lon="-2.46391">
        <ele>38.7</ele>
        <time>2024-12-19T10:13:15Z</time>
      </trkpt>
      <trkpt lat="47.93875" lon="-2.46392">
        <ele>38.7</ele>
        <time>2024-12-19T10:13:16Z</time>
      </trkpt>
      <trkpt lat="47.93874" lon="-2.46393">
        <ele>38.8</ele>
        <time>2024-12-19T10:13:17Z</time>
      </trkpt>
      <trkpt lat="47.93873" lon="-2.46394">
        <ele>38.8</ele>
        <time>2024-12-19T10:13:18Z</time>
      </trkpt>
      <trkpt lat="47.93872" lon="-2.46396">
        <ele>38.9</ele>
        <time>2024-12-19T10:13:19Z</time>
      </trkpt>
      <trkpt lat="47.93871" lon="-2.46397">
        <ele>38.9</ele>
        <time>2024-12-19T10:13:20Z</time>
      </trkpt>
      <trkpt lat="47.9387" lon="-2.46398">
        <ele>39</ele>
        <time>2024-12-19T10:13:21Z</time>
      </trkpt>
      <trkpt lat="47.93869" lon="-2.464">
        <ele>39</ele>
        <time>2024-12-19T10:13:22Z</time>
      </trkpt>
      <trkpt lat="47.93869" lon="-2.46401">
        <ele>39.1</ele>
        <time>2024-12-19T10:13:23Z</time>
      </trkpt>
      <trkpt lat="47.93869" lon="-2.46402">
        <ele>39.2</ele>
        <time>2024-12-19T10:13:24Z</time>
      </trkpt>
      <trkpt lat="47.93869" lon="-2.46404">
        <ele>39.3</ele>
        <time>2024-12-19T10:13:25Z</time>
      </trkpt>
      <trkpt lat="47.93869" lon="-2.46406">
        <ele>39.4</ele>
        <time>2024-12-19T10:13:26Z</time>
      </trkpt>
      <trkpt lat="47.93869" lon="-2.46408">
        <ele>39.6</ele>
        <time>2024-12-19T10:13:27Z</time>
      </trkpt>
      <trkpt lat="47.93869" lon="-2.4641">
        <ele>39.7</ele>
        <time>2024-12-19T10:13:28Z</time>
      </trkpt>
      <trkpt lat="47.93869" lon="-2.46412">
        <ele>39.9</ele>
        <time>2024-12-19T10:13:29Z</time>
      </trkpt>
      <trkpt lat="47.9387" lon="-2.46413">
        <ele>40</ele>
        <time>2024-12-19T10:13:30Z</time>
      </trkpt>
      <trkpt lat="47.93871" lon="-2.46414">
        <ele>40.1</ele>
        <time>2024-12-19T10:13:31Z</time>
      </trkpt>
      <trkpt lat="47.93871" lon="-2.46414">
        <ele>40.3</ele>
        <time>2024-12-19T10:13:32Z</time>
      </trkpt>
      <trkpt lat="47.93872" lon="-2.46414">
        <ele>40.3</ele>
        <time>2024-12-19T10:13:33Z</time>
      </trkpt>
      <trkpt lat="47.93872" lon="-2.46415">
        <ele>40.5</ele>
        <time>2024-12-19T10:13:34Z</time>
      </trkpt>
      <trkpt lat="47.93873" lon="-2.46416">
        <ele>40.6</ele>
        <time>2024-12-19T10:13:35Z</time>
      </trkpt>
      <trkpt lat="47.93874" lon="-2.46417">
        <ele>40.8</ele>
        <time>2024-12-19T10:13:36Z</time>
      </trkpt>
      <trkpt lat="47.93875" lon="-2.46418">
        <ele>40.9</ele>
        <time>2024-12-19T10:13:37Z</time>
      </trkpt>
      <trkpt lat="47.93875" lon="-2.4642">
        <ele>40.9</ele>
        <time>2024-12-19T10:13:38Z</time>
      </trkpt>
      <trkpt lat="47.93876" lon="-2.46422">
        <ele>41</ele>
        <time>2024-12-19T10:13:39Z</time>
      </trkpt>
      <trkpt lat="47.93877" lon="-2.46424">
        <ele>41</ele>
        <time>2024-12-19T10:13:40Z</time>
      </trkpt>
      <trkpt lat="47.93878" lon="-2.46425">
        <ele>41.1</ele>
        <time>2024-12-19T10:13:41Z</time>
      </trkpt>
      <trkpt lat="47.93878" lon="-2.46427">
        <ele>41.1</ele>
        <time>2024-12-19T10:13:42Z</time>
      </trkpt>
      <trkpt lat="47.93878" lon="-2.46429">
        <ele>41.1</ele>
        <time>2024-12-19T10:13:43Z</time>
      </trkpt>
      <trkpt lat="47.93879" lon="-2.46429">
        <ele>41.2</ele>
        <time>2024-12-19T10:13:44Z</time>
      </trkpt>
      <trkpt lat="47.93879" lon="-2.4643">
        <ele>41.2</ele>
        <time>2024-12-19T10:13:45Z</time>
      </trkpt>
      <trkpt lat="47.93879" lon="-2.46431">
        <ele>41.2</ele>
        <time>2024-12-19T10:13:46Z</time>
      </trkpt>
      <trkpt lat="47.9388" lon="-2.46432">
        <ele>41.4</ele>
        <time>2024-12-19T10:13:47Z</time>
      </trkpt>
      <trkpt lat="47.93881" lon="-2.46433">
        <ele>41.5</ele>
        <time>2024-12-19T10:13:48Z</time>
      </trkpt>
      <trkpt lat="47.93882" lon="-2.46435">
        <ele>41.6</ele>
        <time>2024-12-19T10:13:49Z</time>
      </trkpt>
      <trkpt lat="47.93882" lon="-2.46436">
        <ele>41.7</ele>
        <time>2024-12-19T10:13:50Z</time>
      </trkpt>
      <trkpt lat="47.93882" lon="-2.46438">
        <ele>41.6</ele>
        <time>2024-12-19T10:13:51Z</time>
      </trkpt>
      <trkpt lat="47.93882" lon="-2.4644">
        <ele>41.6</ele>
        <time>2024-12-19T10:13:52Z</time>
      </trkpt>
      <trkpt lat="47.93883" lon="-2.46442">
        <ele>41.7</ele>
        <time>2024-12-19T10:13:53Z</time>
      </trkpt>
      <trkpt lat="47.93883" lon="-2.46444">
        <ele>41.7</ele>
        <time>2024-12-19T10:13:54Z</time>
      </trkpt>
      <trkpt lat="47.93883" lon="-2.46445">
        <ele>41.8</ele>
        <time>2024-12-19T10:13:55Z</time>
      </trkpt>
      <trkpt lat="47.93884" lon="-2.46447">
        <ele>41.9</ele>
        <time>2024-12-19T10:13:56Z</time>
      </trkpt>
      <trkpt lat="47.93884" lon="-2.46449">
        <ele>41.9</ele>
        <time>2024-12-19T10:13:57Z</time>
      </trkpt>
      <trkpt lat="47.93884" lon="-2.46451">
        <ele>42</ele>
        <time>2024-12-19T10:13:58Z</time>
      </trkpt>
      <trkpt lat="47.93885" lon="-2.46453">
        <ele>42</ele>
        <time>2024-12-19T10:13:59Z</time>
      </trkpt>
      <trkpt lat="47.93885" lon="-2.46454">
        <ele>42.1</ele>
        <time>2024-12-19T10:14:00Z</time>
      </trkpt>
      <trkpt lat="47.93885" lon="-2.46455">
        <ele>42.2</ele>
        <time>2024-12-19T10:14:01Z</time>
      </trkpt>
      <trkpt lat="47.93886" lon="-2.46456">
        <ele>42.3</ele>
        <time>2024-12-19T10:14:02Z</time>
      </trkpt>
      <trkpt lat="47.93886" lon="-2.46457">
        <ele>42.4</ele>
        <time>2024-12-19T10:14:03Z</time>
      </trkpt>
      <trkpt lat="47.93887" lon="-2.46458">
        <ele>42.6</ele>
        <time>2024-12-19T10:14:04Z</time>
      </trkpt>
      <trkpt lat="47.93888" lon="-2.4646">
        <ele>42.8</ele>
        <time>2024-12-19T10:14:05Z</time>
      </trkpt>
      <trkpt lat="47.93889" lon="-2.46461">
        <ele>42.9</ele>
        <time>2024-12-19T10:14:06Z</time>
      </trkpt>
      <trkpt lat="47.93889" lon="-2.46464">
        <ele>43</ele>
        <time>2024-12-19T10:14:07Z</time>
      </trkpt>
      <trkpt lat="47.93889" lon="-2.46466">
        <ele>43</ele>
        <time>2024-12-19T10:14:08Z</time>
      </trkpt>
      <trkpt lat="47.93889" lon="-2.46468">
        <ele>43</ele>
        <time>2024-12-19T10:14:09Z</time>
      </trkpt>
      <trkpt lat="47.93889" lon="-2.46469">
        <ele>42.9</ele>
        <time>2024-12-19T10:14:10Z</time>
      </trkpt>
      <trkpt lat="47.93889" lon="-2.4647">
        <ele>42.9</ele>
        <time>2024-12-19T10:14:11Z</time>
      </trkpt>
      <trkpt lat="47.93889" lon="-2.46471">
        <ele>43</ele>
        <time>2024-12-19T10:14:12Z</time>
      </trkpt>
      <trkpt lat="47.93889" lon="-2.46473">
        <ele>43</ele>
        <time>2024-12-19T10:14:13Z</time>
      </trkpt>
      <trkpt lat="47.9389" lon="-2.46475">
        <ele>43.1</ele>
        <time>2024-12-19T10:14:14Z</time>
      </trkpt>
      <trkpt lat="47.9389" lon="-2.46477">
        <ele>43.1</ele>
        <time>2024-12-19T10:14:15Z</time>
      </trkpt>
      <trkpt lat="47.9389" lon="-2.46479">
        <ele>43.1</ele>
        <time>2024-12-19T10:14:16Z</time>
      </trkpt>
      <trkpt lat="47.9389" lon="-2.46481">
        <ele>43.1</ele>
        <time>2024-12-19T10:14:17Z</time>
      </trkpt>
      <trkpt lat="47.93891" lon="-2.46483">
        <ele>43.2</ele>
        <time>2024-12-19T10:14:18Z</time>
      </trkpt>
      <trkpt lat="47.93891" lon="-2.46485">
        <ele>43.2</ele>
        <time>2024-12-19T10:14:19Z</time>
      </trkpt>
      <trkpt lat="47.93891" lon="-2.46487">
        <ele>43.3</ele>
        <time>2024-12-19T10:14:20Z</time>
      </trkpt>
      <trkpt lat="47.93892" lon="-2.46489">
        <ele>43.3</ele>
        <time>2024-12-19T10:14:21Z</time>
      </trkpt>
      <trkpt lat="47.93892" lon="-2.4649">
        <ele>43.3</ele>
        <time>2024-12-19T10:14:22Z</time>
      </trkpt>
      <trkpt lat="47.93892" lon="-2.46492">
        <ele>43.4</ele>
        <time>2024-12-19T10:14:23Z</time>
      </trkpt>
      <trkpt lat="47.93892" lon="-2.46494">
        <ele>43.4</ele>
        <time>2024-12-19T10:14:24Z</time>
      </trkpt>
      <trkpt lat="47.93893" lon="-2.46495">
        <ele>43.5</ele>
        <time>2024-12-19T10:14:25Z</time>
      </trkpt>
      <trkpt lat="47.93893" lon="-2.46497">
        <ele>43.5</ele>
        <time>2024-12-19T10:14:26Z</time>
      </trkpt>
      <trkpt lat="47.93893" lon="-2.46499">
        <ele>43.6</ele>
        <time>2024-12-19T10:14:27Z</time>
      </trkpt>
      <trkpt lat="47.93893" lon="-2.46501">
        <ele>43.6</ele>
        <time>2024-12-19T10:14:28Z</time>
      </trkpt>
      <trkpt lat="47.93893" lon="-2.46503">
        <ele>43.7</ele>
        <time>2024-12-19T10:14:29Z</time>
      </trkpt>
      <trkpt lat="47.93893" lon="-2.46505">
        <ele>43.9</ele>
        <time>2024-12-19T10:14:30Z</time>
      </trkpt>
      <trkpt lat="47.93893" lon="-2.46507">
        <ele>44</ele>
        <time>2024-12-19T10:14:31Z</time>
      </trkpt>
      <trkpt lat="47.93893" lon="-2.46508">
        <ele>44.1</ele>
        <time>2024-12-19T10:14:32Z</time>
      </trkpt>
      <trkpt lat="47.93893" lon="-2.4651">
        <ele>44.2</ele>
        <time>2024-12-19T10:14:33Z</time>
      </trkpt>
      <trkpt lat="47.93893" lon="-2.46512">
        <ele>44.3</ele>
        <time>2024-12-19T10:14:34Z</time>
      </trkpt>
      <trkpt lat="47.93893" lon="-2.46514">
        <ele>44.4</ele>
        <time>2024-12-19T10:14:35Z</time>
      </trkpt>
      <trkpt lat="47.93893" lon="-2.46517">
        <ele>44.6</ele>
        <time>2024-12-19T10:14:36Z</time>
      </trkpt>
      <trkpt lat="47.93893" lon="-2.46519">
        <ele>44.7</ele>
        <time>2024-12-19T10:14:37Z</time>
      </trkpt>
      <trkpt lat="47.93893" lon="-2.4652">
        <ele>44.8</ele>
        <time>2024-12-19T10:14:38Z</time>
      </trkpt>
      <trkpt lat="47.93893" lon="-2.46521">
        <ele>44.8</ele>
        <time>2024-12-19T10:14:39Z</time>
      </trkpt>
      <trkpt lat="47.93892" lon="-2.46521">
        <ele>44.8</ele>
        <time>2024-12-19T10:14:40Z</time>
      </trkpt>
      <trkpt lat="47.93892" lon="-2.46521">
        <ele>44.8</ele>
        <time>2024-12-19T10:14:41Z</time>
      </trkpt>
      <trkpt lat="47.93892" lon="-2.46523">
        <ele>44.9</ele>
        <time>2024-12-19T10:14:42Z</time>
      </trkpt>
      <trkpt lat="47.93893" lon="-2.46524">
        <ele>45</ele>
        <time>2024-12-19T10:14:43Z</time>
      </trkpt>
      <trkpt lat="47.93893" lon="-2.46525">
        <ele>45.1</ele>
        <time>2024-12-19T10:14:44Z</time>
      </trkpt>
      <trkpt lat="47.93893" lon="-2.46527">
        <ele>45.2</ele>
        <time>2024-12-19T10:14:45Z</time>
      </trkpt>
      <trkpt lat="47.93893" lon="-2.46529">
        <ele>45.4</ele>
        <time>2024-12-19T10:14:46Z</time>
      </trkpt>
      <trkpt lat="47.93893" lon="-2.46531">
        <ele>45.5</ele>
        <time>2024-12-19T10:14:47Z</time>
      </trkpt>
      <trkpt lat="47.93893" lon="-2.46532">
        <ele>45.5</ele>
        <time>2024-12-19T10:14:48Z</time>
      </trkpt>
      <trkpt lat="47.93892" lon="-2.46533">
        <ele>45.6</ele>
        <time>2024-12-19T10:14:49Z</time>
      </trkpt>
      <trkpt lat="47.93892" lon="-2.46534">
        <ele>45.7</ele>
        <time>2024-12-19T10:14:50Z</time>
      </trkpt>
      <trkpt lat="47.93892" lon="-2.46535">
        <ele>45.8</ele>
        <time>2024-12-19T10:14:51Z</time>
      </trkpt>
      <trkpt lat="47.93892" lon="-2.46537">
        <ele>45.9</ele>
        <time>2024-12-19T10:14:52Z</time>
      </trkpt>
      <trkpt lat="47.93892" lon="-2.46539">
        <ele>46</ele>
        <time>2024-12-19T10:14:53Z</time>
      </trkpt>
      <trkpt lat="47.93892" lon="-2.4654">
        <ele>46.1</ele>
        <time>2024-12-19T10:14:54Z</time>
      </trkpt>
      <trkpt lat="47.93892" lon="-2.46542">
        <ele>46.2</ele>
        <time>2024-12-19T10:14:55Z</time>
      </trkpt>
      <trkpt lat="47.93892" lon="-2.46543">
        <ele>46.3</ele>
        <time>2024-12-19T10:14:56Z</time>
      </trkpt>
      <trkpt lat="47.93892" lon="-2.46544">
        <ele>46.3</ele>
        <time>2024-12-19T10:14:57Z</time>
      </trkpt>
      <trkpt lat="47.93892" lon="-2.46545">
        <ele>46.4</ele>
        <time>2024-12-19T10:14:58Z</time>
      </trkpt>
      <trkpt lat="47.93892" lon="-2.46546">
        <ele>46.5</ele>
        <time>2024-12-19T10:14:59Z</time>
      </trkpt>
      <trkpt lat="47.93893" lon="-2.46548">
        <ele>46.6</ele>
        <time>2024-12-19T10:15:00Z</time>
      </trkpt>
      <trkpt lat="47.93893" lon="-2.46549">
        <ele>46.7</ele>
        <time>2024-12-19T10:15:01Z</time>
      </trkpt>
      <trkpt lat="47.93893" lon="-2.46551">
        <ele>46.8</ele>
        <time>2024-12-19T10:15:02Z</time>
      </trkpt>
      <trkpt lat="47.93893" lon="-2.46553">
        <ele>47</ele>
        <time>2024-12-19T10:15:03Z</time>
      </trkpt>
      <trkpt lat="47.93893" lon="-2.46555">
        <ele>47.1</ele>
        <time>2024-12-19T10:15:04Z</time>
      </trkpt>
      <trkpt lat="47.93892" lon="-2.46556">
        <ele>47.2</ele>
        <time>2024-12-19T10:15:05Z</time>
      </trkpt>
      <trkpt lat="47.93892" lon="-2.46558">
        <ele>47.3</ele>
        <time>2024-12-19T10:15:06Z</time>
      </trkpt>
      <trkpt lat="47.93891" lon="-2.4656">
        <ele>47.4</ele>
        <time>2024-12-19T10:15:07Z</time>
      </trkpt>
      <trkpt lat="47.93891" lon="-2.46562">
        <ele>47.5</ele>
        <time>2024-12-19T10:15:08Z</time>
      </trkpt>
      <trkpt lat="47.93891" lon="-2.46564">
        <ele>47.6</ele>
        <time>2024-12-19T10:15:09Z</time>
      </trkpt>
      <trkpt lat="47.9389" lon="-2.46566">
        <ele>47.8</ele>
        <time>2024-12-19T10:15:10Z</time>
      </trkpt>
      <trkpt lat="47.9389" lon="-2.46569">
        <ele>48</ele>
        <time>2024-12-19T10:15:11Z</time>
      </trkpt>
      <trkpt lat="47.9389" lon="-2.46571">
        <ele>48.1</ele>
        <time>2024-12-19T10:15:12Z</time>
      </trkpt>
      <trkpt lat="47.9389" lon="-2.46573">
        <ele>48.3</ele>
        <time>2024-12-19T10:15:13Z</time>
      </trkpt>
      <trkpt lat="47.9389" lon="-2.46575">
        <ele>48.4</ele>
        <time>2024-12-19T10:15:14Z</time>
      </trkpt>
      <trkpt lat="47.93889" lon="-2.46578">
        <ele>48.6</ele>
        <time>2024-12-19T10:15:15Z</time>
      </trkpt>
      <trkpt lat="47.93889" lon="-2.4658">
        <ele>48.8</ele>
        <time>2024-12-19T10:15:16Z</time>
      </trkpt>
      <trkpt lat="47.93889" lon="-2.46583">
        <ele>48.9</ele>
        <time>2024-12-19T10:15:17Z</time>
      </trkpt>
      <trkpt lat="47.93889" lon="-2.46585">
        <ele>49</ele>
        <time>2024-12-19T10:15:18Z</time>
      </trkpt>
      <trkpt lat="47.93889" lon="-2.46587">
        <ele>49.1</ele>
        <time>2024-12-19T10:15:19Z</time>
      </trkpt>
      <trkpt lat="47.93888" lon="-2.46589">
        <ele>49.1</ele>
        <time>2024-12-19T10:15:20Z</time>
      </trkpt>
      <trkpt lat="47.93888" lon="-2.4659">
        <ele>49.1</ele>
        <time>2024-12-19T10:15:21Z</time>
      </trkpt>
      <trkpt lat="47.93888" lon="-2.4659">
        <ele>49.1</ele>
        <time>2024-12-19T10:15:22Z</time>
      </trkpt>
      <trkpt lat="47.93887" lon="-2.46591">
        <ele>49.1</ele>
        <time>2024-12-19T10:15:23Z</time>
      </trkpt>
      <trkpt lat="47.93887" lon="-2.46593">
        <ele>49.1</ele>
        <time>2024-12-19T10:15:24Z</time>
      </trkpt>
      <trkpt lat="47.93887" lon="-2.46595">
        <ele>49.1</ele>
        <time>2024-12-19T10:15:25Z</time>
      </trkpt>
      <trkpt lat="47.93886" lon="-2.46598">
        <ele>49.2</ele>
        <time>2024-12-19T10:15:26Z</time>
      </trkpt>
      <trkpt lat="47.93886" lon="-2.46601">
        <ele>49.3</ele>
        <time>2024-12-19T10:15:27Z</time>
      </trkpt>
      <trkpt lat="47.93885" lon="-2.46604">
        <ele>49.4</ele>
        <time>2024-12-19T10:15:28Z</time>
      </trkpt>
      <trkpt lat="47.93885" lon="-2.46606">
        <ele>49.5</ele>
        <time>2024-12-19T10:15:29Z</time>
      </trkpt>
      <trkpt lat="47.93885" lon="-2.46608">
        <ele>49.5</ele>
        <time>2024-12-19T10:15:30Z</time>
      </trkpt>
      <trkpt lat="47.93884" lon="-2.4661">
        <ele>49.6</ele>
        <time>2024-12-19T10:15:31Z</time>
      </trkpt>
      <trkpt lat="47.93884" lon="-2.46612">
        <ele>49.7</ele>
        <time>2024-12-19T10:15:32Z</time>
      </trkpt>
      <trkpt lat="47.93884" lon="-2.46613">
        <ele>49.9</ele>
        <time>2024-12-19T10:15:33Z</time>
      </trkpt>
      <trkpt lat="47.93885" lon="-2.46616">
        <ele>50.1</ele>
        <time>2024-12-19T10:15:34Z</time>
      </trkpt>
      <trkpt lat="47.93885" lon="-2.46618">
        <ele>50.3</ele>
        <time>2024-12-19T10:15:35Z</time>
      </trkpt>
      <trkpt lat="47.93885" lon="-2.46619">
        <ele>50.4</ele>
        <time>2024-12-19T10:15:36Z</time>
      </trkpt>
      <trkpt lat="47.93885" lon="-2.4662">
        <ele>50.5</ele>
        <time>2024-12-19T10:15:37Z</time>
      </trkpt>
      <trkpt lat="47.93885" lon="-2.46622">
        <ele>50.6</ele>
        <time>2024-12-19T10:15:38Z</time>
      </trkpt>
      <trkpt lat="47.93885" lon="-2.46623">
        <ele>50.8</ele>
        <time>2024-12-19T10:15:39Z</time>
      </trkpt>
      <trkpt lat="47.93885" lon="-2.46625">
        <ele>51</ele>
        <time>2024-12-19T10:15:40Z</time>
      </trkpt>
      <trkpt lat="47.93885" lon="-2.46627">
        <ele>51.1</ele>
        <time>2024-12-19T10:15:41Z</time>
      </trkpt>
      <trkpt lat="47.93885" lon="-2.46629">
        <ele>51.2</ele>
        <time>2024-12-19T10:15:42Z</time>
      </trkpt>
      <trkpt lat="47.93885" lon="-2.4663">
        <ele>51.3</ele>
        <time>2024-12-19T10:15:43Z</time>
      </trkpt>
      <trkpt lat="47.93885" lon="-2.46631">
        <ele>51.5</ele>
        <time>2024-12-19T10:15:44Z</time>
      </trkpt>
      <trkpt lat="47.93885" lon="-2.46633">
        <ele>51.6</ele>
        <time>2024-12-19T10:15:45Z</time>
      </trkpt>
      <trkpt lat="47.93885" lon="-2.46635">
        <ele>51.8</ele>
        <time>2024-12-19T10:15:46Z</time>
      </trkpt>
      <trkpt lat="47.93885" lon="-2.46637">
        <ele>52</ele>
        <time>2024-12-19T10:15:47Z</time>
      </trkpt>
      <trkpt lat="47.93885" lon="-2.46639">
        <ele>52.2</ele>
        <time>2024-12-19T10:15:48Z</time>
      </trkpt>
      <trkpt lat="47.93885" lon="-2.46641">
        <ele>52.3</ele>
        <time>2024-12-19T10:15:49Z</time>
      </trkpt>
      <trkpt lat="47.93885" lon="-2.46643">
        <ele>52.3</ele>
        <time>2024-12-19T10:15:50Z</time>
      </trkpt>
      <trkpt lat="47.93886" lon="-2.46645">
        <ele>52.4</ele>
        <time>2024-12-19T10:15:51Z</time>
      </trkpt>
      <trkpt lat="47.93886" lon="-2.46647">
        <ele>52.5</ele>
        <time>2024-12-19T10:15:52Z</time>
      </trkpt>
      <trkpt lat="47.93886" lon="-2.46649">
        <ele>52.5</ele>
        <time>2024-12-19T10:15:53Z</time>
      </trkpt>
      <trkpt lat="47.93886" lon="-2.4665">
        <ele>52.6</ele>
        <time>2024-12-19T10:15:54Z</time>
      </trkpt>
      <trkpt lat="47.93885" lon="-2.46652">
        <ele>52.7</ele>
        <time>2024-12-19T10:15:55Z</time>
      </trkpt>
      <trkpt lat="47.93885" lon="-2.46654">
        <ele>52.9</ele>
        <time>2024-12-19T10:15:56Z</time>
      </trkpt>
      <trkpt lat="47.93884" lon="-2.46656">
        <ele>53</ele>
        <time>2024-12-19T10:15:57Z</time>
      </trkpt>
      <trkpt lat="47.93884" lon="-2.46658">
        <ele>53.1</ele>
        <time>2024-12-19T10:15:58Z</time>
      </trkpt>
      <trkpt lat="47.93884" lon="-2.46659">
        <ele>53.2</ele>
        <time>2024-12-19T10:15:59Z</time>
      </trkpt>
      <trkpt lat="47.93883" lon="-2.46661">
        <ele>53.3</ele>
        <time>2024-12-19T10:16:00Z</time>
      </trkpt>
      <trkpt lat="47.93883" lon="-2.46663">
        <ele>53.4</ele>
        <time>2024-12-19T10:16:01Z</time>
      </trkpt>
      <trkpt lat="47.93883" lon="-2.46665">
        <ele>53.5</ele>
        <time>2024-12-19T10:16:02Z</time>
      </trkpt>
      <trkpt lat="47.93884" lon="-2.46667">
        <ele>53.5</ele>
        <time>2024-12-19T10:16:03Z</time>
      </trkpt>
      <trkpt lat="47.93884" lon="-2.46669">
        <ele>53.6</ele>
        <time>2024-12-19T10:16:04Z</time>
      </trkpt>
      <trkpt lat="47.93884" lon="-2.46671">
        <ele>53.7</ele>
        <time>2024-12-19T10:16:05Z</time>
      </trkpt>
      <trkpt lat="47.93883" lon="-2.46673">
        <ele>53.9</ele>
        <time>2024-12-19T10:16:06Z</time>
      </trkpt>
      <trkpt lat="47.93883" lon="-2.46674">
        <ele>54</ele>
        <time>2024-12-19T10:16:07Z</time>
      </trkpt>
      <trkpt lat="47.93883" lon="-2.46676">
        <ele>54.1</ele>
        <time>2024-12-19T10:16:08Z</time>
      </trkpt>
      <trkpt lat="47.93882" lon="-2.46677">
        <ele>54.2</ele>
        <time>2024-12-19T10:16:09Z</time>
      </trkpt>
      <trkpt lat="47.93882" lon="-2.46679">
        <ele>54.3</ele>
        <time>2024-12-19T10:16:10Z</time>
      </trkpt>
      <trkpt lat="47.93882" lon="-2.46681">
        <ele>54.4</ele>
        <time>2024-12-19T10:16:11Z</time>
      </trkpt>
      <trkpt lat="47.93882" lon="-2.46683">
        <ele>54.5</ele>
        <time>2024-12-19T10:16:12Z</time>
      </trkpt>
      <trkpt lat="47.93882" lon="-2.46686">
        <ele>54.6</ele>
        <time>2024-12-19T10:16:13Z</time>
      </trkpt>
      <trkpt lat="47.93882" lon="-2.46687">
        <ele>54.7</ele>
        <time>2024-12-19T10:16:14Z</time>
      </trkpt>
      <trkpt lat="47.93881" lon="-2.46689">
        <ele>54.8</ele>
        <time>2024-12-19T10:16:15Z</time>
      </trkpt>
      <trkpt lat="47.93881" lon="-2.4669">
        <ele>54.9</ele>
        <time>2024-12-19T10:16:16Z</time>
      </trkpt>
      <trkpt lat="47.93881" lon="-2.46692">
        <ele>55.1</ele>
        <time>2024-12-19T10:16:17Z</time>
      </trkpt>
      <trkpt lat="47.93881" lon="-2.46694">
        <ele>55.2</ele>
        <time>2024-12-19T10:16:18Z</time>
      </trkpt>
      <trkpt lat="47.9388" lon="-2.46695">
        <ele>55.2</ele>
        <time>2024-12-19T10:16:19Z</time>
      </trkpt>
      <trkpt lat="47.9388" lon="-2.46696">
        <ele>55.3</ele>
        <time>2024-12-19T10:16:20Z</time>
      </trkpt>
      <trkpt lat="47.9388" lon="-2.46698">
        <ele>55.3</ele>
        <time>2024-12-19T10:16:21Z</time>
      </trkpt>
      <trkpt lat="47.9388" lon="-2.46699">
        <ele>55.4</ele>
        <time>2024-12-19T10:16:22Z</time>
      </trkpt>
      <trkpt lat="47.9388" lon="-2.467">
        <ele>55.4</ele>
        <time>2024-12-19T10:16:23Z</time>
      </trkpt>
      <trkpt lat="47.9388" lon="-2.46701">
        <ele>55.4</ele>
        <time>2024-12-19T10:16:24Z</time>
      </trkpt>
      <trkpt lat="47.9388" lon="-2.46702">
        <ele>55.4</ele>
        <time>2024-12-19T10:16:25Z</time>
      </trkpt>
      <trkpt lat="47.9388" lon="-2.46705">
        <ele>55.6</ele>
        <time>2024-12-19T10:16:26Z</time>
      </trkpt>
      <trkpt lat="47.93879" lon="-2.46707">
        <ele>55.7</ele>
        <time>2024-12-19T10:16:27Z</time>
      </trkpt>
      <trkpt lat="47.93878" lon="-2.46709">
        <ele>55.9</ele>
        <time>2024-12-19T10:16:28Z</time>
      </trkpt>
      <trkpt lat="47.93878" lon="-2.46712">
        <ele>56.1</ele>
        <time>2024-12-19T10:16:29Z</time>
      </trkpt>
      <trkpt lat="47.93877" lon="-2.46714">
        <ele>56.2</ele>
        <time>2024-12-19T10:16:30Z</time>
      </trkpt>
      <trkpt lat="47.93877" lon="-2.46715">
        <ele>56.3</ele>
        <time>2024-12-19T10:16:31Z</time>
      </trkpt>
      <trkpt lat="47.93877" lon="-2.46716">
        <ele>56.3</ele>
        <time>2024-12-19T10:16:32Z</time>
      </trkpt>
      <trkpt lat="47.93878" lon="-2.46716">
        <ele>56.3</ele>
        <time>2024-12-19T10:16:33Z</time>
      </trkpt>
      <trkpt lat="47.93878" lon="-2.46716">
        <ele>56.2</ele>
        <time>2024-12-19T10:16:34Z</time>
      </trkpt>
      <trkpt lat="47.93878" lon="-2.46717">
        <ele>56.3</ele>
        <time>2024-12-19T10:16:35Z</time>
      </trkpt>
      <trkpt lat="47.93878" lon="-2.46717">
        <ele>56.3</ele>
        <time>2024-12-19T10:16:36Z</time>
      </trkpt>
      <trkpt lat="47.93877" lon="-2.46719">
        <ele>56.4</ele>
        <time>2024-12-19T10:16:37Z</time>
      </trkpt>
      <trkpt lat="47.93876" lon="-2.4672">
        <ele>56.6</ele>
        <time>2024-12-19T10:16:38Z</time>
      </trkpt>
      <trkpt lat="47.93876" lon="-2.46722">
        <ele>56.7</ele>
        <time>2024-12-19T10:16:39Z</time>
      </trkpt>
      <trkpt lat="47.93876" lon="-2.46723">
        <ele>56.9</ele>
        <time>2024-12-19T10:16:40Z</time>
      </trkpt>
      <trkpt lat="47.93875" lon="-2.46726">
        <ele>57</ele>
        <time>2024-12-19T10:16:41Z</time>
      </trkpt>
      <trkpt lat="47.93874" lon="-2.46728">
        <ele>57.2</ele>
        <time>2024-12-19T10:16:42Z</time>
      </trkpt>
      <trkpt lat="47.93874" lon="-2.46729">
        <ele>57.4</ele>
        <time>2024-12-19T10:16:43Z</time>
      </trkpt>
      <trkpt lat="47.93873" lon="-2.46731">
        <ele>57.7</ele>
        <time>2024-12-19T10:16:44Z</time>
      </trkpt>
      <trkpt lat="47.93872" lon="-2.46732">
        <ele>58</ele>
        <time>2024-12-19T10:16:45Z</time>
      </trkpt>
      <trkpt lat="47.93871" lon="-2.46734">
        <ele>58.3</ele>
        <time>2024-12-19T10:16:46Z</time>
      </trkpt>
      <trkpt lat="47.9387" lon="-2.46735">
        <ele>58.5</ele>
        <time>2024-12-19T10:16:47Z</time>
      </trkpt>
      <trkpt lat="47.93869" lon="-2.46737">
        <ele>58.8</ele>
        <time>2024-12-19T10:16:48Z</time>
      </trkpt>
      <trkpt lat="47.93868" lon="-2.46739">
        <ele>59</ele>
        <time>2024-12-19T10:16:49Z</time>
      </trkpt>
      <trkpt lat="47.93867" lon="-2.4674">
        <ele>59.1</ele>
        <time>2024-12-19T10:16:50Z</time>
      </trkpt>
      <trkpt lat="47.93867" lon="-2.46742">
        <ele>59.4</ele>
        <time>2024-12-19T10:16:51Z</time>
      </trkpt>
      <trkpt lat="47.93865" lon="-2.46744">
        <ele>59.8</ele>
        <time>2024-12-19T10:16:52Z</time>
      </trkpt>
      <trkpt lat="47.93864" lon="-2.46746">
        <ele>60</ele>
        <time>2024-12-19T10:16:53Z</time>
      </trkpt>
      <trkpt lat="47.93864" lon="-2.46747">
        <ele>60.3</ele>
        <time>2024-12-19T10:16:54Z</time>
      </trkpt>
      <trkpt lat="47.93863" lon="-2.46749">
        <ele>60.6</ele>
        <time>2024-12-19T10:16:55Z</time>
      </trkpt>
      <trkpt lat="47.93861" lon="-2.4675">
        <ele>60.9</ele>
        <time>2024-12-19T10:16:56Z</time>
      </trkpt>
      <trkpt lat="47.9386" lon="-2.46752">
        <ele>61.1</ele>
        <time>2024-12-19T10:16:57Z</time>
      </trkpt>
      <trkpt lat="47.93859" lon="-2.46753">
        <ele>61.2</ele>
        <time>2024-12-19T10:16:58Z</time>
      </trkpt>
      <trkpt lat="47.93858" lon="-2.46754">
        <ele>61.3</ele>
        <time>2024-12-19T10:16:59Z</time>
      </trkpt>
      <trkpt lat="47.93857" lon="-2.46756">
        <ele>61.4</ele>
        <time>2024-12-19T10:17:00Z</time>
      </trkpt>
      <trkpt lat="47.93856" lon="-2.46758">
        <ele>61.5</ele>
        <time>2024-12-19T10:17:01Z</time>
      </trkpt>
      <trkpt lat="47.93855" lon="-2.4676">
        <ele>61.6</ele>
        <time>2024-12-19T10:17:02Z</time>
      </trkpt>
      <trkpt lat="47.93854" lon="-2.46761">
        <ele>61.7</ele>
        <time>2024-12-19T10:17:03Z</time>
      </trkpt>
      <trkpt lat="47.93853" lon="-2.46762">
        <ele>61.7</ele>
        <time>2024-12-19T10:17:04Z</time>
      </trkpt>
      <trkpt lat="47.93852" lon="-2.46763">
        <ele>61.8</ele>
        <time>2024-12-19T10:17:05Z</time>
      </trkpt>
      <trkpt lat="47.93851" lon="-2.46763">
        <ele>61.8</ele>
        <time>2024-12-19T10:17:06Z</time>
      </trkpt>
      <trkpt lat="47.9385" lon="-2.46763">
        <ele>61.8</ele>
        <time>2024-12-19T10:17:07Z</time>
      </trkpt>
      <trkpt lat="47.93849" lon="-2.46764">
        <ele>61.8</ele>
        <time>2024-12-19T10:17:08Z</time>
      </trkpt>
      <trkpt lat="47.93848" lon="-2.46765">
        <ele>61.8</ele>
        <time>2024-12-19T10:17:09Z</time>
      </trkpt>
      <trkpt lat="47.93847" lon="-2.46765">
        <ele>61.8</ele>
        <time>2024-12-19T10:17:10Z</time>
      </trkpt>
      <trkpt lat="47.93846" lon="-2.46767">
        <ele>61.9</ele>
        <time>2024-12-19T10:17:11Z</time>
      </trkpt>
      <trkpt lat="47.93845" lon="-2.46768">
        <ele>61.9</ele>
        <time>2024-12-19T10:17:12Z</time>
      </trkpt>
      <trkpt lat="47.93843" lon="-2.4677">
        <ele>62</ele>
        <time>2024-12-19T10:17:13Z</time>
      </trkpt>
      <trkpt lat="47.93842" lon="-2.46771">
        <ele>62</ele>
        <time>2024-12-19T10:17:14Z</time>
      </trkpt>
      <trkpt lat="47.93841" lon="-2.46773">
        <ele>62</ele>
        <time>2024-12-19T10:17:15Z</time>
      </trkpt>
      <trkpt lat="47.93839" lon="-2.46775">
        <ele>62.1</ele>
        <time>2024-12-19T10:17:16Z</time>
      </trkpt>
      <trkpt lat="47.93837" lon="-2.46778">
        <ele>62.1</ele>
        <time>2024-12-19T10:17:17Z</time>
      </trkpt>
      <trkpt lat="47.93836" lon="-2.4678">
        <ele>62.2</ele>
        <time>2024-12-19T10:17:18Z</time>
      </trkpt>
      <trkpt lat="47.93835" lon="-2.46781">
        <ele>62.3</ele>
        <time>2024-12-19T10:17:19Z</time>
      </trkpt>
      <trkpt lat="47.93834" lon="-2.46783">
        <ele>62.4</ele>
        <time>2024-12-19T10:17:20Z</time>
      </trkpt>
      <trkpt lat="47.93833" lon="-2.46783">
        <ele>62.4</ele>
        <time>2024-12-19T10:17:21Z</time>
      </trkpt>
      <trkpt lat="47.93832" lon="-2.46785">
        <ele>62.5</ele>
        <time>2024-12-19T10:17:22Z</time>
      </trkpt>
      <trkpt lat="47.93831" lon="-2.46786">
        <ele>62.5</ele>
        <time>2024-12-19T10:17:23Z</time>
      </trkpt>
      <trkpt lat="47.9383" lon="-2.46787">
        <ele>62.6</ele>
        <time>2024-12-19T10:17:24Z</time>
      </trkpt>
      <trkpt lat="47.93829" lon="-2.46788">
        <ele>62.6</ele>
        <time>2024-12-19T10:17:25Z</time>
      </trkpt>
      <trkpt lat="47.93829" lon="-2.46788">
        <ele>62.6</ele>
        <time>2024-12-19T10:17:26Z</time>
      </trkpt>
      <trkpt lat="47.93828" lon="-2.4679">
        <ele>62.7</ele>
        <time>2024-12-19T10:17:27Z</time>
      </trkpt>
      <trkpt lat="47.93827" lon="-2.46791">
        <ele>62.8</ele>
        <time>2024-12-19T10:17:28Z</time>
      </trkpt>
      <trkpt lat="47.93826" lon="-2.46793">
        <ele>62.8</ele>
        <time>2024-12-19T10:17:29Z</time>
      </trkpt>
      <trkpt lat="47.93825" lon="-2.46795">
        <ele>62.9</ele>
        <time>2024-12-19T10:17:30Z</time>
      </trkpt>
      <trkpt lat="47.93824" lon="-2.46796">
        <ele>63</ele>
        <time>2024-12-19T10:17:31Z</time>
      </trkpt>
      <trkpt lat="47.93824" lon="-2.46797">
        <ele>63.1</ele>
        <time>2024-12-19T10:17:32Z</time>
      </trkpt>
      <trkpt lat="47.93823" lon="-2.46799">
        <ele>63.1</ele>
        <time>2024-12-19T10:17:33Z</time>
      </trkpt>
      <trkpt lat="47.93823" lon="-2.468">
        <ele>63.2</ele>
        <time>2024-12-19T10:17:34Z</time>
      </trkpt>
      <trkpt lat="47.93822" lon="-2.46801">
        <ele>63.3</ele>
        <time>2024-12-19T10:17:35Z</time>
      </trkpt>
      <trkpt lat="47.93821" lon="-2.46803">
        <ele>63.4</ele>
        <time>2024-12-19T10:17:36Z</time>
      </trkpt>
      <trkpt lat="47.93821" lon="-2.46805">
        <ele>63.5</ele>
        <time>2024-12-19T10:17:37Z</time>
      </trkpt>
      <trkpt lat="47.9382" lon="-2.46807">
        <ele>63.5</ele>
        <time>2024-12-19T10:17:38Z</time>
      </trkpt>
      <trkpt lat="47.93819" lon="-2.46809">
        <ele>63.6</ele>
        <time>2024-12-19T10:17:39Z</time>
      </trkpt>
      <trkpt lat="47.93819" lon="-2.4681">
        <ele>63.6</ele>
        <time>2024-12-19T10:17:40Z</time>
      </trkpt>
      <trkpt lat="47.93819" lon="-2.46811">
        <ele>63.6</ele>
        <time>2024-12-19T10:17:41Z</time>
      </trkpt>
      <trkpt lat="47.93818" lon="-2.46812">
        <ele>63.6</ele>
        <time>2024-12-19T10:17:42Z</time>
      </trkpt>
      <trkpt lat="47.93818" lon="-2.46814">
        <ele>63.6</ele>
        <time>2024-12-19T10:17:43Z</time>
      </trkpt>
      <trkpt lat="47.93818" lon="-2.46815">
        <ele>63.6</ele>
        <time>2024-12-19T10:17:44Z</time>
      </trkpt>
      <trkpt lat="47.93818" lon="-2.46816">
        <ele>63.6</ele>
        <time>2024-12-19T10:17:45Z</time>
      </trkpt>
      <trkpt lat="47.93818" lon="-2.46817">
        <ele>63.7</ele>
        <time>2024-12-19T10:17:46Z</time>
      </trkpt>
      <trkpt lat="47.93818" lon="-2.46818">
        <ele>63.7</ele>
        <time>2024-12-19T10:17:47Z</time>
      </trkpt>
      <trkpt lat="47.93818" lon="-2.46819">
        <ele>63.7</ele>
        <time>2024-12-19T10:17:48Z</time>
      </trkpt>
      <trkpt lat="47.93817" lon="-2.46821">
        <ele>63.7</ele>
        <time>2024-12-19T10:17:49Z</time>
      </trkpt>
      <trkpt lat="47.93817" lon="-2.46823">
        <ele>63.8</ele>
        <time>2024-12-19T10:17:50Z</time>
      </trkpt>
      <trkpt lat="47.93817" lon="-2.46825">
        <ele>63.8</ele>
        <time>2024-12-19T10:17:51Z</time>
      </trkpt>
      <trkpt lat="47.93816" lon="-2.46826">
        <ele>63.8</ele>
        <time>2024-12-19T10:17:52Z</time>
      </trkpt>
      <trkpt lat="47.93816" lon="-2.46828">
        <ele>63.9</ele>
        <time>2024-12-19T10:17:53Z</time>
      </trkpt>
      <trkpt lat="47.93816" lon="-2.4683">
        <ele>63.9</ele>
        <time>2024-12-19T10:17:54Z</time>
      </trkpt>
      <trkpt lat="47.93816" lon="-2.46832">
        <ele>64</ele>
        <time>2024-12-19T10:17:55Z</time>
      </trkpt>
      <trkpt lat="47.93816" lon="-2.46834">
        <ele>64</ele>
        <time>2024-12-19T10:17:56Z</time>
      </trkpt>
      <trkpt lat="47.93816" lon="-2.46836">
        <ele>64.1</ele>
        <time>2024-12-19T10:17:57Z</time>
      </trkpt>
      <trkpt lat="47.93816" lon="-2.46838">
        <ele>64.2</ele>
        <time>2024-12-19T10:17:58Z</time>
      </trkpt>
      <trkpt lat="47.93816" lon="-2.4684">
        <ele>64.2</ele>
        <time>2024-12-19T10:17:59Z</time>
      </trkpt>
      <trkpt lat="47.93816" lon="-2.46841">
        <ele>64.3</ele>
        <time>2024-12-19T10:18:00Z</time>
      </trkpt>
      <trkpt lat="47.93816" lon="-2.46843">
        <ele>64.3</ele>
        <time>2024-12-19T10:18:01Z</time>
      </trkpt>
      <trkpt lat="47.93816" lon="-2.46845">
        <ele>64.4</ele>
        <time>2024-12-19T10:18:02Z</time>
      </trkpt>
      <trkpt lat="47.93816" lon="-2.46848">
        <ele>64.5</ele>
        <time>2024-12-19T10:18:03Z</time>
      </trkpt>
      <trkpt lat="47.93816" lon="-2.4685">
        <ele>64.6</ele>
        <time>2024-12-19T10:18:04Z</time>
      </trkpt>
      <trkpt lat="47.93815" lon="-2.46852">
        <ele>64.7</ele>
        <time>2024-12-19T10:18:05Z</time>
      </trkpt>
      <trkpt lat="47.93815" lon="-2.46853">
        <ele>64.7</ele>
        <time>2024-12-19T10:18:06Z</time>
      </trkpt>
      <trkpt lat="47.93815" lon="-2.46855">
        <ele>64.8</ele>
        <time>2024-12-19T10:18:07Z</time>
      </trkpt>
      <trkpt lat="47.93815" lon="-2.46857">
        <ele>64.8</ele>
        <time>2024-12-19T10:18:08Z</time>
      </trkpt>
      <trkpt lat="47.93814" lon="-2.46858">
        <ele>64.9</ele>
        <time>2024-12-19T10:18:09Z</time>
      </trkpt>
      <trkpt lat="47.93814" lon="-2.4686">
        <ele>65</ele>
        <time>2024-12-19T10:18:10Z</time>
      </trkpt>
      <trkpt lat="47.93814" lon="-2.46861">
        <ele>65</ele>
        <time>2024-12-19T10:18:11Z</time>
      </trkpt>
      <trkpt lat="47.93813" lon="-2.46863">
        <ele>65.1</ele>
        <time>2024-12-19T10:18:12Z</time>
      </trkpt>
      <trkpt lat="47.93812" lon="-2.46864">
        <ele>65.1</ele>
        <time>2024-12-19T10:18:13Z</time>
      </trkpt>
      <trkpt lat="47.93811" lon="-2.46866">
        <ele>65.2</ele>
        <time>2024-12-19T10:18:14Z</time>
      </trkpt>
      <trkpt lat="47.93811" lon="-2.46867">
        <ele>65.2</ele>
        <time>2024-12-19T10:18:15Z</time>
      </trkpt>
      <trkpt lat="47.93811" lon="-2.46869">
        <ele>65.3</ele>
        <time>2024-12-19T10:18:16Z</time>
      </trkpt>
      <trkpt lat="47.93811" lon="-2.46873">
        <ele>65.4</ele>
        <time>2024-12-19T10:18:18Z</time>
      </trkpt>
      <trkpt lat="47.9381" lon="-2.46875">
        <ele>65.5</ele>
        <time>2024-12-19T10:18:19Z</time>
      </trkpt>
      <trkpt lat="47.93811" lon="-2.46877">
        <ele>65.6</ele>
        <time>2024-12-19T10:18:20Z</time>
      </trkpt>
      <trkpt lat="47.9381" lon="-2.46879">
        <ele>65.6</ele>
        <time>2024-12-19T10:18:21Z</time>
      </trkpt>
      <trkpt lat="47.9381" lon="-2.46881">
        <ele>65.7</ele>
        <time>2024-12-19T10:18:22Z</time>
      </trkpt>
      <trkpt lat="47.9381" lon="-2.46883">
        <ele>65.8</ele>
        <time>2024-12-19T10:18:23Z</time>
      </trkpt>
      <trkpt lat="47.9381" lon="-2.46885">
        <ele>65.9</ele>
        <time>2024-12-19T10:18:24Z</time>
      </trkpt>
      <trkpt lat="47.9381" lon="-2.46887">
        <ele>65.9</ele>
        <time>2024-12-19T10:18:25Z</time>
      </trkpt>
      <trkpt lat="47.9381" lon="-2.46888">
        <ele>66</ele>
        <time>2024-12-19T10:18:26Z</time>
      </trkpt>
      <trkpt lat="47.9381" lon="-2.4689">
        <ele>66</ele>
        <time>2024-12-19T10:18:27Z</time>
      </trkpt>
      <trkpt lat="47.9381" lon="-2.46892">
        <ele>66</ele>
        <time>2024-12-19T10:18:28Z</time>
      </trkpt>
      <trkpt lat="47.9381" lon="-2.46894">
        <ele>66</ele>
        <time>2024-12-19T10:18:29Z</time>
      </trkpt>
      <trkpt lat="47.9381" lon="-2.46896">
        <ele>66</ele>
        <time>2024-12-19T10:18:30Z</time>
      </trkpt>
      <trkpt lat="47.93809" lon="-2.46898">
        <ele>66</ele>
        <time>2024-12-19T10:18:31Z</time>
      </trkpt>
      <trkpt lat="47.93809" lon="-2.469">
        <ele>66</ele>
        <time>2024-12-19T10:18:32Z</time>
      </trkpt>
      <trkpt lat="47.93809" lon="-2.46902">
        <ele>66</ele>
        <time>2024-12-19T10:18:33Z</time>
      </trkpt>
      <trkpt lat="47.93809" lon="-2.46904">
        <ele>66</ele>
        <time>2024-12-19T10:18:34Z</time>
      </trkpt>
      <trkpt lat="47.93808" lon="-2.46906">
        <ele>66</ele>
        <time>2024-12-19T10:18:35Z</time>
      </trkpt>
      <trkpt lat="47.93808" lon="-2.46908">
        <ele>66</ele>
        <time>2024-12-19T10:18:36Z</time>
      </trkpt>
      <trkpt lat="47.93807" lon="-2.46909">
        <ele>66</ele>
        <time>2024-12-19T10:18:37Z</time>
      </trkpt>
      <trkpt lat="47.93807" lon="-2.46911">
        <ele>66</ele>
        <time>2024-12-19T10:18:38Z</time>
      </trkpt>
      <trkpt lat="47.93806" lon="-2.46912">
        <ele>66</ele>
        <time>2024-12-19T10:18:39Z</time>
      </trkpt>
      <trkpt lat="47.93805" lon="-2.46914">
        <ele>66</ele>
        <time>2024-12-19T10:18:40Z</time>
      </trkpt>
      <trkpt lat="47.93804" lon="-2.46915">
        <ele>65.9</ele>
        <time>2024-12-19T10:18:41Z</time>
      </trkpt>
      <trkpt lat="47.93804" lon="-2.46916">
        <ele>65.8</ele>
        <time>2024-12-19T10:18:42Z</time>
      </trkpt>
      <trkpt lat="47.93803" lon="-2.46917">
        <ele>65.7</ele>
        <time>2024-12-19T10:18:43Z</time>
      </trkpt>
      <trkpt lat="47.93803" lon="-2.46918">
        <ele>65.7</ele>
        <time>2024-12-19T10:18:44Z</time>
      </trkpt>
      <trkpt lat="47.93802" lon="-2.46918">
        <ele>65.6</ele>
        <time>2024-12-19T10:18:45Z</time>
      </trkpt>
      <trkpt lat="47.93801" lon="-2.46919">
        <ele>65.5</ele>
        <time>2024-12-19T10:18:46Z</time>
      </trkpt>
      <trkpt lat="47.938" lon="-2.4692">
        <ele>65.4</ele>
        <time>2024-12-19T10:18:47Z</time>
      </trkpt>
      <trkpt lat="47.93799" lon="-2.46921">
        <ele>65.3</ele>
        <time>2024-12-19T10:18:48Z</time>
      </trkpt>
      <trkpt lat="47.93798" lon="-2.46922">
        <ele>65.1</ele>
        <time>2024-12-19T10:18:49Z</time>
      </trkpt>
      <trkpt lat="47.93797" lon="-2.46923">
        <ele>65</ele>
        <time>2024-12-19T10:18:50Z</time>
      </trkpt>
      <trkpt lat="47.93796" lon="-2.46924">
        <ele>64.9</ele>
        <time>2024-12-19T10:18:51Z</time>
      </trkpt>
      <trkpt lat="47.93796" lon="-2.46925">
        <ele>64.8</ele>
        <time>2024-12-19T10:18:52Z</time>
      </trkpt>
      <trkpt lat="47.93795" lon="-2.46926">
        <ele>64.7</ele>
        <time>2024-12-19T10:18:53Z</time>
      </trkpt>
      <trkpt lat="47.93795" lon="-2.46926">
        <ele>64.7</ele>
        <time>2024-12-19T10:18:54Z</time>
      </trkpt>
      <trkpt lat="47.93794" lon="-2.46927">
        <ele>64.6</ele>
        <time>2024-12-19T10:18:55Z</time>
      </trkpt>
      <trkpt lat="47.93793" lon="-2.46928">
        <ele>64.5</ele>
        <time>2024-12-19T10:18:56Z</time>
      </trkpt>
      <trkpt lat="47.93792" lon="-2.46929">
        <ele>64.4</ele>
        <time>2024-12-19T10:18:57Z</time>
      </trkpt>
      <trkpt lat="47.93791" lon="-2.4693">
        <ele>64.2</ele>
        <time>2024-12-19T10:18:58Z</time>
      </trkpt>
      <trkpt lat="47.9379" lon="-2.46931">
        <ele>64</ele>
        <time>2024-12-19T10:18:59Z</time>
      </trkpt>
      <trkpt lat="47.93788" lon="-2.46933">
        <ele>63.8</ele>
        <time>2024-12-19T10:19:00Z</time>
      </trkpt>
      <trkpt lat="47.93787" lon="-2.46934">
        <ele>63.6</ele>
        <time>2024-12-19T10:19:01Z</time>
      </trkpt>
      <trkpt lat="47.93786" lon="-2.46935">
        <ele>63.4</ele>
        <time>2024-12-19T10:19:02Z</time>
      </trkpt>
      <trkpt lat="47.93785" lon="-2.46937">
        <ele>63.2</ele>
        <time>2024-12-19T10:19:03Z</time>
      </trkpt>
      <trkpt lat="47.93783" lon="-2.46938">
        <ele>62.9</ele>
        <time>2024-12-19T10:19:04Z</time>
      </trkpt>
      <trkpt lat="47.93782" lon="-2.4694">
        <ele>62.7</ele>
        <time>2024-12-19T10:19:05Z</time>
      </trkpt>
      <trkpt lat="47.93781" lon="-2.46941">
        <ele>62.6</ele>
        <time>2024-12-19T10:19:06Z</time>
      </trkpt>
      <trkpt lat="47.93781" lon="-2.46942">
        <ele>62.5</ele>
        <time>2024-12-19T10:19:07Z</time>
      </trkpt>
      <trkpt lat="47.9378" lon="-2.46944">
        <ele>62.4</ele>
        <time>2024-12-19T10:19:08Z</time>
      </trkpt>
      <trkpt lat="47.9378" lon="-2.46945">
        <ele>62.2</ele>
        <time>2024-12-19T10:19:09Z</time>
      </trkpt>
      <trkpt lat="47.93779" lon="-2.46946">
        <ele>62.2</ele>
        <time>2024-12-19T10:19:10Z</time>
      </trkpt>
      <trkpt lat="47.93778" lon="-2.46947">
        <ele>62.1</ele>
        <time>2024-12-19T10:19:11Z</time>
      </trkpt>
      <trkpt lat="47.93776" lon="-2.46948">
        <ele>62</ele>
        <time>2024-12-19T10:19:12Z</time>
      </trkpt>
      <trkpt lat="47.93775" lon="-2.46949">
        <ele>62</ele>
        <time>2024-12-19T10:19:13Z</time>
      </trkpt>
      <trkpt lat="47.93775" lon="-2.4695">
        <ele>61.9</ele>
        <time>2024-12-19T10:19:14Z</time>
      </trkpt>
      <trkpt lat="47.93774" lon="-2.46951">
        <ele>61.9</ele>
        <time>2024-12-19T10:19:15Z</time>
      </trkpt>
      <trkpt lat="47.93773" lon="-2.46952">
        <ele>61.8</ele>
        <time>2024-12-19T10:19:16Z</time>
      </trkpt>
      <trkpt lat="47.93773" lon="-2.46952">
        <ele>61.8</ele>
        <time>2024-12-19T10:19:17Z</time>
      </trkpt>
      <trkpt lat="47.93772" lon="-2.46953">
        <ele>61.8</ele>
        <time>2024-12-19T10:19:18Z</time>
      </trkpt>
      <trkpt lat="47.93771" lon="-2.46954">
        <ele>61.7</ele>
        <time>2024-12-19T10:19:19Z</time>
      </trkpt>
      <trkpt lat="47.9377" lon="-2.46955">
        <ele>61.7</ele>
        <time>2024-12-19T10:19:20Z</time>
      </trkpt>
      <trkpt lat="47.93769" lon="-2.46957">
        <ele>61.6</ele>
        <time>2024-12-19T10:19:21Z</time>
      </trkpt>
      <trkpt lat="47.93768" lon="-2.46958">
        <ele>61.4</ele>
        <time>2024-12-19T10:19:22Z</time>
      </trkpt>
      <trkpt lat="47.93767" lon="-2.4696">
        <ele>61.3</ele>
        <time>2024-12-19T10:19:23Z</time>
      </trkpt>
      <trkpt lat="47.93765" lon="-2.46962">
        <ele>61.1</ele>
        <time>2024-12-19T10:19:24Z</time>
      </trkpt>
      <trkpt lat="47.93764" lon="-2.46963">
        <ele>61</ele>
        <time>2024-12-19T10:19:25Z</time>
      </trkpt>
      <trkpt lat="47.93763" lon="-2.46965">
        <ele>60.8</ele>
        <time>2024-12-19T10:19:26Z</time>
      </trkpt>
      <trkpt lat="47.93762" lon="-2.46967">
        <ele>60.7</ele>
        <time>2024-12-19T10:19:27Z</time>
      </trkpt>
      <trkpt lat="47.93761" lon="-2.46968">
        <ele>60.6</ele>
        <time>2024-12-19T10:19:28Z</time>
      </trkpt>
      <trkpt lat="47.9376" lon="-2.46969">
        <ele>60.5</ele>
        <time>2024-12-19T10:19:29Z</time>
      </trkpt>
      <trkpt lat="47.93759" lon="-2.46971">
        <ele>60.3</ele>
        <time>2024-12-19T10:19:30Z</time>
      </trkpt>
      <trkpt lat="47.93758" lon="-2.46972">
        <ele>60.2</ele>
        <time>2024-12-19T10:19:31Z</time>
      </trkpt>
      <trkpt lat="47.93757" lon="-2.46974">
        <ele>60.1</ele>
        <time>2024-12-19T10:19:32Z</time>
      </trkpt>
      <trkpt lat="47.93757" lon="-2.46975">
        <ele>60</ele>
        <time>2024-12-19T10:19:33Z</time>
      </trkpt>
      <trkpt lat="47.93756" lon="-2.46976">
        <ele>60</ele>
        <time>2024-12-19T10:19:34Z</time>
      </trkpt>
      <trkpt lat="47.93755" lon="-2.46977">
        <ele>59.8</ele>
        <time>2024-12-19T10:19:35Z</time>
      </trkpt>
      <trkpt lat="47.93754" lon="-2.46978">
        <ele>59.7</ele>
        <time>2024-12-19T10:19:36Z</time>
      </trkpt>
      <trkpt lat="47.93752" lon="-2.46979">
        <ele>59.6</ele>
        <time>2024-12-19T10:19:37Z</time>
      </trkpt>
      <trkpt lat="47.93752" lon="-2.4698">
        <ele>59.5</ele>
        <time>2024-12-19T10:19:38Z</time>
      </trkpt>
      <trkpt lat="47.93751" lon="-2.46982">
        <ele>59.4</ele>
        <time>2024-12-19T10:19:39Z</time>
      </trkpt>
      <trkpt lat="47.9375" lon="-2.46983">
        <ele>59.3</ele>
        <time>2024-12-19T10:19:40Z</time>
      </trkpt>
      <trkpt lat="47.93749" lon="-2.46984">
        <ele>59.3</ele>
        <time>2024-12-19T10:19:41Z</time>
      </trkpt>
      <trkpt lat="47.93748" lon="-2.46985">
        <ele>59.2</ele>
        <time>2024-12-19T10:19:42Z</time>
      </trkpt>
      <trkpt lat="47.93747" lon="-2.46987">
        <ele>59.1</ele>
        <time>2024-12-19T10:19:43Z</time>
      </trkpt>
      <trkpt lat="47.93745" lon="-2.46988">
        <ele>59</ele>
        <time>2024-12-19T10:19:44Z</time>
      </trkpt>
      <trkpt lat="47.93744" lon="-2.46989">
        <ele>58.9</ele>
        <time>2024-12-19T10:19:45Z</time>
      </trkpt>
      <trkpt lat="47.93743" lon="-2.46991">
        <ele>58.8</ele>
        <time>2024-12-19T10:19:46Z</time>
      </trkpt>
      <trkpt lat="47.93742" lon="-2.46992">
        <ele>58.7</ele>
        <time>2024-12-19T10:19:47Z</time>
      </trkpt>
      <trkpt lat="47.93742" lon="-2.46993">
        <ele>58.7</ele>
        <time>2024-12-19T10:19:48Z</time>
      </trkpt>
      <trkpt lat="47.93741" lon="-2.46994">
        <ele>58.7</ele>
        <time>2024-12-19T10:19:49Z</time>
      </trkpt>
      <trkpt lat="47.93741" lon="-2.46996">
        <ele>58.6</ele>
        <time>2024-12-19T10:19:50Z</time>
      </trkpt>
      <trkpt lat="47.9374" lon="-2.46997">
        <ele>58.6</ele>
        <time>2024-12-19T10:19:51Z</time>
      </trkpt>
      <trkpt lat="47.9374" lon="-2.46999">
        <ele>58.5</ele>
        <time>2024-12-19T10:19:52Z</time>
      </trkpt>
      <trkpt lat="47.93739" lon="-2.47001">
        <ele>58.4</ele>
        <time>2024-12-19T10:19:53Z</time>
      </trkpt>
      <trkpt lat="47.93739" lon="-2.47003">
        <ele>58.3</ele>
        <time>2024-12-19T10:19:54Z</time>
      </trkpt>
      <trkpt lat="47.93738" lon="-2.47004">
        <ele>58.2</ele>
        <time>2024-12-19T10:19:55Z</time>
      </trkpt>
      <trkpt lat="47.93737" lon="-2.47006">
        <ele>58.1</ele>
        <time>2024-12-19T10:19:56Z</time>
      </trkpt>
      <trkpt lat="47.93737" lon="-2.47007">
        <ele>57.9</ele>
        <time>2024-12-19T10:19:57Z</time>
      </trkpt>
      <trkpt lat="47.93736" lon="-2.47008">
        <ele>57.8</ele>
        <time>2024-12-19T10:19:58Z</time>
      </trkpt>
      <trkpt lat="47.93735" lon="-2.47009">
        <ele>57.7</ele>
        <time>2024-12-19T10:19:59Z</time>
      </trkpt>
      <trkpt lat="47.93735" lon="-2.4701">
        <ele>57.6</ele>
        <time>2024-12-19T10:20:00Z</time>
      </trkpt>
      <trkpt lat="47.93734" lon="-2.47011">
        <ele>57.5</ele>
        <time>2024-12-19T10:20:01Z</time>
      </trkpt>
      <trkpt lat="47.93734" lon="-2.47012">
        <ele>57.4</ele>
        <time>2024-12-19T10:20:02Z</time>
      </trkpt>
      <trkpt lat="47.93733" lon="-2.47014">
        <ele>57.2</ele>
        <time>2024-12-19T10:20:03Z</time>
      </trkpt>
      <trkpt lat="47.93732" lon="-2.47015">
        <ele>57</ele>
        <time>2024-12-19T10:20:04Z</time>
      </trkpt>
      <trkpt lat="47.93731" lon="-2.47016">
        <ele>56.9</ele>
        <time>2024-12-19T10:20:05Z</time>
      </trkpt>
      <trkpt lat="47.9373" lon="-2.47017">
        <ele>56.6</ele>
        <time>2024-12-19T10:20:06Z</time>
      </trkpt>
      <trkpt lat="47.93729" lon="-2.47019">
        <ele>56.4</ele>
        <time>2024-12-19T10:20:07Z</time>
      </trkpt>
      <trkpt lat="47.93727" lon="-2.4702">
        <ele>56.1</ele>
        <time>2024-12-19T10:20:08Z</time>
      </trkpt>
      <trkpt lat="47.93726" lon="-2.47022">
        <ele>55.9</ele>
        <time>2024-12-19T10:20:09Z</time>
      </trkpt>
      <trkpt lat="47.93725" lon="-2.47023">
        <ele>55.7</ele>
        <time>2024-12-19T10:20:10Z</time>
      </trkpt>
      <trkpt lat="47.93724" lon="-2.47025">
        <ele>55.4</ele>
        <time>2024-12-19T10:20:11Z</time>
      </trkpt>
      <trkpt lat="47.93722" lon="-2.47027">
        <ele>55.1</ele>
        <time>2024-12-19T10:20:12Z</time>
      </trkpt>
      <trkpt lat="47.93721" lon="-2.47028">
        <ele>54.9</ele>
        <time>2024-12-19T10:20:13Z</time>
      </trkpt>
      <trkpt lat="47.9372" lon="-2.47029">
        <ele>54.8</ele>
        <time>2024-12-19T10:20:14Z</time>
      </trkpt>
      <trkpt lat="47.93719" lon="-2.4703">
        <ele>54.7</ele>
        <time>2024-12-19T10:20:15Z</time>
      </trkpt>
      <trkpt lat="47.93717" lon="-2.4703">
        <ele>54.5</ele>
        <time>2024-12-19T10:20:16Z</time>
      </trkpt>
      <trkpt lat="47.93717" lon="-2.47031">
        <ele>54.5</ele>
        <time>2024-12-19T10:20:17Z</time>
      </trkpt>
      <trkpt lat="47.93716" lon="-2.47031">
        <ele>54.4</ele>
        <time>2024-12-19T10:20:18Z</time>
      </trkpt>
      <trkpt lat="47.93715" lon="-2.47031">
        <ele>54.3</ele>
        <time>2024-12-19T10:20:19Z</time>
      </trkpt>
      <trkpt lat="47.93714" lon="-2.47032">
        <ele>54.2</ele>
        <time>2024-12-19T10:20:20Z</time>
      </trkpt>
      <trkpt lat="47.93714" lon="-2.47033">
        <ele>54.2</ele>
        <time>2024-12-19T10:20:21Z</time>
      </trkpt>
      <trkpt lat="47.93713" lon="-2.47033">
        <ele>54.1</ele>
        <time>2024-12-19T10:20:22Z</time>
      </trkpt>
      <trkpt lat="47.93712" lon="-2.47034">
        <ele>54</ele>
        <time>2024-12-19T10:20:23Z</time>
      </trkpt>
      <trkpt lat="47.93711" lon="-2.47035">
        <ele>53.9</ele>
        <time>2024-12-19T10:20:24Z</time>
      </trkpt>
      <trkpt lat="47.9371" lon="-2.47035">
        <ele>53.8</ele>
        <time>2024-12-19T10:20:25Z</time>
      </trkpt>
      <trkpt lat="47.93709" lon="-2.47036">
        <ele>53.7</ele>
        <time>2024-12-19T10:20:26Z</time>
      </trkpt>
      <trkpt lat="47.93708" lon="-2.47037">
        <ele>53.6</ele>
        <time>2024-12-19T10:20:27Z</time>
      </trkpt>
      <trkpt lat="47.93707" lon="-2.47037">
        <ele>53.5</ele>
        <time>2024-12-19T10:20:28Z</time>
      </trkpt>
      <trkpt lat="47.93706" lon="-2.47038">
        <ele>53.3</ele>
        <time>2024-12-19T10:20:29Z</time>
      </trkpt>
      <trkpt lat="47.93704" lon="-2.47038">
        <ele>53.2</ele>
        <time>2024-12-19T10:20:30Z</time>
      </trkpt>
      <trkpt lat="47.93703" lon="-2.47039">
        <ele>53</ele>
        <time>2024-12-19T10:20:31Z</time>
      </trkpt>
      <trkpt lat="47.93702" lon="-2.47039">
        <ele>52.9</ele>
        <time>2024-12-19T10:20:32Z</time>
      </trkpt>
      <trkpt lat="47.937" lon="-2.4704">
        <ele>52.7</ele>
        <time>2024-12-19T10:20:33Z</time>
      </trkpt>
      <trkpt lat="47.93699" lon="-2.47041">
        <ele>52.6</ele>
        <time>2024-12-19T10:20:34Z</time>
      </trkpt>
      <trkpt lat="47.93698" lon="-2.47042">
        <ele>52.4</ele>
        <time>2024-12-19T10:20:35Z</time>
      </trkpt>
      <trkpt lat="47.93697" lon="-2.47042">
        <ele>52.3</ele>
        <time>2024-12-19T10:20:36Z</time>
      </trkpt>
      <trkpt lat="47.93696" lon="-2.47042">
        <ele>52.2</ele>
        <time>2024-12-19T10:20:37Z</time>
      </trkpt>
      <trkpt lat="47.93694" lon="-2.47042">
        <ele>52</ele>
        <time>2024-12-19T10:20:38Z</time>
      </trkpt>
      <trkpt lat="47.93693" lon="-2.47042">
        <ele>51.7</ele>
        <time>2024-12-19T10:20:39Z</time>
      </trkpt>
      <trkpt lat="47.93692" lon="-2.47041">
        <ele>51.5</ele>
        <time>2024-12-19T10:20:40Z</time>
      </trkpt>
      <trkpt lat="47.93691" lon="-2.47041">
        <ele>51.3</ele>
        <time>2024-12-19T10:20:41Z</time>
      </trkpt>
      <trkpt lat="47.9369" lon="-2.47041">
        <ele>51.1</ele>
        <time>2024-12-19T10:20:42Z</time>
      </trkpt>
      <trkpt lat="47.93689" lon="-2.47041">
        <ele>51</ele>
        <time>2024-12-19T10:20:43Z</time>
      </trkpt>
      <trkpt lat="47.93688" lon="-2.47041">
        <ele>50.9</ele>
        <time>2024-12-19T10:20:44Z</time>
      </trkpt>
      <trkpt lat="47.93687" lon="-2.4704">
        <ele>50.7</ele>
        <time>2024-12-19T10:20:45Z</time>
      </trkpt>
      <trkpt lat="47.93686" lon="-2.47041">
        <ele>50.5</ele>
        <time>2024-12-19T10:20:46Z</time>
      </trkpt>
      <trkpt lat="47.93685" lon="-2.47041">
        <ele>50.3</ele>
        <time>2024-12-19T10:20:47Z</time>
      </trkpt>
      <trkpt lat="47.93684" lon="-2.47041">
        <ele>50.1</ele>
        <time>2024-12-19T10:20:48Z</time>
      </trkpt>
      <trkpt lat="47.93683" lon="-2.4704">
        <ele>49.9</ele>
        <time>2024-12-19T10:20:49Z</time>
      </trkpt>
      <trkpt lat="47.93682" lon="-2.47041">
        <ele>49.7</ele>
        <time>2024-12-19T10:20:50Z</time>
      </trkpt>
      <trkpt lat="47.93681" lon="-2.4704">
        <ele>49.5</ele>
        <time>2024-12-19T10:20:51Z</time>
      </trkpt>
      <trkpt lat="47.93679" lon="-2.4704">
        <ele>49.3</ele>
        <time>2024-12-19T10:20:52Z</time>
      </trkpt>
      <trkpt lat="47.93678" lon="-2.4704">
        <ele>49.1</ele>
        <time>2024-12-19T10:20:53Z</time>
      </trkpt>
      <trkpt lat="47.93677" lon="-2.4704">
        <ele>48.8</ele>
        <time>2024-12-19T10:20:54Z</time>
      </trkpt>
      <trkpt lat="47.93675" lon="-2.4704">
        <ele>48.6</ele>
        <time>2024-12-19T10:20:55Z</time>
      </trkpt>
      <trkpt lat="47.93674" lon="-2.4704">
        <ele>48.3</ele>
        <time>2024-12-19T10:20:56Z</time>
      </trkpt>
      <trkpt lat="47.93673" lon="-2.4704">
        <ele>48.1</ele>
        <time>2024-12-19T10:20:57Z</time>
      </trkpt>
      <trkpt lat="47.93671" lon="-2.4704">
        <ele>47.8</ele>
        <time>2024-12-19T10:20:58Z</time>
      </trkpt>
      <trkpt lat="47.93669" lon="-2.47041">
        <ele>47.5</ele>
        <time>2024-12-19T10:20:59Z</time>
      </trkpt>
      <trkpt lat="47.93668" lon="-2.47041">
        <ele>47.2</ele>
        <time>2024-12-19T10:21:00Z</time>
      </trkpt>
      <trkpt lat="47.93667" lon="-2.47041">
        <ele>47</ele>
        <time>2024-12-19T10:21:01Z</time>
      </trkpt>
      <trkpt lat="47.93665" lon="-2.47042">
        <ele>46.8</ele>
        <time>2024-12-19T10:21:02Z</time>
      </trkpt>
      <trkpt lat="47.93664" lon="-2.47042">
        <ele>46.6</ele>
        <time>2024-12-19T10:21:03Z</time>
      </trkpt>
      <trkpt lat="47.93663" lon="-2.47043">
        <ele>46.4</ele>
        <time>2024-12-19T10:21:04Z</time>
      </trkpt>
      <trkpt lat="47.93662" lon="-2.47043">
        <ele>46.2</ele>
        <time>2024-12-19T10:21:05Z</time>
      </trkpt>
      <trkpt lat="47.9366" lon="-2.47043">
        <ele>46</ele>
        <time>2024-12-19T10:21:06Z</time>
      </trkpt>
      <trkpt lat="47.93659" lon="-2.47043">
        <ele>45.8</ele>
        <time>2024-12-19T10:21:07Z</time>
      </trkpt>
      <trkpt lat="47.93658" lon="-2.47043">
        <ele>45.7</ele>
        <time>2024-12-19T10:21:08Z</time>
      </trkpt>
      <trkpt lat="47.93658" lon="-2.47042">
        <ele>45.5</ele>
        <time>2024-12-19T10:21:09Z</time>
      </trkpt>
      <trkpt lat="47.93657" lon="-2.47042">
        <ele>45.4</ele>
        <time>2024-12-19T10:21:10Z</time>
      </trkpt>
      <trkpt lat="47.93655" lon="-2.47042">
        <ele>45.1</ele>
        <time>2024-12-19T10:21:11Z</time>
      </trkpt>
      <trkpt lat="47.93654" lon="-2.47042">
        <ele>44.9</ele>
        <time>2024-12-19T10:21:12Z</time>
      </trkpt>
      <trkpt lat="47.93653" lon="-2.47042">
        <ele>44.7</ele>
        <time>2024-12-19T10:21:13Z</time>
      </trkpt>
      <trkpt lat="47.93651" lon="-2.47042">
        <ele>44.5</ele>
        <time>2024-12-19T10:21:14Z</time>
      </trkpt>
      <trkpt lat="47.9365" lon="-2.47042">
        <ele>44.3</ele>
        <time>2024-12-19T10:21:15Z</time>
      </trkpt>
      <trkpt lat="47.93649" lon="-2.47042">
        <ele>44.1</ele>
        <time>2024-12-19T10:21:16Z</time>
      </trkpt>
      <trkpt lat="47.93647" lon="-2.47042">
        <ele>43.9</ele>
        <time>2024-12-19T10:21:17Z</time>
      </trkpt>
      <trkpt lat="47.93646" lon="-2.47043">
        <ele>43.7</ele>
        <time>2024-12-19T10:21:18Z</time>
      </trkpt>
      <trkpt lat="47.93645" lon="-2.47043">
        <ele>43.5</ele>
        <time>2024-12-19T10:21:19Z</time>
      </trkpt>
      <trkpt lat="47.93644" lon="-2.47044">
        <ele>43.4</ele>
        <time>2024-12-19T10:21:20Z</time>
      </trkpt>
      <trkpt lat="47.93642" lon="-2.47046">
        <ele>43.2</ele>
        <time>2024-12-19T10:21:21Z</time>
      </trkpt>
      <trkpt lat="47.93641" lon="-2.47046">
        <ele>43</ele>
        <time>2024-12-19T10:21:22Z</time>
      </trkpt>
      <trkpt lat="47.9364" lon="-2.47047">
        <ele>42.8</ele>
        <time>2024-12-19T10:21:23Z</time>
      </trkpt>
      <trkpt lat="47.93639" lon="-2.47047">
        <ele>42.7</ele>
        <time>2024-12-19T10:21:24Z</time>
      </trkpt>
      <trkpt lat="47.93638" lon="-2.47047">
        <ele>42.6</ele>
        <time>2024-12-19T10:21:25Z</time>
      </trkpt>
      <trkpt lat="47.93637" lon="-2.47048">
        <ele>42.6</ele>
        <time>2024-12-19T10:21:26Z</time>
      </trkpt>
      <trkpt lat="47.93636" lon="-2.47048">
        <ele>42.5</ele>
        <time>2024-12-19T10:21:27Z</time>
      </trkpt>
      <trkpt lat="47.93635" lon="-2.47047">
        <ele>42.4</ele>
        <time>2024-12-19T10:21:28Z</time>
      </trkpt>
      <trkpt lat="47.93634" lon="-2.47047">
        <ele>42.4</ele>
        <time>2024-12-19T10:21:29Z</time>
      </trkpt>
      <trkpt lat="47.93633" lon="-2.47047">
        <ele>42.3</ele>
        <time>2024-12-19T10:21:30Z</time>
      </trkpt>
      <trkpt lat="47.93631" lon="-2.47048">
        <ele>42.2</ele>
        <time>2024-12-19T10:21:31Z</time>
      </trkpt>
      <trkpt lat="47.9363" lon="-2.47048">
        <ele>42.1</ele>
        <time>2024-12-19T10:21:32Z</time>
      </trkpt>
      <trkpt lat="47.93629" lon="-2.47049">
        <ele>42</ele>
        <time>2024-12-19T10:21:33Z</time>
      </trkpt>
      <trkpt lat="47.93628" lon="-2.4705">
        <ele>42</ele>
        <time>2024-12-19T10:21:34Z</time>
      </trkpt>
      <trkpt lat="47.93626" lon="-2.47051">
        <ele>41.9</ele>
        <time>2024-12-19T10:21:35Z</time>
      </trkpt>
      <trkpt lat="47.93625" lon="-2.47051">
        <ele>41.8</ele>
        <time>2024-12-19T10:21:36Z</time>
      </trkpt>
      <trkpt lat="47.93624" lon="-2.47052">
        <ele>41.8</ele>
        <time>2024-12-19T10:21:37Z</time>
      </trkpt>
      <trkpt lat="47.93622" lon="-2.47052">
        <ele>41.7</ele>
        <time>2024-12-19T10:21:38Z</time>
      </trkpt>
      <trkpt lat="47.93621" lon="-2.47052">
        <ele>41.6</ele>
        <time>2024-12-19T10:21:39Z</time>
      </trkpt>
      <trkpt lat="47.93619" lon="-2.47052">
        <ele>41.5</ele>
        <time>2024-12-19T10:21:40Z</time>
      </trkpt>
      <trkpt lat="47.93618" lon="-2.47053">
        <ele>41.4</ele>
        <time>2024-12-19T10:21:41Z</time>
      </trkpt>
      <trkpt lat="47.93617" lon="-2.47053">
        <ele>41.3</ele>
        <time>2024-12-19T10:21:42Z</time>
      </trkpt>
      <trkpt lat="47.93616" lon="-2.47053">
        <ele>41.3</ele>
        <time>2024-12-19T10:21:43Z</time>
      </trkpt>
      <trkpt lat="47.93615" lon="-2.47053">
        <ele>41.2</ele>
        <time>2024-12-19T10:21:44Z</time>
      </trkpt>
      <trkpt lat="47.93614" lon="-2.47053">
        <ele>41.1</ele>
        <time>2024-12-19T10:21:45Z</time>
      </trkpt>
      <trkpt lat="47.93613" lon="-2.47052">
        <ele>41</ele>
        <time>2024-12-19T10:21:46Z</time>
      </trkpt>
      <trkpt lat="47.93612" lon="-2.47051">
        <ele>40.9</ele>
        <time>2024-12-19T10:21:47Z</time>
      </trkpt>
      <trkpt lat="47.9361" lon="-2.47051">
        <ele>40.8</ele>
        <time>2024-12-19T10:21:48Z</time>
      </trkpt>
      <trkpt lat="47.93609" lon="-2.47051">
        <ele>40.8</ele>
        <time>2024-12-19T10:21:49Z</time>
      </trkpt>
      <trkpt lat="47.93608" lon="-2.4705">
        <ele>40.8</ele>
        <time>2024-12-19T10:21:50Z</time>
      </trkpt>
      <trkpt lat="47.93607" lon="-2.4705">
        <ele>40.8</ele>
        <time>2024-12-19T10:21:51Z</time>
      </trkpt>
      <trkpt lat="47.93606" lon="-2.4705">
        <ele>40.8</ele>
        <time>2024-12-19T10:21:52Z</time>
      </trkpt>
      <trkpt lat="47.93605" lon="-2.4705">
        <ele>40.8</ele>
        <time>2024-12-19T10:21:53Z</time>
      </trkpt>
      <trkpt lat="47.93604" lon="-2.4705">
        <ele>40.8</ele>
        <time>2024-12-19T10:21:54Z</time>
      </trkpt>
      <trkpt lat="47.93603" lon="-2.4705">
        <ele>40.9</ele>
        <time>2024-12-19T10:21:55Z</time>
      </trkpt>
      <trkpt lat="47.93602" lon="-2.4705">
        <ele>40.9</ele>
        <time>2024-12-19T10:21:56Z</time>
      </trkpt>
      <trkpt lat="47.936" lon="-2.4705">
        <ele>40.9</ele>
        <time>2024-12-19T10:21:57Z</time>
      </trkpt>
      <trkpt lat="47.93599" lon="-2.47049">
        <ele>40.9</ele>
        <time>2024-12-19T10:21:58Z</time>
      </trkpt>
      <trkpt lat="47.93598" lon="-2.47049">
        <ele>40.9</ele>
        <time>2024-12-19T10:21:59Z</time>
      </trkpt>
      <trkpt lat="47.93597" lon="-2.47049">
        <ele>40.9</ele>
        <time>2024-12-19T10:22:00Z</time>
      </trkpt>
      <trkpt lat="47.93596" lon="-2.47048">
        <ele>40.9</ele>
        <time>2024-12-19T10:22:01Z</time>
      </trkpt>
      <trkpt lat="47.93595" lon="-2.47048">
        <ele>40.9</ele>
        <time>2024-12-19T10:22:02Z</time>
      </trkpt>
      <trkpt lat="47.93593" lon="-2.47047">
        <ele>40.9</ele>
        <time>2024-12-19T10:22:03Z</time>
      </trkpt>
      <trkpt lat="47.93592" lon="-2.47047">
        <ele>40.9</ele>
        <time>2024-12-19T10:22:04Z</time>
      </trkpt>
      <trkpt lat="47.93591" lon="-2.47047">
        <ele>40.9</ele>
        <time>2024-12-19T10:22:05Z</time>
      </trkpt>
      <trkpt lat="47.9359" lon="-2.47047">
        <ele>40.9</ele>
        <time>2024-12-19T10:22:06Z</time>
      </trkpt>
      <trkpt lat="47.93589" lon="-2.47047">
        <ele>40.9</ele>
        <time>2024-12-19T10:22:07Z</time>
      </trkpt>
      <trkpt lat="47.93587" lon="-2.47046">
        <ele>41</ele>
        <time>2024-12-19T10:22:08Z</time>
      </trkpt>
      <trkpt lat="47.93587" lon="-2.47046">
        <ele>41</ele>
        <time>2024-12-19T10:22:09Z</time>
      </trkpt>
      <trkpt lat="47.93586" lon="-2.47046">
        <ele>41</ele>
        <time>2024-12-19T10:22:10Z</time>
      </trkpt>
      <trkpt lat="47.93585" lon="-2.47046">
        <ele>41</ele>
        <time>2024-12-19T10:22:11Z</time>
      </trkpt>
      <trkpt lat="47.93584" lon="-2.47046">
        <ele>41</ele>
        <time>2024-12-19T10:22:12Z</time>
      </trkpt>
      <trkpt lat="47.93583" lon="-2.47045">
        <ele>41</ele>
        <time>2024-12-19T10:22:13Z</time>
      </trkpt>
      <trkpt lat="47.93581" lon="-2.47045">
        <ele>41.1</ele>
        <time>2024-12-19T10:22:14Z</time>
      </trkpt>
      <trkpt lat="47.9358" lon="-2.47044">
        <ele>41.1</ele>
        <time>2024-12-19T10:22:15Z</time>
      </trkpt>
      <trkpt lat="47.93578" lon="-2.47044">
        <ele>41.2</ele>
        <time>2024-12-19T10:22:16Z</time>
      </trkpt>
      <trkpt lat="47.93576" lon="-2.47043">
        <ele>41.2</ele>
        <time>2024-12-19T10:22:17Z</time>
      </trkpt>
      <trkpt lat="47.93575" lon="-2.47042">
        <ele>41.3</ele>
        <time>2024-12-19T10:22:18Z</time>
      </trkpt>
      <trkpt lat="47.93574" lon="-2.47041">
        <ele>41.3</ele>
        <time>2024-12-19T10:22:19Z</time>
      </trkpt>
      <trkpt lat="47.93573" lon="-2.4704">
        <ele>41.4</ele>
        <time>2024-12-19T10:22:20Z</time>
      </trkpt>
      <trkpt lat="47.93571" lon="-2.47039">
        <ele>41.4</ele>
        <time>2024-12-19T10:22:21Z</time>
      </trkpt>
      <trkpt lat="47.93571" lon="-2.47038">
        <ele>41.5</ele>
        <time>2024-12-19T10:22:22Z</time>
      </trkpt>
      <trkpt lat="47.9357" lon="-2.47037">
        <ele>41.5</ele>
        <time>2024-12-19T10:22:23Z</time>
      </trkpt>
      <trkpt lat="47.93569" lon="-2.47036">
        <ele>41.5</ele>
        <time>2024-12-19T10:22:24Z</time>
      </trkpt>
      <trkpt lat="47.93568" lon="-2.47036">
        <ele>41.6</ele>
        <time>2024-12-19T10:22:25Z</time>
      </trkpt>
      <trkpt lat="47.93567" lon="-2.47035">
        <ele>41.6</ele>
        <time>2024-12-19T10:22:26Z</time>
      </trkpt>
      <trkpt lat="47.93566" lon="-2.47035">
        <ele>41.6</ele>
        <time>2024-12-19T10:22:27Z</time>
      </trkpt>
      <trkpt lat="47.93565" lon="-2.47034">
        <ele>41.7</ele>
        <time>2024-12-19T10:22:28Z</time>
      </trkpt>
      <trkpt lat="47.93564" lon="-2.47034">
        <ele>41.7</ele>
        <time>2024-12-19T10:22:29Z</time>
      </trkpt>
      <trkpt lat="47.93563" lon="-2.47034">
        <ele>41.7</ele>
        <time>2024-12-19T10:22:30Z</time>
      </trkpt>
      <trkpt lat="47.93561" lon="-2.47033">
        <ele>41.8</ele>
        <time>2024-12-19T10:22:31Z</time>
      </trkpt>
      <trkpt lat="47.93559" lon="-2.47033">
        <ele>41.9</ele>
        <time>2024-12-19T10:22:32Z</time>
      </trkpt>
      <trkpt lat="47.93558" lon="-2.47032">
        <ele>41.9</ele>
        <time>2024-12-19T10:22:33Z</time>
      </trkpt>
      <trkpt lat="47.93556" lon="-2.47032">
        <ele>42</ele>
        <time>2024-12-19T10:22:34Z</time>
      </trkpt>
      <trkpt lat="47.93555" lon="-2.47031">
        <ele>42</ele>
        <time>2024-12-19T10:22:35Z</time>
      </trkpt>
      <trkpt lat="47.93553" lon="-2.47031">
        <ele>42</ele>
        <time>2024-12-19T10:22:36Z</time>
      </trkpt>
      <trkpt lat="47.93552" lon="-2.47031">
        <ele>42</ele>
        <time>2024-12-19T10:22:37Z</time>
      </trkpt>
      <trkpt lat="47.9355" lon="-2.4703">
        <ele>42</ele>
        <time>2024-12-19T10:22:38Z</time>
      </trkpt>
      <trkpt lat="47.93549" lon="-2.4703">
        <ele>42</ele>
        <time>2024-12-19T10:22:39Z</time>
      </trkpt>
      <trkpt lat="47.93548" lon="-2.47029">
        <ele>42</ele>
        <time>2024-12-19T10:22:40Z</time>
      </trkpt>
      <trkpt lat="47.93547" lon="-2.47029">
        <ele>42</ele>
        <time>2024-12-19T10:22:41Z</time>
      </trkpt>
      <trkpt lat="47.93546" lon="-2.47028">
        <ele>42</ele>
        <time>2024-12-19T10:22:42Z</time>
      </trkpt>
      <trkpt lat="47.93545" lon="-2.47028">
        <ele>42</ele>
        <time>2024-12-19T10:22:43Z</time>
      </trkpt>
      <trkpt lat="47.93544" lon="-2.47027">
        <ele>42</ele>
        <time>2024-12-19T10:22:44Z</time>
      </trkpt>
      <trkpt lat="47.93543" lon="-2.47026">
        <ele>42</ele>
        <time>2024-12-19T10:22:45Z</time>
      </trkpt>
      <trkpt lat="47.93542" lon="-2.47026">
        <ele>42</ele>
        <time>2024-12-19T10:22:46Z</time>
      </trkpt>
      <trkpt lat="47.93541" lon="-2.47025">
        <ele>41.9</ele>
        <time>2024-12-19T10:22:47Z</time>
      </trkpt>
      <trkpt lat="47.9354" lon="-2.47024">
        <ele>41.9</ele>
        <time>2024-12-19T10:22:48Z</time>
      </trkpt>
      <trkpt lat="47.93539" lon="-2.47023">
        <ele>41.9</ele>
        <time>2024-12-19T10:22:49Z</time>
      </trkpt>
      <trkpt lat="47.93537" lon="-2.47022">
        <ele>41.9</ele>
        <time>2024-12-19T10:22:50Z</time>
      </trkpt>
      <trkpt lat="47.93536" lon="-2.47022">
        <ele>41.8</ele>
        <time>2024-12-19T10:22:51Z</time>
      </trkpt>
      <trkpt lat="47.93535" lon="-2.47021">
        <ele>41.8</ele>
        <time>2024-12-19T10:22:52Z</time>
      </trkpt>
      <trkpt lat="47.93534" lon="-2.4702">
        <ele>41.8</ele>
        <time>2024-12-19T10:22:53Z</time>
      </trkpt>
      <trkpt lat="47.93533" lon="-2.47019">
        <ele>41.7</ele>
        <time>2024-12-19T10:22:54Z</time>
      </trkpt>
      <trkpt lat="47.93532" lon="-2.47018">
        <ele>41.7</ele>
        <time>2024-12-19T10:22:55Z</time>
      </trkpt>
      <trkpt lat="47.93531" lon="-2.47018">
        <ele>41.7</ele>
        <time>2024-12-19T10:22:56Z</time>
      </trkpt>
      <trkpt lat="47.9353" lon="-2.47017">
        <ele>41.6</ele>
        <time>2024-12-19T10:22:57Z</time>
      </trkpt>
      <trkpt lat="47.93529" lon="-2.47016">
        <ele>41.6</ele>
        <time>2024-12-19T10:22:58Z</time>
      </trkpt>
      <trkpt lat="47.93528" lon="-2.47015">
        <ele>41.6</ele>
        <time>2024-12-19T10:22:59Z</time>
      </trkpt>
      <trkpt lat="47.93527" lon="-2.47014">
        <ele>41.5</ele>
        <time>2024-12-19T10:23:00Z</time>
      </trkpt>
      <trkpt lat="47.93525" lon="-2.47014">
        <ele>41.4</ele>
        <time>2024-12-19T10:23:01Z</time>
      </trkpt>
      <trkpt lat="47.93524" lon="-2.47013">
        <ele>41.4</ele>
        <time>2024-12-19T10:23:02Z</time>
      </trkpt>
      <trkpt lat="47.93523" lon="-2.47012">
        <ele>41.4</ele>
        <time>2024-12-19T10:23:03Z</time>
      </trkpt>
      <trkpt lat="47.93522" lon="-2.47011">
        <ele>41.3</ele>
        <time>2024-12-19T10:23:04Z</time>
      </trkpt>
      <trkpt lat="47.9352" lon="-2.47011">
        <ele>41.3</ele>
        <time>2024-12-19T10:23:05Z</time>
      </trkpt>
      <trkpt lat="47.93519" lon="-2.4701">
        <ele>41.2</ele>
        <time>2024-12-19T10:23:06Z</time>
      </trkpt>
      <trkpt lat="47.93517" lon="-2.47009">
        <ele>41.2</ele>
        <time>2024-12-19T10:23:07Z</time>
      </trkpt>
      <trkpt lat="47.93516" lon="-2.47009">
        <ele>41.2</ele>
        <time>2024-12-19T10:23:08Z</time>
      </trkpt>
      <trkpt lat="47.93515" lon="-2.47008">
        <ele>41.2</ele>
        <time>2024-12-19T10:23:09Z</time>
      </trkpt>
      <trkpt lat="47.93514" lon="-2.47007">
        <ele>41.1</ele>
        <time>2024-12-19T10:23:10Z</time>
      </trkpt>
      <trkpt lat="47.93513" lon="-2.47006">
        <ele>41.1</ele>
        <time>2024-12-19T10:23:11Z</time>
      </trkpt>
      <trkpt lat="47.93511" lon="-2.47005">
        <ele>41.1</ele>
        <time>2024-12-19T10:23:12Z</time>
      </trkpt>
      <trkpt lat="47.9351" lon="-2.47004">
        <ele>41.1</ele>
        <time>2024-12-19T10:23:13Z</time>
      </trkpt>
      <trkpt lat="47.93509" lon="-2.47004">
        <ele>41</ele>
        <time>2024-12-19T10:23:14Z</time>
      </trkpt>
      <trkpt lat="47.93508" lon="-2.47003">
        <ele>41</ele>
        <time>2024-12-19T10:23:15Z</time>
      </trkpt>
      <trkpt lat="47.93507" lon="-2.47001">
        <ele>41</ele>
        <time>2024-12-19T10:23:16Z</time>
      </trkpt>
      <trkpt lat="47.93505" lon="-2.47">
        <ele>41</ele>
        <time>2024-12-19T10:23:17Z</time>
      </trkpt>
      <trkpt lat="47.93505" lon="-2.46999">
        <ele>41</ele>
        <time>2024-12-19T10:23:18Z</time>
      </trkpt>
      <trkpt lat="47.93505" lon="-2.46999">
        <ele>41</ele>
        <time>2024-12-19T10:23:19Z</time>
      </trkpt>
      <trkpt lat="47.93504" lon="-2.46998">
        <ele>40.9</ele>
        <time>2024-12-19T10:23:20Z</time>
      </trkpt>
      <trkpt lat="47.93503" lon="-2.46997">
        <ele>40.9</ele>
        <time>2024-12-19T10:23:21Z</time>
      </trkpt>
      <trkpt lat="47.93502" lon="-2.46997">
        <ele>40.9</ele>
        <time>2024-12-19T10:23:22Z</time>
      </trkpt>
      <trkpt lat="47.93501" lon="-2.46996">
        <ele>40.8</ele>
        <time>2024-12-19T10:23:23Z</time>
      </trkpt>
      <trkpt lat="47.935" lon="-2.46994">
        <ele>40.8</ele>
        <time>2024-12-19T10:23:24Z</time>
      </trkpt>
      <trkpt lat="47.93499" lon="-2.46993">
        <ele>40.7</ele>
        <time>2024-12-19T10:23:25Z</time>
      </trkpt>
      <trkpt lat="47.93497" lon="-2.46991">
        <ele>40.6</ele>
        <time>2024-12-19T10:23:26Z</time>
      </trkpt>
      <trkpt lat="47.93496" lon="-2.4699">
        <ele>40.5</ele>
        <time>2024-12-19T10:23:27Z</time>
      </trkpt>
      <trkpt lat="47.93494" lon="-2.46988">
        <ele>40.4</ele>
        <time>2024-12-19T10:23:28Z</time>
      </trkpt>
      <trkpt lat="47.93493" lon="-2.46987">
        <ele>40.3</ele>
        <time>2024-12-19T10:23:29Z</time>
      </trkpt>
      <trkpt lat="47.93492" lon="-2.46986">
        <ele>40.2</ele>
        <time>2024-12-19T10:23:30Z</time>
      </trkpt>
      <trkpt lat="47.93491" lon="-2.46985">
        <ele>40.1</ele>
        <time>2024-12-19T10:23:31Z</time>
      </trkpt>
      <trkpt lat="47.9349" lon="-2.46983">
        <ele>40</ele>
        <time>2024-12-19T10:23:32Z</time>
      </trkpt>
      <trkpt lat="47.93489" lon="-2.46982">
        <ele>40</ele>
        <time>2024-12-19T10:23:33Z</time>
      </trkpt>
      <trkpt lat="47.93488" lon="-2.46981">
        <ele>39.9</ele>
        <time>2024-12-19T10:23:34Z</time>
      </trkpt>
      <trkpt lat="47.93487" lon="-2.4698">
        <ele>39.8</ele>
        <time>2024-12-19T10:23:35Z</time>
      </trkpt>
      <trkpt lat="47.93486" lon="-2.46979">
        <ele>39.7</ele>
        <time>2024-12-19T10:23:36Z</time>
      </trkpt>
      <trkpt lat="47.93485" lon="-2.46977">
        <ele>39.6</ele>
        <time>2024-12-19T10:23:37Z</time>
      </trkpt>
      <trkpt lat="47.93484" lon="-2.46977">
        <ele>39.6</ele>
        <time>2024-12-19T10:23:38Z</time>
      </trkpt>
      <trkpt lat="47.93483" lon="-2.46976">
        <ele>39.5</ele>
        <time>2024-12-19T10:23:39Z</time>
      </trkpt>
      <trkpt lat="47.93482" lon="-2.46975">
        <ele>39.4</ele>
        <time>2024-12-19T10:23:40Z</time>
      </trkpt>
      <trkpt lat="47.93481" lon="-2.46974">
        <ele>39.4</ele>
        <time>2024-12-19T10:23:41Z</time>
      </trkpt>
      <trkpt lat="47.93481" lon="-2.46974">
        <ele>39.4</ele>
        <time>2024-12-19T10:23:42Z</time>
      </trkpt>
      <trkpt lat="47.9348" lon="-2.46973">
        <ele>39.3</ele>
        <time>2024-12-19T10:23:43Z</time>
      </trkpt>
      <trkpt lat="47.93479" lon="-2.46972">
        <ele>39.2</ele>
        <time>2024-12-19T10:23:44Z</time>
      </trkpt>
      <trkpt lat="47.93478" lon="-2.46971">
        <ele>39.2</ele>
        <time>2024-12-19T10:23:45Z</time>
      </trkpt>
      <trkpt lat="47.93477" lon="-2.4697">
        <ele>39.1</ele>
        <time>2024-12-19T10:23:46Z</time>
      </trkpt>
      <trkpt lat="47.93477" lon="-2.46969">
        <ele>39</ele>
        <time>2024-12-19T10:23:47Z</time>
      </trkpt>
      <trkpt lat="47.93476" lon="-2.46967">
        <ele>39</ele>
        <time>2024-12-19T10:23:48Z</time>
      </trkpt>
      <trkpt lat="47.93475" lon="-2.46966">
        <ele>38.9</ele>
        <time>2024-12-19T10:23:49Z</time>
      </trkpt>
      <trkpt lat="47.93474" lon="-2.46965">
        <ele>38.8</ele>
        <time>2024-12-19T10:23:50Z</time>
      </trkpt>
      <trkpt lat="47.93473" lon="-2.46964">
        <ele>38.7</ele>
        <time>2024-12-19T10:23:51Z</time>
      </trkpt>
      <trkpt lat="47.93472" lon="-2.46963">
        <ele>38.7</ele>
        <time>2024-12-19T10:23:52Z</time>
      </trkpt>
      <trkpt lat="47.93471" lon="-2.46962">
        <ele>38.6</ele>
        <time>2024-12-19T10:23:53Z</time>
      </trkpt>
      <trkpt lat="47.9347" lon="-2.4696">
        <ele>38.5</ele>
        <time>2024-12-19T10:23:54Z</time>
      </trkpt>
      <trkpt lat="47.93469" lon="-2.46959">
        <ele>38.5</ele>
        <time>2024-12-19T10:23:55Z</time>
      </trkpt>
      <trkpt lat="47.93468" lon="-2.46958">
        <ele>38.4</ele>
        <time>2024-12-19T10:23:56Z</time>
      </trkpt>
      <trkpt lat="47.93467" lon="-2.46957">
        <ele>38.4</ele>
        <time>2024-12-19T10:23:57Z</time>
      </trkpt>
      <trkpt lat="47.93466" lon="-2.46956">
        <ele>38.3</ele>
        <time>2024-12-19T10:23:58Z</time>
      </trkpt>
      <trkpt lat="47.93465" lon="-2.46954">
        <ele>38.3</ele>
        <time>2024-12-19T10:23:59Z</time>
      </trkpt>
      <trkpt lat="47.93463" lon="-2.46953">
        <ele>38.2</ele>
        <time>2024-12-19T10:24:00Z</time>
      </trkpt>
      <trkpt lat="47.93462" lon="-2.46952">
        <ele>38.2</ele>
        <time>2024-12-19T10:24:01Z</time>
      </trkpt>
      <trkpt lat="47.93461" lon="-2.46951">
        <ele>38.1</ele>
        <time>2024-12-19T10:24:02Z</time>
      </trkpt>
      <trkpt lat="47.93459" lon="-2.46949">
        <ele>38.1</ele>
        <time>2024-12-19T10:24:03Z</time>
      </trkpt>
      <trkpt lat="47.93458" lon="-2.46948">
        <ele>38.1</ele>
        <time>2024-12-19T10:24:04Z</time>
      </trkpt>
      <trkpt lat="47.93457" lon="-2.46948">
        <ele>38.1</ele>
        <time>2024-12-19T10:24:05Z</time>
      </trkpt>
      <trkpt lat="47.93456" lon="-2.46948">
        <ele>38</ele>
        <time>2024-12-19T10:24:06Z</time>
      </trkpt>
      <trkpt lat="47.93456" lon="-2.46948">
        <ele>38</ele>
        <time>2024-12-19T10:24:07Z</time>
      </trkpt>
      <trkpt lat="47.93455" lon="-2.46948">
        <ele>38</ele>
        <time>2024-12-19T10:24:08Z</time>
      </trkpt>
      <trkpt lat="47.93455" lon="-2.46948">
        <ele>38.1</ele>
        <time>2024-12-19T10:24:09Z</time>
      </trkpt>
      <trkpt lat="47.93455" lon="-2.46948">
        <ele>38.1</ele>
        <time>2024-12-19T10:24:10Z</time>
      </trkpt>
      <trkpt lat="47.93455" lon="-2.46949">
        <ele>38.1</ele>
        <time>2024-12-19T10:24:11Z</time>
      </trkpt>
      <trkpt lat="47.93455" lon="-2.46949">
        <ele>38.1</ele>
        <time>2024-12-19T10:24:12Z</time>
      </trkpt>
      <trkpt lat="47.93455" lon="-2.46949">
        <ele>38.1</ele>
        <time>2024-12-19T10:24:13Z</time>
      </trkpt>
      <trkpt lat="47.93455" lon="-2.46949">
        <ele>38.1</ele>
        <time>2024-12-19T10:24:14Z</time>
      </trkpt>
      <trkpt lat="47.93455" lon="-2.46949">
        <ele>38.1</ele>
        <time>2024-12-19T10:24:15Z</time>
      </trkpt>
      <trkpt lat="47.93454" lon="-2.46948">
        <ele>38</ele>
        <time>2024-12-19T10:24:16Z</time>
      </trkpt>
      <trkpt lat="47.93453" lon="-2.46947">
        <ele>38</ele>
        <time>2024-12-19T10:24:17Z</time>
      </trkpt>
      <trkpt lat="47.93451" lon="-2.46946">
        <ele>38</ele>
        <time>2024-12-19T10:24:18Z</time>
      </trkpt>
      <trkpt lat="47.9345" lon="-2.46945">
        <ele>38</ele>
        <time>2024-12-19T10:24:19Z</time>
      </trkpt>
      <trkpt lat="47.93446" lon="-2.46943">
        <ele>37.9</ele>
        <time>2024-12-19T10:24:22Z</time>
      </trkpt>
      <trkpt lat="47.93445" lon="-2.46943">
        <ele>37.9</ele>
        <time>2024-12-19T10:24:23Z</time>
      </trkpt>
      <trkpt lat="47.93443" lon="-2.46942">
        <ele>37.9</ele>
        <time>2024-12-19T10:24:24Z</time>
      </trkpt>
      <trkpt lat="47.93441" lon="-2.46942">
        <ele>37.8</ele>
        <time>2024-12-19T10:24:25Z</time>
      </trkpt>
      <trkpt lat="47.93439" lon="-2.46941">
        <ele>37.7</ele>
        <time>2024-12-19T10:24:26Z</time>
      </trkpt>
      <trkpt lat="47.93438" lon="-2.46941">
        <ele>37.7</ele>
        <time>2024-12-19T10:24:27Z</time>
      </trkpt>
      <trkpt lat="47.93437" lon="-2.46941">
        <ele>37.6</ele>
        <time>2024-12-19T10:24:28Z</time>
      </trkpt>
      <trkpt lat="47.93436" lon="-2.46941">
        <ele>37.6</ele>
        <time>2024-12-19T10:24:29Z</time>
      </trkpt>
      <trkpt lat="47.93434" lon="-2.4694">
        <ele>37.5</ele>
        <time>2024-12-19T10:24:30Z</time>
      </trkpt>
      <trkpt lat="47.93432" lon="-2.4694">
        <ele>37.4</ele>
        <time>2024-12-19T10:24:31Z</time>
      </trkpt>
      <trkpt lat="47.93431" lon="-2.46939">
        <ele>37.3</ele>
        <time>2024-12-19T10:24:32Z</time>
      </trkpt>
      <trkpt lat="47.93429" lon="-2.46939">
        <ele>37.2</ele>
        <time>2024-12-19T10:24:33Z</time>
      </trkpt>
      <trkpt lat="47.93427" lon="-2.46939">
        <ele>37.2</ele>
        <time>2024-12-19T10:24:34Z</time>
      </trkpt>
      <trkpt lat="47.93426" lon="-2.46938">
        <ele>37.1</ele>
        <time>2024-12-19T10:24:35Z</time>
      </trkpt>
      <trkpt lat="47.93425" lon="-2.46938">
        <ele>37.1</ele>
        <time>2024-12-19T10:24:36Z</time>
      </trkpt>
      <trkpt lat="47.93424" lon="-2.46938">
        <ele>37</ele>
        <time>2024-12-19T10:24:37Z</time>
      </trkpt>
      <trkpt lat="47.93423" lon="-2.46937">
        <ele>36.9</ele>
        <time>2024-12-19T10:24:38Z</time>
      </trkpt>
      <trkpt lat="47.93421" lon="-2.46937">
        <ele>36.9</ele>
        <time>2024-12-19T10:24:39Z</time>
      </trkpt>
      <trkpt lat="47.9342" lon="-2.46936">
        <ele>36.8</ele>
        <time>2024-12-19T10:24:40Z</time>
      </trkpt>
      <trkpt lat="47.93419" lon="-2.46935">
        <ele>36.8</ele>
        <time>2024-12-19T10:24:41Z</time>
      </trkpt>
      <trkpt lat="47.93418" lon="-2.46935">
        <ele>36.7</ele>
        <time>2024-12-19T10:24:42Z</time>
      </trkpt>
      <trkpt lat="47.93417" lon="-2.46935">
        <ele>36.7</ele>
        <time>2024-12-19T10:24:43Z</time>
      </trkpt>
      <trkpt lat="47.93416" lon="-2.46935">
        <ele>36.6</ele>
        <time>2024-12-19T10:24:44Z</time>
      </trkpt>
      <trkpt lat="47.93414" lon="-2.46934">
        <ele>36.6</ele>
        <time>2024-12-19T10:24:45Z</time>
      </trkpt>
      <trkpt lat="47.93413" lon="-2.46934">
        <ele>36.6</ele>
        <time>2024-12-19T10:24:46Z</time>
      </trkpt>
      <trkpt lat="47.93412" lon="-2.46934">
        <ele>36.6</ele>
        <time>2024-12-19T10:24:47Z</time>
      </trkpt>
      <trkpt lat="47.9341" lon="-2.46934">
        <ele>36.6</ele>
        <time>2024-12-19T10:24:48Z</time>
      </trkpt>
      <trkpt lat="47.93409" lon="-2.46934">
        <ele>36.6</ele>
        <time>2024-12-19T10:24:49Z</time>
      </trkpt>
      <trkpt lat="47.93407" lon="-2.46933">
        <ele>36.6</ele>
        <time>2024-12-19T10:24:50Z</time>
      </trkpt>
      <trkpt lat="47.93406" lon="-2.46932">
        <ele>36.5</ele>
        <time>2024-12-19T10:24:51Z</time>
      </trkpt>
      <trkpt lat="47.93404" lon="-2.46931">
        <ele>36.5</ele>
        <time>2024-12-19T10:24:52Z</time>
      </trkpt>
      <trkpt lat="47.93403" lon="-2.4693">
        <ele>36.5</ele>
        <time>2024-12-19T10:24:53Z</time>
      </trkpt>
      <trkpt lat="47.93402" lon="-2.46929">
        <ele>36.4</ele>
        <time>2024-12-19T10:24:54Z</time>
      </trkpt>
      <trkpt lat="47.934" lon="-2.46928">
        <ele>36.4</ele>
        <time>2024-12-19T10:24:55Z</time>
      </trkpt>
      <trkpt lat="47.93399" lon="-2.46928">
        <ele>36.4</ele>
        <time>2024-12-19T10:24:56Z</time>
      </trkpt>
      <trkpt lat="47.93398" lon="-2.46927">
        <ele>36.4</ele>
        <time>2024-12-19T10:24:57Z</time>
      </trkpt>
      <trkpt lat="47.93396" lon="-2.46927">
        <ele>36.4</ele>
        <time>2024-12-19T10:24:58Z</time>
      </trkpt>
      <trkpt lat="47.93395" lon="-2.46928">
        <ele>36.4</ele>
        <time>2024-12-19T10:24:59Z</time>
      </trkpt>
      <trkpt lat="47.93394" lon="-2.46928">
        <ele>36.4</ele>
        <time>2024-12-19T10:25:00Z</time>
      </trkpt>
      <trkpt lat="47.93393" lon="-2.46928">
        <ele>36.4</ele>
        <time>2024-12-19T10:25:01Z</time>
      </trkpt>
      <trkpt lat="47.93392" lon="-2.46928">
        <ele>36.4</ele>
        <time>2024-12-19T10:25:02Z</time>
      </trkpt>
      <trkpt lat="47.93391" lon="-2.46928">
        <ele>36.4</ele>
        <time>2024-12-19T10:25:03Z</time>
      </trkpt>
      <trkpt lat="47.9339" lon="-2.46928">
        <ele>36.4</ele>
        <time>2024-12-19T10:25:04Z</time>
      </trkpt>
      <trkpt lat="47.93388" lon="-2.46928">
        <ele>36.4</ele>
        <time>2024-12-19T10:25:05Z</time>
      </trkpt>
      <trkpt lat="47.93387" lon="-2.46928">
        <ele>36.4</ele>
        <time>2024-12-19T10:25:06Z</time>
      </trkpt>
      <trkpt lat="47.93386" lon="-2.46928">
        <ele>36.3</ele>
        <time>2024-12-19T10:25:07Z</time>
      </trkpt>
      <trkpt lat="47.93385" lon="-2.46928">
        <ele>36.2</ele>
        <time>2024-12-19T10:25:08Z</time>
      </trkpt>
      <trkpt lat="47.93384" lon="-2.46927">
        <ele>36.2</ele>
        <time>2024-12-19T10:25:09Z</time>
      </trkpt>
      <trkpt lat="47.93382" lon="-2.46927">
        <ele>36.1</ele>
        <time>2024-12-19T10:25:10Z</time>
      </trkpt>
      <trkpt lat="47.93381" lon="-2.46926">
        <ele>36.1</ele>
        <time>2024-12-19T10:25:11Z</time>
      </trkpt>
      <trkpt lat="47.9338" lon="-2.46926">
        <ele>36</ele>
        <time>2024-12-19T10:25:12Z</time>
      </trkpt>
      <trkpt lat="47.93379" lon="-2.46926">
        <ele>36</ele>
        <time>2024-12-19T10:25:13Z</time>
      </trkpt>
      <trkpt lat="47.93378" lon="-2.46926">
        <ele>35.9</ele>
        <time>2024-12-19T10:25:14Z</time>
      </trkpt>
      <trkpt lat="47.93377" lon="-2.46925">
        <ele>35.9</ele>
        <time>2024-12-19T10:25:15Z</time>
      </trkpt>
      <trkpt lat="47.93376" lon="-2.46925">
        <ele>35.8</ele>
        <time>2024-12-19T10:25:16Z</time>
      </trkpt>
      <trkpt lat="47.93374" lon="-2.46924">
        <ele>35.7</ele>
        <time>2024-12-19T10:25:17Z</time>
      </trkpt>
      <trkpt lat="47.93373" lon="-2.46924">
        <ele>35.7</ele>
        <time>2024-12-19T10:25:18Z</time>
      </trkpt>
      <trkpt lat="47.93372" lon="-2.46923">
        <ele>35.6</ele>
        <time>2024-12-19T10:25:19Z</time>
      </trkpt>
      <trkpt lat="47.93371" lon="-2.46923">
        <ele>35.6</ele>
        <time>2024-12-19T10:25:20Z</time>
      </trkpt>
      <trkpt lat="47.9337" lon="-2.46923">
        <ele>35.5</ele>
        <time>2024-12-19T10:25:21Z</time>
      </trkpt>
      <trkpt lat="47.93368" lon="-2.46923">
        <ele>35.5</ele>
        <time>2024-12-19T10:25:22Z</time>
      </trkpt>
      <trkpt lat="47.93367" lon="-2.46923">
        <ele>35.4</ele>
        <time>2024-12-19T10:25:23Z</time>
      </trkpt>
      <trkpt lat="47.93366" lon="-2.46922">
        <ele>35.4</ele>
        <time>2024-12-19T10:25:24Z</time>
      </trkpt>
      <trkpt lat="47.93365" lon="-2.46922">
        <ele>35.3</ele>
        <time>2024-12-19T10:25:25Z</time>
      </trkpt>
      <trkpt lat="47.93364" lon="-2.46923">
        <ele>35.3</ele>
        <time>2024-12-19T10:25:26Z</time>
      </trkpt>
      <trkpt lat="47.93364" lon="-2.46924">
        <ele>35.3</ele>
        <time>2024-12-19T10:25:27Z</time>
      </trkpt>
      <trkpt lat="47.93364" lon="-2.46924">
        <ele>35.4</ele>
        <time>2024-12-19T10:25:28Z</time>
      </trkpt>
      <trkpt lat="47.93364" lon="-2.46924">
        <ele>35.4</ele>
        <time>2024-12-19T10:25:29Z</time>
      </trkpt>
      <trkpt lat="47.93363" lon="-2.46924">
        <ele>35.3</ele>
        <time>2024-12-19T10:25:30Z</time>
      </trkpt>
      <trkpt lat="47.93362" lon="-2.46924">
        <ele>35.3</ele>
        <time>2024-12-19T10:25:31Z</time>
      </trkpt>
      <trkpt lat="47.9336" lon="-2.46923">
        <ele>35.3</ele>
        <time>2024-12-19T10:25:32Z</time>
      </trkpt>
      <trkpt lat="47.93359" lon="-2.46923">
        <ele>35.3</ele>
        <time>2024-12-19T10:25:33Z</time>
      </trkpt>
      <trkpt lat="47.93358" lon="-2.46922">
        <ele>35.3</ele>
        <time>2024-12-19T10:25:34Z</time>
      </trkpt>
      <trkpt lat="47.93357" lon="-2.46922">
        <ele>35.3</ele>
        <time>2024-12-19T10:25:35Z</time>
      </trkpt>
      <trkpt lat="47.93356" lon="-2.46922">
        <ele>35.3</ele>
        <time>2024-12-19T10:25:36Z</time>
      </trkpt>
      <trkpt lat="47.93355" lon="-2.46921">
        <ele>35.4</ele>
        <time>2024-12-19T10:25:37Z</time>
      </trkpt>
      <trkpt lat="47.93354" lon="-2.46921">
        <ele>35.4</ele>
        <time>2024-12-19T10:25:38Z</time>
      </trkpt>
      <trkpt lat="47.93354" lon="-2.46921">
        <ele>35.4</ele>
        <time>2024-12-19T10:25:39Z</time>
      </trkpt>
      <trkpt lat="47.93354" lon="-2.46922">
        <ele>35.4</ele>
        <time>2024-12-19T10:25:40Z</time>
      </trkpt>
      <trkpt lat="47.93354" lon="-2.46922">
        <ele>35.4</ele>
        <time>2024-12-19T10:25:41Z</time>
      </trkpt>
      <trkpt lat="47.93354" lon="-2.46922">
        <ele>35.4</ele>
        <time>2024-12-19T10:25:42Z</time>
      </trkpt>
      <trkpt lat="47.93353" lon="-2.46922">
        <ele>35.4</ele>
        <time>2024-12-19T10:25:43Z</time>
      </trkpt>
      <trkpt lat="47.93352" lon="-2.46921">
        <ele>35.4</ele>
        <time>2024-12-19T10:25:44Z</time>
      </trkpt>
      <trkpt lat="47.93351" lon="-2.46921">
        <ele>35.5</ele>
        <time>2024-12-19T10:25:45Z</time>
      </trkpt>
      <trkpt lat="47.93349" lon="-2.46921">
        <ele>35.5</ele>
        <time>2024-12-19T10:25:46Z</time>
      </trkpt>
      <trkpt lat="47.93348" lon="-2.4692">
        <ele>35.5</ele>
        <time>2024-12-19T10:25:47Z</time>
      </trkpt>
      <trkpt lat="47.93347" lon="-2.4692">
        <ele>35.6</ele>
        <time>2024-12-19T10:25:48Z</time>
      </trkpt>
      <trkpt lat="47.93345" lon="-2.46919">
        <ele>35.6</ele>
        <time>2024-12-19T10:25:49Z</time>
      </trkpt>
      <trkpt lat="47.93344" lon="-2.46919">
        <ele>35.6</ele>
        <time>2024-12-19T10:25:50Z</time>
      </trkpt>
      <trkpt lat="47.93343" lon="-2.46919">
        <ele>35.7</ele>
        <time>2024-12-19T10:25:51Z</time>
      </trkpt>
      <trkpt lat="47.93342" lon="-2.46919">
        <ele>35.7</ele>
        <time>2024-12-19T10:25:52Z</time>
      </trkpt>
      <trkpt lat="47.9334" lon="-2.46918">
        <ele>35.8</ele>
        <time>2024-12-19T10:25:53Z</time>
      </trkpt>
      <trkpt lat="47.93339" lon="-2.46918">
        <ele>35.8</ele>
        <time>2024-12-19T10:25:54Z</time>
      </trkpt>
      <trkpt lat="47.93338" lon="-2.46918">
        <ele>35.9</ele>
        <time>2024-12-19T10:25:55Z</time>
      </trkpt>
      <trkpt lat="47.93336" lon="-2.46918">
        <ele>35.9</ele>
        <time>2024-12-19T10:25:56Z</time>
      </trkpt>
      <trkpt lat="47.93335" lon="-2.46917">
        <ele>35.9</ele>
        <time>2024-12-19T10:25:57Z</time>
      </trkpt>
      <trkpt lat="47.93334" lon="-2.46916">
        <ele>36</ele>
        <time>2024-12-19T10:25:58Z</time>
      </trkpt>
      <trkpt lat="47.93333" lon="-2.46916">
        <ele>35.9</ele>
        <time>2024-12-19T10:25:59Z</time>
      </trkpt>
      <trkpt lat="47.93331" lon="-2.46915">
        <ele>35.9</ele>
        <time>2024-12-19T10:26:00Z</time>
      </trkpt>
      <trkpt lat="47.9333" lon="-2.46915">
        <ele>35.8</ele>
        <time>2024-12-19T10:26:01Z</time>
      </trkpt>
      <trkpt lat="47.93329" lon="-2.46915">
        <ele>35.8</ele>
        <time>2024-12-19T10:26:02Z</time>
      </trkpt>
      <trkpt lat="47.93328" lon="-2.46915">
        <ele>35.7</ele>
        <time>2024-12-19T10:26:03Z</time>
      </trkpt>
      <trkpt lat="47.93327" lon="-2.46915">
        <ele>35.7</ele>
        <time>2024-12-19T10:26:04Z</time>
      </trkpt>
      <trkpt lat="47.93325" lon="-2.46915">
        <ele>35.6</ele>
        <time>2024-12-19T10:26:05Z</time>
      </trkpt>
      <trkpt lat="47.93324" lon="-2.46915">
        <ele>35.6</ele>
        <time>2024-12-19T10:26:06Z</time>
      </trkpt>
      <trkpt lat="47.93323" lon="-2.46915">
        <ele>35.6</ele>
        <time>2024-12-19T10:26:07Z</time>
      </trkpt>
      <trkpt lat="47.93322" lon="-2.46915">
        <ele>35.5</ele>
        <time>2024-12-19T10:26:08Z</time>
      </trkpt>
      <trkpt lat="47.93321" lon="-2.46915">
        <ele>35.5</ele>
        <time>2024-12-19T10:26:09Z</time>
      </trkpt>
      <trkpt lat="47.9332" lon="-2.46915">
        <ele>35.4</ele>
        <time>2024-12-19T10:26:10Z</time>
      </trkpt>
      <trkpt lat="47.93319" lon="-2.46915">
        <ele>35.4</ele>
        <time>2024-12-19T10:26:11Z</time>
      </trkpt>
      <trkpt lat="47.93317" lon="-2.46914">
        <ele>35.3</ele>
        <time>2024-12-19T10:26:12Z</time>
      </trkpt>
      <trkpt lat="47.93316" lon="-2.46914">
        <ele>35.3</ele>
        <time>2024-12-19T10:26:13Z</time>
      </trkpt>
      <trkpt lat="47.93315" lon="-2.46913">
        <ele>35.2</ele>
        <time>2024-12-19T10:26:14Z</time>
      </trkpt>
      <trkpt lat="47.93314" lon="-2.46914">
        <ele>35.2</ele>
        <time>2024-12-19T10:26:15Z</time>
      </trkpt>
      <trkpt lat="47.93312" lon="-2.46914">
        <ele>35.1</ele>
        <time>2024-12-19T10:26:16Z</time>
      </trkpt>
      <trkpt lat="47.93311" lon="-2.46914">
        <ele>35.1</ele>
        <time>2024-12-19T10:26:17Z</time>
      </trkpt>
      <trkpt lat="47.9331" lon="-2.46914">
        <ele>35.1</ele>
        <time>2024-12-19T10:26:18Z</time>
      </trkpt>
      <trkpt lat="47.93309" lon="-2.46914">
        <ele>35</ele>
        <time>2024-12-19T10:26:19Z</time>
      </trkpt>
      <trkpt lat="47.93307" lon="-2.46914">
        <ele>35</ele>
        <time>2024-12-19T10:26:20Z</time>
      </trkpt>
      <trkpt lat="47.93306" lon="-2.46914">
        <ele>34.9</ele>
        <time>2024-12-19T10:26:21Z</time>
      </trkpt>
      <trkpt lat="47.93305" lon="-2.46914">
        <ele>34.9</ele>
        <time>2024-12-19T10:26:22Z</time>
      </trkpt>
      <trkpt lat="47.93303" lon="-2.46914">
        <ele>35</ele>
        <time>2024-12-19T10:26:23Z</time>
      </trkpt>
      <trkpt lat="47.93302" lon="-2.46914">
        <ele>35</ele>
        <time>2024-12-19T10:26:24Z</time>
      </trkpt>
      <trkpt lat="47.93301" lon="-2.46913">
        <ele>35</ele>
        <time>2024-12-19T10:26:25Z</time>
      </trkpt>
      <trkpt lat="47.93299" lon="-2.46913">
        <ele>35.1</ele>
        <time>2024-12-19T10:26:26Z</time>
      </trkpt>
      <trkpt lat="47.93298" lon="-2.46913">
        <ele>35.1</ele>
        <time>2024-12-19T10:26:27Z</time>
      </trkpt>
      <trkpt lat="47.93296" lon="-2.46913">
        <ele>35.2</ele>
        <time>2024-12-19T10:26:28Z</time>
      </trkpt>
      <trkpt lat="47.93295" lon="-2.46913">
        <ele>35.2</ele>
        <time>2024-12-19T10:26:29Z</time>
      </trkpt>
      <trkpt lat="47.93294" lon="-2.46913">
        <ele>35.3</ele>
        <time>2024-12-19T10:26:30Z</time>
      </trkpt>
      <trkpt lat="47.93292" lon="-2.46913">
        <ele>35.3</ele>
        <time>2024-12-19T10:26:31Z</time>
      </trkpt>
      <trkpt lat="47.93291" lon="-2.46913">
        <ele>35.4</ele>
        <time>2024-12-19T10:26:32Z</time>
      </trkpt>
      <trkpt lat="47.93289" lon="-2.46913">
        <ele>35.4</ele>
        <time>2024-12-19T10:26:33Z</time>
      </trkpt>
      <trkpt lat="47.93287" lon="-2.46913">
        <ele>35.5</ele>
        <time>2024-12-19T10:26:34Z</time>
      </trkpt>
      <trkpt lat="47.93286" lon="-2.46913">
        <ele>35.5</ele>
        <time>2024-12-19T10:26:35Z</time>
      </trkpt>
      <trkpt lat="47.93284" lon="-2.46913">
        <ele>35.5</ele>
        <time>2024-12-19T10:26:36Z</time>
      </trkpt>
      <trkpt lat="47.93283" lon="-2.46912">
        <ele>35.5</ele>
        <time>2024-12-19T10:26:37Z</time>
      </trkpt>
      <trkpt lat="47.93282" lon="-2.46911">
        <ele>35.5</ele>
        <time>2024-12-19T10:26:38Z</time>
      </trkpt>
      <trkpt lat="47.9328" lon="-2.4691">
        <ele>35.5</ele>
        <time>2024-12-19T10:26:39Z</time>
      </trkpt>
      <trkpt lat="47.93279" lon="-2.4691">
        <ele>35.5</ele>
        <time>2024-12-19T10:26:40Z</time>
      </trkpt>
      <trkpt lat="47.93278" lon="-2.4691">
        <ele>35.5</ele>
        <time>2024-12-19T10:26:41Z</time>
      </trkpt>
      <trkpt lat="47.93277" lon="-2.4691">
        <ele>35.5</ele>
        <time>2024-12-19T10:26:42Z</time>
      </trkpt>
      <trkpt lat="47.93276" lon="-2.46909">
        <ele>35.4</ele>
        <time>2024-12-19T10:26:43Z</time>
      </trkpt>
      <trkpt lat="47.93275" lon="-2.46909">
        <ele>35.4</ele>
        <time>2024-12-19T10:26:44Z</time>
      </trkpt>
      <trkpt lat="47.93274" lon="-2.46909">
        <ele>35.3</ele>
        <time>2024-12-19T10:26:45Z</time>
      </trkpt>
      <trkpt lat="47.93273" lon="-2.46909">
        <ele>35.3</ele>
        <time>2024-12-19T10:26:46Z</time>
      </trkpt>
      <trkpt lat="47.93272" lon="-2.46909">
        <ele>35.3</ele>
        <time>2024-12-19T10:26:47Z</time>
      </trkpt>
      <trkpt lat="47.93271" lon="-2.46909">
        <ele>35.2</ele>
        <time>2024-12-19T10:26:48Z</time>
      </trkpt>
      <trkpt lat="47.9327" lon="-2.46908">
        <ele>35.2</ele>
        <time>2024-12-19T10:26:49Z</time>
      </trkpt>
      <trkpt lat="47.93269" lon="-2.46908">
        <ele>35.1</ele>
        <time>2024-12-19T10:26:50Z</time>
      </trkpt>
      <trkpt lat="47.93268" lon="-2.46908">
        <ele>35.1</ele>
        <time>2024-12-19T10:26:51Z</time>
      </trkpt>
      <trkpt lat="47.93266" lon="-2.46908">
        <ele>35.1</ele>
        <time>2024-12-19T10:26:52Z</time>
      </trkpt>
      <trkpt lat="47.93266" lon="-2.46908">
        <ele>35.1</ele>
        <time>2024-12-19T10:26:53Z</time>
      </trkpt>
      <trkpt lat="47.93265" lon="-2.46908">
        <ele>35</ele>
        <time>2024-12-19T10:26:54Z</time>
      </trkpt>
      <trkpt lat="47.93263" lon="-2.46908">
        <ele>35</ele>
        <time>2024-12-19T10:26:55Z</time>
      </trkpt>
      <trkpt lat="47.93262" lon="-2.46909">
        <ele>35</ele>
        <time>2024-12-19T10:26:56Z</time>
      </trkpt>
      <trkpt lat="47.93261" lon="-2.46909">
        <ele>35</ele>
        <time>2024-12-19T10:26:57Z</time>
      </trkpt>
      <trkpt lat="47.9326" lon="-2.46908">
        <ele>34.9</ele>
        <time>2024-12-19T10:26:58Z</time>
      </trkpt>
      <trkpt lat="47.93259" lon="-2.46908">
        <ele>34.9</ele>
        <time>2024-12-19T10:26:59Z</time>
      </trkpt>
      <trkpt lat="47.93257" lon="-2.46907">
        <ele>34.8</ele>
        <time>2024-12-19T10:27:00Z</time>
      </trkpt>
      <trkpt lat="47.93256" lon="-2.46906">
        <ele>34.8</ele>
        <time>2024-12-19T10:27:01Z</time>
      </trkpt>
      <trkpt lat="47.93255" lon="-2.46906">
        <ele>34.7</ele>
        <time>2024-12-19T10:27:02Z</time>
      </trkpt>
      <trkpt lat="47.93254" lon="-2.46906">
        <ele>34.7</ele>
        <time>2024-12-19T10:27:03Z</time>
      </trkpt>
      <trkpt lat="47.93252" lon="-2.46906">
        <ele>34.7</ele>
        <time>2024-12-19T10:27:04Z</time>
      </trkpt>
      <trkpt lat="47.93251" lon="-2.46906">
        <ele>34.6</ele>
        <time>2024-12-19T10:27:05Z</time>
      </trkpt>
      <trkpt lat="47.93249" lon="-2.46906">
        <ele>34.6</ele>
        <time>2024-12-19T10:27:06Z</time>
      </trkpt>
      <trkpt lat="47.93248" lon="-2.46906">
        <ele>34.6</ele>
        <time>2024-12-19T10:27:07Z</time>
      </trkpt>
      <trkpt lat="47.93246" lon="-2.46907">
        <ele>34.6</ele>
        <time>2024-12-19T10:27:08Z</time>
      </trkpt>
      <trkpt lat="47.93245" lon="-2.46906">
        <ele>34.6</ele>
        <time>2024-12-19T10:27:09Z</time>
      </trkpt>
      <trkpt lat="47.93243" lon="-2.46905">
        <ele>34.6</ele>
        <time>2024-12-19T10:27:10Z</time>
      </trkpt>
      <trkpt lat="47.93242" lon="-2.46904">
        <ele>34.5</ele>
        <time>2024-12-19T10:27:11Z</time>
      </trkpt>
      <trkpt lat="47.9324" lon="-2.46903">
        <ele>34.5</ele>
        <time>2024-12-19T10:27:12Z</time>
      </trkpt>
      <trkpt lat="47.93239" lon="-2.46902">
        <ele>34.5</ele>
        <time>2024-12-19T10:27:13Z</time>
      </trkpt>
      <trkpt lat="47.93238" lon="-2.46901">
        <ele>34.5</ele>
        <time>2024-12-19T10:27:14Z</time>
      </trkpt>
      <trkpt lat="47.93236" lon="-2.46901">
        <ele>34.4</ele>
        <time>2024-12-19T10:27:15Z</time>
      </trkpt>
      <trkpt lat="47.93235" lon="-2.469">
        <ele>34.4</ele>
        <time>2024-12-19T10:27:16Z</time>
      </trkpt>
      <trkpt lat="47.93234" lon="-2.46899">
        <ele>34.4</ele>
        <time>2024-12-19T10:27:17Z</time>
      </trkpt>
      <trkpt lat="47.93233" lon="-2.46898">
        <ele>34.3</ele>
        <time>2024-12-19T10:27:18Z</time>
      </trkpt>
      <trkpt lat="47.93231" lon="-2.46898">
        <ele>34.3</ele>
        <time>2024-12-19T10:27:19Z</time>
      </trkpt>
      <trkpt lat="47.93229" lon="-2.46898">
        <ele>34.3</ele>
        <time>2024-12-19T10:27:20Z</time>
      </trkpt>
      <trkpt lat="47.93228" lon="-2.46897">
        <ele>34.3</ele>
        <time>2024-12-19T10:27:21Z</time>
      </trkpt>
      <trkpt lat="47.93227" lon="-2.46897">
        <ele>34.3</ele>
        <time>2024-12-19T10:27:22Z</time>
      </trkpt>
      <trkpt lat="47.93225" lon="-2.46897">
        <ele>34.3</ele>
        <time>2024-12-19T10:27:23Z</time>
      </trkpt>
      <trkpt lat="47.93223" lon="-2.46896">
        <ele>34.3</ele>
        <time>2024-12-19T10:27:24Z</time>
      </trkpt>
      <trkpt lat="47.93222" lon="-2.46896">
        <ele>34.2</ele>
        <time>2024-12-19T10:27:25Z</time>
      </trkpt>
      <trkpt lat="47.93221" lon="-2.46896">
        <ele>34.2</ele>
        <time>2024-12-19T10:27:26Z</time>
      </trkpt>
      <trkpt lat="47.93219" lon="-2.46895">
        <ele>34.2</ele>
        <time>2024-12-19T10:27:27Z</time>
      </trkpt>
      <trkpt lat="47.93219" lon="-2.46894">
        <ele>34.2</ele>
        <time>2024-12-19T10:27:28Z</time>
      </trkpt>
      <trkpt lat="47.93217" lon="-2.46894">
        <ele>34.2</ele>
        <time>2024-12-19T10:27:29Z</time>
      </trkpt>
      <trkpt lat="47.93216" lon="-2.46894">
        <ele>34.2</ele>
        <time>2024-12-19T10:27:30Z</time>
      </trkpt>
      <trkpt lat="47.93215" lon="-2.46894">
        <ele>34.2</ele>
        <time>2024-12-19T10:27:31Z</time>
      </trkpt>
      <trkpt lat="47.93213" lon="-2.46894">
        <ele>34.2</ele>
        <time>2024-12-19T10:27:32Z</time>
      </trkpt>
      <trkpt lat="47.93212" lon="-2.46894">
        <ele>34.2</ele>
        <time>2024-12-19T10:27:33Z</time>
      </trkpt>
      <trkpt lat="47.9321" lon="-2.46894">
        <ele>34.2</ele>
        <time>2024-12-19T10:27:34Z</time>
      </trkpt>
      <trkpt lat="47.93209" lon="-2.46894">
        <ele>34.2</ele>
        <time>2024-12-19T10:27:35Z</time>
      </trkpt>
      <trkpt lat="47.93208" lon="-2.46894">
        <ele>34.2</ele>
        <time>2024-12-19T10:27:36Z</time>
      </trkpt>
      <trkpt lat="47.93206" lon="-2.46893">
        <ele>34.2</ele>
        <time>2024-12-19T10:27:37Z</time>
      </trkpt>
      <trkpt lat="47.93205" lon="-2.46893">
        <ele>34.2</ele>
        <time>2024-12-19T10:27:38Z</time>
      </trkpt>
      <trkpt lat="47.93204" lon="-2.46893">
        <ele>34.2</ele>
        <time>2024-12-19T10:27:39Z</time>
      </trkpt>
      <trkpt lat="47.93204" lon="-2.46893">
        <ele>34.2</ele>
        <time>2024-12-19T10:27:40Z</time>
      </trkpt>
      <trkpt lat="47.93202" lon="-2.46894">
        <ele>34.2</ele>
        <time>2024-12-19T10:27:41Z</time>
      </trkpt>
      <trkpt lat="47.93201" lon="-2.46894">
        <ele>34.2</ele>
        <time>2024-12-19T10:27:42Z</time>
      </trkpt>
      <trkpt lat="47.93199" lon="-2.46894">
        <ele>34.2</ele>
        <time>2024-12-19T10:27:43Z</time>
      </trkpt>
      <trkpt lat="47.93198" lon="-2.46895">
        <ele>34.2</ele>
        <time>2024-12-19T10:27:44Z</time>
      </trkpt>
      <trkpt lat="47.93197" lon="-2.46895">
        <ele>34.2</ele>
        <time>2024-12-19T10:27:45Z</time>
      </trkpt>
      <trkpt lat="47.93196" lon="-2.46895">
        <ele>34.2</ele>
        <time>2024-12-19T10:27:46Z</time>
      </trkpt>
      <trkpt lat="47.93195" lon="-2.46895">
        <ele>34.2</ele>
        <time>2024-12-19T10:27:47Z</time>
      </trkpt>
      <trkpt lat="47.93193" lon="-2.46895">
        <ele>34.2</ele>
        <time>2024-12-19T10:27:48Z</time>
      </trkpt>
      <trkpt lat="47.93192" lon="-2.46895">
        <ele>34.2</ele>
        <time>2024-12-19T10:27:49Z</time>
      </trkpt>
      <trkpt lat="47.93191" lon="-2.46895">
        <ele>34.2</ele>
        <time>2024-12-19T10:27:50Z</time>
      </trkpt>
      <trkpt lat="47.9319" lon="-2.46895">
        <ele>34.2</ele>
        <time>2024-12-19T10:27:51Z</time>
      </trkpt>
      <trkpt lat="47.93189" lon="-2.46895">
        <ele>34.2</ele>
        <time>2024-12-19T10:27:52Z</time>
      </trkpt>
      <trkpt lat="47.93188" lon="-2.46895">
        <ele>34.2</ele>
        <time>2024-12-19T10:27:53Z</time>
      </trkpt>
      <trkpt lat="47.93187" lon="-2.46895">
        <ele>34.2</ele>
        <time>2024-12-19T10:27:54Z</time>
      </trkpt>
      <trkpt lat="47.93185" lon="-2.46895">
        <ele>34.2</ele>
        <time>2024-12-19T10:27:55Z</time>
      </trkpt>
      <trkpt lat="47.93184" lon="-2.46895">
        <ele>34.2</ele>
        <time>2024-12-19T10:27:56Z</time>
      </trkpt>
      <trkpt lat="47.93183" lon="-2.46894">
        <ele>34.2</ele>
        <time>2024-12-19T10:27:57Z</time>
      </trkpt>
      <trkpt lat="47.93182" lon="-2.46894">
        <ele>34.2</ele>
        <time>2024-12-19T10:27:58Z</time>
      </trkpt>
      <trkpt lat="47.93181" lon="-2.46893">
        <ele>34.1</ele>
        <time>2024-12-19T10:27:59Z</time>
      </trkpt>
      <trkpt lat="47.9318" lon="-2.46892">
        <ele>34.1</ele>
        <time>2024-12-19T10:28:00Z</time>
      </trkpt>
      <trkpt lat="47.93179" lon="-2.46892">
        <ele>34.1</ele>
        <time>2024-12-19T10:28:01Z</time>
      </trkpt>
      <trkpt lat="47.93178" lon="-2.46892">
        <ele>34.1</ele>
        <time>2024-12-19T10:28:02Z</time>
      </trkpt>
      <trkpt lat="47.93177" lon="-2.46891">
        <ele>34.1</ele>
        <time>2024-12-19T10:28:03Z</time>
      </trkpt>
      <trkpt lat="47.93176" lon="-2.46891">
        <ele>34.1</ele>
        <time>2024-12-19T10:28:04Z</time>
      </trkpt>
      <trkpt lat="47.93175" lon="-2.4689">
        <ele>34.1</ele>
        <time>2024-12-19T10:28:05Z</time>
      </trkpt>
      <trkpt lat="47.93173" lon="-2.4689">
        <ele>34</ele>
        <time>2024-12-19T10:28:06Z</time>
      </trkpt>
      <trkpt lat="47.93172" lon="-2.4689">
        <ele>34</ele>
        <time>2024-12-19T10:28:07Z</time>
      </trkpt>
      <trkpt lat="47.9317" lon="-2.46891">
        <ele>34.1</ele>
        <time>2024-12-19T10:28:08Z</time>
      </trkpt>
      <trkpt lat="47.93169" lon="-2.46891">
        <ele>34.1</ele>
        <time>2024-12-19T10:28:09Z</time>
      </trkpt>
      <trkpt lat="47.93168" lon="-2.46891">
        <ele>34.1</ele>
        <time>2024-12-19T10:28:10Z</time>
      </trkpt>
      <trkpt lat="47.93166" lon="-2.46891">
        <ele>34.1</ele>
        <time>2024-12-19T10:28:11Z</time>
      </trkpt>
      <trkpt lat="47.93165" lon="-2.46891">
        <ele>34.1</ele>
        <time>2024-12-19T10:28:12Z</time>
      </trkpt>
      <trkpt lat="47.93164" lon="-2.4689">
        <ele>34.1</ele>
        <time>2024-12-19T10:28:13Z</time>
      </trkpt>
      <trkpt lat="47.93163" lon="-2.4689">
        <ele>34</ele>
        <time>2024-12-19T10:28:14Z</time>
      </trkpt>
      <trkpt lat="47.93161" lon="-2.46891">
        <ele>34.1</ele>
        <time>2024-12-19T10:28:15Z</time>
      </trkpt>
      <trkpt lat="47.9316" lon="-2.46891">
        <ele>34.1</ele>
        <time>2024-12-19T10:28:16Z</time>
      </trkpt>
      <trkpt lat="47.93159" lon="-2.46891">
        <ele>34.1</ele>
        <time>2024-12-19T10:28:17Z</time>
      </trkpt>
      <trkpt lat="47.93157" lon="-2.46892">
        <ele>34.1</ele>
        <time>2024-12-19T10:28:18Z</time>
      </trkpt>
      <trkpt lat="47.93155" lon="-2.46892">
        <ele>34.1</ele>
        <time>2024-12-19T10:28:19Z</time>
      </trkpt>
      <trkpt lat="47.93154" lon="-2.46892">
        <ele>34.1</ele>
        <time>2024-12-19T10:28:20Z</time>
      </trkpt>
      <trkpt lat="47.93153" lon="-2.46891">
        <ele>34.1</ele>
        <time>2024-12-19T10:28:21Z</time>
      </trkpt>
      <trkpt lat="47.93151" lon="-2.46891">
        <ele>34.1</ele>
        <time>2024-12-19T10:28:22Z</time>
      </trkpt>
      <trkpt lat="47.9315" lon="-2.4689">
        <ele>34</ele>
        <time>2024-12-19T10:28:23Z</time>
      </trkpt>
      <trkpt lat="47.93148" lon="-2.46889">
        <ele>34</ele>
        <time>2024-12-19T10:28:24Z</time>
      </trkpt>
      <trkpt lat="47.93146" lon="-2.46889">
        <ele>34</ele>
        <time>2024-12-19T10:28:25Z</time>
      </trkpt>
      <trkpt lat="47.93145" lon="-2.46888">
        <ele>34</ele>
        <time>2024-12-19T10:28:26Z</time>
      </trkpt>
      <trkpt lat="47.93143" lon="-2.46888">
        <ele>34</ele>
        <time>2024-12-19T10:28:27Z</time>
      </trkpt>
      <trkpt lat="47.93142" lon="-2.46889">
        <ele>34</ele>
        <time>2024-12-19T10:28:28Z</time>
      </trkpt>
      <trkpt lat="47.93141" lon="-2.46888">
        <ele>34</ele>
        <time>2024-12-19T10:28:29Z</time>
      </trkpt>
      <trkpt lat="47.93139" lon="-2.46888">
        <ele>34</ele>
        <time>2024-12-19T10:28:30Z</time>
      </trkpt>
      <trkpt lat="47.93137" lon="-2.46887">
        <ele>34.1</ele>
        <time>2024-12-19T10:28:31Z</time>
      </trkpt>
      <trkpt lat="47.93136" lon="-2.46887">
        <ele>34.1</ele>
        <time>2024-12-19T10:28:32Z</time>
      </trkpt>
      <trkpt lat="47.93135" lon="-2.46886">
        <ele>34.1</ele>
        <time>2024-12-19T10:28:33Z</time>
      </trkpt>
      <trkpt lat="47.93134" lon="-2.46886">
        <ele>34.2</ele>
        <time>2024-12-19T10:28:34Z</time>
      </trkpt>
      <trkpt lat="47.93132" lon="-2.46886">
        <ele>34.2</ele>
        <time>2024-12-19T10:28:35Z</time>
      </trkpt>
      <trkpt lat="47.93131" lon="-2.46886">
        <ele>34.2</ele>
        <time>2024-12-19T10:28:36Z</time>
      </trkpt>
      <trkpt lat="47.9313" lon="-2.46885">
        <ele>34.3</ele>
        <time>2024-12-19T10:28:37Z</time>
      </trkpt>
      <trkpt lat="47.93129" lon="-2.46885">
        <ele>34.3</ele>
        <time>2024-12-19T10:28:38Z</time>
      </trkpt>
      <trkpt lat="47.93128" lon="-2.46885">
        <ele>34.3</ele>
        <time>2024-12-19T10:28:39Z</time>
      </trkpt>
      <trkpt lat="47.93127" lon="-2.46884">
        <ele>34.4</ele>
        <time>2024-12-19T10:28:40Z</time>
      </trkpt>
      <trkpt lat="47.93126" lon="-2.46884">
        <ele>34.4</ele>
        <time>2024-12-19T10:28:41Z</time>
      </trkpt>
      <trkpt lat="47.93124" lon="-2.46883">
        <ele>34.4</ele>
        <time>2024-12-19T10:28:42Z</time>
      </trkpt>
      <trkpt lat="47.93123" lon="-2.46883">
        <ele>34.5</ele>
        <time>2024-12-19T10:28:43Z</time>
      </trkpt>
      <trkpt lat="47.93122" lon="-2.46883">
        <ele>34.5</ele>
        <time>2024-12-19T10:28:44Z</time>
      </trkpt>
      <trkpt lat="47.93121" lon="-2.46883">
        <ele>34.5</ele>
        <time>2024-12-19T10:28:45Z</time>
      </trkpt>
      <trkpt lat="47.93119" lon="-2.46882">
        <ele>34.5</ele>
        <time>2024-12-19T10:28:46Z</time>
      </trkpt>
      <trkpt lat="47.93118" lon="-2.46882">
        <ele>34.6</ele>
        <time>2024-12-19T10:28:47Z</time>
      </trkpt>
      <trkpt lat="47.93117" lon="-2.46882">
        <ele>34.6</ele>
        <time>2024-12-19T10:28:48Z</time>
      </trkpt>
      <trkpt lat="47.93116" lon="-2.46882">
        <ele>34.6</ele>
        <time>2024-12-19T10:28:49Z</time>
      </trkpt>
      <trkpt lat="47.93114" lon="-2.46882">
        <ele>34.7</ele>
        <time>2024-12-19T10:28:50Z</time>
      </trkpt>
      <trkpt lat="47.93113" lon="-2.46882">
        <ele>34.7</ele>
        <time>2024-12-19T10:28:51Z</time>
      </trkpt>
      <trkpt lat="47.93112" lon="-2.46882">
        <ele>34.7</ele>
        <time>2024-12-19T10:28:52Z</time>
      </trkpt>
      <trkpt lat="47.93111" lon="-2.46882">
        <ele>34.7</ele>
        <time>2024-12-19T10:28:53Z</time>
      </trkpt>
      <trkpt lat="47.9311" lon="-2.46881">
        <ele>34.7</ele>
        <time>2024-12-19T10:28:54Z</time>
      </trkpt>
      <trkpt lat="47.93108" lon="-2.46881">
        <ele>34.7</ele>
        <time>2024-12-19T10:28:55Z</time>
      </trkpt>
      <trkpt lat="47.93107" lon="-2.4688">
        <ele>34.7</ele>
        <time>2024-12-19T10:28:56Z</time>
      </trkpt>
      <trkpt lat="47.93106" lon="-2.4688">
        <ele>34.7</ele>
        <time>2024-12-19T10:28:57Z</time>
      </trkpt>
      <trkpt lat="47.93106" lon="-2.4688">
        <ele>34.7</ele>
        <time>2024-12-19T10:28:58Z</time>
      </trkpt>
      <trkpt lat="47.93104" lon="-2.46879">
        <ele>34.7</ele>
        <time>2024-12-19T10:28:59Z</time>
      </trkpt>
      <trkpt lat="47.93103" lon="-2.46879">
        <ele>34.7</ele>
        <time>2024-12-19T10:29:00Z</time>
      </trkpt>
      <trkpt lat="47.93102" lon="-2.46879">
        <ele>34.8</ele>
        <time>2024-12-19T10:29:01Z</time>
      </trkpt>
      <trkpt lat="47.93101" lon="-2.46879">
        <ele>34.8</ele>
        <time>2024-12-19T10:29:02Z</time>
      </trkpt>
      <trkpt lat="47.93099" lon="-2.46879">
        <ele>34.8</ele>
        <time>2024-12-19T10:29:03Z</time>
      </trkpt>
      <trkpt lat="47.93096" lon="-2.46881">
        <ele>34.9</ele>
        <time>2024-12-19T10:29:05Z</time>
      </trkpt>
      <trkpt lat="47.93094" lon="-2.46881">
        <ele>34.9</ele>
        <time>2024-12-19T10:29:06Z</time>
      </trkpt>
      <trkpt lat="47.93093" lon="-2.46882">
        <ele>34.9</ele>
        <time>2024-12-19T10:29:07Z</time>
      </trkpt>
      <trkpt lat="47.93093" lon="-2.46882">
        <ele>34.9</ele>
        <time>2024-12-19T10:29:08Z</time>
      </trkpt>
      <trkpt lat="47.93091" lon="-2.46883">
        <ele>34.9</ele>
        <time>2024-12-19T10:29:09Z</time>
      </trkpt>
      <trkpt lat="47.9309" lon="-2.46883">
        <ele>35</ele>
        <time>2024-12-19T10:29:10Z</time>
      </trkpt>
      <trkpt lat="47.93089" lon="-2.46884">
        <ele>35</ele>
        <time>2024-12-19T10:29:11Z</time>
      </trkpt>
      <trkpt lat="47.93088" lon="-2.46885">
        <ele>35</ele>
        <time>2024-12-19T10:29:12Z</time>
      </trkpt>
      <trkpt lat="47.93086" lon="-2.46885">
        <ele>35</ele>
        <time>2024-12-19T10:29:13Z</time>
      </trkpt>
      <trkpt lat="47.93085" lon="-2.46886">
        <ele>35</ele>
        <time>2024-12-19T10:29:14Z</time>
      </trkpt>
      <trkpt lat="47.93084" lon="-2.46886">
        <ele>35</ele>
        <time>2024-12-19T10:29:15Z</time>
      </trkpt>
      <trkpt lat="47.93083" lon="-2.46887">
        <ele>35</ele>
        <time>2024-12-19T10:29:16Z</time>
      </trkpt>
      <trkpt lat="47.93082" lon="-2.46887">
        <ele>35</ele>
        <time>2024-12-19T10:29:17Z</time>
      </trkpt>
      <trkpt lat="47.93081" lon="-2.46886">
        <ele>35.1</ele>
        <time>2024-12-19T10:29:18Z</time>
      </trkpt>
      <trkpt lat="47.9308" lon="-2.46886">
        <ele>35.1</ele>
        <time>2024-12-19T10:29:19Z</time>
      </trkpt>
      <trkpt lat="47.93079" lon="-2.46886">
        <ele>35.1</ele>
        <time>2024-12-19T10:29:20Z</time>
      </trkpt>
      <trkpt lat="47.93078" lon="-2.46887">
        <ele>35.2</ele>
        <time>2024-12-19T10:29:21Z</time>
      </trkpt>
      <trkpt lat="47.93076" lon="-2.46888">
        <ele>35.3</ele>
        <time>2024-12-19T10:29:22Z</time>
      </trkpt>
      <trkpt lat="47.93075" lon="-2.4689">
        <ele>35.4</ele>
        <time>2024-12-19T10:29:23Z</time>
      </trkpt>
      <trkpt lat="47.93073" lon="-2.46891">
        <ele>35.4</ele>
        <time>2024-12-19T10:29:24Z</time>
      </trkpt>
      <trkpt lat="47.93073" lon="-2.46892">
        <ele>35.5</ele>
        <time>2024-12-19T10:29:25Z</time>
      </trkpt>
      <trkpt lat="47.93072" lon="-2.46893">
        <ele>35.6</ele>
        <time>2024-12-19T10:29:26Z</time>
      </trkpt>
      <trkpt lat="47.93071" lon="-2.46894">
        <ele>35.6</ele>
        <time>2024-12-19T10:29:27Z</time>
      </trkpt>
      <trkpt lat="47.9307" lon="-2.46896">
        <ele>35.7</ele>
        <time>2024-12-19T10:29:28Z</time>
      </trkpt>
      <trkpt lat="47.93069" lon="-2.46897">
        <ele>35.8</ele>
        <time>2024-12-19T10:29:29Z</time>
      </trkpt>
      <trkpt lat="47.93068" lon="-2.46898">
        <ele>35.9</ele>
        <time>2024-12-19T10:29:30Z</time>
      </trkpt>
      <trkpt lat="47.93067" lon="-2.46899">
        <ele>36</ele>
        <time>2024-12-19T10:29:31Z</time>
      </trkpt>
      <trkpt lat="47.93066" lon="-2.469">
        <ele>36</ele>
        <time>2024-12-19T10:29:32Z</time>
      </trkpt>
      <trkpt lat="47.93064" lon="-2.46901">
        <ele>36.1</ele>
        <time>2024-12-19T10:29:33Z</time>
      </trkpt>
      <trkpt lat="47.93063" lon="-2.46902">
        <ele>36.2</ele>
        <time>2024-12-19T10:29:34Z</time>
      </trkpt>
      <trkpt lat="47.93062" lon="-2.46903">
        <ele>36.3</ele>
        <time>2024-12-19T10:29:35Z</time>
      </trkpt>
      <trkpt lat="47.93062" lon="-2.46903">
        <ele>36.3</ele>
        <time>2024-12-19T10:29:36Z</time>
      </trkpt>
      <trkpt lat="47.93061" lon="-2.46903">
        <ele>36.3</ele>
        <time>2024-12-19T10:29:37Z</time>
      </trkpt>
      <trkpt lat="47.9306" lon="-2.46903">
        <ele>36.3</ele>
        <time>2024-12-19T10:29:38Z</time>
      </trkpt>
      <trkpt lat="47.9306" lon="-2.46904">
        <ele>36.4</ele>
        <time>2024-12-19T10:29:39Z</time>
      </trkpt>
      <trkpt lat="47.93059" lon="-2.46905">
        <ele>36.5</ele>
        <time>2024-12-19T10:29:40Z</time>
      </trkpt>
      <trkpt lat="47.93058" lon="-2.46906">
        <ele>36.5</ele>
        <time>2024-12-19T10:29:41Z</time>
      </trkpt>
      <trkpt lat="47.93057" lon="-2.46907">
        <ele>36.6</ele>
        <time>2024-12-19T10:29:42Z</time>
      </trkpt>
      <trkpt lat="47.93056" lon="-2.46908">
        <ele>36.7</ele>
        <time>2024-12-19T10:29:43Z</time>
      </trkpt>
      <trkpt lat="47.93055" lon="-2.46909">
        <ele>36.7</ele>
        <time>2024-12-19T10:29:44Z</time>
      </trkpt>
      <trkpt lat="47.93055" lon="-2.4691">
        <ele>36.8</ele>
        <time>2024-12-19T10:29:45Z</time>
      </trkpt>
      <trkpt lat="47.93054" lon="-2.46911">
        <ele>36.8</ele>
        <time>2024-12-19T10:29:46Z</time>
      </trkpt>
      <trkpt lat="47.93053" lon="-2.46913">
        <ele>36.9</ele>
        <time>2024-12-19T10:29:47Z</time>
      </trkpt>
      <trkpt lat="47.93052" lon="-2.46914">
        <ele>36.9</ele>
        <time>2024-12-19T10:29:48Z</time>
      </trkpt>
      <trkpt lat="47.93051" lon="-2.46916">
        <ele>37</ele>
        <time>2024-12-19T10:29:49Z</time>
      </trkpt>
      <trkpt lat="47.9305" lon="-2.46917">
        <ele>37</ele>
        <time>2024-12-19T10:29:50Z</time>
      </trkpt>
      <trkpt lat="47.9305" lon="-2.46917">
        <ele>37</ele>
        <time>2024-12-19T10:29:51Z</time>
      </trkpt>
      <trkpt lat="47.9305" lon="-2.46918">
        <ele>37</ele>
        <time>2024-12-19T10:29:52Z</time>
      </trkpt>
      <trkpt lat="47.93049" lon="-2.46919">
        <ele>37.1</ele>
        <time>2024-12-19T10:29:53Z</time>
      </trkpt>
      <trkpt lat="47.93048" lon="-2.4692">
        <ele>37.1</ele>
        <time>2024-12-19T10:29:54Z</time>
      </trkpt>
      <trkpt lat="47.93047" lon="-2.46921">
        <ele>37.1</ele>
        <time>2024-12-19T10:29:55Z</time>
      </trkpt>
      <trkpt lat="47.93045" lon="-2.46921">
        <ele>37.2</ele>
        <time>2024-12-19T10:29:56Z</time>
      </trkpt>
      <trkpt lat="47.93045" lon="-2.46921">
        <ele>37.2</ele>
        <time>2024-12-19T10:29:57Z</time>
      </trkpt>
      <trkpt lat="47.93045" lon="-2.46921">
        <ele>37.2</ele>
        <time>2024-12-19T10:29:58Z</time>
      </trkpt>
      <trkpt lat="47.93044" lon="-2.46922">
        <ele>37.2</ele>
        <time>2024-12-19T10:29:59Z</time>
      </trkpt>
      <trkpt lat="47.93044" lon="-2.46924">
        <ele>37.3</ele>
        <time>2024-12-19T10:30:00Z</time>
      </trkpt>
      <trkpt lat="47.93044" lon="-2.46925">
        <ele>37.3</ele>
        <time>2024-12-19T10:30:01Z</time>
      </trkpt>
      <trkpt lat="47.93043" lon="-2.46927">
        <ele>37.4</ele>
        <time>2024-12-19T10:30:02Z</time>
      </trkpt>
      <trkpt lat="47.93043" lon="-2.46928">
        <ele>37.4</ele>
        <time>2024-12-19T10:30:03Z</time>
      </trkpt>
      <trkpt lat="47.93042" lon="-2.4693">
        <ele>37.5</ele>
        <time>2024-12-19T10:30:04Z</time>
      </trkpt>
      <trkpt lat="47.93041" lon="-2.46931">
        <ele>37.5</ele>
        <time>2024-12-19T10:30:05Z</time>
      </trkpt>
      <trkpt lat="47.9304" lon="-2.46932">
        <ele>37.5</ele>
        <time>2024-12-19T10:30:06Z</time>
      </trkpt>
      <trkpt lat="47.93039" lon="-2.46932">
        <ele>37.6</ele>
        <time>2024-12-19T10:30:07Z</time>
      </trkpt>
      <trkpt lat="47.93038" lon="-2.46933">
        <ele>37.6</ele>
        <time>2024-12-19T10:30:08Z</time>
      </trkpt>
      <trkpt lat="47.93038" lon="-2.46935">
        <ele>37.6</ele>
        <time>2024-12-19T10:30:09Z</time>
      </trkpt>
      <trkpt lat="47.93037" lon="-2.46936">
        <ele>37.7</ele>
        <time>2024-12-19T10:30:10Z</time>
      </trkpt>
      <trkpt lat="47.93035" lon="-2.46937">
        <ele>37.7</ele>
        <time>2024-12-19T10:30:11Z</time>
      </trkpt>
      <trkpt lat="47.93035" lon="-2.46937">
        <ele>37.7</ele>
        <time>2024-12-19T10:30:12Z</time>
      </trkpt>
      <trkpt lat="47.93034" lon="-2.46937">
        <ele>37.7</ele>
        <time>2024-12-19T10:30:13Z</time>
      </trkpt>
      <trkpt lat="47.93034" lon="-2.46939">
        <ele>37.8</ele>
        <time>2024-12-19T10:30:14Z</time>
      </trkpt>
      <trkpt lat="47.93034" lon="-2.4694">
        <ele>37.8</ele>
        <time>2024-12-19T10:30:15Z</time>
      </trkpt>
      <trkpt lat="47.93033" lon="-2.46941">
        <ele>37.9</ele>
        <time>2024-12-19T10:30:16Z</time>
      </trkpt>
      <trkpt lat="47.93033" lon="-2.46943">
        <ele>38</ele>
        <time>2024-12-19T10:30:17Z</time>
      </trkpt>
      <trkpt lat="47.93033" lon="-2.46945">
        <ele>38</ele>
        <time>2024-12-19T10:30:18Z</time>
      </trkpt>
      <trkpt lat="47.93033" lon="-2.46946">
        <ele>38.3</ele>
        <time>2024-12-19T10:30:19Z</time>
      </trkpt>
      <trkpt lat="47.93033" lon="-2.46948">
        <ele>38.6</ele>
        <time>2024-12-19T10:30:20Z</time>
      </trkpt>
      <trkpt lat="47.93033" lon="-2.46949">
        <ele>38.8</ele>
        <time>2024-12-19T10:30:21Z</time>
      </trkpt>
      <trkpt lat="47.93032" lon="-2.46951">
        <ele>39.1</ele>
        <time>2024-12-19T10:30:22Z</time>
      </trkpt>
      <trkpt lat="47.93032" lon="-2.46952">
        <ele>39.4</ele>
        <time>2024-12-19T10:30:23Z</time>
      </trkpt>
      <trkpt lat="47.93031" lon="-2.46954">
        <ele>39.7</ele>
        <time>2024-12-19T10:30:24Z</time>
      </trkpt>
      <trkpt lat="47.9303" lon="-2.46955">
        <ele>39.9</ele>
        <time>2024-12-19T10:30:25Z</time>
      </trkpt>
      <trkpt lat="47.93029" lon="-2.46956">
        <ele>40.1</ele>
        <time>2024-12-19T10:30:26Z</time>
      </trkpt>
      <trkpt lat="47.93028" lon="-2.46958">
        <ele>40.4</ele>
        <time>2024-12-19T10:30:27Z</time>
      </trkpt>
      <trkpt lat="47.93027" lon="-2.46959">
        <ele>40.6</ele>
        <time>2024-12-19T10:30:28Z</time>
      </trkpt>
      <trkpt lat="47.93026" lon="-2.46961">
        <ele>40.8</ele>
        <time>2024-12-19T10:30:29Z</time>
      </trkpt>
      <trkpt lat="47.93025" lon="-2.46962">
        <ele>40.9</ele>
        <time>2024-12-19T10:30:30Z</time>
      </trkpt>
      <trkpt lat="47.93024" lon="-2.46963">
        <ele>41</ele>
        <time>2024-12-19T10:30:31Z</time>
      </trkpt>
      <trkpt lat="47.93023" lon="-2.46963">
        <ele>41.1</ele>
        <time>2024-12-19T10:30:32Z</time>
      </trkpt>
      <trkpt lat="47.93023" lon="-2.46964">
        <ele>41.1</ele>
        <time>2024-12-19T10:30:33Z</time>
      </trkpt>
      <trkpt lat="47.93022" lon="-2.46965">
        <ele>41.2</ele>
        <time>2024-12-19T10:30:34Z</time>
      </trkpt>
      <trkpt lat="47.93021" lon="-2.46965">
        <ele>41.2</ele>
        <time>2024-12-19T10:30:35Z</time>
      </trkpt>
      <trkpt lat="47.93021" lon="-2.46966">
        <ele>41.3</ele>
        <time>2024-12-19T10:30:36Z</time>
      </trkpt>
      <trkpt lat="47.9302" lon="-2.46967">
        <ele>41.4</ele>
        <time>2024-12-19T10:30:37Z</time>
      </trkpt>
      <trkpt lat="47.9302" lon="-2.46967">
        <ele>41.4</ele>
        <time>2024-12-19T10:30:38Z</time>
      </trkpt>
      <trkpt lat="47.93019" lon="-2.46968">
        <ele>41.4</ele>
        <time>2024-12-19T10:30:39Z</time>
      </trkpt>
      <trkpt lat="47.93018" lon="-2.46969">
        <ele>41.4</ele>
        <time>2024-12-19T10:30:40Z</time>
      </trkpt>
      <trkpt lat="47.93017" lon="-2.46969">
        <ele>41.5</ele>
        <time>2024-12-19T10:30:41Z</time>
      </trkpt>
      <trkpt lat="47.93016" lon="-2.4697">
        <ele>41.5</ele>
        <time>2024-12-19T10:30:42Z</time>
      </trkpt>
      <trkpt lat="47.93015" lon="-2.46971">
        <ele>41.5</ele>
        <time>2024-12-19T10:30:43Z</time>
      </trkpt>
      <trkpt lat="47.93014" lon="-2.46973">
        <ele>41.6</ele>
        <time>2024-12-19T10:30:44Z</time>
      </trkpt>
      <trkpt lat="47.93014" lon="-2.46975">
        <ele>41.7</ele>
        <time>2024-12-19T10:30:45Z</time>
      </trkpt>
      <trkpt lat="47.93013" lon="-2.46978">
        <ele>41.8</ele>
        <time>2024-12-19T10:30:46Z</time>
      </trkpt>
      <trkpt lat="47.93012" lon="-2.4698">
        <ele>42</ele>
        <time>2024-12-19T10:30:47Z</time>
      </trkpt>
      <trkpt lat="47.93011" lon="-2.46982">
        <ele>42</ele>
        <time>2024-12-19T10:30:48Z</time>
      </trkpt>
      <trkpt lat="47.93011" lon="-2.46985">
        <ele>42.1</ele>
        <time>2024-12-19T10:30:49Z</time>
      </trkpt>
      <trkpt lat="47.9301" lon="-2.46987">
        <ele>42.1</ele>
        <time>2024-12-19T10:30:50Z</time>
      </trkpt>
      <trkpt lat="47.93008" lon="-2.4699">
        <ele>42.1</ele>
        <time>2024-12-19T10:30:51Z</time>
      </trkpt>
      <trkpt lat="47.93007" lon="-2.46992">
        <ele>42.1</ele>
        <time>2024-12-19T10:30:52Z</time>
      </trkpt>
      <trkpt lat="47.93007" lon="-2.46994">
        <ele>42.1</ele>
        <time>2024-12-19T10:30:53Z</time>
      </trkpt>
      <trkpt lat="47.93006" lon="-2.46995">
        <ele>42</ele>
        <time>2024-12-19T10:30:54Z</time>
      </trkpt>
      <trkpt lat="47.93005" lon="-2.46998">
        <ele>42</ele>
        <time>2024-12-19T10:30:55Z</time>
      </trkpt>
      <trkpt lat="47.93005" lon="-2.47">
        <ele>42</ele>
        <time>2024-12-19T10:30:56Z</time>
      </trkpt>
      <trkpt lat="47.93004" lon="-2.47003">
        <ele>42.1</ele>
        <time>2024-12-19T10:30:57Z</time>
      </trkpt>
      <trkpt lat="47.93003" lon="-2.47005">
        <ele>42.1</ele>
        <time>2024-12-19T10:30:58Z</time>
      </trkpt>
      <trkpt lat="47.93002" lon="-2.47007">
        <ele>42.2</ele>
        <time>2024-12-19T10:30:59Z</time>
      </trkpt>
      <trkpt lat="47.93002" lon="-2.47009">
        <ele>42.3</ele>
        <time>2024-12-19T10:31:00Z</time>
      </trkpt>
      <trkpt lat="47.93001" lon="-2.47011">
        <ele>42.3</ele>
        <time>2024-12-19T10:31:01Z</time>
      </trkpt>
      <trkpt lat="47.93001" lon="-2.47012">
        <ele>42.4</ele>
        <time>2024-12-19T10:31:02Z</time>
      </trkpt>
      <trkpt lat="47.93" lon="-2.47013">
        <ele>42.5</ele>
        <time>2024-12-19T10:31:03Z</time>
      </trkpt>
      <trkpt lat="47.93" lon="-2.47014">
        <ele>42.5</ele>
        <time>2024-12-19T10:31:04Z</time>
      </trkpt>
      <trkpt lat="47.92999" lon="-2.47016">
        <ele>42.7</ele>
        <time>2024-12-19T10:31:05Z</time>
      </trkpt>
      <trkpt lat="47.92998" lon="-2.47018">
        <ele>42.8</ele>
        <time>2024-12-19T10:31:06Z</time>
      </trkpt>
      <trkpt lat="47.92997" lon="-2.4702">
        <ele>42.8</ele>
        <time>2024-12-19T10:31:07Z</time>
      </trkpt>
      <trkpt lat="47.92997" lon="-2.47021">
        <ele>42.9</ele>
        <time>2024-12-19T10:31:08Z</time>
      </trkpt>
      <trkpt lat="47.92996" lon="-2.47022">
        <ele>43</ele>
        <time>2024-12-19T10:31:09Z</time>
      </trkpt>
      <trkpt lat="47.92996" lon="-2.47023">
        <ele>43.1</ele>
        <time>2024-12-19T10:31:10Z</time>
      </trkpt>
      <trkpt lat="47.92995" lon="-2.47025">
        <ele>43.2</ele>
        <time>2024-12-19T10:31:11Z</time>
      </trkpt>
      <trkpt lat="47.92995" lon="-2.47026">
        <ele>43.3</ele>
        <time>2024-12-19T10:31:12Z</time>
      </trkpt>
      <trkpt lat="47.92994" lon="-2.47027">
        <ele>43.3</ele>
        <time>2024-12-19T10:31:13Z</time>
      </trkpt>
      <trkpt lat="47.92994" lon="-2.47028">
        <ele>43.3</ele>
        <time>2024-12-19T10:31:14Z</time>
      </trkpt>
      <trkpt lat="47.92994" lon="-2.47029">
        <ele>43.3</ele>
        <time>2024-12-19T10:31:15Z</time>
      </trkpt>
      <trkpt lat="47.92993" lon="-2.4703">
        <ele>43.3</ele>
        <time>2024-12-19T10:31:16Z</time>
      </trkpt>
      <trkpt lat="47.92992" lon="-2.47032">
        <ele>43.3</ele>
        <time>2024-12-19T10:31:17Z</time>
      </trkpt>
      <trkpt lat="47.92991" lon="-2.47033">
        <ele>43.2</ele>
        <time>2024-12-19T10:31:18Z</time>
      </trkpt>
      <trkpt lat="47.92991" lon="-2.47034">
        <ele>43.2</ele>
        <time>2024-12-19T10:31:19Z</time>
      </trkpt>
      <trkpt lat="47.92989" lon="-2.47034">
        <ele>43.1</ele>
        <time>2024-12-19T10:31:20Z</time>
      </trkpt>
      <trkpt lat="47.92988" lon="-2.47034">
        <ele>42.9</ele>
        <time>2024-12-19T10:31:21Z</time>
      </trkpt>
      <trkpt lat="47.92989" lon="-2.47034">
        <ele>43</ele>
        <time>2024-12-19T10:31:22Z</time>
      </trkpt>
      <trkpt lat="47.92989" lon="-2.47034">
        <ele>43</ele>
        <time>2024-12-19T10:31:23Z</time>
      </trkpt>
      <trkpt lat="47.92989" lon="-2.47035">
        <ele>43</ele>
        <time>2024-12-19T10:31:24Z</time>
      </trkpt>
      <trkpt lat="47.92989" lon="-2.47036">
        <ele>43.1</ele>
        <time>2024-12-19T10:31:25Z</time>
      </trkpt>
      <trkpt lat="47.92989" lon="-2.47038">
        <ele>43.2</ele>
        <time>2024-12-19T10:31:26Z</time>
      </trkpt>
      <trkpt lat="47.92989" lon="-2.4704">
        <ele>43.2</ele>
        <time>2024-12-19T10:31:27Z</time>
      </trkpt>
      <trkpt lat="47.92989" lon="-2.47041">
        <ele>43.3</ele>
        <time>2024-12-19T10:31:28Z</time>
      </trkpt>
      <trkpt lat="47.92989" lon="-2.47041">
        <ele>43.3</ele>
        <time>2024-12-19T10:31:29Z</time>
      </trkpt>
      <trkpt lat="47.9299" lon="-2.47042">
        <ele>43.4</ele>
        <time>2024-12-19T10:31:30Z</time>
      </trkpt>
      <trkpt lat="47.92989" lon="-2.47043">
        <ele>43.4</ele>
        <time>2024-12-19T10:31:31Z</time>
      </trkpt>
      <trkpt lat="47.92989" lon="-2.47044">
        <ele>43.4</ele>
        <time>2024-12-19T10:31:32Z</time>
      </trkpt>
      <trkpt lat="47.92989" lon="-2.47044">
        <ele>43.3</ele>
        <time>2024-12-19T10:31:33Z</time>
      </trkpt>
      <trkpt lat="47.92988" lon="-2.47044">
        <ele>43.3</ele>
        <time>2024-12-19T10:31:34Z</time>
      </trkpt>
      <trkpt lat="47.92988" lon="-2.47044">
        <ele>43.3</ele>
        <time>2024-12-19T10:31:35Z</time>
      </trkpt>
      <trkpt lat="47.92987" lon="-2.47045">
        <ele>43.2</ele>
        <time>2024-12-19T10:31:36Z</time>
      </trkpt>
      <trkpt lat="47.92986" lon="-2.47047">
        <ele>43.2</ele>
        <time>2024-12-19T10:31:37Z</time>
      </trkpt>
      <trkpt lat="47.92985" lon="-2.47049">
        <ele>43.2</ele>
        <time>2024-12-19T10:31:38Z</time>
      </trkpt>
      <trkpt lat="47.92985" lon="-2.47051">
        <ele>43.2</ele>
        <time>2024-12-19T10:31:39Z</time>
      </trkpt>
      <trkpt lat="47.92985" lon="-2.47052">
        <ele>43.3</ele>
        <time>2024-12-19T10:31:40Z</time>
      </trkpt>
      <trkpt lat="47.92985" lon="-2.47054">
        <ele>43.3</ele>
        <time>2024-12-19T10:31:41Z</time>
      </trkpt>
      <trkpt lat="47.92984" lon="-2.47056">
        <ele>43.3</ele>
        <time>2024-12-19T10:31:42Z</time>
      </trkpt>
      <trkpt lat="47.92983" lon="-2.47058">
        <ele>43.3</ele>
        <time>2024-12-19T10:31:43Z</time>
      </trkpt>
      <trkpt lat="47.92983" lon="-2.4706">
        <ele>43.4</ele>
        <time>2024-12-19T10:31:44Z</time>
      </trkpt>
      <trkpt lat="47.92982" lon="-2.47061">
        <ele>43.5</ele>
        <time>2024-12-19T10:31:45Z</time>
      </trkpt>
      <trkpt lat="47.92982" lon="-2.47062">
        <ele>43.5</ele>
        <time>2024-12-19T10:31:46Z</time>
      </trkpt>
      <trkpt lat="47.92982" lon="-2.47063">
        <ele>43.6</ele>
        <time>2024-12-19T10:31:47Z</time>
      </trkpt>
      <trkpt lat="47.92982" lon="-2.47065">
        <ele>43.7</ele>
        <time>2024-12-19T10:31:48Z</time>
      </trkpt>
      <trkpt lat="47.92981" lon="-2.47067">
        <ele>43.8</ele>
        <time>2024-12-19T10:31:49Z</time>
      </trkpt>
      <trkpt lat="47.92981" lon="-2.47069">
        <ele>43.9</ele>
        <time>2024-12-19T10:31:50Z</time>
      </trkpt>
      <trkpt lat="47.92981" lon="-2.47071">
        <ele>44.1</ele>
        <time>2024-12-19T10:31:51Z</time>
      </trkpt>
      <trkpt lat="47.9298" lon="-2.47074">
        <ele>44.2</ele>
        <time>2024-12-19T10:31:52Z</time>
      </trkpt>
      <trkpt lat="47.92979" lon="-2.47076">
        <ele>44.2</ele>
        <time>2024-12-19T10:31:53Z</time>
      </trkpt>
      <trkpt lat="47.92978" lon="-2.47078">
        <ele>44.3</ele>
        <time>2024-12-19T10:31:54Z</time>
      </trkpt>
      <trkpt lat="47.92978" lon="-2.4708">
        <ele>44.4</ele>
        <time>2024-12-19T10:31:55Z</time>
      </trkpt>
      <trkpt lat="47.92977" lon="-2.47082">
        <ele>44.4</ele>
        <time>2024-12-19T10:31:56Z</time>
      </trkpt>
      <trkpt lat="47.92977" lon="-2.47084">
        <ele>44.5</ele>
        <time>2024-12-19T10:31:57Z</time>
      </trkpt>
      <trkpt lat="47.92976" lon="-2.47087">
        <ele>44.5</ele>
        <time>2024-12-19T10:31:58Z</time>
      </trkpt>
      <trkpt lat="47.92975" lon="-2.47089">
        <ele>44.4</ele>
        <time>2024-12-19T10:31:59Z</time>
      </trkpt>
      <trkpt lat="47.92973" lon="-2.47091">
        <ele>44.4</ele>
        <time>2024-12-19T10:32:00Z</time>
      </trkpt>
      <trkpt lat="47.92972" lon="-2.47093">
        <ele>44.4</ele>
        <time>2024-12-19T10:32:01Z</time>
      </trkpt>
      <trkpt lat="47.92971" lon="-2.47095">
        <ele>44.4</ele>
        <time>2024-12-19T10:32:02Z</time>
      </trkpt>
      <trkpt lat="47.9297" lon="-2.47097">
        <ele>44.4</ele>
        <time>2024-12-19T10:32:03Z</time>
      </trkpt>
      <trkpt lat="47.92969" lon="-2.47098">
        <ele>44.4</ele>
        <time>2024-12-19T10:32:04Z</time>
      </trkpt>
      <trkpt lat="47.92969" lon="-2.47099">
        <ele>44.4</ele>
        <time>2024-12-19T10:32:05Z</time>
      </trkpt>
      <trkpt lat="47.92968" lon="-2.471">
        <ele>44.4</ele>
        <time>2024-12-19T10:32:06Z</time>
      </trkpt>
      <trkpt lat="47.92966" lon="-2.47101">
        <ele>44.4</ele>
        <time>2024-12-19T10:32:07Z</time>
      </trkpt>
      <trkpt lat="47.92965" lon="-2.47101">
        <ele>44.4</ele>
        <time>2024-12-19T10:32:08Z</time>
      </trkpt>
      <trkpt lat="47.92964" lon="-2.47101">
        <ele>44.3</ele>
        <time>2024-12-19T10:32:09Z</time>
      </trkpt>
      <trkpt lat="47.92963" lon="-2.47101">
        <ele>44.3</ele>
        <time>2024-12-19T10:32:10Z</time>
      </trkpt>
      <trkpt lat="47.92961" lon="-2.47101">
        <ele>44.2</ele>
        <time>2024-12-19T10:32:11Z</time>
      </trkpt>
      <trkpt lat="47.9296" lon="-2.47102">
        <ele>44.2</ele>
        <time>2024-12-19T10:32:12Z</time>
      </trkpt>
      <trkpt lat="47.92959" lon="-2.47102">
        <ele>44.2</ele>
        <time>2024-12-19T10:32:13Z</time>
      </trkpt>
      <trkpt lat="47.92957" lon="-2.47102">
        <ele>44.1</ele>
        <time>2024-12-19T10:32:14Z</time>
      </trkpt>
      <trkpt lat="47.92956" lon="-2.47103">
        <ele>44.1</ele>
        <time>2024-12-19T10:32:15Z</time>
      </trkpt>
      <trkpt lat="47.92954" lon="-2.47103">
        <ele>44.1</ele>
        <time>2024-12-19T10:32:16Z</time>
      </trkpt>
      <trkpt lat="47.92952" lon="-2.47104">
        <ele>44</ele>
        <time>2024-12-19T10:32:17Z</time>
      </trkpt>
      <trkpt lat="47.92951" lon="-2.47104">
        <ele>44</ele>
        <time>2024-12-19T10:32:18Z</time>
      </trkpt>
      <trkpt lat="47.9295" lon="-2.47104">
        <ele>43.9</ele>
        <time>2024-12-19T10:32:19Z</time>
      </trkpt>
      <trkpt lat="47.92949" lon="-2.47103">
        <ele>43.9</ele>
        <time>2024-12-19T10:32:20Z</time>
      </trkpt>
      <trkpt lat="47.92947" lon="-2.47103">
        <ele>43.8</ele>
        <time>2024-12-19T10:32:21Z</time>
      </trkpt>
      <trkpt lat="47.92947" lon="-2.47103">
        <ele>43.8</ele>
        <time>2024-12-19T10:32:22Z</time>
      </trkpt>
      <trkpt lat="47.92946" lon="-2.47103">
        <ele>43.7</ele>
        <time>2024-12-19T10:32:23Z</time>
      </trkpt>
      <trkpt lat="47.92944" lon="-2.47103">
        <ele>43.7</ele>
        <time>2024-12-19T10:32:24Z</time>
      </trkpt>
      <trkpt lat="47.92943" lon="-2.47102">
        <ele>43.6</ele>
        <time>2024-12-19T10:32:25Z</time>
      </trkpt>
      <trkpt lat="47.92941" lon="-2.47102">
        <ele>43.6</ele>
        <time>2024-12-19T10:32:26Z</time>
      </trkpt>
      <trkpt lat="47.9294" lon="-2.47102">
        <ele>43.6</ele>
        <time>2024-12-19T10:32:27Z</time>
      </trkpt>
      <trkpt lat="47.92939" lon="-2.47101">
        <ele>43.5</ele>
        <time>2024-12-19T10:32:28Z</time>
      </trkpt>
      <trkpt lat="47.92938" lon="-2.47101">
        <ele>43.5</ele>
        <time>2024-12-19T10:32:29Z</time>
      </trkpt>
      <trkpt lat="47.92936" lon="-2.471">
        <ele>43.4</ele>
        <time>2024-12-19T10:32:30Z</time>
      </trkpt>
      <trkpt lat="47.92935" lon="-2.471">
        <ele>43.4</ele>
        <time>2024-12-19T10:32:31Z</time>
      </trkpt>
      <trkpt lat="47.92934" lon="-2.47099">
        <ele>43.4</ele>
        <time>2024-12-19T10:32:32Z</time>
      </trkpt>
      <trkpt lat="47.92933" lon="-2.47099">
        <ele>43.3</ele>
        <time>2024-12-19T10:32:33Z</time>
      </trkpt>
      <trkpt lat="47.92931" lon="-2.47099">
        <ele>43.3</ele>
        <time>2024-12-19T10:32:34Z</time>
      </trkpt>
      <trkpt lat="47.9293" lon="-2.47099">
        <ele>43.3</ele>
        <time>2024-12-19T10:32:35Z</time>
      </trkpt>
      <trkpt lat="47.92929" lon="-2.47099">
        <ele>43.2</ele>
        <time>2024-12-19T10:32:36Z</time>
      </trkpt>
      <trkpt lat="47.92928" lon="-2.47099">
        <ele>43.2</ele>
        <time>2024-12-19T10:32:37Z</time>
      </trkpt>
      <trkpt lat="47.92926" lon="-2.47099">
        <ele>43.2</ele>
        <time>2024-12-19T10:32:38Z</time>
      </trkpt>
      <trkpt lat="47.92925" lon="-2.47099">
        <ele>43.2</ele>
        <time>2024-12-19T10:32:39Z</time>
      </trkpt>
      <trkpt lat="47.92924" lon="-2.47098">
        <ele>43.1</ele>
        <time>2024-12-19T10:32:40Z</time>
      </trkpt>
      <trkpt lat="47.92922" lon="-2.47098">
        <ele>43.1</ele>
        <time>2024-12-19T10:32:41Z</time>
      </trkpt>
      <trkpt lat="47.92921" lon="-2.47097">
        <ele>43.1</ele>
        <time>2024-12-19T10:32:42Z</time>
      </trkpt>
      <trkpt lat="47.9292" lon="-2.47097">
        <ele>43</ele>
        <time>2024-12-19T10:32:43Z</time>
      </trkpt>
      <trkpt lat="47.92918" lon="-2.47097">
        <ele>43</ele>
        <time>2024-12-19T10:32:44Z</time>
      </trkpt>
      <trkpt lat="47.92917" lon="-2.47097">
        <ele>43</ele>
        <time>2024-12-19T10:32:45Z</time>
      </trkpt>
      <trkpt lat="47.92916" lon="-2.47096">
        <ele>43.1</ele>
        <time>2024-12-19T10:32:46Z</time>
      </trkpt>
      <trkpt lat="47.92914" lon="-2.47096">
        <ele>43.2</ele>
        <time>2024-12-19T10:32:47Z</time>
      </trkpt>
      <trkpt lat="47.92913" lon="-2.47096">
        <ele>43.3</ele>
        <time>2024-12-19T10:32:48Z</time>
      </trkpt>
      <trkpt lat="47.92911" lon="-2.47095">
        <ele>43.4</ele>
        <time>2024-12-19T10:32:49Z</time>
      </trkpt>
      <trkpt lat="47.9291" lon="-2.47095">
        <ele>43.5</ele>
        <time>2024-12-19T10:32:50Z</time>
      </trkpt>
      <trkpt lat="47.92909" lon="-2.47095">
        <ele>43.6</ele>
        <time>2024-12-19T10:32:51Z</time>
      </trkpt>
      <trkpt lat="47.92907" lon="-2.47095">
        <ele>43.7</ele>
        <time>2024-12-19T10:32:52Z</time>
      </trkpt>
      <trkpt lat="47.92906" lon="-2.47095">
        <ele>43.8</ele>
        <time>2024-12-19T10:32:53Z</time>
      </trkpt>
      <trkpt lat="47.92904" lon="-2.47094">
        <ele>43.9</ele>
        <time>2024-12-19T10:32:54Z</time>
      </trkpt>
      <trkpt lat="47.92903" lon="-2.47094">
        <ele>44</ele>
        <time>2024-12-19T10:32:55Z</time>
      </trkpt>
      <trkpt lat="47.92902" lon="-2.47094">
        <ele>44</ele>
        <time>2024-12-19T10:32:56Z</time>
      </trkpt>
      <trkpt lat="47.92901" lon="-2.47095">
        <ele>44.1</ele>
        <time>2024-12-19T10:32:57Z</time>
      </trkpt>
      <trkpt lat="47.929" lon="-2.47095">
        <ele>44.2</ele>
        <time>2024-12-19T10:32:58Z</time>
      </trkpt>
      <trkpt lat="47.92898" lon="-2.47096">
        <ele>44.3</ele>
        <time>2024-12-19T10:32:59Z</time>
      </trkpt>
      <trkpt lat="47.92897" lon="-2.47096">
        <ele>44.4</ele>
        <time>2024-12-19T10:33:00Z</time>
      </trkpt>
      <trkpt lat="47.92896" lon="-2.47096">
        <ele>44.5</ele>
        <time>2024-12-19T10:33:01Z</time>
      </trkpt>
      <trkpt lat="47.92894" lon="-2.47096">
        <ele>44.6</ele>
        <time>2024-12-19T10:33:02Z</time>
      </trkpt>
      <trkpt lat="47.92893" lon="-2.47095">
        <ele>44.7</ele>
        <time>2024-12-19T10:33:03Z</time>
      </trkpt>
      <trkpt lat="47.92892" lon="-2.47094">
        <ele>44.7</ele>
        <time>2024-12-19T10:33:04Z</time>
      </trkpt>
      <trkpt lat="47.92892" lon="-2.47094">
        <ele>44.8</ele>
        <time>2024-12-19T10:33:05Z</time>
      </trkpt>
      <trkpt lat="47.92891" lon="-2.47093">
        <ele>44.9</ele>
        <time>2024-12-19T10:33:06Z</time>
      </trkpt>
      <trkpt lat="47.9289" lon="-2.47093">
        <ele>44.9</ele>
        <time>2024-12-19T10:33:07Z</time>
      </trkpt>
      <trkpt lat="47.9289" lon="-2.47092">
        <ele>44.9</ele>
        <time>2024-12-19T10:33:08Z</time>
      </trkpt>
      <trkpt lat="47.9289" lon="-2.47092">
        <ele>44.9</ele>
        <time>2024-12-19T10:33:09Z</time>
      </trkpt>
      <trkpt lat="47.9289" lon="-2.47093">
        <ele>44.9</ele>
        <time>2024-12-19T10:33:10Z</time>
      </trkpt>
      <trkpt lat="47.9289" lon="-2.47093">
        <ele>45</ele>
        <time>2024-12-19T10:33:11Z</time>
      </trkpt>
      <trkpt lat="47.92889" lon="-2.47093">
        <ele>45</ele>
        <time>2024-12-19T10:33:12Z</time>
      </trkpt>
      <trkpt lat="47.92889" lon="-2.47092">
        <ele>45.1</ele>
        <time>2024-12-19T10:33:13Z</time>
      </trkpt>
      <trkpt lat="47.92888" lon="-2.47092">
        <ele>45.2</ele>
        <time>2024-12-19T10:33:14Z</time>
      </trkpt>
      <trkpt lat="47.92887" lon="-2.47091">
        <ele>45.3</ele>
        <time>2024-12-19T10:33:15Z</time>
      </trkpt>
      <trkpt lat="47.92886" lon="-2.47091">
        <ele>45.4</ele>
        <time>2024-12-19T10:33:16Z</time>
      </trkpt>
      <trkpt lat="47.92886" lon="-2.47091">
        <ele>45.5</ele>
        <time>2024-12-19T10:33:17Z</time>
      </trkpt>
      <trkpt lat="47.92885" lon="-2.47091">
        <ele>45.7</ele>
        <time>2024-12-19T10:33:18Z</time>
      </trkpt>
      <trkpt lat="47.92884" lon="-2.47091">
        <ele>45.8</ele>
        <time>2024-12-19T10:33:19Z</time>
      </trkpt>
      <trkpt lat="47.92883" lon="-2.4709">
        <ele>46</ele>
        <time>2024-12-19T10:33:20Z</time>
      </trkpt>
      <trkpt lat="47.92882" lon="-2.47089">
        <ele>46.1</ele>
        <time>2024-12-19T10:33:21Z</time>
      </trkpt>
      <trkpt lat="47.92882" lon="-2.47089">
        <ele>46.3</ele>
        <time>2024-12-19T10:33:22Z</time>
      </trkpt>
      <trkpt lat="47.92881" lon="-2.47089">
        <ele>46.5</ele>
        <time>2024-12-19T10:33:23Z</time>
      </trkpt>
      <trkpt lat="47.9288" lon="-2.47089">
        <ele>46.6</ele>
        <time>2024-12-19T10:33:24Z</time>
      </trkpt>
      <trkpt lat="47.92879" lon="-2.47088">
        <ele>46.7</ele>
        <time>2024-12-19T10:33:25Z</time>
      </trkpt>
      <trkpt lat="47.92879" lon="-2.47088">
        <ele>46.8</ele>
        <time>2024-12-19T10:33:26Z</time>
      </trkpt>
      <trkpt lat="47.92879" lon="-2.47087">
        <ele>46.8</ele>
        <time>2024-12-19T10:33:27Z</time>
      </trkpt>
      <trkpt lat="47.92878" lon="-2.47087">
        <ele>46.9</ele>
        <time>2024-12-19T10:33:28Z</time>
      </trkpt>
      <trkpt lat="47.92877" lon="-2.47087">
        <ele>47.1</ele>
        <time>2024-12-19T10:33:29Z</time>
      </trkpt>
      <trkpt lat="47.92876" lon="-2.47087">
        <ele>47.2</ele>
        <time>2024-12-19T10:33:30Z</time>
      </trkpt>
      <trkpt lat="47.92876" lon="-2.47087">
        <ele>47.3</ele>
        <time>2024-12-19T10:33:31Z</time>
      </trkpt>
      <trkpt lat="47.92875" lon="-2.47088">
        <ele>47.4</ele>
        <time>2024-12-19T10:33:32Z</time>
      </trkpt>
      <trkpt lat="47.92875" lon="-2.47088">
        <ele>47.5</ele>
        <time>2024-12-19T10:33:33Z</time>
      </trkpt>
      <trkpt lat="47.92874" lon="-2.47089">
        <ele>47.6</ele>
        <time>2024-12-19T10:33:34Z</time>
      </trkpt>
      <trkpt lat="47.92873" lon="-2.47089">
        <ele>47.8</ele>
        <time>2024-12-19T10:33:35Z</time>
      </trkpt>
      <trkpt lat="47.92872" lon="-2.47089">
        <ele>47.9</ele>
        <time>2024-12-19T10:33:36Z</time>
      </trkpt>
      <trkpt lat="47.92871" lon="-2.47089">
        <ele>48.1</ele>
        <time>2024-12-19T10:33:37Z</time>
      </trkpt>
      <trkpt lat="47.9287" lon="-2.4709">
        <ele>48.2</ele>
        <time>2024-12-19T10:33:38Z</time>
      </trkpt>
      <trkpt lat="47.92871" lon="-2.47089">
        <ele>48.1</ele>
        <time>2024-12-19T10:33:39Z</time>
      </trkpt>
      <trkpt lat="47.92872" lon="-2.47089">
        <ele>48</ele>
        <time>2024-12-19T10:33:40Z</time>
      </trkpt>
      <trkpt lat="47.92872" lon="-2.47089">
        <ele>48</ele>
        <time>2024-12-19T10:33:41Z</time>
      </trkpt>
      <trkpt lat="47.92872" lon="-2.47089">
        <ele>47.9</ele>
        <time>2024-12-19T10:33:42Z</time>
      </trkpt>
      <trkpt lat="47.92872" lon="-2.47089">
        <ele>47.9</ele>
        <time>2024-12-19T10:33:43Z</time>
      </trkpt>
      <trkpt lat="47.92872" lon="-2.47089">
        <ele>47.9</ele>
        <time>2024-12-19T10:33:44Z</time>
      </trkpt>
      <trkpt lat="47.92871" lon="-2.47089">
        <ele>48.1</ele>
        <time>2024-12-19T10:33:45Z</time>
      </trkpt>
      <trkpt lat="47.9287" lon="-2.47088">
        <ele>48.3</ele>
        <time>2024-12-19T10:33:46Z</time>
      </trkpt>
      <trkpt lat="47.92869" lon="-2.47088">
        <ele>48.4</ele>
        <time>2024-12-19T10:33:47Z</time>
      </trkpt>
      <trkpt lat="47.92868" lon="-2.47088">
        <ele>48.6</ele>
        <time>2024-12-19T10:33:48Z</time>
      </trkpt>
      <trkpt lat="47.92867" lon="-2.47088">
        <ele>48.8</ele>
        <time>2024-12-19T10:33:49Z</time>
      </trkpt>
      <trkpt lat="47.92866" lon="-2.47088">
        <ele>49</ele>
        <time>2024-12-19T10:33:50Z</time>
      </trkpt>
      <trkpt lat="47.92865" lon="-2.47088">
        <ele>49.2</ele>
        <time>2024-12-19T10:33:51Z</time>
      </trkpt>
      <trkpt lat="47.92864" lon="-2.47088">
        <ele>49.3</ele>
        <time>2024-12-19T10:33:52Z</time>
      </trkpt>
      <trkpt lat="47.92863" lon="-2.47087">
        <ele>49.5</ele>
        <time>2024-12-19T10:33:53Z</time>
      </trkpt>
      <trkpt lat="47.92862" lon="-2.47087">
        <ele>49.7</ele>
        <time>2024-12-19T10:33:54Z</time>
      </trkpt>
      <trkpt lat="47.92861" lon="-2.47087">
        <ele>49.9</ele>
        <time>2024-12-19T10:33:55Z</time>
      </trkpt>
      <trkpt lat="47.9286" lon="-2.47087">
        <ele>50.2</ele>
        <time>2024-12-19T10:33:56Z</time>
      </trkpt>
      <trkpt lat="47.92858" lon="-2.47087">
        <ele>50.4</ele>
        <time>2024-12-19T10:33:57Z</time>
      </trkpt>
      <trkpt lat="47.92857" lon="-2.47088">
        <ele>50.6</ele>
        <time>2024-12-19T10:33:58Z</time>
      </trkpt>
      <trkpt lat="47.92856" lon="-2.47087">
        <ele>50.8</ele>
        <time>2024-12-19T10:33:59Z</time>
      </trkpt>
      <trkpt lat="47.92856" lon="-2.47087">
        <ele>50.9</ele>
        <time>2024-12-19T10:34:00Z</time>
      </trkpt>
      <trkpt lat="47.92855" lon="-2.47087">
        <ele>51.1</ele>
        <time>2024-12-19T10:34:01Z</time>
      </trkpt>
      <trkpt lat="47.92854" lon="-2.47086">
        <ele>51.2</ele>
        <time>2024-12-19T10:34:02Z</time>
      </trkpt>
      <trkpt lat="47.92853" lon="-2.47087">
        <ele>51.4</ele>
        <time>2024-12-19T10:34:03Z</time>
      </trkpt>
      <trkpt lat="47.92852" lon="-2.47087">
        <ele>51.6</ele>
        <time>2024-12-19T10:34:04Z</time>
      </trkpt>
      <trkpt lat="47.92851" lon="-2.47087">
        <ele>51.8</ele>
        <time>2024-12-19T10:34:05Z</time>
      </trkpt>
      <trkpt lat="47.9285" lon="-2.47087">
        <ele>52</ele>
        <time>2024-12-19T10:34:06Z</time>
      </trkpt>
      <trkpt lat="47.92849" lon="-2.47087">
        <ele>52.2</ele>
        <time>2024-12-19T10:34:07Z</time>
      </trkpt>
      <trkpt lat="47.92848" lon="-2.47087">
        <ele>52.4</ele>
        <time>2024-12-19T10:34:08Z</time>
      </trkpt>
      <trkpt lat="47.92847" lon="-2.47086">
        <ele>52.5</ele>
        <time>2024-12-19T10:34:09Z</time>
      </trkpt>
      <trkpt lat="47.92846" lon="-2.47086">
        <ele>52.7</ele>
        <time>2024-12-19T10:34:10Z</time>
      </trkpt>
      <trkpt lat="47.92845" lon="-2.47086">
        <ele>52.9</ele>
        <time>2024-12-19T10:34:11Z</time>
      </trkpt>
      <trkpt lat="47.92844" lon="-2.47086">
        <ele>53.1</ele>
        <time>2024-12-19T10:34:12Z</time>
      </trkpt>
      <trkpt lat="47.92843" lon="-2.47086">
        <ele>53.2</ele>
        <time>2024-12-19T10:34:13Z</time>
      </trkpt>
      <trkpt lat="47.92843" lon="-2.47086">
        <ele>53.4</ele>
        <time>2024-12-19T10:34:14Z</time>
      </trkpt>
      <trkpt lat="47.92842" lon="-2.47087">
        <ele>53.5</ele>
        <time>2024-12-19T10:34:15Z</time>
      </trkpt>
      <trkpt lat="47.92841" lon="-2.47087">
        <ele>53.6</ele>
        <time>2024-12-19T10:34:16Z</time>
      </trkpt>
      <trkpt lat="47.92841" lon="-2.47087">
        <ele>53.8</ele>
        <time>2024-12-19T10:34:17Z</time>
      </trkpt>
      <trkpt lat="47.9284" lon="-2.47087">
        <ele>54</ele>
        <time>2024-12-19T10:34:18Z</time>
      </trkpt>
      <trkpt lat="47.92839" lon="-2.47088">
        <ele>54.1</ele>
        <time>2024-12-19T10:34:19Z</time>
      </trkpt>
      <trkpt lat="47.92838" lon="-2.47088">
        <ele>54.3</ele>
        <time>2024-12-19T10:34:20Z</time>
      </trkpt>
      <trkpt lat="47.92837" lon="-2.47088">
        <ele>54.5</ele>
        <time>2024-12-19T10:34:21Z</time>
      </trkpt>
      <trkpt lat="47.92836" lon="-2.47087">
        <ele>54.7</ele>
        <time>2024-12-19T10:34:22Z</time>
      </trkpt>
      <trkpt lat="47.92835" lon="-2.47087">
        <ele>54.9</ele>
        <time>2024-12-19T10:34:23Z</time>
      </trkpt>
      <trkpt lat="47.92834" lon="-2.47087">
        <ele>55.1</ele>
        <time>2024-12-19T10:34:24Z</time>
      </trkpt>
      <trkpt lat="47.92833" lon="-2.47086">
        <ele>55.2</ele>
        <time>2024-12-19T10:34:25Z</time>
      </trkpt>
      <trkpt lat="47.92832" lon="-2.47086">
        <ele>55.3</ele>
        <time>2024-12-19T10:34:26Z</time>
      </trkpt>
      <trkpt lat="47.92831" lon="-2.47085">
        <ele>55.4</ele>
        <time>2024-12-19T10:34:27Z</time>
      </trkpt>
      <trkpt lat="47.9283" lon="-2.47086">
        <ele>55.6</ele>
        <time>2024-12-19T10:34:28Z</time>
      </trkpt>
      <trkpt lat="47.92828" lon="-2.47086">
        <ele>55.8</ele>
        <time>2024-12-19T10:34:29Z</time>
      </trkpt>
      <trkpt lat="47.92827" lon="-2.47086">
        <ele>56</ele>
        <time>2024-12-19T10:34:30Z</time>
      </trkpt>
      <trkpt lat="47.92826" lon="-2.47087">
        <ele>56.2</ele>
        <time>2024-12-19T10:34:31Z</time>
      </trkpt>
      <trkpt lat="47.92825" lon="-2.47087">
        <ele>56.4</ele>
        <time>2024-12-19T10:34:32Z</time>
      </trkpt>
      <trkpt lat="47.92823" lon="-2.47087">
        <ele>56.6</ele>
        <time>2024-12-19T10:34:33Z</time>
      </trkpt>
      <trkpt lat="47.92822" lon="-2.47088">
        <ele>56.7</ele>
        <time>2024-12-19T10:34:34Z</time>
      </trkpt>
      <trkpt lat="47.92821" lon="-2.47087">
        <ele>56.9</ele>
        <time>2024-12-19T10:34:35Z</time>
      </trkpt>
      <trkpt lat="47.9282" lon="-2.47087">
        <ele>57</ele>
        <time>2024-12-19T10:34:36Z</time>
      </trkpt>
      <trkpt lat="47.9282" lon="-2.47087">
        <ele>57.1</ele>
        <time>2024-12-19T10:34:37Z</time>
      </trkpt>
      <trkpt lat="47.92819" lon="-2.47087">
        <ele>57.2</ele>
        <time>2024-12-19T10:34:38Z</time>
      </trkpt>
      <trkpt lat="47.92818" lon="-2.47087">
        <ele>57.3</ele>
        <time>2024-12-19T10:34:39Z</time>
      </trkpt>
      <trkpt lat="47.92818" lon="-2.47087">
        <ele>57.4</ele>
        <time>2024-12-19T10:34:40Z</time>
      </trkpt>
      <trkpt lat="47.92817" lon="-2.47087">
        <ele>57.5</ele>
        <time>2024-12-19T10:34:41Z</time>
      </trkpt>
      <trkpt lat="47.92816" lon="-2.47087">
        <ele>57.6</ele>
        <time>2024-12-19T10:34:42Z</time>
      </trkpt>
      <trkpt lat="47.92815" lon="-2.47087">
        <ele>57.8</ele>
        <time>2024-12-19T10:34:43Z</time>
      </trkpt>
      <trkpt lat="47.92814" lon="-2.47087">
        <ele>57.9</ele>
        <time>2024-12-19T10:34:44Z</time>
      </trkpt>
      <trkpt lat="47.92814" lon="-2.47087">
        <ele>58</ele>
        <time>2024-12-19T10:34:45Z</time>
      </trkpt>
      <trkpt lat="47.92813" lon="-2.47087">
        <ele>58.1</ele>
        <time>2024-12-19T10:34:46Z</time>
      </trkpt>
      <trkpt lat="47.92812" lon="-2.47087">
        <ele>58.2</ele>
        <time>2024-12-19T10:34:47Z</time>
      </trkpt>
      <trkpt lat="47.92811" lon="-2.47087">
        <ele>58.3</ele>
        <time>2024-12-19T10:34:48Z</time>
      </trkpt>
      <trkpt lat="47.9281" lon="-2.47087">
        <ele>58.5</ele>
        <time>2024-12-19T10:34:49Z</time>
      </trkpt>
      <trkpt lat="47.92809" lon="-2.47087">
        <ele>58.6</ele>
        <time>2024-12-19T10:34:50Z</time>
      </trkpt>
      <trkpt lat="47.92809" lon="-2.47086">
        <ele>58.7</ele>
        <time>2024-12-19T10:34:51Z</time>
      </trkpt>
      <trkpt lat="47.92808" lon="-2.47086">
        <ele>58.8</ele>
        <time>2024-12-19T10:34:52Z</time>
      </trkpt>
      <trkpt lat="47.92807" lon="-2.47086">
        <ele>58.9</ele>
        <time>2024-12-19T10:34:53Z</time>
      </trkpt>
      <trkpt lat="47.92805" lon="-2.47086">
        <ele>59.1</ele>
        <time>2024-12-19T10:34:54Z</time>
      </trkpt>
      <trkpt lat="47.92804" lon="-2.47086">
        <ele>59.3</ele>
        <time>2024-12-19T10:34:55Z</time>
      </trkpt>
      <trkpt lat="47.92803" lon="-2.47086">
        <ele>59.4</ele>
        <time>2024-12-19T10:34:56Z</time>
      </trkpt>
      <trkpt lat="47.92802" lon="-2.47087">
        <ele>59.5</ele>
        <time>2024-12-19T10:34:57Z</time>
      </trkpt>
      <trkpt lat="47.92801" lon="-2.47087">
        <ele>59.6</ele>
        <time>2024-12-19T10:34:58Z</time>
      </trkpt>
      <trkpt lat="47.928" lon="-2.47087">
        <ele>59.7</ele>
        <time>2024-12-19T10:34:59Z</time>
      </trkpt>
      <trkpt lat="47.92799" lon="-2.47087">
        <ele>59.9</ele>
        <time>2024-12-19T10:35:00Z</time>
      </trkpt>
      <trkpt lat="47.92798" lon="-2.47087">
        <ele>59.9</ele>
        <time>2024-12-19T10:35:01Z</time>
      </trkpt>
      <trkpt lat="47.92797" lon="-2.47087">
        <ele>60</ele>
        <time>2024-12-19T10:35:02Z</time>
      </trkpt>
      <trkpt lat="47.92796" lon="-2.47086">
        <ele>60.1</ele>
        <time>2024-12-19T10:35:03Z</time>
      </trkpt>
      <trkpt lat="47.92795" lon="-2.47086">
        <ele>60.2</ele>
        <time>2024-12-19T10:35:04Z</time>
      </trkpt>
      <trkpt lat="47.92793" lon="-2.47086">
        <ele>60.4</ele>
        <time>2024-12-19T10:35:05Z</time>
      </trkpt>
      <trkpt lat="47.92792" lon="-2.47086">
        <ele>60.5</ele>
        <time>2024-12-19T10:35:06Z</time>
      </trkpt>
      <trkpt lat="47.92791" lon="-2.47086">
        <ele>60.6</ele>
        <time>2024-12-19T10:35:07Z</time>
      </trkpt>
      <trkpt lat="47.9279" lon="-2.47086">
        <ele>60.7</ele>
        <time>2024-12-19T10:35:08Z</time>
      </trkpt>
      <trkpt lat="47.92789" lon="-2.47086">
        <ele>60.8</ele>
        <time>2024-12-19T10:35:09Z</time>
      </trkpt>
      <trkpt lat="47.92788" lon="-2.47087">
        <ele>61</ele>
        <time>2024-12-19T10:35:10Z</time>
      </trkpt>
      <trkpt lat="47.92787" lon="-2.47086">
        <ele>61</ele>
        <time>2024-12-19T10:35:11Z</time>
      </trkpt>
      <trkpt lat="47.92786" lon="-2.47086">
        <ele>61.1</ele>
        <time>2024-12-19T10:35:12Z</time>
      </trkpt>
      <trkpt lat="47.92785" lon="-2.47085">
        <ele>61.2</ele>
        <time>2024-12-19T10:35:13Z</time>
      </trkpt>
      <trkpt lat="47.92784" lon="-2.47086">
        <ele>61.3</ele>
        <time>2024-12-19T10:35:14Z</time>
      </trkpt>
      <trkpt lat="47.92783" lon="-2.47086">
        <ele>61.5</ele>
        <time>2024-12-19T10:35:15Z</time>
      </trkpt>
      <trkpt lat="47.92782" lon="-2.47086">
        <ele>61.6</ele>
        <time>2024-12-19T10:35:16Z</time>
      </trkpt>
      <trkpt lat="47.92781" lon="-2.47086">
        <ele>61.7</ele>
        <time>2024-12-19T10:35:17Z</time>
      </trkpt>
      <trkpt lat="47.9278" lon="-2.47087">
        <ele>61.8</ele>
        <time>2024-12-19T10:35:18Z</time>
      </trkpt>
      <trkpt lat="47.92779" lon="-2.47087">
        <ele>61.9</ele>
        <time>2024-12-19T10:35:19Z</time>
      </trkpt>
      <trkpt lat="47.9278" lon="-2.47087">
        <ele>61.8</ele>
        <time>2024-12-19T10:35:20Z</time>
      </trkpt>
      <trkpt lat="47.92781" lon="-2.47086">
        <ele>61.7</ele>
        <time>2024-12-19T10:35:21Z</time>
      </trkpt>
      <trkpt lat="47.92781" lon="-2.47087">
        <ele>61.7</ele>
        <time>2024-12-19T10:35:22Z</time>
      </trkpt>
      <trkpt lat="47.92781" lon="-2.47087">
        <ele>61.6</ele>
        <time>2024-12-19T10:35:23Z</time>
      </trkpt>
      <trkpt lat="47.92782" lon="-2.47087">
        <ele>61.6</ele>
        <time>2024-12-19T10:35:24Z</time>
      </trkpt>
      <trkpt lat="47.92782" lon="-2.47087">
        <ele>61.6</ele>
        <time>2024-12-19T10:35:25Z</time>
      </trkpt>
      <trkpt lat="47.92781" lon="-2.47087">
        <ele>61.7</ele>
        <time>2024-12-19T10:35:26Z</time>
      </trkpt>
      <trkpt lat="47.9278" lon="-2.47088">
        <ele>61.8</ele>
        <time>2024-12-19T10:35:27Z</time>
      </trkpt>
      <trkpt lat="47.92779" lon="-2.47089">
        <ele>61.9</ele>
        <time>2024-12-19T10:35:28Z</time>
      </trkpt>
      <trkpt lat="47.92778" lon="-2.47091">
        <ele>62</ele>
        <time>2024-12-19T10:35:29Z</time>
      </trkpt>
      <trkpt lat="47.92777" lon="-2.47093">
        <ele>62.1</ele>
        <time>2024-12-19T10:35:30Z</time>
      </trkpt>
      <trkpt lat="47.92776" lon="-2.47095">
        <ele>62.2</ele>
        <time>2024-12-19T10:35:31Z</time>
      </trkpt>
      <trkpt lat="47.92775" lon="-2.47097">
        <ele>62.3</ele>
        <time>2024-12-19T10:35:32Z</time>
      </trkpt>
      <trkpt lat="47.92775" lon="-2.47099">
        <ele>62.3</ele>
        <time>2024-12-19T10:35:33Z</time>
      </trkpt>
      <trkpt lat="47.92774" lon="-2.471">
        <ele>62.4</ele>
        <time>2024-12-19T10:35:34Z</time>
      </trkpt>
      <trkpt lat="47.92774" lon="-2.47101">
        <ele>62.4</ele>
        <time>2024-12-19T10:35:35Z</time>
      </trkpt>
      <trkpt lat="47.92774" lon="-2.47103">
        <ele>62.4</ele>
        <time>2024-12-19T10:35:36Z</time>
      </trkpt>
      <trkpt lat="47.92773" lon="-2.47105">
        <ele>62.5</ele>
        <time>2024-12-19T10:35:37Z</time>
      </trkpt>
      <trkpt lat="47.92773" lon="-2.47107">
        <ele>62.5</ele>
        <time>2024-12-19T10:35:38Z</time>
      </trkpt>
      <trkpt lat="47.92773" lon="-2.47108">
        <ele>62.5</ele>
        <time>2024-12-19T10:35:39Z</time>
      </trkpt>
      <trkpt lat="47.92773" lon="-2.47109">
        <ele>62.5</ele>
        <time>2024-12-19T10:35:40Z</time>
      </trkpt>
      <trkpt lat="47.92773" lon="-2.4711">
        <ele>62.5</ele>
        <time>2024-12-19T10:35:41Z</time>
      </trkpt>
      <trkpt lat="47.92773" lon="-2.47112">
        <ele>62.5</ele>
        <time>2024-12-19T10:35:42Z</time>
      </trkpt>
      <trkpt lat="47.92773" lon="-2.47114">
        <ele>62.6</ele>
        <time>2024-12-19T10:35:43Z</time>
      </trkpt>
      <trkpt lat="47.92773" lon="-2.47116">
        <ele>62.7</ele>
        <time>2024-12-19T10:35:44Z</time>
      </trkpt>
      <trkpt lat="47.92772" lon="-2.47117">
        <ele>62.8</ele>
        <time>2024-12-19T10:35:45Z</time>
      </trkpt>
      <trkpt lat="47.92772" lon="-2.47119">
        <ele>62.9</ele>
        <time>2024-12-19T10:35:46Z</time>
      </trkpt>
      <trkpt lat="47.92771" lon="-2.4712">
        <ele>62.9</ele>
        <time>2024-12-19T10:35:47Z</time>
      </trkpt>
      <trkpt lat="47.92771" lon="-2.47121">
        <ele>63</ele>
        <time>2024-12-19T10:35:48Z</time>
      </trkpt>
      <trkpt lat="47.92771" lon="-2.47123">
        <ele>63.1</ele>
        <time>2024-12-19T10:35:49Z</time>
      </trkpt>
      <trkpt lat="47.9277" lon="-2.47125">
        <ele>63.2</ele>
        <time>2024-12-19T10:35:50Z</time>
      </trkpt>
      <trkpt lat="47.9277" lon="-2.47127">
        <ele>63.3</ele>
        <time>2024-12-19T10:35:51Z</time>
      </trkpt>
      <trkpt lat="47.92769" lon="-2.47128">
        <ele>63.3</ele>
        <time>2024-12-19T10:35:52Z</time>
      </trkpt>
      <trkpt lat="47.92769" lon="-2.4713">
        <ele>63.4</ele>
        <time>2024-12-19T10:35:53Z</time>
      </trkpt>
      <trkpt lat="47.92769" lon="-2.47131">
        <ele>63.5</ele>
        <time>2024-12-19T10:35:54Z</time>
      </trkpt>
      <trkpt lat="47.92768" lon="-2.47133">
        <ele>63.6</ele>
        <time>2024-12-19T10:35:55Z</time>
      </trkpt>
      <trkpt lat="47.92767" lon="-2.47135">
        <ele>63.7</ele>
        <time>2024-12-19T10:35:56Z</time>
      </trkpt>
      <trkpt lat="47.92767" lon="-2.47136">
        <ele>63.7</ele>
        <time>2024-12-19T10:35:57Z</time>
      </trkpt>
      <trkpt lat="47.92766" lon="-2.47138">
        <ele>63.8</ele>
        <time>2024-12-19T10:35:58Z</time>
      </trkpt>
      <trkpt lat="47.92766" lon="-2.4714">
        <ele>63.9</ele>
        <time>2024-12-19T10:35:59Z</time>
      </trkpt>
      <trkpt lat="47.92766" lon="-2.47141">
        <ele>63.9</ele>
        <time>2024-12-19T10:36:00Z</time>
      </trkpt>
      <trkpt lat="47.92765" lon="-2.47143">
        <ele>64</ele>
        <time>2024-12-19T10:36:01Z</time>
      </trkpt>
      <trkpt lat="47.92764" lon="-2.47145">
        <ele>64.1</ele>
        <time>2024-12-19T10:36:02Z</time>
      </trkpt>
      <trkpt lat="47.92763" lon="-2.47146">
        <ele>64.2</ele>
        <time>2024-12-19T10:36:03Z</time>
      </trkpt>
      <trkpt lat="47.92762" lon="-2.47148">
        <ele>64.3</ele>
        <time>2024-12-19T10:36:04Z</time>
      </trkpt>
      <trkpt lat="47.92761" lon="-2.4715">
        <ele>64.3</ele>
        <time>2024-12-19T10:36:05Z</time>
      </trkpt>
      <trkpt lat="47.9276" lon="-2.47152">
        <ele>64.4</ele>
        <time>2024-12-19T10:36:06Z</time>
      </trkpt>
      <trkpt lat="47.9276" lon="-2.47153">
        <ele>64.5</ele>
        <time>2024-12-19T10:36:07Z</time>
      </trkpt>
      <trkpt lat="47.92759" lon="-2.47155">
        <ele>64.5</ele>
        <time>2024-12-19T10:36:08Z</time>
      </trkpt>
      <trkpt lat="47.92759" lon="-2.47155">
        <ele>64.6</ele>
        <time>2024-12-19T10:36:09Z</time>
      </trkpt>
      <trkpt lat="47.92758" lon="-2.47156">
        <ele>64.6</ele>
        <time>2024-12-19T10:36:10Z</time>
      </trkpt>
      <trkpt lat="47.92758" lon="-2.47158">
        <ele>64.6</ele>
        <time>2024-12-19T10:36:11Z</time>
      </trkpt>
      <trkpt lat="47.92757" lon="-2.47159">
        <ele>64.7</ele>
        <time>2024-12-19T10:36:12Z</time>
      </trkpt>
      <trkpt lat="47.92756" lon="-2.4716">
        <ele>64.7</ele>
        <time>2024-12-19T10:36:13Z</time>
      </trkpt>
      <trkpt lat="47.92755" lon="-2.47161">
        <ele>64.8</ele>
        <time>2024-12-19T10:36:14Z</time>
      </trkpt>
      <trkpt lat="47.92754" lon="-2.47162">
        <ele>64.8</ele>
        <time>2024-12-19T10:36:15Z</time>
      </trkpt>
      <trkpt lat="47.92753" lon="-2.47162">
        <ele>64.9</ele>
        <time>2024-12-19T10:36:16Z</time>
      </trkpt>
      <trkpt lat="47.92752" lon="-2.47163">
        <ele>64.9</ele>
        <time>2024-12-19T10:36:17Z</time>
      </trkpt>
      <trkpt lat="47.92751" lon="-2.47164">
        <ele>65</ele>
        <time>2024-12-19T10:36:18Z</time>
      </trkpt>
      <trkpt lat="47.9275" lon="-2.47165">
        <ele>65</ele>
        <time>2024-12-19T10:36:19Z</time>
      </trkpt>
      <trkpt lat="47.92749" lon="-2.47166">
        <ele>65.1</ele>
        <time>2024-12-19T10:36:20Z</time>
      </trkpt>
      <trkpt lat="47.92748" lon="-2.47167">
        <ele>65.1</ele>
        <time>2024-12-19T10:36:21Z</time>
      </trkpt>
      <trkpt lat="47.92746" lon="-2.4717">
        <ele>65.3</ele>
        <time>2024-12-19T10:36:22Z</time>
      </trkpt>
      <trkpt lat="47.92744" lon="-2.47172">
        <ele>65.4</ele>
        <time>2024-12-19T10:36:23Z</time>
      </trkpt>
      <trkpt lat="47.92742" lon="-2.47173">
        <ele>65.5</ele>
        <time>2024-12-19T10:36:24Z</time>
      </trkpt>
      <trkpt lat="47.9274" lon="-2.47174">
        <ele>65.6</ele>
        <time>2024-12-19T10:36:25Z</time>
      </trkpt>
      <trkpt lat="47.92739" lon="-2.47174">
        <ele>65.7</ele>
        <time>2024-12-19T10:36:26Z</time>
      </trkpt>
      <trkpt lat="47.92737" lon="-2.47175">
        <ele>65.8</ele>
        <time>2024-12-19T10:36:27Z</time>
      </trkpt>
      <trkpt lat="47.92736" lon="-2.47175">
        <ele>65.9</ele>
        <time>2024-12-19T10:36:28Z</time>
      </trkpt>
      <trkpt lat="47.92735" lon="-2.47174">
        <ele>66</ele>
        <time>2024-12-19T10:36:29Z</time>
      </trkpt>
      <trkpt lat="47.92734" lon="-2.47173">
        <ele>66</ele>
        <time>2024-12-19T10:36:30Z</time>
      </trkpt>
      <trkpt lat="47.92732" lon="-2.47173">
        <ele>66.1</ele>
        <time>2024-12-19T10:36:31Z</time>
      </trkpt>
      <trkpt lat="47.92731" lon="-2.47172">
        <ele>66.2</ele>
        <time>2024-12-19T10:36:32Z</time>
      </trkpt>
      <trkpt lat="47.9273" lon="-2.47171">
        <ele>66.3</ele>
        <time>2024-12-19T10:36:33Z</time>
      </trkpt>
      <trkpt lat="47.9273" lon="-2.47171">
        <ele>66.4</ele>
        <time>2024-12-19T10:36:34Z</time>
      </trkpt>
      <trkpt lat="47.92729" lon="-2.4717">
        <ele>66.4</ele>
        <time>2024-12-19T10:36:35Z</time>
      </trkpt>
      <trkpt lat="47.92728" lon="-2.47167">
        <ele>66.6</ele>
        <time>2024-12-19T10:36:37Z</time>
      </trkpt>
      <trkpt lat="47.92728" lon="-2.47166">
        <ele>66.6</ele>
        <time>2024-12-19T10:36:38Z</time>
      </trkpt>
      <trkpt lat="47.92729" lon="-2.47166">
        <ele>66.5</ele>
        <time>2024-12-19T10:36:39Z</time>
      </trkpt>
      <trkpt lat="47.9273" lon="-2.47166">
        <ele>66.5</ele>
        <time>2024-12-19T10:36:40Z</time>
      </trkpt>
      <trkpt lat="47.9273" lon="-2.47166">
        <ele>66.4</ele>
        <time>2024-12-19T10:36:41Z</time>
      </trkpt>
      <trkpt lat="47.9273" lon="-2.47166">
        <ele>66.4</ele>
        <time>2024-12-19T10:36:42Z</time>
      </trkpt>
      <trkpt lat="47.92731" lon="-2.47166">
        <ele>66.4</ele>
        <time>2024-12-19T10:36:43Z</time>
      </trkpt>
      <trkpt lat="47.92731" lon="-2.47166">
        <ele>66.4</ele>
        <time>2024-12-19T10:36:44Z</time>
      </trkpt>
      <trkpt lat="47.92731" lon="-2.47166">
        <ele>66.4</ele>
        <time>2024-12-19T10:36:45Z</time>
      </trkpt>
      <trkpt lat="47.92731" lon="-2.47166">
        <ele>66.4</ele>
        <time>2024-12-19T10:36:46Z</time>
      </trkpt>
      <trkpt lat="47.92731" lon="-2.47166">
        <ele>66.3</ele>
        <time>2024-12-19T10:36:47Z</time>
      </trkpt>
      <trkpt lat="47.92731" lon="-2.47166">
        <ele>66.3</ele>
        <time>2024-12-19T10:36:48Z</time>
      </trkpt>
      <trkpt lat="47.92731" lon="-2.47166">
        <ele>66.3</ele>
        <time>2024-12-19T10:36:49Z</time>
      </trkpt>
      <trkpt lat="47.92731" lon="-2.47166">
        <ele>66.3</ele>
        <time>2024-12-19T10:36:50Z</time>
      </trkpt>
      <trkpt lat="47.92731" lon="-2.47166">
        <ele>66.3</ele>
        <time>2024-12-19T10:36:51Z</time>
      </trkpt>
      <trkpt lat="47.92732" lon="-2.47166">
        <ele>66.3</ele>
        <time>2024-12-19T10:36:52Z</time>
      </trkpt>
      <trkpt lat="47.92732" lon="-2.47166">
        <ele>66.3</ele>
        <time>2024-12-19T10:36:53Z</time>
      </trkpt>
      <trkpt lat="47.92732" lon="-2.47166">
        <ele>66.3</ele>
        <time>2024-12-19T10:36:54Z</time>
      </trkpt>
      <trkpt lat="47.92732" lon="-2.47165">
        <ele>66.2</ele>
        <time>2024-12-19T10:36:55Z</time>
      </trkpt>
      <trkpt lat="47.92733" lon="-2.47165">
        <ele>66.2</ele>
        <time>2024-12-19T10:36:56Z</time>
      </trkpt>
      <trkpt lat="47.92733" lon="-2.47165">
        <ele>66.2</ele>
        <time>2024-12-19T10:36:57Z</time>
      </trkpt>
      <trkpt lat="47.92733" lon="-2.47165">
        <ele>66.2</ele>
        <time>2024-12-19T10:36:58Z</time>
      </trkpt>
      <trkpt lat="47.92733" lon="-2.47165">
        <ele>66.2</ele>
        <time>2024-12-19T10:36:59Z</time>
      </trkpt>
      <trkpt lat="47.92733" lon="-2.47165">
        <ele>66.2</ele>
        <time>2024-12-19T10:37:00Z</time>
      </trkpt>
      <trkpt lat="47.92733" lon="-2.47165">
        <ele>66.2</ele>
        <time>2024-12-19T10:37:01Z</time>
      </trkpt>
      <trkpt lat="47.92733" lon="-2.47165">
        <ele>66.2</ele>
        <time>2024-12-19T10:37:02Z</time>
      </trkpt>
      <trkpt lat="47.92732" lon="-2.47165">
        <ele>66.2</ele>
        <time>2024-12-19T10:37:03Z</time>
      </trkpt>
      <trkpt lat="47.92731" lon="-2.47164">
        <ele>66.3</ele>
        <time>2024-12-19T10:37:04Z</time>
      </trkpt>
      <trkpt lat="47.9273" lon="-2.47163">
        <ele>66.3</ele>
        <time>2024-12-19T10:37:05Z</time>
      </trkpt>
      <trkpt lat="47.9273" lon="-2.47163">
        <ele>66.4</ele>
        <time>2024-12-19T10:37:06Z</time>
      </trkpt>
      <trkpt lat="47.92729" lon="-2.47162">
        <ele>66.4</ele>
        <time>2024-12-19T10:37:07Z</time>
      </trkpt>
      <trkpt lat="47.92728" lon="-2.47161">
        <ele>66.4</ele>
        <time>2024-12-19T10:37:08Z</time>
      </trkpt>
      <trkpt lat="47.92728" lon="-2.4716">
        <ele>66.4</ele>
        <time>2024-12-19T10:37:09Z</time>
      </trkpt>
      <trkpt lat="47.92728" lon="-2.4716">
        <ele>66.4</ele>
        <time>2024-12-19T10:37:10Z</time>
      </trkpt>
      <trkpt lat="47.92728" lon="-2.47159">
        <ele>66.4</ele>
        <time>2024-12-19T10:37:11Z</time>
      </trkpt>
      <trkpt lat="47.92728" lon="-2.47159">
        <ele>66.4</ele>
        <time>2024-12-19T10:37:12Z</time>
      </trkpt>
      <trkpt lat="47.92728" lon="-2.47159">
        <ele>66.4</ele>
        <time>2024-12-19T10:37:13Z</time>
      </trkpt>
      <trkpt lat="47.92728" lon="-2.47159">
        <ele>66.4</ele>
        <time>2024-12-19T10:37:14Z</time>
      </trkpt>
      <trkpt lat="47.92728" lon="-2.47159">
        <ele>66.4</ele>
        <time>2024-12-19T10:37:15Z</time>
      </trkpt>
      <trkpt lat="47.92726" lon="-2.47158">
        <ele>66.4</ele>
        <time>2024-12-19T10:37:16Z</time>
      </trkpt>
      <trkpt lat="47.92725" lon="-2.47158">
        <ele>66.5</ele>
        <time>2024-12-19T10:37:17Z</time>
      </trkpt>
      <trkpt lat="47.92723" lon="-2.47157">
        <ele>66.6</ele>
        <time>2024-12-19T10:37:18Z</time>
      </trkpt>
      <trkpt lat="47.92722" lon="-2.47157">
        <ele>66.7</ele>
        <time>2024-12-19T10:37:19Z</time>
      </trkpt>
      <trkpt lat="47.92721" lon="-2.47156">
        <ele>66.7</ele>
        <time>2024-12-19T10:37:20Z</time>
      </trkpt>
      <trkpt lat="47.9272" lon="-2.47156">
        <ele>66.7</ele>
        <time>2024-12-19T10:37:21Z</time>
      </trkpt>
      <trkpt lat="47.92718" lon="-2.47155">
        <ele>66.8</ele>
        <time>2024-12-19T10:37:22Z</time>
      </trkpt>
      <trkpt lat="47.92718" lon="-2.47155">
        <ele>66.8</ele>
        <time>2024-12-19T10:37:23Z</time>
      </trkpt>
      <trkpt lat="47.92717" lon="-2.47154">
        <ele>66.8</ele>
        <time>2024-12-19T10:37:24Z</time>
      </trkpt>
      <trkpt lat="47.92716" lon="-2.47153">
        <ele>66.8</ele>
        <time>2024-12-19T10:37:25Z</time>
      </trkpt>
      <trkpt lat="47.92715" lon="-2.47152">
        <ele>66.9</ele>
        <time>2024-12-19T10:37:26Z</time>
      </trkpt>
      <trkpt lat="47.92714" lon="-2.47152">
        <ele>66.9</ele>
        <time>2024-12-19T10:37:27Z</time>
      </trkpt>
      <trkpt lat="47.92714" lon="-2.47152">
        <ele>66.9</ele>
        <time>2024-12-19T10:37:28Z</time>
      </trkpt>
      <trkpt lat="47.92713" lon="-2.47152">
        <ele>67</ele>
        <time>2024-12-19T10:37:29Z</time>
      </trkpt>
      <trkpt lat="47.92712" lon="-2.47152">
        <ele>67</ele>
        <time>2024-12-19T10:37:30Z</time>
      </trkpt>
      <trkpt lat="47.92712" lon="-2.47152">
        <ele>67</ele>
        <time>2024-12-19T10:37:31Z</time>
      </trkpt>
      <trkpt lat="47.92711" lon="-2.47152">
        <ele>67.1</ele>
        <time>2024-12-19T10:37:32Z</time>
      </trkpt>
      <trkpt lat="47.92711" lon="-2.47151">
        <ele>67.1</ele>
        <time>2024-12-19T10:37:33Z</time>
      </trkpt>
      <trkpt lat="47.92709" lon="-2.47151">
        <ele>67.2</ele>
        <time>2024-12-19T10:37:34Z</time>
      </trkpt>
      <trkpt lat="47.92708" lon="-2.47151">
        <ele>67.2</ele>
        <time>2024-12-19T10:37:35Z</time>
      </trkpt>
      <trkpt lat="47.92707" lon="-2.47151">
        <ele>67.3</ele>
        <time>2024-12-19T10:37:36Z</time>
      </trkpt>
      <trkpt lat="47.92706" lon="-2.4715">
        <ele>67.3</ele>
        <time>2024-12-19T10:37:37Z</time>
      </trkpt>
      <trkpt lat="47.92705" lon="-2.4715">
        <ele>67.4</ele>
        <time>2024-12-19T10:37:38Z</time>
      </trkpt>
      <trkpt lat="47.92704" lon="-2.4715">
        <ele>67.5</ele>
        <time>2024-12-19T10:37:39Z</time>
      </trkpt>
      <trkpt lat="47.92702" lon="-2.47149">
        <ele>67.5</ele>
        <time>2024-12-19T10:37:40Z</time>
      </trkpt>
      <trkpt lat="47.92701" lon="-2.47149">
        <ele>67.6</ele>
        <time>2024-12-19T10:37:41Z</time>
      </trkpt>
      <trkpt lat="47.927" lon="-2.47149">
        <ele>67.7</ele>
        <time>2024-12-19T10:37:42Z</time>
      </trkpt>
      <trkpt lat="47.92698" lon="-2.47148">
        <ele>67.8</ele>
        <time>2024-12-19T10:37:43Z</time>
      </trkpt>
      <trkpt lat="47.92697" lon="-2.47147">
        <ele>67.8</ele>
        <time>2024-12-19T10:37:44Z</time>
      </trkpt>
      <trkpt lat="47.92696" lon="-2.47147">
        <ele>67.9</ele>
        <time>2024-12-19T10:37:45Z</time>
      </trkpt>
      <trkpt lat="47.92694" lon="-2.47146">
        <ele>68</ele>
        <time>2024-12-19T10:37:46Z</time>
      </trkpt>
      <trkpt lat="47.92693" lon="-2.47146">
        <ele>68</ele>
        <time>2024-12-19T10:37:47Z</time>
      </trkpt>
      <trkpt lat="47.92691" lon="-2.47145">
        <ele>68</ele>
        <time>2024-12-19T10:37:48Z</time>
      </trkpt>
      <trkpt lat="47.9269" lon="-2.47145">
        <ele>68</ele>
        <time>2024-12-19T10:37:49Z</time>
      </trkpt>
      <trkpt lat="47.92689" lon="-2.47145">
        <ele>68</ele>
        <time>2024-12-19T10:37:50Z</time>
      </trkpt>
      <trkpt lat="47.92688" lon="-2.47145">
        <ele>68</ele>
        <time>2024-12-19T10:37:51Z</time>
      </trkpt>
      <trkpt lat="47.92687" lon="-2.47145">
        <ele>68</ele>
        <time>2024-12-19T10:37:52Z</time>
      </trkpt>
      <trkpt lat="47.92686" lon="-2.47145">
        <ele>68</ele>
        <time>2024-12-19T10:37:53Z</time>
      </trkpt>
      <trkpt lat="47.92684" lon="-2.47145">
        <ele>68</ele>
        <time>2024-12-19T10:37:54Z</time>
      </trkpt>
      <trkpt lat="47.92683" lon="-2.47144">
        <ele>68</ele>
        <time>2024-12-19T10:37:55Z</time>
      </trkpt>
      <trkpt lat="47.92681" lon="-2.47143">
        <ele>68</ele>
        <time>2024-12-19T10:37:56Z</time>
      </trkpt>
      <trkpt lat="47.9268" lon="-2.47142">
        <ele>68</ele>
        <time>2024-12-19T10:37:57Z</time>
      </trkpt>
      <trkpt lat="47.92679" lon="-2.47141">
        <ele>68</ele>
        <time>2024-12-19T10:37:58Z</time>
      </trkpt>
      <trkpt lat="47.92678" lon="-2.47141">
        <ele>68</ele>
        <time>2024-12-19T10:37:59Z</time>
      </trkpt>
      <trkpt lat="47.92677" lon="-2.4714">
        <ele>68</ele>
        <time>2024-12-19T10:38:00Z</time>
      </trkpt>
      <trkpt lat="47.92676" lon="-2.47139">
        <ele>68</ele>
        <time>2024-12-19T10:38:01Z</time>
      </trkpt>
      <trkpt lat="47.92675" lon="-2.47138">
        <ele>68</ele>
        <time>2024-12-19T10:38:02Z</time>
      </trkpt>
      <trkpt lat="47.92674" lon="-2.47138">
        <ele>68</ele>
        <time>2024-12-19T10:38:03Z</time>
      </trkpt>
      <trkpt lat="47.92673" lon="-2.47137">
        <ele>68.1</ele>
        <time>2024-12-19T10:38:04Z</time>
      </trkpt>
      <trkpt lat="47.92671" lon="-2.47137">
        <ele>68.1</ele>
        <time>2024-12-19T10:38:05Z</time>
      </trkpt>
      <trkpt lat="47.9267" lon="-2.47136">
        <ele>68.1</ele>
        <time>2024-12-19T10:38:06Z</time>
      </trkpt>
      <trkpt lat="47.92669" lon="-2.47136">
        <ele>68.1</ele>
        <time>2024-12-19T10:38:07Z</time>
      </trkpt>
      <trkpt lat="47.92667" lon="-2.47136">
        <ele>68.1</ele>
        <time>2024-12-19T10:38:08Z</time>
      </trkpt>
      <trkpt lat="47.92666" lon="-2.47136">
        <ele>68.1</ele>
        <time>2024-12-19T10:38:09Z</time>
      </trkpt>
      <trkpt lat="47.92664" lon="-2.47136">
        <ele>68</ele>
        <time>2024-12-19T10:38:10Z</time>
      </trkpt>
      <trkpt lat="47.92663" lon="-2.47135">
        <ele>68</ele>
        <time>2024-12-19T10:38:11Z</time>
      </trkpt>
      <trkpt lat="47.92662" lon="-2.47135">
        <ele>67.9</ele>
        <time>2024-12-19T10:38:12Z</time>
      </trkpt>
      <trkpt lat="47.9266" lon="-2.47135">
        <ele>67.9</ele>
        <time>2024-12-19T10:38:13Z</time>
      </trkpt>
      <trkpt lat="47.92659" lon="-2.47136">
        <ele>67.8</ele>
        <time>2024-12-19T10:38:14Z</time>
      </trkpt>
      <trkpt lat="47.92658" lon="-2.47136">
        <ele>67.8</ele>
        <time>2024-12-19T10:38:15Z</time>
      </trkpt>
      <trkpt lat="47.92656" lon="-2.47137">
        <ele>67.7</ele>
        <time>2024-12-19T10:38:16Z</time>
      </trkpt>
      <trkpt lat="47.92655" lon="-2.47137">
        <ele>67.6</ele>
        <time>2024-12-19T10:38:17Z</time>
      </trkpt>
      <trkpt lat="47.92653" lon="-2.47138">
        <ele>67.6</ele>
        <time>2024-12-19T10:38:18Z</time>
      </trkpt>
      <trkpt lat="47.92652" lon="-2.47139">
        <ele>67.5</ele>
        <time>2024-12-19T10:38:19Z</time>
      </trkpt>
      <trkpt lat="47.9265" lon="-2.47139">
        <ele>67.4</ele>
        <time>2024-12-19T10:38:20Z</time>
      </trkpt>
      <trkpt lat="47.92649" lon="-2.47139">
        <ele>67.4</ele>
        <time>2024-12-19T10:38:21Z</time>
      </trkpt>
      <trkpt lat="47.92648" lon="-2.47139">
        <ele>67.3</ele>
        <time>2024-12-19T10:38:22Z</time>
      </trkpt>
      <trkpt lat="47.92647" lon="-2.47138">
        <ele>67.3</ele>
        <time>2024-12-19T10:38:23Z</time>
      </trkpt>
      <trkpt lat="47.92645" lon="-2.47138">
        <ele>67.3</ele>
        <time>2024-12-19T10:38:24Z</time>
      </trkpt>
      <trkpt lat="47.92645" lon="-2.47138">
        <ele>67.2</ele>
        <time>2024-12-19T10:38:25Z</time>
      </trkpt>
      <trkpt lat="47.92644" lon="-2.47138">
        <ele>67.2</ele>
        <time>2024-12-19T10:38:26Z</time>
      </trkpt>
      <trkpt lat="47.92643" lon="-2.47138">
        <ele>67.2</ele>
        <time>2024-12-19T10:38:27Z</time>
      </trkpt>
      <trkpt lat="47.92642" lon="-2.47139">
        <ele>67.1</ele>
        <time>2024-12-19T10:38:28Z</time>
      </trkpt>
      <trkpt lat="47.9264" lon="-2.47139">
        <ele>67</ele>
        <time>2024-12-19T10:38:29Z</time>
      </trkpt>
      <trkpt lat="47.92639" lon="-2.4714">
        <ele>67</ele>
        <time>2024-12-19T10:38:30Z</time>
      </trkpt>
      <trkpt lat="47.92637" lon="-2.47141">
        <ele>66.9</ele>
        <time>2024-12-19T10:38:31Z</time>
      </trkpt>
      <trkpt lat="47.92636" lon="-2.47141">
        <ele>66.9</ele>
        <time>2024-12-19T10:38:32Z</time>
      </trkpt>
      <trkpt lat="47.92635" lon="-2.47141">
        <ele>66.9</ele>
        <time>2024-12-19T10:38:33Z</time>
      </trkpt>
      <trkpt lat="47.92633" lon="-2.47141">
        <ele>66.8</ele>
        <time>2024-12-19T10:38:34Z</time>
      </trkpt>
      <trkpt lat="47.92632" lon="-2.47141">
        <ele>66.8</ele>
        <time>2024-12-19T10:38:35Z</time>
      </trkpt>
      <trkpt lat="47.9263" lon="-2.47141">
        <ele>66.7</ele>
        <time>2024-12-19T10:38:36Z</time>
      </trkpt>
      <trkpt lat="47.92629" lon="-2.47141">
        <ele>66.7</ele>
        <time>2024-12-19T10:38:37Z</time>
      </trkpt>
      <trkpt lat="47.92628" lon="-2.47142">
        <ele>66.7</ele>
        <time>2024-12-19T10:38:38Z</time>
      </trkpt>
      <trkpt lat="47.92627" lon="-2.47142">
        <ele>66.7</ele>
        <time>2024-12-19T10:38:39Z</time>
      </trkpt>
      <trkpt lat="47.92625" lon="-2.47143">
        <ele>66.6</ele>
        <time>2024-12-19T10:38:40Z</time>
      </trkpt>
      <trkpt lat="47.92624" lon="-2.47143">
        <ele>66.6</ele>
        <time>2024-12-19T10:38:41Z</time>
      </trkpt>
      <trkpt lat="47.92622" lon="-2.47144">
        <ele>66.6</ele>
        <time>2024-12-19T10:38:43Z</time>
      </trkpt>
      <trkpt lat="47.92621" lon="-2.47145">
        <ele>66.6</ele>
        <time>2024-12-19T10:38:44Z</time>
      </trkpt>
      <trkpt lat="47.92619" lon="-2.47145">
        <ele>66.6</ele>
        <time>2024-12-19T10:38:45Z</time>
      </trkpt>
      <trkpt lat="47.92618" lon="-2.47146">
        <ele>66.6</ele>
        <time>2024-12-19T10:38:46Z</time>
      </trkpt>
      <trkpt lat="47.92617" lon="-2.47146">
        <ele>66.6</ele>
        <time>2024-12-19T10:38:47Z</time>
      </trkpt>
      <trkpt lat="47.92616" lon="-2.47146">
        <ele>66.6</ele>
        <time>2024-12-19T10:38:48Z</time>
      </trkpt>
      <trkpt lat="47.92615" lon="-2.47147">
        <ele>66.6</ele>
        <time>2024-12-19T10:38:49Z</time>
      </trkpt>
      <trkpt lat="47.92614" lon="-2.47147">
        <ele>66.6</ele>
        <time>2024-12-19T10:38:50Z</time>
      </trkpt>
      <trkpt lat="47.92613" lon="-2.47148">
        <ele>66.7</ele>
        <time>2024-12-19T10:38:51Z</time>
      </trkpt>
      <trkpt lat="47.92612" lon="-2.47148">
        <ele>66.7</ele>
        <time>2024-12-19T10:38:52Z</time>
      </trkpt>
      <trkpt lat="47.92612" lon="-2.47148">
        <ele>66.7</ele>
        <time>2024-12-19T10:38:53Z</time>
      </trkpt>
      <trkpt lat="47.92611" lon="-2.47149">
        <ele>66.7</ele>
        <time>2024-12-19T10:38:54Z</time>
      </trkpt>
      <trkpt lat="47.9261" lon="-2.4715">
        <ele>66.8</ele>
        <time>2024-12-19T10:38:55Z</time>
      </trkpt>
      <trkpt lat="47.9261" lon="-2.4715">
        <ele>66.9</ele>
        <time>2024-12-19T10:38:56Z</time>
      </trkpt>
      <trkpt lat="47.92609" lon="-2.47151">
        <ele>66.9</ele>
        <time>2024-12-19T10:38:57Z</time>
      </trkpt>
      <trkpt lat="47.92608" lon="-2.47151">
        <ele>67</ele>
        <time>2024-12-19T10:38:58Z</time>
      </trkpt>
      <trkpt lat="47.92606" lon="-2.47152">
        <ele>67</ele>
        <time>2024-12-19T10:38:59Z</time>
      </trkpt>
      <trkpt lat="47.92605" lon="-2.47153">
        <ele>67.1</ele>
        <time>2024-12-19T10:39:00Z</time>
      </trkpt>
      <trkpt lat="47.92604" lon="-2.47154">
        <ele>67.2</ele>
        <time>2024-12-19T10:39:01Z</time>
      </trkpt>
      <trkpt lat="47.92603" lon="-2.47155">
        <ele>67.3</ele>
        <time>2024-12-19T10:39:02Z</time>
      </trkpt>
      <trkpt lat="47.92602" lon="-2.47156">
        <ele>67.4</ele>
        <time>2024-12-19T10:39:03Z</time>
      </trkpt>
      <trkpt lat="47.92601" lon="-2.47157">
        <ele>67.4</ele>
        <time>2024-12-19T10:39:04Z</time>
      </trkpt>
      <trkpt lat="47.92599" lon="-2.47158">
        <ele>67.5</ele>
        <time>2024-12-19T10:39:05Z</time>
      </trkpt>
      <trkpt lat="47.92598" lon="-2.47159">
        <ele>67.5</ele>
        <time>2024-12-19T10:39:06Z</time>
      </trkpt>
      <trkpt lat="47.92597" lon="-2.47159">
        <ele>67.6</ele>
        <time>2024-12-19T10:39:07Z</time>
      </trkpt>
      <trkpt lat="47.92596" lon="-2.4716">
        <ele>67.7</ele>
        <time>2024-12-19T10:39:08Z</time>
      </trkpt>
      <trkpt lat="47.92595" lon="-2.47161">
        <ele>67.7</ele>
        <time>2024-12-19T10:39:09Z</time>
      </trkpt>
      <trkpt lat="47.92594" lon="-2.47161">
        <ele>67.7</ele>
        <time>2024-12-19T10:39:10Z</time>
      </trkpt>
      <trkpt lat="47.92593" lon="-2.47162">
        <ele>67.8</ele>
        <time>2024-12-19T10:39:11Z</time>
      </trkpt>
      <trkpt lat="47.92592" lon="-2.47162">
        <ele>67.8</ele>
        <time>2024-12-19T10:39:12Z</time>
      </trkpt>
      <trkpt lat="47.92591" lon="-2.47163">
        <ele>67.8</ele>
        <time>2024-12-19T10:39:13Z</time>
      </trkpt>
      <trkpt lat="47.9259" lon="-2.47164">
        <ele>67.9</ele>
        <time>2024-12-19T10:39:14Z</time>
      </trkpt>
      <trkpt lat="47.92588" lon="-2.47164">
        <ele>67.9</ele>
        <time>2024-12-19T10:39:15Z</time>
      </trkpt>
      <trkpt lat="47.92586" lon="-2.47165">
        <ele>67.9</ele>
        <time>2024-12-19T10:39:16Z</time>
      </trkpt>
      <trkpt lat="47.92585" lon="-2.47166">
        <ele>68</ele>
        <time>2024-12-19T10:39:17Z</time>
      </trkpt>
      <trkpt lat="47.92584" lon="-2.47167">
        <ele>68</ele>
        <time>2024-12-19T10:39:18Z</time>
      </trkpt>
      <trkpt lat="47.92583" lon="-2.47168">
        <ele>68.1</ele>
        <time>2024-12-19T10:39:19Z</time>
      </trkpt>
      <trkpt lat="47.92582" lon="-2.47169">
        <ele>68.1</ele>
        <time>2024-12-19T10:39:20Z</time>
      </trkpt>
      <trkpt lat="47.92581" lon="-2.4717">
        <ele>68.2</ele>
        <time>2024-12-19T10:39:21Z</time>
      </trkpt>
      <trkpt lat="47.9258" lon="-2.47171">
        <ele>68.3</ele>
        <time>2024-12-19T10:39:22Z</time>
      </trkpt>
      <trkpt lat="47.92579" lon="-2.47172">
        <ele>68.3</ele>
        <time>2024-12-19T10:39:23Z</time>
      </trkpt>
      <trkpt lat="47.92577" lon="-2.47173">
        <ele>68.5</ele>
        <time>2024-12-19T10:39:24Z</time>
      </trkpt>
      <trkpt lat="47.92576" lon="-2.47175">
        <ele>68.6</ele>
        <time>2024-12-19T10:39:25Z</time>
      </trkpt>
      <trkpt lat="47.92575" lon="-2.47176">
        <ele>68.7</ele>
        <time>2024-12-19T10:39:26Z</time>
      </trkpt>
      <trkpt lat="47.92574" lon="-2.47177">
        <ele>68.7</ele>
        <time>2024-12-19T10:39:27Z</time>
      </trkpt>
      <trkpt lat="47.92572" lon="-2.47178">
        <ele>68.8</ele>
        <time>2024-12-19T10:39:28Z</time>
      </trkpt>
      <trkpt lat="47.92571" lon="-2.47178">
        <ele>68.9</ele>
        <time>2024-12-19T10:39:29Z</time>
      </trkpt>
      <trkpt lat="47.9257" lon="-2.47179">
        <ele>68.9</ele>
        <time>2024-12-19T10:39:30Z</time>
      </trkpt>
      <trkpt lat="47.92569" lon="-2.4718">
        <ele>69</ele>
        <time>2024-12-19T10:39:31Z</time>
      </trkpt>
      <trkpt lat="47.92568" lon="-2.47182">
        <ele>69.1</ele>
        <time>2024-12-19T10:39:32Z</time>
      </trkpt>
      <trkpt lat="47.92567" lon="-2.47183">
        <ele>69.2</ele>
        <time>2024-12-19T10:39:33Z</time>
      </trkpt>
      <trkpt lat="47.92566" lon="-2.47184">
        <ele>69.2</ele>
        <time>2024-12-19T10:39:34Z</time>
      </trkpt>
      <trkpt lat="47.92565" lon="-2.47185">
        <ele>69.3</ele>
        <time>2024-12-19T10:39:35Z</time>
      </trkpt>
      <trkpt lat="47.92564" lon="-2.47186">
        <ele>69.4</ele>
        <time>2024-12-19T10:39:36Z</time>
      </trkpt>
      <trkpt lat="47.92563" lon="-2.47187">
        <ele>69.5</ele>
        <time>2024-12-19T10:39:37Z</time>
      </trkpt>
      <trkpt lat="47.92561" lon="-2.47188">
        <ele>69.5</ele>
        <time>2024-12-19T10:39:38Z</time>
      </trkpt>
      <trkpt lat="47.9256" lon="-2.47188">
        <ele>69.6</ele>
        <time>2024-12-19T10:39:39Z</time>
      </trkpt>
      <trkpt lat="47.92559" lon="-2.47189">
        <ele>69.7</ele>
        <time>2024-12-19T10:39:40Z</time>
      </trkpt>
      <trkpt lat="47.92558" lon="-2.4719">
        <ele>69.7</ele>
        <time>2024-12-19T10:39:41Z</time>
      </trkpt>
      <trkpt lat="47.92557" lon="-2.47191">
        <ele>69.8</ele>
        <time>2024-12-19T10:39:42Z</time>
      </trkpt>
      <trkpt lat="47.92557" lon="-2.47191">
        <ele>69.8</ele>
        <time>2024-12-19T10:39:43Z</time>
      </trkpt>
      <trkpt lat="47.92556" lon="-2.47192">
        <ele>69.9</ele>
        <time>2024-12-19T10:39:44Z</time>
      </trkpt>
      <trkpt lat="47.92555" lon="-2.47193">
        <ele>69.9</ele>
        <time>2024-12-19T10:39:45Z</time>
      </trkpt>
      <trkpt lat="47.92554" lon="-2.47194">
        <ele>69.9</ele>
        <time>2024-12-19T10:39:46Z</time>
      </trkpt>
      <trkpt lat="47.92553" lon="-2.47194">
        <ele>69.9</ele>
        <time>2024-12-19T10:39:47Z</time>
      </trkpt>
      <trkpt lat="47.92552" lon="-2.47195">
        <ele>69.9</ele>
        <time>2024-12-19T10:39:48Z</time>
      </trkpt>
      <trkpt lat="47.92551" lon="-2.47195">
        <ele>69.8</ele>
        <time>2024-12-19T10:39:49Z</time>
      </trkpt>
      <trkpt lat="47.9255" lon="-2.47196">
        <ele>69.8</ele>
        <time>2024-12-19T10:39:50Z</time>
      </trkpt>
      <trkpt lat="47.92549" lon="-2.47196">
        <ele>69.8</ele>
        <time>2024-12-19T10:39:51Z</time>
      </trkpt>
      <trkpt lat="47.92548" lon="-2.47197">
        <ele>69.8</ele>
        <time>2024-12-19T10:39:52Z</time>
      </trkpt>
      <trkpt lat="47.92547" lon="-2.47198">
        <ele>69.7</ele>
        <time>2024-12-19T10:39:53Z</time>
      </trkpt>
      <trkpt lat="47.92546" lon="-2.47199">
        <ele>69.7</ele>
        <time>2024-12-19T10:39:54Z</time>
      </trkpt>
      <trkpt lat="47.92545" lon="-2.47199">
        <ele>69.7</ele>
        <time>2024-12-19T10:39:55Z</time>
      </trkpt>
      <trkpt lat="47.92543" lon="-2.472">
        <ele>69.6</ele>
        <time>2024-12-19T10:39:56Z</time>
      </trkpt>
      <trkpt lat="47.92542" lon="-2.47201">
        <ele>69.6</ele>
        <time>2024-12-19T10:39:57Z</time>
      </trkpt>
      <trkpt lat="47.92541" lon="-2.47202">
        <ele>69.6</ele>
        <time>2024-12-19T10:39:58Z</time>
      </trkpt>
      <trkpt lat="47.9254" lon="-2.47203">
        <ele>69.6</ele>
        <time>2024-12-19T10:39:59Z</time>
      </trkpt>
      <trkpt lat="47.92538" lon="-2.47205">
        <ele>69.6</ele>
        <time>2024-12-19T10:40:00Z</time>
      </trkpt>
      <trkpt lat="47.92537" lon="-2.47206">
        <ele>69.6</ele>
        <time>2024-12-19T10:40:01Z</time>
      </trkpt>
      <trkpt lat="47.92536" lon="-2.47206">
        <ele>69.6</ele>
        <time>2024-12-19T10:40:02Z</time>
      </trkpt>
      <trkpt lat="47.92535" lon="-2.47207">
        <ele>69.6</ele>
        <time>2024-12-19T10:40:03Z</time>
      </trkpt>
      <trkpt lat="47.92535" lon="-2.47207">
        <ele>69.6</ele>
        <time>2024-12-19T10:40:04Z</time>
      </trkpt>
      <trkpt lat="47.92534" lon="-2.47208">
        <ele>69.6</ele>
        <time>2024-12-19T10:40:05Z</time>
      </trkpt>
      <trkpt lat="47.92533" lon="-2.47209">
        <ele>69.6</ele>
        <time>2024-12-19T10:40:06Z</time>
      </trkpt>
      <trkpt lat="47.92533" lon="-2.47209">
        <ele>69.6</ele>
        <time>2024-12-19T10:40:07Z</time>
      </trkpt>
      <trkpt lat="47.92532" lon="-2.4721">
        <ele>69.6</ele>
        <time>2024-12-19T10:40:08Z</time>
      </trkpt>
      <trkpt lat="47.92531" lon="-2.4721">
        <ele>69.6</ele>
        <time>2024-12-19T10:40:09Z</time>
      </trkpt>
      <trkpt lat="47.92531" lon="-2.4721">
        <ele>69.6</ele>
        <time>2024-12-19T10:40:10Z</time>
      </trkpt>
      <trkpt lat="47.9253" lon="-2.47211">
        <ele>69.6</ele>
        <time>2024-12-19T10:40:11Z</time>
      </trkpt>
      <trkpt lat="47.92529" lon="-2.47211">
        <ele>69.6</ele>
        <time>2024-12-19T10:40:12Z</time>
      </trkpt>
      <trkpt lat="47.92527" lon="-2.47212">
        <ele>69.6</ele>
        <time>2024-12-19T10:40:13Z</time>
      </trkpt>
      <trkpt lat="47.92526" lon="-2.47212">
        <ele>69.6</ele>
        <time>2024-12-19T10:40:14Z</time>
      </trkpt>
      <trkpt lat="47.92525" lon="-2.47212">
        <ele>69.6</ele>
        <time>2024-12-19T10:40:15Z</time>
      </trkpt>
      <trkpt lat="47.92524" lon="-2.47212">
        <ele>69.6</ele>
        <time>2024-12-19T10:40:16Z</time>
      </trkpt>
      <trkpt lat="47.92523" lon="-2.47213">
        <ele>69.7</ele>
        <time>2024-12-19T10:40:17Z</time>
      </trkpt>
      <trkpt lat="47.92523" lon="-2.47213">
        <ele>69.7</ele>
        <time>2024-12-19T10:40:18Z</time>
      </trkpt>
      <trkpt lat="47.92522" lon="-2.47213">
        <ele>69.7</ele>
        <time>2024-12-19T10:40:19Z</time>
      </trkpt>
      <trkpt lat="47.92523" lon="-2.47213">
        <ele>69.7</ele>
        <time>2024-12-19T10:40:20Z</time>
      </trkpt>
      <trkpt lat="47.92522" lon="-2.47213">
        <ele>69.7</ele>
        <time>2024-12-19T10:40:21Z</time>
      </trkpt>
      <trkpt lat="47.92522" lon="-2.47213">
        <ele>69.7</ele>
        <time>2024-12-19T10:40:22Z</time>
      </trkpt>
      <trkpt lat="47.92522" lon="-2.47212">
        <ele>69.6</ele>
        <time>2024-12-19T10:40:23Z</time>
      </trkpt>
      <trkpt lat="47.92522" lon="-2.47212">
        <ele>69.6</ele>
        <time>2024-12-19T10:40:24Z</time>
      </trkpt>
      <trkpt lat="47.92522" lon="-2.47212">
        <ele>69.6</ele>
        <time>2024-12-19T10:40:25Z</time>
      </trkpt>
      <trkpt lat="47.92522" lon="-2.47212">
        <ele>69.6</ele>
        <time>2024-12-19T10:40:26Z</time>
      </trkpt>
      <trkpt lat="47.92522" lon="-2.47211">
        <ele>69.6</ele>
        <time>2024-12-19T10:40:27Z</time>
      </trkpt>
      <trkpt lat="47.92522" lon="-2.47211">
        <ele>69.6</ele>
        <time>2024-12-19T10:40:28Z</time>
      </trkpt>
      <trkpt lat="47.92522" lon="-2.47211">
        <ele>69.6</ele>
        <time>2024-12-19T10:40:29Z</time>
      </trkpt>
      <trkpt lat="47.92522" lon="-2.47211">
        <ele>69.6</ele>
        <time>2024-12-19T10:40:30Z</time>
      </trkpt>
      <trkpt lat="47.92522" lon="-2.47211">
        <ele>69.6</ele>
        <time>2024-12-19T10:40:31Z</time>
      </trkpt>
      <trkpt lat="47.92522" lon="-2.47211">
        <ele>69.6</ele>
        <time>2024-12-19T10:40:32Z</time>
      </trkpt>
      <trkpt lat="47.92522" lon="-2.47211">
        <ele>69.6</ele>
        <time>2024-12-19T10:40:33Z</time>
      </trkpt>
      <trkpt lat="47.92522" lon="-2.47211">
        <ele>69.6</ele>
        <time>2024-12-19T10:40:34Z</time>
      </trkpt>
      <trkpt lat="47.92521" lon="-2.47212">
        <ele>69.6</ele>
        <time>2024-12-19T10:40:35Z</time>
      </trkpt>
      <trkpt lat="47.92521" lon="-2.47212">
        <ele>69.6</ele>
        <time>2024-12-19T10:40:36Z</time>
      </trkpt>
      <trkpt lat="47.9252" lon="-2.47213">
        <ele>69.7</ele>
        <time>2024-12-19T10:40:37Z</time>
      </trkpt>
      <trkpt lat="47.92519" lon="-2.47213">
        <ele>69.7</ele>
        <time>2024-12-19T10:40:38Z</time>
      </trkpt>
      <trkpt lat="47.92518" lon="-2.47214">
        <ele>69.7</ele>
        <time>2024-12-19T10:40:39Z</time>
      </trkpt>
      <trkpt lat="47.92517" lon="-2.47215">
        <ele>69.7</ele>
        <time>2024-12-19T10:40:40Z</time>
      </trkpt>
      <trkpt lat="47.92516" lon="-2.47215">
        <ele>69.7</ele>
        <time>2024-12-19T10:40:41Z</time>
      </trkpt>
      <trkpt lat="47.92515" lon="-2.47216">
        <ele>69.8</ele>
        <time>2024-12-19T10:40:42Z</time>
      </trkpt>
      <trkpt lat="47.92513" lon="-2.47217">
        <ele>69.8</ele>
        <time>2024-12-19T10:40:43Z</time>
      </trkpt>
      <trkpt lat="47.92512" lon="-2.47218">
        <ele>69.8</ele>
        <time>2024-12-19T10:40:44Z</time>
      </trkpt>
      <trkpt lat="47.92511" lon="-2.47218">
        <ele>69.9</ele>
        <time>2024-12-19T10:40:45Z</time>
      </trkpt>
      <trkpt lat="47.9251" lon="-2.47219">
        <ele>69.9</ele>
        <time>2024-12-19T10:40:46Z</time>
      </trkpt>
      <trkpt lat="47.92508" lon="-2.47219">
        <ele>69.9</ele>
        <time>2024-12-19T10:40:47Z</time>
      </trkpt>
      <trkpt lat="47.92507" lon="-2.47219">
        <ele>69.9</ele>
        <time>2024-12-19T10:40:48Z</time>
      </trkpt>
      <trkpt lat="47.92505" lon="-2.47219">
        <ele>69.9</ele>
        <time>2024-12-19T10:40:49Z</time>
      </trkpt>
      <trkpt lat="47.92503" lon="-2.47219">
        <ele>69.9</ele>
        <time>2024-12-19T10:40:50Z</time>
      </trkpt>
      <trkpt lat="47.92502" lon="-2.4722">
        <ele>69.9</ele>
        <time>2024-12-19T10:40:51Z</time>
      </trkpt>
      <trkpt lat="47.925" lon="-2.4722">
        <ele>69.9</ele>
        <time>2024-12-19T10:40:52Z</time>
      </trkpt>
      <trkpt lat="47.92499" lon="-2.4722">
        <ele>69.9</ele>
        <time>2024-12-19T10:40:53Z</time>
      </trkpt>
      <trkpt lat="47.92498" lon="-2.4722">
        <ele>69.9</ele>
        <time>2024-12-19T10:40:54Z</time>
      </trkpt>
      <trkpt lat="47.92496" lon="-2.47221">
        <ele>69.9</ele>
        <time>2024-12-19T10:40:55Z</time>
      </trkpt>
      <trkpt lat="47.92495" lon="-2.47222">
        <ele>70</ele>
        <time>2024-12-19T10:40:56Z</time>
      </trkpt>
      <trkpt lat="47.92493" lon="-2.47222">
        <ele>70</ele>
        <time>2024-12-19T10:40:57Z</time>
      </trkpt>
      <trkpt lat="47.92491" lon="-2.47223">
        <ele>70</ele>
        <time>2024-12-19T10:40:58Z</time>
      </trkpt>
      <trkpt lat="47.9249" lon="-2.47224">
        <ele>70</ele>
        <time>2024-12-19T10:40:59Z</time>
      </trkpt>
      <trkpt lat="47.92489" lon="-2.47224">
        <ele>70.1</ele>
        <time>2024-12-19T10:41:00Z</time>
      </trkpt>
      <trkpt lat="47.92487" lon="-2.47225">
        <ele>70.1</ele>
        <time>2024-12-19T10:41:01Z</time>
      </trkpt>
      <trkpt lat="47.92486" lon="-2.47225">
        <ele>70.1</ele>
        <time>2024-12-19T10:41:02Z</time>
      </trkpt>
      <trkpt lat="47.92484" lon="-2.47225">
        <ele>70.1</ele>
        <time>2024-12-19T10:41:03Z</time>
      </trkpt>
      <trkpt lat="47.92483" lon="-2.47226">
        <ele>70.1</ele>
        <time>2024-12-19T10:41:04Z</time>
      </trkpt>
      <trkpt lat="47.92482" lon="-2.47226">
        <ele>70.1</ele>
        <time>2024-12-19T10:41:05Z</time>
      </trkpt>
      <trkpt lat="47.92482" lon="-2.47227">
        <ele>70.2</ele>
        <time>2024-12-19T10:41:06Z</time>
      </trkpt>
      <trkpt lat="47.92481" lon="-2.47227">
        <ele>70.2</ele>
        <time>2024-12-19T10:41:07Z</time>
      </trkpt>
      <trkpt lat="47.92479" lon="-2.47228">
        <ele>70.2</ele>
        <time>2024-12-19T10:41:08Z</time>
      </trkpt>
      <trkpt lat="47.92478" lon="-2.47228">
        <ele>70.2</ele>
        <time>2024-12-19T10:41:09Z</time>
      </trkpt>
      <trkpt lat="47.92477" lon="-2.47229">
        <ele>70.2</ele>
        <time>2024-12-19T10:41:10Z</time>
      </trkpt>
      <trkpt lat="47.92475" lon="-2.47229">
        <ele>70.2</ele>
        <time>2024-12-19T10:41:11Z</time>
      </trkpt>
      <trkpt lat="47.92474" lon="-2.47229">
        <ele>70.3</ele>
        <time>2024-12-19T10:41:12Z</time>
      </trkpt>
      <trkpt lat="47.92473" lon="-2.4723">
        <ele>70.3</ele>
        <time>2024-12-19T10:41:13Z</time>
      </trkpt>
      <trkpt lat="47.92472" lon="-2.4723">
        <ele>70.3</ele>
        <time>2024-12-19T10:41:14Z</time>
      </trkpt>
      <trkpt lat="47.92471" lon="-2.4723">
        <ele>70.3</ele>
        <time>2024-12-19T10:41:15Z</time>
      </trkpt>
      <trkpt lat="47.9247" lon="-2.4723">
        <ele>70.3</ele>
        <time>2024-12-19T10:41:16Z</time>
      </trkpt>
      <trkpt lat="47.92469" lon="-2.4723">
        <ele>70.3</ele>
        <time>2024-12-19T10:41:17Z</time>
      </trkpt>
      <trkpt lat="47.92468" lon="-2.4723">
        <ele>70.3</ele>
        <time>2024-12-19T10:41:18Z</time>
      </trkpt>
      <trkpt lat="47.92466" lon="-2.4723">
        <ele>70.3</ele>
        <time>2024-12-19T10:41:19Z</time>
      </trkpt>
      <trkpt lat="47.92465" lon="-2.4723">
        <ele>70.3</ele>
        <time>2024-12-19T10:41:20Z</time>
      </trkpt>
      <trkpt lat="47.92464" lon="-2.47231">
        <ele>70.3</ele>
        <time>2024-12-19T10:41:21Z</time>
      </trkpt>
      <trkpt lat="47.92462" lon="-2.47231">
        <ele>70.3</ele>
        <time>2024-12-19T10:41:22Z</time>
      </trkpt>
      <trkpt lat="47.92462" lon="-2.47231">
        <ele>70.3</ele>
        <time>2024-12-19T10:41:23Z</time>
      </trkpt>
      <trkpt lat="47.92461" lon="-2.47231">
        <ele>70.3</ele>
        <time>2024-12-19T10:41:24Z</time>
      </trkpt>
      <trkpt lat="47.92459" lon="-2.4723">
        <ele>70.3</ele>
        <time>2024-12-19T10:41:25Z</time>
      </trkpt>
      <trkpt lat="47.92458" lon="-2.47231">
        <ele>70.3</ele>
        <time>2024-12-19T10:41:26Z</time>
      </trkpt>
      <trkpt lat="47.92457" lon="-2.47231">
        <ele>70.3</ele>
        <time>2024-12-19T10:41:27Z</time>
      </trkpt>
      <trkpt lat="47.92456" lon="-2.47231">
        <ele>70.3</ele>
        <time>2024-12-19T10:41:28Z</time>
      </trkpt>
      <trkpt lat="47.92454" lon="-2.47232">
        <ele>70.3</ele>
        <time>2024-12-19T10:41:29Z</time>
      </trkpt>
      <trkpt lat="47.92453" lon="-2.47233">
        <ele>70.4</ele>
        <time>2024-12-19T10:41:30Z</time>
      </trkpt>
      <trkpt lat="47.92451" lon="-2.47234">
        <ele>70.4</ele>
        <time>2024-12-19T10:41:31Z</time>
      </trkpt>
      <trkpt lat="47.9245" lon="-2.47234">
        <ele>70.4</ele>
        <time>2024-12-19T10:41:32Z</time>
      </trkpt>
      <trkpt lat="47.92449" lon="-2.47234">
        <ele>70.4</ele>
        <time>2024-12-19T10:41:33Z</time>
      </trkpt>
      <trkpt lat="47.92447" lon="-2.47235">
        <ele>70.4</ele>
        <time>2024-12-19T10:41:34Z</time>
      </trkpt>
      <trkpt lat="47.92446" lon="-2.47235">
        <ele>70.5</ele>
        <time>2024-12-19T10:41:35Z</time>
      </trkpt>
      <trkpt lat="47.92445" lon="-2.47236">
        <ele>70.5</ele>
        <time>2024-12-19T10:41:36Z</time>
      </trkpt>
      <trkpt lat="47.92443" lon="-2.47236">
        <ele>70.5</ele>
        <time>2024-12-19T10:41:37Z</time>
      </trkpt>
      <trkpt lat="47.92442" lon="-2.47236">
        <ele>70.5</ele>
        <time>2024-12-19T10:41:38Z</time>
      </trkpt>
      <trkpt lat="47.92441" lon="-2.47237">
        <ele>70.5</ele>
        <time>2024-12-19T10:41:39Z</time>
      </trkpt>
      <trkpt lat="47.9244" lon="-2.47237">
        <ele>70.5</ele>
        <time>2024-12-19T10:41:40Z</time>
      </trkpt>
      <trkpt lat="47.92439" lon="-2.47237">
        <ele>70.5</ele>
        <time>2024-12-19T10:41:41Z</time>
      </trkpt>
      <trkpt lat="47.92438" lon="-2.47238">
        <ele>70.6</ele>
        <time>2024-12-19T10:41:42Z</time>
      </trkpt>
      <trkpt lat="47.92436" lon="-2.47238">
        <ele>70.6</ele>
        <time>2024-12-19T10:41:43Z</time>
      </trkpt>
      <trkpt lat="47.92435" lon="-2.47238">
        <ele>70.6</ele>
        <time>2024-12-19T10:41:44Z</time>
      </trkpt>
      <trkpt lat="47.92434" lon="-2.47238">
        <ele>70.6</ele>
        <time>2024-12-19T10:41:45Z</time>
      </trkpt>
      <trkpt lat="47.92433" lon="-2.47239">
        <ele>70.6</ele>
        <time>2024-12-19T10:41:46Z</time>
      </trkpt>
      <trkpt lat="47.92431" lon="-2.47239">
        <ele>70.6</ele>
        <time>2024-12-19T10:41:47Z</time>
      </trkpt>
      <trkpt lat="47.9243" lon="-2.47239">
        <ele>70.6</ele>
        <time>2024-12-19T10:41:48Z</time>
      </trkpt>
      <trkpt lat="47.92429" lon="-2.47239">
        <ele>70.6</ele>
        <time>2024-12-19T10:41:49Z</time>
      </trkpt>
      <trkpt lat="47.92428" lon="-2.47239">
        <ele>70.6</ele>
        <time>2024-12-19T10:41:50Z</time>
      </trkpt>
      <trkpt lat="47.92426" lon="-2.4724">
        <ele>70.6</ele>
        <time>2024-12-19T10:41:51Z</time>
      </trkpt>
      <trkpt lat="47.92425" lon="-2.4724">
        <ele>70.6</ele>
        <time>2024-12-19T10:41:52Z</time>
      </trkpt>
      <trkpt lat="47.92424" lon="-2.4724">
        <ele>70.7</ele>
        <time>2024-12-19T10:41:53Z</time>
      </trkpt>
      <trkpt lat="47.92422" lon="-2.47241">
        <ele>70.7</ele>
        <time>2024-12-19T10:41:54Z</time>
      </trkpt>
      <trkpt lat="47.92421" lon="-2.47241">
        <ele>70.7</ele>
        <time>2024-12-19T10:41:55Z</time>
      </trkpt>
      <trkpt lat="47.92419" lon="-2.47242">
        <ele>70.7</ele>
        <time>2024-12-19T10:41:56Z</time>
      </trkpt>
      <trkpt lat="47.92418" lon="-2.47243">
        <ele>70.7</ele>
        <time>2024-12-19T10:41:57Z</time>
      </trkpt>
      <trkpt lat="47.92417" lon="-2.47243">
        <ele>70.8</ele>
        <time>2024-12-19T10:41:58Z</time>
      </trkpt>
      <trkpt lat="47.92415" lon="-2.47244">
        <ele>70.8</ele>
        <time>2024-12-19T10:41:59Z</time>
      </trkpt>
      <trkpt lat="47.92414" lon="-2.47244">
        <ele>70.8</ele>
        <time>2024-12-19T10:42:00Z</time>
      </trkpt>
      <trkpt lat="47.92413" lon="-2.47245">
        <ele>70.8</ele>
        <time>2024-12-19T10:42:01Z</time>
      </trkpt>
      <trkpt lat="47.92411" lon="-2.47245">
        <ele>70.8</ele>
        <time>2024-12-19T10:42:02Z</time>
      </trkpt>
      <trkpt lat="47.9241" lon="-2.47246">
        <ele>70.9</ele>
        <time>2024-12-19T10:42:03Z</time>
      </trkpt>
      <trkpt lat="47.92409" lon="-2.47247">
        <ele>70.9</ele>
        <time>2024-12-19T10:42:04Z</time>
      </trkpt>
      <trkpt lat="47.92408" lon="-2.47247">
        <ele>70.9</ele>
        <time>2024-12-19T10:42:05Z</time>
      </trkpt>
      <trkpt lat="47.92406" lon="-2.47247">
        <ele>70.9</ele>
        <time>2024-12-19T10:42:06Z</time>
      </trkpt>
      <trkpt lat="47.92405" lon="-2.47247">
        <ele>70.9</ele>
        <time>2024-12-19T10:42:07Z</time>
      </trkpt>
      <trkpt lat="47.92404" lon="-2.47247">
        <ele>70.9</ele>
        <time>2024-12-19T10:42:08Z</time>
      </trkpt>
      <trkpt lat="47.92403" lon="-2.47247">
        <ele>70.9</ele>
        <time>2024-12-19T10:42:09Z</time>
      </trkpt>
      <trkpt lat="47.92401" lon="-2.47247">
        <ele>70.9</ele>
        <time>2024-12-19T10:42:10Z</time>
      </trkpt>
      <trkpt lat="47.924" lon="-2.47247">
        <ele>70.9</ele>
        <time>2024-12-19T10:42:11Z</time>
      </trkpt>
      <trkpt lat="47.92398" lon="-2.47247">
        <ele>70.9</ele>
        <time>2024-12-19T10:42:12Z</time>
      </trkpt>
      <trkpt lat="47.92397" lon="-2.47247">
        <ele>70.9</ele>
        <time>2024-12-19T10:42:13Z</time>
      </trkpt>
      <trkpt lat="47.92396" lon="-2.47247">
        <ele>70.9</ele>
        <time>2024-12-19T10:42:14Z</time>
      </trkpt>
      <trkpt lat="47.92395" lon="-2.47247">
        <ele>70.9</ele>
        <time>2024-12-19T10:42:15Z</time>
      </trkpt>
      <trkpt lat="47.92393" lon="-2.47247">
        <ele>70.9</ele>
        <time>2024-12-19T10:42:16Z</time>
      </trkpt>
      <trkpt lat="47.92392" lon="-2.47247">
        <ele>70.9</ele>
        <time>2024-12-19T10:42:17Z</time>
      </trkpt>
      <trkpt lat="47.92391" lon="-2.47247">
        <ele>70.9</ele>
        <time>2024-12-19T10:42:18Z</time>
      </trkpt>
      <trkpt lat="47.9239" lon="-2.47247">
        <ele>70.9</ele>
        <time>2024-12-19T10:42:19Z</time>
      </trkpt>
      <trkpt lat="47.92389" lon="-2.47247">
        <ele>70.9</ele>
        <time>2024-12-19T10:42:20Z</time>
      </trkpt>
      <trkpt lat="47.92387" lon="-2.47247">
        <ele>70.9</ele>
        <time>2024-12-19T10:42:21Z</time>
      </trkpt>
      <trkpt lat="47.92386" lon="-2.47247">
        <ele>70.9</ele>
        <time>2024-12-19T10:42:22Z</time>
      </trkpt>
      <trkpt lat="47.92385" lon="-2.47247">
        <ele>70.9</ele>
        <time>2024-12-19T10:42:23Z</time>
      </trkpt>
      <trkpt lat="47.92383" lon="-2.47247">
        <ele>70.9</ele>
        <time>2024-12-19T10:42:24Z</time>
      </trkpt>
      <trkpt lat="47.92382" lon="-2.47247">
        <ele>70.9</ele>
        <time>2024-12-19T10:42:25Z</time>
      </trkpt>
      <trkpt lat="47.92381" lon="-2.47248">
        <ele>70.9</ele>
        <time>2024-12-19T10:42:26Z</time>
      </trkpt>
      <trkpt lat="47.92379" lon="-2.47248">
        <ele>70.9</ele>
        <time>2024-12-19T10:42:27Z</time>
      </trkpt>
      <trkpt lat="47.92378" lon="-2.47249">
        <ele>70.9</ele>
        <time>2024-12-19T10:42:28Z</time>
      </trkpt>
      <trkpt lat="47.92377" lon="-2.47249">
        <ele>71</ele>
        <time>2024-12-19T10:42:29Z</time>
      </trkpt>
      <trkpt lat="47.92376" lon="-2.47249">
        <ele>71</ele>
        <time>2024-12-19T10:42:30Z</time>
      </trkpt>
      <trkpt lat="47.92374" lon="-2.47249">
        <ele>71</ele>
        <time>2024-12-19T10:42:31Z</time>
      </trkpt>
      <trkpt lat="47.92373" lon="-2.47249">
        <ele>71</ele>
        <time>2024-12-19T10:42:32Z</time>
      </trkpt>
      <trkpt lat="47.92372" lon="-2.47249">
        <ele>71</ele>
        <time>2024-12-19T10:42:33Z</time>
      </trkpt>
      <trkpt lat="47.92371" lon="-2.47249">
        <ele>71</ele>
        <time>2024-12-19T10:42:34Z</time>
      </trkpt>
      <trkpt lat="47.9237" lon="-2.47249">
        <ele>71</ele>
        <time>2024-12-19T10:42:35Z</time>
      </trkpt>
      <trkpt lat="47.92369" lon="-2.47249">
        <ele>71</ele>
        <time>2024-12-19T10:42:36Z</time>
      </trkpt>
      <trkpt lat="47.92368" lon="-2.47249">
        <ele>71</ele>
        <time>2024-12-19T10:42:37Z</time>
      </trkpt>
      <trkpt lat="47.92367" lon="-2.47249">
        <ele>71</ele>
        <time>2024-12-19T10:42:38Z</time>
      </trkpt>
      <trkpt lat="47.92366" lon="-2.47249">
        <ele>71</ele>
        <time>2024-12-19T10:42:39Z</time>
      </trkpt>
      <trkpt lat="47.92365" lon="-2.47249">
        <ele>70.9</ele>
        <time>2024-12-19T10:42:40Z</time>
      </trkpt>
      <trkpt lat="47.92364" lon="-2.47248">
        <ele>70.9</ele>
        <time>2024-12-19T10:42:41Z</time>
      </trkpt>
      <trkpt lat="47.92362" lon="-2.47248">
        <ele>70.9</ele>
        <time>2024-12-19T10:42:42Z</time>
      </trkpt>
      <trkpt lat="47.92361" lon="-2.47248">
        <ele>70.9</ele>
        <time>2024-12-19T10:42:43Z</time>
      </trkpt>
      <trkpt lat="47.9236" lon="-2.47248">
        <ele>70.9</ele>
        <time>2024-12-19T10:42:44Z</time>
      </trkpt>
      <trkpt lat="47.92359" lon="-2.47247">
        <ele>71</ele>
        <time>2024-12-19T10:42:45Z</time>
      </trkpt>
      <trkpt lat="47.92358" lon="-2.47247">
        <ele>71</ele>
        <time>2024-12-19T10:42:46Z</time>
      </trkpt>
      <trkpt lat="47.92357" lon="-2.47247">
        <ele>71</ele>
        <time>2024-12-19T10:42:47Z</time>
      </trkpt>
      <trkpt lat="47.92356" lon="-2.47247">
        <ele>71</ele>
        <time>2024-12-19T10:42:48Z</time>
      </trkpt>
      <trkpt lat="47.92355" lon="-2.47247">
        <ele>71.1</ele>
        <time>2024-12-19T10:42:49Z</time>
      </trkpt>
      <trkpt lat="47.92354" lon="-2.47246">
        <ele>71.1</ele>
        <time>2024-12-19T10:42:50Z</time>
      </trkpt>
      <trkpt lat="47.92353" lon="-2.47246">
        <ele>71.1</ele>
        <time>2024-12-19T10:42:51Z</time>
      </trkpt>
      <trkpt lat="47.92351" lon="-2.47247">
        <ele>71.2</ele>
        <time>2024-12-19T10:42:52Z</time>
      </trkpt>
      <trkpt lat="47.9235" lon="-2.47247">
        <ele>71.2</ele>
        <time>2024-12-19T10:42:53Z</time>
      </trkpt>
      <trkpt lat="47.92348" lon="-2.47246">
        <ele>71.3</ele>
        <time>2024-12-19T10:42:54Z</time>
      </trkpt>
      <trkpt lat="47.92347" lon="-2.47246">
        <ele>71.3</ele>
        <time>2024-12-19T10:42:55Z</time>
      </trkpt>
      <trkpt lat="47.92346" lon="-2.47246">
        <ele>71.3</ele>
        <time>2024-12-19T10:42:56Z</time>
      </trkpt>
      <trkpt lat="47.92345" lon="-2.47245">
        <ele>71.3</ele>
        <time>2024-12-19T10:42:57Z</time>
      </trkpt>
      <trkpt lat="47.92344" lon="-2.47245">
        <ele>71.3</ele>
        <time>2024-12-19T10:42:58Z</time>
      </trkpt>
      <trkpt lat="47.92343" lon="-2.47245">
        <ele>71.3</ele>
        <time>2024-12-19T10:42:59Z</time>
      </trkpt>
      <trkpt lat="47.92342" lon="-2.47244">
        <ele>71.3</ele>
        <time>2024-12-19T10:43:00Z</time>
      </trkpt>
      <trkpt lat="47.92341" lon="-2.47244">
        <ele>71.3</ele>
        <time>2024-12-19T10:43:01Z</time>
      </trkpt>
      <trkpt lat="47.9234" lon="-2.47243">
        <ele>71.3</ele>
        <time>2024-12-19T10:43:02Z</time>
      </trkpt>
      <trkpt lat="47.92338" lon="-2.47242">
        <ele>71.3</ele>
        <time>2024-12-19T10:43:03Z</time>
      </trkpt>
      <trkpt lat="47.92337" lon="-2.47242">
        <ele>71.3</ele>
        <time>2024-12-19T10:43:04Z</time>
      </trkpt>
      <trkpt lat="47.92336" lon="-2.47241">
        <ele>71.3</ele>
        <time>2024-12-19T10:43:05Z</time>
      </trkpt>
      <trkpt lat="47.92335" lon="-2.47241">
        <ele>71.3</ele>
        <time>2024-12-19T10:43:06Z</time>
      </trkpt>
      <trkpt lat="47.92333" lon="-2.47241">
        <ele>71.3</ele>
        <time>2024-12-19T10:43:07Z</time>
      </trkpt>
      <trkpt lat="47.92332" lon="-2.4724">
        <ele>71.4</ele>
        <time>2024-12-19T10:43:08Z</time>
      </trkpt>
      <trkpt lat="47.92331" lon="-2.4724">
        <ele>71.4</ele>
        <time>2024-12-19T10:43:09Z</time>
      </trkpt>
      <trkpt lat="47.9233" lon="-2.4724">
        <ele>71.4</ele>
        <time>2024-12-19T10:43:10Z</time>
      </trkpt>
      <trkpt lat="47.92329" lon="-2.47239">
        <ele>71.4</ele>
        <time>2024-12-19T10:43:11Z</time>
      </trkpt>
      <trkpt lat="47.92328" lon="-2.47238">
        <ele>71.5</ele>
        <time>2024-12-19T10:43:12Z</time>
      </trkpt>
      <trkpt lat="47.92326" lon="-2.47238">
        <ele>71.5</ele>
        <time>2024-12-19T10:43:13Z</time>
      </trkpt>
      <trkpt lat="47.92326" lon="-2.47237">
        <ele>71.5</ele>
        <time>2024-12-19T10:43:14Z</time>
      </trkpt>
      <trkpt lat="47.92325" lon="-2.47237">
        <ele>71.5</ele>
        <time>2024-12-19T10:43:15Z</time>
      </trkpt>
      <trkpt lat="47.92324" lon="-2.47236">
        <ele>71.5</ele>
        <time>2024-12-19T10:43:16Z</time>
      </trkpt>
      <trkpt lat="47.92322" lon="-2.47236">
        <ele>71.6</ele>
        <time>2024-12-19T10:43:17Z</time>
      </trkpt>
      <trkpt lat="47.92321" lon="-2.47236">
        <ele>71.7</ele>
        <time>2024-12-19T10:43:18Z</time>
      </trkpt>
      <trkpt lat="47.92319" lon="-2.47235">
        <ele>71.7</ele>
        <time>2024-12-19T10:43:19Z</time>
      </trkpt>
      <trkpt lat="47.92318" lon="-2.47234">
        <ele>71.8</ele>
        <time>2024-12-19T10:43:20Z</time>
      </trkpt>
      <trkpt lat="47.92316" lon="-2.47234">
        <ele>71.8</ele>
        <time>2024-12-19T10:43:21Z</time>
      </trkpt>
      <trkpt lat="47.92315" lon="-2.47233">
        <ele>71.8</ele>
        <time>2024-12-19T10:43:22Z</time>
      </trkpt>
      <trkpt lat="47.92314" lon="-2.47233">
        <ele>71.9</ele>
        <time>2024-12-19T10:43:23Z</time>
      </trkpt>
      <trkpt lat="47.92313" lon="-2.47233">
        <ele>72</ele>
        <time>2024-12-19T10:43:24Z</time>
      </trkpt>
      <trkpt lat="47.92312" lon="-2.47234">
        <ele>72</ele>
        <time>2024-12-19T10:43:25Z</time>
      </trkpt>
      <trkpt lat="47.92312" lon="-2.47234">
        <ele>72.1</ele>
        <time>2024-12-19T10:43:26Z</time>
      </trkpt>
      <trkpt lat="47.92311" lon="-2.47234">
        <ele>72.1</ele>
        <time>2024-12-19T10:43:27Z</time>
      </trkpt>
      <trkpt lat="47.9231" lon="-2.47235">
        <ele>72.2</ele>
        <time>2024-12-19T10:43:28Z</time>
      </trkpt>
      <trkpt lat="47.92309" lon="-2.47235">
        <ele>72.3</ele>
        <time>2024-12-19T10:43:29Z</time>
      </trkpt>
      <trkpt lat="47.92308" lon="-2.47236">
        <ele>72.4</ele>
        <time>2024-12-19T10:43:30Z</time>
      </trkpt>
      <trkpt lat="47.92308" lon="-2.47236">
        <ele>72.4</ele>
        <time>2024-12-19T10:43:31Z</time>
      </trkpt>
      <trkpt lat="47.92308" lon="-2.47236">
        <ele>72.4</ele>
        <time>2024-12-19T10:43:32Z</time>
      </trkpt>
      <trkpt lat="47.92308" lon="-2.47237">
        <ele>72.4</ele>
        <time>2024-12-19T10:43:33Z</time>
      </trkpt>
      <trkpt lat="47.92308" lon="-2.47237">
        <ele>72.4</ele>
        <time>2024-12-19T10:43:34Z</time>
      </trkpt>
      <trkpt lat="47.92309" lon="-2.47236">
        <ele>72.3</ele>
        <time>2024-12-19T10:43:35Z</time>
      </trkpt>
      <trkpt lat="47.9231" lon="-2.47236">
        <ele>72.3</ele>
        <time>2024-12-19T10:43:36Z</time>
      </trkpt>
      <trkpt lat="47.9231" lon="-2.47236">
        <ele>72.2</ele>
        <time>2024-12-19T10:43:37Z</time>
      </trkpt>
      <trkpt lat="47.92311" lon="-2.47236">
        <ele>72.2</ele>
        <time>2024-12-19T10:43:38Z</time>
      </trkpt>
      <trkpt lat="47.92311" lon="-2.47236">
        <ele>72.2</ele>
        <time>2024-12-19T10:43:39Z</time>
      </trkpt>
      <trkpt lat="47.92311" lon="-2.47236">
        <ele>72.2</ele>
        <time>2024-12-19T10:43:40Z</time>
      </trkpt>
      <trkpt lat="47.92309" lon="-2.47236">
        <ele>72.3</ele>
        <time>2024-12-19T10:43:41Z</time>
      </trkpt>
      <trkpt lat="47.92308" lon="-2.47235">
        <ele>72.3</ele>
        <time>2024-12-19T10:43:42Z</time>
      </trkpt>
      <trkpt lat="47.92307" lon="-2.47235">
        <ele>72.4</ele>
        <time>2024-12-19T10:43:43Z</time>
      </trkpt>
      <trkpt lat="47.92306" lon="-2.47234">
        <ele>72.4</ele>
        <time>2024-12-19T10:43:44Z</time>
      </trkpt>
      <trkpt lat="47.92305" lon="-2.47234">
        <ele>72.4</ele>
        <time>2024-12-19T10:43:45Z</time>
      </trkpt>
      <trkpt lat="47.92304" lon="-2.47233">
        <ele>72.4</ele>
        <time>2024-12-19T10:43:46Z</time>
      </trkpt>
      <trkpt lat="47.92302" lon="-2.47232">
        <ele>72.5</ele>
        <time>2024-12-19T10:43:47Z</time>
      </trkpt>
      <trkpt lat="47.92301" lon="-2.47231">
        <ele>72.5</ele>
        <time>2024-12-19T10:43:48Z</time>
      </trkpt>
      <trkpt lat="47.923" lon="-2.4723">
        <ele>72.5</ele>
        <time>2024-12-19T10:43:49Z</time>
      </trkpt>
      <trkpt lat="47.92299" lon="-2.4723">
        <ele>72.5</ele>
        <time>2024-12-19T10:43:50Z</time>
      </trkpt>
      <trkpt lat="47.92298" lon="-2.47229">
        <ele>72.5</ele>
        <time>2024-12-19T10:43:51Z</time>
      </trkpt>
      <trkpt lat="47.92297" lon="-2.47229">
        <ele>72.6</ele>
        <time>2024-12-19T10:43:52Z</time>
      </trkpt>
      <trkpt lat="47.92296" lon="-2.47229">
        <ele>72.6</ele>
        <time>2024-12-19T10:43:53Z</time>
      </trkpt>
      <trkpt lat="47.92294" lon="-2.47228">
        <ele>72.6</ele>
        <time>2024-12-19T10:43:54Z</time>
      </trkpt>
      <trkpt lat="47.92293" lon="-2.47228">
        <ele>72.7</ele>
        <time>2024-12-19T10:43:55Z</time>
      </trkpt>
      <trkpt lat="47.92292" lon="-2.47228">
        <ele>72.7</ele>
        <time>2024-12-19T10:43:56Z</time>
      </trkpt>
      <trkpt lat="47.9229" lon="-2.47228">
        <ele>72.8</ele>
        <time>2024-12-19T10:43:57Z</time>
      </trkpt>
      <trkpt lat="47.92289" lon="-2.47227">
        <ele>72.8</ele>
        <time>2024-12-19T10:43:58Z</time>
      </trkpt>
      <trkpt lat="47.92287" lon="-2.47227">
        <ele>72.8</ele>
        <time>2024-12-19T10:43:59Z</time>
      </trkpt>
      <trkpt lat="47.92286" lon="-2.47227">
        <ele>72.9</ele>
        <time>2024-12-19T10:44:00Z</time>
      </trkpt>
      <trkpt lat="47.92285" lon="-2.47227">
        <ele>72.9</ele>
        <time>2024-12-19T10:44:01Z</time>
      </trkpt>
      <trkpt lat="47.92284" lon="-2.47226">
        <ele>72.9</ele>
        <time>2024-12-19T10:44:02Z</time>
      </trkpt>
      <trkpt lat="47.92283" lon="-2.47226">
        <ele>73</ele>
        <time>2024-12-19T10:44:03Z</time>
      </trkpt>
      <trkpt lat="47.92282" lon="-2.47226">
        <ele>73</ele>
        <time>2024-12-19T10:44:04Z</time>
      </trkpt>
      <trkpt lat="47.92281" lon="-2.47226">
        <ele>73</ele>
        <time>2024-12-19T10:44:05Z</time>
      </trkpt>
      <trkpt lat="47.92279" lon="-2.47227">
        <ele>73.1</ele>
        <time>2024-12-19T10:44:06Z</time>
      </trkpt>
      <trkpt lat="47.92278" lon="-2.47227">
        <ele>73.2</ele>
        <time>2024-12-19T10:44:07Z</time>
      </trkpt>
      <trkpt lat="47.92276" lon="-2.47227">
        <ele>73.2</ele>
        <time>2024-12-19T10:44:08Z</time>
      </trkpt>
      <trkpt lat="47.92275" lon="-2.47227">
        <ele>73.3</ele>
        <time>2024-12-19T10:44:09Z</time>
      </trkpt>
      <trkpt lat="47.92273" lon="-2.47227">
        <ele>73.3</ele>
        <time>2024-12-19T10:44:10Z</time>
      </trkpt>
      <trkpt lat="47.92272" lon="-2.47227">
        <ele>73.3</ele>
        <time>2024-12-19T10:44:11Z</time>
      </trkpt>
      <trkpt lat="47.92271" lon="-2.47227">
        <ele>73.4</ele>
        <time>2024-12-19T10:44:12Z</time>
      </trkpt>
      <trkpt lat="47.92269" lon="-2.47226">
        <ele>73.4</ele>
        <time>2024-12-19T10:44:13Z</time>
      </trkpt>
      <trkpt lat="47.92268" lon="-2.47226">
        <ele>73.4</ele>
        <time>2024-12-19T10:44:14Z</time>
      </trkpt>
      <trkpt lat="47.92267" lon="-2.47226">
        <ele>73.5</ele>
        <time>2024-12-19T10:44:15Z</time>
      </trkpt>
      <trkpt lat="47.92265" lon="-2.47226">
        <ele>73.5</ele>
        <time>2024-12-19T10:44:16Z</time>
      </trkpt>
      <trkpt lat="47.92264" lon="-2.47226">
        <ele>73.6</ele>
        <time>2024-12-19T10:44:17Z</time>
      </trkpt>
      <trkpt lat="47.92262" lon="-2.47226">
        <ele>73.6</ele>
        <time>2024-12-19T10:44:18Z</time>
      </trkpt>
      <trkpt lat="47.92261" lon="-2.47226">
        <ele>73.7</ele>
        <time>2024-12-19T10:44:19Z</time>
      </trkpt>
      <trkpt lat="47.92259" lon="-2.47226">
        <ele>73.7</ele>
        <time>2024-12-19T10:44:20Z</time>
      </trkpt>
      <trkpt lat="47.92258" lon="-2.47226">
        <ele>73.7</ele>
        <time>2024-12-19T10:44:21Z</time>
      </trkpt>
      <trkpt lat="47.92257" lon="-2.47226">
        <ele>73.8</ele>
        <time>2024-12-19T10:44:22Z</time>
      </trkpt>
      <trkpt lat="47.92255" lon="-2.47226">
        <ele>73.8</ele>
        <time>2024-12-19T10:44:23Z</time>
      </trkpt>
      <trkpt lat="47.92254" lon="-2.47225">
        <ele>73.9</ele>
        <time>2024-12-19T10:44:24Z</time>
      </trkpt>
      <trkpt lat="47.92253" lon="-2.47225">
        <ele>73.9</ele>
        <time>2024-12-19T10:44:25Z</time>
      </trkpt>
      <trkpt lat="47.92252" lon="-2.47224">
        <ele>73.9</ele>
        <time>2024-12-19T10:44:26Z</time>
      </trkpt>
      <trkpt lat="47.92251" lon="-2.47224">
        <ele>74</ele>
        <time>2024-12-19T10:44:27Z</time>
      </trkpt>
      <trkpt lat="47.92249" lon="-2.47224">
        <ele>74</ele>
        <time>2024-12-19T10:44:28Z</time>
      </trkpt>
      <trkpt lat="47.92248" lon="-2.47224">
        <ele>74</ele>
        <time>2024-12-19T10:44:29Z</time>
      </trkpt>
      <trkpt lat="47.92246" lon="-2.47225">
        <ele>74</ele>
        <time>2024-12-19T10:44:30Z</time>
      </trkpt>
      <trkpt lat="47.92245" lon="-2.47225">
        <ele>74</ele>
        <time>2024-12-19T10:44:31Z</time>
      </trkpt>
      <trkpt lat="47.92244" lon="-2.47225">
        <ele>74</ele>
        <time>2024-12-19T10:44:32Z</time>
      </trkpt>
      <trkpt lat="47.92243" lon="-2.47224">
        <ele>74</ele>
        <time>2024-12-19T10:44:33Z</time>
      </trkpt>
      <trkpt lat="47.92242" lon="-2.47224">
        <ele>74</ele>
        <time>2024-12-19T10:44:34Z</time>
      </trkpt>
      <trkpt lat="47.9224" lon="-2.47223">
        <ele>74</ele>
        <time>2024-12-19T10:44:35Z</time>
      </trkpt>
      <trkpt lat="47.92239" lon="-2.47223">
        <ele>74</ele>
        <time>2024-12-19T10:44:36Z</time>
      </trkpt>
      <trkpt lat="47.92238" lon="-2.47223">
        <ele>74</ele>
        <time>2024-12-19T10:44:37Z</time>
      </trkpt>
      <trkpt lat="47.92237" lon="-2.47223">
        <ele>74</ele>
        <time>2024-12-19T10:44:38Z</time>
      </trkpt>
      <trkpt lat="47.92235" lon="-2.47222">
        <ele>74</ele>
        <time>2024-12-19T10:44:39Z</time>
      </trkpt>
      <trkpt lat="47.92234" lon="-2.47222">
        <ele>74</ele>
        <time>2024-12-19T10:44:40Z</time>
      </trkpt>
      <trkpt lat="47.92232" lon="-2.47221">
        <ele>74</ele>
        <time>2024-12-19T10:44:41Z</time>
      </trkpt>
      <trkpt lat="47.92231" lon="-2.47221">
        <ele>74</ele>
        <time>2024-12-19T10:44:42Z</time>
      </trkpt>
      <trkpt lat="47.92229" lon="-2.47221">
        <ele>74</ele>
        <time>2024-12-19T10:44:43Z</time>
      </trkpt>
      <trkpt lat="47.92228" lon="-2.4722">
        <ele>74</ele>
        <time>2024-12-19T10:44:44Z</time>
      </trkpt>
      <trkpt lat="47.92227" lon="-2.4722">
        <ele>74</ele>
        <time>2024-12-19T10:44:45Z</time>
      </trkpt>
      <trkpt lat="47.92225" lon="-2.4722">
        <ele>74</ele>
        <time>2024-12-19T10:44:47Z</time>
      </trkpt>
      <trkpt lat="47.92223" lon="-2.47219">
        <ele>74</ele>
        <time>2024-12-19T10:44:48Z</time>
      </trkpt>
      <trkpt lat="47.92222" lon="-2.47219">
        <ele>74</ele>
        <time>2024-12-19T10:44:49Z</time>
      </trkpt>
      <trkpt lat="47.9222" lon="-2.47219">
        <ele>73.9</ele>
        <time>2024-12-19T10:44:50Z</time>
      </trkpt>
      <trkpt lat="47.92219" lon="-2.47218">
        <ele>73.9</ele>
        <time>2024-12-19T10:44:51Z</time>
      </trkpt>
      <trkpt lat="47.92217" lon="-2.47218">
        <ele>73.8</ele>
        <time>2024-12-19T10:44:52Z</time>
      </trkpt>
      <trkpt lat="47.92216" lon="-2.47217">
        <ele>73.7</ele>
        <time>2024-12-19T10:44:53Z</time>
      </trkpt>
      <trkpt lat="47.92214" lon="-2.47217">
        <ele>73.7</ele>
        <time>2024-12-19T10:44:54Z</time>
      </trkpt>
      <trkpt lat="47.92213" lon="-2.47216">
        <ele>73.6</ele>
        <time>2024-12-19T10:44:55Z</time>
      </trkpt>
      <trkpt lat="47.92212" lon="-2.47215">
        <ele>73.5</ele>
        <time>2024-12-19T10:44:56Z</time>
      </trkpt>
      <trkpt lat="47.92211" lon="-2.47214">
        <ele>73.5</ele>
        <time>2024-12-19T10:44:57Z</time>
      </trkpt>
      <trkpt lat="47.92211" lon="-2.47214">
        <ele>73.4</ele>
        <time>2024-12-19T10:44:58Z</time>
      </trkpt>
      <trkpt lat="47.9221" lon="-2.47213">
        <ele>73.4</ele>
        <time>2024-12-19T10:44:59Z</time>
      </trkpt>
      <trkpt lat="47.9221" lon="-2.47213">
        <ele>73.4</ele>
        <time>2024-12-19T10:45:00Z</time>
      </trkpt>
      <trkpt lat="47.92209" lon="-2.47213">
        <ele>73.4</ele>
        <time>2024-12-19T10:45:01Z</time>
      </trkpt>
      <trkpt lat="47.92208" lon="-2.47213">
        <ele>73.3</ele>
        <time>2024-12-19T10:45:02Z</time>
      </trkpt>
      <trkpt lat="47.92208" lon="-2.47213">
        <ele>73.3</ele>
        <time>2024-12-19T10:45:03Z</time>
      </trkpt>
      <trkpt lat="47.92207" lon="-2.47213">
        <ele>73.3</ele>
        <time>2024-12-19T10:45:04Z</time>
      </trkpt>
      <trkpt lat="47.92207" lon="-2.47213">
        <ele>73.3</ele>
        <time>2024-12-19T10:45:05Z</time>
      </trkpt>
      <trkpt lat="47.92206" lon="-2.47212">
        <ele>73.2</ele>
        <time>2024-12-19T10:45:06Z</time>
      </trkpt>
      <trkpt lat="47.92205" lon="-2.47212">
        <ele>73.1</ele>
        <time>2024-12-19T10:45:07Z</time>
      </trkpt>
      <trkpt lat="47.92204" lon="-2.4721">
        <ele>73</ele>
        <time>2024-12-19T10:45:08Z</time>
      </trkpt>
      <trkpt lat="47.92202" lon="-2.47208">
        <ele>72.9</ele>
        <time>2024-12-19T10:45:09Z</time>
      </trkpt>
      <trkpt lat="47.92201" lon="-2.47207">
        <ele>72.8</ele>
        <time>2024-12-19T10:45:10Z</time>
      </trkpt>
      <trkpt lat="47.922" lon="-2.47205">
        <ele>72.7</ele>
        <time>2024-12-19T10:45:11Z</time>
      </trkpt>
      <trkpt lat="47.92199" lon="-2.47205">
        <ele>72.6</ele>
        <time>2024-12-19T10:45:12Z</time>
      </trkpt>
      <trkpt lat="47.92198" lon="-2.47205">
        <ele>72.5</ele>
        <time>2024-12-19T10:45:13Z</time>
      </trkpt>
      <trkpt lat="47.92196" lon="-2.47204">
        <ele>72.5</ele>
        <time>2024-12-19T10:45:14Z</time>
      </trkpt>
      <trkpt lat="47.92195" lon="-2.47204">
        <ele>72.4</ele>
        <time>2024-12-19T10:45:15Z</time>
      </trkpt>
      <trkpt lat="47.92194" lon="-2.47203">
        <ele>72.3</ele>
        <time>2024-12-19T10:45:16Z</time>
      </trkpt>
      <trkpt lat="47.92193" lon="-2.47203">
        <ele>72.3</ele>
        <time>2024-12-19T10:45:17Z</time>
      </trkpt>
      <trkpt lat="47.92192" lon="-2.47202">
        <ele>72.3</ele>
        <time>2024-12-19T10:45:18Z</time>
      </trkpt>
      <trkpt lat="47.92191" lon="-2.47201">
        <ele>72.2</ele>
        <time>2024-12-19T10:45:19Z</time>
      </trkpt>
      <trkpt lat="47.9219" lon="-2.47201">
        <ele>72.2</ele>
        <time>2024-12-19T10:45:20Z</time>
      </trkpt>
      <trkpt lat="47.92189" lon="-2.47201">
        <ele>72.2</ele>
        <time>2024-12-19T10:45:21Z</time>
      </trkpt>
      <trkpt lat="47.92188" lon="-2.47201">
        <ele>72.2</ele>
        <time>2024-12-19T10:45:22Z</time>
      </trkpt>
      <trkpt lat="47.92187" lon="-2.47201">
        <ele>72.2</ele>
        <time>2024-12-19T10:45:23Z</time>
      </trkpt>
      <trkpt lat="47.92185" lon="-2.47202">
        <ele>72.3</ele>
        <time>2024-12-19T10:45:24Z</time>
      </trkpt>
      <trkpt lat="47.92184" lon="-2.47202">
        <ele>72.3</ele>
        <time>2024-12-19T10:45:25Z</time>
      </trkpt>
      <trkpt lat="47.92183" lon="-2.47201">
        <ele>72.2</ele>
        <time>2024-12-19T10:45:26Z</time>
      </trkpt>
      <trkpt lat="47.92183" lon="-2.47201">
        <ele>72.2</ele>
        <time>2024-12-19T10:45:27Z</time>
      </trkpt>
      <trkpt lat="47.92182" lon="-2.472">
        <ele>72.2</ele>
        <time>2024-12-19T10:45:28Z</time>
      </trkpt>
      <trkpt lat="47.92181" lon="-2.47199">
        <ele>72.2</ele>
        <time>2024-12-19T10:45:29Z</time>
      </trkpt>
      <trkpt lat="47.9218" lon="-2.47199">
        <ele>72.1</ele>
        <time>2024-12-19T10:45:30Z</time>
      </trkpt>
      <trkpt lat="47.92179" lon="-2.47198">
        <ele>72.1</ele>
        <time>2024-12-19T10:45:31Z</time>
      </trkpt>
      <trkpt lat="47.92178" lon="-2.47198">
        <ele>72.1</ele>
        <time>2024-12-19T10:45:32Z</time>
      </trkpt>
      <trkpt lat="47.92177" lon="-2.47198">
        <ele>72.1</ele>
        <time>2024-12-19T10:45:33Z</time>
      </trkpt>
      <trkpt lat="47.92175" lon="-2.47197">
        <ele>72.1</ele>
        <time>2024-12-19T10:45:34Z</time>
      </trkpt>
      <trkpt lat="47.92173" lon="-2.47196">
        <ele>72.1</ele>
        <time>2024-12-19T10:45:35Z</time>
      </trkpt>
      <trkpt lat="47.92171" lon="-2.47195">
        <ele>72</ele>
        <time>2024-12-19T10:45:36Z</time>
      </trkpt>
      <trkpt lat="47.92169" lon="-2.47194">
        <ele>72</ele>
        <time>2024-12-19T10:45:37Z</time>
      </trkpt>
      <trkpt lat="47.92167" lon="-2.47193">
        <ele>72</ele>
        <time>2024-12-19T10:45:38Z</time>
      </trkpt>
      <trkpt lat="47.92165" lon="-2.47191">
        <ele>72.1</ele>
        <time>2024-12-19T10:45:39Z</time>
      </trkpt>
      <trkpt lat="47.92164" lon="-2.4719">
        <ele>72.2</ele>
        <time>2024-12-19T10:45:40Z</time>
      </trkpt>
      <trkpt lat="47.92162" lon="-2.47189">
        <ele>72.3</ele>
        <time>2024-12-19T10:45:41Z</time>
      </trkpt>
      <trkpt lat="47.92161" lon="-2.47188">
        <ele>72.4</ele>
        <time>2024-12-19T10:45:42Z</time>
      </trkpt>
      <trkpt lat="47.9216" lon="-2.47187">
        <ele>72.5</ele>
        <time>2024-12-19T10:45:43Z</time>
      </trkpt>
      <trkpt lat="47.92159" lon="-2.47186">
        <ele>72.6</ele>
        <time>2024-12-19T10:45:44Z</time>
      </trkpt>
      <trkpt lat="47.92158" lon="-2.47186">
        <ele>72.6</ele>
        <time>2024-12-19T10:45:45Z</time>
      </trkpt>
      <trkpt lat="47.92157" lon="-2.47185">
        <ele>72.7</ele>
        <time>2024-12-19T10:45:46Z</time>
      </trkpt>
      <trkpt lat="47.92157" lon="-2.47185">
        <ele>72.7</ele>
        <time>2024-12-19T10:45:47Z</time>
      </trkpt>
      <trkpt lat="47.92156" lon="-2.47185">
        <ele>72.7</ele>
        <time>2024-12-19T10:45:48Z</time>
      </trkpt>
      <trkpt lat="47.92155" lon="-2.47184">
        <ele>72.8</ele>
        <time>2024-12-19T10:45:49Z</time>
      </trkpt>
      <trkpt lat="47.92155" lon="-2.47183">
        <ele>72.9</ele>
        <time>2024-12-19T10:45:50Z</time>
      </trkpt>
      <trkpt lat="47.92154" lon="-2.47183">
        <ele>72.9</ele>
        <time>2024-12-19T10:45:51Z</time>
      </trkpt>
      <trkpt lat="47.92153" lon="-2.47182">
        <ele>73</ele>
        <time>2024-12-19T10:45:52Z</time>
      </trkpt>
      <trkpt lat="47.92152" lon="-2.47181">
        <ele>73</ele>
        <time>2024-12-19T10:45:53Z</time>
      </trkpt>
      <trkpt lat="47.92152" lon="-2.47181">
        <ele>73</ele>
        <time>2024-12-19T10:45:54Z</time>
      </trkpt>
      <trkpt lat="47.92152" lon="-2.47179">
        <ele>73.1</ele>
        <time>2024-12-19T10:45:55Z</time>
      </trkpt>
      <trkpt lat="47.92151" lon="-2.47178">
        <ele>73.1</ele>
        <time>2024-12-19T10:45:56Z</time>
      </trkpt>
      <trkpt lat="47.92151" lon="-2.47178">
        <ele>73.2</ele>
        <time>2024-12-19T10:45:57Z</time>
      </trkpt>
      <trkpt lat="47.9215" lon="-2.47177">
        <ele>73.2</ele>
        <time>2024-12-19T10:45:58Z</time>
      </trkpt>
      <trkpt lat="47.9215" lon="-2.47177">
        <ele>73.2</ele>
        <time>2024-12-19T10:45:59Z</time>
      </trkpt>
      <trkpt lat="47.9215" lon="-2.47175">
        <ele>73.2</ele>
        <time>2024-12-19T10:46:00Z</time>
      </trkpt>
      <trkpt lat="47.92149" lon="-2.47174">
        <ele>73.3</ele>
        <time>2024-12-19T10:46:01Z</time>
      </trkpt>
      <trkpt lat="47.92149" lon="-2.47172">
        <ele>73.3</ele>
        <time>2024-12-19T10:46:02Z</time>
      </trkpt>
      <trkpt lat="47.92147" lon="-2.47171">
        <ele>73.4</ele>
        <time>2024-12-19T10:46:03Z</time>
      </trkpt>
      <trkpt lat="47.92146" lon="-2.47171">
        <ele>73.5</ele>
        <time>2024-12-19T10:46:04Z</time>
      </trkpt>
      <trkpt lat="47.92144" lon="-2.4717">
        <ele>73.6</ele>
        <time>2024-12-19T10:46:05Z</time>
      </trkpt>
      <trkpt lat="47.92143" lon="-2.4717">
        <ele>73.7</ele>
        <time>2024-12-19T10:46:06Z</time>
      </trkpt>
      <trkpt lat="47.92141" lon="-2.47171">
        <ele>73.8</ele>
        <time>2024-12-19T10:46:07Z</time>
      </trkpt>
      <trkpt lat="47.9214" lon="-2.4717">
        <ele>73.9</ele>
        <time>2024-12-19T10:46:08Z</time>
      </trkpt>
      <trkpt lat="47.92138" lon="-2.4717">
        <ele>74.1</ele>
        <time>2024-12-19T10:46:09Z</time>
      </trkpt>
      <trkpt lat="47.92136" lon="-2.47169">
        <ele>74.2</ele>
        <time>2024-12-19T10:46:10Z</time>
      </trkpt>
      <trkpt lat="47.92135" lon="-2.47168">
        <ele>74.3</ele>
        <time>2024-12-19T10:46:11Z</time>
      </trkpt>
      <trkpt lat="47.92134" lon="-2.47166">
        <ele>74.4</ele>
        <time>2024-12-19T10:46:12Z</time>
      </trkpt>
      <trkpt lat="47.92132" lon="-2.47165">
        <ele>74.5</ele>
        <time>2024-12-19T10:46:13Z</time>
      </trkpt>
      <trkpt lat="47.92131" lon="-2.47165">
        <ele>74.5</ele>
        <time>2024-12-19T10:46:14Z</time>
      </trkpt>
      <trkpt lat="47.9213" lon="-2.47164">
        <ele>74.6</ele>
        <time>2024-12-19T10:46:15Z</time>
      </trkpt>
      <trkpt lat="47.9213" lon="-2.47163">
        <ele>74.7</ele>
        <time>2024-12-19T10:46:16Z</time>
      </trkpt>
      <trkpt lat="47.92129" lon="-2.47162">
        <ele>74.7</ele>
        <time>2024-12-19T10:46:17Z</time>
      </trkpt>
      <trkpt lat="47.92128" lon="-2.47161">
        <ele>74.8</ele>
        <time>2024-12-19T10:46:18Z</time>
      </trkpt>
      <trkpt lat="47.92128" lon="-2.4716">
        <ele>74.8</ele>
        <time>2024-12-19T10:46:19Z</time>
      </trkpt>
      <trkpt lat="47.92128" lon="-2.47159">
        <ele>74.8</ele>
        <time>2024-12-19T10:46:20Z</time>
      </trkpt>
      <trkpt lat="47.92127" lon="-2.47159">
        <ele>74.9</ele>
        <time>2024-12-19T10:46:21Z</time>
      </trkpt>
      <trkpt lat="47.92126" lon="-2.47158">
        <ele>74.9</ele>
        <time>2024-12-19T10:46:22Z</time>
      </trkpt>
      <trkpt lat="47.92126" lon="-2.47157">
        <ele>75</ele>
        <time>2024-12-19T10:46:23Z</time>
      </trkpt>
      <trkpt lat="47.92125" lon="-2.47155">
        <ele>75</ele>
        <time>2024-12-19T10:46:24Z</time>
      </trkpt>
      <trkpt lat="47.92124" lon="-2.47153">
        <ele>75.1</ele>
        <time>2024-12-19T10:46:25Z</time>
      </trkpt>
      <trkpt lat="47.92123" lon="-2.47151">
        <ele>75.1</ele>
        <time>2024-12-19T10:46:26Z</time>
      </trkpt>
      <trkpt lat="47.92122" lon="-2.4715">
        <ele>75.2</ele>
        <time>2024-12-19T10:46:27Z</time>
      </trkpt>
      <trkpt lat="47.92122" lon="-2.47149">
        <ele>75.2</ele>
        <time>2024-12-19T10:46:28Z</time>
      </trkpt>
      <trkpt lat="47.92121" lon="-2.47149">
        <ele>75.3</ele>
        <time>2024-12-19T10:46:29Z</time>
      </trkpt>
      <trkpt lat="47.92121" lon="-2.47149">
        <ele>75.3</ele>
        <time>2024-12-19T10:46:30Z</time>
      </trkpt>
      <trkpt lat="47.92121" lon="-2.47148">
        <ele>75.3</ele>
        <time>2024-12-19T10:46:31Z</time>
      </trkpt>
      <trkpt lat="47.92121" lon="-2.47147">
        <ele>75.3</ele>
        <time>2024-12-19T10:46:32Z</time>
      </trkpt>
      <trkpt lat="47.92121" lon="-2.47146">
        <ele>75.3</ele>
        <time>2024-12-19T10:46:33Z</time>
      </trkpt>
      <trkpt lat="47.92122" lon="-2.47145">
        <ele>75.3</ele>
        <time>2024-12-19T10:46:34Z</time>
      </trkpt>
      <trkpt lat="47.92122" lon="-2.47144">
        <ele>75.2</ele>
        <time>2024-12-19T10:46:35Z</time>
      </trkpt>
      <trkpt lat="47.92122" lon="-2.47143">
        <ele>75.2</ele>
        <time>2024-12-19T10:46:36Z</time>
      </trkpt>
      <trkpt lat="47.92122" lon="-2.47143">
        <ele>75.2</ele>
        <time>2024-12-19T10:46:37Z</time>
      </trkpt>
      <trkpt lat="47.92122" lon="-2.47143">
        <ele>75.3</ele>
        <time>2024-12-19T10:46:38Z</time>
      </trkpt>
      <trkpt lat="47.92121" lon="-2.47143">
        <ele>75.3</ele>
        <time>2024-12-19T10:46:39Z</time>
      </trkpt>
      <trkpt lat="47.92121" lon="-2.47143">
        <ele>75.3</ele>
        <time>2024-12-19T10:46:40Z</time>
      </trkpt>
      <trkpt lat="47.92121" lon="-2.47143">
        <ele>75.3</ele>
        <time>2024-12-19T10:46:41Z</time>
      </trkpt>
      <trkpt lat="47.92121" lon="-2.47143">
        <ele>75.3</ele>
        <time>2024-12-19T10:46:42Z</time>
      </trkpt>
      <trkpt lat="47.92121" lon="-2.47143">
        <ele>75.3</ele>
        <time>2024-12-19T10:46:43Z</time>
      </trkpt>
      <trkpt lat="47.92121" lon="-2.47142">
        <ele>75.3</ele>
        <time>2024-12-19T10:46:44Z</time>
      </trkpt>
      <trkpt lat="47.92121" lon="-2.47142">
        <ele>75.3</ele>
        <time>2024-12-19T10:46:45Z</time>
      </trkpt>
      <trkpt lat="47.9212" lon="-2.47142">
        <ele>75.3</ele>
        <time>2024-12-19T10:46:46Z</time>
      </trkpt>
      <trkpt lat="47.9212" lon="-2.47142">
        <ele>75.3</ele>
        <time>2024-12-19T10:46:47Z</time>
      </trkpt>
      <trkpt lat="47.9212" lon="-2.47142">
        <ele>75.4</ele>
        <time>2024-12-19T10:46:48Z</time>
      </trkpt>
      <trkpt lat="47.9212" lon="-2.47142">
        <ele>75.4</ele>
        <time>2024-12-19T10:46:49Z</time>
      </trkpt>
      <trkpt lat="47.9212" lon="-2.47141">
        <ele>75.3</ele>
        <time>2024-12-19T10:46:50Z</time>
      </trkpt>
      <trkpt lat="47.92121" lon="-2.47141">
        <ele>75.3</ele>
        <time>2024-12-19T10:46:51Z</time>
      </trkpt>
      <trkpt lat="47.92121" lon="-2.4714">
        <ele>75.3</ele>
        <time>2024-12-19T10:46:52Z</time>
      </trkpt>
      <trkpt lat="47.92122" lon="-2.4714">
        <ele>75.2</ele>
        <time>2024-12-19T10:46:53Z</time>
      </trkpt>
      <trkpt lat="47.92122" lon="-2.47138">
        <ele>75.2</ele>
        <time>2024-12-19T10:46:54Z</time>
      </trkpt>
      <trkpt lat="47.92122" lon="-2.47136">
        <ele>75.3</ele>
        <time>2024-12-19T10:46:55Z</time>
      </trkpt>
      <trkpt lat="47.92122" lon="-2.47134">
        <ele>75.3</ele>
        <time>2024-12-19T10:46:56Z</time>
      </trkpt>
      <trkpt lat="47.92122" lon="-2.47132">
        <ele>75.3</ele>
        <time>2024-12-19T10:46:57Z</time>
      </trkpt>
      <trkpt lat="47.92123" lon="-2.47131">
        <ele>75.3</ele>
        <time>2024-12-19T10:46:58Z</time>
      </trkpt>
      <trkpt lat="47.92123" lon="-2.4713">
        <ele>75.3</ele>
        <time>2024-12-19T10:46:59Z</time>
      </trkpt>
      <trkpt lat="47.92123" lon="-2.47129">
        <ele>75.3</ele>
        <time>2024-12-19T10:47:00Z</time>
      </trkpt>
      <trkpt lat="47.92124" lon="-2.47128">
        <ele>75.3</ele>
        <time>2024-12-19T10:47:01Z</time>
      </trkpt>
      <trkpt lat="47.92124" lon="-2.47127">
        <ele>75.3</ele>
        <time>2024-12-19T10:47:02Z</time>
      </trkpt>
      <trkpt lat="47.92124" lon="-2.47125">
        <ele>75.3</ele>
        <time>2024-12-19T10:47:03Z</time>
      </trkpt>
      <trkpt lat="47.92124" lon="-2.47123">
        <ele>75.3</ele>
        <time>2024-12-19T10:47:04Z</time>
      </trkpt>
      <trkpt lat="47.92124" lon="-2.47122">
        <ele>75.4</ele>
        <time>2024-12-19T10:47:05Z</time>
      </trkpt>
      <trkpt lat="47.92124" lon="-2.47119">
        <ele>75.4</ele>
        <time>2024-12-19T10:47:06Z</time>
      </trkpt>
      <trkpt lat="47.92123" lon="-2.47117">
        <ele>75.5</ele>
        <time>2024-12-19T10:47:07Z</time>
      </trkpt>
      <trkpt lat="47.92123" lon="-2.47116">
        <ele>75.5</ele>
        <time>2024-12-19T10:47:08Z</time>
      </trkpt>
      <trkpt lat="47.92122" lon="-2.47114">
        <ele>75.6</ele>
        <time>2024-12-19T10:47:09Z</time>
      </trkpt>
      <trkpt lat="47.92121" lon="-2.47113">
        <ele>75.6</ele>
        <time>2024-12-19T10:47:10Z</time>
      </trkpt>
      <trkpt lat="47.9212" lon="-2.47111">
        <ele>75.7</ele>
        <time>2024-12-19T10:47:11Z</time>
      </trkpt>
      <trkpt lat="47.92119" lon="-2.4711">
        <ele>75.7</ele>
        <time>2024-12-19T10:47:12Z</time>
      </trkpt>
      <trkpt lat="47.92118" lon="-2.47108">
        <ele>75.7</ele>
        <time>2024-12-19T10:47:13Z</time>
      </trkpt>
      <trkpt lat="47.92117" lon="-2.47106">
        <ele>75.8</ele>
        <time>2024-12-19T10:47:14Z</time>
      </trkpt>
      <trkpt lat="47.92117" lon="-2.47105">
        <ele>75.8</ele>
        <time>2024-12-19T10:47:15Z</time>
      </trkpt>
      <trkpt lat="47.92115" lon="-2.47102">
        <ele>75.8</ele>
        <time>2024-12-19T10:47:16Z</time>
      </trkpt>
      <trkpt lat="47.92113" lon="-2.47098">
        <ele>75.9</ele>
        <time>2024-12-19T10:47:18Z</time>
      </trkpt>
      <trkpt lat="47.92112" lon="-2.47096">
        <ele>76</ele>
        <time>2024-12-19T10:47:19Z</time>
      </trkpt>
      <trkpt lat="47.92111" lon="-2.47094">
        <ele>76</ele>
        <time>2024-12-19T10:47:20Z</time>
      </trkpt>
      <trkpt lat="47.92111" lon="-2.47092">
        <ele>76</ele>
        <time>2024-12-19T10:47:21Z</time>
      </trkpt>
      <trkpt lat="47.9211" lon="-2.47091">
        <ele>76</ele>
        <time>2024-12-19T10:47:22Z</time>
      </trkpt>
      <trkpt lat="47.92109" lon="-2.4709">
        <ele>76</ele>
        <time>2024-12-19T10:47:23Z</time>
      </trkpt>
      <trkpt lat="47.92109" lon="-2.47089">
        <ele>76</ele>
        <time>2024-12-19T10:47:24Z</time>
      </trkpt>
      <trkpt lat="47.92108" lon="-2.47088">
        <ele>76</ele>
        <time>2024-12-19T10:47:25Z</time>
      </trkpt>
      <trkpt lat="47.92107" lon="-2.47087">
        <ele>76</ele>
        <time>2024-12-19T10:47:26Z</time>
      </trkpt>
      <trkpt lat="47.92106" lon="-2.47085">
        <ele>76</ele>
        <time>2024-12-19T10:47:27Z</time>
      </trkpt>
      <trkpt lat="47.92105" lon="-2.47084">
        <ele>76</ele>
        <time>2024-12-19T10:47:28Z</time>
      </trkpt>
      <trkpt lat="47.92104" lon="-2.47083">
        <ele>76</ele>
        <time>2024-12-19T10:47:29Z</time>
      </trkpt>
      <trkpt lat="47.92103" lon="-2.47081">
        <ele>76</ele>
        <time>2024-12-19T10:47:30Z</time>
      </trkpt>
      <trkpt lat="47.92103" lon="-2.4708">
        <ele>76</ele>
        <time>2024-12-19T10:47:31Z</time>
      </trkpt>
      <trkpt lat="47.92102" lon="-2.47078">
        <ele>76</ele>
        <time>2024-12-19T10:47:32Z</time>
      </trkpt>
      <trkpt lat="47.92101" lon="-2.47077">
        <ele>76</ele>
        <time>2024-12-19T10:47:33Z</time>
      </trkpt>
      <trkpt lat="47.92101" lon="-2.47075">
        <ele>76</ele>
        <time>2024-12-19T10:47:34Z</time>
      </trkpt>
      <trkpt lat="47.921" lon="-2.47074">
        <ele>76</ele>
        <time>2024-12-19T10:47:35Z</time>
      </trkpt>
      <trkpt lat="47.92099" lon="-2.47072">
        <ele>76</ele>
        <time>2024-12-19T10:47:36Z</time>
      </trkpt>
      <trkpt lat="47.92098" lon="-2.47071">
        <ele>76</ele>
        <time>2024-12-19T10:47:37Z</time>
      </trkpt>
      <trkpt lat="47.92097" lon="-2.47069">
        <ele>76</ele>
        <time>2024-12-19T10:47:38Z</time>
      </trkpt>
      <trkpt lat="47.92096" lon="-2.47068">
        <ele>76</ele>
        <time>2024-12-19T10:47:39Z</time>
      </trkpt>
      <trkpt lat="47.92095" lon="-2.47066">
        <ele>76</ele>
        <time>2024-12-19T10:47:40Z</time>
      </trkpt>
      <trkpt lat="47.92095" lon="-2.47064">
        <ele>76</ele>
        <time>2024-12-19T10:47:41Z</time>
      </trkpt>
      <trkpt lat="47.92094" lon="-2.47063">
        <ele>76</ele>
        <time>2024-12-19T10:47:42Z</time>
      </trkpt>
      <trkpt lat="47.92094" lon="-2.47061">
        <ele>76</ele>
        <time>2024-12-19T10:47:43Z</time>
      </trkpt>
      <trkpt lat="47.92093" lon="-2.4706">
        <ele>76</ele>
        <time>2024-12-19T10:47:44Z</time>
      </trkpt>
      <trkpt lat="47.92092" lon="-2.47058">
        <ele>76</ele>
        <time>2024-12-19T10:47:45Z</time>
      </trkpt>
      <trkpt lat="47.92092" lon="-2.47057">
        <ele>76</ele>
        <time>2024-12-19T10:47:46Z</time>
      </trkpt>
      <trkpt lat="47.92091" lon="-2.47055">
        <ele>76</ele>
        <time>2024-12-19T10:47:47Z</time>
      </trkpt>
      <trkpt lat="47.9209" lon="-2.47054">
        <ele>76</ele>
        <time>2024-12-19T10:47:48Z</time>
      </trkpt>
      <trkpt lat="47.92089" lon="-2.47052">
        <ele>76</ele>
        <time>2024-12-19T10:47:49Z</time>
      </trkpt>
      <trkpt lat="47.92088" lon="-2.47051">
        <ele>76</ele>
        <time>2024-12-19T10:47:50Z</time>
      </trkpt>
      <trkpt lat="47.92088" lon="-2.47049">
        <ele>76</ele>
        <time>2024-12-19T10:47:51Z</time>
      </trkpt>
      <trkpt lat="47.92087" lon="-2.47048">
        <ele>76</ele>
        <time>2024-12-19T10:47:52Z</time>
      </trkpt>
      <trkpt lat="47.92087" lon="-2.47047">
        <ele>76</ele>
        <time>2024-12-19T10:47:53Z</time>
      </trkpt>
      <trkpt lat="47.92086" lon="-2.47046">
        <ele>76</ele>
        <time>2024-12-19T10:47:54Z</time>
      </trkpt>
      <trkpt lat="47.92085" lon="-2.47044">
        <ele>76</ele>
        <time>2024-12-19T10:47:55Z</time>
      </trkpt>
      <trkpt lat="47.92085" lon="-2.47043">
        <ele>76</ele>
        <time>2024-12-19T10:47:56Z</time>
      </trkpt>
      <trkpt lat="47.92084" lon="-2.47042">
        <ele>76</ele>
        <time>2024-12-19T10:47:57Z</time>
      </trkpt>
      <trkpt lat="47.92083" lon="-2.4704">
        <ele>76</ele>
        <time>2024-12-19T10:47:58Z</time>
      </trkpt>
      <trkpt lat="47.92082" lon="-2.47039">
        <ele>76</ele>
        <time>2024-12-19T10:47:59Z</time>
      </trkpt>
      <trkpt lat="47.92081" lon="-2.47037">
        <ele>76</ele>
        <time>2024-12-19T10:48:00Z</time>
      </trkpt>
      <trkpt lat="47.92081" lon="-2.47036">
        <ele>76</ele>
        <time>2024-12-19T10:48:01Z</time>
      </trkpt>
      <trkpt lat="47.9208" lon="-2.47034">
        <ele>76</ele>
        <time>2024-12-19T10:48:02Z</time>
      </trkpt>
      <trkpt lat="47.92079" lon="-2.47033">
        <ele>76</ele>
        <time>2024-12-19T10:48:03Z</time>
      </trkpt>
      <trkpt lat="47.92078" lon="-2.47031">
        <ele>76</ele>
        <time>2024-12-19T10:48:04Z</time>
      </trkpt>
      <trkpt lat="47.92077" lon="-2.47029">
        <ele>76</ele>
        <time>2024-12-19T10:48:05Z</time>
      </trkpt>
      <trkpt lat="47.92076" lon="-2.47028">
        <ele>76</ele>
        <time>2024-12-19T10:48:06Z</time>
      </trkpt>
      <trkpt lat="47.92076" lon="-2.47026">
        <ele>76</ele>
        <time>2024-12-19T10:48:07Z</time>
      </trkpt>
      <trkpt lat="47.92075" lon="-2.47024">
        <ele>76</ele>
        <time>2024-12-19T10:48:08Z</time>
      </trkpt>
      <trkpt lat="47.92074" lon="-2.47023">
        <ele>76</ele>
        <time>2024-12-19T10:48:09Z</time>
      </trkpt>
      <trkpt lat="47.92074" lon="-2.4702">
        <ele>76</ele>
        <time>2024-12-19T10:48:10Z</time>
      </trkpt>
      <trkpt lat="47.92073" lon="-2.47018">
        <ele>76</ele>
        <time>2024-12-19T10:48:11Z</time>
      </trkpt>
      <trkpt lat="47.92073" lon="-2.47016">
        <ele>76</ele>
        <time>2024-12-19T10:48:12Z</time>
      </trkpt>
      <trkpt lat="47.92072" lon="-2.47014">
        <ele>76</ele>
        <time>2024-12-19T10:48:13Z</time>
      </trkpt>
      <trkpt lat="47.92072" lon="-2.47012">
        <ele>76</ele>
        <time>2024-12-19T10:48:14Z</time>
      </trkpt>
      <trkpt lat="47.92072" lon="-2.4701">
        <ele>76</ele>
        <time>2024-12-19T10:48:15Z</time>
      </trkpt>
      <trkpt lat="47.92071" lon="-2.47007">
        <ele>76</ele>
        <time>2024-12-19T10:48:16Z</time>
      </trkpt>
      <trkpt lat="47.92072" lon="-2.47005">
        <ele>76</ele>
        <time>2024-12-19T10:48:17Z</time>
      </trkpt>
      <trkpt lat="47.92072" lon="-2.47003">
        <ele>76</ele>
        <time>2024-12-19T10:48:18Z</time>
      </trkpt>
      <trkpt lat="47.92073" lon="-2.47001">
        <ele>76</ele>
        <time>2024-12-19T10:48:19Z</time>
      </trkpt>
      <trkpt lat="47.92074" lon="-2.46999">
        <ele>76</ele>
        <time>2024-12-19T10:48:20Z</time>
      </trkpt>
      <trkpt lat="47.92075" lon="-2.46998">
        <ele>76</ele>
        <time>2024-12-19T10:48:21Z</time>
      </trkpt>
      <trkpt lat="47.92075" lon="-2.46997">
        <ele>76</ele>
        <time>2024-12-19T10:48:22Z</time>
      </trkpt>
      <trkpt lat="47.92076" lon="-2.46996">
        <ele>76</ele>
        <time>2024-12-19T10:48:23Z</time>
      </trkpt>
      <trkpt lat="47.92077" lon="-2.46994">
        <ele>76</ele>
        <time>2024-12-19T10:48:24Z</time>
      </trkpt>
      <trkpt lat="47.92078" lon="-2.46992">
        <ele>75.9</ele>
        <time>2024-12-19T10:48:25Z</time>
      </trkpt>
      <trkpt lat="47.92079" lon="-2.4699">
        <ele>75.9</ele>
        <time>2024-12-19T10:48:26Z</time>
      </trkpt>
      <trkpt lat="47.9208" lon="-2.46989">
        <ele>75.9</ele>
        <time>2024-12-19T10:48:27Z</time>
      </trkpt>
      <trkpt lat="47.9208" lon="-2.46987">
        <ele>75.9</ele>
        <time>2024-12-19T10:48:28Z</time>
      </trkpt>
      <trkpt lat="47.92081" lon="-2.46986">
        <ele>76</ele>
        <time>2024-12-19T10:48:29Z</time>
      </trkpt>
      <trkpt lat="47.92082" lon="-2.46984">
        <ele>76</ele>
        <time>2024-12-19T10:48:30Z</time>
      </trkpt>
      <trkpt lat="47.92083" lon="-2.46983">
        <ele>76</ele>
        <time>2024-12-19T10:48:31Z</time>
      </trkpt>
      <trkpt lat="47.92084" lon="-2.46981">
        <ele>76</ele>
        <time>2024-12-19T10:48:32Z</time>
      </trkpt>
      <trkpt lat="47.92085" lon="-2.4698">
        <ele>75.9</ele>
        <time>2024-12-19T10:48:33Z</time>
      </trkpt>
      <trkpt lat="47.92086" lon="-2.46979">
        <ele>75.9</ele>
        <time>2024-12-19T10:48:34Z</time>
      </trkpt>
      <trkpt lat="47.92087" lon="-2.46977">
        <ele>75.9</ele>
        <time>2024-12-19T10:48:35Z</time>
      </trkpt>
      <trkpt lat="47.92087" lon="-2.46976">
        <ele>75.9</ele>
        <time>2024-12-19T10:48:36Z</time>
      </trkpt>
      <trkpt lat="47.92088" lon="-2.46974">
        <ele>75.9</ele>
        <time>2024-12-19T10:48:37Z</time>
      </trkpt>
      <trkpt lat="47.92088" lon="-2.46973">
        <ele>75.8</ele>
        <time>2024-12-19T10:48:38Z</time>
      </trkpt>
      <trkpt lat="47.92089" lon="-2.46971">
        <ele>75.8</ele>
        <time>2024-12-19T10:48:39Z</time>
      </trkpt>
      <trkpt lat="47.92089" lon="-2.4697">
        <ele>75.7</ele>
        <time>2024-12-19T10:48:40Z</time>
      </trkpt>
      <trkpt lat="47.9209" lon="-2.46969">
        <ele>75.7</ele>
        <time>2024-12-19T10:48:41Z</time>
      </trkpt>
      <trkpt lat="47.92091" lon="-2.46967">
        <ele>75.6</ele>
        <time>2024-12-19T10:48:42Z</time>
      </trkpt>
      <trkpt lat="47.92092" lon="-2.46966">
        <ele>75.5</ele>
        <time>2024-12-19T10:48:43Z</time>
      </trkpt>
      <trkpt lat="47.92092" lon="-2.46964">
        <ele>75.5</ele>
        <time>2024-12-19T10:48:44Z</time>
      </trkpt>
      <trkpt lat="47.92093" lon="-2.46962">
        <ele>75.4</ele>
        <time>2024-12-19T10:48:45Z</time>
      </trkpt>
      <trkpt lat="47.92094" lon="-2.46961">
        <ele>75.4</ele>
        <time>2024-12-19T10:48:46Z</time>
      </trkpt>
      <trkpt lat="47.92094" lon="-2.46958">
        <ele>75.3</ele>
        <time>2024-12-19T10:48:47Z</time>
      </trkpt>
      <trkpt lat="47.92094" lon="-2.46956">
        <ele>75.3</ele>
        <time>2024-12-19T10:48:48Z</time>
      </trkpt>
      <trkpt lat="47.92095" lon="-2.46954">
        <ele>75.2</ele>
        <time>2024-12-19T10:48:49Z</time>
      </trkpt>
      <trkpt lat="47.92095" lon="-2.46951">
        <ele>75.1</ele>
        <time>2024-12-19T10:48:50Z</time>
      </trkpt>
      <trkpt lat="47.92096" lon="-2.46949">
        <ele>75.1</ele>
        <time>2024-12-19T10:48:51Z</time>
      </trkpt>
      <trkpt lat="47.92096" lon="-2.46946">
        <ele>75</ele>
        <time>2024-12-19T10:48:52Z</time>
      </trkpt>
      <trkpt lat="47.92097" lon="-2.46944">
        <ele>75</ele>
        <time>2024-12-19T10:48:53Z</time>
      </trkpt>
      <trkpt lat="47.92097" lon="-2.46943">
        <ele>75</ele>
        <time>2024-12-19T10:48:54Z</time>
      </trkpt>
      <trkpt lat="47.92098" lon="-2.46941">
        <ele>75.1</ele>
        <time>2024-12-19T10:48:55Z</time>
      </trkpt>
      <trkpt lat="47.92099" lon="-2.46939">
        <ele>75.1</ele>
        <time>2024-12-19T10:48:56Z</time>
      </trkpt>
      <trkpt lat="47.921" lon="-2.46937">
        <ele>75.2</ele>
        <time>2024-12-19T10:48:57Z</time>
      </trkpt>
      <trkpt lat="47.921" lon="-2.46935">
        <ele>75.2</ele>
        <time>2024-12-19T10:48:58Z</time>
      </trkpt>
      <trkpt lat="47.921" lon="-2.46935">
        <ele>75.2</ele>
        <time>2024-12-19T10:48:59Z</time>
      </trkpt>
      <trkpt lat="47.921" lon="-2.46934">
        <ele>75.2</ele>
        <time>2024-12-19T10:49:00Z</time>
      </trkpt>
      <trkpt lat="47.921" lon="-2.46932">
        <ele>75.3</ele>
        <time>2024-12-19T10:49:01Z</time>
      </trkpt>
      <trkpt lat="47.92101" lon="-2.4693">
        <ele>75.3</ele>
        <time>2024-12-19T10:49:02Z</time>
      </trkpt>
      <trkpt lat="47.92101" lon="-2.46928">
        <ele>75.4</ele>
        <time>2024-12-19T10:49:03Z</time>
      </trkpt>
      <trkpt lat="47.92101" lon="-2.46926">
        <ele>75.4</ele>
        <time>2024-12-19T10:49:04Z</time>
      </trkpt>
      <trkpt lat="47.92101" lon="-2.46924">
        <ele>75.5</ele>
        <time>2024-12-19T10:49:05Z</time>
      </trkpt>
      <trkpt lat="47.92101" lon="-2.46922">
        <ele>75.5</ele>
        <time>2024-12-19T10:49:06Z</time>
      </trkpt>
      <trkpt lat="47.92101" lon="-2.4692">
        <ele>75.6</ele>
        <time>2024-12-19T10:49:07Z</time>
      </trkpt>
      <trkpt lat="47.92102" lon="-2.46918">
        <ele>75.6</ele>
        <time>2024-12-19T10:49:08Z</time>
      </trkpt>
      <trkpt lat="47.92102" lon="-2.46916">
        <ele>75.6</ele>
        <time>2024-12-19T10:49:09Z</time>
      </trkpt>
      <trkpt lat="47.92102" lon="-2.46913">
        <ele>75.6</ele>
        <time>2024-12-19T10:49:10Z</time>
      </trkpt>
      <trkpt lat="47.92102" lon="-2.46911">
        <ele>75.5</ele>
        <time>2024-12-19T10:49:11Z</time>
      </trkpt>
      <trkpt lat="47.92101" lon="-2.46909">
        <ele>75.5</ele>
        <time>2024-12-19T10:49:12Z</time>
      </trkpt>
      <trkpt lat="47.92101" lon="-2.46907">
        <ele>75.4</ele>
        <time>2024-12-19T10:49:13Z</time>
      </trkpt>
      <trkpt lat="47.92101" lon="-2.46905">
        <ele>75.4</ele>
        <time>2024-12-19T10:49:14Z</time>
      </trkpt>
      <trkpt lat="47.92101" lon="-2.46903">
        <ele>75.3</ele>
        <time>2024-12-19T10:49:15Z</time>
      </trkpt>
      <trkpt lat="47.92101" lon="-2.46901">
        <ele>75.3</ele>
        <time>2024-12-19T10:49:16Z</time>
      </trkpt>
      <trkpt lat="47.92101" lon="-2.46899">
        <ele>75.2</ele>
        <time>2024-12-19T10:49:17Z</time>
      </trkpt>
      <trkpt lat="47.921" lon="-2.46897">
        <ele>75.2</ele>
        <time>2024-12-19T10:49:18Z</time>
      </trkpt>
      <trkpt lat="47.921" lon="-2.46895">
        <ele>75.1</ele>
        <time>2024-12-19T10:49:19Z</time>
      </trkpt>
      <trkpt lat="47.921" lon="-2.46893">
        <ele>75.1</ele>
        <time>2024-12-19T10:49:20Z</time>
      </trkpt>
      <trkpt lat="47.921" lon="-2.46891">
        <ele>75</ele>
        <time>2024-12-19T10:49:21Z</time>
      </trkpt>
      <trkpt lat="47.921" lon="-2.46889">
        <ele>75</ele>
        <time>2024-12-19T10:49:22Z</time>
      </trkpt>
      <trkpt lat="47.921" lon="-2.46887">
        <ele>75</ele>
        <time>2024-12-19T10:49:23Z</time>
      </trkpt>
      <trkpt lat="47.921" lon="-2.46885">
        <ele>75.1</ele>
        <time>2024-12-19T10:49:24Z</time>
      </trkpt>
      <trkpt lat="47.921" lon="-2.46884">
        <ele>75.1</ele>
        <time>2024-12-19T10:49:25Z</time>
      </trkpt>
      <trkpt lat="47.921" lon="-2.46882">
        <ele>75.1</ele>
        <time>2024-12-19T10:49:26Z</time>
      </trkpt>
      <trkpt lat="47.921" lon="-2.46881">
        <ele>75.1</ele>
        <time>2024-12-19T10:49:27Z</time>
      </trkpt>
      <trkpt lat="47.921" lon="-2.46879">
        <ele>75.1</ele>
        <time>2024-12-19T10:49:28Z</time>
      </trkpt>
      <trkpt lat="47.921" lon="-2.46877">
        <ele>75.2</ele>
        <time>2024-12-19T10:49:29Z</time>
      </trkpt>
      <trkpt lat="47.92099" lon="-2.46876">
        <ele>75.2</ele>
        <time>2024-12-19T10:49:30Z</time>
      </trkpt>
      <trkpt lat="47.92099" lon="-2.46874">
        <ele>75.2</ele>
        <time>2024-12-19T10:49:31Z</time>
      </trkpt>
      <trkpt lat="47.92099" lon="-2.46872">
        <ele>75.3</ele>
        <time>2024-12-19T10:49:32Z</time>
      </trkpt>
      <trkpt lat="47.92099" lon="-2.46871">
        <ele>75.3</ele>
        <time>2024-12-19T10:49:33Z</time>
      </trkpt>
      <trkpt lat="47.92099" lon="-2.4687">
        <ele>75.3</ele>
        <time>2024-12-19T10:49:34Z</time>
      </trkpt>
      <trkpt lat="47.92099" lon="-2.46868">
        <ele>75.3</ele>
        <time>2024-12-19T10:49:35Z</time>
      </trkpt>
      <trkpt lat="47.92099" lon="-2.46866">
        <ele>75.4</ele>
        <time>2024-12-19T10:49:36Z</time>
      </trkpt>
      <trkpt lat="47.92098" lon="-2.46865">
        <ele>75.4</ele>
        <time>2024-12-19T10:49:37Z</time>
      </trkpt>
      <trkpt lat="47.92098" lon="-2.46863">
        <ele>75.4</ele>
        <time>2024-12-19T10:49:38Z</time>
      </trkpt>
      <trkpt lat="47.92098" lon="-2.46861">
        <ele>75.5</ele>
        <time>2024-12-19T10:49:39Z</time>
      </trkpt>
      <trkpt lat="47.92097" lon="-2.46858">
        <ele>75.5</ele>
        <time>2024-12-19T10:49:40Z</time>
      </trkpt>
      <trkpt lat="47.92097" lon="-2.46856">
        <ele>75.5</ele>
        <time>2024-12-19T10:49:41Z</time>
      </trkpt>
      <trkpt lat="47.92097" lon="-2.46853">
        <ele>75.5</ele>
        <time>2024-12-19T10:49:42Z</time>
      </trkpt>
      <trkpt lat="47.92097" lon="-2.46851">
        <ele>75.5</ele>
        <time>2024-12-19T10:49:43Z</time>
      </trkpt>
      <trkpt lat="47.92097" lon="-2.46849">
        <ele>75.5</ele>
        <time>2024-12-19T10:49:44Z</time>
      </trkpt>
      <trkpt lat="47.92096" lon="-2.46847">
        <ele>75.5</ele>
        <time>2024-12-19T10:49:45Z</time>
      </trkpt>
      <trkpt lat="47.92096" lon="-2.46845">
        <ele>75.5</ele>
        <time>2024-12-19T10:49:46Z</time>
      </trkpt>
      <trkpt lat="47.92096" lon="-2.46843">
        <ele>75.6</ele>
        <time>2024-12-19T10:49:47Z</time>
      </trkpt>
      <trkpt lat="47.92096" lon="-2.46841">
        <ele>75.6</ele>
        <time>2024-12-19T10:49:48Z</time>
      </trkpt>
      <trkpt lat="47.92095" lon="-2.46839">
        <ele>75.6</ele>
        <time>2024-12-19T10:49:49Z</time>
      </trkpt>
      <trkpt lat="47.92095" lon="-2.46838">
        <ele>75.6</ele>
        <time>2024-12-19T10:49:50Z</time>
      </trkpt>
      <trkpt lat="47.92095" lon="-2.46836">
        <ele>75.6</ele>
        <time>2024-12-19T10:49:51Z</time>
      </trkpt>
      <trkpt lat="47.92095" lon="-2.46833">
        <ele>75.6</ele>
        <time>2024-12-19T10:49:52Z</time>
      </trkpt>
      <trkpt lat="47.92095" lon="-2.46831">
        <ele>75.5</ele>
        <time>2024-12-19T10:49:53Z</time>
      </trkpt>
      <trkpt lat="47.92095" lon="-2.46829">
        <ele>75.5</ele>
        <time>2024-12-19T10:49:54Z</time>
      </trkpt>
      <trkpt lat="47.92094" lon="-2.46828">
        <ele>75.4</ele>
        <time>2024-12-19T10:49:55Z</time>
      </trkpt>
      <trkpt lat="47.92094" lon="-2.46827">
        <ele>75.4</ele>
        <time>2024-12-19T10:49:56Z</time>
      </trkpt>
      <trkpt lat="47.92094" lon="-2.46826">
        <ele>75.4</ele>
        <time>2024-12-19T10:49:57Z</time>
      </trkpt>
      <trkpt lat="47.92094" lon="-2.46824">
        <ele>75.3</ele>
        <time>2024-12-19T10:49:58Z</time>
      </trkpt>
      <trkpt lat="47.92094" lon="-2.46822">
        <ele>75.2</ele>
        <time>2024-12-19T10:49:59Z</time>
      </trkpt>
      <trkpt lat="47.92094" lon="-2.4682">
        <ele>75.2</ele>
        <time>2024-12-19T10:50:00Z</time>
      </trkpt>
      <trkpt lat="47.92094" lon="-2.46819">
        <ele>75.1</ele>
        <time>2024-12-19T10:50:01Z</time>
      </trkpt>
      <trkpt lat="47.92093" lon="-2.46817">
        <ele>75.1</ele>
        <time>2024-12-19T10:50:02Z</time>
      </trkpt>
      <trkpt lat="47.92093" lon="-2.46816">
        <ele>75</ele>
        <time>2024-12-19T10:50:03Z</time>
      </trkpt>
      <trkpt lat="47.92092" lon="-2.46813">
        <ele>75</ele>
        <time>2024-12-19T10:50:04Z</time>
      </trkpt>
      <trkpt lat="47.92092" lon="-2.46811">
        <ele>74.9</ele>
        <time>2024-12-19T10:50:05Z</time>
      </trkpt>
      <trkpt lat="47.92092" lon="-2.46809">
        <ele>74.8</ele>
        <time>2024-12-19T10:50:06Z</time>
      </trkpt>
      <trkpt lat="47.92092" lon="-2.46808">
        <ele>74.8</ele>
        <time>2024-12-19T10:50:07Z</time>
      </trkpt>
      <trkpt lat="47.92092" lon="-2.46806">
        <ele>74.7</ele>
        <time>2024-12-19T10:50:08Z</time>
      </trkpt>
      <trkpt lat="47.92092" lon="-2.46804">
        <ele>74.6</ele>
        <time>2024-12-19T10:50:09Z</time>
      </trkpt>
      <trkpt lat="47.92092" lon="-2.46802">
        <ele>74.5</ele>
        <time>2024-12-19T10:50:10Z</time>
      </trkpt>
      <trkpt lat="47.92092" lon="-2.468">
        <ele>74.4</ele>
        <time>2024-12-19T10:50:11Z</time>
      </trkpt>
      <trkpt lat="47.92092" lon="-2.46799">
        <ele>74.4</ele>
        <time>2024-12-19T10:50:12Z</time>
      </trkpt>
      <trkpt lat="47.92092" lon="-2.46797">
        <ele>74.3</ele>
        <time>2024-12-19T10:50:13Z</time>
      </trkpt>
      <trkpt lat="47.92092" lon="-2.46794">
        <ele>74.1</ele>
        <time>2024-12-19T10:50:15Z</time>
      </trkpt>
      <trkpt lat="47.92092" lon="-2.46792">
        <ele>74</ele>
        <time>2024-12-19T10:50:16Z</time>
      </trkpt>
      <trkpt lat="47.92092" lon="-2.4679">
        <ele>74</ele>
        <time>2024-12-19T10:50:17Z</time>
      </trkpt>
      <trkpt lat="47.92091" lon="-2.46787">
        <ele>73.9</ele>
        <time>2024-12-19T10:50:18Z</time>
      </trkpt>
      <trkpt lat="47.92091" lon="-2.46786">
        <ele>73.8</ele>
        <time>2024-12-19T10:50:19Z</time>
      </trkpt>
      <trkpt lat="47.92091" lon="-2.46784">
        <ele>73.7</ele>
        <time>2024-12-19T10:50:20Z</time>
      </trkpt>
      <trkpt lat="47.92091" lon="-2.46782">
        <ele>73.6</ele>
        <time>2024-12-19T10:50:21Z</time>
      </trkpt>
      <trkpt lat="47.92091" lon="-2.4678">
        <ele>73.5</ele>
        <time>2024-12-19T10:50:22Z</time>
      </trkpt>
      <trkpt lat="47.92091" lon="-2.46778">
        <ele>73.4</ele>
        <time>2024-12-19T10:50:23Z</time>
      </trkpt>
      <trkpt lat="47.92091" lon="-2.46776">
        <ele>73.4</ele>
        <time>2024-12-19T10:50:24Z</time>
      </trkpt>
      <trkpt lat="47.92091" lon="-2.46774">
        <ele>73.3</ele>
        <time>2024-12-19T10:50:25Z</time>
      </trkpt>
      <trkpt lat="47.92091" lon="-2.46772">
        <ele>73.2</ele>
        <time>2024-12-19T10:50:26Z</time>
      </trkpt>
      <trkpt lat="47.92091" lon="-2.4677">
        <ele>73.2</ele>
        <time>2024-12-19T10:50:27Z</time>
      </trkpt>
      <trkpt lat="47.92091" lon="-2.46769">
        <ele>73.1</ele>
        <time>2024-12-19T10:50:28Z</time>
      </trkpt>
      <trkpt lat="47.9209" lon="-2.46767">
        <ele>73.1</ele>
        <time>2024-12-19T10:50:29Z</time>
      </trkpt>
      <trkpt lat="47.9209" lon="-2.46766">
        <ele>73.1</ele>
        <time>2024-12-19T10:50:30Z</time>
      </trkpt>
      <trkpt lat="47.9209" lon="-2.46763">
        <ele>73</ele>
        <time>2024-12-19T10:50:31Z</time>
      </trkpt>
      <trkpt lat="47.9209" lon="-2.46761">
        <ele>73</ele>
        <time>2024-12-19T10:50:32Z</time>
      </trkpt>
      <trkpt lat="47.9209" lon="-2.46759">
        <ele>72.9</ele>
        <time>2024-12-19T10:50:33Z</time>
      </trkpt>
      <trkpt lat="47.9209" lon="-2.46757">
        <ele>72.8</ele>
        <time>2024-12-19T10:50:34Z</time>
      </trkpt>
      <trkpt lat="47.92089" lon="-2.46755">
        <ele>72.8</ele>
        <time>2024-12-19T10:50:35Z</time>
      </trkpt>
      <trkpt lat="47.92089" lon="-2.46753">
        <ele>72.7</ele>
        <time>2024-12-19T10:50:36Z</time>
      </trkpt>
      <trkpt lat="47.92089" lon="-2.46751">
        <ele>72.6</ele>
        <time>2024-12-19T10:50:37Z</time>
      </trkpt>
      <trkpt lat="47.92089" lon="-2.46749">
        <ele>72.5</ele>
        <time>2024-12-19T10:50:38Z</time>
      </trkpt>
      <trkpt lat="47.9209" lon="-2.46747">
        <ele>72.4</ele>
        <time>2024-12-19T10:50:39Z</time>
      </trkpt>
      <trkpt lat="47.9209" lon="-2.46745">
        <ele>72.4</ele>
        <time>2024-12-19T10:50:40Z</time>
      </trkpt>
      <trkpt lat="47.9209" lon="-2.46744">
        <ele>72.3</ele>
        <time>2024-12-19T10:50:41Z</time>
      </trkpt>
      <trkpt lat="47.92089" lon="-2.46742">
        <ele>72.3</ele>
        <time>2024-12-19T10:50:42Z</time>
      </trkpt>
      <trkpt lat="47.92089" lon="-2.4674">
        <ele>72.2</ele>
        <time>2024-12-19T10:50:43Z</time>
      </trkpt>
      <trkpt lat="47.92089" lon="-2.46738">
        <ele>72.2</ele>
        <time>2024-12-19T10:50:44Z</time>
      </trkpt>
      <trkpt lat="47.92089" lon="-2.46736">
        <ele>72.1</ele>
        <time>2024-12-19T10:50:45Z</time>
      </trkpt>
      <trkpt lat="47.92089" lon="-2.46734">
        <ele>72</ele>
        <time>2024-12-19T10:50:46Z</time>
      </trkpt>
      <trkpt lat="47.92089" lon="-2.46733">
        <ele>72</ele>
        <time>2024-12-19T10:50:47Z</time>
      </trkpt>
      <trkpt lat="47.92089" lon="-2.46732">
        <ele>71.9</ele>
        <time>2024-12-19T10:50:48Z</time>
      </trkpt>
      <trkpt lat="47.92089" lon="-2.4673">
        <ele>71.9</ele>
        <time>2024-12-19T10:50:49Z</time>
      </trkpt>
      <trkpt lat="47.92089" lon="-2.46728">
        <ele>71.8</ele>
        <time>2024-12-19T10:50:50Z</time>
      </trkpt>
      <trkpt lat="47.92089" lon="-2.46727">
        <ele>71.8</ele>
        <time>2024-12-19T10:50:51Z</time>
      </trkpt>
      <trkpt lat="47.92089" lon="-2.46726">
        <ele>71.7</ele>
        <time>2024-12-19T10:50:52Z</time>
      </trkpt>
      <trkpt lat="47.92089" lon="-2.46724">
        <ele>71.7</ele>
        <time>2024-12-19T10:50:53Z</time>
      </trkpt>
      <trkpt lat="47.92089" lon="-2.46723">
        <ele>71.6</ele>
        <time>2024-12-19T10:50:54Z</time>
      </trkpt>
      <trkpt lat="47.92089" lon="-2.46721">
        <ele>71.6</ele>
        <time>2024-12-19T10:50:55Z</time>
      </trkpt>
      <trkpt lat="47.92088" lon="-2.46719">
        <ele>71.6</ele>
        <time>2024-12-19T10:50:56Z</time>
      </trkpt>
      <trkpt lat="47.92088" lon="-2.46717">
        <ele>71.6</ele>
        <time>2024-12-19T10:50:57Z</time>
      </trkpt>
      <trkpt lat="47.92088" lon="-2.46716">
        <ele>71.6</ele>
        <time>2024-12-19T10:50:58Z</time>
      </trkpt>
      <trkpt lat="47.92088" lon="-2.46714">
        <ele>71.6</ele>
        <time>2024-12-19T10:50:59Z</time>
      </trkpt>
      <trkpt lat="47.92087" lon="-2.46712">
        <ele>71.7</ele>
        <time>2024-12-19T10:51:00Z</time>
      </trkpt>
      <trkpt lat="47.92087" lon="-2.4671">
        <ele>71.7</ele>
        <time>2024-12-19T10:51:01Z</time>
      </trkpt>
      <trkpt lat="47.92087" lon="-2.46708">
        <ele>71.7</ele>
        <time>2024-12-19T10:51:02Z</time>
      </trkpt>
      <trkpt lat="47.92087" lon="-2.46707">
        <ele>71.7</ele>
        <time>2024-12-19T10:51:03Z</time>
      </trkpt>
      <trkpt lat="47.92087" lon="-2.46706">
        <ele>71.7</ele>
        <time>2024-12-19T10:51:04Z</time>
      </trkpt>
      <trkpt lat="47.92086" lon="-2.46704">
        <ele>71.7</ele>
        <time>2024-12-19T10:51:05Z</time>
      </trkpt>
      <trkpt lat="47.92085" lon="-2.46703">
        <ele>71.8</ele>
        <time>2024-12-19T10:51:06Z</time>
      </trkpt>
      <trkpt lat="47.92084" lon="-2.46702">
        <ele>71.9</ele>
        <time>2024-12-19T10:51:07Z</time>
      </trkpt>
      <trkpt lat="47.92083" lon="-2.46701">
        <ele>72</ele>
        <time>2024-12-19T10:51:08Z</time>
      </trkpt>
      <trkpt lat="47.92082" lon="-2.467">
        <ele>72</ele>
        <time>2024-12-19T10:51:09Z</time>
      </trkpt>
      <trkpt lat="47.92081" lon="-2.467">
        <ele>72</ele>
        <time>2024-12-19T10:51:10Z</time>
      </trkpt>
      <trkpt lat="47.9208" lon="-2.467">
        <ele>72</ele>
        <time>2024-12-19T10:51:11Z</time>
      </trkpt>
      <trkpt lat="47.92079" lon="-2.467">
        <ele>72</ele>
        <time>2024-12-19T10:51:12Z</time>
      </trkpt>
      <trkpt lat="47.92079" lon="-2.467">
        <ele>72</ele>
        <time>2024-12-19T10:51:13Z</time>
      </trkpt>
      <trkpt lat="47.92078" lon="-2.46701">
        <ele>72</ele>
        <time>2024-12-19T10:51:14Z</time>
      </trkpt>
      <trkpt lat="47.92078" lon="-2.46701">
        <ele>72</ele>
        <time>2024-12-19T10:51:15Z</time>
      </trkpt>
      <trkpt lat="47.92077" lon="-2.46702">
        <ele>71.9</ele>
        <time>2024-12-19T10:51:16Z</time>
      </trkpt>
      <trkpt lat="47.92077" lon="-2.46702">
        <ele>71.9</ele>
        <time>2024-12-19T10:51:17Z</time>
      </trkpt>
      <trkpt lat="47.92077" lon="-2.46702">
        <ele>71.9</ele>
        <time>2024-12-19T10:51:18Z</time>
      </trkpt>
      <trkpt lat="47.92077" lon="-2.46702">
        <ele>71.9</ele>
        <time>2024-12-19T10:51:19Z</time>
      </trkpt>
      <trkpt lat="47.92077" lon="-2.46702">
        <ele>71.9</ele>
        <time>2024-12-19T10:51:20Z</time>
      </trkpt>
      <trkpt lat="47.92077" lon="-2.46702">
        <ele>71.9</ele>
        <time>2024-12-19T10:51:21Z</time>
      </trkpt>
      <trkpt lat="47.92077" lon="-2.46701">
        <ele>71.9</ele>
        <time>2024-12-19T10:51:22Z</time>
      </trkpt>
      <trkpt lat="47.92077" lon="-2.46701">
        <ele>72</ele>
        <time>2024-12-19T10:51:23Z</time>
      </trkpt>
      <trkpt lat="47.92077" lon="-2.46701">
        <ele>72</ele>
        <time>2024-12-19T10:51:24Z</time>
      </trkpt>
      <trkpt lat="47.92078" lon="-2.467">
        <ele>72</ele>
        <time>2024-12-19T10:51:25Z</time>
      </trkpt>
      <trkpt lat="47.92078" lon="-2.46699">
        <ele>72</ele>
        <time>2024-12-19T10:51:26Z</time>
      </trkpt>
      <trkpt lat="47.92079" lon="-2.46699">
        <ele>72</ele>
        <time>2024-12-19T10:51:27Z</time>
      </trkpt>
      <trkpt lat="47.92079" lon="-2.46699">
        <ele>72</ele>
        <time>2024-12-19T10:51:28Z</time>
      </trkpt>
      <trkpt lat="47.9208" lon="-2.46698">
        <ele>72</ele>
        <time>2024-12-19T10:51:29Z</time>
      </trkpt>
      <trkpt lat="47.9208" lon="-2.46698">
        <ele>72</ele>
        <time>2024-12-19T10:51:30Z</time>
      </trkpt>
      <trkpt lat="47.9208" lon="-2.46698">
        <ele>72</ele>
        <time>2024-12-19T10:51:31Z</time>
      </trkpt>
      <trkpt lat="47.92081" lon="-2.46698">
        <ele>72</ele>
        <time>2024-12-19T10:51:32Z</time>
      </trkpt>
      <trkpt lat="47.92081" lon="-2.46697">
        <ele>72</ele>
        <time>2024-12-19T10:51:33Z</time>
      </trkpt>
      <trkpt lat="47.92081" lon="-2.46697">
        <ele>72</ele>
        <time>2024-12-19T10:51:34Z</time>
      </trkpt>
      <trkpt lat="47.92081" lon="-2.46697">
        <ele>72</ele>
        <time>2024-12-19T10:51:35Z</time>
      </trkpt>
      <trkpt lat="47.92081" lon="-2.46697">
        <ele>72</ele>
        <time>2024-12-19T10:51:36Z</time>
      </trkpt>
      <trkpt lat="47.92081" lon="-2.46698">
        <ele>72</ele>
        <time>2024-12-19T10:51:40Z</time>
      </trkpt>
      <trkpt lat="47.92081" lon="-2.46698">
        <ele>72</ele>
        <time>2024-12-19T10:51:41Z</time>
      </trkpt>
      <trkpt lat="47.92081" lon="-2.46698">
        <ele>72</ele>
        <time>2024-12-19T10:51:42Z</time>
      </trkpt>
      <trkpt lat="47.92081" lon="-2.46698">
        <ele>72</ele>
        <time>2024-12-19T10:51:43Z</time>
      </trkpt>
      <trkpt lat="47.92081" lon="-2.46698">
        <ele>72</ele>
        <time>2024-12-19T10:51:44Z</time>
      </trkpt>
      <trkpt lat="47.92081" lon="-2.46698">
        <ele>72</ele>
        <time>2024-12-19T10:51:45Z</time>
      </trkpt>
      <trkpt lat="47.92081" lon="-2.46698">
        <ele>72</ele>
        <time>2024-12-19T10:51:46Z</time>
      </trkpt>
      <trkpt lat="47.92081" lon="-2.46698">
        <ele>72</ele>
        <time>2024-12-19T10:51:47Z</time>
      </trkpt>
      <trkpt lat="47.92081" lon="-2.46698">
        <ele>72</ele>
        <time>2024-12-19T10:51:48Z</time>
      </trkpt>
      <trkpt lat="47.92081" lon="-2.46698">
        <ele>72</ele>
        <time>2024-12-19T10:51:49Z</time>
      </trkpt>
      <trkpt lat="47.92081" lon="-2.46698">
        <ele>72</ele>
        <time>2024-12-19T10:51:50Z</time>
      </trkpt>
      <trkpt lat="47.92081" lon="-2.46698">
        <ele>72</ele>
        <time>2024-12-19T10:51:51Z</time>
      </trkpt>
      <trkpt lat="47.92081" lon="-2.46698">
        <ele>72</ele>
        <time>2024-12-19T10:51:52Z</time>
      </trkpt>
      <trkpt lat="47.92081" lon="-2.46698">
        <ele>72</ele>
        <time>2024-12-19T10:51:53Z</time>
      </trkpt>
      <trkpt lat="47.92081" lon="-2.46698">
        <ele>72</ele>
        <time>2024-12-19T10:51:54Z</time>
      </trkpt>
      <trkpt lat="47.92081" lon="-2.46698">
        <ele>72</ele>
        <time>2024-12-19T10:51:55Z</time>
      </trkpt>
      <trkpt lat="47.92081" lon="-2.46698">
        <ele>72</ele>
        <time>2024-12-19T10:51:56Z</time>
      </trkpt>
      <trkpt lat="47.92081" lon="-2.46698">
        <ele>72</ele>
        <time>2024-12-19T10:51:57Z</time>
      </trkpt>
      <trkpt lat="47.92081" lon="-2.46698">
        <ele>72</ele>
        <time>2024-12-19T10:51:58Z</time>
      </trkpt>
      <trkpt lat="47.92081" lon="-2.46698">
        <ele>72</ele>
        <time>2024-12-19T10:51:59Z</time>
      </trkpt>
      <trkpt lat="47.92081" lon="-2.46698">
        <ele>72</ele>
        <time>2024-12-19T10:52:00Z</time>
      </trkpt>
      <trkpt lat="47.92081" lon="-2.46698">
        <ele>72</ele>
        <time>2024-12-19T10:52:01Z</time>
      </trkpt>
      <trkpt lat="47.92081" lon="-2.46697">
        <ele>72</ele>
        <time>2024-12-19T10:52:02Z</time>
      </trkpt>
      <trkpt lat="47.92081" lon="-2.46695">
        <ele>72</ele>
        <time>2024-12-19T10:52:03Z</time>
      </trkpt>
      <trkpt lat="47.92081" lon="-2.46694">
        <ele>71.9</ele>
        <time>2024-12-19T10:52:04Z</time>
      </trkpt>
      <trkpt lat="47.92081" lon="-2.46692">
        <ele>71.8</ele>
        <time>2024-12-19T10:52:05Z</time>
      </trkpt>
      <trkpt lat="47.92081" lon="-2.46691">
        <ele>71.7</ele>
        <time>2024-12-19T10:52:06Z</time>
      </trkpt>
      <trkpt lat="47.92081" lon="-2.46689">
        <ele>71.6</ele>
        <time>2024-12-19T10:52:07Z</time>
      </trkpt>
      <trkpt lat="47.9208" lon="-2.46688">
        <ele>71.5</ele>
        <time>2024-12-19T10:52:08Z</time>
      </trkpt>
      <trkpt lat="47.9208" lon="-2.46687">
        <ele>71.5</ele>
        <time>2024-12-19T10:52:09Z</time>
      </trkpt>
      <trkpt lat="47.9208" lon="-2.46685">
        <ele>71.4</ele>
        <time>2024-12-19T10:52:10Z</time>
      </trkpt>
      <trkpt lat="47.92079" lon="-2.46684">
        <ele>71.3</ele>
        <time>2024-12-19T10:52:11Z</time>
      </trkpt>
      <trkpt lat="47.92079" lon="-2.46683">
        <ele>71.2</ele>
        <time>2024-12-19T10:52:12Z</time>
      </trkpt>
      <trkpt lat="47.92078" lon="-2.46682">
        <ele>71.2</ele>
        <time>2024-12-19T10:52:13Z</time>
      </trkpt>
      <trkpt lat="47.92078" lon="-2.4668">
        <ele>71</ele>
        <time>2024-12-19T10:52:14Z</time>
      </trkpt>
      <trkpt lat="47.92077" lon="-2.46678">
        <ele>71</ele>
        <time>2024-12-19T10:52:15Z</time>
      </trkpt>
      <trkpt lat="47.92077" lon="-2.46676">
        <ele>70.8</ele>
        <time>2024-12-19T10:52:16Z</time>
      </trkpt>
      <trkpt lat="47.92077" lon="-2.46675">
        <ele>70.7</ele>
        <time>2024-12-19T10:52:17Z</time>
      </trkpt>
      <trkpt lat="47.92077" lon="-2.46673">
        <ele>70.6</ele>
        <time>2024-12-19T10:52:18Z</time>
      </trkpt>
      <trkpt lat="47.92077" lon="-2.46671">
        <ele>70.5</ele>
        <time>2024-12-19T10:52:19Z</time>
      </trkpt>
      <trkpt lat="47.92077" lon="-2.4667">
        <ele>70.4</ele>
        <time>2024-12-19T10:52:20Z</time>
      </trkpt>
      <trkpt lat="47.92077" lon="-2.46668">
        <ele>70.3</ele>
        <time>2024-12-19T10:52:21Z</time>
      </trkpt>
      <trkpt lat="47.92077" lon="-2.46666">
        <ele>70.2</ele>
        <time>2024-12-19T10:52:22Z</time>
      </trkpt>
      <trkpt lat="47.92076" lon="-2.46664">
        <ele>70</ele>
        <time>2024-12-19T10:52:23Z</time>
      </trkpt>
      <trkpt lat="47.92076" lon="-2.46662">
        <ele>69.9</ele>
        <time>2024-12-19T10:52:24Z</time>
      </trkpt>
      <trkpt lat="47.92076" lon="-2.4666">
        <ele>69.7</ele>
        <time>2024-12-19T10:52:25Z</time>
      </trkpt>
      <trkpt lat="47.92075" lon="-2.46658">
        <ele>69.6</ele>
        <time>2024-12-19T10:52:26Z</time>
      </trkpt>
      <trkpt lat="47.92075" lon="-2.46656">
        <ele>69.4</ele>
        <time>2024-12-19T10:52:27Z</time>
      </trkpt>
      <trkpt lat="47.92074" lon="-2.46655">
        <ele>69.3</ele>
        <time>2024-12-19T10:52:28Z</time>
      </trkpt>
      <trkpt lat="47.92074" lon="-2.46653">
        <ele>69.2</ele>
        <time>2024-12-19T10:52:29Z</time>
      </trkpt>
      <trkpt lat="47.92074" lon="-2.46652">
        <ele>69.1</ele>
        <time>2024-12-19T10:52:30Z</time>
      </trkpt>
      <trkpt lat="47.92074" lon="-2.4665">
        <ele>69</ele>
        <time>2024-12-19T10:52:31Z</time>
      </trkpt>
      <trkpt lat="47.92073" lon="-2.46649">
        <ele>68.8</ele>
        <time>2024-12-19T10:52:32Z</time>
      </trkpt>
      <trkpt lat="47.92073" lon="-2.46647">
        <ele>68.7</ele>
        <time>2024-12-19T10:52:33Z</time>
      </trkpt>
      <trkpt lat="47.92073" lon="-2.46646">
        <ele>68.6</ele>
        <time>2024-12-19T10:52:34Z</time>
      </trkpt>
      <trkpt lat="47.92072" lon="-2.46644">
        <ele>68.5</ele>
        <time>2024-12-19T10:52:35Z</time>
      </trkpt>
      <trkpt lat="47.92072" lon="-2.46643">
        <ele>68.4</ele>
        <time>2024-12-19T10:52:36Z</time>
      </trkpt>
      <trkpt lat="47.92072" lon="-2.46642">
        <ele>68.2</ele>
        <time>2024-12-19T10:52:37Z</time>
      </trkpt>
      <trkpt lat="47.92071" lon="-2.4664">
        <ele>68.1</ele>
        <time>2024-12-19T10:52:38Z</time>
      </trkpt>
      <trkpt lat="47.92071" lon="-2.46638">
        <ele>67.9</ele>
        <time>2024-12-19T10:52:39Z</time>
      </trkpt>
      <trkpt lat="47.9207" lon="-2.46635">
        <ele>67.6</ele>
        <time>2024-12-19T10:52:40Z</time>
      </trkpt>
      <trkpt lat="47.9207" lon="-2.46633">
        <ele>67.4</ele>
        <time>2024-12-19T10:52:41Z</time>
      </trkpt>
      <trkpt lat="47.9207" lon="-2.46631">
        <ele>67.1</ele>
        <time>2024-12-19T10:52:42Z</time>
      </trkpt>
      <trkpt lat="47.92069" lon="-2.4663">
        <ele>67</ele>
        <time>2024-12-19T10:52:43Z</time>
      </trkpt>
      <trkpt lat="47.92069" lon="-2.46628">
        <ele>66.8</ele>
        <time>2024-12-19T10:52:44Z</time>
      </trkpt>
      <trkpt lat="47.92069" lon="-2.46627">
        <ele>66.7</ele>
        <time>2024-12-19T10:52:45Z</time>
      </trkpt>
      <trkpt lat="47.92068" lon="-2.46626">
        <ele>66.6</ele>
        <time>2024-12-19T10:52:46Z</time>
      </trkpt>
      <trkpt lat="47.92068" lon="-2.46624">
        <ele>66.4</ele>
        <time>2024-12-19T10:52:47Z</time>
      </trkpt>
      <trkpt lat="47.92068" lon="-2.46622">
        <ele>66.2</ele>
        <time>2024-12-19T10:52:48Z</time>
      </trkpt>
      <trkpt lat="47.92068" lon="-2.4662">
        <ele>65.9</ele>
        <time>2024-12-19T10:52:49Z</time>
      </trkpt>
      <trkpt lat="47.92067" lon="-2.46618">
        <ele>65.7</ele>
        <time>2024-12-19T10:52:50Z</time>
      </trkpt>
      <trkpt lat="47.92067" lon="-2.46616">
        <ele>65.5</ele>
        <time>2024-12-19T10:52:51Z</time>
      </trkpt>
      <trkpt lat="47.92066" lon="-2.46614">
        <ele>65.3</ele>
        <time>2024-12-19T10:52:52Z</time>
      </trkpt>
      <trkpt lat="47.92065" lon="-2.46613">
        <ele>65.2</ele>
        <time>2024-12-19T10:52:53Z</time>
      </trkpt>
      <trkpt lat="47.92065" lon="-2.46611">
        <ele>65</ele>
        <time>2024-12-19T10:52:54Z</time>
      </trkpt>
      <trkpt lat="47.92065" lon="-2.4661">
        <ele>64.9</ele>
        <time>2024-12-19T10:52:55Z</time>
      </trkpt>
      <trkpt lat="47.92064" lon="-2.46608">
        <ele>64.8</ele>
        <time>2024-12-19T10:52:56Z</time>
      </trkpt>
      <trkpt lat="47.92064" lon="-2.46606">
        <ele>64.6</ele>
        <time>2024-12-19T10:52:57Z</time>
      </trkpt>
      <trkpt lat="47.92064" lon="-2.46605">
        <ele>64.5</ele>
        <time>2024-12-19T10:52:58Z</time>
      </trkpt>
      <trkpt lat="47.92064" lon="-2.46603">
        <ele>64.3</ele>
        <time>2024-12-19T10:52:59Z</time>
      </trkpt>
      <trkpt lat="47.92064" lon="-2.46601">
        <ele>64.2</ele>
        <time>2024-12-19T10:53:00Z</time>
      </trkpt>
      <trkpt lat="47.92064" lon="-2.466">
        <ele>64.1</ele>
        <time>2024-12-19T10:53:01Z</time>
      </trkpt>
      <trkpt lat="47.92064" lon="-2.46599">
        <ele>63.9</ele>
        <time>2024-12-19T10:53:02Z</time>
      </trkpt>
      <trkpt lat="47.92064" lon="-2.46597">
        <ele>63.8</ele>
        <time>2024-12-19T10:53:03Z</time>
      </trkpt>
      <trkpt lat="47.92064" lon="-2.46595">
        <ele>63.6</ele>
        <time>2024-12-19T10:53:04Z</time>
      </trkpt>
      <trkpt lat="47.92064" lon="-2.46593">
        <ele>63.5</ele>
        <time>2024-12-19T10:53:05Z</time>
      </trkpt>
      <trkpt lat="47.92063" lon="-2.46591">
        <ele>63.3</ele>
        <time>2024-12-19T10:53:06Z</time>
      </trkpt>
      <trkpt lat="47.92063" lon="-2.46589">
        <ele>63.2</ele>
        <time>2024-12-19T10:53:07Z</time>
      </trkpt>
      <trkpt lat="47.92062" lon="-2.46587">
        <ele>63.1</ele>
        <time>2024-12-19T10:53:08Z</time>
      </trkpt>
      <trkpt lat="47.92062" lon="-2.46586">
        <ele>63</ele>
        <time>2024-12-19T10:53:09Z</time>
      </trkpt>
      <trkpt lat="47.92061" lon="-2.46584">
        <ele>62.9</ele>
        <time>2024-12-19T10:53:10Z</time>
      </trkpt>
      <trkpt lat="47.92061" lon="-2.46582">
        <ele>62.8</ele>
        <time>2024-12-19T10:53:11Z</time>
      </trkpt>
      <trkpt lat="47.9206" lon="-2.46581">
        <ele>62.9</ele>
        <time>2024-12-19T10:53:12Z</time>
      </trkpt>
      <trkpt lat="47.9206" lon="-2.46579">
        <ele>62.9</ele>
        <time>2024-12-19T10:53:13Z</time>
      </trkpt>
      <trkpt lat="47.92059" lon="-2.46578">
        <ele>63</ele>
        <time>2024-12-19T10:53:14Z</time>
      </trkpt>
      <trkpt lat="47.92059" lon="-2.46577">
        <ele>63</ele>
        <time>2024-12-19T10:53:15Z</time>
      </trkpt>
      <trkpt lat="47.92058" lon="-2.46575">
        <ele>63.1</ele>
        <time>2024-12-19T10:53:16Z</time>
      </trkpt>
      <trkpt lat="47.92058" lon="-2.46574">
        <ele>63.2</ele>
        <time>2024-12-19T10:53:17Z</time>
      </trkpt>
      <trkpt lat="47.92059" lon="-2.46572">
        <ele>63.2</ele>
        <time>2024-12-19T10:53:18Z</time>
      </trkpt>
      <trkpt lat="47.92059" lon="-2.4657">
        <ele>63.2</ele>
        <time>2024-12-19T10:53:19Z</time>
      </trkpt>
      <trkpt lat="47.92059" lon="-2.46568">
        <ele>63.2</ele>
        <time>2024-12-19T10:53:20Z</time>
      </trkpt>
      <trkpt lat="47.92059" lon="-2.46567">
        <ele>63.2</ele>
        <time>2024-12-19T10:53:21Z</time>
      </trkpt>
      <trkpt lat="47.92059" lon="-2.46567">
        <ele>63.2</ele>
        <time>2024-12-19T10:53:22Z</time>
      </trkpt>
      <trkpt lat="47.92059" lon="-2.46566">
        <ele>63.2</ele>
        <time>2024-12-19T10:53:23Z</time>
      </trkpt>
      <trkpt lat="47.92059" lon="-2.46566">
        <ele>63.2</ele>
        <time>2024-12-19T10:53:24Z</time>
      </trkpt>
      <trkpt lat="47.92059" lon="-2.46566">
        <ele>63.3</ele>
        <time>2024-12-19T10:53:25Z</time>
      </trkpt>
      <trkpt lat="47.92059" lon="-2.46565">
        <ele>63.3</ele>
        <time>2024-12-19T10:53:26Z</time>
      </trkpt>
      <trkpt lat="47.92059" lon="-2.46565">
        <ele>63.3</ele>
        <time>2024-12-19T10:53:27Z</time>
      </trkpt>
      <trkpt lat="47.92059" lon="-2.46565">
        <ele>63.3</ele>
        <time>2024-12-19T10:53:28Z</time>
      </trkpt>
      <trkpt lat="47.92059" lon="-2.46564">
        <ele>63.3</ele>
        <time>2024-12-19T10:53:29Z</time>
      </trkpt>
      <trkpt lat="47.92059" lon="-2.46563">
        <ele>63.3</ele>
        <time>2024-12-19T10:53:30Z</time>
      </trkpt>
      <trkpt lat="47.92059" lon="-2.46563">
        <ele>63.3</ele>
        <time>2024-12-19T10:53:31Z</time>
      </trkpt>
      <trkpt lat="47.92059" lon="-2.46563">
        <ele>63.3</ele>
        <time>2024-12-19T10:53:32Z</time>
      </trkpt>
      <trkpt lat="47.9206" lon="-2.46563">
        <ele>63.3</ele>
        <time>2024-12-19T10:53:33Z</time>
      </trkpt>
      <trkpt lat="47.9206" lon="-2.46563">
        <ele>63.3</ele>
        <time>2024-12-19T10:53:34Z</time>
      </trkpt>
      <trkpt lat="47.9206" lon="-2.46563">
        <ele>63.2</ele>
        <time>2024-12-19T10:53:35Z</time>
      </trkpt>
      <trkpt lat="47.9206" lon="-2.46563">
        <ele>63.2</ele>
        <time>2024-12-19T10:53:36Z</time>
      </trkpt>
      <trkpt lat="47.9206" lon="-2.46562">
        <ele>63.3</ele>
        <time>2024-12-19T10:53:37Z</time>
      </trkpt>
      <trkpt lat="47.9206" lon="-2.46561">
        <ele>63.3</ele>
        <time>2024-12-19T10:53:38Z</time>
      </trkpt>
      <trkpt lat="47.9206" lon="-2.46561">
        <ele>63.2</ele>
        <time>2024-12-19T10:53:39Z</time>
      </trkpt>
      <trkpt lat="47.9206" lon="-2.4656">
        <ele>63.2</ele>
        <time>2024-12-19T10:53:40Z</time>
      </trkpt>
      <trkpt lat="47.92061" lon="-2.4656">
        <ele>63.2</ele>
        <time>2024-12-19T10:53:41Z</time>
      </trkpt>
      <trkpt lat="47.92061" lon="-2.46559">
        <ele>63.2</ele>
        <time>2024-12-19T10:53:42Z</time>
      </trkpt>
      <trkpt lat="47.92061" lon="-2.46559">
        <ele>63.2</ele>
        <time>2024-12-19T10:53:43Z</time>
      </trkpt>
      <trkpt lat="47.92061" lon="-2.46558">
        <ele>63.2</ele>
        <time>2024-12-19T10:53:44Z</time>
      </trkpt>
      <trkpt lat="47.92061" lon="-2.46556">
        <ele>63.3</ele>
        <time>2024-12-19T10:53:45Z</time>
      </trkpt>
      <trkpt lat="47.92061" lon="-2.46554">
        <ele>63.3</ele>
        <time>2024-12-19T10:53:46Z</time>
      </trkpt>
      <trkpt lat="47.92061" lon="-2.46552">
        <ele>63.4</ele>
        <time>2024-12-19T10:53:47Z</time>
      </trkpt>
      <trkpt lat="47.92061" lon="-2.46551">
        <ele>63.4</ele>
        <time>2024-12-19T10:53:48Z</time>
      </trkpt>
      <trkpt lat="47.92061" lon="-2.46551">
        <ele>63.5</ele>
        <time>2024-12-19T10:53:49Z</time>
      </trkpt>
      <trkpt lat="47.9206" lon="-2.46549">
        <ele>63.6</ele>
        <time>2024-12-19T10:53:50Z</time>
      </trkpt>
      <trkpt lat="47.9206" lon="-2.46548">
        <ele>63.6</ele>
        <time>2024-12-19T10:53:51Z</time>
      </trkpt>
      <trkpt lat="47.9206" lon="-2.46548">
        <ele>63.6</ele>
        <time>2024-12-19T10:53:52Z</time>
      </trkpt>
      <trkpt lat="47.9206" lon="-2.46546">
        <ele>63.7</ele>
        <time>2024-12-19T10:53:53Z</time>
      </trkpt>
      <trkpt lat="47.9206" lon="-2.46544">
        <ele>63.7</ele>
        <time>2024-12-19T10:53:54Z</time>
      </trkpt>
      <trkpt lat="47.9206" lon="-2.46543">
        <ele>63.8</ele>
        <time>2024-12-19T10:53:55Z</time>
      </trkpt>
      <trkpt lat="47.9206" lon="-2.46542">
        <ele>63.9</ele>
        <time>2024-12-19T10:53:56Z</time>
      </trkpt>
      <trkpt lat="47.9206" lon="-2.46541">
        <ele>63.9</ele>
        <time>2024-12-19T10:53:57Z</time>
      </trkpt>
      <trkpt lat="47.9206" lon="-2.4654">
        <ele>63.9</ele>
        <time>2024-12-19T10:53:58Z</time>
      </trkpt>
      <trkpt lat="47.9206" lon="-2.46539">
        <ele>63.9</ele>
        <time>2024-12-19T10:53:59Z</time>
      </trkpt>
      <trkpt lat="47.9206" lon="-2.46539">
        <ele>63.9</ele>
        <time>2024-12-19T10:54:00Z</time>
      </trkpt>
      <trkpt lat="47.9206" lon="-2.46539">
        <ele>63.9</ele>
        <time>2024-12-19T10:54:01Z</time>
      </trkpt>
      <trkpt lat="47.92061" lon="-2.46535">
        <ele>64</ele>
        <time>2024-12-19T10:54:02Z</time>
      </trkpt>
      <trkpt lat="47.92061" lon="-2.46533">
        <ele>64</ele>
        <time>2024-12-19T10:54:03Z</time>
      </trkpt>
      <trkpt lat="47.92062" lon="-2.4653">
        <ele>64.1</ele>
        <time>2024-12-19T10:54:04Z</time>
      </trkpt>
      <trkpt lat="47.92062" lon="-2.46528">
        <ele>64.1</ele>
        <time>2024-12-19T10:54:05Z</time>
      </trkpt>
      <trkpt lat="47.92062" lon="-2.46525">
        <ele>64.3</ele>
        <time>2024-12-19T10:54:06Z</time>
      </trkpt>
      <trkpt lat="47.92062" lon="-2.46522">
        <ele>64.4</ele>
        <time>2024-12-19T10:54:07Z</time>
      </trkpt>
      <trkpt lat="47.92063" lon="-2.46519">
        <ele>64.5</ele>
        <time>2024-12-19T10:54:08Z</time>
      </trkpt>
      <trkpt lat="47.92063" lon="-2.46517">
        <ele>64.6</ele>
        <time>2024-12-19T10:54:09Z</time>
      </trkpt>
      <trkpt lat="47.92063" lon="-2.46515">
        <ele>64.7</ele>
        <time>2024-12-19T10:54:10Z</time>
      </trkpt>
      <trkpt lat="47.92063" lon="-2.46513">
        <ele>64.8</ele>
        <time>2024-12-19T10:54:11Z</time>
      </trkpt>
      <trkpt lat="47.92064" lon="-2.4651">
        <ele>64.9</ele>
        <time>2024-12-19T10:54:12Z</time>
      </trkpt>
      <trkpt lat="47.92064" lon="-2.46508">
        <ele>65</ele>
        <time>2024-12-19T10:54:13Z</time>
      </trkpt>
      <trkpt lat="47.92064" lon="-2.46507">
        <ele>65.1</ele>
        <time>2024-12-19T10:54:14Z</time>
      </trkpt>
      <trkpt lat="47.92063" lon="-2.46505">
        <ele>65.3</ele>
        <time>2024-12-19T10:54:15Z</time>
      </trkpt>
      <trkpt lat="47.92063" lon="-2.46503">
        <ele>65.4</ele>
        <time>2024-12-19T10:54:16Z</time>
      </trkpt>
      <trkpt lat="47.92064" lon="-2.465">
        <ele>65.5</ele>
        <time>2024-12-19T10:54:17Z</time>
      </trkpt>
      <trkpt lat="47.92064" lon="-2.46498">
        <ele>65.6</ele>
        <time>2024-12-19T10:54:18Z</time>
      </trkpt>
      <trkpt lat="47.92064" lon="-2.46495">
        <ele>65.8</ele>
        <time>2024-12-19T10:54:19Z</time>
      </trkpt>
      <trkpt lat="47.92064" lon="-2.46493">
        <ele>65.9</ele>
        <time>2024-12-19T10:54:20Z</time>
      </trkpt>
      <trkpt lat="47.92064" lon="-2.46491">
        <ele>66.1</ele>
        <time>2024-12-19T10:54:21Z</time>
      </trkpt>
      <trkpt lat="47.92064" lon="-2.46488">
        <ele>66.3</ele>
        <time>2024-12-19T10:54:22Z</time>
      </trkpt>
      <trkpt lat="47.92064" lon="-2.46486">
        <ele>66.4</ele>
        <time>2024-12-19T10:54:23Z</time>
      </trkpt>
      <trkpt lat="47.92064" lon="-2.46483">
        <ele>66.6</ele>
        <time>2024-12-19T10:54:24Z</time>
      </trkpt>
      <trkpt lat="47.92063" lon="-2.46481">
        <ele>66.7</ele>
        <time>2024-12-19T10:54:25Z</time>
      </trkpt>
      <trkpt lat="47.92063" lon="-2.46479">
        <ele>66.9</ele>
        <time>2024-12-19T10:54:26Z</time>
      </trkpt>
      <trkpt lat="47.92063" lon="-2.46476">
        <ele>67.2</ele>
        <time>2024-12-19T10:54:27Z</time>
      </trkpt>
      <trkpt lat="47.92063" lon="-2.46473">
        <ele>67.3</ele>
        <time>2024-12-19T10:54:28Z</time>
      </trkpt>
      <trkpt lat="47.92063" lon="-2.46471">
        <ele>67.4</ele>
        <time>2024-12-19T10:54:29Z</time>
      </trkpt>
      <trkpt lat="47.92063" lon="-2.4647">
        <ele>67.4</ele>
        <time>2024-12-19T10:54:30Z</time>
      </trkpt>
      <trkpt lat="47.92063" lon="-2.46468">
        <ele>67.3</ele>
        <time>2024-12-19T10:54:31Z</time>
      </trkpt>
      <trkpt lat="47.92064" lon="-2.46467">
        <ele>67.3</ele>
        <time>2024-12-19T10:54:32Z</time>
      </trkpt>
      <trkpt lat="47.92064" lon="-2.46465">
        <ele>67.2</ele>
        <time>2024-12-19T10:54:33Z</time>
      </trkpt>
      <trkpt lat="47.92064" lon="-2.46462">
        <ele>67.1</ele>
        <time>2024-12-19T10:54:34Z</time>
      </trkpt>
      <trkpt lat="47.92064" lon="-2.4646">
        <ele>67.1</ele>
        <time>2024-12-19T10:54:35Z</time>
      </trkpt>
      <trkpt lat="47.92064" lon="-2.46457">
        <ele>67.2</ele>
        <time>2024-12-19T10:54:36Z</time>
      </trkpt>
      <trkpt lat="47.92064" lon="-2.46455">
        <ele>67.2</ele>
        <time>2024-12-19T10:54:37Z</time>
      </trkpt>
      <trkpt lat="47.92063" lon="-2.46453">
        <ele>67.3</ele>
        <time>2024-12-19T10:54:38Z</time>
      </trkpt>
      <trkpt lat="47.92063" lon="-2.46449">
        <ele>67.5</ele>
        <time>2024-12-19T10:54:39Z</time>
      </trkpt>
      <trkpt lat="47.92062" lon="-2.46446">
        <ele>67.6</ele>
        <time>2024-12-19T10:54:40Z</time>
      </trkpt>
      <trkpt lat="47.92062" lon="-2.46443">
        <ele>67.6</ele>
        <time>2024-12-19T10:54:41Z</time>
      </trkpt>
      <trkpt lat="47.92061" lon="-2.4644">
        <ele>67.6</ele>
        <time>2024-12-19T10:54:42Z</time>
      </trkpt>
      <trkpt lat="47.92061" lon="-2.46439">
        <ele>67.6</ele>
        <time>2024-12-19T10:54:43Z</time>
      </trkpt>
      <trkpt lat="47.9206" lon="-2.46436">
        <ele>67.7</ele>
        <time>2024-12-19T10:54:44Z</time>
      </trkpt>
      <trkpt lat="47.92059" lon="-2.46434">
        <ele>67.6</ele>
        <time>2024-12-19T10:54:45Z</time>
      </trkpt>
      <trkpt lat="47.92059" lon="-2.46431">
        <ele>67.6</ele>
        <time>2024-12-19T10:54:46Z</time>
      </trkpt>
      <trkpt lat="47.92058" lon="-2.46429">
        <ele>67.6</ele>
        <time>2024-12-19T10:54:47Z</time>
      </trkpt>
      <trkpt lat="47.92057" lon="-2.46427">
        <ele>67.5</ele>
        <time>2024-12-19T10:54:48Z</time>
      </trkpt>
      <trkpt lat="47.92057" lon="-2.46425">
        <ele>67.5</ele>
        <time>2024-12-19T10:54:49Z</time>
      </trkpt>
      <trkpt lat="47.92056" lon="-2.46423">
        <ele>67.5</ele>
        <time>2024-12-19T10:54:50Z</time>
      </trkpt>
      <trkpt lat="47.92055" lon="-2.46421">
        <ele>67.5</ele>
        <time>2024-12-19T10:54:51Z</time>
      </trkpt>
      <trkpt lat="47.92054" lon="-2.46419">
        <ele>67.5</ele>
        <time>2024-12-19T10:54:52Z</time>
      </trkpt>
      <trkpt lat="47.92053" lon="-2.46416">
        <ele>67.5</ele>
        <time>2024-12-19T10:54:53Z</time>
      </trkpt>
      <trkpt lat="47.92053" lon="-2.46415">
        <ele>67.7</ele>
        <time>2024-12-19T10:54:54Z</time>
      </trkpt>
      <trkpt lat="47.92052" lon="-2.46412">
        <ele>67.9</ele>
        <time>2024-12-19T10:54:56Z</time>
      </trkpt>
      <trkpt lat="47.92051" lon="-2.4641">
        <ele>68</ele>
        <time>2024-12-19T10:54:57Z</time>
      </trkpt>
      <trkpt lat="47.92051" lon="-2.46409">
        <ele>68.2</ele>
        <time>2024-12-19T10:54:58Z</time>
      </trkpt>
      <trkpt lat="47.9205" lon="-2.46407">
        <ele>68.3</ele>
        <time>2024-12-19T10:54:59Z</time>
      </trkpt>
      <trkpt lat="47.9205" lon="-2.46404">
        <ele>68.4</ele>
        <time>2024-12-19T10:55:00Z</time>
      </trkpt>
      <trkpt lat="47.92049" lon="-2.46402">
        <ele>68.6</ele>
        <time>2024-12-19T10:55:01Z</time>
      </trkpt>
      <trkpt lat="47.92048" lon="-2.46401">
        <ele>68.7</ele>
        <time>2024-12-19T10:55:02Z</time>
      </trkpt>
      <trkpt lat="47.92047" lon="-2.46399">
        <ele>68.8</ele>
        <time>2024-12-19T10:55:03Z</time>
      </trkpt>
      <trkpt lat="47.92047" lon="-2.46398">
        <ele>68.9</ele>
        <time>2024-12-19T10:55:04Z</time>
      </trkpt>
      <trkpt lat="47.92046" lon="-2.46397">
        <ele>69</ele>
        <time>2024-12-19T10:55:05Z</time>
      </trkpt>
      <trkpt lat="47.92046" lon="-2.46396">
        <ele>69.1</ele>
        <time>2024-12-19T10:55:06Z</time>
      </trkpt>
      <trkpt lat="47.92045" lon="-2.46395">
        <ele>69.2</ele>
        <time>2024-12-19T10:55:07Z</time>
      </trkpt>
      <trkpt lat="47.92044" lon="-2.46393">
        <ele>69.2</ele>
        <time>2024-12-19T10:55:08Z</time>
      </trkpt>
      <trkpt lat="47.92044" lon="-2.46392">
        <ele>69.3</ele>
        <time>2024-12-19T10:55:09Z</time>
      </trkpt>
      <trkpt lat="47.92043" lon="-2.4639">
        <ele>69.4</ele>
        <time>2024-12-19T10:55:10Z</time>
      </trkpt>
      <trkpt lat="47.92042" lon="-2.46389">
        <ele>69.5</ele>
        <time>2024-12-19T10:55:11Z</time>
      </trkpt>
      <trkpt lat="47.92041" lon="-2.46388">
        <ele>69.6</ele>
        <time>2024-12-19T10:55:12Z</time>
      </trkpt>
      <trkpt lat="47.9204" lon="-2.46386">
        <ele>69.6</ele>
        <time>2024-12-19T10:55:13Z</time>
      </trkpt>
      <trkpt lat="47.92039" lon="-2.46385">
        <ele>69.6</ele>
        <time>2024-12-19T10:55:14Z</time>
      </trkpt>
      <trkpt lat="47.92039" lon="-2.46384">
        <ele>69.6</ele>
        <time>2024-12-19T10:55:15Z</time>
      </trkpt>
      <trkpt lat="47.92038" lon="-2.46381">
        <ele>69.6</ele>
        <time>2024-12-19T10:55:16Z</time>
      </trkpt>
      <trkpt lat="47.92038" lon="-2.4638">
        <ele>69.6</ele>
        <time>2024-12-19T10:55:17Z</time>
      </trkpt>
      <trkpt lat="47.92038" lon="-2.46379">
        <ele>69.6</ele>
        <time>2024-12-19T10:55:18Z</time>
      </trkpt>
      <trkpt lat="47.92037" lon="-2.46377">
        <ele>69.6</ele>
        <time>2024-12-19T10:55:19Z</time>
      </trkpt>
      <trkpt lat="47.92036" lon="-2.46375">
        <ele>69.6</ele>
        <time>2024-12-19T10:55:20Z</time>
      </trkpt>
      <trkpt lat="47.92036" lon="-2.46374">
        <ele>69.6</ele>
        <time>2024-12-19T10:55:21Z</time>
      </trkpt>
      <trkpt lat="47.92035" lon="-2.46372">
        <ele>69.6</ele>
        <time>2024-12-19T10:55:22Z</time>
      </trkpt>
      <trkpt lat="47.92035" lon="-2.4637">
        <ele>69.6</ele>
        <time>2024-12-19T10:55:23Z</time>
      </trkpt>
      <trkpt lat="47.92034" lon="-2.46368">
        <ele>69.6</ele>
        <time>2024-12-19T10:55:24Z</time>
      </trkpt>
      <trkpt lat="47.92033" lon="-2.46367">
        <ele>69.6</ele>
        <time>2024-12-19T10:55:25Z</time>
      </trkpt>
      <trkpt lat="47.92033" lon="-2.46366">
        <ele>69.6</ele>
        <time>2024-12-19T10:55:26Z</time>
      </trkpt>
      <trkpt lat="47.92033" lon="-2.46364">
        <ele>69.6</ele>
        <time>2024-12-19T10:55:27Z</time>
      </trkpt>
      <trkpt lat="47.92032" lon="-2.46362">
        <ele>69.6</ele>
        <time>2024-12-19T10:55:28Z</time>
      </trkpt>
      <trkpt lat="47.92032" lon="-2.4636">
        <ele>69.5</ele>
        <time>2024-12-19T10:55:29Z</time>
      </trkpt>
      <trkpt lat="47.92032" lon="-2.46358">
        <ele>69.5</ele>
        <time>2024-12-19T10:55:30Z</time>
      </trkpt>
      <trkpt lat="47.92031" lon="-2.46356">
        <ele>69.5</ele>
        <time>2024-12-19T10:55:31Z</time>
      </trkpt>
      <trkpt lat="47.92031" lon="-2.46354">
        <ele>69.4</ele>
        <time>2024-12-19T10:55:32Z</time>
      </trkpt>
      <trkpt lat="47.9203" lon="-2.46353">
        <ele>69.5</ele>
        <time>2024-12-19T10:55:33Z</time>
      </trkpt>
      <trkpt lat="47.9203" lon="-2.46351">
        <ele>69.5</ele>
        <time>2024-12-19T10:55:34Z</time>
      </trkpt>
      <trkpt lat="47.92029" lon="-2.46351">
        <ele>69.5</ele>
        <time>2024-12-19T10:55:35Z</time>
      </trkpt>
      <trkpt lat="47.92029" lon="-2.4635">
        <ele>69.5</ele>
        <time>2024-12-19T10:55:36Z</time>
      </trkpt>
      <trkpt lat="47.92028" lon="-2.46348">
        <ele>69.5</ele>
        <time>2024-12-19T10:55:37Z</time>
      </trkpt>
      <trkpt lat="47.92028" lon="-2.46347">
        <ele>69.5</ele>
        <time>2024-12-19T10:55:38Z</time>
      </trkpt>
      <trkpt lat="47.92028" lon="-2.46345">
        <ele>69.5</ele>
        <time>2024-12-19T10:55:39Z</time>
      </trkpt>
      <trkpt lat="47.92027" lon="-2.46344">
        <ele>69.5</ele>
        <time>2024-12-19T10:55:40Z</time>
      </trkpt>
      <trkpt lat="47.92027" lon="-2.46342">
        <ele>69.5</ele>
        <time>2024-12-19T10:55:41Z</time>
      </trkpt>
      <trkpt lat="47.92026" lon="-2.46341">
        <ele>69.5</ele>
        <time>2024-12-19T10:55:42Z</time>
      </trkpt>
      <trkpt lat="47.92026" lon="-2.4634">
        <ele>69.5</ele>
        <time>2024-12-19T10:55:43Z</time>
      </trkpt>
      <trkpt lat="47.92026" lon="-2.46339">
        <ele>69.4</ele>
        <time>2024-12-19T10:55:44Z</time>
      </trkpt>
      <trkpt lat="47.92026" lon="-2.46337">
        <ele>69.3</ele>
        <time>2024-12-19T10:55:45Z</time>
      </trkpt>
      <trkpt lat="47.92027" lon="-2.46336">
        <ele>69.3</ele>
        <time>2024-12-19T10:55:46Z</time>
      </trkpt>
      <trkpt lat="47.92027" lon="-2.46335">
        <ele>69.2</ele>
        <time>2024-12-19T10:55:47Z</time>
      </trkpt>
      <trkpt lat="47.92026" lon="-2.46333">
        <ele>69.2</ele>
        <time>2024-12-19T10:55:48Z</time>
      </trkpt>
      <trkpt lat="47.92026" lon="-2.46331">
        <ele>69.2</ele>
        <time>2024-12-19T10:55:49Z</time>
      </trkpt>
      <trkpt lat="47.92025" lon="-2.4633">
        <ele>69.2</ele>
        <time>2024-12-19T10:55:50Z</time>
      </trkpt>
      <trkpt lat="47.92025" lon="-2.46329">
        <ele>69.2</ele>
        <time>2024-12-19T10:55:51Z</time>
      </trkpt>
      <trkpt lat="47.92025" lon="-2.46328">
        <ele>69.2</ele>
        <time>2024-12-19T10:55:52Z</time>
      </trkpt>
      <trkpt lat="47.92025" lon="-2.46327">
        <ele>69.2</ele>
        <time>2024-12-19T10:55:53Z</time>
      </trkpt>
      <trkpt lat="47.92024" lon="-2.46326">
        <ele>69.2</ele>
        <time>2024-12-19T10:55:54Z</time>
      </trkpt>
      <trkpt lat="47.92024" lon="-2.46326">
        <ele>69.3</ele>
        <time>2024-12-19T10:55:55Z</time>
      </trkpt>
      <trkpt lat="47.92023" lon="-2.46325">
        <ele>69.3</ele>
        <time>2024-12-19T10:55:56Z</time>
      </trkpt>
      <trkpt lat="47.92023" lon="-2.46325">
        <ele>69.4</ele>
        <time>2024-12-19T10:55:57Z</time>
      </trkpt>
      <trkpt lat="47.92022" lon="-2.46325">
        <ele>69.4</ele>
        <time>2024-12-19T10:55:58Z</time>
      </trkpt>
      <trkpt lat="47.92022" lon="-2.46325">
        <ele>69.5</ele>
        <time>2024-12-19T10:55:59Z</time>
      </trkpt>
      <trkpt lat="47.92021" lon="-2.46323">
        <ele>69.6</ele>
        <time>2024-12-19T10:56:00Z</time>
      </trkpt>
      <trkpt lat="47.9202" lon="-2.46322">
        <ele>69.6</ele>
        <time>2024-12-19T10:56:01Z</time>
      </trkpt>
      <trkpt lat="47.92019" lon="-2.46321">
        <ele>69.7</ele>
        <time>2024-12-19T10:56:02Z</time>
      </trkpt>
      <trkpt lat="47.92018" lon="-2.46319">
        <ele>69.8</ele>
        <time>2024-12-19T10:56:03Z</time>
      </trkpt>
      <trkpt lat="47.92017" lon="-2.46318">
        <ele>69.8</ele>
        <time>2024-12-19T10:56:04Z</time>
      </trkpt>
      <trkpt lat="47.92016" lon="-2.46317">
        <ele>69.8</ele>
        <time>2024-12-19T10:56:05Z</time>
      </trkpt>
      <trkpt lat="47.92015" lon="-2.46315">
        <ele>69.9</ele>
        <time>2024-12-19T10:56:06Z</time>
      </trkpt>
      <trkpt lat="47.92014" lon="-2.46315">
        <ele>69.9</ele>
        <time>2024-12-19T10:56:07Z</time>
      </trkpt>
      <trkpt lat="47.92014" lon="-2.46314">
        <ele>70</ele>
        <time>2024-12-19T10:56:08Z</time>
      </trkpt>
      <trkpt lat="47.92013" lon="-2.46313">
        <ele>70</ele>
        <time>2024-12-19T10:56:09Z</time>
      </trkpt>
      <trkpt lat="47.92011" lon="-2.46312">
        <ele>70.1</ele>
        <time>2024-12-19T10:56:10Z</time>
      </trkpt>
      <trkpt lat="47.9201" lon="-2.46311">
        <ele>70.2</ele>
        <time>2024-12-19T10:56:11Z</time>
      </trkpt>
      <trkpt lat="47.92009" lon="-2.4631">
        <ele>70.2</ele>
        <time>2024-12-19T10:56:12Z</time>
      </trkpt>
      <trkpt lat="47.92008" lon="-2.46308">
        <ele>70.3</ele>
        <time>2024-12-19T10:56:13Z</time>
      </trkpt>
      <trkpt lat="47.92008" lon="-2.46306">
        <ele>70.2</ele>
        <time>2024-12-19T10:56:14Z</time>
      </trkpt>
      <trkpt lat="47.92007" lon="-2.46305">
        <ele>70.2</ele>
        <time>2024-12-19T10:56:15Z</time>
      </trkpt>
      <trkpt lat="47.92006" lon="-2.46303">
        <ele>70.3</ele>
        <time>2024-12-19T10:56:16Z</time>
      </trkpt>
      <trkpt lat="47.92005" lon="-2.46302">
        <ele>70.3</ele>
        <time>2024-12-19T10:56:17Z</time>
      </trkpt>
      <trkpt lat="47.92004" lon="-2.463">
        <ele>70.3</ele>
        <time>2024-12-19T10:56:18Z</time>
      </trkpt>
      <trkpt lat="47.92004" lon="-2.46299">
        <ele>70.4</ele>
        <time>2024-12-19T10:56:19Z</time>
      </trkpt>
      <trkpt lat="47.92003" lon="-2.46298">
        <ele>70.4</ele>
        <time>2024-12-19T10:56:20Z</time>
      </trkpt>
      <trkpt lat="47.92002" lon="-2.46297">
        <ele>70.4</ele>
        <time>2024-12-19T10:56:21Z</time>
      </trkpt>
      <trkpt lat="47.92001" lon="-2.46295">
        <ele>70.5</ele>
        <time>2024-12-19T10:56:22Z</time>
      </trkpt>
      <trkpt lat="47.92001" lon="-2.46294">
        <ele>70.5</ele>
        <time>2024-12-19T10:56:23Z</time>
      </trkpt>
      <trkpt lat="47.92" lon="-2.46292">
        <ele>70.5</ele>
        <time>2024-12-19T10:56:24Z</time>
      </trkpt>
      <trkpt lat="47.91999" lon="-2.46291">
        <ele>70.6</ele>
        <time>2024-12-19T10:56:25Z</time>
      </trkpt>
      <trkpt lat="47.91998" lon="-2.4629">
        <ele>70.7</ele>
        <time>2024-12-19T10:56:26Z</time>
      </trkpt>
      <trkpt lat="47.91997" lon="-2.46288">
        <ele>70.7</ele>
        <time>2024-12-19T10:56:27Z</time>
      </trkpt>
      <trkpt lat="47.91996" lon="-2.46286">
        <ele>70.7</ele>
        <time>2024-12-19T10:56:28Z</time>
      </trkpt>
      <trkpt lat="47.91995" lon="-2.46283">
        <ele>70.8</ele>
        <time>2024-12-19T10:56:29Z</time>
      </trkpt>
      <trkpt lat="47.91994" lon="-2.46281">
        <ele>70.8</ele>
        <time>2024-12-19T10:56:30Z</time>
      </trkpt>
      <trkpt lat="47.91993" lon="-2.46279">
        <ele>70.8</ele>
        <time>2024-12-19T10:56:31Z</time>
      </trkpt>
      <trkpt lat="47.91992" lon="-2.46277">
        <ele>70.8</ele>
        <time>2024-12-19T10:56:32Z</time>
      </trkpt>
      <trkpt lat="47.91991" lon="-2.46275">
        <ele>70.8</ele>
        <time>2024-12-19T10:56:33Z</time>
      </trkpt>
      <trkpt lat="47.9199" lon="-2.46274">
        <ele>70.8</ele>
        <time>2024-12-19T10:56:34Z</time>
      </trkpt>
      <trkpt lat="47.91989" lon="-2.46272">
        <ele>70.8</ele>
        <time>2024-12-19T10:56:35Z</time>
      </trkpt>
      <trkpt lat="47.91989" lon="-2.46271">
        <ele>70.8</ele>
        <time>2024-12-19T10:56:36Z</time>
      </trkpt>
      <trkpt lat="47.91989" lon="-2.4627">
        <ele>70.7</ele>
        <time>2024-12-19T10:56:37Z</time>
      </trkpt>
      <trkpt lat="47.91989" lon="-2.46269">
        <ele>70.7</ele>
        <time>2024-12-19T10:56:38Z</time>
      </trkpt>
      <trkpt lat="47.91988" lon="-2.46269">
        <ele>70.7</ele>
        <time>2024-12-19T10:56:39Z</time>
      </trkpt>
      <trkpt lat="47.91988" lon="-2.46268">
        <ele>70.8</ele>
        <time>2024-12-19T10:56:40Z</time>
      </trkpt>
      <trkpt lat="47.91987" lon="-2.46268">
        <ele>70.9</ele>
        <time>2024-12-19T10:56:41Z</time>
      </trkpt>
      <trkpt lat="47.91986" lon="-2.46267">
        <ele>70.9</ele>
        <time>2024-12-19T10:56:42Z</time>
      </trkpt>
      <trkpt lat="47.91986" lon="-2.46266">
        <ele>70.9</ele>
        <time>2024-12-19T10:56:43Z</time>
      </trkpt>
      <trkpt lat="47.91986" lon="-2.46265">
        <ele>70.8</ele>
        <time>2024-12-19T10:56:44Z</time>
      </trkpt>
      <trkpt lat="47.91987" lon="-2.46265">
        <ele>70.7</ele>
        <time>2024-12-19T10:56:45Z</time>
      </trkpt>
      <trkpt lat="47.91987" lon="-2.46265">
        <ele>70.7</ele>
        <time>2024-12-19T10:56:46Z</time>
      </trkpt>
      <trkpt lat="47.91987" lon="-2.46264">
        <ele>70.6</ele>
        <time>2024-12-19T10:56:47Z</time>
      </trkpt>
      <trkpt lat="47.91987" lon="-2.46264">
        <ele>70.6</ele>
        <time>2024-12-19T10:56:48Z</time>
      </trkpt>
      <trkpt lat="47.91987" lon="-2.46264">
        <ele>70.6</ele>
        <time>2024-12-19T10:56:49Z</time>
      </trkpt>
      <trkpt lat="47.91987" lon="-2.46264">
        <ele>70.6</ele>
        <time>2024-12-19T10:56:50Z</time>
      </trkpt>
      <trkpt lat="47.91987" lon="-2.46264">
        <ele>70.6</ele>
        <time>2024-12-19T10:56:51Z</time>
      </trkpt>
      <trkpt lat="47.91987" lon="-2.46264">
        <ele>70.6</ele>
        <time>2024-12-19T10:56:52Z</time>
      </trkpt>
      <trkpt lat="47.91987" lon="-2.46264">
        <ele>70.6</ele>
        <time>2024-12-19T10:56:53Z</time>
      </trkpt>
      <trkpt lat="47.91987" lon="-2.46264">
        <ele>70.6</ele>
        <time>2024-12-19T10:56:54Z</time>
      </trkpt>
      <trkpt lat="47.91987" lon="-2.46264">
        <ele>70.7</ele>
        <time>2024-12-19T10:56:55Z</time>
      </trkpt>
      <trkpt lat="47.91987" lon="-2.46264">
        <ele>70.7</ele>
        <time>2024-12-19T10:56:56Z</time>
      </trkpt>
      <trkpt lat="47.91987" lon="-2.46264">
        <ele>70.7</ele>
        <time>2024-12-19T10:56:57Z</time>
      </trkpt>
      <trkpt lat="47.91987" lon="-2.46264">
        <ele>70.7</ele>
        <time>2024-12-19T10:56:58Z</time>
      </trkpt>
      <trkpt lat="47.91987" lon="-2.46264">
        <ele>70.7</ele>
        <time>2024-12-19T10:56:59Z</time>
      </trkpt>
      <trkpt lat="47.91987" lon="-2.46264">
        <ele>70.7</ele>
        <time>2024-12-19T10:57:00Z</time>
      </trkpt>
      <trkpt lat="47.91987" lon="-2.46264">
        <ele>70.7</ele>
        <time>2024-12-19T10:57:01Z</time>
      </trkpt>
      <trkpt lat="47.91987" lon="-2.46264">
        <ele>70.7</ele>
        <time>2024-12-19T10:57:02Z</time>
      </trkpt>
      <trkpt lat="47.91987" lon="-2.46264">
        <ele>70.7</ele>
        <time>2024-12-19T10:57:03Z</time>
      </trkpt>
      <trkpt lat="47.91987" lon="-2.46264">
        <ele>70.7</ele>
        <time>2024-12-19T10:57:04Z</time>
      </trkpt>
      <trkpt lat="47.91987" lon="-2.46264">
        <ele>70.7</ele>
        <time>2024-12-19T10:57:05Z</time>
      </trkpt>
      <trkpt lat="47.91987" lon="-2.46264">
        <ele>70.7</ele>
        <time>2024-12-19T10:57:06Z</time>
      </trkpt>
      <trkpt lat="47.91987" lon="-2.46264">
        <ele>70.7</ele>
        <time>2024-12-19T10:57:07Z</time>
      </trkpt>
      <trkpt lat="47.91987" lon="-2.46264">
        <ele>70.7</ele>
        <time>2024-12-19T10:57:08Z</time>
      </trkpt>
      <trkpt lat="47.91987" lon="-2.46264">
        <ele>70.7</ele>
        <time>2024-12-19T10:57:09Z</time>
      </trkpt>
      <trkpt lat="47.91987" lon="-2.46264">
        <ele>70.7</ele>
        <time>2024-12-19T10:57:10Z</time>
      </trkpt>
      <trkpt lat="47.91987" lon="-2.46264">
        <ele>70.7</ele>
        <time>2024-12-19T10:57:11Z</time>
      </trkpt>
      <trkpt lat="47.91987" lon="-2.46264">
        <ele>70.7</ele>
        <time>2024-12-19T10:57:12Z</time>
      </trkpt>
      <trkpt lat="47.91987" lon="-2.46264">
        <ele>70.7</ele>
        <time>2024-12-19T10:57:13Z</time>
      </trkpt>
      <trkpt lat="47.91987" lon="-2.46264">
        <ele>70.7</ele>
        <time>2024-12-19T10:57:14Z</time>
      </trkpt>
      <trkpt lat="47.91987" lon="-2.46264">
        <ele>70.7</ele>
        <time>2024-12-19T10:57:15Z</time>
      </trkpt>
      <trkpt lat="47.91987" lon="-2.46264">
        <ele>70.7</ele>
        <time>2024-12-19T10:57:16Z</time>
      </trkpt>
      <trkpt lat="47.91987" lon="-2.46264">
        <ele>70.7</ele>
        <time>2024-12-19T10:57:17Z</time>
      </trkpt>
      <trkpt lat="47.91987" lon="-2.46264">
        <ele>70.7</ele>
        <time>2024-12-19T10:57:18Z</time>
      </trkpt>
      <trkpt lat="47.91987" lon="-2.46264">
        <ele>70.7</ele>
        <time>2024-12-19T10:57:19Z</time>
      </trkpt>
      <trkpt lat="47.91987" lon="-2.46264">
        <ele>70.7</ele>
        <time>2024-12-19T10:57:20Z</time>
      </trkpt>
      <trkpt lat="47.91987" lon="-2.46264">
        <ele>70.7</ele>
        <time>2024-12-19T10:57:21Z</time>
      </trkpt>
      <trkpt lat="47.91987" lon="-2.46264">
        <ele>70.7</ele>
        <time>2024-12-19T10:57:22Z</time>
      </trkpt>
      <trkpt lat="47.91987" lon="-2.46264">
        <ele>70.7</ele>
        <time>2024-12-19T10:57:23Z</time>
      </trkpt>
      <trkpt lat="47.91987" lon="-2.46264">
        <ele>70.7</ele>
        <time>2024-12-19T10:57:24Z</time>
      </trkpt>
      <trkpt lat="47.91987" lon="-2.46264">
        <ele>70.7</ele>
        <time>2024-12-19T10:57:25Z</time>
      </trkpt>
      <trkpt lat="47.91987" lon="-2.46264">
        <ele>70.7</ele>
        <time>2024-12-19T10:57:26Z</time>
      </trkpt>
      <trkpt lat="47.91987" lon="-2.46264">
        <ele>70.7</ele>
        <time>2024-12-19T10:57:27Z</time>
      </trkpt>
      <trkpt lat="47.91987" lon="-2.46264">
        <ele>70.7</ele>
        <time>2024-12-19T10:57:28Z</time>
      </trkpt>
      <trkpt lat="47.91987" lon="-2.46264">
        <ele>70.7</ele>
        <time>2024-12-19T10:57:29Z</time>
      </trkpt>
      <trkpt lat="47.91987" lon="-2.46264">
        <ele>70.7</ele>
        <time>2024-12-19T10:57:30Z</time>
      </trkpt>
      <trkpt lat="47.91987" lon="-2.46264">
        <ele>70.7</ele>
        <time>2024-12-19T10:57:31Z</time>
      </trkpt>
      <trkpt lat="47.91987" lon="-2.46264">
        <ele>70.7</ele>
        <time>2024-12-19T10:57:32Z</time>
      </trkpt>
      <trkpt lat="47.91987" lon="-2.46264">
        <ele>70.7</ele>
        <time>2024-12-19T10:57:33Z</time>
      </trkpt>
      <trkpt lat="47.91987" lon="-2.46264">
        <ele>70.7</ele>
        <time>2024-12-19T10:57:34Z</time>
      </trkpt>
      <trkpt lat="47.91987" lon="-2.46264">
        <ele>70.7</ele>
        <time>2024-12-19T10:57:35Z</time>
      </trkpt>
      <trkpt lat="47.91987" lon="-2.46264">
        <ele>70.7</ele>
        <time>2024-12-19T10:57:36Z</time>
      </trkpt>
      <trkpt lat="47.91987" lon="-2.46264">
        <ele>70.7</ele>
        <time>2024-12-19T10:57:37Z</time>
      </trkpt>
      <trkpt lat="47.91987" lon="-2.46264">
        <ele>70.7</ele>
        <time>2024-12-19T10:57:38Z</time>
      </trkpt>
      <trkpt lat="47.91987" lon="-2.46264">
        <ele>70.7</ele>
        <time>2024-12-19T10:57:39Z</time>
      </trkpt>
      <trkpt lat="47.91987" lon="-2.46264">
        <ele>70.7</ele>
        <time>2024-12-19T10:57:40Z</time>
      </trkpt>
      <trkpt lat="47.91987" lon="-2.46264">
        <ele>70.7</ele>
        <time>2024-12-19T10:57:41Z</time>
      </trkpt>
      <trkpt lat="47.91987" lon="-2.46264">
        <ele>70.7</ele>
        <time>2024-12-19T10:57:42Z</time>
      </trkpt>
      <trkpt lat="47.91987" lon="-2.46264">
        <ele>70.7</ele>
        <time>2024-12-19T10:57:43Z</time>
      </trkpt>
      <trkpt lat="47.91987" lon="-2.46264">
        <ele>70.7</ele>
        <time>2024-12-19T10:57:44Z</time>
      </trkpt>
      <trkpt lat="47.91987" lon="-2.46264">
        <ele>70.7</ele>
        <time>2024-12-19T10:57:45Z</time>
      </trkpt>
      <trkpt lat="47.91987" lon="-2.46264">
        <ele>70.7</ele>
        <time>2024-12-19T10:57:46Z</time>
      </trkpt>
      <trkpt lat="47.91987" lon="-2.46264">
        <ele>70.7</ele>
        <time>2024-12-19T10:57:47Z</time>
      </trkpt>
      <trkpt lat="47.91987" lon="-2.46264">
        <ele>70.7</ele>
        <time>2024-12-19T10:57:48Z</time>
      </trkpt>
      <trkpt lat="47.91987" lon="-2.46264">
        <ele>70.7</ele>
        <time>2024-12-19T10:57:49Z</time>
      </trkpt>
      <trkpt lat="47.91987" lon="-2.46264">
        <ele>70.7</ele>
        <time>2024-12-19T10:57:50Z</time>
      </trkpt>
      <trkpt lat="47.91987" lon="-2.46264">
        <ele>70.7</ele>
        <time>2024-12-19T10:57:51Z</time>
      </trkpt>
      <trkpt lat="47.91987" lon="-2.46264">
        <ele>70.7</ele>
        <time>2024-12-19T10:57:52Z</time>
      </trkpt>
      <trkpt lat="47.91987" lon="-2.46264">
        <ele>70.7</ele>
        <time>2024-12-19T10:57:53Z</time>
      </trkpt>
      <trkpt lat="47.91987" lon="-2.46264">
        <ele>70.7</ele>
        <time>2024-12-19T10:57:54Z</time>
      </trkpt>
      <trkpt lat="47.91987" lon="-2.46264">
        <ele>70.7</ele>
        <time>2024-12-19T10:57:55Z</time>
      </trkpt>
      <trkpt lat="47.91987" lon="-2.46264">
        <ele>70.7</ele>
        <time>2024-12-19T10:57:56Z</time>
      </trkpt>
      <trkpt lat="47.91987" lon="-2.46264">
        <ele>70.7</ele>
        <time>2024-12-19T10:57:57Z</time>
      </trkpt>
      <trkpt lat="47.91987" lon="-2.46264">
        <ele>70.7</ele>
        <time>2024-12-19T10:57:58Z</time>
      </trkpt>
      <trkpt lat="47.91987" lon="-2.46264">
        <ele>70.7</ele>
        <time>2024-12-19T10:57:59Z</time>
      </trkpt>
      <trkpt lat="47.91987" lon="-2.46264">
        <ele>70.7</ele>
        <time>2024-12-19T10:58:00Z</time>
      </trkpt>
      <trkpt lat="47.91986" lon="-2.46263">
        <ele>70.7</ele>
        <time>2024-12-19T10:58:01Z</time>
      </trkpt>
      <trkpt lat="47.91987" lon="-2.46264">
        <ele>70.7</ele>
        <time>2024-12-19T10:58:02Z</time>
      </trkpt>
      <trkpt lat="47.91987" lon="-2.46264">
        <ele>70.7</ele>
        <time>2024-12-19T10:58:03Z</time>
      </trkpt>
      <trkpt lat="47.91987" lon="-2.46266">
        <ele>70.8</ele>
        <time>2024-12-19T10:58:07Z</time>
      </trkpt>
      <trkpt lat="47.91986" lon="-2.46266">
        <ele>70.9</ele>
        <time>2024-12-19T10:58:08Z</time>
      </trkpt>
      <trkpt lat="47.91985" lon="-2.46266">
        <ele>71</ele>
        <time>2024-12-19T10:58:09Z</time>
      </trkpt>
      <trkpt lat="47.91985" lon="-2.46266">
        <ele>71.1</ele>
        <time>2024-12-19T10:58:10Z</time>
      </trkpt>
      <trkpt lat="47.91984" lon="-2.46266">
        <ele>71.1</ele>
        <time>2024-12-19T10:58:11Z</time>
      </trkpt>
      <trkpt lat="47.91983" lon="-2.46266">
        <ele>71.2</ele>
        <time>2024-12-19T10:58:12Z</time>
      </trkpt>
      <trkpt lat="47.91983" lon="-2.46266">
        <ele>71.3</ele>
        <time>2024-12-19T10:58:13Z</time>
      </trkpt>
      <trkpt lat="47.91981" lon="-2.46266">
        <ele>71.4</ele>
        <time>2024-12-19T10:58:14Z</time>
      </trkpt>
      <trkpt lat="47.9198" lon="-2.46266">
        <ele>71.6</ele>
        <time>2024-12-19T10:58:15Z</time>
      </trkpt>
      <trkpt lat="47.91979" lon="-2.46266">
        <ele>71.7</ele>
        <time>2024-12-19T10:58:16Z</time>
      </trkpt>
      <trkpt lat="47.91978" lon="-2.46266">
        <ele>71.9</ele>
        <time>2024-12-19T10:58:17Z</time>
      </trkpt>
      <trkpt lat="47.91977" lon="-2.46266">
        <ele>72</ele>
        <time>2024-12-19T10:58:18Z</time>
      </trkpt>
      <trkpt lat="47.91976" lon="-2.46266">
        <ele>72.1</ele>
        <time>2024-12-19T10:58:19Z</time>
      </trkpt>
      <trkpt lat="47.91975" lon="-2.46266">
        <ele>72.2</ele>
        <time>2024-12-19T10:58:20Z</time>
      </trkpt>
      <trkpt lat="47.91974" lon="-2.46265">
        <ele>72.3</ele>
        <time>2024-12-19T10:58:21Z</time>
      </trkpt>
      <trkpt lat="47.91974" lon="-2.46265">
        <ele>72.3</ele>
        <time>2024-12-19T10:58:22Z</time>
      </trkpt>
      <trkpt lat="47.91973" lon="-2.46264">
        <ele>72.4</ele>
        <time>2024-12-19T10:58:23Z</time>
      </trkpt>
      <trkpt lat="47.91972" lon="-2.46264">
        <ele>72.5</ele>
        <time>2024-12-19T10:58:24Z</time>
      </trkpt>
      <trkpt lat="47.91971" lon="-2.46264">
        <ele>72.6</ele>
        <time>2024-12-19T10:58:25Z</time>
      </trkpt>
      <trkpt lat="47.9197" lon="-2.46265">
        <ele>72.7</ele>
        <time>2024-12-19T10:58:26Z</time>
      </trkpt>
      <trkpt lat="47.91969" lon="-2.46265">
        <ele>72.7</ele>
        <time>2024-12-19T10:58:27Z</time>
      </trkpt>
      <trkpt lat="47.91969" lon="-2.46265">
        <ele>72.8</ele>
        <time>2024-12-19T10:58:28Z</time>
      </trkpt>
      <trkpt lat="47.91968" lon="-2.46265">
        <ele>72.9</ele>
        <time>2024-12-19T10:58:29Z</time>
      </trkpt>
      <trkpt lat="47.91967" lon="-2.46265">
        <ele>72.9</ele>
        <time>2024-12-19T10:58:30Z</time>
      </trkpt>
      <trkpt lat="47.91966" lon="-2.46265">
        <ele>73</ele>
        <time>2024-12-19T10:58:31Z</time>
      </trkpt>
      <trkpt lat="47.91966" lon="-2.46266">
        <ele>73</ele>
        <time>2024-12-19T10:58:32Z</time>
      </trkpt>
      <trkpt lat="47.91965" lon="-2.46266">
        <ele>73.1</ele>
        <time>2024-12-19T10:58:33Z</time>
      </trkpt>
      <trkpt lat="47.91965" lon="-2.46266">
        <ele>73.1</ele>
        <time>2024-12-19T10:58:34Z</time>
      </trkpt>
      <trkpt lat="47.91964" lon="-2.46267">
        <ele>73.2</ele>
        <time>2024-12-19T10:58:35Z</time>
      </trkpt>
      <trkpt lat="47.91963" lon="-2.46267">
        <ele>73.3</ele>
        <time>2024-12-19T10:58:36Z</time>
      </trkpt>
      <trkpt lat="47.91961" lon="-2.46268">
        <ele>73.4</ele>
        <time>2024-12-19T10:58:37Z</time>
      </trkpt>
      <trkpt lat="47.9196" lon="-2.46268">
        <ele>73.5</ele>
        <time>2024-12-19T10:58:38Z</time>
      </trkpt>
      <trkpt lat="47.91958" lon="-2.46268">
        <ele>73.7</ele>
        <time>2024-12-19T10:58:39Z</time>
      </trkpt>
      <trkpt lat="47.91957" lon="-2.46268">
        <ele>73.8</ele>
        <time>2024-12-19T10:58:40Z</time>
      </trkpt>
      <trkpt lat="47.91955" lon="-2.46268">
        <ele>73.9</ele>
        <time>2024-12-19T10:58:41Z</time>
      </trkpt>
      <trkpt lat="47.91955" lon="-2.46269">
        <ele>74</ele>
        <time>2024-12-19T10:58:42Z</time>
      </trkpt>
      <trkpt lat="47.91954" lon="-2.46269">
        <ele>74</ele>
        <time>2024-12-19T10:58:43Z</time>
      </trkpt>
      <trkpt lat="47.91953" lon="-2.4627">
        <ele>74.1</ele>
        <time>2024-12-19T10:58:44Z</time>
      </trkpt>
      <trkpt lat="47.91952" lon="-2.46271">
        <ele>74.2</ele>
        <time>2024-12-19T10:58:45Z</time>
      </trkpt>
      <trkpt lat="47.91951" lon="-2.46272">
        <ele>74.3</ele>
        <time>2024-12-19T10:58:46Z</time>
      </trkpt>
      <trkpt lat="47.9195" lon="-2.46272">
        <ele>74.4</ele>
        <time>2024-12-19T10:58:47Z</time>
      </trkpt>
      <trkpt lat="47.9195" lon="-2.46272">
        <ele>74.4</ele>
        <time>2024-12-19T10:58:48Z</time>
      </trkpt>
      <trkpt lat="47.9195" lon="-2.46272">
        <ele>74.4</ele>
        <time>2024-12-19T10:58:49Z</time>
      </trkpt>
      <trkpt lat="47.9195" lon="-2.46272">
        <ele>74.4</ele>
        <time>2024-12-19T10:58:50Z</time>
      </trkpt>
      <trkpt lat="47.91949" lon="-2.46272">
        <ele>74.5</ele>
        <time>2024-12-19T10:58:51Z</time>
      </trkpt>
      <trkpt lat="47.91949" lon="-2.46273">
        <ele>74.5</ele>
        <time>2024-12-19T10:58:52Z</time>
      </trkpt>
      <trkpt lat="47.91948" lon="-2.46273">
        <ele>74.6</ele>
        <time>2024-12-19T10:58:53Z</time>
      </trkpt>
      <trkpt lat="47.91947" lon="-2.46273">
        <ele>74.6</ele>
        <time>2024-12-19T10:58:54Z</time>
      </trkpt>
      <trkpt lat="47.91947" lon="-2.46273">
        <ele>74.6</ele>
        <time>2024-12-19T10:58:55Z</time>
      </trkpt>
      <trkpt lat="47.91947" lon="-2.46273">
        <ele>74.7</ele>
        <time>2024-12-19T10:58:56Z</time>
      </trkpt>
      <trkpt lat="47.91946" lon="-2.46272">
        <ele>74.7</ele>
        <time>2024-12-19T10:58:57Z</time>
      </trkpt>
      <trkpt lat="47.91946" lon="-2.46272">
        <ele>74.7</ele>
        <time>2024-12-19T10:58:58Z</time>
      </trkpt>
      <trkpt lat="47.91946" lon="-2.46272">
        <ele>74.7</ele>
        <time>2024-12-19T10:58:59Z</time>
      </trkpt>
      <trkpt lat="47.91946" lon="-2.46273">
        <ele>74.7</ele>
        <time>2024-12-19T10:59:00Z</time>
      </trkpt>
      <trkpt lat="47.91946" lon="-2.46273">
        <ele>74.7</ele>
        <time>2024-12-19T10:59:01Z</time>
      </trkpt>
      <trkpt lat="47.91946" lon="-2.46273">
        <ele>74.7</ele>
        <time>2024-12-19T10:59:02Z</time>
      </trkpt>
      <trkpt lat="47.91946" lon="-2.46273">
        <ele>74.7</ele>
        <time>2024-12-19T10:59:03Z</time>
      </trkpt>
      <trkpt lat="47.91946" lon="-2.46273">
        <ele>74.7</ele>
        <time>2024-12-19T10:59:04Z</time>
      </trkpt>
      <trkpt lat="47.91946" lon="-2.46272">
        <ele>74.7</ele>
        <time>2024-12-19T10:59:05Z</time>
      </trkpt>
      <trkpt lat="47.91946" lon="-2.46272">
        <ele>74.7</ele>
        <time>2024-12-19T10:59:06Z</time>
      </trkpt>
      <trkpt lat="47.91946" lon="-2.46272">
        <ele>74.7</ele>
        <time>2024-12-19T10:59:07Z</time>
      </trkpt>
      <trkpt lat="47.91946" lon="-2.46272">
        <ele>74.7</ele>
        <time>2024-12-19T10:59:08Z</time>
      </trkpt>
      <trkpt lat="47.91946" lon="-2.46272">
        <ele>74.7</ele>
        <time>2024-12-19T10:59:09Z</time>
      </trkpt>
      <trkpt lat="47.91946" lon="-2.46272">
        <ele>74.7</ele>
        <time>2024-12-19T10:59:10Z</time>
      </trkpt>
      <trkpt lat="47.91946" lon="-2.46272">
        <ele>74.7</ele>
        <time>2024-12-19T10:59:11Z</time>
      </trkpt>
      <trkpt lat="47.91946" lon="-2.46272">
        <ele>74.7</ele>
        <time>2024-12-19T10:59:12Z</time>
      </trkpt>
      <trkpt lat="47.91946" lon="-2.46272">
        <ele>74.7</ele>
        <time>2024-12-19T10:59:13Z</time>
      </trkpt>
      <trkpt lat="47.91946" lon="-2.46272">
        <ele>74.7</ele>
        <time>2024-12-19T10:59:14Z</time>
      </trkpt>
      <trkpt lat="47.91946" lon="-2.46272">
        <ele>74.7</ele>
        <time>2024-12-19T10:59:15Z</time>
      </trkpt>
      <trkpt lat="47.91946" lon="-2.46272">
        <ele>74.7</ele>
        <time>2024-12-19T10:59:16Z</time>
      </trkpt>
      <trkpt lat="47.91946" lon="-2.46272">
        <ele>74.7</ele>
        <time>2024-12-19T10:59:17Z</time>
      </trkpt>
      <trkpt lat="47.91946" lon="-2.46272">
        <ele>74.7</ele>
        <time>2024-12-19T10:59:18Z</time>
      </trkpt>
      <trkpt lat="47.91946" lon="-2.46272">
        <ele>74.7</ele>
        <time>2024-12-19T10:59:19Z</time>
      </trkpt>
      <trkpt lat="47.91946" lon="-2.46272">
        <ele>74.7</ele>
        <time>2024-12-19T10:59:20Z</time>
      </trkpt>
      <trkpt lat="47.91946" lon="-2.46272">
        <ele>74.7</ele>
        <time>2024-12-19T10:59:21Z</time>
      </trkpt>
      <trkpt lat="47.91946" lon="-2.46272">
        <ele>74.7</ele>
        <time>2024-12-19T10:59:22Z</time>
      </trkpt>
      <trkpt lat="47.91946" lon="-2.46272">
        <ele>74.7</ele>
        <time>2024-12-19T10:59:23Z</time>
      </trkpt>
      <trkpt lat="47.91946" lon="-2.46272">
        <ele>74.7</ele>
        <time>2024-12-19T10:59:24Z</time>
      </trkpt>
      <trkpt lat="47.91946" lon="-2.46272">
        <ele>74.7</ele>
        <time>2024-12-19T10:59:25Z</time>
      </trkpt>
      <trkpt lat="47.91946" lon="-2.46272">
        <ele>74.7</ele>
        <time>2024-12-19T10:59:26Z</time>
      </trkpt>
      <trkpt lat="47.91946" lon="-2.46272">
        <ele>74.7</ele>
        <time>2024-12-19T10:59:27Z</time>
      </trkpt>
      <trkpt lat="47.91946" lon="-2.46272">
        <ele>74.7</ele>
        <time>2024-12-19T10:59:28Z</time>
      </trkpt>
      <trkpt lat="47.91946" lon="-2.46272">
        <ele>74.7</ele>
        <time>2024-12-19T10:59:29Z</time>
      </trkpt>
      <trkpt lat="47.91946" lon="-2.46272">
        <ele>74.7</ele>
        <time>2024-12-19T10:59:30Z</time>
      </trkpt>
      <trkpt lat="47.91946" lon="-2.46272">
        <ele>74.7</ele>
        <time>2024-12-19T10:59:31Z</time>
      </trkpt>
      <trkpt lat="47.91946" lon="-2.46272">
        <ele>74.7</ele>
        <time>2024-12-19T10:59:32Z</time>
      </trkpt>
      <trkpt lat="47.91946" lon="-2.46272">
        <ele>74.7</ele>
        <time>2024-12-19T10:59:33Z</time>
      </trkpt>
      <trkpt lat="47.91946" lon="-2.46272">
        <ele>74.7</ele>
        <time>2024-12-19T10:59:34Z</time>
      </trkpt>
      <trkpt lat="47.91946" lon="-2.46272">
        <ele>74.7</ele>
        <time>2024-12-19T10:59:35Z</time>
      </trkpt>
      <trkpt lat="47.91946" lon="-2.46272">
        <ele>74.7</ele>
        <time>2024-12-19T10:59:36Z</time>
      </trkpt>
      <trkpt lat="47.91946" lon="-2.46272">
        <ele>74.7</ele>
        <time>2024-12-19T10:59:37Z</time>
      </trkpt>
      <trkpt lat="47.91946" lon="-2.46272">
        <ele>74.7</ele>
        <time>2024-12-19T10:59:38Z</time>
      </trkpt>
      <trkpt lat="47.91946" lon="-2.46272">
        <ele>74.7</ele>
        <time>2024-12-19T10:59:39Z</time>
      </trkpt>
      <trkpt lat="47.91946" lon="-2.46272">
        <ele>74.7</ele>
        <time>2024-12-19T10:59:40Z</time>
      </trkpt>
      <trkpt lat="47.91946" lon="-2.46272">
        <ele>74.7</ele>
        <time>2024-12-19T10:59:41Z</time>
      </trkpt>
      <trkpt lat="47.91946" lon="-2.46272">
        <ele>74.7</ele>
        <time>2024-12-19T10:59:42Z</time>
      </trkpt>
      <trkpt lat="47.91946" lon="-2.46272">
        <ele>74.7</ele>
        <time>2024-12-19T10:59:43Z</time>
      </trkpt>
      <trkpt lat="47.91946" lon="-2.46272">
        <ele>74.7</ele>
        <time>2024-12-19T10:59:44Z</time>
      </trkpt>
      <trkpt lat="47.91946" lon="-2.46272">
        <ele>74.7</ele>
        <time>2024-12-19T10:59:45Z</time>
      </trkpt>
      <trkpt lat="47.91946" lon="-2.46272">
        <ele>74.7</ele>
        <time>2024-12-19T10:59:46Z</time>
      </trkpt>
      <trkpt lat="47.91946" lon="-2.46272">
        <ele>74.7</ele>
        <time>2024-12-19T10:59:47Z</time>
      </trkpt>
      <trkpt lat="47.91946" lon="-2.46272">
        <ele>74.7</ele>
        <time>2024-12-19T10:59:48Z</time>
      </trkpt>
      <trkpt lat="47.91946" lon="-2.46272">
        <ele>74.7</ele>
        <time>2024-12-19T10:59:49Z</time>
      </trkpt>
      <trkpt lat="47.91946" lon="-2.46272">
        <ele>74.7</ele>
        <time>2024-12-19T10:59:50Z</time>
      </trkpt>
      <trkpt lat="47.91946" lon="-2.46272">
        <ele>74.7</ele>
        <time>2024-12-19T10:59:51Z</time>
      </trkpt>
      <trkpt lat="47.91946" lon="-2.46272">
        <ele>74.7</ele>
        <time>2024-12-19T10:59:52Z</time>
      </trkpt>
      <trkpt lat="47.91946" lon="-2.46272">
        <ele>74.7</ele>
        <time>2024-12-19T10:59:53Z</time>
      </trkpt>
      <trkpt lat="47.91946" lon="-2.46272">
        <ele>74.7</ele>
        <time>2024-12-19T10:59:54Z</time>
      </trkpt>
      <trkpt lat="47.91946" lon="-2.46272">
        <ele>74.7</ele>
        <time>2024-12-19T10:59:55Z</time>
      </trkpt>
      <trkpt lat="47.91946" lon="-2.46272">
        <ele>74.7</ele>
        <time>2024-12-19T10:59:56Z</time>
      </trkpt>
      <trkpt lat="47.91946" lon="-2.46272">
        <ele>74.7</ele>
        <time>2024-12-19T10:59:57Z</time>
      </trkpt>
      <trkpt lat="47.91946" lon="-2.46272">
        <ele>74.7</ele>
        <time>2024-12-19T10:59:58Z</time>
      </trkpt>
      <trkpt lat="47.91945" lon="-2.46274">
        <ele>74.8</ele>
        <time>2024-12-19T10:59:59Z</time>
      </trkpt>
      <trkpt lat="47.91944" lon="-2.46275">
        <ele>74.9</ele>
        <time>2024-12-19T11:00:00Z</time>
      </trkpt>
      <trkpt lat="47.91942" lon="-2.46275">
        <ele>74.8</ele>
        <time>2024-12-19T11:00:01Z</time>
      </trkpt>
      <trkpt lat="47.91941" lon="-2.46276">
        <ele>74.8</ele>
        <time>2024-12-19T11:00:02Z</time>
      </trkpt>
      <trkpt lat="47.9194" lon="-2.46276">
        <ele>74.8</ele>
        <time>2024-12-19T11:00:03Z</time>
      </trkpt>
      <trkpt lat="47.91938" lon="-2.46278">
        <ele>74.8</ele>
        <time>2024-12-19T11:00:04Z</time>
      </trkpt>
      <trkpt lat="47.91937" lon="-2.46279">
        <ele>74.7</ele>
        <time>2024-12-19T11:00:05Z</time>
      </trkpt>
      <trkpt lat="47.91936" lon="-2.4628">
        <ele>74.7</ele>
        <time>2024-12-19T11:00:06Z</time>
      </trkpt>
      <trkpt lat="47.91934" lon="-2.46281">
        <ele>74.7</ele>
        <time>2024-12-19T11:00:07Z</time>
      </trkpt>
      <trkpt lat="47.91934" lon="-2.46282">
        <ele>74.7</ele>
        <time>2024-12-19T11:00:08Z</time>
      </trkpt>
      <trkpt lat="47.91932" lon="-2.46284">
        <ele>74.7</ele>
        <time>2024-12-19T11:00:09Z</time>
      </trkpt>
      <trkpt lat="47.91931" lon="-2.46286">
        <ele>74.7</ele>
        <time>2024-12-19T11:00:10Z</time>
      </trkpt>
      <trkpt lat="47.9193" lon="-2.46286">
        <ele>74.6</ele>
        <time>2024-12-19T11:00:11Z</time>
      </trkpt>
      <trkpt lat="47.91929" lon="-2.46287">
        <ele>74.6</ele>
        <time>2024-12-19T11:00:12Z</time>
      </trkpt>
      <trkpt lat="47.91928" lon="-2.46287">
        <ele>74.6</ele>
        <time>2024-12-19T11:00:13Z</time>
      </trkpt>
      <trkpt lat="47.91927" lon="-2.46287">
        <ele>74.6</ele>
        <time>2024-12-19T11:00:14Z</time>
      </trkpt>
      <trkpt lat="47.91926" lon="-2.46287">
        <ele>74.6</ele>
        <time>2024-12-19T11:00:15Z</time>
      </trkpt>
      <trkpt lat="47.91925" lon="-2.46288">
        <ele>74.5</ele>
        <time>2024-12-19T11:00:16Z</time>
      </trkpt>
      <trkpt lat="47.91924" lon="-2.46289">
        <ele>74.5</ele>
        <time>2024-12-19T11:00:17Z</time>
      </trkpt>
      <trkpt lat="47.91923" lon="-2.46289">
        <ele>74.5</ele>
        <time>2024-12-19T11:00:18Z</time>
      </trkpt>
      <trkpt lat="47.91921" lon="-2.46289">
        <ele>74.5</ele>
        <time>2024-12-19T11:00:19Z</time>
      </trkpt>
      <trkpt lat="47.9192" lon="-2.46289">
        <ele>74.5</ele>
        <time>2024-12-19T11:00:20Z</time>
      </trkpt>
      <trkpt lat="47.91919" lon="-2.4629">
        <ele>74.5</ele>
        <time>2024-12-19T11:00:21Z</time>
      </trkpt>
      <trkpt lat="47.91918" lon="-2.4629">
        <ele>74.5</ele>
        <time>2024-12-19T11:00:22Z</time>
      </trkpt>
      <trkpt lat="47.91916" lon="-2.46291">
        <ele>74.4</ele>
        <time>2024-12-19T11:00:23Z</time>
      </trkpt>
      <trkpt lat="47.91915" lon="-2.46291">
        <ele>74.4</ele>
        <time>2024-12-19T11:00:24Z</time>
      </trkpt>
      <trkpt lat="47.91914" lon="-2.46292">
        <ele>74.3</ele>
        <time>2024-12-19T11:00:25Z</time>
      </trkpt>
      <trkpt lat="47.91913" lon="-2.46292">
        <ele>74.3</ele>
        <time>2024-12-19T11:00:26Z</time>
      </trkpt>
      <trkpt lat="47.91912" lon="-2.46292">
        <ele>74.2</ele>
        <time>2024-12-19T11:00:27Z</time>
      </trkpt>
      <trkpt lat="47.9191" lon="-2.46293">
        <ele>74.2</ele>
        <time>2024-12-19T11:00:28Z</time>
      </trkpt>
      <trkpt lat="47.9191" lon="-2.46294">
        <ele>74.2</ele>
        <time>2024-12-19T11:00:29Z</time>
      </trkpt>
      <trkpt lat="47.91909" lon="-2.46295">
        <ele>74.1</ele>
        <time>2024-12-19T11:00:30Z</time>
      </trkpt>
      <trkpt lat="47.91908" lon="-2.46296">
        <ele>74.1</ele>
        <time>2024-12-19T11:00:31Z</time>
      </trkpt>
      <trkpt lat="47.91907" lon="-2.46297">
        <ele>74.1</ele>
        <time>2024-12-19T11:00:32Z</time>
      </trkpt>
      <trkpt lat="47.91906" lon="-2.46298">
        <ele>74.1</ele>
        <time>2024-12-19T11:00:33Z</time>
      </trkpt>
      <trkpt lat="47.91905" lon="-2.463">
        <ele>74</ele>
        <time>2024-12-19T11:00:34Z</time>
      </trkpt>
      <trkpt lat="47.91903" lon="-2.46301">
        <ele>73.9</ele>
        <time>2024-12-19T11:00:35Z</time>
      </trkpt>
      <trkpt lat="47.91901" lon="-2.46302">
        <ele>73.8</ele>
        <time>2024-12-19T11:00:36Z</time>
      </trkpt>
      <trkpt lat="47.919" lon="-2.46303">
        <ele>73.7</ele>
        <time>2024-12-19T11:00:37Z</time>
      </trkpt>
      <trkpt lat="47.91898" lon="-2.46304">
        <ele>73.7</ele>
        <time>2024-12-19T11:00:38Z</time>
      </trkpt>
      <trkpt lat="47.91897" lon="-2.46305">
        <ele>73.6</ele>
        <time>2024-12-19T11:00:39Z</time>
      </trkpt>
      <trkpt lat="47.91896" lon="-2.46306">
        <ele>73.5</ele>
        <time>2024-12-19T11:00:40Z</time>
      </trkpt>
      <trkpt lat="47.91895" lon="-2.46306">
        <ele>73.5</ele>
        <time>2024-12-19T11:00:41Z</time>
      </trkpt>
      <trkpt lat="47.91894" lon="-2.46307">
        <ele>73.4</ele>
        <time>2024-12-19T11:00:42Z</time>
      </trkpt>
      <trkpt lat="47.91893" lon="-2.46307">
        <ele>73.3</ele>
        <time>2024-12-19T11:00:43Z</time>
      </trkpt>
      <trkpt lat="47.91892" lon="-2.46308">
        <ele>73.3</ele>
        <time>2024-12-19T11:00:44Z</time>
      </trkpt>
      <trkpt lat="47.9189" lon="-2.46309">
        <ele>73.2</ele>
        <time>2024-12-19T11:00:45Z</time>
      </trkpt>
      <trkpt lat="47.91889" lon="-2.4631">
        <ele>73.2</ele>
        <time>2024-12-19T11:00:46Z</time>
      </trkpt>
      <trkpt lat="47.91888" lon="-2.46311">
        <ele>73.2</ele>
        <time>2024-12-19T11:00:47Z</time>
      </trkpt>
      <trkpt lat="47.91887" lon="-2.46312">
        <ele>73.1</ele>
        <time>2024-12-19T11:00:48Z</time>
      </trkpt>
      <trkpt lat="47.91886" lon="-2.46312">
        <ele>73.1</ele>
        <time>2024-12-19T11:00:49Z</time>
      </trkpt>
      <trkpt lat="47.91885" lon="-2.46313">
        <ele>73.1</ele>
        <time>2024-12-19T11:00:50Z</time>
      </trkpt>
      <trkpt lat="47.91884" lon="-2.46313">
        <ele>73</ele>
        <time>2024-12-19T11:00:51Z</time>
      </trkpt>
      <trkpt lat="47.91883" lon="-2.46313">
        <ele>73</ele>
        <time>2024-12-19T11:00:52Z</time>
      </trkpt>
      <trkpt lat="47.91882" lon="-2.46314">
        <ele>72.9</ele>
        <time>2024-12-19T11:00:53Z</time>
      </trkpt>
      <trkpt lat="47.91881" lon="-2.46314">
        <ele>72.9</ele>
        <time>2024-12-19T11:00:54Z</time>
      </trkpt>
      <trkpt lat="47.9188" lon="-2.46314">
        <ele>72.9</ele>
        <time>2024-12-19T11:00:55Z</time>
      </trkpt>
      <trkpt lat="47.91879" lon="-2.46315">
        <ele>72.8</ele>
        <time>2024-12-19T11:00:56Z</time>
      </trkpt>
      <trkpt lat="47.91878" lon="-2.46315">
        <ele>72.8</ele>
        <time>2024-12-19T11:00:57Z</time>
      </trkpt>
      <trkpt lat="47.91876" lon="-2.46315">
        <ele>72.8</ele>
        <time>2024-12-19T11:00:58Z</time>
      </trkpt>
      <trkpt lat="47.91875" lon="-2.46316">
        <ele>72.7</ele>
        <time>2024-12-19T11:00:59Z</time>
      </trkpt>
      <trkpt lat="47.91874" lon="-2.46316">
        <ele>72.7</ele>
        <time>2024-12-19T11:01:00Z</time>
      </trkpt>
      <trkpt lat="47.91873" lon="-2.46317">
        <ele>72.7</ele>
        <time>2024-12-19T11:01:01Z</time>
      </trkpt>
      <trkpt lat="47.91872" lon="-2.46318">
        <ele>72.8</ele>
        <time>2024-12-19T11:01:02Z</time>
      </trkpt>
      <trkpt lat="47.91871" lon="-2.46319">
        <ele>72.8</ele>
        <time>2024-12-19T11:01:03Z</time>
      </trkpt>
      <trkpt lat="47.9187" lon="-2.4632">
        <ele>72.9</ele>
        <time>2024-12-19T11:01:04Z</time>
      </trkpt>
      <trkpt lat="47.91868" lon="-2.46321">
        <ele>72.9</ele>
        <time>2024-12-19T11:01:05Z</time>
      </trkpt>
      <trkpt lat="47.91867" lon="-2.46322">
        <ele>72.9</ele>
        <time>2024-12-19T11:01:06Z</time>
      </trkpt>
      <trkpt lat="47.91866" lon="-2.46322">
        <ele>72.9</ele>
        <time>2024-12-19T11:01:07Z</time>
      </trkpt>
      <trkpt lat="47.91865" lon="-2.46323">
        <ele>73</ele>
        <time>2024-12-19T11:01:08Z</time>
      </trkpt>
      <trkpt lat="47.91863" lon="-2.46323">
        <ele>73</ele>
        <time>2024-12-19T11:01:09Z</time>
      </trkpt>
      <trkpt lat="47.91862" lon="-2.46324">
        <ele>73</ele>
        <time>2024-12-19T11:01:10Z</time>
      </trkpt>
      <trkpt lat="47.91861" lon="-2.46325">
        <ele>73.1</ele>
        <time>2024-12-19T11:01:11Z</time>
      </trkpt>
      <trkpt lat="47.9186" lon="-2.46325">
        <ele>73</ele>
        <time>2024-12-19T11:01:12Z</time>
      </trkpt>
      <trkpt lat="47.91859" lon="-2.46326">
        <ele>73</ele>
        <time>2024-12-19T11:01:13Z</time>
      </trkpt>
      <trkpt lat="47.91858" lon="-2.46326">
        <ele>73</ele>
        <time>2024-12-19T11:01:14Z</time>
      </trkpt>
      <trkpt lat="47.91857" lon="-2.46327">
        <ele>73</ele>
        <time>2024-12-19T11:01:15Z</time>
      </trkpt>
      <trkpt lat="47.91855" lon="-2.46328">
        <ele>73</ele>
        <time>2024-12-19T11:01:16Z</time>
      </trkpt>
      <trkpt lat="47.91854" lon="-2.46328">
        <ele>73</ele>
        <time>2024-12-19T11:01:17Z</time>
      </trkpt>
      <trkpt lat="47.91853" lon="-2.46329">
        <ele>73</ele>
        <time>2024-12-19T11:01:18Z</time>
      </trkpt>
      <trkpt lat="47.91852" lon="-2.4633">
        <ele>73</ele>
        <time>2024-12-19T11:01:19Z</time>
      </trkpt>
      <trkpt lat="47.91851" lon="-2.4633">
        <ele>73</ele>
        <time>2024-12-19T11:01:20Z</time>
      </trkpt>
      <trkpt lat="47.9185" lon="-2.46331">
        <ele>72.9</ele>
        <time>2024-12-19T11:01:21Z</time>
      </trkpt>
      <trkpt lat="47.91849" lon="-2.46331">
        <ele>72.9</ele>
        <time>2024-12-19T11:01:22Z</time>
      </trkpt>
      <trkpt lat="47.91848" lon="-2.46331">
        <ele>72.8</ele>
        <time>2024-12-19T11:01:23Z</time>
      </trkpt>
      <trkpt lat="47.91847" lon="-2.46332">
        <ele>72.8</ele>
        <time>2024-12-19T11:01:24Z</time>
      </trkpt>
      <trkpt lat="47.91845" lon="-2.46332">
        <ele>72.8</ele>
        <time>2024-12-19T11:01:25Z</time>
      </trkpt>
      <trkpt lat="47.91844" lon="-2.46333">
        <ele>72.7</ele>
        <time>2024-12-19T11:01:26Z</time>
      </trkpt>
      <trkpt lat="47.91842" lon="-2.46333">
        <ele>72.7</ele>
        <time>2024-12-19T11:01:27Z</time>
      </trkpt>
      <trkpt lat="47.91841" lon="-2.46334">
        <ele>72.6</ele>
        <time>2024-12-19T11:01:28Z</time>
      </trkpt>
      <trkpt lat="47.9184" lon="-2.46334">
        <ele>72.5</ele>
        <time>2024-12-19T11:01:29Z</time>
      </trkpt>
      <trkpt lat="47.91839" lon="-2.46334">
        <ele>72.4</ele>
        <time>2024-12-19T11:01:30Z</time>
      </trkpt>
      <trkpt lat="47.91837" lon="-2.46334">
        <ele>72.3</ele>
        <time>2024-12-19T11:01:31Z</time>
      </trkpt>
      <trkpt lat="47.91836" lon="-2.46334">
        <ele>72.2</ele>
        <time>2024-12-19T11:01:32Z</time>
      </trkpt>
      <trkpt lat="47.91835" lon="-2.46335">
        <ele>72.2</ele>
        <time>2024-12-19T11:01:33Z</time>
      </trkpt>
      <trkpt lat="47.91834" lon="-2.46336">
        <ele>72.1</ele>
        <time>2024-12-19T11:01:34Z</time>
      </trkpt>
      <trkpt lat="47.91833" lon="-2.46336">
        <ele>72.1</ele>
        <time>2024-12-19T11:01:35Z</time>
      </trkpt>
      <trkpt lat="47.91831" lon="-2.46337">
        <ele>72.1</ele>
        <time>2024-12-19T11:01:36Z</time>
      </trkpt>
      <trkpt lat="47.9183" lon="-2.46338">
        <ele>72.2</ele>
        <time>2024-12-19T11:01:37Z</time>
      </trkpt>
      <trkpt lat="47.91828" lon="-2.46338">
        <ele>72.2</ele>
        <time>2024-12-19T11:01:38Z</time>
      </trkpt>
      <trkpt lat="47.91827" lon="-2.46338">
        <ele>72.2</ele>
        <time>2024-12-19T11:01:39Z</time>
      </trkpt>
      <trkpt lat="47.91826" lon="-2.46338">
        <ele>72.2</ele>
        <time>2024-12-19T11:01:40Z</time>
      </trkpt>
      <trkpt lat="47.91824" lon="-2.46338">
        <ele>72.2</ele>
        <time>2024-12-19T11:01:41Z</time>
      </trkpt>
      <trkpt lat="47.91823" lon="-2.46339">
        <ele>72.2</ele>
        <time>2024-12-19T11:01:42Z</time>
      </trkpt>
      <trkpt lat="47.91822" lon="-2.46339">
        <ele>72.2</ele>
        <time>2024-12-19T11:01:43Z</time>
      </trkpt>
      <trkpt lat="47.91821" lon="-2.46339">
        <ele>72.2</ele>
        <time>2024-12-19T11:01:44Z</time>
      </trkpt>
      <trkpt lat="47.9182" lon="-2.4634">
        <ele>72.2</ele>
        <time>2024-12-19T11:01:45Z</time>
      </trkpt>
      <trkpt lat="47.91819" lon="-2.4634">
        <ele>72.3</ele>
        <time>2024-12-19T11:01:46Z</time>
      </trkpt>
      <trkpt lat="47.91818" lon="-2.46341">
        <ele>72.3</ele>
        <time>2024-12-19T11:01:47Z</time>
      </trkpt>
      <trkpt lat="47.91817" lon="-2.46341">
        <ele>72.3</ele>
        <time>2024-12-19T11:01:48Z</time>
      </trkpt>
      <trkpt lat="47.91816" lon="-2.46341">
        <ele>72.3</ele>
        <time>2024-12-19T11:01:49Z</time>
      </trkpt>
      <trkpt lat="47.91814" lon="-2.46342">
        <ele>72.3</ele>
        <time>2024-12-19T11:01:50Z</time>
      </trkpt>
      <trkpt lat="47.91813" lon="-2.46342">
        <ele>72.3</ele>
        <time>2024-12-19T11:01:51Z</time>
      </trkpt>
      <trkpt lat="47.91812" lon="-2.46343">
        <ele>72.3</ele>
        <time>2024-12-19T11:01:52Z</time>
      </trkpt>
      <trkpt lat="47.9181" lon="-2.46344">
        <ele>72.4</ele>
        <time>2024-12-19T11:01:53Z</time>
      </trkpt>
      <trkpt lat="47.91808" lon="-2.46345">
        <ele>72.4</ele>
        <time>2024-12-19T11:01:54Z</time>
      </trkpt>
      <trkpt lat="47.91807" lon="-2.46346">
        <ele>72.4</ele>
        <time>2024-12-19T11:01:55Z</time>
      </trkpt>
      <trkpt lat="47.91806" lon="-2.46346">
        <ele>72.5</ele>
        <time>2024-12-19T11:01:56Z</time>
      </trkpt>
      <trkpt lat="47.91805" lon="-2.46347">
        <ele>72.6</ele>
        <time>2024-12-19T11:01:57Z</time>
      </trkpt>
      <trkpt lat="47.91803" lon="-2.46348">
        <ele>72.7</ele>
        <time>2024-12-19T11:01:58Z</time>
      </trkpt>
      <trkpt lat="47.91802" lon="-2.46348">
        <ele>72.8</ele>
        <time>2024-12-19T11:01:59Z</time>
      </trkpt>
      <trkpt lat="47.91801" lon="-2.46349">
        <ele>72.9</ele>
        <time>2024-12-19T11:02:00Z</time>
      </trkpt>
      <trkpt lat="47.918" lon="-2.46349">
        <ele>73</ele>
        <time>2024-12-19T11:02:01Z</time>
      </trkpt>
      <trkpt lat="47.91798" lon="-2.4635">
        <ele>73.1</ele>
        <time>2024-12-19T11:02:02Z</time>
      </trkpt>
      <trkpt lat="47.91797" lon="-2.46351">
        <ele>73.2</ele>
        <time>2024-12-19T11:02:03Z</time>
      </trkpt>
      <trkpt lat="47.91796" lon="-2.46352">
        <ele>73.4</ele>
        <time>2024-12-19T11:02:04Z</time>
      </trkpt>
      <trkpt lat="47.91794" lon="-2.46352">
        <ele>73.5</ele>
        <time>2024-12-19T11:02:05Z</time>
      </trkpt>
      <trkpt lat="47.91793" lon="-2.46353">
        <ele>73.6</ele>
        <time>2024-12-19T11:02:06Z</time>
      </trkpt>
      <trkpt lat="47.91791" lon="-2.46353">
        <ele>73.7</ele>
        <time>2024-12-19T11:02:07Z</time>
      </trkpt>
      <trkpt lat="47.9179" lon="-2.46354">
        <ele>73.9</ele>
        <time>2024-12-19T11:02:08Z</time>
      </trkpt>
      <trkpt lat="47.91789" lon="-2.46354">
        <ele>74</ele>
        <time>2024-12-19T11:02:09Z</time>
      </trkpt>
      <trkpt lat="47.91788" lon="-2.46354">
        <ele>74.1</ele>
        <time>2024-12-19T11:02:10Z</time>
      </trkpt>
      <trkpt lat="47.91786" lon="-2.46355">
        <ele>74.2</ele>
        <time>2024-12-19T11:02:12Z</time>
      </trkpt>
      <trkpt lat="47.91785" lon="-2.46355">
        <ele>74.3</ele>
        <time>2024-12-19T11:02:13Z</time>
      </trkpt>
      <trkpt lat="47.91783" lon="-2.46356">
        <ele>74.4</ele>
        <time>2024-12-19T11:02:14Z</time>
      </trkpt>
      <trkpt lat="47.91782" lon="-2.46356">
        <ele>74.5</ele>
        <time>2024-12-19T11:02:15Z</time>
      </trkpt>
      <trkpt lat="47.91781" lon="-2.46356">
        <ele>74.6</ele>
        <time>2024-12-19T11:02:16Z</time>
      </trkpt>
      <trkpt lat="47.9178" lon="-2.46356">
        <ele>74.7</ele>
        <time>2024-12-19T11:02:17Z</time>
      </trkpt>
      <trkpt lat="47.91778" lon="-2.46356">
        <ele>74.8</ele>
        <time>2024-12-19T11:02:18Z</time>
      </trkpt>
      <trkpt lat="47.91777" lon="-2.46356">
        <ele>74.9</ele>
        <time>2024-12-19T11:02:19Z</time>
      </trkpt>
      <trkpt lat="47.91776" lon="-2.46356">
        <ele>74.9</ele>
        <time>2024-12-19T11:02:20Z</time>
      </trkpt>
      <trkpt lat="47.91774" lon="-2.46357">
        <ele>75</ele>
        <time>2024-12-19T11:02:22Z</time>
      </trkpt>
      <trkpt lat="47.91773" lon="-2.46358">
        <ele>75.1</ele>
        <time>2024-12-19T11:02:23Z</time>
      </trkpt>
      <trkpt lat="47.91771" lon="-2.46359">
        <ele>75.2</ele>
        <time>2024-12-19T11:02:24Z</time>
      </trkpt>
      <trkpt lat="47.9177" lon="-2.46359">
        <ele>75.2</ele>
        <time>2024-12-19T11:02:25Z</time>
      </trkpt>
      <trkpt lat="47.91768" lon="-2.4636">
        <ele>75.3</ele>
        <time>2024-12-19T11:02:26Z</time>
      </trkpt>
      <trkpt lat="47.91767" lon="-2.4636">
        <ele>75.4</ele>
        <time>2024-12-19T11:02:27Z</time>
      </trkpt>
      <trkpt lat="47.91766" lon="-2.4636">
        <ele>75.4</ele>
        <time>2024-12-19T11:02:28Z</time>
      </trkpt>
      <trkpt lat="47.91764" lon="-2.4636">
        <ele>75.5</ele>
        <time>2024-12-19T11:02:29Z</time>
      </trkpt>
      <trkpt lat="47.91763" lon="-2.46361">
        <ele>75.5</ele>
        <time>2024-12-19T11:02:30Z</time>
      </trkpt>
      <trkpt lat="47.91762" lon="-2.46361">
        <ele>75.6</ele>
        <time>2024-12-19T11:02:31Z</time>
      </trkpt>
      <trkpt lat="47.91761" lon="-2.46362">
        <ele>75.6</ele>
        <time>2024-12-19T11:02:32Z</time>
      </trkpt>
      <trkpt lat="47.9176" lon="-2.46363">
        <ele>75.7</ele>
        <time>2024-12-19T11:02:33Z</time>
      </trkpt>
      <trkpt lat="47.91759" lon="-2.46363">
        <ele>75.7</ele>
        <time>2024-12-19T11:02:34Z</time>
      </trkpt>
      <trkpt lat="47.91757" lon="-2.46364">
        <ele>75.8</ele>
        <time>2024-12-19T11:02:35Z</time>
      </trkpt>
      <trkpt lat="47.91756" lon="-2.46364">
        <ele>75.9</ele>
        <time>2024-12-19T11:02:36Z</time>
      </trkpt>
      <trkpt lat="47.91755" lon="-2.46364">
        <ele>75.9</ele>
        <time>2024-12-19T11:02:37Z</time>
      </trkpt>
      <trkpt lat="47.91753" lon="-2.46365">
        <ele>76</ele>
        <time>2024-12-19T11:02:38Z</time>
      </trkpt>
      <trkpt lat="47.91752" lon="-2.46365">
        <ele>76</ele>
        <time>2024-12-19T11:02:39Z</time>
      </trkpt>
      <trkpt lat="47.91752" lon="-2.46365">
        <ele>76</ele>
        <time>2024-12-19T11:02:40Z</time>
      </trkpt>
      <trkpt lat="47.91751" lon="-2.46365">
        <ele>76.1</ele>
        <time>2024-12-19T11:02:41Z</time>
      </trkpt>
      <trkpt lat="47.9175" lon="-2.46365">
        <ele>76.2</ele>
        <time>2024-12-19T11:02:42Z</time>
      </trkpt>
      <trkpt lat="47.91748" lon="-2.46366">
        <ele>76.3</ele>
        <time>2024-12-19T11:02:43Z</time>
      </trkpt>
      <trkpt lat="47.91747" lon="-2.46366">
        <ele>76.4</ele>
        <time>2024-12-19T11:02:44Z</time>
      </trkpt>
      <trkpt lat="47.91746" lon="-2.46366">
        <ele>76.5</ele>
        <time>2024-12-19T11:02:45Z</time>
      </trkpt>
      <trkpt lat="47.91745" lon="-2.46367">
        <ele>76.6</ele>
        <time>2024-12-19T11:02:46Z</time>
      </trkpt>
      <trkpt lat="47.91744" lon="-2.46367">
        <ele>76.7</ele>
        <time>2024-12-19T11:02:47Z</time>
      </trkpt>
      <trkpt lat="47.91743" lon="-2.46368">
        <ele>76.8</ele>
        <time>2024-12-19T11:02:48Z</time>
      </trkpt>
      <trkpt lat="47.91742" lon="-2.46368">
        <ele>76.8</ele>
        <time>2024-12-19T11:02:49Z</time>
      </trkpt>
      <trkpt lat="47.91741" lon="-2.46369">
        <ele>76.9</ele>
        <time>2024-12-19T11:02:50Z</time>
      </trkpt>
      <trkpt lat="47.9174" lon="-2.46369">
        <ele>77</ele>
        <time>2024-12-19T11:02:51Z</time>
      </trkpt>
      <trkpt lat="47.91739" lon="-2.46369">
        <ele>77.1</ele>
        <time>2024-12-19T11:02:52Z</time>
      </trkpt>
      <trkpt lat="47.91738" lon="-2.46369">
        <ele>77.1</ele>
        <time>2024-12-19T11:02:53Z</time>
      </trkpt>
      <trkpt lat="47.91737" lon="-2.46369">
        <ele>77.2</ele>
        <time>2024-12-19T11:02:54Z</time>
      </trkpt>
      <trkpt lat="47.91736" lon="-2.46369">
        <ele>77.3</ele>
        <time>2024-12-19T11:02:55Z</time>
      </trkpt>
      <trkpt lat="47.91735" lon="-2.4637">
        <ele>77.4</ele>
        <time>2024-12-19T11:02:56Z</time>
      </trkpt>
      <trkpt lat="47.91734" lon="-2.46371">
        <ele>77.5</ele>
        <time>2024-12-19T11:02:57Z</time>
      </trkpt>
      <trkpt lat="47.91733" lon="-2.46371">
        <ele>77.6</ele>
        <time>2024-12-19T11:02:58Z</time>
      </trkpt>
      <trkpt lat="47.91732" lon="-2.46372">
        <ele>77.7</ele>
        <time>2024-12-19T11:02:59Z</time>
      </trkpt>
      <trkpt lat="47.91731" lon="-2.46372">
        <ele>77.7</ele>
        <time>2024-12-19T11:03:00Z</time>
      </trkpt>
      <trkpt lat="47.9173" lon="-2.46371">
        <ele>77.8</ele>
        <time>2024-12-19T11:03:01Z</time>
      </trkpt>
      <trkpt lat="47.91729" lon="-2.46371">
        <ele>77.9</ele>
        <time>2024-12-19T11:03:02Z</time>
      </trkpt>
      <trkpt lat="47.91728" lon="-2.46372">
        <ele>77.9</ele>
        <time>2024-12-19T11:03:03Z</time>
      </trkpt>
      <trkpt lat="47.91727" lon="-2.46372">
        <ele>78</ele>
        <time>2024-12-19T11:03:04Z</time>
      </trkpt>
      <trkpt lat="47.91726" lon="-2.46372">
        <ele>78.1</ele>
        <time>2024-12-19T11:03:05Z</time>
      </trkpt>
      <trkpt lat="47.91725" lon="-2.46373">
        <ele>78.2</ele>
        <time>2024-12-19T11:03:06Z</time>
      </trkpt>
      <trkpt lat="47.91724" lon="-2.46373">
        <ele>78.3</ele>
        <time>2024-12-19T11:03:07Z</time>
      </trkpt>
      <trkpt lat="47.91722" lon="-2.46373">
        <ele>78.4</ele>
        <time>2024-12-19T11:03:08Z</time>
      </trkpt>
      <trkpt lat="47.91721" lon="-2.46373">
        <ele>78.5</ele>
        <time>2024-12-19T11:03:09Z</time>
      </trkpt>
      <trkpt lat="47.91719" lon="-2.46374">
        <ele>78.6</ele>
        <time>2024-12-19T11:03:10Z</time>
      </trkpt>
      <trkpt lat="47.91718" lon="-2.46374">
        <ele>78.7</ele>
        <time>2024-12-19T11:03:11Z</time>
      </trkpt>
      <trkpt lat="47.91717" lon="-2.46375">
        <ele>78.8</ele>
        <time>2024-12-19T11:03:12Z</time>
      </trkpt>
      <trkpt lat="47.91716" lon="-2.46375">
        <ele>78.8</ele>
        <time>2024-12-19T11:03:13Z</time>
      </trkpt>
      <trkpt lat="47.91715" lon="-2.46376">
        <ele>78.9</ele>
        <time>2024-12-19T11:03:14Z</time>
      </trkpt>
      <trkpt lat="47.91713" lon="-2.46376">
        <ele>79</ele>
        <time>2024-12-19T11:03:15Z</time>
      </trkpt>
      <trkpt lat="47.91712" lon="-2.46376">
        <ele>79.1</ele>
        <time>2024-12-19T11:03:16Z</time>
      </trkpt>
      <trkpt lat="47.91711" lon="-2.46376">
        <ele>79.1</ele>
        <time>2024-12-19T11:03:17Z</time>
      </trkpt>
      <trkpt lat="47.91709" lon="-2.46376">
        <ele>79.2</ele>
        <time>2024-12-19T11:03:18Z</time>
      </trkpt>
      <trkpt lat="47.91708" lon="-2.46377">
        <ele>79.3</ele>
        <time>2024-12-19T11:03:19Z</time>
      </trkpt>
      <trkpt lat="47.91707" lon="-2.46377">
        <ele>79.3</ele>
        <time>2024-12-19T11:03:20Z</time>
      </trkpt>
      <trkpt lat="47.91706" lon="-2.46378">
        <ele>79.4</ele>
        <time>2024-12-19T11:03:21Z</time>
      </trkpt>
      <trkpt lat="47.91705" lon="-2.46378">
        <ele>79.5</ele>
        <time>2024-12-19T11:03:22Z</time>
      </trkpt>
      <trkpt lat="47.91704" lon="-2.46378">
        <ele>79.5</ele>
        <time>2024-12-19T11:03:23Z</time>
      </trkpt>
      <trkpt lat="47.91702" lon="-2.46379">
        <ele>79.6</ele>
        <time>2024-12-19T11:03:24Z</time>
      </trkpt>
      <trkpt lat="47.91701" lon="-2.46379">
        <ele>79.7</ele>
        <time>2024-12-19T11:03:25Z</time>
      </trkpt>
      <trkpt lat="47.917" lon="-2.46379">
        <ele>79.7</ele>
        <time>2024-12-19T11:03:26Z</time>
      </trkpt>
      <trkpt lat="47.91699" lon="-2.4638">
        <ele>79.8</ele>
        <time>2024-12-19T11:03:27Z</time>
      </trkpt>
      <trkpt lat="47.91698" lon="-2.4638">
        <ele>79.8</ele>
        <time>2024-12-19T11:03:28Z</time>
      </trkpt>
      <trkpt lat="47.91697" lon="-2.46381">
        <ele>79.9</ele>
        <time>2024-12-19T11:03:29Z</time>
      </trkpt>
      <trkpt lat="47.91695" lon="-2.46382">
        <ele>80</ele>
        <time>2024-12-19T11:03:30Z</time>
      </trkpt>
      <trkpt lat="47.91694" lon="-2.46382">
        <ele>80</ele>
        <time>2024-12-19T11:03:31Z</time>
      </trkpt>
      <trkpt lat="47.91693" lon="-2.46382">
        <ele>80</ele>
        <time>2024-12-19T11:03:32Z</time>
      </trkpt>
      <trkpt lat="47.91691" lon="-2.46382">
        <ele>80</ele>
        <time>2024-12-19T11:03:33Z</time>
      </trkpt>
      <trkpt lat="47.9169" lon="-2.46382">
        <ele>80</ele>
        <time>2024-12-19T11:03:34Z</time>
      </trkpt>
      <trkpt lat="47.91689" lon="-2.46382">
        <ele>80</ele>
        <time>2024-12-19T11:03:35Z</time>
      </trkpt>
      <trkpt lat="47.91688" lon="-2.46383">
        <ele>80.1</ele>
        <time>2024-12-19T11:03:36Z</time>
      </trkpt>
      <trkpt lat="47.91687" lon="-2.46383">
        <ele>80.1</ele>
        <time>2024-12-19T11:03:37Z</time>
      </trkpt>
      <trkpt lat="47.91686" lon="-2.46384">
        <ele>80.1</ele>
        <time>2024-12-19T11:03:38Z</time>
      </trkpt>
      <trkpt lat="47.91684" lon="-2.46384">
        <ele>80.1</ele>
        <time>2024-12-19T11:03:39Z</time>
      </trkpt>
      <trkpt lat="47.91683" lon="-2.46384">
        <ele>80.1</ele>
        <time>2024-12-19T11:03:40Z</time>
      </trkpt>
      <trkpt lat="47.91682" lon="-2.46384">
        <ele>80.1</ele>
        <time>2024-12-19T11:03:41Z</time>
      </trkpt>
      <trkpt lat="47.9168" lon="-2.46385">
        <ele>80.1</ele>
        <time>2024-12-19T11:03:42Z</time>
      </trkpt>
      <trkpt lat="47.91679" lon="-2.46385">
        <ele>80.1</ele>
        <time>2024-12-19T11:03:43Z</time>
      </trkpt>
      <trkpt lat="47.91678" lon="-2.46386">
        <ele>80.1</ele>
        <time>2024-12-19T11:03:44Z</time>
      </trkpt>
      <trkpt lat="47.91677" lon="-2.46387">
        <ele>80.1</ele>
        <time>2024-12-19T11:03:45Z</time>
      </trkpt>
      <trkpt lat="47.91675" lon="-2.46387">
        <ele>80</ele>
        <time>2024-12-19T11:03:46Z</time>
      </trkpt>
      <trkpt lat="47.91674" lon="-2.46387">
        <ele>80</ele>
        <time>2024-12-19T11:03:47Z</time>
      </trkpt>
      <trkpt lat="47.91673" lon="-2.46388">
        <ele>80</ele>
        <time>2024-12-19T11:03:48Z</time>
      </trkpt>
      <trkpt lat="47.91672" lon="-2.46388">
        <ele>80</ele>
        <time>2024-12-19T11:03:49Z</time>
      </trkpt>
      <trkpt lat="47.91672" lon="-2.46388">
        <ele>80</ele>
        <time>2024-12-19T11:03:50Z</time>
      </trkpt>
      <trkpt lat="47.91672" lon="-2.46388">
        <ele>80</ele>
        <time>2024-12-19T11:03:51Z</time>
      </trkpt>
      <trkpt lat="47.9167" lon="-2.46389">
        <ele>80</ele>
        <time>2024-12-19T11:03:52Z</time>
      </trkpt>
      <trkpt lat="47.91669" lon="-2.46389">
        <ele>80</ele>
        <time>2024-12-19T11:03:53Z</time>
      </trkpt>
      <trkpt lat="47.91667" lon="-2.46389">
        <ele>80</ele>
        <time>2024-12-19T11:03:54Z</time>
      </trkpt>
      <trkpt lat="47.91666" lon="-2.46389">
        <ele>80</ele>
        <time>2024-12-19T11:03:55Z</time>
      </trkpt>
      <trkpt lat="47.91664" lon="-2.4639">
        <ele>80.1</ele>
        <time>2024-12-19T11:03:56Z</time>
      </trkpt>
      <trkpt lat="47.91663" lon="-2.4639">
        <ele>80.2</ele>
        <time>2024-12-19T11:03:57Z</time>
      </trkpt>
      <trkpt lat="47.91662" lon="-2.46391">
        <ele>80.2</ele>
        <time>2024-12-19T11:03:58Z</time>
      </trkpt>
      <trkpt lat="47.91661" lon="-2.46392">
        <ele>80.3</ele>
        <time>2024-12-19T11:03:59Z</time>
      </trkpt>
      <trkpt lat="47.91659" lon="-2.46393">
        <ele>80.4</ele>
        <time>2024-12-19T11:04:00Z</time>
      </trkpt>
      <trkpt lat="47.91658" lon="-2.46393">
        <ele>80.5</ele>
        <time>2024-12-19T11:04:01Z</time>
      </trkpt>
      <trkpt lat="47.91656" lon="-2.46393">
        <ele>80.5</ele>
        <time>2024-12-19T11:04:02Z</time>
      </trkpt>
      <trkpt lat="47.91655" lon="-2.46393">
        <ele>80.6</ele>
        <time>2024-12-19T11:04:03Z</time>
      </trkpt>
      <trkpt lat="47.91654" lon="-2.46394">
        <ele>80.6</ele>
        <time>2024-12-19T11:04:04Z</time>
      </trkpt>
      <trkpt lat="47.91653" lon="-2.46394">
        <ele>80.7</ele>
        <time>2024-12-19T11:04:05Z</time>
      </trkpt>
      <trkpt lat="47.91652" lon="-2.46394">
        <ele>80.7</ele>
        <time>2024-12-19T11:04:06Z</time>
      </trkpt>
      <trkpt lat="47.91651" lon="-2.46394">
        <ele>80.7</ele>
        <time>2024-12-19T11:04:07Z</time>
      </trkpt>
      <trkpt lat="47.9165" lon="-2.46393">
        <ele>80.8</ele>
        <time>2024-12-19T11:04:08Z</time>
      </trkpt>
      <trkpt lat="47.91649" lon="-2.46393">
        <ele>80.8</ele>
        <time>2024-12-19T11:04:09Z</time>
      </trkpt>
      <trkpt lat="47.91648" lon="-2.46393">
        <ele>80.8</ele>
        <time>2024-12-19T11:04:10Z</time>
      </trkpt>
      <trkpt lat="47.91647" lon="-2.46393">
        <ele>80.9</ele>
        <time>2024-12-19T11:04:11Z</time>
      </trkpt>
      <trkpt lat="47.91645" lon="-2.46393">
        <ele>80.9</ele>
        <time>2024-12-19T11:04:12Z</time>
      </trkpt>
      <trkpt lat="47.91644" lon="-2.46393">
        <ele>80.9</ele>
        <time>2024-12-19T11:04:13Z</time>
      </trkpt>
      <trkpt lat="47.91643" lon="-2.46393">
        <ele>81</ele>
        <time>2024-12-19T11:04:14Z</time>
      </trkpt>
      <trkpt lat="47.91643" lon="-2.46394">
        <ele>81</ele>
        <time>2024-12-19T11:04:15Z</time>
      </trkpt>
      <trkpt lat="47.91642" lon="-2.46394">
        <ele>81.1</ele>
        <time>2024-12-19T11:04:16Z</time>
      </trkpt>
      <trkpt lat="47.91641" lon="-2.46395">
        <ele>81.1</ele>
        <time>2024-12-19T11:04:17Z</time>
      </trkpt>
      <trkpt lat="47.91639" lon="-2.46395">
        <ele>81.2</ele>
        <time>2024-12-19T11:04:18Z</time>
      </trkpt>
      <trkpt lat="47.91638" lon="-2.46395">
        <ele>81.2</ele>
        <time>2024-12-19T11:04:19Z</time>
      </trkpt>
      <trkpt lat="47.91637" lon="-2.46395">
        <ele>81.2</ele>
        <time>2024-12-19T11:04:20Z</time>
      </trkpt>
      <trkpt lat="47.91635" lon="-2.46396">
        <ele>81.2</ele>
        <time>2024-12-19T11:04:21Z</time>
      </trkpt>
      <trkpt lat="47.91634" lon="-2.46396">
        <ele>81.3</ele>
        <time>2024-12-19T11:04:22Z</time>
      </trkpt>
      <trkpt lat="47.91633" lon="-2.46397">
        <ele>81.3</ele>
        <time>2024-12-19T11:04:23Z</time>
      </trkpt>
      <trkpt lat="47.91632" lon="-2.46398">
        <ele>81.3</ele>
        <time>2024-12-19T11:04:24Z</time>
      </trkpt>
      <trkpt lat="47.91631" lon="-2.46398">
        <ele>81.3</ele>
        <time>2024-12-19T11:04:25Z</time>
      </trkpt>
      <trkpt lat="47.9163" lon="-2.46399">
        <ele>81.4</ele>
        <time>2024-12-19T11:04:26Z</time>
      </trkpt>
      <trkpt lat="47.91628" lon="-2.464">
        <ele>81.4</ele>
        <time>2024-12-19T11:04:27Z</time>
      </trkpt>
      <trkpt lat="47.91627" lon="-2.46401">
        <ele>81.4</ele>
        <time>2024-12-19T11:04:28Z</time>
      </trkpt>
      <trkpt lat="47.91626" lon="-2.46401">
        <ele>81.4</ele>
        <time>2024-12-19T11:04:29Z</time>
      </trkpt>
      <trkpt lat="47.91624" lon="-2.46401">
        <ele>81.5</ele>
        <time>2024-12-19T11:04:30Z</time>
      </trkpt>
      <trkpt lat="47.91623" lon="-2.46402">
        <ele>81.5</ele>
        <time>2024-12-19T11:04:31Z</time>
      </trkpt>
      <trkpt lat="47.91621" lon="-2.46403">
        <ele>81.5</ele>
        <time>2024-12-19T11:04:32Z</time>
      </trkpt>
      <trkpt lat="47.9162" lon="-2.46404">
        <ele>81.5</ele>
        <time>2024-12-19T11:04:33Z</time>
      </trkpt>
      <trkpt lat="47.91619" lon="-2.46404">
        <ele>81.5</ele>
        <time>2024-12-19T11:04:34Z</time>
      </trkpt>
      <trkpt lat="47.91618" lon="-2.46405">
        <ele>81.6</ele>
        <time>2024-12-19T11:04:35Z</time>
      </trkpt>
      <trkpt lat="47.91617" lon="-2.46405">
        <ele>81.6</ele>
        <time>2024-12-19T11:04:36Z</time>
      </trkpt>
      <trkpt lat="47.91616" lon="-2.46405">
        <ele>81.6</ele>
        <time>2024-12-19T11:04:37Z</time>
      </trkpt>
      <trkpt lat="47.91614" lon="-2.46406">
        <ele>81.6</ele>
        <time>2024-12-19T11:04:38Z</time>
      </trkpt>
      <trkpt lat="47.91612" lon="-2.46407">
        <ele>81.6</ele>
        <time>2024-12-19T11:04:39Z</time>
      </trkpt>
      <trkpt lat="47.91611" lon="-2.46407">
        <ele>81.6</ele>
        <time>2024-12-19T11:04:40Z</time>
      </trkpt>
      <trkpt lat="47.9161" lon="-2.46407">
        <ele>81.6</ele>
        <time>2024-12-19T11:04:41Z</time>
      </trkpt>
      <trkpt lat="47.91608" lon="-2.46408">
        <ele>81.6</ele>
        <time>2024-12-19T11:04:42Z</time>
      </trkpt>
      <trkpt lat="47.91607" lon="-2.46408">
        <ele>81.6</ele>
        <time>2024-12-19T11:04:43Z</time>
      </trkpt>
      <trkpt lat="47.91605" lon="-2.46408">
        <ele>81.5</ele>
        <time>2024-12-19T11:04:44Z</time>
      </trkpt>
      <trkpt lat="47.91604" lon="-2.46409">
        <ele>81.5</ele>
        <time>2024-12-19T11:04:45Z</time>
      </trkpt>
      <trkpt lat="47.91603" lon="-2.46409">
        <ele>81.5</ele>
        <time>2024-12-19T11:04:46Z</time>
      </trkpt>
      <trkpt lat="47.91602" lon="-2.4641">
        <ele>81.5</ele>
        <time>2024-12-19T11:04:47Z</time>
      </trkpt>
      <trkpt lat="47.91601" lon="-2.4641">
        <ele>81.5</ele>
        <time>2024-12-19T11:04:48Z</time>
      </trkpt>
      <trkpt lat="47.916" lon="-2.46411">
        <ele>81.5</ele>
        <time>2024-12-19T11:04:49Z</time>
      </trkpt>
      <trkpt lat="47.91598" lon="-2.46411">
        <ele>81.4</ele>
        <time>2024-12-19T11:04:50Z</time>
      </trkpt>
      <trkpt lat="47.91597" lon="-2.4641">
        <ele>81.4</ele>
        <time>2024-12-19T11:04:51Z</time>
      </trkpt>
      <trkpt lat="47.91597" lon="-2.46408">
        <ele>81.3</ele>
        <time>2024-12-19T11:04:52Z</time>
      </trkpt>
      <trkpt lat="47.91597" lon="-2.46407">
        <ele>81.3</ele>
        <time>2024-12-19T11:04:53Z</time>
      </trkpt>
      <trkpt lat="47.91597" lon="-2.46405">
        <ele>81.3</ele>
        <time>2024-12-19T11:04:54Z</time>
      </trkpt>
      <trkpt lat="47.91597" lon="-2.46403">
        <ele>81.3</ele>
        <time>2024-12-19T11:04:55Z</time>
      </trkpt>
      <trkpt lat="47.91598" lon="-2.46402">
        <ele>81.2</ele>
        <time>2024-12-19T11:04:56Z</time>
      </trkpt>
      <trkpt lat="47.91598" lon="-2.46402">
        <ele>81.2</ele>
        <time>2024-12-19T11:04:57Z</time>
      </trkpt>
      <trkpt lat="47.91597" lon="-2.46402">
        <ele>81.2</ele>
        <time>2024-12-19T11:04:58Z</time>
      </trkpt>
      <trkpt lat="47.91597" lon="-2.46402">
        <ele>81.2</ele>
        <time>2024-12-19T11:04:59Z</time>
      </trkpt>
      <trkpt lat="47.91597" lon="-2.46403">
        <ele>81.2</ele>
        <time>2024-12-19T11:05:00Z</time>
      </trkpt>
      <trkpt lat="47.91597" lon="-2.46403">
        <ele>81.2</ele>
        <time>2024-12-19T11:05:01Z</time>
      </trkpt>
      <trkpt lat="47.91597" lon="-2.46402">
        <ele>81.2</ele>
        <time>2024-12-19T11:05:02Z</time>
      </trkpt>
      <trkpt lat="47.91597" lon="-2.46402">
        <ele>81.2</ele>
        <time>2024-12-19T11:05:03Z</time>
      </trkpt>
      <trkpt lat="47.91596" lon="-2.46402">
        <ele>81.2</ele>
        <time>2024-12-19T11:05:04Z</time>
      </trkpt>
      <trkpt lat="47.91595" lon="-2.46403">
        <ele>81.2</ele>
        <time>2024-12-19T11:05:05Z</time>
      </trkpt>
      <trkpt lat="47.91594" lon="-2.46403">
        <ele>81.2</ele>
        <time>2024-12-19T11:05:06Z</time>
      </trkpt>
      <trkpt lat="47.91593" lon="-2.46404">
        <ele>81.2</ele>
        <time>2024-12-19T11:05:07Z</time>
      </trkpt>
      <trkpt lat="47.91591" lon="-2.46405">
        <ele>81.2</ele>
        <time>2024-12-19T11:05:08Z</time>
      </trkpt>
      <trkpt lat="47.9159" lon="-2.46407">
        <ele>81.2</ele>
        <time>2024-12-19T11:05:09Z</time>
      </trkpt>
      <trkpt lat="47.91589" lon="-2.46408">
        <ele>81.1</ele>
        <time>2024-12-19T11:05:10Z</time>
      </trkpt>
      <trkpt lat="47.91588" lon="-2.46408">
        <ele>81.1</ele>
        <time>2024-12-19T11:05:11Z</time>
      </trkpt>
      <trkpt lat="47.91587" lon="-2.46409">
        <ele>81.1</ele>
        <time>2024-12-19T11:05:12Z</time>
      </trkpt>
      <trkpt lat="47.91586" lon="-2.46409">
        <ele>81.1</ele>
        <time>2024-12-19T11:05:13Z</time>
      </trkpt>
      <trkpt lat="47.91584" lon="-2.46409">
        <ele>81</ele>
        <time>2024-12-19T11:05:14Z</time>
      </trkpt>
      <trkpt lat="47.91583" lon="-2.4641">
        <ele>81</ele>
        <time>2024-12-19T11:05:15Z</time>
      </trkpt>
      <trkpt lat="47.91582" lon="-2.4641">
        <ele>80.9</ele>
        <time>2024-12-19T11:05:16Z</time>
      </trkpt>
      <trkpt lat="47.91581" lon="-2.46411">
        <ele>80.9</ele>
        <time>2024-12-19T11:05:17Z</time>
      </trkpt>
      <trkpt lat="47.91579" lon="-2.46412">
        <ele>80.8</ele>
        <time>2024-12-19T11:05:18Z</time>
      </trkpt>
      <trkpt lat="47.91578" lon="-2.46413">
        <ele>80.8</ele>
        <time>2024-12-19T11:05:19Z</time>
      </trkpt>
      <trkpt lat="47.91576" lon="-2.46414">
        <ele>80.7</ele>
        <time>2024-12-19T11:05:20Z</time>
      </trkpt>
      <trkpt lat="47.91575" lon="-2.46415">
        <ele>80.7</ele>
        <time>2024-12-19T11:05:21Z</time>
      </trkpt>
      <trkpt lat="47.91574" lon="-2.46415">
        <ele>80.6</ele>
        <time>2024-12-19T11:05:22Z</time>
      </trkpt>
      <trkpt lat="47.91573" lon="-2.46416">
        <ele>80.6</ele>
        <time>2024-12-19T11:05:23Z</time>
      </trkpt>
      <trkpt lat="47.91572" lon="-2.46416">
        <ele>80.6</ele>
        <time>2024-12-19T11:05:24Z</time>
      </trkpt>
      <trkpt lat="47.9157" lon="-2.46417">
        <ele>80.5</ele>
        <time>2024-12-19T11:05:25Z</time>
      </trkpt>
      <trkpt lat="47.91569" lon="-2.46417">
        <ele>80.5</ele>
        <time>2024-12-19T11:05:26Z</time>
      </trkpt>
      <trkpt lat="47.91568" lon="-2.46418">
        <ele>80.5</ele>
        <time>2024-12-19T11:05:27Z</time>
      </trkpt>
      <trkpt lat="47.91567" lon="-2.46418">
        <ele>80.4</ele>
        <time>2024-12-19T11:05:28Z</time>
      </trkpt>
      <trkpt lat="47.91566" lon="-2.46419">
        <ele>80.4</ele>
        <time>2024-12-19T11:05:29Z</time>
      </trkpt>
      <trkpt lat="47.91564" lon="-2.4642">
        <ele>80.3</ele>
        <time>2024-12-19T11:05:30Z</time>
      </trkpt>
      <trkpt lat="47.91563" lon="-2.46421">
        <ele>80.3</ele>
        <time>2024-12-19T11:05:31Z</time>
      </trkpt>
      <trkpt lat="47.91562" lon="-2.46422">
        <ele>80.2</ele>
        <time>2024-12-19T11:05:32Z</time>
      </trkpt>
      <trkpt lat="47.91561" lon="-2.46422">
        <ele>80.2</ele>
        <time>2024-12-19T11:05:33Z</time>
      </trkpt>
      <trkpt lat="47.9156" lon="-2.46422">
        <ele>80.1</ele>
        <time>2024-12-19T11:05:34Z</time>
      </trkpt>
      <trkpt lat="47.91558" lon="-2.46422">
        <ele>80.1</ele>
        <time>2024-12-19T11:05:35Z</time>
      </trkpt>
      <trkpt lat="47.91557" lon="-2.46423">
        <ele>80.1</ele>
        <time>2024-12-19T11:05:36Z</time>
      </trkpt>
      <trkpt lat="47.91556" lon="-2.46423">
        <ele>80</ele>
        <time>2024-12-19T11:05:37Z</time>
      </trkpt>
      <trkpt lat="47.91555" lon="-2.46424">
        <ele>80</ele>
        <time>2024-12-19T11:05:38Z</time>
      </trkpt>
      <trkpt lat="47.91554" lon="-2.46425">
        <ele>79.9</ele>
        <time>2024-12-19T11:05:39Z</time>
      </trkpt>
      <trkpt lat="47.91553" lon="-2.46426">
        <ele>79.9</ele>
        <time>2024-12-19T11:05:40Z</time>
      </trkpt>
      <trkpt lat="47.91551" lon="-2.46427">
        <ele>79.9</ele>
        <time>2024-12-19T11:05:41Z</time>
      </trkpt>
      <trkpt lat="47.9155" lon="-2.46428">
        <ele>79.8</ele>
        <time>2024-12-19T11:05:42Z</time>
      </trkpt>
      <trkpt lat="47.91549" lon="-2.46429">
        <ele>79.8</ele>
        <time>2024-12-19T11:05:43Z</time>
      </trkpt>
      <trkpt lat="47.91548" lon="-2.46429">
        <ele>79.7</ele>
        <time>2024-12-19T11:05:44Z</time>
      </trkpt>
      <trkpt lat="47.91547" lon="-2.4643">
        <ele>79.7</ele>
        <time>2024-12-19T11:05:45Z</time>
      </trkpt>
      <trkpt lat="47.91546" lon="-2.46431">
        <ele>79.6</ele>
        <time>2024-12-19T11:05:46Z</time>
      </trkpt>
      <trkpt lat="47.91545" lon="-2.46432">
        <ele>79.6</ele>
        <time>2024-12-19T11:05:47Z</time>
      </trkpt>
      <trkpt lat="47.91544" lon="-2.46433">
        <ele>79.6</ele>
        <time>2024-12-19T11:05:48Z</time>
      </trkpt>
      <trkpt lat="47.91543" lon="-2.46433">
        <ele>79.6</ele>
        <time>2024-12-19T11:05:49Z</time>
      </trkpt>
      <trkpt lat="47.91542" lon="-2.46433">
        <ele>79.5</ele>
        <time>2024-12-19T11:05:50Z</time>
      </trkpt>
      <trkpt lat="47.91541" lon="-2.46433">
        <ele>79.5</ele>
        <time>2024-12-19T11:05:51Z</time>
      </trkpt>
      <trkpt lat="47.91541" lon="-2.46434">
        <ele>79.5</ele>
        <time>2024-12-19T11:05:52Z</time>
      </trkpt>
      <trkpt lat="47.9154" lon="-2.46434">
        <ele>79.4</ele>
        <time>2024-12-19T11:05:53Z</time>
      </trkpt>
      <trkpt lat="47.91538" lon="-2.46435">
        <ele>79.4</ele>
        <time>2024-12-19T11:05:54Z</time>
      </trkpt>
      <trkpt lat="47.91537" lon="-2.46436">
        <ele>79.3</ele>
        <time>2024-12-19T11:05:55Z</time>
      </trkpt>
      <trkpt lat="47.91536" lon="-2.46437">
        <ele>79.3</ele>
        <time>2024-12-19T11:05:56Z</time>
      </trkpt>
      <trkpt lat="47.91534" lon="-2.46438">
        <ele>79.2</ele>
        <time>2024-12-19T11:05:57Z</time>
      </trkpt>
      <trkpt lat="47.91533" lon="-2.46439">
        <ele>79.2</ele>
        <time>2024-12-19T11:05:58Z</time>
      </trkpt>
      <trkpt lat="47.91531" lon="-2.4644">
        <ele>79.1</ele>
        <time>2024-12-19T11:05:59Z</time>
      </trkpt>
      <trkpt lat="47.91529" lon="-2.4644">
        <ele>79</ele>
        <time>2024-12-19T11:06:00Z</time>
      </trkpt>
      <trkpt lat="47.91528" lon="-2.46441">
        <ele>79</ele>
        <time>2024-12-19T11:06:01Z</time>
      </trkpt>
      <trkpt lat="47.91526" lon="-2.46442">
        <ele>79</ele>
        <time>2024-12-19T11:06:02Z</time>
      </trkpt>
      <trkpt lat="47.91525" lon="-2.46442">
        <ele>79</ele>
        <time>2024-12-19T11:06:03Z</time>
      </trkpt>
      <trkpt lat="47.91524" lon="-2.46443">
        <ele>79</ele>
        <time>2024-12-19T11:06:04Z</time>
      </trkpt>
      <trkpt lat="47.91522" lon="-2.46443">
        <ele>79</ele>
        <time>2024-12-19T11:06:05Z</time>
      </trkpt>
      <trkpt lat="47.91521" lon="-2.46444">
        <ele>79</ele>
        <time>2024-12-19T11:06:06Z</time>
      </trkpt>
      <trkpt lat="47.9152" lon="-2.46445">
        <ele>79</ele>
        <time>2024-12-19T11:06:07Z</time>
      </trkpt>
      <trkpt lat="47.91519" lon="-2.46446">
        <ele>79</ele>
        <time>2024-12-19T11:06:08Z</time>
      </trkpt>
      <trkpt lat="47.91518" lon="-2.46446">
        <ele>79</ele>
        <time>2024-12-19T11:06:09Z</time>
      </trkpt>
      <trkpt lat="47.91517" lon="-2.46446">
        <ele>79</ele>
        <time>2024-12-19T11:06:10Z</time>
      </trkpt>
      <trkpt lat="47.91516" lon="-2.46447">
        <ele>79.1</ele>
        <time>2024-12-19T11:06:11Z</time>
      </trkpt>
      <trkpt lat="47.91515" lon="-2.46447">
        <ele>79.1</ele>
        <time>2024-12-19T11:06:12Z</time>
      </trkpt>
      <trkpt lat="47.91514" lon="-2.46448">
        <ele>79.1</ele>
        <time>2024-12-19T11:06:13Z</time>
      </trkpt>
      <trkpt lat="47.91513" lon="-2.46449">
        <ele>79.1</ele>
        <time>2024-12-19T11:06:14Z</time>
      </trkpt>
      <trkpt lat="47.91511" lon="-2.46449">
        <ele>79.1</ele>
        <time>2024-12-19T11:06:15Z</time>
      </trkpt>
      <trkpt lat="47.9151" lon="-2.4645">
        <ele>79.1</ele>
        <time>2024-12-19T11:06:16Z</time>
      </trkpt>
      <trkpt lat="47.91509" lon="-2.4645">
        <ele>79.1</ele>
        <time>2024-12-19T11:06:17Z</time>
      </trkpt>
      <trkpt lat="47.91508" lon="-2.4645">
        <ele>79.1</ele>
        <time>2024-12-19T11:06:18Z</time>
      </trkpt>
      <trkpt lat="47.91506" lon="-2.4645">
        <ele>79</ele>
        <time>2024-12-19T11:06:19Z</time>
      </trkpt>
      <trkpt lat="47.91505" lon="-2.4645">
        <ele>79</ele>
        <time>2024-12-19T11:06:20Z</time>
      </trkpt>
      <trkpt lat="47.91504" lon="-2.4645">
        <ele>79</ele>
        <time>2024-12-19T11:06:21Z</time>
      </trkpt>
      <trkpt lat="47.91502" lon="-2.46451">
        <ele>79</ele>
        <time>2024-12-19T11:06:22Z</time>
      </trkpt>
      <trkpt lat="47.91501" lon="-2.46452">
        <ele>79</ele>
        <time>2024-12-19T11:06:23Z</time>
      </trkpt>
      <trkpt lat="47.915" lon="-2.46452">
        <ele>79</ele>
        <time>2024-12-19T11:06:24Z</time>
      </trkpt>
      <trkpt lat="47.915" lon="-2.46453">
        <ele>79</ele>
        <time>2024-12-19T11:06:25Z</time>
      </trkpt>
      <trkpt lat="47.91499" lon="-2.46453">
        <ele>78.9</ele>
        <time>2024-12-19T11:06:26Z</time>
      </trkpt>
      <trkpt lat="47.91498" lon="-2.46453">
        <ele>78.9</ele>
        <time>2024-12-19T11:06:27Z</time>
      </trkpt>
      <trkpt lat="47.91497" lon="-2.46454">
        <ele>78.8</ele>
        <time>2024-12-19T11:06:28Z</time>
      </trkpt>
      <trkpt lat="47.91497" lon="-2.46455">
        <ele>78.8</ele>
        <time>2024-12-19T11:06:29Z</time>
      </trkpt>
      <trkpt lat="47.91496" lon="-2.46456">
        <ele>78.8</ele>
        <time>2024-12-19T11:06:30Z</time>
      </trkpt>
      <trkpt lat="47.91495" lon="-2.46457">
        <ele>78.7</ele>
        <time>2024-12-19T11:06:31Z</time>
      </trkpt>
      <trkpt lat="47.91493" lon="-2.46457">
        <ele>78.6</ele>
        <time>2024-12-19T11:06:32Z</time>
      </trkpt>
      <trkpt lat="47.91492" lon="-2.46458">
        <ele>78.6</ele>
        <time>2024-12-19T11:06:33Z</time>
      </trkpt>
      <trkpt lat="47.9149" lon="-2.46459">
        <ele>78.5</ele>
        <time>2024-12-19T11:06:34Z</time>
      </trkpt>
      <trkpt lat="47.91489" lon="-2.4646">
        <ele>78.4</ele>
        <time>2024-12-19T11:06:35Z</time>
      </trkpt>
      <trkpt lat="47.91488" lon="-2.46461">
        <ele>78.4</ele>
        <time>2024-12-19T11:06:36Z</time>
      </trkpt>
      <trkpt lat="47.91486" lon="-2.46462">
        <ele>78.3</ele>
        <time>2024-12-19T11:06:37Z</time>
      </trkpt>
      <trkpt lat="47.91485" lon="-2.46462">
        <ele>78.3</ele>
        <time>2024-12-19T11:06:38Z</time>
      </trkpt>
      <trkpt lat="47.91484" lon="-2.46463">
        <ele>78.2</ele>
        <time>2024-12-19T11:06:39Z</time>
      </trkpt>
      <trkpt lat="47.91483" lon="-2.46463">
        <ele>78.2</ele>
        <time>2024-12-19T11:06:40Z</time>
      </trkpt>
      <trkpt lat="47.91481" lon="-2.46464">
        <ele>78.1</ele>
        <time>2024-12-19T11:06:41Z</time>
      </trkpt>
      <trkpt lat="47.9148" lon="-2.46464">
        <ele>78.1</ele>
        <time>2024-12-19T11:06:42Z</time>
      </trkpt>
      <trkpt lat="47.91479" lon="-2.46465">
        <ele>78</ele>
        <time>2024-12-19T11:06:43Z</time>
      </trkpt>
      <trkpt lat="47.91478" lon="-2.46465">
        <ele>78</ele>
        <time>2024-12-19T11:06:44Z</time>
      </trkpt>
      <trkpt lat="47.91477" lon="-2.46466">
        <ele>78</ele>
        <time>2024-12-19T11:06:45Z</time>
      </trkpt>
      <trkpt lat="47.91475" lon="-2.46466">
        <ele>77.9</ele>
        <time>2024-12-19T11:06:46Z</time>
      </trkpt>
      <trkpt lat="47.91474" lon="-2.46467">
        <ele>77.9</ele>
        <time>2024-12-19T11:06:47Z</time>
      </trkpt>
      <trkpt lat="47.91473" lon="-2.46468">
        <ele>77.9</ele>
        <time>2024-12-19T11:06:48Z</time>
      </trkpt>
      <trkpt lat="47.91472" lon="-2.46468">
        <ele>77.8</ele>
        <time>2024-12-19T11:06:49Z</time>
      </trkpt>
      <trkpt lat="47.91471" lon="-2.46469">
        <ele>77.8</ele>
        <time>2024-12-19T11:06:50Z</time>
      </trkpt>
      <trkpt lat="47.91469" lon="-2.46469">
        <ele>77.7</ele>
        <time>2024-12-19T11:06:51Z</time>
      </trkpt>
      <trkpt lat="47.91468" lon="-2.4647">
        <ele>77.6</ele>
        <time>2024-12-19T11:06:52Z</time>
      </trkpt>
      <trkpt lat="47.91467" lon="-2.4647">
        <ele>77.6</ele>
        <time>2024-12-19T11:06:53Z</time>
      </trkpt>
      <trkpt lat="47.91466" lon="-2.46471">
        <ele>77.5</ele>
        <time>2024-12-19T11:06:54Z</time>
      </trkpt>
      <trkpt lat="47.91464" lon="-2.46471">
        <ele>77.4</ele>
        <time>2024-12-19T11:06:55Z</time>
      </trkpt>
      <trkpt lat="47.91463" lon="-2.46472">
        <ele>77.3</ele>
        <time>2024-12-19T11:06:56Z</time>
      </trkpt>
      <trkpt lat="47.91462" lon="-2.46473">
        <ele>77.3</ele>
        <time>2024-12-19T11:06:57Z</time>
      </trkpt>
      <trkpt lat="47.91461" lon="-2.46473">
        <ele>77.2</ele>
        <time>2024-12-19T11:06:58Z</time>
      </trkpt>
      <trkpt lat="47.9146" lon="-2.46474">
        <ele>77.2</ele>
        <time>2024-12-19T11:06:59Z</time>
      </trkpt>
      <trkpt lat="47.91459" lon="-2.46475">
        <ele>77.1</ele>
        <time>2024-12-19T11:07:00Z</time>
      </trkpt>
      <trkpt lat="47.91458" lon="-2.46476">
        <ele>77</ele>
        <time>2024-12-19T11:07:01Z</time>
      </trkpt>
      <trkpt lat="47.91456" lon="-2.46476">
        <ele>76.9</ele>
        <time>2024-12-19T11:07:02Z</time>
      </trkpt>
      <trkpt lat="47.91454" lon="-2.46477">
        <ele>76.8</ele>
        <time>2024-12-19T11:07:03Z</time>
      </trkpt>
      <trkpt lat="47.91453" lon="-2.46477">
        <ele>76.7</ele>
        <time>2024-12-19T11:07:04Z</time>
      </trkpt>
      <trkpt lat="47.91451" lon="-2.46478">
        <ele>76.6</ele>
        <time>2024-12-19T11:07:05Z</time>
      </trkpt>
      <trkpt lat="47.9145" lon="-2.46478">
        <ele>76.5</ele>
        <time>2024-12-19T11:07:06Z</time>
      </trkpt>
      <trkpt lat="47.91448" lon="-2.46479">
        <ele>76.5</ele>
        <time>2024-12-19T11:07:07Z</time>
      </trkpt>
      <trkpt lat="47.91447" lon="-2.46479">
        <ele>76.4</ele>
        <time>2024-12-19T11:07:08Z</time>
      </trkpt>
      <trkpt lat="47.91446" lon="-2.4648">
        <ele>76.3</ele>
        <time>2024-12-19T11:07:09Z</time>
      </trkpt>
      <trkpt lat="47.91444" lon="-2.4648">
        <ele>76.3</ele>
        <time>2024-12-19T11:07:10Z</time>
      </trkpt>
      <trkpt lat="47.91443" lon="-2.4648">
        <ele>76.2</ele>
        <time>2024-12-19T11:07:11Z</time>
      </trkpt>
      <trkpt lat="47.91442" lon="-2.46481">
        <ele>76.2</ele>
        <time>2024-12-19T11:07:12Z</time>
      </trkpt>
      <trkpt lat="47.9144" lon="-2.46481">
        <ele>76.2</ele>
        <time>2024-12-19T11:07:13Z</time>
      </trkpt>
      <trkpt lat="47.91439" lon="-2.46481">
        <ele>76.1</ele>
        <time>2024-12-19T11:07:14Z</time>
      </trkpt>
      <trkpt lat="47.91438" lon="-2.46481">
        <ele>76.1</ele>
        <time>2024-12-19T11:07:15Z</time>
      </trkpt>
      <trkpt lat="47.91437" lon="-2.46481">
        <ele>76.1</ele>
        <time>2024-12-19T11:07:16Z</time>
      </trkpt>
      <trkpt lat="47.91436" lon="-2.46482">
        <ele>76</ele>
        <time>2024-12-19T11:07:17Z</time>
      </trkpt>
      <trkpt lat="47.91435" lon="-2.46483">
        <ele>76</ele>
        <time>2024-12-19T11:07:18Z</time>
      </trkpt>
      <trkpt lat="47.91434" lon="-2.46483">
        <ele>76</ele>
        <time>2024-12-19T11:07:19Z</time>
      </trkpt>
      <trkpt lat="47.91433" lon="-2.46484">
        <ele>76</ele>
        <time>2024-12-19T11:07:20Z</time>
      </trkpt>
      <trkpt lat="47.91432" lon="-2.46485">
        <ele>76</ele>
        <time>2024-12-19T11:07:21Z</time>
      </trkpt>
      <trkpt lat="47.91431" lon="-2.46486">
        <ele>76</ele>
        <time>2024-12-19T11:07:22Z</time>
      </trkpt>
      <trkpt lat="47.9143" lon="-2.46487">
        <ele>76</ele>
        <time>2024-12-19T11:07:23Z</time>
      </trkpt>
      <trkpt lat="47.91429" lon="-2.46487">
        <ele>76</ele>
        <time>2024-12-19T11:07:24Z</time>
      </trkpt>
      <trkpt lat="47.91427" lon="-2.46488">
        <ele>75.9</ele>
        <time>2024-12-19T11:07:25Z</time>
      </trkpt>
      <trkpt lat="47.91426" lon="-2.46488">
        <ele>75.9</ele>
        <time>2024-12-19T11:07:26Z</time>
      </trkpt>
      <trkpt lat="47.91425" lon="-2.46489">
        <ele>75.9</ele>
        <time>2024-12-19T11:07:27Z</time>
      </trkpt>
      <trkpt lat="47.91424" lon="-2.4649">
        <ele>75.9</ele>
        <time>2024-12-19T11:07:28Z</time>
      </trkpt>
      <trkpt lat="47.91423" lon="-2.4649">
        <ele>75.9</ele>
        <time>2024-12-19T11:07:29Z</time>
      </trkpt>
      <trkpt lat="47.91421" lon="-2.46491">
        <ele>75.8</ele>
        <time>2024-12-19T11:07:30Z</time>
      </trkpt>
      <trkpt lat="47.9142" lon="-2.46492">
        <ele>75.8</ele>
        <time>2024-12-19T11:07:31Z</time>
      </trkpt>
      <trkpt lat="47.91419" lon="-2.46492">
        <ele>75.8</ele>
        <time>2024-12-19T11:07:32Z</time>
      </trkpt>
      <trkpt lat="47.91417" lon="-2.46493">
        <ele>75.8</ele>
        <time>2024-12-19T11:07:33Z</time>
      </trkpt>
      <trkpt lat="47.91416" lon="-2.46494">
        <ele>75.7</ele>
        <time>2024-12-19T11:07:34Z</time>
      </trkpt>
      <trkpt lat="47.91415" lon="-2.46494">
        <ele>75.7</ele>
        <time>2024-12-19T11:07:35Z</time>
      </trkpt>
      <trkpt lat="47.91413" lon="-2.46495">
        <ele>75.6</ele>
        <time>2024-12-19T11:07:36Z</time>
      </trkpt>
      <trkpt lat="47.91413" lon="-2.46495">
        <ele>75.5</ele>
        <time>2024-12-19T11:07:37Z</time>
      </trkpt>
      <trkpt lat="47.91412" lon="-2.46495">
        <ele>75.5</ele>
        <time>2024-12-19T11:07:38Z</time>
      </trkpt>
      <trkpt lat="47.91411" lon="-2.46496">
        <ele>75.5</ele>
        <time>2024-12-19T11:07:39Z</time>
      </trkpt>
      <trkpt lat="47.9141" lon="-2.46496">
        <ele>75.4</ele>
        <time>2024-12-19T11:07:40Z</time>
      </trkpt>
      <trkpt lat="47.91409" lon="-2.46497">
        <ele>75.3</ele>
        <time>2024-12-19T11:07:41Z</time>
      </trkpt>
      <trkpt lat="47.91407" lon="-2.46498">
        <ele>75.3</ele>
        <time>2024-12-19T11:07:42Z</time>
      </trkpt>
      <trkpt lat="47.91405" lon="-2.46499">
        <ele>75.2</ele>
        <time>2024-12-19T11:07:43Z</time>
      </trkpt>
      <trkpt lat="47.91404" lon="-2.46499">
        <ele>75.1</ele>
        <time>2024-12-19T11:07:44Z</time>
      </trkpt>
      <trkpt lat="47.91403" lon="-2.465">
        <ele>75</ele>
        <time>2024-12-19T11:07:45Z</time>
      </trkpt>
      <trkpt lat="47.91402" lon="-2.465">
        <ele>74.9</ele>
        <time>2024-12-19T11:07:46Z</time>
      </trkpt>
      <trkpt lat="47.91401" lon="-2.465">
        <ele>74.9</ele>
        <time>2024-12-19T11:07:47Z</time>
      </trkpt>
      <trkpt lat="47.914" lon="-2.465">
        <ele>74.8</ele>
        <time>2024-12-19T11:07:48Z</time>
      </trkpt>
      <trkpt lat="47.91399" lon="-2.46501">
        <ele>74.8</ele>
        <time>2024-12-19T11:07:49Z</time>
      </trkpt>
      <trkpt lat="47.91398" lon="-2.46501">
        <ele>74.7</ele>
        <time>2024-12-19T11:07:50Z</time>
      </trkpt>
      <trkpt lat="47.91397" lon="-2.46501">
        <ele>74.6</ele>
        <time>2024-12-19T11:07:51Z</time>
      </trkpt>
      <trkpt lat="47.91396" lon="-2.46502">
        <ele>74.6</ele>
        <time>2024-12-19T11:07:52Z</time>
      </trkpt>
      <trkpt lat="47.91395" lon="-2.46502">
        <ele>74.5</ele>
        <time>2024-12-19T11:07:53Z</time>
      </trkpt>
      <trkpt lat="47.91394" lon="-2.46502">
        <ele>74.4</ele>
        <time>2024-12-19T11:07:54Z</time>
      </trkpt>
      <trkpt lat="47.91393" lon="-2.46502">
        <ele>74.4</ele>
        <time>2024-12-19T11:07:55Z</time>
      </trkpt>
      <trkpt lat="47.91392" lon="-2.46503">
        <ele>74.3</ele>
        <time>2024-12-19T11:07:56Z</time>
      </trkpt>
      <trkpt lat="47.91391" lon="-2.46503">
        <ele>74.3</ele>
        <time>2024-12-19T11:07:57Z</time>
      </trkpt>
      <trkpt lat="47.9139" lon="-2.46503">
        <ele>74.2</ele>
        <time>2024-12-19T11:07:58Z</time>
      </trkpt>
      <trkpt lat="47.91389" lon="-2.46503">
        <ele>74.1</ele>
        <time>2024-12-19T11:07:59Z</time>
      </trkpt>
      <trkpt lat="47.91388" lon="-2.46503">
        <ele>74.1</ele>
        <time>2024-12-19T11:08:00Z</time>
      </trkpt>
      <trkpt lat="47.91387" lon="-2.46503">
        <ele>74.1</ele>
        <time>2024-12-19T11:08:01Z</time>
      </trkpt>
      <trkpt lat="47.91386" lon="-2.46504">
        <ele>74.1</ele>
        <time>2024-12-19T11:08:02Z</time>
      </trkpt>
      <trkpt lat="47.91386" lon="-2.46504">
        <ele>74.1</ele>
        <time>2024-12-19T11:08:03Z</time>
      </trkpt>
      <trkpt lat="47.91384" lon="-2.46506">
        <ele>74.2</ele>
        <time>2024-12-19T11:08:04Z</time>
      </trkpt>
      <trkpt lat="47.91384" lon="-2.46507">
        <ele>74.2</ele>
        <time>2024-12-19T11:08:05Z</time>
      </trkpt>
      <trkpt lat="47.91384" lon="-2.46508">
        <ele>74.3</ele>
        <time>2024-12-19T11:08:06Z</time>
      </trkpt>
      <trkpt lat="47.91383" lon="-2.46508">
        <ele>74.3</ele>
        <time>2024-12-19T11:08:07Z</time>
      </trkpt>
      <trkpt lat="47.91383" lon="-2.46508">
        <ele>74.3</ele>
        <time>2024-12-19T11:08:08Z</time>
      </trkpt>
      <trkpt lat="47.91383" lon="-2.46508">
        <ele>74.3</ele>
        <time>2024-12-19T11:08:09Z</time>
      </trkpt>
      <trkpt lat="47.91383" lon="-2.46508">
        <ele>74.3</ele>
        <time>2024-12-19T11:08:10Z</time>
      </trkpt>
      <trkpt lat="47.91382" lon="-2.46509">
        <ele>74.3</ele>
        <time>2024-12-19T11:08:11Z</time>
      </trkpt>
      <trkpt lat="47.91381" lon="-2.46509">
        <ele>74.3</ele>
        <time>2024-12-19T11:08:12Z</time>
      </trkpt>
      <trkpt lat="47.91381" lon="-2.46509">
        <ele>74.3</ele>
        <time>2024-12-19T11:08:13Z</time>
      </trkpt>
      <trkpt lat="47.9138" lon="-2.4651">
        <ele>74.4</ele>
        <time>2024-12-19T11:08:14Z</time>
      </trkpt>
      <trkpt lat="47.91379" lon="-2.46511">
        <ele>74.4</ele>
        <time>2024-12-19T11:08:15Z</time>
      </trkpt>
      <trkpt lat="47.91378" lon="-2.46512">
        <ele>74.4</ele>
        <time>2024-12-19T11:08:16Z</time>
      </trkpt>
      <trkpt lat="47.91377" lon="-2.46512">
        <ele>74.4</ele>
        <time>2024-12-19T11:08:17Z</time>
      </trkpt>
      <trkpt lat="47.91376" lon="-2.46513">
        <ele>74.5</ele>
        <time>2024-12-19T11:08:18Z</time>
      </trkpt>
      <trkpt lat="47.91375" lon="-2.46514">
        <ele>74.5</ele>
        <time>2024-12-19T11:08:19Z</time>
      </trkpt>
      <trkpt lat="47.91373" lon="-2.46514">
        <ele>74.5</ele>
        <time>2024-12-19T11:08:20Z</time>
      </trkpt>
      <trkpt lat="47.91372" lon="-2.46515">
        <ele>74.6</ele>
        <time>2024-12-19T11:08:21Z</time>
      </trkpt>
      <trkpt lat="47.91371" lon="-2.46516">
        <ele>74.6</ele>
        <time>2024-12-19T11:08:22Z</time>
      </trkpt>
      <trkpt lat="47.9137" lon="-2.46517">
        <ele>74.6</ele>
        <time>2024-12-19T11:08:23Z</time>
      </trkpt>
      <trkpt lat="47.91369" lon="-2.46518">
        <ele>74.6</ele>
        <time>2024-12-19T11:08:24Z</time>
      </trkpt>
      <trkpt lat="47.91368" lon="-2.46519">
        <ele>74.7</ele>
        <time>2024-12-19T11:08:25Z</time>
      </trkpt>
      <trkpt lat="47.91367" lon="-2.4652">
        <ele>74.7</ele>
        <time>2024-12-19T11:08:26Z</time>
      </trkpt>
      <trkpt lat="47.91365" lon="-2.46521">
        <ele>74.8</ele>
        <time>2024-12-19T11:08:27Z</time>
      </trkpt>
      <trkpt lat="47.91364" lon="-2.46523">
        <ele>74.8</ele>
        <time>2024-12-19T11:08:28Z</time>
      </trkpt>
      <trkpt lat="47.91362" lon="-2.46524">
        <ele>74.9</ele>
        <time>2024-12-19T11:08:29Z</time>
      </trkpt>
      <trkpt lat="47.91361" lon="-2.46525">
        <ele>74.9</ele>
        <time>2024-12-19T11:08:30Z</time>
      </trkpt>
      <trkpt lat="47.91361" lon="-2.46526">
        <ele>74.9</ele>
        <time>2024-12-19T11:08:31Z</time>
      </trkpt>
      <trkpt lat="47.9136" lon="-2.46526">
        <ele>74.9</ele>
        <time>2024-12-19T11:08:32Z</time>
      </trkpt>
      <trkpt lat="47.91359" lon="-2.46526">
        <ele>74.9</ele>
        <time>2024-12-19T11:08:33Z</time>
      </trkpt>
      <trkpt lat="47.91358" lon="-2.46526">
        <ele>74.8</ele>
        <time>2024-12-19T11:08:34Z</time>
      </trkpt>
      <trkpt lat="47.91357" lon="-2.46527">
        <ele>74.8</ele>
        <time>2024-12-19T11:08:35Z</time>
      </trkpt>
      <trkpt lat="47.91356" lon="-2.46527">
        <ele>74.8</ele>
        <time>2024-12-19T11:08:36Z</time>
      </trkpt>
      <trkpt lat="47.91355" lon="-2.46528">
        <ele>74.8</ele>
        <time>2024-12-19T11:08:37Z</time>
      </trkpt>
      <trkpt lat="47.91353" lon="-2.46528">
        <ele>74.7</ele>
        <time>2024-12-19T11:08:38Z</time>
      </trkpt>
      <trkpt lat="47.91352" lon="-2.46528">
        <ele>74.7</ele>
        <time>2024-12-19T11:08:39Z</time>
      </trkpt>
      <trkpt lat="47.9135" lon="-2.46529">
        <ele>74.7</ele>
        <time>2024-12-19T11:08:40Z</time>
      </trkpt>
      <trkpt lat="47.91349" lon="-2.46529">
        <ele>74.6</ele>
        <time>2024-12-19T11:08:41Z</time>
      </trkpt>
      <trkpt lat="47.91348" lon="-2.4653">
        <ele>74.6</ele>
        <time>2024-12-19T11:08:42Z</time>
      </trkpt>
      <trkpt lat="47.91348" lon="-2.4653">
        <ele>74.6</ele>
        <time>2024-12-19T11:08:43Z</time>
      </trkpt>
      <trkpt lat="47.91347" lon="-2.46531">
        <ele>74.6</ele>
        <time>2024-12-19T11:08:44Z</time>
      </trkpt>
      <trkpt lat="47.91346" lon="-2.46531">
        <ele>74.6</ele>
        <time>2024-12-19T11:08:45Z</time>
      </trkpt>
      <trkpt lat="47.91345" lon="-2.46532">
        <ele>74.6</ele>
        <time>2024-12-19T11:08:46Z</time>
      </trkpt>
      <trkpt lat="47.91344" lon="-2.46532">
        <ele>74.6</ele>
        <time>2024-12-19T11:08:47Z</time>
      </trkpt>
      <trkpt lat="47.91341" lon="-2.46534">
        <ele>74.6</ele>
        <time>2024-12-19T11:08:49Z</time>
      </trkpt>
      <trkpt lat="47.9134" lon="-2.46534">
        <ele>74.6</ele>
        <time>2024-12-19T11:08:50Z</time>
      </trkpt>
      <trkpt lat="47.91338" lon="-2.46535">
        <ele>74.7</ele>
        <time>2024-12-19T11:08:51Z</time>
      </trkpt>
      <trkpt lat="47.91337" lon="-2.46535">
        <ele>74.6</ele>
        <time>2024-12-19T11:08:52Z</time>
      </trkpt>
      <trkpt lat="47.91336" lon="-2.46536">
        <ele>74.6</ele>
        <time>2024-12-19T11:08:53Z</time>
      </trkpt>
      <trkpt lat="47.91334" lon="-2.46537">
        <ele>74.7</ele>
        <time>2024-12-19T11:08:54Z</time>
      </trkpt>
      <trkpt lat="47.91332" lon="-2.46537">
        <ele>74.6</ele>
        <time>2024-12-19T11:08:55Z</time>
      </trkpt>
      <trkpt lat="47.91331" lon="-2.46538">
        <ele>74.6</ele>
        <time>2024-12-19T11:08:56Z</time>
      </trkpt>
      <trkpt lat="47.9133" lon="-2.46539">
        <ele>74.6</ele>
        <time>2024-12-19T11:08:57Z</time>
      </trkpt>
      <trkpt lat="47.91329" lon="-2.4654">
        <ele>74.6</ele>
        <time>2024-12-19T11:08:58Z</time>
      </trkpt>
      <trkpt lat="47.91328" lon="-2.46541">
        <ele>74.6</ele>
        <time>2024-12-19T11:08:59Z</time>
      </trkpt>
      <trkpt lat="47.91327" lon="-2.46542">
        <ele>74.7</ele>
        <time>2024-12-19T11:09:00Z</time>
      </trkpt>
      <trkpt lat="47.91326" lon="-2.46543">
        <ele>74.6</ele>
        <time>2024-12-19T11:09:01Z</time>
      </trkpt>
      <trkpt lat="47.91325" lon="-2.46543">
        <ele>74.6</ele>
        <time>2024-12-19T11:09:02Z</time>
      </trkpt>
      <trkpt lat="47.91324" lon="-2.46543">
        <ele>74.6</ele>
        <time>2024-12-19T11:09:03Z</time>
      </trkpt>
      <trkpt lat="47.91322" lon="-2.46544">
        <ele>74.5</ele>
        <time>2024-12-19T11:09:04Z</time>
      </trkpt>
      <trkpt lat="47.91321" lon="-2.46544">
        <ele>74.5</ele>
        <time>2024-12-19T11:09:05Z</time>
      </trkpt>
      <trkpt lat="47.9132" lon="-2.46545">
        <ele>74.4</ele>
        <time>2024-12-19T11:09:06Z</time>
      </trkpt>
      <trkpt lat="47.91319" lon="-2.46545">
        <ele>74.4</ele>
        <time>2024-12-19T11:09:07Z</time>
      </trkpt>
      <trkpt lat="47.91317" lon="-2.46547">
        <ele>74.4</ele>
        <time>2024-12-19T11:09:08Z</time>
      </trkpt>
      <trkpt lat="47.91316" lon="-2.46548">
        <ele>74.4</ele>
        <time>2024-12-19T11:09:09Z</time>
      </trkpt>
      <trkpt lat="47.91315" lon="-2.46549">
        <ele>74.4</ele>
        <time>2024-12-19T11:09:10Z</time>
      </trkpt>
      <trkpt lat="47.91315" lon="-2.4655">
        <ele>74.4</ele>
        <time>2024-12-19T11:09:11Z</time>
      </trkpt>
      <trkpt lat="47.91314" lon="-2.46551">
        <ele>74.4</ele>
        <time>2024-12-19T11:09:12Z</time>
      </trkpt>
      <trkpt lat="47.91312" lon="-2.46552">
        <ele>74.3</ele>
        <time>2024-12-19T11:09:13Z</time>
      </trkpt>
      <trkpt lat="47.91312" lon="-2.46552">
        <ele>74.3</ele>
        <time>2024-12-19T11:09:14Z</time>
      </trkpt>
      <trkpt lat="47.91312" lon="-2.46552">
        <ele>74.3</ele>
        <time>2024-12-19T11:09:15Z</time>
      </trkpt>
      <trkpt lat="47.91312" lon="-2.46552">
        <ele>74.3</ele>
        <time>2024-12-19T11:09:16Z</time>
      </trkpt>
      <trkpt lat="47.91311" lon="-2.46553">
        <ele>74.3</ele>
        <time>2024-12-19T11:09:17Z</time>
      </trkpt>
      <trkpt lat="47.91309" lon="-2.46554">
        <ele>74.2</ele>
        <time>2024-12-19T11:09:18Z</time>
      </trkpt>
      <trkpt lat="47.91308" lon="-2.46555">
        <ele>74.1</ele>
        <time>2024-12-19T11:09:19Z</time>
      </trkpt>
      <trkpt lat="47.91306" lon="-2.46556">
        <ele>74.1</ele>
        <time>2024-12-19T11:09:20Z</time>
      </trkpt>
      <trkpt lat="47.91305" lon="-2.46557">
        <ele>74</ele>
        <time>2024-12-19T11:09:21Z</time>
      </trkpt>
      <trkpt lat="47.91303" lon="-2.46559">
        <ele>74</ele>
        <time>2024-12-19T11:09:22Z</time>
      </trkpt>
      <trkpt lat="47.91302" lon="-2.4656">
        <ele>74</ele>
        <time>2024-12-19T11:09:23Z</time>
      </trkpt>
      <trkpt lat="47.91301" lon="-2.46562">
        <ele>74</ele>
        <time>2024-12-19T11:09:24Z</time>
      </trkpt>
      <trkpt lat="47.91299" lon="-2.46563">
        <ele>74</ele>
        <time>2024-12-19T11:09:25Z</time>
      </trkpt>
      <trkpt lat="47.91298" lon="-2.46564">
        <ele>74</ele>
        <time>2024-12-19T11:09:26Z</time>
      </trkpt>
      <trkpt lat="47.91297" lon="-2.46566">
        <ele>74.1</ele>
        <time>2024-12-19T11:09:27Z</time>
      </trkpt>
      <trkpt lat="47.91296" lon="-2.46567">
        <ele>74.1</ele>
        <time>2024-12-19T11:09:28Z</time>
      </trkpt>
      <trkpt lat="47.91295" lon="-2.46568">
        <ele>74.1</ele>
        <time>2024-12-19T11:09:29Z</time>
      </trkpt>
      <trkpt lat="47.91294" lon="-2.4657">
        <ele>74.1</ele>
        <time>2024-12-19T11:09:30Z</time>
      </trkpt>
      <trkpt lat="47.91293" lon="-2.46571">
        <ele>74.1</ele>
        <time>2024-12-19T11:09:31Z</time>
      </trkpt>
      <trkpt lat="47.91292" lon="-2.46573">
        <ele>74.1</ele>
        <time>2024-12-19T11:09:32Z</time>
      </trkpt>
      <trkpt lat="47.91291" lon="-2.46574">
        <ele>74.1</ele>
        <time>2024-12-19T11:09:33Z</time>
      </trkpt>
      <trkpt lat="47.91289" lon="-2.46575">
        <ele>74.1</ele>
        <time>2024-12-19T11:09:34Z</time>
      </trkpt>
      <trkpt lat="47.91288" lon="-2.46576">
        <ele>74.1</ele>
        <time>2024-12-19T11:09:35Z</time>
      </trkpt>
      <trkpt lat="47.91287" lon="-2.46577">
        <ele>74.1</ele>
        <time>2024-12-19T11:09:36Z</time>
      </trkpt>
      <trkpt lat="47.91286" lon="-2.46578">
        <ele>74.1</ele>
        <time>2024-12-19T11:09:37Z</time>
      </trkpt>
      <trkpt lat="47.91284" lon="-2.46578">
        <ele>74</ele>
        <time>2024-12-19T11:09:38Z</time>
      </trkpt>
      <trkpt lat="47.91283" lon="-2.46579">
        <ele>74</ele>
        <time>2024-12-19T11:09:39Z</time>
      </trkpt>
      <trkpt lat="47.91282" lon="-2.46579">
        <ele>74</ele>
        <time>2024-12-19T11:09:40Z</time>
      </trkpt>
      <trkpt lat="47.91281" lon="-2.46579">
        <ele>74</ele>
        <time>2024-12-19T11:09:41Z</time>
      </trkpt>
      <trkpt lat="47.9128" lon="-2.4658">
        <ele>74</ele>
        <time>2024-12-19T11:09:42Z</time>
      </trkpt>
      <trkpt lat="47.91279" lon="-2.46582">
        <ele>74</ele>
        <time>2024-12-19T11:09:43Z</time>
      </trkpt>
      <trkpt lat="47.91278" lon="-2.46583">
        <ele>74</ele>
        <time>2024-12-19T11:09:44Z</time>
      </trkpt>
      <trkpt lat="47.91277" lon="-2.46584">
        <ele>74</ele>
        <time>2024-12-19T11:09:45Z</time>
      </trkpt>
      <trkpt lat="47.91276" lon="-2.46585">
        <ele>74</ele>
        <time>2024-12-19T11:09:46Z</time>
      </trkpt>
      <trkpt lat="47.91275" lon="-2.46586">
        <ele>74</ele>
        <time>2024-12-19T11:09:47Z</time>
      </trkpt>
      <trkpt lat="47.91274" lon="-2.46586">
        <ele>74</ele>
        <time>2024-12-19T11:09:48Z</time>
      </trkpt>
      <trkpt lat="47.91273" lon="-2.46587">
        <ele>73.9</ele>
        <time>2024-12-19T11:09:49Z</time>
      </trkpt>
      <trkpt lat="47.91272" lon="-2.46588">
        <ele>73.9</ele>
        <time>2024-12-19T11:09:50Z</time>
      </trkpt>
      <trkpt lat="47.9127" lon="-2.46588">
        <ele>73.9</ele>
        <time>2024-12-19T11:09:51Z</time>
      </trkpt>
      <trkpt lat="47.91269" lon="-2.46589">
        <ele>73.8</ele>
        <time>2024-12-19T11:09:52Z</time>
      </trkpt>
      <trkpt lat="47.91268" lon="-2.4659">
        <ele>73.8</ele>
        <time>2024-12-19T11:09:53Z</time>
      </trkpt>
      <trkpt lat="47.91267" lon="-2.46591">
        <ele>73.8</ele>
        <time>2024-12-19T11:09:54Z</time>
      </trkpt>
      <trkpt lat="47.91266" lon="-2.46592">
        <ele>73.8</ele>
        <time>2024-12-19T11:09:55Z</time>
      </trkpt>
      <trkpt lat="47.91265" lon="-2.46592">
        <ele>73.7</ele>
        <time>2024-12-19T11:09:56Z</time>
      </trkpt>
      <trkpt lat="47.91264" lon="-2.46593">
        <ele>73.7</ele>
        <time>2024-12-19T11:09:57Z</time>
      </trkpt>
      <trkpt lat="47.91262" lon="-2.46594">
        <ele>73.6</ele>
        <time>2024-12-19T11:09:58Z</time>
      </trkpt>
      <trkpt lat="47.91261" lon="-2.46594">
        <ele>73.6</ele>
        <time>2024-12-19T11:09:59Z</time>
      </trkpt>
      <trkpt lat="47.9126" lon="-2.46595">
        <ele>73.5</ele>
        <time>2024-12-19T11:10:00Z</time>
      </trkpt>
      <trkpt lat="47.91259" lon="-2.46596">
        <ele>73.5</ele>
        <time>2024-12-19T11:10:01Z</time>
      </trkpt>
      <trkpt lat="47.91258" lon="-2.46596">
        <ele>73.4</ele>
        <time>2024-12-19T11:10:02Z</time>
      </trkpt>
      <trkpt lat="47.91257" lon="-2.46597">
        <ele>73.4</ele>
        <time>2024-12-19T11:10:03Z</time>
      </trkpt>
      <trkpt lat="47.91257" lon="-2.46598">
        <ele>73.4</ele>
        <time>2024-12-19T11:10:04Z</time>
      </trkpt>
      <trkpt lat="47.91256" lon="-2.46599">
        <ele>73.3</ele>
        <time>2024-12-19T11:10:05Z</time>
      </trkpt>
      <trkpt lat="47.91255" lon="-2.466">
        <ele>73.3</ele>
        <time>2024-12-19T11:10:06Z</time>
      </trkpt>
      <trkpt lat="47.91254" lon="-2.46601">
        <ele>73.2</ele>
        <time>2024-12-19T11:10:07Z</time>
      </trkpt>
      <trkpt lat="47.91253" lon="-2.46601">
        <ele>73.2</ele>
        <time>2024-12-19T11:10:08Z</time>
      </trkpt>
      <trkpt lat="47.91252" lon="-2.46602">
        <ele>73.1</ele>
        <time>2024-12-19T11:10:09Z</time>
      </trkpt>
      <trkpt lat="47.91251" lon="-2.46603">
        <ele>73</ele>
        <time>2024-12-19T11:10:10Z</time>
      </trkpt>
      <trkpt lat="47.9125" lon="-2.46604">
        <ele>73</ele>
        <time>2024-12-19T11:10:11Z</time>
      </trkpt>
      <trkpt lat="47.91249" lon="-2.46605">
        <ele>72.9</ele>
        <time>2024-12-19T11:10:12Z</time>
      </trkpt>
      <trkpt lat="47.91247" lon="-2.46606">
        <ele>72.9</ele>
        <time>2024-12-19T11:10:13Z</time>
      </trkpt>
      <trkpt lat="47.91246" lon="-2.46607">
        <ele>72.9</ele>
        <time>2024-12-19T11:10:14Z</time>
      </trkpt>
      <trkpt lat="47.91245" lon="-2.46607">
        <ele>72.8</ele>
        <time>2024-12-19T11:10:15Z</time>
      </trkpt>
      <trkpt lat="47.91244" lon="-2.46608">
        <ele>72.8</ele>
        <time>2024-12-19T11:10:16Z</time>
      </trkpt>
      <trkpt lat="47.91243" lon="-2.46609">
        <ele>72.8</ele>
        <time>2024-12-19T11:10:17Z</time>
      </trkpt>
      <trkpt lat="47.91243" lon="-2.46609">
        <ele>72.7</ele>
        <time>2024-12-19T11:10:18Z</time>
      </trkpt>
      <trkpt lat="47.91243" lon="-2.46609">
        <ele>72.7</ele>
        <time>2024-12-19T11:10:19Z</time>
      </trkpt>
      <trkpt lat="47.91242" lon="-2.46609">
        <ele>72.7</ele>
        <time>2024-12-19T11:10:20Z</time>
      </trkpt>
      <trkpt lat="47.91241" lon="-2.4661">
        <ele>72.7</ele>
        <time>2024-12-19T11:10:21Z</time>
      </trkpt>
      <trkpt lat="47.9124" lon="-2.46611">
        <ele>72.6</ele>
        <time>2024-12-19T11:10:22Z</time>
      </trkpt>
      <trkpt lat="47.9124" lon="-2.46612">
        <ele>72.6</ele>
        <time>2024-12-19T11:10:23Z</time>
      </trkpt>
      <trkpt lat="47.91239" lon="-2.46613">
        <ele>72.6</ele>
        <time>2024-12-19T11:10:24Z</time>
      </trkpt>
      <trkpt lat="47.91237" lon="-2.46614">
        <ele>72.6</ele>
        <time>2024-12-19T11:10:25Z</time>
      </trkpt>
      <trkpt lat="47.91236" lon="-2.46615">
        <ele>72.5</ele>
        <time>2024-12-19T11:10:26Z</time>
      </trkpt>
      <trkpt lat="47.91235" lon="-2.46616">
        <ele>72.5</ele>
        <time>2024-12-19T11:10:27Z</time>
      </trkpt>
      <trkpt lat="47.91234" lon="-2.46616">
        <ele>72.4</ele>
        <time>2024-12-19T11:10:28Z</time>
      </trkpt>
      <trkpt lat="47.91233" lon="-2.46618">
        <ele>72.3</ele>
        <time>2024-12-19T11:10:29Z</time>
      </trkpt>
      <trkpt lat="47.91232" lon="-2.46619">
        <ele>72.3</ele>
        <time>2024-12-19T11:10:30Z</time>
      </trkpt>
      <trkpt lat="47.91231" lon="-2.4662">
        <ele>72.2</ele>
        <time>2024-12-19T11:10:31Z</time>
      </trkpt>
      <trkpt lat="47.9123" lon="-2.46621">
        <ele>72.1</ele>
        <time>2024-12-19T11:10:32Z</time>
      </trkpt>
      <trkpt lat="47.91229" lon="-2.46622">
        <ele>72</ele>
        <time>2024-12-19T11:10:33Z</time>
      </trkpt>
      <trkpt lat="47.91228" lon="-2.46623">
        <ele>72</ele>
        <time>2024-12-19T11:10:34Z</time>
      </trkpt>
      <trkpt lat="47.91227" lon="-2.46624">
        <ele>71.9</ele>
        <time>2024-12-19T11:10:35Z</time>
      </trkpt>
      <trkpt lat="47.91226" lon="-2.46625">
        <ele>71.8</ele>
        <time>2024-12-19T11:10:36Z</time>
      </trkpt>
      <trkpt lat="47.91226" lon="-2.46627">
        <ele>71.7</ele>
        <time>2024-12-19T11:10:37Z</time>
      </trkpt>
      <trkpt lat="47.91224" lon="-2.46628">
        <ele>71.6</ele>
        <time>2024-12-19T11:10:38Z</time>
      </trkpt>
      <trkpt lat="47.91224" lon="-2.46629">
        <ele>71.5</ele>
        <time>2024-12-19T11:10:39Z</time>
      </trkpt>
      <trkpt lat="47.91223" lon="-2.4663">
        <ele>71.4</ele>
        <time>2024-12-19T11:10:40Z</time>
      </trkpt>
      <trkpt lat="47.91222" lon="-2.4663">
        <ele>71.3</ele>
        <time>2024-12-19T11:10:41Z</time>
      </trkpt>
      <trkpt lat="47.91221" lon="-2.4663">
        <ele>71.3</ele>
        <time>2024-12-19T11:10:42Z</time>
      </trkpt>
      <trkpt lat="47.91219" lon="-2.4663">
        <ele>71.2</ele>
        <time>2024-12-19T11:10:43Z</time>
      </trkpt>
      <trkpt lat="47.91218" lon="-2.4663">
        <ele>71.1</ele>
        <time>2024-12-19T11:10:44Z</time>
      </trkpt>
      <trkpt lat="47.91217" lon="-2.4663">
        <ele>71.1</ele>
        <time>2024-12-19T11:10:45Z</time>
      </trkpt>
      <trkpt lat="47.91215" lon="-2.4663">
        <ele>71</ele>
        <time>2024-12-19T11:10:46Z</time>
      </trkpt>
      <trkpt lat="47.91214" lon="-2.4663">
        <ele>71</ele>
        <time>2024-12-19T11:10:47Z</time>
      </trkpt>
      <trkpt lat="47.91214" lon="-2.4663">
        <ele>70.9</ele>
        <time>2024-12-19T11:10:48Z</time>
      </trkpt>
      <trkpt lat="47.91213" lon="-2.4663">
        <ele>70.9</ele>
        <time>2024-12-19T11:10:49Z</time>
      </trkpt>
      <trkpt lat="47.91212" lon="-2.4663">
        <ele>70.9</ele>
        <time>2024-12-19T11:10:50Z</time>
      </trkpt>
      <trkpt lat="47.91212" lon="-2.4663">
        <ele>70.8</ele>
        <time>2024-12-19T11:10:51Z</time>
      </trkpt>
      <trkpt lat="47.91211" lon="-2.4663">
        <ele>70.8</ele>
        <time>2024-12-19T11:10:52Z</time>
      </trkpt>
      <trkpt lat="47.9121" lon="-2.4663">
        <ele>70.7</ele>
        <time>2024-12-19T11:10:53Z</time>
      </trkpt>
      <trkpt lat="47.91204" lon="-2.46635">
        <ele>70.4</ele>
        <time>2024-12-19T11:10:57Z</time>
      </trkpt>
      <trkpt lat="47.91203" lon="-2.46636">
        <ele>70.3</ele>
        <time>2024-12-19T11:10:58Z</time>
      </trkpt>
      <trkpt lat="47.91201" lon="-2.46637">
        <ele>70.3</ele>
        <time>2024-12-19T11:10:59Z</time>
      </trkpt>
      <trkpt lat="47.91199" lon="-2.46637">
        <ele>70.2</ele>
        <time>2024-12-19T11:11:00Z</time>
      </trkpt>
      <trkpt lat="47.91198" lon="-2.46638">
        <ele>70.1</ele>
        <time>2024-12-19T11:11:01Z</time>
      </trkpt>
      <trkpt lat="47.91196" lon="-2.46638">
        <ele>70.1</ele>
        <time>2024-12-19T11:11:02Z</time>
      </trkpt>
      <trkpt lat="47.91195" lon="-2.46639">
        <ele>70</ele>
        <time>2024-12-19T11:11:03Z</time>
      </trkpt>
      <trkpt lat="47.91193" lon="-2.46639">
        <ele>69.9</ele>
        <time>2024-12-19T11:11:04Z</time>
      </trkpt>
      <trkpt lat="47.91191" lon="-2.46639">
        <ele>69.7</ele>
        <time>2024-12-19T11:11:05Z</time>
      </trkpt>
      <trkpt lat="47.91189" lon="-2.46639">
        <ele>69.6</ele>
        <time>2024-12-19T11:11:06Z</time>
      </trkpt>
      <trkpt lat="47.91188" lon="-2.46639">
        <ele>69.5</ele>
        <time>2024-12-19T11:11:07Z</time>
      </trkpt>
      <trkpt lat="47.91186" lon="-2.46639">
        <ele>69.4</ele>
        <time>2024-12-19T11:11:08Z</time>
      </trkpt>
      <trkpt lat="47.91185" lon="-2.46639">
        <ele>69.3</ele>
        <time>2024-12-19T11:11:09Z</time>
      </trkpt>
      <trkpt lat="47.91184" lon="-2.46639">
        <ele>69.2</ele>
        <time>2024-12-19T11:11:10Z</time>
      </trkpt>
      <trkpt lat="47.91182" lon="-2.46639">
        <ele>69.1</ele>
        <time>2024-12-19T11:11:11Z</time>
      </trkpt>
      <trkpt lat="47.91181" lon="-2.46639">
        <ele>69</ele>
        <time>2024-12-19T11:11:12Z</time>
      </trkpt>
      <trkpt lat="47.9118" lon="-2.4664">
        <ele>68.9</ele>
        <time>2024-12-19T11:11:13Z</time>
      </trkpt>
      <trkpt lat="47.91178" lon="-2.4664">
        <ele>68.8</ele>
        <time>2024-12-19T11:11:14Z</time>
      </trkpt>
      <trkpt lat="47.91177" lon="-2.4664">
        <ele>68.7</ele>
        <time>2024-12-19T11:11:15Z</time>
      </trkpt>
      <trkpt lat="47.91175" lon="-2.4664">
        <ele>68.6</ele>
        <time>2024-12-19T11:11:16Z</time>
      </trkpt>
      <trkpt lat="47.91174" lon="-2.46641">
        <ele>68.6</ele>
        <time>2024-12-19T11:11:17Z</time>
      </trkpt>
      <trkpt lat="47.91173" lon="-2.46642">
        <ele>68.5</ele>
        <time>2024-12-19T11:11:18Z</time>
      </trkpt>
      <trkpt lat="47.91171" lon="-2.46642">
        <ele>68.4</ele>
        <time>2024-12-19T11:11:19Z</time>
      </trkpt>
      <trkpt lat="47.9117" lon="-2.46643">
        <ele>68.4</ele>
        <time>2024-12-19T11:11:20Z</time>
      </trkpt>
      <trkpt lat="47.91169" lon="-2.46643">
        <ele>68.3</ele>
        <time>2024-12-19T11:11:21Z</time>
      </trkpt>
      <trkpt lat="47.91167" lon="-2.46643">
        <ele>68.2</ele>
        <time>2024-12-19T11:11:22Z</time>
      </trkpt>
      <trkpt lat="47.91166" lon="-2.46644">
        <ele>68.1</ele>
        <time>2024-12-19T11:11:23Z</time>
      </trkpt>
      <trkpt lat="47.91164" lon="-2.46645">
        <ele>68</ele>
        <time>2024-12-19T11:11:24Z</time>
      </trkpt>
      <trkpt lat="47.91163" lon="-2.46645">
        <ele>67.9</ele>
        <time>2024-12-19T11:11:25Z</time>
      </trkpt>
      <trkpt lat="47.91162" lon="-2.46645">
        <ele>67.9</ele>
        <time>2024-12-19T11:11:26Z</time>
      </trkpt>
      <trkpt lat="47.9116" lon="-2.46646">
        <ele>67.8</ele>
        <time>2024-12-19T11:11:27Z</time>
      </trkpt>
      <trkpt lat="47.91159" lon="-2.46646">
        <ele>67.7</ele>
        <time>2024-12-19T11:11:28Z</time>
      </trkpt>
      <trkpt lat="47.91158" lon="-2.46646">
        <ele>67.6</ele>
        <time>2024-12-19T11:11:29Z</time>
      </trkpt>
      <trkpt lat="47.91156" lon="-2.46646">
        <ele>67.5</ele>
        <time>2024-12-19T11:11:30Z</time>
      </trkpt>
      <trkpt lat="47.91155" lon="-2.46646">
        <ele>67.4</ele>
        <time>2024-12-19T11:11:31Z</time>
      </trkpt>
      <trkpt lat="47.91153" lon="-2.46646">
        <ele>67.3</ele>
        <time>2024-12-19T11:11:32Z</time>
      </trkpt>
      <trkpt lat="47.91152" lon="-2.46646">
        <ele>67.2</ele>
        <time>2024-12-19T11:11:33Z</time>
      </trkpt>
      <trkpt lat="47.91151" lon="-2.46646">
        <ele>67.2</ele>
        <time>2024-12-19T11:11:34Z</time>
      </trkpt>
      <trkpt lat="47.91151" lon="-2.46647">
        <ele>67.1</ele>
        <time>2024-12-19T11:11:35Z</time>
      </trkpt>
      <trkpt lat="47.91151" lon="-2.46647">
        <ele>67.1</ele>
        <time>2024-12-19T11:11:36Z</time>
      </trkpt>
      <trkpt lat="47.91151" lon="-2.46647">
        <ele>67.1</ele>
        <time>2024-12-19T11:11:37Z</time>
      </trkpt>
      <trkpt lat="47.91151" lon="-2.46647">
        <ele>67.1</ele>
        <time>2024-12-19T11:11:38Z</time>
      </trkpt>
      <trkpt lat="47.91151" lon="-2.46645">
        <ele>67.1</ele>
        <time>2024-12-19T11:11:39Z</time>
      </trkpt>
      <trkpt lat="47.91151" lon="-2.46644">
        <ele>67.1</ele>
        <time>2024-12-19T11:11:40Z</time>
      </trkpt>
      <trkpt lat="47.91151" lon="-2.46643">
        <ele>67</ele>
        <time>2024-12-19T11:11:41Z</time>
      </trkpt>
      <trkpt lat="47.91151" lon="-2.46641">
        <ele>67</ele>
        <time>2024-12-19T11:11:42Z</time>
      </trkpt>
      <trkpt lat="47.91152" lon="-2.4664">
        <ele>67</ele>
        <time>2024-12-19T11:11:43Z</time>
      </trkpt>
      <trkpt lat="47.91152" lon="-2.46639">
        <ele>66.9</ele>
        <time>2024-12-19T11:11:44Z</time>
      </trkpt>
      <trkpt lat="47.91152" lon="-2.46638">
        <ele>67</ele>
        <time>2024-12-19T11:11:45Z</time>
      </trkpt>
      <trkpt lat="47.91152" lon="-2.46637">
        <ele>67</ele>
        <time>2024-12-19T11:11:46Z</time>
      </trkpt>
      <trkpt lat="47.91152" lon="-2.46636">
        <ele>67</ele>
        <time>2024-12-19T11:11:47Z</time>
      </trkpt>
      <trkpt lat="47.91152" lon="-2.46635">
        <ele>67</ele>
        <time>2024-12-19T11:11:48Z</time>
      </trkpt>
      <trkpt lat="47.91152" lon="-2.46634">
        <ele>67</ele>
        <time>2024-12-19T11:11:49Z</time>
      </trkpt>
      <trkpt lat="47.91152" lon="-2.46633">
        <ele>67</ele>
        <time>2024-12-19T11:11:50Z</time>
      </trkpt>
      <trkpt lat="47.91152" lon="-2.46633">
        <ele>67</ele>
        <time>2024-12-19T11:11:51Z</time>
      </trkpt>
      <trkpt lat="47.91152" lon="-2.46633">
        <ele>67</ele>
        <time>2024-12-19T11:11:52Z</time>
      </trkpt>
      <trkpt lat="47.91152" lon="-2.46632">
        <ele>67</ele>
        <time>2024-12-19T11:11:53Z</time>
      </trkpt>
      <trkpt lat="47.91152" lon="-2.46632">
        <ele>67</ele>
        <time>2024-12-19T11:11:54Z</time>
      </trkpt>
      <trkpt lat="47.91152" lon="-2.46632">
        <ele>67</ele>
        <time>2024-12-19T11:11:55Z</time>
      </trkpt>
      <trkpt lat="47.91152" lon="-2.46632">
        <ele>67</ele>
        <time>2024-12-19T11:11:56Z</time>
      </trkpt>
      <trkpt lat="47.91152" lon="-2.46632">
        <ele>67</ele>
        <time>2024-12-19T11:11:57Z</time>
      </trkpt>
      <trkpt lat="47.91152" lon="-2.46632">
        <ele>67</ele>
        <time>2024-12-19T11:11:58Z</time>
      </trkpt>
      <trkpt lat="47.91152" lon="-2.46632">
        <ele>67.1</ele>
        <time>2024-12-19T11:11:59Z</time>
      </trkpt>
      <trkpt lat="47.91152" lon="-2.46632">
        <ele>67.1</ele>
        <time>2024-12-19T11:12:00Z</time>
      </trkpt>
      <trkpt lat="47.91152" lon="-2.46632">
        <ele>67.1</ele>
        <time>2024-12-19T11:12:01Z</time>
      </trkpt>
      <trkpt lat="47.91153" lon="-2.46632">
        <ele>67.1</ele>
        <time>2024-12-19T11:12:02Z</time>
      </trkpt>
      <trkpt lat="47.91153" lon="-2.46632">
        <ele>67.1</ele>
        <time>2024-12-19T11:12:03Z</time>
      </trkpt>
      <trkpt lat="47.91153" lon="-2.46632">
        <ele>67.1</ele>
        <time>2024-12-19T11:12:04Z</time>
      </trkpt>
      <trkpt lat="47.91153" lon="-2.46632">
        <ele>67.1</ele>
        <time>2024-12-19T11:12:05Z</time>
      </trkpt>
      <trkpt lat="47.91153" lon="-2.46632">
        <ele>67.1</ele>
        <time>2024-12-19T11:12:06Z</time>
      </trkpt>
      <trkpt lat="47.91153" lon="-2.46632">
        <ele>67.1</ele>
        <time>2024-12-19T11:12:07Z</time>
      </trkpt>
      <trkpt lat="47.91153" lon="-2.46632">
        <ele>67.1</ele>
        <time>2024-12-19T11:12:08Z</time>
      </trkpt>
      <trkpt lat="47.91153" lon="-2.46631">
        <ele>67.1</ele>
        <time>2024-12-19T11:12:09Z</time>
      </trkpt>
      <trkpt lat="47.91153" lon="-2.46631">
        <ele>67.1</ele>
        <time>2024-12-19T11:12:10Z</time>
      </trkpt>
      <trkpt lat="47.91153" lon="-2.46631">
        <ele>67.1</ele>
        <time>2024-12-19T11:12:11Z</time>
      </trkpt>
      <trkpt lat="47.91153" lon="-2.46631">
        <ele>67.1</ele>
        <time>2024-12-19T11:12:12Z</time>
      </trkpt>
      <trkpt lat="47.91153" lon="-2.46631">
        <ele>67.1</ele>
        <time>2024-12-19T11:12:13Z</time>
      </trkpt>
      <trkpt lat="47.91153" lon="-2.46631">
        <ele>67.1</ele>
        <time>2024-12-19T11:12:14Z</time>
      </trkpt>
      <trkpt lat="47.91153" lon="-2.46631">
        <ele>67.1</ele>
        <time>2024-12-19T11:12:15Z</time>
      </trkpt>
      <trkpt lat="47.91153" lon="-2.46631">
        <ele>67.1</ele>
        <time>2024-12-19T11:12:16Z</time>
      </trkpt>
      <trkpt lat="47.91153" lon="-2.46631">
        <ele>67.1</ele>
        <time>2024-12-19T11:12:17Z</time>
      </trkpt>
      <trkpt lat="47.91153" lon="-2.46631">
        <ele>67.1</ele>
        <time>2024-12-19T11:12:18Z</time>
      </trkpt>
      <trkpt lat="47.91153" lon="-2.46631">
        <ele>67.1</ele>
        <time>2024-12-19T11:12:19Z</time>
      </trkpt>
      <trkpt lat="47.91153" lon="-2.46631">
        <ele>67.1</ele>
        <time>2024-12-19T11:12:20Z</time>
      </trkpt>
      <trkpt lat="47.91153" lon="-2.46631">
        <ele>67.1</ele>
        <time>2024-12-19T11:12:21Z</time>
      </trkpt>
      <trkpt lat="47.91153" lon="-2.46631">
        <ele>67.1</ele>
        <time>2024-12-19T11:12:22Z</time>
      </trkpt>
      <trkpt lat="47.91153" lon="-2.46631">
        <ele>67.1</ele>
        <time>2024-12-19T11:12:23Z</time>
      </trkpt>
      <trkpt lat="47.91153" lon="-2.46631">
        <ele>67.1</ele>
        <time>2024-12-19T11:12:24Z</time>
      </trkpt>
      <trkpt lat="47.91153" lon="-2.46631">
        <ele>67.1</ele>
        <time>2024-12-19T11:12:25Z</time>
      </trkpt>
      <trkpt lat="47.91153" lon="-2.46631">
        <ele>67.1</ele>
        <time>2024-12-19T11:12:26Z</time>
      </trkpt>
      <trkpt lat="47.91153" lon="-2.46631">
        <ele>67.1</ele>
        <time>2024-12-19T11:12:27Z</time>
      </trkpt>
      <trkpt lat="47.91153" lon="-2.46631">
        <ele>67.1</ele>
        <time>2024-12-19T11:12:28Z</time>
      </trkpt>
      <trkpt lat="47.91153" lon="-2.46631">
        <ele>67.1</ele>
        <time>2024-12-19T11:12:29Z</time>
      </trkpt>
      <trkpt lat="47.91153" lon="-2.46631">
        <ele>67.1</ele>
        <time>2024-12-19T11:12:30Z</time>
      </trkpt>
      <trkpt lat="47.91153" lon="-2.46631">
        <ele>67.1</ele>
        <time>2024-12-19T11:12:31Z</time>
      </trkpt>
      <trkpt lat="47.91153" lon="-2.46631">
        <ele>67.1</ele>
        <time>2024-12-19T11:12:32Z</time>
      </trkpt>
      <trkpt lat="47.91153" lon="-2.46631">
        <ele>67.1</ele>
        <time>2024-12-19T11:12:33Z</time>
      </trkpt>
      <trkpt lat="47.91153" lon="-2.46631">
        <ele>67.1</ele>
        <time>2024-12-19T11:12:34Z</time>
      </trkpt>
      <trkpt lat="47.91153" lon="-2.46631">
        <ele>67.1</ele>
        <time>2024-12-19T11:12:35Z</time>
      </trkpt>
      <trkpt lat="47.91153" lon="-2.46631">
        <ele>67.1</ele>
        <time>2024-12-19T11:12:36Z</time>
      </trkpt>
      <trkpt lat="47.91153" lon="-2.46631">
        <ele>67.1</ele>
        <time>2024-12-19T11:12:37Z</time>
      </trkpt>
      <trkpt lat="47.91153" lon="-2.46631">
        <ele>67.1</ele>
        <time>2024-12-19T11:12:38Z</time>
      </trkpt>
      <trkpt lat="47.91153" lon="-2.46631">
        <ele>67.1</ele>
        <time>2024-12-19T11:12:39Z</time>
      </trkpt>
      <trkpt lat="47.91153" lon="-2.46631">
        <ele>67.1</ele>
        <time>2024-12-19T11:12:40Z</time>
      </trkpt>
      <trkpt lat="47.91153" lon="-2.46631">
        <ele>67.1</ele>
        <time>2024-12-19T11:12:41Z</time>
      </trkpt>
      <trkpt lat="47.91153" lon="-2.46631">
        <ele>67.1</ele>
        <time>2024-12-19T11:12:42Z</time>
      </trkpt>
      <trkpt lat="47.91153" lon="-2.46631">
        <ele>67.1</ele>
        <time>2024-12-19T11:12:43Z</time>
      </trkpt>
      <trkpt lat="47.91153" lon="-2.46631">
        <ele>67.1</ele>
        <time>2024-12-19T11:12:44Z</time>
      </trkpt>
      <trkpt lat="47.91153" lon="-2.46631">
        <ele>67.1</ele>
        <time>2024-12-19T11:12:45Z</time>
      </trkpt>
      <trkpt lat="47.91153" lon="-2.46631">
        <ele>67.1</ele>
        <time>2024-12-19T11:12:46Z</time>
      </trkpt>
      <trkpt lat="47.91153" lon="-2.46631">
        <ele>67.1</ele>
        <time>2024-12-19T11:12:47Z</time>
      </trkpt>
      <trkpt lat="47.91153" lon="-2.46631">
        <ele>67.1</ele>
        <time>2024-12-19T11:12:48Z</time>
      </trkpt>
      <trkpt lat="47.91153" lon="-2.46631">
        <ele>67.1</ele>
        <time>2024-12-19T11:12:49Z</time>
      </trkpt>
      <trkpt lat="47.91153" lon="-2.46631">
        <ele>67.1</ele>
        <time>2024-12-19T11:12:50Z</time>
      </trkpt>
      <trkpt lat="47.91153" lon="-2.46631">
        <ele>67.1</ele>
        <time>2024-12-19T11:12:51Z</time>
      </trkpt>
      <trkpt lat="47.91153" lon="-2.46631">
        <ele>67.1</ele>
        <time>2024-12-19T11:12:52Z</time>
      </trkpt>
      <trkpt lat="47.91153" lon="-2.46631">
        <ele>67.1</ele>
        <time>2024-12-19T11:12:53Z</time>
      </trkpt>
      <trkpt lat="47.91153" lon="-2.46631">
        <ele>67.1</ele>
        <time>2024-12-19T11:12:54Z</time>
      </trkpt>
      <trkpt lat="47.91153" lon="-2.46631">
        <ele>67.1</ele>
        <time>2024-12-19T11:12:55Z</time>
      </trkpt>
      <trkpt lat="47.91153" lon="-2.46631">
        <ele>67.1</ele>
        <time>2024-12-19T11:12:56Z</time>
      </trkpt>
      <trkpt lat="47.91153" lon="-2.46631">
        <ele>67.1</ele>
        <time>2024-12-19T11:12:57Z</time>
      </trkpt>
      <trkpt lat="47.91153" lon="-2.46631">
        <ele>67.1</ele>
        <time>2024-12-19T11:12:58Z</time>
      </trkpt>
      <trkpt lat="47.91153" lon="-2.46631">
        <ele>67.1</ele>
        <time>2024-12-19T11:12:59Z</time>
      </trkpt>
      <trkpt lat="47.91153" lon="-2.46631">
        <ele>67.1</ele>
        <time>2024-12-19T11:13:00Z</time>
      </trkpt>
      <trkpt lat="47.91153" lon="-2.46631">
        <ele>67.1</ele>
        <time>2024-12-19T11:13:01Z</time>
      </trkpt>
      <trkpt lat="47.91153" lon="-2.46631">
        <ele>67.1</ele>
        <time>2024-12-19T11:13:02Z</time>
      </trkpt>
      <trkpt lat="47.91153" lon="-2.46631">
        <ele>67.1</ele>
        <time>2024-12-19T11:13:03Z</time>
      </trkpt>
      <trkpt lat="47.91153" lon="-2.46631">
        <ele>67.1</ele>
        <time>2024-12-19T11:13:04Z</time>
      </trkpt>
      <trkpt lat="47.91153" lon="-2.46631">
        <ele>67.1</ele>
        <time>2024-12-19T11:13:05Z</time>
      </trkpt>
      <trkpt lat="47.91153" lon="-2.46631">
        <ele>67.1</ele>
        <time>2024-12-19T11:13:06Z</time>
      </trkpt>
      <trkpt lat="47.91153" lon="-2.46631">
        <ele>67.1</ele>
        <time>2024-12-19T11:13:07Z</time>
      </trkpt>
      <trkpt lat="47.91153" lon="-2.46631">
        <ele>67.1</ele>
        <time>2024-12-19T11:13:08Z</time>
      </trkpt>
      <trkpt lat="47.91153" lon="-2.46631">
        <ele>67.1</ele>
        <time>2024-12-19T11:13:09Z</time>
      </trkpt>
      <trkpt lat="47.91153" lon="-2.46631">
        <ele>67.1</ele>
        <time>2024-12-19T11:13:10Z</time>
      </trkpt>
      <trkpt lat="47.91153" lon="-2.46631">
        <ele>67.1</ele>
        <time>2024-12-19T11:13:11Z</time>
      </trkpt>
      <trkpt lat="47.91153" lon="-2.46631">
        <ele>67.1</ele>
        <time>2024-12-19T11:13:12Z</time>
      </trkpt>
      <trkpt lat="47.91153" lon="-2.46631">
        <ele>67.1</ele>
        <time>2024-12-19T11:13:13Z</time>
      </trkpt>
      <trkpt lat="47.91153" lon="-2.46631">
        <ele>67.1</ele>
        <time>2024-12-19T11:13:14Z</time>
      </trkpt>
      <trkpt lat="47.91153" lon="-2.46631">
        <ele>67.1</ele>
        <time>2024-12-19T11:13:15Z</time>
      </trkpt>
      <trkpt lat="47.91153" lon="-2.46631">
        <ele>67.1</ele>
        <time>2024-12-19T11:13:16Z</time>
      </trkpt>
      <trkpt lat="47.91153" lon="-2.46631">
        <ele>67.1</ele>
        <time>2024-12-19T11:13:17Z</time>
      </trkpt>
      <trkpt lat="47.91153" lon="-2.46631">
        <ele>67.1</ele>
        <time>2024-12-19T11:13:18Z</time>
      </trkpt>
      <trkpt lat="47.91153" lon="-2.46631">
        <ele>67.1</ele>
        <time>2024-12-19T11:13:19Z</time>
      </trkpt>
      <trkpt lat="47.91153" lon="-2.46631">
        <ele>67.1</ele>
        <time>2024-12-19T11:13:20Z</time>
      </trkpt>
      <trkpt lat="47.91153" lon="-2.46631">
        <ele>67.1</ele>
        <time>2024-12-19T11:13:21Z</time>
      </trkpt>
      <trkpt lat="47.91153" lon="-2.46631">
        <ele>67.1</ele>
        <time>2024-12-19T11:13:22Z</time>
      </trkpt>
      <trkpt lat="47.91153" lon="-2.46631">
        <ele>67.1</ele>
        <time>2024-12-19T11:13:23Z</time>
      </trkpt>
      <trkpt lat="47.91153" lon="-2.46631">
        <ele>67.1</ele>
        <time>2024-12-19T11:13:24Z</time>
      </trkpt>
      <trkpt lat="47.91153" lon="-2.46631">
        <ele>67.1</ele>
        <time>2024-12-19T11:13:25Z</time>
      </trkpt>
      <trkpt lat="47.91153" lon="-2.46631">
        <ele>67.1</ele>
        <time>2024-12-19T11:13:26Z</time>
      </trkpt>
      <trkpt lat="47.91153" lon="-2.46631">
        <ele>67.1</ele>
        <time>2024-12-19T11:13:27Z</time>
      </trkpt>
      <trkpt lat="47.91153" lon="-2.46631">
        <ele>67.1</ele>
        <time>2024-12-19T11:13:28Z</time>
      </trkpt>
      <trkpt lat="47.91153" lon="-2.46631">
        <ele>67.1</ele>
        <time>2024-12-19T11:13:29Z</time>
      </trkpt>
      <trkpt lat="47.91153" lon="-2.46631">
        <ele>67.1</ele>
        <time>2024-12-19T11:13:30Z</time>
      </trkpt>
      <trkpt lat="47.91153" lon="-2.46631">
        <ele>67.1</ele>
        <time>2024-12-19T11:13:31Z</time>
      </trkpt>
      <trkpt lat="47.91153" lon="-2.46631">
        <ele>67.1</ele>
        <time>2024-12-19T11:13:32Z</time>
      </trkpt>
      <trkpt lat="47.91153" lon="-2.46631">
        <ele>67.1</ele>
        <time>2024-12-19T11:13:33Z</time>
      </trkpt>
      <trkpt lat="47.91153" lon="-2.46631">
        <ele>67.1</ele>
        <time>2024-12-19T11:13:34Z</time>
      </trkpt>
      <trkpt lat="47.91153" lon="-2.46631">
        <ele>67.1</ele>
        <time>2024-12-19T11:13:35Z</time>
      </trkpt>
      <trkpt lat="47.91153" lon="-2.46631">
        <ele>67.1</ele>
        <time>2024-12-19T11:13:36Z</time>
      </trkpt>
      <trkpt lat="47.91153" lon="-2.46631">
        <ele>67.1</ele>
        <time>2024-12-19T11:13:37Z</time>
      </trkpt>
      <trkpt lat="47.91153" lon="-2.46631">
        <ele>67.1</ele>
        <time>2024-12-19T11:13:38Z</time>
      </trkpt>
      <trkpt lat="47.91153" lon="-2.46631">
        <ele>67.1</ele>
        <time>2024-12-19T11:13:39Z</time>
      </trkpt>
      <trkpt lat="47.91153" lon="-2.46631">
        <ele>67.1</ele>
        <time>2024-12-19T11:13:40Z</time>
      </trkpt>
      <trkpt lat="47.91153" lon="-2.46631">
        <ele>67.1</ele>
        <time>2024-12-19T11:13:41Z</time>
      </trkpt>
      <trkpt lat="47.91153" lon="-2.46631">
        <ele>67.2</ele>
        <time>2024-12-19T11:13:42Z</time>
      </trkpt>
      <trkpt lat="47.91153" lon="-2.46631">
        <ele>67.2</ele>
        <time>2024-12-19T11:13:43Z</time>
      </trkpt>
      <trkpt lat="47.91153" lon="-2.46631">
        <ele>67.2</ele>
        <time>2024-12-19T11:13:44Z</time>
      </trkpt>
      <trkpt lat="47.91153" lon="-2.46631">
        <ele>67.2</ele>
        <time>2024-12-19T11:13:45Z</time>
      </trkpt>
      <trkpt lat="47.91153" lon="-2.46631">
        <ele>67.2</ele>
        <time>2024-12-19T11:13:46Z</time>
      </trkpt>
      <trkpt lat="47.91153" lon="-2.46631">
        <ele>67.1</ele>
        <time>2024-12-19T11:13:47Z</time>
      </trkpt>
      <trkpt lat="47.91153" lon="-2.46632">
        <ele>67.1</ele>
        <time>2024-12-19T11:13:48Z</time>
      </trkpt>
      <trkpt lat="47.91152" lon="-2.46633">
        <ele>67.1</ele>
        <time>2024-12-19T11:13:49Z</time>
      </trkpt>
      <trkpt lat="47.91152" lon="-2.46633">
        <ele>67.1</ele>
        <time>2024-12-19T11:13:50Z</time>
      </trkpt>
      <trkpt lat="47.91152" lon="-2.46633">
        <ele>67.1</ele>
        <time>2024-12-19T11:13:51Z</time>
      </trkpt>
      <trkpt lat="47.91152" lon="-2.46632">
        <ele>67.1</ele>
        <time>2024-12-19T11:13:52Z</time>
      </trkpt>
      <trkpt lat="47.91152" lon="-2.46632">
        <ele>67.1</ele>
        <time>2024-12-19T11:13:53Z</time>
      </trkpt>
      <trkpt lat="47.91152" lon="-2.46632">
        <ele>67.1</ele>
        <time>2024-12-19T11:13:54Z</time>
      </trkpt>
      <trkpt lat="47.91152" lon="-2.46632">
        <ele>67.1</ele>
        <time>2024-12-19T11:13:55Z</time>
      </trkpt>
      <trkpt lat="47.91152" lon="-2.46631">
        <ele>67.1</ele>
        <time>2024-12-19T11:13:56Z</time>
      </trkpt>
      <trkpt lat="47.91152" lon="-2.46631">
        <ele>67.1</ele>
        <time>2024-12-19T11:13:57Z</time>
      </trkpt>
      <trkpt lat="47.91152" lon="-2.46631">
        <ele>67.1</ele>
        <time>2024-12-19T11:13:58Z</time>
      </trkpt>
      <trkpt lat="47.91152" lon="-2.46631">
        <ele>67.1</ele>
        <time>2024-12-19T11:13:59Z</time>
      </trkpt>
      <trkpt lat="47.91152" lon="-2.46631">
        <ele>67.1</ele>
        <time>2024-12-19T11:14:00Z</time>
      </trkpt>
      <trkpt lat="47.91152" lon="-2.46631">
        <ele>67.1</ele>
        <time>2024-12-19T11:14:01Z</time>
      </trkpt>
      <trkpt lat="47.91152" lon="-2.46631">
        <ele>67.1</ele>
        <time>2024-12-19T11:14:02Z</time>
      </trkpt>
      <trkpt lat="47.91152" lon="-2.46631">
        <ele>67.1</ele>
        <time>2024-12-19T11:14:03Z</time>
      </trkpt>
      <trkpt lat="47.91152" lon="-2.46631">
        <ele>67.1</ele>
        <time>2024-12-19T11:14:04Z</time>
      </trkpt>
      <trkpt lat="47.91152" lon="-2.46631">
        <ele>67.1</ele>
        <time>2024-12-19T11:14:05Z</time>
      </trkpt>
      <trkpt lat="47.91152" lon="-2.46631">
        <ele>67.1</ele>
        <time>2024-12-19T11:14:06Z</time>
      </trkpt>
      <trkpt lat="47.91152" lon="-2.46631">
        <ele>67.1</ele>
        <time>2024-12-19T11:14:07Z</time>
      </trkpt>
      <trkpt lat="47.91152" lon="-2.46631">
        <ele>67.1</ele>
        <time>2024-12-19T11:14:08Z</time>
      </trkpt>
      <trkpt lat="47.91152" lon="-2.46631">
        <ele>67.1</ele>
        <time>2024-12-19T11:14:09Z</time>
      </trkpt>
      <trkpt lat="47.91152" lon="-2.46631">
        <ele>67.1</ele>
        <time>2024-12-19T11:14:10Z</time>
      </trkpt>
      <trkpt lat="47.91152" lon="-2.46631">
        <ele>67.1</ele>
        <time>2024-12-19T11:14:11Z</time>
      </trkpt>
      <trkpt lat="47.91152" lon="-2.46631">
        <ele>67.1</ele>
        <time>2024-12-19T11:14:12Z</time>
      </trkpt>
      <trkpt lat="47.91153" lon="-2.46631">
        <ele>67.1</ele>
        <time>2024-12-19T11:14:13Z</time>
      </trkpt>
      <trkpt lat="47.91153" lon="-2.46632">
        <ele>67.1</ele>
        <time>2024-12-19T11:14:14Z</time>
      </trkpt>
      <trkpt lat="47.91154" lon="-2.46632">
        <ele>67.2</ele>
        <time>2024-12-19T11:14:15Z</time>
      </trkpt>
      <trkpt lat="47.91154" lon="-2.46631">
        <ele>67.2</ele>
        <time>2024-12-19T11:14:16Z</time>
      </trkpt>
      <trkpt lat="47.91154" lon="-2.4663">
        <ele>67.3</ele>
        <time>2024-12-19T11:14:18Z</time>
      </trkpt>
      <trkpt lat="47.91154" lon="-2.46629">
        <ele>67.3</ele>
        <time>2024-12-19T11:14:19Z</time>
      </trkpt>
      <trkpt lat="47.91154" lon="-2.46629">
        <ele>67.3</ele>
        <time>2024-12-19T11:14:20Z</time>
      </trkpt>
      <trkpt lat="47.91154" lon="-2.46629">
        <ele>67.2</ele>
        <time>2024-12-19T11:14:21Z</time>
      </trkpt>
      <trkpt lat="47.91153" lon="-2.46629">
        <ele>67.2</ele>
        <time>2024-12-19T11:14:22Z</time>
      </trkpt>
      <trkpt lat="47.91153" lon="-2.46629">
        <ele>67.2</ele>
        <time>2024-12-19T11:14:23Z</time>
      </trkpt>
      <trkpt lat="47.91153" lon="-2.46629">
        <ele>67.2</ele>
        <time>2024-12-19T11:14:24Z</time>
      </trkpt>
      <trkpt lat="47.91153" lon="-2.46628">
        <ele>67.2</ele>
        <time>2024-12-19T11:14:25Z</time>
      </trkpt>
      <trkpt lat="47.91153" lon="-2.46628">
        <ele>67.2</ele>
        <time>2024-12-19T11:14:26Z</time>
      </trkpt>
      <trkpt lat="47.91153" lon="-2.46628">
        <ele>67.2</ele>
        <time>2024-12-19T11:14:27Z</time>
      </trkpt>
      <trkpt lat="47.91153" lon="-2.46628">
        <ele>67.2</ele>
        <time>2024-12-19T11:14:28Z</time>
      </trkpt>
      <trkpt lat="47.91153" lon="-2.46628">
        <ele>67.2</ele>
        <time>2024-12-19T11:14:29Z</time>
      </trkpt>
      <trkpt lat="47.91153" lon="-2.46628">
        <ele>67.2</ele>
        <time>2024-12-19T11:14:30Z</time>
      </trkpt>
      <trkpt lat="47.91153" lon="-2.46628">
        <ele>67.2</ele>
        <time>2024-12-19T11:14:31Z</time>
      </trkpt>
      <trkpt lat="47.91153" lon="-2.46628">
        <ele>67.2</ele>
        <time>2024-12-19T11:14:32Z</time>
      </trkpt>
      <trkpt lat="47.91153" lon="-2.46628">
        <ele>67.2</ele>
        <time>2024-12-19T11:14:33Z</time>
      </trkpt>
      <trkpt lat="47.91153" lon="-2.46628">
        <ele>67.2</ele>
        <time>2024-12-19T11:14:35Z</time>
      </trkpt>
      <trkpt lat="47.91153" lon="-2.46628">
        <ele>67.2</ele>
        <time>2024-12-19T11:14:36Z</time>
      </trkpt>
      <trkpt lat="47.91153" lon="-2.46628">
        <ele>67.2</ele>
        <time>2024-12-19T11:14:37Z</time>
      </trkpt>
      <trkpt lat="47.91153" lon="-2.46628">
        <ele>67.2</ele>
        <time>2024-12-19T11:14:38Z</time>
      </trkpt>
      <trkpt lat="47.91153" lon="-2.46628">
        <ele>67.2</ele>
        <time>2024-12-19T11:14:39Z</time>
      </trkpt>
      <trkpt lat="47.91153" lon="-2.46628">
        <ele>67.2</ele>
        <time>2024-12-19T11:14:40Z</time>
      </trkpt>
      <trkpt lat="47.91153" lon="-2.46628">
        <ele>67.2</ele>
        <time>2024-12-19T11:14:41Z</time>
      </trkpt>
      <trkpt lat="47.91153" lon="-2.46628">
        <ele>67.2</ele>
        <time>2024-12-19T11:14:42Z</time>
      </trkpt>
      <trkpt lat="47.91153" lon="-2.46628">
        <ele>67.2</ele>
        <time>2024-12-19T11:14:43Z</time>
      </trkpt>
      <trkpt lat="47.91153" lon="-2.46627">
        <ele>67.2</ele>
        <time>2024-12-19T11:14:44Z</time>
      </trkpt>
      <trkpt lat="47.91153" lon="-2.46627">
        <ele>67.2</ele>
        <time>2024-12-19T11:14:45Z</time>
      </trkpt>
      <trkpt lat="47.91153" lon="-2.46627">
        <ele>67.2</ele>
        <time>2024-12-19T11:14:46Z</time>
      </trkpt>
      <trkpt lat="47.91153" lon="-2.46627">
        <ele>67.2</ele>
        <time>2024-12-19T11:14:47Z</time>
      </trkpt>
      <trkpt lat="47.91153" lon="-2.46627">
        <ele>67.2</ele>
        <time>2024-12-19T11:14:48Z</time>
      </trkpt>
      <trkpt lat="47.91153" lon="-2.46627">
        <ele>67.2</ele>
        <time>2024-12-19T11:14:49Z</time>
      </trkpt>
      <trkpt lat="47.91153" lon="-2.46627">
        <ele>67.2</ele>
        <time>2024-12-19T11:14:50Z</time>
      </trkpt>
      <trkpt lat="47.91153" lon="-2.46627">
        <ele>67.2</ele>
        <time>2024-12-19T11:14:51Z</time>
      </trkpt>
      <trkpt lat="47.91153" lon="-2.46627">
        <ele>67.2</ele>
        <time>2024-12-19T11:14:52Z</time>
      </trkpt>
      <trkpt lat="47.91153" lon="-2.46627">
        <ele>67.2</ele>
        <time>2024-12-19T11:14:53Z</time>
      </trkpt>
      <trkpt lat="47.91153" lon="-2.46627">
        <ele>67.2</ele>
        <time>2024-12-19T11:14:54Z</time>
      </trkpt>
      <trkpt lat="47.91153" lon="-2.46627">
        <ele>67.2</ele>
        <time>2024-12-19T11:14:56Z</time>
      </trkpt>
      <trkpt lat="47.91153" lon="-2.46627">
        <ele>67.2</ele>
        <time>2024-12-19T11:14:57Z</time>
      </trkpt>
      <trkpt lat="47.91153" lon="-2.46627">
        <ele>67.2</ele>
        <time>2024-12-19T11:14:58Z</time>
      </trkpt>
      <trkpt lat="47.91153" lon="-2.46627">
        <ele>67.2</ele>
        <time>2024-12-19T11:14:59Z</time>
      </trkpt>
      <trkpt lat="47.91153" lon="-2.46627">
        <ele>67.2</ele>
        <time>2024-12-19T11:15:00Z</time>
      </trkpt>
      <trkpt lat="47.91153" lon="-2.46627">
        <ele>67.2</ele>
        <time>2024-12-19T11:15:01Z</time>
      </trkpt>
      <trkpt lat="47.91153" lon="-2.46627">
        <ele>67.2</ele>
        <time>2024-12-19T11:15:02Z</time>
      </trkpt>
      <trkpt lat="47.91153" lon="-2.46627">
        <ele>67.2</ele>
        <time>2024-12-19T11:15:03Z</time>
      </trkpt>
      <trkpt lat="47.91153" lon="-2.46627">
        <ele>67.2</ele>
        <time>2024-12-19T11:15:04Z</time>
      </trkpt>
      <trkpt lat="47.91153" lon="-2.46627">
        <ele>67.2</ele>
        <time>2024-12-19T11:15:05Z</time>
      </trkpt>
      <trkpt lat="47.91153" lon="-2.46627">
        <ele>67.2</ele>
        <time>2024-12-19T11:15:06Z</time>
      </trkpt>
      <trkpt lat="47.91153" lon="-2.46627">
        <ele>67.2</ele>
        <time>2024-12-19T11:15:07Z</time>
      </trkpt>
      <trkpt lat="47.91153" lon="-2.46627">
        <ele>67.2</ele>
        <time>2024-12-19T11:15:08Z</time>
      </trkpt>
      <trkpt lat="47.91153" lon="-2.46627">
        <ele>67.2</ele>
        <time>2024-12-19T11:15:09Z</time>
      </trkpt>
      <trkpt lat="47.91153" lon="-2.46627">
        <ele>67.2</ele>
        <time>2024-12-19T11:15:10Z</time>
      </trkpt>
      <trkpt lat="47.91153" lon="-2.46627">
        <ele>67.2</ele>
        <time>2024-12-19T11:15:11Z</time>
      </trkpt>
      <trkpt lat="47.91153" lon="-2.46627">
        <ele>67.2</ele>
        <time>2024-12-19T11:15:12Z</time>
      </trkpt>
      <trkpt lat="47.91153" lon="-2.46627">
        <ele>67.2</ele>
        <time>2024-12-19T11:15:13Z</time>
      </trkpt>
      <trkpt lat="47.91153" lon="-2.46627">
        <ele>67.2</ele>
        <time>2024-12-19T11:15:14Z</time>
      </trkpt>
      <trkpt lat="47.91153" lon="-2.46627">
        <ele>67.2</ele>
        <time>2024-12-19T11:15:15Z</time>
      </trkpt>
      <trkpt lat="47.91153" lon="-2.46627">
        <ele>67.2</ele>
        <time>2024-12-19T11:15:16Z</time>
      </trkpt>
      <trkpt lat="47.91153" lon="-2.46627">
        <ele>67.2</ele>
        <time>2024-12-19T11:15:17Z</time>
      </trkpt>
      <trkpt lat="47.91153" lon="-2.46627">
        <ele>67.2</ele>
        <time>2024-12-19T11:15:18Z</time>
      </trkpt>
      <trkpt lat="47.91153" lon="-2.46627">
        <ele>67.2</ele>
        <time>2024-12-19T11:15:19Z</time>
      </trkpt>
      <trkpt lat="47.91153" lon="-2.46627">
        <ele>67.2</ele>
        <time>2024-12-19T11:15:20Z</time>
      </trkpt>
      <trkpt lat="47.91153" lon="-2.46627">
        <ele>67.2</ele>
        <time>2024-12-19T11:15:21Z</time>
      </trkpt>
      <trkpt lat="47.91153" lon="-2.46627">
        <ele>67.2</ele>
        <time>2024-12-19T11:15:22Z</time>
      </trkpt>
      <trkpt lat="47.91153" lon="-2.46627">
        <ele>67.2</ele>
        <time>2024-12-19T11:15:23Z</time>
      </trkpt>
      <trkpt lat="47.91153" lon="-2.46627">
        <ele>67.2</ele>
        <time>2024-12-19T11:15:24Z</time>
      </trkpt>
      <trkpt lat="47.91153" lon="-2.46627">
        <ele>67.2</ele>
        <time>2024-12-19T11:15:25Z</time>
      </trkpt>
      <trkpt lat="47.91153" lon="-2.46627">
        <ele>67.2</ele>
        <time>2024-12-19T11:15:26Z</time>
      </trkpt>
      <trkpt lat="47.91153" lon="-2.46627">
        <ele>67.2</ele>
        <time>2024-12-19T11:15:27Z</time>
      </trkpt>
      <trkpt lat="47.91153" lon="-2.46627">
        <ele>67.2</ele>
        <time>2024-12-19T11:15:28Z</time>
      </trkpt>
      <trkpt lat="47.91153" lon="-2.46627">
        <ele>67.2</ele>
        <time>2024-12-19T11:15:29Z</time>
      </trkpt>
      <trkpt lat="47.91153" lon="-2.46627">
        <ele>67.2</ele>
        <time>2024-12-19T11:15:30Z</time>
      </trkpt>
      <trkpt lat="47.91153" lon="-2.46627">
        <ele>67.2</ele>
        <time>2024-12-19T11:15:31Z</time>
      </trkpt>
      <trkpt lat="47.91153" lon="-2.46627">
        <ele>67.2</ele>
        <time>2024-12-19T11:15:32Z</time>
      </trkpt>
      <trkpt lat="47.91153" lon="-2.46627">
        <ele>67.2</ele>
        <time>2024-12-19T11:15:33Z</time>
      </trkpt>
      <trkpt lat="47.91153" lon="-2.46627">
        <ele>67.2</ele>
        <time>2024-12-19T11:15:34Z</time>
      </trkpt>
      <trkpt lat="47.91153" lon="-2.46627">
        <ele>67.2</ele>
        <time>2024-12-19T11:15:35Z</time>
      </trkpt>
      <trkpt lat="47.91153" lon="-2.46627">
        <ele>67.2</ele>
        <time>2024-12-19T11:15:36Z</time>
      </trkpt>
      <trkpt lat="47.91153" lon="-2.46627">
        <ele>67.2</ele>
        <time>2024-12-19T11:15:37Z</time>
      </trkpt>
      <trkpt lat="47.91153" lon="-2.46627">
        <ele>67.2</ele>
        <time>2024-12-19T11:15:38Z</time>
      </trkpt>
      <trkpt lat="47.91153" lon="-2.46627">
        <ele>67.2</ele>
        <time>2024-12-19T11:15:39Z</time>
      </trkpt>
      <trkpt lat="47.91153" lon="-2.46627">
        <ele>67.2</ele>
        <time>2024-12-19T11:15:40Z</time>
      </trkpt>
      <trkpt lat="47.91153" lon="-2.46627">
        <ele>67.2</ele>
        <time>2024-12-19T11:15:41Z</time>
      </trkpt>
      <trkpt lat="47.91153" lon="-2.46627">
        <ele>67.2</ele>
        <time>2024-12-19T11:15:42Z</time>
      </trkpt>
      <trkpt lat="47.91153" lon="-2.46627">
        <ele>67.2</ele>
        <time>2024-12-19T11:15:43Z</time>
      </trkpt>
      <trkpt lat="47.91153" lon="-2.46627">
        <ele>67.2</ele>
        <time>2024-12-19T11:15:44Z</time>
      </trkpt>
      <trkpt lat="47.91153" lon="-2.46627">
        <ele>67.2</ele>
        <time>2024-12-19T11:15:45Z</time>
      </trkpt>
      <trkpt lat="47.91153" lon="-2.46627">
        <ele>67.2</ele>
        <time>2024-12-19T11:15:46Z</time>
      </trkpt>
      <trkpt lat="47.91153" lon="-2.46627">
        <ele>67.2</ele>
        <time>2024-12-19T11:15:47Z</time>
      </trkpt>
      <trkpt lat="47.91153" lon="-2.46627">
        <ele>67.2</ele>
        <time>2024-12-19T11:15:48Z</time>
      </trkpt>
      <trkpt lat="47.91153" lon="-2.46627">
        <ele>67.2</ele>
        <time>2024-12-19T11:15:49Z</time>
      </trkpt>
      <trkpt lat="47.91153" lon="-2.46627">
        <ele>67.2</ele>
        <time>2024-12-19T11:15:50Z</time>
      </trkpt>
      <trkpt lat="47.91153" lon="-2.46627">
        <ele>67.2</ele>
        <time>2024-12-19T11:15:51Z</time>
      </trkpt>
      <trkpt lat="47.91153" lon="-2.46627">
        <ele>67.2</ele>
        <time>2024-12-19T11:15:52Z</time>
      </trkpt>
      <trkpt lat="47.91153" lon="-2.46627">
        <ele>67.2</ele>
        <time>2024-12-19T11:15:53Z</time>
      </trkpt>
      <trkpt lat="47.91153" lon="-2.46627">
        <ele>67.2</ele>
        <time>2024-12-19T11:15:54Z</time>
      </trkpt>
      <trkpt lat="47.91153" lon="-2.46627">
        <ele>67.2</ele>
        <time>2024-12-19T11:15:55Z</time>
      </trkpt>
      <trkpt lat="47.91153" lon="-2.46627">
        <ele>67.2</ele>
        <time>2024-12-19T11:15:56Z</time>
      </trkpt>
      <trkpt lat="47.91153" lon="-2.46627">
        <ele>67.2</ele>
        <time>2024-12-19T11:15:57Z</time>
      </trkpt>
      <trkpt lat="47.91153" lon="-2.46627">
        <ele>67.2</ele>
        <time>2024-12-19T11:15:58Z</time>
      </trkpt>
      <trkpt lat="47.91153" lon="-2.46627">
        <ele>67.2</ele>
        <time>2024-12-19T11:15:59Z</time>
      </trkpt>
      <trkpt lat="47.91153" lon="-2.46627">
        <ele>67.2</ele>
        <time>2024-12-19T11:16:03Z</time>
      </trkpt>
      <trkpt lat="47.91153" lon="-2.46627">
        <ele>67.2</ele>
        <time>2024-12-19T11:16:04Z</time>
      </trkpt>
      <trkpt lat="47.91153" lon="-2.46627">
        <ele>67.2</ele>
        <time>2024-12-19T11:16:05Z</time>
      </trkpt>
      <trkpt lat="47.91153" lon="-2.46627">
        <ele>67.2</ele>
        <time>2024-12-19T11:16:06Z</time>
      </trkpt>
      <trkpt lat="47.91153" lon="-2.46627">
        <ele>67.2</ele>
        <time>2024-12-19T11:16:07Z</time>
      </trkpt>
      <trkpt lat="47.91153" lon="-2.46627">
        <ele>67.2</ele>
        <time>2024-12-19T11:16:08Z</time>
      </trkpt>
      <trkpt lat="47.91153" lon="-2.46627">
        <ele>67.2</ele>
        <time>2024-12-19T11:16:09Z</time>
      </trkpt>
      <trkpt lat="47.91153" lon="-2.46627">
        <ele>67.2</ele>
        <time>2024-12-19T11:16:10Z</time>
      </trkpt>
      <trkpt lat="47.91153" lon="-2.46627">
        <ele>67.2</ele>
        <time>2024-12-19T11:16:11Z</time>
      </trkpt>
      <trkpt lat="47.91153" lon="-2.46627">
        <ele>67.2</ele>
        <time>2024-12-19T11:16:12Z</time>
      </trkpt>
      <trkpt lat="47.91153" lon="-2.46627">
        <ele>67.2</ele>
        <time>2024-12-19T11:16:13Z</time>
      </trkpt>
      <trkpt lat="47.91153" lon="-2.46627">
        <ele>67.2</ele>
        <time>2024-12-19T11:16:14Z</time>
      </trkpt>
      <trkpt lat="47.91153" lon="-2.46627">
        <ele>67.2</ele>
        <time>2024-12-19T11:16:15Z</time>
      </trkpt>
      <trkpt lat="47.91153" lon="-2.46627">
        <ele>67.2</ele>
        <time>2024-12-19T11:16:16Z</time>
      </trkpt>
      <trkpt lat="47.91153" lon="-2.46627">
        <ele>67.2</ele>
        <time>2024-12-19T11:16:17Z</time>
      </trkpt>
      <trkpt lat="47.91153" lon="-2.46627">
        <ele>67.2</ele>
        <time>2024-12-19T11:16:18Z</time>
      </trkpt>
      <trkpt lat="47.91153" lon="-2.46627">
        <ele>67.2</ele>
        <time>2024-12-19T11:16:19Z</time>
      </trkpt>
      <trkpt lat="47.91153" lon="-2.46627">
        <ele>67.2</ele>
        <time>2024-12-19T11:16:20Z</time>
      </trkpt>
      <trkpt lat="47.91153" lon="-2.46627">
        <ele>67.2</ele>
        <time>2024-12-19T11:16:21Z</time>
      </trkpt>
      <trkpt lat="47.91153" lon="-2.46627">
        <ele>67.2</ele>
        <time>2024-12-19T11:16:22Z</time>
      </trkpt>
      <trkpt lat="47.91153" lon="-2.46627">
        <ele>67.2</ele>
        <time>2024-12-19T11:16:23Z</time>
      </trkpt>
      <trkpt lat="47.91153" lon="-2.46627">
        <ele>67.2</ele>
        <time>2024-12-19T11:16:24Z</time>
      </trkpt>
      <trkpt lat="47.91153" lon="-2.46627">
        <ele>67.2</ele>
        <time>2024-12-19T11:16:25Z</time>
      </trkpt>
      <trkpt lat="47.91153" lon="-2.46627">
        <ele>67.2</ele>
        <time>2024-12-19T11:16:26Z</time>
      </trkpt>
      <trkpt lat="47.91153" lon="-2.46627">
        <ele>67.2</ele>
        <time>2024-12-19T11:16:27Z</time>
      </trkpt>
      <trkpt lat="47.91153" lon="-2.46627">
        <ele>67.2</ele>
        <time>2024-12-19T11:16:28Z</time>
      </trkpt>
      <trkpt lat="47.91153" lon="-2.46627">
        <ele>67.2</ele>
        <time>2024-12-19T11:16:29Z</time>
      </trkpt>
      <trkpt lat="47.91153" lon="-2.46627">
        <ele>67.2</ele>
        <time>2024-12-19T11:16:30Z</time>
      </trkpt>
      <trkpt lat="47.91153" lon="-2.46627">
        <ele>67.2</ele>
        <time>2024-12-19T11:16:31Z</time>
      </trkpt>
      <trkpt lat="47.91153" lon="-2.46627">
        <ele>67.2</ele>
        <time>2024-12-19T11:16:32Z</time>
      </trkpt>
      <trkpt lat="47.91153" lon="-2.46627">
        <ele>67.2</ele>
        <time>2024-12-19T11:16:33Z</time>
      </trkpt>
      <trkpt lat="47.91153" lon="-2.46627">
        <ele>67.2</ele>
        <time>2024-12-19T11:16:34Z</time>
      </trkpt>
      <trkpt lat="47.91153" lon="-2.46627">
        <ele>67.2</ele>
        <time>2024-12-19T11:16:35Z</time>
      </trkpt>
      <trkpt lat="47.91153" lon="-2.46627">
        <ele>67.2</ele>
        <time>2024-12-19T11:16:36Z</time>
      </trkpt>
      <trkpt lat="47.91153" lon="-2.46627">
        <ele>67.2</ele>
        <time>2024-12-19T11:16:37Z</time>
      </trkpt>
      <trkpt lat="47.91153" lon="-2.46627">
        <ele>67.2</ele>
        <time>2024-12-19T11:16:38Z</time>
      </trkpt>
      <trkpt lat="47.91153" lon="-2.46627">
        <ele>67.2</ele>
        <time>2024-12-19T11:16:39Z</time>
      </trkpt>
      <trkpt lat="47.91153" lon="-2.46627">
        <ele>67.2</ele>
        <time>2024-12-19T11:16:40Z</time>
      </trkpt>
      <trkpt lat="47.91153" lon="-2.46627">
        <ele>67.2</ele>
        <time>2024-12-19T11:16:41Z</time>
      </trkpt>
      <trkpt lat="47.91153" lon="-2.46627">
        <ele>67.2</ele>
        <time>2024-12-19T11:16:42Z</time>
      </trkpt>
      <trkpt lat="47.91153" lon="-2.46627">
        <ele>67.2</ele>
        <time>2024-12-19T11:16:43Z</time>
      </trkpt>
      <trkpt lat="47.91153" lon="-2.46627">
        <ele>67.2</ele>
        <time>2024-12-19T11:16:44Z</time>
      </trkpt>
      <trkpt lat="47.91153" lon="-2.46627">
        <ele>67.2</ele>
        <time>2024-12-19T11:16:45Z</time>
      </trkpt>
      <trkpt lat="47.91153" lon="-2.46627">
        <ele>67.2</ele>
        <time>2024-12-19T11:16:46Z</time>
      </trkpt>
      <trkpt lat="47.91153" lon="-2.46627">
        <ele>67.2</ele>
        <time>2024-12-19T11:16:47Z</time>
      </trkpt>
      <trkpt lat="47.91153" lon="-2.46627">
        <ele>67.2</ele>
        <time>2024-12-19T11:16:48Z</time>
      </trkpt>
      <trkpt lat="47.91153" lon="-2.46627">
        <ele>67.2</ele>
        <time>2024-12-19T11:16:49Z</time>
      </trkpt>
      <trkpt lat="47.91153" lon="-2.46627">
        <ele>67.2</ele>
        <time>2024-12-19T11:16:50Z</time>
      </trkpt>
      <trkpt lat="47.91153" lon="-2.46627">
        <ele>67.2</ele>
        <time>2024-12-19T11:16:51Z</time>
      </trkpt>
      <trkpt lat="47.91153" lon="-2.46627">
        <ele>67.2</ele>
        <time>2024-12-19T11:16:52Z</time>
      </trkpt>
      <trkpt lat="47.91153" lon="-2.46627">
        <ele>67.2</ele>
        <time>2024-12-19T11:16:53Z</time>
      </trkpt>
      <trkpt lat="47.91153" lon="-2.46627">
        <ele>67.2</ele>
        <time>2024-12-19T11:16:54Z</time>
      </trkpt>
      <trkpt lat="47.91153" lon="-2.46627">
        <ele>67.2</ele>
        <time>2024-12-19T11:16:55Z</time>
      </trkpt>
      <trkpt lat="47.91153" lon="-2.46627">
        <ele>67.2</ele>
        <time>2024-12-19T11:16:56Z</time>
      </trkpt>
      <trkpt lat="47.91153" lon="-2.46627">
        <ele>67.2</ele>
        <time>2024-12-19T11:16:57Z</time>
      </trkpt>
      <trkpt lat="47.91153" lon="-2.46627">
        <ele>67.2</ele>
        <time>2024-12-19T11:16:58Z</time>
      </trkpt>
      <trkpt lat="47.91153" lon="-2.46627">
        <ele>67.2</ele>
        <time>2024-12-19T11:16:59Z</time>
      </trkpt>
      <trkpt lat="47.91153" lon="-2.46627">
        <ele>67.2</ele>
        <time>2024-12-19T11:17:00Z</time>
      </trkpt>
      <trkpt lat="47.91153" lon="-2.46627">
        <ele>67.2</ele>
        <time>2024-12-19T11:17:01Z</time>
      </trkpt>
      <trkpt lat="47.91153" lon="-2.46627">
        <ele>67.2</ele>
        <time>2024-12-19T11:17:02Z</time>
      </trkpt>
      <trkpt lat="47.91153" lon="-2.46627">
        <ele>67.2</ele>
        <time>2024-12-19T11:17:03Z</time>
      </trkpt>
      <trkpt lat="47.91153" lon="-2.46627">
        <ele>67.2</ele>
        <time>2024-12-19T11:17:04Z</time>
      </trkpt>
      <trkpt lat="47.91153" lon="-2.46627">
        <ele>67.2</ele>
        <time>2024-12-19T11:17:05Z</time>
      </trkpt>
      <trkpt lat="47.91153" lon="-2.46627">
        <ele>67.2</ele>
        <time>2024-12-19T11:17:06Z</time>
      </trkpt>
      <trkpt lat="47.91153" lon="-2.46627">
        <ele>67.2</ele>
        <time>2024-12-19T11:17:07Z</time>
      </trkpt>
      <trkpt lat="47.91153" lon="-2.46627">
        <ele>67.2</ele>
        <time>2024-12-19T11:17:08Z</time>
      </trkpt>
      <trkpt lat="47.91153" lon="-2.46627">
        <ele>67.2</ele>
        <time>2024-12-19T11:17:09Z</time>
      </trkpt>
      <trkpt lat="47.91153" lon="-2.46627">
        <ele>67.2</ele>
        <time>2024-12-19T11:17:10Z</time>
      </trkpt>
      <trkpt lat="47.91153" lon="-2.46627">
        <ele>67.2</ele>
        <time>2024-12-19T11:17:11Z</time>
      </trkpt>
      <trkpt lat="47.91153" lon="-2.46627">
        <ele>67.2</ele>
        <time>2024-12-19T11:17:12Z</time>
      </trkpt>
      <trkpt lat="47.91153" lon="-2.46627">
        <ele>67.2</ele>
        <time>2024-12-19T11:17:13Z</time>
      </trkpt>
      <trkpt lat="47.91153" lon="-2.46627">
        <ele>67.2</ele>
        <time>2024-12-19T11:17:14Z</time>
      </trkpt>
      <trkpt lat="47.91153" lon="-2.46627">
        <ele>67.2</ele>
        <time>2024-12-19T11:17:15Z</time>
      </trkpt>
      <trkpt lat="47.91153" lon="-2.46627">
        <ele>67.2</ele>
        <time>2024-12-19T11:17:16Z</time>
      </trkpt>
      <trkpt lat="47.91153" lon="-2.46627">
        <ele>67.2</ele>
        <time>2024-12-19T11:17:17Z</time>
      </trkpt>
      <trkpt lat="47.91153" lon="-2.46627">
        <ele>67.2</ele>
        <time>2024-12-19T11:17:18Z</time>
      </trkpt>
      <trkpt lat="47.91153" lon="-2.46627">
        <ele>67.2</ele>
        <time>2024-12-19T11:17:19Z</time>
      </trkpt>
      <trkpt lat="47.91153" lon="-2.46627">
        <ele>67.2</ele>
        <time>2024-12-19T11:17:20Z</time>
      </trkpt>
      <trkpt lat="47.91153" lon="-2.46627">
        <ele>67.2</ele>
        <time>2024-12-19T11:17:21Z</time>
      </trkpt>
      <trkpt lat="47.91153" lon="-2.46627">
        <ele>67.2</ele>
        <time>2024-12-19T11:17:22Z</time>
      </trkpt>
      <trkpt lat="47.91153" lon="-2.46627">
        <ele>67.2</ele>
        <time>2024-12-19T11:17:23Z</time>
      </trkpt>
      <trkpt lat="47.91153" lon="-2.46627">
        <ele>67.2</ele>
        <time>2024-12-19T11:17:24Z</time>
      </trkpt>
      <trkpt lat="47.91153" lon="-2.46627">
        <ele>67.2</ele>
        <time>2024-12-19T11:17:25Z</time>
      </trkpt>
      <trkpt lat="47.91153" lon="-2.46627">
        <ele>67.2</ele>
        <time>2024-12-19T11:17:26Z</time>
      </trkpt>
      <trkpt lat="47.91153" lon="-2.46627">
        <ele>67.2</ele>
        <time>2024-12-19T11:17:27Z</time>
      </trkpt>
      <trkpt lat="47.91153" lon="-2.46627">
        <ele>67.2</ele>
        <time>2024-12-19T11:17:28Z</time>
      </trkpt>
      <trkpt lat="47.91153" lon="-2.46627">
        <ele>67.2</ele>
        <time>2024-12-19T11:17:29Z</time>
      </trkpt>
      <trkpt lat="47.91153" lon="-2.46627">
        <ele>67.2</ele>
        <time>2024-12-19T11:17:30Z</time>
      </trkpt>
      <trkpt lat="47.91153" lon="-2.46627">
        <ele>67.2</ele>
        <time>2024-12-19T11:17:31Z</time>
      </trkpt>
      <trkpt lat="47.91153" lon="-2.46627">
        <ele>67.2</ele>
        <time>2024-12-19T11:17:32Z</time>
      </trkpt>
      <trkpt lat="47.91153" lon="-2.46627">
        <ele>67.2</ele>
        <time>2024-12-19T11:17:33Z</time>
      </trkpt>
      <trkpt lat="47.91153" lon="-2.46627">
        <ele>67.2</ele>
        <time>2024-12-19T11:17:34Z</time>
      </trkpt>
      <trkpt lat="47.91153" lon="-2.46627">
        <ele>67.2</ele>
        <time>2024-12-19T11:17:35Z</time>
      </trkpt>
      <trkpt lat="47.91153" lon="-2.46627">
        <ele>67.2</ele>
        <time>2024-12-19T11:17:36Z</time>
      </trkpt>
      <trkpt lat="47.91153" lon="-2.46627">
        <ele>67.2</ele>
        <time>2024-12-19T11:17:38Z</time>
      </trkpt>
      <trkpt lat="47.91153" lon="-2.46627">
        <ele>67.2</ele>
        <time>2024-12-19T11:17:39Z</time>
      </trkpt>
      <trkpt lat="47.91153" lon="-2.46627">
        <ele>67.2</ele>
        <time>2024-12-19T11:17:40Z</time>
      </trkpt>
      <trkpt lat="47.91153" lon="-2.46627">
        <ele>67.2</ele>
        <time>2024-12-19T11:17:41Z</time>
      </trkpt>
      <trkpt lat="47.91153" lon="-2.46627">
        <ele>67.2</ele>
        <time>2024-12-19T11:17:42Z</time>
      </trkpt>
      <trkpt lat="47.91153" lon="-2.46627">
        <ele>67.2</ele>
        <time>2024-12-19T11:17:43Z</time>
      </trkpt>
      <trkpt lat="47.91153" lon="-2.46627">
        <ele>67.2</ele>
        <time>2024-12-19T11:17:44Z</time>
      </trkpt>
      <trkpt lat="47.91153" lon="-2.46627">
        <ele>67.2</ele>
        <time>2024-12-19T11:17:45Z</time>
      </trkpt>
      <trkpt lat="47.91153" lon="-2.46627">
        <ele>67.2</ele>
        <time>2024-12-19T11:17:46Z</time>
      </trkpt>
      <trkpt lat="47.91153" lon="-2.46627">
        <ele>67.2</ele>
        <time>2024-12-19T11:17:47Z</time>
      </trkpt>
      <trkpt lat="47.91153" lon="-2.46627">
        <ele>67.2</ele>
        <time>2024-12-19T11:17:48Z</time>
      </trkpt>
      <trkpt lat="47.91153" lon="-2.46627">
        <ele>67.2</ele>
        <time>2024-12-19T11:17:49Z</time>
      </trkpt>
      <trkpt lat="47.91153" lon="-2.46627">
        <ele>67.2</ele>
        <time>2024-12-19T11:17:50Z</time>
      </trkpt>
      <trkpt lat="47.91153" lon="-2.46627">
        <ele>67.2</ele>
        <time>2024-12-19T11:17:51Z</time>
      </trkpt>
      <trkpt lat="47.91153" lon="-2.46627">
        <ele>67.2</ele>
        <time>2024-12-19T11:17:52Z</time>
      </trkpt>
      <trkpt lat="47.91153" lon="-2.46627">
        <ele>67.2</ele>
        <time>2024-12-19T11:17:53Z</time>
      </trkpt>
      <trkpt lat="47.91153" lon="-2.46627">
        <ele>67.2</ele>
        <time>2024-12-19T11:17:54Z</time>
      </trkpt>
      <trkpt lat="47.91153" lon="-2.46627">
        <ele>67.2</ele>
        <time>2024-12-19T11:17:55Z</time>
      </trkpt>
      <trkpt lat="47.91153" lon="-2.46627">
        <ele>67.2</ele>
        <time>2024-12-19T11:17:56Z</time>
      </trkpt>
      <trkpt lat="47.91153" lon="-2.46627">
        <ele>67.2</ele>
        <time>2024-12-19T11:17:57Z</time>
      </trkpt>
      <trkpt lat="47.91153" lon="-2.46627">
        <ele>67.2</ele>
        <time>2024-12-19T11:17:58Z</time>
      </trkpt>
      <trkpt lat="47.91153" lon="-2.46627">
        <ele>67.2</ele>
        <time>2024-12-19T11:17:59Z</time>
      </trkpt>
      <trkpt lat="47.91153" lon="-2.46627">
        <ele>67.2</ele>
        <time>2024-12-19T11:18:00Z</time>
      </trkpt>
      <trkpt lat="47.91153" lon="-2.46627">
        <ele>67.2</ele>
        <time>2024-12-19T11:18:01Z</time>
      </trkpt>
      <trkpt lat="47.91153" lon="-2.46627">
        <ele>67.2</ele>
        <time>2024-12-19T11:18:02Z</time>
      </trkpt>
      <trkpt lat="47.91153" lon="-2.46627">
        <ele>67.2</ele>
        <time>2024-12-19T11:18:03Z</time>
      </trkpt>
      <trkpt lat="47.91153" lon="-2.46627">
        <ele>67.2</ele>
        <time>2024-12-19T11:18:04Z</time>
      </trkpt>
      <trkpt lat="47.91153" lon="-2.46627">
        <ele>67.2</ele>
        <time>2024-12-19T11:18:05Z</time>
      </trkpt>
      <trkpt lat="47.91153" lon="-2.46627">
        <ele>67.2</ele>
        <time>2024-12-19T11:18:06Z</time>
      </trkpt>
      <trkpt lat="47.91153" lon="-2.46627">
        <ele>67.2</ele>
        <time>2024-12-19T11:18:07Z</time>
      </trkpt>
      <trkpt lat="47.91153" lon="-2.46627">
        <ele>67.2</ele>
        <time>2024-12-19T11:18:08Z</time>
      </trkpt>
      <trkpt lat="47.91153" lon="-2.46627">
        <ele>67.2</ele>
        <time>2024-12-19T11:18:09Z</time>
      </trkpt>
      <trkpt lat="47.91153" lon="-2.46627">
        <ele>67.2</ele>
        <time>2024-12-19T11:18:10Z</time>
      </trkpt>
      <trkpt lat="47.91153" lon="-2.46627">
        <ele>67.2</ele>
        <time>2024-12-19T11:18:11Z</time>
      </trkpt>
      <trkpt lat="47.91153" lon="-2.46627">
        <ele>67.2</ele>
        <time>2024-12-19T11:18:12Z</time>
      </trkpt>
      <trkpt lat="47.91153" lon="-2.46627">
        <ele>67.2</ele>
        <time>2024-12-19T11:18:13Z</time>
      </trkpt>
      <trkpt lat="47.91153" lon="-2.46627">
        <ele>67.2</ele>
        <time>2024-12-19T11:18:14Z</time>
      </trkpt>
      <trkpt lat="47.91153" lon="-2.46627">
        <ele>67.2</ele>
        <time>2024-12-19T11:18:15Z</time>
      </trkpt>
      <trkpt lat="47.91153" lon="-2.46627">
        <ele>67.2</ele>
        <time>2024-12-19T11:18:16Z</time>
      </trkpt>
      <trkpt lat="47.91153" lon="-2.46627">
        <ele>67.2</ele>
        <time>2024-12-19T11:18:17Z</time>
      </trkpt>
      <trkpt lat="47.91153" lon="-2.46627">
        <ele>67.2</ele>
        <time>2024-12-19T11:18:18Z</time>
      </trkpt>
      <trkpt lat="47.91153" lon="-2.46627">
        <ele>67.2</ele>
        <time>2024-12-19T11:18:19Z</time>
      </trkpt>
      <trkpt lat="47.91153" lon="-2.46627">
        <ele>67.2</ele>
        <time>2024-12-19T11:18:20Z</time>
      </trkpt>
      <trkpt lat="47.91153" lon="-2.46627">
        <ele>67.2</ele>
        <time>2024-12-19T11:18:21Z</time>
      </trkpt>
      <trkpt lat="47.91153" lon="-2.46627">
        <ele>67.2</ele>
        <time>2024-12-19T11:18:22Z</time>
      </trkpt>
      <trkpt lat="47.91153" lon="-2.46627">
        <ele>67.2</ele>
        <time>2024-12-19T11:18:23Z</time>
      </trkpt>
      <trkpt lat="47.91153" lon="-2.46627">
        <ele>67.2</ele>
        <time>2024-12-19T11:18:24Z</time>
      </trkpt>
      <trkpt lat="47.91153" lon="-2.46627">
        <ele>67.2</ele>
        <time>2024-12-19T11:18:25Z</time>
      </trkpt>
      <trkpt lat="47.91153" lon="-2.46627">
        <ele>67.2</ele>
        <time>2024-12-19T11:18:26Z</time>
      </trkpt>
      <trkpt lat="47.91153" lon="-2.46627">
        <ele>67.2</ele>
        <time>2024-12-19T11:18:27Z</time>
      </trkpt>
      <trkpt lat="47.91153" lon="-2.46627">
        <ele>67.2</ele>
        <time>2024-12-19T11:18:28Z</time>
      </trkpt>
      <trkpt lat="47.91153" lon="-2.46627">
        <ele>67.2</ele>
        <time>2024-12-19T11:18:29Z</time>
      </trkpt>
      <trkpt lat="47.91153" lon="-2.46627">
        <ele>67.2</ele>
        <time>2024-12-19T11:18:30Z</time>
      </trkpt>
      <trkpt lat="47.91153" lon="-2.46627">
        <ele>67.2</ele>
        <time>2024-12-19T11:18:31Z</time>
      </trkpt>
      <trkpt lat="47.91153" lon="-2.46627">
        <ele>67.2</ele>
        <time>2024-12-19T11:18:32Z</time>
      </trkpt>
      <trkpt lat="47.91153" lon="-2.46627">
        <ele>67.2</ele>
        <time>2024-12-19T11:18:33Z</time>
      </trkpt>
      <trkpt lat="47.91153" lon="-2.46627">
        <ele>67.2</ele>
        <time>2024-12-19T11:18:34Z</time>
      </trkpt>
      <trkpt lat="47.91153" lon="-2.46627">
        <ele>67.2</ele>
        <time>2024-12-19T11:18:35Z</time>
      </trkpt>
      <trkpt lat="47.91153" lon="-2.46627">
        <ele>67.2</ele>
        <time>2024-12-19T11:18:36Z</time>
      </trkpt>
      <trkpt lat="47.91153" lon="-2.46627">
        <ele>67.2</ele>
        <time>2024-12-19T11:18:37Z</time>
      </trkpt>
      <trkpt lat="47.91153" lon="-2.46627">
        <ele>67.2</ele>
        <time>2024-12-19T11:18:38Z</time>
      </trkpt>
      <trkpt lat="47.91153" lon="-2.46627">
        <ele>67.2</ele>
        <time>2024-12-19T11:18:39Z</time>
      </trkpt>
      <trkpt lat="47.91153" lon="-2.46627">
        <ele>67.2</ele>
        <time>2024-12-19T11:18:40Z</time>
      </trkpt>
      <trkpt lat="47.91153" lon="-2.46627">
        <ele>67.2</ele>
        <time>2024-12-19T11:18:41Z</time>
      </trkpt>
      <trkpt lat="47.91153" lon="-2.46627">
        <ele>67.2</ele>
        <time>2024-12-19T11:18:42Z</time>
      </trkpt>
      <trkpt lat="47.91153" lon="-2.46627">
        <ele>67.2</ele>
        <time>2024-12-19T11:18:43Z</time>
      </trkpt>
      <trkpt lat="47.91153" lon="-2.46627">
        <ele>67.2</ele>
        <time>2024-12-19T11:18:44Z</time>
      </trkpt>
      <trkpt lat="47.91153" lon="-2.46627">
        <ele>67.2</ele>
        <time>2024-12-19T11:18:45Z</time>
      </trkpt>
      <trkpt lat="47.91153" lon="-2.46627">
        <ele>67.2</ele>
        <time>2024-12-19T11:18:46Z</time>
      </trkpt>
      <trkpt lat="47.91153" lon="-2.46627">
        <ele>67.2</ele>
        <time>2024-12-19T11:18:47Z</time>
      </trkpt>
      <trkpt lat="47.91153" lon="-2.46627">
        <ele>67.2</ele>
        <time>2024-12-19T11:18:48Z</time>
      </trkpt>
      <trkpt lat="47.91153" lon="-2.46627">
        <ele>67.2</ele>
        <time>2024-12-19T11:18:49Z</time>
      </trkpt>
      <trkpt lat="47.91153" lon="-2.46627">
        <ele>67.2</ele>
        <time>2024-12-19T11:18:50Z</time>
      </trkpt>
      <trkpt lat="47.91153" lon="-2.46627">
        <ele>67.2</ele>
        <time>2024-12-19T11:18:51Z</time>
      </trkpt>
      <trkpt lat="47.91153" lon="-2.46627">
        <ele>67.2</ele>
        <time>2024-12-19T11:18:52Z</time>
      </trkpt>
      <trkpt lat="47.91153" lon="-2.46627">
        <ele>67.2</ele>
        <time>2024-12-19T11:18:53Z</time>
      </trkpt>
      <trkpt lat="47.91153" lon="-2.46627">
        <ele>67.2</ele>
        <time>2024-12-19T11:18:54Z</time>
      </trkpt>
      <trkpt lat="47.91153" lon="-2.46627">
        <ele>67.2</ele>
        <time>2024-12-19T11:18:55Z</time>
      </trkpt>
      <trkpt lat="47.91153" lon="-2.46627">
        <ele>67.2</ele>
        <time>2024-12-19T11:18:56Z</time>
      </trkpt>
      <trkpt lat="47.91153" lon="-2.46627">
        <ele>67.2</ele>
        <time>2024-12-19T11:18:57Z</time>
      </trkpt>
      <trkpt lat="47.91153" lon="-2.46627">
        <ele>67.2</ele>
        <time>2024-12-19T11:18:58Z</time>
      </trkpt>
      <trkpt lat="47.91153" lon="-2.46627">
        <ele>67.2</ele>
        <time>2024-12-19T11:18:59Z</time>
      </trkpt>
      <trkpt lat="47.91153" lon="-2.46627">
        <ele>67.2</ele>
        <time>2024-12-19T11:19:00Z</time>
      </trkpt>
      <trkpt lat="47.91153" lon="-2.46627">
        <ele>67.2</ele>
        <time>2024-12-19T11:19:01Z</time>
      </trkpt>
      <trkpt lat="47.91153" lon="-2.46627">
        <ele>67.2</ele>
        <time>2024-12-19T11:19:02Z</time>
      </trkpt>
      <trkpt lat="47.91153" lon="-2.46627">
        <ele>67.2</ele>
        <time>2024-12-19T11:19:03Z</time>
      </trkpt>
      <trkpt lat="47.91153" lon="-2.46627">
        <ele>67.2</ele>
        <time>2024-12-19T11:19:04Z</time>
      </trkpt>
      <trkpt lat="47.91153" lon="-2.46627">
        <ele>67.2</ele>
        <time>2024-12-19T11:19:05Z</time>
      </trkpt>
      <trkpt lat="47.91153" lon="-2.46627">
        <ele>67.2</ele>
        <time>2024-12-19T11:19:06Z</time>
      </trkpt>
      <trkpt lat="47.91153" lon="-2.46627">
        <ele>67.2</ele>
        <time>2024-12-19T11:19:07Z</time>
      </trkpt>
      <trkpt lat="47.91153" lon="-2.46627">
        <ele>67.2</ele>
        <time>2024-12-19T11:19:08Z</time>
      </trkpt>
      <trkpt lat="47.91153" lon="-2.46627">
        <ele>67.2</ele>
        <time>2024-12-19T11:19:09Z</time>
      </trkpt>
      <trkpt lat="47.91153" lon="-2.46627">
        <ele>67.2</ele>
        <time>2024-12-19T11:19:10Z</time>
      </trkpt>
      <trkpt lat="47.91153" lon="-2.46627">
        <ele>67.2</ele>
        <time>2024-12-19T11:19:11Z</time>
      </trkpt>
      <trkpt lat="47.91153" lon="-2.46627">
        <ele>67.2</ele>
        <time>2024-12-19T11:19:12Z</time>
      </trkpt>
      <trkpt lat="47.91153" lon="-2.46627">
        <ele>67.2</ele>
        <time>2024-12-19T11:19:13Z</time>
      </trkpt>
      <trkpt lat="47.91153" lon="-2.46627">
        <ele>67.2</ele>
        <time>2024-12-19T11:19:14Z</time>
      </trkpt>
      <trkpt lat="47.91153" lon="-2.46627">
        <ele>67.2</ele>
        <time>2024-12-19T11:19:15Z</time>
      </trkpt>
      <trkpt lat="47.91153" lon="-2.46627">
        <ele>67.2</ele>
        <time>2024-12-19T11:19:16Z</time>
      </trkpt>
      <trkpt lat="47.91153" lon="-2.46627">
        <ele>67.2</ele>
        <time>2024-12-19T11:19:17Z</time>
      </trkpt>
      <trkpt lat="47.91153" lon="-2.46627">
        <ele>67.2</ele>
        <time>2024-12-19T11:19:18Z</time>
      </trkpt>
      <trkpt lat="47.91153" lon="-2.46627">
        <ele>67.2</ele>
        <time>2024-12-19T11:19:19Z</time>
      </trkpt>
      <trkpt lat="47.91153" lon="-2.46627">
        <ele>67.2</ele>
        <time>2024-12-19T11:19:20Z</time>
      </trkpt>
      <trkpt lat="47.91153" lon="-2.46627">
        <ele>67.2</ele>
        <time>2024-12-19T11:19:21Z</time>
      </trkpt>
      <trkpt lat="47.91153" lon="-2.46627">
        <ele>67.2</ele>
        <time>2024-12-19T11:19:22Z</time>
      </trkpt>
      <trkpt lat="47.91153" lon="-2.46627">
        <ele>67.2</ele>
        <time>2024-12-19T11:19:23Z</time>
      </trkpt>
      <trkpt lat="47.91153" lon="-2.46627">
        <ele>67.2</ele>
        <time>2024-12-19T11:19:24Z</time>
      </trkpt>
      <trkpt lat="47.91153" lon="-2.46627">
        <ele>67.2</ele>
        <time>2024-12-19T11:19:25Z</time>
      </trkpt>
      <trkpt lat="47.91153" lon="-2.46627">
        <ele>67.2</ele>
        <time>2024-12-19T11:19:26Z</time>
      </trkpt>
      <trkpt lat="47.91153" lon="-2.46627">
        <ele>67.2</ele>
        <time>2024-12-19T11:19:27Z</time>
      </trkpt>
      <trkpt lat="47.91153" lon="-2.46627">
        <ele>67.2</ele>
        <time>2024-12-19T11:19:28Z</time>
      </trkpt>
      <trkpt lat="47.91153" lon="-2.46627">
        <ele>67.2</ele>
        <time>2024-12-19T11:19:29Z</time>
      </trkpt>
      <trkpt lat="47.91153" lon="-2.46627">
        <ele>67.2</ele>
        <time>2024-12-19T11:19:30Z</time>
      </trkpt>
      <trkpt lat="47.91153" lon="-2.46627">
        <ele>67.2</ele>
        <time>2024-12-19T11:19:31Z</time>
      </trkpt>
      <trkpt lat="47.91153" lon="-2.46627">
        <ele>67.2</ele>
        <time>2024-12-19T11:19:32Z</time>
      </trkpt>
      <trkpt lat="47.91153" lon="-2.46627">
        <ele>67.2</ele>
        <time>2024-12-19T11:19:33Z</time>
      </trkpt>
      <trkpt lat="47.91153" lon="-2.46627">
        <ele>67.2</ele>
        <time>2024-12-19T11:19:34Z</time>
      </trkpt>
      <trkpt lat="47.91153" lon="-2.46627">
        <ele>67.2</ele>
        <time>2024-12-19T11:19:35Z</time>
      </trkpt>
      <trkpt lat="47.91153" lon="-2.46627">
        <ele>67.2</ele>
        <time>2024-12-19T11:19:36Z</time>
      </trkpt>
      <trkpt lat="47.91153" lon="-2.46627">
        <ele>67.2</ele>
        <time>2024-12-19T11:19:37Z</time>
      </trkpt>
      <trkpt lat="47.91153" lon="-2.46627">
        <ele>67.2</ele>
        <time>2024-12-19T11:19:38Z</time>
      </trkpt>
      <trkpt lat="47.91153" lon="-2.46627">
        <ele>67.2</ele>
        <time>2024-12-19T11:19:39Z</time>
      </trkpt>
      <trkpt lat="47.91153" lon="-2.46627">
        <ele>67.2</ele>
        <time>2024-12-19T11:19:40Z</time>
      </trkpt>
      <trkpt lat="47.91153" lon="-2.46627">
        <ele>67.2</ele>
        <time>2024-12-19T11:19:41Z</time>
      </trkpt>
      <trkpt lat="47.91153" lon="-2.46627">
        <ele>67.2</ele>
        <time>2024-12-19T11:19:42Z</time>
      </trkpt>
      <trkpt lat="47.91153" lon="-2.46627">
        <ele>67.2</ele>
        <time>2024-12-19T11:19:43Z</time>
      </trkpt>
      <trkpt lat="47.91153" lon="-2.46627">
        <ele>67.2</ele>
        <time>2024-12-19T11:19:44Z</time>
      </trkpt>
      <trkpt lat="47.91153" lon="-2.46627">
        <ele>67.2</ele>
        <time>2024-12-19T11:19:45Z</time>
      </trkpt>
      <trkpt lat="47.91153" lon="-2.46627">
        <ele>67.2</ele>
        <time>2024-12-19T11:19:46Z</time>
      </trkpt>
      <trkpt lat="47.91153" lon="-2.46627">
        <ele>67.2</ele>
        <time>2024-12-19T11:19:47Z</time>
      </trkpt>
      <trkpt lat="47.91153" lon="-2.46627">
        <ele>67.2</ele>
        <time>2024-12-19T11:19:48Z</time>
      </trkpt>
      <trkpt lat="47.91153" lon="-2.46627">
        <ele>67.2</ele>
        <time>2024-12-19T11:19:49Z</time>
      </trkpt>
      <trkpt lat="47.91153" lon="-2.46627">
        <ele>67.2</ele>
        <time>2024-12-19T11:19:50Z</time>
      </trkpt>
      <trkpt lat="47.91153" lon="-2.46627">
        <ele>67.2</ele>
        <time>2024-12-19T11:19:51Z</time>
      </trkpt>
      <trkpt lat="47.91153" lon="-2.46627">
        <ele>67.2</ele>
        <time>2024-12-19T11:19:52Z</time>
      </trkpt>
      <trkpt lat="47.91153" lon="-2.46627">
        <ele>67.2</ele>
        <time>2024-12-19T11:19:53Z</time>
      </trkpt>
      <trkpt lat="47.91153" lon="-2.46627">
        <ele>67.2</ele>
        <time>2024-12-19T11:19:54Z</time>
      </trkpt>
      <trkpt lat="47.91153" lon="-2.46627">
        <ele>67.2</ele>
        <time>2024-12-19T11:19:55Z</time>
      </trkpt>
      <trkpt lat="47.91153" lon="-2.46627">
        <ele>67.2</ele>
        <time>2024-12-19T11:19:56Z</time>
      </trkpt>
      <trkpt lat="47.91153" lon="-2.46627">
        <ele>67.2</ele>
        <time>2024-12-19T11:19:57Z</time>
      </trkpt>
      <trkpt lat="47.91153" lon="-2.46627">
        <ele>67.2</ele>
        <time>2024-12-19T11:19:58Z</time>
      </trkpt>
      <trkpt lat="47.91153" lon="-2.46627">
        <ele>67.2</ele>
        <time>2024-12-19T11:19:59Z</time>
      </trkpt>
      <trkpt lat="47.91153" lon="-2.46627">
        <ele>67.2</ele>
        <time>2024-12-19T11:20:00Z</time>
      </trkpt>
      <trkpt lat="47.91153" lon="-2.46627">
        <ele>67.2</ele>
        <time>2024-12-19T11:20:01Z</time>
      </trkpt>
      <trkpt lat="47.91153" lon="-2.46627">
        <ele>67.2</ele>
        <time>2024-12-19T11:20:02Z</time>
      </trkpt>
      <trkpt lat="47.91153" lon="-2.46627">
        <ele>67.2</ele>
        <time>2024-12-19T11:20:03Z</time>
      </trkpt>
      <trkpt lat="47.91153" lon="-2.46627">
        <ele>67.2</ele>
        <time>2024-12-19T11:20:04Z</time>
      </trkpt>
      <trkpt lat="47.91153" lon="-2.46627">
        <ele>67.2</ele>
        <time>2024-12-19T11:20:05Z</time>
      </trkpt>
      <trkpt lat="47.91153" lon="-2.46627">
        <ele>67.2</ele>
        <time>2024-12-19T11:20:06Z</time>
      </trkpt>
      <trkpt lat="47.91153" lon="-2.46627">
        <ele>67.2</ele>
        <time>2024-12-19T11:20:07Z</time>
      </trkpt>
      <trkpt lat="47.91153" lon="-2.46627">
        <ele>67.2</ele>
        <time>2024-12-19T11:20:08Z</time>
      </trkpt>
      <trkpt lat="47.91153" lon="-2.46627">
        <ele>67.2</ele>
        <time>2024-12-19T11:20:09Z</time>
      </trkpt>
      <trkpt lat="47.91153" lon="-2.46627">
        <ele>67.2</ele>
        <time>2024-12-19T11:20:10Z</time>
      </trkpt>
      <trkpt lat="47.91153" lon="-2.46627">
        <ele>67.2</ele>
        <time>2024-12-19T11:20:11Z</time>
      </trkpt>
      <trkpt lat="47.91153" lon="-2.46627">
        <ele>67.2</ele>
        <time>2024-12-19T11:20:12Z</time>
      </trkpt>
      <trkpt lat="47.91153" lon="-2.46627">
        <ele>67.2</ele>
        <time>2024-12-19T11:20:13Z</time>
      </trkpt>
      <trkpt lat="47.91153" lon="-2.46627">
        <ele>67.2</ele>
        <time>2024-12-19T11:20:14Z</time>
      </trkpt>
      <trkpt lat="47.91153" lon="-2.46627">
        <ele>67.2</ele>
        <time>2024-12-19T11:20:15Z</time>
      </trkpt>
      <trkpt lat="47.91153" lon="-2.46627">
        <ele>67.2</ele>
        <time>2024-12-19T11:20:16Z</time>
      </trkpt>
      <trkpt lat="47.91153" lon="-2.46627">
        <ele>67.2</ele>
        <time>2024-12-19T11:20:17Z</time>
      </trkpt>
      <trkpt lat="47.91153" lon="-2.46627">
        <ele>67.2</ele>
        <time>2024-12-19T11:20:18Z</time>
      </trkpt>
      <trkpt lat="47.91153" lon="-2.46627">
        <ele>67.2</ele>
        <time>2024-12-19T11:20:19Z</time>
      </trkpt>
      <trkpt lat="47.91153" lon="-2.46627">
        <ele>67.2</ele>
        <time>2024-12-19T11:20:20Z</time>
      </trkpt>
      <trkpt lat="47.91153" lon="-2.46627">
        <ele>67.2</ele>
        <time>2024-12-19T11:20:22Z</time>
      </trkpt>
      <trkpt lat="47.91153" lon="-2.46627">
        <ele>67.2</ele>
        <time>2024-12-19T11:20:23Z</time>
      </trkpt>
      <trkpt lat="47.91153" lon="-2.46627">
        <ele>67.2</ele>
        <time>2024-12-19T11:20:24Z</time>
      </trkpt>
      <trkpt lat="47.91153" lon="-2.46627">
        <ele>67.2</ele>
        <time>2024-12-19T11:20:25Z</time>
      </trkpt>
      <trkpt lat="47.91153" lon="-2.46627">
        <ele>67.2</ele>
        <time>2024-12-19T11:20:26Z</time>
      </trkpt>
      <trkpt lat="47.91153" lon="-2.46627">
        <ele>67.2</ele>
        <time>2024-12-19T11:20:27Z</time>
      </trkpt>
      <trkpt lat="47.91153" lon="-2.46627">
        <ele>67.2</ele>
        <time>2024-12-19T11:20:28Z</time>
      </trkpt>
      <trkpt lat="47.91153" lon="-2.46627">
        <ele>67.2</ele>
        <time>2024-12-19T11:20:29Z</time>
      </trkpt>
      <trkpt lat="47.91153" lon="-2.46627">
        <ele>67.2</ele>
        <time>2024-12-19T11:20:30Z</time>
      </trkpt>
      <trkpt lat="47.91153" lon="-2.46627">
        <ele>67.2</ele>
        <time>2024-12-19T11:20:31Z</time>
      </trkpt>
      <trkpt lat="47.91153" lon="-2.46627">
        <ele>67.2</ele>
        <time>2024-12-19T11:20:32Z</time>
      </trkpt>
      <trkpt lat="47.91153" lon="-2.46627">
        <ele>67.2</ele>
        <time>2024-12-19T11:20:33Z</time>
      </trkpt>
      <trkpt lat="47.91153" lon="-2.46627">
        <ele>67.2</ele>
        <time>2024-12-19T11:20:34Z</time>
      </trkpt>
      <trkpt lat="47.91153" lon="-2.46627">
        <ele>67.2</ele>
        <time>2024-12-19T11:20:35Z</time>
      </trkpt>
      <trkpt lat="47.91153" lon="-2.46627">
        <ele>67.2</ele>
        <time>2024-12-19T11:20:36Z</time>
      </trkpt>
      <trkpt lat="47.91153" lon="-2.46627">
        <ele>67.2</ele>
        <time>2024-12-19T11:20:37Z</time>
      </trkpt>
      <trkpt lat="47.91153" lon="-2.46627">
        <ele>67.2</ele>
        <time>2024-12-19T11:20:38Z</time>
      </trkpt>
      <trkpt lat="47.91153" lon="-2.46627">
        <ele>67.2</ele>
        <time>2024-12-19T11:20:39Z</time>
      </trkpt>
      <trkpt lat="47.91153" lon="-2.46627">
        <ele>67.2</ele>
        <time>2024-12-19T11:20:40Z</time>
      </trkpt>
      <trkpt lat="47.91153" lon="-2.46627">
        <ele>67.2</ele>
        <time>2024-12-19T11:20:41Z</time>
      </trkpt>
      <trkpt lat="47.91153" lon="-2.46627">
        <ele>67.2</ele>
        <time>2024-12-19T11:20:42Z</time>
      </trkpt>
      <trkpt lat="47.91153" lon="-2.46627">
        <ele>67.2</ele>
        <time>2024-12-19T11:20:43Z</time>
      </trkpt>
      <trkpt lat="47.91153" lon="-2.46627">
        <ele>67.2</ele>
        <time>2024-12-19T11:20:44Z</time>
      </trkpt>
      <trkpt lat="47.91153" lon="-2.46627">
        <ele>67.2</ele>
        <time>2024-12-19T11:20:45Z</time>
      </trkpt>
      <trkpt lat="47.91153" lon="-2.46627">
        <ele>67.2</ele>
        <time>2024-12-19T11:20:46Z</time>
      </trkpt>
      <trkpt lat="47.91153" lon="-2.46627">
        <ele>67.2</ele>
        <time>2024-12-19T11:20:47Z</time>
      </trkpt>
      <trkpt lat="47.91153" lon="-2.46627">
        <ele>67.2</ele>
        <time>2024-12-19T11:20:48Z</time>
      </trkpt>
      <trkpt lat="47.91153" lon="-2.46627">
        <ele>67.2</ele>
        <time>2024-12-19T11:20:49Z</time>
      </trkpt>
      <trkpt lat="47.91153" lon="-2.46627">
        <ele>67.2</ele>
        <time>2024-12-19T11:20:50Z</time>
      </trkpt>
      <trkpt lat="47.91153" lon="-2.46627">
        <ele>67.2</ele>
        <time>2024-12-19T11:20:51Z</time>
      </trkpt>
      <trkpt lat="47.91153" lon="-2.46627">
        <ele>67.2</ele>
        <time>2024-12-19T11:20:52Z</time>
      </trkpt>
      <trkpt lat="47.91153" lon="-2.46627">
        <ele>67.2</ele>
        <time>2024-12-19T11:20:53Z</time>
      </trkpt>
      <trkpt lat="47.91153" lon="-2.46627">
        <ele>67.2</ele>
        <time>2024-12-19T11:20:54Z</time>
      </trkpt>
      <trkpt lat="47.91153" lon="-2.46627">
        <ele>67.2</ele>
        <time>2024-12-19T11:20:55Z</time>
      </trkpt>
      <trkpt lat="47.91153" lon="-2.46627">
        <ele>67.2</ele>
        <time>2024-12-19T11:20:56Z</time>
      </trkpt>
      <trkpt lat="47.91153" lon="-2.46627">
        <ele>67.2</ele>
        <time>2024-12-19T11:20:57Z</time>
      </trkpt>
      <trkpt lat="47.91153" lon="-2.46627">
        <ele>67.2</ele>
        <time>2024-12-19T11:20:58Z</time>
      </trkpt>
      <trkpt lat="47.91153" lon="-2.46627">
        <ele>67.2</ele>
        <time>2024-12-19T11:20:59Z</time>
      </trkpt>
      <trkpt lat="47.91153" lon="-2.46627">
        <ele>67.2</ele>
        <time>2024-12-19T11:21:00Z</time>
      </trkpt>
      <trkpt lat="47.91153" lon="-2.46627">
        <ele>67.2</ele>
        <time>2024-12-19T11:21:01Z</time>
      </trkpt>
      <trkpt lat="47.91153" lon="-2.46627">
        <ele>67.2</ele>
        <time>2024-12-19T11:21:02Z</time>
      </trkpt>
      <trkpt lat="47.91153" lon="-2.46627">
        <ele>67.2</ele>
        <time>2024-12-19T11:21:03Z</time>
      </trkpt>
      <trkpt lat="47.91153" lon="-2.46627">
        <ele>67.2</ele>
        <time>2024-12-19T11:21:04Z</time>
      </trkpt>
      <trkpt lat="47.91153" lon="-2.46627">
        <ele>67.2</ele>
        <time>2024-12-19T11:21:05Z</time>
      </trkpt>
      <trkpt lat="47.91153" lon="-2.46627">
        <ele>67.2</ele>
        <time>2024-12-19T11:21:06Z</time>
      </trkpt>
      <trkpt lat="47.91153" lon="-2.46627">
        <ele>67.2</ele>
        <time>2024-12-19T11:21:07Z</time>
      </trkpt>
      <trkpt lat="47.91153" lon="-2.46627">
        <ele>67.2</ele>
        <time>2024-12-19T11:21:08Z</time>
      </trkpt>
      <trkpt lat="47.91153" lon="-2.46627">
        <ele>67.2</ele>
        <time>2024-12-19T11:21:09Z</time>
      </trkpt>
      <trkpt lat="47.91153" lon="-2.46627">
        <ele>67.2</ele>
        <time>2024-12-19T11:21:10Z</time>
      </trkpt>
      <trkpt lat="47.91153" lon="-2.46627">
        <ele>67.2</ele>
        <time>2024-12-19T11:21:11Z</time>
      </trkpt>
      <trkpt lat="47.91153" lon="-2.46627">
        <ele>67.2</ele>
        <time>2024-12-19T11:21:12Z</time>
      </trkpt>
      <trkpt lat="47.91153" lon="-2.46627">
        <ele>67.2</ele>
        <time>2024-12-19T11:21:13Z</time>
      </trkpt>
      <trkpt lat="47.91153" lon="-2.46627">
        <ele>67.2</ele>
        <time>2024-12-19T11:21:14Z</time>
      </trkpt>
      <trkpt lat="47.91153" lon="-2.46627">
        <ele>67.2</ele>
        <time>2024-12-19T11:21:15Z</time>
      </trkpt>
      <trkpt lat="47.91153" lon="-2.46627">
        <ele>67.2</ele>
        <time>2024-12-19T11:21:16Z</time>
      </trkpt>
      <trkpt lat="47.91153" lon="-2.46627">
        <ele>67.2</ele>
        <time>2024-12-19T11:21:17Z</time>
      </trkpt>
      <trkpt lat="47.91153" lon="-2.46627">
        <ele>67.2</ele>
        <time>2024-12-19T11:21:18Z</time>
      </trkpt>
      <trkpt lat="47.91153" lon="-2.46627">
        <ele>67.2</ele>
        <time>2024-12-19T11:21:19Z</time>
      </trkpt>
      <trkpt lat="47.91153" lon="-2.46627">
        <ele>67.2</ele>
        <time>2024-12-19T11:21:20Z</time>
      </trkpt>
      <trkpt lat="47.91153" lon="-2.46627">
        <ele>67.2</ele>
        <time>2024-12-19T11:21:21Z</time>
      </trkpt>
      <trkpt lat="47.91153" lon="-2.46627">
        <ele>67.2</ele>
        <time>2024-12-19T11:21:22Z</time>
      </trkpt>
      <trkpt lat="47.91153" lon="-2.46627">
        <ele>67.2</ele>
        <time>2024-12-19T11:21:23Z</time>
      </trkpt>
      <trkpt lat="47.91153" lon="-2.46627">
        <ele>67.2</ele>
        <time>2024-12-19T11:21:24Z</time>
      </trkpt>
      <trkpt lat="47.91153" lon="-2.46627">
        <ele>67.2</ele>
        <time>2024-12-19T11:21:25Z</time>
      </trkpt>
      <trkpt lat="47.91153" lon="-2.46627">
        <ele>67.2</ele>
        <time>2024-12-19T11:21:26Z</time>
      </trkpt>
      <trkpt lat="47.91153" lon="-2.46627">
        <ele>67.2</ele>
        <time>2024-12-19T11:21:27Z</time>
      </trkpt>
      <trkpt lat="47.91153" lon="-2.46627">
        <ele>67.2</ele>
        <time>2024-12-19T11:21:28Z</time>
      </trkpt>
      <trkpt lat="47.91153" lon="-2.46627">
        <ele>67.2</ele>
        <time>2024-12-19T11:21:29Z</time>
      </trkpt>
      <trkpt lat="47.91153" lon="-2.46627">
        <ele>67.2</ele>
        <time>2024-12-19T11:21:30Z</time>
      </trkpt>
      <trkpt lat="47.91153" lon="-2.46627">
        <ele>67.2</ele>
        <time>2024-12-19T11:21:31Z</time>
      </trkpt>
      <trkpt lat="47.91153" lon="-2.46627">
        <ele>67.2</ele>
        <time>2024-12-19T11:21:32Z</time>
      </trkpt>
      <trkpt lat="47.91153" lon="-2.46627">
        <ele>67.2</ele>
        <time>2024-12-19T11:21:33Z</time>
      </trkpt>
      <trkpt lat="47.91153" lon="-2.46627">
        <ele>67.2</ele>
        <time>2024-12-19T11:21:34Z</time>
      </trkpt>
      <trkpt lat="47.91153" lon="-2.46627">
        <ele>67.2</ele>
        <time>2024-12-19T11:21:35Z</time>
      </trkpt>
      <trkpt lat="47.91153" lon="-2.46627">
        <ele>67.2</ele>
        <time>2024-12-19T11:21:36Z</time>
      </trkpt>
      <trkpt lat="47.91153" lon="-2.46627">
        <ele>67.2</ele>
        <time>2024-12-19T11:21:37Z</time>
      </trkpt>
      <trkpt lat="47.91153" lon="-2.46627">
        <ele>67.2</ele>
        <time>2024-12-19T11:21:38Z</time>
      </trkpt>
      <trkpt lat="47.91153" lon="-2.46627">
        <ele>67.2</ele>
        <time>2024-12-19T11:21:39Z</time>
      </trkpt>
      <trkpt lat="47.91153" lon="-2.46627">
        <ele>67.2</ele>
        <time>2024-12-19T11:21:40Z</time>
      </trkpt>
      <trkpt lat="47.91153" lon="-2.46627">
        <ele>67.2</ele>
        <time>2024-12-19T11:21:41Z</time>
      </trkpt>
      <trkpt lat="47.91153" lon="-2.46627">
        <ele>67.2</ele>
        <time>2024-12-19T11:21:42Z</time>
      </trkpt>
      <trkpt lat="47.91153" lon="-2.46627">
        <ele>67.2</ele>
        <time>2024-12-19T11:21:43Z</time>
      </trkpt>
      <trkpt lat="47.91153" lon="-2.46627">
        <ele>67.2</ele>
        <time>2024-12-19T11:21:44Z</time>
      </trkpt>
      <trkpt lat="47.91153" lon="-2.46627">
        <ele>67.2</ele>
        <time>2024-12-19T11:21:45Z</time>
      </trkpt>
      <trkpt lat="47.91153" lon="-2.46627">
        <ele>67.2</ele>
        <time>2024-12-19T11:21:46Z</time>
      </trkpt>
      <trkpt lat="47.91153" lon="-2.46627">
        <ele>67.2</ele>
        <time>2024-12-19T11:21:47Z</time>
      </trkpt>
      <trkpt lat="47.91153" lon="-2.46627">
        <ele>67.2</ele>
        <time>2024-12-19T11:21:48Z</time>
      </trkpt>
      <trkpt lat="47.91153" lon="-2.46627">
        <ele>67.2</ele>
        <time>2024-12-19T11:21:49Z</time>
      </trkpt>
      <trkpt lat="47.91153" lon="-2.46627">
        <ele>67.2</ele>
        <time>2024-12-19T11:21:50Z</time>
      </trkpt>
      <trkpt lat="47.91153" lon="-2.46627">
        <ele>67.2</ele>
        <time>2024-12-19T11:21:51Z</time>
      </trkpt>
      <trkpt lat="47.91153" lon="-2.46627">
        <ele>67.2</ele>
        <time>2024-12-19T11:21:52Z</time>
      </trkpt>
      <trkpt lat="47.91153" lon="-2.46627">
        <ele>67.2</ele>
        <time>2024-12-19T11:21:53Z</time>
      </trkpt>
      <trkpt lat="47.91153" lon="-2.46627">
        <ele>67.2</ele>
        <time>2024-12-19T11:21:54Z</time>
      </trkpt>
      <trkpt lat="47.91153" lon="-2.46627">
        <ele>67.2</ele>
        <time>2024-12-19T11:21:55Z</time>
      </trkpt>
      <trkpt lat="47.91153" lon="-2.46627">
        <ele>67.2</ele>
        <time>2024-12-19T11:21:56Z</time>
      </trkpt>
      <trkpt lat="47.91153" lon="-2.46627">
        <ele>67.2</ele>
        <time>2024-12-19T11:21:57Z</time>
      </trkpt>
      <trkpt lat="47.91153" lon="-2.46627">
        <ele>67.2</ele>
        <time>2024-12-19T11:21:58Z</time>
      </trkpt>
      <trkpt lat="47.91153" lon="-2.46627">
        <ele>67.2</ele>
        <time>2024-12-19T11:21:59Z</time>
      </trkpt>
      <trkpt lat="47.91153" lon="-2.46627">
        <ele>67.2</ele>
        <time>2024-12-19T11:22:00Z</time>
      </trkpt>
      <trkpt lat="47.91153" lon="-2.46627">
        <ele>67.2</ele>
        <time>2024-12-19T11:22:01Z</time>
      </trkpt>
      <trkpt lat="47.91153" lon="-2.46627">
        <ele>67.2</ele>
        <time>2024-12-19T11:22:02Z</time>
      </trkpt>
      <trkpt lat="47.91153" lon="-2.46627">
        <ele>67.2</ele>
        <time>2024-12-19T11:22:03Z</time>
      </trkpt>
      <trkpt lat="47.91153" lon="-2.46627">
        <ele>67.2</ele>
        <time>2024-12-19T11:22:04Z</time>
      </trkpt>
      <trkpt lat="47.91153" lon="-2.46627">
        <ele>67.2</ele>
        <time>2024-12-19T11:22:05Z</time>
      </trkpt>
      <trkpt lat="47.91153" lon="-2.46627">
        <ele>67.2</ele>
        <time>2024-12-19T11:22:06Z</time>
      </trkpt>
      <trkpt lat="47.91153" lon="-2.46627">
        <ele>67.2</ele>
        <time>2024-12-19T11:22:07Z</time>
      </trkpt>
      <trkpt lat="47.91153" lon="-2.46627">
        <ele>67.2</ele>
        <time>2024-12-19T11:22:08Z</time>
      </trkpt>
      <trkpt lat="47.91153" lon="-2.46627">
        <ele>67.2</ele>
        <time>2024-12-19T11:22:09Z</time>
      </trkpt>
      <trkpt lat="47.91153" lon="-2.46627">
        <ele>67.2</ele>
        <time>2024-12-19T11:22:10Z</time>
      </trkpt>
      <trkpt lat="47.91153" lon="-2.46627">
        <ele>67.2</ele>
        <time>2024-12-19T11:22:11Z</time>
      </trkpt>
      <trkpt lat="47.91153" lon="-2.46627">
        <ele>67.2</ele>
        <time>2024-12-19T11:22:12Z</time>
      </trkpt>
      <trkpt lat="47.91153" lon="-2.46627">
        <ele>67.2</ele>
        <time>2024-12-19T11:22:13Z</time>
      </trkpt>
      <trkpt lat="47.91153" lon="-2.46627">
        <ele>67.2</ele>
        <time>2024-12-19T11:22:14Z</time>
      </trkpt>
      <trkpt lat="47.91153" lon="-2.46627">
        <ele>67.2</ele>
        <time>2024-12-19T11:22:15Z</time>
      </trkpt>
      <trkpt lat="47.91153" lon="-2.46627">
        <ele>67.2</ele>
        <time>2024-12-19T11:22:16Z</time>
      </trkpt>
      <trkpt lat="47.91153" lon="-2.46627">
        <ele>67.2</ele>
        <time>2024-12-19T11:22:17Z</time>
      </trkpt>
      <trkpt lat="47.91153" lon="-2.46627">
        <ele>67.2</ele>
        <time>2024-12-19T11:22:18Z</time>
      </trkpt>
      <trkpt lat="47.91153" lon="-2.46627">
        <ele>67.2</ele>
        <time>2024-12-19T11:22:19Z</time>
      </trkpt>
      <trkpt lat="47.91153" lon="-2.46627">
        <ele>67.2</ele>
        <time>2024-12-19T11:22:20Z</time>
      </trkpt>
      <trkpt lat="47.91153" lon="-2.46627">
        <ele>67.2</ele>
        <time>2024-12-19T11:22:21Z</time>
      </trkpt>
      <trkpt lat="47.91153" lon="-2.46627">
        <ele>67.2</ele>
        <time>2024-12-19T11:22:22Z</time>
      </trkpt>
      <trkpt lat="47.91153" lon="-2.46627">
        <ele>67.2</ele>
        <time>2024-12-19T11:22:23Z</time>
      </trkpt>
      <trkpt lat="47.91153" lon="-2.46627">
        <ele>67.2</ele>
        <time>2024-12-19T11:22:24Z</time>
      </trkpt>
      <trkpt lat="47.91153" lon="-2.46627">
        <ele>67.2</ele>
        <time>2024-12-19T11:22:25Z</time>
      </trkpt>
      <trkpt lat="47.91153" lon="-2.46627">
        <ele>67.2</ele>
        <time>2024-12-19T11:22:26Z</time>
      </trkpt>
      <trkpt lat="47.91153" lon="-2.46627">
        <ele>67.2</ele>
        <time>2024-12-19T11:22:27Z</time>
      </trkpt>
      <trkpt lat="47.91153" lon="-2.46627">
        <ele>67.2</ele>
        <time>2024-12-19T11:22:28Z</time>
      </trkpt>
      <trkpt lat="47.91153" lon="-2.46627">
        <ele>67.2</ele>
        <time>2024-12-19T11:22:29Z</time>
      </trkpt>
      <trkpt lat="47.91153" lon="-2.46627">
        <ele>67.2</ele>
        <time>2024-12-19T11:22:30Z</time>
      </trkpt>
      <trkpt lat="47.91153" lon="-2.46627">
        <ele>67.2</ele>
        <time>2024-12-19T11:22:31Z</time>
      </trkpt>
      <trkpt lat="47.91153" lon="-2.46627">
        <ele>67.2</ele>
        <time>2024-12-19T11:22:32Z</time>
      </trkpt>
      <trkpt lat="47.91153" lon="-2.46627">
        <ele>67.2</ele>
        <time>2024-12-19T11:22:33Z</time>
      </trkpt>
      <trkpt lat="47.91153" lon="-2.46627">
        <ele>67.2</ele>
        <time>2024-12-19T11:22:34Z</time>
      </trkpt>
      <trkpt lat="47.91153" lon="-2.46627">
        <ele>67.2</ele>
        <time>2024-12-19T11:22:35Z</time>
      </trkpt>
      <trkpt lat="47.91153" lon="-2.46627">
        <ele>67.2</ele>
        <time>2024-12-19T11:22:36Z</time>
      </trkpt>
      <trkpt lat="47.91153" lon="-2.46627">
        <ele>67.2</ele>
        <time>2024-12-19T11:22:37Z</time>
      </trkpt>
      <trkpt lat="47.91153" lon="-2.46627">
        <ele>67.2</ele>
        <time>2024-12-19T11:22:38Z</time>
      </trkpt>
      <trkpt lat="47.91153" lon="-2.46627">
        <ele>67.2</ele>
        <time>2024-12-19T11:22:39Z</time>
      </trkpt>
      <trkpt lat="47.91153" lon="-2.46627">
        <ele>67.2</ele>
        <time>2024-12-19T11:22:40Z</time>
      </trkpt>
      <trkpt lat="47.91153" lon="-2.46627">
        <ele>67.2</ele>
        <time>2024-12-19T11:22:41Z</time>
      </trkpt>
      <trkpt lat="47.91153" lon="-2.46627">
        <ele>67.2</ele>
        <time>2024-12-19T11:22:42Z</time>
      </trkpt>
      <trkpt lat="47.91153" lon="-2.46627">
        <ele>67.2</ele>
        <time>2024-12-19T11:22:43Z</time>
      </trkpt>
      <trkpt lat="47.91153" lon="-2.46627">
        <ele>67.2</ele>
        <time>2024-12-19T11:22:44Z</time>
      </trkpt>
      <trkpt lat="47.91153" lon="-2.46627">
        <ele>67.2</ele>
        <time>2024-12-19T11:22:45Z</time>
      </trkpt>
      <trkpt lat="47.91153" lon="-2.46627">
        <ele>67.2</ele>
        <time>2024-12-19T11:22:46Z</time>
      </trkpt>
      <trkpt lat="47.91153" lon="-2.46627">
        <ele>67.2</ele>
        <time>2024-12-19T11:22:47Z</time>
      </trkpt>
      <trkpt lat="47.91153" lon="-2.46627">
        <ele>67.2</ele>
        <time>2024-12-19T11:22:48Z</time>
      </trkpt>
      <trkpt lat="47.91153" lon="-2.46627">
        <ele>67.2</ele>
        <time>2024-12-19T11:22:49Z</time>
      </trkpt>
      <trkpt lat="47.91153" lon="-2.46627">
        <ele>67.2</ele>
        <time>2024-12-19T11:22:50Z</time>
      </trkpt>
      <trkpt lat="47.91153" lon="-2.46627">
        <ele>67.2</ele>
        <time>2024-12-19T11:22:51Z</time>
      </trkpt>
      <trkpt lat="47.91153" lon="-2.46627">
        <ele>67.2</ele>
        <time>2024-12-19T11:22:52Z</time>
      </trkpt>
      <trkpt lat="47.91153" lon="-2.46627">
        <ele>67.2</ele>
        <time>2024-12-19T11:22:53Z</time>
      </trkpt>
      <trkpt lat="47.91153" lon="-2.46627">
        <ele>67.2</ele>
        <time>2024-12-19T11:22:54Z</time>
      </trkpt>
      <trkpt lat="47.91153" lon="-2.46627">
        <ele>67.2</ele>
        <time>2024-12-19T11:22:55Z</time>
      </trkpt>
      <trkpt lat="47.91153" lon="-2.46627">
        <ele>67.2</ele>
        <time>2024-12-19T11:22:56Z</time>
      </trkpt>
      <trkpt lat="47.91153" lon="-2.46627">
        <ele>67.2</ele>
        <time>2024-12-19T11:22:57Z</time>
      </trkpt>
      <trkpt lat="47.91153" lon="-2.46627">
        <ele>67.2</ele>
        <time>2024-12-19T11:22:58Z</time>
      </trkpt>
      <trkpt lat="47.91153" lon="-2.46627">
        <ele>67.2</ele>
        <time>2024-12-19T11:22:59Z</time>
      </trkpt>
      <trkpt lat="47.91153" lon="-2.46627">
        <ele>67.2</ele>
        <time>2024-12-19T11:23:00Z</time>
      </trkpt>
      <trkpt lat="47.91153" lon="-2.46627">
        <ele>67.2</ele>
        <time>2024-12-19T11:23:01Z</time>
      </trkpt>
      <trkpt lat="47.91153" lon="-2.46627">
        <ele>67.2</ele>
        <time>2024-12-19T11:23:02Z</time>
      </trkpt>
      <trkpt lat="47.91153" lon="-2.46627">
        <ele>67.2</ele>
        <time>2024-12-19T11:23:03Z</time>
      </trkpt>
      <trkpt lat="47.91153" lon="-2.46627">
        <ele>67.2</ele>
        <time>2024-12-19T11:23:04Z</time>
      </trkpt>
      <trkpt lat="47.91153" lon="-2.46627">
        <ele>67.2</ele>
        <time>2024-12-19T11:23:05Z</time>
      </trkpt>
      <trkpt lat="47.91153" lon="-2.46627">
        <ele>67.2</ele>
        <time>2024-12-19T11:23:06Z</time>
      </trkpt>
      <trkpt lat="47.91153" lon="-2.46627">
        <ele>67.2</ele>
        <time>2024-12-19T11:23:07Z</time>
      </trkpt>
      <trkpt lat="47.91153" lon="-2.46627">
        <ele>67.2</ele>
        <time>2024-12-19T11:23:08Z</time>
      </trkpt>
      <trkpt lat="47.91153" lon="-2.46627">
        <ele>67.2</ele>
        <time>2024-12-19T11:23:09Z</time>
      </trkpt>
      <trkpt lat="47.91153" lon="-2.46627">
        <ele>67.2</ele>
        <time>2024-12-19T11:23:10Z</time>
      </trkpt>
      <trkpt lat="47.91153" lon="-2.46627">
        <ele>67.2</ele>
        <time>2024-12-19T11:23:11Z</time>
      </trkpt>
      <trkpt lat="47.91153" lon="-2.46627">
        <ele>67.2</ele>
        <time>2024-12-19T11:23:12Z</time>
      </trkpt>
      <trkpt lat="47.91153" lon="-2.46627">
        <ele>67.2</ele>
        <time>2024-12-19T11:23:13Z</time>
      </trkpt>
      <trkpt lat="47.91153" lon="-2.46627">
        <ele>67.2</ele>
        <time>2024-12-19T11:23:14Z</time>
      </trkpt>
      <trkpt lat="47.91153" lon="-2.46627">
        <ele>67.2</ele>
        <time>2024-12-19T11:23:15Z</time>
      </trkpt>
      <trkpt lat="47.91153" lon="-2.46627">
        <ele>67.2</ele>
        <time>2024-12-19T11:23:16Z</time>
      </trkpt>
      <trkpt lat="47.91153" lon="-2.46627">
        <ele>67.2</ele>
        <time>2024-12-19T11:23:17Z</time>
      </trkpt>
      <trkpt lat="47.91153" lon="-2.46627">
        <ele>67.2</ele>
        <time>2024-12-19T11:23:18Z</time>
      </trkpt>
      <trkpt lat="47.91153" lon="-2.46627">
        <ele>67.2</ele>
        <time>2024-12-19T11:23:19Z</time>
      </trkpt>
      <trkpt lat="47.91153" lon="-2.46627">
        <ele>67.2</ele>
        <time>2024-12-19T11:23:20Z</time>
      </trkpt>
      <trkpt lat="47.91153" lon="-2.46628">
        <ele>67.2</ele>
        <time>2024-12-19T11:23:21Z</time>
      </trkpt>
      <trkpt lat="47.91153" lon="-2.46628">
        <ele>67.2</ele>
        <time>2024-12-19T11:23:22Z</time>
      </trkpt>
      <trkpt lat="47.91153" lon="-2.46627">
        <ele>67.2</ele>
        <time>2024-12-19T11:23:23Z</time>
      </trkpt>
      <trkpt lat="47.91153" lon="-2.46627">
        <ele>67.2</ele>
        <time>2024-12-19T11:23:24Z</time>
      </trkpt>
      <trkpt lat="47.91153" lon="-2.46627">
        <ele>67.2</ele>
        <time>2024-12-19T11:23:25Z</time>
      </trkpt>
      <trkpt lat="47.91153" lon="-2.46627">
        <ele>67.2</ele>
        <time>2024-12-19T11:23:26Z</time>
      </trkpt>
      <trkpt lat="47.91153" lon="-2.46627">
        <ele>67.2</ele>
        <time>2024-12-19T11:23:27Z</time>
      </trkpt>
      <trkpt lat="47.91153" lon="-2.46627">
        <ele>67.2</ele>
        <time>2024-12-19T11:23:28Z</time>
      </trkpt>
      <trkpt lat="47.91153" lon="-2.46627">
        <ele>67.2</ele>
        <time>2024-12-19T11:23:29Z</time>
      </trkpt>
      <trkpt lat="47.91153" lon="-2.46627">
        <ele>67.2</ele>
        <time>2024-12-19T11:23:30Z</time>
      </trkpt>
      <trkpt lat="47.91153" lon="-2.46627">
        <ele>67.2</ele>
        <time>2024-12-19T11:23:31Z</time>
      </trkpt>
      <trkpt lat="47.91153" lon="-2.46627">
        <ele>67.2</ele>
        <time>2024-12-19T11:23:32Z</time>
      </trkpt>
      <trkpt lat="47.91153" lon="-2.46627">
        <ele>67.2</ele>
        <time>2024-12-19T11:23:33Z</time>
      </trkpt>
      <trkpt lat="47.91153" lon="-2.46627">
        <ele>67.2</ele>
        <time>2024-12-19T11:23:34Z</time>
      </trkpt>
      <trkpt lat="47.91153" lon="-2.46627">
        <ele>67.2</ele>
        <time>2024-12-19T11:23:35Z</time>
      </trkpt>
      <trkpt lat="47.91153" lon="-2.46627">
        <ele>67.2</ele>
        <time>2024-12-19T11:23:36Z</time>
      </trkpt>
      <trkpt lat="47.91153" lon="-2.46627">
        <ele>67.2</ele>
        <time>2024-12-19T11:23:37Z</time>
      </trkpt>
      <trkpt lat="47.91153" lon="-2.46627">
        <ele>67.2</ele>
        <time>2024-12-19T11:23:38Z</time>
      </trkpt>
      <trkpt lat="47.91153" lon="-2.46627">
        <ele>67.2</ele>
        <time>2024-12-19T11:23:39Z</time>
      </trkpt>
      <trkpt lat="47.91153" lon="-2.46627">
        <ele>67.2</ele>
        <time>2024-12-19T11:23:40Z</time>
      </trkpt>
      <trkpt lat="47.91153" lon="-2.46627">
        <ele>67.2</ele>
        <time>2024-12-19T11:23:41Z</time>
      </trkpt>
      <trkpt lat="47.91153" lon="-2.46627">
        <ele>67.2</ele>
        <time>2024-12-19T11:23:42Z</time>
      </trkpt>
      <trkpt lat="47.91153" lon="-2.46627">
        <ele>67.2</ele>
        <time>2024-12-19T11:23:43Z</time>
      </trkpt>
      <trkpt lat="47.91153" lon="-2.46627">
        <ele>67.2</ele>
        <time>2024-12-19T11:23:44Z</time>
      </trkpt>
      <trkpt lat="47.91153" lon="-2.46627">
        <ele>67.2</ele>
        <time>2024-12-19T11:23:45Z</time>
      </trkpt>
      <trkpt lat="47.91153" lon="-2.46627">
        <ele>67.2</ele>
        <time>2024-12-19T11:23:46Z</time>
      </trkpt>
      <trkpt lat="47.91153" lon="-2.46627">
        <ele>67.2</ele>
        <time>2024-12-19T11:23:47Z</time>
      </trkpt>
      <trkpt lat="47.91153" lon="-2.46627">
        <ele>67.2</ele>
        <time>2024-12-19T11:23:48Z</time>
      </trkpt>
      <trkpt lat="47.91153" lon="-2.46627">
        <ele>67.2</ele>
        <time>2024-12-19T11:23:49Z</time>
      </trkpt>
      <trkpt lat="47.91153" lon="-2.46627">
        <ele>67.2</ele>
        <time>2024-12-19T11:23:50Z</time>
      </trkpt>
      <trkpt lat="47.91153" lon="-2.46627">
        <ele>67.2</ele>
        <time>2024-12-19T11:23:51Z</time>
      </trkpt>
      <trkpt lat="47.91153" lon="-2.46627">
        <ele>67.2</ele>
        <time>2024-12-19T11:23:52Z</time>
      </trkpt>
      <trkpt lat="47.91153" lon="-2.46627">
        <ele>67.2</ele>
        <time>2024-12-19T11:23:53Z</time>
      </trkpt>
      <trkpt lat="47.91153" lon="-2.46627">
        <ele>67.2</ele>
        <time>2024-12-19T11:23:54Z</time>
      </trkpt>
      <trkpt lat="47.91153" lon="-2.46627">
        <ele>67.2</ele>
        <time>2024-12-19T11:23:55Z</time>
      </trkpt>
      <trkpt lat="47.91153" lon="-2.46627">
        <ele>67.2</ele>
        <time>2024-12-19T11:23:56Z</time>
      </trkpt>
      <trkpt lat="47.91153" lon="-2.46627">
        <ele>67.2</ele>
        <time>2024-12-19T11:23:57Z</time>
      </trkpt>
      <trkpt lat="47.91153" lon="-2.46627">
        <ele>67.2</ele>
        <time>2024-12-19T11:23:58Z</time>
      </trkpt>
      <trkpt lat="47.91153" lon="-2.46627">
        <ele>67.2</ele>
        <time>2024-12-19T11:23:59Z</time>
      </trkpt>
      <trkpt lat="47.91153" lon="-2.46627">
        <ele>67.2</ele>
        <time>2024-12-19T11:24:00Z</time>
      </trkpt>
      <trkpt lat="47.91153" lon="-2.46627">
        <ele>67.2</ele>
        <time>2024-12-19T11:24:01Z</time>
      </trkpt>
      <trkpt lat="47.91153" lon="-2.46627">
        <ele>67.2</ele>
        <time>2024-12-19T11:24:02Z</time>
      </trkpt>
      <trkpt lat="47.91153" lon="-2.46627">
        <ele>67.2</ele>
        <time>2024-12-19T11:24:03Z</time>
      </trkpt>
      <trkpt lat="47.91153" lon="-2.46627">
        <ele>67.2</ele>
        <time>2024-12-19T11:24:04Z</time>
      </trkpt>
      <trkpt lat="47.91153" lon="-2.46627">
        <ele>67.2</ele>
        <time>2024-12-19T11:24:05Z</time>
      </trkpt>
      <trkpt lat="47.91153" lon="-2.46627">
        <ele>67.2</ele>
        <time>2024-12-19T11:24:06Z</time>
      </trkpt>
      <trkpt lat="47.91153" lon="-2.46627">
        <ele>67.2</ele>
        <time>2024-12-19T11:24:07Z</time>
      </trkpt>
      <trkpt lat="47.91153" lon="-2.46627">
        <ele>67.2</ele>
        <time>2024-12-19T11:24:08Z</time>
      </trkpt>
      <trkpt lat="47.91153" lon="-2.46627">
        <ele>67.2</ele>
        <time>2024-12-19T11:24:09Z</time>
      </trkpt>
      <trkpt lat="47.91153" lon="-2.46627">
        <ele>67.2</ele>
        <time>2024-12-19T11:24:10Z</time>
      </trkpt>
      <trkpt lat="47.91153" lon="-2.46627">
        <ele>67.2</ele>
        <time>2024-12-19T11:24:11Z</time>
      </trkpt>
      <trkpt lat="47.91153" lon="-2.46627">
        <ele>67.2</ele>
        <time>2024-12-19T11:24:12Z</time>
      </trkpt>
      <trkpt lat="47.91153" lon="-2.46627">
        <ele>67.2</ele>
        <time>2024-12-19T11:24:13Z</time>
      </trkpt>
      <trkpt lat="47.91153" lon="-2.46627">
        <ele>67.2</ele>
        <time>2024-12-19T11:24:14Z</time>
      </trkpt>
      <trkpt lat="47.91153" lon="-2.46627">
        <ele>67.2</ele>
        <time>2024-12-19T11:24:15Z</time>
      </trkpt>
      <trkpt lat="47.91153" lon="-2.46627">
        <ele>67.2</ele>
        <time>2024-12-19T11:24:16Z</time>
      </trkpt>
      <trkpt lat="47.91153" lon="-2.46627">
        <ele>67.2</ele>
        <time>2024-12-19T11:24:17Z</time>
      </trkpt>
      <trkpt lat="47.91153" lon="-2.46627">
        <ele>67.2</ele>
        <time>2024-12-19T11:24:18Z</time>
      </trkpt>
      <trkpt lat="47.91153" lon="-2.46627">
        <ele>67.2</ele>
        <time>2024-12-19T11:24:19Z</time>
      </trkpt>
      <trkpt lat="47.91153" lon="-2.46627">
        <ele>67.2</ele>
        <time>2024-12-19T11:24:20Z</time>
      </trkpt>
      <trkpt lat="47.91153" lon="-2.46627">
        <ele>67.2</ele>
        <time>2024-12-19T11:24:21Z</time>
      </trkpt>
      <trkpt lat="47.91153" lon="-2.46627">
        <ele>67.2</ele>
        <time>2024-12-19T11:24:22Z</time>
      </trkpt>
      <trkpt lat="47.91153" lon="-2.46627">
        <ele>67.2</ele>
        <time>2024-12-19T11:24:23Z</time>
      </trkpt>
      <trkpt lat="47.91153" lon="-2.46627">
        <ele>67.2</ele>
        <time>2024-12-19T11:24:24Z</time>
      </trkpt>
      <trkpt lat="47.91153" lon="-2.46627">
        <ele>67.2</ele>
        <time>2024-12-19T11:24:25Z</time>
      </trkpt>
      <trkpt lat="47.91153" lon="-2.46627">
        <ele>67.2</ele>
        <time>2024-12-19T11:24:26Z</time>
      </trkpt>
      <trkpt lat="47.91153" lon="-2.46627">
        <ele>67.2</ele>
        <time>2024-12-19T11:24:27Z</time>
      </trkpt>
      <trkpt lat="47.91153" lon="-2.46628">
        <ele>67.2</ele>
        <time>2024-12-19T11:24:28Z</time>
      </trkpt>
      <trkpt lat="47.91153" lon="-2.46628">
        <ele>67.2</ele>
        <time>2024-12-19T11:24:29Z</time>
      </trkpt>
      <trkpt lat="47.91153" lon="-2.46628">
        <ele>67.2</ele>
        <time>2024-12-19T11:24:30Z</time>
      </trkpt>
      <trkpt lat="47.91153" lon="-2.46628">
        <ele>67.2</ele>
        <time>2024-12-19T11:24:31Z</time>
      </trkpt>
      <trkpt lat="47.91153" lon="-2.46628">
        <ele>67.2</ele>
        <time>2024-12-19T11:24:32Z</time>
      </trkpt>
      <trkpt lat="47.91153" lon="-2.46627">
        <ele>67.2</ele>
        <time>2024-12-19T11:24:33Z</time>
      </trkpt>
      <trkpt lat="47.91153" lon="-2.46627">
        <ele>67.2</ele>
        <time>2024-12-19T11:24:34Z</time>
      </trkpt>
      <trkpt lat="47.91153" lon="-2.46628">
        <ele>67.2</ele>
        <time>2024-12-19T11:24:35Z</time>
      </trkpt>
      <trkpt lat="47.91153" lon="-2.46628">
        <ele>67.2</ele>
        <time>2024-12-19T11:24:36Z</time>
      </trkpt>
      <trkpt lat="47.91153" lon="-2.46628">
        <ele>67.2</ele>
        <time>2024-12-19T11:24:37Z</time>
      </trkpt>
      <trkpt lat="47.91153" lon="-2.46628">
        <ele>67.2</ele>
        <time>2024-12-19T11:24:38Z</time>
      </trkpt>
      <trkpt lat="47.91153" lon="-2.46628">
        <ele>67.2</ele>
        <time>2024-12-19T11:24:39Z</time>
      </trkpt>
      <trkpt lat="47.91153" lon="-2.46628">
        <ele>67.2</ele>
        <time>2024-12-19T11:24:40Z</time>
      </trkpt>
      <trkpt lat="47.91153" lon="-2.46628">
        <ele>67.2</ele>
        <time>2024-12-19T11:24:41Z</time>
      </trkpt>
      <trkpt lat="47.91153" lon="-2.46628">
        <ele>67.2</ele>
        <time>2024-12-19T11:24:42Z</time>
      </trkpt>
      <trkpt lat="47.91153" lon="-2.46628">
        <ele>67.2</ele>
        <time>2024-12-19T11:24:43Z</time>
      </trkpt>
      <trkpt lat="47.91153" lon="-2.46628">
        <ele>67.2</ele>
        <time>2024-12-19T11:24:44Z</time>
      </trkpt>
      <trkpt lat="47.91153" lon="-2.46628">
        <ele>67.2</ele>
        <time>2024-12-19T11:24:45Z</time>
      </trkpt>
      <trkpt lat="47.91153" lon="-2.46628">
        <ele>67.2</ele>
        <time>2024-12-19T11:24:46Z</time>
      </trkpt>
      <trkpt lat="47.91153" lon="-2.46628">
        <ele>67.2</ele>
        <time>2024-12-19T11:24:47Z</time>
      </trkpt>
      <trkpt lat="47.91153" lon="-2.46628">
        <ele>67.2</ele>
        <time>2024-12-19T11:24:48Z</time>
      </trkpt>
      <trkpt lat="47.91153" lon="-2.46628">
        <ele>67.2</ele>
        <time>2024-12-19T11:24:49Z</time>
      </trkpt>
      <trkpt lat="47.91153" lon="-2.46628">
        <ele>67.2</ele>
        <time>2024-12-19T11:24:50Z</time>
      </trkpt>
      <trkpt lat="47.91153" lon="-2.46628">
        <ele>67.2</ele>
        <time>2024-12-19T11:24:51Z</time>
      </trkpt>
      <trkpt lat="47.91153" lon="-2.46628">
        <ele>67.2</ele>
        <time>2024-12-19T11:24:52Z</time>
      </trkpt>
      <trkpt lat="47.91153" lon="-2.46628">
        <ele>67.2</ele>
        <time>2024-12-19T11:24:53Z</time>
      </trkpt>
      <trkpt lat="47.91153" lon="-2.46628">
        <ele>67.2</ele>
        <time>2024-12-19T11:24:54Z</time>
      </trkpt>
      <trkpt lat="47.91153" lon="-2.46628">
        <ele>67.2</ele>
        <time>2024-12-19T11:24:55Z</time>
      </trkpt>
      <trkpt lat="47.91153" lon="-2.46628">
        <ele>67.2</ele>
        <time>2024-12-19T11:24:56Z</time>
      </trkpt>
      <trkpt lat="47.91153" lon="-2.46628">
        <ele>67.2</ele>
        <time>2024-12-19T11:24:57Z</time>
      </trkpt>
      <trkpt lat="47.91153" lon="-2.46628">
        <ele>67.2</ele>
        <time>2024-12-19T11:24:58Z</time>
      </trkpt>
      <trkpt lat="47.91153" lon="-2.46628">
        <ele>67.2</ele>
        <time>2024-12-19T11:24:59Z</time>
      </trkpt>
      <trkpt lat="47.91153" lon="-2.46628">
        <ele>67.2</ele>
        <time>2024-12-19T11:25:00Z</time>
      </trkpt>
      <trkpt lat="47.91153" lon="-2.46628">
        <ele>67.2</ele>
        <time>2024-12-19T11:25:01Z</time>
      </trkpt>
      <trkpt lat="47.91153" lon="-2.46628">
        <ele>67.2</ele>
        <time>2024-12-19T11:25:02Z</time>
      </trkpt>
      <trkpt lat="47.91153" lon="-2.46628">
        <ele>67.2</ele>
        <time>2024-12-19T11:25:03Z</time>
      </trkpt>
      <trkpt lat="47.91153" lon="-2.46628">
        <ele>67.2</ele>
        <time>2024-12-19T11:25:04Z</time>
      </trkpt>
      <trkpt lat="47.91153" lon="-2.46628">
        <ele>67.2</ele>
        <time>2024-12-19T11:25:05Z</time>
      </trkpt>
      <trkpt lat="47.91153" lon="-2.46628">
        <ele>67.2</ele>
        <time>2024-12-19T11:25:06Z</time>
      </trkpt>
      <trkpt lat="47.91153" lon="-2.46628">
        <ele>67.2</ele>
        <time>2024-12-19T11:25:07Z</time>
      </trkpt>
      <trkpt lat="47.91153" lon="-2.46628">
        <ele>67.2</ele>
        <time>2024-12-19T11:25:08Z</time>
      </trkpt>
      <trkpt lat="47.91153" lon="-2.46628">
        <ele>67.2</ele>
        <time>2024-12-19T11:25:09Z</time>
      </trkpt>
      <trkpt lat="47.91153" lon="-2.46627">
        <ele>67.2</ele>
        <time>2024-12-19T11:25:10Z</time>
      </trkpt>
      <trkpt lat="47.91153" lon="-2.46627">
        <ele>67.2</ele>
        <time>2024-12-19T11:25:11Z</time>
      </trkpt>
      <trkpt lat="47.91153" lon="-2.46627">
        <ele>67.2</ele>
        <time>2024-12-19T11:25:12Z</time>
      </trkpt>
      <trkpt lat="47.91153" lon="-2.46627">
        <ele>67.2</ele>
        <time>2024-12-19T11:25:13Z</time>
      </trkpt>
      <trkpt lat="47.91153" lon="-2.46627">
        <ele>67.2</ele>
        <time>2024-12-19T11:25:14Z</time>
      </trkpt>
      <trkpt lat="47.91153" lon="-2.46627">
        <ele>67.2</ele>
        <time>2024-12-19T11:25:15Z</time>
      </trkpt>
      <trkpt lat="47.91153" lon="-2.46627">
        <ele>67.2</ele>
        <time>2024-12-19T11:25:16Z</time>
      </trkpt>
      <trkpt lat="47.91153" lon="-2.46628">
        <ele>67.2</ele>
        <time>2024-12-19T11:25:17Z</time>
      </trkpt>
      <trkpt lat="47.91153" lon="-2.46628">
        <ele>67.2</ele>
        <time>2024-12-19T11:25:18Z</time>
      </trkpt>
      <trkpt lat="47.91153" lon="-2.46628">
        <ele>67.2</ele>
        <time>2024-12-19T11:25:19Z</time>
      </trkpt>
      <trkpt lat="47.91153" lon="-2.46628">
        <ele>67.2</ele>
        <time>2024-12-19T11:25:20Z</time>
      </trkpt>
      <trkpt lat="47.91153" lon="-2.46628">
        <ele>67.2</ele>
        <time>2024-12-19T11:25:21Z</time>
      </trkpt>
      <trkpt lat="47.91153" lon="-2.46628">
        <ele>67.2</ele>
        <time>2024-12-19T11:25:22Z</time>
      </trkpt>
      <trkpt lat="47.91153" lon="-2.46628">
        <ele>67.2</ele>
        <time>2024-12-19T11:25:23Z</time>
      </trkpt>
      <trkpt lat="47.91153" lon="-2.46627">
        <ele>67.2</ele>
        <time>2024-12-19T11:25:24Z</time>
      </trkpt>
      <trkpt lat="47.91153" lon="-2.46627">
        <ele>67.2</ele>
        <time>2024-12-19T11:25:25Z</time>
      </trkpt>
      <trkpt lat="47.91153" lon="-2.46627">
        <ele>67.2</ele>
        <time>2024-12-19T11:25:26Z</time>
      </trkpt>
      <trkpt lat="47.91153" lon="-2.46627">
        <ele>67.2</ele>
        <time>2024-12-19T11:25:27Z</time>
      </trkpt>
      <trkpt lat="47.91153" lon="-2.46627">
        <ele>67.2</ele>
        <time>2024-12-19T11:25:28Z</time>
      </trkpt>
      <trkpt lat="47.91153" lon="-2.46627">
        <ele>67.2</ele>
        <time>2024-12-19T11:25:29Z</time>
      </trkpt>
      <trkpt lat="47.91153" lon="-2.46627">
        <ele>67.2</ele>
        <time>2024-12-19T11:25:30Z</time>
      </trkpt>
      <trkpt lat="47.91153" lon="-2.46627">
        <ele>67.2</ele>
        <time>2024-12-19T11:25:31Z</time>
      </trkpt>
      <trkpt lat="47.91153" lon="-2.46627">
        <ele>67.2</ele>
        <time>2024-12-19T11:25:32Z</time>
      </trkpt>
      <trkpt lat="47.91153" lon="-2.46627">
        <ele>67.2</ele>
        <time>2024-12-19T11:25:33Z</time>
      </trkpt>
      <trkpt lat="47.91153" lon="-2.46627">
        <ele>67.2</ele>
        <time>2024-12-19T11:25:34Z</time>
      </trkpt>
      <trkpt lat="47.91153" lon="-2.46627">
        <ele>67.2</ele>
        <time>2024-12-19T11:25:35Z</time>
      </trkpt>
      <trkpt lat="47.91153" lon="-2.46627">
        <ele>67.2</ele>
        <time>2024-12-19T11:25:36Z</time>
      </trkpt>
      <trkpt lat="47.91153" lon="-2.46627">
        <ele>67.2</ele>
        <time>2024-12-19T11:25:37Z</time>
      </trkpt>
      <trkpt lat="47.91153" lon="-2.46627">
        <ele>67.2</ele>
        <time>2024-12-19T11:25:38Z</time>
      </trkpt>
      <trkpt lat="47.91153" lon="-2.46627">
        <ele>67.2</ele>
        <time>2024-12-19T11:25:39Z</time>
      </trkpt>
      <trkpt lat="47.91153" lon="-2.46627">
        <ele>67.2</ele>
        <time>2024-12-19T11:25:40Z</time>
      </trkpt>
      <trkpt lat="47.91153" lon="-2.46627">
        <ele>67.2</ele>
        <time>2024-12-19T11:25:41Z</time>
      </trkpt>
      <trkpt lat="47.91153" lon="-2.46627">
        <ele>67.2</ele>
        <time>2024-12-19T11:25:42Z</time>
      </trkpt>
      <trkpt lat="47.91153" lon="-2.46627">
        <ele>67.2</ele>
        <time>2024-12-19T11:25:43Z</time>
      </trkpt>
      <trkpt lat="47.91153" lon="-2.46627">
        <ele>67.2</ele>
        <time>2024-12-19T11:25:44Z</time>
      </trkpt>
      <trkpt lat="47.91153" lon="-2.46627">
        <ele>67.2</ele>
        <time>2024-12-19T11:25:45Z</time>
      </trkpt>
      <trkpt lat="47.91153" lon="-2.46627">
        <ele>67.2</ele>
        <time>2024-12-19T11:25:46Z</time>
      </trkpt>
      <trkpt lat="47.91153" lon="-2.46627">
        <ele>67.2</ele>
        <time>2024-12-19T11:25:47Z</time>
      </trkpt>
      <trkpt lat="47.91153" lon="-2.46627">
        <ele>67.2</ele>
        <time>2024-12-19T11:25:48Z</time>
      </trkpt>
      <trkpt lat="47.91153" lon="-2.46627">
        <ele>67.2</ele>
        <time>2024-12-19T11:25:49Z</time>
      </trkpt>
      <trkpt lat="47.91153" lon="-2.46627">
        <ele>67.2</ele>
        <time>2024-12-19T11:25:50Z</time>
      </trkpt>
      <trkpt lat="47.91153" lon="-2.46627">
        <ele>67.2</ele>
        <time>2024-12-19T11:25:51Z</time>
      </trkpt>
      <trkpt lat="47.91153" lon="-2.46627">
        <ele>67.2</ele>
        <time>2024-12-19T11:25:52Z</time>
      </trkpt>
      <trkpt lat="47.91153" lon="-2.46627">
        <ele>67.2</ele>
        <time>2024-12-19T11:25:53Z</time>
      </trkpt>
      <trkpt lat="47.91153" lon="-2.46627">
        <ele>67.2</ele>
        <time>2024-12-19T11:25:54Z</time>
      </trkpt>
      <trkpt lat="47.91153" lon="-2.46627">
        <ele>67.2</ele>
        <time>2024-12-19T11:25:55Z</time>
      </trkpt>
      <trkpt lat="47.91153" lon="-2.46627">
        <ele>67.2</ele>
        <time>2024-12-19T11:25:56Z</time>
      </trkpt>
      <trkpt lat="47.91153" lon="-2.46627">
        <ele>67.2</ele>
        <time>2024-12-19T11:25:57Z</time>
      </trkpt>
      <trkpt lat="47.91153" lon="-2.46627">
        <ele>67.2</ele>
        <time>2024-12-19T11:25:58Z</time>
      </trkpt>
      <trkpt lat="47.91153" lon="-2.46627">
        <ele>67.2</ele>
        <time>2024-12-19T11:25:59Z</time>
      </trkpt>
      <trkpt lat="47.91153" lon="-2.46627">
        <ele>67.2</ele>
        <time>2024-12-19T11:26:00Z</time>
      </trkpt>
      <trkpt lat="47.91153" lon="-2.46627">
        <ele>67.2</ele>
        <time>2024-12-19T11:26:01Z</time>
      </trkpt>
      <trkpt lat="47.91153" lon="-2.46627">
        <ele>67.2</ele>
        <time>2024-12-19T11:26:02Z</time>
      </trkpt>
      <trkpt lat="47.91153" lon="-2.46627">
        <ele>67.2</ele>
        <time>2024-12-19T11:26:03Z</time>
      </trkpt>
      <trkpt lat="47.91153" lon="-2.46627">
        <ele>67.2</ele>
        <time>2024-12-19T11:26:04Z</time>
      </trkpt>
      <trkpt lat="47.91153" lon="-2.46627">
        <ele>67.2</ele>
        <time>2024-12-19T11:26:05Z</time>
      </trkpt>
      <trkpt lat="47.91153" lon="-2.46627">
        <ele>67.2</ele>
        <time>2024-12-19T11:26:06Z</time>
      </trkpt>
      <trkpt lat="47.91153" lon="-2.46627">
        <ele>67.2</ele>
        <time>2024-12-19T11:26:07Z</time>
      </trkpt>
      <trkpt lat="47.91153" lon="-2.46627">
        <ele>67.2</ele>
        <time>2024-12-19T11:26:08Z</time>
      </trkpt>
      <trkpt lat="47.91153" lon="-2.46627">
        <ele>67.2</ele>
        <time>2024-12-19T11:26:09Z</time>
      </trkpt>
      <trkpt lat="47.91153" lon="-2.46627">
        <ele>67.2</ele>
        <time>2024-12-19T11:26:10Z</time>
      </trkpt>
      <trkpt lat="47.91153" lon="-2.46627">
        <ele>67.2</ele>
        <time>2024-12-19T11:26:11Z</time>
      </trkpt>
      <trkpt lat="47.91153" lon="-2.46627">
        <ele>67.2</ele>
        <time>2024-12-19T11:26:12Z</time>
      </trkpt>
      <trkpt lat="47.91153" lon="-2.46627">
        <ele>67.2</ele>
        <time>2024-12-19T11:26:13Z</time>
      </trkpt>
      <trkpt lat="47.91153" lon="-2.46627">
        <ele>67.2</ele>
        <time>2024-12-19T11:26:14Z</time>
      </trkpt>
      <trkpt lat="47.91153" lon="-2.46627">
        <ele>67.2</ele>
        <time>2024-12-19T11:26:15Z</time>
      </trkpt>
      <trkpt lat="47.91153" lon="-2.46627">
        <ele>67.2</ele>
        <time>2024-12-19T11:26:16Z</time>
      </trkpt>
      <trkpt lat="47.91153" lon="-2.46627">
        <ele>67.2</ele>
        <time>2024-12-19T11:26:17Z</time>
      </trkpt>
      <trkpt lat="47.91153" lon="-2.46627">
        <ele>67.2</ele>
        <time>2024-12-19T11:26:18Z</time>
      </trkpt>
      <trkpt lat="47.91153" lon="-2.46627">
        <ele>67.2</ele>
        <time>2024-12-19T11:26:19Z</time>
      </trkpt>
      <trkpt lat="47.91153" lon="-2.46627">
        <ele>67.2</ele>
        <time>2024-12-19T11:26:20Z</time>
      </trkpt>
      <trkpt lat="47.91153" lon="-2.46627">
        <ele>67.2</ele>
        <time>2024-12-19T11:26:21Z</time>
      </trkpt>
      <trkpt lat="47.91153" lon="-2.46627">
        <ele>67.2</ele>
        <time>2024-12-19T11:26:22Z</time>
      </trkpt>
      <trkpt lat="47.91153" lon="-2.46627">
        <ele>67.2</ele>
        <time>2024-12-19T11:26:23Z</time>
      </trkpt>
      <trkpt lat="47.91153" lon="-2.46627">
        <ele>67.2</ele>
        <time>2024-12-19T11:26:24Z</time>
      </trkpt>
      <trkpt lat="47.91153" lon="-2.46627">
        <ele>67.2</ele>
        <time>2024-12-19T11:26:25Z</time>
      </trkpt>
      <trkpt lat="47.91153" lon="-2.46627">
        <ele>67.2</ele>
        <time>2024-12-19T11:26:26Z</time>
      </trkpt>
      <trkpt lat="47.91153" lon="-2.46627">
        <ele>67.2</ele>
        <time>2024-12-19T11:26:27Z</time>
      </trkpt>
      <trkpt lat="47.91153" lon="-2.46628">
        <ele>67.2</ele>
        <time>2024-12-19T11:26:28Z</time>
      </trkpt>
      <trkpt lat="47.91153" lon="-2.46628">
        <ele>67.2</ele>
        <time>2024-12-19T11:26:29Z</time>
      </trkpt>
      <trkpt lat="47.91153" lon="-2.46628">
        <ele>67.2</ele>
        <time>2024-12-19T11:26:30Z</time>
      </trkpt>
      <trkpt lat="47.91153" lon="-2.46628">
        <ele>67.2</ele>
        <time>2024-12-19T11:26:31Z</time>
      </trkpt>
      <trkpt lat="47.91153" lon="-2.46628">
        <ele>67.2</ele>
        <time>2024-12-19T11:26:32Z</time>
      </trkpt>
      <trkpt lat="47.91153" lon="-2.46628">
        <ele>67.2</ele>
        <time>2024-12-19T11:26:33Z</time>
      </trkpt>
      <trkpt lat="47.91153" lon="-2.46628">
        <ele>67.2</ele>
        <time>2024-12-19T11:26:34Z</time>
      </trkpt>
      <trkpt lat="47.91153" lon="-2.46628">
        <ele>67.2</ele>
        <time>2024-12-19T11:26:35Z</time>
      </trkpt>
      <trkpt lat="47.91153" lon="-2.46628">
        <ele>67.2</ele>
        <time>2024-12-19T11:26:36Z</time>
      </trkpt>
      <trkpt lat="47.91153" lon="-2.46628">
        <ele>67.2</ele>
        <time>2024-12-19T11:26:37Z</time>
      </trkpt>
      <trkpt lat="47.91153" lon="-2.46628">
        <ele>67.2</ele>
        <time>2024-12-19T11:26:38Z</time>
      </trkpt>
      <trkpt lat="47.91153" lon="-2.46628">
        <ele>67.2</ele>
        <time>2024-12-19T11:26:39Z</time>
      </trkpt>
      <trkpt lat="47.91153" lon="-2.46628">
        <ele>67.2</ele>
        <time>2024-12-19T11:26:40Z</time>
      </trkpt>
      <trkpt lat="47.91153" lon="-2.46628">
        <ele>67.2</ele>
        <time>2024-12-19T11:26:41Z</time>
      </trkpt>
      <trkpt lat="47.91154" lon="-2.46628">
        <ele>67.3</ele>
        <time>2024-12-19T11:26:42Z</time>
      </trkpt>
      <trkpt lat="47.91154" lon="-2.46628">
        <ele>67.3</ele>
        <time>2024-12-19T11:26:43Z</time>
      </trkpt>
      <trkpt lat="47.91154" lon="-2.46628">
        <ele>67.3</ele>
        <time>2024-12-19T11:26:44Z</time>
      </trkpt>
      <trkpt lat="47.91154" lon="-2.46628">
        <ele>67.3</ele>
        <time>2024-12-19T11:26:45Z</time>
      </trkpt>
      <trkpt lat="47.91154" lon="-2.46628">
        <ele>67.3</ele>
        <time>2024-12-19T11:26:46Z</time>
      </trkpt>
      <trkpt lat="47.91154" lon="-2.46628">
        <ele>67.3</ele>
        <time>2024-12-19T11:26:47Z</time>
      </trkpt>
      <trkpt lat="47.91154" lon="-2.46628">
        <ele>67.3</ele>
        <time>2024-12-19T11:26:48Z</time>
      </trkpt>
      <trkpt lat="47.91154" lon="-2.46628">
        <ele>67.3</ele>
        <time>2024-12-19T11:26:49Z</time>
      </trkpt>
      <trkpt lat="47.91154" lon="-2.46628">
        <ele>67.3</ele>
        <time>2024-12-19T11:26:50Z</time>
      </trkpt>
      <trkpt lat="47.91154" lon="-2.46629">
        <ele>67.3</ele>
        <time>2024-12-19T11:26:51Z</time>
      </trkpt>
      <trkpt lat="47.91153" lon="-2.46629">
        <ele>67.2</ele>
        <time>2024-12-19T11:26:52Z</time>
      </trkpt>
      <trkpt lat="47.91153" lon="-2.46629">
        <ele>67.2</ele>
        <time>2024-12-19T11:26:53Z</time>
      </trkpt>
      <trkpt lat="47.91153" lon="-2.46629">
        <ele>67.2</ele>
        <time>2024-12-19T11:26:54Z</time>
      </trkpt>
      <trkpt lat="47.91153" lon="-2.46629">
        <ele>67.2</ele>
        <time>2024-12-19T11:26:55Z</time>
      </trkpt>
      <trkpt lat="47.91153" lon="-2.46629">
        <ele>67.2</ele>
        <time>2024-12-19T11:26:56Z</time>
      </trkpt>
      <trkpt lat="47.91153" lon="-2.46629">
        <ele>67.2</ele>
        <time>2024-12-19T11:26:57Z</time>
      </trkpt>
      <trkpt lat="47.91153" lon="-2.46629">
        <ele>67.2</ele>
        <time>2024-12-19T11:26:58Z</time>
      </trkpt>
      <trkpt lat="47.91153" lon="-2.46629">
        <ele>67.2</ele>
        <time>2024-12-19T11:26:59Z</time>
      </trkpt>
      <trkpt lat="47.91153" lon="-2.46629">
        <ele>67.2</ele>
        <time>2024-12-19T11:27:00Z</time>
      </trkpt>
      <trkpt lat="47.91153" lon="-2.46629">
        <ele>67.2</ele>
        <time>2024-12-19T11:27:01Z</time>
      </trkpt>
      <trkpt lat="47.91153" lon="-2.46629">
        <ele>67.2</ele>
        <time>2024-12-19T11:27:02Z</time>
      </trkpt>
      <trkpt lat="47.91153" lon="-2.46629">
        <ele>67.2</ele>
        <time>2024-12-19T11:27:03Z</time>
      </trkpt>
      <trkpt lat="47.91153" lon="-2.46629">
        <ele>67.2</ele>
        <time>2024-12-19T11:27:04Z</time>
      </trkpt>
      <trkpt lat="47.91153" lon="-2.46629">
        <ele>67.2</ele>
        <time>2024-12-19T11:27:05Z</time>
      </trkpt>
      <trkpt lat="47.91153" lon="-2.46629">
        <ele>67.2</ele>
        <time>2024-12-19T11:27:06Z</time>
      </trkpt>
      <trkpt lat="47.91153" lon="-2.46629">
        <ele>67.2</ele>
        <time>2024-12-19T11:27:07Z</time>
      </trkpt>
      <trkpt lat="47.91153" lon="-2.46629">
        <ele>67.2</ele>
        <time>2024-12-19T11:27:08Z</time>
      </trkpt>
      <trkpt lat="47.91153" lon="-2.46629">
        <ele>67.2</ele>
        <time>2024-12-19T11:27:09Z</time>
      </trkpt>
      <trkpt lat="47.91153" lon="-2.46629">
        <ele>67.2</ele>
        <time>2024-12-19T11:27:10Z</time>
      </trkpt>
      <trkpt lat="47.91153" lon="-2.46629">
        <ele>67.2</ele>
        <time>2024-12-19T11:27:11Z</time>
      </trkpt>
      <trkpt lat="47.91153" lon="-2.46629">
        <ele>67.2</ele>
        <time>2024-12-19T11:27:12Z</time>
      </trkpt>
      <trkpt lat="47.91153" lon="-2.46629">
        <ele>67.2</ele>
        <time>2024-12-19T11:27:13Z</time>
      </trkpt>
      <trkpt lat="47.91153" lon="-2.46629">
        <ele>67.2</ele>
        <time>2024-12-19T11:27:14Z</time>
      </trkpt>
      <trkpt lat="47.91153" lon="-2.46629">
        <ele>67.2</ele>
        <time>2024-12-19T11:27:15Z</time>
      </trkpt>
      <trkpt lat="47.91153" lon="-2.46629">
        <ele>67.2</ele>
        <time>2024-12-19T11:27:16Z</time>
      </trkpt>
      <trkpt lat="47.91153" lon="-2.46629">
        <ele>67.2</ele>
        <time>2024-12-19T11:27:17Z</time>
      </trkpt>
      <trkpt lat="47.91153" lon="-2.46629">
        <ele>67.2</ele>
        <time>2024-12-19T11:27:18Z</time>
      </trkpt>
      <trkpt lat="47.91153" lon="-2.46629">
        <ele>67.2</ele>
        <time>2024-12-19T11:27:19Z</time>
      </trkpt>
      <trkpt lat="47.91153" lon="-2.46629">
        <ele>67.2</ele>
        <time>2024-12-19T11:27:20Z</time>
      </trkpt>
      <trkpt lat="47.91153" lon="-2.46629">
        <ele>67.2</ele>
        <time>2024-12-19T11:27:21Z</time>
      </trkpt>
      <trkpt lat="47.91153" lon="-2.46629">
        <ele>67.2</ele>
        <time>2024-12-19T11:27:22Z</time>
      </trkpt>
      <trkpt lat="47.91153" lon="-2.46629">
        <ele>67.2</ele>
        <time>2024-12-19T11:27:23Z</time>
      </trkpt>
      <trkpt lat="47.91153" lon="-2.46629">
        <ele>67.2</ele>
        <time>2024-12-19T11:27:24Z</time>
      </trkpt>
      <trkpt lat="47.91153" lon="-2.46629">
        <ele>67.2</ele>
        <time>2024-12-19T11:27:25Z</time>
      </trkpt>
      <trkpt lat="47.91153" lon="-2.46629">
        <ele>67.2</ele>
        <time>2024-12-19T11:27:26Z</time>
      </trkpt>
      <trkpt lat="47.91153" lon="-2.46629">
        <ele>67.2</ele>
        <time>2024-12-19T11:27:27Z</time>
      </trkpt>
      <trkpt lat="47.91153" lon="-2.46629">
        <ele>67.2</ele>
        <time>2024-12-19T11:27:28Z</time>
      </trkpt>
      <trkpt lat="47.91153" lon="-2.46629">
        <ele>67.2</ele>
        <time>2024-12-19T11:27:29Z</time>
      </trkpt>
      <trkpt lat="47.91153" lon="-2.46629">
        <ele>67.2</ele>
        <time>2024-12-19T11:27:30Z</time>
      </trkpt>
      <trkpt lat="47.91153" lon="-2.46629">
        <ele>67.2</ele>
        <time>2024-12-19T11:27:31Z</time>
      </trkpt>
      <trkpt lat="47.91153" lon="-2.46629">
        <ele>67.2</ele>
        <time>2024-12-19T11:27:32Z</time>
      </trkpt>
      <trkpt lat="47.91153" lon="-2.46629">
        <ele>67.2</ele>
        <time>2024-12-19T11:27:33Z</time>
      </trkpt>
      <trkpt lat="47.91153" lon="-2.4663">
        <ele>67.2</ele>
        <time>2024-12-19T11:27:34Z</time>
      </trkpt>
      <trkpt lat="47.91153" lon="-2.4663">
        <ele>67.2</ele>
        <time>2024-12-19T11:27:35Z</time>
      </trkpt>
      <trkpt lat="47.91153" lon="-2.4663">
        <ele>67.2</ele>
        <time>2024-12-19T11:27:36Z</time>
      </trkpt>
      <trkpt lat="47.91153" lon="-2.4663">
        <ele>67.2</ele>
        <time>2024-12-19T11:27:37Z</time>
      </trkpt>
      <trkpt lat="47.91153" lon="-2.4663">
        <ele>67.2</ele>
        <time>2024-12-19T11:27:38Z</time>
      </trkpt>
      <trkpt lat="47.91153" lon="-2.4663">
        <ele>67.2</ele>
        <time>2024-12-19T11:27:39Z</time>
      </trkpt>
      <trkpt lat="47.91153" lon="-2.4663">
        <ele>67.2</ele>
        <time>2024-12-19T11:27:40Z</time>
      </trkpt>
      <trkpt lat="47.91153" lon="-2.4663">
        <ele>67.2</ele>
        <time>2024-12-19T11:27:41Z</time>
      </trkpt>
      <trkpt lat="47.91153" lon="-2.4663">
        <ele>67.2</ele>
        <time>2024-12-19T11:27:42Z</time>
      </trkpt>
      <trkpt lat="47.91153" lon="-2.4663">
        <ele>67.2</ele>
        <time>2024-12-19T11:27:43Z</time>
      </trkpt>
      <trkpt lat="47.91153" lon="-2.4663">
        <ele>67.2</ele>
        <time>2024-12-19T11:27:44Z</time>
      </trkpt>
      <trkpt lat="47.91153" lon="-2.4663">
        <ele>67.2</ele>
        <time>2024-12-19T11:27:45Z</time>
      </trkpt>
      <trkpt lat="47.91153" lon="-2.4663">
        <ele>67.2</ele>
        <time>2024-12-19T11:27:46Z</time>
      </trkpt>
      <trkpt lat="47.91153" lon="-2.4663">
        <ele>67.2</ele>
        <time>2024-12-19T11:27:47Z</time>
      </trkpt>
      <trkpt lat="47.91153" lon="-2.4663">
        <ele>67.2</ele>
        <time>2024-12-19T11:27:48Z</time>
      </trkpt>
      <trkpt lat="47.91153" lon="-2.4663">
        <ele>67.2</ele>
        <time>2024-12-19T11:27:49Z</time>
      </trkpt>
      <trkpt lat="47.91153" lon="-2.4663">
        <ele>67.2</ele>
        <time>2024-12-19T11:27:50Z</time>
      </trkpt>
      <trkpt lat="47.91153" lon="-2.4663">
        <ele>67.2</ele>
        <time>2024-12-19T11:27:51Z</time>
      </trkpt>
      <trkpt lat="47.91153" lon="-2.4663">
        <ele>67.2</ele>
        <time>2024-12-19T11:27:52Z</time>
      </trkpt>
      <trkpt lat="47.91153" lon="-2.4663">
        <ele>67.2</ele>
        <time>2024-12-19T11:27:53Z</time>
      </trkpt>
      <trkpt lat="47.91153" lon="-2.4663">
        <ele>67.2</ele>
        <time>2024-12-19T11:27:54Z</time>
      </trkpt>
      <trkpt lat="47.91153" lon="-2.4663">
        <ele>67.2</ele>
        <time>2024-12-19T11:27:55Z</time>
      </trkpt>
      <trkpt lat="47.91153" lon="-2.4663">
        <ele>67.2</ele>
        <time>2024-12-19T11:27:56Z</time>
      </trkpt>
      <trkpt lat="47.91153" lon="-2.4663">
        <ele>67.2</ele>
        <time>2024-12-19T11:27:57Z</time>
      </trkpt>
      <trkpt lat="47.91153" lon="-2.4663">
        <ele>67.2</ele>
        <time>2024-12-19T11:27:58Z</time>
      </trkpt>
      <trkpt lat="47.91153" lon="-2.4663">
        <ele>67.2</ele>
        <time>2024-12-19T11:27:59Z</time>
      </trkpt>
      <trkpt lat="47.91153" lon="-2.4663">
        <ele>67.2</ele>
        <time>2024-12-19T11:28:00Z</time>
      </trkpt>
      <trkpt lat="47.91153" lon="-2.4663">
        <ele>67.2</ele>
        <time>2024-12-19T11:28:01Z</time>
      </trkpt>
      <trkpt lat="47.91153" lon="-2.4663">
        <ele>67.2</ele>
        <time>2024-12-19T11:28:02Z</time>
      </trkpt>
      <trkpt lat="47.91153" lon="-2.4663">
        <ele>67.2</ele>
        <time>2024-12-19T11:28:03Z</time>
      </trkpt>
      <trkpt lat="47.91153" lon="-2.4663">
        <ele>67.2</ele>
        <time>2024-12-19T11:28:04Z</time>
      </trkpt>
      <trkpt lat="47.91153" lon="-2.4663">
        <ele>67.2</ele>
        <time>2024-12-19T11:28:05Z</time>
      </trkpt>
      <trkpt lat="47.91153" lon="-2.4663">
        <ele>67.2</ele>
        <time>2024-12-19T11:28:06Z</time>
      </trkpt>
      <trkpt lat="47.91153" lon="-2.4663">
        <ele>67.2</ele>
        <time>2024-12-19T11:28:07Z</time>
      </trkpt>
      <trkpt lat="47.91153" lon="-2.4663">
        <ele>67.2</ele>
        <time>2024-12-19T11:28:08Z</time>
      </trkpt>
      <trkpt lat="47.91153" lon="-2.4663">
        <ele>67.2</ele>
        <time>2024-12-19T11:28:09Z</time>
      </trkpt>
      <trkpt lat="47.91153" lon="-2.4663">
        <ele>67.2</ele>
        <time>2024-12-19T11:28:10Z</time>
      </trkpt>
      <trkpt lat="47.91153" lon="-2.4663">
        <ele>67.2</ele>
        <time>2024-12-19T11:28:11Z</time>
      </trkpt>
      <trkpt lat="47.91153" lon="-2.4663">
        <ele>67.2</ele>
        <time>2024-12-19T11:28:12Z</time>
      </trkpt>
      <trkpt lat="47.91153" lon="-2.4663">
        <ele>67.2</ele>
        <time>2024-12-19T11:28:13Z</time>
      </trkpt>
      <trkpt lat="47.91153" lon="-2.4663">
        <ele>67.2</ele>
        <time>2024-12-19T11:28:14Z</time>
      </trkpt>
      <trkpt lat="47.91153" lon="-2.4663">
        <ele>67.2</ele>
        <time>2024-12-19T11:28:15Z</time>
      </trkpt>
      <trkpt lat="47.91153" lon="-2.4663">
        <ele>67.2</ele>
        <time>2024-12-19T11:28:16Z</time>
      </trkpt>
      <trkpt lat="47.91153" lon="-2.4663">
        <ele>67.2</ele>
        <time>2024-12-19T11:28:17Z</time>
      </trkpt>
      <trkpt lat="47.91153" lon="-2.4663">
        <ele>67.2</ele>
        <time>2024-12-19T11:28:18Z</time>
      </trkpt>
      <trkpt lat="47.91153" lon="-2.4663">
        <ele>67.2</ele>
        <time>2024-12-19T11:28:19Z</time>
      </trkpt>
      <trkpt lat="47.91153" lon="-2.4663">
        <ele>67.2</ele>
        <time>2024-12-19T11:28:20Z</time>
      </trkpt>
      <trkpt lat="47.91153" lon="-2.4663">
        <ele>67.2</ele>
        <time>2024-12-19T11:28:21Z</time>
      </trkpt>
      <trkpt lat="47.91153" lon="-2.4663">
        <ele>67.2</ele>
        <time>2024-12-19T11:28:22Z</time>
      </trkpt>
      <trkpt lat="47.91153" lon="-2.4663">
        <ele>67.2</ele>
        <time>2024-12-19T11:28:23Z</time>
      </trkpt>
      <trkpt lat="47.91153" lon="-2.4663">
        <ele>67.2</ele>
        <time>2024-12-19T11:28:24Z</time>
      </trkpt>
      <trkpt lat="47.91153" lon="-2.4663">
        <ele>67.2</ele>
        <time>2024-12-19T11:28:25Z</time>
      </trkpt>
      <trkpt lat="47.91153" lon="-2.4663">
        <ele>67.2</ele>
        <time>2024-12-19T11:28:26Z</time>
      </trkpt>
      <trkpt lat="47.91153" lon="-2.4663">
        <ele>67.2</ele>
        <time>2024-12-19T11:28:27Z</time>
      </trkpt>
      <trkpt lat="47.91153" lon="-2.4663">
        <ele>67.2</ele>
        <time>2024-12-19T11:28:28Z</time>
      </trkpt>
      <trkpt lat="47.91153" lon="-2.4663">
        <ele>67.2</ele>
        <time>2024-12-19T11:28:29Z</time>
      </trkpt>
      <trkpt lat="47.91153" lon="-2.4663">
        <ele>67.2</ele>
        <time>2024-12-19T11:28:30Z</time>
      </trkpt>
      <trkpt lat="47.91153" lon="-2.4663">
        <ele>67.2</ele>
        <time>2024-12-19T11:28:31Z</time>
      </trkpt>
      <trkpt lat="47.91153" lon="-2.4663">
        <ele>67.2</ele>
        <time>2024-12-19T11:28:32Z</time>
      </trkpt>
      <trkpt lat="47.91153" lon="-2.4663">
        <ele>67.2</ele>
        <time>2024-12-19T11:28:33Z</time>
      </trkpt>
      <trkpt lat="47.91153" lon="-2.4663">
        <ele>67.2</ele>
        <time>2024-12-19T11:28:34Z</time>
      </trkpt>
      <trkpt lat="47.91153" lon="-2.4663">
        <ele>67.2</ele>
        <time>2024-12-19T11:28:35Z</time>
      </trkpt>
      <trkpt lat="47.91153" lon="-2.4663">
        <ele>67.2</ele>
        <time>2024-12-19T11:28:36Z</time>
      </trkpt>
      <trkpt lat="47.91153" lon="-2.4663">
        <ele>67.2</ele>
        <time>2024-12-19T11:28:37Z</time>
      </trkpt>
      <trkpt lat="47.91153" lon="-2.4663">
        <ele>67.2</ele>
        <time>2024-12-19T11:28:38Z</time>
      </trkpt>
      <trkpt lat="47.91153" lon="-2.4663">
        <ele>67.2</ele>
        <time>2024-12-19T11:28:39Z</time>
      </trkpt>
      <trkpt lat="47.91153" lon="-2.4663">
        <ele>67.2</ele>
        <time>2024-12-19T11:28:40Z</time>
      </trkpt>
      <trkpt lat="47.91153" lon="-2.4663">
        <ele>67.2</ele>
        <time>2024-12-19T11:28:41Z</time>
      </trkpt>
      <trkpt lat="47.91153" lon="-2.4663">
        <ele>67.2</ele>
        <time>2024-12-19T11:28:42Z</time>
      </trkpt>
      <trkpt lat="47.91153" lon="-2.4663">
        <ele>67.2</ele>
        <time>2024-12-19T11:28:43Z</time>
      </trkpt>
      <trkpt lat="47.91153" lon="-2.4663">
        <ele>67.2</ele>
        <time>2024-12-19T11:28:44Z</time>
      </trkpt>
      <trkpt lat="47.91153" lon="-2.4663">
        <ele>67.2</ele>
        <time>2024-12-19T11:28:45Z</time>
      </trkpt>
      <trkpt lat="47.91153" lon="-2.4663">
        <ele>67.2</ele>
        <time>2024-12-19T11:28:46Z</time>
      </trkpt>
      <trkpt lat="47.91153" lon="-2.4663">
        <ele>67.2</ele>
        <time>2024-12-19T11:28:47Z</time>
      </trkpt>
      <trkpt lat="47.91153" lon="-2.4663">
        <ele>67.2</ele>
        <time>2024-12-19T11:28:48Z</time>
      </trkpt>
      <trkpt lat="47.91153" lon="-2.4663">
        <ele>67.2</ele>
        <time>2024-12-19T11:28:49Z</time>
      </trkpt>
      <trkpt lat="47.91153" lon="-2.4663">
        <ele>67.2</ele>
        <time>2024-12-19T11:28:50Z</time>
      </trkpt>
      <trkpt lat="47.91153" lon="-2.4663">
        <ele>67.2</ele>
        <time>2024-12-19T11:28:51Z</time>
      </trkpt>
      <trkpt lat="47.91153" lon="-2.4663">
        <ele>67.2</ele>
        <time>2024-12-19T11:28:52Z</time>
      </trkpt>
      <trkpt lat="47.91153" lon="-2.4663">
        <ele>67.2</ele>
        <time>2024-12-19T11:28:53Z</time>
      </trkpt>
      <trkpt lat="47.91153" lon="-2.4663">
        <ele>67.2</ele>
        <time>2024-12-19T11:28:54Z</time>
      </trkpt>
      <trkpt lat="47.91153" lon="-2.4663">
        <ele>67.2</ele>
        <time>2024-12-19T11:28:55Z</time>
      </trkpt>
      <trkpt lat="47.91153" lon="-2.4663">
        <ele>67.2</ele>
        <time>2024-12-19T11:28:56Z</time>
      </trkpt>
      <trkpt lat="47.91153" lon="-2.4663">
        <ele>67.2</ele>
        <time>2024-12-19T11:28:57Z</time>
      </trkpt>
      <trkpt lat="47.91153" lon="-2.4663">
        <ele>67.2</ele>
        <time>2024-12-19T11:28:58Z</time>
      </trkpt>
      <trkpt lat="47.91153" lon="-2.4663">
        <ele>67.2</ele>
        <time>2024-12-19T11:28:59Z</time>
      </trkpt>
      <trkpt lat="47.91153" lon="-2.4663">
        <ele>67.2</ele>
        <time>2024-12-19T11:29:00Z</time>
      </trkpt>
      <trkpt lat="47.91153" lon="-2.4663">
        <ele>67.2</ele>
        <time>2024-12-19T11:29:01Z</time>
      </trkpt>
      <trkpt lat="47.91153" lon="-2.4663">
        <ele>67.2</ele>
        <time>2024-12-19T11:29:02Z</time>
      </trkpt>
      <trkpt lat="47.91153" lon="-2.4663">
        <ele>67.2</ele>
        <time>2024-12-19T11:29:06Z</time>
      </trkpt>
      <trkpt lat="47.91153" lon="-2.4663">
        <ele>67.2</ele>
        <time>2024-12-19T11:29:07Z</time>
      </trkpt>
      <trkpt lat="47.91153" lon="-2.4663">
        <ele>67.2</ele>
        <time>2024-12-19T11:29:08Z</time>
      </trkpt>
      <trkpt lat="47.91153" lon="-2.4663">
        <ele>67.2</ele>
        <time>2024-12-19T11:29:09Z</time>
      </trkpt>
      <trkpt lat="47.91153" lon="-2.4663">
        <ele>67.2</ele>
        <time>2024-12-19T11:29:10Z</time>
      </trkpt>
      <trkpt lat="47.91153" lon="-2.4663">
        <ele>67.2</ele>
        <time>2024-12-19T11:29:11Z</time>
      </trkpt>
      <trkpt lat="47.91153" lon="-2.4663">
        <ele>67.2</ele>
        <time>2024-12-19T11:29:12Z</time>
      </trkpt>
      <trkpt lat="47.91153" lon="-2.4663">
        <ele>67.2</ele>
        <time>2024-12-19T11:29:13Z</time>
      </trkpt>
      <trkpt lat="47.91153" lon="-2.4663">
        <ele>67.2</ele>
        <time>2024-12-19T11:29:14Z</time>
      </trkpt>
      <trkpt lat="47.91153" lon="-2.4663">
        <ele>67.2</ele>
        <time>2024-12-19T11:29:15Z</time>
      </trkpt>
      <trkpt lat="47.91153" lon="-2.4663">
        <ele>67.2</ele>
        <time>2024-12-19T11:29:16Z</time>
      </trkpt>
      <trkpt lat="47.91153" lon="-2.4663">
        <ele>67.2</ele>
        <time>2024-12-19T11:29:17Z</time>
      </trkpt>
      <trkpt lat="47.91153" lon="-2.4663">
        <ele>67.2</ele>
        <time>2024-12-19T11:29:18Z</time>
      </trkpt>
      <trkpt lat="47.91153" lon="-2.4663">
        <ele>67.2</ele>
        <time>2024-12-19T11:29:19Z</time>
      </trkpt>
      <trkpt lat="47.91153" lon="-2.4663">
        <ele>67.2</ele>
        <time>2024-12-19T11:29:20Z</time>
      </trkpt>
      <trkpt lat="47.91153" lon="-2.4663">
        <ele>67.2</ele>
        <time>2024-12-19T11:29:21Z</time>
      </trkpt>
      <trkpt lat="47.91153" lon="-2.4663">
        <ele>67.2</ele>
        <time>2024-12-19T11:29:22Z</time>
      </trkpt>
      <trkpt lat="47.91153" lon="-2.4663">
        <ele>67.2</ele>
        <time>2024-12-19T11:29:23Z</time>
      </trkpt>
      <trkpt lat="47.91153" lon="-2.4663">
        <ele>67.2</ele>
        <time>2024-12-19T11:29:24Z</time>
      </trkpt>
      <trkpt lat="47.91153" lon="-2.4663">
        <ele>67.2</ele>
        <time>2024-12-19T11:29:25Z</time>
      </trkpt>
      <trkpt lat="47.91153" lon="-2.4663">
        <ele>67.2</ele>
        <time>2024-12-19T11:29:26Z</time>
      </trkpt>
      <trkpt lat="47.91153" lon="-2.4663">
        <ele>67.2</ele>
        <time>2024-12-19T11:29:27Z</time>
      </trkpt>
      <trkpt lat="47.91153" lon="-2.4663">
        <ele>67.2</ele>
        <time>2024-12-19T11:29:28Z</time>
      </trkpt>
      <trkpt lat="47.91153" lon="-2.4663">
        <ele>67.2</ele>
        <time>2024-12-19T11:29:29Z</time>
      </trkpt>
      <trkpt lat="47.91153" lon="-2.4663">
        <ele>67.2</ele>
        <time>2024-12-19T11:29:30Z</time>
      </trkpt>
      <trkpt lat="47.91153" lon="-2.4663">
        <ele>67.2</ele>
        <time>2024-12-19T11:29:31Z</time>
      </trkpt>
      <trkpt lat="47.91153" lon="-2.4663">
        <ele>67.2</ele>
        <time>2024-12-19T11:29:32Z</time>
      </trkpt>
      <trkpt lat="47.91153" lon="-2.4663">
        <ele>67.2</ele>
        <time>2024-12-19T11:29:33Z</time>
      </trkpt>
      <trkpt lat="47.91153" lon="-2.4663">
        <ele>67.2</ele>
        <time>2024-12-19T11:29:34Z</time>
      </trkpt>
      <trkpt lat="47.91153" lon="-2.4663">
        <ele>67.2</ele>
        <time>2024-12-19T11:29:35Z</time>
      </trkpt>
      <trkpt lat="47.91153" lon="-2.4663">
        <ele>67.2</ele>
        <time>2024-12-19T11:29:36Z</time>
      </trkpt>
      <trkpt lat="47.91153" lon="-2.4663">
        <ele>67.2</ele>
        <time>2024-12-19T11:29:37Z</time>
      </trkpt>
      <trkpt lat="47.91153" lon="-2.4663">
        <ele>67.2</ele>
        <time>2024-12-19T11:29:38Z</time>
      </trkpt>
      <trkpt lat="47.91153" lon="-2.46629">
        <ele>67.2</ele>
        <time>2024-12-19T11:29:39Z</time>
      </trkpt>
      <trkpt lat="47.91153" lon="-2.46629">
        <ele>67.2</ele>
        <time>2024-12-19T11:29:40Z</time>
      </trkpt>
      <trkpt lat="47.91153" lon="-2.46629">
        <ele>67.2</ele>
        <time>2024-12-19T11:29:41Z</time>
      </trkpt>
      <trkpt lat="47.91153" lon="-2.46629">
        <ele>67.2</ele>
        <time>2024-12-19T11:29:42Z</time>
      </trkpt>
      <trkpt lat="47.91153" lon="-2.46629">
        <ele>67.2</ele>
        <time>2024-12-19T11:29:43Z</time>
      </trkpt>
      <trkpt lat="47.91153" lon="-2.46629">
        <ele>67.2</ele>
        <time>2024-12-19T11:29:44Z</time>
      </trkpt>
      <trkpt lat="47.91153" lon="-2.46629">
        <ele>67.2</ele>
        <time>2024-12-19T11:29:45Z</time>
      </trkpt>
      <trkpt lat="47.91153" lon="-2.46629">
        <ele>67.2</ele>
        <time>2024-12-19T11:29:46Z</time>
      </trkpt>
      <trkpt lat="47.91153" lon="-2.46629">
        <ele>67.2</ele>
        <time>2024-12-19T11:29:47Z</time>
      </trkpt>
      <trkpt lat="47.91153" lon="-2.46629">
        <ele>67.2</ele>
        <time>2024-12-19T11:29:48Z</time>
      </trkpt>
      <trkpt lat="47.91153" lon="-2.46629">
        <ele>67.2</ele>
        <time>2024-12-19T11:29:49Z</time>
      </trkpt>
      <trkpt lat="47.91153" lon="-2.46629">
        <ele>67.2</ele>
        <time>2024-12-19T11:29:50Z</time>
      </trkpt>
      <trkpt lat="47.91153" lon="-2.46629">
        <ele>67.2</ele>
        <time>2024-12-19T11:29:51Z</time>
      </trkpt>
      <trkpt lat="47.91153" lon="-2.46629">
        <ele>67.2</ele>
        <time>2024-12-19T11:29:52Z</time>
      </trkpt>
      <trkpt lat="47.91153" lon="-2.46629">
        <ele>67.2</ele>
        <time>2024-12-19T11:29:53Z</time>
      </trkpt>
      <trkpt lat="47.91153" lon="-2.46629">
        <ele>67.2</ele>
        <time>2024-12-19T11:29:54Z</time>
      </trkpt>
      <trkpt lat="47.91153" lon="-2.46629">
        <ele>67.2</ele>
        <time>2024-12-19T11:29:55Z</time>
      </trkpt>
      <trkpt lat="47.91153" lon="-2.46629">
        <ele>67.2</ele>
        <time>2024-12-19T11:29:56Z</time>
      </trkpt>
      <trkpt lat="47.91153" lon="-2.46629">
        <ele>67.2</ele>
        <time>2024-12-19T11:29:57Z</time>
      </trkpt>
      <trkpt lat="47.91153" lon="-2.46629">
        <ele>67.2</ele>
        <time>2024-12-19T11:29:58Z</time>
      </trkpt>
      <trkpt lat="47.91153" lon="-2.46629">
        <ele>67.2</ele>
        <time>2024-12-19T11:29:59Z</time>
      </trkpt>
      <trkpt lat="47.91153" lon="-2.46629">
        <ele>67.2</ele>
        <time>2024-12-19T11:30:00Z</time>
      </trkpt>
      <trkpt lat="47.91153" lon="-2.46629">
        <ele>67.2</ele>
        <time>2024-12-19T11:30:01Z</time>
      </trkpt>
      <trkpt lat="47.91153" lon="-2.46629">
        <ele>67.2</ele>
        <time>2024-12-19T11:30:02Z</time>
      </trkpt>
      <trkpt lat="47.91153" lon="-2.46629">
        <ele>67.2</ele>
        <time>2024-12-19T11:30:03Z</time>
      </trkpt>
      <trkpt lat="47.91153" lon="-2.46629">
        <ele>67.2</ele>
        <time>2024-12-19T11:30:04Z</time>
      </trkpt>
      <trkpt lat="47.91153" lon="-2.46629">
        <ele>67.2</ele>
        <time>2024-12-19T11:30:05Z</time>
      </trkpt>
      <trkpt lat="47.91153" lon="-2.46629">
        <ele>67.2</ele>
        <time>2024-12-19T11:30:06Z</time>
      </trkpt>
      <trkpt lat="47.91153" lon="-2.46629">
        <ele>67.2</ele>
        <time>2024-12-19T11:30:07Z</time>
      </trkpt>
      <trkpt lat="47.91153" lon="-2.46629">
        <ele>67.2</ele>
        <time>2024-12-19T11:30:08Z</time>
      </trkpt>
      <trkpt lat="47.91153" lon="-2.46629">
        <ele>67.2</ele>
        <time>2024-12-19T11:30:09Z</time>
      </trkpt>
      <trkpt lat="47.91153" lon="-2.46629">
        <ele>67.2</ele>
        <time>2024-12-19T11:30:10Z</time>
      </trkpt>
      <trkpt lat="47.91153" lon="-2.46629">
        <ele>67.2</ele>
        <time>2024-12-19T11:30:11Z</time>
      </trkpt>
      <trkpt lat="47.91153" lon="-2.46629">
        <ele>67.2</ele>
        <time>2024-12-19T11:30:12Z</time>
      </trkpt>
      <trkpt lat="47.91153" lon="-2.46629">
        <ele>67.2</ele>
        <time>2024-12-19T11:30:13Z</time>
      </trkpt>
      <trkpt lat="47.91153" lon="-2.46629">
        <ele>67.2</ele>
        <time>2024-12-19T11:30:14Z</time>
      </trkpt>
      <trkpt lat="47.91153" lon="-2.46629">
        <ele>67.2</ele>
        <time>2024-12-19T11:30:15Z</time>
      </trkpt>
      <trkpt lat="47.91153" lon="-2.46629">
        <ele>67.2</ele>
        <time>2024-12-19T11:30:16Z</time>
      </trkpt>
      <trkpt lat="47.91153" lon="-2.46629">
        <ele>67.2</ele>
        <time>2024-12-19T11:30:17Z</time>
      </trkpt>
      <trkpt lat="47.91153" lon="-2.46629">
        <ele>67.2</ele>
        <time>2024-12-19T11:30:18Z</time>
      </trkpt>
      <trkpt lat="47.91153" lon="-2.46629">
        <ele>67.2</ele>
        <time>2024-12-19T11:30:19Z</time>
      </trkpt>
      <trkpt lat="47.91153" lon="-2.46629">
        <ele>67.2</ele>
        <time>2024-12-19T11:30:20Z</time>
      </trkpt>
      <trkpt lat="47.91153" lon="-2.46629">
        <ele>67.2</ele>
        <time>2024-12-19T11:30:21Z</time>
      </trkpt>
      <trkpt lat="47.91153" lon="-2.46629">
        <ele>67.2</ele>
        <time>2024-12-19T11:30:22Z</time>
      </trkpt>
      <trkpt lat="47.91153" lon="-2.46629">
        <ele>67.2</ele>
        <time>2024-12-19T11:30:23Z</time>
      </trkpt>
      <trkpt lat="47.91153" lon="-2.46629">
        <ele>67.2</ele>
        <time>2024-12-19T11:30:24Z</time>
      </trkpt>
      <trkpt lat="47.91153" lon="-2.46629">
        <ele>67.2</ele>
        <time>2024-12-19T11:30:25Z</time>
      </trkpt>
      <trkpt lat="47.91153" lon="-2.46629">
        <ele>67.2</ele>
        <time>2024-12-19T11:30:26Z</time>
      </trkpt>
      <trkpt lat="47.91153" lon="-2.46629">
        <ele>67.2</ele>
        <time>2024-12-19T11:30:27Z</time>
      </trkpt>
      <trkpt lat="47.91153" lon="-2.46629">
        <ele>67.2</ele>
        <time>2024-12-19T11:30:28Z</time>
      </trkpt>
      <trkpt lat="47.91153" lon="-2.46629">
        <ele>67.2</ele>
        <time>2024-12-19T11:30:29Z</time>
      </trkpt>
      <trkpt lat="47.91153" lon="-2.46629">
        <ele>67.2</ele>
        <time>2024-12-19T11:30:30Z</time>
      </trkpt>
      <trkpt lat="47.91153" lon="-2.46629">
        <ele>67.2</ele>
        <time>2024-12-19T11:30:31Z</time>
      </trkpt>
      <trkpt lat="47.91153" lon="-2.46629">
        <ele>67.2</ele>
        <time>2024-12-19T11:30:32Z</time>
      </trkpt>
      <trkpt lat="47.91153" lon="-2.46629">
        <ele>67.2</ele>
        <time>2024-12-19T11:30:33Z</time>
      </trkpt>
      <trkpt lat="47.91153" lon="-2.46629">
        <ele>67.2</ele>
        <time>2024-12-19T11:30:34Z</time>
      </trkpt>
      <trkpt lat="47.91153" lon="-2.46629">
        <ele>67.2</ele>
        <time>2024-12-19T11:30:35Z</time>
      </trkpt>
      <trkpt lat="47.91153" lon="-2.46629">
        <ele>67.2</ele>
        <time>2024-12-19T11:30:36Z</time>
      </trkpt>
      <trkpt lat="47.91153" lon="-2.46629">
        <ele>67.2</ele>
        <time>2024-12-19T11:30:37Z</time>
      </trkpt>
      <trkpt lat="47.91153" lon="-2.46629">
        <ele>67.2</ele>
        <time>2024-12-19T11:30:38Z</time>
      </trkpt>
      <trkpt lat="47.91153" lon="-2.46629">
        <ele>67.2</ele>
        <time>2024-12-19T11:30:40Z</time>
      </trkpt>
      <trkpt lat="47.91153" lon="-2.46629">
        <ele>67.2</ele>
        <time>2024-12-19T11:30:41Z</time>
      </trkpt>
      <trkpt lat="47.91153" lon="-2.46629">
        <ele>67.2</ele>
        <time>2024-12-19T11:30:42Z</time>
      </trkpt>
      <trkpt lat="47.91153" lon="-2.46629">
        <ele>67.2</ele>
        <time>2024-12-19T11:30:43Z</time>
      </trkpt>
      <trkpt lat="47.91153" lon="-2.46629">
        <ele>67.2</ele>
        <time>2024-12-19T11:30:44Z</time>
      </trkpt>
      <trkpt lat="47.91153" lon="-2.46629">
        <ele>67.2</ele>
        <time>2024-12-19T11:30:45Z</time>
      </trkpt>
      <trkpt lat="47.91153" lon="-2.46629">
        <ele>67.2</ele>
        <time>2024-12-19T11:30:46Z</time>
      </trkpt>
      <trkpt lat="47.91153" lon="-2.46629">
        <ele>67.2</ele>
        <time>2024-12-19T11:30:47Z</time>
      </trkpt>
      <trkpt lat="47.91153" lon="-2.46629">
        <ele>67.2</ele>
        <time>2024-12-19T11:30:48Z</time>
      </trkpt>
      <trkpt lat="47.91153" lon="-2.46629">
        <ele>67.2</ele>
        <time>2024-12-19T11:30:49Z</time>
      </trkpt>
      <trkpt lat="47.91153" lon="-2.46629">
        <ele>67.2</ele>
        <time>2024-12-19T11:30:50Z</time>
      </trkpt>
      <trkpt lat="47.91153" lon="-2.46629">
        <ele>67.2</ele>
        <time>2024-12-19T11:30:51Z</time>
      </trkpt>
      <trkpt lat="47.91153" lon="-2.46629">
        <ele>67.2</ele>
        <time>2024-12-19T11:30:52Z</time>
      </trkpt>
      <trkpt lat="47.91153" lon="-2.46629">
        <ele>67.2</ele>
        <time>2024-12-19T11:30:53Z</time>
      </trkpt>
      <trkpt lat="47.91153" lon="-2.46629">
        <ele>67.2</ele>
        <time>2024-12-19T11:30:54Z</time>
      </trkpt>
      <trkpt lat="47.91153" lon="-2.46629">
        <ele>67.2</ele>
        <time>2024-12-19T11:30:55Z</time>
      </trkpt>
      <trkpt lat="47.91153" lon="-2.46629">
        <ele>67.2</ele>
        <time>2024-12-19T11:30:56Z</time>
      </trkpt>
      <trkpt lat="47.91153" lon="-2.46629">
        <ele>67.2</ele>
        <time>2024-12-19T11:30:57Z</time>
      </trkpt>
      <trkpt lat="47.91153" lon="-2.46629">
        <ele>67.2</ele>
        <time>2024-12-19T11:30:58Z</time>
      </trkpt>
      <trkpt lat="47.91153" lon="-2.46629">
        <ele>67.2</ele>
        <time>2024-12-19T11:30:59Z</time>
      </trkpt>
      <trkpt lat="47.91153" lon="-2.46629">
        <ele>67.2</ele>
        <time>2024-12-19T11:31:00Z</time>
      </trkpt>
      <trkpt lat="47.91153" lon="-2.46629">
        <ele>67.2</ele>
        <time>2024-12-19T11:31:01Z</time>
      </trkpt>
      <trkpt lat="47.91153" lon="-2.46629">
        <ele>67.2</ele>
        <time>2024-12-19T11:31:02Z</time>
      </trkpt>
      <trkpt lat="47.91153" lon="-2.46629">
        <ele>67.2</ele>
        <time>2024-12-19T11:31:03Z</time>
      </trkpt>
      <trkpt lat="47.91153" lon="-2.46629">
        <ele>67.2</ele>
        <time>2024-12-19T11:31:04Z</time>
      </trkpt>
      <trkpt lat="47.91153" lon="-2.46629">
        <ele>67.2</ele>
        <time>2024-12-19T11:31:05Z</time>
      </trkpt>
      <trkpt lat="47.91153" lon="-2.46629">
        <ele>67.2</ele>
        <time>2024-12-19T11:31:06Z</time>
      </trkpt>
      <trkpt lat="47.91153" lon="-2.46629">
        <ele>67.2</ele>
        <time>2024-12-19T11:31:07Z</time>
      </trkpt>
      <trkpt lat="47.91153" lon="-2.46629">
        <ele>67.2</ele>
        <time>2024-12-19T11:31:08Z</time>
      </trkpt>
      <trkpt lat="47.91153" lon="-2.46629">
        <ele>67.2</ele>
        <time>2024-12-19T11:31:09Z</time>
      </trkpt>
      <trkpt lat="47.91153" lon="-2.46629">
        <ele>67.2</ele>
        <time>2024-12-19T11:31:10Z</time>
      </trkpt>
      <trkpt lat="47.91153" lon="-2.46629">
        <ele>67.2</ele>
        <time>2024-12-19T11:31:11Z</time>
      </trkpt>
      <trkpt lat="47.91153" lon="-2.46629">
        <ele>67.2</ele>
        <time>2024-12-19T11:31:12Z</time>
      </trkpt>
      <trkpt lat="47.91153" lon="-2.46629">
        <ele>67.2</ele>
        <time>2024-12-19T11:31:13Z</time>
      </trkpt>
      <trkpt lat="47.91153" lon="-2.46629">
        <ele>67.2</ele>
        <time>2024-12-19T11:31:14Z</time>
      </trkpt>
      <trkpt lat="47.91153" lon="-2.46629">
        <ele>67.2</ele>
        <time>2024-12-19T11:31:15Z</time>
      </trkpt>
      <trkpt lat="47.91153" lon="-2.46629">
        <ele>67.2</ele>
        <time>2024-12-19T11:31:16Z</time>
      </trkpt>
      <trkpt lat="47.91153" lon="-2.46629">
        <ele>67.2</ele>
        <time>2024-12-19T11:31:17Z</time>
      </trkpt>
      <trkpt lat="47.91153" lon="-2.46629">
        <ele>67.2</ele>
        <time>2024-12-19T11:31:18Z</time>
      </trkpt>
      <trkpt lat="47.91153" lon="-2.46629">
        <ele>67.2</ele>
        <time>2024-12-19T11:31:19Z</time>
      </trkpt>
      <trkpt lat="47.91153" lon="-2.46629">
        <ele>67.2</ele>
        <time>2024-12-19T11:31:20Z</time>
      </trkpt>
      <trkpt lat="47.91153" lon="-2.46629">
        <ele>67.2</ele>
        <time>2024-12-19T11:31:21Z</time>
      </trkpt>
      <trkpt lat="47.91153" lon="-2.46629">
        <ele>67.2</ele>
        <time>2024-12-19T11:31:22Z</time>
      </trkpt>
      <trkpt lat="47.91153" lon="-2.46629">
        <ele>67.2</ele>
        <time>2024-12-19T11:31:23Z</time>
      </trkpt>
      <trkpt lat="47.91153" lon="-2.46629">
        <ele>67.2</ele>
        <time>2024-12-19T11:31:24Z</time>
      </trkpt>
      <trkpt lat="47.91153" lon="-2.46629">
        <ele>67.2</ele>
        <time>2024-12-19T11:31:25Z</time>
      </trkpt>
      <trkpt lat="47.91153" lon="-2.46629">
        <ele>67.2</ele>
        <time>2024-12-19T11:31:26Z</time>
      </trkpt>
      <trkpt lat="47.91153" lon="-2.46629">
        <ele>67.2</ele>
        <time>2024-12-19T11:31:27Z</time>
      </trkpt>
      <trkpt lat="47.91153" lon="-2.46629">
        <ele>67.2</ele>
        <time>2024-12-19T11:31:28Z</time>
      </trkpt>
      <trkpt lat="47.91153" lon="-2.46629">
        <ele>67.2</ele>
        <time>2024-12-19T11:31:29Z</time>
      </trkpt>
      <trkpt lat="47.91153" lon="-2.46629">
        <ele>67.2</ele>
        <time>2024-12-19T11:31:30Z</time>
      </trkpt>
      <trkpt lat="47.91153" lon="-2.46629">
        <ele>67.2</ele>
        <time>2024-12-19T11:31:31Z</time>
      </trkpt>
      <trkpt lat="47.91153" lon="-2.46629">
        <ele>67.2</ele>
        <time>2024-12-19T11:31:32Z</time>
      </trkpt>
      <trkpt lat="47.91153" lon="-2.46629">
        <ele>67.2</ele>
        <time>2024-12-19T11:31:33Z</time>
      </trkpt>
      <trkpt lat="47.91153" lon="-2.46629">
        <ele>67.2</ele>
        <time>2024-12-19T11:31:34Z</time>
      </trkpt>
      <trkpt lat="47.91153" lon="-2.46629">
        <ele>67.2</ele>
        <time>2024-12-19T11:31:35Z</time>
      </trkpt>
      <trkpt lat="47.91153" lon="-2.46629">
        <ele>67.2</ele>
        <time>2024-12-19T11:31:36Z</time>
      </trkpt>
      <trkpt lat="47.91153" lon="-2.46629">
        <ele>67.2</ele>
        <time>2024-12-19T11:31:37Z</time>
      </trkpt>
      <trkpt lat="47.91153" lon="-2.46629">
        <ele>67.2</ele>
        <time>2024-12-19T11:31:38Z</time>
      </trkpt>
      <trkpt lat="47.91153" lon="-2.46629">
        <ele>67.2</ele>
        <time>2024-12-19T11:31:39Z</time>
      </trkpt>
      <trkpt lat="47.91153" lon="-2.46629">
        <ele>67.2</ele>
        <time>2024-12-19T11:31:40Z</time>
      </trkpt>
      <trkpt lat="47.91153" lon="-2.46629">
        <ele>67.2</ele>
        <time>2024-12-19T11:31:41Z</time>
      </trkpt>
      <trkpt lat="47.91153" lon="-2.46629">
        <ele>67.2</ele>
        <time>2024-12-19T11:31:42Z</time>
      </trkpt>
      <trkpt lat="47.91153" lon="-2.46629">
        <ele>67.2</ele>
        <time>2024-12-19T11:31:43Z</time>
      </trkpt>
      <trkpt lat="47.91153" lon="-2.46629">
        <ele>67.2</ele>
        <time>2024-12-19T11:31:44Z</time>
      </trkpt>
      <trkpt lat="47.91153" lon="-2.46629">
        <ele>67.2</ele>
        <time>2024-12-19T11:31:45Z</time>
      </trkpt>
      <trkpt lat="47.91153" lon="-2.46629">
        <ele>67.2</ele>
        <time>2024-12-19T11:31:46Z</time>
      </trkpt>
      <trkpt lat="47.91153" lon="-2.46629">
        <ele>67.2</ele>
        <time>2024-12-19T11:31:47Z</time>
      </trkpt>
      <trkpt lat="47.91153" lon="-2.46629">
        <ele>67.2</ele>
        <time>2024-12-19T11:31:48Z</time>
      </trkpt>
      <trkpt lat="47.91153" lon="-2.46629">
        <ele>67.2</ele>
        <time>2024-12-19T11:31:49Z</time>
      </trkpt>
      <trkpt lat="47.91153" lon="-2.46629">
        <ele>67.2</ele>
        <time>2024-12-19T11:31:50Z</time>
      </trkpt>
      <trkpt lat="47.91153" lon="-2.46629">
        <ele>67.2</ele>
        <time>2024-12-19T11:31:51Z</time>
      </trkpt>
      <trkpt lat="47.91153" lon="-2.46629">
        <ele>67.2</ele>
        <time>2024-12-19T11:31:52Z</time>
      </trkpt>
      <trkpt lat="47.91153" lon="-2.46629">
        <ele>67.2</ele>
        <time>2024-12-19T11:31:53Z</time>
      </trkpt>
      <trkpt lat="47.91153" lon="-2.46629">
        <ele>67.2</ele>
        <time>2024-12-19T11:31:54Z</time>
      </trkpt>
      <trkpt lat="47.91153" lon="-2.46629">
        <ele>67.2</ele>
        <time>2024-12-19T11:31:55Z</time>
      </trkpt>
      <trkpt lat="47.91153" lon="-2.46629">
        <ele>67.2</ele>
        <time>2024-12-19T11:31:56Z</time>
      </trkpt>
      <trkpt lat="47.91153" lon="-2.46629">
        <ele>67.2</ele>
        <time>2024-12-19T11:31:57Z</time>
      </trkpt>
      <trkpt lat="47.91153" lon="-2.46629">
        <ele>67.2</ele>
        <time>2024-12-19T11:31:58Z</time>
      </trkpt>
      <trkpt lat="47.91153" lon="-2.46629">
        <ele>67.2</ele>
        <time>2024-12-19T11:31:59Z</time>
      </trkpt>
      <trkpt lat="47.91153" lon="-2.46629">
        <ele>67.2</ele>
        <time>2024-12-19T11:32:00Z</time>
      </trkpt>
      <trkpt lat="47.91153" lon="-2.46629">
        <ele>67.2</ele>
        <time>2024-12-19T11:32:01Z</time>
      </trkpt>
      <trkpt lat="47.91153" lon="-2.46629">
        <ele>67.2</ele>
        <time>2024-12-19T11:32:02Z</time>
      </trkpt>
      <trkpt lat="47.91153" lon="-2.46629">
        <ele>67.2</ele>
        <time>2024-12-19T11:32:03Z</time>
      </trkpt>
      <trkpt lat="47.91153" lon="-2.46629">
        <ele>67.2</ele>
        <time>2024-12-19T11:32:04Z</time>
      </trkpt>
      <trkpt lat="47.91153" lon="-2.46629">
        <ele>67.2</ele>
        <time>2024-12-19T11:32:05Z</time>
      </trkpt>
      <trkpt lat="47.91153" lon="-2.46629">
        <ele>67.2</ele>
        <time>2024-12-19T11:32:06Z</time>
      </trkpt>
      <trkpt lat="47.91153" lon="-2.46629">
        <ele>67.2</ele>
        <time>2024-12-19T11:32:07Z</time>
      </trkpt>
      <trkpt lat="47.91153" lon="-2.46629">
        <ele>67.2</ele>
        <time>2024-12-19T11:32:08Z</time>
      </trkpt>
      <trkpt lat="47.91153" lon="-2.46629">
        <ele>67.2</ele>
        <time>2024-12-19T11:32:09Z</time>
      </trkpt>
      <trkpt lat="47.91153" lon="-2.46629">
        <ele>67.2</ele>
        <time>2024-12-19T11:32:10Z</time>
      </trkpt>
      <trkpt lat="47.91153" lon="-2.46629">
        <ele>67.2</ele>
        <time>2024-12-19T11:32:11Z</time>
      </trkpt>
      <trkpt lat="47.91153" lon="-2.46629">
        <ele>67.2</ele>
        <time>2024-12-19T11:32:12Z</time>
      </trkpt>
      <trkpt lat="47.91153" lon="-2.46629">
        <ele>67.2</ele>
        <time>2024-12-19T11:32:13Z</time>
      </trkpt>
      <trkpt lat="47.91153" lon="-2.46629">
        <ele>67.2</ele>
        <time>2024-12-19T11:32:14Z</time>
      </trkpt>
      <trkpt lat="47.91153" lon="-2.46629">
        <ele>67.2</ele>
        <time>2024-12-19T11:32:15Z</time>
      </trkpt>
      <trkpt lat="47.91153" lon="-2.46629">
        <ele>67.2</ele>
        <time>2024-12-19T11:32:16Z</time>
      </trkpt>
      <trkpt lat="47.91153" lon="-2.46629">
        <ele>67.2</ele>
        <time>2024-12-19T11:32:17Z</time>
      </trkpt>
      <trkpt lat="47.91153" lon="-2.46629">
        <ele>67.2</ele>
        <time>2024-12-19T11:32:18Z</time>
      </trkpt>
      <trkpt lat="47.91153" lon="-2.46629">
        <ele>67.2</ele>
        <time>2024-12-19T11:32:19Z</time>
      </trkpt>
      <trkpt lat="47.91153" lon="-2.46629">
        <ele>67.2</ele>
        <time>2024-12-19T11:32:20Z</time>
      </trkpt>
      <trkpt lat="47.91153" lon="-2.46629">
        <ele>67.2</ele>
        <time>2024-12-19T11:32:21Z</time>
      </trkpt>
      <trkpt lat="47.91153" lon="-2.46629">
        <ele>67.2</ele>
        <time>2024-12-19T11:32:22Z</time>
      </trkpt>
      <trkpt lat="47.91153" lon="-2.46629">
        <ele>67.2</ele>
        <time>2024-12-19T11:32:23Z</time>
      </trkpt>
      <trkpt lat="47.91153" lon="-2.46629">
        <ele>67.2</ele>
        <time>2024-12-19T11:32:24Z</time>
      </trkpt>
      <trkpt lat="47.91153" lon="-2.46629">
        <ele>67.2</ele>
        <time>2024-12-19T11:32:25Z</time>
      </trkpt>
      <trkpt lat="47.91153" lon="-2.46629">
        <ele>67.2</ele>
        <time>2024-12-19T11:32:26Z</time>
      </trkpt>
      <trkpt lat="47.91153" lon="-2.46629">
        <ele>67.2</ele>
        <time>2024-12-19T11:32:27Z</time>
      </trkpt>
      <trkpt lat="47.91153" lon="-2.46629">
        <ele>67.2</ele>
        <time>2024-12-19T11:32:28Z</time>
      </trkpt>
      <trkpt lat="47.91153" lon="-2.46629">
        <ele>67.2</ele>
        <time>2024-12-19T11:32:29Z</time>
      </trkpt>
      <trkpt lat="47.91153" lon="-2.46629">
        <ele>67.2</ele>
        <time>2024-12-19T11:32:30Z</time>
      </trkpt>
      <trkpt lat="47.91153" lon="-2.46629">
        <ele>67.2</ele>
        <time>2024-12-19T11:32:31Z</time>
      </trkpt>
      <trkpt lat="47.91153" lon="-2.46629">
        <ele>67.2</ele>
        <time>2024-12-19T11:32:32Z</time>
      </trkpt>
      <trkpt lat="47.91153" lon="-2.46629">
        <ele>67.2</ele>
        <time>2024-12-19T11:32:33Z</time>
      </trkpt>
      <trkpt lat="47.91153" lon="-2.46629">
        <ele>67.2</ele>
        <time>2024-12-19T11:32:34Z</time>
      </trkpt>
      <trkpt lat="47.91153" lon="-2.46629">
        <ele>67.2</ele>
        <time>2024-12-19T11:32:35Z</time>
      </trkpt>
      <trkpt lat="47.91153" lon="-2.46629">
        <ele>67.2</ele>
        <time>2024-12-19T11:32:36Z</time>
      </trkpt>
      <trkpt lat="47.91153" lon="-2.46629">
        <ele>67.2</ele>
        <time>2024-12-19T11:32:37Z</time>
      </trkpt>
      <trkpt lat="47.91153" lon="-2.46629">
        <ele>67.2</ele>
        <time>2024-12-19T11:32:38Z</time>
      </trkpt>
      <trkpt lat="47.91153" lon="-2.46629">
        <ele>67.2</ele>
        <time>2024-12-19T11:32:39Z</time>
      </trkpt>
      <trkpt lat="47.91153" lon="-2.46629">
        <ele>67.2</ele>
        <time>2024-12-19T11:32:40Z</time>
      </trkpt>
      <trkpt lat="47.91153" lon="-2.46629">
        <ele>67.2</ele>
        <time>2024-12-19T11:32:41Z</time>
      </trkpt>
      <trkpt lat="47.91153" lon="-2.46629">
        <ele>67.2</ele>
        <time>2024-12-19T11:32:42Z</time>
      </trkpt>
      <trkpt lat="47.91153" lon="-2.46629">
        <ele>67.2</ele>
        <time>2024-12-19T11:32:43Z</time>
      </trkpt>
      <trkpt lat="47.91153" lon="-2.46629">
        <ele>67.2</ele>
        <time>2024-12-19T11:32:44Z</time>
      </trkpt>
      <trkpt lat="47.91153" lon="-2.46629">
        <ele>67.2</ele>
        <time>2024-12-19T11:32:45Z</time>
      </trkpt>
      <trkpt lat="47.91153" lon="-2.46629">
        <ele>67.2</ele>
        <time>2024-12-19T11:32:46Z</time>
      </trkpt>
      <trkpt lat="47.91153" lon="-2.46629">
        <ele>67.2</ele>
        <time>2024-12-19T11:32:47Z</time>
      </trkpt>
      <trkpt lat="47.91153" lon="-2.46629">
        <ele>67.2</ele>
        <time>2024-12-19T11:32:48Z</time>
      </trkpt>
      <trkpt lat="47.91153" lon="-2.46629">
        <ele>67.2</ele>
        <time>2024-12-19T11:32:49Z</time>
      </trkpt>
      <trkpt lat="47.91153" lon="-2.46629">
        <ele>67.2</ele>
        <time>2024-12-19T11:32:50Z</time>
      </trkpt>
      <trkpt lat="47.91153" lon="-2.46629">
        <ele>67.2</ele>
        <time>2024-12-19T11:32:51Z</time>
      </trkpt>
      <trkpt lat="47.91153" lon="-2.46629">
        <ele>67.2</ele>
        <time>2024-12-19T11:32:52Z</time>
      </trkpt>
      <trkpt lat="47.91153" lon="-2.46629">
        <ele>67.2</ele>
        <time>2024-12-19T11:32:53Z</time>
      </trkpt>
      <trkpt lat="47.91153" lon="-2.46629">
        <ele>67.2</ele>
        <time>2024-12-19T11:32:54Z</time>
      </trkpt>
      <trkpt lat="47.91153" lon="-2.46629">
        <ele>67.2</ele>
        <time>2024-12-19T11:32:55Z</time>
      </trkpt>
      <trkpt lat="47.91153" lon="-2.46629">
        <ele>67.2</ele>
        <time>2024-12-19T11:32:56Z</time>
      </trkpt>
      <trkpt lat="47.91153" lon="-2.46629">
        <ele>67.2</ele>
        <time>2024-12-19T11:32:57Z</time>
      </trkpt>
      <trkpt lat="47.91153" lon="-2.46629">
        <ele>67.2</ele>
        <time>2024-12-19T11:32:58Z</time>
      </trkpt>
      <trkpt lat="47.91153" lon="-2.46629">
        <ele>67.2</ele>
        <time>2024-12-19T11:32:59Z</time>
      </trkpt>
      <trkpt lat="47.91153" lon="-2.46629">
        <ele>67.2</ele>
        <time>2024-12-19T11:33:01Z</time>
      </trkpt>
      <trkpt lat="47.91153" lon="-2.46629">
        <ele>67.2</ele>
        <time>2024-12-19T11:33:02Z</time>
      </trkpt>
      <trkpt lat="47.91153" lon="-2.46629">
        <ele>67.2</ele>
        <time>2024-12-19T11:33:03Z</time>
      </trkpt>
      <trkpt lat="47.91153" lon="-2.46629">
        <ele>67.2</ele>
        <time>2024-12-19T11:33:04Z</time>
      </trkpt>
      <trkpt lat="47.91153" lon="-2.46629">
        <ele>67.2</ele>
        <time>2024-12-19T11:33:05Z</time>
      </trkpt>
      <trkpt lat="47.91153" lon="-2.46629">
        <ele>67.2</ele>
        <time>2024-12-19T11:33:06Z</time>
      </trkpt>
      <trkpt lat="47.91153" lon="-2.46629">
        <ele>67.2</ele>
        <time>2024-12-19T11:33:07Z</time>
      </trkpt>
      <trkpt lat="47.91153" lon="-2.46629">
        <ele>67.2</ele>
        <time>2024-12-19T11:33:08Z</time>
      </trkpt>
      <trkpt lat="47.91153" lon="-2.46629">
        <ele>67.2</ele>
        <time>2024-12-19T11:33:09Z</time>
      </trkpt>
      <trkpt lat="47.91153" lon="-2.46629">
        <ele>67.2</ele>
        <time>2024-12-19T11:33:10Z</time>
      </trkpt>
      <trkpt lat="47.91153" lon="-2.46629">
        <ele>67.2</ele>
        <time>2024-12-19T11:33:11Z</time>
      </trkpt>
      <trkpt lat="47.91153" lon="-2.46629">
        <ele>67.2</ele>
        <time>2024-12-19T11:33:12Z</time>
      </trkpt>
      <trkpt lat="47.91153" lon="-2.46629">
        <ele>67.2</ele>
        <time>2024-12-19T11:33:13Z</time>
      </trkpt>
      <trkpt lat="47.91153" lon="-2.46629">
        <ele>67.2</ele>
        <time>2024-12-19T11:33:14Z</time>
      </trkpt>
      <trkpt lat="47.91153" lon="-2.46629">
        <ele>67.2</ele>
        <time>2024-12-19T11:33:15Z</time>
      </trkpt>
      <trkpt lat="47.91153" lon="-2.46629">
        <ele>67.2</ele>
        <time>2024-12-19T11:33:16Z</time>
      </trkpt>
      <trkpt lat="47.91153" lon="-2.46629">
        <ele>67.2</ele>
        <time>2024-12-19T11:33:17Z</time>
      </trkpt>
      <trkpt lat="47.91153" lon="-2.46629">
        <ele>67.2</ele>
        <time>2024-12-19T11:33:18Z</time>
      </trkpt>
      <trkpt lat="47.91153" lon="-2.46629">
        <ele>67.2</ele>
        <time>2024-12-19T11:33:19Z</time>
      </trkpt>
      <trkpt lat="47.91153" lon="-2.46629">
        <ele>67.2</ele>
        <time>2024-12-19T11:33:20Z</time>
      </trkpt>
      <trkpt lat="47.91153" lon="-2.46629">
        <ele>67.2</ele>
        <time>2024-12-19T11:33:21Z</time>
      </trkpt>
      <trkpt lat="47.91153" lon="-2.46629">
        <ele>67.2</ele>
        <time>2024-12-19T11:33:22Z</time>
      </trkpt>
      <trkpt lat="47.91153" lon="-2.46629">
        <ele>67.2</ele>
        <time>2024-12-19T11:33:23Z</time>
      </trkpt>
      <trkpt lat="47.91153" lon="-2.46629">
        <ele>67.2</ele>
        <time>2024-12-19T11:33:24Z</time>
      </trkpt>
      <trkpt lat="47.91153" lon="-2.46629">
        <ele>67.2</ele>
        <time>2024-12-19T11:33:25Z</time>
      </trkpt>
      <trkpt lat="47.91153" lon="-2.46629">
        <ele>67.2</ele>
        <time>2024-12-19T11:33:26Z</time>
      </trkpt>
      <trkpt lat="47.91153" lon="-2.46629">
        <ele>67.2</ele>
        <time>2024-12-19T11:33:27Z</time>
      </trkpt>
      <trkpt lat="47.91153" lon="-2.46629">
        <ele>67.2</ele>
        <time>2024-12-19T11:33:28Z</time>
      </trkpt>
      <trkpt lat="47.91153" lon="-2.46629">
        <ele>67.2</ele>
        <time>2024-12-19T11:33:29Z</time>
      </trkpt>
      <trkpt lat="47.91153" lon="-2.46629">
        <ele>67.2</ele>
        <time>2024-12-19T11:33:30Z</time>
      </trkpt>
      <trkpt lat="47.91153" lon="-2.46629">
        <ele>67.2</ele>
        <time>2024-12-19T11:33:31Z</time>
      </trkpt>
      <trkpt lat="47.91153" lon="-2.46629">
        <ele>67.2</ele>
        <time>2024-12-19T11:33:32Z</time>
      </trkpt>
      <trkpt lat="47.91153" lon="-2.46629">
        <ele>67.2</ele>
        <time>2024-12-19T11:33:33Z</time>
      </trkpt>
      <trkpt lat="47.91153" lon="-2.46629">
        <ele>67.2</ele>
        <time>2024-12-19T11:33:34Z</time>
      </trkpt>
      <trkpt lat="47.91153" lon="-2.46629">
        <ele>67.2</ele>
        <time>2024-12-19T11:33:35Z</time>
      </trkpt>
      <trkpt lat="47.91153" lon="-2.46629">
        <ele>67.2</ele>
        <time>2024-12-19T11:33:36Z</time>
      </trkpt>
      <trkpt lat="47.91153" lon="-2.46629">
        <ele>67.2</ele>
        <time>2024-12-19T11:33:37Z</time>
      </trkpt>
      <trkpt lat="47.91153" lon="-2.46629">
        <ele>67.2</ele>
        <time>2024-12-19T11:33:38Z</time>
      </trkpt>
      <trkpt lat="47.91153" lon="-2.46629">
        <ele>67.2</ele>
        <time>2024-12-19T11:33:39Z</time>
      </trkpt>
      <trkpt lat="47.91153" lon="-2.46629">
        <ele>67.2</ele>
        <time>2024-12-19T11:33:40Z</time>
      </trkpt>
      <trkpt lat="47.91153" lon="-2.46629">
        <ele>67.2</ele>
        <time>2024-12-19T11:33:41Z</time>
      </trkpt>
      <trkpt lat="47.91153" lon="-2.46629">
        <ele>67.2</ele>
        <time>2024-12-19T11:33:42Z</time>
      </trkpt>
      <trkpt lat="47.91153" lon="-2.46629">
        <ele>67.2</ele>
        <time>2024-12-19T11:33:43Z</time>
      </trkpt>
      <trkpt lat="47.91153" lon="-2.46629">
        <ele>67.2</ele>
        <time>2024-12-19T11:33:44Z</time>
      </trkpt>
      <trkpt lat="47.91153" lon="-2.46629">
        <ele>67.2</ele>
        <time>2024-12-19T11:33:45Z</time>
      </trkpt>
      <trkpt lat="47.91153" lon="-2.46629">
        <ele>67.2</ele>
        <time>2024-12-19T11:33:46Z</time>
      </trkpt>
      <trkpt lat="47.91153" lon="-2.46629">
        <ele>67.2</ele>
        <time>2024-12-19T11:33:47Z</time>
      </trkpt>
      <trkpt lat="47.91153" lon="-2.46629">
        <ele>67.2</ele>
        <time>2024-12-19T11:33:48Z</time>
      </trkpt>
      <trkpt lat="47.91153" lon="-2.46629">
        <ele>67.2</ele>
        <time>2024-12-19T11:33:49Z</time>
      </trkpt>
      <trkpt lat="47.91153" lon="-2.46629">
        <ele>67.2</ele>
        <time>2024-12-19T11:33:50Z</time>
      </trkpt>
      <trkpt lat="47.91153" lon="-2.46629">
        <ele>67.2</ele>
        <time>2024-12-19T11:33:51Z</time>
      </trkpt>
      <trkpt lat="47.91153" lon="-2.46629">
        <ele>67.2</ele>
        <time>2024-12-19T11:33:52Z</time>
      </trkpt>
      <trkpt lat="47.91153" lon="-2.46629">
        <ele>67.2</ele>
        <time>2024-12-19T11:33:53Z</time>
      </trkpt>
      <trkpt lat="47.91153" lon="-2.46629">
        <ele>67.2</ele>
        <time>2024-12-19T11:33:54Z</time>
      </trkpt>
      <trkpt lat="47.91153" lon="-2.46629">
        <ele>67.2</ele>
        <time>2024-12-19T11:33:55Z</time>
      </trkpt>
      <trkpt lat="47.91153" lon="-2.46629">
        <ele>67.2</ele>
        <time>2024-12-19T11:33:56Z</time>
      </trkpt>
      <trkpt lat="47.91153" lon="-2.46629">
        <ele>67.2</ele>
        <time>2024-12-19T11:33:57Z</time>
      </trkpt>
      <trkpt lat="47.91153" lon="-2.46629">
        <ele>67.2</ele>
        <time>2024-12-19T11:33:58Z</time>
      </trkpt>
      <trkpt lat="47.91153" lon="-2.46629">
        <ele>67.2</ele>
        <time>2024-12-19T11:33:59Z</time>
      </trkpt>
      <trkpt lat="47.91153" lon="-2.46629">
        <ele>67.2</ele>
        <time>2024-12-19T11:34:00Z</time>
      </trkpt>
      <trkpt lat="47.91153" lon="-2.46629">
        <ele>67.2</ele>
        <time>2024-12-19T11:34:01Z</time>
      </trkpt>
      <trkpt lat="47.91153" lon="-2.46629">
        <ele>67.2</ele>
        <time>2024-12-19T11:34:02Z</time>
      </trkpt>
      <trkpt lat="47.91153" lon="-2.46629">
        <ele>67.2</ele>
        <time>2024-12-19T11:34:03Z</time>
      </trkpt>
      <trkpt lat="47.91153" lon="-2.46629">
        <ele>67.2</ele>
        <time>2024-12-19T11:34:04Z</time>
      </trkpt>
      <trkpt lat="47.91153" lon="-2.46629">
        <ele>67.2</ele>
        <time>2024-12-19T11:34:05Z</time>
      </trkpt>
      <trkpt lat="47.91153" lon="-2.46629">
        <ele>67.2</ele>
        <time>2024-12-19T11:34:06Z</time>
      </trkpt>
      <trkpt lat="47.91153" lon="-2.46629">
        <ele>67.2</ele>
        <time>2024-12-19T11:34:07Z</time>
      </trkpt>
      <trkpt lat="47.91153" lon="-2.46629">
        <ele>67.2</ele>
        <time>2024-12-19T11:34:08Z</time>
      </trkpt>
      <trkpt lat="47.91153" lon="-2.46629">
        <ele>67.2</ele>
        <time>2024-12-19T11:34:09Z</time>
      </trkpt>
      <trkpt lat="47.91153" lon="-2.46629">
        <ele>67.2</ele>
        <time>2024-12-19T11:34:10Z</time>
      </trkpt>
      <trkpt lat="47.91153" lon="-2.46629">
        <ele>67.2</ele>
        <time>2024-12-19T11:34:11Z</time>
      </trkpt>
      <trkpt lat="47.91153" lon="-2.46629">
        <ele>67.2</ele>
        <time>2024-12-19T11:34:12Z</time>
      </trkpt>
      <trkpt lat="47.91153" lon="-2.46629">
        <ele>67.2</ele>
        <time>2024-12-19T11:34:13Z</time>
      </trkpt>
      <trkpt lat="47.91153" lon="-2.46629">
        <ele>67.2</ele>
        <time>2024-12-19T11:34:14Z</time>
      </trkpt>
      <trkpt lat="47.91153" lon="-2.46629">
        <ele>67.2</ele>
        <time>2024-12-19T11:34:15Z</time>
      </trkpt>
      <trkpt lat="47.91153" lon="-2.46629">
        <ele>67.2</ele>
        <time>2024-12-19T11:34:16Z</time>
      </trkpt>
      <trkpt lat="47.91153" lon="-2.46629">
        <ele>67.2</ele>
        <time>2024-12-19T11:34:17Z</time>
      </trkpt>
      <trkpt lat="47.91153" lon="-2.46629">
        <ele>67.2</ele>
        <time>2024-12-19T11:34:18Z</time>
      </trkpt>
      <trkpt lat="47.91153" lon="-2.46629">
        <ele>67.2</ele>
        <time>2024-12-19T11:34:19Z</time>
      </trkpt>
      <trkpt lat="47.91153" lon="-2.46629">
        <ele>67.2</ele>
        <time>2024-12-19T11:34:20Z</time>
      </trkpt>
      <trkpt lat="47.91153" lon="-2.46629">
        <ele>67.2</ele>
        <time>2024-12-19T11:34:21Z</time>
      </trkpt>
      <trkpt lat="47.91153" lon="-2.46629">
        <ele>67.2</ele>
        <time>2024-12-19T11:34:22Z</time>
      </trkpt>
      <trkpt lat="47.91153" lon="-2.46629">
        <ele>67.2</ele>
        <time>2024-12-19T11:34:23Z</time>
      </trkpt>
      <trkpt lat="47.91153" lon="-2.46629">
        <ele>67.2</ele>
        <time>2024-12-19T11:34:24Z</time>
      </trkpt>
      <trkpt lat="47.91153" lon="-2.46629">
        <ele>67.2</ele>
        <time>2024-12-19T11:34:25Z</time>
      </trkpt>
      <trkpt lat="47.91153" lon="-2.46629">
        <ele>67.2</ele>
        <time>2024-12-19T11:34:26Z</time>
      </trkpt>
      <trkpt lat="47.91153" lon="-2.46629">
        <ele>67.2</ele>
        <time>2024-12-19T11:34:27Z</time>
      </trkpt>
      <trkpt lat="47.91153" lon="-2.46629">
        <ele>67.2</ele>
        <time>2024-12-19T11:34:28Z</time>
      </trkpt>
      <trkpt lat="47.91153" lon="-2.46629">
        <ele>67.2</ele>
        <time>2024-12-19T11:34:29Z</time>
      </trkpt>
      <trkpt lat="47.91153" lon="-2.46629">
        <ele>67.2</ele>
        <time>2024-12-19T11:34:30Z</time>
      </trkpt>
      <trkpt lat="47.91153" lon="-2.46629">
        <ele>67.2</ele>
        <time>2024-12-19T11:34:31Z</time>
      </trkpt>
      <trkpt lat="47.91153" lon="-2.46629">
        <ele>67.2</ele>
        <time>2024-12-19T11:34:32Z</time>
      </trkpt>
      <trkpt lat="47.91153" lon="-2.46629">
        <ele>67.2</ele>
        <time>2024-12-19T11:34:33Z</time>
      </trkpt>
      <trkpt lat="47.91153" lon="-2.46629">
        <ele>67.2</ele>
        <time>2024-12-19T11:34:34Z</time>
      </trkpt>
      <trkpt lat="47.91153" lon="-2.46629">
        <ele>67.2</ele>
        <time>2024-12-19T11:34:35Z</time>
      </trkpt>
      <trkpt lat="47.91153" lon="-2.46629">
        <ele>67.2</ele>
        <time>2024-12-19T11:34:36Z</time>
      </trkpt>
      <trkpt lat="47.91153" lon="-2.46629">
        <ele>67.2</ele>
        <time>2024-12-19T11:34:37Z</time>
      </trkpt>
      <trkpt lat="47.91153" lon="-2.46629">
        <ele>67.2</ele>
        <time>2024-12-19T11:34:38Z</time>
      </trkpt>
      <trkpt lat="47.91153" lon="-2.46629">
        <ele>67.2</ele>
        <time>2024-12-19T11:34:39Z</time>
      </trkpt>
      <trkpt lat="47.91153" lon="-2.46629">
        <ele>67.2</ele>
        <time>2024-12-19T11:34:40Z</time>
      </trkpt>
      <trkpt lat="47.91153" lon="-2.46629">
        <ele>67.2</ele>
        <time>2024-12-19T11:34:41Z</time>
      </trkpt>
      <trkpt lat="47.91153" lon="-2.46629">
        <ele>67.2</ele>
        <time>2024-12-19T11:34:42Z</time>
      </trkpt>
      <trkpt lat="47.91153" lon="-2.46629">
        <ele>67.2</ele>
        <time>2024-12-19T11:34:43Z</time>
      </trkpt>
      <trkpt lat="47.91153" lon="-2.46629">
        <ele>67.2</ele>
        <time>2024-12-19T11:34:44Z</time>
      </trkpt>
      <trkpt lat="47.91153" lon="-2.46629">
        <ele>67.2</ele>
        <time>2024-12-19T11:34:45Z</time>
      </trkpt>
      <trkpt lat="47.91153" lon="-2.46629">
        <ele>67.2</ele>
        <time>2024-12-19T11:34:46Z</time>
      </trkpt>
      <trkpt lat="47.91153" lon="-2.46629">
        <ele>67.2</ele>
        <time>2024-12-19T11:34:47Z</time>
      </trkpt>
      <trkpt lat="47.91153" lon="-2.46629">
        <ele>67.2</ele>
        <time>2024-12-19T11:34:48Z</time>
      </trkpt>
      <trkpt lat="47.91153" lon="-2.46629">
        <ele>67.2</ele>
        <time>2024-12-19T11:34:49Z</time>
      </trkpt>
      <trkpt lat="47.91153" lon="-2.46629">
        <ele>67.2</ele>
        <time>2024-12-19T11:34:50Z</time>
      </trkpt>
      <trkpt lat="47.91153" lon="-2.46629">
        <ele>67.2</ele>
        <time>2024-12-19T11:34:51Z</time>
      </trkpt>
      <trkpt lat="47.91153" lon="-2.46629">
        <ele>67.2</ele>
        <time>2024-12-19T11:34:52Z</time>
      </trkpt>
      <trkpt lat="47.91153" lon="-2.46629">
        <ele>67.2</ele>
        <time>2024-12-19T11:34:53Z</time>
      </trkpt>
      <trkpt lat="47.91153" lon="-2.46629">
        <ele>67.2</ele>
        <time>2024-12-19T11:34:54Z</time>
      </trkpt>
      <trkpt lat="47.91153" lon="-2.46629">
        <ele>67.2</ele>
        <time>2024-12-19T11:34:55Z</time>
      </trkpt>
      <trkpt lat="47.91153" lon="-2.46629">
        <ele>67.2</ele>
        <time>2024-12-19T11:34:56Z</time>
      </trkpt>
      <trkpt lat="47.91153" lon="-2.46629">
        <ele>67.2</ele>
        <time>2024-12-19T11:34:57Z</time>
      </trkpt>
      <trkpt lat="47.91153" lon="-2.46629">
        <ele>67.2</ele>
        <time>2024-12-19T11:34:58Z</time>
      </trkpt>
      <trkpt lat="47.91153" lon="-2.46629">
        <ele>67.2</ele>
        <time>2024-12-19T11:34:59Z</time>
      </trkpt>
      <trkpt lat="47.91153" lon="-2.46629">
        <ele>67.2</ele>
        <time>2024-12-19T11:35:00Z</time>
      </trkpt>
      <trkpt lat="47.91153" lon="-2.46629">
        <ele>67.2</ele>
        <time>2024-12-19T11:35:01Z</time>
      </trkpt>
      <trkpt lat="47.91153" lon="-2.46629">
        <ele>67.2</ele>
        <time>2024-12-19T11:35:02Z</time>
      </trkpt>
      <trkpt lat="47.91153" lon="-2.46629">
        <ele>67.2</ele>
        <time>2024-12-19T11:35:03Z</time>
      </trkpt>
      <trkpt lat="47.91153" lon="-2.46629">
        <ele>67.2</ele>
        <time>2024-12-19T11:35:04Z</time>
      </trkpt>
      <trkpt lat="47.91153" lon="-2.46629">
        <ele>67.2</ele>
        <time>2024-12-19T11:35:05Z</time>
      </trkpt>
      <trkpt lat="47.91153" lon="-2.46629">
        <ele>67.2</ele>
        <time>2024-12-19T11:35:06Z</time>
      </trkpt>
      <trkpt lat="47.91153" lon="-2.4663">
        <ele>67.2</ele>
        <time>2024-12-19T11:35:07Z</time>
      </trkpt>
      <trkpt lat="47.91153" lon="-2.4663">
        <ele>67.2</ele>
        <time>2024-12-19T11:35:08Z</time>
      </trkpt>
      <trkpt lat="47.91153" lon="-2.4663">
        <ele>67.2</ele>
        <time>2024-12-19T11:35:09Z</time>
      </trkpt>
      <trkpt lat="47.91153" lon="-2.46629">
        <ele>67.2</ele>
        <time>2024-12-19T11:35:10Z</time>
      </trkpt>
      <trkpt lat="47.91153" lon="-2.46629">
        <ele>67.2</ele>
        <time>2024-12-19T11:35:11Z</time>
      </trkpt>
      <trkpt lat="47.91153" lon="-2.46629">
        <ele>67.2</ele>
        <time>2024-12-19T11:35:12Z</time>
      </trkpt>
      <trkpt lat="47.91153" lon="-2.4663">
        <ele>67.2</ele>
        <time>2024-12-19T11:35:13Z</time>
      </trkpt>
      <trkpt lat="47.91153" lon="-2.4663">
        <ele>67.2</ele>
        <time>2024-12-19T11:35:14Z</time>
      </trkpt>
      <trkpt lat="47.91153" lon="-2.4663">
        <ele>67.2</ele>
        <time>2024-12-19T11:35:15Z</time>
      </trkpt>
      <trkpt lat="47.91153" lon="-2.4663">
        <ele>67.2</ele>
        <time>2024-12-19T11:35:16Z</time>
      </trkpt>
      <trkpt lat="47.91153" lon="-2.4663">
        <ele>67.2</ele>
        <time>2024-12-19T11:35:17Z</time>
      </trkpt>
      <trkpt lat="47.91153" lon="-2.4663">
        <ele>67.2</ele>
        <time>2024-12-19T11:35:18Z</time>
      </trkpt>
      <trkpt lat="47.91153" lon="-2.4663">
        <ele>67.2</ele>
        <time>2024-12-19T11:35:19Z</time>
      </trkpt>
      <trkpt lat="47.91153" lon="-2.4663">
        <ele>67.2</ele>
        <time>2024-12-19T11:35:20Z</time>
      </trkpt>
      <trkpt lat="47.91153" lon="-2.4663">
        <ele>67.2</ele>
        <time>2024-12-19T11:35:21Z</time>
      </trkpt>
      <trkpt lat="47.91153" lon="-2.4663">
        <ele>67.2</ele>
        <time>2024-12-19T11:35:22Z</time>
      </trkpt>
      <trkpt lat="47.91153" lon="-2.4663">
        <ele>67.2</ele>
        <time>2024-12-19T11:35:23Z</time>
      </trkpt>
      <trkpt lat="47.91153" lon="-2.4663">
        <ele>67.2</ele>
        <time>2024-12-19T11:35:24Z</time>
      </trkpt>
      <trkpt lat="47.91153" lon="-2.4663">
        <ele>67.2</ele>
        <time>2024-12-19T11:35:25Z</time>
      </trkpt>
      <trkpt lat="47.91153" lon="-2.4663">
        <ele>67.2</ele>
        <time>2024-12-19T11:35:26Z</time>
      </trkpt>
      <trkpt lat="47.91153" lon="-2.4663">
        <ele>67.2</ele>
        <time>2024-12-19T11:35:27Z</time>
      </trkpt>
      <trkpt lat="47.91153" lon="-2.4663">
        <ele>67.2</ele>
        <time>2024-12-19T11:35:28Z</time>
      </trkpt>
      <trkpt lat="47.91153" lon="-2.4663">
        <ele>67.2</ele>
        <time>2024-12-19T11:35:29Z</time>
      </trkpt>
      <trkpt lat="47.91153" lon="-2.4663">
        <ele>67.2</ele>
        <time>2024-12-19T11:35:30Z</time>
      </trkpt>
      <trkpt lat="47.91153" lon="-2.4663">
        <ele>67.2</ele>
        <time>2024-12-19T11:35:31Z</time>
      </trkpt>
      <trkpt lat="47.91153" lon="-2.4663">
        <ele>67.2</ele>
        <time>2024-12-19T11:35:32Z</time>
      </trkpt>
      <trkpt lat="47.91153" lon="-2.4663">
        <ele>67.2</ele>
        <time>2024-12-19T11:35:33Z</time>
      </trkpt>
      <trkpt lat="47.91153" lon="-2.4663">
        <ele>67.2</ele>
        <time>2024-12-19T11:35:34Z</time>
      </trkpt>
      <trkpt lat="47.91153" lon="-2.4663">
        <ele>67.2</ele>
        <time>2024-12-19T11:35:35Z</time>
      </trkpt>
      <trkpt lat="47.91153" lon="-2.4663">
        <ele>67.2</ele>
        <time>2024-12-19T11:35:36Z</time>
      </trkpt>
      <trkpt lat="47.91153" lon="-2.4663">
        <ele>67.2</ele>
        <time>2024-12-19T11:35:37Z</time>
      </trkpt>
      <trkpt lat="47.91153" lon="-2.4663">
        <ele>67.2</ele>
        <time>2024-12-19T11:35:38Z</time>
      </trkpt>
      <trkpt lat="47.91153" lon="-2.4663">
        <ele>67.2</ele>
        <time>2024-12-19T11:35:39Z</time>
      </trkpt>
      <trkpt lat="47.91153" lon="-2.4663">
        <ele>67.2</ele>
        <time>2024-12-19T11:35:40Z</time>
      </trkpt>
      <trkpt lat="47.91153" lon="-2.4663">
        <ele>67.2</ele>
        <time>2024-12-19T11:35:41Z</time>
      </trkpt>
      <trkpt lat="47.91153" lon="-2.4663">
        <ele>67.2</ele>
        <time>2024-12-19T11:35:42Z</time>
      </trkpt>
      <trkpt lat="47.91153" lon="-2.4663">
        <ele>67.2</ele>
        <time>2024-12-19T11:35:43Z</time>
      </trkpt>
      <trkpt lat="47.91153" lon="-2.4663">
        <ele>67.2</ele>
        <time>2024-12-19T11:35:44Z</time>
      </trkpt>
      <trkpt lat="47.91153" lon="-2.4663">
        <ele>67.2</ele>
        <time>2024-12-19T11:35:45Z</time>
      </trkpt>
      <trkpt lat="47.91153" lon="-2.4663">
        <ele>67.2</ele>
        <time>2024-12-19T11:35:46Z</time>
      </trkpt>
      <trkpt lat="47.91153" lon="-2.4663">
        <ele>67.2</ele>
        <time>2024-12-19T11:35:47Z</time>
      </trkpt>
      <trkpt lat="47.91153" lon="-2.4663">
        <ele>67.2</ele>
        <time>2024-12-19T11:35:48Z</time>
      </trkpt>
      <trkpt lat="47.91153" lon="-2.4663">
        <ele>67.2</ele>
        <time>2024-12-19T11:35:49Z</time>
      </trkpt>
      <trkpt lat="47.91153" lon="-2.4663">
        <ele>67.2</ele>
        <time>2024-12-19T11:35:50Z</time>
      </trkpt>
      <trkpt lat="47.91153" lon="-2.4663">
        <ele>67.2</ele>
        <time>2024-12-19T11:35:51Z</time>
      </trkpt>
      <trkpt lat="47.91153" lon="-2.4663">
        <ele>67.2</ele>
        <time>2024-12-19T11:35:52Z</time>
      </trkpt>
      <trkpt lat="47.91153" lon="-2.4663">
        <ele>67.2</ele>
        <time>2024-12-19T11:35:53Z</time>
      </trkpt>
      <trkpt lat="47.91153" lon="-2.4663">
        <ele>67.2</ele>
        <time>2024-12-19T11:35:54Z</time>
      </trkpt>
      <trkpt lat="47.91153" lon="-2.4663">
        <ele>67.2</ele>
        <time>2024-12-19T11:35:55Z</time>
      </trkpt>
      <trkpt lat="47.91153" lon="-2.4663">
        <ele>67.2</ele>
        <time>2024-12-19T11:35:56Z</time>
      </trkpt>
      <trkpt lat="47.91153" lon="-2.4663">
        <ele>67.2</ele>
        <time>2024-12-19T11:35:57Z</time>
      </trkpt>
      <trkpt lat="47.91153" lon="-2.4663">
        <ele>67.2</ele>
        <time>2024-12-19T11:35:58Z</time>
      </trkpt>
      <trkpt lat="47.91153" lon="-2.4663">
        <ele>67.2</ele>
        <time>2024-12-19T11:35:59Z</time>
      </trkpt>
      <trkpt lat="47.91153" lon="-2.4663">
        <ele>67.2</ele>
        <time>2024-12-19T11:36:00Z</time>
      </trkpt>
      <trkpt lat="47.91153" lon="-2.4663">
        <ele>67.2</ele>
        <time>2024-12-19T11:36:01Z</time>
      </trkpt>
      <trkpt lat="47.91153" lon="-2.4663">
        <ele>67.2</ele>
        <time>2024-12-19T11:36:02Z</time>
      </trkpt>
      <trkpt lat="47.91153" lon="-2.4663">
        <ele>67.2</ele>
        <time>2024-12-19T11:36:03Z</time>
      </trkpt>
      <trkpt lat="47.91153" lon="-2.4663">
        <ele>67.2</ele>
        <time>2024-12-19T11:36:04Z</time>
      </trkpt>
      <trkpt lat="47.91153" lon="-2.4663">
        <ele>67.2</ele>
        <time>2024-12-19T11:36:05Z</time>
      </trkpt>
      <trkpt lat="47.91153" lon="-2.4663">
        <ele>67.2</ele>
        <time>2024-12-19T11:36:06Z</time>
      </trkpt>
      <trkpt lat="47.91153" lon="-2.4663">
        <ele>67.2</ele>
        <time>2024-12-19T11:36:07Z</time>
      </trkpt>
      <trkpt lat="47.91153" lon="-2.4663">
        <ele>67.2</ele>
        <time>2024-12-19T11:36:08Z</time>
      </trkpt>
      <trkpt lat="47.91153" lon="-2.4663">
        <ele>67.2</ele>
        <time>2024-12-19T11:36:09Z</time>
      </trkpt>
      <trkpt lat="47.91153" lon="-2.4663">
        <ele>67.2</ele>
        <time>2024-12-19T11:36:10Z</time>
      </trkpt>
      <trkpt lat="47.91153" lon="-2.4663">
        <ele>67.2</ele>
        <time>2024-12-19T11:36:11Z</time>
      </trkpt>
      <trkpt lat="47.91153" lon="-2.4663">
        <ele>67.2</ele>
        <time>2024-12-19T11:36:12Z</time>
      </trkpt>
      <trkpt lat="47.91153" lon="-2.4663">
        <ele>67.2</ele>
        <time>2024-12-19T11:36:13Z</time>
      </trkpt>
      <trkpt lat="47.91153" lon="-2.4663">
        <ele>67.2</ele>
        <time>2024-12-19T11:36:14Z</time>
      </trkpt>
      <trkpt lat="47.91153" lon="-2.4663">
        <ele>67.2</ele>
        <time>2024-12-19T11:36:15Z</time>
      </trkpt>
      <trkpt lat="47.91153" lon="-2.4663">
        <ele>67.2</ele>
        <time>2024-12-19T11:36:16Z</time>
      </trkpt>
      <trkpt lat="47.91153" lon="-2.4663">
        <ele>67.2</ele>
        <time>2024-12-19T11:36:17Z</time>
      </trkpt>
      <trkpt lat="47.91153" lon="-2.4663">
        <ele>67.2</ele>
        <time>2024-12-19T11:36:18Z</time>
      </trkpt>
      <trkpt lat="47.91153" lon="-2.4663">
        <ele>67.2</ele>
        <time>2024-12-19T11:36:19Z</time>
      </trkpt>
      <trkpt lat="47.91153" lon="-2.4663">
        <ele>67.2</ele>
        <time>2024-12-19T11:36:20Z</time>
      </trkpt>
      <trkpt lat="47.91153" lon="-2.4663">
        <ele>67.2</ele>
        <time>2024-12-19T11:36:21Z</time>
      </trkpt>
      <trkpt lat="47.91153" lon="-2.4663">
        <ele>67.2</ele>
        <time>2024-12-19T11:36:22Z</time>
      </trkpt>
      <trkpt lat="47.91153" lon="-2.4663">
        <ele>67.2</ele>
        <time>2024-12-19T11:36:23Z</time>
      </trkpt>
      <trkpt lat="47.91153" lon="-2.4663">
        <ele>67.2</ele>
        <time>2024-12-19T11:36:24Z</time>
      </trkpt>
      <trkpt lat="47.91153" lon="-2.4663">
        <ele>67.2</ele>
        <time>2024-12-19T11:36:25Z</time>
      </trkpt>
      <trkpt lat="47.91153" lon="-2.4663">
        <ele>67.2</ele>
        <time>2024-12-19T11:36:26Z</time>
      </trkpt>
      <trkpt lat="47.91153" lon="-2.4663">
        <ele>67.2</ele>
        <time>2024-12-19T11:36:27Z</time>
      </trkpt>
      <trkpt lat="47.91153" lon="-2.4663">
        <ele>67.2</ele>
        <time>2024-12-19T11:36:28Z</time>
      </trkpt>
      <trkpt lat="47.91153" lon="-2.4663">
        <ele>67.2</ele>
        <time>2024-12-19T11:36:29Z</time>
      </trkpt>
      <trkpt lat="47.91153" lon="-2.4663">
        <ele>67.2</ele>
        <time>2024-12-19T11:36:30Z</time>
      </trkpt>
      <trkpt lat="47.91153" lon="-2.4663">
        <ele>67.2</ele>
        <time>2024-12-19T11:36:31Z</time>
      </trkpt>
      <trkpt lat="47.91153" lon="-2.4663">
        <ele>67.2</ele>
        <time>2024-12-19T11:36:32Z</time>
      </trkpt>
      <trkpt lat="47.91153" lon="-2.4663">
        <ele>67.2</ele>
        <time>2024-12-19T11:36:33Z</time>
      </trkpt>
      <trkpt lat="47.91153" lon="-2.4663">
        <ele>67.2</ele>
        <time>2024-12-19T11:36:34Z</time>
      </trkpt>
      <trkpt lat="47.91153" lon="-2.4663">
        <ele>67.2</ele>
        <time>2024-12-19T11:36:35Z</time>
      </trkpt>
      <trkpt lat="47.91153" lon="-2.4663">
        <ele>67.2</ele>
        <time>2024-12-19T11:36:36Z</time>
      </trkpt>
      <trkpt lat="47.91153" lon="-2.4663">
        <ele>67.2</ele>
        <time>2024-12-19T11:36:37Z</time>
      </trkpt>
      <trkpt lat="47.91153" lon="-2.4663">
        <ele>67.2</ele>
        <time>2024-12-19T11:36:38Z</time>
      </trkpt>
      <trkpt lat="47.91153" lon="-2.4663">
        <ele>67.2</ele>
        <time>2024-12-19T11:36:39Z</time>
      </trkpt>
      <trkpt lat="47.91153" lon="-2.4663">
        <ele>67.2</ele>
        <time>2024-12-19T11:36:40Z</time>
      </trkpt>
      <trkpt lat="47.91153" lon="-2.4663">
        <ele>67.2</ele>
        <time>2024-12-19T11:36:41Z</time>
      </trkpt>
      <trkpt lat="47.91153" lon="-2.4663">
        <ele>67.2</ele>
        <time>2024-12-19T11:36:42Z</time>
      </trkpt>
      <trkpt lat="47.91153" lon="-2.4663">
        <ele>67.2</ele>
        <time>2024-12-19T11:36:43Z</time>
      </trkpt>
      <trkpt lat="47.91153" lon="-2.4663">
        <ele>67.2</ele>
        <time>2024-12-19T11:36:44Z</time>
      </trkpt>
      <trkpt lat="47.91153" lon="-2.4663">
        <ele>67.2</ele>
        <time>2024-12-19T11:36:45Z</time>
      </trkpt>
      <trkpt lat="47.91153" lon="-2.4663">
        <ele>67.2</ele>
        <time>2024-12-19T11:36:46Z</time>
      </trkpt>
      <trkpt lat="47.91153" lon="-2.4663">
        <ele>67.2</ele>
        <time>2024-12-19T11:36:47Z</time>
      </trkpt>
      <trkpt lat="47.91153" lon="-2.4663">
        <ele>67.2</ele>
        <time>2024-12-19T11:36:48Z</time>
      </trkpt>
      <trkpt lat="47.91153" lon="-2.4663">
        <ele>67.2</ele>
        <time>2024-12-19T11:36:49Z</time>
      </trkpt>
      <trkpt lat="47.91153" lon="-2.4663">
        <ele>67.2</ele>
        <time>2024-12-19T11:36:50Z</time>
      </trkpt>
      <trkpt lat="47.91153" lon="-2.4663">
        <ele>67.2</ele>
        <time>2024-12-19T11:36:51Z</time>
      </trkpt>
      <trkpt lat="47.91153" lon="-2.4663">
        <ele>67.2</ele>
        <time>2024-12-19T11:36:52Z</time>
      </trkpt>
      <trkpt lat="47.91153" lon="-2.4663">
        <ele>67.2</ele>
        <time>2024-12-19T11:36:53Z</time>
      </trkpt>
      <trkpt lat="47.91153" lon="-2.4663">
        <ele>67.2</ele>
        <time>2024-12-19T11:36:54Z</time>
      </trkpt>
      <trkpt lat="47.91153" lon="-2.4663">
        <ele>67.2</ele>
        <time>2024-12-19T11:36:55Z</time>
      </trkpt>
      <trkpt lat="47.91153" lon="-2.4663">
        <ele>67.2</ele>
        <time>2024-12-19T11:36:56Z</time>
      </trkpt>
      <trkpt lat="47.91153" lon="-2.4663">
        <ele>67.2</ele>
        <time>2024-12-19T11:36:57Z</time>
      </trkpt>
      <trkpt lat="47.91153" lon="-2.4663">
        <ele>67.2</ele>
        <time>2024-12-19T11:36:59Z</time>
      </trkpt>
      <trkpt lat="47.91153" lon="-2.4663">
        <ele>67.2</ele>
        <time>2024-12-19T11:37:00Z</time>
      </trkpt>
      <trkpt lat="47.91153" lon="-2.4663">
        <ele>67.2</ele>
        <time>2024-12-19T11:37:01Z</time>
      </trkpt>
      <trkpt lat="47.91153" lon="-2.4663">
        <ele>67.2</ele>
        <time>2024-12-19T11:37:02Z</time>
      </trkpt>
      <trkpt lat="47.91153" lon="-2.4663">
        <ele>67.2</ele>
        <time>2024-12-19T11:37:03Z</time>
      </trkpt>
      <trkpt lat="47.91153" lon="-2.4663">
        <ele>67.2</ele>
        <time>2024-12-19T11:37:04Z</time>
      </trkpt>
      <trkpt lat="47.91153" lon="-2.4663">
        <ele>67.2</ele>
        <time>2024-12-19T11:37:05Z</time>
      </trkpt>
      <trkpt lat="47.91153" lon="-2.4663">
        <ele>67.2</ele>
        <time>2024-12-19T11:37:06Z</time>
      </trkpt>
      <trkpt lat="47.91153" lon="-2.4663">
        <ele>67.2</ele>
        <time>2024-12-19T11:37:07Z</time>
      </trkpt>
      <trkpt lat="47.91153" lon="-2.4663">
        <ele>67.2</ele>
        <time>2024-12-19T11:37:08Z</time>
      </trkpt>
      <trkpt lat="47.91153" lon="-2.4663">
        <ele>67.2</ele>
        <time>2024-12-19T11:37:09Z</time>
      </trkpt>
      <trkpt lat="47.91153" lon="-2.4663">
        <ele>67.2</ele>
        <time>2024-12-19T11:37:10Z</time>
      </trkpt>
      <trkpt lat="47.91153" lon="-2.4663">
        <ele>67.2</ele>
        <time>2024-12-19T11:37:11Z</time>
      </trkpt>
      <trkpt lat="47.91153" lon="-2.4663">
        <ele>67.2</ele>
        <time>2024-12-19T11:37:12Z</time>
      </trkpt>
      <trkpt lat="47.91153" lon="-2.4663">
        <ele>67.2</ele>
        <time>2024-12-19T11:37:13Z</time>
      </trkpt>
      <trkpt lat="47.91153" lon="-2.4663">
        <ele>67.2</ele>
        <time>2024-12-19T11:37:14Z</time>
      </trkpt>
      <trkpt lat="47.91153" lon="-2.4663">
        <ele>67.2</ele>
        <time>2024-12-19T11:37:15Z</time>
      </trkpt>
      <trkpt lat="47.91153" lon="-2.4663">
        <ele>67.2</ele>
        <time>2024-12-19T11:37:16Z</time>
      </trkpt>
      <trkpt lat="47.91153" lon="-2.4663">
        <ele>67.2</ele>
        <time>2024-12-19T11:37:17Z</time>
      </trkpt>
      <trkpt lat="47.91153" lon="-2.4663">
        <ele>67.2</ele>
        <time>2024-12-19T11:37:18Z</time>
      </trkpt>
      <trkpt lat="47.91153" lon="-2.4663">
        <ele>67.2</ele>
        <time>2024-12-19T11:37:19Z</time>
      </trkpt>
      <trkpt lat="47.91153" lon="-2.4663">
        <ele>67.2</ele>
        <time>2024-12-19T11:37:20Z</time>
      </trkpt>
      <trkpt lat="47.91153" lon="-2.4663">
        <ele>67.2</ele>
        <time>2024-12-19T11:37:21Z</time>
      </trkpt>
      <trkpt lat="47.91153" lon="-2.4663">
        <ele>67.2</ele>
        <time>2024-12-19T11:37:25Z</time>
      </trkpt>
      <trkpt lat="47.91153" lon="-2.4663">
        <ele>67.2</ele>
        <time>2024-12-19T11:37:26Z</time>
      </trkpt>
      <trkpt lat="47.91153" lon="-2.4663">
        <ele>67.2</ele>
        <time>2024-12-19T11:37:27Z</time>
      </trkpt>
      <trkpt lat="47.91153" lon="-2.4663">
        <ele>67.2</ele>
        <time>2024-12-19T11:37:28Z</time>
      </trkpt>
      <trkpt lat="47.91153" lon="-2.4663">
        <ele>67.2</ele>
        <time>2024-12-19T11:37:29Z</time>
      </trkpt>
      <trkpt lat="47.91153" lon="-2.4663">
        <ele>67.2</ele>
        <time>2024-12-19T11:37:30Z</time>
      </trkpt>
      <trkpt lat="47.91153" lon="-2.4663">
        <ele>67.2</ele>
        <time>2024-12-19T11:37:31Z</time>
      </trkpt>
      <trkpt lat="47.91153" lon="-2.4663">
        <ele>67.2</ele>
        <time>2024-12-19T11:37:32Z</time>
      </trkpt>
      <trkpt lat="47.91153" lon="-2.4663">
        <ele>67.2</ele>
        <time>2024-12-19T11:37:33Z</time>
      </trkpt>
      <trkpt lat="47.91153" lon="-2.4663">
        <ele>67.2</ele>
        <time>2024-12-19T11:37:34Z</time>
      </trkpt>
      <trkpt lat="47.91153" lon="-2.4663">
        <ele>67.2</ele>
        <time>2024-12-19T11:37:35Z</time>
      </trkpt>
      <trkpt lat="47.91153" lon="-2.4663">
        <ele>67.2</ele>
        <time>2024-12-19T11:37:36Z</time>
      </trkpt>
      <trkpt lat="47.91153" lon="-2.4663">
        <ele>67.2</ele>
        <time>2024-12-19T11:37:37Z</time>
      </trkpt>
      <trkpt lat="47.91153" lon="-2.4663">
        <ele>67.2</ele>
        <time>2024-12-19T11:37:38Z</time>
      </trkpt>
      <trkpt lat="47.91153" lon="-2.4663">
        <ele>67.2</ele>
        <time>2024-12-19T11:37:39Z</time>
      </trkpt>
      <trkpt lat="47.91153" lon="-2.4663">
        <ele>67.2</ele>
        <time>2024-12-19T11:37:40Z</time>
      </trkpt>
      <trkpt lat="47.91153" lon="-2.4663">
        <ele>67.2</ele>
        <time>2024-12-19T11:37:41Z</time>
      </trkpt>
      <trkpt lat="47.91153" lon="-2.4663">
        <ele>67.2</ele>
        <time>2024-12-19T11:37:42Z</time>
      </trkpt>
      <trkpt lat="47.91153" lon="-2.4663">
        <ele>67.2</ele>
        <time>2024-12-19T11:37:43Z</time>
      </trkpt>
      <trkpt lat="47.91153" lon="-2.4663">
        <ele>67.2</ele>
        <time>2024-12-19T11:37:44Z</time>
      </trkpt>
      <trkpt lat="47.91153" lon="-2.4663">
        <ele>67.2</ele>
        <time>2024-12-19T11:37:45Z</time>
      </trkpt>
      <trkpt lat="47.91153" lon="-2.4663">
        <ele>67.2</ele>
        <time>2024-12-19T11:37:46Z</time>
      </trkpt>
      <trkpt lat="47.91153" lon="-2.4663">
        <ele>67.2</ele>
        <time>2024-12-19T11:37:47Z</time>
      </trkpt>
      <trkpt lat="47.91153" lon="-2.4663">
        <ele>67.2</ele>
        <time>2024-12-19T11:37:48Z</time>
      </trkpt>
      <trkpt lat="47.91153" lon="-2.4663">
        <ele>67.2</ele>
        <time>2024-12-19T11:37:49Z</time>
      </trkpt>
      <trkpt lat="47.91153" lon="-2.4663">
        <ele>67.2</ele>
        <time>2024-12-19T11:37:50Z</time>
      </trkpt>
      <trkpt lat="47.91153" lon="-2.4663">
        <ele>67.2</ele>
        <time>2024-12-19T11:37:51Z</time>
      </trkpt>
      <trkpt lat="47.91153" lon="-2.4663">
        <ele>67.2</ele>
        <time>2024-12-19T11:37:52Z</time>
      </trkpt>
      <trkpt lat="47.91153" lon="-2.4663">
        <ele>67.2</ele>
        <time>2024-12-19T11:37:53Z</time>
      </trkpt>
      <trkpt lat="47.91153" lon="-2.4663">
        <ele>67.2</ele>
        <time>2024-12-19T11:37:54Z</time>
      </trkpt>
      <trkpt lat="47.91153" lon="-2.4663">
        <ele>67.2</ele>
        <time>2024-12-19T11:37:55Z</time>
      </trkpt>
      <trkpt lat="47.91153" lon="-2.4663">
        <ele>67.2</ele>
        <time>2024-12-19T11:37:56Z</time>
      </trkpt>
      <trkpt lat="47.91153" lon="-2.4663">
        <ele>67.2</ele>
        <time>2024-12-19T11:37:57Z</time>
      </trkpt>
      <trkpt lat="47.91153" lon="-2.4663">
        <ele>67.2</ele>
        <time>2024-12-19T11:37:58Z</time>
      </trkpt>
      <trkpt lat="47.91153" lon="-2.4663">
        <ele>67.2</ele>
        <time>2024-12-19T11:37:59Z</time>
      </trkpt>
      <trkpt lat="47.91153" lon="-2.4663">
        <ele>67.2</ele>
        <time>2024-12-19T11:38:00Z</time>
      </trkpt>
      <trkpt lat="47.91153" lon="-2.4663">
        <ele>67.2</ele>
        <time>2024-12-19T11:38:01Z</time>
      </trkpt>
      <trkpt lat="47.91153" lon="-2.4663">
        <ele>67.2</ele>
        <time>2024-12-19T11:38:02Z</time>
      </trkpt>
      <trkpt lat="47.91153" lon="-2.4663">
        <ele>67.2</ele>
        <time>2024-12-19T11:38:03Z</time>
      </trkpt>
      <trkpt lat="47.91153" lon="-2.4663">
        <ele>67.2</ele>
        <time>2024-12-19T11:38:04Z</time>
      </trkpt>
      <trkpt lat="47.91153" lon="-2.4663">
        <ele>67.2</ele>
        <time>2024-12-19T11:38:05Z</time>
      </trkpt>
      <trkpt lat="47.91153" lon="-2.4663">
        <ele>67.2</ele>
        <time>2024-12-19T11:38:06Z</time>
      </trkpt>
      <trkpt lat="47.91153" lon="-2.4663">
        <ele>67.2</ele>
        <time>2024-12-19T11:38:07Z</time>
      </trkpt>
      <trkpt lat="47.91153" lon="-2.4663">
        <ele>67.2</ele>
        <time>2024-12-19T11:38:08Z</time>
      </trkpt>
      <trkpt lat="47.91153" lon="-2.4663">
        <ele>67.2</ele>
        <time>2024-12-19T11:38:09Z</time>
      </trkpt>
      <trkpt lat="47.91153" lon="-2.4663">
        <ele>67.2</ele>
        <time>2024-12-19T11:38:10Z</time>
      </trkpt>
      <trkpt lat="47.91153" lon="-2.4663">
        <ele>67.2</ele>
        <time>2024-12-19T11:38:11Z</time>
      </trkpt>
      <trkpt lat="47.91153" lon="-2.4663">
        <ele>67.2</ele>
        <time>2024-12-19T11:38:12Z</time>
      </trkpt>
      <trkpt lat="47.91153" lon="-2.4663">
        <ele>67.2</ele>
        <time>2024-12-19T11:38:13Z</time>
      </trkpt>
      <trkpt lat="47.91153" lon="-2.4663">
        <ele>67.2</ele>
        <time>2024-12-19T11:38:14Z</time>
      </trkpt>
      <trkpt lat="47.91153" lon="-2.4663">
        <ele>67.2</ele>
        <time>2024-12-19T11:38:15Z</time>
      </trkpt>
      <trkpt lat="47.91153" lon="-2.4663">
        <ele>67.2</ele>
        <time>2024-12-19T11:38:16Z</time>
      </trkpt>
      <trkpt lat="47.91153" lon="-2.4663">
        <ele>67.2</ele>
        <time>2024-12-19T11:38:17Z</time>
      </trkpt>
      <trkpt lat="47.91153" lon="-2.4663">
        <ele>67.2</ele>
        <time>2024-12-19T11:38:18Z</time>
      </trkpt>
      <trkpt lat="47.91153" lon="-2.4663">
        <ele>67.2</ele>
        <time>2024-12-19T11:38:19Z</time>
      </trkpt>
      <trkpt lat="47.91153" lon="-2.4663">
        <ele>67.2</ele>
        <time>2024-12-19T11:38:20Z</time>
      </trkpt>
      <trkpt lat="47.91153" lon="-2.4663">
        <ele>67.2</ele>
        <time>2024-12-19T11:38:21Z</time>
      </trkpt>
      <trkpt lat="47.91153" lon="-2.4663">
        <ele>67.2</ele>
        <time>2024-12-19T11:38:22Z</time>
      </trkpt>
      <trkpt lat="47.91153" lon="-2.4663">
        <ele>67.2</ele>
        <time>2024-12-19T11:38:23Z</time>
      </trkpt>
      <trkpt lat="47.91153" lon="-2.4663">
        <ele>67.2</ele>
        <time>2024-12-19T11:38:24Z</time>
      </trkpt>
      <trkpt lat="47.91153" lon="-2.4663">
        <ele>67.2</ele>
        <time>2024-12-19T11:38:25Z</time>
      </trkpt>
      <trkpt lat="47.91153" lon="-2.4663">
        <ele>67.2</ele>
        <time>2024-12-19T11:38:26Z</time>
      </trkpt>
      <trkpt lat="47.91153" lon="-2.4663">
        <ele>67.2</ele>
        <time>2024-12-19T11:38:27Z</time>
      </trkpt>
      <trkpt lat="47.91153" lon="-2.4663">
        <ele>67.2</ele>
        <time>2024-12-19T11:38:28Z</time>
      </trkpt>
      <trkpt lat="47.91153" lon="-2.4663">
        <ele>67.2</ele>
        <time>2024-12-19T11:38:29Z</time>
      </trkpt>
      <trkpt lat="47.91153" lon="-2.4663">
        <ele>67.2</ele>
        <time>2024-12-19T11:38:30Z</time>
      </trkpt>
      <trkpt lat="47.91153" lon="-2.4663">
        <ele>67.2</ele>
        <time>2024-12-19T11:38:31Z</time>
      </trkpt>
      <trkpt lat="47.91153" lon="-2.4663">
        <ele>67.2</ele>
        <time>2024-12-19T11:38:32Z</time>
      </trkpt>
      <trkpt lat="47.91153" lon="-2.4663">
        <ele>67.2</ele>
        <time>2024-12-19T11:38:33Z</time>
      </trkpt>
      <trkpt lat="47.91153" lon="-2.4663">
        <ele>67.2</ele>
        <time>2024-12-19T11:38:34Z</time>
      </trkpt>
      <trkpt lat="47.91153" lon="-2.4663">
        <ele>67.2</ele>
        <time>2024-12-19T11:38:35Z</time>
      </trkpt>
      <trkpt lat="47.91153" lon="-2.4663">
        <ele>67.2</ele>
        <time>2024-12-19T11:38:36Z</time>
      </trkpt>
      <trkpt lat="47.91153" lon="-2.4663">
        <ele>67.2</ele>
        <time>2024-12-19T11:38:37Z</time>
      </trkpt>
      <trkpt lat="47.91153" lon="-2.4663">
        <ele>67.2</ele>
        <time>2024-12-19T11:38:38Z</time>
      </trkpt>
      <trkpt lat="47.91153" lon="-2.4663">
        <ele>67.2</ele>
        <time>2024-12-19T11:38:39Z</time>
      </trkpt>
      <trkpt lat="47.91153" lon="-2.4663">
        <ele>67.2</ele>
        <time>2024-12-19T11:38:40Z</time>
      </trkpt>
      <trkpt lat="47.91153" lon="-2.4663">
        <ele>67.2</ele>
        <time>2024-12-19T11:38:41Z</time>
      </trkpt>
      <trkpt lat="47.91153" lon="-2.4663">
        <ele>67.2</ele>
        <time>2024-12-19T11:38:42Z</time>
      </trkpt>
      <trkpt lat="47.91153" lon="-2.4663">
        <ele>67.2</ele>
        <time>2024-12-19T11:38:43Z</time>
      </trkpt>
      <trkpt lat="47.91153" lon="-2.4663">
        <ele>67.2</ele>
        <time>2024-12-19T11:38:44Z</time>
      </trkpt>
      <trkpt lat="47.91153" lon="-2.4663">
        <ele>67.2</ele>
        <time>2024-12-19T11:38:45Z</time>
      </trkpt>
      <trkpt lat="47.91153" lon="-2.4663">
        <ele>67.2</ele>
        <time>2024-12-19T11:38:46Z</time>
      </trkpt>
      <trkpt lat="47.91153" lon="-2.4663">
        <ele>67.2</ele>
        <time>2024-12-19T11:38:47Z</time>
      </trkpt>
      <trkpt lat="47.91153" lon="-2.4663">
        <ele>67.2</ele>
        <time>2024-12-19T11:38:48Z</time>
      </trkpt>
      <trkpt lat="47.91153" lon="-2.4663">
        <ele>67.2</ele>
        <time>2024-12-19T11:38:49Z</time>
      </trkpt>
      <trkpt lat="47.91153" lon="-2.4663">
        <ele>67.2</ele>
        <time>2024-12-19T11:38:50Z</time>
      </trkpt>
      <trkpt lat="47.91153" lon="-2.4663">
        <ele>67.2</ele>
        <time>2024-12-19T11:38:51Z</time>
      </trkpt>
      <trkpt lat="47.91153" lon="-2.4663">
        <ele>67.2</ele>
        <time>2024-12-19T11:38:52Z</time>
      </trkpt>
      <trkpt lat="47.91153" lon="-2.4663">
        <ele>67.2</ele>
        <time>2024-12-19T11:38:53Z</time>
      </trkpt>
      <trkpt lat="47.91153" lon="-2.4663">
        <ele>67.2</ele>
        <time>2024-12-19T11:38:54Z</time>
      </trkpt>
      <trkpt lat="47.91153" lon="-2.4663">
        <ele>67.2</ele>
        <time>2024-12-19T11:38:55Z</time>
      </trkpt>
      <trkpt lat="47.91153" lon="-2.4663">
        <ele>67.2</ele>
        <time>2024-12-19T11:38:56Z</time>
      </trkpt>
      <trkpt lat="47.91153" lon="-2.4663">
        <ele>67.2</ele>
        <time>2024-12-19T11:38:57Z</time>
      </trkpt>
      <trkpt lat="47.91153" lon="-2.4663">
        <ele>67.2</ele>
        <time>2024-12-19T11:38:58Z</time>
      </trkpt>
      <trkpt lat="47.91153" lon="-2.4663">
        <ele>67.2</ele>
        <time>2024-12-19T11:38:59Z</time>
      </trkpt>
      <trkpt lat="47.91153" lon="-2.4663">
        <ele>67.2</ele>
        <time>2024-12-19T11:39:00Z</time>
      </trkpt>
      <trkpt lat="47.91153" lon="-2.4663">
        <ele>67.2</ele>
        <time>2024-12-19T11:39:01Z</time>
      </trkpt>
      <trkpt lat="47.91153" lon="-2.4663">
        <ele>67.2</ele>
        <time>2024-12-19T11:39:02Z</time>
      </trkpt>
      <trkpt lat="47.91153" lon="-2.4663">
        <ele>67.2</ele>
        <time>2024-12-19T11:39:03Z</time>
      </trkpt>
      <trkpt lat="47.91153" lon="-2.4663">
        <ele>67.2</ele>
        <time>2024-12-19T11:39:04Z</time>
      </trkpt>
      <trkpt lat="47.91153" lon="-2.4663">
        <ele>67.2</ele>
        <time>2024-12-19T11:39:05Z</time>
      </trkpt>
      <trkpt lat="47.91153" lon="-2.4663">
        <ele>67.2</ele>
        <time>2024-12-19T11:39:06Z</time>
      </trkpt>
      <trkpt lat="47.91153" lon="-2.4663">
        <ele>67.2</ele>
        <time>2024-12-19T11:39:07Z</time>
      </trkpt>
      <trkpt lat="47.91153" lon="-2.4663">
        <ele>67.2</ele>
        <time>2024-12-19T11:39:08Z</time>
      </trkpt>
      <trkpt lat="47.91153" lon="-2.4663">
        <ele>67.2</ele>
        <time>2024-12-19T11:39:09Z</time>
      </trkpt>
      <trkpt lat="47.91153" lon="-2.4663">
        <ele>67.2</ele>
        <time>2024-12-19T11:39:10Z</time>
      </trkpt>
      <trkpt lat="47.91153" lon="-2.4663">
        <ele>67.2</ele>
        <time>2024-12-19T11:39:11Z</time>
      </trkpt>
      <trkpt lat="47.91153" lon="-2.4663">
        <ele>67.2</ele>
        <time>2024-12-19T11:39:12Z</time>
      </trkpt>
      <trkpt lat="47.91153" lon="-2.4663">
        <ele>67.2</ele>
        <time>2024-12-19T11:39:13Z</time>
      </trkpt>
      <trkpt lat="47.91153" lon="-2.4663">
        <ele>67.2</ele>
        <time>2024-12-19T11:39:14Z</time>
      </trkpt>
      <trkpt lat="47.91153" lon="-2.4663">
        <ele>67.2</ele>
        <time>2024-12-19T11:39:15Z</time>
      </trkpt>
      <trkpt lat="47.91153" lon="-2.4663">
        <ele>67.2</ele>
        <time>2024-12-19T11:39:16Z</time>
      </trkpt>
      <trkpt lat="47.91153" lon="-2.4663">
        <ele>67.2</ele>
        <time>2024-12-19T11:39:17Z</time>
      </trkpt>
      <trkpt lat="47.91153" lon="-2.4663">
        <ele>67.2</ele>
        <time>2024-12-19T11:39:18Z</time>
      </trkpt>
      <trkpt lat="47.91153" lon="-2.4663">
        <ele>67.2</ele>
        <time>2024-12-19T11:39:19Z</time>
      </trkpt>
      <trkpt lat="47.91153" lon="-2.4663">
        <ele>67.2</ele>
        <time>2024-12-19T11:39:20Z</time>
      </trkpt>
      <trkpt lat="47.91153" lon="-2.4663">
        <ele>67.2</ele>
        <time>2024-12-19T11:39:21Z</time>
      </trkpt>
      <trkpt lat="47.91153" lon="-2.4663">
        <ele>67.2</ele>
        <time>2024-12-19T11:39:22Z</time>
      </trkpt>
      <trkpt lat="47.91153" lon="-2.4663">
        <ele>67.2</ele>
        <time>2024-12-19T11:39:23Z</time>
      </trkpt>
      <trkpt lat="47.91153" lon="-2.4663">
        <ele>67.2</ele>
        <time>2024-12-19T11:39:24Z</time>
      </trkpt>
      <trkpt lat="47.91153" lon="-2.4663">
        <ele>67.2</ele>
        <time>2024-12-19T11:39:25Z</time>
      </trkpt>
      <trkpt lat="47.91153" lon="-2.4663">
        <ele>67.2</ele>
        <time>2024-12-19T11:39:26Z</time>
      </trkpt>
      <trkpt lat="47.91153" lon="-2.4663">
        <ele>67.2</ele>
        <time>2024-12-19T11:39:27Z</time>
      </trkpt>
      <trkpt lat="47.91153" lon="-2.4663">
        <ele>67.2</ele>
        <time>2024-12-19T11:39:28Z</time>
      </trkpt>
      <trkpt lat="47.91153" lon="-2.4663">
        <ele>67.2</ele>
        <time>2024-12-19T11:39:29Z</time>
      </trkpt>
      <trkpt lat="47.91153" lon="-2.4663">
        <ele>67.2</ele>
        <time>2024-12-19T11:39:30Z</time>
      </trkpt>
      <trkpt lat="47.91153" lon="-2.4663">
        <ele>67.2</ele>
        <time>2024-12-19T11:39:31Z</time>
      </trkpt>
      <trkpt lat="47.91153" lon="-2.4663">
        <ele>67.2</ele>
        <time>2024-12-19T11:39:32Z</time>
      </trkpt>
      <trkpt lat="47.91153" lon="-2.4663">
        <ele>67.2</ele>
        <time>2024-12-19T11:39:33Z</time>
      </trkpt>
      <trkpt lat="47.91153" lon="-2.4663">
        <ele>67.2</ele>
        <time>2024-12-19T11:39:34Z</time>
      </trkpt>
      <trkpt lat="47.91153" lon="-2.4663">
        <ele>67.2</ele>
        <time>2024-12-19T11:39:35Z</time>
      </trkpt>
      <trkpt lat="47.91153" lon="-2.4663">
        <ele>67.2</ele>
        <time>2024-12-19T11:39:36Z</time>
      </trkpt>
      <trkpt lat="47.91153" lon="-2.4663">
        <ele>67.2</ele>
        <time>2024-12-19T11:39:37Z</time>
      </trkpt>
      <trkpt lat="47.91153" lon="-2.4663">
        <ele>67.2</ele>
        <time>2024-12-19T11:39:38Z</time>
      </trkpt>
      <trkpt lat="47.91153" lon="-2.4663">
        <ele>67.2</ele>
        <time>2024-12-19T11:39:39Z</time>
      </trkpt>
      <trkpt lat="47.91153" lon="-2.4663">
        <ele>67.2</ele>
        <time>2024-12-19T11:39:40Z</time>
      </trkpt>
      <trkpt lat="47.91153" lon="-2.4663">
        <ele>67.2</ele>
        <time>2024-12-19T11:39:41Z</time>
      </trkpt>
      <trkpt lat="47.91153" lon="-2.4663">
        <ele>67.2</ele>
        <time>2024-12-19T11:39:42Z</time>
      </trkpt>
      <trkpt lat="47.91153" lon="-2.4663">
        <ele>67.2</ele>
        <time>2024-12-19T11:39:43Z</time>
      </trkpt>
      <trkpt lat="47.91153" lon="-2.4663">
        <ele>67.2</ele>
        <time>2024-12-19T11:39:44Z</time>
      </trkpt>
      <trkpt lat="47.91153" lon="-2.4663">
        <ele>67.2</ele>
        <time>2024-12-19T11:39:45Z</time>
      </trkpt>
      <trkpt lat="47.91153" lon="-2.4663">
        <ele>67.2</ele>
        <time>2024-12-19T11:39:46Z</time>
      </trkpt>
      <trkpt lat="47.91153" lon="-2.4663">
        <ele>67.2</ele>
        <time>2024-12-19T11:39:47Z</time>
      </trkpt>
      <trkpt lat="47.91153" lon="-2.4663">
        <ele>67.2</ele>
        <time>2024-12-19T11:39:48Z</time>
      </trkpt>
      <trkpt lat="47.91153" lon="-2.4663">
        <ele>67.2</ele>
        <time>2024-12-19T11:39:49Z</time>
      </trkpt>
      <trkpt lat="47.91153" lon="-2.46629">
        <ele>67.2</ele>
        <time>2024-12-19T11:39:50Z</time>
      </trkpt>
      <trkpt lat="47.91154" lon="-2.46629">
        <ele>67.2</ele>
        <time>2024-12-19T11:39:51Z</time>
      </trkpt>
      <trkpt lat="47.91154" lon="-2.46629">
        <ele>67.3</ele>
        <time>2024-12-19T11:39:52Z</time>
      </trkpt>
      <trkpt lat="47.91154" lon="-2.46628">
        <ele>67.3</ele>
        <time>2024-12-19T11:39:53Z</time>
      </trkpt>
      <trkpt lat="47.91154" lon="-2.46629">
        <ele>67.3</ele>
        <time>2024-12-19T11:39:54Z</time>
      </trkpt>
      <trkpt lat="47.91154" lon="-2.46629">
        <ele>67.2</ele>
        <time>2024-12-19T11:39:55Z</time>
      </trkpt>
      <trkpt lat="47.91154" lon="-2.46629">
        <ele>67.3</ele>
        <time>2024-12-19T11:39:56Z</time>
      </trkpt>
      <trkpt lat="47.91154" lon="-2.46629">
        <ele>67.3</ele>
        <time>2024-12-19T11:39:57Z</time>
      </trkpt>
      <trkpt lat="47.91154" lon="-2.46629">
        <ele>67.3</ele>
        <time>2024-12-19T11:39:58Z</time>
      </trkpt>
      <trkpt lat="47.91154" lon="-2.46629">
        <ele>67.3</ele>
        <time>2024-12-19T11:39:59Z</time>
      </trkpt>
      <trkpt lat="47.91154" lon="-2.46629">
        <ele>67.3</ele>
        <time>2024-12-19T11:40:00Z</time>
      </trkpt>
      <trkpt lat="47.91154" lon="-2.46629">
        <ele>67.3</ele>
        <time>2024-12-19T11:40:01Z</time>
      </trkpt>
      <trkpt lat="47.91154" lon="-2.46629">
        <ele>67.3</ele>
        <time>2024-12-19T11:40:02Z</time>
      </trkpt>
      <trkpt lat="47.91154" lon="-2.46629">
        <ele>67.3</ele>
        <time>2024-12-19T11:40:03Z</time>
      </trkpt>
      <trkpt lat="47.91154" lon="-2.46629">
        <ele>67.3</ele>
        <time>2024-12-19T11:40:04Z</time>
      </trkpt>
      <trkpt lat="47.91154" lon="-2.46629">
        <ele>67.3</ele>
        <time>2024-12-19T11:40:05Z</time>
      </trkpt>
      <trkpt lat="47.91154" lon="-2.46629">
        <ele>67.3</ele>
        <time>2024-12-19T11:40:06Z</time>
      </trkpt>
      <trkpt lat="47.91154" lon="-2.46629">
        <ele>67.3</ele>
        <time>2024-12-19T11:40:07Z</time>
      </trkpt>
      <trkpt lat="47.91154" lon="-2.46629">
        <ele>67.3</ele>
        <time>2024-12-19T11:40:08Z</time>
      </trkpt>
      <trkpt lat="47.91154" lon="-2.46629">
        <ele>67.3</ele>
        <time>2024-12-19T11:40:09Z</time>
      </trkpt>
      <trkpt lat="47.91154" lon="-2.46629">
        <ele>67.3</ele>
        <time>2024-12-19T11:40:10Z</time>
      </trkpt>
      <trkpt lat="47.91154" lon="-2.46629">
        <ele>67.3</ele>
        <time>2024-12-19T11:40:11Z</time>
      </trkpt>
      <trkpt lat="47.91154" lon="-2.46629">
        <ele>67.3</ele>
        <time>2024-12-19T11:40:12Z</time>
      </trkpt>
      <trkpt lat="47.91154" lon="-2.46629">
        <ele>67.3</ele>
        <time>2024-12-19T11:40:13Z</time>
      </trkpt>
      <trkpt lat="47.91154" lon="-2.46629">
        <ele>67.3</ele>
        <time>2024-12-19T11:40:14Z</time>
      </trkpt>
      <trkpt lat="47.91154" lon="-2.46629">
        <ele>67.3</ele>
        <time>2024-12-19T11:40:15Z</time>
      </trkpt>
      <trkpt lat="47.91154" lon="-2.46629">
        <ele>67.3</ele>
        <time>2024-12-19T11:40:16Z</time>
      </trkpt>
      <trkpt lat="47.91154" lon="-2.46629">
        <ele>67.3</ele>
        <time>2024-12-19T11:40:17Z</time>
      </trkpt>
      <trkpt lat="47.91154" lon="-2.46629">
        <ele>67.3</ele>
        <time>2024-12-19T11:40:18Z</time>
      </trkpt>
      <trkpt lat="47.91154" lon="-2.46629">
        <ele>67.3</ele>
        <time>2024-12-19T11:40:19Z</time>
      </trkpt>
      <trkpt lat="47.91154" lon="-2.46629">
        <ele>67.3</ele>
        <time>2024-12-19T11:40:20Z</time>
      </trkpt>
      <trkpt lat="47.91154" lon="-2.46629">
        <ele>67.3</ele>
        <time>2024-12-19T11:40:21Z</time>
      </trkpt>
      <trkpt lat="47.91154" lon="-2.46629">
        <ele>67.3</ele>
        <time>2024-12-19T11:40:22Z</time>
      </trkpt>
      <trkpt lat="47.91154" lon="-2.46629">
        <ele>67.3</ele>
        <time>2024-12-19T11:40:23Z</time>
      </trkpt>
      <trkpt lat="47.91154" lon="-2.46629">
        <ele>67.3</ele>
        <time>2024-12-19T11:40:24Z</time>
      </trkpt>
      <trkpt lat="47.91154" lon="-2.46629">
        <ele>67.3</ele>
        <time>2024-12-19T11:40:25Z</time>
      </trkpt>
      <trkpt lat="47.91154" lon="-2.46629">
        <ele>67.3</ele>
        <time>2024-12-19T11:40:26Z</time>
      </trkpt>
      <trkpt lat="47.91154" lon="-2.46629">
        <ele>67.3</ele>
        <time>2024-12-19T11:40:27Z</time>
      </trkpt>
      <trkpt lat="47.91154" lon="-2.46629">
        <ele>67.3</ele>
        <time>2024-12-19T11:40:28Z</time>
      </trkpt>
      <trkpt lat="47.91154" lon="-2.46629">
        <ele>67.3</ele>
        <time>2024-12-19T11:40:29Z</time>
      </trkpt>
      <trkpt lat="47.91154" lon="-2.46629">
        <ele>67.3</ele>
        <time>2024-12-19T11:40:30Z</time>
      </trkpt>
      <trkpt lat="47.91154" lon="-2.46629">
        <ele>67.3</ele>
        <time>2024-12-19T11:40:31Z</time>
      </trkpt>
      <trkpt lat="47.91154" lon="-2.46629">
        <ele>67.3</ele>
        <time>2024-12-19T11:40:32Z</time>
      </trkpt>
      <trkpt lat="47.91154" lon="-2.46629">
        <ele>67.3</ele>
        <time>2024-12-19T11:40:33Z</time>
      </trkpt>
      <trkpt lat="47.91154" lon="-2.46629">
        <ele>67.3</ele>
        <time>2024-12-19T11:40:34Z</time>
      </trkpt>
      <trkpt lat="47.91154" lon="-2.46629">
        <ele>67.3</ele>
        <time>2024-12-19T11:40:35Z</time>
      </trkpt>
      <trkpt lat="47.91154" lon="-2.46629">
        <ele>67.3</ele>
        <time>2024-12-19T11:40:36Z</time>
      </trkpt>
      <trkpt lat="47.91154" lon="-2.46629">
        <ele>67.3</ele>
        <time>2024-12-19T11:40:37Z</time>
      </trkpt>
      <trkpt lat="47.91154" lon="-2.46629">
        <ele>67.3</ele>
        <time>2024-12-19T11:40:38Z</time>
      </trkpt>
      <trkpt lat="47.91154" lon="-2.46629">
        <ele>67.3</ele>
        <time>2024-12-19T11:40:39Z</time>
      </trkpt>
      <trkpt lat="47.91154" lon="-2.46629">
        <ele>67.3</ele>
        <time>2024-12-19T11:40:40Z</time>
      </trkpt>
      <trkpt lat="47.91154" lon="-2.46629">
        <ele>67.3</ele>
        <time>2024-12-19T11:40:41Z</time>
      </trkpt>
      <trkpt lat="47.91154" lon="-2.46629">
        <ele>67.3</ele>
        <time>2024-12-19T11:40:42Z</time>
      </trkpt>
      <trkpt lat="47.91154" lon="-2.46629">
        <ele>67.3</ele>
        <time>2024-12-19T11:40:43Z</time>
      </trkpt>
      <trkpt lat="47.91154" lon="-2.46629">
        <ele>67.3</ele>
        <time>2024-12-19T11:40:44Z</time>
      </trkpt>
      <trkpt lat="47.91154" lon="-2.46629">
        <ele>67.3</ele>
        <time>2024-12-19T11:40:45Z</time>
      </trkpt>
      <trkpt lat="47.91154" lon="-2.46629">
        <ele>67.3</ele>
        <time>2024-12-19T11:40:46Z</time>
      </trkpt>
      <trkpt lat="47.91154" lon="-2.46629">
        <ele>67.3</ele>
        <time>2024-12-19T11:40:47Z</time>
      </trkpt>
      <trkpt lat="47.91154" lon="-2.46629">
        <ele>67.3</ele>
        <time>2024-12-19T11:40:48Z</time>
      </trkpt>
      <trkpt lat="47.91154" lon="-2.46629">
        <ele>67.3</ele>
        <time>2024-12-19T11:40:49Z</time>
      </trkpt>
      <trkpt lat="47.91154" lon="-2.46629">
        <ele>67.3</ele>
        <time>2024-12-19T11:40:50Z</time>
      </trkpt>
      <trkpt lat="47.91154" lon="-2.46629">
        <ele>67.3</ele>
        <time>2024-12-19T11:40:51Z</time>
      </trkpt>
      <trkpt lat="47.91154" lon="-2.46629">
        <ele>67.3</ele>
        <time>2024-12-19T11:40:52Z</time>
      </trkpt>
      <trkpt lat="47.91154" lon="-2.46629">
        <ele>67.3</ele>
        <time>2024-12-19T11:40:53Z</time>
      </trkpt>
      <trkpt lat="47.91154" lon="-2.46629">
        <ele>67.3</ele>
        <time>2024-12-19T11:40:54Z</time>
      </trkpt>
      <trkpt lat="47.91154" lon="-2.46629">
        <ele>67.3</ele>
        <time>2024-12-19T11:40:55Z</time>
      </trkpt>
      <trkpt lat="47.91154" lon="-2.46629">
        <ele>67.3</ele>
        <time>2024-12-19T11:40:56Z</time>
      </trkpt>
      <trkpt lat="47.91154" lon="-2.46629">
        <ele>67.3</ele>
        <time>2024-12-19T11:40:57Z</time>
      </trkpt>
      <trkpt lat="47.91154" lon="-2.46629">
        <ele>67.3</ele>
        <time>2024-12-19T11:40:58Z</time>
      </trkpt>
      <trkpt lat="47.91154" lon="-2.46629">
        <ele>67.3</ele>
        <time>2024-12-19T11:40:59Z</time>
      </trkpt>
      <trkpt lat="47.91154" lon="-2.46629">
        <ele>67.3</ele>
        <time>2024-12-19T11:41:00Z</time>
      </trkpt>
      <trkpt lat="47.91154" lon="-2.46629">
        <ele>67.3</ele>
        <time>2024-12-19T11:41:01Z</time>
      </trkpt>
      <trkpt lat="47.91154" lon="-2.46629">
        <ele>67.3</ele>
        <time>2024-12-19T11:41:02Z</time>
      </trkpt>
      <trkpt lat="47.91154" lon="-2.46629">
        <ele>67.3</ele>
        <time>2024-12-19T11:41:03Z</time>
      </trkpt>
      <trkpt lat="47.91154" lon="-2.46629">
        <ele>67.3</ele>
        <time>2024-12-19T11:41:04Z</time>
      </trkpt>
      <trkpt lat="47.91154" lon="-2.46629">
        <ele>67.3</ele>
        <time>2024-12-19T11:41:05Z</time>
      </trkpt>
      <trkpt lat="47.91154" lon="-2.46629">
        <ele>67.3</ele>
        <time>2024-12-19T11:41:06Z</time>
      </trkpt>
      <trkpt lat="47.91154" lon="-2.46629">
        <ele>67.3</ele>
        <time>2024-12-19T11:41:07Z</time>
      </trkpt>
      <trkpt lat="47.91154" lon="-2.46629">
        <ele>67.3</ele>
        <time>2024-12-19T11:41:08Z</time>
      </trkpt>
      <trkpt lat="47.91154" lon="-2.46629">
        <ele>67.3</ele>
        <time>2024-12-19T11:41:09Z</time>
      </trkpt>
      <trkpt lat="47.91154" lon="-2.46629">
        <ele>67.3</ele>
        <time>2024-12-19T11:41:10Z</time>
      </trkpt>
      <trkpt lat="47.91154" lon="-2.46629">
        <ele>67.3</ele>
        <time>2024-12-19T11:41:11Z</time>
      </trkpt>
      <trkpt lat="47.91154" lon="-2.46629">
        <ele>67.3</ele>
        <time>2024-12-19T11:41:12Z</time>
      </trkpt>
      <trkpt lat="47.91154" lon="-2.46629">
        <ele>67.3</ele>
        <time>2024-12-19T11:41:13Z</time>
      </trkpt>
      <trkpt lat="47.91154" lon="-2.46629">
        <ele>67.3</ele>
        <time>2024-12-19T11:41:14Z</time>
      </trkpt>
      <trkpt lat="47.91154" lon="-2.46629">
        <ele>67.3</ele>
        <time>2024-12-19T11:41:15Z</time>
      </trkpt>
      <trkpt lat="47.91154" lon="-2.46629">
        <ele>67.3</ele>
        <time>2024-12-19T11:41:16Z</time>
      </trkpt>
      <trkpt lat="47.91154" lon="-2.46629">
        <ele>67.3</ele>
        <time>2024-12-19T11:41:17Z</time>
      </trkpt>
      <trkpt lat="47.91154" lon="-2.46629">
        <ele>67.3</ele>
        <time>2024-12-19T11:41:18Z</time>
      </trkpt>
      <trkpt lat="47.91154" lon="-2.46629">
        <ele>67.3</ele>
        <time>2024-12-19T11:41:19Z</time>
      </trkpt>
      <trkpt lat="47.91154" lon="-2.46629">
        <ele>67.3</ele>
        <time>2024-12-19T11:41:20Z</time>
      </trkpt>
      <trkpt lat="47.91154" lon="-2.46629">
        <ele>67.3</ele>
        <time>2024-12-19T11:41:21Z</time>
      </trkpt>
      <trkpt lat="47.91154" lon="-2.46629">
        <ele>67.3</ele>
        <time>2024-12-19T11:41:22Z</time>
      </trkpt>
      <trkpt lat="47.91154" lon="-2.46629">
        <ele>67.3</ele>
        <time>2024-12-19T11:41:23Z</time>
      </trkpt>
      <trkpt lat="47.91154" lon="-2.46629">
        <ele>67.3</ele>
        <time>2024-12-19T11:41:24Z</time>
      </trkpt>
      <trkpt lat="47.91154" lon="-2.46629">
        <ele>67.3</ele>
        <time>2024-12-19T11:41:25Z</time>
      </trkpt>
      <trkpt lat="47.91154" lon="-2.46629">
        <ele>67.3</ele>
        <time>2024-12-19T11:41:26Z</time>
      </trkpt>
      <trkpt lat="47.91154" lon="-2.46629">
        <ele>67.3</ele>
        <time>2024-12-19T11:41:27Z</time>
      </trkpt>
      <trkpt lat="47.91154" lon="-2.46629">
        <ele>67.3</ele>
        <time>2024-12-19T11:41:28Z</time>
      </trkpt>
      <trkpt lat="47.91154" lon="-2.46629">
        <ele>67.3</ele>
        <time>2024-12-19T11:41:29Z</time>
      </trkpt>
      <trkpt lat="47.91154" lon="-2.46629">
        <ele>67.3</ele>
        <time>2024-12-19T11:41:30Z</time>
      </trkpt>
      <trkpt lat="47.91154" lon="-2.46629">
        <ele>67.3</ele>
        <time>2024-12-19T11:41:31Z</time>
      </trkpt>
      <trkpt lat="47.91154" lon="-2.46629">
        <ele>67.3</ele>
        <time>2024-12-19T11:41:32Z</time>
      </trkpt>
      <trkpt lat="47.91154" lon="-2.46629">
        <ele>67.3</ele>
        <time>2024-12-19T11:41:33Z</time>
      </trkpt>
      <trkpt lat="47.91154" lon="-2.46629">
        <ele>67.3</ele>
        <time>2024-12-19T11:41:34Z</time>
      </trkpt>
      <trkpt lat="47.91154" lon="-2.46629">
        <ele>67.3</ele>
        <time>2024-12-19T11:41:35Z</time>
      </trkpt>
      <trkpt lat="47.91154" lon="-2.46629">
        <ele>67.3</ele>
        <time>2024-12-19T11:41:36Z</time>
      </trkpt>
      <trkpt lat="47.91154" lon="-2.46629">
        <ele>67.3</ele>
        <time>2024-12-19T11:41:37Z</time>
      </trkpt>
      <trkpt lat="47.91154" lon="-2.46629">
        <ele>67.3</ele>
        <time>2024-12-19T11:41:38Z</time>
      </trkpt>
      <trkpt lat="47.91154" lon="-2.46629">
        <ele>67.3</ele>
        <time>2024-12-19T11:41:39Z</time>
      </trkpt>
      <trkpt lat="47.91154" lon="-2.46629">
        <ele>67.3</ele>
        <time>2024-12-19T11:41:40Z</time>
      </trkpt>
      <trkpt lat="47.91154" lon="-2.46629">
        <ele>67.3</ele>
        <time>2024-12-19T11:41:41Z</time>
      </trkpt>
      <trkpt lat="47.91154" lon="-2.46629">
        <ele>67.3</ele>
        <time>2024-12-19T11:41:42Z</time>
      </trkpt>
      <trkpt lat="47.91154" lon="-2.46629">
        <ele>67.3</ele>
        <time>2024-12-19T11:41:43Z</time>
      </trkpt>
      <trkpt lat="47.91154" lon="-2.46629">
        <ele>67.3</ele>
        <time>2024-12-19T11:41:44Z</time>
      </trkpt>
      <trkpt lat="47.91154" lon="-2.46629">
        <ele>67.3</ele>
        <time>2024-12-19T11:41:45Z</time>
      </trkpt>
      <trkpt lat="47.91154" lon="-2.46629">
        <ele>67.3</ele>
        <time>2024-12-19T11:41:46Z</time>
      </trkpt>
      <trkpt lat="47.91154" lon="-2.46629">
        <ele>67.3</ele>
        <time>2024-12-19T11:41:47Z</time>
      </trkpt>
      <trkpt lat="47.91154" lon="-2.46629">
        <ele>67.3</ele>
        <time>2024-12-19T11:41:48Z</time>
      </trkpt>
      <trkpt lat="47.91154" lon="-2.46629">
        <ele>67.3</ele>
        <time>2024-12-19T11:41:49Z</time>
      </trkpt>
      <trkpt lat="47.91154" lon="-2.46629">
        <ele>67.3</ele>
        <time>2024-12-19T11:41:50Z</time>
      </trkpt>
      <trkpt lat="47.91154" lon="-2.46629">
        <ele>67.3</ele>
        <time>2024-12-19T11:41:51Z</time>
      </trkpt>
      <trkpt lat="47.91154" lon="-2.46629">
        <ele>67.3</ele>
        <time>2024-12-19T11:41:52Z</time>
      </trkpt>
      <trkpt lat="47.91154" lon="-2.46629">
        <ele>67.3</ele>
        <time>2024-12-19T11:41:53Z</time>
      </trkpt>
      <trkpt lat="47.91154" lon="-2.46629">
        <ele>67.3</ele>
        <time>2024-12-19T11:41:54Z</time>
      </trkpt>
      <trkpt lat="47.91154" lon="-2.46629">
        <ele>67.3</ele>
        <time>2024-12-19T11:41:55Z</time>
      </trkpt>
      <trkpt lat="47.91154" lon="-2.46629">
        <ele>67.3</ele>
        <time>2024-12-19T11:41:56Z</time>
      </trkpt>
      <trkpt lat="47.91154" lon="-2.46629">
        <ele>67.3</ele>
        <time>2024-12-19T11:41:57Z</time>
      </trkpt>
      <trkpt lat="47.91154" lon="-2.46629">
        <ele>67.3</ele>
        <time>2024-12-19T11:41:58Z</time>
      </trkpt>
      <trkpt lat="47.91154" lon="-2.46629">
        <ele>67.3</ele>
        <time>2024-12-19T11:41:59Z</time>
      </trkpt>
      <trkpt lat="47.91154" lon="-2.46629">
        <ele>67.3</ele>
        <time>2024-12-19T11:42:00Z</time>
      </trkpt>
      <trkpt lat="47.91154" lon="-2.46629">
        <ele>67.3</ele>
        <time>2024-12-19T11:42:01Z</time>
      </trkpt>
      <trkpt lat="47.91154" lon="-2.46629">
        <ele>67.3</ele>
        <time>2024-12-19T11:42:02Z</time>
      </trkpt>
      <trkpt lat="47.91154" lon="-2.46629">
        <ele>67.3</ele>
        <time>2024-12-19T11:42:03Z</time>
      </trkpt>
      <trkpt lat="47.91154" lon="-2.46629">
        <ele>67.3</ele>
        <time>2024-12-19T11:42:04Z</time>
      </trkpt>
      <trkpt lat="47.91154" lon="-2.46629">
        <ele>67.3</ele>
        <time>2024-12-19T11:42:05Z</time>
      </trkpt>
      <trkpt lat="47.91154" lon="-2.46629">
        <ele>67.3</ele>
        <time>2024-12-19T11:42:06Z</time>
      </trkpt>
      <trkpt lat="47.91154" lon="-2.46629">
        <ele>67.3</ele>
        <time>2024-12-19T11:42:07Z</time>
      </trkpt>
      <trkpt lat="47.91154" lon="-2.46629">
        <ele>67.3</ele>
        <time>2024-12-19T11:42:08Z</time>
      </trkpt>
      <trkpt lat="47.91154" lon="-2.46629">
        <ele>67.3</ele>
        <time>2024-12-19T11:42:09Z</time>
      </trkpt>
      <trkpt lat="47.91154" lon="-2.46629">
        <ele>67.3</ele>
        <time>2024-12-19T11:42:10Z</time>
      </trkpt>
      <trkpt lat="47.91154" lon="-2.46629">
        <ele>67.3</ele>
        <time>2024-12-19T11:42:11Z</time>
      </trkpt>
      <trkpt lat="47.91154" lon="-2.46629">
        <ele>67.3</ele>
        <time>2024-12-19T11:42:12Z</time>
      </trkpt>
      <trkpt lat="47.91154" lon="-2.46629">
        <ele>67.3</ele>
        <time>2024-12-19T11:42:13Z</time>
      </trkpt>
      <trkpt lat="47.91154" lon="-2.46629">
        <ele>67.3</ele>
        <time>2024-12-19T11:42:14Z</time>
      </trkpt>
      <trkpt lat="47.91154" lon="-2.46629">
        <ele>67.3</ele>
        <time>2024-12-19T11:42:15Z</time>
      </trkpt>
      <trkpt lat="47.91154" lon="-2.46629">
        <ele>67.3</ele>
        <time>2024-12-19T11:42:16Z</time>
      </trkpt>
      <trkpt lat="47.91154" lon="-2.46629">
        <ele>67.3</ele>
        <time>2024-12-19T11:42:17Z</time>
      </trkpt>
      <trkpt lat="47.91154" lon="-2.46629">
        <ele>67.3</ele>
        <time>2024-12-19T11:42:18Z</time>
      </trkpt>
      <trkpt lat="47.91154" lon="-2.46629">
        <ele>67.3</ele>
        <time>2024-12-19T11:42:19Z</time>
      </trkpt>
      <trkpt lat="47.91154" lon="-2.46629">
        <ele>67.3</ele>
        <time>2024-12-19T11:42:20Z</time>
      </trkpt>
      <trkpt lat="47.91155" lon="-2.4663">
        <ele>67.3</ele>
        <time>2024-12-19T11:42:21Z</time>
      </trkpt>
      <trkpt lat="47.91155" lon="-2.4663">
        <ele>67.3</ele>
        <time>2024-12-19T11:42:22Z</time>
      </trkpt>
      <trkpt lat="47.91155" lon="-2.4663">
        <ele>67.3</ele>
        <time>2024-12-19T11:42:23Z</time>
      </trkpt>
      <trkpt lat="47.91155" lon="-2.4663">
        <ele>67.3</ele>
        <time>2024-12-19T11:42:24Z</time>
      </trkpt>
      <trkpt lat="47.91155" lon="-2.4663">
        <ele>67.3</ele>
        <time>2024-12-19T11:42:25Z</time>
      </trkpt>
      <trkpt lat="47.91155" lon="-2.4663">
        <ele>67.3</ele>
        <time>2024-12-19T11:42:26Z</time>
      </trkpt>
      <trkpt lat="47.91155" lon="-2.4663">
        <ele>67.3</ele>
        <time>2024-12-19T11:42:27Z</time>
      </trkpt>
      <trkpt lat="47.91155" lon="-2.4663">
        <ele>67.3</ele>
        <time>2024-12-19T11:42:28Z</time>
      </trkpt>
      <trkpt lat="47.91155" lon="-2.4663">
        <ele>67.3</ele>
        <time>2024-12-19T11:42:29Z</time>
      </trkpt>
      <trkpt lat="47.91155" lon="-2.4663">
        <ele>67.3</ele>
        <time>2024-12-19T11:42:30Z</time>
      </trkpt>
      <trkpt lat="47.91155" lon="-2.4663">
        <ele>67.4</ele>
        <time>2024-12-19T11:42:31Z</time>
      </trkpt>
      <trkpt lat="47.91155" lon="-2.4663">
        <ele>67.4</ele>
        <time>2024-12-19T11:42:32Z</time>
      </trkpt>
      <trkpt lat="47.91155" lon="-2.46629">
        <ele>67.4</ele>
        <time>2024-12-19T11:42:33Z</time>
      </trkpt>
      <trkpt lat="47.91155" lon="-2.46629">
        <ele>67.4</ele>
        <time>2024-12-19T11:42:34Z</time>
      </trkpt>
      <trkpt lat="47.91155" lon="-2.46629">
        <ele>67.3</ele>
        <time>2024-12-19T11:42:35Z</time>
      </trkpt>
      <trkpt lat="47.91155" lon="-2.46629">
        <ele>67.3</ele>
        <time>2024-12-19T11:42:36Z</time>
      </trkpt>
      <trkpt lat="47.91155" lon="-2.46629">
        <ele>67.3</ele>
        <time>2024-12-19T11:42:37Z</time>
      </trkpt>
      <trkpt lat="47.91155" lon="-2.46629">
        <ele>67.3</ele>
        <time>2024-12-19T11:42:38Z</time>
      </trkpt>
      <trkpt lat="47.91155" lon="-2.46629">
        <ele>67.3</ele>
        <time>2024-12-19T11:42:39Z</time>
      </trkpt>
      <trkpt lat="47.91155" lon="-2.46629">
        <ele>67.3</ele>
        <time>2024-12-19T11:42:40Z</time>
      </trkpt>
      <trkpt lat="47.91155" lon="-2.46629">
        <ele>67.3</ele>
        <time>2024-12-19T11:42:41Z</time>
      </trkpt>
      <trkpt lat="47.91155" lon="-2.46629">
        <ele>67.3</ele>
        <time>2024-12-19T11:42:42Z</time>
      </trkpt>
      <trkpt lat="47.91155" lon="-2.46629">
        <ele>67.3</ele>
        <time>2024-12-19T11:42:43Z</time>
      </trkpt>
      <trkpt lat="47.91155" lon="-2.46629">
        <ele>67.3</ele>
        <time>2024-12-19T11:42:44Z</time>
      </trkpt>
      <trkpt lat="47.91155" lon="-2.46629">
        <ele>67.3</ele>
        <time>2024-12-19T11:42:45Z</time>
      </trkpt>
      <trkpt lat="47.91155" lon="-2.46629">
        <ele>67.3</ele>
        <time>2024-12-19T11:42:46Z</time>
      </trkpt>
      <trkpt lat="47.91155" lon="-2.46629">
        <ele>67.3</ele>
        <time>2024-12-19T11:42:47Z</time>
      </trkpt>
      <trkpt lat="47.91155" lon="-2.46629">
        <ele>67.3</ele>
        <time>2024-12-19T11:42:48Z</time>
      </trkpt>
      <trkpt lat="47.91155" lon="-2.46629">
        <ele>67.3</ele>
        <time>2024-12-19T11:42:49Z</time>
      </trkpt>
      <trkpt lat="47.91155" lon="-2.46629">
        <ele>67.3</ele>
        <time>2024-12-19T11:42:50Z</time>
      </trkpt>
      <trkpt lat="47.91155" lon="-2.46629">
        <ele>67.3</ele>
        <time>2024-12-19T11:42:51Z</time>
      </trkpt>
      <trkpt lat="47.91155" lon="-2.46629">
        <ele>67.3</ele>
        <time>2024-12-19T11:42:52Z</time>
      </trkpt>
      <trkpt lat="47.91155" lon="-2.46629">
        <ele>67.3</ele>
        <time>2024-12-19T11:42:53Z</time>
      </trkpt>
      <trkpt lat="47.91155" lon="-2.46629">
        <ele>67.3</ele>
        <time>2024-12-19T11:42:54Z</time>
      </trkpt>
      <trkpt lat="47.91155" lon="-2.46629">
        <ele>67.3</ele>
        <time>2024-12-19T11:42:55Z</time>
      </trkpt>
      <trkpt lat="47.91155" lon="-2.46629">
        <ele>67.3</ele>
        <time>2024-12-19T11:42:56Z</time>
      </trkpt>
      <trkpt lat="47.91155" lon="-2.46629">
        <ele>67.3</ele>
        <time>2024-12-19T11:42:57Z</time>
      </trkpt>
      <trkpt lat="47.91155" lon="-2.46629">
        <ele>67.3</ele>
        <time>2024-12-19T11:42:58Z</time>
      </trkpt>
      <trkpt lat="47.91155" lon="-2.46629">
        <ele>67.3</ele>
        <time>2024-12-19T11:42:59Z</time>
      </trkpt>
      <trkpt lat="47.91155" lon="-2.46629">
        <ele>67.3</ele>
        <time>2024-12-19T11:43:00Z</time>
      </trkpt>
      <trkpt lat="47.91155" lon="-2.46629">
        <ele>67.3</ele>
        <time>2024-12-19T11:43:01Z</time>
      </trkpt>
      <trkpt lat="47.91155" lon="-2.46629">
        <ele>67.3</ele>
        <time>2024-12-19T11:43:02Z</time>
      </trkpt>
      <trkpt lat="47.91155" lon="-2.46629">
        <ele>67.3</ele>
        <time>2024-12-19T11:43:03Z</time>
      </trkpt>
      <trkpt lat="47.91155" lon="-2.46629">
        <ele>67.3</ele>
        <time>2024-12-19T11:43:04Z</time>
      </trkpt>
      <trkpt lat="47.91155" lon="-2.46629">
        <ele>67.3</ele>
        <time>2024-12-19T11:43:05Z</time>
      </trkpt>
      <trkpt lat="47.91155" lon="-2.46629">
        <ele>67.3</ele>
        <time>2024-12-19T11:43:06Z</time>
      </trkpt>
      <trkpt lat="47.91155" lon="-2.46629">
        <ele>67.3</ele>
        <time>2024-12-19T11:43:07Z</time>
      </trkpt>
      <trkpt lat="47.91155" lon="-2.46629">
        <ele>67.3</ele>
        <time>2024-12-19T11:43:08Z</time>
      </trkpt>
      <trkpt lat="47.91155" lon="-2.46629">
        <ele>67.3</ele>
        <time>2024-12-19T11:43:09Z</time>
      </trkpt>
      <trkpt lat="47.91155" lon="-2.46629">
        <ele>67.3</ele>
        <time>2024-12-19T11:43:10Z</time>
      </trkpt>
      <trkpt lat="47.91155" lon="-2.46629">
        <ele>67.3</ele>
        <time>2024-12-19T11:43:11Z</time>
      </trkpt>
      <trkpt lat="47.91155" lon="-2.46629">
        <ele>67.3</ele>
        <time>2024-12-19T11:43:12Z</time>
      </trkpt>
      <trkpt lat="47.91155" lon="-2.46629">
        <ele>67.3</ele>
        <time>2024-12-19T11:43:13Z</time>
      </trkpt>
      <trkpt lat="47.91155" lon="-2.46629">
        <ele>67.3</ele>
        <time>2024-12-19T11:43:14Z</time>
      </trkpt>
      <trkpt lat="47.91155" lon="-2.46629">
        <ele>67.3</ele>
        <time>2024-12-19T11:43:15Z</time>
      </trkpt>
      <trkpt lat="47.91155" lon="-2.46629">
        <ele>67.3</ele>
        <time>2024-12-19T11:43:16Z</time>
      </trkpt>
      <trkpt lat="47.91155" lon="-2.46629">
        <ele>67.3</ele>
        <time>2024-12-19T11:43:17Z</time>
      </trkpt>
      <trkpt lat="47.91155" lon="-2.46629">
        <ele>67.3</ele>
        <time>2024-12-19T11:43:18Z</time>
      </trkpt>
      <trkpt lat="47.91155" lon="-2.46629">
        <ele>67.3</ele>
        <time>2024-12-19T11:43:19Z</time>
      </trkpt>
      <trkpt lat="47.91155" lon="-2.46629">
        <ele>67.3</ele>
        <time>2024-12-19T11:43:20Z</time>
      </trkpt>
      <trkpt lat="47.91155" lon="-2.46629">
        <ele>67.3</ele>
        <time>2024-12-19T11:43:21Z</time>
      </trkpt>
      <trkpt lat="47.91155" lon="-2.46629">
        <ele>67.3</ele>
        <time>2024-12-19T11:43:22Z</time>
      </trkpt>
      <trkpt lat="47.91155" lon="-2.46629">
        <ele>67.3</ele>
        <time>2024-12-19T11:43:23Z</time>
      </trkpt>
      <trkpt lat="47.91155" lon="-2.46629">
        <ele>67.3</ele>
        <time>2024-12-19T11:43:24Z</time>
      </trkpt>
      <trkpt lat="47.91155" lon="-2.46629">
        <ele>67.3</ele>
        <time>2024-12-19T11:43:25Z</time>
      </trkpt>
      <trkpt lat="47.91155" lon="-2.46629">
        <ele>67.3</ele>
        <time>2024-12-19T11:43:26Z</time>
      </trkpt>
      <trkpt lat="47.91155" lon="-2.46629">
        <ele>67.3</ele>
        <time>2024-12-19T11:43:27Z</time>
      </trkpt>
      <trkpt lat="47.91155" lon="-2.46629">
        <ele>67.3</ele>
        <time>2024-12-19T11:43:28Z</time>
      </trkpt>
      <trkpt lat="47.91155" lon="-2.46629">
        <ele>67.3</ele>
        <time>2024-12-19T11:43:29Z</time>
      </trkpt>
      <trkpt lat="47.91155" lon="-2.46629">
        <ele>67.3</ele>
        <time>2024-12-19T11:43:30Z</time>
      </trkpt>
      <trkpt lat="47.91155" lon="-2.46629">
        <ele>67.3</ele>
        <time>2024-12-19T11:43:31Z</time>
      </trkpt>
      <trkpt lat="47.91155" lon="-2.46629">
        <ele>67.3</ele>
        <time>2024-12-19T11:43:32Z</time>
      </trkpt>
      <trkpt lat="47.91155" lon="-2.46629">
        <ele>67.3</ele>
        <time>2024-12-19T11:43:33Z</time>
      </trkpt>
      <trkpt lat="47.91155" lon="-2.46629">
        <ele>67.3</ele>
        <time>2024-12-19T11:43:34Z</time>
      </trkpt>
      <trkpt lat="47.91155" lon="-2.46629">
        <ele>67.3</ele>
        <time>2024-12-19T11:43:35Z</time>
      </trkpt>
      <trkpt lat="47.91155" lon="-2.46629">
        <ele>67.3</ele>
        <time>2024-12-19T11:43:36Z</time>
      </trkpt>
      <trkpt lat="47.91155" lon="-2.46629">
        <ele>67.3</ele>
        <time>2024-12-19T11:43:37Z</time>
      </trkpt>
      <trkpt lat="47.91155" lon="-2.46629">
        <ele>67.3</ele>
        <time>2024-12-19T11:43:38Z</time>
      </trkpt>
      <trkpt lat="47.91155" lon="-2.46629">
        <ele>67.3</ele>
        <time>2024-12-19T11:43:39Z</time>
      </trkpt>
      <trkpt lat="47.91155" lon="-2.46629">
        <ele>67.3</ele>
        <time>2024-12-19T11:43:40Z</time>
      </trkpt>
      <trkpt lat="47.91155" lon="-2.46629">
        <ele>67.3</ele>
        <time>2024-12-19T11:43:41Z</time>
      </trkpt>
      <trkpt lat="47.91155" lon="-2.46629">
        <ele>67.3</ele>
        <time>2024-12-19T11:43:42Z</time>
      </trkpt>
      <trkpt lat="47.91155" lon="-2.46629">
        <ele>67.3</ele>
        <time>2024-12-19T11:43:43Z</time>
      </trkpt>
      <trkpt lat="47.91155" lon="-2.46629">
        <ele>67.3</ele>
        <time>2024-12-19T11:43:44Z</time>
      </trkpt>
      <trkpt lat="47.91155" lon="-2.46629">
        <ele>67.3</ele>
        <time>2024-12-19T11:43:45Z</time>
      </trkpt>
      <trkpt lat="47.91155" lon="-2.46629">
        <ele>67.3</ele>
        <time>2024-12-19T11:43:46Z</time>
      </trkpt>
      <trkpt lat="47.91155" lon="-2.46629">
        <ele>67.3</ele>
        <time>2024-12-19T11:43:47Z</time>
      </trkpt>
      <trkpt lat="47.91155" lon="-2.46629">
        <ele>67.3</ele>
        <time>2024-12-19T11:43:48Z</time>
      </trkpt>
      <trkpt lat="47.91155" lon="-2.46629">
        <ele>67.3</ele>
        <time>2024-12-19T11:43:49Z</time>
      </trkpt>
      <trkpt lat="47.91155" lon="-2.46629">
        <ele>67.3</ele>
        <time>2024-12-19T11:43:50Z</time>
      </trkpt>
      <trkpt lat="47.91155" lon="-2.46629">
        <ele>67.3</ele>
        <time>2024-12-19T11:43:51Z</time>
      </trkpt>
      <trkpt lat="47.91155" lon="-2.46629">
        <ele>67.3</ele>
        <time>2024-12-19T11:43:52Z</time>
      </trkpt>
      <trkpt lat="47.91155" lon="-2.46629">
        <ele>67.3</ele>
        <time>2024-12-19T11:43:53Z</time>
      </trkpt>
      <trkpt lat="47.91155" lon="-2.46629">
        <ele>67.3</ele>
        <time>2024-12-19T11:43:54Z</time>
      </trkpt>
      <trkpt lat="47.91155" lon="-2.46629">
        <ele>67.3</ele>
        <time>2024-12-19T11:43:55Z</time>
      </trkpt>
      <trkpt lat="47.91155" lon="-2.46629">
        <ele>67.3</ele>
        <time>2024-12-19T11:43:56Z</time>
      </trkpt>
      <trkpt lat="47.91155" lon="-2.46629">
        <ele>67.3</ele>
        <time>2024-12-19T11:43:57Z</time>
      </trkpt>
      <trkpt lat="47.91155" lon="-2.46629">
        <ele>67.3</ele>
        <time>2024-12-19T11:43:58Z</time>
      </trkpt>
      <trkpt lat="47.91155" lon="-2.46629">
        <ele>67.3</ele>
        <time>2024-12-19T11:43:59Z</time>
      </trkpt>
      <trkpt lat="47.91155" lon="-2.46629">
        <ele>67.3</ele>
        <time>2024-12-19T11:44:00Z</time>
      </trkpt>
      <trkpt lat="47.91155" lon="-2.46629">
        <ele>67.3</ele>
        <time>2024-12-19T11:44:01Z</time>
      </trkpt>
      <trkpt lat="47.91155" lon="-2.46629">
        <ele>67.3</ele>
        <time>2024-12-19T11:44:02Z</time>
      </trkpt>
      <trkpt lat="47.91155" lon="-2.46629">
        <ele>67.3</ele>
        <time>2024-12-19T11:44:03Z</time>
      </trkpt>
      <trkpt lat="47.91155" lon="-2.46629">
        <ele>67.3</ele>
        <time>2024-12-19T11:44:04Z</time>
      </trkpt>
      <trkpt lat="47.91155" lon="-2.46629">
        <ele>67.3</ele>
        <time>2024-12-19T11:44:05Z</time>
      </trkpt>
      <trkpt lat="47.91155" lon="-2.46629">
        <ele>67.3</ele>
        <time>2024-12-19T11:44:06Z</time>
      </trkpt>
      <trkpt lat="47.91155" lon="-2.46629">
        <ele>67.3</ele>
        <time>2024-12-19T11:44:07Z</time>
      </trkpt>
      <trkpt lat="47.91155" lon="-2.46629">
        <ele>67.3</ele>
        <time>2024-12-19T11:44:08Z</time>
      </trkpt>
      <trkpt lat="47.91155" lon="-2.46629">
        <ele>67.3</ele>
        <time>2024-12-19T11:44:09Z</time>
      </trkpt>
      <trkpt lat="47.91155" lon="-2.46629">
        <ele>67.3</ele>
        <time>2024-12-19T11:44:10Z</time>
      </trkpt>
      <trkpt lat="47.91155" lon="-2.46629">
        <ele>67.3</ele>
        <time>2024-12-19T11:44:11Z</time>
      </trkpt>
      <trkpt lat="47.91155" lon="-2.46629">
        <ele>67.3</ele>
        <time>2024-12-19T11:44:12Z</time>
      </trkpt>
      <trkpt lat="47.91155" lon="-2.46629">
        <ele>67.3</ele>
        <time>2024-12-19T11:44:13Z</time>
      </trkpt>
      <trkpt lat="47.91155" lon="-2.46629">
        <ele>67.3</ele>
        <time>2024-12-19T11:44:14Z</time>
      </trkpt>
      <trkpt lat="47.91155" lon="-2.46629">
        <ele>67.3</ele>
        <time>2024-12-19T11:44:15Z</time>
      </trkpt>
      <trkpt lat="47.91155" lon="-2.4663">
        <ele>67.3</ele>
        <time>2024-12-19T11:44:16Z</time>
      </trkpt>
      <trkpt lat="47.91155" lon="-2.4663">
        <ele>67.3</ele>
        <time>2024-12-19T11:44:17Z</time>
      </trkpt>
      <trkpt lat="47.91155" lon="-2.4663">
        <ele>67.3</ele>
        <time>2024-12-19T11:44:18Z</time>
      </trkpt>
      <trkpt lat="47.91155" lon="-2.4663">
        <ele>67.3</ele>
        <time>2024-12-19T11:44:19Z</time>
      </trkpt>
      <trkpt lat="47.91155" lon="-2.4663">
        <ele>67.3</ele>
        <time>2024-12-19T11:44:20Z</time>
      </trkpt>
      <trkpt lat="47.91155" lon="-2.4663">
        <ele>67.3</ele>
        <time>2024-12-19T11:44:21Z</time>
      </trkpt>
      <trkpt lat="47.91155" lon="-2.4663">
        <ele>67.3</ele>
        <time>2024-12-19T11:44:22Z</time>
      </trkpt>
      <trkpt lat="47.91155" lon="-2.4663">
        <ele>67.3</ele>
        <time>2024-12-19T11:44:23Z</time>
      </trkpt>
      <trkpt lat="47.91155" lon="-2.4663">
        <ele>67.3</ele>
        <time>2024-12-19T11:44:24Z</time>
      </trkpt>
      <trkpt lat="47.91155" lon="-2.4663">
        <ele>67.3</ele>
        <time>2024-12-19T11:44:25Z</time>
      </trkpt>
      <trkpt lat="47.91155" lon="-2.4663">
        <ele>67.3</ele>
        <time>2024-12-19T11:44:26Z</time>
      </trkpt>
      <trkpt lat="47.91155" lon="-2.4663">
        <ele>67.3</ele>
        <time>2024-12-19T11:44:27Z</time>
      </trkpt>
      <trkpt lat="47.91155" lon="-2.4663">
        <ele>67.3</ele>
        <time>2024-12-19T11:44:28Z</time>
      </trkpt>
      <trkpt lat="47.91155" lon="-2.4663">
        <ele>67.3</ele>
        <time>2024-12-19T11:44:29Z</time>
      </trkpt>
      <trkpt lat="47.91155" lon="-2.4663">
        <ele>67.3</ele>
        <time>2024-12-19T11:44:30Z</time>
      </trkpt>
      <trkpt lat="47.91155" lon="-2.4663">
        <ele>67.3</ele>
        <time>2024-12-19T11:44:31Z</time>
      </trkpt>
      <trkpt lat="47.91155" lon="-2.4663">
        <ele>67.3</ele>
        <time>2024-12-19T11:44:32Z</time>
      </trkpt>
      <trkpt lat="47.91155" lon="-2.4663">
        <ele>67.3</ele>
        <time>2024-12-19T11:44:33Z</time>
      </trkpt>
      <trkpt lat="47.91155" lon="-2.4663">
        <ele>67.3</ele>
        <time>2024-12-19T11:44:34Z</time>
      </trkpt>
      <trkpt lat="47.91155" lon="-2.4663">
        <ele>67.3</ele>
        <time>2024-12-19T11:44:35Z</time>
      </trkpt>
      <trkpt lat="47.91155" lon="-2.4663">
        <ele>67.3</ele>
        <time>2024-12-19T11:44:36Z</time>
      </trkpt>
      <trkpt lat="47.91155" lon="-2.4663">
        <ele>67.3</ele>
        <time>2024-12-19T11:44:37Z</time>
      </trkpt>
      <trkpt lat="47.91155" lon="-2.4663">
        <ele>67.3</ele>
        <time>2024-12-19T11:44:38Z</time>
      </trkpt>
      <trkpt lat="47.91155" lon="-2.4663">
        <ele>67.3</ele>
        <time>2024-12-19T11:44:39Z</time>
      </trkpt>
      <trkpt lat="47.91155" lon="-2.4663">
        <ele>67.3</ele>
        <time>2024-12-19T11:44:40Z</time>
      </trkpt>
      <trkpt lat="47.91155" lon="-2.4663">
        <ele>67.3</ele>
        <time>2024-12-19T11:44:41Z</time>
      </trkpt>
      <trkpt lat="47.91155" lon="-2.4663">
        <ele>67.3</ele>
        <time>2024-12-19T11:44:42Z</time>
      </trkpt>
      <trkpt lat="47.91155" lon="-2.4663">
        <ele>67.3</ele>
        <time>2024-12-19T11:44:43Z</time>
      </trkpt>
      <trkpt lat="47.91155" lon="-2.4663">
        <ele>67.3</ele>
        <time>2024-12-19T11:44:44Z</time>
      </trkpt>
      <trkpt lat="47.91155" lon="-2.4663">
        <ele>67.3</ele>
        <time>2024-12-19T11:44:45Z</time>
      </trkpt>
      <trkpt lat="47.91155" lon="-2.4663">
        <ele>67.3</ele>
        <time>2024-12-19T11:44:46Z</time>
      </trkpt>
      <trkpt lat="47.91155" lon="-2.4663">
        <ele>67.3</ele>
        <time>2024-12-19T11:44:47Z</time>
      </trkpt>
      <trkpt lat="47.91155" lon="-2.4663">
        <ele>67.3</ele>
        <time>2024-12-19T11:44:48Z</time>
      </trkpt>
      <trkpt lat="47.91155" lon="-2.4663">
        <ele>67.3</ele>
        <time>2024-12-19T11:44:49Z</time>
      </trkpt>
      <trkpt lat="47.91155" lon="-2.4663">
        <ele>67.3</ele>
        <time>2024-12-19T11:44:50Z</time>
      </trkpt>
      <trkpt lat="47.91155" lon="-2.4663">
        <ele>67.3</ele>
        <time>2024-12-19T11:44:51Z</time>
      </trkpt>
      <trkpt lat="47.91155" lon="-2.4663">
        <ele>67.3</ele>
        <time>2024-12-19T11:44:52Z</time>
      </trkpt>
      <trkpt lat="47.91155" lon="-2.4663">
        <ele>67.3</ele>
        <time>2024-12-19T11:44:53Z</time>
      </trkpt>
      <trkpt lat="47.91155" lon="-2.4663">
        <ele>67.3</ele>
        <time>2024-12-19T11:44:54Z</time>
      </trkpt>
      <trkpt lat="47.91155" lon="-2.4663">
        <ele>67.3</ele>
        <time>2024-12-19T11:44:55Z</time>
      </trkpt>
      <trkpt lat="47.91155" lon="-2.4663">
        <ele>67.3</ele>
        <time>2024-12-19T11:44:56Z</time>
      </trkpt>
      <trkpt lat="47.91155" lon="-2.4663">
        <ele>67.3</ele>
        <time>2024-12-19T11:44:57Z</time>
      </trkpt>
      <trkpt lat="47.91155" lon="-2.4663">
        <ele>67.3</ele>
        <time>2024-12-19T11:44:58Z</time>
      </trkpt>
      <trkpt lat="47.91155" lon="-2.4663">
        <ele>67.3</ele>
        <time>2024-12-19T11:44:59Z</time>
      </trkpt>
      <trkpt lat="47.91155" lon="-2.4663">
        <ele>67.3</ele>
        <time>2024-12-19T11:45:00Z</time>
      </trkpt>
      <trkpt lat="47.91155" lon="-2.4663">
        <ele>67.3</ele>
        <time>2024-12-19T11:45:01Z</time>
      </trkpt>
      <trkpt lat="47.91155" lon="-2.4663">
        <ele>67.3</ele>
        <time>2024-12-19T11:45:02Z</time>
      </trkpt>
      <trkpt lat="47.91155" lon="-2.4663">
        <ele>67.3</ele>
        <time>2024-12-19T11:45:03Z</time>
      </trkpt>
      <trkpt lat="47.91155" lon="-2.4663">
        <ele>67.3</ele>
        <time>2024-12-19T11:45:04Z</time>
      </trkpt>
      <trkpt lat="47.91155" lon="-2.4663">
        <ele>67.3</ele>
        <time>2024-12-19T11:45:05Z</time>
      </trkpt>
      <trkpt lat="47.91155" lon="-2.4663">
        <ele>67.3</ele>
        <time>2024-12-19T11:45:06Z</time>
      </trkpt>
      <trkpt lat="47.91155" lon="-2.4663">
        <ele>67.3</ele>
        <time>2024-12-19T11:45:07Z</time>
      </trkpt>
      <trkpt lat="47.91155" lon="-2.4663">
        <ele>67.3</ele>
        <time>2024-12-19T11:45:08Z</time>
      </trkpt>
      <trkpt lat="47.91154" lon="-2.4663">
        <ele>67.3</ele>
        <time>2024-12-19T11:45:09Z</time>
      </trkpt>
      <trkpt lat="47.91154" lon="-2.46629">
        <ele>67.3</ele>
        <time>2024-12-19T11:45:10Z</time>
      </trkpt>
      <trkpt lat="47.91154" lon="-2.46629">
        <ele>67.3</ele>
        <time>2024-12-19T11:45:11Z</time>
      </trkpt>
      <trkpt lat="47.91154" lon="-2.46629">
        <ele>67.3</ele>
        <time>2024-12-19T11:45:12Z</time>
      </trkpt>
      <trkpt lat="47.91154" lon="-2.46629">
        <ele>67.3</ele>
        <time>2024-12-19T11:45:13Z</time>
      </trkpt>
      <trkpt lat="47.91154" lon="-2.46629">
        <ele>67.3</ele>
        <time>2024-12-19T11:45:14Z</time>
      </trkpt>
      <trkpt lat="47.91154" lon="-2.46629">
        <ele>67.3</ele>
        <time>2024-12-19T11:45:15Z</time>
      </trkpt>
      <trkpt lat="47.91154" lon="-2.46629">
        <ele>67.2</ele>
        <time>2024-12-19T11:45:16Z</time>
      </trkpt>
      <trkpt lat="47.91154" lon="-2.46629">
        <ele>67.2</ele>
        <time>2024-12-19T11:45:17Z</time>
      </trkpt>
      <trkpt lat="47.91154" lon="-2.4663">
        <ele>67.2</ele>
        <time>2024-12-19T11:45:18Z</time>
      </trkpt>
      <trkpt lat="47.91154" lon="-2.4663">
        <ele>67.2</ele>
        <time>2024-12-19T11:45:19Z</time>
      </trkpt>
      <trkpt lat="47.91154" lon="-2.4663">
        <ele>67.2</ele>
        <time>2024-12-19T11:45:20Z</time>
      </trkpt>
      <trkpt lat="47.91154" lon="-2.4663">
        <ele>67.3</ele>
        <time>2024-12-19T11:45:21Z</time>
      </trkpt>
      <trkpt lat="47.91154" lon="-2.4663">
        <ele>67.3</ele>
        <time>2024-12-19T11:45:22Z</time>
      </trkpt>
      <trkpt lat="47.91154" lon="-2.4663">
        <ele>67.3</ele>
        <time>2024-12-19T11:45:23Z</time>
      </trkpt>
      <trkpt lat="47.91154" lon="-2.4663">
        <ele>67.3</ele>
        <time>2024-12-19T11:45:24Z</time>
      </trkpt>
      <trkpt lat="47.91154" lon="-2.4663">
        <ele>67.3</ele>
        <time>2024-12-19T11:45:25Z</time>
      </trkpt>
      <trkpt lat="47.91154" lon="-2.4663">
        <ele>67.3</ele>
        <time>2024-12-19T11:45:26Z</time>
      </trkpt>
      <trkpt lat="47.91154" lon="-2.4663">
        <ele>67.3</ele>
        <time>2024-12-19T11:45:27Z</time>
      </trkpt>
      <trkpt lat="47.91154" lon="-2.4663">
        <ele>67.2</ele>
        <time>2024-12-19T11:45:28Z</time>
      </trkpt>
      <trkpt lat="47.91154" lon="-2.4663">
        <ele>67.2</ele>
        <time>2024-12-19T11:45:29Z</time>
      </trkpt>
      <trkpt lat="47.91154" lon="-2.4663">
        <ele>67.2</ele>
        <time>2024-12-19T11:45:30Z</time>
      </trkpt>
      <trkpt lat="47.91154" lon="-2.4663">
        <ele>67.2</ele>
        <time>2024-12-19T11:45:31Z</time>
      </trkpt>
      <trkpt lat="47.91154" lon="-2.4663">
        <ele>67.2</ele>
        <time>2024-12-19T11:45:32Z</time>
      </trkpt>
      <trkpt lat="47.91154" lon="-2.4663">
        <ele>67.2</ele>
        <time>2024-12-19T11:45:33Z</time>
      </trkpt>
      <trkpt lat="47.91154" lon="-2.4663">
        <ele>67.2</ele>
        <time>2024-12-19T11:45:34Z</time>
      </trkpt>
      <trkpt lat="47.91154" lon="-2.4663">
        <ele>67.2</ele>
        <time>2024-12-19T11:45:35Z</time>
      </trkpt>
      <trkpt lat="47.91154" lon="-2.4663">
        <ele>67.2</ele>
        <time>2024-12-19T11:45:36Z</time>
      </trkpt>
      <trkpt lat="47.91154" lon="-2.4663">
        <ele>67.2</ele>
        <time>2024-12-19T11:45:37Z</time>
      </trkpt>
      <trkpt lat="47.91154" lon="-2.4663">
        <ele>67.2</ele>
        <time>2024-12-19T11:45:38Z</time>
      </trkpt>
      <trkpt lat="47.91154" lon="-2.4663">
        <ele>67.2</ele>
        <time>2024-12-19T11:45:39Z</time>
      </trkpt>
      <trkpt lat="47.91154" lon="-2.4663">
        <ele>67.2</ele>
        <time>2024-12-19T11:45:40Z</time>
      </trkpt>
      <trkpt lat="47.91154" lon="-2.4663">
        <ele>67.2</ele>
        <time>2024-12-19T11:45:41Z</time>
      </trkpt>
      <trkpt lat="47.91154" lon="-2.4663">
        <ele>67.2</ele>
        <time>2024-12-19T11:45:42Z</time>
      </trkpt>
      <trkpt lat="47.91154" lon="-2.4663">
        <ele>67.2</ele>
        <time>2024-12-19T11:45:43Z</time>
      </trkpt>
      <trkpt lat="47.91154" lon="-2.4663">
        <ele>67.2</ele>
        <time>2024-12-19T11:45:44Z</time>
      </trkpt>
      <trkpt lat="47.91154" lon="-2.4663">
        <ele>67.2</ele>
        <time>2024-12-19T11:45:45Z</time>
      </trkpt>
      <trkpt lat="47.91154" lon="-2.4663">
        <ele>67.2</ele>
        <time>2024-12-19T11:45:46Z</time>
      </trkpt>
      <trkpt lat="47.91154" lon="-2.4663">
        <ele>67.2</ele>
        <time>2024-12-19T11:45:47Z</time>
      </trkpt>
      <trkpt lat="47.91154" lon="-2.4663">
        <ele>67.2</ele>
        <time>2024-12-19T11:45:48Z</time>
      </trkpt>
      <trkpt lat="47.91154" lon="-2.4663">
        <ele>67.2</ele>
        <time>2024-12-19T11:45:49Z</time>
      </trkpt>
      <trkpt lat="47.91154" lon="-2.4663">
        <ele>67.2</ele>
        <time>2024-12-19T11:45:50Z</time>
      </trkpt>
      <trkpt lat="47.91154" lon="-2.4663">
        <ele>67.2</ele>
        <time>2024-12-19T11:45:51Z</time>
      </trkpt>
      <trkpt lat="47.91154" lon="-2.4663">
        <ele>67.2</ele>
        <time>2024-12-19T11:45:52Z</time>
      </trkpt>
      <trkpt lat="47.91154" lon="-2.4663">
        <ele>67.2</ele>
        <time>2024-12-19T11:45:53Z</time>
      </trkpt>
      <trkpt lat="47.91154" lon="-2.4663">
        <ele>67.2</ele>
        <time>2024-12-19T11:45:54Z</time>
      </trkpt>
      <trkpt lat="47.91154" lon="-2.4663">
        <ele>67.2</ele>
        <time>2024-12-19T11:45:55Z</time>
      </trkpt>
      <trkpt lat="47.91154" lon="-2.4663">
        <ele>67.2</ele>
        <time>2024-12-19T11:45:56Z</time>
      </trkpt>
      <trkpt lat="47.91154" lon="-2.4663">
        <ele>67.2</ele>
        <time>2024-12-19T11:45:57Z</time>
      </trkpt>
      <trkpt lat="47.91154" lon="-2.4663">
        <ele>67.2</ele>
        <time>2024-12-19T11:45:58Z</time>
      </trkpt>
      <trkpt lat="47.91154" lon="-2.4663">
        <ele>67.2</ele>
        <time>2024-12-19T11:45:59Z</time>
      </trkpt>
      <trkpt lat="47.91154" lon="-2.4663">
        <ele>67.2</ele>
        <time>2024-12-19T11:46:00Z</time>
      </trkpt>
      <trkpt lat="47.91154" lon="-2.4663">
        <ele>67.2</ele>
        <time>2024-12-19T11:46:01Z</time>
      </trkpt>
      <trkpt lat="47.91154" lon="-2.4663">
        <ele>67.2</ele>
        <time>2024-12-19T11:46:02Z</time>
      </trkpt>
      <trkpt lat="47.91154" lon="-2.4663">
        <ele>67.2</ele>
        <time>2024-12-19T11:46:03Z</time>
      </trkpt>
      <trkpt lat="47.91154" lon="-2.4663">
        <ele>67.2</ele>
        <time>2024-12-19T11:46:04Z</time>
      </trkpt>
      <trkpt lat="47.91154" lon="-2.4663">
        <ele>67.2</ele>
        <time>2024-12-19T11:46:05Z</time>
      </trkpt>
      <trkpt lat="47.91154" lon="-2.4663">
        <ele>67.2</ele>
        <time>2024-12-19T11:46:06Z</time>
      </trkpt>
      <trkpt lat="47.91154" lon="-2.4663">
        <ele>67.2</ele>
        <time>2024-12-19T11:46:07Z</time>
      </trkpt>
      <trkpt lat="47.91154" lon="-2.4663">
        <ele>67.2</ele>
        <time>2024-12-19T11:46:08Z</time>
      </trkpt>
      <trkpt lat="47.91154" lon="-2.4663">
        <ele>67.2</ele>
        <time>2024-12-19T11:46:09Z</time>
      </trkpt>
      <trkpt lat="47.91154" lon="-2.4663">
        <ele>67.2</ele>
        <time>2024-12-19T11:46:10Z</time>
      </trkpt>
      <trkpt lat="47.91154" lon="-2.4663">
        <ele>67.2</ele>
        <time>2024-12-19T11:46:11Z</time>
      </trkpt>
      <trkpt lat="47.91154" lon="-2.4663">
        <ele>67.2</ele>
        <time>2024-12-19T11:46:12Z</time>
      </trkpt>
      <trkpt lat="47.91154" lon="-2.4663">
        <ele>67.2</ele>
        <time>2024-12-19T11:46:13Z</time>
      </trkpt>
      <trkpt lat="47.91154" lon="-2.4663">
        <ele>67.2</ele>
        <time>2024-12-19T11:46:14Z</time>
      </trkpt>
      <trkpt lat="47.91154" lon="-2.4663">
        <ele>67.2</ele>
        <time>2024-12-19T11:46:15Z</time>
      </trkpt>
      <trkpt lat="47.91154" lon="-2.4663">
        <ele>67.2</ele>
        <time>2024-12-19T11:46:16Z</time>
      </trkpt>
      <trkpt lat="47.91154" lon="-2.4663">
        <ele>67.2</ele>
        <time>2024-12-19T11:46:17Z</time>
      </trkpt>
      <trkpt lat="47.91154" lon="-2.4663">
        <ele>67.2</ele>
        <time>2024-12-19T11:46:18Z</time>
      </trkpt>
      <trkpt lat="47.91154" lon="-2.4663">
        <ele>67.2</ele>
        <time>2024-12-19T11:46:19Z</time>
      </trkpt>
      <trkpt lat="47.91154" lon="-2.4663">
        <ele>67.2</ele>
        <time>2024-12-19T11:46:20Z</time>
      </trkpt>
      <trkpt lat="47.91154" lon="-2.4663">
        <ele>67.2</ele>
        <time>2024-12-19T11:46:21Z</time>
      </trkpt>
      <trkpt lat="47.91154" lon="-2.4663">
        <ele>67.2</ele>
        <time>2024-12-19T11:46:22Z</time>
      </trkpt>
      <trkpt lat="47.91154" lon="-2.4663">
        <ele>67.2</ele>
        <time>2024-12-19T11:46:23Z</time>
      </trkpt>
      <trkpt lat="47.91154" lon="-2.4663">
        <ele>67.2</ele>
        <time>2024-12-19T11:46:24Z</time>
      </trkpt>
      <trkpt lat="47.91154" lon="-2.4663">
        <ele>67.2</ele>
        <time>2024-12-19T11:46:25Z</time>
      </trkpt>
      <trkpt lat="47.91154" lon="-2.4663">
        <ele>67.2</ele>
        <time>2024-12-19T11:46:26Z</time>
      </trkpt>
      <trkpt lat="47.91154" lon="-2.4663">
        <ele>67.2</ele>
        <time>2024-12-19T11:46:27Z</time>
      </trkpt>
      <trkpt lat="47.91154" lon="-2.4663">
        <ele>67.2</ele>
        <time>2024-12-19T11:46:28Z</time>
      </trkpt>
      <trkpt lat="47.91154" lon="-2.4663">
        <ele>67.2</ele>
        <time>2024-12-19T11:46:29Z</time>
      </trkpt>
      <trkpt lat="47.91154" lon="-2.4663">
        <ele>67.2</ele>
        <time>2024-12-19T11:46:30Z</time>
      </trkpt>
      <trkpt lat="47.91154" lon="-2.4663">
        <ele>67.2</ele>
        <time>2024-12-19T11:46:31Z</time>
      </trkpt>
      <trkpt lat="47.91154" lon="-2.4663">
        <ele>67.2</ele>
        <time>2024-12-19T11:46:32Z</time>
      </trkpt>
      <trkpt lat="47.91154" lon="-2.4663">
        <ele>67.2</ele>
        <time>2024-12-19T11:46:33Z</time>
      </trkpt>
      <trkpt lat="47.91154" lon="-2.4663">
        <ele>67.2</ele>
        <time>2024-12-19T11:46:34Z</time>
      </trkpt>
      <trkpt lat="47.91154" lon="-2.4663">
        <ele>67.2</ele>
        <time>2024-12-19T11:46:35Z</time>
      </trkpt>
      <trkpt lat="47.91154" lon="-2.4663">
        <ele>67.2</ele>
        <time>2024-12-19T11:46:36Z</time>
      </trkpt>
      <trkpt lat="47.91154" lon="-2.4663">
        <ele>67.2</ele>
        <time>2024-12-19T11:46:39Z</time>
      </trkpt>
      <trkpt lat="47.91154" lon="-2.4663">
        <ele>67.2</ele>
        <time>2024-12-19T11:46:40Z</time>
      </trkpt>
      <trkpt lat="47.91154" lon="-2.4663">
        <ele>67.2</ele>
        <time>2024-12-19T11:46:41Z</time>
      </trkpt>
      <trkpt lat="47.91154" lon="-2.4663">
        <ele>67.2</ele>
        <time>2024-12-19T11:46:42Z</time>
      </trkpt>
      <trkpt lat="47.91154" lon="-2.4663">
        <ele>67.2</ele>
        <time>2024-12-19T11:46:43Z</time>
      </trkpt>
      <trkpt lat="47.91154" lon="-2.4663">
        <ele>67.2</ele>
        <time>2024-12-19T11:46:44Z</time>
      </trkpt>
      <trkpt lat="47.91154" lon="-2.4663">
        <ele>67.2</ele>
        <time>2024-12-19T11:46:45Z</time>
      </trkpt>
      <trkpt lat="47.91154" lon="-2.4663">
        <ele>67.2</ele>
        <time>2024-12-19T11:46:46Z</time>
      </trkpt>
      <trkpt lat="47.91154" lon="-2.4663">
        <ele>67.2</ele>
        <time>2024-12-19T11:46:47Z</time>
      </trkpt>
      <trkpt lat="47.91154" lon="-2.4663">
        <ele>67.2</ele>
        <time>2024-12-19T11:46:48Z</time>
      </trkpt>
      <trkpt lat="47.91154" lon="-2.4663">
        <ele>67.2</ele>
        <time>2024-12-19T11:46:49Z</time>
      </trkpt>
      <trkpt lat="47.91154" lon="-2.4663">
        <ele>67.2</ele>
        <time>2024-12-19T11:46:50Z</time>
      </trkpt>
      <trkpt lat="47.91154" lon="-2.4663">
        <ele>67.2</ele>
        <time>2024-12-19T11:46:51Z</time>
      </trkpt>
      <trkpt lat="47.91154" lon="-2.4663">
        <ele>67.2</ele>
        <time>2024-12-19T11:46:52Z</time>
      </trkpt>
      <trkpt lat="47.91154" lon="-2.4663">
        <ele>67.2</ele>
        <time>2024-12-19T11:46:53Z</time>
      </trkpt>
      <trkpt lat="47.91154" lon="-2.4663">
        <ele>67.2</ele>
        <time>2024-12-19T11:46:54Z</time>
      </trkpt>
      <trkpt lat="47.91154" lon="-2.4663">
        <ele>67.2</ele>
        <time>2024-12-19T11:46:55Z</time>
      </trkpt>
      <trkpt lat="47.91154" lon="-2.4663">
        <ele>67.2</ele>
        <time>2024-12-19T11:46:56Z</time>
      </trkpt>
      <trkpt lat="47.91154" lon="-2.4663">
        <ele>67.2</ele>
        <time>2024-12-19T11:46:57Z</time>
      </trkpt>
      <trkpt lat="47.91154" lon="-2.4663">
        <ele>67.2</ele>
        <time>2024-12-19T11:46:58Z</time>
      </trkpt>
      <trkpt lat="47.91154" lon="-2.4663">
        <ele>67.2</ele>
        <time>2024-12-19T11:46:59Z</time>
      </trkpt>
      <trkpt lat="47.91154" lon="-2.4663">
        <ele>67.2</ele>
        <time>2024-12-19T11:47:00Z</time>
      </trkpt>
      <trkpt lat="47.91154" lon="-2.4663">
        <ele>67.2</ele>
        <time>2024-12-19T11:47:01Z</time>
      </trkpt>
      <trkpt lat="47.91154" lon="-2.4663">
        <ele>67.2</ele>
        <time>2024-12-19T11:47:02Z</time>
      </trkpt>
      <trkpt lat="47.91154" lon="-2.4663">
        <ele>67.2</ele>
        <time>2024-12-19T11:47:03Z</time>
      </trkpt>
      <trkpt lat="47.91154" lon="-2.4663">
        <ele>67.2</ele>
        <time>2024-12-19T11:47:04Z</time>
      </trkpt>
      <trkpt lat="47.91154" lon="-2.4663">
        <ele>67.2</ele>
        <time>2024-12-19T11:47:05Z</time>
      </trkpt>
      <trkpt lat="47.91154" lon="-2.4663">
        <ele>67.2</ele>
        <time>2024-12-19T11:47:06Z</time>
      </trkpt>
      <trkpt lat="47.91154" lon="-2.4663">
        <ele>67.2</ele>
        <time>2024-12-19T11:47:07Z</time>
      </trkpt>
      <trkpt lat="47.91154" lon="-2.4663">
        <ele>67.2</ele>
        <time>2024-12-19T11:47:08Z</time>
      </trkpt>
      <trkpt lat="47.91154" lon="-2.4663">
        <ele>67.2</ele>
        <time>2024-12-19T11:47:09Z</time>
      </trkpt>
      <trkpt lat="47.91154" lon="-2.4663">
        <ele>67.2</ele>
        <time>2024-12-19T11:47:10Z</time>
      </trkpt>
      <trkpt lat="47.91154" lon="-2.4663">
        <ele>67.2</ele>
        <time>2024-12-19T11:47:11Z</time>
      </trkpt>
      <trkpt lat="47.91154" lon="-2.4663">
        <ele>67.2</ele>
        <time>2024-12-19T11:47:12Z</time>
      </trkpt>
      <trkpt lat="47.91154" lon="-2.4663">
        <ele>67.2</ele>
        <time>2024-12-19T11:47:13Z</time>
      </trkpt>
      <trkpt lat="47.91154" lon="-2.4663">
        <ele>67.2</ele>
        <time>2024-12-19T11:47:14Z</time>
      </trkpt>
      <trkpt lat="47.91154" lon="-2.4663">
        <ele>67.2</ele>
        <time>2024-12-19T11:47:15Z</time>
      </trkpt>
      <trkpt lat="47.91154" lon="-2.4663">
        <ele>67.2</ele>
        <time>2024-12-19T11:47:16Z</time>
      </trkpt>
      <trkpt lat="47.91154" lon="-2.4663">
        <ele>67.2</ele>
        <time>2024-12-19T11:47:17Z</time>
      </trkpt>
      <trkpt lat="47.91154" lon="-2.4663">
        <ele>67.2</ele>
        <time>2024-12-19T11:47:18Z</time>
      </trkpt>
      <trkpt lat="47.91154" lon="-2.4663">
        <ele>67.2</ele>
        <time>2024-12-19T11:47:19Z</time>
      </trkpt>
      <trkpt lat="47.91154" lon="-2.4663">
        <ele>67.2</ele>
        <time>2024-12-19T11:47:20Z</time>
      </trkpt>
      <trkpt lat="47.91154" lon="-2.4663">
        <ele>67.2</ele>
        <time>2024-12-19T11:47:21Z</time>
      </trkpt>
      <trkpt lat="47.91154" lon="-2.4663">
        <ele>67.2</ele>
        <time>2024-12-19T11:47:22Z</time>
      </trkpt>
      <trkpt lat="47.91154" lon="-2.4663">
        <ele>67.2</ele>
        <time>2024-12-19T11:47:23Z</time>
      </trkpt>
      <trkpt lat="47.91154" lon="-2.4663">
        <ele>67.2</ele>
        <time>2024-12-19T11:47:24Z</time>
      </trkpt>
      <trkpt lat="47.91154" lon="-2.4663">
        <ele>67.2</ele>
        <time>2024-12-19T11:47:25Z</time>
      </trkpt>
      <trkpt lat="47.91154" lon="-2.4663">
        <ele>67.2</ele>
        <time>2024-12-19T11:47:26Z</time>
      </trkpt>
      <trkpt lat="47.91154" lon="-2.4663">
        <ele>67.2</ele>
        <time>2024-12-19T11:47:27Z</time>
      </trkpt>
      <trkpt lat="47.91154" lon="-2.4663">
        <ele>67.2</ele>
        <time>2024-12-19T11:47:28Z</time>
      </trkpt>
      <trkpt lat="47.91154" lon="-2.46629">
        <ele>67.3</ele>
        <time>2024-12-19T11:47:29Z</time>
      </trkpt>
      <trkpt lat="47.91154" lon="-2.46629">
        <ele>67.3</ele>
        <time>2024-12-19T11:47:30Z</time>
      </trkpt>
      <trkpt lat="47.91155" lon="-2.46629">
        <ele>67.3</ele>
        <time>2024-12-19T11:47:31Z</time>
      </trkpt>
      <trkpt lat="47.91155" lon="-2.46629">
        <ele>67.3</ele>
        <time>2024-12-19T11:47:32Z</time>
      </trkpt>
      <trkpt lat="47.91155" lon="-2.46629">
        <ele>67.4</ele>
        <time>2024-12-19T11:47:33Z</time>
      </trkpt>
      <trkpt lat="47.91155" lon="-2.46629">
        <ele>67.4</ele>
        <time>2024-12-19T11:47:34Z</time>
      </trkpt>
      <trkpt lat="47.91155" lon="-2.46629">
        <ele>67.4</ele>
        <time>2024-12-19T11:47:35Z</time>
      </trkpt>
      <trkpt lat="47.91155" lon="-2.46629">
        <ele>67.4</ele>
        <time>2024-12-19T11:47:36Z</time>
      </trkpt>
      <trkpt lat="47.91155" lon="-2.46629">
        <ele>67.4</ele>
        <time>2024-12-19T11:47:37Z</time>
      </trkpt>
      <trkpt lat="47.91155" lon="-2.46628">
        <ele>67.4</ele>
        <time>2024-12-19T11:47:38Z</time>
      </trkpt>
      <trkpt lat="47.91155" lon="-2.46628">
        <ele>67.4</ele>
        <time>2024-12-19T11:47:39Z</time>
      </trkpt>
      <trkpt lat="47.91155" lon="-2.46628">
        <ele>67.4</ele>
        <time>2024-12-19T11:47:40Z</time>
      </trkpt>
      <trkpt lat="47.91155" lon="-2.46628">
        <ele>67.4</ele>
        <time>2024-12-19T11:47:41Z</time>
      </trkpt>
      <trkpt lat="47.91155" lon="-2.46628">
        <ele>67.4</ele>
        <time>2024-12-19T11:47:42Z</time>
      </trkpt>
      <trkpt lat="47.91155" lon="-2.46628">
        <ele>67.4</ele>
        <time>2024-12-19T11:47:43Z</time>
      </trkpt>
      <trkpt lat="47.91155" lon="-2.46629">
        <ele>67.4</ele>
        <time>2024-12-19T11:47:44Z</time>
      </trkpt>
      <trkpt lat="47.91155" lon="-2.46629">
        <ele>67.4</ele>
        <time>2024-12-19T11:47:45Z</time>
      </trkpt>
      <trkpt lat="47.91155" lon="-2.46629">
        <ele>67.4</ele>
        <time>2024-12-19T11:47:46Z</time>
      </trkpt>
      <trkpt lat="47.91155" lon="-2.46629">
        <ele>67.4</ele>
        <time>2024-12-19T11:47:47Z</time>
      </trkpt>
      <trkpt lat="47.91155" lon="-2.46629">
        <ele>67.4</ele>
        <time>2024-12-19T11:47:48Z</time>
      </trkpt>
      <trkpt lat="47.91155" lon="-2.46629">
        <ele>67.4</ele>
        <time>2024-12-19T11:47:49Z</time>
      </trkpt>
      <trkpt lat="47.91155" lon="-2.46629">
        <ele>67.4</ele>
        <time>2024-12-19T11:47:50Z</time>
      </trkpt>
      <trkpt lat="47.91155" lon="-2.46629">
        <ele>67.4</ele>
        <time>2024-12-19T11:47:51Z</time>
      </trkpt>
      <trkpt lat="47.91155" lon="-2.46629">
        <ele>67.4</ele>
        <time>2024-12-19T11:47:52Z</time>
      </trkpt>
      <trkpt lat="47.91155" lon="-2.46629">
        <ele>67.4</ele>
        <time>2024-12-19T11:47:53Z</time>
      </trkpt>
      <trkpt lat="47.91155" lon="-2.46629">
        <ele>67.4</ele>
        <time>2024-12-19T11:47:54Z</time>
      </trkpt>
      <trkpt lat="47.91155" lon="-2.46629">
        <ele>67.4</ele>
        <time>2024-12-19T11:47:55Z</time>
      </trkpt>
      <trkpt lat="47.91155" lon="-2.46629">
        <ele>67.4</ele>
        <time>2024-12-19T11:47:56Z</time>
      </trkpt>
      <trkpt lat="47.91155" lon="-2.46629">
        <ele>67.4</ele>
        <time>2024-12-19T11:47:57Z</time>
      </trkpt>
      <trkpt lat="47.91155" lon="-2.46629">
        <ele>67.4</ele>
        <time>2024-12-19T11:47:58Z</time>
      </trkpt>
      <trkpt lat="47.91155" lon="-2.46629">
        <ele>67.4</ele>
        <time>2024-12-19T11:47:59Z</time>
      </trkpt>
      <trkpt lat="47.91155" lon="-2.46629">
        <ele>67.4</ele>
        <time>2024-12-19T11:48:00Z</time>
      </trkpt>
      <trkpt lat="47.91155" lon="-2.46629">
        <ele>67.4</ele>
        <time>2024-12-19T11:48:01Z</time>
      </trkpt>
      <trkpt lat="47.91155" lon="-2.46629">
        <ele>67.4</ele>
        <time>2024-12-19T11:48:02Z</time>
      </trkpt>
      <trkpt lat="47.91155" lon="-2.46629">
        <ele>67.4</ele>
        <time>2024-12-19T11:48:03Z</time>
      </trkpt>
      <trkpt lat="47.91155" lon="-2.46629">
        <ele>67.4</ele>
        <time>2024-12-19T11:48:04Z</time>
      </trkpt>
      <trkpt lat="47.91155" lon="-2.46629">
        <ele>67.4</ele>
        <time>2024-12-19T11:48:05Z</time>
      </trkpt>
      <trkpt lat="47.91155" lon="-2.46629">
        <ele>67.4</ele>
        <time>2024-12-19T11:48:06Z</time>
      </trkpt>
      <trkpt lat="47.91155" lon="-2.46629">
        <ele>67.4</ele>
        <time>2024-12-19T11:48:07Z</time>
      </trkpt>
      <trkpt lat="47.91155" lon="-2.46629">
        <ele>67.4</ele>
        <time>2024-12-19T11:48:08Z</time>
      </trkpt>
      <trkpt lat="47.91155" lon="-2.46629">
        <ele>67.4</ele>
        <time>2024-12-19T11:48:09Z</time>
      </trkpt>
      <trkpt lat="47.91155" lon="-2.46629">
        <ele>67.4</ele>
        <time>2024-12-19T11:48:10Z</time>
      </trkpt>
      <trkpt lat="47.91155" lon="-2.46629">
        <ele>67.4</ele>
        <time>2024-12-19T11:48:11Z</time>
      </trkpt>
      <trkpt lat="47.91155" lon="-2.46629">
        <ele>67.4</ele>
        <time>2024-12-19T11:48:12Z</time>
      </trkpt>
      <trkpt lat="47.91155" lon="-2.46629">
        <ele>67.4</ele>
        <time>2024-12-19T11:48:13Z</time>
      </trkpt>
      <trkpt lat="47.91155" lon="-2.46629">
        <ele>67.4</ele>
        <time>2024-12-19T11:48:14Z</time>
      </trkpt>
      <trkpt lat="47.91155" lon="-2.46629">
        <ele>67.4</ele>
        <time>2024-12-19T11:48:15Z</time>
      </trkpt>
      <trkpt lat="47.91155" lon="-2.46629">
        <ele>67.4</ele>
        <time>2024-12-19T11:48:16Z</time>
      </trkpt>
      <trkpt lat="47.91155" lon="-2.46629">
        <ele>67.4</ele>
        <time>2024-12-19T11:48:17Z</time>
      </trkpt>
      <trkpt lat="47.91155" lon="-2.46629">
        <ele>67.4</ele>
        <time>2024-12-19T11:48:18Z</time>
      </trkpt>
      <trkpt lat="47.91155" lon="-2.46629">
        <ele>67.4</ele>
        <time>2024-12-19T11:48:19Z</time>
      </trkpt>
      <trkpt lat="47.91155" lon="-2.46629">
        <ele>67.4</ele>
        <time>2024-12-19T11:48:20Z</time>
      </trkpt>
      <trkpt lat="47.91155" lon="-2.46629">
        <ele>67.4</ele>
        <time>2024-12-19T11:48:21Z</time>
      </trkpt>
      <trkpt lat="47.91155" lon="-2.46629">
        <ele>67.4</ele>
        <time>2024-12-19T11:48:22Z</time>
      </trkpt>
      <trkpt lat="47.91155" lon="-2.46629">
        <ele>67.4</ele>
        <time>2024-12-19T11:48:23Z</time>
      </trkpt>
      <trkpt lat="47.91155" lon="-2.46629">
        <ele>67.4</ele>
        <time>2024-12-19T11:48:24Z</time>
      </trkpt>
      <trkpt lat="47.91155" lon="-2.46629">
        <ele>67.4</ele>
        <time>2024-12-19T11:48:25Z</time>
      </trkpt>
      <trkpt lat="47.91155" lon="-2.46629">
        <ele>67.4</ele>
        <time>2024-12-19T11:48:26Z</time>
      </trkpt>
      <trkpt lat="47.91155" lon="-2.46629">
        <ele>67.4</ele>
        <time>2024-12-19T11:48:27Z</time>
      </trkpt>
      <trkpt lat="47.91155" lon="-2.46629">
        <ele>67.4</ele>
        <time>2024-12-19T11:48:29Z</time>
      </trkpt>
      <trkpt lat="47.91155" lon="-2.46629">
        <ele>67.4</ele>
        <time>2024-12-19T11:48:30Z</time>
      </trkpt>
      <trkpt lat="47.91155" lon="-2.46629">
        <ele>67.4</ele>
        <time>2024-12-19T11:48:31Z</time>
      </trkpt>
      <trkpt lat="47.91155" lon="-2.46629">
        <ele>67.4</ele>
        <time>2024-12-19T11:48:32Z</time>
      </trkpt>
      <trkpt lat="47.91155" lon="-2.46629">
        <ele>67.4</ele>
        <time>2024-12-19T11:48:33Z</time>
      </trkpt>
      <trkpt lat="47.91155" lon="-2.46629">
        <ele>67.4</ele>
        <time>2024-12-19T11:48:34Z</time>
      </trkpt>
      <trkpt lat="47.91155" lon="-2.46629">
        <ele>67.4</ele>
        <time>2024-12-19T11:48:35Z</time>
      </trkpt>
      <trkpt lat="47.91155" lon="-2.46629">
        <ele>67.4</ele>
        <time>2024-12-19T11:48:36Z</time>
      </trkpt>
      <trkpt lat="47.91155" lon="-2.46629">
        <ele>67.3</ele>
        <time>2024-12-19T11:48:37Z</time>
      </trkpt>
      <trkpt lat="47.91154" lon="-2.46629">
        <ele>67.3</ele>
        <time>2024-12-19T11:48:38Z</time>
      </trkpt>
      <trkpt lat="47.91154" lon="-2.4663">
        <ele>67.2</ele>
        <time>2024-12-19T11:48:39Z</time>
      </trkpt>
      <trkpt lat="47.91154" lon="-2.46631">
        <ele>67.2</ele>
        <time>2024-12-19T11:48:40Z</time>
      </trkpt>
      <trkpt lat="47.91153" lon="-2.46631">
        <ele>67.2</ele>
        <time>2024-12-19T11:48:41Z</time>
      </trkpt>
      <trkpt lat="47.91153" lon="-2.46632">
        <ele>67.1</ele>
        <time>2024-12-19T11:48:42Z</time>
      </trkpt>
      <trkpt lat="47.91153" lon="-2.46632">
        <ele>67.1</ele>
        <time>2024-12-19T11:48:43Z</time>
      </trkpt>
      <trkpt lat="47.91153" lon="-2.46632">
        <ele>67.1</ele>
        <time>2024-12-19T11:48:44Z</time>
      </trkpt>
      <trkpt lat="47.91153" lon="-2.46631">
        <ele>67.1</ele>
        <time>2024-12-19T11:48:45Z</time>
      </trkpt>
      <trkpt lat="47.91153" lon="-2.46631">
        <ele>67.1</ele>
        <time>2024-12-19T11:48:46Z</time>
      </trkpt>
      <trkpt lat="47.91152" lon="-2.46632">
        <ele>67.1</ele>
        <time>2024-12-19T11:48:47Z</time>
      </trkpt>
      <trkpt lat="47.91152" lon="-2.46633">
        <ele>67.1</ele>
        <time>2024-12-19T11:48:48Z</time>
      </trkpt>
      <trkpt lat="47.91152" lon="-2.46633">
        <ele>67.1</ele>
        <time>2024-12-19T11:48:49Z</time>
      </trkpt>
      <trkpt lat="47.91152" lon="-2.46634">
        <ele>67</ele>
        <time>2024-12-19T11:48:50Z</time>
      </trkpt>
      <trkpt lat="47.91153" lon="-2.46634">
        <ele>67.1</ele>
        <time>2024-12-19T11:48:51Z</time>
      </trkpt>
      <trkpt lat="47.91153" lon="-2.46634">
        <ele>67.1</ele>
        <time>2024-12-19T11:48:52Z</time>
      </trkpt>
      <trkpt lat="47.91153" lon="-2.46634">
        <ele>67.1</ele>
        <time>2024-12-19T11:48:53Z</time>
      </trkpt>
      <trkpt lat="47.91153" lon="-2.46634">
        <ele>67.1</ele>
        <time>2024-12-19T11:48:54Z</time>
      </trkpt>
      <trkpt lat="47.91153" lon="-2.46634">
        <ele>67.1</ele>
        <time>2024-12-19T11:48:55Z</time>
      </trkpt>
      <trkpt lat="47.91153" lon="-2.46635">
        <ele>67.1</ele>
        <time>2024-12-19T11:48:56Z</time>
      </trkpt>
      <trkpt lat="47.91152" lon="-2.46636">
        <ele>67</ele>
        <time>2024-12-19T11:48:57Z</time>
      </trkpt>
      <trkpt lat="47.91152" lon="-2.46637">
        <ele>67</ele>
        <time>2024-12-19T11:48:58Z</time>
      </trkpt>
      <trkpt lat="47.91151" lon="-2.46637">
        <ele>66.9</ele>
        <time>2024-12-19T11:48:59Z</time>
      </trkpt>
      <trkpt lat="47.9115" lon="-2.46638">
        <ele>66.8</ele>
        <time>2024-12-19T11:49:00Z</time>
      </trkpt>
      <trkpt lat="47.91149" lon="-2.46638">
        <ele>66.8</ele>
        <time>2024-12-19T11:49:01Z</time>
      </trkpt>
      <trkpt lat="47.91148" lon="-2.46638">
        <ele>66.7</ele>
        <time>2024-12-19T11:49:02Z</time>
      </trkpt>
      <trkpt lat="47.91148" lon="-2.46638">
        <ele>66.6</ele>
        <time>2024-12-19T11:49:03Z</time>
      </trkpt>
      <trkpt lat="47.91147" lon="-2.46638">
        <ele>66.6</ele>
        <time>2024-12-19T11:49:04Z</time>
      </trkpt>
      <trkpt lat="47.91146" lon="-2.46638">
        <ele>66.5</ele>
        <time>2024-12-19T11:49:05Z</time>
      </trkpt>
      <trkpt lat="47.91145" lon="-2.46638">
        <ele>66.4</ele>
        <time>2024-12-19T11:49:06Z</time>
      </trkpt>
      <trkpt lat="47.91144" lon="-2.46639">
        <ele>66.4</ele>
        <time>2024-12-19T11:49:07Z</time>
      </trkpt>
      <trkpt lat="47.91143" lon="-2.4664">
        <ele>66.3</ele>
        <time>2024-12-19T11:49:08Z</time>
      </trkpt>
      <trkpt lat="47.91142" lon="-2.46641">
        <ele>66.3</ele>
        <time>2024-12-19T11:49:09Z</time>
      </trkpt>
      <trkpt lat="47.91142" lon="-2.46641">
        <ele>66.3</ele>
        <time>2024-12-19T11:49:10Z</time>
      </trkpt>
      <trkpt lat="47.91141" lon="-2.46642">
        <ele>66.3</ele>
        <time>2024-12-19T11:49:11Z</time>
      </trkpt>
      <trkpt lat="47.9114" lon="-2.46643">
        <ele>66.2</ele>
        <time>2024-12-19T11:49:12Z</time>
      </trkpt>
      <trkpt lat="47.91139" lon="-2.46643">
        <ele>66.2</ele>
        <time>2024-12-19T11:49:13Z</time>
      </trkpt>
      <trkpt lat="47.91138" lon="-2.46644">
        <ele>66.1</ele>
        <time>2024-12-19T11:49:14Z</time>
      </trkpt>
      <trkpt lat="47.91137" lon="-2.46644">
        <ele>66</ele>
        <time>2024-12-19T11:49:15Z</time>
      </trkpt>
      <trkpt lat="47.91136" lon="-2.46644">
        <ele>65.9</ele>
        <time>2024-12-19T11:49:16Z</time>
      </trkpt>
      <trkpt lat="47.91136" lon="-2.46644">
        <ele>65.9</ele>
        <time>2024-12-19T11:49:17Z</time>
      </trkpt>
      <trkpt lat="47.91135" lon="-2.46644">
        <ele>65.9</ele>
        <time>2024-12-19T11:49:18Z</time>
      </trkpt>
      <trkpt lat="47.91135" lon="-2.46644">
        <ele>65.9</ele>
        <time>2024-12-19T11:49:19Z</time>
      </trkpt>
      <trkpt lat="47.91134" lon="-2.46645">
        <ele>65.8</ele>
        <time>2024-12-19T11:49:20Z</time>
      </trkpt>
      <trkpt lat="47.91133" lon="-2.46645">
        <ele>65.8</ele>
        <time>2024-12-19T11:49:21Z</time>
      </trkpt>
      <trkpt lat="47.91132" lon="-2.46646">
        <ele>65.7</ele>
        <time>2024-12-19T11:49:22Z</time>
      </trkpt>
      <trkpt lat="47.91131" lon="-2.46647">
        <ele>65.7</ele>
        <time>2024-12-19T11:49:23Z</time>
      </trkpt>
      <trkpt lat="47.9113" lon="-2.46648">
        <ele>65.6</ele>
        <time>2024-12-19T11:49:24Z</time>
      </trkpt>
      <trkpt lat="47.91129" lon="-2.46649">
        <ele>65.5</ele>
        <time>2024-12-19T11:49:25Z</time>
      </trkpt>
      <trkpt lat="47.91128" lon="-2.4665">
        <ele>65.5</ele>
        <time>2024-12-19T11:49:26Z</time>
      </trkpt>
      <trkpt lat="47.91127" lon="-2.46651">
        <ele>65.4</ele>
        <time>2024-12-19T11:49:27Z</time>
      </trkpt>
      <trkpt lat="47.91126" lon="-2.46651">
        <ele>65.3</ele>
        <time>2024-12-19T11:49:28Z</time>
      </trkpt>
      <trkpt lat="47.91125" lon="-2.46651">
        <ele>65.2</ele>
        <time>2024-12-19T11:49:29Z</time>
      </trkpt>
      <trkpt lat="47.91124" lon="-2.46652">
        <ele>65.1</ele>
        <time>2024-12-19T11:49:30Z</time>
      </trkpt>
      <trkpt lat="47.91123" lon="-2.46652">
        <ele>65</ele>
        <time>2024-12-19T11:49:31Z</time>
      </trkpt>
      <trkpt lat="47.91122" lon="-2.46652">
        <ele>65</ele>
        <time>2024-12-19T11:49:32Z</time>
      </trkpt>
      <trkpt lat="47.91121" lon="-2.46652">
        <ele>64.9</ele>
        <time>2024-12-19T11:49:33Z</time>
      </trkpt>
      <trkpt lat="47.91121" lon="-2.46651">
        <ele>64.9</ele>
        <time>2024-12-19T11:49:34Z</time>
      </trkpt>
      <trkpt lat="47.91122" lon="-2.46651">
        <ele>64.9</ele>
        <time>2024-12-19T11:49:35Z</time>
      </trkpt>
      <trkpt lat="47.91121" lon="-2.46651">
        <ele>64.9</ele>
        <time>2024-12-19T11:49:36Z</time>
      </trkpt>
      <trkpt lat="47.91121" lon="-2.46651">
        <ele>64.9</ele>
        <time>2024-12-19T11:49:37Z</time>
      </trkpt>
      <trkpt lat="47.91122" lon="-2.46651">
        <ele>64.9</ele>
        <time>2024-12-19T11:49:38Z</time>
      </trkpt>
      <trkpt lat="47.91122" lon="-2.46651">
        <ele>64.9</ele>
        <time>2024-12-19T11:49:39Z</time>
      </trkpt>
      <trkpt lat="47.91121" lon="-2.46651">
        <ele>64.9</ele>
        <time>2024-12-19T11:49:40Z</time>
      </trkpt>
      <trkpt lat="47.91121" lon="-2.46651">
        <ele>64.9</ele>
        <time>2024-12-19T11:49:41Z</time>
      </trkpt>
      <trkpt lat="47.91121" lon="-2.46651">
        <ele>64.9</ele>
        <time>2024-12-19T11:49:42Z</time>
      </trkpt>
      <trkpt lat="47.91121" lon="-2.46651">
        <ele>64.9</ele>
        <time>2024-12-19T11:49:43Z</time>
      </trkpt>
      <trkpt lat="47.91121" lon="-2.46651">
        <ele>64.9</ele>
        <time>2024-12-19T11:49:44Z</time>
      </trkpt>
      <trkpt lat="47.91121" lon="-2.46651">
        <ele>64.9</ele>
        <time>2024-12-19T11:49:45Z</time>
      </trkpt>
      <trkpt lat="47.91121" lon="-2.4665">
        <ele>64.9</ele>
        <time>2024-12-19T11:49:46Z</time>
      </trkpt>
      <trkpt lat="47.91121" lon="-2.4665">
        <ele>64.8</ele>
        <time>2024-12-19T11:49:47Z</time>
      </trkpt>
      <trkpt lat="47.91121" lon="-2.4665">
        <ele>64.8</ele>
        <time>2024-12-19T11:49:48Z</time>
      </trkpt>
      <trkpt lat="47.91121" lon="-2.4665">
        <ele>64.8</ele>
        <time>2024-12-19T11:49:49Z</time>
      </trkpt>
      <trkpt lat="47.91121" lon="-2.4665">
        <ele>64.8</ele>
        <time>2024-12-19T11:49:50Z</time>
      </trkpt>
      <trkpt lat="47.91121" lon="-2.4665">
        <ele>64.8</ele>
        <time>2024-12-19T11:49:51Z</time>
      </trkpt>
      <trkpt lat="47.91121" lon="-2.4665">
        <ele>64.8</ele>
        <time>2024-12-19T11:49:52Z</time>
      </trkpt>
      <trkpt lat="47.91121" lon="-2.4665">
        <ele>64.8</ele>
        <time>2024-12-19T11:49:53Z</time>
      </trkpt>
      <trkpt lat="47.91121" lon="-2.4665">
        <ele>64.8</ele>
        <time>2024-12-19T11:49:54Z</time>
      </trkpt>
      <trkpt lat="47.9112" lon="-2.4665">
        <ele>64.8</ele>
        <time>2024-12-19T11:49:55Z</time>
      </trkpt>
      <trkpt lat="47.91119" lon="-2.4665">
        <ele>64.7</ele>
        <time>2024-12-19T11:49:56Z</time>
      </trkpt>
      <trkpt lat="47.91119" lon="-2.4665">
        <ele>64.7</ele>
        <time>2024-12-19T11:49:57Z</time>
      </trkpt>
      <trkpt lat="47.91118" lon="-2.46651">
        <ele>64.6</ele>
        <time>2024-12-19T11:49:58Z</time>
      </trkpt>
      <trkpt lat="47.91119" lon="-2.46651">
        <ele>64.6</ele>
        <time>2024-12-19T11:49:59Z</time>
      </trkpt>
      <trkpt lat="47.91118" lon="-2.4665">
        <ele>64.6</ele>
        <time>2024-12-19T11:50:00Z</time>
      </trkpt>
      <trkpt lat="47.91118" lon="-2.4665">
        <ele>64.6</ele>
        <time>2024-12-19T11:50:01Z</time>
      </trkpt>
      <trkpt lat="47.91118" lon="-2.46649">
        <ele>64.6</ele>
        <time>2024-12-19T11:50:02Z</time>
      </trkpt>
      <trkpt lat="47.91118" lon="-2.46649">
        <ele>64.6</ele>
        <time>2024-12-19T11:50:03Z</time>
      </trkpt>
      <trkpt lat="47.91118" lon="-2.46649">
        <ele>64.6</ele>
        <time>2024-12-19T11:50:04Z</time>
      </trkpt>
      <trkpt lat="47.91118" lon="-2.46649">
        <ele>64.6</ele>
        <time>2024-12-19T11:50:05Z</time>
      </trkpt>
      <trkpt lat="47.91118" lon="-2.46649">
        <ele>64.5</ele>
        <time>2024-12-19T11:50:06Z</time>
      </trkpt>
      <trkpt lat="47.91117" lon="-2.46649">
        <ele>64.5</ele>
        <time>2024-12-19T11:50:07Z</time>
      </trkpt>
      <trkpt lat="47.91117" lon="-2.46649">
        <ele>64.5</ele>
        <time>2024-12-19T11:50:08Z</time>
      </trkpt>
      <trkpt lat="47.91115" lon="-2.46649">
        <ele>64.3</ele>
        <time>2024-12-19T11:50:09Z</time>
      </trkpt>
      <trkpt lat="47.91114" lon="-2.4665">
        <ele>64.2</ele>
        <time>2024-12-19T11:50:10Z</time>
      </trkpt>
      <trkpt lat="47.91113" lon="-2.4665">
        <ele>64.1</ele>
        <time>2024-12-19T11:50:11Z</time>
      </trkpt>
      <trkpt lat="47.91111" lon="-2.4665">
        <ele>64</ele>
        <time>2024-12-19T11:50:12Z</time>
      </trkpt>
      <trkpt lat="47.9111" lon="-2.4665">
        <ele>63.9</ele>
        <time>2024-12-19T11:50:13Z</time>
      </trkpt>
      <trkpt lat="47.91109" lon="-2.4665">
        <ele>63.8</ele>
        <time>2024-12-19T11:50:14Z</time>
      </trkpt>
      <trkpt lat="47.91108" lon="-2.46649">
        <ele>63.6</ele>
        <time>2024-12-19T11:50:15Z</time>
      </trkpt>
      <trkpt lat="47.91107" lon="-2.46649">
        <ele>63.5</ele>
        <time>2024-12-19T11:50:16Z</time>
      </trkpt>
      <trkpt lat="47.91105" lon="-2.46649">
        <ele>63.4</ele>
        <time>2024-12-19T11:50:17Z</time>
      </trkpt>
      <trkpt lat="47.91104" lon="-2.4665">
        <ele>63.2</ele>
        <time>2024-12-19T11:50:18Z</time>
      </trkpt>
      <trkpt lat="47.91103" lon="-2.4665">
        <ele>63.1</ele>
        <time>2024-12-19T11:50:19Z</time>
      </trkpt>
      <trkpt lat="47.91102" lon="-2.4665">
        <ele>63</ele>
        <time>2024-12-19T11:50:20Z</time>
      </trkpt>
      <trkpt lat="47.91101" lon="-2.4665">
        <ele>62.9</ele>
        <time>2024-12-19T11:50:21Z</time>
      </trkpt>
      <trkpt lat="47.91099" lon="-2.4665">
        <ele>62.7</ele>
        <time>2024-12-19T11:50:22Z</time>
      </trkpt>
      <trkpt lat="47.91099" lon="-2.4665">
        <ele>62.6</ele>
        <time>2024-12-19T11:50:23Z</time>
      </trkpt>
      <trkpt lat="47.91098" lon="-2.4665">
        <ele>62.5</ele>
        <time>2024-12-19T11:50:24Z</time>
      </trkpt>
      <trkpt lat="47.91097" lon="-2.4665">
        <ele>62.4</ele>
        <time>2024-12-19T11:50:25Z</time>
      </trkpt>
      <trkpt lat="47.91095" lon="-2.46651">
        <ele>62.3</ele>
        <time>2024-12-19T11:50:26Z</time>
      </trkpt>
      <trkpt lat="47.91094" lon="-2.46651">
        <ele>62.2</ele>
        <time>2024-12-19T11:50:27Z</time>
      </trkpt>
      <trkpt lat="47.91093" lon="-2.4665">
        <ele>62</ele>
        <time>2024-12-19T11:50:28Z</time>
      </trkpt>
      <trkpt lat="47.91091" lon="-2.4665">
        <ele>61.9</ele>
        <time>2024-12-19T11:50:29Z</time>
      </trkpt>
      <trkpt lat="47.9109" lon="-2.46649">
        <ele>61.7</ele>
        <time>2024-12-19T11:50:30Z</time>
      </trkpt>
      <trkpt lat="47.91089" lon="-2.46648">
        <ele>61.6</ele>
        <time>2024-12-19T11:50:31Z</time>
      </trkpt>
      <trkpt lat="47.91088" lon="-2.46647">
        <ele>61.5</ele>
        <time>2024-12-19T11:50:32Z</time>
      </trkpt>
      <trkpt lat="47.91087" lon="-2.46646">
        <ele>61.4</ele>
        <time>2024-12-19T11:50:33Z</time>
      </trkpt>
      <trkpt lat="47.91086" lon="-2.46645">
        <ele>61.3</ele>
        <time>2024-12-19T11:50:34Z</time>
      </trkpt>
      <trkpt lat="47.91085" lon="-2.46644">
        <ele>61.2</ele>
        <time>2024-12-19T11:50:35Z</time>
      </trkpt>
      <trkpt lat="47.91085" lon="-2.46644">
        <ele>61.1</ele>
        <time>2024-12-19T11:50:36Z</time>
      </trkpt>
      <trkpt lat="47.91084" lon="-2.46643">
        <ele>61.1</ele>
        <time>2024-12-19T11:50:37Z</time>
      </trkpt>
      <trkpt lat="47.91084" lon="-2.46642">
        <ele>61</ele>
        <time>2024-12-19T11:50:38Z</time>
      </trkpt>
      <trkpt lat="47.91083" lon="-2.46641">
        <ele>61</ele>
        <time>2024-12-19T11:50:39Z</time>
      </trkpt>
      <trkpt lat="47.91082" lon="-2.4664">
        <ele>60.9</ele>
        <time>2024-12-19T11:50:40Z</time>
      </trkpt>
      <trkpt lat="47.91082" lon="-2.46639">
        <ele>60.9</ele>
        <time>2024-12-19T11:50:41Z</time>
      </trkpt>
      <trkpt lat="47.91082" lon="-2.46638">
        <ele>60.9</ele>
        <time>2024-12-19T11:50:42Z</time>
      </trkpt>
      <trkpt lat="47.91081" lon="-2.46636">
        <ele>60.8</ele>
        <time>2024-12-19T11:50:43Z</time>
      </trkpt>
      <trkpt lat="47.91081" lon="-2.46635">
        <ele>60.9</ele>
        <time>2024-12-19T11:50:44Z</time>
      </trkpt>
      <trkpt lat="47.91082" lon="-2.46634">
        <ele>60.9</ele>
        <time>2024-12-19T11:50:45Z</time>
      </trkpt>
      <trkpt lat="47.91082" lon="-2.46634">
        <ele>60.9</ele>
        <time>2024-12-19T11:50:46Z</time>
      </trkpt>
      <trkpt lat="47.91082" lon="-2.46632">
        <ele>60.9</ele>
        <time>2024-12-19T11:50:47Z</time>
      </trkpt>
      <trkpt lat="47.91081" lon="-2.46631">
        <ele>60.8</ele>
        <time>2024-12-19T11:50:48Z</time>
      </trkpt>
      <trkpt lat="47.91081" lon="-2.4663">
        <ele>60.8</ele>
        <time>2024-12-19T11:50:49Z</time>
      </trkpt>
      <trkpt lat="47.91081" lon="-2.46631">
        <ele>60.8</ele>
        <time>2024-12-19T11:50:50Z</time>
      </trkpt>
      <trkpt lat="47.91081" lon="-2.46631">
        <ele>60.8</ele>
        <time>2024-12-19T11:50:51Z</time>
      </trkpt>
      <trkpt lat="47.91081" lon="-2.46631">
        <ele>60.8</ele>
        <time>2024-12-19T11:50:52Z</time>
      </trkpt>
      <trkpt lat="47.9108" lon="-2.4663">
        <ele>60.8</ele>
        <time>2024-12-19T11:50:53Z</time>
      </trkpt>
      <trkpt lat="47.9108" lon="-2.46628">
        <ele>60.7</ele>
        <time>2024-12-19T11:50:54Z</time>
      </trkpt>
      <trkpt lat="47.9108" lon="-2.46627">
        <ele>60.7</ele>
        <time>2024-12-19T11:50:55Z</time>
      </trkpt>
      <trkpt lat="47.91079" lon="-2.46628">
        <ele>60.7</ele>
        <time>2024-12-19T11:50:56Z</time>
      </trkpt>
      <trkpt lat="47.91079" lon="-2.46627">
        <ele>60.6</ele>
        <time>2024-12-19T11:50:57Z</time>
      </trkpt>
      <trkpt lat="47.91079" lon="-2.46627">
        <ele>60.6</ele>
        <time>2024-12-19T11:50:58Z</time>
      </trkpt>
      <trkpt lat="47.91079" lon="-2.46627">
        <ele>60.6</ele>
        <time>2024-12-19T11:50:59Z</time>
      </trkpt>
      <trkpt lat="47.91078" lon="-2.46627">
        <ele>60.6</ele>
        <time>2024-12-19T11:51:00Z</time>
      </trkpt>
      <trkpt lat="47.91078" lon="-2.46627">
        <ele>60.6</ele>
        <time>2024-12-19T11:51:01Z</time>
      </trkpt>
      <trkpt lat="47.91078" lon="-2.46627">
        <ele>60.6</ele>
        <time>2024-12-19T11:51:02Z</time>
      </trkpt>
      <trkpt lat="47.91079" lon="-2.46627">
        <ele>60.6</ele>
        <time>2024-12-19T11:51:03Z</time>
      </trkpt>
      <trkpt lat="47.91079" lon="-2.46626">
        <ele>60.6</ele>
        <time>2024-12-19T11:51:04Z</time>
      </trkpt>
      <trkpt lat="47.91079" lon="-2.46624">
        <ele>60.6</ele>
        <time>2024-12-19T11:51:05Z</time>
      </trkpt>
      <trkpt lat="47.9108" lon="-2.46623">
        <ele>60.7</ele>
        <time>2024-12-19T11:51:06Z</time>
      </trkpt>
      <trkpt lat="47.9108" lon="-2.46621">
        <ele>60.7</ele>
        <time>2024-12-19T11:51:07Z</time>
      </trkpt>
      <trkpt lat="47.91081" lon="-2.4662">
        <ele>60.7</ele>
        <time>2024-12-19T11:51:08Z</time>
      </trkpt>
      <trkpt lat="47.91081" lon="-2.46618">
        <ele>60.8</ele>
        <time>2024-12-19T11:51:09Z</time>
      </trkpt>
      <trkpt lat="47.91081" lon="-2.46617">
        <ele>60.8</ele>
        <time>2024-12-19T11:51:10Z</time>
      </trkpt>
      <trkpt lat="47.91082" lon="-2.46615">
        <ele>60.8</ele>
        <time>2024-12-19T11:51:11Z</time>
      </trkpt>
      <trkpt lat="47.91082" lon="-2.46613">
        <ele>60.9</ele>
        <time>2024-12-19T11:51:12Z</time>
      </trkpt>
      <trkpt lat="47.91083" lon="-2.46612">
        <ele>60.9</ele>
        <time>2024-12-19T11:51:13Z</time>
      </trkpt>
      <trkpt lat="47.91083" lon="-2.4661">
        <ele>61</ele>
        <time>2024-12-19T11:51:14Z</time>
      </trkpt>
      <trkpt lat="47.91083" lon="-2.46608">
        <ele>61</ele>
        <time>2024-12-19T11:51:15Z</time>
      </trkpt>
      <trkpt lat="47.91083" lon="-2.46607">
        <ele>60.9</ele>
        <time>2024-12-19T11:51:16Z</time>
      </trkpt>
      <trkpt lat="47.91083" lon="-2.46605">
        <ele>60.9</ele>
        <time>2024-12-19T11:51:17Z</time>
      </trkpt>
      <trkpt lat="47.91082" lon="-2.46603">
        <ele>60.9</ele>
        <time>2024-12-19T11:51:18Z</time>
      </trkpt>
      <trkpt lat="47.91082" lon="-2.46601">
        <ele>60.8</ele>
        <time>2024-12-19T11:51:19Z</time>
      </trkpt>
      <trkpt lat="47.91081" lon="-2.46599">
        <ele>60.8</ele>
        <time>2024-12-19T11:51:20Z</time>
      </trkpt>
      <trkpt lat="47.91081" lon="-2.46597">
        <ele>60.8</ele>
        <time>2024-12-19T11:51:21Z</time>
      </trkpt>
      <trkpt lat="47.91081" lon="-2.46595">
        <ele>60.8</ele>
        <time>2024-12-19T11:51:22Z</time>
      </trkpt>
      <trkpt lat="47.9108" lon="-2.46594">
        <ele>60.7</ele>
        <time>2024-12-19T11:51:23Z</time>
      </trkpt>
      <trkpt lat="47.91079" lon="-2.46593">
        <ele>60.7</ele>
        <time>2024-12-19T11:51:24Z</time>
      </trkpt>
      <trkpt lat="47.91078" lon="-2.46594">
        <ele>60.6</ele>
        <time>2024-12-19T11:51:25Z</time>
      </trkpt>
      <trkpt lat="47.91077" lon="-2.46594">
        <ele>60.5</ele>
        <time>2024-12-19T11:51:26Z</time>
      </trkpt>
      <trkpt lat="47.91076" lon="-2.46594">
        <ele>60.4</ele>
        <time>2024-12-19T11:51:27Z</time>
      </trkpt>
      <trkpt lat="47.91075" lon="-2.46595">
        <ele>60.3</ele>
        <time>2024-12-19T11:51:28Z</time>
      </trkpt>
      <trkpt lat="47.91074" lon="-2.46595">
        <ele>60.2</ele>
        <time>2024-12-19T11:51:29Z</time>
      </trkpt>
      <trkpt lat="47.91074" lon="-2.46596">
        <ele>60.1</ele>
        <time>2024-12-19T11:51:30Z</time>
      </trkpt>
      <trkpt lat="47.91073" lon="-2.46597">
        <ele>60</ele>
        <time>2024-12-19T11:51:31Z</time>
      </trkpt>
      <trkpt lat="47.91072" lon="-2.46598">
        <ele>60</ele>
        <time>2024-12-19T11:51:32Z</time>
      </trkpt>
      <trkpt lat="47.91072" lon="-2.46598">
        <ele>59.9</ele>
        <time>2024-12-19T11:51:33Z</time>
      </trkpt>
      <trkpt lat="47.91072" lon="-2.46598">
        <ele>59.9</ele>
        <time>2024-12-19T11:51:34Z</time>
      </trkpt>
      <trkpt lat="47.91072" lon="-2.46598">
        <ele>59.9</ele>
        <time>2024-12-19T11:51:35Z</time>
      </trkpt>
      <trkpt lat="47.91072" lon="-2.46598">
        <ele>59.9</ele>
        <time>2024-12-19T11:51:36Z</time>
      </trkpt>
      <trkpt lat="47.91072" lon="-2.46598">
        <ele>59.9</ele>
        <time>2024-12-19T11:51:37Z</time>
      </trkpt>
      <trkpt lat="47.91071" lon="-2.46598">
        <ele>59.9</ele>
        <time>2024-12-19T11:51:38Z</time>
      </trkpt>
      <trkpt lat="47.91071" lon="-2.46598">
        <ele>59.9</ele>
        <time>2024-12-19T11:51:39Z</time>
      </trkpt>
      <trkpt lat="47.91071" lon="-2.46598">
        <ele>59.8</ele>
        <time>2024-12-19T11:51:40Z</time>
      </trkpt>
      <trkpt lat="47.91071" lon="-2.46598">
        <ele>59.8</ele>
        <time>2024-12-19T11:51:41Z</time>
      </trkpt>
      <trkpt lat="47.91071" lon="-2.46598">
        <ele>59.8</ele>
        <time>2024-12-19T11:51:42Z</time>
      </trkpt>
      <trkpt lat="47.91071" lon="-2.46598">
        <ele>59.8</ele>
        <time>2024-12-19T11:51:43Z</time>
      </trkpt>
      <trkpt lat="47.9107" lon="-2.46598">
        <ele>59.8</ele>
        <time>2024-12-19T11:51:44Z</time>
      </trkpt>
      <trkpt lat="47.9107" lon="-2.46598">
        <ele>59.8</ele>
        <time>2024-12-19T11:51:45Z</time>
      </trkpt>
      <trkpt lat="47.9107" lon="-2.46598">
        <ele>59.8</ele>
        <time>2024-12-19T11:51:46Z</time>
      </trkpt>
      <trkpt lat="47.9107" lon="-2.46598">
        <ele>59.8</ele>
        <time>2024-12-19T11:51:47Z</time>
      </trkpt>
      <trkpt lat="47.9107" lon="-2.46598">
        <ele>59.8</ele>
        <time>2024-12-19T11:51:48Z</time>
      </trkpt>
      <trkpt lat="47.9107" lon="-2.46598">
        <ele>59.8</ele>
        <time>2024-12-19T11:51:49Z</time>
      </trkpt>
      <trkpt lat="47.9107" lon="-2.46598">
        <ele>59.8</ele>
        <time>2024-12-19T11:51:50Z</time>
      </trkpt>
      <trkpt lat="47.9107" lon="-2.46598">
        <ele>59.8</ele>
        <time>2024-12-19T11:51:51Z</time>
      </trkpt>
      <trkpt lat="47.9107" lon="-2.46598">
        <ele>59.8</ele>
        <time>2024-12-19T11:51:52Z</time>
      </trkpt>
      <trkpt lat="47.9107" lon="-2.46598">
        <ele>59.8</ele>
        <time>2024-12-19T11:51:53Z</time>
      </trkpt>
      <trkpt lat="47.9107" lon="-2.46598">
        <ele>59.8</ele>
        <time>2024-12-19T11:51:54Z</time>
      </trkpt>
      <trkpt lat="47.9107" lon="-2.46598">
        <ele>59.8</ele>
        <time>2024-12-19T11:51:55Z</time>
      </trkpt>
      <trkpt lat="47.9107" lon="-2.46598">
        <ele>59.8</ele>
        <time>2024-12-19T11:51:56Z</time>
      </trkpt>
      <trkpt lat="47.9107" lon="-2.46598">
        <ele>59.8</ele>
        <time>2024-12-19T11:51:57Z</time>
      </trkpt>
      <trkpt lat="47.9107" lon="-2.46598">
        <ele>59.8</ele>
        <time>2024-12-19T11:51:58Z</time>
      </trkpt>
      <trkpt lat="47.9107" lon="-2.46598">
        <ele>59.8</ele>
        <time>2024-12-19T11:51:59Z</time>
      </trkpt>
      <trkpt lat="47.9107" lon="-2.46598">
        <ele>59.8</ele>
        <time>2024-12-19T11:52:00Z</time>
      </trkpt>
      <trkpt lat="47.9107" lon="-2.46598">
        <ele>59.8</ele>
        <time>2024-12-19T11:52:01Z</time>
      </trkpt>
      <trkpt lat="47.9107" lon="-2.46598">
        <ele>59.8</ele>
        <time>2024-12-19T11:52:02Z</time>
      </trkpt>
      <trkpt lat="47.9107" lon="-2.46598">
        <ele>59.8</ele>
        <time>2024-12-19T11:52:03Z</time>
      </trkpt>
      <trkpt lat="47.9107" lon="-2.46598">
        <ele>59.8</ele>
        <time>2024-12-19T11:52:04Z</time>
      </trkpt>
      <trkpt lat="47.9107" lon="-2.46598">
        <ele>59.8</ele>
        <time>2024-12-19T11:52:05Z</time>
      </trkpt>
      <trkpt lat="47.9107" lon="-2.46598">
        <ele>59.8</ele>
        <time>2024-12-19T11:52:09Z</time>
      </trkpt>
      <trkpt lat="47.9107" lon="-2.46598">
        <ele>59.8</ele>
        <time>2024-12-19T11:52:10Z</time>
      </trkpt>
      <trkpt lat="47.9107" lon="-2.46598">
        <ele>59.8</ele>
        <time>2024-12-19T11:52:11Z</time>
      </trkpt>
      <trkpt lat="47.9107" lon="-2.46598">
        <ele>59.8</ele>
        <time>2024-12-19T11:52:12Z</time>
      </trkpt>
      <trkpt lat="47.9107" lon="-2.46598">
        <ele>59.7</ele>
        <time>2024-12-19T11:52:13Z</time>
      </trkpt>
      <trkpt lat="47.9107" lon="-2.46597">
        <ele>59.8</ele>
        <time>2024-12-19T11:52:14Z</time>
      </trkpt>
      <trkpt lat="47.9107" lon="-2.46596">
        <ele>59.8</ele>
        <time>2024-12-19T11:52:15Z</time>
      </trkpt>
      <trkpt lat="47.91071" lon="-2.46595">
        <ele>60</ele>
        <time>2024-12-19T11:52:16Z</time>
      </trkpt>
      <trkpt lat="47.91073" lon="-2.46593">
        <ele>60.1</ele>
        <time>2024-12-19T11:52:17Z</time>
      </trkpt>
      <trkpt lat="47.91074" lon="-2.46592">
        <ele>60.2</ele>
        <time>2024-12-19T11:52:18Z</time>
      </trkpt>
      <trkpt lat="47.91075" lon="-2.46592">
        <ele>60.3</ele>
        <time>2024-12-19T11:52:19Z</time>
      </trkpt>
      <trkpt lat="47.91077" lon="-2.46591">
        <ele>60.4</ele>
        <time>2024-12-19T11:52:20Z</time>
      </trkpt>
      <trkpt lat="47.91078" lon="-2.46591">
        <ele>60.5</ele>
        <time>2024-12-19T11:52:21Z</time>
      </trkpt>
      <trkpt lat="47.91079" lon="-2.46591">
        <ele>60.6</ele>
        <time>2024-12-19T11:52:22Z</time>
      </trkpt>
      <trkpt lat="47.9108" lon="-2.4659">
        <ele>60.7</ele>
        <time>2024-12-19T11:52:23Z</time>
      </trkpt>
      <trkpt lat="47.91081" lon="-2.46589">
        <ele>60.8</ele>
        <time>2024-12-19T11:52:24Z</time>
      </trkpt>
      <trkpt lat="47.91081" lon="-2.46588">
        <ele>60.8</ele>
        <time>2024-12-19T11:52:25Z</time>
      </trkpt>
      <trkpt lat="47.91082" lon="-2.46587">
        <ele>60.9</ele>
        <time>2024-12-19T11:52:26Z</time>
      </trkpt>
      <trkpt lat="47.91083" lon="-2.46586">
        <ele>61</ele>
        <time>2024-12-19T11:52:27Z</time>
      </trkpt>
      <trkpt lat="47.91084" lon="-2.46584">
        <ele>61</ele>
        <time>2024-12-19T11:52:28Z</time>
      </trkpt>
      <trkpt lat="47.91085" lon="-2.46583">
        <ele>61.1</ele>
        <time>2024-12-19T11:52:29Z</time>
      </trkpt>
      <trkpt lat="47.91085" lon="-2.46582">
        <ele>61.3</ele>
        <time>2024-12-19T11:52:30Z</time>
      </trkpt>
      <trkpt lat="47.91086" lon="-2.46581">
        <ele>61.4</ele>
        <time>2024-12-19T11:52:31Z</time>
      </trkpt>
      <trkpt lat="47.91087" lon="-2.46579">
        <ele>61.5</ele>
        <time>2024-12-19T11:52:32Z</time>
      </trkpt>
      <trkpt lat="47.91088" lon="-2.46576">
        <ele>61.7</ele>
        <time>2024-12-19T11:52:34Z</time>
      </trkpt>
      <trkpt lat="47.91088" lon="-2.46574">
        <ele>61.8</ele>
        <time>2024-12-19T11:52:35Z</time>
      </trkpt>
      <trkpt lat="47.91088" lon="-2.46573">
        <ele>61.9</ele>
        <time>2024-12-19T11:52:36Z</time>
      </trkpt>
      <trkpt lat="47.91088" lon="-2.46571">
        <ele>61.9</ele>
        <time>2024-12-19T11:52:37Z</time>
      </trkpt>
      <trkpt lat="47.91089" lon="-2.4657">
        <ele>61.9</ele>
        <time>2024-12-19T11:52:38Z</time>
      </trkpt>
      <trkpt lat="47.91089" lon="-2.46571">
        <ele>62</ele>
        <time>2024-12-19T11:52:39Z</time>
      </trkpt>
      <trkpt lat="47.91089" lon="-2.46569">
        <ele>62.1</ele>
        <time>2024-12-19T11:52:40Z</time>
      </trkpt>
      <trkpt lat="47.91089" lon="-2.46566">
        <ele>62.1</ele>
        <time>2024-12-19T11:52:41Z</time>
      </trkpt>
      <trkpt lat="47.9109" lon="-2.46564">
        <ele>62.2</ele>
        <time>2024-12-19T11:52:42Z</time>
      </trkpt>
      <trkpt lat="47.9109" lon="-2.46562">
        <ele>62.3</ele>
        <time>2024-12-19T11:52:43Z</time>
      </trkpt>
      <trkpt lat="47.9109" lon="-2.4656">
        <ele>62.3</ele>
        <time>2024-12-19T11:52:44Z</time>
      </trkpt>
      <trkpt lat="47.91089" lon="-2.46559">
        <ele>62.3</ele>
        <time>2024-12-19T11:52:45Z</time>
      </trkpt>
      <trkpt lat="47.91089" lon="-2.46558">
        <ele>62.4</ele>
        <time>2024-12-19T11:52:46Z</time>
      </trkpt>
      <trkpt lat="47.91089" lon="-2.46557">
        <ele>62.4</ele>
        <time>2024-12-19T11:52:47Z</time>
      </trkpt>
      <trkpt lat="47.91089" lon="-2.46557">
        <ele>62.3</ele>
        <time>2024-12-19T11:52:48Z</time>
      </trkpt>
      <trkpt lat="47.91089" lon="-2.46556">
        <ele>62.4</ele>
        <time>2024-12-19T11:52:49Z</time>
      </trkpt>
      <trkpt lat="47.91089" lon="-2.46554">
        <ele>62.3</ele>
        <time>2024-12-19T11:52:50Z</time>
      </trkpt>
      <trkpt lat="47.91088" lon="-2.46552">
        <ele>62.3</ele>
        <time>2024-12-19T11:52:51Z</time>
      </trkpt>
      <trkpt lat="47.91089" lon="-2.4655">
        <ele>62.2</ele>
        <time>2024-12-19T11:52:52Z</time>
      </trkpt>
      <trkpt lat="47.91089" lon="-2.46548">
        <ele>62.2</ele>
        <time>2024-12-19T11:52:53Z</time>
      </trkpt>
      <trkpt lat="47.91089" lon="-2.46546">
        <ele>62.1</ele>
        <time>2024-12-19T11:52:54Z</time>
      </trkpt>
      <trkpt lat="47.9109" lon="-2.46544">
        <ele>62.1</ele>
        <time>2024-12-19T11:52:55Z</time>
      </trkpt>
      <trkpt lat="47.9109" lon="-2.46542">
        <ele>62.1</ele>
        <time>2024-12-19T11:52:56Z</time>
      </trkpt>
      <trkpt lat="47.9109" lon="-2.4654">
        <ele>62.1</ele>
        <time>2024-12-19T11:52:57Z</time>
      </trkpt>
      <trkpt lat="47.9109" lon="-2.46539">
        <ele>62</ele>
        <time>2024-12-19T11:52:58Z</time>
      </trkpt>
      <trkpt lat="47.9109" lon="-2.46537">
        <ele>62</ele>
        <time>2024-12-19T11:52:59Z</time>
      </trkpt>
      <trkpt lat="47.9109" lon="-2.46536">
        <ele>61.9</ele>
        <time>2024-12-19T11:53:00Z</time>
      </trkpt>
      <trkpt lat="47.9109" lon="-2.46535">
        <ele>61.9</ele>
        <time>2024-12-19T11:53:01Z</time>
      </trkpt>
      <trkpt lat="47.91091" lon="-2.46533">
        <ele>61.9</ele>
        <time>2024-12-19T11:53:02Z</time>
      </trkpt>
      <trkpt lat="47.91091" lon="-2.46532">
        <ele>61.9</ele>
        <time>2024-12-19T11:53:03Z</time>
      </trkpt>
      <trkpt lat="47.91092" lon="-2.46531">
        <ele>62</ele>
        <time>2024-12-19T11:53:04Z</time>
      </trkpt>
      <trkpt lat="47.91092" lon="-2.46529">
        <ele>62</ele>
        <time>2024-12-19T11:53:05Z</time>
      </trkpt>
      <trkpt lat="47.91092" lon="-2.46526">
        <ele>62</ele>
        <time>2024-12-19T11:53:06Z</time>
      </trkpt>
      <trkpt lat="47.91093" lon="-2.46524">
        <ele>62</ele>
        <time>2024-12-19T11:53:07Z</time>
      </trkpt>
      <trkpt lat="47.91093" lon="-2.46522">
        <ele>61.9</ele>
        <time>2024-12-19T11:53:08Z</time>
      </trkpt>
      <trkpt lat="47.91093" lon="-2.4652">
        <ele>62</ele>
        <time>2024-12-19T11:53:09Z</time>
      </trkpt>
      <trkpt lat="47.91094" lon="-2.46518">
        <ele>62</ele>
        <time>2024-12-19T11:53:10Z</time>
      </trkpt>
      <trkpt lat="47.91094" lon="-2.46516">
        <ele>62</ele>
        <time>2024-12-19T11:53:11Z</time>
      </trkpt>
      <trkpt lat="47.91094" lon="-2.46514">
        <ele>62</ele>
        <time>2024-12-19T11:53:12Z</time>
      </trkpt>
      <trkpt lat="47.91095" lon="-2.46511">
        <ele>62</ele>
        <time>2024-12-19T11:53:13Z</time>
      </trkpt>
      <trkpt lat="47.91095" lon="-2.46509">
        <ele>61.9</ele>
        <time>2024-12-19T11:53:14Z</time>
      </trkpt>
      <trkpt lat="47.91095" lon="-2.46507">
        <ele>61.9</ele>
        <time>2024-12-19T11:53:15Z</time>
      </trkpt>
      <trkpt lat="47.91095" lon="-2.46505">
        <ele>61.9</ele>
        <time>2024-12-19T11:53:16Z</time>
      </trkpt>
      <trkpt lat="47.91095" lon="-2.46504">
        <ele>61.9</ele>
        <time>2024-12-19T11:53:17Z</time>
      </trkpt>
      <trkpt lat="47.91095" lon="-2.46502">
        <ele>61.9</ele>
        <time>2024-12-19T11:53:18Z</time>
      </trkpt>
      <trkpt lat="47.91095" lon="-2.465">
        <ele>61.9</ele>
        <time>2024-12-19T11:53:19Z</time>
      </trkpt>
      <trkpt lat="47.91096" lon="-2.46498">
        <ele>61.8</ele>
        <time>2024-12-19T11:53:20Z</time>
      </trkpt>
      <trkpt lat="47.91096" lon="-2.46496">
        <ele>61.8</ele>
        <time>2024-12-19T11:53:21Z</time>
      </trkpt>
      <trkpt lat="47.91097" lon="-2.46494">
        <ele>61.7</ele>
        <time>2024-12-19T11:53:22Z</time>
      </trkpt>
      <trkpt lat="47.91097" lon="-2.46492">
        <ele>61.7</ele>
        <time>2024-12-19T11:53:23Z</time>
      </trkpt>
      <trkpt lat="47.91098" lon="-2.4649">
        <ele>61.7</ele>
        <time>2024-12-19T11:53:24Z</time>
      </trkpt>
      <trkpt lat="47.91099" lon="-2.46488">
        <ele>61.7</ele>
        <time>2024-12-19T11:53:25Z</time>
      </trkpt>
      <trkpt lat="47.91099" lon="-2.46486">
        <ele>61.6</ele>
        <time>2024-12-19T11:53:26Z</time>
      </trkpt>
      <trkpt lat="47.91099" lon="-2.46484">
        <ele>61.5</ele>
        <time>2024-12-19T11:53:27Z</time>
      </trkpt>
      <trkpt lat="47.91098" lon="-2.46483">
        <ele>61.5</ele>
        <time>2024-12-19T11:53:28Z</time>
      </trkpt>
      <trkpt lat="47.91098" lon="-2.46482">
        <ele>61.4</ele>
        <time>2024-12-19T11:53:29Z</time>
      </trkpt>
      <trkpt lat="47.91098" lon="-2.46481">
        <ele>61.3</ele>
        <time>2024-12-19T11:53:30Z</time>
      </trkpt>
      <trkpt lat="47.91097" lon="-2.4648">
        <ele>61.2</ele>
        <time>2024-12-19T11:53:31Z</time>
      </trkpt>
      <trkpt lat="47.91096" lon="-2.46479">
        <ele>61.1</ele>
        <time>2024-12-19T11:53:32Z</time>
      </trkpt>
      <trkpt lat="47.91095" lon="-2.46478">
        <ele>61</ele>
        <time>2024-12-19T11:53:33Z</time>
      </trkpt>
      <trkpt lat="47.91094" lon="-2.46477">
        <ele>60.9</ele>
        <time>2024-12-19T11:53:34Z</time>
      </trkpt>
      <trkpt lat="47.91093" lon="-2.46476">
        <ele>60.8</ele>
        <time>2024-12-19T11:53:35Z</time>
      </trkpt>
      <trkpt lat="47.91092" lon="-2.46475">
        <ele>60.7</ele>
        <time>2024-12-19T11:53:36Z</time>
      </trkpt>
      <trkpt lat="47.91092" lon="-2.46473">
        <ele>60.7</ele>
        <time>2024-12-19T11:53:37Z</time>
      </trkpt>
      <trkpt lat="47.91092" lon="-2.46472">
        <ele>60.6</ele>
        <time>2024-12-19T11:53:38Z</time>
      </trkpt>
      <trkpt lat="47.91092" lon="-2.46469">
        <ele>60.7</ele>
        <time>2024-12-19T11:53:39Z</time>
      </trkpt>
      <trkpt lat="47.91092" lon="-2.46467">
        <ele>60.7</ele>
        <time>2024-12-19T11:53:40Z</time>
      </trkpt>
      <trkpt lat="47.91091" lon="-2.46465">
        <ele>60.8</ele>
        <time>2024-12-19T11:53:41Z</time>
      </trkpt>
      <trkpt lat="47.91091" lon="-2.46463">
        <ele>60.8</ele>
        <time>2024-12-19T11:53:42Z</time>
      </trkpt>
      <trkpt lat="47.91091" lon="-2.46461">
        <ele>60.8</ele>
        <time>2024-12-19T11:53:43Z</time>
      </trkpt>
      <trkpt lat="47.91091" lon="-2.46461">
        <ele>60.9</ele>
        <time>2024-12-19T11:53:44Z</time>
      </trkpt>
      <trkpt lat="47.91091" lon="-2.4646">
        <ele>60.9</ele>
        <time>2024-12-19T11:53:45Z</time>
      </trkpt>
      <trkpt lat="47.91091" lon="-2.46458">
        <ele>60.9</ele>
        <time>2024-12-19T11:53:46Z</time>
      </trkpt>
      <trkpt lat="47.91091" lon="-2.46456">
        <ele>61</ele>
        <time>2024-12-19T11:53:47Z</time>
      </trkpt>
      <trkpt lat="47.9109" lon="-2.46455">
        <ele>61</ele>
        <time>2024-12-19T11:53:48Z</time>
      </trkpt>
      <trkpt lat="47.9109" lon="-2.46453">
        <ele>61</ele>
        <time>2024-12-19T11:53:49Z</time>
      </trkpt>
      <trkpt lat="47.91089" lon="-2.46451">
        <ele>61</ele>
        <time>2024-12-19T11:53:50Z</time>
      </trkpt>
      <trkpt lat="47.91089" lon="-2.46449">
        <ele>61.1</ele>
        <time>2024-12-19T11:53:51Z</time>
      </trkpt>
      <trkpt lat="47.91089" lon="-2.46447">
        <ele>61.1</ele>
        <time>2024-12-19T11:53:52Z</time>
      </trkpt>
      <trkpt lat="47.91089" lon="-2.46446">
        <ele>61.2</ele>
        <time>2024-12-19T11:53:53Z</time>
      </trkpt>
      <trkpt lat="47.91088" lon="-2.46444">
        <ele>61.2</ele>
        <time>2024-12-19T11:53:54Z</time>
      </trkpt>
      <trkpt lat="47.91088" lon="-2.46442">
        <ele>61.2</ele>
        <time>2024-12-19T11:53:55Z</time>
      </trkpt>
      <trkpt lat="47.91088" lon="-2.4644">
        <ele>61.2</ele>
        <time>2024-12-19T11:53:56Z</time>
      </trkpt>
      <trkpt lat="47.91088" lon="-2.46438">
        <ele>61.2</ele>
        <time>2024-12-19T11:53:57Z</time>
      </trkpt>
      <trkpt lat="47.91088" lon="-2.46437">
        <ele>61.2</ele>
        <time>2024-12-19T11:53:58Z</time>
      </trkpt>
      <trkpt lat="47.91087" lon="-2.46435">
        <ele>61.2</ele>
        <time>2024-12-19T11:53:59Z</time>
      </trkpt>
      <trkpt lat="47.91087" lon="-2.46433">
        <ele>61.2</ele>
        <time>2024-12-19T11:54:00Z</time>
      </trkpt>
      <trkpt lat="47.91087" lon="-2.46431">
        <ele>61.2</ele>
        <time>2024-12-19T11:54:01Z</time>
      </trkpt>
      <trkpt lat="47.91086" lon="-2.46429">
        <ele>61.2</ele>
        <time>2024-12-19T11:54:02Z</time>
      </trkpt>
      <trkpt lat="47.91086" lon="-2.46428">
        <ele>61.2</ele>
        <time>2024-12-19T11:54:03Z</time>
      </trkpt>
      <trkpt lat="47.91086" lon="-2.46426">
        <ele>61.1</ele>
        <time>2024-12-19T11:54:04Z</time>
      </trkpt>
      <trkpt lat="47.91085" lon="-2.46424">
        <ele>61.1</ele>
        <time>2024-12-19T11:54:05Z</time>
      </trkpt>
      <trkpt lat="47.91085" lon="-2.46422">
        <ele>61.1</ele>
        <time>2024-12-19T11:54:06Z</time>
      </trkpt>
      <trkpt lat="47.91084" lon="-2.46421">
        <ele>61.1</ele>
        <time>2024-12-19T11:54:07Z</time>
      </trkpt>
      <trkpt lat="47.91084" lon="-2.46419">
        <ele>61.1</ele>
        <time>2024-12-19T11:54:08Z</time>
      </trkpt>
      <trkpt lat="47.91084" lon="-2.46417">
        <ele>61</ele>
        <time>2024-12-19T11:54:09Z</time>
      </trkpt>
      <trkpt lat="47.91083" lon="-2.46414">
        <ele>60.9</ele>
        <time>2024-12-19T11:54:10Z</time>
      </trkpt>
      <trkpt lat="47.91083" lon="-2.46412">
        <ele>60.8</ele>
        <time>2024-12-19T11:54:11Z</time>
      </trkpt>
      <trkpt lat="47.91083" lon="-2.4641">
        <ele>60.7</ele>
        <time>2024-12-19T11:54:12Z</time>
      </trkpt>
      <trkpt lat="47.91083" lon="-2.46408">
        <ele>60.6</ele>
        <time>2024-12-19T11:54:13Z</time>
      </trkpt>
      <trkpt lat="47.91083" lon="-2.46406">
        <ele>60.6</ele>
        <time>2024-12-19T11:54:14Z</time>
      </trkpt>
      <trkpt lat="47.91082" lon="-2.46404">
        <ele>60.5</ele>
        <time>2024-12-19T11:54:15Z</time>
      </trkpt>
      <trkpt lat="47.91083" lon="-2.46403">
        <ele>60.5</ele>
        <time>2024-12-19T11:54:16Z</time>
      </trkpt>
      <trkpt lat="47.91083" lon="-2.46401">
        <ele>60.4</ele>
        <time>2024-12-19T11:54:17Z</time>
      </trkpt>
      <trkpt lat="47.91083" lon="-2.46399">
        <ele>60.4</ele>
        <time>2024-12-19T11:54:18Z</time>
      </trkpt>
      <trkpt lat="47.91084" lon="-2.46397">
        <ele>60.3</ele>
        <time>2024-12-19T11:54:19Z</time>
      </trkpt>
      <trkpt lat="47.91084" lon="-2.46396">
        <ele>60.3</ele>
        <time>2024-12-19T11:54:20Z</time>
      </trkpt>
      <trkpt lat="47.91083" lon="-2.46394">
        <ele>60.2</ele>
        <time>2024-12-19T11:54:21Z</time>
      </trkpt>
      <trkpt lat="47.91083" lon="-2.46393">
        <ele>60.1</ele>
        <time>2024-12-19T11:54:22Z</time>
      </trkpt>
      <trkpt lat="47.91083" lon="-2.46391">
        <ele>60.1</ele>
        <time>2024-12-19T11:54:23Z</time>
      </trkpt>
      <trkpt lat="47.91082" lon="-2.4639">
        <ele>60</ele>
        <time>2024-12-19T11:54:24Z</time>
      </trkpt>
      <trkpt lat="47.91082" lon="-2.46388">
        <ele>59.9</ele>
        <time>2024-12-19T11:54:25Z</time>
      </trkpt>
      <trkpt lat="47.91081" lon="-2.46386">
        <ele>59.9</ele>
        <time>2024-12-19T11:54:26Z</time>
      </trkpt>
      <trkpt lat="47.91081" lon="-2.46384">
        <ele>59.9</ele>
        <time>2024-12-19T11:54:27Z</time>
      </trkpt>
      <trkpt lat="47.9108" lon="-2.46382">
        <ele>59.9</ele>
        <time>2024-12-19T11:54:28Z</time>
      </trkpt>
      <trkpt lat="47.9108" lon="-2.4638">
        <ele>59.8</ele>
        <time>2024-12-19T11:54:29Z</time>
      </trkpt>
      <trkpt lat="47.9108" lon="-2.46377">
        <ele>59.8</ele>
        <time>2024-12-19T11:54:30Z</time>
      </trkpt>
      <trkpt lat="47.9108" lon="-2.46375">
        <ele>59.8</ele>
        <time>2024-12-19T11:54:31Z</time>
      </trkpt>
      <trkpt lat="47.9108" lon="-2.46373">
        <ele>59.8</ele>
        <time>2024-12-19T11:54:32Z</time>
      </trkpt>
      <trkpt lat="47.9108" lon="-2.46371">
        <ele>59.8</ele>
        <time>2024-12-19T11:54:33Z</time>
      </trkpt>
      <trkpt lat="47.9108" lon="-2.46369">
        <ele>59.8</ele>
        <time>2024-12-19T11:54:34Z</time>
      </trkpt>
      <trkpt lat="47.9108" lon="-2.46368">
        <ele>59.8</ele>
        <time>2024-12-19T11:54:35Z</time>
      </trkpt>
      <trkpt lat="47.9108" lon="-2.46366">
        <ele>59.8</ele>
        <time>2024-12-19T11:54:36Z</time>
      </trkpt>
      <trkpt lat="47.9108" lon="-2.46364">
        <ele>59.8</ele>
        <time>2024-12-19T11:54:37Z</time>
      </trkpt>
      <trkpt lat="47.9108" lon="-2.46362">
        <ele>59.7</ele>
        <time>2024-12-19T11:54:38Z</time>
      </trkpt>
      <trkpt lat="47.9108" lon="-2.4636">
        <ele>59.7</ele>
        <time>2024-12-19T11:54:39Z</time>
      </trkpt>
      <trkpt lat="47.9108" lon="-2.46358">
        <ele>59.6</ele>
        <time>2024-12-19T11:54:40Z</time>
      </trkpt>
      <trkpt lat="47.9108" lon="-2.46356">
        <ele>59.5</ele>
        <time>2024-12-19T11:54:41Z</time>
      </trkpt>
      <trkpt lat="47.9108" lon="-2.46354">
        <ele>59.5</ele>
        <time>2024-12-19T11:54:42Z</time>
      </trkpt>
      <trkpt lat="47.9108" lon="-2.46352">
        <ele>59.4</ele>
        <time>2024-12-19T11:54:43Z</time>
      </trkpt>
      <trkpt lat="47.9108" lon="-2.4635">
        <ele>59.3</ele>
        <time>2024-12-19T11:54:44Z</time>
      </trkpt>
      <trkpt lat="47.9108" lon="-2.46348">
        <ele>59.3</ele>
        <time>2024-12-19T11:54:45Z</time>
      </trkpt>
      <trkpt lat="47.91079" lon="-2.46347">
        <ele>59.2</ele>
        <time>2024-12-19T11:54:46Z</time>
      </trkpt>
      <trkpt lat="47.91079" lon="-2.46345">
        <ele>59.1</ele>
        <time>2024-12-19T11:54:47Z</time>
      </trkpt>
      <trkpt lat="47.91079" lon="-2.46343">
        <ele>59</ele>
        <time>2024-12-19T11:54:48Z</time>
      </trkpt>
      <trkpt lat="47.91078" lon="-2.46341">
        <ele>58.9</ele>
        <time>2024-12-19T11:54:49Z</time>
      </trkpt>
      <trkpt lat="47.91078" lon="-2.4634">
        <ele>58.9</ele>
        <time>2024-12-19T11:54:50Z</time>
      </trkpt>
      <trkpt lat="47.91078" lon="-2.46338">
        <ele>58.8</ele>
        <time>2024-12-19T11:54:51Z</time>
      </trkpt>
      <trkpt lat="47.91078" lon="-2.46336">
        <ele>58.7</ele>
        <time>2024-12-19T11:54:52Z</time>
      </trkpt>
      <trkpt lat="47.91078" lon="-2.46335">
        <ele>58.7</ele>
        <time>2024-12-19T11:54:53Z</time>
      </trkpt>
      <trkpt lat="47.91078" lon="-2.46333">
        <ele>58.6</ele>
        <time>2024-12-19T11:54:54Z</time>
      </trkpt>
      <trkpt lat="47.91079" lon="-2.46331">
        <ele>58.5</ele>
        <time>2024-12-19T11:54:55Z</time>
      </trkpt>
      <trkpt lat="47.91079" lon="-2.46329">
        <ele>58.4</ele>
        <time>2024-12-19T11:54:56Z</time>
      </trkpt>
      <trkpt lat="47.91079" lon="-2.46328">
        <ele>58.3</ele>
        <time>2024-12-19T11:54:57Z</time>
      </trkpt>
      <trkpt lat="47.9108" lon="-2.46326">
        <ele>58.2</ele>
        <time>2024-12-19T11:54:58Z</time>
      </trkpt>
      <trkpt lat="47.9108" lon="-2.46324">
        <ele>58.1</ele>
        <time>2024-12-19T11:54:59Z</time>
      </trkpt>
      <trkpt lat="47.9108" lon="-2.46322">
        <ele>58</ele>
        <time>2024-12-19T11:55:00Z</time>
      </trkpt>
      <trkpt lat="47.9108" lon="-2.4632">
        <ele>57.8</ele>
        <time>2024-12-19T11:55:01Z</time>
      </trkpt>
      <trkpt lat="47.9108" lon="-2.46318">
        <ele>57.7</ele>
        <time>2024-12-19T11:55:02Z</time>
      </trkpt>
      <trkpt lat="47.91081" lon="-2.46315">
        <ele>57.6</ele>
        <time>2024-12-19T11:55:03Z</time>
      </trkpt>
      <trkpt lat="47.91081" lon="-2.46313">
        <ele>57.4</ele>
        <time>2024-12-19T11:55:04Z</time>
      </trkpt>
      <trkpt lat="47.91081" lon="-2.46311">
        <ele>57.3</ele>
        <time>2024-12-19T11:55:05Z</time>
      </trkpt>
      <trkpt lat="47.91081" lon="-2.46309">
        <ele>57.2</ele>
        <time>2024-12-19T11:55:06Z</time>
      </trkpt>
      <trkpt lat="47.91081" lon="-2.46307">
        <ele>57.1</ele>
        <time>2024-12-19T11:55:07Z</time>
      </trkpt>
      <trkpt lat="47.91081" lon="-2.46306">
        <ele>56.9</ele>
        <time>2024-12-19T11:55:08Z</time>
      </trkpt>
      <trkpt lat="47.91081" lon="-2.46304">
        <ele>56.9</ele>
        <time>2024-12-19T11:55:09Z</time>
      </trkpt>
      <trkpt lat="47.91081" lon="-2.46302">
        <ele>56.8</ele>
        <time>2024-12-19T11:55:10Z</time>
      </trkpt>
      <trkpt lat="47.91081" lon="-2.463">
        <ele>56.7</ele>
        <time>2024-12-19T11:55:11Z</time>
      </trkpt>
      <trkpt lat="47.91081" lon="-2.46299">
        <ele>56.6</ele>
        <time>2024-12-19T11:55:12Z</time>
      </trkpt>
      <trkpt lat="47.9108" lon="-2.46297">
        <ele>56.6</ele>
        <time>2024-12-19T11:55:13Z</time>
      </trkpt>
      <trkpt lat="47.9108" lon="-2.46295">
        <ele>56.4</ele>
        <time>2024-12-19T11:55:14Z</time>
      </trkpt>
      <trkpt lat="47.91079" lon="-2.46293">
        <ele>56.3</ele>
        <time>2024-12-19T11:55:15Z</time>
      </trkpt>
      <trkpt lat="47.91079" lon="-2.46291">
        <ele>56.2</ele>
        <time>2024-12-19T11:55:16Z</time>
      </trkpt>
      <trkpt lat="47.91079" lon="-2.46288">
        <ele>56.1</ele>
        <time>2024-12-19T11:55:17Z</time>
      </trkpt>
      <trkpt lat="47.91078" lon="-2.46286">
        <ele>56</ele>
        <time>2024-12-19T11:55:18Z</time>
      </trkpt>
      <trkpt lat="47.91078" lon="-2.46284">
        <ele>55.9</ele>
        <time>2024-12-19T11:55:19Z</time>
      </trkpt>
      <trkpt lat="47.91078" lon="-2.46282">
        <ele>55.8</ele>
        <time>2024-12-19T11:55:20Z</time>
      </trkpt>
      <trkpt lat="47.91078" lon="-2.4628">
        <ele>55.7</ele>
        <time>2024-12-19T11:55:21Z</time>
      </trkpt>
      <trkpt lat="47.91078" lon="-2.46278">
        <ele>55.6</ele>
        <time>2024-12-19T11:55:22Z</time>
      </trkpt>
      <trkpt lat="47.91078" lon="-2.46276">
        <ele>55.6</ele>
        <time>2024-12-19T11:55:23Z</time>
      </trkpt>
      <trkpt lat="47.91078" lon="-2.46273">
        <ele>55.6</ele>
        <time>2024-12-19T11:55:24Z</time>
      </trkpt>
      <trkpt lat="47.91078" lon="-2.46271">
        <ele>55.6</ele>
        <time>2024-12-19T11:55:25Z</time>
      </trkpt>
      <trkpt lat="47.91078" lon="-2.4627">
        <ele>55.6</ele>
        <time>2024-12-19T11:55:26Z</time>
      </trkpt>
      <trkpt lat="47.91078" lon="-2.46268">
        <ele>55.6</ele>
        <time>2024-12-19T11:55:27Z</time>
      </trkpt>
      <trkpt lat="47.91077" lon="-2.46266">
        <ele>55.6</ele>
        <time>2024-12-19T11:55:28Z</time>
      </trkpt>
      <trkpt lat="47.91077" lon="-2.46264">
        <ele>55.5</ele>
        <time>2024-12-19T11:55:29Z</time>
      </trkpt>
      <trkpt lat="47.91076" lon="-2.46263">
        <ele>55.5</ele>
        <time>2024-12-19T11:55:30Z</time>
      </trkpt>
      <trkpt lat="47.91075" lon="-2.46261">
        <ele>55.4</ele>
        <time>2024-12-19T11:55:31Z</time>
      </trkpt>
      <trkpt lat="47.91075" lon="-2.46259">
        <ele>55.4</ele>
        <time>2024-12-19T11:55:32Z</time>
      </trkpt>
      <trkpt lat="47.91075" lon="-2.46256">
        <ele>55.4</ele>
        <time>2024-12-19T11:55:33Z</time>
      </trkpt>
      <trkpt lat="47.91075" lon="-2.46254">
        <ele>55.4</ele>
        <time>2024-12-19T11:55:34Z</time>
      </trkpt>
      <trkpt lat="47.91075" lon="-2.46252">
        <ele>55.4</ele>
        <time>2024-12-19T11:55:35Z</time>
      </trkpt>
      <trkpt lat="47.91075" lon="-2.4625">
        <ele>55.4</ele>
        <time>2024-12-19T11:55:36Z</time>
      </trkpt>
      <trkpt lat="47.91075" lon="-2.46249">
        <ele>55.5</ele>
        <time>2024-12-19T11:55:37Z</time>
      </trkpt>
      <trkpt lat="47.91075" lon="-2.46247">
        <ele>55.6</ele>
        <time>2024-12-19T11:55:38Z</time>
      </trkpt>
      <trkpt lat="47.91074" lon="-2.46245">
        <ele>55.7</ele>
        <time>2024-12-19T11:55:39Z</time>
      </trkpt>
      <trkpt lat="47.91074" lon="-2.46243">
        <ele>55.9</ele>
        <time>2024-12-19T11:55:40Z</time>
      </trkpt>
      <trkpt lat="47.91074" lon="-2.46241">
        <ele>56</ele>
        <time>2024-12-19T11:55:41Z</time>
      </trkpt>
      <trkpt lat="47.91074" lon="-2.46239">
        <ele>56.2</ele>
        <time>2024-12-19T11:55:42Z</time>
      </trkpt>
      <trkpt lat="47.91074" lon="-2.46237">
        <ele>56.3</ele>
        <time>2024-12-19T11:55:43Z</time>
      </trkpt>
      <trkpt lat="47.91073" lon="-2.46235">
        <ele>56.4</ele>
        <time>2024-12-19T11:55:44Z</time>
      </trkpt>
      <trkpt lat="47.91073" lon="-2.46233">
        <ele>56.5</ele>
        <time>2024-12-19T11:55:45Z</time>
      </trkpt>
      <trkpt lat="47.91073" lon="-2.46232">
        <ele>56.7</ele>
        <time>2024-12-19T11:55:46Z</time>
      </trkpt>
      <trkpt lat="47.91072" lon="-2.4623">
        <ele>56.8</ele>
        <time>2024-12-19T11:55:47Z</time>
      </trkpt>
      <trkpt lat="47.91072" lon="-2.46228">
        <ele>56.9</ele>
        <time>2024-12-19T11:55:48Z</time>
      </trkpt>
      <trkpt lat="47.91072" lon="-2.46226">
        <ele>57.1</ele>
        <time>2024-12-19T11:55:49Z</time>
      </trkpt>
      <trkpt lat="47.91072" lon="-2.46225">
        <ele>57.2</ele>
        <time>2024-12-19T11:55:50Z</time>
      </trkpt>
      <trkpt lat="47.91072" lon="-2.46224">
        <ele>57.3</ele>
        <time>2024-12-19T11:55:51Z</time>
      </trkpt>
      <trkpt lat="47.91072" lon="-2.46222">
        <ele>57.4</ele>
        <time>2024-12-19T11:55:52Z</time>
      </trkpt>
      <trkpt lat="47.91072" lon="-2.46221">
        <ele>57.5</ele>
        <time>2024-12-19T11:55:53Z</time>
      </trkpt>
      <trkpt lat="47.91071" lon="-2.46219">
        <ele>57.6</ele>
        <time>2024-12-19T11:55:54Z</time>
      </trkpt>
      <trkpt lat="47.91071" lon="-2.46217">
        <ele>57.7</ele>
        <time>2024-12-19T11:55:55Z</time>
      </trkpt>
      <trkpt lat="47.91071" lon="-2.46216">
        <ele>57.8</ele>
        <time>2024-12-19T11:55:56Z</time>
      </trkpt>
      <trkpt lat="47.91071" lon="-2.46214">
        <ele>57.9</ele>
        <time>2024-12-19T11:55:57Z</time>
      </trkpt>
      <trkpt lat="47.91071" lon="-2.46212">
        <ele>58</ele>
        <time>2024-12-19T11:55:58Z</time>
      </trkpt>
      <trkpt lat="47.91071" lon="-2.46211">
        <ele>58</ele>
        <time>2024-12-19T11:55:59Z</time>
      </trkpt>
      <trkpt lat="47.91071" lon="-2.46209">
        <ele>58.1</ele>
        <time>2024-12-19T11:56:00Z</time>
      </trkpt>
      <trkpt lat="47.91071" lon="-2.46208">
        <ele>58.2</ele>
        <time>2024-12-19T11:56:01Z</time>
      </trkpt>
      <trkpt lat="47.91071" lon="-2.46206">
        <ele>58.3</ele>
        <time>2024-12-19T11:56:02Z</time>
      </trkpt>
      <trkpt lat="47.9107" lon="-2.46205">
        <ele>58.4</ele>
        <time>2024-12-19T11:56:03Z</time>
      </trkpt>
      <trkpt lat="47.9107" lon="-2.46203">
        <ele>58.5</ele>
        <time>2024-12-19T11:56:04Z</time>
      </trkpt>
      <trkpt lat="47.9107" lon="-2.46202">
        <ele>58.6</ele>
        <time>2024-12-19T11:56:05Z</time>
      </trkpt>
      <trkpt lat="47.9107" lon="-2.462">
        <ele>58.7</ele>
        <time>2024-12-19T11:56:06Z</time>
      </trkpt>
      <trkpt lat="47.9107" lon="-2.46198">
        <ele>58.8</ele>
        <time>2024-12-19T11:56:07Z</time>
      </trkpt>
      <trkpt lat="47.9107" lon="-2.46197">
        <ele>58.8</ele>
        <time>2024-12-19T11:56:08Z</time>
      </trkpt>
      <trkpt lat="47.9107" lon="-2.46195">
        <ele>58.9</ele>
        <time>2024-12-19T11:56:09Z</time>
      </trkpt>
      <trkpt lat="47.9107" lon="-2.46194">
        <ele>59.1</ele>
        <time>2024-12-19T11:56:10Z</time>
      </trkpt>
      <trkpt lat="47.91069" lon="-2.46192">
        <ele>59.2</ele>
        <time>2024-12-19T11:56:11Z</time>
      </trkpt>
      <trkpt lat="47.91069" lon="-2.46191">
        <ele>59.4</ele>
        <time>2024-12-19T11:56:12Z</time>
      </trkpt>
      <trkpt lat="47.91069" lon="-2.46189">
        <ele>59.6</ele>
        <time>2024-12-19T11:56:13Z</time>
      </trkpt>
      <trkpt lat="47.91069" lon="-2.46188">
        <ele>59.8</ele>
        <time>2024-12-19T11:56:14Z</time>
      </trkpt>
      <trkpt lat="47.91068" lon="-2.46186">
        <ele>60</ele>
        <time>2024-12-19T11:56:15Z</time>
      </trkpt>
      <trkpt lat="47.91068" lon="-2.46184">
        <ele>60.2</ele>
        <time>2024-12-19T11:56:16Z</time>
      </trkpt>
      <trkpt lat="47.91068" lon="-2.46183">
        <ele>60.4</ele>
        <time>2024-12-19T11:56:17Z</time>
      </trkpt>
      <trkpt lat="47.91068" lon="-2.46181">
        <ele>60.5</ele>
        <time>2024-12-19T11:56:18Z</time>
      </trkpt>
      <trkpt lat="47.91068" lon="-2.46179">
        <ele>60.7</ele>
        <time>2024-12-19T11:56:19Z</time>
      </trkpt>
      <trkpt lat="47.91068" lon="-2.46178">
        <ele>61</ele>
        <time>2024-12-19T11:56:20Z</time>
      </trkpt>
      <trkpt lat="47.91067" lon="-2.46176">
        <ele>61.2</ele>
        <time>2024-12-19T11:56:21Z</time>
      </trkpt>
      <trkpt lat="47.91067" lon="-2.46175">
        <ele>61.3</ele>
        <time>2024-12-19T11:56:22Z</time>
      </trkpt>
      <trkpt lat="47.91067" lon="-2.46173">
        <ele>61.5</ele>
        <time>2024-12-19T11:56:23Z</time>
      </trkpt>
      <trkpt lat="47.91066" lon="-2.46172">
        <ele>61.7</ele>
        <time>2024-12-19T11:56:24Z</time>
      </trkpt>
      <trkpt lat="47.91066" lon="-2.4617">
        <ele>61.9</ele>
        <time>2024-12-19T11:56:25Z</time>
      </trkpt>
      <trkpt lat="47.91066" lon="-2.46169">
        <ele>62.1</ele>
        <time>2024-12-19T11:56:26Z</time>
      </trkpt>
      <trkpt lat="47.91065" lon="-2.46167">
        <ele>62.3</ele>
        <time>2024-12-19T11:56:27Z</time>
      </trkpt>
      <trkpt lat="47.91065" lon="-2.46166">
        <ele>62.4</ele>
        <time>2024-12-19T11:56:28Z</time>
      </trkpt>
      <trkpt lat="47.91065" lon="-2.46164">
        <ele>62.5</ele>
        <time>2024-12-19T11:56:29Z</time>
      </trkpt>
      <trkpt lat="47.91065" lon="-2.46163">
        <ele>62.6</ele>
        <time>2024-12-19T11:56:30Z</time>
      </trkpt>
      <trkpt lat="47.91065" lon="-2.46162">
        <ele>62.7</ele>
        <time>2024-12-19T11:56:31Z</time>
      </trkpt>
      <trkpt lat="47.91065" lon="-2.4616">
        <ele>62.9</ele>
        <time>2024-12-19T11:56:32Z</time>
      </trkpt>
      <trkpt lat="47.91065" lon="-2.46159">
        <ele>63</ele>
        <time>2024-12-19T11:56:33Z</time>
      </trkpt>
      <trkpt lat="47.91065" lon="-2.46157">
        <ele>63.1</ele>
        <time>2024-12-19T11:56:34Z</time>
      </trkpt>
      <trkpt lat="47.91065" lon="-2.46156">
        <ele>63.2</ele>
        <time>2024-12-19T11:56:35Z</time>
      </trkpt>
      <trkpt lat="47.91065" lon="-2.46155">
        <ele>63.3</ele>
        <time>2024-12-19T11:56:36Z</time>
      </trkpt>
      <trkpt lat="47.91065" lon="-2.46153">
        <ele>63.5</ele>
        <time>2024-12-19T11:56:37Z</time>
      </trkpt>
      <trkpt lat="47.91065" lon="-2.46152">
        <ele>63.6</ele>
        <time>2024-12-19T11:56:38Z</time>
      </trkpt>
      <trkpt lat="47.91065" lon="-2.46151">
        <ele>63.6</ele>
        <time>2024-12-19T11:56:39Z</time>
      </trkpt>
      <trkpt lat="47.91065" lon="-2.46151">
        <ele>63.6</ele>
        <time>2024-12-19T11:56:40Z</time>
      </trkpt>
      <trkpt lat="47.91065" lon="-2.46152">
        <ele>63.6</ele>
        <time>2024-12-19T11:56:41Z</time>
      </trkpt>
      <trkpt lat="47.91065" lon="-2.46152">
        <ele>63.6</ele>
        <time>2024-12-19T11:56:42Z</time>
      </trkpt>
      <trkpt lat="47.91065" lon="-2.46152">
        <ele>63.5</ele>
        <time>2024-12-19T11:56:43Z</time>
      </trkpt>
      <trkpt lat="47.91065" lon="-2.46152">
        <ele>63.6</ele>
        <time>2024-12-19T11:56:44Z</time>
      </trkpt>
      <trkpt lat="47.91065" lon="-2.46152">
        <ele>63.5</ele>
        <time>2024-12-19T11:56:45Z</time>
      </trkpt>
      <trkpt lat="47.91065" lon="-2.46152">
        <ele>63.5</ele>
        <time>2024-12-19T11:56:46Z</time>
      </trkpt>
      <trkpt lat="47.91066" lon="-2.46152">
        <ele>63.5</ele>
        <time>2024-12-19T11:56:47Z</time>
      </trkpt>
      <trkpt lat="47.91066" lon="-2.46152">
        <ele>63.5</ele>
        <time>2024-12-19T11:56:48Z</time>
      </trkpt>
      <trkpt lat="47.91066" lon="-2.46152">
        <ele>63.5</ele>
        <time>2024-12-19T11:56:49Z</time>
      </trkpt>
      <trkpt lat="47.91066" lon="-2.46153">
        <ele>63.5</ele>
        <time>2024-12-19T11:56:50Z</time>
      </trkpt>
      <trkpt lat="47.91066" lon="-2.46153">
        <ele>63.5</ele>
        <time>2024-12-19T11:56:51Z</time>
      </trkpt>
      <trkpt lat="47.91066" lon="-2.46152">
        <ele>63.5</ele>
        <time>2024-12-19T11:56:52Z</time>
      </trkpt>
      <trkpt lat="47.91066" lon="-2.46151">
        <ele>63.6</ele>
        <time>2024-12-19T11:56:53Z</time>
      </trkpt>
      <trkpt lat="47.91065" lon="-2.4615">
        <ele>63.7</ele>
        <time>2024-12-19T11:56:54Z</time>
      </trkpt>
      <trkpt lat="47.91065" lon="-2.46149">
        <ele>63.9</ele>
        <time>2024-12-19T11:56:55Z</time>
      </trkpt>
      <trkpt lat="47.91065" lon="-2.46147">
        <ele>64</ele>
        <time>2024-12-19T11:56:56Z</time>
      </trkpt>
      <trkpt lat="47.91064" lon="-2.46146">
        <ele>64.1</ele>
        <time>2024-12-19T11:56:57Z</time>
      </trkpt>
      <trkpt lat="47.91063" lon="-2.46144">
        <ele>64.3</ele>
        <time>2024-12-19T11:56:58Z</time>
      </trkpt>
      <trkpt lat="47.91063" lon="-2.46143">
        <ele>64.4</ele>
        <time>2024-12-19T11:56:59Z</time>
      </trkpt>
      <trkpt lat="47.91063" lon="-2.46141">
        <ele>64.6</ele>
        <time>2024-12-19T11:57:00Z</time>
      </trkpt>
      <trkpt lat="47.91063" lon="-2.4614">
        <ele>64.7</ele>
        <time>2024-12-19T11:57:01Z</time>
      </trkpt>
      <trkpt lat="47.91063" lon="-2.46138">
        <ele>64.8</ele>
        <time>2024-12-19T11:57:02Z</time>
      </trkpt>
      <trkpt lat="47.91063" lon="-2.46137">
        <ele>64.9</ele>
        <time>2024-12-19T11:57:03Z</time>
      </trkpt>
      <trkpt lat="47.91063" lon="-2.46136">
        <ele>65</ele>
        <time>2024-12-19T11:57:04Z</time>
      </trkpt>
      <trkpt lat="47.91063" lon="-2.46135">
        <ele>65.1</ele>
        <time>2024-12-19T11:57:05Z</time>
      </trkpt>
      <trkpt lat="47.91062" lon="-2.46134">
        <ele>65.2</ele>
        <time>2024-12-19T11:57:06Z</time>
      </trkpt>
      <trkpt lat="47.91062" lon="-2.46132">
        <ele>65.3</ele>
        <time>2024-12-19T11:57:07Z</time>
      </trkpt>
      <trkpt lat="47.91062" lon="-2.4613">
        <ele>65.4</ele>
        <time>2024-12-19T11:57:08Z</time>
      </trkpt>
      <trkpt lat="47.91062" lon="-2.46129">
        <ele>65.6</ele>
        <time>2024-12-19T11:57:09Z</time>
      </trkpt>
      <trkpt lat="47.91062" lon="-2.46127">
        <ele>65.7</ele>
        <time>2024-12-19T11:57:10Z</time>
      </trkpt>
      <trkpt lat="47.91062" lon="-2.46126">
        <ele>65.8</ele>
        <time>2024-12-19T11:57:11Z</time>
      </trkpt>
      <trkpt lat="47.91062" lon="-2.46125">
        <ele>65.9</ele>
        <time>2024-12-19T11:57:12Z</time>
      </trkpt>
      <trkpt lat="47.91062" lon="-2.46123">
        <ele>66</ele>
        <time>2024-12-19T11:57:13Z</time>
      </trkpt>
      <trkpt lat="47.91062" lon="-2.46122">
        <ele>66.1</ele>
        <time>2024-12-19T11:57:14Z</time>
      </trkpt>
      <trkpt lat="47.91063" lon="-2.46122">
        <ele>66.1</ele>
        <time>2024-12-19T11:57:15Z</time>
      </trkpt>
      <trkpt lat="47.91062" lon="-2.46122">
        <ele>66.1</ele>
        <time>2024-12-19T11:57:16Z</time>
      </trkpt>
      <trkpt lat="47.91062" lon="-2.46121">
        <ele>66.2</ele>
        <time>2024-12-19T11:57:17Z</time>
      </trkpt>
      <trkpt lat="47.91062" lon="-2.4612">
        <ele>66.3</ele>
        <time>2024-12-19T11:57:18Z</time>
      </trkpt>
      <trkpt lat="47.91062" lon="-2.46119">
        <ele>66.3</ele>
        <time>2024-12-19T11:57:19Z</time>
      </trkpt>
      <trkpt lat="47.91062" lon="-2.46119">
        <ele>66.3</ele>
        <time>2024-12-19T11:57:20Z</time>
      </trkpt>
      <trkpt lat="47.91062" lon="-2.46119">
        <ele>66.3</ele>
        <time>2024-12-19T11:57:21Z</time>
      </trkpt>
      <trkpt lat="47.91062" lon="-2.46119">
        <ele>66.3</ele>
        <time>2024-12-19T11:57:22Z</time>
      </trkpt>
      <trkpt lat="47.91062" lon="-2.46119">
        <ele>66.3</ele>
        <time>2024-12-19T11:57:23Z</time>
      </trkpt>
      <trkpt lat="47.91062" lon="-2.46119">
        <ele>66.4</ele>
        <time>2024-12-19T11:57:24Z</time>
      </trkpt>
      <trkpt lat="47.91061" lon="-2.46118">
        <ele>66.5</ele>
        <time>2024-12-19T11:57:25Z</time>
      </trkpt>
      <trkpt lat="47.91061" lon="-2.46116">
        <ele>66.6</ele>
        <time>2024-12-19T11:57:26Z</time>
      </trkpt>
      <trkpt lat="47.91061" lon="-2.46114">
        <ele>66.8</ele>
        <time>2024-12-19T11:57:27Z</time>
      </trkpt>
      <trkpt lat="47.91061" lon="-2.46113">
        <ele>66.8</ele>
        <time>2024-12-19T11:57:28Z</time>
      </trkpt>
      <trkpt lat="47.9106" lon="-2.46112">
        <ele>67</ele>
        <time>2024-12-19T11:57:29Z</time>
      </trkpt>
      <trkpt lat="47.9106" lon="-2.4611">
        <ele>67.1</ele>
        <time>2024-12-19T11:57:30Z</time>
      </trkpt>
      <trkpt lat="47.9106" lon="-2.46109">
        <ele>67.1</ele>
        <time>2024-12-19T11:57:31Z</time>
      </trkpt>
      <trkpt lat="47.9106" lon="-2.46108">
        <ele>67.2</ele>
        <time>2024-12-19T11:57:32Z</time>
      </trkpt>
      <trkpt lat="47.9106" lon="-2.46108">
        <ele>67.3</ele>
        <time>2024-12-19T11:57:33Z</time>
      </trkpt>
      <trkpt lat="47.91059" lon="-2.46107">
        <ele>67.3</ele>
        <time>2024-12-19T11:57:34Z</time>
      </trkpt>
      <trkpt lat="47.91059" lon="-2.46105">
        <ele>67.5</ele>
        <time>2024-12-19T11:57:36Z</time>
      </trkpt>
      <trkpt lat="47.91059" lon="-2.46104">
        <ele>67.5</ele>
        <time>2024-12-19T11:57:37Z</time>
      </trkpt>
      <trkpt lat="47.91058" lon="-2.46102">
        <ele>67.7</ele>
        <time>2024-12-19T11:57:38Z</time>
      </trkpt>
      <trkpt lat="47.91058" lon="-2.461">
        <ele>67.8</ele>
        <time>2024-12-19T11:57:39Z</time>
      </trkpt>
      <trkpt lat="47.91058" lon="-2.46098">
        <ele>67.9</ele>
        <time>2024-12-19T11:57:40Z</time>
      </trkpt>
      <trkpt lat="47.91057" lon="-2.46097">
        <ele>68</ele>
        <time>2024-12-19T11:57:41Z</time>
      </trkpt>
      <trkpt lat="47.91057" lon="-2.46095">
        <ele>68.1</ele>
        <time>2024-12-19T11:57:42Z</time>
      </trkpt>
      <trkpt lat="47.91057" lon="-2.46094">
        <ele>68.2</ele>
        <time>2024-12-19T11:57:43Z</time>
      </trkpt>
      <trkpt lat="47.91056" lon="-2.46092">
        <ele>68.4</ele>
        <time>2024-12-19T11:57:44Z</time>
      </trkpt>
      <trkpt lat="47.91056" lon="-2.4609">
        <ele>68.5</ele>
        <time>2024-12-19T11:57:45Z</time>
      </trkpt>
      <trkpt lat="47.91056" lon="-2.46088">
        <ele>68.6</ele>
        <time>2024-12-19T11:57:46Z</time>
      </trkpt>
      <trkpt lat="47.91056" lon="-2.46087">
        <ele>68.8</ele>
        <time>2024-12-19T11:57:47Z</time>
      </trkpt>
      <trkpt lat="47.91056" lon="-2.46085">
        <ele>68.9</ele>
        <time>2024-12-19T11:57:48Z</time>
      </trkpt>
      <trkpt lat="47.91055" lon="-2.46083">
        <ele>69</ele>
        <time>2024-12-19T11:57:49Z</time>
      </trkpt>
      <trkpt lat="47.91055" lon="-2.46082">
        <ele>69.2</ele>
        <time>2024-12-19T11:57:50Z</time>
      </trkpt>
      <trkpt lat="47.91055" lon="-2.4608">
        <ele>69.3</ele>
        <time>2024-12-19T11:57:51Z</time>
      </trkpt>
      <trkpt lat="47.91055" lon="-2.46079">
        <ele>69.4</ele>
        <time>2024-12-19T11:57:52Z</time>
      </trkpt>
      <trkpt lat="47.91054" lon="-2.46077">
        <ele>69.6</ele>
        <time>2024-12-19T11:57:53Z</time>
      </trkpt>
      <trkpt lat="47.91054" lon="-2.46075">
        <ele>69.7</ele>
        <time>2024-12-19T11:57:54Z</time>
      </trkpt>
      <trkpt lat="47.91054" lon="-2.46074">
        <ele>69.8</ele>
        <time>2024-12-19T11:57:55Z</time>
      </trkpt>
      <trkpt lat="47.91054" lon="-2.46072">
        <ele>69.9</ele>
        <time>2024-12-19T11:57:56Z</time>
      </trkpt>
      <trkpt lat="47.91054" lon="-2.46071">
        <ele>70</ele>
        <time>2024-12-19T11:57:57Z</time>
      </trkpt>
      <trkpt lat="47.91053" lon="-2.46069">
        <ele>70.1</ele>
        <time>2024-12-19T11:57:58Z</time>
      </trkpt>
      <trkpt lat="47.91053" lon="-2.46067">
        <ele>70.3</ele>
        <time>2024-12-19T11:57:59Z</time>
      </trkpt>
      <trkpt lat="47.91053" lon="-2.46065">
        <ele>70.4</ele>
        <time>2024-12-19T11:58:00Z</time>
      </trkpt>
      <trkpt lat="47.91053" lon="-2.46064">
        <ele>70.5</ele>
        <time>2024-12-19T11:58:01Z</time>
      </trkpt>
      <trkpt lat="47.91053" lon="-2.46063">
        <ele>70.6</ele>
        <time>2024-12-19T11:58:02Z</time>
      </trkpt>
      <trkpt lat="47.91053" lon="-2.46061">
        <ele>70.7</ele>
        <time>2024-12-19T11:58:03Z</time>
      </trkpt>
      <trkpt lat="47.91052" lon="-2.4606">
        <ele>70.8</ele>
        <time>2024-12-19T11:58:04Z</time>
      </trkpt>
      <trkpt lat="47.91052" lon="-2.46058">
        <ele>70.9</ele>
        <time>2024-12-19T11:58:05Z</time>
      </trkpt>
      <trkpt lat="47.91052" lon="-2.46057">
        <ele>71.1</ele>
        <time>2024-12-19T11:58:06Z</time>
      </trkpt>
      <trkpt lat="47.91052" lon="-2.46055">
        <ele>71.2</ele>
        <time>2024-12-19T11:58:07Z</time>
      </trkpt>
      <trkpt lat="47.91052" lon="-2.46054">
        <ele>71.3</ele>
        <time>2024-12-19T11:58:08Z</time>
      </trkpt>
      <trkpt lat="47.91051" lon="-2.46052">
        <ele>71.4</ele>
        <time>2024-12-19T11:58:09Z</time>
      </trkpt>
      <trkpt lat="47.91051" lon="-2.46051">
        <ele>71.5</ele>
        <time>2024-12-19T11:58:10Z</time>
      </trkpt>
      <trkpt lat="47.91051" lon="-2.4605">
        <ele>71.6</ele>
        <time>2024-12-19T11:58:11Z</time>
      </trkpt>
      <trkpt lat="47.91051" lon="-2.46049">
        <ele>71.7</ele>
        <time>2024-12-19T11:58:12Z</time>
      </trkpt>
      <trkpt lat="47.91051" lon="-2.46047">
        <ele>71.8</ele>
        <time>2024-12-19T11:58:13Z</time>
      </trkpt>
      <trkpt lat="47.9105" lon="-2.46046">
        <ele>71.9</ele>
        <time>2024-12-19T11:58:14Z</time>
      </trkpt>
      <trkpt lat="47.9105" lon="-2.46045">
        <ele>72</ele>
        <time>2024-12-19T11:58:15Z</time>
      </trkpt>
      <trkpt lat="47.9105" lon="-2.46043">
        <ele>72.1</ele>
        <time>2024-12-19T11:58:16Z</time>
      </trkpt>
      <trkpt lat="47.9105" lon="-2.46042">
        <ele>72.2</ele>
        <time>2024-12-19T11:58:17Z</time>
      </trkpt>
      <trkpt lat="47.9105" lon="-2.4604">
        <ele>72.3</ele>
        <time>2024-12-19T11:58:18Z</time>
      </trkpt>
      <trkpt lat="47.9105" lon="-2.46039">
        <ele>72.4</ele>
        <time>2024-12-19T11:58:19Z</time>
      </trkpt>
      <trkpt lat="47.9105" lon="-2.46038">
        <ele>72.5</ele>
        <time>2024-12-19T11:58:20Z</time>
      </trkpt>
      <trkpt lat="47.9105" lon="-2.46036">
        <ele>72.6</ele>
        <time>2024-12-19T11:58:21Z</time>
      </trkpt>
      <trkpt lat="47.9105" lon="-2.46034">
        <ele>72.8</ele>
        <time>2024-12-19T11:58:22Z</time>
      </trkpt>
      <trkpt lat="47.91049" lon="-2.46033">
        <ele>72.9</ele>
        <time>2024-12-19T11:58:23Z</time>
      </trkpt>
      <trkpt lat="47.91049" lon="-2.46031">
        <ele>73</ele>
        <time>2024-12-19T11:58:24Z</time>
      </trkpt>
      <trkpt lat="47.91049" lon="-2.4603">
        <ele>73.1</ele>
        <time>2024-12-19T11:58:25Z</time>
      </trkpt>
      <trkpt lat="47.91049" lon="-2.46028">
        <ele>73.2</ele>
        <time>2024-12-19T11:58:26Z</time>
      </trkpt>
      <trkpt lat="47.91049" lon="-2.46027">
        <ele>73.3</ele>
        <time>2024-12-19T11:58:27Z</time>
      </trkpt>
      <trkpt lat="47.91048" lon="-2.46025">
        <ele>73.4</ele>
        <time>2024-12-19T11:58:28Z</time>
      </trkpt>
      <trkpt lat="47.91048" lon="-2.46024">
        <ele>73.5</ele>
        <time>2024-12-19T11:58:29Z</time>
      </trkpt>
      <trkpt lat="47.91048" lon="-2.46023">
        <ele>73.6</ele>
        <time>2024-12-19T11:58:30Z</time>
      </trkpt>
      <trkpt lat="47.91048" lon="-2.46021">
        <ele>73.7</ele>
        <time>2024-12-19T11:58:31Z</time>
      </trkpt>
      <trkpt lat="47.91048" lon="-2.4602">
        <ele>73.8</ele>
        <time>2024-12-19T11:58:32Z</time>
      </trkpt>
      <trkpt lat="47.91048" lon="-2.46018">
        <ele>73.9</ele>
        <time>2024-12-19T11:58:33Z</time>
      </trkpt>
      <trkpt lat="47.91048" lon="-2.46016">
        <ele>74</ele>
        <time>2024-12-19T11:58:34Z</time>
      </trkpt>
      <trkpt lat="47.91047" lon="-2.46015">
        <ele>74.1</ele>
        <time>2024-12-19T11:58:35Z</time>
      </trkpt>
      <trkpt lat="47.91047" lon="-2.46013">
        <ele>74.2</ele>
        <time>2024-12-19T11:58:36Z</time>
      </trkpt>
      <trkpt lat="47.91047" lon="-2.46012">
        <ele>74.3</ele>
        <time>2024-12-19T11:58:37Z</time>
      </trkpt>
      <trkpt lat="47.91047" lon="-2.4601">
        <ele>74.4</ele>
        <time>2024-12-19T11:58:38Z</time>
      </trkpt>
      <trkpt lat="47.91047" lon="-2.46009">
        <ele>74.5</ele>
        <time>2024-12-19T11:58:39Z</time>
      </trkpt>
      <trkpt lat="47.91046" lon="-2.46009">
        <ele>74.5</ele>
        <time>2024-12-19T11:58:40Z</time>
      </trkpt>
      <trkpt lat="47.91046" lon="-2.46008">
        <ele>74.5</ele>
        <time>2024-12-19T11:58:41Z</time>
      </trkpt>
      <trkpt lat="47.91046" lon="-2.46008">
        <ele>74.6</ele>
        <time>2024-12-19T11:58:42Z</time>
      </trkpt>
      <trkpt lat="47.91046" lon="-2.46007">
        <ele>74.6</ele>
        <time>2024-12-19T11:58:43Z</time>
      </trkpt>
      <trkpt lat="47.91046" lon="-2.46006">
        <ele>74.6</ele>
        <time>2024-12-19T11:58:44Z</time>
      </trkpt>
      <trkpt lat="47.91045" lon="-2.46004">
        <ele>74.7</ele>
        <time>2024-12-19T11:58:45Z</time>
      </trkpt>
      <trkpt lat="47.91045" lon="-2.46003">
        <ele>74.8</ele>
        <time>2024-12-19T11:58:46Z</time>
      </trkpt>
      <trkpt lat="47.91045" lon="-2.46002">
        <ele>74.9</ele>
        <time>2024-12-19T11:58:47Z</time>
      </trkpt>
      <trkpt lat="47.91045" lon="-2.46">
        <ele>75</ele>
        <time>2024-12-19T11:58:48Z</time>
      </trkpt>
      <trkpt lat="47.91045" lon="-2.45999">
        <ele>75</ele>
        <time>2024-12-19T11:58:49Z</time>
      </trkpt>
      <trkpt lat="47.91045" lon="-2.45997">
        <ele>75.1</ele>
        <time>2024-12-19T11:58:50Z</time>
      </trkpt>
      <trkpt lat="47.91045" lon="-2.45995">
        <ele>75.2</ele>
        <time>2024-12-19T11:58:51Z</time>
      </trkpt>
      <trkpt lat="47.91044" lon="-2.45994">
        <ele>75.2</ele>
        <time>2024-12-19T11:58:52Z</time>
      </trkpt>
      <trkpt lat="47.91044" lon="-2.45992">
        <ele>75.3</ele>
        <time>2024-12-19T11:58:53Z</time>
      </trkpt>
      <trkpt lat="47.91044" lon="-2.4599">
        <ele>75.3</ele>
        <time>2024-12-19T11:58:54Z</time>
      </trkpt>
      <trkpt lat="47.91044" lon="-2.45988">
        <ele>75.4</ele>
        <time>2024-12-19T11:58:55Z</time>
      </trkpt>
      <trkpt lat="47.91044" lon="-2.45987">
        <ele>75.5</ele>
        <time>2024-12-19T11:58:56Z</time>
      </trkpt>
      <trkpt lat="47.91043" lon="-2.45985">
        <ele>75.5</ele>
        <time>2024-12-19T11:58:57Z</time>
      </trkpt>
      <trkpt lat="47.91043" lon="-2.45983">
        <ele>75.6</ele>
        <time>2024-12-19T11:58:58Z</time>
      </trkpt>
      <trkpt lat="47.91043" lon="-2.45982">
        <ele>75.7</ele>
        <time>2024-12-19T11:58:59Z</time>
      </trkpt>
      <trkpt lat="47.91043" lon="-2.4598">
        <ele>75.7</ele>
        <time>2024-12-19T11:59:00Z</time>
      </trkpt>
      <trkpt lat="47.91042" lon="-2.45978">
        <ele>75.8</ele>
        <time>2024-12-19T11:59:01Z</time>
      </trkpt>
      <trkpt lat="47.91042" lon="-2.45977">
        <ele>75.8</ele>
        <time>2024-12-19T11:59:02Z</time>
      </trkpt>
      <trkpt lat="47.91042" lon="-2.45975">
        <ele>75.9</ele>
        <time>2024-12-19T11:59:03Z</time>
      </trkpt>
      <trkpt lat="47.91042" lon="-2.45974">
        <ele>76</ele>
        <time>2024-12-19T11:59:04Z</time>
      </trkpt>
      <trkpt lat="47.91042" lon="-2.45972">
        <ele>76</ele>
        <time>2024-12-19T11:59:05Z</time>
      </trkpt>
      <trkpt lat="47.91041" lon="-2.4597">
        <ele>76.1</ele>
        <time>2024-12-19T11:59:06Z</time>
      </trkpt>
      <trkpt lat="47.91041" lon="-2.45968">
        <ele>76.1</ele>
        <time>2024-12-19T11:59:07Z</time>
      </trkpt>
      <trkpt lat="47.9104" lon="-2.45966">
        <ele>76.2</ele>
        <time>2024-12-19T11:59:08Z</time>
      </trkpt>
      <trkpt lat="47.9104" lon="-2.45965">
        <ele>76.3</ele>
        <time>2024-12-19T11:59:09Z</time>
      </trkpt>
      <trkpt lat="47.9104" lon="-2.45963">
        <ele>76.3</ele>
        <time>2024-12-19T11:59:10Z</time>
      </trkpt>
      <trkpt lat="47.9104" lon="-2.45962">
        <ele>76.4</ele>
        <time>2024-12-19T11:59:11Z</time>
      </trkpt>
      <trkpt lat="47.9104" lon="-2.45961">
        <ele>76.4</ele>
        <time>2024-12-19T11:59:12Z</time>
      </trkpt>
      <trkpt lat="47.91039" lon="-2.4596">
        <ele>76.4</ele>
        <time>2024-12-19T11:59:13Z</time>
      </trkpt>
      <trkpt lat="47.91038" lon="-2.45959">
        <ele>76.5</ele>
        <time>2024-12-19T11:59:14Z</time>
      </trkpt>
      <trkpt lat="47.91038" lon="-2.45958">
        <ele>76.5</ele>
        <time>2024-12-19T11:59:15Z</time>
      </trkpt>
      <trkpt lat="47.91037" lon="-2.45957">
        <ele>76.6</ele>
        <time>2024-12-19T11:59:16Z</time>
      </trkpt>
      <trkpt lat="47.91037" lon="-2.45956">
        <ele>76.6</ele>
        <time>2024-12-19T11:59:17Z</time>
      </trkpt>
      <trkpt lat="47.91038" lon="-2.45956">
        <ele>76.6</ele>
        <time>2024-12-19T11:59:18Z</time>
      </trkpt>
      <trkpt lat="47.91038" lon="-2.45956">
        <ele>76.6</ele>
        <time>2024-12-19T11:59:19Z</time>
      </trkpt>
      <trkpt lat="47.91038" lon="-2.45955">
        <ele>76.6</ele>
        <time>2024-12-19T11:59:20Z</time>
      </trkpt>
      <trkpt lat="47.91038" lon="-2.45955">
        <ele>76.6</ele>
        <time>2024-12-19T11:59:21Z</time>
      </trkpt>
      <trkpt lat="47.91038" lon="-2.45955">
        <ele>76.6</ele>
        <time>2024-12-19T11:59:22Z</time>
      </trkpt>
      <trkpt lat="47.91038" lon="-2.45955">
        <ele>76.6</ele>
        <time>2024-12-19T11:59:23Z</time>
      </trkpt>
      <trkpt lat="47.91039" lon="-2.45955">
        <ele>76.6</ele>
        <time>2024-12-19T11:59:24Z</time>
      </trkpt>
      <trkpt lat="47.91039" lon="-2.45955">
        <ele>76.6</ele>
        <time>2024-12-19T11:59:25Z</time>
      </trkpt>
      <trkpt lat="47.91039" lon="-2.45955">
        <ele>76.6</ele>
        <time>2024-12-19T11:59:26Z</time>
      </trkpt>
      <trkpt lat="47.91039" lon="-2.45955">
        <ele>76.6</ele>
        <time>2024-12-19T11:59:27Z</time>
      </trkpt>
      <trkpt lat="47.91039" lon="-2.45955">
        <ele>76.6</ele>
        <time>2024-12-19T11:59:28Z</time>
      </trkpt>
      <trkpt lat="47.91039" lon="-2.45955">
        <ele>76.6</ele>
        <time>2024-12-19T11:59:29Z</time>
      </trkpt>
      <trkpt lat="47.91039" lon="-2.45955">
        <ele>76.6</ele>
        <time>2024-12-19T11:59:30Z</time>
      </trkpt>
      <trkpt lat="47.91039" lon="-2.45955">
        <ele>76.6</ele>
        <time>2024-12-19T11:59:31Z</time>
      </trkpt>
      <trkpt lat="47.91039" lon="-2.45955">
        <ele>76.6</ele>
        <time>2024-12-19T11:59:32Z</time>
      </trkpt>
      <trkpt lat="47.91039" lon="-2.45955">
        <ele>76.6</ele>
        <time>2024-12-19T11:59:33Z</time>
      </trkpt>
      <trkpt lat="47.91038" lon="-2.45955">
        <ele>76.6</ele>
        <time>2024-12-19T11:59:34Z</time>
      </trkpt>
      <trkpt lat="47.91038" lon="-2.45955">
        <ele>76.6</ele>
        <time>2024-12-19T11:59:35Z</time>
      </trkpt>
      <trkpt lat="47.91038" lon="-2.45955">
        <ele>76.6</ele>
        <time>2024-12-19T11:59:36Z</time>
      </trkpt>
      <trkpt lat="47.91038" lon="-2.45955">
        <ele>76.6</ele>
        <time>2024-12-19T11:59:37Z</time>
      </trkpt>
      <trkpt lat="47.91038" lon="-2.45955">
        <ele>76.6</ele>
        <time>2024-12-19T11:59:38Z</time>
      </trkpt>
      <trkpt lat="47.91038" lon="-2.45955">
        <ele>76.6</ele>
        <time>2024-12-19T11:59:39Z</time>
      </trkpt>
      <trkpt lat="47.91038" lon="-2.45955">
        <ele>76.6</ele>
        <time>2024-12-19T11:59:40Z</time>
      </trkpt>
      <trkpt lat="47.91038" lon="-2.45955">
        <ele>76.6</ele>
        <time>2024-12-19T11:59:41Z</time>
      </trkpt>
      <trkpt lat="47.91038" lon="-2.45955">
        <ele>76.6</ele>
        <time>2024-12-19T11:59:42Z</time>
      </trkpt>
      <trkpt lat="47.91038" lon="-2.45955">
        <ele>76.6</ele>
        <time>2024-12-19T11:59:43Z</time>
      </trkpt>
      <trkpt lat="47.91038" lon="-2.45955">
        <ele>76.6</ele>
        <time>2024-12-19T11:59:44Z</time>
      </trkpt>
      <trkpt lat="47.91038" lon="-2.45955">
        <ele>76.6</ele>
        <time>2024-12-19T11:59:45Z</time>
      </trkpt>
      <trkpt lat="47.91038" lon="-2.45955">
        <ele>76.6</ele>
        <time>2024-12-19T11:59:46Z</time>
      </trkpt>
      <trkpt lat="47.91038" lon="-2.45955">
        <ele>76.6</ele>
        <time>2024-12-19T11:59:49Z</time>
      </trkpt>
      <trkpt lat="47.91038" lon="-2.45955">
        <ele>76.6</ele>
        <time>2024-12-19T11:59:50Z</time>
      </trkpt>
      <trkpt lat="47.91038" lon="-2.45954">
        <ele>76.6</ele>
        <time>2024-12-19T11:59:51Z</time>
      </trkpt>
      <trkpt lat="47.91038" lon="-2.45954">
        <ele>76.7</ele>
        <time>2024-12-19T11:59:52Z</time>
      </trkpt>
      <trkpt lat="47.91038" lon="-2.45952">
        <ele>76.7</ele>
        <time>2024-12-19T11:59:53Z</time>
      </trkpt>
      <trkpt lat="47.91037" lon="-2.45951">
        <ele>76.8</ele>
        <time>2024-12-19T11:59:54Z</time>
      </trkpt>
      <trkpt lat="47.91037" lon="-2.45949">
        <ele>76.8</ele>
        <time>2024-12-19T11:59:55Z</time>
      </trkpt>
      <trkpt lat="47.91036" lon="-2.45948">
        <ele>76.9</ele>
        <time>2024-12-19T11:59:56Z</time>
      </trkpt>
      <trkpt lat="47.91036" lon="-2.45946">
        <ele>76.9</ele>
        <time>2024-12-19T11:59:57Z</time>
      </trkpt>
      <trkpt lat="47.91036" lon="-2.45945">
        <ele>77</ele>
        <time>2024-12-19T11:59:58Z</time>
      </trkpt>
      <trkpt lat="47.91036" lon="-2.45944">
        <ele>77</ele>
        <time>2024-12-19T11:59:59Z</time>
      </trkpt>
      <trkpt lat="47.91037" lon="-2.45942">
        <ele>77.1</ele>
        <time>2024-12-19T12:00:00Z</time>
      </trkpt>
      <trkpt lat="47.91037" lon="-2.45941">
        <ele>77.1</ele>
        <time>2024-12-19T12:00:01Z</time>
      </trkpt>
      <trkpt lat="47.91037" lon="-2.4594">
        <ele>77.2</ele>
        <time>2024-12-19T12:00:02Z</time>
      </trkpt>
      <trkpt lat="47.91038" lon="-2.45938">
        <ele>77.2</ele>
        <time>2024-12-19T12:00:03Z</time>
      </trkpt>
      <trkpt lat="47.91038" lon="-2.45936">
        <ele>77.3</ele>
        <time>2024-12-19T12:00:04Z</time>
      </trkpt>
      <trkpt lat="47.91038" lon="-2.45935">
        <ele>77.3</ele>
        <time>2024-12-19T12:00:05Z</time>
      </trkpt>
      <trkpt lat="47.91039" lon="-2.45934">
        <ele>77.4</ele>
        <time>2024-12-19T12:00:06Z</time>
      </trkpt>
      <trkpt lat="47.9104" lon="-2.45934">
        <ele>77.4</ele>
        <time>2024-12-19T12:00:07Z</time>
      </trkpt>
      <trkpt lat="47.91041" lon="-2.45933">
        <ele>77.4</ele>
        <time>2024-12-19T12:00:08Z</time>
      </trkpt>
      <trkpt lat="47.91042" lon="-2.45933">
        <ele>77.4</ele>
        <time>2024-12-19T12:00:09Z</time>
      </trkpt>
      <trkpt lat="47.91043" lon="-2.45933">
        <ele>77.4</ele>
        <time>2024-12-19T12:00:10Z</time>
      </trkpt>
      <trkpt lat="47.91043" lon="-2.45932">
        <ele>77.4</ele>
        <time>2024-12-19T12:00:11Z</time>
      </trkpt>
      <trkpt lat="47.91044" lon="-2.45932">
        <ele>77.5</ele>
        <time>2024-12-19T12:00:12Z</time>
      </trkpt>
      <trkpt lat="47.91045" lon="-2.45932">
        <ele>77.5</ele>
        <time>2024-12-19T12:00:13Z</time>
      </trkpt>
      <trkpt lat="47.91045" lon="-2.45931">
        <ele>77.5</ele>
        <time>2024-12-19T12:00:14Z</time>
      </trkpt>
      <trkpt lat="47.91046" lon="-2.4593">
        <ele>77.5</ele>
        <time>2024-12-19T12:00:15Z</time>
      </trkpt>
      <trkpt lat="47.91047" lon="-2.45929">
        <ele>77.5</ele>
        <time>2024-12-19T12:00:16Z</time>
      </trkpt>
      <trkpt lat="47.91048" lon="-2.45928">
        <ele>77.6</ele>
        <time>2024-12-19T12:00:17Z</time>
      </trkpt>
      <trkpt lat="47.91049" lon="-2.45927">
        <ele>77.6</ele>
        <time>2024-12-19T12:00:18Z</time>
      </trkpt>
      <trkpt lat="47.9105" lon="-2.45926">
        <ele>77.7</ele>
        <time>2024-12-19T12:00:19Z</time>
      </trkpt>
      <trkpt lat="47.91051" lon="-2.45925">
        <ele>77.7</ele>
        <time>2024-12-19T12:00:20Z</time>
      </trkpt>
      <trkpt lat="47.91051" lon="-2.45924">
        <ele>77.7</ele>
        <time>2024-12-19T12:00:21Z</time>
      </trkpt>
      <trkpt lat="47.91051" lon="-2.45924">
        <ele>77.8</ele>
        <time>2024-12-19T12:00:22Z</time>
      </trkpt>
      <trkpt lat="47.91051" lon="-2.45924">
        <ele>77.8</ele>
        <time>2024-12-19T12:00:23Z</time>
      </trkpt>
      <trkpt lat="47.91052" lon="-2.45924">
        <ele>77.8</ele>
        <time>2024-12-19T12:00:24Z</time>
      </trkpt>
      <trkpt lat="47.91052" lon="-2.45923">
        <ele>77.8</ele>
        <time>2024-12-19T12:00:25Z</time>
      </trkpt>
      <trkpt lat="47.91053" lon="-2.45923">
        <ele>77.8</ele>
        <time>2024-12-19T12:00:26Z</time>
      </trkpt>
      <trkpt lat="47.91054" lon="-2.45922">
        <ele>77.8</ele>
        <time>2024-12-19T12:00:27Z</time>
      </trkpt>
      <trkpt lat="47.91054" lon="-2.45922">
        <ele>77.8</ele>
        <time>2024-12-19T12:00:28Z</time>
      </trkpt>
      <trkpt lat="47.91055" lon="-2.45922">
        <ele>77.8</ele>
        <time>2024-12-19T12:00:29Z</time>
      </trkpt>
      <trkpt lat="47.91056" lon="-2.45922">
        <ele>77.8</ele>
        <time>2024-12-19T12:00:30Z</time>
      </trkpt>
      <trkpt lat="47.91058" lon="-2.45922">
        <ele>77.7</ele>
        <time>2024-12-19T12:00:31Z</time>
      </trkpt>
      <trkpt lat="47.91059" lon="-2.45922">
        <ele>77.7</ele>
        <time>2024-12-19T12:00:32Z</time>
      </trkpt>
      <trkpt lat="47.9106" lon="-2.45921">
        <ele>77.7</ele>
        <time>2024-12-19T12:00:33Z</time>
      </trkpt>
      <trkpt lat="47.9106" lon="-2.4592">
        <ele>77.7</ele>
        <time>2024-12-19T12:00:34Z</time>
      </trkpt>
      <trkpt lat="47.91061" lon="-2.45918">
        <ele>77.7</ele>
        <time>2024-12-19T12:00:35Z</time>
      </trkpt>
      <trkpt lat="47.91061" lon="-2.45917">
        <ele>77.8</ele>
        <time>2024-12-19T12:00:36Z</time>
      </trkpt>
      <trkpt lat="47.91061" lon="-2.45916">
        <ele>77.8</ele>
        <time>2024-12-19T12:00:37Z</time>
      </trkpt>
      <trkpt lat="47.91061" lon="-2.45915">
        <ele>77.8</ele>
        <time>2024-12-19T12:00:38Z</time>
      </trkpt>
      <trkpt lat="47.91062" lon="-2.45914">
        <ele>77.8</ele>
        <time>2024-12-19T12:00:39Z</time>
      </trkpt>
      <trkpt lat="47.91062" lon="-2.45913">
        <ele>77.8</ele>
        <time>2024-12-19T12:00:40Z</time>
      </trkpt>
      <trkpt lat="47.91061" lon="-2.45911">
        <ele>77.8</ele>
        <time>2024-12-19T12:00:41Z</time>
      </trkpt>
      <trkpt lat="47.91061" lon="-2.45909">
        <ele>77.8</ele>
        <time>2024-12-19T12:00:42Z</time>
      </trkpt>
      <trkpt lat="47.9106" lon="-2.45908">
        <ele>77.8</ele>
        <time>2024-12-19T12:00:43Z</time>
      </trkpt>
      <trkpt lat="47.9106" lon="-2.45907">
        <ele>77.8</ele>
        <time>2024-12-19T12:00:44Z</time>
      </trkpt>
      <trkpt lat="47.91061" lon="-2.45906">
        <ele>77.8</ele>
        <time>2024-12-19T12:00:45Z</time>
      </trkpt>
      <trkpt lat="47.91061" lon="-2.45905">
        <ele>77.8</ele>
        <time>2024-12-19T12:00:46Z</time>
      </trkpt>
      <trkpt lat="47.91061" lon="-2.45904">
        <ele>77.8</ele>
        <time>2024-12-19T12:00:47Z</time>
      </trkpt>
      <trkpt lat="47.91061" lon="-2.45902">
        <ele>77.8</ele>
        <time>2024-12-19T12:00:48Z</time>
      </trkpt>
      <trkpt lat="47.91061" lon="-2.45901">
        <ele>77.8</ele>
        <time>2024-12-19T12:00:49Z</time>
      </trkpt>
      <trkpt lat="47.91061" lon="-2.459">
        <ele>77.8</ele>
        <time>2024-12-19T12:00:50Z</time>
      </trkpt>
      <trkpt lat="47.91061" lon="-2.45899">
        <ele>77.8</ele>
        <time>2024-12-19T12:00:51Z</time>
      </trkpt>
      <trkpt lat="47.91061" lon="-2.45898">
        <ele>77.8</ele>
        <time>2024-12-19T12:00:52Z</time>
      </trkpt>
      <trkpt lat="47.91061" lon="-2.45896">
        <ele>77.8</ele>
        <time>2024-12-19T12:00:53Z</time>
      </trkpt>
      <trkpt lat="47.91061" lon="-2.45895">
        <ele>77.8</ele>
        <time>2024-12-19T12:00:54Z</time>
      </trkpt>
      <trkpt lat="47.9106" lon="-2.45893">
        <ele>77.8</ele>
        <time>2024-12-19T12:00:55Z</time>
      </trkpt>
      <trkpt lat="47.9106" lon="-2.45891">
        <ele>77.9</ele>
        <time>2024-12-19T12:00:56Z</time>
      </trkpt>
      <trkpt lat="47.91059" lon="-2.4589">
        <ele>77.9</ele>
        <time>2024-12-19T12:00:57Z</time>
      </trkpt>
      <trkpt lat="47.91058" lon="-2.45889">
        <ele>77.9</ele>
        <time>2024-12-19T12:00:58Z</time>
      </trkpt>
      <trkpt lat="47.91058" lon="-2.45888">
        <ele>78</ele>
        <time>2024-12-19T12:00:59Z</time>
      </trkpt>
      <trkpt lat="47.91057" lon="-2.45886">
        <ele>78</ele>
        <time>2024-12-19T12:01:00Z</time>
      </trkpt>
      <trkpt lat="47.91057" lon="-2.45885">
        <ele>78.1</ele>
        <time>2024-12-19T12:01:01Z</time>
      </trkpt>
      <trkpt lat="47.91057" lon="-2.45883">
        <ele>78.1</ele>
        <time>2024-12-19T12:01:02Z</time>
      </trkpt>
      <trkpt lat="47.91058" lon="-2.45882">
        <ele>78.2</ele>
        <time>2024-12-19T12:01:03Z</time>
      </trkpt>
      <trkpt lat="47.91058" lon="-2.45881">
        <ele>78.2</ele>
        <time>2024-12-19T12:01:04Z</time>
      </trkpt>
      <trkpt lat="47.91059" lon="-2.4588">
        <ele>78.2</ele>
        <time>2024-12-19T12:01:05Z</time>
      </trkpt>
      <trkpt lat="47.91059" lon="-2.45879">
        <ele>78.2</ele>
        <time>2024-12-19T12:01:06Z</time>
      </trkpt>
      <trkpt lat="47.91059" lon="-2.45878">
        <ele>78.2</ele>
        <time>2024-12-19T12:01:07Z</time>
      </trkpt>
      <trkpt lat="47.91059" lon="-2.45877">
        <ele>78.3</ele>
        <time>2024-12-19T12:01:08Z</time>
      </trkpt>
      <trkpt lat="47.91059" lon="-2.45875">
        <ele>78.3</ele>
        <time>2024-12-19T12:01:09Z</time>
      </trkpt>
      <trkpt lat="47.91059" lon="-2.45874">
        <ele>78.4</ele>
        <time>2024-12-19T12:01:10Z</time>
      </trkpt>
      <trkpt lat="47.91059" lon="-2.45873">
        <ele>78.4</ele>
        <time>2024-12-19T12:01:11Z</time>
      </trkpt>
      <trkpt lat="47.91059" lon="-2.45871">
        <ele>78.5</ele>
        <time>2024-12-19T12:01:12Z</time>
      </trkpt>
      <trkpt lat="47.91058" lon="-2.4587">
        <ele>78.5</ele>
        <time>2024-12-19T12:01:13Z</time>
      </trkpt>
      <trkpt lat="47.91058" lon="-2.45868">
        <ele>78.6</ele>
        <time>2024-12-19T12:01:14Z</time>
      </trkpt>
      <trkpt lat="47.91058" lon="-2.45867">
        <ele>78.6</ele>
        <time>2024-12-19T12:01:15Z</time>
      </trkpt>
      <trkpt lat="47.91058" lon="-2.45866">
        <ele>78.7</ele>
        <time>2024-12-19T12:01:16Z</time>
      </trkpt>
      <trkpt lat="47.91057" lon="-2.45863">
        <ele>78.8</ele>
        <time>2024-12-19T12:01:17Z</time>
      </trkpt>
      <trkpt lat="47.91057" lon="-2.45862">
        <ele>78.9</ele>
        <time>2024-12-19T12:01:18Z</time>
      </trkpt>
      <trkpt lat="47.91057" lon="-2.45861">
        <ele>78.9</ele>
        <time>2024-12-19T12:01:19Z</time>
      </trkpt>
      <trkpt lat="47.91056" lon="-2.4586">
        <ele>79</ele>
        <time>2024-12-19T12:01:20Z</time>
      </trkpt>
      <trkpt lat="47.91056" lon="-2.4586">
        <ele>79</ele>
        <time>2024-12-19T12:01:21Z</time>
      </trkpt>
      <trkpt lat="47.91057" lon="-2.4586">
        <ele>78.9</ele>
        <time>2024-12-19T12:01:22Z</time>
      </trkpt>
      <trkpt lat="47.91057" lon="-2.45859">
        <ele>78.9</ele>
        <time>2024-12-19T12:01:23Z</time>
      </trkpt>
      <trkpt lat="47.91057" lon="-2.45859">
        <ele>78.9</ele>
        <time>2024-12-19T12:01:24Z</time>
      </trkpt>
      <trkpt lat="47.91057" lon="-2.45859">
        <ele>78.9</ele>
        <time>2024-12-19T12:01:25Z</time>
      </trkpt>
      <trkpt lat="47.91057" lon="-2.45859">
        <ele>78.9</ele>
        <time>2024-12-19T12:01:26Z</time>
      </trkpt>
      <trkpt lat="47.91057" lon="-2.45858">
        <ele>78.9</ele>
        <time>2024-12-19T12:01:27Z</time>
      </trkpt>
      <trkpt lat="47.91057" lon="-2.45857">
        <ele>78.9</ele>
        <time>2024-12-19T12:01:28Z</time>
      </trkpt>
      <trkpt lat="47.91058" lon="-2.45856">
        <ele>78.8</ele>
        <time>2024-12-19T12:01:29Z</time>
      </trkpt>
      <trkpt lat="47.91059" lon="-2.45854">
        <ele>78.8</ele>
        <time>2024-12-19T12:01:30Z</time>
      </trkpt>
      <trkpt lat="47.91059" lon="-2.45853">
        <ele>78.7</ele>
        <time>2024-12-19T12:01:31Z</time>
      </trkpt>
      <trkpt lat="47.9106" lon="-2.45852">
        <ele>78.7</ele>
        <time>2024-12-19T12:01:32Z</time>
      </trkpt>
      <trkpt lat="47.9106" lon="-2.4585">
        <ele>78.7</ele>
        <time>2024-12-19T12:01:33Z</time>
      </trkpt>
      <trkpt lat="47.9106" lon="-2.45848">
        <ele>78.7</ele>
        <time>2024-12-19T12:01:34Z</time>
      </trkpt>
      <trkpt lat="47.9106" lon="-2.45847">
        <ele>78.7</ele>
        <time>2024-12-19T12:01:35Z</time>
      </trkpt>
      <trkpt lat="47.91061" lon="-2.45846">
        <ele>78.6</ele>
        <time>2024-12-19T12:01:36Z</time>
      </trkpt>
      <trkpt lat="47.91062" lon="-2.45845">
        <ele>78.6</ele>
        <time>2024-12-19T12:01:37Z</time>
      </trkpt>
      <trkpt lat="47.91063" lon="-2.45844">
        <ele>78.5</ele>
        <time>2024-12-19T12:01:38Z</time>
      </trkpt>
      <trkpt lat="47.91064" lon="-2.45843">
        <ele>78.4</ele>
        <time>2024-12-19T12:01:39Z</time>
      </trkpt>
      <trkpt lat="47.91065" lon="-2.45842">
        <ele>78.3</ele>
        <time>2024-12-19T12:01:40Z</time>
      </trkpt>
      <trkpt lat="47.91067" lon="-2.45841">
        <ele>78.2</ele>
        <time>2024-12-19T12:01:41Z</time>
      </trkpt>
      <trkpt lat="47.91068" lon="-2.45839">
        <ele>78.1</ele>
        <time>2024-12-19T12:01:42Z</time>
      </trkpt>
      <trkpt lat="47.9107" lon="-2.45838">
        <ele>78</ele>
        <time>2024-12-19T12:01:43Z</time>
      </trkpt>
      <trkpt lat="47.91071" lon="-2.45837">
        <ele>77.9</ele>
        <time>2024-12-19T12:01:44Z</time>
      </trkpt>
      <trkpt lat="47.91072" lon="-2.45835">
        <ele>77.8</ele>
        <time>2024-12-19T12:01:45Z</time>
      </trkpt>
      <trkpt lat="47.91073" lon="-2.45834">
        <ele>77.7</ele>
        <time>2024-12-19T12:01:46Z</time>
      </trkpt>
      <trkpt lat="47.91074" lon="-2.45833">
        <ele>77.7</ele>
        <time>2024-12-19T12:01:47Z</time>
      </trkpt>
      <trkpt lat="47.91076" lon="-2.45832">
        <ele>77.6</ele>
        <time>2024-12-19T12:01:48Z</time>
      </trkpt>
      <trkpt lat="47.91078" lon="-2.45831">
        <ele>77.4</ele>
        <time>2024-12-19T12:01:49Z</time>
      </trkpt>
      <trkpt lat="47.91079" lon="-2.4583">
        <ele>77.3</ele>
        <time>2024-12-19T12:01:50Z</time>
      </trkpt>
      <trkpt lat="47.9108" lon="-2.45828">
        <ele>77.3</ele>
        <time>2024-12-19T12:01:51Z</time>
      </trkpt>
      <trkpt lat="47.91081" lon="-2.45827">
        <ele>77.2</ele>
        <time>2024-12-19T12:01:52Z</time>
      </trkpt>
      <trkpt lat="47.91082" lon="-2.45825">
        <ele>77.1</ele>
        <time>2024-12-19T12:01:53Z</time>
      </trkpt>
      <trkpt lat="47.91084" lon="-2.45824">
        <ele>77</ele>
        <time>2024-12-19T12:01:54Z</time>
      </trkpt>
      <trkpt lat="47.91086" lon="-2.45823">
        <ele>77</ele>
        <time>2024-12-19T12:01:55Z</time>
      </trkpt>
      <trkpt lat="47.91089" lon="-2.45822">
        <ele>76.9</ele>
        <time>2024-12-19T12:01:56Z</time>
      </trkpt>
      <trkpt lat="47.9109" lon="-2.45821">
        <ele>76.9</ele>
        <time>2024-12-19T12:01:57Z</time>
      </trkpt>
      <trkpt lat="47.91092" lon="-2.4582">
        <ele>76.9</ele>
        <time>2024-12-19T12:01:58Z</time>
      </trkpt>
      <trkpt lat="47.91093" lon="-2.45819">
        <ele>76.8</ele>
        <time>2024-12-19T12:01:59Z</time>
      </trkpt>
      <trkpt lat="47.91093" lon="-2.45818">
        <ele>76.8</ele>
        <time>2024-12-19T12:02:00Z</time>
      </trkpt>
      <trkpt lat="47.91094" lon="-2.45816">
        <ele>76.8</ele>
        <time>2024-12-19T12:02:01Z</time>
      </trkpt>
      <trkpt lat="47.91095" lon="-2.45815">
        <ele>76.7</ele>
        <time>2024-12-19T12:02:02Z</time>
      </trkpt>
      <trkpt lat="47.91095" lon="-2.45814">
        <ele>76.7</ele>
        <time>2024-12-19T12:02:03Z</time>
      </trkpt>
      <trkpt lat="47.91096" lon="-2.45813">
        <ele>76.7</ele>
        <time>2024-12-19T12:02:04Z</time>
      </trkpt>
      <trkpt lat="47.91096" lon="-2.45811">
        <ele>76.6</ele>
        <time>2024-12-19T12:02:05Z</time>
      </trkpt>
      <trkpt lat="47.91096" lon="-2.4581">
        <ele>76.6</ele>
        <time>2024-12-19T12:02:06Z</time>
      </trkpt>
      <trkpt lat="47.91097" lon="-2.4581">
        <ele>76.6</ele>
        <time>2024-12-19T12:02:07Z</time>
      </trkpt>
      <trkpt lat="47.91098" lon="-2.45811">
        <ele>76.6</ele>
        <time>2024-12-19T12:02:08Z</time>
      </trkpt>
      <trkpt lat="47.91099" lon="-2.45812">
        <ele>76.6</ele>
        <time>2024-12-19T12:02:09Z</time>
      </trkpt>
      <trkpt lat="47.91099" lon="-2.45813">
        <ele>76.6</ele>
        <time>2024-12-19T12:02:10Z</time>
      </trkpt>
      <trkpt lat="47.911" lon="-2.45813">
        <ele>76.6</ele>
        <time>2024-12-19T12:02:11Z</time>
      </trkpt>
      <trkpt lat="47.91101" lon="-2.45814">
        <ele>76.6</ele>
        <time>2024-12-19T12:02:12Z</time>
      </trkpt>
      <trkpt lat="47.91102" lon="-2.45815">
        <ele>76.6</ele>
        <time>2024-12-19T12:02:13Z</time>
      </trkpt>
      <trkpt lat="47.91103" lon="-2.45816">
        <ele>76.6</ele>
        <time>2024-12-19T12:02:14Z</time>
      </trkpt>
      <trkpt lat="47.91103" lon="-2.45817">
        <ele>76.6</ele>
        <time>2024-12-19T12:02:15Z</time>
      </trkpt>
      <trkpt lat="47.91103" lon="-2.45817">
        <ele>76.6</ele>
        <time>2024-12-19T12:02:16Z</time>
      </trkpt>
      <trkpt lat="47.91104" lon="-2.45817">
        <ele>76.6</ele>
        <time>2024-12-19T12:02:17Z</time>
      </trkpt>
      <trkpt lat="47.91104" lon="-2.45818">
        <ele>76.6</ele>
        <time>2024-12-19T12:02:18Z</time>
      </trkpt>
      <trkpt lat="47.91104" lon="-2.45818">
        <ele>76.6</ele>
        <time>2024-12-19T12:02:19Z</time>
      </trkpt>
      <trkpt lat="47.91104" lon="-2.45818">
        <ele>76.6</ele>
        <time>2024-12-19T12:02:20Z</time>
      </trkpt>
      <trkpt lat="47.91104" lon="-2.45818">
        <ele>76.6</ele>
        <time>2024-12-19T12:02:21Z</time>
      </trkpt>
      <trkpt lat="47.91104" lon="-2.45818">
        <ele>76.6</ele>
        <time>2024-12-19T12:02:22Z</time>
      </trkpt>
      <trkpt lat="47.91104" lon="-2.45818">
        <ele>76.6</ele>
        <time>2024-12-19T12:02:23Z</time>
      </trkpt>
      <trkpt lat="47.91104" lon="-2.45818">
        <ele>76.6</ele>
        <time>2024-12-19T12:02:24Z</time>
      </trkpt>
      <trkpt lat="47.91104" lon="-2.45818">
        <ele>76.6</ele>
        <time>2024-12-19T12:02:25Z</time>
      </trkpt>
      <trkpt lat="47.91104" lon="-2.45818">
        <ele>76.6</ele>
        <time>2024-12-19T12:02:26Z</time>
      </trkpt>
      <trkpt lat="47.91104" lon="-2.45818">
        <ele>76.6</ele>
        <time>2024-12-19T12:02:27Z</time>
      </trkpt>
      <trkpt lat="47.91104" lon="-2.45818">
        <ele>76.6</ele>
        <time>2024-12-19T12:02:28Z</time>
      </trkpt>
      <trkpt lat="47.91104" lon="-2.45818">
        <ele>76.6</ele>
        <time>2024-12-19T12:02:29Z</time>
      </trkpt>
      <trkpt lat="47.91104" lon="-2.45818">
        <ele>76.6</ele>
        <time>2024-12-19T12:02:30Z</time>
      </trkpt>
      <trkpt lat="47.91104" lon="-2.45818">
        <ele>76.6</ele>
        <time>2024-12-19T12:02:31Z</time>
      </trkpt>
      <trkpt lat="47.91104" lon="-2.45818">
        <ele>76.6</ele>
        <time>2024-12-19T12:02:32Z</time>
      </trkpt>
      <trkpt lat="47.91104" lon="-2.45818">
        <ele>76.6</ele>
        <time>2024-12-19T12:02:33Z</time>
      </trkpt>
      <trkpt lat="47.91104" lon="-2.45818">
        <ele>76.6</ele>
        <time>2024-12-19T12:02:34Z</time>
      </trkpt>
      <trkpt lat="47.91104" lon="-2.45818">
        <ele>76.6</ele>
        <time>2024-12-19T12:02:35Z</time>
      </trkpt>
      <trkpt lat="47.91104" lon="-2.45818">
        <ele>76.6</ele>
        <time>2024-12-19T12:02:36Z</time>
      </trkpt>
      <trkpt lat="47.91104" lon="-2.45818">
        <ele>76.6</ele>
        <time>2024-12-19T12:02:37Z</time>
      </trkpt>
      <trkpt lat="47.91104" lon="-2.45818">
        <ele>76.6</ele>
        <time>2024-12-19T12:02:38Z</time>
      </trkpt>
      <trkpt lat="47.91104" lon="-2.45818">
        <ele>76.6</ele>
        <time>2024-12-19T12:02:39Z</time>
      </trkpt>
      <trkpt lat="47.91104" lon="-2.45818">
        <ele>76.6</ele>
        <time>2024-12-19T12:02:40Z</time>
      </trkpt>
      <trkpt lat="47.91104" lon="-2.45818">
        <ele>76.6</ele>
        <time>2024-12-19T12:02:41Z</time>
      </trkpt>
      <trkpt lat="47.91104" lon="-2.45818">
        <ele>76.6</ele>
        <time>2024-12-19T12:02:42Z</time>
      </trkpt>
      <trkpt lat="47.91104" lon="-2.45818">
        <ele>76.6</ele>
        <time>2024-12-19T12:02:43Z</time>
      </trkpt>
      <trkpt lat="47.91104" lon="-2.45818">
        <ele>76.6</ele>
        <time>2024-12-19T12:02:44Z</time>
      </trkpt>
      <trkpt lat="47.91104" lon="-2.45818">
        <ele>76.6</ele>
        <time>2024-12-19T12:02:45Z</time>
      </trkpt>
      <trkpt lat="47.91104" lon="-2.45818">
        <ele>76.6</ele>
        <time>2024-12-19T12:02:46Z</time>
      </trkpt>
      <trkpt lat="47.91104" lon="-2.45818">
        <ele>76.6</ele>
        <time>2024-12-19T12:02:47Z</time>
      </trkpt>
      <trkpt lat="47.91103" lon="-2.45818">
        <ele>76.6</ele>
        <time>2024-12-19T12:02:48Z</time>
      </trkpt>
      <trkpt lat="47.91103" lon="-2.45818">
        <ele>76.6</ele>
        <time>2024-12-19T12:02:49Z</time>
      </trkpt>
      <trkpt lat="47.91103" lon="-2.45818">
        <ele>76.6</ele>
        <time>2024-12-19T12:02:50Z</time>
      </trkpt>
      <trkpt lat="47.91103" lon="-2.45818">
        <ele>76.6</ele>
        <time>2024-12-19T12:02:51Z</time>
      </trkpt>
      <trkpt lat="47.91103" lon="-2.45818">
        <ele>76.6</ele>
        <time>2024-12-19T12:02:52Z</time>
      </trkpt>
      <trkpt lat="47.91103" lon="-2.45818">
        <ele>76.6</ele>
        <time>2024-12-19T12:02:53Z</time>
      </trkpt>
      <trkpt lat="47.91103" lon="-2.45818">
        <ele>76.6</ele>
        <time>2024-12-19T12:02:54Z</time>
      </trkpt>
      <trkpt lat="47.91103" lon="-2.45818">
        <ele>76.6</ele>
        <time>2024-12-19T12:02:55Z</time>
      </trkpt>
      <trkpt lat="47.91103" lon="-2.45818">
        <ele>76.6</ele>
        <time>2024-12-19T12:02:56Z</time>
      </trkpt>
      <trkpt lat="47.91103" lon="-2.45818">
        <ele>76.6</ele>
        <time>2024-12-19T12:02:57Z</time>
      </trkpt>
      <trkpt lat="47.91103" lon="-2.45818">
        <ele>76.6</ele>
        <time>2024-12-19T12:02:58Z</time>
      </trkpt>
      <trkpt lat="47.91103" lon="-2.45818">
        <ele>76.6</ele>
        <time>2024-12-19T12:02:59Z</time>
      </trkpt>
      <trkpt lat="47.91103" lon="-2.45818">
        <ele>76.6</ele>
        <time>2024-12-19T12:03:00Z</time>
      </trkpt>
      <trkpt lat="47.91103" lon="-2.45818">
        <ele>76.6</ele>
        <time>2024-12-19T12:03:01Z</time>
      </trkpt>
      <trkpt lat="47.91103" lon="-2.45818">
        <ele>76.6</ele>
        <time>2024-12-19T12:03:02Z</time>
      </trkpt>
      <trkpt lat="47.91103" lon="-2.45818">
        <ele>76.6</ele>
        <time>2024-12-19T12:03:03Z</time>
      </trkpt>
      <trkpt lat="47.91103" lon="-2.45818">
        <ele>76.6</ele>
        <time>2024-12-19T12:03:04Z</time>
      </trkpt>
      <trkpt lat="47.91103" lon="-2.45817">
        <ele>76.6</ele>
        <time>2024-12-19T12:03:05Z</time>
      </trkpt>
      <trkpt lat="47.91103" lon="-2.45817">
        <ele>76.6</ele>
        <time>2024-12-19T12:03:06Z</time>
      </trkpt>
      <trkpt lat="47.91103" lon="-2.45817">
        <ele>76.6</ele>
        <time>2024-12-19T12:03:07Z</time>
      </trkpt>
      <trkpt lat="47.91103" lon="-2.45817">
        <ele>76.6</ele>
        <time>2024-12-19T12:03:08Z</time>
      </trkpt>
      <trkpt lat="47.91103" lon="-2.45817">
        <ele>76.6</ele>
        <time>2024-12-19T12:03:09Z</time>
      </trkpt>
      <trkpt lat="47.91103" lon="-2.45817">
        <ele>76.6</ele>
        <time>2024-12-19T12:03:10Z</time>
      </trkpt>
      <trkpt lat="47.91103" lon="-2.45817">
        <ele>76.6</ele>
        <time>2024-12-19T12:03:11Z</time>
      </trkpt>
      <trkpt lat="47.91103" lon="-2.45817">
        <ele>76.6</ele>
        <time>2024-12-19T12:03:12Z</time>
      </trkpt>
      <trkpt lat="47.91103" lon="-2.45817">
        <ele>76.6</ele>
        <time>2024-12-19T12:03:13Z</time>
      </trkpt>
      <trkpt lat="47.91104" lon="-2.45817">
        <ele>76.6</ele>
        <time>2024-12-19T12:03:14Z</time>
      </trkpt>
      <trkpt lat="47.91104" lon="-2.45817">
        <ele>76.6</ele>
        <time>2024-12-19T12:03:15Z</time>
      </trkpt>
      <trkpt lat="47.91105" lon="-2.45818">
        <ele>76.6</ele>
        <time>2024-12-19T12:03:16Z</time>
      </trkpt>
      <trkpt lat="47.91105" lon="-2.45817">
        <ele>76.5</ele>
        <time>2024-12-19T12:03:17Z</time>
      </trkpt>
      <trkpt lat="47.91106" lon="-2.45817">
        <ele>76.5</ele>
        <time>2024-12-19T12:03:18Z</time>
      </trkpt>
      <trkpt lat="47.91106" lon="-2.45816">
        <ele>76.5</ele>
        <time>2024-12-19T12:03:19Z</time>
      </trkpt>
      <trkpt lat="47.91106" lon="-2.45815">
        <ele>76.5</ele>
        <time>2024-12-19T12:03:20Z</time>
      </trkpt>
      <trkpt lat="47.91106" lon="-2.45815">
        <ele>76.4</ele>
        <time>2024-12-19T12:03:21Z</time>
      </trkpt>
      <trkpt lat="47.91106" lon="-2.45814">
        <ele>76.4</ele>
        <time>2024-12-19T12:03:22Z</time>
      </trkpt>
      <trkpt lat="47.91106" lon="-2.45813">
        <ele>76.4</ele>
        <time>2024-12-19T12:03:23Z</time>
      </trkpt>
      <trkpt lat="47.91105" lon="-2.45811">
        <ele>76.4</ele>
        <time>2024-12-19T12:03:24Z</time>
      </trkpt>
      <trkpt lat="47.91104" lon="-2.4581">
        <ele>76.4</ele>
        <time>2024-12-19T12:03:25Z</time>
      </trkpt>
      <trkpt lat="47.91103" lon="-2.45809">
        <ele>76.4</ele>
        <time>2024-12-19T12:03:26Z</time>
      </trkpt>
      <trkpt lat="47.91102" lon="-2.45807">
        <ele>76.4</ele>
        <time>2024-12-19T12:03:27Z</time>
      </trkpt>
      <trkpt lat="47.91101" lon="-2.45806">
        <ele>76.4</ele>
        <time>2024-12-19T12:03:28Z</time>
      </trkpt>
      <trkpt lat="47.91101" lon="-2.45804">
        <ele>76.3</ele>
        <time>2024-12-19T12:03:29Z</time>
      </trkpt>
      <trkpt lat="47.911" lon="-2.45802">
        <ele>76.3</ele>
        <time>2024-12-19T12:03:30Z</time>
      </trkpt>
      <trkpt lat="47.911" lon="-2.45801">
        <ele>76.2</ele>
        <time>2024-12-19T12:03:31Z</time>
      </trkpt>
      <trkpt lat="47.911" lon="-2.458">
        <ele>76.2</ele>
        <time>2024-12-19T12:03:32Z</time>
      </trkpt>
      <trkpt lat="47.911" lon="-2.458">
        <ele>76.2</ele>
        <time>2024-12-19T12:03:33Z</time>
      </trkpt>
      <trkpt lat="47.911" lon="-2.458">
        <ele>76.2</ele>
        <time>2024-12-19T12:03:34Z</time>
      </trkpt>
      <trkpt lat="47.91099" lon="-2.458">
        <ele>76.2</ele>
        <time>2024-12-19T12:03:35Z</time>
      </trkpt>
      <trkpt lat="47.91099" lon="-2.458">
        <ele>76.2</ele>
        <time>2024-12-19T12:03:36Z</time>
      </trkpt>
      <trkpt lat="47.91099" lon="-2.458">
        <ele>76.2</ele>
        <time>2024-12-19T12:03:37Z</time>
      </trkpt>
      <trkpt lat="47.91099" lon="-2.458">
        <ele>76.2</ele>
        <time>2024-12-19T12:03:38Z</time>
      </trkpt>
      <trkpt lat="47.91099" lon="-2.458">
        <ele>76.2</ele>
        <time>2024-12-19T12:03:39Z</time>
      </trkpt>
      <trkpt lat="47.91099" lon="-2.458">
        <ele>76.2</ele>
        <time>2024-12-19T12:03:40Z</time>
      </trkpt>
      <trkpt lat="47.91099" lon="-2.45799">
        <ele>76.2</ele>
        <time>2024-12-19T12:03:41Z</time>
      </trkpt>
      <trkpt lat="47.91099" lon="-2.45799">
        <ele>76.2</ele>
        <time>2024-12-19T12:03:42Z</time>
      </trkpt>
      <trkpt lat="47.91099" lon="-2.45797">
        <ele>76.1</ele>
        <time>2024-12-19T12:03:43Z</time>
      </trkpt>
      <trkpt lat="47.91099" lon="-2.45796">
        <ele>76.1</ele>
        <time>2024-12-19T12:03:44Z</time>
      </trkpt>
      <trkpt lat="47.91099" lon="-2.45796">
        <ele>76.1</ele>
        <time>2024-12-19T12:03:45Z</time>
      </trkpt>
      <trkpt lat="47.91098" lon="-2.45795">
        <ele>76.1</ele>
        <time>2024-12-19T12:03:46Z</time>
      </trkpt>
      <trkpt lat="47.91098" lon="-2.45793">
        <ele>76.1</ele>
        <time>2024-12-19T12:03:47Z</time>
      </trkpt>
      <trkpt lat="47.91097" lon="-2.45793">
        <ele>76</ele>
        <time>2024-12-19T12:03:48Z</time>
      </trkpt>
      <trkpt lat="47.91097" lon="-2.45791">
        <ele>76</ele>
        <time>2024-12-19T12:03:49Z</time>
      </trkpt>
      <trkpt lat="47.91096" lon="-2.4579">
        <ele>76</ele>
        <time>2024-12-19T12:03:50Z</time>
      </trkpt>
      <trkpt lat="47.91096" lon="-2.45788">
        <ele>75.9</ele>
        <time>2024-12-19T12:03:51Z</time>
      </trkpt>
      <trkpt lat="47.91096" lon="-2.45785">
        <ele>75.8</ele>
        <time>2024-12-19T12:03:52Z</time>
      </trkpt>
      <trkpt lat="47.91096" lon="-2.45782">
        <ele>75.7</ele>
        <time>2024-12-19T12:03:53Z</time>
      </trkpt>
      <trkpt lat="47.91096" lon="-2.45781">
        <ele>75.6</ele>
        <time>2024-12-19T12:03:54Z</time>
      </trkpt>
      <trkpt lat="47.91096" lon="-2.45779">
        <ele>75.6</ele>
        <time>2024-12-19T12:03:55Z</time>
      </trkpt>
      <trkpt lat="47.91096" lon="-2.45777">
        <ele>75.5</ele>
        <time>2024-12-19T12:03:56Z</time>
      </trkpt>
      <trkpt lat="47.91095" lon="-2.45775">
        <ele>75.4</ele>
        <time>2024-12-19T12:03:57Z</time>
      </trkpt>
      <trkpt lat="47.91094" lon="-2.45773">
        <ele>75.2</ele>
        <time>2024-12-19T12:03:58Z</time>
      </trkpt>
      <trkpt lat="47.91093" lon="-2.4577">
        <ele>75.1</ele>
        <time>2024-12-19T12:03:59Z</time>
      </trkpt>
      <trkpt lat="47.91092" lon="-2.45768">
        <ele>75</ele>
        <time>2024-12-19T12:04:00Z</time>
      </trkpt>
      <trkpt lat="47.91091" lon="-2.45767">
        <ele>75</ele>
        <time>2024-12-19T12:04:01Z</time>
      </trkpt>
      <trkpt lat="47.9109" lon="-2.45766">
        <ele>74.9</ele>
        <time>2024-12-19T12:04:02Z</time>
      </trkpt>
      <trkpt lat="47.91089" lon="-2.45764">
        <ele>74.8</ele>
        <time>2024-12-19T12:04:03Z</time>
      </trkpt>
      <trkpt lat="47.91089" lon="-2.45762">
        <ele>74.7</ele>
        <time>2024-12-19T12:04:04Z</time>
      </trkpt>
      <trkpt lat="47.91088" lon="-2.45761">
        <ele>74.6</ele>
        <time>2024-12-19T12:04:05Z</time>
      </trkpt>
      <trkpt lat="47.91088" lon="-2.4576">
        <ele>74.5</ele>
        <time>2024-12-19T12:04:06Z</time>
      </trkpt>
      <trkpt lat="47.91087" lon="-2.45758">
        <ele>74.4</ele>
        <time>2024-12-19T12:04:07Z</time>
      </trkpt>
      <trkpt lat="47.91087" lon="-2.45756">
        <ele>74.3</ele>
        <time>2024-12-19T12:04:08Z</time>
      </trkpt>
      <trkpt lat="47.91086" lon="-2.45754">
        <ele>74.2</ele>
        <time>2024-12-19T12:04:09Z</time>
      </trkpt>
      <trkpt lat="47.91086" lon="-2.45753">
        <ele>74.1</ele>
        <time>2024-12-19T12:04:10Z</time>
      </trkpt>
      <trkpt lat="47.91085" lon="-2.45751">
        <ele>74</ele>
        <time>2024-12-19T12:04:11Z</time>
      </trkpt>
      <trkpt lat="47.91085" lon="-2.45749">
        <ele>73.9</ele>
        <time>2024-12-19T12:04:12Z</time>
      </trkpt>
      <trkpt lat="47.91084" lon="-2.45747">
        <ele>73.9</ele>
        <time>2024-12-19T12:04:13Z</time>
      </trkpt>
      <trkpt lat="47.91084" lon="-2.45746">
        <ele>73.8</ele>
        <time>2024-12-19T12:04:14Z</time>
      </trkpt>
      <trkpt lat="47.91084" lon="-2.45743">
        <ele>73.8</ele>
        <time>2024-12-19T12:04:15Z</time>
      </trkpt>
      <trkpt lat="47.91083" lon="-2.45741">
        <ele>73.7</ele>
        <time>2024-12-19T12:04:16Z</time>
      </trkpt>
      <trkpt lat="47.91083" lon="-2.45739">
        <ele>73.7</ele>
        <time>2024-12-19T12:04:17Z</time>
      </trkpt>
      <trkpt lat="47.91082" lon="-2.45737">
        <ele>73.7</ele>
        <time>2024-12-19T12:04:18Z</time>
      </trkpt>
      <trkpt lat="47.91082" lon="-2.45735">
        <ele>73.6</ele>
        <time>2024-12-19T12:04:19Z</time>
      </trkpt>
      <trkpt lat="47.91082" lon="-2.45733">
        <ele>73.7</ele>
        <time>2024-12-19T12:04:20Z</time>
      </trkpt>
      <trkpt lat="47.91081" lon="-2.45732">
        <ele>73.7</ele>
        <time>2024-12-19T12:04:21Z</time>
      </trkpt>
      <trkpt lat="47.9108" lon="-2.4573">
        <ele>73.8</ele>
        <time>2024-12-19T12:04:22Z</time>
      </trkpt>
      <trkpt lat="47.91079" lon="-2.45729">
        <ele>73.8</ele>
        <time>2024-12-19T12:04:23Z</time>
      </trkpt>
      <trkpt lat="47.91079" lon="-2.45727">
        <ele>73.8</ele>
        <time>2024-12-19T12:04:24Z</time>
      </trkpt>
      <trkpt lat="47.91079" lon="-2.45725">
        <ele>73.8</ele>
        <time>2024-12-19T12:04:25Z</time>
      </trkpt>
      <trkpt lat="47.91079" lon="-2.45724">
        <ele>73.7</ele>
        <time>2024-12-19T12:04:26Z</time>
      </trkpt>
      <trkpt lat="47.91078" lon="-2.45722">
        <ele>73.8</ele>
        <time>2024-12-19T12:04:27Z</time>
      </trkpt>
      <trkpt lat="47.91077" lon="-2.45719">
        <ele>73.9</ele>
        <time>2024-12-19T12:04:28Z</time>
      </trkpt>
      <trkpt lat="47.91077" lon="-2.45717">
        <ele>73.9</ele>
        <time>2024-12-19T12:04:29Z</time>
      </trkpt>
      <trkpt lat="47.91077" lon="-2.45715">
        <ele>74</ele>
        <time>2024-12-19T12:04:30Z</time>
      </trkpt>
      <trkpt lat="47.91076" lon="-2.45714">
        <ele>74</ele>
        <time>2024-12-19T12:04:31Z</time>
      </trkpt>
      <trkpt lat="47.91076" lon="-2.45712">
        <ele>74.1</ele>
        <time>2024-12-19T12:04:32Z</time>
      </trkpt>
      <trkpt lat="47.91076" lon="-2.45711">
        <ele>74.1</ele>
        <time>2024-12-19T12:04:33Z</time>
      </trkpt>
      <trkpt lat="47.91076" lon="-2.4571">
        <ele>74.1</ele>
        <time>2024-12-19T12:04:34Z</time>
      </trkpt>
      <trkpt lat="47.91076" lon="-2.4571">
        <ele>74</ele>
        <time>2024-12-19T12:04:35Z</time>
      </trkpt>
      <trkpt lat="47.91077" lon="-2.45709">
        <ele>74</ele>
        <time>2024-12-19T12:04:36Z</time>
      </trkpt>
      <trkpt lat="47.91077" lon="-2.45708">
        <ele>74</ele>
        <time>2024-12-19T12:04:37Z</time>
      </trkpt>
      <trkpt lat="47.91076" lon="-2.45706">
        <ele>74</ele>
        <time>2024-12-19T12:04:38Z</time>
      </trkpt>
      <trkpt lat="47.91076" lon="-2.45705">
        <ele>74.1</ele>
        <time>2024-12-19T12:04:39Z</time>
      </trkpt>
      <trkpt lat="47.91075" lon="-2.45703">
        <ele>74.1</ele>
        <time>2024-12-19T12:04:40Z</time>
      </trkpt>
      <trkpt lat="47.91075" lon="-2.45702">
        <ele>74.2</ele>
        <time>2024-12-19T12:04:41Z</time>
      </trkpt>
      <trkpt lat="47.91074" lon="-2.45699">
        <ele>74.3</ele>
        <time>2024-12-19T12:04:42Z</time>
      </trkpt>
      <trkpt lat="47.91074" lon="-2.45698">
        <ele>74.3</ele>
        <time>2024-12-19T12:04:43Z</time>
      </trkpt>
      <trkpt lat="47.91074" lon="-2.45697">
        <ele>74.4</ele>
        <time>2024-12-19T12:04:44Z</time>
      </trkpt>
      <trkpt lat="47.91073" lon="-2.45695">
        <ele>74.5</ele>
        <time>2024-12-19T12:04:45Z</time>
      </trkpt>
      <trkpt lat="47.91073" lon="-2.45693">
        <ele>74.5</ele>
        <time>2024-12-19T12:04:46Z</time>
      </trkpt>
      <trkpt lat="47.91072" lon="-2.45691">
        <ele>74.4</ele>
        <time>2024-12-19T12:04:47Z</time>
      </trkpt>
      <trkpt lat="47.91072" lon="-2.4569">
        <ele>74.3</ele>
        <time>2024-12-19T12:04:48Z</time>
      </trkpt>
      <trkpt lat="47.91073" lon="-2.45688">
        <ele>74.2</ele>
        <time>2024-12-19T12:04:49Z</time>
      </trkpt>
      <trkpt lat="47.91073" lon="-2.45687">
        <ele>74.2</ele>
        <time>2024-12-19T12:04:50Z</time>
      </trkpt>
      <trkpt lat="47.91072" lon="-2.45685">
        <ele>74.1</ele>
        <time>2024-12-19T12:04:51Z</time>
      </trkpt>
      <trkpt lat="47.91073" lon="-2.45683">
        <ele>74</ele>
        <time>2024-12-19T12:04:52Z</time>
      </trkpt>
      <trkpt lat="47.91072" lon="-2.45681">
        <ele>73.9</ele>
        <time>2024-12-19T12:04:53Z</time>
      </trkpt>
      <trkpt lat="47.91072" lon="-2.45679">
        <ele>73.8</ele>
        <time>2024-12-19T12:04:54Z</time>
      </trkpt>
      <trkpt lat="47.91072" lon="-2.45677">
        <ele>73.8</ele>
        <time>2024-12-19T12:04:55Z</time>
      </trkpt>
      <trkpt lat="47.91071" lon="-2.45675">
        <ele>73.8</ele>
        <time>2024-12-19T12:04:56Z</time>
      </trkpt>
      <trkpt lat="47.9107" lon="-2.45673">
        <ele>73.7</ele>
        <time>2024-12-19T12:04:57Z</time>
      </trkpt>
      <trkpt lat="47.9107" lon="-2.45672">
        <ele>73.7</ele>
        <time>2024-12-19T12:04:58Z</time>
      </trkpt>
      <trkpt lat="47.91069" lon="-2.45669">
        <ele>73.7</ele>
        <time>2024-12-19T12:04:59Z</time>
      </trkpt>
      <trkpt lat="47.91069" lon="-2.45667">
        <ele>73.6</ele>
        <time>2024-12-19T12:05:00Z</time>
      </trkpt>
      <trkpt lat="47.91068" lon="-2.45665">
        <ele>73.6</ele>
        <time>2024-12-19T12:05:01Z</time>
      </trkpt>
      <trkpt lat="47.91067" lon="-2.45664">
        <ele>73.7</ele>
        <time>2024-12-19T12:05:02Z</time>
      </trkpt>
      <trkpt lat="47.91066" lon="-2.45662">
        <ele>73.8</ele>
        <time>2024-12-19T12:05:03Z</time>
      </trkpt>
      <trkpt lat="47.91066" lon="-2.45661">
        <ele>73.8</ele>
        <time>2024-12-19T12:05:04Z</time>
      </trkpt>
      <trkpt lat="47.91065" lon="-2.45659">
        <ele>73.9</ele>
        <time>2024-12-19T12:05:05Z</time>
      </trkpt>
      <trkpt lat="47.91065" lon="-2.45658">
        <ele>73.9</ele>
        <time>2024-12-19T12:05:06Z</time>
      </trkpt>
      <trkpt lat="47.91065" lon="-2.45656">
        <ele>73.9</ele>
        <time>2024-12-19T12:05:07Z</time>
      </trkpt>
      <trkpt lat="47.91064" lon="-2.45655">
        <ele>73.9</ele>
        <time>2024-12-19T12:05:08Z</time>
      </trkpt>
      <trkpt lat="47.91064" lon="-2.45653">
        <ele>74</ele>
        <time>2024-12-19T12:05:09Z</time>
      </trkpt>
      <trkpt lat="47.91063" lon="-2.45651">
        <ele>74</ele>
        <time>2024-12-19T12:05:10Z</time>
      </trkpt>
      <trkpt lat="47.91063" lon="-2.4565">
        <ele>74.1</ele>
        <time>2024-12-19T12:05:11Z</time>
      </trkpt>
      <trkpt lat="47.91063" lon="-2.4565">
        <ele>74.1</ele>
        <time>2024-12-19T12:05:12Z</time>
      </trkpt>
      <trkpt lat="47.91062" lon="-2.45648">
        <ele>74.1</ele>
        <time>2024-12-19T12:05:13Z</time>
      </trkpt>
      <trkpt lat="47.91062" lon="-2.45648">
        <ele>74.2</ele>
        <time>2024-12-19T12:05:14Z</time>
      </trkpt>
      <trkpt lat="47.91061" lon="-2.45647">
        <ele>74.2</ele>
        <time>2024-12-19T12:05:15Z</time>
      </trkpt>
      <trkpt lat="47.91061" lon="-2.45646">
        <ele>74.3</ele>
        <time>2024-12-19T12:05:16Z</time>
      </trkpt>
      <trkpt lat="47.9106" lon="-2.45645">
        <ele>74.4</ele>
        <time>2024-12-19T12:05:17Z</time>
      </trkpt>
      <trkpt lat="47.9106" lon="-2.45644">
        <ele>74.4</ele>
        <time>2024-12-19T12:05:18Z</time>
      </trkpt>
      <trkpt lat="47.91059" lon="-2.45643">
        <ele>74.5</ele>
        <time>2024-12-19T12:05:19Z</time>
      </trkpt>
      <trkpt lat="47.91059" lon="-2.45642">
        <ele>74.5</ele>
        <time>2024-12-19T12:05:20Z</time>
      </trkpt>
      <trkpt lat="47.91058" lon="-2.45641">
        <ele>74.6</ele>
        <time>2024-12-19T12:05:21Z</time>
      </trkpt>
      <trkpt lat="47.91058" lon="-2.4564">
        <ele>74.7</ele>
        <time>2024-12-19T12:05:22Z</time>
      </trkpt>
      <trkpt lat="47.91057" lon="-2.4564">
        <ele>74.8</ele>
        <time>2024-12-19T12:05:23Z</time>
      </trkpt>
      <trkpt lat="47.91056" lon="-2.45639">
        <ele>75</ele>
        <time>2024-12-19T12:05:24Z</time>
      </trkpt>
      <trkpt lat="47.91055" lon="-2.45638">
        <ele>75.1</ele>
        <time>2024-12-19T12:05:25Z</time>
      </trkpt>
      <trkpt lat="47.91054" lon="-2.45637">
        <ele>75.3</ele>
        <time>2024-12-19T12:05:26Z</time>
      </trkpt>
      <trkpt lat="47.91053" lon="-2.45636">
        <ele>75.4</ele>
        <time>2024-12-19T12:05:27Z</time>
      </trkpt>
      <trkpt lat="47.91053" lon="-2.45635">
        <ele>75.5</ele>
        <time>2024-12-19T12:05:28Z</time>
      </trkpt>
      <trkpt lat="47.91052" lon="-2.45635">
        <ele>75.6</ele>
        <time>2024-12-19T12:05:29Z</time>
      </trkpt>
      <trkpt lat="47.91052" lon="-2.45634">
        <ele>75.7</ele>
        <time>2024-12-19T12:05:30Z</time>
      </trkpt>
      <trkpt lat="47.91051" lon="-2.45633">
        <ele>75.9</ele>
        <time>2024-12-19T12:05:31Z</time>
      </trkpt>
      <trkpt lat="47.91049" lon="-2.45632">
        <ele>76.1</ele>
        <time>2024-12-19T12:05:32Z</time>
      </trkpt>
      <trkpt lat="47.91049" lon="-2.45631">
        <ele>76.2</ele>
        <time>2024-12-19T12:05:33Z</time>
      </trkpt>
      <trkpt lat="47.91049" lon="-2.4563">
        <ele>76.2</ele>
        <time>2024-12-19T12:05:34Z</time>
      </trkpt>
      <trkpt lat="47.91049" lon="-2.45629">
        <ele>76.3</ele>
        <time>2024-12-19T12:05:35Z</time>
      </trkpt>
      <trkpt lat="47.91049" lon="-2.45629">
        <ele>76.2</ele>
        <time>2024-12-19T12:05:36Z</time>
      </trkpt>
      <trkpt lat="47.91049" lon="-2.45628">
        <ele>76.2</ele>
        <time>2024-12-19T12:05:37Z</time>
      </trkpt>
      <trkpt lat="47.9105" lon="-2.45626">
        <ele>76.2</ele>
        <time>2024-12-19T12:05:38Z</time>
      </trkpt>
      <trkpt lat="47.9105" lon="-2.45625">
        <ele>76.2</ele>
        <time>2024-12-19T12:05:39Z</time>
      </trkpt>
      <trkpt lat="47.9105" lon="-2.45624">
        <ele>76.2</ele>
        <time>2024-12-19T12:05:40Z</time>
      </trkpt>
      <trkpt lat="47.91051" lon="-2.45622">
        <ele>76.2</ele>
        <time>2024-12-19T12:05:41Z</time>
      </trkpt>
      <trkpt lat="47.91051" lon="-2.45621">
        <ele>76.2</ele>
        <time>2024-12-19T12:05:42Z</time>
      </trkpt>
      <trkpt lat="47.91052" lon="-2.4562">
        <ele>76.2</ele>
        <time>2024-12-19T12:05:43Z</time>
      </trkpt>
      <trkpt lat="47.91052" lon="-2.45618">
        <ele>76.2</ele>
        <time>2024-12-19T12:05:44Z</time>
      </trkpt>
      <trkpt lat="47.91052" lon="-2.45618">
        <ele>76.2</ele>
        <time>2024-12-19T12:05:45Z</time>
      </trkpt>
      <trkpt lat="47.91052" lon="-2.45617">
        <ele>76.3</ele>
        <time>2024-12-19T12:05:46Z</time>
      </trkpt>
      <trkpt lat="47.91052" lon="-2.45616">
        <ele>76.3</ele>
        <time>2024-12-19T12:05:47Z</time>
      </trkpt>
      <trkpt lat="47.91051" lon="-2.45615">
        <ele>76.3</ele>
        <time>2024-12-19T12:05:48Z</time>
      </trkpt>
      <trkpt lat="47.91052" lon="-2.45613">
        <ele>76.3</ele>
        <time>2024-12-19T12:05:49Z</time>
      </trkpt>
      <trkpt lat="47.91052" lon="-2.45612">
        <ele>76.3</ele>
        <time>2024-12-19T12:05:50Z</time>
      </trkpt>
      <trkpt lat="47.91052" lon="-2.4561">
        <ele>76.4</ele>
        <time>2024-12-19T12:05:51Z</time>
      </trkpt>
      <trkpt lat="47.91052" lon="-2.45608">
        <ele>76.4</ele>
        <time>2024-12-19T12:05:52Z</time>
      </trkpt>
      <trkpt lat="47.91052" lon="-2.45606">
        <ele>76.5</ele>
        <time>2024-12-19T12:05:53Z</time>
      </trkpt>
      <trkpt lat="47.91051" lon="-2.45604">
        <ele>76.5</ele>
        <time>2024-12-19T12:05:54Z</time>
      </trkpt>
      <trkpt lat="47.91051" lon="-2.45602">
        <ele>76.5</ele>
        <time>2024-12-19T12:05:55Z</time>
      </trkpt>
      <trkpt lat="47.91051" lon="-2.456">
        <ele>76.5</ele>
        <time>2024-12-19T12:05:56Z</time>
      </trkpt>
      <trkpt lat="47.91051" lon="-2.45598">
        <ele>76.5</ele>
        <time>2024-12-19T12:05:57Z</time>
      </trkpt>
      <trkpt lat="47.91052" lon="-2.45597">
        <ele>76.5</ele>
        <time>2024-12-19T12:05:58Z</time>
      </trkpt>
      <trkpt lat="47.91052" lon="-2.45595">
        <ele>76.4</ele>
        <time>2024-12-19T12:05:59Z</time>
      </trkpt>
      <trkpt lat="47.91053" lon="-2.45593">
        <ele>76.4</ele>
        <time>2024-12-19T12:06:00Z</time>
      </trkpt>
      <trkpt lat="47.91053" lon="-2.45592">
        <ele>76.3</ele>
        <time>2024-12-19T12:06:01Z</time>
      </trkpt>
      <trkpt lat="47.91053" lon="-2.45591">
        <ele>76.3</ele>
        <time>2024-12-19T12:06:02Z</time>
      </trkpt>
      <trkpt lat="47.91053" lon="-2.45589">
        <ele>76.3</ele>
        <time>2024-12-19T12:06:03Z</time>
      </trkpt>
      <trkpt lat="47.91053" lon="-2.45587">
        <ele>76.4</ele>
        <time>2024-12-19T12:06:04Z</time>
      </trkpt>
      <trkpt lat="47.91053" lon="-2.45585">
        <ele>76.4</ele>
        <time>2024-12-19T12:06:05Z</time>
      </trkpt>
      <trkpt lat="47.91052" lon="-2.45584">
        <ele>76.5</ele>
        <time>2024-12-19T12:06:06Z</time>
      </trkpt>
      <trkpt lat="47.91052" lon="-2.45582">
        <ele>76.6</ele>
        <time>2024-12-19T12:06:07Z</time>
      </trkpt>
      <trkpt lat="47.91051" lon="-2.4558">
        <ele>76.6</ele>
        <time>2024-12-19T12:06:08Z</time>
      </trkpt>
      <trkpt lat="47.9105" lon="-2.45578">
        <ele>76.7</ele>
        <time>2024-12-19T12:06:09Z</time>
      </trkpt>
      <trkpt lat="47.9105" lon="-2.45576">
        <ele>76.8</ele>
        <time>2024-12-19T12:06:10Z</time>
      </trkpt>
      <trkpt lat="47.91049" lon="-2.45574">
        <ele>76.9</ele>
        <time>2024-12-19T12:06:11Z</time>
      </trkpt>
      <trkpt lat="47.91048" lon="-2.45572">
        <ele>76.9</ele>
        <time>2024-12-19T12:06:12Z</time>
      </trkpt>
      <trkpt lat="47.91048" lon="-2.4557">
        <ele>77</ele>
        <time>2024-12-19T12:06:13Z</time>
      </trkpt>
      <trkpt lat="47.91047" lon="-2.45568">
        <ele>77.1</ele>
        <time>2024-12-19T12:06:14Z</time>
      </trkpt>
      <trkpt lat="47.91046" lon="-2.45565">
        <ele>77.1</ele>
        <time>2024-12-19T12:06:15Z</time>
      </trkpt>
      <trkpt lat="47.91046" lon="-2.45563">
        <ele>77.2</ele>
        <time>2024-12-19T12:06:16Z</time>
      </trkpt>
      <trkpt lat="47.91045" lon="-2.45562">
        <ele>77.2</ele>
        <time>2024-12-19T12:06:17Z</time>
      </trkpt>
      <trkpt lat="47.91044" lon="-2.45561">
        <ele>77.3</ele>
        <time>2024-12-19T12:06:18Z</time>
      </trkpt>
      <trkpt lat="47.91044" lon="-2.4556">
        <ele>77.3</ele>
        <time>2024-12-19T12:06:19Z</time>
      </trkpt>
      <trkpt lat="47.91044" lon="-2.45559">
        <ele>77.3</ele>
        <time>2024-12-19T12:06:20Z</time>
      </trkpt>
      <trkpt lat="47.91044" lon="-2.45558">
        <ele>77.3</ele>
        <time>2024-12-19T12:06:21Z</time>
      </trkpt>
      <trkpt lat="47.91044" lon="-2.45557">
        <ele>77.3</ele>
        <time>2024-12-19T12:06:22Z</time>
      </trkpt>
      <trkpt lat="47.91044" lon="-2.45557">
        <ele>77.3</ele>
        <time>2024-12-19T12:06:23Z</time>
      </trkpt>
      <trkpt lat="47.91044" lon="-2.45556">
        <ele>77.3</ele>
        <time>2024-12-19T12:06:24Z</time>
      </trkpt>
      <trkpt lat="47.91043" lon="-2.45555">
        <ele>77.4</ele>
        <time>2024-12-19T12:06:25Z</time>
      </trkpt>
      <trkpt lat="47.91043" lon="-2.45553">
        <ele>77.4</ele>
        <time>2024-12-19T12:06:26Z</time>
      </trkpt>
      <trkpt lat="47.91042" lon="-2.45552">
        <ele>77.5</ele>
        <time>2024-12-19T12:06:27Z</time>
      </trkpt>
      <trkpt lat="47.91041" lon="-2.45551">
        <ele>77.6</ele>
        <time>2024-12-19T12:06:28Z</time>
      </trkpt>
      <trkpt lat="47.91041" lon="-2.4555">
        <ele>77.7</ele>
        <time>2024-12-19T12:06:29Z</time>
      </trkpt>
      <trkpt lat="47.9104" lon="-2.45548">
        <ele>77.8</ele>
        <time>2024-12-19T12:06:30Z</time>
      </trkpt>
      <trkpt lat="47.91039" lon="-2.45547">
        <ele>78</ele>
        <time>2024-12-19T12:06:31Z</time>
      </trkpt>
      <trkpt lat="47.91038" lon="-2.45545">
        <ele>78.2</ele>
        <time>2024-12-19T12:06:32Z</time>
      </trkpt>
      <trkpt lat="47.91037" lon="-2.45543">
        <ele>78.3</ele>
        <time>2024-12-19T12:06:33Z</time>
      </trkpt>
      <trkpt lat="47.91036" lon="-2.4554">
        <ele>78.5</ele>
        <time>2024-12-19T12:06:34Z</time>
      </trkpt>
      <trkpt lat="47.91035" lon="-2.45537">
        <ele>78.7</ele>
        <time>2024-12-19T12:06:35Z</time>
      </trkpt>
      <trkpt lat="47.91035" lon="-2.45535">
        <ele>78.8</ele>
        <time>2024-12-19T12:06:36Z</time>
      </trkpt>
      <trkpt lat="47.91034" lon="-2.45533">
        <ele>78.9</ele>
        <time>2024-12-19T12:06:37Z</time>
      </trkpt>
      <trkpt lat="47.91034" lon="-2.4553">
        <ele>79.1</ele>
        <time>2024-12-19T12:06:38Z</time>
      </trkpt>
      <trkpt lat="47.91033" lon="-2.45528">
        <ele>79.3</ele>
        <time>2024-12-19T12:06:39Z</time>
      </trkpt>
      <trkpt lat="47.91032" lon="-2.45525">
        <ele>79.4</ele>
        <time>2024-12-19T12:06:40Z</time>
      </trkpt>
      <trkpt lat="47.91032" lon="-2.45523">
        <ele>79.6</ele>
        <time>2024-12-19T12:06:41Z</time>
      </trkpt>
      <trkpt lat="47.91031" lon="-2.45521">
        <ele>79.7</ele>
        <time>2024-12-19T12:06:42Z</time>
      </trkpt>
      <trkpt lat="47.91031" lon="-2.45519">
        <ele>79.8</ele>
        <time>2024-12-19T12:06:43Z</time>
      </trkpt>
      <trkpt lat="47.91031" lon="-2.45517">
        <ele>80</ele>
        <time>2024-12-19T12:06:44Z</time>
      </trkpt>
      <trkpt lat="47.9103" lon="-2.45515">
        <ele>80.1</ele>
        <time>2024-12-19T12:06:45Z</time>
      </trkpt>
      <trkpt lat="47.91029" lon="-2.45512">
        <ele>80.3</ele>
        <time>2024-12-19T12:06:46Z</time>
      </trkpt>
      <trkpt lat="47.91029" lon="-2.4551">
        <ele>80.5</ele>
        <time>2024-12-19T12:06:47Z</time>
      </trkpt>
      <trkpt lat="47.91028" lon="-2.45507">
        <ele>80.6</ele>
        <time>2024-12-19T12:06:48Z</time>
      </trkpt>
      <trkpt lat="47.91028" lon="-2.45504">
        <ele>80.9</ele>
        <time>2024-12-19T12:06:49Z</time>
      </trkpt>
      <trkpt lat="47.91028" lon="-2.45502">
        <ele>81</ele>
        <time>2024-12-19T12:06:50Z</time>
      </trkpt>
      <trkpt lat="47.91027" lon="-2.455">
        <ele>81.1</ele>
        <time>2024-12-19T12:06:51Z</time>
      </trkpt>
      <trkpt lat="47.91026" lon="-2.45499">
        <ele>81.1</ele>
        <time>2024-12-19T12:06:52Z</time>
      </trkpt>
      <trkpt lat="47.91025" lon="-2.45498">
        <ele>81.2</ele>
        <time>2024-12-19T12:06:53Z</time>
      </trkpt>
      <trkpt lat="47.91023" lon="-2.45498">
        <ele>81.3</ele>
        <time>2024-12-19T12:06:54Z</time>
      </trkpt>
      <trkpt lat="47.91022" lon="-2.45497">
        <ele>81.4</ele>
        <time>2024-12-19T12:06:55Z</time>
      </trkpt>
      <trkpt lat="47.91021" lon="-2.45496">
        <ele>81.5</ele>
        <time>2024-12-19T12:06:56Z</time>
      </trkpt>
      <trkpt lat="47.91021" lon="-2.45495">
        <ele>81.5</ele>
        <time>2024-12-19T12:06:57Z</time>
      </trkpt>
      <trkpt lat="47.9102" lon="-2.45495">
        <ele>81.6</ele>
        <time>2024-12-19T12:06:58Z</time>
      </trkpt>
      <trkpt lat="47.91019" lon="-2.45494">
        <ele>81.6</ele>
        <time>2024-12-19T12:06:59Z</time>
      </trkpt>
      <trkpt lat="47.91018" lon="-2.45494">
        <ele>81.7</ele>
        <time>2024-12-19T12:07:00Z</time>
      </trkpt>
      <trkpt lat="47.91016" lon="-2.45494">
        <ele>81.8</ele>
        <time>2024-12-19T12:07:01Z</time>
      </trkpt>
      <trkpt lat="47.91015" lon="-2.45495">
        <ele>81.9</ele>
        <time>2024-12-19T12:07:02Z</time>
      </trkpt>
      <trkpt lat="47.91015" lon="-2.45495">
        <ele>81.9</ele>
        <time>2024-12-19T12:07:03Z</time>
      </trkpt>
      <trkpt lat="47.91014" lon="-2.45495">
        <ele>82</ele>
        <time>2024-12-19T12:07:04Z</time>
      </trkpt>
      <trkpt lat="47.91014" lon="-2.45495">
        <ele>82</ele>
        <time>2024-12-19T12:07:05Z</time>
      </trkpt>
      <trkpt lat="47.91013" lon="-2.45495">
        <ele>82</ele>
        <time>2024-12-19T12:07:06Z</time>
      </trkpt>
      <trkpt lat="47.91013" lon="-2.45495">
        <ele>82.1</ele>
        <time>2024-12-19T12:07:07Z</time>
      </trkpt>
      <trkpt lat="47.91013" lon="-2.45495">
        <ele>82.1</ele>
        <time>2024-12-19T12:07:08Z</time>
      </trkpt>
      <trkpt lat="47.91012" lon="-2.45496">
        <ele>82.2</ele>
        <time>2024-12-19T12:07:09Z</time>
      </trkpt>
      <trkpt lat="47.91011" lon="-2.45496">
        <ele>82.2</ele>
        <time>2024-12-19T12:07:10Z</time>
      </trkpt>
      <trkpt lat="47.9101" lon="-2.45497">
        <ele>82.3</ele>
        <time>2024-12-19T12:07:11Z</time>
      </trkpt>
      <trkpt lat="47.91009" lon="-2.45497">
        <ele>82.4</ele>
        <time>2024-12-19T12:07:12Z</time>
      </trkpt>
      <trkpt lat="47.91008" lon="-2.45497">
        <ele>82.4</ele>
        <time>2024-12-19T12:07:13Z</time>
      </trkpt>
      <trkpt lat="47.91007" lon="-2.45496">
        <ele>82.5</ele>
        <time>2024-12-19T12:07:14Z</time>
      </trkpt>
      <trkpt lat="47.91006" lon="-2.45496">
        <ele>82.6</ele>
        <time>2024-12-19T12:07:15Z</time>
      </trkpt>
      <trkpt lat="47.91004" lon="-2.45496">
        <ele>82.7</ele>
        <time>2024-12-19T12:07:16Z</time>
      </trkpt>
      <trkpt lat="47.91003" lon="-2.45496">
        <ele>82.8</ele>
        <time>2024-12-19T12:07:17Z</time>
      </trkpt>
      <trkpt lat="47.91002" lon="-2.45497">
        <ele>82.9</ele>
        <time>2024-12-19T12:07:18Z</time>
      </trkpt>
      <trkpt lat="47.91001" lon="-2.45497">
        <ele>82.9</ele>
        <time>2024-12-19T12:07:19Z</time>
      </trkpt>
      <trkpt lat="47.91" lon="-2.45497">
        <ele>83</ele>
        <time>2024-12-19T12:07:20Z</time>
      </trkpt>
      <trkpt lat="47.90999" lon="-2.45497">
        <ele>83</ele>
        <time>2024-12-19T12:07:21Z</time>
      </trkpt>
      <trkpt lat="47.90998" lon="-2.45498">
        <ele>83.1</ele>
        <time>2024-12-19T12:07:22Z</time>
      </trkpt>
      <trkpt lat="47.90997" lon="-2.45498">
        <ele>83.1</ele>
        <time>2024-12-19T12:07:23Z</time>
      </trkpt>
      <trkpt lat="47.90996" lon="-2.45499">
        <ele>83.1</ele>
        <time>2024-12-19T12:07:24Z</time>
      </trkpt>
      <trkpt lat="47.90996" lon="-2.455">
        <ele>83.2</ele>
        <time>2024-12-19T12:07:25Z</time>
      </trkpt>
      <trkpt lat="47.90995" lon="-2.45501">
        <ele>83.2</ele>
        <time>2024-12-19T12:07:26Z</time>
      </trkpt>
      <trkpt lat="47.90995" lon="-2.45502">
        <ele>83.2</ele>
        <time>2024-12-19T12:07:27Z</time>
      </trkpt>
      <trkpt lat="47.90994" lon="-2.45503">
        <ele>83.2</ele>
        <time>2024-12-19T12:07:28Z</time>
      </trkpt>
      <trkpt lat="47.90993" lon="-2.45503">
        <ele>83.2</ele>
        <time>2024-12-19T12:07:29Z</time>
      </trkpt>
      <trkpt lat="47.90993" lon="-2.45504">
        <ele>83.3</ele>
        <time>2024-12-19T12:07:30Z</time>
      </trkpt>
      <trkpt lat="47.90993" lon="-2.45504">
        <ele>83.3</ele>
        <time>2024-12-19T12:07:31Z</time>
      </trkpt>
      <trkpt lat="47.90992" lon="-2.45505">
        <ele>83.3</ele>
        <time>2024-12-19T12:07:32Z</time>
      </trkpt>
      <trkpt lat="47.90991" lon="-2.45506">
        <ele>83.3</ele>
        <time>2024-12-19T12:07:33Z</time>
      </trkpt>
      <trkpt lat="47.90991" lon="-2.45507">
        <ele>83.3</ele>
        <time>2024-12-19T12:07:34Z</time>
      </trkpt>
      <trkpt lat="47.9099" lon="-2.45507">
        <ele>83.4</ele>
        <time>2024-12-19T12:07:35Z</time>
      </trkpt>
      <trkpt lat="47.9099" lon="-2.45507">
        <ele>83.4</ele>
        <time>2024-12-19T12:07:36Z</time>
      </trkpt>
      <trkpt lat="47.9099" lon="-2.45507">
        <ele>83.4</ele>
        <time>2024-12-19T12:07:37Z</time>
      </trkpt>
      <trkpt lat="47.9099" lon="-2.45507">
        <ele>83.4</ele>
        <time>2024-12-19T12:07:38Z</time>
      </trkpt>
      <trkpt lat="47.90989" lon="-2.45507">
        <ele>83.4</ele>
        <time>2024-12-19T12:07:39Z</time>
      </trkpt>
      <trkpt lat="47.90989" lon="-2.45508">
        <ele>83.4</ele>
        <time>2024-12-19T12:07:40Z</time>
      </trkpt>
      <trkpt lat="47.90989" lon="-2.45508">
        <ele>83.4</ele>
        <time>2024-12-19T12:07:41Z</time>
      </trkpt>
      <trkpt lat="47.90988" lon="-2.45508">
        <ele>83.4</ele>
        <time>2024-12-19T12:07:42Z</time>
      </trkpt>
      <trkpt lat="47.90987" lon="-2.45508">
        <ele>83.5</ele>
        <time>2024-12-19T12:07:43Z</time>
      </trkpt>
      <trkpt lat="47.90986" lon="-2.45509">
        <ele>83.5</ele>
        <time>2024-12-19T12:07:44Z</time>
      </trkpt>
      <trkpt lat="47.90985" lon="-2.45509">
        <ele>83.5</ele>
        <time>2024-12-19T12:07:45Z</time>
      </trkpt>
      <trkpt lat="47.90984" lon="-2.45509">
        <ele>83.6</ele>
        <time>2024-12-19T12:07:46Z</time>
      </trkpt>
      <trkpt lat="47.90983" lon="-2.4551">
        <ele>83.6</ele>
        <time>2024-12-19T12:07:47Z</time>
      </trkpt>
      <trkpt lat="47.90983" lon="-2.45511">
        <ele>83.6</ele>
        <time>2024-12-19T12:07:48Z</time>
      </trkpt>
      <trkpt lat="47.90982" lon="-2.45512">
        <ele>83.7</ele>
        <time>2024-12-19T12:07:49Z</time>
      </trkpt>
      <trkpt lat="47.90981" lon="-2.45513">
        <ele>83.7</ele>
        <time>2024-12-19T12:07:50Z</time>
      </trkpt>
      <trkpt lat="47.9098" lon="-2.45514">
        <ele>83.7</ele>
        <time>2024-12-19T12:07:51Z</time>
      </trkpt>
      <trkpt lat="47.90978" lon="-2.45515">
        <ele>83.8</ele>
        <time>2024-12-19T12:07:52Z</time>
      </trkpt>
      <trkpt lat="47.90977" lon="-2.45516">
        <ele>83.8</ele>
        <time>2024-12-19T12:07:53Z</time>
      </trkpt>
      <trkpt lat="47.90975" lon="-2.45517">
        <ele>83.9</ele>
        <time>2024-12-19T12:07:54Z</time>
      </trkpt>
      <trkpt lat="47.90973" lon="-2.45518">
        <ele>84</ele>
        <time>2024-12-19T12:07:55Z</time>
      </trkpt>
      <trkpt lat="47.90972" lon="-2.45519">
        <ele>84</ele>
        <time>2024-12-19T12:07:56Z</time>
      </trkpt>
      <trkpt lat="47.9097" lon="-2.45519">
        <ele>84.1</ele>
        <time>2024-12-19T12:07:57Z</time>
      </trkpt>
      <trkpt lat="47.90969" lon="-2.45519">
        <ele>84.1</ele>
        <time>2024-12-19T12:07:58Z</time>
      </trkpt>
      <trkpt lat="47.90967" lon="-2.45519">
        <ele>84.2</ele>
        <time>2024-12-19T12:07:59Z</time>
      </trkpt>
      <trkpt lat="47.90966" lon="-2.45519">
        <ele>84.2</ele>
        <time>2024-12-19T12:08:00Z</time>
      </trkpt>
      <trkpt lat="47.90964" lon="-2.4552">
        <ele>84.3</ele>
        <time>2024-12-19T12:08:01Z</time>
      </trkpt>
      <trkpt lat="47.90962" lon="-2.4552">
        <ele>84.4</ele>
        <time>2024-12-19T12:08:02Z</time>
      </trkpt>
      <trkpt lat="47.90961" lon="-2.45521">
        <ele>84.4</ele>
        <time>2024-12-19T12:08:03Z</time>
      </trkpt>
      <trkpt lat="47.90958" lon="-2.45522">
        <ele>84.5</ele>
        <time>2024-12-19T12:08:04Z</time>
      </trkpt>
      <trkpt lat="47.90956" lon="-2.45524">
        <ele>84.6</ele>
        <time>2024-12-19T12:08:05Z</time>
      </trkpt>
      <trkpt lat="47.90955" lon="-2.45524">
        <ele>84.6</ele>
        <time>2024-12-19T12:08:06Z</time>
      </trkpt>
      <trkpt lat="47.90953" lon="-2.45525">
        <ele>84.7</ele>
        <time>2024-12-19T12:08:07Z</time>
      </trkpt>
      <trkpt lat="47.90951" lon="-2.45526">
        <ele>84.8</ele>
        <time>2024-12-19T12:08:08Z</time>
      </trkpt>
      <trkpt lat="47.90948" lon="-2.45526">
        <ele>84.9</ele>
        <time>2024-12-19T12:08:09Z</time>
      </trkpt>
      <trkpt lat="47.90947" lon="-2.45526">
        <ele>84.9</ele>
        <time>2024-12-19T12:08:10Z</time>
      </trkpt>
      <trkpt lat="47.90945" lon="-2.45526">
        <ele>85</ele>
        <time>2024-12-19T12:08:11Z</time>
      </trkpt>
      <trkpt lat="47.90944" lon="-2.45526">
        <ele>85</ele>
        <time>2024-12-19T12:08:12Z</time>
      </trkpt>
      <trkpt lat="47.90943" lon="-2.45526">
        <ele>85</ele>
        <time>2024-12-19T12:08:13Z</time>
      </trkpt>
      <trkpt lat="47.90941" lon="-2.45526">
        <ele>85</ele>
        <time>2024-12-19T12:08:14Z</time>
      </trkpt>
      <trkpt lat="47.9094" lon="-2.45527">
        <ele>85</ele>
        <time>2024-12-19T12:08:15Z</time>
      </trkpt>
      <trkpt lat="47.90939" lon="-2.45527">
        <ele>85</ele>
        <time>2024-12-19T12:08:16Z</time>
      </trkpt>
      <trkpt lat="47.90938" lon="-2.45527">
        <ele>85</ele>
        <time>2024-12-19T12:08:17Z</time>
      </trkpt>
      <trkpt lat="47.90936" lon="-2.45528">
        <ele>85</ele>
        <time>2024-12-19T12:08:18Z</time>
      </trkpt>
      <trkpt lat="47.90935" lon="-2.45529">
        <ele>85</ele>
        <time>2024-12-19T12:08:19Z</time>
      </trkpt>
      <trkpt lat="47.90934" lon="-2.45529">
        <ele>85</ele>
        <time>2024-12-19T12:08:20Z</time>
      </trkpt>
      <trkpt lat="47.90933" lon="-2.45529">
        <ele>85</ele>
        <time>2024-12-19T12:08:21Z</time>
      </trkpt>
      <trkpt lat="47.90932" lon="-2.45529">
        <ele>85</ele>
        <time>2024-12-19T12:08:22Z</time>
      </trkpt>
      <trkpt lat="47.9093" lon="-2.45529">
        <ele>85</ele>
        <time>2024-12-19T12:08:23Z</time>
      </trkpt>
      <trkpt lat="47.90929" lon="-2.45528">
        <ele>85</ele>
        <time>2024-12-19T12:08:24Z</time>
      </trkpt>
      <trkpt lat="47.90927" lon="-2.45529">
        <ele>85</ele>
        <time>2024-12-19T12:08:25Z</time>
      </trkpt>
      <trkpt lat="47.90926" lon="-2.45529">
        <ele>85</ele>
        <time>2024-12-19T12:08:26Z</time>
      </trkpt>
      <trkpt lat="47.90925" lon="-2.4553">
        <ele>85</ele>
        <time>2024-12-19T12:08:27Z</time>
      </trkpt>
      <trkpt lat="47.90924" lon="-2.4553">
        <ele>85</ele>
        <time>2024-12-19T12:08:28Z</time>
      </trkpt>
      <trkpt lat="47.90922" lon="-2.45531">
        <ele>85</ele>
        <time>2024-12-19T12:08:29Z</time>
      </trkpt>
      <trkpt lat="47.90922" lon="-2.45531">
        <ele>85</ele>
        <time>2024-12-19T12:08:30Z</time>
      </trkpt>
      <trkpt lat="47.90921" lon="-2.45531">
        <ele>85</ele>
        <time>2024-12-19T12:08:31Z</time>
      </trkpt>
      <trkpt lat="47.9092" lon="-2.45531">
        <ele>85</ele>
        <time>2024-12-19T12:08:32Z</time>
      </trkpt>
      <trkpt lat="47.90919" lon="-2.45532">
        <ele>85</ele>
        <time>2024-12-19T12:08:33Z</time>
      </trkpt>
      <trkpt lat="47.90917" lon="-2.45532">
        <ele>85</ele>
        <time>2024-12-19T12:08:34Z</time>
      </trkpt>
      <trkpt lat="47.90915" lon="-2.45533">
        <ele>85</ele>
        <time>2024-12-19T12:08:35Z</time>
      </trkpt>
      <trkpt lat="47.90914" lon="-2.45534">
        <ele>85</ele>
        <time>2024-12-19T12:08:36Z</time>
      </trkpt>
      <trkpt lat="47.90912" lon="-2.45535">
        <ele>85</ele>
        <time>2024-12-19T12:08:37Z</time>
      </trkpt>
      <trkpt lat="47.9091" lon="-2.45535">
        <ele>85</ele>
        <time>2024-12-19T12:08:38Z</time>
      </trkpt>
      <trkpt lat="47.90909" lon="-2.45535">
        <ele>85</ele>
        <time>2024-12-19T12:08:39Z</time>
      </trkpt>
      <trkpt lat="47.90907" lon="-2.45535">
        <ele>85</ele>
        <time>2024-12-19T12:08:40Z</time>
      </trkpt>
      <trkpt lat="47.90906" lon="-2.45534">
        <ele>85</ele>
        <time>2024-12-19T12:08:41Z</time>
      </trkpt>
      <trkpt lat="47.90905" lon="-2.45534">
        <ele>85</ele>
        <time>2024-12-19T12:08:42Z</time>
      </trkpt>
      <trkpt lat="47.90904" lon="-2.45534">
        <ele>85</ele>
        <time>2024-12-19T12:08:43Z</time>
      </trkpt>
      <trkpt lat="47.90902" lon="-2.45534">
        <ele>85</ele>
        <time>2024-12-19T12:08:44Z</time>
      </trkpt>
      <trkpt lat="47.909" lon="-2.45535">
        <ele>85</ele>
        <time>2024-12-19T12:08:45Z</time>
      </trkpt>
      <trkpt lat="47.90898" lon="-2.45535">
        <ele>85</ele>
        <time>2024-12-19T12:08:46Z</time>
      </trkpt>
      <trkpt lat="47.90896" lon="-2.45536">
        <ele>85</ele>
        <time>2024-12-19T12:08:47Z</time>
      </trkpt>
      <trkpt lat="47.90895" lon="-2.45536">
        <ele>85</ele>
        <time>2024-12-19T12:08:48Z</time>
      </trkpt>
      <trkpt lat="47.90894" lon="-2.45537">
        <ele>85</ele>
        <time>2024-12-19T12:08:49Z</time>
      </trkpt>
      <trkpt lat="47.90892" lon="-2.45537">
        <ele>85</ele>
        <time>2024-12-19T12:08:50Z</time>
      </trkpt>
      <trkpt lat="47.9089" lon="-2.45537">
        <ele>85</ele>
        <time>2024-12-19T12:08:51Z</time>
      </trkpt>
      <trkpt lat="47.90889" lon="-2.45537">
        <ele>85</ele>
        <time>2024-12-19T12:08:52Z</time>
      </trkpt>
      <trkpt lat="47.90887" lon="-2.45538">
        <ele>84.9</ele>
        <time>2024-12-19T12:08:53Z</time>
      </trkpt>
      <trkpt lat="47.90886" lon="-2.4554">
        <ele>84.9</ele>
        <time>2024-12-19T12:08:54Z</time>
      </trkpt>
      <trkpt lat="47.90884" lon="-2.45541">
        <ele>84.8</ele>
        <time>2024-12-19T12:08:55Z</time>
      </trkpt>
      <trkpt lat="47.90883" lon="-2.45541">
        <ele>84.8</ele>
        <time>2024-12-19T12:08:56Z</time>
      </trkpt>
      <trkpt lat="47.90881" lon="-2.45542">
        <ele>84.7</ele>
        <time>2024-12-19T12:08:57Z</time>
      </trkpt>
      <trkpt lat="47.9088" lon="-2.45542">
        <ele>84.7</ele>
        <time>2024-12-19T12:08:58Z</time>
      </trkpt>
      <trkpt lat="47.90878" lon="-2.45542">
        <ele>84.6</ele>
        <time>2024-12-19T12:08:59Z</time>
      </trkpt>
      <trkpt lat="47.90876" lon="-2.45543">
        <ele>84.6</ele>
        <time>2024-12-19T12:09:00Z</time>
      </trkpt>
      <trkpt lat="47.90875" lon="-2.45543">
        <ele>84.5</ele>
        <time>2024-12-19T12:09:01Z</time>
      </trkpt>
      <trkpt lat="47.90874" lon="-2.45543">
        <ele>84.5</ele>
        <time>2024-12-19T12:09:02Z</time>
      </trkpt>
      <trkpt lat="47.90873" lon="-2.45542">
        <ele>84.4</ele>
        <time>2024-12-19T12:09:03Z</time>
      </trkpt>
      <trkpt lat="47.90871" lon="-2.45542">
        <ele>84.4</ele>
        <time>2024-12-19T12:09:04Z</time>
      </trkpt>
      <trkpt lat="47.9087" lon="-2.45541">
        <ele>84.3</ele>
        <time>2024-12-19T12:09:05Z</time>
      </trkpt>
      <trkpt lat="47.90869" lon="-2.45541">
        <ele>84.3</ele>
        <time>2024-12-19T12:09:06Z</time>
      </trkpt>
      <trkpt lat="47.90867" lon="-2.4554">
        <ele>84.2</ele>
        <time>2024-12-19T12:09:07Z</time>
      </trkpt>
      <trkpt lat="47.90866" lon="-2.4554">
        <ele>84.2</ele>
        <time>2024-12-19T12:09:08Z</time>
      </trkpt>
      <trkpt lat="47.90864" lon="-2.45541">
        <ele>84.1</ele>
        <time>2024-12-19T12:09:09Z</time>
      </trkpt>
      <trkpt lat="47.90863" lon="-2.45541">
        <ele>84.1</ele>
        <time>2024-12-19T12:09:10Z</time>
      </trkpt>
      <trkpt lat="47.90861" lon="-2.45542">
        <ele>84</ele>
        <time>2024-12-19T12:09:11Z</time>
      </trkpt>
      <trkpt lat="47.9086" lon="-2.45542">
        <ele>84</ele>
        <time>2024-12-19T12:09:12Z</time>
      </trkpt>
      <trkpt lat="47.90858" lon="-2.45543">
        <ele>84</ele>
        <time>2024-12-19T12:09:13Z</time>
      </trkpt>
      <trkpt lat="47.90857" lon="-2.45543">
        <ele>83.9</ele>
        <time>2024-12-19T12:09:14Z</time>
      </trkpt>
      <trkpt lat="47.90855" lon="-2.45544">
        <ele>83.9</ele>
        <time>2024-12-19T12:09:15Z</time>
      </trkpt>
      <trkpt lat="47.90854" lon="-2.45544">
        <ele>83.9</ele>
        <time>2024-12-19T12:09:16Z</time>
      </trkpt>
      <trkpt lat="47.90853" lon="-2.45545">
        <ele>83.9</ele>
        <time>2024-12-19T12:09:17Z</time>
      </trkpt>
      <trkpt lat="47.90853" lon="-2.45546">
        <ele>83.9</ele>
        <time>2024-12-19T12:09:18Z</time>
      </trkpt>
      <trkpt lat="47.90853" lon="-2.45547">
        <ele>83.9</ele>
        <time>2024-12-19T12:09:19Z</time>
      </trkpt>
      <trkpt lat="47.90852" lon="-2.45548">
        <ele>83.9</ele>
        <time>2024-12-19T12:09:20Z</time>
      </trkpt>
      <trkpt lat="47.90852" lon="-2.45548">
        <ele>83.9</ele>
        <time>2024-12-19T12:09:21Z</time>
      </trkpt>
      <trkpt lat="47.90852" lon="-2.45548">
        <ele>83.9</ele>
        <time>2024-12-19T12:09:22Z</time>
      </trkpt>
      <trkpt lat="47.90851" lon="-2.45549">
        <ele>83.9</ele>
        <time>2024-12-19T12:09:23Z</time>
      </trkpt>
      <trkpt lat="47.9085" lon="-2.4555">
        <ele>83.9</ele>
        <time>2024-12-19T12:09:24Z</time>
      </trkpt>
      <trkpt lat="47.9085" lon="-2.45551">
        <ele>83.9</ele>
        <time>2024-12-19T12:09:25Z</time>
      </trkpt>
      <trkpt lat="47.90849" lon="-2.45551">
        <ele>83.9</ele>
        <time>2024-12-19T12:09:26Z</time>
      </trkpt>
      <trkpt lat="47.90848" lon="-2.45551">
        <ele>83.9</ele>
        <time>2024-12-19T12:09:27Z</time>
      </trkpt>
      <trkpt lat="47.90847" lon="-2.45551">
        <ele>83.9</ele>
        <time>2024-12-19T12:09:28Z</time>
      </trkpt>
      <trkpt lat="47.90845" lon="-2.4555">
        <ele>83.9</ele>
        <time>2024-12-19T12:09:29Z</time>
      </trkpt>
      <trkpt lat="47.90844" lon="-2.4555">
        <ele>83.9</ele>
        <time>2024-12-19T12:09:30Z</time>
      </trkpt>
      <trkpt lat="47.90842" lon="-2.45549">
        <ele>83.8</ele>
        <time>2024-12-19T12:09:31Z</time>
      </trkpt>
      <trkpt lat="47.90841" lon="-2.45549">
        <ele>83.8</ele>
        <time>2024-12-19T12:09:32Z</time>
      </trkpt>
      <trkpt lat="47.9084" lon="-2.4555">
        <ele>83.8</ele>
        <time>2024-12-19T12:09:33Z</time>
      </trkpt>
      <trkpt lat="47.90838" lon="-2.45549">
        <ele>83.8</ele>
        <time>2024-12-19T12:09:34Z</time>
      </trkpt>
      <trkpt lat="47.90837" lon="-2.45549">
        <ele>83.8</ele>
        <time>2024-12-19T12:09:35Z</time>
      </trkpt>
      <trkpt lat="47.90835" lon="-2.45549">
        <ele>83.8</ele>
        <time>2024-12-19T12:09:36Z</time>
      </trkpt>
      <trkpt lat="47.90834" lon="-2.45548">
        <ele>83.8</ele>
        <time>2024-12-19T12:09:37Z</time>
      </trkpt>
      <trkpt lat="47.90833" lon="-2.45548">
        <ele>83.7</ele>
        <time>2024-12-19T12:09:38Z</time>
      </trkpt>
      <trkpt lat="47.90832" lon="-2.45548">
        <ele>83.7</ele>
        <time>2024-12-19T12:09:39Z</time>
      </trkpt>
      <trkpt lat="47.90831" lon="-2.45548">
        <ele>83.6</ele>
        <time>2024-12-19T12:09:40Z</time>
      </trkpt>
      <trkpt lat="47.9083" lon="-2.45548">
        <ele>83.6</ele>
        <time>2024-12-19T12:09:41Z</time>
      </trkpt>
      <trkpt lat="47.90828" lon="-2.45548">
        <ele>83.5</ele>
        <time>2024-12-19T12:09:42Z</time>
      </trkpt>
      <trkpt lat="47.90827" lon="-2.45548">
        <ele>83.5</ele>
        <time>2024-12-19T12:09:43Z</time>
      </trkpt>
      <trkpt lat="47.90825" lon="-2.45548">
        <ele>83.4</ele>
        <time>2024-12-19T12:09:44Z</time>
      </trkpt>
      <trkpt lat="47.90824" lon="-2.45548">
        <ele>83.4</ele>
        <time>2024-12-19T12:09:45Z</time>
      </trkpt>
      <trkpt lat="47.90823" lon="-2.45549">
        <ele>83.4</ele>
        <time>2024-12-19T12:09:46Z</time>
      </trkpt>
      <trkpt lat="47.90821" lon="-2.4555">
        <ele>83.3</ele>
        <time>2024-12-19T12:09:47Z</time>
      </trkpt>
      <trkpt lat="47.9082" lon="-2.4555">
        <ele>83.3</ele>
        <time>2024-12-19T12:09:48Z</time>
      </trkpt>
      <trkpt lat="47.90818" lon="-2.4555">
        <ele>83.2</ele>
        <time>2024-12-19T12:09:49Z</time>
      </trkpt>
      <trkpt lat="47.90817" lon="-2.45549">
        <ele>83.2</ele>
        <time>2024-12-19T12:09:50Z</time>
      </trkpt>
      <trkpt lat="47.90816" lon="-2.4555">
        <ele>83.1</ele>
        <time>2024-12-19T12:09:51Z</time>
      </trkpt>
      <trkpt lat="47.90815" lon="-2.4555">
        <ele>83.1</ele>
        <time>2024-12-19T12:09:52Z</time>
      </trkpt>
      <trkpt lat="47.90814" lon="-2.4555">
        <ele>83.1</ele>
        <time>2024-12-19T12:09:53Z</time>
      </trkpt>
      <trkpt lat="47.90813" lon="-2.45551">
        <ele>83.1</ele>
        <time>2024-12-19T12:09:54Z</time>
      </trkpt>
      <trkpt lat="47.90811" lon="-2.45551">
        <ele>83</ele>
        <time>2024-12-19T12:09:55Z</time>
      </trkpt>
      <trkpt lat="47.90809" lon="-2.45552">
        <ele>83</ele>
        <time>2024-12-19T12:09:56Z</time>
      </trkpt>
      <trkpt lat="47.90807" lon="-2.45552">
        <ele>82.9</ele>
        <time>2024-12-19T12:09:57Z</time>
      </trkpt>
      <trkpt lat="47.90806" lon="-2.45553">
        <ele>82.9</ele>
        <time>2024-12-19T12:09:58Z</time>
      </trkpt>
      <trkpt lat="47.90804" lon="-2.45553">
        <ele>82.8</ele>
        <time>2024-12-19T12:09:59Z</time>
      </trkpt>
      <trkpt lat="47.90803" lon="-2.45553">
        <ele>82.8</ele>
        <time>2024-12-19T12:10:00Z</time>
      </trkpt>
      <trkpt lat="47.90802" lon="-2.45552">
        <ele>82.7</ele>
        <time>2024-12-19T12:10:01Z</time>
      </trkpt>
      <trkpt lat="47.908" lon="-2.45552">
        <ele>82.7</ele>
        <time>2024-12-19T12:10:02Z</time>
      </trkpt>
      <trkpt lat="47.90798" lon="-2.45553">
        <ele>82.6</ele>
        <time>2024-12-19T12:10:03Z</time>
      </trkpt>
      <trkpt lat="47.90797" lon="-2.45553">
        <ele>82.6</ele>
        <time>2024-12-19T12:10:04Z</time>
      </trkpt>
      <trkpt lat="47.90796" lon="-2.45553">
        <ele>82.5</ele>
        <time>2024-12-19T12:10:05Z</time>
      </trkpt>
      <trkpt lat="47.90794" lon="-2.45553">
        <ele>82.5</ele>
        <time>2024-12-19T12:10:06Z</time>
      </trkpt>
      <trkpt lat="47.90793" lon="-2.45553">
        <ele>82.5</ele>
        <time>2024-12-19T12:10:07Z</time>
      </trkpt>
      <trkpt lat="47.90792" lon="-2.45553">
        <ele>82.4</ele>
        <time>2024-12-19T12:10:08Z</time>
      </trkpt>
      <trkpt lat="47.90791" lon="-2.45553">
        <ele>82.4</ele>
        <time>2024-12-19T12:10:09Z</time>
      </trkpt>
      <trkpt lat="47.9079" lon="-2.45554">
        <ele>82.4</ele>
        <time>2024-12-19T12:10:10Z</time>
      </trkpt>
      <trkpt lat="47.90789" lon="-2.45554">
        <ele>82.3</ele>
        <time>2024-12-19T12:10:11Z</time>
      </trkpt>
      <trkpt lat="47.90788" lon="-2.45554">
        <ele>82.3</ele>
        <time>2024-12-19T12:10:12Z</time>
      </trkpt>
      <trkpt lat="47.90786" lon="-2.45553">
        <ele>82.2</ele>
        <time>2024-12-19T12:10:13Z</time>
      </trkpt>
      <trkpt lat="47.90785" lon="-2.45553">
        <ele>82.2</ele>
        <time>2024-12-19T12:10:14Z</time>
      </trkpt>
      <trkpt lat="47.90784" lon="-2.45552">
        <ele>82.1</ele>
        <time>2024-12-19T12:10:15Z</time>
      </trkpt>
      <trkpt lat="47.90783" lon="-2.45552">
        <ele>82</ele>
        <time>2024-12-19T12:10:16Z</time>
      </trkpt>
      <trkpt lat="47.90782" lon="-2.45551">
        <ele>82</ele>
        <time>2024-12-19T12:10:17Z</time>
      </trkpt>
      <trkpt lat="47.90781" lon="-2.45551">
        <ele>81.9</ele>
        <time>2024-12-19T12:10:18Z</time>
      </trkpt>
      <trkpt lat="47.90779" lon="-2.4555">
        <ele>81.9</ele>
        <time>2024-12-19T12:10:19Z</time>
      </trkpt>
      <trkpt lat="47.90779" lon="-2.45549">
        <ele>81.8</ele>
        <time>2024-12-19T12:10:20Z</time>
      </trkpt>
      <trkpt lat="47.90778" lon="-2.45548">
        <ele>81.7</ele>
        <time>2024-12-19T12:10:21Z</time>
      </trkpt>
      <trkpt lat="47.90778" lon="-2.45546">
        <ele>81.7</ele>
        <time>2024-12-19T12:10:22Z</time>
      </trkpt>
      <trkpt lat="47.90778" lon="-2.45545">
        <ele>81.6</ele>
        <time>2024-12-19T12:10:23Z</time>
      </trkpt>
      <trkpt lat="47.90778" lon="-2.45543">
        <ele>81.6</ele>
        <time>2024-12-19T12:10:24Z</time>
      </trkpt>
      <trkpt lat="47.90778" lon="-2.45543">
        <ele>81.6</ele>
        <time>2024-12-19T12:10:25Z</time>
      </trkpt>
      <trkpt lat="47.90778" lon="-2.45543">
        <ele>81.6</ele>
        <time>2024-12-19T12:10:26Z</time>
      </trkpt>
      <trkpt lat="47.90778" lon="-2.45542">
        <ele>81.5</ele>
        <time>2024-12-19T12:10:27Z</time>
      </trkpt>
      <trkpt lat="47.90777" lon="-2.45541">
        <ele>81.4</ele>
        <time>2024-12-19T12:10:28Z</time>
      </trkpt>
      <trkpt lat="47.90776" lon="-2.4554">
        <ele>81.4</ele>
        <time>2024-12-19T12:10:29Z</time>
      </trkpt>
      <trkpt lat="47.90775" lon="-2.45539">
        <ele>81.3</ele>
        <time>2024-12-19T12:10:30Z</time>
      </trkpt>
      <trkpt lat="47.90774" lon="-2.45539">
        <ele>81.2</ele>
        <time>2024-12-19T12:10:31Z</time>
      </trkpt>
      <trkpt lat="47.90773" lon="-2.45538">
        <ele>81.2</ele>
        <time>2024-12-19T12:10:32Z</time>
      </trkpt>
      <trkpt lat="47.90771" lon="-2.45537">
        <ele>81.1</ele>
        <time>2024-12-19T12:10:33Z</time>
      </trkpt>
      <trkpt lat="47.9077" lon="-2.45536">
        <ele>81</ele>
        <time>2024-12-19T12:10:34Z</time>
      </trkpt>
      <trkpt lat="47.9077" lon="-2.45535">
        <ele>81</ele>
        <time>2024-12-19T12:10:35Z</time>
      </trkpt>
      <trkpt lat="47.90769" lon="-2.45533">
        <ele>80.9</ele>
        <time>2024-12-19T12:10:36Z</time>
      </trkpt>
      <trkpt lat="47.90769" lon="-2.45532">
        <ele>80.8</ele>
        <time>2024-12-19T12:10:37Z</time>
      </trkpt>
      <trkpt lat="47.90769" lon="-2.45531">
        <ele>80.8</ele>
        <time>2024-12-19T12:10:38Z</time>
      </trkpt>
      <trkpt lat="47.90769" lon="-2.4553">
        <ele>80.8</ele>
        <time>2024-12-19T12:10:39Z</time>
      </trkpt>
      <trkpt lat="47.90768" lon="-2.45529">
        <ele>80.7</ele>
        <time>2024-12-19T12:10:40Z</time>
      </trkpt>
      <trkpt lat="47.90767" lon="-2.45528">
        <ele>80.6</ele>
        <time>2024-12-19T12:10:41Z</time>
      </trkpt>
      <trkpt lat="47.90767" lon="-2.45526">
        <ele>80.6</ele>
        <time>2024-12-19T12:10:42Z</time>
      </trkpt>
      <trkpt lat="47.90766" lon="-2.45524">
        <ele>80.6</ele>
        <time>2024-12-19T12:10:43Z</time>
      </trkpt>
      <trkpt lat="47.90765" lon="-2.45522">
        <ele>80.6</ele>
        <time>2024-12-19T12:10:44Z</time>
      </trkpt>
      <trkpt lat="47.90765" lon="-2.4552">
        <ele>80.5</ele>
        <time>2024-12-19T12:10:45Z</time>
      </trkpt>
      <trkpt lat="47.90765" lon="-2.45519">
        <ele>80.5</ele>
        <time>2024-12-19T12:10:46Z</time>
      </trkpt>
      <trkpt lat="47.90765" lon="-2.45518">
        <ele>80.5</ele>
        <time>2024-12-19T12:10:47Z</time>
      </trkpt>
      <trkpt lat="47.90764" lon="-2.45517">
        <ele>80.5</ele>
        <time>2024-12-19T12:10:48Z</time>
      </trkpt>
      <trkpt lat="47.90764" lon="-2.45516">
        <ele>80.5</ele>
        <time>2024-12-19T12:10:49Z</time>
      </trkpt>
      <trkpt lat="47.90763" lon="-2.45515">
        <ele>80.5</ele>
        <time>2024-12-19T12:10:50Z</time>
      </trkpt>
      <trkpt lat="47.90763" lon="-2.45513">
        <ele>80.5</ele>
        <time>2024-12-19T12:10:51Z</time>
      </trkpt>
      <trkpt lat="47.90762" lon="-2.45513">
        <ele>80.4</ele>
        <time>2024-12-19T12:10:52Z</time>
      </trkpt>
      <trkpt lat="47.90762" lon="-2.45512">
        <ele>80.4</ele>
        <time>2024-12-19T12:10:53Z</time>
      </trkpt>
      <trkpt lat="47.90762" lon="-2.4551">
        <ele>80.4</ele>
        <time>2024-12-19T12:10:54Z</time>
      </trkpt>
      <trkpt lat="47.90762" lon="-2.45509">
        <ele>80.4</ele>
        <time>2024-12-19T12:10:55Z</time>
      </trkpt>
      <trkpt lat="47.90761" lon="-2.45508">
        <ele>80.4</ele>
        <time>2024-12-19T12:10:56Z</time>
      </trkpt>
      <trkpt lat="47.90761" lon="-2.45506">
        <ele>80.4</ele>
        <time>2024-12-19T12:10:57Z</time>
      </trkpt>
      <trkpt lat="47.9076" lon="-2.45504">
        <ele>80.4</ele>
        <time>2024-12-19T12:10:58Z</time>
      </trkpt>
      <trkpt lat="47.9076" lon="-2.45503">
        <ele>80.4</ele>
        <time>2024-12-19T12:10:59Z</time>
      </trkpt>
      <trkpt lat="47.9076" lon="-2.45501">
        <ele>80.4</ele>
        <time>2024-12-19T12:11:00Z</time>
      </trkpt>
      <trkpt lat="47.9076" lon="-2.455">
        <ele>80.4</ele>
        <time>2024-12-19T12:11:01Z</time>
      </trkpt>
      <trkpt lat="47.90761" lon="-2.45499">
        <ele>80.3</ele>
        <time>2024-12-19T12:11:02Z</time>
      </trkpt>
      <trkpt lat="47.90761" lon="-2.45496">
        <ele>80.3</ele>
        <time>2024-12-19T12:11:03Z</time>
      </trkpt>
      <trkpt lat="47.90761" lon="-2.45494">
        <ele>80.2</ele>
        <time>2024-12-19T12:11:04Z</time>
      </trkpt>
      <trkpt lat="47.9076" lon="-2.45492">
        <ele>80.1</ele>
        <time>2024-12-19T12:11:05Z</time>
      </trkpt>
      <trkpt lat="47.9076" lon="-2.4549">
        <ele>80</ele>
        <time>2024-12-19T12:11:06Z</time>
      </trkpt>
      <trkpt lat="47.9076" lon="-2.45488">
        <ele>79.9</ele>
        <time>2024-12-19T12:11:07Z</time>
      </trkpt>
      <trkpt lat="47.9076" lon="-2.45487">
        <ele>79.9</ele>
        <time>2024-12-19T12:11:08Z</time>
      </trkpt>
      <trkpt lat="47.9076" lon="-2.45485">
        <ele>79.8</ele>
        <time>2024-12-19T12:11:09Z</time>
      </trkpt>
      <trkpt lat="47.9076" lon="-2.45484">
        <ele>79.8</ele>
        <time>2024-12-19T12:11:10Z</time>
      </trkpt>
      <trkpt lat="47.9076" lon="-2.45483">
        <ele>79.8</ele>
        <time>2024-12-19T12:11:11Z</time>
      </trkpt>
      <trkpt lat="47.90761" lon="-2.45482">
        <ele>79.7</ele>
        <time>2024-12-19T12:11:12Z</time>
      </trkpt>
      <trkpt lat="47.90761" lon="-2.45482">
        <ele>79.7</ele>
        <time>2024-12-19T12:11:13Z</time>
      </trkpt>
      <trkpt lat="47.9076" lon="-2.4548">
        <ele>79.6</ele>
        <time>2024-12-19T12:11:14Z</time>
      </trkpt>
      <trkpt lat="47.9076" lon="-2.45477">
        <ele>79.5</ele>
        <time>2024-12-19T12:11:15Z</time>
      </trkpt>
      <trkpt lat="47.90759" lon="-2.45476">
        <ele>79.5</ele>
        <time>2024-12-19T12:11:16Z</time>
      </trkpt>
      <trkpt lat="47.90759" lon="-2.45474">
        <ele>79.4</ele>
        <time>2024-12-19T12:11:17Z</time>
      </trkpt>
      <trkpt lat="47.90759" lon="-2.45472">
        <ele>79.3</ele>
        <time>2024-12-19T12:11:18Z</time>
      </trkpt>
      <trkpt lat="47.90759" lon="-2.4547">
        <ele>79.2</ele>
        <time>2024-12-19T12:11:19Z</time>
      </trkpt>
      <trkpt lat="47.90759" lon="-2.45468">
        <ele>79.2</ele>
        <time>2024-12-19T12:11:20Z</time>
      </trkpt>
      <trkpt lat="47.90758" lon="-2.45466">
        <ele>79.1</ele>
        <time>2024-12-19T12:11:21Z</time>
      </trkpt>
      <trkpt lat="47.90758" lon="-2.45463">
        <ele>79</ele>
        <time>2024-12-19T12:11:22Z</time>
      </trkpt>
      <trkpt lat="47.90757" lon="-2.45462">
        <ele>78.9</ele>
        <time>2024-12-19T12:11:23Z</time>
      </trkpt>
      <trkpt lat="47.90757" lon="-2.4546">
        <ele>78.8</ele>
        <time>2024-12-19T12:11:24Z</time>
      </trkpt>
      <trkpt lat="47.90757" lon="-2.45459">
        <ele>78.7</ele>
        <time>2024-12-19T12:11:25Z</time>
      </trkpt>
      <trkpt lat="47.90757" lon="-2.45457">
        <ele>78.7</ele>
        <time>2024-12-19T12:11:26Z</time>
      </trkpt>
      <trkpt lat="47.90756" lon="-2.45455">
        <ele>78.6</ele>
        <time>2024-12-19T12:11:27Z</time>
      </trkpt>
      <trkpt lat="47.90756" lon="-2.45454">
        <ele>78.6</ele>
        <time>2024-12-19T12:11:28Z</time>
      </trkpt>
      <trkpt lat="47.90756" lon="-2.45453">
        <ele>78.5</ele>
        <time>2024-12-19T12:11:29Z</time>
      </trkpt>
      <trkpt lat="47.90756" lon="-2.45452">
        <ele>78.5</ele>
        <time>2024-12-19T12:11:30Z</time>
      </trkpt>
      <trkpt lat="47.90756" lon="-2.4545">
        <ele>78.4</ele>
        <time>2024-12-19T12:11:31Z</time>
      </trkpt>
      <trkpt lat="47.90756" lon="-2.45448">
        <ele>78.3</ele>
        <time>2024-12-19T12:11:32Z</time>
      </trkpt>
      <trkpt lat="47.90756" lon="-2.45446">
        <ele>78.2</ele>
        <time>2024-12-19T12:11:33Z</time>
      </trkpt>
      <trkpt lat="47.90755" lon="-2.45443">
        <ele>78.2</ele>
        <time>2024-12-19T12:11:34Z</time>
      </trkpt>
      <trkpt lat="47.90754" lon="-2.45442">
        <ele>78.2</ele>
        <time>2024-12-19T12:11:35Z</time>
      </trkpt>
      <trkpt lat="47.90754" lon="-2.45441">
        <ele>78.1</ele>
        <time>2024-12-19T12:11:36Z</time>
      </trkpt>
      <trkpt lat="47.90753" lon="-2.45439">
        <ele>78.1</ele>
        <time>2024-12-19T12:11:37Z</time>
      </trkpt>
      <trkpt lat="47.90753" lon="-2.45437">
        <ele>78.1</ele>
        <time>2024-12-19T12:11:38Z</time>
      </trkpt>
      <trkpt lat="47.90752" lon="-2.45435">
        <ele>78.1</ele>
        <time>2024-12-19T12:11:39Z</time>
      </trkpt>
      <trkpt lat="47.90752" lon="-2.45434">
        <ele>78.1</ele>
        <time>2024-12-19T12:11:40Z</time>
      </trkpt>
      <trkpt lat="47.90752" lon="-2.45433">
        <ele>78.1</ele>
        <time>2024-12-19T12:11:41Z</time>
      </trkpt>
      <trkpt lat="47.90753" lon="-2.4543">
        <ele>78.1</ele>
        <time>2024-12-19T12:11:42Z</time>
      </trkpt>
      <trkpt lat="47.90753" lon="-2.45428">
        <ele>78.1</ele>
        <time>2024-12-19T12:11:43Z</time>
      </trkpt>
      <trkpt lat="47.90753" lon="-2.45426">
        <ele>78.1</ele>
        <time>2024-12-19T12:11:44Z</time>
      </trkpt>
      <trkpt lat="47.90752" lon="-2.45425">
        <ele>78.1</ele>
        <time>2024-12-19T12:11:45Z</time>
      </trkpt>
      <trkpt lat="47.90752" lon="-2.45424">
        <ele>78.1</ele>
        <time>2024-12-19T12:11:46Z</time>
      </trkpt>
      <trkpt lat="47.90752" lon="-2.45423">
        <ele>78.1</ele>
        <time>2024-12-19T12:11:47Z</time>
      </trkpt>
      <trkpt lat="47.90752" lon="-2.45423">
        <ele>78.1</ele>
        <time>2024-12-19T12:11:48Z</time>
      </trkpt>
      <trkpt lat="47.90753" lon="-2.45422">
        <ele>78.1</ele>
        <time>2024-12-19T12:11:49Z</time>
      </trkpt>
      <trkpt lat="47.90753" lon="-2.45422">
        <ele>78.1</ele>
        <time>2024-12-19T12:11:50Z</time>
      </trkpt>
      <trkpt lat="47.90753" lon="-2.45421">
        <ele>78.1</ele>
        <time>2024-12-19T12:11:51Z</time>
      </trkpt>
      <trkpt lat="47.90753" lon="-2.45419">
        <ele>78.1</ele>
        <time>2024-12-19T12:11:52Z</time>
      </trkpt>
      <trkpt lat="47.90753" lon="-2.45417">
        <ele>78.1</ele>
        <time>2024-12-19T12:11:53Z</time>
      </trkpt>
      <trkpt lat="47.90753" lon="-2.45415">
        <ele>78.1</ele>
        <time>2024-12-19T12:11:54Z</time>
      </trkpt>
      <trkpt lat="47.90753" lon="-2.45413">
        <ele>78.1</ele>
        <time>2024-12-19T12:11:55Z</time>
      </trkpt>
      <trkpt lat="47.90754" lon="-2.45412">
        <ele>78.1</ele>
        <time>2024-12-19T12:11:56Z</time>
      </trkpt>
      <trkpt lat="47.90754" lon="-2.45411">
        <ele>78.1</ele>
        <time>2024-12-19T12:11:57Z</time>
      </trkpt>
      <trkpt lat="47.90754" lon="-2.45409">
        <ele>78.1</ele>
        <time>2024-12-19T12:11:58Z</time>
      </trkpt>
      <trkpt lat="47.90753" lon="-2.45408">
        <ele>78.1</ele>
        <time>2024-12-19T12:11:59Z</time>
      </trkpt>
      <trkpt lat="47.90753" lon="-2.45407">
        <ele>78.1</ele>
        <time>2024-12-19T12:12:00Z</time>
      </trkpt>
      <trkpt lat="47.90754" lon="-2.45406">
        <ele>78.1</ele>
        <time>2024-12-19T12:12:01Z</time>
      </trkpt>
      <trkpt lat="47.90754" lon="-2.45405">
        <ele>78.1</ele>
        <time>2024-12-19T12:12:02Z</time>
      </trkpt>
      <trkpt lat="47.90754" lon="-2.45404">
        <ele>78.1</ele>
        <time>2024-12-19T12:12:03Z</time>
      </trkpt>
      <trkpt lat="47.90754" lon="-2.45403">
        <ele>78.1</ele>
        <time>2024-12-19T12:12:04Z</time>
      </trkpt>
      <trkpt lat="47.90753" lon="-2.45401">
        <ele>78.1</ele>
        <time>2024-12-19T12:12:05Z</time>
      </trkpt>
      <trkpt lat="47.90753" lon="-2.454">
        <ele>78.1</ele>
        <time>2024-12-19T12:12:06Z</time>
      </trkpt>
      <trkpt lat="47.90752" lon="-2.45398">
        <ele>78.1</ele>
        <time>2024-12-19T12:12:07Z</time>
      </trkpt>
      <trkpt lat="47.90751" lon="-2.45396">
        <ele>78</ele>
        <time>2024-12-19T12:12:08Z</time>
      </trkpt>
      <trkpt lat="47.90751" lon="-2.45394">
        <ele>78</ele>
        <time>2024-12-19T12:12:09Z</time>
      </trkpt>
      <trkpt lat="47.9075" lon="-2.45393">
        <ele>78</ele>
        <time>2024-12-19T12:12:10Z</time>
      </trkpt>
      <trkpt lat="47.9075" lon="-2.45392">
        <ele>78</ele>
        <time>2024-12-19T12:12:11Z</time>
      </trkpt>
      <trkpt lat="47.9075" lon="-2.45391">
        <ele>78</ele>
        <time>2024-12-19T12:12:12Z</time>
      </trkpt>
      <trkpt lat="47.9075" lon="-2.45389">
        <ele>78</ele>
        <time>2024-12-19T12:12:13Z</time>
      </trkpt>
      <trkpt lat="47.9075" lon="-2.45387">
        <ele>78</ele>
        <time>2024-12-19T12:12:14Z</time>
      </trkpt>
      <trkpt lat="47.9075" lon="-2.45385">
        <ele>78</ele>
        <time>2024-12-19T12:12:15Z</time>
      </trkpt>
      <trkpt lat="47.90751" lon="-2.45382">
        <ele>78</ele>
        <time>2024-12-19T12:12:16Z</time>
      </trkpt>
      <trkpt lat="47.9075" lon="-2.45381">
        <ele>78</ele>
        <time>2024-12-19T12:12:17Z</time>
      </trkpt>
      <trkpt lat="47.9075" lon="-2.45379">
        <ele>78</ele>
        <time>2024-12-19T12:12:18Z</time>
      </trkpt>
      <trkpt lat="47.9075" lon="-2.45377">
        <ele>78</ele>
        <time>2024-12-19T12:12:19Z</time>
      </trkpt>
      <trkpt lat="47.9075" lon="-2.45376">
        <ele>78</ele>
        <time>2024-12-19T12:12:20Z</time>
      </trkpt>
      <trkpt lat="47.9075" lon="-2.45374">
        <ele>78</ele>
        <time>2024-12-19T12:12:21Z</time>
      </trkpt>
      <trkpt lat="47.9075" lon="-2.45372">
        <ele>78</ele>
        <time>2024-12-19T12:12:22Z</time>
      </trkpt>
      <trkpt lat="47.9075" lon="-2.4537">
        <ele>78</ele>
        <time>2024-12-19T12:12:23Z</time>
      </trkpt>
      <trkpt lat="47.90749" lon="-2.45369">
        <ele>78</ele>
        <time>2024-12-19T12:12:24Z</time>
      </trkpt>
      <trkpt lat="47.90749" lon="-2.45368">
        <ele>78</ele>
        <time>2024-12-19T12:12:25Z</time>
      </trkpt>
      <trkpt lat="47.90749" lon="-2.45366">
        <ele>78</ele>
        <time>2024-12-19T12:12:26Z</time>
      </trkpt>
      <trkpt lat="47.90749" lon="-2.45365">
        <ele>78</ele>
        <time>2024-12-19T12:12:27Z</time>
      </trkpt>
      <trkpt lat="47.9075" lon="-2.45364">
        <ele>78</ele>
        <time>2024-12-19T12:12:28Z</time>
      </trkpt>
      <trkpt lat="47.9075" lon="-2.45361">
        <ele>78</ele>
        <time>2024-12-19T12:12:29Z</time>
      </trkpt>
      <trkpt lat="47.9075" lon="-2.45359">
        <ele>78.1</ele>
        <time>2024-12-19T12:12:30Z</time>
      </trkpt>
      <trkpt lat="47.90749" lon="-2.45356">
        <ele>78.1</ele>
        <time>2024-12-19T12:12:31Z</time>
      </trkpt>
      <trkpt lat="47.90749" lon="-2.45355">
        <ele>78.2</ele>
        <time>2024-12-19T12:12:32Z</time>
      </trkpt>
      <trkpt lat="47.90749" lon="-2.45353">
        <ele>78.3</ele>
        <time>2024-12-19T12:12:33Z</time>
      </trkpt>
      <trkpt lat="47.90749" lon="-2.45351">
        <ele>78.3</ele>
        <time>2024-12-19T12:12:34Z</time>
      </trkpt>
      <trkpt lat="47.90749" lon="-2.45348">
        <ele>78.4</ele>
        <time>2024-12-19T12:12:35Z</time>
      </trkpt>
      <trkpt lat="47.90749" lon="-2.45347">
        <ele>78.4</ele>
        <time>2024-12-19T12:12:36Z</time>
      </trkpt>
      <trkpt lat="47.90748" lon="-2.45346">
        <ele>78.5</ele>
        <time>2024-12-19T12:12:37Z</time>
      </trkpt>
      <trkpt lat="47.90748" lon="-2.45345">
        <ele>78.5</ele>
        <time>2024-12-19T12:12:38Z</time>
      </trkpt>
      <trkpt lat="47.90748" lon="-2.45343">
        <ele>78.5</ele>
        <time>2024-12-19T12:12:39Z</time>
      </trkpt>
      <trkpt lat="47.90748" lon="-2.45341">
        <ele>78.6</ele>
        <time>2024-12-19T12:12:40Z</time>
      </trkpt>
      <trkpt lat="47.90748" lon="-2.45339">
        <ele>78.6</ele>
        <time>2024-12-19T12:12:41Z</time>
      </trkpt>
      <trkpt lat="47.90747" lon="-2.45337">
        <ele>78.7</ele>
        <time>2024-12-19T12:12:42Z</time>
      </trkpt>
      <trkpt lat="47.90747" lon="-2.45335">
        <ele>78.8</ele>
        <time>2024-12-19T12:12:43Z</time>
      </trkpt>
      <trkpt lat="47.90747" lon="-2.45333">
        <ele>78.8</ele>
        <time>2024-12-19T12:12:44Z</time>
      </trkpt>
      <trkpt lat="47.90747" lon="-2.45332">
        <ele>78.9</ele>
        <time>2024-12-19T12:12:45Z</time>
      </trkpt>
      <trkpt lat="47.90747" lon="-2.4533">
        <ele>78.9</ele>
        <time>2024-12-19T12:12:46Z</time>
      </trkpt>
      <trkpt lat="47.90747" lon="-2.45328">
        <ele>79</ele>
        <time>2024-12-19T12:12:47Z</time>
      </trkpt>
      <trkpt lat="47.90747" lon="-2.45326">
        <ele>79.1</ele>
        <time>2024-12-19T12:12:48Z</time>
      </trkpt>
      <trkpt lat="47.90747" lon="-2.45323">
        <ele>79.1</ele>
        <time>2024-12-19T12:12:49Z</time>
      </trkpt>
      <trkpt lat="47.90747" lon="-2.45321">
        <ele>79.2</ele>
        <time>2024-12-19T12:12:50Z</time>
      </trkpt>
      <trkpt lat="47.90747" lon="-2.45319">
        <ele>79.3</ele>
        <time>2024-12-19T12:12:51Z</time>
      </trkpt>
      <trkpt lat="47.90747" lon="-2.45317">
        <ele>79.4</ele>
        <time>2024-12-19T12:12:52Z</time>
      </trkpt>
      <trkpt lat="47.90748" lon="-2.45315">
        <ele>79.5</ele>
        <time>2024-12-19T12:12:53Z</time>
      </trkpt>
      <trkpt lat="47.90748" lon="-2.45313">
        <ele>79.6</ele>
        <time>2024-12-19T12:12:54Z</time>
      </trkpt>
      <trkpt lat="47.90747" lon="-2.45311">
        <ele>79.6</ele>
        <time>2024-12-19T12:12:55Z</time>
      </trkpt>
      <trkpt lat="47.90747" lon="-2.45309">
        <ele>79.6</ele>
        <time>2024-12-19T12:12:56Z</time>
      </trkpt>
      <trkpt lat="47.90747" lon="-2.45307">
        <ele>79.7</ele>
        <time>2024-12-19T12:12:57Z</time>
      </trkpt>
      <trkpt lat="47.90746" lon="-2.45305">
        <ele>79.7</ele>
        <time>2024-12-19T12:12:58Z</time>
      </trkpt>
      <trkpt lat="47.90746" lon="-2.45302">
        <ele>79.7</ele>
        <time>2024-12-19T12:12:59Z</time>
      </trkpt>
      <trkpt lat="47.90745" lon="-2.453">
        <ele>79.7</ele>
        <time>2024-12-19T12:13:00Z</time>
      </trkpt>
      <trkpt lat="47.90745" lon="-2.45298">
        <ele>79.7</ele>
        <time>2024-12-19T12:13:01Z</time>
      </trkpt>
      <trkpt lat="47.90745" lon="-2.45295">
        <ele>79.7</ele>
        <time>2024-12-19T12:13:02Z</time>
      </trkpt>
      <trkpt lat="47.90744" lon="-2.45294">
        <ele>79.7</ele>
        <time>2024-12-19T12:13:03Z</time>
      </trkpt>
      <trkpt lat="47.90744" lon="-2.45293">
        <ele>79.7</ele>
        <time>2024-12-19T12:13:04Z</time>
      </trkpt>
      <trkpt lat="47.90744" lon="-2.45291">
        <ele>79.7</ele>
        <time>2024-12-19T12:13:05Z</time>
      </trkpt>
      <trkpt lat="47.90744" lon="-2.45289">
        <ele>79.7</ele>
        <time>2024-12-19T12:13:06Z</time>
      </trkpt>
      <trkpt lat="47.90743" lon="-2.45287">
        <ele>79.7</ele>
        <time>2024-12-19T12:13:07Z</time>
      </trkpt>
      <trkpt lat="47.90743" lon="-2.45285">
        <ele>79.7</ele>
        <time>2024-12-19T12:13:08Z</time>
      </trkpt>
      <trkpt lat="47.90743" lon="-2.45284">
        <ele>79.7</ele>
        <time>2024-12-19T12:13:09Z</time>
      </trkpt>
      <trkpt lat="47.90743" lon="-2.45282">
        <ele>79.7</ele>
        <time>2024-12-19T12:13:10Z</time>
      </trkpt>
      <trkpt lat="47.90743" lon="-2.45281">
        <ele>79.7</ele>
        <time>2024-12-19T12:13:11Z</time>
      </trkpt>
      <trkpt lat="47.90743" lon="-2.45279">
        <ele>79.7</ele>
        <time>2024-12-19T12:13:12Z</time>
      </trkpt>
      <trkpt lat="47.90743" lon="-2.45277">
        <ele>79.8</ele>
        <time>2024-12-19T12:13:13Z</time>
      </trkpt>
      <trkpt lat="47.90743" lon="-2.45274">
        <ele>79.8</ele>
        <time>2024-12-19T12:13:14Z</time>
      </trkpt>
      <trkpt lat="47.90743" lon="-2.45272">
        <ele>79.9</ele>
        <time>2024-12-19T12:13:15Z</time>
      </trkpt>
      <trkpt lat="47.90743" lon="-2.45271">
        <ele>79.9</ele>
        <time>2024-12-19T12:13:16Z</time>
      </trkpt>
      <trkpt lat="47.90744" lon="-2.45269">
        <ele>80</ele>
        <time>2024-12-19T12:13:17Z</time>
      </trkpt>
      <trkpt lat="47.90745" lon="-2.45268">
        <ele>80.1</ele>
        <time>2024-12-19T12:13:18Z</time>
      </trkpt>
      <trkpt lat="47.90745" lon="-2.45266">
        <ele>80.2</ele>
        <time>2024-12-19T12:13:19Z</time>
      </trkpt>
      <trkpt lat="47.90745" lon="-2.45265">
        <ele>80.2</ele>
        <time>2024-12-19T12:13:20Z</time>
      </trkpt>
      <trkpt lat="47.90745" lon="-2.45263">
        <ele>80.2</ele>
        <time>2024-12-19T12:13:21Z</time>
      </trkpt>
      <trkpt lat="47.90745" lon="-2.45261">
        <ele>80.3</ele>
        <time>2024-12-19T12:13:22Z</time>
      </trkpt>
      <trkpt lat="47.90745" lon="-2.4526">
        <ele>80.3</ele>
        <time>2024-12-19T12:13:23Z</time>
      </trkpt>
      <trkpt lat="47.90745" lon="-2.45259">
        <ele>80.4</ele>
        <time>2024-12-19T12:13:24Z</time>
      </trkpt>
      <trkpt lat="47.90746" lon="-2.45258">
        <ele>80.5</ele>
        <time>2024-12-19T12:13:25Z</time>
      </trkpt>
      <trkpt lat="47.90746" lon="-2.45256">
        <ele>80.5</ele>
        <time>2024-12-19T12:13:26Z</time>
      </trkpt>
      <trkpt lat="47.90746" lon="-2.45255">
        <ele>80.6</ele>
        <time>2024-12-19T12:13:27Z</time>
      </trkpt>
      <trkpt lat="47.90746" lon="-2.45253">
        <ele>80.6</ele>
        <time>2024-12-19T12:13:28Z</time>
      </trkpt>
      <trkpt lat="47.90746" lon="-2.45251">
        <ele>80.6</ele>
        <time>2024-12-19T12:13:29Z</time>
      </trkpt>
      <trkpt lat="47.90745" lon="-2.45249">
        <ele>80.7</ele>
        <time>2024-12-19T12:13:30Z</time>
      </trkpt>
      <trkpt lat="47.90745" lon="-2.45248">
        <ele>80.7</ele>
        <time>2024-12-19T12:13:31Z</time>
      </trkpt>
      <trkpt lat="47.90745" lon="-2.45246">
        <ele>80.7</ele>
        <time>2024-12-19T12:13:32Z</time>
      </trkpt>
      <trkpt lat="47.90745" lon="-2.45244">
        <ele>80.7</ele>
        <time>2024-12-19T12:13:33Z</time>
      </trkpt>
      <trkpt lat="47.90745" lon="-2.45242">
        <ele>80.7</ele>
        <time>2024-12-19T12:13:34Z</time>
      </trkpt>
      <trkpt lat="47.90745" lon="-2.4524">
        <ele>80.7</ele>
        <time>2024-12-19T12:13:35Z</time>
      </trkpt>
      <trkpt lat="47.90745" lon="-2.45239">
        <ele>80.7</ele>
        <time>2024-12-19T12:13:36Z</time>
      </trkpt>
      <trkpt lat="47.90745" lon="-2.45238">
        <ele>80.7</ele>
        <time>2024-12-19T12:13:37Z</time>
      </trkpt>
      <trkpt lat="47.90745" lon="-2.45237">
        <ele>80.7</ele>
        <time>2024-12-19T12:13:38Z</time>
      </trkpt>
      <trkpt lat="47.90745" lon="-2.45235">
        <ele>80.7</ele>
        <time>2024-12-19T12:13:39Z</time>
      </trkpt>
      <trkpt lat="47.90744" lon="-2.45233">
        <ele>80.7</ele>
        <time>2024-12-19T12:13:40Z</time>
      </trkpt>
      <trkpt lat="47.90743" lon="-2.45232">
        <ele>80.7</ele>
        <time>2024-12-19T12:13:41Z</time>
      </trkpt>
      <trkpt lat="47.90743" lon="-2.4523">
        <ele>80.7</ele>
        <time>2024-12-19T12:13:42Z</time>
      </trkpt>
      <trkpt lat="47.90743" lon="-2.45229">
        <ele>80.7</ele>
        <time>2024-12-19T12:13:43Z</time>
      </trkpt>
      <trkpt lat="47.90743" lon="-2.45228">
        <ele>80.7</ele>
        <time>2024-12-19T12:13:44Z</time>
      </trkpt>
      <trkpt lat="47.90743" lon="-2.45226">
        <ele>80.7</ele>
        <time>2024-12-19T12:13:45Z</time>
      </trkpt>
      <trkpt lat="47.90743" lon="-2.45225">
        <ele>80.7</ele>
        <time>2024-12-19T12:13:46Z</time>
      </trkpt>
      <trkpt lat="47.90743" lon="-2.45224">
        <ele>80.7</ele>
        <time>2024-12-19T12:13:47Z</time>
      </trkpt>
      <trkpt lat="47.90743" lon="-2.45222">
        <ele>80.7</ele>
        <time>2024-12-19T12:13:48Z</time>
      </trkpt>
      <trkpt lat="47.90742" lon="-2.45221">
        <ele>80.8</ele>
        <time>2024-12-19T12:13:49Z</time>
      </trkpt>
      <trkpt lat="47.90742" lon="-2.45219">
        <ele>80.8</ele>
        <time>2024-12-19T12:13:50Z</time>
      </trkpt>
      <trkpt lat="47.90742" lon="-2.45217">
        <ele>80.9</ele>
        <time>2024-12-19T12:13:51Z</time>
      </trkpt>
      <trkpt lat="47.90743" lon="-2.45215">
        <ele>80.9</ele>
        <time>2024-12-19T12:13:52Z</time>
      </trkpt>
      <trkpt lat="47.90743" lon="-2.45214">
        <ele>81</ele>
        <time>2024-12-19T12:13:53Z</time>
      </trkpt>
      <trkpt lat="47.90743" lon="-2.45212">
        <ele>81</ele>
        <time>2024-12-19T12:13:54Z</time>
      </trkpt>
      <trkpt lat="47.90742" lon="-2.4521">
        <ele>81.1</ele>
        <time>2024-12-19T12:13:55Z</time>
      </trkpt>
      <trkpt lat="47.90742" lon="-2.45208">
        <ele>81.1</ele>
        <time>2024-12-19T12:13:56Z</time>
      </trkpt>
      <trkpt lat="47.90742" lon="-2.45206">
        <ele>81.1</ele>
        <time>2024-12-19T12:13:57Z</time>
      </trkpt>
      <trkpt lat="47.90741" lon="-2.45204">
        <ele>81.1</ele>
        <time>2024-12-19T12:13:58Z</time>
      </trkpt>
      <trkpt lat="47.90741" lon="-2.45203">
        <ele>81.1</ele>
        <time>2024-12-19T12:13:59Z</time>
      </trkpt>
      <trkpt lat="47.90741" lon="-2.45201">
        <ele>81.2</ele>
        <time>2024-12-19T12:14:00Z</time>
      </trkpt>
      <trkpt lat="47.90741" lon="-2.45199">
        <ele>81.2</ele>
        <time>2024-12-19T12:14:01Z</time>
      </trkpt>
      <trkpt lat="47.90741" lon="-2.45197">
        <ele>81.3</ele>
        <time>2024-12-19T12:14:02Z</time>
      </trkpt>
      <trkpt lat="47.90741" lon="-2.45195">
        <ele>81.3</ele>
        <time>2024-12-19T12:14:03Z</time>
      </trkpt>
      <trkpt lat="47.90741" lon="-2.45193">
        <ele>81.4</ele>
        <time>2024-12-19T12:14:04Z</time>
      </trkpt>
      <trkpt lat="47.90741" lon="-2.45191">
        <ele>81.4</ele>
        <time>2024-12-19T12:14:05Z</time>
      </trkpt>
      <trkpt lat="47.90741" lon="-2.4519">
        <ele>81.4</ele>
        <time>2024-12-19T12:14:06Z</time>
      </trkpt>
      <trkpt lat="47.90741" lon="-2.45188">
        <ele>81.4</ele>
        <time>2024-12-19T12:14:07Z</time>
      </trkpt>
      <trkpt lat="47.90741" lon="-2.45188">
        <ele>81.4</ele>
        <time>2024-12-19T12:14:08Z</time>
      </trkpt>
      <trkpt lat="47.90741" lon="-2.45187">
        <ele>81.4</ele>
        <time>2024-12-19T12:14:09Z</time>
      </trkpt>
      <trkpt lat="47.9074" lon="-2.45185">
        <ele>81.4</ele>
        <time>2024-12-19T12:14:10Z</time>
      </trkpt>
      <trkpt lat="47.9074" lon="-2.45184">
        <ele>81.4</ele>
        <time>2024-12-19T12:14:11Z</time>
      </trkpt>
      <trkpt lat="47.90739" lon="-2.45182">
        <ele>81.4</ele>
        <time>2024-12-19T12:14:12Z</time>
      </trkpt>
      <trkpt lat="47.90739" lon="-2.45181">
        <ele>81.4</ele>
        <time>2024-12-19T12:14:13Z</time>
      </trkpt>
      <trkpt lat="47.90739" lon="-2.45179">
        <ele>81.4</ele>
        <time>2024-12-19T12:14:14Z</time>
      </trkpt>
      <trkpt lat="47.90739" lon="-2.45177">
        <ele>81.4</ele>
        <time>2024-12-19T12:14:15Z</time>
      </trkpt>
      <trkpt lat="47.90738" lon="-2.45176">
        <ele>81.4</ele>
        <time>2024-12-19T12:14:16Z</time>
      </trkpt>
      <trkpt lat="47.90738" lon="-2.45174">
        <ele>81.5</ele>
        <time>2024-12-19T12:14:17Z</time>
      </trkpt>
      <trkpt lat="47.90738" lon="-2.45172">
        <ele>81.5</ele>
        <time>2024-12-19T12:14:18Z</time>
      </trkpt>
      <trkpt lat="47.90738" lon="-2.45169">
        <ele>81.5</ele>
        <time>2024-12-19T12:14:19Z</time>
      </trkpt>
      <trkpt lat="47.90737" lon="-2.45167">
        <ele>81.5</ele>
        <time>2024-12-19T12:14:20Z</time>
      </trkpt>
      <trkpt lat="47.90737" lon="-2.45166">
        <ele>81.6</ele>
        <time>2024-12-19T12:14:21Z</time>
      </trkpt>
      <trkpt lat="47.90737" lon="-2.45165">
        <ele>81.6</ele>
        <time>2024-12-19T12:14:22Z</time>
      </trkpt>
      <trkpt lat="47.90737" lon="-2.45164">
        <ele>81.6</ele>
        <time>2024-12-19T12:14:23Z</time>
      </trkpt>
      <trkpt lat="47.90737" lon="-2.45163">
        <ele>81.6</ele>
        <time>2024-12-19T12:14:24Z</time>
      </trkpt>
      <trkpt lat="47.90736" lon="-2.45163">
        <ele>81.6</ele>
        <time>2024-12-19T12:14:25Z</time>
      </trkpt>
      <trkpt lat="47.90736" lon="-2.45162">
        <ele>81.6</ele>
        <time>2024-12-19T12:14:26Z</time>
      </trkpt>
      <trkpt lat="47.90737" lon="-2.45161">
        <ele>81.6</ele>
        <time>2024-12-19T12:14:27Z</time>
      </trkpt>
      <trkpt lat="47.90737" lon="-2.4516">
        <ele>81.7</ele>
        <time>2024-12-19T12:14:28Z</time>
      </trkpt>
      <trkpt lat="47.90737" lon="-2.45158">
        <ele>81.7</ele>
        <time>2024-12-19T12:14:29Z</time>
      </trkpt>
      <trkpt lat="47.90737" lon="-2.45157">
        <ele>81.7</ele>
        <time>2024-12-19T12:14:30Z</time>
      </trkpt>
      <trkpt lat="47.90737" lon="-2.45155">
        <ele>81.7</ele>
        <time>2024-12-19T12:14:31Z</time>
      </trkpt>
      <trkpt lat="47.90736" lon="-2.45153">
        <ele>81.7</ele>
        <time>2024-12-19T12:14:32Z</time>
      </trkpt>
      <trkpt lat="47.90736" lon="-2.45152">
        <ele>81.8</ele>
        <time>2024-12-19T12:14:33Z</time>
      </trkpt>
      <trkpt lat="47.90736" lon="-2.4515">
        <ele>81.8</ele>
        <time>2024-12-19T12:14:34Z</time>
      </trkpt>
      <trkpt lat="47.90736" lon="-2.45147">
        <ele>81.8</ele>
        <time>2024-12-19T12:14:35Z</time>
      </trkpt>
      <trkpt lat="47.90736" lon="-2.45146">
        <ele>81.8</ele>
        <time>2024-12-19T12:14:36Z</time>
      </trkpt>
      <trkpt lat="47.90736" lon="-2.45144">
        <ele>81.9</ele>
        <time>2024-12-19T12:14:37Z</time>
      </trkpt>
      <trkpt lat="47.90736" lon="-2.45143">
        <ele>81.9</ele>
        <time>2024-12-19T12:14:38Z</time>
      </trkpt>
      <trkpt lat="47.90736" lon="-2.45141">
        <ele>81.9</ele>
        <time>2024-12-19T12:14:39Z</time>
      </trkpt>
      <trkpt lat="47.90735" lon="-2.4514">
        <ele>81.9</ele>
        <time>2024-12-19T12:14:40Z</time>
      </trkpt>
      <trkpt lat="47.90734" lon="-2.45138">
        <ele>81.9</ele>
        <time>2024-12-19T12:14:41Z</time>
      </trkpt>
      <trkpt lat="47.90734" lon="-2.45136">
        <ele>81.9</ele>
        <time>2024-12-19T12:14:42Z</time>
      </trkpt>
      <trkpt lat="47.90733" lon="-2.45135">
        <ele>81.9</ele>
        <time>2024-12-19T12:14:43Z</time>
      </trkpt>
      <trkpt lat="47.90733" lon="-2.45132">
        <ele>81.9</ele>
        <time>2024-12-19T12:14:44Z</time>
      </trkpt>
      <trkpt lat="47.90732" lon="-2.4513">
        <ele>81.9</ele>
        <time>2024-12-19T12:14:45Z</time>
      </trkpt>
      <trkpt lat="47.90732" lon="-2.45128">
        <ele>82</ele>
        <time>2024-12-19T12:14:46Z</time>
      </trkpt>
      <trkpt lat="47.90732" lon="-2.45126">
        <ele>82</ele>
        <time>2024-12-19T12:14:47Z</time>
      </trkpt>
      <trkpt lat="47.90732" lon="-2.45124">
        <ele>82</ele>
        <time>2024-12-19T12:14:48Z</time>
      </trkpt>
      <trkpt lat="47.90731" lon="-2.45121">
        <ele>82.1</ele>
        <time>2024-12-19T12:14:49Z</time>
      </trkpt>
      <trkpt lat="47.90731" lon="-2.45119">
        <ele>82.1</ele>
        <time>2024-12-19T12:14:50Z</time>
      </trkpt>
      <trkpt lat="47.90731" lon="-2.45117">
        <ele>82.2</ele>
        <time>2024-12-19T12:14:51Z</time>
      </trkpt>
      <trkpt lat="47.9073" lon="-2.45114">
        <ele>82.2</ele>
        <time>2024-12-19T12:14:52Z</time>
      </trkpt>
      <trkpt lat="47.9073" lon="-2.45112">
        <ele>82.3</ele>
        <time>2024-12-19T12:14:53Z</time>
      </trkpt>
      <trkpt lat="47.9073" lon="-2.4511">
        <ele>82.3</ele>
        <time>2024-12-19T12:14:54Z</time>
      </trkpt>
      <trkpt lat="47.9073" lon="-2.45107">
        <ele>82.4</ele>
        <time>2024-12-19T12:14:55Z</time>
      </trkpt>
      <trkpt lat="47.9073" lon="-2.45104">
        <ele>82.5</ele>
        <time>2024-12-19T12:14:56Z</time>
      </trkpt>
      <trkpt lat="47.9073" lon="-2.45102">
        <ele>82.6</ele>
        <time>2024-12-19T12:14:57Z</time>
      </trkpt>
      <trkpt lat="47.9073" lon="-2.451">
        <ele>82.7</ele>
        <time>2024-12-19T12:14:58Z</time>
      </trkpt>
      <trkpt lat="47.90729" lon="-2.45099">
        <ele>82.7</ele>
        <time>2024-12-19T12:14:59Z</time>
      </trkpt>
      <trkpt lat="47.90729" lon="-2.45098">
        <ele>82.7</ele>
        <time>2024-12-19T12:15:00Z</time>
      </trkpt>
      <trkpt lat="47.90728" lon="-2.45098">
        <ele>82.7</ele>
        <time>2024-12-19T12:15:01Z</time>
      </trkpt>
      <trkpt lat="47.90728" lon="-2.45098">
        <ele>82.7</ele>
        <time>2024-12-19T12:15:02Z</time>
      </trkpt>
      <trkpt lat="47.90727" lon="-2.45098">
        <ele>82.7</ele>
        <time>2024-12-19T12:15:03Z</time>
      </trkpt>
      <trkpt lat="47.90727" lon="-2.45097">
        <ele>82.7</ele>
        <time>2024-12-19T12:15:04Z</time>
      </trkpt>
      <trkpt lat="47.90725" lon="-2.4509">
        <ele>82.8</ele>
        <time>2024-12-19T12:15:08Z</time>
      </trkpt>
      <trkpt lat="47.90724" lon="-2.45088">
        <ele>82.9</ele>
        <time>2024-12-19T12:15:09Z</time>
      </trkpt>
      <trkpt lat="47.90724" lon="-2.45086">
        <ele>83</ele>
        <time>2024-12-19T12:15:10Z</time>
      </trkpt>
      <trkpt lat="47.90724" lon="-2.45084">
        <ele>83</ele>
        <time>2024-12-19T12:15:11Z</time>
      </trkpt>
      <trkpt lat="47.90724" lon="-2.45082">
        <ele>83.1</ele>
        <time>2024-12-19T12:15:12Z</time>
      </trkpt>
      <trkpt lat="47.90724" lon="-2.4508">
        <ele>83</ele>
        <time>2024-12-19T12:15:13Z</time>
      </trkpt>
      <trkpt lat="47.90724" lon="-2.45077">
        <ele>83</ele>
        <time>2024-12-19T12:15:14Z</time>
      </trkpt>
      <trkpt lat="47.90724" lon="-2.45075">
        <ele>83</ele>
        <time>2024-12-19T12:15:15Z</time>
      </trkpt>
      <trkpt lat="47.90724" lon="-2.45073">
        <ele>83</ele>
        <time>2024-12-19T12:15:16Z</time>
      </trkpt>
      <trkpt lat="47.90724" lon="-2.45071">
        <ele>83</ele>
        <time>2024-12-19T12:15:17Z</time>
      </trkpt>
      <trkpt lat="47.90724" lon="-2.45069">
        <ele>83</ele>
        <time>2024-12-19T12:15:18Z</time>
      </trkpt>
      <trkpt lat="47.90724" lon="-2.45067">
        <ele>83</ele>
        <time>2024-12-19T12:15:19Z</time>
      </trkpt>
      <trkpt lat="47.90724" lon="-2.45065">
        <ele>83</ele>
        <time>2024-12-19T12:15:20Z</time>
      </trkpt>
      <trkpt lat="47.90724" lon="-2.45063">
        <ele>83</ele>
        <time>2024-12-19T12:15:21Z</time>
      </trkpt>
      <trkpt lat="47.90724" lon="-2.45062">
        <ele>83</ele>
        <time>2024-12-19T12:15:22Z</time>
      </trkpt>
      <trkpt lat="47.90724" lon="-2.4506">
        <ele>83</ele>
        <time>2024-12-19T12:15:23Z</time>
      </trkpt>
      <trkpt lat="47.90724" lon="-2.45059">
        <ele>83</ele>
        <time>2024-12-19T12:15:24Z</time>
      </trkpt>
      <trkpt lat="47.90723" lon="-2.45057">
        <ele>83</ele>
        <time>2024-12-19T12:15:25Z</time>
      </trkpt>
      <trkpt lat="47.90723" lon="-2.45055">
        <ele>83</ele>
        <time>2024-12-19T12:15:26Z</time>
      </trkpt>
      <trkpt lat="47.90723" lon="-2.45054">
        <ele>83</ele>
        <time>2024-12-19T12:15:27Z</time>
      </trkpt>
      <trkpt lat="47.90723" lon="-2.45052">
        <ele>83</ele>
        <time>2024-12-19T12:15:28Z</time>
      </trkpt>
      <trkpt lat="47.90723" lon="-2.4505">
        <ele>83</ele>
        <time>2024-12-19T12:15:29Z</time>
      </trkpt>
      <trkpt lat="47.90723" lon="-2.45048">
        <ele>83</ele>
        <time>2024-12-19T12:15:30Z</time>
      </trkpt>
      <trkpt lat="47.90724" lon="-2.45046">
        <ele>83</ele>
        <time>2024-12-19T12:15:31Z</time>
      </trkpt>
      <trkpt lat="47.90724" lon="-2.45045">
        <ele>83</ele>
        <time>2024-12-19T12:15:32Z</time>
      </trkpt>
      <trkpt lat="47.90724" lon="-2.45043">
        <ele>83</ele>
        <time>2024-12-19T12:15:33Z</time>
      </trkpt>
      <trkpt lat="47.90724" lon="-2.45041">
        <ele>83</ele>
        <time>2024-12-19T12:15:34Z</time>
      </trkpt>
      <trkpt lat="47.90724" lon="-2.45039">
        <ele>83</ele>
        <time>2024-12-19T12:15:35Z</time>
      </trkpt>
      <trkpt lat="47.90724" lon="-2.45038">
        <ele>83</ele>
        <time>2024-12-19T12:15:36Z</time>
      </trkpt>
      <trkpt lat="47.90724" lon="-2.45036">
        <ele>83</ele>
        <time>2024-12-19T12:15:37Z</time>
      </trkpt>
      <trkpt lat="47.90724" lon="-2.45034">
        <ele>83</ele>
        <time>2024-12-19T12:15:38Z</time>
      </trkpt>
      <trkpt lat="47.90724" lon="-2.45032">
        <ele>83</ele>
        <time>2024-12-19T12:15:39Z</time>
      </trkpt>
      <trkpt lat="47.90724" lon="-2.4503">
        <ele>83</ele>
        <time>2024-12-19T12:15:40Z</time>
      </trkpt>
      <trkpt lat="47.90724" lon="-2.45028">
        <ele>83</ele>
        <time>2024-12-19T12:15:41Z</time>
      </trkpt>
      <trkpt lat="47.90725" lon="-2.45026">
        <ele>83</ele>
        <time>2024-12-19T12:15:42Z</time>
      </trkpt>
      <trkpt lat="47.90725" lon="-2.45025">
        <ele>82.9</ele>
        <time>2024-12-19T12:15:43Z</time>
      </trkpt>
      <trkpt lat="47.90725" lon="-2.45023">
        <ele>82.9</ele>
        <time>2024-12-19T12:15:44Z</time>
      </trkpt>
      <trkpt lat="47.90725" lon="-2.45022">
        <ele>82.8</ele>
        <time>2024-12-19T12:15:45Z</time>
      </trkpt>
      <trkpt lat="47.90724" lon="-2.4502">
        <ele>82.7</ele>
        <time>2024-12-19T12:15:46Z</time>
      </trkpt>
      <trkpt lat="47.90723" lon="-2.45018">
        <ele>82.7</ele>
        <time>2024-12-19T12:15:47Z</time>
      </trkpt>
      <trkpt lat="47.90722" lon="-2.45017">
        <ele>82.6</ele>
        <time>2024-12-19T12:15:48Z</time>
      </trkpt>
      <trkpt lat="47.90722" lon="-2.45017">
        <ele>82.6</ele>
        <time>2024-12-19T12:15:49Z</time>
      </trkpt>
      <trkpt lat="47.90721" lon="-2.45015">
        <ele>82.5</ele>
        <time>2024-12-19T12:15:50Z</time>
      </trkpt>
      <trkpt lat="47.90721" lon="-2.45013">
        <ele>82.5</ele>
        <time>2024-12-19T12:15:51Z</time>
      </trkpt>
      <trkpt lat="47.90721" lon="-2.45012">
        <ele>82.4</ele>
        <time>2024-12-19T12:15:52Z</time>
      </trkpt>
      <trkpt lat="47.9072" lon="-2.4501">
        <ele>82.3</ele>
        <time>2024-12-19T12:15:53Z</time>
      </trkpt>
      <trkpt lat="47.9072" lon="-2.45008">
        <ele>82.3</ele>
        <time>2024-12-19T12:15:54Z</time>
      </trkpt>
      <trkpt lat="47.9072" lon="-2.45006">
        <ele>82.2</ele>
        <time>2024-12-19T12:15:55Z</time>
      </trkpt>
      <trkpt lat="47.9072" lon="-2.45004">
        <ele>82.1</ele>
        <time>2024-12-19T12:15:56Z</time>
      </trkpt>
      <trkpt lat="47.9072" lon="-2.45002">
        <ele>82.1</ele>
        <time>2024-12-19T12:15:57Z</time>
      </trkpt>
      <trkpt lat="47.9072" lon="-2.45001">
        <ele>82</ele>
        <time>2024-12-19T12:15:58Z</time>
      </trkpt>
      <trkpt lat="47.9072" lon="-2.45">
        <ele>82</ele>
        <time>2024-12-19T12:15:59Z</time>
      </trkpt>
      <trkpt lat="47.90721" lon="-2.44999">
        <ele>82</ele>
        <time>2024-12-19T12:16:00Z</time>
      </trkpt>
      <trkpt lat="47.90721" lon="-2.44996">
        <ele>82</ele>
        <time>2024-12-19T12:16:01Z</time>
      </trkpt>
      <trkpt lat="47.90721" lon="-2.44994">
        <ele>82</ele>
        <time>2024-12-19T12:16:02Z</time>
      </trkpt>
      <trkpt lat="47.90721" lon="-2.44993">
        <ele>82</ele>
        <time>2024-12-19T12:16:03Z</time>
      </trkpt>
      <trkpt lat="47.90722" lon="-2.44991">
        <ele>82</ele>
        <time>2024-12-19T12:16:04Z</time>
      </trkpt>
      <trkpt lat="47.90721" lon="-2.44989">
        <ele>82</ele>
        <time>2024-12-19T12:16:05Z</time>
      </trkpt>
      <trkpt lat="47.90721" lon="-2.44987">
        <ele>82</ele>
        <time>2024-12-19T12:16:06Z</time>
      </trkpt>
      <trkpt lat="47.90721" lon="-2.44985">
        <ele>82</ele>
        <time>2024-12-19T12:16:07Z</time>
      </trkpt>
      <trkpt lat="47.90721" lon="-2.44983">
        <ele>82</ele>
        <time>2024-12-19T12:16:08Z</time>
      </trkpt>
      <trkpt lat="47.90722" lon="-2.44981">
        <ele>82</ele>
        <time>2024-12-19T12:16:09Z</time>
      </trkpt>
      <trkpt lat="47.90722" lon="-2.44978">
        <ele>82</ele>
        <time>2024-12-19T12:16:10Z</time>
      </trkpt>
      <trkpt lat="47.90722" lon="-2.44976">
        <ele>82</ele>
        <time>2024-12-19T12:16:11Z</time>
      </trkpt>
      <trkpt lat="47.90723" lon="-2.44974">
        <ele>82</ele>
        <time>2024-12-19T12:16:12Z</time>
      </trkpt>
      <trkpt lat="47.90723" lon="-2.44972">
        <ele>82</ele>
        <time>2024-12-19T12:16:13Z</time>
      </trkpt>
      <trkpt lat="47.90723" lon="-2.44971">
        <ele>82</ele>
        <time>2024-12-19T12:16:14Z</time>
      </trkpt>
      <trkpt lat="47.90723" lon="-2.44969">
        <ele>82</ele>
        <time>2024-12-19T12:16:15Z</time>
      </trkpt>
      <trkpt lat="47.90722" lon="-2.44968">
        <ele>82</ele>
        <time>2024-12-19T12:16:16Z</time>
      </trkpt>
      <trkpt lat="47.90721" lon="-2.44967">
        <ele>81.9</ele>
        <time>2024-12-19T12:16:17Z</time>
      </trkpt>
      <trkpt lat="47.9072" lon="-2.44966">
        <ele>81.9</ele>
        <time>2024-12-19T12:16:18Z</time>
      </trkpt>
      <trkpt lat="47.9072" lon="-2.44966">
        <ele>81.9</ele>
        <time>2024-12-19T12:16:19Z</time>
      </trkpt>
      <trkpt lat="47.9072" lon="-2.44965">
        <ele>81.9</ele>
        <time>2024-12-19T12:16:20Z</time>
      </trkpt>
      <trkpt lat="47.9072" lon="-2.44964">
        <ele>81.9</ele>
        <time>2024-12-19T12:16:21Z</time>
      </trkpt>
      <trkpt lat="47.9072" lon="-2.44963">
        <ele>81.9</ele>
        <time>2024-12-19T12:16:22Z</time>
      </trkpt>
      <trkpt lat="47.9072" lon="-2.44962">
        <ele>81.9</ele>
        <time>2024-12-19T12:16:23Z</time>
      </trkpt>
      <trkpt lat="47.9072" lon="-2.44961">
        <ele>81.9</ele>
        <time>2024-12-19T12:16:24Z</time>
      </trkpt>
      <trkpt lat="47.9072" lon="-2.44961">
        <ele>81.9</ele>
        <time>2024-12-19T12:16:25Z</time>
      </trkpt>
      <trkpt lat="47.9072" lon="-2.44959">
        <ele>81.9</ele>
        <time>2024-12-19T12:16:26Z</time>
      </trkpt>
      <trkpt lat="47.9072" lon="-2.44959">
        <ele>81.9</ele>
        <time>2024-12-19T12:16:27Z</time>
      </trkpt>
      <trkpt lat="47.9072" lon="-2.44958">
        <ele>81.9</ele>
        <time>2024-12-19T12:16:28Z</time>
      </trkpt>
      <trkpt lat="47.9072" lon="-2.44957">
        <ele>81.9</ele>
        <time>2024-12-19T12:16:29Z</time>
      </trkpt>
      <trkpt lat="47.90719" lon="-2.44956">
        <ele>81.8</ele>
        <time>2024-12-19T12:16:30Z</time>
      </trkpt>
      <trkpt lat="47.90718" lon="-2.44954">
        <ele>81.8</ele>
        <time>2024-12-19T12:16:31Z</time>
      </trkpt>
      <trkpt lat="47.90717" lon="-2.44952">
        <ele>81.7</ele>
        <time>2024-12-19T12:16:32Z</time>
      </trkpt>
      <trkpt lat="47.90717" lon="-2.4495">
        <ele>81.6</ele>
        <time>2024-12-19T12:16:33Z</time>
      </trkpt>
      <trkpt lat="47.90716" lon="-2.44948">
        <ele>81.6</ele>
        <time>2024-12-19T12:16:34Z</time>
      </trkpt>
      <trkpt lat="47.90715" lon="-2.44946">
        <ele>81.5</ele>
        <time>2024-12-19T12:16:35Z</time>
      </trkpt>
      <trkpt lat="47.90715" lon="-2.44944">
        <ele>81.5</ele>
        <time>2024-12-19T12:16:36Z</time>
      </trkpt>
      <trkpt lat="47.90714" lon="-2.44943">
        <ele>81.4</ele>
        <time>2024-12-19T12:16:37Z</time>
      </trkpt>
      <trkpt lat="47.90714" lon="-2.4494">
        <ele>81.3</ele>
        <time>2024-12-19T12:16:38Z</time>
      </trkpt>
      <trkpt lat="47.90714" lon="-2.44938">
        <ele>81.2</ele>
        <time>2024-12-19T12:16:39Z</time>
      </trkpt>
      <trkpt lat="47.90713" lon="-2.44936">
        <ele>81.1</ele>
        <time>2024-12-19T12:16:40Z</time>
      </trkpt>
      <trkpt lat="47.90712" lon="-2.44935">
        <ele>81.1</ele>
        <time>2024-12-19T12:16:41Z</time>
      </trkpt>
      <trkpt lat="47.90712" lon="-2.44934">
        <ele>81</ele>
        <time>2024-12-19T12:16:42Z</time>
      </trkpt>
      <trkpt lat="47.90711" lon="-2.44932">
        <ele>80.9</ele>
        <time>2024-12-19T12:16:43Z</time>
      </trkpt>
      <trkpt lat="47.90711" lon="-2.44931">
        <ele>80.9</ele>
        <time>2024-12-19T12:16:44Z</time>
      </trkpt>
      <trkpt lat="47.90712" lon="-2.44929">
        <ele>80.9</ele>
        <time>2024-12-19T12:16:45Z</time>
      </trkpt>
      <trkpt lat="47.90712" lon="-2.44928">
        <ele>80.9</ele>
        <time>2024-12-19T12:16:46Z</time>
      </trkpt>
      <trkpt lat="47.90711" lon="-2.44927">
        <ele>80.8</ele>
        <time>2024-12-19T12:16:47Z</time>
      </trkpt>
      <trkpt lat="47.90711" lon="-2.44924">
        <ele>80.8</ele>
        <time>2024-12-19T12:16:48Z</time>
      </trkpt>
      <trkpt lat="47.9071" lon="-2.44923">
        <ele>80.7</ele>
        <time>2024-12-19T12:16:49Z</time>
      </trkpt>
      <trkpt lat="47.9071" lon="-2.44921">
        <ele>80.6</ele>
        <time>2024-12-19T12:16:50Z</time>
      </trkpt>
      <trkpt lat="47.90709" lon="-2.44918">
        <ele>80.5</ele>
        <time>2024-12-19T12:16:51Z</time>
      </trkpt>
      <trkpt lat="47.90708" lon="-2.44916">
        <ele>80.4</ele>
        <time>2024-12-19T12:16:52Z</time>
      </trkpt>
      <trkpt lat="47.90707" lon="-2.44913">
        <ele>80.3</ele>
        <time>2024-12-19T12:16:53Z</time>
      </trkpt>
      <trkpt lat="47.90707" lon="-2.44911">
        <ele>80.2</ele>
        <time>2024-12-19T12:16:54Z</time>
      </trkpt>
      <trkpt lat="47.90707" lon="-2.44909">
        <ele>80.1</ele>
        <time>2024-12-19T12:16:55Z</time>
      </trkpt>
      <trkpt lat="47.90706" lon="-2.44907">
        <ele>80.1</ele>
        <time>2024-12-19T12:16:56Z</time>
      </trkpt>
      <trkpt lat="47.90706" lon="-2.44904">
        <ele>80</ele>
        <time>2024-12-19T12:16:57Z</time>
      </trkpt>
      <trkpt lat="47.90706" lon="-2.44902">
        <ele>79.9</ele>
        <time>2024-12-19T12:16:58Z</time>
      </trkpt>
      <trkpt lat="47.90706" lon="-2.449">
        <ele>79.8</ele>
        <time>2024-12-19T12:16:59Z</time>
      </trkpt>
      <trkpt lat="47.90706" lon="-2.449">
        <ele>79.8</ele>
        <time>2024-12-19T12:17:00Z</time>
      </trkpt>
      <trkpt lat="47.90706" lon="-2.44899">
        <ele>79.8</ele>
        <time>2024-12-19T12:17:01Z</time>
      </trkpt>
      <trkpt lat="47.90706" lon="-2.44899">
        <ele>79.8</ele>
        <time>2024-12-19T12:17:02Z</time>
      </trkpt>
      <trkpt lat="47.90706" lon="-2.44897">
        <ele>79.7</ele>
        <time>2024-12-19T12:17:03Z</time>
      </trkpt>
      <trkpt lat="47.90706" lon="-2.44896">
        <ele>79.7</ele>
        <time>2024-12-19T12:17:04Z</time>
      </trkpt>
      <trkpt lat="47.90706" lon="-2.44895">
        <ele>79.6</ele>
        <time>2024-12-19T12:17:05Z</time>
      </trkpt>
      <trkpt lat="47.90706" lon="-2.44893">
        <ele>79.6</ele>
        <time>2024-12-19T12:17:06Z</time>
      </trkpt>
      <trkpt lat="47.90706" lon="-2.44891">
        <ele>79.5</ele>
        <time>2024-12-19T12:17:07Z</time>
      </trkpt>
      <trkpt lat="47.90705" lon="-2.44887">
        <ele>79.3</ele>
        <time>2024-12-19T12:17:08Z</time>
      </trkpt>
      <trkpt lat="47.90704" lon="-2.44885">
        <ele>79.2</ele>
        <time>2024-12-19T12:17:09Z</time>
      </trkpt>
      <trkpt lat="47.90703" lon="-2.44883">
        <ele>79.2</ele>
        <time>2024-12-19T12:17:10Z</time>
      </trkpt>
      <trkpt lat="47.90702" lon="-2.4488">
        <ele>79.1</ele>
        <time>2024-12-19T12:17:11Z</time>
      </trkpt>
      <trkpt lat="47.90701" lon="-2.44878">
        <ele>79</ele>
        <time>2024-12-19T12:17:12Z</time>
      </trkpt>
      <trkpt lat="47.90701" lon="-2.44876">
        <ele>78.9</ele>
        <time>2024-12-19T12:17:13Z</time>
      </trkpt>
      <trkpt lat="47.907" lon="-2.44874">
        <ele>78.8</ele>
        <time>2024-12-19T12:17:14Z</time>
      </trkpt>
      <trkpt lat="47.90699" lon="-2.44873">
        <ele>78.7</ele>
        <time>2024-12-19T12:17:15Z</time>
      </trkpt>
      <trkpt lat="47.90698" lon="-2.44872">
        <ele>78.6</ele>
        <time>2024-12-19T12:17:16Z</time>
      </trkpt>
      <trkpt lat="47.90697" lon="-2.44871">
        <ele>78.5</ele>
        <time>2024-12-19T12:17:17Z</time>
      </trkpt>
      <trkpt lat="47.90696" lon="-2.44869">
        <ele>78.4</ele>
        <time>2024-12-19T12:17:18Z</time>
      </trkpt>
      <trkpt lat="47.90695" lon="-2.44868">
        <ele>78.3</ele>
        <time>2024-12-19T12:17:19Z</time>
      </trkpt>
      <trkpt lat="47.90694" lon="-2.44866">
        <ele>78.2</ele>
        <time>2024-12-19T12:17:20Z</time>
      </trkpt>
      <trkpt lat="47.90693" lon="-2.44863">
        <ele>78.1</ele>
        <time>2024-12-19T12:17:21Z</time>
      </trkpt>
      <trkpt lat="47.90692" lon="-2.44861">
        <ele>78</ele>
        <time>2024-12-19T12:17:22Z</time>
      </trkpt>
      <trkpt lat="47.90692" lon="-2.4486">
        <ele>78</ele>
        <time>2024-12-19T12:17:23Z</time>
      </trkpt>
      <trkpt lat="47.90692" lon="-2.44857">
        <ele>78</ele>
        <time>2024-12-19T12:17:24Z</time>
      </trkpt>
      <trkpt lat="47.90692" lon="-2.44855">
        <ele>78</ele>
        <time>2024-12-19T12:17:25Z</time>
      </trkpt>
      <trkpt lat="47.90692" lon="-2.44854">
        <ele>78</ele>
        <time>2024-12-19T12:17:26Z</time>
      </trkpt>
      <trkpt lat="47.90692" lon="-2.44851">
        <ele>78</ele>
        <time>2024-12-19T12:17:27Z</time>
      </trkpt>
      <trkpt lat="47.90692" lon="-2.44849">
        <ele>78</ele>
        <time>2024-12-19T12:17:28Z</time>
      </trkpt>
      <trkpt lat="47.90692" lon="-2.44847">
        <ele>77.9</ele>
        <time>2024-12-19T12:17:29Z</time>
      </trkpt>
      <trkpt lat="47.90691" lon="-2.44846">
        <ele>77.9</ele>
        <time>2024-12-19T12:17:30Z</time>
      </trkpt>
      <trkpt lat="47.90691" lon="-2.44844">
        <ele>77.9</ele>
        <time>2024-12-19T12:17:31Z</time>
      </trkpt>
      <trkpt lat="47.90691" lon="-2.44843">
        <ele>77.9</ele>
        <time>2024-12-19T12:17:32Z</time>
      </trkpt>
      <trkpt lat="47.90691" lon="-2.44841">
        <ele>77.9</ele>
        <time>2024-12-19T12:17:33Z</time>
      </trkpt>
      <trkpt lat="47.9069" lon="-2.44839">
        <ele>77.9</ele>
        <time>2024-12-19T12:17:34Z</time>
      </trkpt>
      <trkpt lat="47.9069" lon="-2.44837">
        <ele>77.9</ele>
        <time>2024-12-19T12:17:35Z</time>
      </trkpt>
      <trkpt lat="47.9069" lon="-2.44835">
        <ele>77.8</ele>
        <time>2024-12-19T12:17:36Z</time>
      </trkpt>
      <trkpt lat="47.9069" lon="-2.44834">
        <ele>77.8</ele>
        <time>2024-12-19T12:17:37Z</time>
      </trkpt>
      <trkpt lat="47.90689" lon="-2.44832">
        <ele>77.8</ele>
        <time>2024-12-19T12:17:38Z</time>
      </trkpt>
      <trkpt lat="47.90689" lon="-2.4483">
        <ele>77.7</ele>
        <time>2024-12-19T12:17:39Z</time>
      </trkpt>
      <trkpt lat="47.90689" lon="-2.44828">
        <ele>77.6</ele>
        <time>2024-12-19T12:17:40Z</time>
      </trkpt>
      <trkpt lat="47.90689" lon="-2.44828">
        <ele>77.6</ele>
        <time>2024-12-19T12:17:41Z</time>
      </trkpt>
      <trkpt lat="47.90689" lon="-2.44827">
        <ele>77.6</ele>
        <time>2024-12-19T12:17:42Z</time>
      </trkpt>
      <trkpt lat="47.90689" lon="-2.44825">
        <ele>77.6</ele>
        <time>2024-12-19T12:17:43Z</time>
      </trkpt>
      <trkpt lat="47.90689" lon="-2.44823">
        <ele>77.5</ele>
        <time>2024-12-19T12:17:44Z</time>
      </trkpt>
      <trkpt lat="47.90689" lon="-2.44821">
        <ele>77.4</ele>
        <time>2024-12-19T12:17:45Z</time>
      </trkpt>
      <trkpt lat="47.90689" lon="-2.44818">
        <ele>77.4</ele>
        <time>2024-12-19T12:17:46Z</time>
      </trkpt>
      <trkpt lat="47.90689" lon="-2.44816">
        <ele>77.3</ele>
        <time>2024-12-19T12:17:47Z</time>
      </trkpt>
      <trkpt lat="47.90688" lon="-2.44814">
        <ele>77.2</ele>
        <time>2024-12-19T12:17:48Z</time>
      </trkpt>
      <trkpt lat="47.90688" lon="-2.44813">
        <ele>77.2</ele>
        <time>2024-12-19T12:17:49Z</time>
      </trkpt>
      <trkpt lat="47.90688" lon="-2.44812">
        <ele>77.2</ele>
        <time>2024-12-19T12:17:50Z</time>
      </trkpt>
      <trkpt lat="47.90688" lon="-2.4481">
        <ele>77.1</ele>
        <time>2024-12-19T12:17:51Z</time>
      </trkpt>
      <trkpt lat="47.90687" lon="-2.44809">
        <ele>77.1</ele>
        <time>2024-12-19T12:17:52Z</time>
      </trkpt>
      <trkpt lat="47.90686" lon="-2.44807">
        <ele>77</ele>
        <time>2024-12-19T12:17:53Z</time>
      </trkpt>
      <trkpt lat="47.90685" lon="-2.44806">
        <ele>77</ele>
        <time>2024-12-19T12:17:54Z</time>
      </trkpt>
      <trkpt lat="47.90684" lon="-2.44805">
        <ele>77</ele>
        <time>2024-12-19T12:17:55Z</time>
      </trkpt>
      <trkpt lat="47.90683" lon="-2.44804">
        <ele>77</ele>
        <time>2024-12-19T12:17:56Z</time>
      </trkpt>
      <trkpt lat="47.90682" lon="-2.44804">
        <ele>77</ele>
        <time>2024-12-19T12:17:57Z</time>
      </trkpt>
      <trkpt lat="47.90681" lon="-2.44803">
        <ele>77</ele>
        <time>2024-12-19T12:17:58Z</time>
      </trkpt>
      <trkpt lat="47.90679" lon="-2.44803">
        <ele>76.9</ele>
        <time>2024-12-19T12:17:59Z</time>
      </trkpt>
      <trkpt lat="47.90678" lon="-2.44803">
        <ele>76.9</ele>
        <time>2024-12-19T12:18:00Z</time>
      </trkpt>
      <trkpt lat="47.90677" lon="-2.44802">
        <ele>76.9</ele>
        <time>2024-12-19T12:18:01Z</time>
      </trkpt>
      <trkpt lat="47.90675" lon="-2.44802">
        <ele>76.9</ele>
        <time>2024-12-19T12:18:02Z</time>
      </trkpt>
      <trkpt lat="47.90673" lon="-2.44801">
        <ele>76.9</ele>
        <time>2024-12-19T12:18:03Z</time>
      </trkpt>
      <trkpt lat="47.90671" lon="-2.44801">
        <ele>76.9</ele>
        <time>2024-12-19T12:18:04Z</time>
      </trkpt>
      <trkpt lat="47.9067" lon="-2.44801">
        <ele>76.8</ele>
        <time>2024-12-19T12:18:05Z</time>
      </trkpt>
      <trkpt lat="47.90668" lon="-2.44801">
        <ele>76.8</ele>
        <time>2024-12-19T12:18:06Z</time>
      </trkpt>
      <trkpt lat="47.90666" lon="-2.44801">
        <ele>76.8</ele>
        <time>2024-12-19T12:18:07Z</time>
      </trkpt>
      <trkpt lat="47.90665" lon="-2.448">
        <ele>76.7</ele>
        <time>2024-12-19T12:18:08Z</time>
      </trkpt>
      <trkpt lat="47.90663" lon="-2.448">
        <ele>76.6</ele>
        <time>2024-12-19T12:18:09Z</time>
      </trkpt>
      <trkpt lat="47.90662" lon="-2.448">
        <ele>76.5</ele>
        <time>2024-12-19T12:18:10Z</time>
      </trkpt>
      <trkpt lat="47.90661" lon="-2.44799">
        <ele>76.4</ele>
        <time>2024-12-19T12:18:11Z</time>
      </trkpt>
      <trkpt lat="47.90659" lon="-2.44799">
        <ele>76.3</ele>
        <time>2024-12-19T12:18:12Z</time>
      </trkpt>
      <trkpt lat="47.90658" lon="-2.44799">
        <ele>76.2</ele>
        <time>2024-12-19T12:18:13Z</time>
      </trkpt>
      <trkpt lat="47.90656" lon="-2.44798">
        <ele>76.1</ele>
        <time>2024-12-19T12:18:14Z</time>
      </trkpt>
      <trkpt lat="47.90655" lon="-2.44798">
        <ele>76</ele>
        <time>2024-12-19T12:18:15Z</time>
      </trkpt>
      <trkpt lat="47.90654" lon="-2.44798">
        <ele>76</ele>
        <time>2024-12-19T12:18:16Z</time>
      </trkpt>
      <trkpt lat="47.90653" lon="-2.44799">
        <ele>75.9</ele>
        <time>2024-12-19T12:18:17Z</time>
      </trkpt>
      <trkpt lat="47.90651" lon="-2.44799">
        <ele>75.8</ele>
        <time>2024-12-19T12:18:18Z</time>
      </trkpt>
      <trkpt lat="47.9065" lon="-2.44799">
        <ele>75.7</ele>
        <time>2024-12-19T12:18:19Z</time>
      </trkpt>
      <trkpt lat="47.90648" lon="-2.44798">
        <ele>75.6</ele>
        <time>2024-12-19T12:18:20Z</time>
      </trkpt>
      <trkpt lat="47.90647" lon="-2.44798">
        <ele>75.5</ele>
        <time>2024-12-19T12:18:21Z</time>
      </trkpt>
      <trkpt lat="47.90645" lon="-2.44797">
        <ele>75.4</ele>
        <time>2024-12-19T12:18:22Z</time>
      </trkpt>
      <trkpt lat="47.90643" lon="-2.44797">
        <ele>75.3</ele>
        <time>2024-12-19T12:18:23Z</time>
      </trkpt>
      <trkpt lat="47.90642" lon="-2.44797">
        <ele>75.2</ele>
        <time>2024-12-19T12:18:24Z</time>
      </trkpt>
      <trkpt lat="47.90641" lon="-2.44797">
        <ele>75.1</ele>
        <time>2024-12-19T12:18:25Z</time>
      </trkpt>
      <trkpt lat="47.9064" lon="-2.44797">
        <ele>75</ele>
        <time>2024-12-19T12:18:26Z</time>
      </trkpt>
      <trkpt lat="47.90638" lon="-2.44796">
        <ele>75</ele>
        <time>2024-12-19T12:18:27Z</time>
      </trkpt>
      <trkpt lat="47.90637" lon="-2.44796">
        <ele>75</ele>
        <time>2024-12-19T12:18:28Z</time>
      </trkpt>
      <trkpt lat="47.90636" lon="-2.44795">
        <ele>74.9</ele>
        <time>2024-12-19T12:18:29Z</time>
      </trkpt>
      <trkpt lat="47.90634" lon="-2.44794">
        <ele>74.9</ele>
        <time>2024-12-19T12:18:30Z</time>
      </trkpt>
      <trkpt lat="47.90633" lon="-2.44793">
        <ele>74.8</ele>
        <time>2024-12-19T12:18:31Z</time>
      </trkpt>
      <trkpt lat="47.90632" lon="-2.44793">
        <ele>74.8</ele>
        <time>2024-12-19T12:18:32Z</time>
      </trkpt>
      <trkpt lat="47.90631" lon="-2.44792">
        <ele>74.7</ele>
        <time>2024-12-19T12:18:33Z</time>
      </trkpt>
      <trkpt lat="47.9063" lon="-2.44792">
        <ele>74.7</ele>
        <time>2024-12-19T12:18:34Z</time>
      </trkpt>
      <trkpt lat="47.90629" lon="-2.44792">
        <ele>74.7</ele>
        <time>2024-12-19T12:18:35Z</time>
      </trkpt>
      <trkpt lat="47.90628" lon="-2.44792">
        <ele>74.6</ele>
        <time>2024-12-19T12:18:36Z</time>
      </trkpt>
      <trkpt lat="47.90627" lon="-2.44792">
        <ele>74.6</ele>
        <time>2024-12-19T12:18:37Z</time>
      </trkpt>
      <trkpt lat="47.90626" lon="-2.44791">
        <ele>74.5</ele>
        <time>2024-12-19T12:18:38Z</time>
      </trkpt>
      <trkpt lat="47.90624" lon="-2.44791">
        <ele>74.4</ele>
        <time>2024-12-19T12:18:39Z</time>
      </trkpt>
      <trkpt lat="47.90623" lon="-2.44791">
        <ele>74.4</ele>
        <time>2024-12-19T12:18:40Z</time>
      </trkpt>
      <trkpt lat="47.90622" lon="-2.44791">
        <ele>74.3</ele>
        <time>2024-12-19T12:18:41Z</time>
      </trkpt>
      <trkpt lat="47.90621" lon="-2.4479">
        <ele>74.3</ele>
        <time>2024-12-19T12:18:42Z</time>
      </trkpt>
      <trkpt lat="47.9062" lon="-2.4479">
        <ele>74.2</ele>
        <time>2024-12-19T12:18:43Z</time>
      </trkpt>
      <trkpt lat="47.90619" lon="-2.44789">
        <ele>74.2</ele>
        <time>2024-12-19T12:18:44Z</time>
      </trkpt>
      <trkpt lat="47.90618" lon="-2.44789">
        <ele>74.1</ele>
        <time>2024-12-19T12:18:45Z</time>
      </trkpt>
      <trkpt lat="47.90617" lon="-2.44788">
        <ele>74</ele>
        <time>2024-12-19T12:18:46Z</time>
      </trkpt>
      <trkpt lat="47.90616" lon="-2.44787">
        <ele>73.9</ele>
        <time>2024-12-19T12:18:47Z</time>
      </trkpt>
      <trkpt lat="47.90615" lon="-2.44787">
        <ele>73.8</ele>
        <time>2024-12-19T12:18:48Z</time>
      </trkpt>
      <trkpt lat="47.90614" lon="-2.44787">
        <ele>73.8</ele>
        <time>2024-12-19T12:18:49Z</time>
      </trkpt>
      <trkpt lat="47.90613" lon="-2.44787">
        <ele>73.8</ele>
        <time>2024-12-19T12:18:50Z</time>
      </trkpt>
      <trkpt lat="47.90613" lon="-2.44787">
        <ele>73.7</ele>
        <time>2024-12-19T12:18:51Z</time>
      </trkpt>
      <trkpt lat="47.90611" lon="-2.44786">
        <ele>73.6</ele>
        <time>2024-12-19T12:18:52Z</time>
      </trkpt>
      <trkpt lat="47.9061" lon="-2.44786">
        <ele>73.6</ele>
        <time>2024-12-19T12:18:53Z</time>
      </trkpt>
      <trkpt lat="47.90609" lon="-2.44786">
        <ele>73.6</ele>
        <time>2024-12-19T12:18:54Z</time>
      </trkpt>
      <trkpt lat="47.90607" lon="-2.44786">
        <ele>73.6</ele>
        <time>2024-12-19T12:18:55Z</time>
      </trkpt>
      <trkpt lat="47.90605" lon="-2.44786">
        <ele>73.5</ele>
        <time>2024-12-19T12:18:56Z</time>
      </trkpt>
      <trkpt lat="47.90604" lon="-2.44786">
        <ele>73.5</ele>
        <time>2024-12-19T12:18:57Z</time>
      </trkpt>
      <trkpt lat="47.90602" lon="-2.44786">
        <ele>73.5</ele>
        <time>2024-12-19T12:18:58Z</time>
      </trkpt>
      <trkpt lat="47.90601" lon="-2.44786">
        <ele>73.5</ele>
        <time>2024-12-19T12:18:59Z</time>
      </trkpt>
      <trkpt lat="47.906" lon="-2.44786">
        <ele>73.5</ele>
        <time>2024-12-19T12:19:00Z</time>
      </trkpt>
      <trkpt lat="47.90599" lon="-2.44786">
        <ele>73.5</ele>
        <time>2024-12-19T12:19:01Z</time>
      </trkpt>
      <trkpt lat="47.90597" lon="-2.44786">
        <ele>73.4</ele>
        <time>2024-12-19T12:19:02Z</time>
      </trkpt>
      <trkpt lat="47.90596" lon="-2.44785">
        <ele>73.4</ele>
        <time>2024-12-19T12:19:03Z</time>
      </trkpt>
      <trkpt lat="47.90594" lon="-2.44785">
        <ele>73.4</ele>
        <time>2024-12-19T12:19:04Z</time>
      </trkpt>
      <trkpt lat="47.90593" lon="-2.44785">
        <ele>73.3</ele>
        <time>2024-12-19T12:19:05Z</time>
      </trkpt>
      <trkpt lat="47.90592" lon="-2.44785">
        <ele>73.3</ele>
        <time>2024-12-19T12:19:06Z</time>
      </trkpt>
      <trkpt lat="47.90591" lon="-2.44785">
        <ele>73.3</ele>
        <time>2024-12-19T12:19:07Z</time>
      </trkpt>
      <trkpt lat="47.9059" lon="-2.44785">
        <ele>73.3</ele>
        <time>2024-12-19T12:19:08Z</time>
      </trkpt>
      <trkpt lat="47.90589" lon="-2.44785">
        <ele>73.3</ele>
        <time>2024-12-19T12:19:09Z</time>
      </trkpt>
      <trkpt lat="47.90588" lon="-2.44785">
        <ele>73.3</ele>
        <time>2024-12-19T12:19:10Z</time>
      </trkpt>
      <trkpt lat="47.90586" lon="-2.44785">
        <ele>73.3</ele>
        <time>2024-12-19T12:19:11Z</time>
      </trkpt>
      <trkpt lat="47.90584" lon="-2.44785">
        <ele>73.3</ele>
        <time>2024-12-19T12:19:12Z</time>
      </trkpt>
      <trkpt lat="47.90583" lon="-2.44785">
        <ele>73.2</ele>
        <time>2024-12-19T12:19:13Z</time>
      </trkpt>
      <trkpt lat="47.90581" lon="-2.44784">
        <ele>73.2</ele>
        <time>2024-12-19T12:19:14Z</time>
      </trkpt>
      <trkpt lat="47.9058" lon="-2.44784">
        <ele>73.1</ele>
        <time>2024-12-19T12:19:15Z</time>
      </trkpt>
      <trkpt lat="47.90579" lon="-2.44784">
        <ele>73.1</ele>
        <time>2024-12-19T12:19:16Z</time>
      </trkpt>
      <trkpt lat="47.90578" lon="-2.44784">
        <ele>73</ele>
        <time>2024-12-19T12:19:17Z</time>
      </trkpt>
      <trkpt lat="47.90577" lon="-2.44784">
        <ele>73</ele>
        <time>2024-12-19T12:19:18Z</time>
      </trkpt>
      <trkpt lat="47.90575" lon="-2.44784">
        <ele>72.9</ele>
        <time>2024-12-19T12:19:19Z</time>
      </trkpt>
      <trkpt lat="47.90574" lon="-2.44784">
        <ele>72.9</ele>
        <time>2024-12-19T12:19:20Z</time>
      </trkpt>
      <trkpt lat="47.90573" lon="-2.44783">
        <ele>72.8</ele>
        <time>2024-12-19T12:19:21Z</time>
      </trkpt>
      <trkpt lat="47.90572" lon="-2.44783">
        <ele>72.8</ele>
        <time>2024-12-19T12:19:22Z</time>
      </trkpt>
      <trkpt lat="47.90571" lon="-2.44782">
        <ele>72.7</ele>
        <time>2024-12-19T12:19:23Z</time>
      </trkpt>
      <trkpt lat="47.9057" lon="-2.44782">
        <ele>72.7</ele>
        <time>2024-12-19T12:19:24Z</time>
      </trkpt>
      <trkpt lat="47.90569" lon="-2.44782">
        <ele>72.6</ele>
        <time>2024-12-19T12:19:25Z</time>
      </trkpt>
      <trkpt lat="47.90568" lon="-2.44782">
        <ele>72.6</ele>
        <time>2024-12-19T12:19:26Z</time>
      </trkpt>
      <trkpt lat="47.90568" lon="-2.44782">
        <ele>72.6</ele>
        <time>2024-12-19T12:19:27Z</time>
      </trkpt>
      <trkpt lat="47.90568" lon="-2.44782">
        <ele>72.6</ele>
        <time>2024-12-19T12:19:28Z</time>
      </trkpt>
      <trkpt lat="47.90568" lon="-2.44781">
        <ele>72.6</ele>
        <time>2024-12-19T12:19:29Z</time>
      </trkpt>
      <trkpt lat="47.90567" lon="-2.44781">
        <ele>72.5</ele>
        <time>2024-12-19T12:19:30Z</time>
      </trkpt>
      <trkpt lat="47.90567" lon="-2.44781">
        <ele>72.6</ele>
        <time>2024-12-19T12:19:31Z</time>
      </trkpt>
      <trkpt lat="47.90567" lon="-2.44781">
        <ele>72.5</ele>
        <time>2024-12-19T12:19:32Z</time>
      </trkpt>
      <trkpt lat="47.90566" lon="-2.44781">
        <ele>72.5</ele>
        <time>2024-12-19T12:19:33Z</time>
      </trkpt>
      <trkpt lat="47.90565" lon="-2.44781">
        <ele>72.5</ele>
        <time>2024-12-19T12:19:34Z</time>
      </trkpt>
      <trkpt lat="47.90564" lon="-2.44781">
        <ele>72.4</ele>
        <time>2024-12-19T12:19:35Z</time>
      </trkpt>
      <trkpt lat="47.90564" lon="-2.4478">
        <ele>72.4</ele>
        <time>2024-12-19T12:19:36Z</time>
      </trkpt>
      <trkpt lat="47.90563" lon="-2.4478">
        <ele>72.4</ele>
        <time>2024-12-19T12:19:37Z</time>
      </trkpt>
      <trkpt lat="47.90562" lon="-2.4478">
        <ele>72.3</ele>
        <time>2024-12-19T12:19:38Z</time>
      </trkpt>
      <trkpt lat="47.9056" lon="-2.44781">
        <ele>72.3</ele>
        <time>2024-12-19T12:19:39Z</time>
      </trkpt>
      <trkpt lat="47.90558" lon="-2.44782">
        <ele>72.2</ele>
        <time>2024-12-19T12:19:40Z</time>
      </trkpt>
      <trkpt lat="47.90556" lon="-2.44783">
        <ele>72.2</ele>
        <time>2024-12-19T12:19:41Z</time>
      </trkpt>
      <trkpt lat="47.90554" lon="-2.44784">
        <ele>72.2</ele>
        <time>2024-12-19T12:19:42Z</time>
      </trkpt>
      <trkpt lat="47.90553" lon="-2.44784">
        <ele>72.1</ele>
        <time>2024-12-19T12:19:43Z</time>
      </trkpt>
      <trkpt lat="47.90551" lon="-2.44785">
        <ele>72</ele>
        <time>2024-12-19T12:19:44Z</time>
      </trkpt>
      <trkpt lat="47.9055" lon="-2.44785">
        <ele>72</ele>
        <time>2024-12-19T12:19:45Z</time>
      </trkpt>
      <trkpt lat="47.90548" lon="-2.44786">
        <ele>71.9</ele>
        <time>2024-12-19T12:19:46Z</time>
      </trkpt>
      <trkpt lat="47.90546" lon="-2.44787">
        <ele>71.9</ele>
        <time>2024-12-19T12:19:47Z</time>
      </trkpt>
      <trkpt lat="47.90545" lon="-2.44787">
        <ele>71.8</ele>
        <time>2024-12-19T12:19:48Z</time>
      </trkpt>
      <trkpt lat="47.90543" lon="-2.44788">
        <ele>71.8</ele>
        <time>2024-12-19T12:19:49Z</time>
      </trkpt>
      <trkpt lat="47.90542" lon="-2.44788">
        <ele>71.7</ele>
        <time>2024-12-19T12:19:50Z</time>
      </trkpt>
      <trkpt lat="47.90541" lon="-2.44788">
        <ele>71.7</ele>
        <time>2024-12-19T12:19:51Z</time>
      </trkpt>
      <trkpt lat="47.9054" lon="-2.44789">
        <ele>71.6</ele>
        <time>2024-12-19T12:19:52Z</time>
      </trkpt>
      <trkpt lat="47.90539" lon="-2.44789">
        <ele>71.6</ele>
        <time>2024-12-19T12:19:53Z</time>
      </trkpt>
      <trkpt lat="47.90538" lon="-2.44789">
        <ele>71.5</ele>
        <time>2024-12-19T12:19:54Z</time>
      </trkpt>
      <trkpt lat="47.90537" lon="-2.44788">
        <ele>71.5</ele>
        <time>2024-12-19T12:19:55Z</time>
      </trkpt>
      <trkpt lat="47.90536" lon="-2.44788">
        <ele>71.4</ele>
        <time>2024-12-19T12:19:56Z</time>
      </trkpt>
      <trkpt lat="47.90535" lon="-2.44788">
        <ele>71.4</ele>
        <time>2024-12-19T12:19:57Z</time>
      </trkpt>
      <trkpt lat="47.90534" lon="-2.44788">
        <ele>71.3</ele>
        <time>2024-12-19T12:19:58Z</time>
      </trkpt>
      <trkpt lat="47.90533" lon="-2.44788">
        <ele>71.3</ele>
        <time>2024-12-19T12:19:59Z</time>
      </trkpt>
      <trkpt lat="47.90532" lon="-2.44788">
        <ele>71.2</ele>
        <time>2024-12-19T12:20:00Z</time>
      </trkpt>
      <trkpt lat="47.90532" lon="-2.44788">
        <ele>71.2</ele>
        <time>2024-12-19T12:20:01Z</time>
      </trkpt>
      <trkpt lat="47.90531" lon="-2.44788">
        <ele>71.2</ele>
        <time>2024-12-19T12:20:02Z</time>
      </trkpt>
      <trkpt lat="47.90531" lon="-2.44788">
        <ele>71.1</ele>
        <time>2024-12-19T12:20:03Z</time>
      </trkpt>
      <trkpt lat="47.9053" lon="-2.44788">
        <ele>71.1</ele>
        <time>2024-12-19T12:20:04Z</time>
      </trkpt>
      <trkpt lat="47.90529" lon="-2.44788">
        <ele>71.1</ele>
        <time>2024-12-19T12:20:05Z</time>
      </trkpt>
      <trkpt lat="47.90529" lon="-2.44789">
        <ele>71.1</ele>
        <time>2024-12-19T12:20:06Z</time>
      </trkpt>
      <trkpt lat="47.90529" lon="-2.44789">
        <ele>71.1</ele>
        <time>2024-12-19T12:20:07Z</time>
      </trkpt>
      <trkpt lat="47.90529" lon="-2.44789">
        <ele>71</ele>
        <time>2024-12-19T12:20:08Z</time>
      </trkpt>
      <trkpt lat="47.90528" lon="-2.4479">
        <ele>71</ele>
        <time>2024-12-19T12:20:09Z</time>
      </trkpt>
      <trkpt lat="47.90528" lon="-2.4479">
        <ele>71</ele>
        <time>2024-12-19T12:20:10Z</time>
      </trkpt>
      <trkpt lat="47.90528" lon="-2.44791">
        <ele>71</ele>
        <time>2024-12-19T12:20:11Z</time>
      </trkpt>
      <trkpt lat="47.90528" lon="-2.44791">
        <ele>71</ele>
        <time>2024-12-19T12:20:12Z</time>
      </trkpt>
      <trkpt lat="47.90528" lon="-2.44791">
        <ele>71</ele>
        <time>2024-12-19T12:20:13Z</time>
      </trkpt>
      <trkpt lat="47.90528" lon="-2.44791">
        <ele>71</ele>
        <time>2024-12-19T12:20:14Z</time>
      </trkpt>
      <trkpt lat="47.90528" lon="-2.44791">
        <ele>71</ele>
        <time>2024-12-19T12:20:15Z</time>
      </trkpt>
      <trkpt lat="47.90528" lon="-2.44791">
        <ele>71</ele>
        <time>2024-12-19T12:20:16Z</time>
      </trkpt>
      <trkpt lat="47.90528" lon="-2.44791">
        <ele>71</ele>
        <time>2024-12-19T12:20:17Z</time>
      </trkpt>
      <trkpt lat="47.90528" lon="-2.4479">
        <ele>71</ele>
        <time>2024-12-19T12:20:18Z</time>
      </trkpt>
      <trkpt lat="47.90528" lon="-2.4479">
        <ele>71</ele>
        <time>2024-12-19T12:20:19Z</time>
      </trkpt>
      <trkpt lat="47.90528" lon="-2.4479">
        <ele>71</ele>
        <time>2024-12-19T12:20:20Z</time>
      </trkpt>
      <trkpt lat="47.90528" lon="-2.4479">
        <ele>71</ele>
        <time>2024-12-19T12:20:21Z</time>
      </trkpt>
      <trkpt lat="47.90528" lon="-2.4479">
        <ele>71</ele>
        <time>2024-12-19T12:20:22Z</time>
      </trkpt>
      <trkpt lat="47.90528" lon="-2.4479">
        <ele>71</ele>
        <time>2024-12-19T12:20:23Z</time>
      </trkpt>
      <trkpt lat="47.90528" lon="-2.4479">
        <ele>71</ele>
        <time>2024-12-19T12:20:24Z</time>
      </trkpt>
      <trkpt lat="47.90528" lon="-2.4479">
        <ele>71</ele>
        <time>2024-12-19T12:20:25Z</time>
      </trkpt>
      <trkpt lat="47.90528" lon="-2.4479">
        <ele>71</ele>
        <time>2024-12-19T12:20:26Z</time>
      </trkpt>
      <trkpt lat="47.90528" lon="-2.4479">
        <ele>71</ele>
        <time>2024-12-19T12:20:27Z</time>
      </trkpt>
      <trkpt lat="47.90528" lon="-2.4479">
        <ele>71</ele>
        <time>2024-12-19T12:20:28Z</time>
      </trkpt>
      <trkpt lat="47.90528" lon="-2.4479">
        <ele>71</ele>
        <time>2024-12-19T12:20:29Z</time>
      </trkpt>
      <trkpt lat="47.90528" lon="-2.4479">
        <ele>71</ele>
        <time>2024-12-19T12:20:30Z</time>
      </trkpt>
      <trkpt lat="47.90528" lon="-2.4479">
        <ele>71</ele>
        <time>2024-12-19T12:20:31Z</time>
      </trkpt>
      <trkpt lat="47.90528" lon="-2.4479">
        <ele>71</ele>
        <time>2024-12-19T12:20:32Z</time>
      </trkpt>
      <trkpt lat="47.90528" lon="-2.4479">
        <ele>71</ele>
        <time>2024-12-19T12:20:33Z</time>
      </trkpt>
      <trkpt lat="47.90528" lon="-2.4479">
        <ele>71</ele>
        <time>2024-12-19T12:20:34Z</time>
      </trkpt>
      <trkpt lat="47.90528" lon="-2.4479">
        <ele>71</ele>
        <time>2024-12-19T12:20:35Z</time>
      </trkpt>
      <trkpt lat="47.90528" lon="-2.4479">
        <ele>71</ele>
        <time>2024-12-19T12:20:36Z</time>
      </trkpt>
      <trkpt lat="47.90528" lon="-2.4479">
        <ele>71</ele>
        <time>2024-12-19T12:20:37Z</time>
      </trkpt>
      <trkpt lat="47.90528" lon="-2.4479">
        <ele>71</ele>
        <time>2024-12-19T12:20:38Z</time>
      </trkpt>
      <trkpt lat="47.90528" lon="-2.4479">
        <ele>71</ele>
        <time>2024-12-19T12:20:39Z</time>
      </trkpt>
      <trkpt lat="47.90528" lon="-2.4479">
        <ele>71</ele>
        <time>2024-12-19T12:20:40Z</time>
      </trkpt>
      <trkpt lat="47.90528" lon="-2.4479">
        <ele>71</ele>
        <time>2024-12-19T12:20:41Z</time>
      </trkpt>
      <trkpt lat="47.90528" lon="-2.4479">
        <ele>71</ele>
        <time>2024-12-19T12:20:42Z</time>
      </trkpt>
      <trkpt lat="47.90527" lon="-2.4479">
        <ele>71</ele>
        <time>2024-12-19T12:20:43Z</time>
      </trkpt>
      <trkpt lat="47.90526" lon="-2.4479">
        <ele>71</ele>
        <time>2024-12-19T12:20:44Z</time>
      </trkpt>
      <trkpt lat="47.90525" lon="-2.4479">
        <ele>70.9</ele>
        <time>2024-12-19T12:20:45Z</time>
      </trkpt>
      <trkpt lat="47.90524" lon="-2.44789">
        <ele>70.9</ele>
        <time>2024-12-19T12:20:46Z</time>
      </trkpt>
      <trkpt lat="47.90523" lon="-2.44789">
        <ele>70.9</ele>
        <time>2024-12-19T12:20:47Z</time>
      </trkpt>
      <trkpt lat="47.90522" lon="-2.44789">
        <ele>70.9</ele>
        <time>2024-12-19T12:20:48Z</time>
      </trkpt>
      <trkpt lat="47.90521" lon="-2.44789">
        <ele>70.9</ele>
        <time>2024-12-19T12:20:49Z</time>
      </trkpt>
      <trkpt lat="47.9052" lon="-2.44789">
        <ele>70.8</ele>
        <time>2024-12-19T12:20:50Z</time>
      </trkpt>
      <trkpt lat="47.90519" lon="-2.44789">
        <ele>70.8</ele>
        <time>2024-12-19T12:20:51Z</time>
      </trkpt>
      <trkpt lat="47.90517" lon="-2.4479">
        <ele>70.8</ele>
        <time>2024-12-19T12:20:52Z</time>
      </trkpt>
      <trkpt lat="47.90516" lon="-2.4479">
        <ele>70.8</ele>
        <time>2024-12-19T12:20:53Z</time>
      </trkpt>
      <trkpt lat="47.90515" lon="-2.4479">
        <ele>70.7</ele>
        <time>2024-12-19T12:20:54Z</time>
      </trkpt>
      <trkpt lat="47.90514" lon="-2.4479">
        <ele>70.7</ele>
        <time>2024-12-19T12:20:55Z</time>
      </trkpt>
      <trkpt lat="47.90513" lon="-2.4479">
        <ele>70.7</ele>
        <time>2024-12-19T12:20:56Z</time>
      </trkpt>
      <trkpt lat="47.90512" lon="-2.4479">
        <ele>70.7</ele>
        <time>2024-12-19T12:20:57Z</time>
      </trkpt>
      <trkpt lat="47.90511" lon="-2.44789">
        <ele>70.6</ele>
        <time>2024-12-19T12:20:58Z</time>
      </trkpt>
      <trkpt lat="47.90509" lon="-2.44789">
        <ele>70.6</ele>
        <time>2024-12-19T12:20:59Z</time>
      </trkpt>
      <trkpt lat="47.90508" lon="-2.44789">
        <ele>70.6</ele>
        <time>2024-12-19T12:21:00Z</time>
      </trkpt>
      <trkpt lat="47.90508" lon="-2.44788">
        <ele>70.5</ele>
        <time>2024-12-19T12:21:01Z</time>
      </trkpt>
      <trkpt lat="47.90507" lon="-2.44788">
        <ele>70.5</ele>
        <time>2024-12-19T12:21:02Z</time>
      </trkpt>
      <trkpt lat="47.90507" lon="-2.44787">
        <ele>70.5</ele>
        <time>2024-12-19T12:21:03Z</time>
      </trkpt>
      <trkpt lat="47.90506" lon="-2.44788">
        <ele>70.5</ele>
        <time>2024-12-19T12:21:04Z</time>
      </trkpt>
      <trkpt lat="47.90505" lon="-2.44788">
        <ele>70.5</ele>
        <time>2024-12-19T12:21:05Z</time>
      </trkpt>
      <trkpt lat="47.90504" lon="-2.44789">
        <ele>70.5</ele>
        <time>2024-12-19T12:21:06Z</time>
      </trkpt>
      <trkpt lat="47.90501" lon="-2.4479">
        <ele>70.5</ele>
        <time>2024-12-19T12:21:08Z</time>
      </trkpt>
      <trkpt lat="47.905" lon="-2.4479">
        <ele>70.4</ele>
        <time>2024-12-19T12:21:09Z</time>
      </trkpt>
      <trkpt lat="47.90499" lon="-2.4479">
        <ele>70.4</ele>
        <time>2024-12-19T12:21:10Z</time>
      </trkpt>
      <trkpt lat="47.90497" lon="-2.44791">
        <ele>70.4</ele>
        <time>2024-12-19T12:21:11Z</time>
      </trkpt>
      <trkpt lat="47.90496" lon="-2.44791">
        <ele>70.4</ele>
        <time>2024-12-19T12:21:12Z</time>
      </trkpt>
      <trkpt lat="47.90495" lon="-2.4479">
        <ele>70.4</ele>
        <time>2024-12-19T12:21:13Z</time>
      </trkpt>
      <trkpt lat="47.90494" lon="-2.4479">
        <ele>70.4</ele>
        <time>2024-12-19T12:21:14Z</time>
      </trkpt>
      <trkpt lat="47.90492" lon="-2.4479">
        <ele>70.3</ele>
        <time>2024-12-19T12:21:15Z</time>
      </trkpt>
      <trkpt lat="47.90491" lon="-2.44791">
        <ele>70.3</ele>
        <time>2024-12-19T12:21:16Z</time>
      </trkpt>
      <trkpt lat="47.9049" lon="-2.44791">
        <ele>70.3</ele>
        <time>2024-12-19T12:21:17Z</time>
      </trkpt>
      <trkpt lat="47.90489" lon="-2.44791">
        <ele>70.3</ele>
        <time>2024-12-19T12:21:18Z</time>
      </trkpt>
      <trkpt lat="47.90487" lon="-2.44791">
        <ele>70.3</ele>
        <time>2024-12-19T12:21:19Z</time>
      </trkpt>
      <trkpt lat="47.90486" lon="-2.44791">
        <ele>70.2</ele>
        <time>2024-12-19T12:21:20Z</time>
      </trkpt>
      <trkpt lat="47.90485" lon="-2.44791">
        <ele>70.2</ele>
        <time>2024-12-19T12:21:21Z</time>
      </trkpt>
      <trkpt lat="47.90483" lon="-2.44791">
        <ele>70.2</ele>
        <time>2024-12-19T12:21:22Z</time>
      </trkpt>
      <trkpt lat="47.90482" lon="-2.44791">
        <ele>70.2</ele>
        <time>2024-12-19T12:21:23Z</time>
      </trkpt>
      <trkpt lat="47.90481" lon="-2.44791">
        <ele>70.2</ele>
        <time>2024-12-19T12:21:24Z</time>
      </trkpt>
      <trkpt lat="47.9048" lon="-2.44791">
        <ele>70.1</ele>
        <time>2024-12-19T12:21:25Z</time>
      </trkpt>
      <trkpt lat="47.90479" lon="-2.44792">
        <ele>70.1</ele>
        <time>2024-12-19T12:21:26Z</time>
      </trkpt>
      <trkpt lat="47.90477" lon="-2.44792">
        <ele>70.1</ele>
        <time>2024-12-19T12:21:27Z</time>
      </trkpt>
      <trkpt lat="47.90476" lon="-2.44792">
        <ele>70.1</ele>
        <time>2024-12-19T12:21:28Z</time>
      </trkpt>
      <trkpt lat="47.90475" lon="-2.44793">
        <ele>70</ele>
        <time>2024-12-19T12:21:29Z</time>
      </trkpt>
      <trkpt lat="47.90474" lon="-2.44793">
        <ele>70</ele>
        <time>2024-12-19T12:21:30Z</time>
      </trkpt>
      <trkpt lat="47.90472" lon="-2.44793">
        <ele>70</ele>
        <time>2024-12-19T12:21:31Z</time>
      </trkpt>
      <trkpt lat="47.90471" lon="-2.44793">
        <ele>70</ele>
        <time>2024-12-19T12:21:32Z</time>
      </trkpt>
      <trkpt lat="47.9047" lon="-2.44793">
        <ele>69.9</ele>
        <time>2024-12-19T12:21:33Z</time>
      </trkpt>
      <trkpt lat="47.90469" lon="-2.44793">
        <ele>69.9</ele>
        <time>2024-12-19T12:21:34Z</time>
      </trkpt>
      <trkpt lat="47.90468" lon="-2.44793">
        <ele>69.9</ele>
        <time>2024-12-19T12:21:35Z</time>
      </trkpt>
      <trkpt lat="47.90468" lon="-2.44793">
        <ele>69.8</ele>
        <time>2024-12-19T12:21:36Z</time>
      </trkpt>
      <trkpt lat="47.90467" lon="-2.44793">
        <ele>69.8</ele>
        <time>2024-12-19T12:21:37Z</time>
      </trkpt>
      <trkpt lat="47.90466" lon="-2.44794">
        <ele>69.8</ele>
        <time>2024-12-19T12:21:38Z</time>
      </trkpt>
      <trkpt lat="47.90466" lon="-2.44794">
        <ele>69.8</ele>
        <time>2024-12-19T12:21:39Z</time>
      </trkpt>
      <trkpt lat="47.90466" lon="-2.44794">
        <ele>69.8</ele>
        <time>2024-12-19T12:21:40Z</time>
      </trkpt>
      <trkpt lat="47.90465" lon="-2.44794">
        <ele>69.7</ele>
        <time>2024-12-19T12:21:41Z</time>
      </trkpt>
      <trkpt lat="47.90464" lon="-2.44794">
        <ele>69.7</ele>
        <time>2024-12-19T12:21:42Z</time>
      </trkpt>
      <trkpt lat="47.90462" lon="-2.44794">
        <ele>69.6</ele>
        <time>2024-12-19T12:21:43Z</time>
      </trkpt>
      <trkpt lat="47.90461" lon="-2.44795">
        <ele>69.6</ele>
        <time>2024-12-19T12:21:44Z</time>
      </trkpt>
      <trkpt lat="47.90459" lon="-2.44795">
        <ele>69.5</ele>
        <time>2024-12-19T12:21:45Z</time>
      </trkpt>
      <trkpt lat="47.90458" lon="-2.44795">
        <ele>69.5</ele>
        <time>2024-12-19T12:21:46Z</time>
      </trkpt>
      <trkpt lat="47.90456" lon="-2.44796">
        <ele>69.4</ele>
        <time>2024-12-19T12:21:47Z</time>
      </trkpt>
      <trkpt lat="47.90455" lon="-2.44796">
        <ele>69.4</ele>
        <time>2024-12-19T12:21:48Z</time>
      </trkpt>
      <trkpt lat="47.90454" lon="-2.44796">
        <ele>69.3</ele>
        <time>2024-12-19T12:21:49Z</time>
      </trkpt>
      <trkpt lat="47.90453" lon="-2.44795">
        <ele>69.3</ele>
        <time>2024-12-19T12:21:50Z</time>
      </trkpt>
      <trkpt lat="47.90452" lon="-2.44796">
        <ele>69.3</ele>
        <time>2024-12-19T12:21:51Z</time>
      </trkpt>
      <trkpt lat="47.90451" lon="-2.44796">
        <ele>69.2</ele>
        <time>2024-12-19T12:21:52Z</time>
      </trkpt>
      <trkpt lat="47.9045" lon="-2.44796">
        <ele>69.2</ele>
        <time>2024-12-19T12:21:53Z</time>
      </trkpt>
      <trkpt lat="47.90448" lon="-2.44797">
        <ele>69.1</ele>
        <time>2024-12-19T12:21:54Z</time>
      </trkpt>
      <trkpt lat="47.90447" lon="-2.44797">
        <ele>69.1</ele>
        <time>2024-12-19T12:21:55Z</time>
      </trkpt>
      <trkpt lat="47.90446" lon="-2.44798">
        <ele>69.1</ele>
        <time>2024-12-19T12:21:56Z</time>
      </trkpt>
      <trkpt lat="47.90445" lon="-2.44798">
        <ele>69</ele>
        <time>2024-12-19T12:21:57Z</time>
      </trkpt>
      <trkpt lat="47.90444" lon="-2.44798">
        <ele>69</ele>
        <time>2024-12-19T12:21:58Z</time>
      </trkpt>
      <trkpt lat="47.90443" lon="-2.44798">
        <ele>69</ele>
        <time>2024-12-19T12:21:59Z</time>
      </trkpt>
      <trkpt lat="47.90443" lon="-2.44798">
        <ele>69</ele>
        <time>2024-12-19T12:22:00Z</time>
      </trkpt>
      <trkpt lat="47.90441" lon="-2.44799">
        <ele>68.9</ele>
        <time>2024-12-19T12:22:01Z</time>
      </trkpt>
      <trkpt lat="47.9044" lon="-2.448">
        <ele>68.9</ele>
        <time>2024-12-19T12:22:02Z</time>
      </trkpt>
      <trkpt lat="47.90438" lon="-2.44801">
        <ele>68.9</ele>
        <time>2024-12-19T12:22:03Z</time>
      </trkpt>
      <trkpt lat="47.90437" lon="-2.44801">
        <ele>68.9</ele>
        <time>2024-12-19T12:22:04Z</time>
      </trkpt>
      <trkpt lat="47.90436" lon="-2.44802">
        <ele>68.9</ele>
        <time>2024-12-19T12:22:05Z</time>
      </trkpt>
      <trkpt lat="47.90435" lon="-2.44802">
        <ele>68.9</ele>
        <time>2024-12-19T12:22:06Z</time>
      </trkpt>
      <trkpt lat="47.90434" lon="-2.44802">
        <ele>68.9</ele>
        <time>2024-12-19T12:22:07Z</time>
      </trkpt>
      <trkpt lat="47.90432" lon="-2.44802">
        <ele>68.9</ele>
        <time>2024-12-19T12:22:08Z</time>
      </trkpt>
      <trkpt lat="47.90431" lon="-2.44802">
        <ele>68.9</ele>
        <time>2024-12-19T12:22:09Z</time>
      </trkpt>
      <trkpt lat="47.9043" lon="-2.44802">
        <ele>68.9</ele>
        <time>2024-12-19T12:22:10Z</time>
      </trkpt>
      <trkpt lat="47.90429" lon="-2.44802">
        <ele>68.9</ele>
        <time>2024-12-19T12:22:11Z</time>
      </trkpt>
      <trkpt lat="47.90428" lon="-2.44803">
        <ele>68.9</ele>
        <time>2024-12-19T12:22:12Z</time>
      </trkpt>
      <trkpt lat="47.90427" lon="-2.44804">
        <ele>68.9</ele>
        <time>2024-12-19T12:22:13Z</time>
      </trkpt>
      <trkpt lat="47.90426" lon="-2.44805">
        <ele>69</ele>
        <time>2024-12-19T12:22:14Z</time>
      </trkpt>
      <trkpt lat="47.90424" lon="-2.44805">
        <ele>69</ele>
        <time>2024-12-19T12:22:15Z</time>
      </trkpt>
      <trkpt lat="47.90423" lon="-2.44806">
        <ele>69</ele>
        <time>2024-12-19T12:22:16Z</time>
      </trkpt>
      <trkpt lat="47.90421" lon="-2.44806">
        <ele>69</ele>
        <time>2024-12-19T12:22:17Z</time>
      </trkpt>
      <trkpt lat="47.9042" lon="-2.44806">
        <ele>69</ele>
        <time>2024-12-19T12:22:18Z</time>
      </trkpt>
      <trkpt lat="47.90419" lon="-2.44806">
        <ele>69</ele>
        <time>2024-12-19T12:22:19Z</time>
      </trkpt>
      <trkpt lat="47.90418" lon="-2.44807">
        <ele>69</ele>
        <time>2024-12-19T12:22:20Z</time>
      </trkpt>
      <trkpt lat="47.90418" lon="-2.44807">
        <ele>69.1</ele>
        <time>2024-12-19T12:22:21Z</time>
      </trkpt>
      <trkpt lat="47.90417" lon="-2.44808">
        <ele>69.1</ele>
        <time>2024-12-19T12:22:22Z</time>
      </trkpt>
      <trkpt lat="47.90417" lon="-2.44809">
        <ele>69.1</ele>
        <time>2024-12-19T12:22:23Z</time>
      </trkpt>
      <trkpt lat="47.90418" lon="-2.44809">
        <ele>69.1</ele>
        <time>2024-12-19T12:22:24Z</time>
      </trkpt>
      <trkpt lat="47.90418" lon="-2.44809">
        <ele>69.1</ele>
        <time>2024-12-19T12:22:25Z</time>
      </trkpt>
      <trkpt lat="47.90418" lon="-2.44809">
        <ele>69.1</ele>
        <time>2024-12-19T12:22:26Z</time>
      </trkpt>
      <trkpt lat="47.90418" lon="-2.44809">
        <ele>69.1</ele>
        <time>2024-12-19T12:22:27Z</time>
      </trkpt>
      <trkpt lat="47.90418" lon="-2.44809">
        <ele>69.1</ele>
        <time>2024-12-19T12:22:28Z</time>
      </trkpt>
      <trkpt lat="47.90418" lon="-2.44809">
        <ele>69.1</ele>
        <time>2024-12-19T12:22:29Z</time>
      </trkpt>
      <trkpt lat="47.90418" lon="-2.4481">
        <ele>69.1</ele>
        <time>2024-12-19T12:22:30Z</time>
      </trkpt>
      <trkpt lat="47.90418" lon="-2.4481">
        <ele>69.1</ele>
        <time>2024-12-19T12:22:31Z</time>
      </trkpt>
      <trkpt lat="47.90418" lon="-2.44809">
        <ele>69.1</ele>
        <time>2024-12-19T12:22:32Z</time>
      </trkpt>
      <trkpt lat="47.90418" lon="-2.44809">
        <ele>69.1</ele>
        <time>2024-12-19T12:22:33Z</time>
      </trkpt>
      <trkpt lat="47.90418" lon="-2.44809">
        <ele>69.1</ele>
        <time>2024-12-19T12:22:34Z</time>
      </trkpt>
      <trkpt lat="47.90418" lon="-2.44809">
        <ele>69.1</ele>
        <time>2024-12-19T12:22:35Z</time>
      </trkpt>
      <trkpt lat="47.90418" lon="-2.44809">
        <ele>69.1</ele>
        <time>2024-12-19T12:22:36Z</time>
      </trkpt>
      <trkpt lat="47.90418" lon="-2.44809">
        <ele>69.1</ele>
        <time>2024-12-19T12:22:37Z</time>
      </trkpt>
      <trkpt lat="47.90418" lon="-2.44809">
        <ele>69.1</ele>
        <time>2024-12-19T12:22:38Z</time>
      </trkpt>
      <trkpt lat="47.90418" lon="-2.44809">
        <ele>69.1</ele>
        <time>2024-12-19T12:22:39Z</time>
      </trkpt>
      <trkpt lat="47.90418" lon="-2.44809">
        <ele>69.1</ele>
        <time>2024-12-19T12:22:40Z</time>
      </trkpt>
      <trkpt lat="47.90418" lon="-2.44809">
        <ele>69.1</ele>
        <time>2024-12-19T12:22:41Z</time>
      </trkpt>
      <trkpt lat="47.90418" lon="-2.44809">
        <ele>69.1</ele>
        <time>2024-12-19T12:22:42Z</time>
      </trkpt>
      <trkpt lat="47.90418" lon="-2.44809">
        <ele>69.1</ele>
        <time>2024-12-19T12:22:43Z</time>
      </trkpt>
      <trkpt lat="47.90418" lon="-2.44809">
        <ele>69.1</ele>
        <time>2024-12-19T12:22:44Z</time>
      </trkpt>
      <trkpt lat="47.90418" lon="-2.44809">
        <ele>69.1</ele>
        <time>2024-12-19T12:22:45Z</time>
      </trkpt>
      <trkpt lat="47.90418" lon="-2.44809">
        <ele>69.1</ele>
        <time>2024-12-19T12:22:46Z</time>
      </trkpt>
      <trkpt lat="47.90419" lon="-2.44809">
        <ele>69.1</ele>
        <time>2024-12-19T12:22:47Z</time>
      </trkpt>
      <trkpt lat="47.90419" lon="-2.44809">
        <ele>69.1</ele>
        <time>2024-12-19T12:22:48Z</time>
      </trkpt>
      <trkpt lat="47.90419" lon="-2.44809">
        <ele>69.1</ele>
        <time>2024-12-19T12:22:49Z</time>
      </trkpt>
      <trkpt lat="47.90418" lon="-2.44809">
        <ele>69.1</ele>
        <time>2024-12-19T12:22:50Z</time>
      </trkpt>
      <trkpt lat="47.90418" lon="-2.44809">
        <ele>69.1</ele>
        <time>2024-12-19T12:22:51Z</time>
      </trkpt>
      <trkpt lat="47.90418" lon="-2.44809">
        <ele>69.1</ele>
        <time>2024-12-19T12:22:52Z</time>
      </trkpt>
      <trkpt lat="47.90418" lon="-2.44809">
        <ele>69.1</ele>
        <time>2024-12-19T12:22:53Z</time>
      </trkpt>
      <trkpt lat="47.90418" lon="-2.44809">
        <ele>69.1</ele>
        <time>2024-12-19T12:22:54Z</time>
      </trkpt>
      <trkpt lat="47.90418" lon="-2.44809">
        <ele>69.1</ele>
        <time>2024-12-19T12:22:55Z</time>
      </trkpt>
      <trkpt lat="47.90418" lon="-2.44809">
        <ele>69.1</ele>
        <time>2024-12-19T12:22:56Z</time>
      </trkpt>
      <trkpt lat="47.90417" lon="-2.4481">
        <ele>69.1</ele>
        <time>2024-12-19T12:22:57Z</time>
      </trkpt>
      <trkpt lat="47.90416" lon="-2.4481">
        <ele>69.1</ele>
        <time>2024-12-19T12:22:58Z</time>
      </trkpt>
      <trkpt lat="47.90415" lon="-2.44811">
        <ele>69.1</ele>
        <time>2024-12-19T12:22:59Z</time>
      </trkpt>
      <trkpt lat="47.90414" lon="-2.44812">
        <ele>69.1</ele>
        <time>2024-12-19T12:23:00Z</time>
      </trkpt>
      <trkpt lat="47.90414" lon="-2.44813">
        <ele>69.1</ele>
        <time>2024-12-19T12:23:01Z</time>
      </trkpt>
      <trkpt lat="47.90413" lon="-2.44814">
        <ele>69.1</ele>
        <time>2024-12-19T12:23:02Z</time>
      </trkpt>
      <trkpt lat="47.90412" lon="-2.44814">
        <ele>69.1</ele>
        <time>2024-12-19T12:23:03Z</time>
      </trkpt>
      <trkpt lat="47.90411" lon="-2.44815">
        <ele>69.1</ele>
        <time>2024-12-19T12:23:04Z</time>
      </trkpt>
      <trkpt lat="47.9041" lon="-2.44816">
        <ele>69.1</ele>
        <time>2024-12-19T12:23:05Z</time>
      </trkpt>
      <trkpt lat="47.90409" lon="-2.44817">
        <ele>69.1</ele>
        <time>2024-12-19T12:23:06Z</time>
      </trkpt>
      <trkpt lat="47.90408" lon="-2.44818">
        <ele>69.1</ele>
        <time>2024-12-19T12:23:07Z</time>
      </trkpt>
      <trkpt lat="47.90407" lon="-2.44818">
        <ele>69.1</ele>
        <time>2024-12-19T12:23:08Z</time>
      </trkpt>
      <trkpt lat="47.90406" lon="-2.44818">
        <ele>69.1</ele>
        <time>2024-12-19T12:23:09Z</time>
      </trkpt>
      <trkpt lat="47.90406" lon="-2.44818">
        <ele>69.1</ele>
        <time>2024-12-19T12:23:10Z</time>
      </trkpt>
      <trkpt lat="47.90405" lon="-2.44818">
        <ele>69</ele>
        <time>2024-12-19T12:23:11Z</time>
      </trkpt>
      <trkpt lat="47.90405" lon="-2.44818">
        <ele>69</ele>
        <time>2024-12-19T12:23:12Z</time>
      </trkpt>
      <trkpt lat="47.90405" lon="-2.44819">
        <ele>69.1</ele>
        <time>2024-12-19T12:23:13Z</time>
      </trkpt>
      <trkpt lat="47.90405" lon="-2.44819">
        <ele>69</ele>
        <time>2024-12-19T12:23:14Z</time>
      </trkpt>
      <trkpt lat="47.90405" lon="-2.44819">
        <ele>69</ele>
        <time>2024-12-19T12:23:15Z</time>
      </trkpt>
      <trkpt lat="47.90404" lon="-2.44819">
        <ele>69</ele>
        <time>2024-12-19T12:23:16Z</time>
      </trkpt>
      <trkpt lat="47.90404" lon="-2.4482">
        <ele>69</ele>
        <time>2024-12-19T12:23:17Z</time>
      </trkpt>
      <trkpt lat="47.90403" lon="-2.44821">
        <ele>69.1</ele>
        <time>2024-12-19T12:23:18Z</time>
      </trkpt>
      <trkpt lat="47.90402" lon="-2.44822">
        <ele>69.1</ele>
        <time>2024-12-19T12:23:19Z</time>
      </trkpt>
      <trkpt lat="47.90401" lon="-2.44823">
        <ele>69.1</ele>
        <time>2024-12-19T12:23:20Z</time>
      </trkpt>
      <trkpt lat="47.90401" lon="-2.44824">
        <ele>69.1</ele>
        <time>2024-12-19T12:23:21Z</time>
      </trkpt>
      <trkpt lat="47.904" lon="-2.44824">
        <ele>69.1</ele>
        <time>2024-12-19T12:23:22Z</time>
      </trkpt>
      <trkpt lat="47.90399" lon="-2.44825">
        <ele>69.1</ele>
        <time>2024-12-19T12:23:23Z</time>
      </trkpt>
      <trkpt lat="47.90399" lon="-2.44825">
        <ele>69.1</ele>
        <time>2024-12-19T12:23:24Z</time>
      </trkpt>
      <trkpt lat="47.90398" lon="-2.44826">
        <ele>69.1</ele>
        <time>2024-12-19T12:23:25Z</time>
      </trkpt>
      <trkpt lat="47.90397" lon="-2.44827">
        <ele>69</ele>
        <time>2024-12-19T12:23:26Z</time>
      </trkpt>
      <trkpt lat="47.90396" lon="-2.44827">
        <ele>69</ele>
        <time>2024-12-19T12:23:27Z</time>
      </trkpt>
      <trkpt lat="47.90396" lon="-2.44827">
        <ele>69</ele>
        <time>2024-12-19T12:23:28Z</time>
      </trkpt>
      <trkpt lat="47.90395" lon="-2.44827">
        <ele>69</ele>
        <time>2024-12-19T12:23:29Z</time>
      </trkpt>
      <trkpt lat="47.90393" lon="-2.44829">
        <ele>69</ele>
        <time>2024-12-19T12:23:30Z</time>
      </trkpt>
      <trkpt lat="47.90392" lon="-2.4483">
        <ele>69</ele>
        <time>2024-12-19T12:23:31Z</time>
      </trkpt>
      <trkpt lat="47.90391" lon="-2.44831">
        <ele>69</ele>
        <time>2024-12-19T12:23:32Z</time>
      </trkpt>
      <trkpt lat="47.90389" lon="-2.44832">
        <ele>69</ele>
        <time>2024-12-19T12:23:33Z</time>
      </trkpt>
      <trkpt lat="47.90388" lon="-2.44833">
        <ele>69</ele>
        <time>2024-12-19T12:23:34Z</time>
      </trkpt>
      <trkpt lat="47.90387" lon="-2.44835">
        <ele>69</ele>
        <time>2024-12-19T12:23:35Z</time>
      </trkpt>
      <trkpt lat="47.90386" lon="-2.44836">
        <ele>69.1</ele>
        <time>2024-12-19T12:23:36Z</time>
      </trkpt>
      <trkpt lat="47.90386" lon="-2.44836">
        <ele>69.1</ele>
        <time>2024-12-19T12:23:37Z</time>
      </trkpt>
      <trkpt lat="47.90385" lon="-2.44836">
        <ele>69.1</ele>
        <time>2024-12-19T12:23:38Z</time>
      </trkpt>
      <trkpt lat="47.90384" lon="-2.44837">
        <ele>69.1</ele>
        <time>2024-12-19T12:23:39Z</time>
      </trkpt>
      <trkpt lat="47.90383" lon="-2.44838">
        <ele>69.2</ele>
        <time>2024-12-19T12:23:40Z</time>
      </trkpt>
      <trkpt lat="47.90382" lon="-2.44839">
        <ele>69.2</ele>
        <time>2024-12-19T12:23:41Z</time>
      </trkpt>
      <trkpt lat="47.90381" lon="-2.4484">
        <ele>69.2</ele>
        <time>2024-12-19T12:23:42Z</time>
      </trkpt>
      <trkpt lat="47.9038" lon="-2.44841">
        <ele>69.3</ele>
        <time>2024-12-19T12:23:43Z</time>
      </trkpt>
      <trkpt lat="47.90378" lon="-2.44842">
        <ele>69.3</ele>
        <time>2024-12-19T12:23:44Z</time>
      </trkpt>
      <trkpt lat="47.90377" lon="-2.44843">
        <ele>69.3</ele>
        <time>2024-12-19T12:23:45Z</time>
      </trkpt>
      <trkpt lat="47.90376" lon="-2.44844">
        <ele>69.4</ele>
        <time>2024-12-19T12:23:46Z</time>
      </trkpt>
      <trkpt lat="47.90375" lon="-2.44845">
        <ele>69.4</ele>
        <time>2024-12-19T12:23:47Z</time>
      </trkpt>
      <trkpt lat="47.90373" lon="-2.44847">
        <ele>69.5</ele>
        <time>2024-12-19T12:23:48Z</time>
      </trkpt>
      <trkpt lat="47.90373" lon="-2.44848">
        <ele>69.5</ele>
        <time>2024-12-19T12:23:49Z</time>
      </trkpt>
      <trkpt lat="47.90372" lon="-2.44849">
        <ele>69.6</ele>
        <time>2024-12-19T12:23:50Z</time>
      </trkpt>
      <trkpt lat="47.90372" lon="-2.4485">
        <ele>69.6</ele>
        <time>2024-12-19T12:23:51Z</time>
      </trkpt>
      <trkpt lat="47.90371" lon="-2.4485">
        <ele>69.6</ele>
        <time>2024-12-19T12:23:52Z</time>
      </trkpt>
      <trkpt lat="47.90371" lon="-2.4485">
        <ele>69.6</ele>
        <time>2024-12-19T12:23:53Z</time>
      </trkpt>
      <trkpt lat="47.9037" lon="-2.44851">
        <ele>69.6</ele>
        <time>2024-12-19T12:23:54Z</time>
      </trkpt>
      <trkpt lat="47.90369" lon="-2.44853">
        <ele>69.7</ele>
        <time>2024-12-19T12:23:55Z</time>
      </trkpt>
      <trkpt lat="47.90368" lon="-2.44854">
        <ele>69.8</ele>
        <time>2024-12-19T12:23:56Z</time>
      </trkpt>
      <trkpt lat="47.90367" lon="-2.44855">
        <ele>69.8</ele>
        <time>2024-12-19T12:23:57Z</time>
      </trkpt>
      <trkpt lat="47.90366" lon="-2.44857">
        <ele>69.8</ele>
        <time>2024-12-19T12:23:58Z</time>
      </trkpt>
      <trkpt lat="47.90365" lon="-2.44857">
        <ele>69.9</ele>
        <time>2024-12-19T12:23:59Z</time>
      </trkpt>
      <trkpt lat="47.90364" lon="-2.44858">
        <ele>69.9</ele>
        <time>2024-12-19T12:24:00Z</time>
      </trkpt>
      <trkpt lat="47.90363" lon="-2.44859">
        <ele>69.9</ele>
        <time>2024-12-19T12:24:01Z</time>
      </trkpt>
      <trkpt lat="47.90362" lon="-2.4486">
        <ele>70</ele>
        <time>2024-12-19T12:24:02Z</time>
      </trkpt>
      <trkpt lat="47.90361" lon="-2.44861">
        <ele>70</ele>
        <time>2024-12-19T12:24:03Z</time>
      </trkpt>
      <trkpt lat="47.9036" lon="-2.44862">
        <ele>70</ele>
        <time>2024-12-19T12:24:04Z</time>
      </trkpt>
      <trkpt lat="47.90359" lon="-2.44862">
        <ele>69.9</ele>
        <time>2024-12-19T12:24:05Z</time>
      </trkpt>
      <trkpt lat="47.90358" lon="-2.44864">
        <ele>69.9</ele>
        <time>2024-12-19T12:24:06Z</time>
      </trkpt>
      <trkpt lat="47.90358" lon="-2.44865">
        <ele>69.9</ele>
        <time>2024-12-19T12:24:07Z</time>
      </trkpt>
      <trkpt lat="47.90357" lon="-2.44868">
        <ele>69.9</ele>
        <time>2024-12-19T12:24:08Z</time>
      </trkpt>
      <trkpt lat="47.90357" lon="-2.44871">
        <ele>69.9</ele>
        <time>2024-12-19T12:24:09Z</time>
      </trkpt>
      <trkpt lat="47.90356" lon="-2.44873">
        <ele>69.9</ele>
        <time>2024-12-19T12:24:10Z</time>
      </trkpt>
      <trkpt lat="47.90356" lon="-2.44876">
        <ele>69.9</ele>
        <time>2024-12-19T12:24:11Z</time>
      </trkpt>
      <trkpt lat="47.90356" lon="-2.44877">
        <ele>69.9</ele>
        <time>2024-12-19T12:24:12Z</time>
      </trkpt>
      <trkpt lat="47.90355" lon="-2.44878">
        <ele>69.9</ele>
        <time>2024-12-19T12:24:13Z</time>
      </trkpt>
      <trkpt lat="47.90355" lon="-2.44879">
        <ele>69.9</ele>
        <time>2024-12-19T12:24:14Z</time>
      </trkpt>
      <trkpt lat="47.90355" lon="-2.4488">
        <ele>69.9</ele>
        <time>2024-12-19T12:24:15Z</time>
      </trkpt>
      <trkpt lat="47.90355" lon="-2.44881">
        <ele>69.9</ele>
        <time>2024-12-19T12:24:16Z</time>
      </trkpt>
      <trkpt lat="47.90355" lon="-2.44882">
        <ele>69.9</ele>
        <time>2024-12-19T12:24:17Z</time>
      </trkpt>
      <trkpt lat="47.90355" lon="-2.44884">
        <ele>70</ele>
        <time>2024-12-19T12:24:18Z</time>
      </trkpt>
      <trkpt lat="47.90355" lon="-2.44884">
        <ele>70</ele>
        <time>2024-12-19T12:24:19Z</time>
      </trkpt>
      <trkpt lat="47.90355" lon="-2.44885">
        <ele>70</ele>
        <time>2024-12-19T12:24:20Z</time>
      </trkpt>
      <trkpt lat="47.90355" lon="-2.44886">
        <ele>70</ele>
        <time>2024-12-19T12:24:21Z</time>
      </trkpt>
      <trkpt lat="47.90355" lon="-2.44887">
        <ele>70</ele>
        <time>2024-12-19T12:24:22Z</time>
      </trkpt>
      <trkpt lat="47.90355" lon="-2.44887">
        <ele>70</ele>
        <time>2024-12-19T12:24:23Z</time>
      </trkpt>
      <trkpt lat="47.90355" lon="-2.44888">
        <ele>70</ele>
        <time>2024-12-19T12:24:24Z</time>
      </trkpt>
      <trkpt lat="47.90355" lon="-2.44889">
        <ele>70</ele>
        <time>2024-12-19T12:24:25Z</time>
      </trkpt>
      <trkpt lat="47.90355" lon="-2.44889">
        <ele>70</ele>
        <time>2024-12-19T12:24:26Z</time>
      </trkpt>
      <trkpt lat="47.90355" lon="-2.4489">
        <ele>70</ele>
        <time>2024-12-19T12:24:27Z</time>
      </trkpt>
      <trkpt lat="47.90355" lon="-2.4489">
        <ele>70</ele>
        <time>2024-12-19T12:24:28Z</time>
      </trkpt>
      <trkpt lat="47.90355" lon="-2.44891">
        <ele>70</ele>
        <time>2024-12-19T12:24:29Z</time>
      </trkpt>
      <trkpt lat="47.90355" lon="-2.44891">
        <ele>70</ele>
        <time>2024-12-19T12:24:30Z</time>
      </trkpt>
      <trkpt lat="47.90354" lon="-2.44892">
        <ele>70</ele>
        <time>2024-12-19T12:24:31Z</time>
      </trkpt>
      <trkpt lat="47.90354" lon="-2.44893">
        <ele>70</ele>
        <time>2024-12-19T12:24:32Z</time>
      </trkpt>
      <trkpt lat="47.90353" lon="-2.44894">
        <ele>70</ele>
        <time>2024-12-19T12:24:33Z</time>
      </trkpt>
      <trkpt lat="47.90352" lon="-2.44895">
        <ele>70</ele>
        <time>2024-12-19T12:24:34Z</time>
      </trkpt>
      <trkpt lat="47.90352" lon="-2.44897">
        <ele>70</ele>
        <time>2024-12-19T12:24:35Z</time>
      </trkpt>
      <trkpt lat="47.90351" lon="-2.44898">
        <ele>70</ele>
        <time>2024-12-19T12:24:36Z</time>
      </trkpt>
      <trkpt lat="47.90351" lon="-2.449">
        <ele>70</ele>
        <time>2024-12-19T12:24:37Z</time>
      </trkpt>
      <trkpt lat="47.9035" lon="-2.44902">
        <ele>70</ele>
        <time>2024-12-19T12:24:38Z</time>
      </trkpt>
      <trkpt lat="47.9035" lon="-2.44903">
        <ele>70</ele>
        <time>2024-12-19T12:24:39Z</time>
      </trkpt>
      <trkpt lat="47.90349" lon="-2.44905">
        <ele>70</ele>
        <time>2024-12-19T12:24:40Z</time>
      </trkpt>
      <trkpt lat="47.90349" lon="-2.44907">
        <ele>70</ele>
        <time>2024-12-19T12:24:41Z</time>
      </trkpt>
      <trkpt lat="47.90348" lon="-2.44908">
        <ele>70</ele>
        <time>2024-12-19T12:24:42Z</time>
      </trkpt>
      <trkpt lat="47.90348" lon="-2.44909">
        <ele>70</ele>
        <time>2024-12-19T12:24:43Z</time>
      </trkpt>
      <trkpt lat="47.90348" lon="-2.44912">
        <ele>70</ele>
        <time>2024-12-19T12:24:44Z</time>
      </trkpt>
      <trkpt lat="47.90347" lon="-2.44913">
        <ele>70</ele>
        <time>2024-12-19T12:24:45Z</time>
      </trkpt>
      <trkpt lat="47.90347" lon="-2.44914">
        <ele>70</ele>
        <time>2024-12-19T12:24:46Z</time>
      </trkpt>
      <trkpt lat="47.90346" lon="-2.44916">
        <ele>70</ele>
        <time>2024-12-19T12:24:47Z</time>
      </trkpt>
      <trkpt lat="47.90346" lon="-2.44917">
        <ele>70</ele>
        <time>2024-12-19T12:24:48Z</time>
      </trkpt>
      <trkpt lat="47.90345" lon="-2.44918">
        <ele>70</ele>
        <time>2024-12-19T12:24:49Z</time>
      </trkpt>
      <trkpt lat="47.90345" lon="-2.44918">
        <ele>70</ele>
        <time>2024-12-19T12:24:50Z</time>
      </trkpt>
      <trkpt lat="47.90344" lon="-2.44919">
        <ele>70</ele>
        <time>2024-12-19T12:24:51Z</time>
      </trkpt>
      <trkpt lat="47.90344" lon="-2.44921">
        <ele>70.1</ele>
        <time>2024-12-19T12:24:52Z</time>
      </trkpt>
      <trkpt lat="47.90343" lon="-2.44922">
        <ele>70.1</ele>
        <time>2024-12-19T12:24:53Z</time>
      </trkpt>
      <trkpt lat="47.90342" lon="-2.44925">
        <ele>70.1</ele>
        <time>2024-12-19T12:24:54Z</time>
      </trkpt>
      <trkpt lat="47.90341" lon="-2.44926">
        <ele>70.1</ele>
        <time>2024-12-19T12:24:55Z</time>
      </trkpt>
      <trkpt lat="47.9034" lon="-2.44928">
        <ele>70.1</ele>
        <time>2024-12-19T12:24:56Z</time>
      </trkpt>
      <trkpt lat="47.90339" lon="-2.44929">
        <ele>70.1</ele>
        <time>2024-12-19T12:24:57Z</time>
      </trkpt>
      <trkpt lat="47.90339" lon="-2.4493">
        <ele>70.1</ele>
        <time>2024-12-19T12:24:58Z</time>
      </trkpt>
      <trkpt lat="47.90338" lon="-2.44931">
        <ele>70.1</ele>
        <time>2024-12-19T12:24:59Z</time>
      </trkpt>
      <trkpt lat="47.90337" lon="-2.44933">
        <ele>70.1</ele>
        <time>2024-12-19T12:25:00Z</time>
      </trkpt>
      <trkpt lat="47.90336" lon="-2.44935">
        <ele>70.1</ele>
        <time>2024-12-19T12:25:01Z</time>
      </trkpt>
      <trkpt lat="47.90335" lon="-2.44936">
        <ele>70</ele>
        <time>2024-12-19T12:25:02Z</time>
      </trkpt>
      <trkpt lat="47.90333" lon="-2.44937">
        <ele>70</ele>
        <time>2024-12-19T12:25:03Z</time>
      </trkpt>
      <trkpt lat="47.90332" lon="-2.44938">
        <ele>69.9</ele>
        <time>2024-12-19T12:25:04Z</time>
      </trkpt>
      <trkpt lat="47.9033" lon="-2.44938">
        <ele>69.9</ele>
        <time>2024-12-19T12:25:05Z</time>
      </trkpt>
      <trkpt lat="47.90329" lon="-2.44938">
        <ele>69.9</ele>
        <time>2024-12-19T12:25:06Z</time>
      </trkpt>
      <trkpt lat="47.90328" lon="-2.44937">
        <ele>69.8</ele>
        <time>2024-12-19T12:25:07Z</time>
      </trkpt>
      <trkpt lat="47.90327" lon="-2.44936">
        <ele>69.8</ele>
        <time>2024-12-19T12:25:08Z</time>
      </trkpt>
      <trkpt lat="47.90327" lon="-2.44935">
        <ele>69.8</ele>
        <time>2024-12-19T12:25:09Z</time>
      </trkpt>
      <trkpt lat="47.90326" lon="-2.44934">
        <ele>69.7</ele>
        <time>2024-12-19T12:25:10Z</time>
      </trkpt>
      <trkpt lat="47.90325" lon="-2.44934">
        <ele>69.7</ele>
        <time>2024-12-19T12:25:11Z</time>
      </trkpt>
      <trkpt lat="47.90324" lon="-2.44933">
        <ele>69.7</ele>
        <time>2024-12-19T12:25:12Z</time>
      </trkpt>
      <trkpt lat="47.90324" lon="-2.44933">
        <ele>69.7</ele>
        <time>2024-12-19T12:25:13Z</time>
      </trkpt>
      <trkpt lat="47.90324" lon="-2.44934">
        <ele>69.6</ele>
        <time>2024-12-19T12:25:14Z</time>
      </trkpt>
      <trkpt lat="47.90323" lon="-2.44934">
        <ele>69.6</ele>
        <time>2024-12-19T12:25:15Z</time>
      </trkpt>
      <trkpt lat="47.90323" lon="-2.44934">
        <ele>69.6</ele>
        <time>2024-12-19T12:25:16Z</time>
      </trkpt>
      <trkpt lat="47.90323" lon="-2.44934">
        <ele>69.6</ele>
        <time>2024-12-19T12:25:17Z</time>
      </trkpt>
      <trkpt lat="47.90323" lon="-2.44934">
        <ele>69.6</ele>
        <time>2024-12-19T12:25:18Z</time>
      </trkpt>
      <trkpt lat="47.90322" lon="-2.44934">
        <ele>69.6</ele>
        <time>2024-12-19T12:25:19Z</time>
      </trkpt>
      <trkpt lat="47.90322" lon="-2.44934">
        <ele>69.6</ele>
        <time>2024-12-19T12:25:20Z</time>
      </trkpt>
      <trkpt lat="47.90321" lon="-2.44934">
        <ele>69.5</ele>
        <time>2024-12-19T12:25:21Z</time>
      </trkpt>
      <trkpt lat="47.90319" lon="-2.44934">
        <ele>69.5</ele>
        <time>2024-12-19T12:25:22Z</time>
      </trkpt>
      <trkpt lat="47.90318" lon="-2.44934">
        <ele>69.4</ele>
        <time>2024-12-19T12:25:23Z</time>
      </trkpt>
      <trkpt lat="47.90317" lon="-2.44935">
        <ele>69.4</ele>
        <time>2024-12-19T12:25:24Z</time>
      </trkpt>
      <trkpt lat="47.90316" lon="-2.44937">
        <ele>69.4</ele>
        <time>2024-12-19T12:25:25Z</time>
      </trkpt>
      <trkpt lat="47.90315" lon="-2.44938">
        <ele>69.3</ele>
        <time>2024-12-19T12:25:26Z</time>
      </trkpt>
      <trkpt lat="47.90315" lon="-2.44939">
        <ele>69.3</ele>
        <time>2024-12-19T12:25:27Z</time>
      </trkpt>
      <trkpt lat="47.90314" lon="-2.4494">
        <ele>69.3</ele>
        <time>2024-12-19T12:25:28Z</time>
      </trkpt>
      <trkpt lat="47.90314" lon="-2.44941">
        <ele>69.3</ele>
        <time>2024-12-19T12:25:29Z</time>
      </trkpt>
      <trkpt lat="47.90314" lon="-2.44942">
        <ele>69.3</ele>
        <time>2024-12-19T12:25:30Z</time>
      </trkpt>
      <trkpt lat="47.90313" lon="-2.44944">
        <ele>69.3</ele>
        <time>2024-12-19T12:25:31Z</time>
      </trkpt>
      <trkpt lat="47.90312" lon="-2.44945">
        <ele>69.2</ele>
        <time>2024-12-19T12:25:32Z</time>
      </trkpt>
      <trkpt lat="47.9031" lon="-2.44946">
        <ele>69.2</ele>
        <time>2024-12-19T12:25:33Z</time>
      </trkpt>
      <trkpt lat="47.90309" lon="-2.44946">
        <ele>69.1</ele>
        <time>2024-12-19T12:25:34Z</time>
      </trkpt>
      <trkpt lat="47.90308" lon="-2.44947">
        <ele>69.1</ele>
        <time>2024-12-19T12:25:35Z</time>
      </trkpt>
      <trkpt lat="47.90307" lon="-2.44947">
        <ele>69</ele>
        <time>2024-12-19T12:25:36Z</time>
      </trkpt>
      <trkpt lat="47.90305" lon="-2.44948">
        <ele>69</ele>
        <time>2024-12-19T12:25:37Z</time>
      </trkpt>
      <trkpt lat="47.90305" lon="-2.44949">
        <ele>69</ele>
        <time>2024-12-19T12:25:38Z</time>
      </trkpt>
      <trkpt lat="47.90304" lon="-2.4495">
        <ele>68.9</ele>
        <time>2024-12-19T12:25:39Z</time>
      </trkpt>
      <trkpt lat="47.90303" lon="-2.44952">
        <ele>68.9</ele>
        <time>2024-12-19T12:25:40Z</time>
      </trkpt>
      <trkpt lat="47.90302" lon="-2.44955">
        <ele>68.9</ele>
        <time>2024-12-19T12:25:41Z</time>
      </trkpt>
      <trkpt lat="47.90302" lon="-2.44957">
        <ele>68.9</ele>
        <time>2024-12-19T12:25:42Z</time>
      </trkpt>
      <trkpt lat="47.90301" lon="-2.44959">
        <ele>68.8</ele>
        <time>2024-12-19T12:25:43Z</time>
      </trkpt>
      <trkpt lat="47.90301" lon="-2.44961">
        <ele>68.8</ele>
        <time>2024-12-19T12:25:44Z</time>
      </trkpt>
      <trkpt lat="47.903" lon="-2.44964">
        <ele>68.8</ele>
        <time>2024-12-19T12:25:45Z</time>
      </trkpt>
      <trkpt lat="47.903" lon="-2.44967">
        <ele>68.8</ele>
        <time>2024-12-19T12:25:46Z</time>
      </trkpt>
      <trkpt lat="47.90299" lon="-2.44969">
        <ele>68.8</ele>
        <time>2024-12-19T12:25:47Z</time>
      </trkpt>
      <trkpt lat="47.90299" lon="-2.4497">
        <ele>68.8</ele>
        <time>2024-12-19T12:25:48Z</time>
      </trkpt>
      <trkpt lat="47.90299" lon="-2.44972">
        <ele>68.7</ele>
        <time>2024-12-19T12:25:49Z</time>
      </trkpt>
      <trkpt lat="47.90298" lon="-2.44974">
        <ele>68.7</ele>
        <time>2024-12-19T12:25:50Z</time>
      </trkpt>
      <trkpt lat="47.90298" lon="-2.44975">
        <ele>68.7</ele>
        <time>2024-12-19T12:25:51Z</time>
      </trkpt>
      <trkpt lat="47.90297" lon="-2.44978">
        <ele>68.7</ele>
        <time>2024-12-19T12:25:52Z</time>
      </trkpt>
      <trkpt lat="47.90297" lon="-2.4498">
        <ele>68.7</ele>
        <time>2024-12-19T12:25:53Z</time>
      </trkpt>
      <trkpt lat="47.90296" lon="-2.44982">
        <ele>68.7</ele>
        <time>2024-12-19T12:25:54Z</time>
      </trkpt>
      <trkpt lat="47.90296" lon="-2.44983">
        <ele>68.7</ele>
        <time>2024-12-19T12:25:55Z</time>
      </trkpt>
      <trkpt lat="47.90295" lon="-2.44985">
        <ele>68.6</ele>
        <time>2024-12-19T12:25:56Z</time>
      </trkpt>
      <trkpt lat="47.90295" lon="-2.44986">
        <ele>68.6</ele>
        <time>2024-12-19T12:25:57Z</time>
      </trkpt>
      <trkpt lat="47.90295" lon="-2.44987">
        <ele>68.6</ele>
        <time>2024-12-19T12:25:58Z</time>
      </trkpt>
      <trkpt lat="47.90295" lon="-2.44989">
        <ele>68.6</ele>
        <time>2024-12-19T12:25:59Z</time>
      </trkpt>
      <trkpt lat="47.90294" lon="-2.4499">
        <ele>68.6</ele>
        <time>2024-12-19T12:26:00Z</time>
      </trkpt>
      <trkpt lat="47.90294" lon="-2.44991">
        <ele>68.6</ele>
        <time>2024-12-19T12:26:01Z</time>
      </trkpt>
      <trkpt lat="47.90293" lon="-2.44993">
        <ele>68.6</ele>
        <time>2024-12-19T12:26:02Z</time>
      </trkpt>
      <trkpt lat="47.90293" lon="-2.44995">
        <ele>68.5</ele>
        <time>2024-12-19T12:26:03Z</time>
      </trkpt>
      <trkpt lat="47.90293" lon="-2.44997">
        <ele>68.5</ele>
        <time>2024-12-19T12:26:04Z</time>
      </trkpt>
      <trkpt lat="47.90292" lon="-2.44999">
        <ele>68.5</ele>
        <time>2024-12-19T12:26:05Z</time>
      </trkpt>
      <trkpt lat="47.90292" lon="-2.45001">
        <ele>68.5</ele>
        <time>2024-12-19T12:26:06Z</time>
      </trkpt>
      <trkpt lat="47.90291" lon="-2.45002">
        <ele>68.4</ele>
        <time>2024-12-19T12:26:07Z</time>
      </trkpt>
      <trkpt lat="47.90291" lon="-2.45004">
        <ele>68.3</ele>
        <time>2024-12-19T12:26:08Z</time>
      </trkpt>
      <trkpt lat="47.9029" lon="-2.45005">
        <ele>68.3</ele>
        <time>2024-12-19T12:26:09Z</time>
      </trkpt>
      <trkpt lat="47.9029" lon="-2.45007">
        <ele>68.2</ele>
        <time>2024-12-19T12:26:10Z</time>
      </trkpt>
      <trkpt lat="47.90289" lon="-2.45009">
        <ele>68.1</ele>
        <time>2024-12-19T12:26:11Z</time>
      </trkpt>
      <trkpt lat="47.90289" lon="-2.45011">
        <ele>68</ele>
        <time>2024-12-19T12:26:12Z</time>
      </trkpt>
      <trkpt lat="47.90289" lon="-2.45013">
        <ele>67.9</ele>
        <time>2024-12-19T12:26:13Z</time>
      </trkpt>
      <trkpt lat="47.90288" lon="-2.45015">
        <ele>67.8</ele>
        <time>2024-12-19T12:26:14Z</time>
      </trkpt>
      <trkpt lat="47.90288" lon="-2.45017">
        <ele>67.8</ele>
        <time>2024-12-19T12:26:15Z</time>
      </trkpt>
      <trkpt lat="47.90287" lon="-2.45019">
        <ele>67.7</ele>
        <time>2024-12-19T12:26:16Z</time>
      </trkpt>
      <trkpt lat="47.90287" lon="-2.45021">
        <ele>67.6</ele>
        <time>2024-12-19T12:26:17Z</time>
      </trkpt>
      <trkpt lat="47.90286" lon="-2.45023">
        <ele>67.5</ele>
        <time>2024-12-19T12:26:18Z</time>
      </trkpt>
      <trkpt lat="47.90286" lon="-2.45024">
        <ele>67.4</ele>
        <time>2024-12-19T12:26:19Z</time>
      </trkpt>
      <trkpt lat="47.90286" lon="-2.45027">
        <ele>67.3</ele>
        <time>2024-12-19T12:26:20Z</time>
      </trkpt>
      <trkpt lat="47.90285" lon="-2.45028">
        <ele>67.3</ele>
        <time>2024-12-19T12:26:21Z</time>
      </trkpt>
      <trkpt lat="47.90285" lon="-2.4503">
        <ele>67.2</ele>
        <time>2024-12-19T12:26:22Z</time>
      </trkpt>
      <trkpt lat="47.90285" lon="-2.45032">
        <ele>67.2</ele>
        <time>2024-12-19T12:26:23Z</time>
      </trkpt>
      <trkpt lat="47.90285" lon="-2.45034">
        <ele>67.1</ele>
        <time>2024-12-19T12:26:24Z</time>
      </trkpt>
      <trkpt lat="47.90284" lon="-2.45036">
        <ele>67</ele>
        <time>2024-12-19T12:26:25Z</time>
      </trkpt>
      <trkpt lat="47.90284" lon="-2.45038">
        <ele>66.9</ele>
        <time>2024-12-19T12:26:26Z</time>
      </trkpt>
      <trkpt lat="47.90284" lon="-2.4504">
        <ele>66.9</ele>
        <time>2024-12-19T12:26:27Z</time>
      </trkpt>
      <trkpt lat="47.90284" lon="-2.45042">
        <ele>66.8</ele>
        <time>2024-12-19T12:26:28Z</time>
      </trkpt>
      <trkpt lat="47.90283" lon="-2.45044">
        <ele>66.7</ele>
        <time>2024-12-19T12:26:29Z</time>
      </trkpt>
      <trkpt lat="47.90283" lon="-2.45046">
        <ele>66.6</ele>
        <time>2024-12-19T12:26:30Z</time>
      </trkpt>
      <trkpt lat="47.90283" lon="-2.45048">
        <ele>66.6</ele>
        <time>2024-12-19T12:26:31Z</time>
      </trkpt>
      <trkpt lat="47.90282" lon="-2.4505">
        <ele>66.5</ele>
        <time>2024-12-19T12:26:32Z</time>
      </trkpt>
      <trkpt lat="47.90282" lon="-2.45051">
        <ele>66.4</ele>
        <time>2024-12-19T12:26:33Z</time>
      </trkpt>
      <trkpt lat="47.90281" lon="-2.45053">
        <ele>66.3</ele>
        <time>2024-12-19T12:26:34Z</time>
      </trkpt>
      <trkpt lat="47.90281" lon="-2.45054">
        <ele>66.3</ele>
        <time>2024-12-19T12:26:35Z</time>
      </trkpt>
      <trkpt lat="47.9028" lon="-2.45056">
        <ele>66.2</ele>
        <time>2024-12-19T12:26:36Z</time>
      </trkpt>
      <trkpt lat="47.9028" lon="-2.45057">
        <ele>66.1</ele>
        <time>2024-12-19T12:26:37Z</time>
      </trkpt>
      <trkpt lat="47.90279" lon="-2.45058">
        <ele>66</ele>
        <time>2024-12-19T12:26:38Z</time>
      </trkpt>
      <trkpt lat="47.90279" lon="-2.4506">
        <ele>65.9</ele>
        <time>2024-12-19T12:26:39Z</time>
      </trkpt>
      <trkpt lat="47.90279" lon="-2.45061">
        <ele>65.9</ele>
        <time>2024-12-19T12:26:40Z</time>
      </trkpt>
      <trkpt lat="47.90278" lon="-2.45063">
        <ele>65.8</ele>
        <time>2024-12-19T12:26:41Z</time>
      </trkpt>
      <trkpt lat="47.90278" lon="-2.45065">
        <ele>65.7</ele>
        <time>2024-12-19T12:26:42Z</time>
      </trkpt>
      <trkpt lat="47.90278" lon="-2.45066">
        <ele>65.6</ele>
        <time>2024-12-19T12:26:43Z</time>
      </trkpt>
      <trkpt lat="47.90277" lon="-2.45068">
        <ele>65.5</ele>
        <time>2024-12-19T12:26:44Z</time>
      </trkpt>
      <trkpt lat="47.90277" lon="-2.4507">
        <ele>65.5</ele>
        <time>2024-12-19T12:26:45Z</time>
      </trkpt>
      <trkpt lat="47.90277" lon="-2.45071">
        <ele>65.4</ele>
        <time>2024-12-19T12:26:46Z</time>
      </trkpt>
      <trkpt lat="47.90276" lon="-2.45073">
        <ele>65.3</ele>
        <time>2024-12-19T12:26:47Z</time>
      </trkpt>
      <trkpt lat="47.90276" lon="-2.45075">
        <ele>65.3</ele>
        <time>2024-12-19T12:26:48Z</time>
      </trkpt>
      <trkpt lat="47.90276" lon="-2.45076">
        <ele>65.2</ele>
        <time>2024-12-19T12:26:49Z</time>
      </trkpt>
      <trkpt lat="47.90275" lon="-2.45078">
        <ele>65.1</ele>
        <time>2024-12-19T12:26:50Z</time>
      </trkpt>
      <trkpt lat="47.90275" lon="-2.4508">
        <ele>65</ele>
        <time>2024-12-19T12:26:51Z</time>
      </trkpt>
      <trkpt lat="47.90275" lon="-2.45081">
        <ele>65</ele>
        <time>2024-12-19T12:26:52Z</time>
      </trkpt>
      <trkpt lat="47.90275" lon="-2.45083">
        <ele>64.9</ele>
        <time>2024-12-19T12:26:53Z</time>
      </trkpt>
      <trkpt lat="47.90275" lon="-2.45085">
        <ele>64.8</ele>
        <time>2024-12-19T12:26:54Z</time>
      </trkpt>
      <trkpt lat="47.90274" lon="-2.45086">
        <ele>64.8</ele>
        <time>2024-12-19T12:26:55Z</time>
      </trkpt>
      <trkpt lat="47.90273" lon="-2.4509">
        <ele>64.6</ele>
        <time>2024-12-19T12:26:57Z</time>
      </trkpt>
      <trkpt lat="47.90273" lon="-2.45093">
        <ele>64.5</ele>
        <time>2024-12-19T12:26:58Z</time>
      </trkpt>
      <trkpt lat="47.90273" lon="-2.45095">
        <ele>64.4</ele>
        <time>2024-12-19T12:26:59Z</time>
      </trkpt>
      <trkpt lat="47.90272" lon="-2.45097">
        <ele>64.3</ele>
        <time>2024-12-19T12:27:00Z</time>
      </trkpt>
      <trkpt lat="47.90272" lon="-2.45099">
        <ele>64.2</ele>
        <time>2024-12-19T12:27:01Z</time>
      </trkpt>
      <trkpt lat="47.90272" lon="-2.45101">
        <ele>64.1</ele>
        <time>2024-12-19T12:27:02Z</time>
      </trkpt>
      <trkpt lat="47.90272" lon="-2.45103">
        <ele>64.1</ele>
        <time>2024-12-19T12:27:03Z</time>
      </trkpt>
      <trkpt lat="47.90272" lon="-2.45105">
        <ele>64</ele>
        <time>2024-12-19T12:27:04Z</time>
      </trkpt>
      <trkpt lat="47.90272" lon="-2.45107">
        <ele>63.9</ele>
        <time>2024-12-19T12:27:05Z</time>
      </trkpt>
      <trkpt lat="47.90271" lon="-2.45109">
        <ele>63.8</ele>
        <time>2024-12-19T12:27:06Z</time>
      </trkpt>
      <trkpt lat="47.90271" lon="-2.45111">
        <ele>63.8</ele>
        <time>2024-12-19T12:27:07Z</time>
      </trkpt>
      <trkpt lat="47.90271" lon="-2.45112">
        <ele>63.7</ele>
        <time>2024-12-19T12:27:08Z</time>
      </trkpt>
      <trkpt lat="47.90271" lon="-2.45114">
        <ele>63.7</ele>
        <time>2024-12-19T12:27:09Z</time>
      </trkpt>
      <trkpt lat="47.9027" lon="-2.45115">
        <ele>63.7</ele>
        <time>2024-12-19T12:27:10Z</time>
      </trkpt>
      <trkpt lat="47.9027" lon="-2.45117">
        <ele>63.7</ele>
        <time>2024-12-19T12:27:11Z</time>
      </trkpt>
      <trkpt lat="47.9027" lon="-2.45119">
        <ele>63.7</ele>
        <time>2024-12-19T12:27:12Z</time>
      </trkpt>
      <trkpt lat="47.9027" lon="-2.45121">
        <ele>63.7</ele>
        <time>2024-12-19T12:27:13Z</time>
      </trkpt>
      <trkpt lat="47.9027" lon="-2.45123">
        <ele>63.7</ele>
        <time>2024-12-19T12:27:14Z</time>
      </trkpt>
      <trkpt lat="47.90269" lon="-2.45125">
        <ele>63.7</ele>
        <time>2024-12-19T12:27:15Z</time>
      </trkpt>
      <trkpt lat="47.90269" lon="-2.45127">
        <ele>63.7</ele>
        <time>2024-12-19T12:27:16Z</time>
      </trkpt>
      <trkpt lat="47.90269" lon="-2.45128">
        <ele>63.7</ele>
        <time>2024-12-19T12:27:17Z</time>
      </trkpt>
      <trkpt lat="47.90268" lon="-2.4513">
        <ele>63.6</ele>
        <time>2024-12-19T12:27:18Z</time>
      </trkpt>
      <trkpt lat="47.90268" lon="-2.45131">
        <ele>63.6</ele>
        <time>2024-12-19T12:27:19Z</time>
      </trkpt>
      <trkpt lat="47.90267" lon="-2.45132">
        <ele>63.6</ele>
        <time>2024-12-19T12:27:20Z</time>
      </trkpt>
      <trkpt lat="47.90267" lon="-2.45133">
        <ele>63.6</ele>
        <time>2024-12-19T12:27:21Z</time>
      </trkpt>
      <trkpt lat="47.90266" lon="-2.45135">
        <ele>63.6</ele>
        <time>2024-12-19T12:27:22Z</time>
      </trkpt>
      <trkpt lat="47.90266" lon="-2.45138">
        <ele>63.6</ele>
        <time>2024-12-19T12:27:23Z</time>
      </trkpt>
      <trkpt lat="47.90266" lon="-2.4514">
        <ele>63.6</ele>
        <time>2024-12-19T12:27:24Z</time>
      </trkpt>
      <trkpt lat="47.90266" lon="-2.45143">
        <ele>63.7</ele>
        <time>2024-12-19T12:27:25Z</time>
      </trkpt>
      <trkpt lat="47.90265" lon="-2.45145">
        <ele>63.8</ele>
        <time>2024-12-19T12:27:26Z</time>
      </trkpt>
      <trkpt lat="47.90265" lon="-2.45147">
        <ele>63.8</ele>
        <time>2024-12-19T12:27:27Z</time>
      </trkpt>
      <trkpt lat="47.90265" lon="-2.45149">
        <ele>63.9</ele>
        <time>2024-12-19T12:27:28Z</time>
      </trkpt>
      <trkpt lat="47.90265" lon="-2.45151">
        <ele>64</ele>
        <time>2024-12-19T12:27:29Z</time>
      </trkpt>
      <trkpt lat="47.90265" lon="-2.45154">
        <ele>64.1</ele>
        <time>2024-12-19T12:27:30Z</time>
      </trkpt>
      <trkpt lat="47.90264" lon="-2.45156">
        <ele>64.1</ele>
        <time>2024-12-19T12:27:31Z</time>
      </trkpt>
      <trkpt lat="47.90265" lon="-2.45164">
        <ele>64.4</ele>
        <time>2024-12-19T12:27:35Z</time>
      </trkpt>
      <trkpt lat="47.90265" lon="-2.45166">
        <ele>64.5</ele>
        <time>2024-12-19T12:27:36Z</time>
      </trkpt>
      <trkpt lat="47.90264" lon="-2.45168">
        <ele>64.6</ele>
        <time>2024-12-19T12:27:37Z</time>
      </trkpt>
      <trkpt lat="47.90264" lon="-2.45169">
        <ele>64.7</ele>
        <time>2024-12-19T12:27:38Z</time>
      </trkpt>
      <trkpt lat="47.90264" lon="-2.45171">
        <ele>64.8</ele>
        <time>2024-12-19T12:27:39Z</time>
      </trkpt>
      <trkpt lat="47.90264" lon="-2.45172">
        <ele>64.9</ele>
        <time>2024-12-19T12:27:40Z</time>
      </trkpt>
      <trkpt lat="47.90264" lon="-2.45173">
        <ele>65</ele>
        <time>2024-12-19T12:27:41Z</time>
      </trkpt>
      <trkpt lat="47.90264" lon="-2.45174">
        <ele>65</ele>
        <time>2024-12-19T12:27:42Z</time>
      </trkpt>
      <trkpt lat="47.90263" lon="-2.45175">
        <ele>65.1</ele>
        <time>2024-12-19T12:27:43Z</time>
      </trkpt>
      <trkpt lat="47.90263" lon="-2.45176">
        <ele>65.2</ele>
        <time>2024-12-19T12:27:44Z</time>
      </trkpt>
      <trkpt lat="47.90262" lon="-2.45178">
        <ele>65.3</ele>
        <time>2024-12-19T12:27:45Z</time>
      </trkpt>
      <trkpt lat="47.90262" lon="-2.4518">
        <ele>65.4</ele>
        <time>2024-12-19T12:27:46Z</time>
      </trkpt>
      <trkpt lat="47.90262" lon="-2.45181">
        <ele>65.5</ele>
        <time>2024-12-19T12:27:47Z</time>
      </trkpt>
      <trkpt lat="47.90261" lon="-2.45183">
        <ele>65.6</ele>
        <time>2024-12-19T12:27:48Z</time>
      </trkpt>
      <trkpt lat="47.90261" lon="-2.45184">
        <ele>65.7</ele>
        <time>2024-12-19T12:27:49Z</time>
      </trkpt>
      <trkpt lat="47.90261" lon="-2.45186">
        <ele>65.8</ele>
        <time>2024-12-19T12:27:50Z</time>
      </trkpt>
      <trkpt lat="47.90261" lon="-2.45188">
        <ele>65.9</ele>
        <time>2024-12-19T12:27:51Z</time>
      </trkpt>
      <trkpt lat="47.9026" lon="-2.45189">
        <ele>66</ele>
        <time>2024-12-19T12:27:52Z</time>
      </trkpt>
      <trkpt lat="47.9026" lon="-2.45191">
        <ele>66.1</ele>
        <time>2024-12-19T12:27:53Z</time>
      </trkpt>
      <trkpt lat="47.9026" lon="-2.45193">
        <ele>66.2</ele>
        <time>2024-12-19T12:27:54Z</time>
      </trkpt>
      <trkpt lat="47.90259" lon="-2.45194">
        <ele>66.3</ele>
        <time>2024-12-19T12:27:55Z</time>
      </trkpt>
      <trkpt lat="47.90259" lon="-2.45196">
        <ele>66.4</ele>
        <time>2024-12-19T12:27:56Z</time>
      </trkpt>
      <trkpt lat="47.90259" lon="-2.45198">
        <ele>66.5</ele>
        <time>2024-12-19T12:27:57Z</time>
      </trkpt>
      <trkpt lat="47.90259" lon="-2.452">
        <ele>66.7</ele>
        <time>2024-12-19T12:27:58Z</time>
      </trkpt>
      <trkpt lat="47.90259" lon="-2.45202">
        <ele>66.8</ele>
        <time>2024-12-19T12:27:59Z</time>
      </trkpt>
      <trkpt lat="47.90259" lon="-2.45203">
        <ele>66.9</ele>
        <time>2024-12-19T12:28:00Z</time>
      </trkpt>
      <trkpt lat="47.90259" lon="-2.45205">
        <ele>67</ele>
        <time>2024-12-19T12:28:01Z</time>
      </trkpt>
      <trkpt lat="47.90259" lon="-2.45207">
        <ele>67.1</ele>
        <time>2024-12-19T12:28:02Z</time>
      </trkpt>
      <trkpt lat="47.90259" lon="-2.45208">
        <ele>67.2</ele>
        <time>2024-12-19T12:28:03Z</time>
      </trkpt>
      <trkpt lat="47.90259" lon="-2.4521">
        <ele>67.2</ele>
        <time>2024-12-19T12:28:04Z</time>
      </trkpt>
      <trkpt lat="47.90259" lon="-2.45211">
        <ele>67.3</ele>
        <time>2024-12-19T12:28:05Z</time>
      </trkpt>
      <trkpt lat="47.90259" lon="-2.45212">
        <ele>67.4</ele>
        <time>2024-12-19T12:28:06Z</time>
      </trkpt>
      <trkpt lat="47.90258" lon="-2.45214">
        <ele>67.5</ele>
        <time>2024-12-19T12:28:07Z</time>
      </trkpt>
      <trkpt lat="47.90258" lon="-2.45215">
        <ele>67.6</ele>
        <time>2024-12-19T12:28:08Z</time>
      </trkpt>
      <trkpt lat="47.90258" lon="-2.45216">
        <ele>67.6</ele>
        <time>2024-12-19T12:28:09Z</time>
      </trkpt>
      <trkpt lat="47.90257" lon="-2.45218">
        <ele>67.7</ele>
        <time>2024-12-19T12:28:10Z</time>
      </trkpt>
      <trkpt lat="47.90257" lon="-2.4522">
        <ele>67.9</ele>
        <time>2024-12-19T12:28:11Z</time>
      </trkpt>
      <trkpt lat="47.90256" lon="-2.45222">
        <ele>68</ele>
        <time>2024-12-19T12:28:12Z</time>
      </trkpt>
      <trkpt lat="47.90256" lon="-2.45223">
        <ele>68</ele>
        <time>2024-12-19T12:28:13Z</time>
      </trkpt>
      <trkpt lat="47.90256" lon="-2.45225">
        <ele>68</ele>
        <time>2024-12-19T12:28:14Z</time>
      </trkpt>
      <trkpt lat="47.90255" lon="-2.45227">
        <ele>68</ele>
        <time>2024-12-19T12:28:15Z</time>
      </trkpt>
      <trkpt lat="47.90255" lon="-2.45229">
        <ele>68</ele>
        <time>2024-12-19T12:28:16Z</time>
      </trkpt>
      <trkpt lat="47.90254" lon="-2.45231">
        <ele>68</ele>
        <time>2024-12-19T12:28:17Z</time>
      </trkpt>
      <trkpt lat="47.90254" lon="-2.45233">
        <ele>68.1</ele>
        <time>2024-12-19T12:28:18Z</time>
      </trkpt>
      <trkpt lat="47.90254" lon="-2.45235">
        <ele>68.1</ele>
        <time>2024-12-19T12:28:19Z</time>
      </trkpt>
      <trkpt lat="47.90253" lon="-2.45236">
        <ele>68.1</ele>
        <time>2024-12-19T12:28:20Z</time>
      </trkpt>
      <trkpt lat="47.90253" lon="-2.45238">
        <ele>68.1</ele>
        <time>2024-12-19T12:28:21Z</time>
      </trkpt>
      <trkpt lat="47.90253" lon="-2.4524">
        <ele>68.1</ele>
        <time>2024-12-19T12:28:22Z</time>
      </trkpt>
      <trkpt lat="47.90253" lon="-2.45241">
        <ele>68.1</ele>
        <time>2024-12-19T12:28:23Z</time>
      </trkpt>
      <trkpt lat="47.90253" lon="-2.45243">
        <ele>68.1</ele>
        <time>2024-12-19T12:28:24Z</time>
      </trkpt>
      <trkpt lat="47.90252" lon="-2.45245">
        <ele>68.1</ele>
        <time>2024-12-19T12:28:25Z</time>
      </trkpt>
      <trkpt lat="47.90252" lon="-2.45247">
        <ele>68.1</ele>
        <time>2024-12-19T12:28:26Z</time>
      </trkpt>
      <trkpt lat="47.90252" lon="-2.45249">
        <ele>68.1</ele>
        <time>2024-12-19T12:28:27Z</time>
      </trkpt>
      <trkpt lat="47.90251" lon="-2.4525">
        <ele>68.1</ele>
        <time>2024-12-19T12:28:28Z</time>
      </trkpt>
      <trkpt lat="47.90251" lon="-2.45252">
        <ele>68.1</ele>
        <time>2024-12-19T12:28:29Z</time>
      </trkpt>
      <trkpt lat="47.90251" lon="-2.45255">
        <ele>68.2</ele>
        <time>2024-12-19T12:28:30Z</time>
      </trkpt>
      <trkpt lat="47.90251" lon="-2.45257">
        <ele>68.3</ele>
        <time>2024-12-19T12:28:31Z</time>
      </trkpt>
      <trkpt lat="47.90251" lon="-2.45258">
        <ele>68.3</ele>
        <time>2024-12-19T12:28:32Z</time>
      </trkpt>
      <trkpt lat="47.90251" lon="-2.4526">
        <ele>68.4</ele>
        <time>2024-12-19T12:28:33Z</time>
      </trkpt>
      <trkpt lat="47.90251" lon="-2.45261">
        <ele>68.4</ele>
        <time>2024-12-19T12:28:34Z</time>
      </trkpt>
      <trkpt lat="47.90251" lon="-2.45263">
        <ele>68.5</ele>
        <time>2024-12-19T12:28:35Z</time>
      </trkpt>
      <trkpt lat="47.9025" lon="-2.45264">
        <ele>68.5</ele>
        <time>2024-12-19T12:28:36Z</time>
      </trkpt>
      <trkpt lat="47.9025" lon="-2.45265">
        <ele>68.5</ele>
        <time>2024-12-19T12:28:37Z</time>
      </trkpt>
      <trkpt lat="47.9025" lon="-2.45266">
        <ele>68.6</ele>
        <time>2024-12-19T12:28:38Z</time>
      </trkpt>
      <trkpt lat="47.90249" lon="-2.45268">
        <ele>68.6</ele>
        <time>2024-12-19T12:28:39Z</time>
      </trkpt>
      <trkpt lat="47.90249" lon="-2.4527">
        <ele>68.7</ele>
        <time>2024-12-19T12:28:40Z</time>
      </trkpt>
      <trkpt lat="47.90249" lon="-2.45271">
        <ele>68.7</ele>
        <time>2024-12-19T12:28:41Z</time>
      </trkpt>
      <trkpt lat="47.90248" lon="-2.45273">
        <ele>68.8</ele>
        <time>2024-12-19T12:28:42Z</time>
      </trkpt>
      <trkpt lat="47.90248" lon="-2.45274">
        <ele>68.8</ele>
        <time>2024-12-19T12:28:43Z</time>
      </trkpt>
      <trkpt lat="47.90248" lon="-2.45276">
        <ele>68.9</ele>
        <time>2024-12-19T12:28:44Z</time>
      </trkpt>
      <trkpt lat="47.90248" lon="-2.45279">
        <ele>68.9</ele>
        <time>2024-12-19T12:28:45Z</time>
      </trkpt>
      <trkpt lat="47.90248" lon="-2.45281">
        <ele>68.9</ele>
        <time>2024-12-19T12:28:46Z</time>
      </trkpt>
      <trkpt lat="47.90248" lon="-2.45282">
        <ele>68.9</ele>
        <time>2024-12-19T12:28:47Z</time>
      </trkpt>
      <trkpt lat="47.90248" lon="-2.45283">
        <ele>68.9</ele>
        <time>2024-12-19T12:28:48Z</time>
      </trkpt>
      <trkpt lat="47.90248" lon="-2.45283">
        <ele>68.9</ele>
        <time>2024-12-19T12:28:49Z</time>
      </trkpt>
      <trkpt lat="47.90248" lon="-2.45284">
        <ele>68.9</ele>
        <time>2024-12-19T12:28:50Z</time>
      </trkpt>
      <trkpt lat="47.90248" lon="-2.45286">
        <ele>68.9</ele>
        <time>2024-12-19T12:28:51Z</time>
      </trkpt>
      <trkpt lat="47.90248" lon="-2.45288">
        <ele>69</ele>
        <time>2024-12-19T12:28:52Z</time>
      </trkpt>
      <trkpt lat="47.90248" lon="-2.4529">
        <ele>69</ele>
        <time>2024-12-19T12:28:53Z</time>
      </trkpt>
      <trkpt lat="47.90248" lon="-2.45292">
        <ele>69</ele>
        <time>2024-12-19T12:28:54Z</time>
      </trkpt>
      <trkpt lat="47.90248" lon="-2.45295">
        <ele>69</ele>
        <time>2024-12-19T12:28:55Z</time>
      </trkpt>
      <trkpt lat="47.90248" lon="-2.45297">
        <ele>69</ele>
        <time>2024-12-19T12:28:56Z</time>
      </trkpt>
      <trkpt lat="47.90248" lon="-2.453">
        <ele>69</ele>
        <time>2024-12-19T12:28:57Z</time>
      </trkpt>
      <trkpt lat="47.90248" lon="-2.45302">
        <ele>69</ele>
        <time>2024-12-19T12:28:58Z</time>
      </trkpt>
      <trkpt lat="47.90248" lon="-2.45304">
        <ele>69</ele>
        <time>2024-12-19T12:28:59Z</time>
      </trkpt>
      <trkpt lat="47.90248" lon="-2.45306">
        <ele>69</ele>
        <time>2024-12-19T12:29:00Z</time>
      </trkpt>
      <trkpt lat="47.90248" lon="-2.45307">
        <ele>69.1</ele>
        <time>2024-12-19T12:29:01Z</time>
      </trkpt>
      <trkpt lat="47.9025" lon="-2.45309">
        <ele>69.1</ele>
        <time>2024-12-19T12:29:02Z</time>
      </trkpt>
      <trkpt lat="47.90251" lon="-2.4531">
        <ele>69.2</ele>
        <time>2024-12-19T12:29:03Z</time>
      </trkpt>
      <trkpt lat="47.90251" lon="-2.4531">
        <ele>69.2</ele>
        <time>2024-12-19T12:29:04Z</time>
      </trkpt>
      <trkpt lat="47.90251" lon="-2.4531">
        <ele>69.2</ele>
        <time>2024-12-19T12:29:05Z</time>
      </trkpt>
      <trkpt lat="47.90251" lon="-2.45312">
        <ele>69.3</ele>
        <time>2024-12-19T12:29:06Z</time>
      </trkpt>
      <trkpt lat="47.90252" lon="-2.45314">
        <ele>69.3</ele>
        <time>2024-12-19T12:29:07Z</time>
      </trkpt>
      <trkpt lat="47.90252" lon="-2.45316">
        <ele>69.4</ele>
        <time>2024-12-19T12:29:08Z</time>
      </trkpt>
      <trkpt lat="47.90252" lon="-2.45318">
        <ele>69.5</ele>
        <time>2024-12-19T12:29:09Z</time>
      </trkpt>
      <trkpt lat="47.90252" lon="-2.4532">
        <ele>69.5</ele>
        <time>2024-12-19T12:29:10Z</time>
      </trkpt>
      <trkpt lat="47.90252" lon="-2.45321">
        <ele>69.6</ele>
        <time>2024-12-19T12:29:11Z</time>
      </trkpt>
      <trkpt lat="47.90252" lon="-2.45323">
        <ele>69.6</ele>
        <time>2024-12-19T12:29:12Z</time>
      </trkpt>
      <trkpt lat="47.90252" lon="-2.45325">
        <ele>69.7</ele>
        <time>2024-12-19T12:29:13Z</time>
      </trkpt>
      <trkpt lat="47.90252" lon="-2.45327">
        <ele>69.8</ele>
        <time>2024-12-19T12:29:14Z</time>
      </trkpt>
      <trkpt lat="47.90251" lon="-2.45328">
        <ele>69.8</ele>
        <time>2024-12-19T12:29:15Z</time>
      </trkpt>
      <trkpt lat="47.90251" lon="-2.45331">
        <ele>69.9</ele>
        <time>2024-12-19T12:29:16Z</time>
      </trkpt>
      <trkpt lat="47.90252" lon="-2.45333">
        <ele>70</ele>
        <time>2024-12-19T12:29:17Z</time>
      </trkpt>
      <trkpt lat="47.90252" lon="-2.45335">
        <ele>70</ele>
        <time>2024-12-19T12:29:18Z</time>
      </trkpt>
      <trkpt lat="47.90252" lon="-2.45337">
        <ele>70</ele>
        <time>2024-12-19T12:29:19Z</time>
      </trkpt>
      <trkpt lat="47.90252" lon="-2.4534">
        <ele>70</ele>
        <time>2024-12-19T12:29:20Z</time>
      </trkpt>
      <trkpt lat="47.90253" lon="-2.45341">
        <ele>70</ele>
        <time>2024-12-19T12:29:21Z</time>
      </trkpt>
      <trkpt lat="47.90253" lon="-2.45343">
        <ele>70</ele>
        <time>2024-12-19T12:29:22Z</time>
      </trkpt>
      <trkpt lat="47.90252" lon="-2.45348">
        <ele>70</ele>
        <time>2024-12-19T12:29:24Z</time>
      </trkpt>
      <trkpt lat="47.90252" lon="-2.4535">
        <ele>70</ele>
        <time>2024-12-19T12:29:25Z</time>
      </trkpt>
      <trkpt lat="47.90253" lon="-2.45351">
        <ele>70</ele>
        <time>2024-12-19T12:29:26Z</time>
      </trkpt>
      <trkpt lat="47.90253" lon="-2.45353">
        <ele>70</ele>
        <time>2024-12-19T12:29:27Z</time>
      </trkpt>
      <trkpt lat="47.90253" lon="-2.45356">
        <ele>70</ele>
        <time>2024-12-19T12:29:28Z</time>
      </trkpt>
      <trkpt lat="47.90253" lon="-2.45358">
        <ele>70</ele>
        <time>2024-12-19T12:29:29Z</time>
      </trkpt>
      <trkpt lat="47.90253" lon="-2.4536">
        <ele>70</ele>
        <time>2024-12-19T12:29:30Z</time>
      </trkpt>
      <trkpt lat="47.90253" lon="-2.45362">
        <ele>70</ele>
        <time>2024-12-19T12:29:31Z</time>
      </trkpt>
      <trkpt lat="47.90253" lon="-2.45364">
        <ele>69.9</ele>
        <time>2024-12-19T12:29:32Z</time>
      </trkpt>
      <trkpt lat="47.90253" lon="-2.45366">
        <ele>69.8</ele>
        <time>2024-12-19T12:29:33Z</time>
      </trkpt>
      <trkpt lat="47.90253" lon="-2.45368">
        <ele>69.8</ele>
        <time>2024-12-19T12:29:34Z</time>
      </trkpt>
      <trkpt lat="47.90254" lon="-2.4537">
        <ele>69.7</ele>
        <time>2024-12-19T12:29:35Z</time>
      </trkpt>
      <trkpt lat="47.90254" lon="-2.45371">
        <ele>69.7</ele>
        <time>2024-12-19T12:29:36Z</time>
      </trkpt>
      <trkpt lat="47.90254" lon="-2.45374">
        <ele>69.6</ele>
        <time>2024-12-19T12:29:37Z</time>
      </trkpt>
      <trkpt lat="47.90254" lon="-2.45376">
        <ele>69.6</ele>
        <time>2024-12-19T12:29:38Z</time>
      </trkpt>
      <trkpt lat="47.90254" lon="-2.45378">
        <ele>69.5</ele>
        <time>2024-12-19T12:29:39Z</time>
      </trkpt>
      <trkpt lat="47.90254" lon="-2.4538">
        <ele>69.4</ele>
        <time>2024-12-19T12:29:40Z</time>
      </trkpt>
      <trkpt lat="47.90254" lon="-2.45382">
        <ele>69.4</ele>
        <time>2024-12-19T12:29:41Z</time>
      </trkpt>
      <trkpt lat="47.90254" lon="-2.45384">
        <ele>69.3</ele>
        <time>2024-12-19T12:29:42Z</time>
      </trkpt>
      <trkpt lat="47.90253" lon="-2.45385">
        <ele>69.2</ele>
        <time>2024-12-19T12:29:43Z</time>
      </trkpt>
      <trkpt lat="47.90252" lon="-2.45387">
        <ele>69.1</ele>
        <time>2024-12-19T12:29:44Z</time>
      </trkpt>
      <trkpt lat="47.90252" lon="-2.45389">
        <ele>69.1</ele>
        <time>2024-12-19T12:29:45Z</time>
      </trkpt>
      <trkpt lat="47.90253" lon="-2.45389">
        <ele>69.1</ele>
        <time>2024-12-19T12:29:46Z</time>
      </trkpt>
      <trkpt lat="47.90253" lon="-2.4539">
        <ele>69.1</ele>
        <time>2024-12-19T12:29:47Z</time>
      </trkpt>
      <trkpt lat="47.90253" lon="-2.4539">
        <ele>69.1</ele>
        <time>2024-12-19T12:29:48Z</time>
      </trkpt>
      <trkpt lat="47.90254" lon="-2.45391">
        <ele>69.1</ele>
        <time>2024-12-19T12:29:49Z</time>
      </trkpt>
      <trkpt lat="47.90254" lon="-2.45393">
        <ele>69</ele>
        <time>2024-12-19T12:29:50Z</time>
      </trkpt>
      <trkpt lat="47.90254" lon="-2.45394">
        <ele>69</ele>
        <time>2024-12-19T12:29:51Z</time>
      </trkpt>
      <trkpt lat="47.90254" lon="-2.45396">
        <ele>68.9</ele>
        <time>2024-12-19T12:29:52Z</time>
      </trkpt>
      <trkpt lat="47.90254" lon="-2.45398">
        <ele>68.9</ele>
        <time>2024-12-19T12:29:53Z</time>
      </trkpt>
      <trkpt lat="47.90254" lon="-2.45401">
        <ele>68.8</ele>
        <time>2024-12-19T12:29:54Z</time>
      </trkpt>
      <trkpt lat="47.90254" lon="-2.45403">
        <ele>68.7</ele>
        <time>2024-12-19T12:29:55Z</time>
      </trkpt>
      <trkpt lat="47.90254" lon="-2.45405">
        <ele>68.6</ele>
        <time>2024-12-19T12:29:56Z</time>
      </trkpt>
      <trkpt lat="47.90253" lon="-2.45407">
        <ele>68.6</ele>
        <time>2024-12-19T12:29:57Z</time>
      </trkpt>
      <trkpt lat="47.90253" lon="-2.45409">
        <ele>68.5</ele>
        <time>2024-12-19T12:29:58Z</time>
      </trkpt>
      <trkpt lat="47.90252" lon="-2.45411">
        <ele>68.4</ele>
        <time>2024-12-19T12:29:59Z</time>
      </trkpt>
      <trkpt lat="47.90252" lon="-2.45412">
        <ele>68.3</ele>
        <time>2024-12-19T12:30:00Z</time>
      </trkpt>
      <trkpt lat="47.90252" lon="-2.45414">
        <ele>68.2</ele>
        <time>2024-12-19T12:30:01Z</time>
      </trkpt>
      <trkpt lat="47.90252" lon="-2.45415">
        <ele>68.2</ele>
        <time>2024-12-19T12:30:02Z</time>
      </trkpt>
      <trkpt lat="47.90252" lon="-2.45417">
        <ele>68.1</ele>
        <time>2024-12-19T12:30:03Z</time>
      </trkpt>
      <trkpt lat="47.90252" lon="-2.45418">
        <ele>68.1</ele>
        <time>2024-12-19T12:30:04Z</time>
      </trkpt>
      <trkpt lat="47.90252" lon="-2.45419">
        <ele>68.1</ele>
        <time>2024-12-19T12:30:05Z</time>
      </trkpt>
      <trkpt lat="47.90253" lon="-2.45421">
        <ele>68.1</ele>
        <time>2024-12-19T12:30:06Z</time>
      </trkpt>
      <trkpt lat="47.90253" lon="-2.45423">
        <ele>68.1</ele>
        <time>2024-12-19T12:30:07Z</time>
      </trkpt>
      <trkpt lat="47.90253" lon="-2.45424">
        <ele>68.1</ele>
        <time>2024-12-19T12:30:08Z</time>
      </trkpt>
      <trkpt lat="47.90253" lon="-2.45426">
        <ele>68.1</ele>
        <time>2024-12-19T12:30:09Z</time>
      </trkpt>
      <trkpt lat="47.90252" lon="-2.45429">
        <ele>68.1</ele>
        <time>2024-12-19T12:30:10Z</time>
      </trkpt>
      <trkpt lat="47.90252" lon="-2.4543">
        <ele>68.1</ele>
        <time>2024-12-19T12:30:11Z</time>
      </trkpt>
      <trkpt lat="47.90251" lon="-2.45432">
        <ele>68</ele>
        <time>2024-12-19T12:30:12Z</time>
      </trkpt>
      <trkpt lat="47.90251" lon="-2.45433">
        <ele>68</ele>
        <time>2024-12-19T12:30:13Z</time>
      </trkpt>
      <trkpt lat="47.90251" lon="-2.45435">
        <ele>68</ele>
        <time>2024-12-19T12:30:14Z</time>
      </trkpt>
      <trkpt lat="47.90251" lon="-2.45438">
        <ele>68</ele>
        <time>2024-12-19T12:30:15Z</time>
      </trkpt>
      <trkpt lat="47.90251" lon="-2.4544">
        <ele>68</ele>
        <time>2024-12-19T12:30:16Z</time>
      </trkpt>
      <trkpt lat="47.90251" lon="-2.45442">
        <ele>68</ele>
        <time>2024-12-19T12:30:17Z</time>
      </trkpt>
      <trkpt lat="47.90251" lon="-2.45444">
        <ele>68</ele>
        <time>2024-12-19T12:30:18Z</time>
      </trkpt>
      <trkpt lat="47.90251" lon="-2.45446">
        <ele>67.9</ele>
        <time>2024-12-19T12:30:19Z</time>
      </trkpt>
      <trkpt lat="47.90252" lon="-2.45448">
        <ele>67.7</ele>
        <time>2024-12-19T12:30:20Z</time>
      </trkpt>
      <trkpt lat="47.90252" lon="-2.4545">
        <ele>67.6</ele>
        <time>2024-12-19T12:30:21Z</time>
      </trkpt>
      <trkpt lat="47.90253" lon="-2.45452">
        <ele>67.5</ele>
        <time>2024-12-19T12:30:22Z</time>
      </trkpt>
      <trkpt lat="47.90253" lon="-2.45453">
        <ele>67.4</ele>
        <time>2024-12-19T12:30:23Z</time>
      </trkpt>
      <trkpt lat="47.90254" lon="-2.45456">
        <ele>67.3</ele>
        <time>2024-12-19T12:30:24Z</time>
      </trkpt>
      <trkpt lat="47.90254" lon="-2.45458">
        <ele>67.1</ele>
        <time>2024-12-19T12:30:25Z</time>
      </trkpt>
      <trkpt lat="47.90253" lon="-2.4546">
        <ele>67</ele>
        <time>2024-12-19T12:30:26Z</time>
      </trkpt>
      <trkpt lat="47.90252" lon="-2.45461">
        <ele>66.9</ele>
        <time>2024-12-19T12:30:27Z</time>
      </trkpt>
      <trkpt lat="47.90251" lon="-2.45461">
        <ele>66.8</ele>
        <time>2024-12-19T12:30:28Z</time>
      </trkpt>
      <trkpt lat="47.9025" lon="-2.45462">
        <ele>66.8</ele>
        <time>2024-12-19T12:30:29Z</time>
      </trkpt>
      <trkpt lat="47.90249" lon="-2.45462">
        <ele>66.8</ele>
        <time>2024-12-19T12:30:30Z</time>
      </trkpt>
      <trkpt lat="47.90247" lon="-2.45463">
        <ele>66.7</ele>
        <time>2024-12-19T12:30:31Z</time>
      </trkpt>
      <trkpt lat="47.90246" lon="-2.45464">
        <ele>66.7</ele>
        <time>2024-12-19T12:30:32Z</time>
      </trkpt>
      <trkpt lat="47.90245" lon="-2.45464">
        <ele>66.7</ele>
        <time>2024-12-19T12:30:33Z</time>
      </trkpt>
      <trkpt lat="47.90244" lon="-2.45465">
        <ele>66.7</ele>
        <time>2024-12-19T12:30:34Z</time>
      </trkpt>
      <trkpt lat="47.90243" lon="-2.45466">
        <ele>66.6</ele>
        <time>2024-12-19T12:30:35Z</time>
      </trkpt>
      <trkpt lat="47.90242" lon="-2.45468">
        <ele>66.5</ele>
        <time>2024-12-19T12:30:36Z</time>
      </trkpt>
      <trkpt lat="47.90241" lon="-2.4547">
        <ele>66.4</ele>
        <time>2024-12-19T12:30:37Z</time>
      </trkpt>
      <trkpt lat="47.9024" lon="-2.45472">
        <ele>66.3</ele>
        <time>2024-12-19T12:30:38Z</time>
      </trkpt>
      <trkpt lat="47.9024" lon="-2.45474">
        <ele>66.3</ele>
        <time>2024-12-19T12:30:39Z</time>
      </trkpt>
      <trkpt lat="47.90239" lon="-2.45476">
        <ele>66.2</ele>
        <time>2024-12-19T12:30:40Z</time>
      </trkpt>
      <trkpt lat="47.90239" lon="-2.45478">
        <ele>66.1</ele>
        <time>2024-12-19T12:30:41Z</time>
      </trkpt>
      <trkpt lat="47.90239" lon="-2.45481">
        <ele>66</ele>
        <time>2024-12-19T12:30:42Z</time>
      </trkpt>
      <trkpt lat="47.90238" lon="-2.45483">
        <ele>65.9</ele>
        <time>2024-12-19T12:30:43Z</time>
      </trkpt>
      <trkpt lat="47.90237" lon="-2.45485">
        <ele>65.8</ele>
        <time>2024-12-19T12:30:44Z</time>
      </trkpt>
      <trkpt lat="47.90236" lon="-2.45487">
        <ele>65.7</ele>
        <time>2024-12-19T12:30:45Z</time>
      </trkpt>
      <trkpt lat="47.90235" lon="-2.45489">
        <ele>65.6</ele>
        <time>2024-12-19T12:30:46Z</time>
      </trkpt>
      <trkpt lat="47.90234" lon="-2.4549">
        <ele>65.5</ele>
        <time>2024-12-19T12:30:47Z</time>
      </trkpt>
      <trkpt lat="47.90234" lon="-2.45493">
        <ele>65.4</ele>
        <time>2024-12-19T12:30:48Z</time>
      </trkpt>
      <trkpt lat="47.90233" lon="-2.45494">
        <ele>65.3</ele>
        <time>2024-12-19T12:30:49Z</time>
      </trkpt>
      <trkpt lat="47.90233" lon="-2.45495">
        <ele>65.3</ele>
        <time>2024-12-19T12:30:50Z</time>
      </trkpt>
      <trkpt lat="47.90232" lon="-2.45497">
        <ele>65.2</ele>
        <time>2024-12-19T12:30:51Z</time>
      </trkpt>
      <trkpt lat="47.90231" lon="-2.45499">
        <ele>65</ele>
        <time>2024-12-19T12:30:52Z</time>
      </trkpt>
      <trkpt lat="47.90231" lon="-2.45501">
        <ele>64.9</ele>
        <time>2024-12-19T12:30:53Z</time>
      </trkpt>
      <trkpt lat="47.9023" lon="-2.45504">
        <ele>64.9</ele>
        <time>2024-12-19T12:30:54Z</time>
      </trkpt>
      <trkpt lat="47.90229" lon="-2.45506">
        <ele>64.8</ele>
        <time>2024-12-19T12:30:55Z</time>
      </trkpt>
      <trkpt lat="47.90229" lon="-2.45508">
        <ele>64.7</ele>
        <time>2024-12-19T12:30:56Z</time>
      </trkpt>
      <trkpt lat="47.90228" lon="-2.4551">
        <ele>64.6</ele>
        <time>2024-12-19T12:30:57Z</time>
      </trkpt>
      <trkpt lat="47.90228" lon="-2.45512">
        <ele>64.6</ele>
        <time>2024-12-19T12:30:58Z</time>
      </trkpt>
      <trkpt lat="47.90228" lon="-2.45514">
        <ele>64.5</ele>
        <time>2024-12-19T12:30:59Z</time>
      </trkpt>
      <trkpt lat="47.90227" lon="-2.45515">
        <ele>64.4</ele>
        <time>2024-12-19T12:31:00Z</time>
      </trkpt>
      <trkpt lat="47.90226" lon="-2.45518">
        <ele>64.4</ele>
        <time>2024-12-19T12:31:01Z</time>
      </trkpt>
      <trkpt lat="47.90225" lon="-2.4552">
        <ele>64.3</ele>
        <time>2024-12-19T12:31:02Z</time>
      </trkpt>
      <trkpt lat="47.90224" lon="-2.45522">
        <ele>64.2</ele>
        <time>2024-12-19T12:31:03Z</time>
      </trkpt>
      <trkpt lat="47.90223" lon="-2.45524">
        <ele>64.1</ele>
        <time>2024-12-19T12:31:04Z</time>
      </trkpt>
      <trkpt lat="47.90222" lon="-2.45526">
        <ele>64.1</ele>
        <time>2024-12-19T12:31:05Z</time>
      </trkpt>
      <trkpt lat="47.90222" lon="-2.45528">
        <ele>64</ele>
        <time>2024-12-19T12:31:06Z</time>
      </trkpt>
      <trkpt lat="47.90221" lon="-2.45531">
        <ele>63.8</ele>
        <time>2024-12-19T12:31:07Z</time>
      </trkpt>
      <trkpt lat="47.9022" lon="-2.45533">
        <ele>63.6</ele>
        <time>2024-12-19T12:31:08Z</time>
      </trkpt>
      <trkpt lat="47.90219" lon="-2.45535">
        <ele>63.5</ele>
        <time>2024-12-19T12:31:09Z</time>
      </trkpt>
      <trkpt lat="47.90219" lon="-2.45537">
        <ele>63.4</ele>
        <time>2024-12-19T12:31:10Z</time>
      </trkpt>
      <trkpt lat="47.90218" lon="-2.45538">
        <ele>63.3</ele>
        <time>2024-12-19T12:31:11Z</time>
      </trkpt>
      <trkpt lat="47.90218" lon="-2.4554">
        <ele>63.2</ele>
        <time>2024-12-19T12:31:12Z</time>
      </trkpt>
      <trkpt lat="47.90217" lon="-2.45542">
        <ele>63.1</ele>
        <time>2024-12-19T12:31:13Z</time>
      </trkpt>
      <trkpt lat="47.90217" lon="-2.45543">
        <ele>63</ele>
        <time>2024-12-19T12:31:14Z</time>
      </trkpt>
      <trkpt lat="47.90216" lon="-2.45545">
        <ele>62.9</ele>
        <time>2024-12-19T12:31:15Z</time>
      </trkpt>
      <trkpt lat="47.90215" lon="-2.45546">
        <ele>62.8</ele>
        <time>2024-12-19T12:31:16Z</time>
      </trkpt>
      <trkpt lat="47.90214" lon="-2.45548">
        <ele>62.7</ele>
        <time>2024-12-19T12:31:17Z</time>
      </trkpt>
      <trkpt lat="47.90213" lon="-2.4555">
        <ele>62.6</ele>
        <time>2024-12-19T12:31:18Z</time>
      </trkpt>
      <trkpt lat="47.90213" lon="-2.45552">
        <ele>62.5</ele>
        <time>2024-12-19T12:31:19Z</time>
      </trkpt>
      <trkpt lat="47.90212" lon="-2.45554">
        <ele>62.5</ele>
        <time>2024-12-19T12:31:20Z</time>
      </trkpt>
      <trkpt lat="47.90211" lon="-2.45556">
        <ele>62.4</ele>
        <time>2024-12-19T12:31:21Z</time>
      </trkpt>
      <trkpt lat="47.9021" lon="-2.45557">
        <ele>62.4</ele>
        <time>2024-12-19T12:31:22Z</time>
      </trkpt>
      <trkpt lat="47.90208" lon="-2.45559">
        <ele>62.3</ele>
        <time>2024-12-19T12:31:23Z</time>
      </trkpt>
      <trkpt lat="47.90208" lon="-2.4556">
        <ele>62.3</ele>
        <time>2024-12-19T12:31:24Z</time>
      </trkpt>
      <trkpt lat="47.90207" lon="-2.45561">
        <ele>62.3</ele>
        <time>2024-12-19T12:31:25Z</time>
      </trkpt>
      <trkpt lat="47.90206" lon="-2.45562">
        <ele>62.2</ele>
        <time>2024-12-19T12:31:26Z</time>
      </trkpt>
      <trkpt lat="47.90206" lon="-2.45564">
        <ele>62.1</ele>
        <time>2024-12-19T12:31:27Z</time>
      </trkpt>
      <trkpt lat="47.90206" lon="-2.45566">
        <ele>62</ele>
        <time>2024-12-19T12:31:28Z</time>
      </trkpt>
      <trkpt lat="47.90206" lon="-2.45567">
        <ele>62</ele>
        <time>2024-12-19T12:31:29Z</time>
      </trkpt>
      <trkpt lat="47.90206" lon="-2.45568">
        <ele>61.9</ele>
        <time>2024-12-19T12:31:30Z</time>
      </trkpt>
      <trkpt lat="47.90205" lon="-2.45569">
        <ele>61.8</ele>
        <time>2024-12-19T12:31:31Z</time>
      </trkpt>
      <trkpt lat="47.90205" lon="-2.45569">
        <ele>61.8</ele>
        <time>2024-12-19T12:31:32Z</time>
      </trkpt>
      <trkpt lat="47.90205" lon="-2.45569">
        <ele>61.8</ele>
        <time>2024-12-19T12:31:33Z</time>
      </trkpt>
      <trkpt lat="47.90205" lon="-2.4557">
        <ele>61.8</ele>
        <time>2024-12-19T12:31:34Z</time>
      </trkpt>
      <trkpt lat="47.90205" lon="-2.4557">
        <ele>61.8</ele>
        <time>2024-12-19T12:31:35Z</time>
      </trkpt>
      <trkpt lat="47.90205" lon="-2.45571">
        <ele>61.7</ele>
        <time>2024-12-19T12:31:36Z</time>
      </trkpt>
      <trkpt lat="47.90204" lon="-2.45572">
        <ele>61.7</ele>
        <time>2024-12-19T12:31:37Z</time>
      </trkpt>
      <trkpt lat="47.90203" lon="-2.45573">
        <ele>61.7</ele>
        <time>2024-12-19T12:31:38Z</time>
      </trkpt>
      <trkpt lat="47.90202" lon="-2.45573">
        <ele>61.6</ele>
        <time>2024-12-19T12:31:39Z</time>
      </trkpt>
      <trkpt lat="47.90201" lon="-2.45574">
        <ele>61.6</ele>
        <time>2024-12-19T12:31:40Z</time>
      </trkpt>
      <trkpt lat="47.902" lon="-2.45575">
        <ele>61.5</ele>
        <time>2024-12-19T12:31:41Z</time>
      </trkpt>
      <trkpt lat="47.90199" lon="-2.45576">
        <ele>61.5</ele>
        <time>2024-12-19T12:31:42Z</time>
      </trkpt>
      <trkpt lat="47.90199" lon="-2.45577">
        <ele>61.4</ele>
        <time>2024-12-19T12:31:43Z</time>
      </trkpt>
      <trkpt lat="47.90198" lon="-2.45577">
        <ele>61.4</ele>
        <time>2024-12-19T12:31:44Z</time>
      </trkpt>
      <trkpt lat="47.90197" lon="-2.45578">
        <ele>61.4</ele>
        <time>2024-12-19T12:31:45Z</time>
      </trkpt>
      <trkpt lat="47.90196" lon="-2.45579">
        <ele>61.3</ele>
        <time>2024-12-19T12:31:46Z</time>
      </trkpt>
      <trkpt lat="47.90195" lon="-2.4558">
        <ele>61.2</ele>
        <time>2024-12-19T12:31:47Z</time>
      </trkpt>
      <trkpt lat="47.90194" lon="-2.45581">
        <ele>61.2</ele>
        <time>2024-12-19T12:31:48Z</time>
      </trkpt>
      <trkpt lat="47.90193" lon="-2.45583">
        <ele>61.1</ele>
        <time>2024-12-19T12:31:49Z</time>
      </trkpt>
      <trkpt lat="47.90192" lon="-2.45584">
        <ele>61.1</ele>
        <time>2024-12-19T12:31:50Z</time>
      </trkpt>
      <trkpt lat="47.9019" lon="-2.45585">
        <ele>61.1</ele>
        <time>2024-12-19T12:31:51Z</time>
      </trkpt>
      <trkpt lat="47.90189" lon="-2.45586">
        <ele>61.1</ele>
        <time>2024-12-19T12:31:52Z</time>
      </trkpt>
      <trkpt lat="47.90188" lon="-2.45587">
        <ele>61</ele>
        <time>2024-12-19T12:31:53Z</time>
      </trkpt>
      <trkpt lat="47.90187" lon="-2.45588">
        <ele>61</ele>
        <time>2024-12-19T12:31:54Z</time>
      </trkpt>
      <trkpt lat="47.90186" lon="-2.45589">
        <ele>61</ele>
        <time>2024-12-19T12:31:55Z</time>
      </trkpt>
      <trkpt lat="47.90185" lon="-2.4559">
        <ele>60.9</ele>
        <time>2024-12-19T12:31:56Z</time>
      </trkpt>
      <trkpt lat="47.90184" lon="-2.45592">
        <ele>60.9</ele>
        <time>2024-12-19T12:31:57Z</time>
      </trkpt>
      <trkpt lat="47.90182" lon="-2.45593">
        <ele>60.8</ele>
        <time>2024-12-19T12:31:58Z</time>
      </trkpt>
      <trkpt lat="47.90181" lon="-2.45594">
        <ele>60.7</ele>
        <time>2024-12-19T12:31:59Z</time>
      </trkpt>
      <trkpt lat="47.9018" lon="-2.45596">
        <ele>60.6</ele>
        <time>2024-12-19T12:32:00Z</time>
      </trkpt>
      <trkpt lat="47.90179" lon="-2.45597">
        <ele>60.5</ele>
        <time>2024-12-19T12:32:01Z</time>
      </trkpt>
      <trkpt lat="47.90178" lon="-2.45598">
        <ele>60.5</ele>
        <time>2024-12-19T12:32:02Z</time>
      </trkpt>
      <trkpt lat="47.90177" lon="-2.45599">
        <ele>60.4</ele>
        <time>2024-12-19T12:32:03Z</time>
      </trkpt>
      <trkpt lat="47.90176" lon="-2.456">
        <ele>60.3</ele>
        <time>2024-12-19T12:32:04Z</time>
      </trkpt>
      <trkpt lat="47.90175" lon="-2.45601">
        <ele>60.2</ele>
        <time>2024-12-19T12:32:05Z</time>
      </trkpt>
      <trkpt lat="47.90174" lon="-2.45602">
        <ele>60.1</ele>
        <time>2024-12-19T12:32:06Z</time>
      </trkpt>
      <trkpt lat="47.90172" lon="-2.45603">
        <ele>59.9</ele>
        <time>2024-12-19T12:32:07Z</time>
      </trkpt>
      <trkpt lat="47.90171" lon="-2.45605">
        <ele>59.8</ele>
        <time>2024-12-19T12:32:08Z</time>
      </trkpt>
      <trkpt lat="47.9017" lon="-2.45606">
        <ele>59.7</ele>
        <time>2024-12-19T12:32:09Z</time>
      </trkpt>
      <trkpt lat="47.90169" lon="-2.45607">
        <ele>59.5</ele>
        <time>2024-12-19T12:32:10Z</time>
      </trkpt>
      <trkpt lat="47.90168" lon="-2.45608">
        <ele>59.4</ele>
        <time>2024-12-19T12:32:11Z</time>
      </trkpt>
      <trkpt lat="47.90167" lon="-2.45608">
        <ele>59.3</ele>
        <time>2024-12-19T12:32:12Z</time>
      </trkpt>
      <trkpt lat="47.90166" lon="-2.45609">
        <ele>59.2</ele>
        <time>2024-12-19T12:32:13Z</time>
      </trkpt>
      <trkpt lat="47.90165" lon="-2.4561">
        <ele>59.2</ele>
        <time>2024-12-19T12:32:14Z</time>
      </trkpt>
      <trkpt lat="47.90164" lon="-2.4561">
        <ele>59.2</ele>
        <time>2024-12-19T12:32:15Z</time>
      </trkpt>
      <trkpt lat="47.90163" lon="-2.45611">
        <ele>59.2</ele>
        <time>2024-12-19T12:32:16Z</time>
      </trkpt>
      <trkpt lat="47.90162" lon="-2.45611">
        <ele>59.1</ele>
        <time>2024-12-19T12:32:17Z</time>
      </trkpt>
      <trkpt lat="47.90161" lon="-2.45612">
        <ele>59.1</ele>
        <time>2024-12-19T12:32:18Z</time>
      </trkpt>
      <trkpt lat="47.9016" lon="-2.45613">
        <ele>59.1</ele>
        <time>2024-12-19T12:32:19Z</time>
      </trkpt>
      <trkpt lat="47.90159" lon="-2.45614">
        <ele>59.1</ele>
        <time>2024-12-19T12:32:20Z</time>
      </trkpt>
      <trkpt lat="47.90158" lon="-2.45614">
        <ele>59.2</ele>
        <time>2024-12-19T12:32:21Z</time>
      </trkpt>
      <trkpt lat="47.90157" lon="-2.45614">
        <ele>59.2</ele>
        <time>2024-12-19T12:32:22Z</time>
      </trkpt>
      <trkpt lat="47.90156" lon="-2.45616">
        <ele>59.1</ele>
        <time>2024-12-19T12:32:23Z</time>
      </trkpt>
      <trkpt lat="47.90155" lon="-2.45617">
        <ele>59.1</ele>
        <time>2024-12-19T12:32:24Z</time>
      </trkpt>
      <trkpt lat="47.90154" lon="-2.45619">
        <ele>59</ele>
        <time>2024-12-19T12:32:25Z</time>
      </trkpt>
      <trkpt lat="47.90153" lon="-2.4562">
        <ele>59</ele>
        <time>2024-12-19T12:32:26Z</time>
      </trkpt>
      <trkpt lat="47.90153" lon="-2.45621">
        <ele>59</ele>
        <time>2024-12-19T12:32:27Z</time>
      </trkpt>
      <trkpt lat="47.90152" lon="-2.45622">
        <ele>58.9</ele>
        <time>2024-12-19T12:32:28Z</time>
      </trkpt>
      <trkpt lat="47.90151" lon="-2.45623">
        <ele>58.9</ele>
        <time>2024-12-19T12:32:29Z</time>
      </trkpt>
      <trkpt lat="47.9015" lon="-2.45623">
        <ele>58.9</ele>
        <time>2024-12-19T12:32:30Z</time>
      </trkpt>
      <trkpt lat="47.9015" lon="-2.45624">
        <ele>58.9</ele>
        <time>2024-12-19T12:32:31Z</time>
      </trkpt>
      <trkpt lat="47.90149" lon="-2.45626">
        <ele>58.8</ele>
        <time>2024-12-19T12:32:32Z</time>
      </trkpt>
      <trkpt lat="47.90148" lon="-2.45628">
        <ele>58.7</ele>
        <time>2024-12-19T12:32:33Z</time>
      </trkpt>
      <trkpt lat="47.90147" lon="-2.45629">
        <ele>58.6</ele>
        <time>2024-12-19T12:32:34Z</time>
      </trkpt>
      <trkpt lat="47.90146" lon="-2.45631">
        <ele>58.5</ele>
        <time>2024-12-19T12:32:35Z</time>
      </trkpt>
      <trkpt lat="47.90145" lon="-2.45632">
        <ele>58.4</ele>
        <time>2024-12-19T12:32:36Z</time>
      </trkpt>
      <trkpt lat="47.90144" lon="-2.45633">
        <ele>58.4</ele>
        <time>2024-12-19T12:32:37Z</time>
      </trkpt>
      <trkpt lat="47.90144" lon="-2.45635">
        <ele>58.3</ele>
        <time>2024-12-19T12:32:38Z</time>
      </trkpt>
      <trkpt lat="47.90143" lon="-2.45636">
        <ele>58.2</ele>
        <time>2024-12-19T12:32:39Z</time>
      </trkpt>
      <trkpt lat="47.90142" lon="-2.45638">
        <ele>58.1</ele>
        <time>2024-12-19T12:32:40Z</time>
      </trkpt>
      <trkpt lat="47.90141" lon="-2.4564">
        <ele>57.9</ele>
        <time>2024-12-19T12:32:41Z</time>
      </trkpt>
      <trkpt lat="47.9014" lon="-2.45642">
        <ele>57.8</ele>
        <time>2024-12-19T12:32:42Z</time>
      </trkpt>
      <trkpt lat="47.90139" lon="-2.45644">
        <ele>57.7</ele>
        <time>2024-12-19T12:32:43Z</time>
      </trkpt>
      <trkpt lat="47.90139" lon="-2.45645">
        <ele>57.6</ele>
        <time>2024-12-19T12:32:44Z</time>
      </trkpt>
      <trkpt lat="47.90138" lon="-2.45646">
        <ele>57.4</ele>
        <time>2024-12-19T12:32:45Z</time>
      </trkpt>
      <trkpt lat="47.90137" lon="-2.45648">
        <ele>57.3</ele>
        <time>2024-12-19T12:32:46Z</time>
      </trkpt>
      <trkpt lat="47.90136" lon="-2.45648">
        <ele>57.3</ele>
        <time>2024-12-19T12:32:47Z</time>
      </trkpt>
      <trkpt lat="47.90135" lon="-2.45649">
        <ele>57.2</ele>
        <time>2024-12-19T12:32:48Z</time>
      </trkpt>
      <trkpt lat="47.90134" lon="-2.4565">
        <ele>57.1</ele>
        <time>2024-12-19T12:32:49Z</time>
      </trkpt>
      <trkpt lat="47.90133" lon="-2.45651">
        <ele>57</ele>
        <time>2024-12-19T12:32:50Z</time>
      </trkpt>
      <trkpt lat="47.90133" lon="-2.45653">
        <ele>56.9</ele>
        <time>2024-12-19T12:32:51Z</time>
      </trkpt>
      <trkpt lat="47.90132" lon="-2.45654">
        <ele>56.8</ele>
        <time>2024-12-19T12:32:52Z</time>
      </trkpt>
      <trkpt lat="47.90132" lon="-2.45656">
        <ele>56.7</ele>
        <time>2024-12-19T12:32:53Z</time>
      </trkpt>
      <trkpt lat="47.90131" lon="-2.45657">
        <ele>56.6</ele>
        <time>2024-12-19T12:32:54Z</time>
      </trkpt>
      <trkpt lat="47.90131" lon="-2.45658">
        <ele>56.5</ele>
        <time>2024-12-19T12:32:55Z</time>
      </trkpt>
      <trkpt lat="47.9013" lon="-2.45659">
        <ele>56.5</ele>
        <time>2024-12-19T12:32:56Z</time>
      </trkpt>
      <trkpt lat="47.90129" lon="-2.4566">
        <ele>56.4</ele>
        <time>2024-12-19T12:32:57Z</time>
      </trkpt>
      <trkpt lat="47.90128" lon="-2.45661">
        <ele>56.4</ele>
        <time>2024-12-19T12:32:58Z</time>
      </trkpt>
      <trkpt lat="47.90127" lon="-2.45662">
        <ele>56.3</ele>
        <time>2024-12-19T12:32:59Z</time>
      </trkpt>
      <trkpt lat="47.90126" lon="-2.45663">
        <ele>56.2</ele>
        <time>2024-12-19T12:33:00Z</time>
      </trkpt>
      <trkpt lat="47.90125" lon="-2.45664">
        <ele>56.1</ele>
        <time>2024-12-19T12:33:01Z</time>
      </trkpt>
      <trkpt lat="47.90125" lon="-2.45665">
        <ele>56.1</ele>
        <time>2024-12-19T12:33:02Z</time>
      </trkpt>
      <trkpt lat="47.90124" lon="-2.45665">
        <ele>56.1</ele>
        <time>2024-12-19T12:33:03Z</time>
      </trkpt>
      <trkpt lat="47.90123" lon="-2.45667">
        <ele>56</ele>
        <time>2024-12-19T12:33:04Z</time>
      </trkpt>
      <trkpt lat="47.90123" lon="-2.45668">
        <ele>56</ele>
        <time>2024-12-19T12:33:05Z</time>
      </trkpt>
      <trkpt lat="47.90123" lon="-2.45669">
        <ele>55.9</ele>
        <time>2024-12-19T12:33:06Z</time>
      </trkpt>
      <trkpt lat="47.90123" lon="-2.45671">
        <ele>55.9</ele>
        <time>2024-12-19T12:33:07Z</time>
      </trkpt>
      <trkpt lat="47.90122" lon="-2.45673">
        <ele>55.8</ele>
        <time>2024-12-19T12:33:08Z</time>
      </trkpt>
      <trkpt lat="47.90122" lon="-2.45675">
        <ele>55.7</ele>
        <time>2024-12-19T12:33:09Z</time>
      </trkpt>
      <trkpt lat="47.90122" lon="-2.45677">
        <ele>55.6</ele>
        <time>2024-12-19T12:33:10Z</time>
      </trkpt>
      <trkpt lat="47.90122" lon="-2.45678">
        <ele>55.6</ele>
        <time>2024-12-19T12:33:11Z</time>
      </trkpt>
      <trkpt lat="47.90122" lon="-2.4568">
        <ele>55.5</ele>
        <time>2024-12-19T12:33:12Z</time>
      </trkpt>
      <trkpt lat="47.90121" lon="-2.45682">
        <ele>55.4</ele>
        <time>2024-12-19T12:33:13Z</time>
      </trkpt>
      <trkpt lat="47.90121" lon="-2.45684">
        <ele>55.4</ele>
        <time>2024-12-19T12:33:14Z</time>
      </trkpt>
      <trkpt lat="47.9012" lon="-2.45685">
        <ele>55.4</ele>
        <time>2024-12-19T12:33:15Z</time>
      </trkpt>
      <trkpt lat="47.9012" lon="-2.45685">
        <ele>55.3</ele>
        <time>2024-12-19T12:33:16Z</time>
      </trkpt>
      <trkpt lat="47.90119" lon="-2.45685">
        <ele>55.3</ele>
        <time>2024-12-19T12:33:17Z</time>
      </trkpt>
      <trkpt lat="47.90119" lon="-2.45685">
        <ele>55.3</ele>
        <time>2024-12-19T12:33:18Z</time>
      </trkpt>
      <trkpt lat="47.90118" lon="-2.45685">
        <ele>55.3</ele>
        <time>2024-12-19T12:33:19Z</time>
      </trkpt>
      <trkpt lat="47.90118" lon="-2.45685">
        <ele>55.3</ele>
        <time>2024-12-19T12:33:20Z</time>
      </trkpt>
      <trkpt lat="47.90117" lon="-2.45685">
        <ele>55.3</ele>
        <time>2024-12-19T12:33:21Z</time>
      </trkpt>
      <trkpt lat="47.90116" lon="-2.45685">
        <ele>55.3</ele>
        <time>2024-12-19T12:33:22Z</time>
      </trkpt>
      <trkpt lat="47.90116" lon="-2.45687">
        <ele>55.3</ele>
        <time>2024-12-19T12:33:23Z</time>
      </trkpt>
      <trkpt lat="47.90116" lon="-2.45688">
        <ele>55.2</ele>
        <time>2024-12-19T12:33:24Z</time>
      </trkpt>
      <trkpt lat="47.90116" lon="-2.45688">
        <ele>55.2</ele>
        <time>2024-12-19T12:33:25Z</time>
      </trkpt>
      <trkpt lat="47.90115" lon="-2.45688">
        <ele>55.2</ele>
        <time>2024-12-19T12:33:26Z</time>
      </trkpt>
      <trkpt lat="47.90115" lon="-2.45689">
        <ele>55.2</ele>
        <time>2024-12-19T12:33:27Z</time>
      </trkpt>
      <trkpt lat="47.90115" lon="-2.45689">
        <ele>55.2</ele>
        <time>2024-12-19T12:33:28Z</time>
      </trkpt>
      <trkpt lat="47.90115" lon="-2.45689">
        <ele>55.2</ele>
        <time>2024-12-19T12:33:29Z</time>
      </trkpt>
      <trkpt lat="47.90115" lon="-2.45689">
        <ele>55.2</ele>
        <time>2024-12-19T12:33:30Z</time>
      </trkpt>
      <trkpt lat="47.90115" lon="-2.45689">
        <ele>55.2</ele>
        <time>2024-12-19T12:33:31Z</time>
      </trkpt>
      <trkpt lat="47.90115" lon="-2.45689">
        <ele>55.2</ele>
        <time>2024-12-19T12:33:32Z</time>
      </trkpt>
      <trkpt lat="47.90115" lon="-2.4569">
        <ele>55.2</ele>
        <time>2024-12-19T12:33:33Z</time>
      </trkpt>
      <trkpt lat="47.90114" lon="-2.4569">
        <ele>55.2</ele>
        <time>2024-12-19T12:33:34Z</time>
      </trkpt>
      <trkpt lat="47.90113" lon="-2.4569">
        <ele>55.1</ele>
        <time>2024-12-19T12:33:35Z</time>
      </trkpt>
      <trkpt lat="47.90112" lon="-2.45692">
        <ele>55.1</ele>
        <time>2024-12-19T12:33:36Z</time>
      </trkpt>
      <trkpt lat="47.90111" lon="-2.45694">
        <ele>55</ele>
        <time>2024-12-19T12:33:37Z</time>
      </trkpt>
      <trkpt lat="47.90109" lon="-2.45695">
        <ele>55</ele>
        <time>2024-12-19T12:33:38Z</time>
      </trkpt>
      <trkpt lat="47.90108" lon="-2.45696">
        <ele>54.9</ele>
        <time>2024-12-19T12:33:39Z</time>
      </trkpt>
      <trkpt lat="47.90107" lon="-2.45699">
        <ele>54.7</ele>
        <time>2024-12-19T12:33:40Z</time>
      </trkpt>
      <trkpt lat="47.90106" lon="-2.457">
        <ele>54.6</ele>
        <time>2024-12-19T12:33:41Z</time>
      </trkpt>
      <trkpt lat="47.90105" lon="-2.45703">
        <ele>54.4</ele>
        <time>2024-12-19T12:33:42Z</time>
      </trkpt>
      <trkpt lat="47.90103" lon="-2.45706">
        <ele>54.2</ele>
        <time>2024-12-19T12:33:43Z</time>
      </trkpt>
      <trkpt lat="47.90102" lon="-2.45708">
        <ele>54</ele>
        <time>2024-12-19T12:33:44Z</time>
      </trkpt>
      <trkpt lat="47.90101" lon="-2.45711">
        <ele>53.8</ele>
        <time>2024-12-19T12:33:45Z</time>
      </trkpt>
      <trkpt lat="47.901" lon="-2.45714">
        <ele>53.6</ele>
        <time>2024-12-19T12:33:46Z</time>
      </trkpt>
      <trkpt lat="47.90099" lon="-2.45717">
        <ele>53.4</ele>
        <time>2024-12-19T12:33:47Z</time>
      </trkpt>
      <trkpt lat="47.90098" lon="-2.4572">
        <ele>53.1</ele>
        <time>2024-12-19T12:33:48Z</time>
      </trkpt>
      <trkpt lat="47.90098" lon="-2.45724">
        <ele>52.9</ele>
        <time>2024-12-19T12:33:49Z</time>
      </trkpt>
      <trkpt lat="47.90098" lon="-2.45726">
        <ele>52.8</ele>
        <time>2024-12-19T12:33:50Z</time>
      </trkpt>
      <trkpt lat="47.90097" lon="-2.45729">
        <ele>52.6</ele>
        <time>2024-12-19T12:33:51Z</time>
      </trkpt>
      <trkpt lat="47.90097" lon="-2.45732">
        <ele>52.5</ele>
        <time>2024-12-19T12:33:52Z</time>
      </trkpt>
      <trkpt lat="47.90096" lon="-2.45734">
        <ele>52.4</ele>
        <time>2024-12-19T12:33:53Z</time>
      </trkpt>
      <trkpt lat="47.90096" lon="-2.45736">
        <ele>52.2</ele>
        <time>2024-12-19T12:33:54Z</time>
      </trkpt>
      <trkpt lat="47.90095" lon="-2.45738">
        <ele>52.1</ele>
        <time>2024-12-19T12:33:55Z</time>
      </trkpt>
      <trkpt lat="47.90094" lon="-2.45741">
        <ele>51.9</ele>
        <time>2024-12-19T12:33:56Z</time>
      </trkpt>
      <trkpt lat="47.90093" lon="-2.45744">
        <ele>51.7</ele>
        <time>2024-12-19T12:33:57Z</time>
      </trkpt>
      <trkpt lat="47.90093" lon="-2.45746">
        <ele>51.6</ele>
        <time>2024-12-19T12:33:58Z</time>
      </trkpt>
      <trkpt lat="47.90092" lon="-2.45748">
        <ele>51.4</ele>
        <time>2024-12-19T12:33:59Z</time>
      </trkpt>
      <trkpt lat="47.90091" lon="-2.4575">
        <ele>51.3</ele>
        <time>2024-12-19T12:34:00Z</time>
      </trkpt>
      <trkpt lat="47.9009" lon="-2.45752">
        <ele>51</ele>
        <time>2024-12-19T12:34:01Z</time>
      </trkpt>
      <trkpt lat="47.90089" lon="-2.45755">
        <ele>50.7</ele>
        <time>2024-12-19T12:34:02Z</time>
      </trkpt>
      <trkpt lat="47.90089" lon="-2.45757">
        <ele>50.5</ele>
        <time>2024-12-19T12:34:03Z</time>
      </trkpt>
      <trkpt lat="47.90088" lon="-2.45759">
        <ele>50.2</ele>
        <time>2024-12-19T12:34:04Z</time>
      </trkpt>
      <trkpt lat="47.90087" lon="-2.4576">
        <ele>50</ele>
        <time>2024-12-19T12:34:05Z</time>
      </trkpt>
      <trkpt lat="47.90086" lon="-2.45762">
        <ele>49.8</ele>
        <time>2024-12-19T12:34:06Z</time>
      </trkpt>
      <trkpt lat="47.90085" lon="-2.45763">
        <ele>49.6</ele>
        <time>2024-12-19T12:34:07Z</time>
      </trkpt>
      <trkpt lat="47.90084" lon="-2.45766">
        <ele>49.3</ele>
        <time>2024-12-19T12:34:08Z</time>
      </trkpt>
      <trkpt lat="47.90083" lon="-2.45768">
        <ele>49.1</ele>
        <time>2024-12-19T12:34:09Z</time>
      </trkpt>
      <trkpt lat="47.90083" lon="-2.4577">
        <ele>48.9</ele>
        <time>2024-12-19T12:34:10Z</time>
      </trkpt>
      <trkpt lat="47.90082" lon="-2.45771">
        <ele>48.7</ele>
        <time>2024-12-19T12:34:11Z</time>
      </trkpt>
      <trkpt lat="47.90082" lon="-2.45773">
        <ele>48.5</ele>
        <time>2024-12-19T12:34:12Z</time>
      </trkpt>
      <trkpt lat="47.90081" lon="-2.45774">
        <ele>48.4</ele>
        <time>2024-12-19T12:34:13Z</time>
      </trkpt>
      <trkpt lat="47.9008" lon="-2.45775">
        <ele>48.2</ele>
        <time>2024-12-19T12:34:14Z</time>
      </trkpt>
      <trkpt lat="47.90079" lon="-2.45777">
        <ele>48</ele>
        <time>2024-12-19T12:34:15Z</time>
      </trkpt>
      <trkpt lat="47.90079" lon="-2.45778">
        <ele>47.8</ele>
        <time>2024-12-19T12:34:16Z</time>
      </trkpt>
      <trkpt lat="47.90078" lon="-2.45779">
        <ele>47.7</ele>
        <time>2024-12-19T12:34:17Z</time>
      </trkpt>
      <trkpt lat="47.90078" lon="-2.4578">
        <ele>47.5</ele>
        <time>2024-12-19T12:34:18Z</time>
      </trkpt>
      <trkpt lat="47.90077" lon="-2.45782">
        <ele>47.3</ele>
        <time>2024-12-19T12:34:19Z</time>
      </trkpt>
      <trkpt lat="47.90076" lon="-2.45784">
        <ele>47</ele>
        <time>2024-12-19T12:34:20Z</time>
      </trkpt>
      <trkpt lat="47.90076" lon="-2.45786">
        <ele>46.8</ele>
        <time>2024-12-19T12:34:21Z</time>
      </trkpt>
      <trkpt lat="47.90075" lon="-2.45787">
        <ele>46.6</ele>
        <time>2024-12-19T12:34:22Z</time>
      </trkpt>
      <trkpt lat="47.90074" lon="-2.4579">
        <ele>46.2</ele>
        <time>2024-12-19T12:34:24Z</time>
      </trkpt>
      <trkpt lat="47.90073" lon="-2.45792">
        <ele>45.9</ele>
        <time>2024-12-19T12:34:25Z</time>
      </trkpt>
      <trkpt lat="47.90073" lon="-2.45793">
        <ele>45.8</ele>
        <time>2024-12-19T12:34:26Z</time>
      </trkpt>
      <trkpt lat="47.90072" lon="-2.45794">
        <ele>45.6</ele>
        <time>2024-12-19T12:34:27Z</time>
      </trkpt>
      <trkpt lat="47.90071" lon="-2.45795">
        <ele>45.5</ele>
        <time>2024-12-19T12:34:28Z</time>
      </trkpt>
      <trkpt lat="47.90071" lon="-2.45796">
        <ele>45.3</ele>
        <time>2024-12-19T12:34:29Z</time>
      </trkpt>
      <trkpt lat="47.9007" lon="-2.45797">
        <ele>45.2</ele>
        <time>2024-12-19T12:34:30Z</time>
      </trkpt>
      <trkpt lat="47.90069" lon="-2.45798">
        <ele>45</ele>
        <time>2024-12-19T12:34:31Z</time>
      </trkpt>
      <trkpt lat="47.90068" lon="-2.45799">
        <ele>44.7</ele>
        <time>2024-12-19T12:34:32Z</time>
      </trkpt>
      <trkpt lat="47.90067" lon="-2.45801">
        <ele>44.5</ele>
        <time>2024-12-19T12:34:33Z</time>
      </trkpt>
      <trkpt lat="47.90066" lon="-2.45802">
        <ele>44.2</ele>
        <time>2024-12-19T12:34:34Z</time>
      </trkpt>
      <trkpt lat="47.90066" lon="-2.45803">
        <ele>44</ele>
        <time>2024-12-19T12:34:35Z</time>
      </trkpt>
      <trkpt lat="47.90065" lon="-2.45804">
        <ele>43.9</ele>
        <time>2024-12-19T12:34:36Z</time>
      </trkpt>
      <trkpt lat="47.90065" lon="-2.45805">
        <ele>43.7</ele>
        <time>2024-12-19T12:34:37Z</time>
      </trkpt>
      <trkpt lat="47.90064" lon="-2.45807">
        <ele>43.4</ele>
        <time>2024-12-19T12:34:38Z</time>
      </trkpt>
      <trkpt lat="47.90064" lon="-2.45809">
        <ele>43</ele>
        <time>2024-12-19T12:34:39Z</time>
      </trkpt>
      <trkpt lat="47.90064" lon="-2.45811">
        <ele>42.7</ele>
        <time>2024-12-19T12:34:40Z</time>
      </trkpt>
      <trkpt lat="47.90064" lon="-2.45813">
        <ele>42.3</ele>
        <time>2024-12-19T12:34:41Z</time>
      </trkpt>
      <trkpt lat="47.90064" lon="-2.45815">
        <ele>41.9</ele>
        <time>2024-12-19T12:34:42Z</time>
      </trkpt>
      <trkpt lat="47.90065" lon="-2.45817">
        <ele>41.6</ele>
        <time>2024-12-19T12:34:43Z</time>
      </trkpt>
      <trkpt lat="47.90065" lon="-2.45819">
        <ele>41.5</ele>
        <time>2024-12-19T12:34:44Z</time>
      </trkpt>
      <trkpt lat="47.90066" lon="-2.4582">
        <ele>41.4</ele>
        <time>2024-12-19T12:34:45Z</time>
      </trkpt>
      <trkpt lat="47.90067" lon="-2.45821">
        <ele>41.4</ele>
        <time>2024-12-19T12:34:46Z</time>
      </trkpt>
      <trkpt lat="47.90067" lon="-2.45822">
        <ele>41.3</ele>
        <time>2024-12-19T12:34:47Z</time>
      </trkpt>
      <trkpt lat="47.90067" lon="-2.45822">
        <ele>41.2</ele>
        <time>2024-12-19T12:34:48Z</time>
      </trkpt>
      <trkpt lat="47.90067" lon="-2.45822">
        <ele>41.2</ele>
        <time>2024-12-19T12:34:49Z</time>
      </trkpt>
      <trkpt lat="47.90067" lon="-2.45822">
        <ele>41.2</ele>
        <time>2024-12-19T12:34:50Z</time>
      </trkpt>
      <trkpt lat="47.90067" lon="-2.45823">
        <ele>41.2</ele>
        <time>2024-12-19T12:34:51Z</time>
      </trkpt>
      <trkpt lat="47.90067" lon="-2.45823">
        <ele>41.2</ele>
        <time>2024-12-19T12:34:52Z</time>
      </trkpt>
      <trkpt lat="47.90067" lon="-2.45823">
        <ele>41.1</ele>
        <time>2024-12-19T12:34:53Z</time>
      </trkpt>
      <trkpt lat="47.90067" lon="-2.45823">
        <ele>41</ele>
        <time>2024-12-19T12:34:54Z</time>
      </trkpt>
      <trkpt lat="47.90067" lon="-2.45823">
        <ele>41</ele>
        <time>2024-12-19T12:34:55Z</time>
      </trkpt>
      <trkpt lat="47.90067" lon="-2.45823">
        <ele>41</ele>
        <time>2024-12-19T12:34:56Z</time>
      </trkpt>
      <trkpt lat="47.90067" lon="-2.45823">
        <ele>41</ele>
        <time>2024-12-19T12:34:57Z</time>
      </trkpt>
      <trkpt lat="47.90067" lon="-2.45824">
        <ele>40.9</ele>
        <time>2024-12-19T12:34:58Z</time>
      </trkpt>
      <trkpt lat="47.90067" lon="-2.45824">
        <ele>40.9</ele>
        <time>2024-12-19T12:34:59Z</time>
      </trkpt>
      <trkpt lat="47.90067" lon="-2.45824">
        <ele>40.9</ele>
        <time>2024-12-19T12:35:00Z</time>
      </trkpt>
      <trkpt lat="47.90067" lon="-2.45824">
        <ele>40.9</ele>
        <time>2024-12-19T12:35:01Z</time>
      </trkpt>
      <trkpt lat="47.90067" lon="-2.45824">
        <ele>40.9</ele>
        <time>2024-12-19T12:35:02Z</time>
      </trkpt>
      <trkpt lat="47.90067" lon="-2.45824">
        <ele>40.9</ele>
        <time>2024-12-19T12:35:03Z</time>
      </trkpt>
      <trkpt lat="47.90067" lon="-2.45824">
        <ele>40.9</ele>
        <time>2024-12-19T12:35:04Z</time>
      </trkpt>
      <trkpt lat="47.90067" lon="-2.45824">
        <ele>40.9</ele>
        <time>2024-12-19T12:35:05Z</time>
      </trkpt>
      <trkpt lat="47.90067" lon="-2.45824">
        <ele>40.9</ele>
        <time>2024-12-19T12:35:06Z</time>
      </trkpt>
      <trkpt lat="47.90067" lon="-2.45824">
        <ele>40.9</ele>
        <time>2024-12-19T12:35:07Z</time>
      </trkpt>
      <trkpt lat="47.90067" lon="-2.45824">
        <ele>40.9</ele>
        <time>2024-12-19T12:35:08Z</time>
      </trkpt>
      <trkpt lat="47.90067" lon="-2.45824">
        <ele>40.9</ele>
        <time>2024-12-19T12:35:09Z</time>
      </trkpt>
      <trkpt lat="47.90067" lon="-2.45824">
        <ele>40.9</ele>
        <time>2024-12-19T12:35:10Z</time>
      </trkpt>
      <trkpt lat="47.90068" lon="-2.45825">
        <ele>40.9</ele>
        <time>2024-12-19T12:35:11Z</time>
      </trkpt>
      <trkpt lat="47.90069" lon="-2.45825">
        <ele>41</ele>
        <time>2024-12-19T12:35:12Z</time>
      </trkpt>
      <trkpt lat="47.9007" lon="-2.45826">
        <ele>41.1</ele>
        <time>2024-12-19T12:35:13Z</time>
      </trkpt>
      <trkpt lat="47.90071" lon="-2.45828">
        <ele>41.1</ele>
        <time>2024-12-19T12:35:14Z</time>
      </trkpt>
      <trkpt lat="47.90072" lon="-2.45829">
        <ele>41.1</ele>
        <time>2024-12-19T12:35:15Z</time>
      </trkpt>
      <trkpt lat="47.90073" lon="-2.45831">
        <ele>41.1</ele>
        <time>2024-12-19T12:35:16Z</time>
      </trkpt>
      <trkpt lat="47.90074" lon="-2.45832">
        <ele>41.1</ele>
        <time>2024-12-19T12:35:17Z</time>
      </trkpt>
      <trkpt lat="47.90075" lon="-2.45833">
        <ele>41.2</ele>
        <time>2024-12-19T12:35:18Z</time>
      </trkpt>
      <trkpt lat="47.90076" lon="-2.45834">
        <ele>41.2</ele>
        <time>2024-12-19T12:35:19Z</time>
      </trkpt>
      <trkpt lat="47.90077" lon="-2.45836">
        <ele>41.2</ele>
        <time>2024-12-19T12:35:20Z</time>
      </trkpt>
      <trkpt lat="47.90078" lon="-2.45837">
        <ele>41.2</ele>
        <time>2024-12-19T12:35:21Z</time>
      </trkpt>
      <trkpt lat="47.90079" lon="-2.45839">
        <ele>41.2</ele>
        <time>2024-12-19T12:35:22Z</time>
      </trkpt>
      <trkpt lat="47.9008" lon="-2.45841">
        <ele>41.3</ele>
        <time>2024-12-19T12:35:23Z</time>
      </trkpt>
      <trkpt lat="47.90082" lon="-2.45842">
        <ele>41.3</ele>
        <time>2024-12-19T12:35:24Z</time>
      </trkpt>
      <trkpt lat="47.90084" lon="-2.45844">
        <ele>41.5</ele>
        <time>2024-12-19T12:35:25Z</time>
      </trkpt>
      <trkpt lat="47.90086" lon="-2.45846">
        <ele>41.5</ele>
        <time>2024-12-19T12:35:26Z</time>
      </trkpt>
      <trkpt lat="47.90087" lon="-2.45847">
        <ele>41.5</ele>
        <time>2024-12-19T12:35:27Z</time>
      </trkpt>
      <trkpt lat="47.90089" lon="-2.45848">
        <ele>41.5</ele>
        <time>2024-12-19T12:35:28Z</time>
      </trkpt>
      <trkpt lat="47.9009" lon="-2.45849">
        <ele>41.4</ele>
        <time>2024-12-19T12:35:29Z</time>
      </trkpt>
      <trkpt lat="47.90091" lon="-2.4585">
        <ele>41.4</ele>
        <time>2024-12-19T12:35:30Z</time>
      </trkpt>
      <trkpt lat="47.90093" lon="-2.45852">
        <ele>41.5</ele>
        <time>2024-12-19T12:35:31Z</time>
      </trkpt>
      <trkpt lat="47.90095" lon="-2.45853">
        <ele>41.5</ele>
        <time>2024-12-19T12:35:32Z</time>
      </trkpt>
      <trkpt lat="47.90096" lon="-2.45855">
        <ele>41.6</ele>
        <time>2024-12-19T12:35:33Z</time>
      </trkpt>
      <trkpt lat="47.90098" lon="-2.45856">
        <ele>41.7</ele>
        <time>2024-12-19T12:35:34Z</time>
      </trkpt>
      <trkpt lat="47.90105" lon="-2.45862">
        <ele>42.1</ele>
        <time>2024-12-19T12:35:38Z</time>
      </trkpt>
      <trkpt lat="47.90106" lon="-2.45863">
        <ele>42</ele>
        <time>2024-12-19T12:35:39Z</time>
      </trkpt>
      <trkpt lat="47.90107" lon="-2.45865">
        <ele>41.8</ele>
        <time>2024-12-19T12:35:40Z</time>
      </trkpt>
      <trkpt lat="47.90108" lon="-2.45866">
        <ele>41.8</ele>
        <time>2024-12-19T12:35:41Z</time>
      </trkpt>
      <trkpt lat="47.90109" lon="-2.45867">
        <ele>41.8</ele>
        <time>2024-12-19T12:35:42Z</time>
      </trkpt>
      <trkpt lat="47.9011" lon="-2.45868">
        <ele>41.8</ele>
        <time>2024-12-19T12:35:43Z</time>
      </trkpt>
      <trkpt lat="47.90111" lon="-2.45869">
        <ele>41.8</ele>
        <time>2024-12-19T12:35:44Z</time>
      </trkpt>
      <trkpt lat="47.90112" lon="-2.4587">
        <ele>41.6</ele>
        <time>2024-12-19T12:35:45Z</time>
      </trkpt>
      <trkpt lat="47.90113" lon="-2.45871">
        <ele>41.5</ele>
        <time>2024-12-19T12:35:46Z</time>
      </trkpt>
      <trkpt lat="47.90115" lon="-2.45872">
        <ele>41.3</ele>
        <time>2024-12-19T12:35:47Z</time>
      </trkpt>
      <trkpt lat="47.90116" lon="-2.45873">
        <ele>41.2</ele>
        <time>2024-12-19T12:35:48Z</time>
      </trkpt>
      <trkpt lat="47.90116" lon="-2.45874">
        <ele>40.9</ele>
        <time>2024-12-19T12:35:49Z</time>
      </trkpt>
      <trkpt lat="47.90117" lon="-2.45876">
        <ele>40.7</ele>
        <time>2024-12-19T12:35:50Z</time>
      </trkpt>
      <trkpt lat="47.90118" lon="-2.45878">
        <ele>40.4</ele>
        <time>2024-12-19T12:35:51Z</time>
      </trkpt>
      <trkpt lat="47.90118" lon="-2.45879">
        <ele>40.2</ele>
        <time>2024-12-19T12:35:52Z</time>
      </trkpt>
      <trkpt lat="47.90119" lon="-2.4588">
        <ele>40</ele>
        <time>2024-12-19T12:35:53Z</time>
      </trkpt>
      <trkpt lat="47.9012" lon="-2.45882">
        <ele>39.7</ele>
        <time>2024-12-19T12:35:54Z</time>
      </trkpt>
      <trkpt lat="47.90121" lon="-2.45883">
        <ele>39.5</ele>
        <time>2024-12-19T12:35:55Z</time>
      </trkpt>
      <trkpt lat="47.90122" lon="-2.45883">
        <ele>39.4</ele>
        <time>2024-12-19T12:35:56Z</time>
      </trkpt>
      <trkpt lat="47.90123" lon="-2.45884">
        <ele>39.2</ele>
        <time>2024-12-19T12:35:57Z</time>
      </trkpt>
      <trkpt lat="47.90124" lon="-2.45885">
        <ele>39.2</ele>
        <time>2024-12-19T12:35:58Z</time>
      </trkpt>
      <trkpt lat="47.90124" lon="-2.45885">
        <ele>39.2</ele>
        <time>2024-12-19T12:35:59Z</time>
      </trkpt>
      <trkpt lat="47.90124" lon="-2.45885">
        <ele>39.1</ele>
        <time>2024-12-19T12:36:00Z</time>
      </trkpt>
      <trkpt lat="47.90124" lon="-2.45885">
        <ele>39.1</ele>
        <time>2024-12-19T12:36:01Z</time>
      </trkpt>
      <trkpt lat="47.90124" lon="-2.45886">
        <ele>39</ele>
        <time>2024-12-19T12:36:02Z</time>
      </trkpt>
      <trkpt lat="47.90124" lon="-2.45885">
        <ele>39</ele>
        <time>2024-12-19T12:36:03Z</time>
      </trkpt>
      <trkpt lat="47.90124" lon="-2.45886">
        <ele>39</ele>
        <time>2024-12-19T12:36:04Z</time>
      </trkpt>
      <trkpt lat="47.90124" lon="-2.45886">
        <ele>39</ele>
        <time>2024-12-19T12:36:05Z</time>
      </trkpt>
      <trkpt lat="47.90125" lon="-2.45885">
        <ele>39</ele>
        <time>2024-12-19T12:36:06Z</time>
      </trkpt>
      <trkpt lat="47.90125" lon="-2.45885">
        <ele>39</ele>
        <time>2024-12-19T12:36:07Z</time>
      </trkpt>
      <trkpt lat="47.90126" lon="-2.45886">
        <ele>39</ele>
        <time>2024-12-19T12:36:08Z</time>
      </trkpt>
      <trkpt lat="47.90126" lon="-2.45886">
        <ele>38.9</ele>
        <time>2024-12-19T12:36:09Z</time>
      </trkpt>
      <trkpt lat="47.90126" lon="-2.45886">
        <ele>38.9</ele>
        <time>2024-12-19T12:36:10Z</time>
      </trkpt>
      <trkpt lat="47.90127" lon="-2.45886">
        <ele>38.9</ele>
        <time>2024-12-19T12:36:11Z</time>
      </trkpt>
      <trkpt lat="47.90127" lon="-2.45886">
        <ele>38.9</ele>
        <time>2024-12-19T12:36:12Z</time>
      </trkpt>
      <trkpt lat="47.90127" lon="-2.45886">
        <ele>38.9</ele>
        <time>2024-12-19T12:36:13Z</time>
      </trkpt>
      <trkpt lat="47.90127" lon="-2.45886">
        <ele>38.9</ele>
        <time>2024-12-19T12:36:14Z</time>
      </trkpt>
      <trkpt lat="47.90127" lon="-2.45886">
        <ele>38.9</ele>
        <time>2024-12-19T12:36:15Z</time>
      </trkpt>
      <trkpt lat="47.90127" lon="-2.45886">
        <ele>38.9</ele>
        <time>2024-12-19T12:36:16Z</time>
      </trkpt>
      <trkpt lat="47.90127" lon="-2.45886">
        <ele>38.9</ele>
        <time>2024-12-19T12:36:17Z</time>
      </trkpt>
      <trkpt lat="47.90128" lon="-2.45886">
        <ele>38.9</ele>
        <time>2024-12-19T12:36:18Z</time>
      </trkpt>
      <trkpt lat="47.90128" lon="-2.45887">
        <ele>38.7</ele>
        <time>2024-12-19T12:36:19Z</time>
      </trkpt>
      <trkpt lat="47.90128" lon="-2.45887">
        <ele>38.6</ele>
        <time>2024-12-19T12:36:20Z</time>
      </trkpt>
      <trkpt lat="47.90129" lon="-2.45888">
        <ele>38.5</ele>
        <time>2024-12-19T12:36:21Z</time>
      </trkpt>
      <trkpt lat="47.90129" lon="-2.45889">
        <ele>38.4</ele>
        <time>2024-12-19T12:36:22Z</time>
      </trkpt>
      <trkpt lat="47.9013" lon="-2.4589">
        <ele>38.3</ele>
        <time>2024-12-19T12:36:23Z</time>
      </trkpt>
      <trkpt lat="47.90131" lon="-2.45891">
        <ele>38.3</ele>
        <time>2024-12-19T12:36:24Z</time>
      </trkpt>
      <trkpt lat="47.90131" lon="-2.45891">
        <ele>38.2</ele>
        <time>2024-12-19T12:36:25Z</time>
      </trkpt>
      <trkpt lat="47.90131" lon="-2.45892">
        <ele>38.2</ele>
        <time>2024-12-19T12:36:26Z</time>
      </trkpt>
      <trkpt lat="47.90132" lon="-2.45893">
        <ele>38.2</ele>
        <time>2024-12-19T12:36:27Z</time>
      </trkpt>
      <trkpt lat="47.90134" lon="-2.45893">
        <ele>38.2</ele>
        <time>2024-12-19T12:36:28Z</time>
      </trkpt>
      <trkpt lat="47.90134" lon="-2.45894">
        <ele>38.3</ele>
        <time>2024-12-19T12:36:29Z</time>
      </trkpt>
      <trkpt lat="47.90135" lon="-2.45894">
        <ele>38.3</ele>
        <time>2024-12-19T12:36:30Z</time>
      </trkpt>
      <trkpt lat="47.90137" lon="-2.45895">
        <ele>38.3</ele>
        <time>2024-12-19T12:36:31Z</time>
      </trkpt>
      <trkpt lat="47.90138" lon="-2.45895">
        <ele>38.4</ele>
        <time>2024-12-19T12:36:32Z</time>
      </trkpt>
      <trkpt lat="47.90139" lon="-2.45895">
        <ele>38.5</ele>
        <time>2024-12-19T12:36:33Z</time>
      </trkpt>
      <trkpt lat="47.9014" lon="-2.45895">
        <ele>38.7</ele>
        <time>2024-12-19T12:36:34Z</time>
      </trkpt>
      <trkpt lat="47.90141" lon="-2.45896">
        <ele>38.9</ele>
        <time>2024-12-19T12:36:35Z</time>
      </trkpt>
      <trkpt lat="47.90142" lon="-2.45896">
        <ele>39.1</ele>
        <time>2024-12-19T12:36:36Z</time>
      </trkpt>
      <trkpt lat="47.90142" lon="-2.45896">
        <ele>39.2</ele>
        <time>2024-12-19T12:36:37Z</time>
      </trkpt>
      <trkpt lat="47.90142" lon="-2.45896">
        <ele>39.2</ele>
        <time>2024-12-19T12:36:38Z</time>
      </trkpt>
      <trkpt lat="47.90142" lon="-2.45896">
        <ele>39.2</ele>
        <time>2024-12-19T12:36:39Z</time>
      </trkpt>
      <trkpt lat="47.90142" lon="-2.45896">
        <ele>39.2</ele>
        <time>2024-12-19T12:36:40Z</time>
      </trkpt>
      <trkpt lat="47.90142" lon="-2.45895">
        <ele>39.2</ele>
        <time>2024-12-19T12:36:41Z</time>
      </trkpt>
      <trkpt lat="47.90141" lon="-2.45895">
        <ele>39</ele>
        <time>2024-12-19T12:36:42Z</time>
      </trkpt>
      <trkpt lat="47.90141" lon="-2.45895">
        <ele>39</ele>
        <time>2024-12-19T12:36:43Z</time>
      </trkpt>
      <trkpt lat="47.90141" lon="-2.45895">
        <ele>38.9</ele>
        <time>2024-12-19T12:36:44Z</time>
      </trkpt>
      <trkpt lat="47.90141" lon="-2.45895">
        <ele>38.9</ele>
        <time>2024-12-19T12:36:45Z</time>
      </trkpt>
      <trkpt lat="47.90141" lon="-2.45895">
        <ele>38.9</ele>
        <time>2024-12-19T12:36:46Z</time>
      </trkpt>
      <trkpt lat="47.90141" lon="-2.45895">
        <ele>38.8</ele>
        <time>2024-12-19T12:36:47Z</time>
      </trkpt>
      <trkpt lat="47.90141" lon="-2.45895">
        <ele>38.8</ele>
        <time>2024-12-19T12:36:48Z</time>
      </trkpt>
      <trkpt lat="47.90141" lon="-2.45895">
        <ele>38.8</ele>
        <time>2024-12-19T12:36:49Z</time>
      </trkpt>
      <trkpt lat="47.90141" lon="-2.45895">
        <ele>38.8</ele>
        <time>2024-12-19T12:36:50Z</time>
      </trkpt>
      <trkpt lat="47.90141" lon="-2.45895">
        <ele>38.8</ele>
        <time>2024-12-19T12:36:51Z</time>
      </trkpt>
      <trkpt lat="47.90141" lon="-2.45894">
        <ele>38.8</ele>
        <time>2024-12-19T12:36:52Z</time>
      </trkpt>
      <trkpt lat="47.90141" lon="-2.45894">
        <ele>38.8</ele>
        <time>2024-12-19T12:36:53Z</time>
      </trkpt>
      <trkpt lat="47.90141" lon="-2.45894">
        <ele>38.8</ele>
        <time>2024-12-19T12:36:54Z</time>
      </trkpt>
      <trkpt lat="47.90141" lon="-2.45894">
        <ele>38.8</ele>
        <time>2024-12-19T12:36:55Z</time>
      </trkpt>
      <trkpt lat="47.90141" lon="-2.45894">
        <ele>38.8</ele>
        <time>2024-12-19T12:36:56Z</time>
      </trkpt>
      <trkpt lat="47.90141" lon="-2.45894">
        <ele>38.8</ele>
        <time>2024-12-19T12:36:57Z</time>
      </trkpt>
      <trkpt lat="47.90141" lon="-2.45894">
        <ele>38.8</ele>
        <time>2024-12-19T12:36:58Z</time>
      </trkpt>
      <trkpt lat="47.90141" lon="-2.45894">
        <ele>38.8</ele>
        <time>2024-12-19T12:36:59Z</time>
      </trkpt>
      <trkpt lat="47.90141" lon="-2.45894">
        <ele>38.8</ele>
        <time>2024-12-19T12:37:00Z</time>
      </trkpt>
      <trkpt lat="47.90141" lon="-2.45894">
        <ele>38.8</ele>
        <time>2024-12-19T12:37:01Z</time>
      </trkpt>
      <trkpt lat="47.90141" lon="-2.45894">
        <ele>38.8</ele>
        <time>2024-12-19T12:37:02Z</time>
      </trkpt>
      <trkpt lat="47.90141" lon="-2.45894">
        <ele>38.8</ele>
        <time>2024-12-19T12:37:03Z</time>
      </trkpt>
      <trkpt lat="47.90141" lon="-2.45894">
        <ele>38.8</ele>
        <time>2024-12-19T12:37:04Z</time>
      </trkpt>
      <trkpt lat="47.90141" lon="-2.45894">
        <ele>38.8</ele>
        <time>2024-12-19T12:37:05Z</time>
      </trkpt>
      <trkpt lat="47.90141" lon="-2.45894">
        <ele>38.8</ele>
        <time>2024-12-19T12:37:06Z</time>
      </trkpt>
      <trkpt lat="47.90141" lon="-2.45894">
        <ele>38.8</ele>
        <time>2024-12-19T12:37:07Z</time>
      </trkpt>
      <trkpt lat="47.90141" lon="-2.45895">
        <ele>38.8</ele>
        <time>2024-12-19T12:37:08Z</time>
      </trkpt>
      <trkpt lat="47.90141" lon="-2.45895">
        <ele>38.8</ele>
        <time>2024-12-19T12:37:09Z</time>
      </trkpt>
      <trkpt lat="47.90141" lon="-2.45895">
        <ele>38.8</ele>
        <time>2024-12-19T12:37:10Z</time>
      </trkpt>
      <trkpt lat="47.90141" lon="-2.45895">
        <ele>38.8</ele>
        <time>2024-12-19T12:37:11Z</time>
      </trkpt>
      <trkpt lat="47.90141" lon="-2.45895">
        <ele>38.8</ele>
        <time>2024-12-19T12:37:12Z</time>
      </trkpt>
      <trkpt lat="47.90141" lon="-2.45895">
        <ele>38.8</ele>
        <time>2024-12-19T12:37:13Z</time>
      </trkpt>
      <trkpt lat="47.90141" lon="-2.45895">
        <ele>38.8</ele>
        <time>2024-12-19T12:37:14Z</time>
      </trkpt>
      <trkpt lat="47.90141" lon="-2.45895">
        <ele>38.8</ele>
        <time>2024-12-19T12:37:15Z</time>
      </trkpt>
      <trkpt lat="47.90141" lon="-2.45895">
        <ele>38.8</ele>
        <time>2024-12-19T12:37:16Z</time>
      </trkpt>
      <trkpt lat="47.90141" lon="-2.45895">
        <ele>38.8</ele>
        <time>2024-12-19T12:37:17Z</time>
      </trkpt>
      <trkpt lat="47.9014" lon="-2.45895">
        <ele>38.8</ele>
        <time>2024-12-19T12:37:18Z</time>
      </trkpt>
      <trkpt lat="47.9014" lon="-2.45895">
        <ele>38.8</ele>
        <time>2024-12-19T12:37:19Z</time>
      </trkpt>
      <trkpt lat="47.90141" lon="-2.45895">
        <ele>38.8</ele>
        <time>2024-12-19T12:37:20Z</time>
      </trkpt>
      <trkpt lat="47.90141" lon="-2.45895">
        <ele>38.8</ele>
        <time>2024-12-19T12:37:21Z</time>
      </trkpt>
      <trkpt lat="47.90141" lon="-2.45895">
        <ele>38.8</ele>
        <time>2024-12-19T12:37:22Z</time>
      </trkpt>
      <trkpt lat="47.9014" lon="-2.45895">
        <ele>38.8</ele>
        <time>2024-12-19T12:37:23Z</time>
      </trkpt>
      <trkpt lat="47.9014" lon="-2.45895">
        <ele>38.8</ele>
        <time>2024-12-19T12:37:24Z</time>
      </trkpt>
      <trkpt lat="47.9014" lon="-2.45895">
        <ele>38.8</ele>
        <time>2024-12-19T12:37:25Z</time>
      </trkpt>
      <trkpt lat="47.9014" lon="-2.45895">
        <ele>38.8</ele>
        <time>2024-12-19T12:37:26Z</time>
      </trkpt>
      <trkpt lat="47.9014" lon="-2.45895">
        <ele>38.8</ele>
        <time>2024-12-19T12:37:27Z</time>
      </trkpt>
      <trkpt lat="47.9014" lon="-2.45895">
        <ele>38.8</ele>
        <time>2024-12-19T12:37:28Z</time>
      </trkpt>
      <trkpt lat="47.9014" lon="-2.45895">
        <ele>38.8</ele>
        <time>2024-12-19T12:37:29Z</time>
      </trkpt>
      <trkpt lat="47.9014" lon="-2.45895">
        <ele>38.8</ele>
        <time>2024-12-19T12:37:30Z</time>
      </trkpt>
      <trkpt lat="47.9014" lon="-2.45895">
        <ele>38.8</ele>
        <time>2024-12-19T12:37:31Z</time>
      </trkpt>
      <trkpt lat="47.9014" lon="-2.45895">
        <ele>38.8</ele>
        <time>2024-12-19T12:37:32Z</time>
      </trkpt>
      <trkpt lat="47.9014" lon="-2.45895">
        <ele>38.8</ele>
        <time>2024-12-19T12:37:33Z</time>
      </trkpt>
      <trkpt lat="47.90147" lon="-2.4591">
        <ele>41.1</ele>
        <time>2024-12-19T12:37:34Z</time>
      </trkpt>
      <trkpt lat="47.9014" lon="-2.45895">
        <ele>38.8</ele>
        <time>2024-12-19T12:37:36Z</time>
      </trkpt>
      <trkpt lat="47.9014" lon="-2.45895">
        <ele>38.8</ele>
        <time>2024-12-19T12:37:37Z</time>
      </trkpt>
      <trkpt lat="47.9014" lon="-2.45895">
        <ele>38.8</ele>
        <time>2024-12-19T12:37:38Z</time>
      </trkpt>
      <trkpt lat="47.9014" lon="-2.45895">
        <ele>38.8</ele>
        <time>2024-12-19T12:37:39Z</time>
      </trkpt>
      <trkpt lat="47.9014" lon="-2.45895">
        <ele>38.8</ele>
        <time>2024-12-19T12:37:40Z</time>
      </trkpt>
      <trkpt lat="47.9014" lon="-2.45895">
        <ele>38.8</ele>
        <time>2024-12-19T12:37:41Z</time>
      </trkpt>
      <trkpt lat="47.9014" lon="-2.45895">
        <ele>38.8</ele>
        <time>2024-12-19T12:37:42Z</time>
      </trkpt>
      <trkpt lat="47.9014" lon="-2.45895">
        <ele>38.8</ele>
        <time>2024-12-19T12:37:43Z</time>
      </trkpt>
      <trkpt lat="47.9014" lon="-2.45895">
        <ele>38.8</ele>
        <time>2024-12-19T12:37:44Z</time>
      </trkpt>
      <trkpt lat="47.9014" lon="-2.45895">
        <ele>38.8</ele>
        <time>2024-12-19T12:37:45Z</time>
      </trkpt>
      <trkpt lat="47.9014" lon="-2.45895">
        <ele>38.8</ele>
        <time>2024-12-19T12:37:46Z</time>
      </trkpt>
      <trkpt lat="47.9014" lon="-2.45895">
        <ele>38.8</ele>
        <time>2024-12-19T12:37:47Z</time>
      </trkpt>
      <trkpt lat="47.9014" lon="-2.45895">
        <ele>38.8</ele>
        <time>2024-12-19T12:37:48Z</time>
      </trkpt>
      <trkpt lat="47.9014" lon="-2.45895">
        <ele>38.8</ele>
        <time>2024-12-19T12:37:49Z</time>
      </trkpt>
      <trkpt lat="47.9014" lon="-2.45895">
        <ele>38.8</ele>
        <time>2024-12-19T12:37:50Z</time>
      </trkpt>
      <trkpt lat="47.9014" lon="-2.45895">
        <ele>38.8</ele>
        <time>2024-12-19T12:37:51Z</time>
      </trkpt>
      <trkpt lat="47.9014" lon="-2.45895">
        <ele>38.8</ele>
        <time>2024-12-19T12:37:52Z</time>
      </trkpt>
      <trkpt lat="47.9014" lon="-2.45895">
        <ele>38.8</ele>
        <time>2024-12-19T12:37:53Z</time>
      </trkpt>
      <trkpt lat="47.9014" lon="-2.45895">
        <ele>38.8</ele>
        <time>2024-12-19T12:37:54Z</time>
      </trkpt>
      <trkpt lat="47.90139" lon="-2.45897">
        <ele>38.7</ele>
        <time>2024-12-19T12:37:55Z</time>
      </trkpt>
      <trkpt lat="47.9014" lon="-2.45901">
        <ele>39.1</ele>
        <time>2024-12-19T12:37:56Z</time>
      </trkpt>
      <trkpt lat="47.90142" lon="-2.45906">
        <ele>39.8</ele>
        <time>2024-12-19T12:37:57Z</time>
      </trkpt>
      <trkpt lat="47.90143" lon="-2.45911">
        <ele>40.5</ele>
        <time>2024-12-19T12:37:58Z</time>
      </trkpt>
      <trkpt lat="47.90142" lon="-2.45914">
        <ele>40.3</ele>
        <time>2024-12-19T12:37:59Z</time>
      </trkpt>
      <trkpt lat="47.9014" lon="-2.45919">
        <ele>39.8</ele>
        <time>2024-12-19T12:38:00Z</time>
      </trkpt>
      <trkpt lat="47.90138" lon="-2.45922">
        <ele>38.6</ele>
        <time>2024-12-19T12:38:01Z</time>
      </trkpt>
      <trkpt lat="47.90135" lon="-2.45924">
        <ele>37.6</ele>
        <time>2024-12-19T12:38:02Z</time>
      </trkpt>
      <trkpt lat="47.90128" lon="-2.45927">
        <ele>35.2</ele>
        <time>2024-12-19T12:38:03Z</time>
      </trkpt>
      <trkpt lat="47.90124" lon="-2.45928">
        <ele>34</ele>
        <time>2024-12-19T12:38:04Z</time>
      </trkpt>
      <trkpt lat="47.90122" lon="-2.45929">
        <ele>33.3</ele>
        <time>2024-12-19T12:38:05Z</time>
      </trkpt>
      <trkpt lat="47.90121" lon="-2.4593">
        <ele>32.9</ele>
        <time>2024-12-19T12:38:06Z</time>
      </trkpt>
      <trkpt lat="47.90121" lon="-2.45931">
        <ele>32.6</ele>
        <time>2024-12-19T12:38:07Z</time>
      </trkpt>
      <trkpt lat="47.9012" lon="-2.45931">
        <ele>32.1</ele>
        <time>2024-12-19T12:38:08Z</time>
      </trkpt>
      <trkpt lat="47.90119" lon="-2.45932">
        <ele>31.8</ele>
        <time>2024-12-19T12:38:09Z</time>
      </trkpt>
      <trkpt lat="47.90118" lon="-2.45933">
        <ele>31.6</ele>
        <time>2024-12-19T12:38:10Z</time>
      </trkpt>
      <trkpt lat="47.90118" lon="-2.45933">
        <ele>31.5</ele>
        <time>2024-12-19T12:38:11Z</time>
      </trkpt>
      <trkpt lat="47.90119" lon="-2.45931">
        <ele>32</ele>
        <time>2024-12-19T12:38:12Z</time>
      </trkpt>
      <trkpt lat="47.9012" lon="-2.4593">
        <ele>32.3</ele>
        <time>2024-12-19T12:38:13Z</time>
      </trkpt>
      <trkpt lat="47.9012" lon="-2.4593">
        <ele>32.5</ele>
        <time>2024-12-19T12:38:14Z</time>
      </trkpt>
      <trkpt lat="47.90119" lon="-2.45929">
        <ele>32.5</ele>
        <time>2024-12-19T12:38:15Z</time>
      </trkpt>
      <trkpt lat="47.90119" lon="-2.45928">
        <ele>32.6</ele>
        <time>2024-12-19T12:38:16Z</time>
      </trkpt>
      <trkpt lat="47.90119" lon="-2.45928">
        <ele>32.6</ele>
        <time>2024-12-19T12:38:17Z</time>
      </trkpt>
      <trkpt lat="47.90119" lon="-2.45928">
        <ele>32.5</ele>
        <time>2024-12-19T12:38:18Z</time>
      </trkpt>
      <trkpt lat="47.90119" lon="-2.45929">
        <ele>32.5</ele>
        <time>2024-12-19T12:38:19Z</time>
      </trkpt>
      <trkpt lat="47.90119" lon="-2.45929">
        <ele>32.4</ele>
        <time>2024-12-19T12:38:20Z</time>
      </trkpt>
      <trkpt lat="47.90119" lon="-2.45929">
        <ele>32.4</ele>
        <time>2024-12-19T12:38:21Z</time>
      </trkpt>
      <trkpt lat="47.90119" lon="-2.45929">
        <ele>32.4</ele>
        <time>2024-12-19T12:38:22Z</time>
      </trkpt>
      <trkpt lat="47.90119" lon="-2.45929">
        <ele>32.4</ele>
        <time>2024-12-19T12:38:23Z</time>
      </trkpt>
      <trkpt lat="47.90119" lon="-2.45929">
        <ele>32.4</ele>
        <time>2024-12-19T12:38:24Z</time>
      </trkpt>
      <trkpt lat="47.90119" lon="-2.45929">
        <ele>32.4</ele>
        <time>2024-12-19T12:38:25Z</time>
      </trkpt>
      <trkpt lat="47.90119" lon="-2.45929">
        <ele>32.4</ele>
        <time>2024-12-19T12:38:26Z</time>
      </trkpt>
      <trkpt lat="47.90119" lon="-2.45929">
        <ele>32.4</ele>
        <time>2024-12-19T12:38:27Z</time>
      </trkpt>
      <trkpt lat="47.90119" lon="-2.4593">
        <ele>32.3</ele>
        <time>2024-12-19T12:38:28Z</time>
      </trkpt>
      <trkpt lat="47.90119" lon="-2.4593">
        <ele>32.3</ele>
        <time>2024-12-19T12:38:29Z</time>
      </trkpt>
      <trkpt lat="47.90119" lon="-2.4593">
        <ele>32.3</ele>
        <time>2024-12-19T12:38:30Z</time>
      </trkpt>
      <trkpt lat="47.90119" lon="-2.4593">
        <ele>32.3</ele>
        <time>2024-12-19T12:38:31Z</time>
      </trkpt>
      <trkpt lat="47.90119" lon="-2.4593">
        <ele>32.3</ele>
        <time>2024-12-19T12:38:32Z</time>
      </trkpt>
      <trkpt lat="47.9012" lon="-2.45931">
        <ele>32.2</ele>
        <time>2024-12-19T12:38:33Z</time>
      </trkpt>
      <trkpt lat="47.9012" lon="-2.45933">
        <ele>32.1</ele>
        <time>2024-12-19T12:38:34Z</time>
      </trkpt>
      <trkpt lat="47.90121" lon="-2.45934">
        <ele>32.1</ele>
        <time>2024-12-19T12:38:35Z</time>
      </trkpt>
      <trkpt lat="47.90122" lon="-2.45935">
        <ele>32.3</ele>
        <time>2024-12-19T12:38:36Z</time>
      </trkpt>
      <trkpt lat="47.90123" lon="-2.45936">
        <ele>32.3</ele>
        <time>2024-12-19T12:38:37Z</time>
      </trkpt>
      <trkpt lat="47.90123" lon="-2.45937">
        <ele>32.2</ele>
        <time>2024-12-19T12:38:38Z</time>
      </trkpt>
      <trkpt lat="47.90123" lon="-2.4594">
        <ele>31.9</ele>
        <time>2024-12-19T12:38:39Z</time>
      </trkpt>
      <trkpt lat="47.90124" lon="-2.45942">
        <ele>31.5</ele>
        <time>2024-12-19T12:38:40Z</time>
      </trkpt>
      <trkpt lat="47.90123" lon="-2.45944">
        <ele>31.2</ele>
        <time>2024-12-19T12:38:41Z</time>
      </trkpt>
      <trkpt lat="47.90123" lon="-2.45945">
        <ele>31</ele>
        <time>2024-12-19T12:38:42Z</time>
      </trkpt>
      <trkpt lat="47.90123" lon="-2.45946">
        <ele>30.7</ele>
        <time>2024-12-19T12:38:43Z</time>
      </trkpt>
      <trkpt lat="47.90122" lon="-2.45948">
        <ele>30.2</ele>
        <time>2024-12-19T12:38:44Z</time>
      </trkpt>
      <trkpt lat="47.90121" lon="-2.45949">
        <ele>29.9</ele>
        <time>2024-12-19T12:38:45Z</time>
      </trkpt>
      <trkpt lat="47.90121" lon="-2.45951">
        <ele>29.6</ele>
        <time>2024-12-19T12:38:46Z</time>
      </trkpt>
      <trkpt lat="47.9012" lon="-2.45952">
        <ele>29.4</ele>
        <time>2024-12-19T12:38:47Z</time>
      </trkpt>
      <trkpt lat="47.9012" lon="-2.45953">
        <ele>29.3</ele>
        <time>2024-12-19T12:38:48Z</time>
      </trkpt>
      <trkpt lat="47.9012" lon="-2.45954">
        <ele>29.1</ele>
        <time>2024-12-19T12:38:49Z</time>
      </trkpt>
      <trkpt lat="47.90119" lon="-2.45954">
        <ele>28.9</ele>
        <time>2024-12-19T12:38:50Z</time>
      </trkpt>
      <trkpt lat="47.90119" lon="-2.45954">
        <ele>28.8</ele>
        <time>2024-12-19T12:38:51Z</time>
      </trkpt>
      <trkpt lat="47.90119" lon="-2.45952">
        <ele>29</ele>
        <time>2024-12-19T12:38:52Z</time>
      </trkpt>
      <trkpt lat="47.90119" lon="-2.45951">
        <ele>29.1</ele>
        <time>2024-12-19T12:38:53Z</time>
      </trkpt>
      <trkpt lat="47.90118" lon="-2.45952">
        <ele>29</ele>
        <time>2024-12-19T12:38:54Z</time>
      </trkpt>
      <trkpt lat="47.90118" lon="-2.45952">
        <ele>28.9</ele>
        <time>2024-12-19T12:38:55Z</time>
      </trkpt>
      <trkpt lat="47.90118" lon="-2.45952">
        <ele>28.9</ele>
        <time>2024-12-19T12:38:56Z</time>
      </trkpt>
      <trkpt lat="47.90118" lon="-2.45953">
        <ele>28.8</ele>
        <time>2024-12-19T12:38:57Z</time>
      </trkpt>
      <trkpt lat="47.90118" lon="-2.45954">
        <ele>28.6</ele>
        <time>2024-12-19T12:38:58Z</time>
      </trkpt>
      <trkpt lat="47.90118" lon="-2.45954">
        <ele>28.6</ele>
        <time>2024-12-19T12:38:59Z</time>
      </trkpt>
      <trkpt lat="47.90118" lon="-2.45954">
        <ele>28.7</ele>
        <time>2024-12-19T12:39:00Z</time>
      </trkpt>
      <trkpt lat="47.90118" lon="-2.45956">
        <ele>28.3</ele>
        <time>2024-12-19T12:39:02Z</time>
      </trkpt>
      <trkpt lat="47.90117" lon="-2.45957">
        <ele>28.1</ele>
        <time>2024-12-19T12:39:03Z</time>
      </trkpt>
      <trkpt lat="47.90117" lon="-2.45957">
        <ele>28.2</ele>
        <time>2024-12-19T12:39:04Z</time>
      </trkpt>
      <trkpt lat="47.90118" lon="-2.45958">
        <ele>28.2</ele>
        <time>2024-12-19T12:39:05Z</time>
      </trkpt>
      <trkpt lat="47.90118" lon="-2.45959">
        <ele>28.1</ele>
        <time>2024-12-19T12:39:06Z</time>
      </trkpt>
      <trkpt lat="47.90118" lon="-2.4596">
        <ele>27.8</ele>
        <time>2024-12-19T12:39:07Z</time>
      </trkpt>
      <trkpt lat="47.90117" lon="-2.45962">
        <ele>27.5</ele>
        <time>2024-12-19T12:39:08Z</time>
      </trkpt>
      <trkpt lat="47.90117" lon="-2.45964">
        <ele>27.2</ele>
        <time>2024-12-19T12:39:09Z</time>
      </trkpt>
      <trkpt lat="47.90116" lon="-2.45966">
        <ele>26.8</ele>
        <time>2024-12-19T12:39:10Z</time>
      </trkpt>
      <trkpt lat="47.90116" lon="-2.45968">
        <ele>26.5</ele>
        <time>2024-12-19T12:39:11Z</time>
      </trkpt>
      <trkpt lat="47.90115" lon="-2.4597">
        <ele>26.1</ele>
        <time>2024-12-19T12:39:12Z</time>
      </trkpt>
      <trkpt lat="47.90115" lon="-2.45972">
        <ele>25.8</ele>
        <time>2024-12-19T12:39:13Z</time>
      </trkpt>
      <trkpt lat="47.90114" lon="-2.45974">
        <ele>25.5</ele>
        <time>2024-12-19T12:39:14Z</time>
      </trkpt>
      <trkpt lat="47.90114" lon="-2.45976">
        <ele>25.4</ele>
        <time>2024-12-19T12:39:15Z</time>
      </trkpt>
      <trkpt lat="47.90113" lon="-2.45977">
        <ele>25.1</ele>
        <time>2024-12-19T12:39:16Z</time>
      </trkpt>
      <trkpt lat="47.90112" lon="-2.45978">
        <ele>24.9</ele>
        <time>2024-12-19T12:39:17Z</time>
      </trkpt>
      <trkpt lat="47.90111" lon="-2.45979">
        <ele>24.8</ele>
        <time>2024-12-19T12:39:18Z</time>
      </trkpt>
      <trkpt lat="47.9011" lon="-2.4598">
        <ele>24.7</ele>
        <time>2024-12-19T12:39:19Z</time>
      </trkpt>
      <trkpt lat="47.90109" lon="-2.45981">
        <ele>24.6</ele>
        <time>2024-12-19T12:39:20Z</time>
      </trkpt>
      <trkpt lat="47.90109" lon="-2.45983">
        <ele>24.5</ele>
        <time>2024-12-19T12:39:21Z</time>
      </trkpt>
      <trkpt lat="47.90109" lon="-2.45984">
        <ele>24.5</ele>
        <time>2024-12-19T12:39:22Z</time>
      </trkpt>
      <trkpt lat="47.90108" lon="-2.45985">
        <ele>24.4</ele>
        <time>2024-12-19T12:39:23Z</time>
      </trkpt>
      <trkpt lat="47.90107" lon="-2.45987">
        <ele>24.3</ele>
        <time>2024-12-19T12:39:24Z</time>
      </trkpt>
      <trkpt lat="47.90107" lon="-2.45988">
        <ele>24.3</ele>
        <time>2024-12-19T12:39:25Z</time>
      </trkpt>
      <trkpt lat="47.90107" lon="-2.45989">
        <ele>24.2</ele>
        <time>2024-12-19T12:39:26Z</time>
      </trkpt>
      <trkpt lat="47.90106" lon="-2.4599">
        <ele>24.2</ele>
        <time>2024-12-19T12:39:27Z</time>
      </trkpt>
      <trkpt lat="47.90105" lon="-2.45991">
        <ele>24.1</ele>
        <time>2024-12-19T12:39:28Z</time>
      </trkpt>
      <trkpt lat="47.90105" lon="-2.45992">
        <ele>24.1</ele>
        <time>2024-12-19T12:39:29Z</time>
      </trkpt>
      <trkpt lat="47.90105" lon="-2.45992">
        <ele>24.1</ele>
        <time>2024-12-19T12:39:30Z</time>
      </trkpt>
      <trkpt lat="47.90105" lon="-2.45992">
        <ele>24.1</ele>
        <time>2024-12-19T12:39:31Z</time>
      </trkpt>
      <trkpt lat="47.90105" lon="-2.45992">
        <ele>24</ele>
        <time>2024-12-19T12:39:32Z</time>
      </trkpt>
      <trkpt lat="47.90104" lon="-2.45992">
        <ele>24</ele>
        <time>2024-12-19T12:39:33Z</time>
      </trkpt>
      <trkpt lat="47.90104" lon="-2.45993">
        <ele>24</ele>
        <time>2024-12-19T12:39:34Z</time>
      </trkpt>
      <trkpt lat="47.90104" lon="-2.45993">
        <ele>24</ele>
        <time>2024-12-19T12:39:35Z</time>
      </trkpt>
      <trkpt lat="47.90104" lon="-2.45993">
        <ele>24</ele>
        <time>2024-12-19T12:39:36Z</time>
      </trkpt>
      <trkpt lat="47.90104" lon="-2.45993">
        <ele>24</ele>
        <time>2024-12-19T12:39:37Z</time>
      </trkpt>
      <trkpt lat="47.90104" lon="-2.45993">
        <ele>24</ele>
        <time>2024-12-19T12:39:38Z</time>
      </trkpt>
      <trkpt lat="47.90105" lon="-2.45992">
        <ele>24</ele>
        <time>2024-12-19T12:39:39Z</time>
      </trkpt>
      <trkpt lat="47.90105" lon="-2.45992">
        <ele>24</ele>
        <time>2024-12-19T12:39:40Z</time>
      </trkpt>
      <trkpt lat="47.90105" lon="-2.45992">
        <ele>24.1</ele>
        <time>2024-12-19T12:39:41Z</time>
      </trkpt>
      <trkpt lat="47.90105" lon="-2.45992">
        <ele>24.1</ele>
        <time>2024-12-19T12:39:42Z</time>
      </trkpt>
      <trkpt lat="47.90105" lon="-2.45992">
        <ele>24.1</ele>
        <time>2024-12-19T12:39:43Z</time>
      </trkpt>
      <trkpt lat="47.90105" lon="-2.45992">
        <ele>24.1</ele>
        <time>2024-12-19T12:39:44Z</time>
      </trkpt>
      <trkpt lat="47.90105" lon="-2.45992">
        <ele>24.1</ele>
        <time>2024-12-19T12:39:45Z</time>
      </trkpt>
      <trkpt lat="47.90105" lon="-2.45992">
        <ele>24.1</ele>
        <time>2024-12-19T12:39:46Z</time>
      </trkpt>
      <trkpt lat="47.90105" lon="-2.45992">
        <ele>24.1</ele>
        <time>2024-12-19T12:39:47Z</time>
      </trkpt>
      <trkpt lat="47.90105" lon="-2.45991">
        <ele>24.1</ele>
        <time>2024-12-19T12:39:48Z</time>
      </trkpt>
      <trkpt lat="47.90105" lon="-2.45991">
        <ele>24.1</ele>
        <time>2024-12-19T12:39:49Z</time>
      </trkpt>
      <trkpt lat="47.90105" lon="-2.45991">
        <ele>24.1</ele>
        <time>2024-12-19T12:39:50Z</time>
      </trkpt>
      <trkpt lat="47.90105" lon="-2.45991">
        <ele>24.1</ele>
        <time>2024-12-19T12:39:51Z</time>
      </trkpt>
      <trkpt lat="47.90105" lon="-2.45991">
        <ele>24.1</ele>
        <time>2024-12-19T12:39:52Z</time>
      </trkpt>
      <trkpt lat="47.90105" lon="-2.45991">
        <ele>24.1</ele>
        <time>2024-12-19T12:39:53Z</time>
      </trkpt>
      <trkpt lat="47.90105" lon="-2.45991">
        <ele>24.1</ele>
        <time>2024-12-19T12:39:54Z</time>
      </trkpt>
      <trkpt lat="47.90105" lon="-2.45991">
        <ele>24.1</ele>
        <time>2024-12-19T12:39:55Z</time>
      </trkpt>
      <trkpt lat="47.90105" lon="-2.45991">
        <ele>24.1</ele>
        <time>2024-12-19T12:39:56Z</time>
      </trkpt>
      <trkpt lat="47.90105" lon="-2.45991">
        <ele>24.1</ele>
        <time>2024-12-19T12:39:57Z</time>
      </trkpt>
      <trkpt lat="47.90105" lon="-2.45991">
        <ele>24.1</ele>
        <time>2024-12-19T12:39:58Z</time>
      </trkpt>
      <trkpt lat="47.90105" lon="-2.45991">
        <ele>24.1</ele>
        <time>2024-12-19T12:39:59Z</time>
      </trkpt>
      <trkpt lat="47.90105" lon="-2.45991">
        <ele>24.1</ele>
        <time>2024-12-19T12:40:00Z</time>
      </trkpt>
      <trkpt lat="47.90105" lon="-2.45992">
        <ele>24.1</ele>
        <time>2024-12-19T12:40:01Z</time>
      </trkpt>
      <trkpt lat="47.90105" lon="-2.45992">
        <ele>24.1</ele>
        <time>2024-12-19T12:40:02Z</time>
      </trkpt>
      <trkpt lat="47.90105" lon="-2.45992">
        <ele>24.1</ele>
        <time>2024-12-19T12:40:03Z</time>
      </trkpt>
      <trkpt lat="47.90104" lon="-2.45992">
        <ele>24.1</ele>
        <time>2024-12-19T12:40:04Z</time>
      </trkpt>
      <trkpt lat="47.90104" lon="-2.45992">
        <ele>24.1</ele>
        <time>2024-12-19T12:40:05Z</time>
      </trkpt>
      <trkpt lat="47.90104" lon="-2.45992">
        <ele>24.1</ele>
        <time>2024-12-19T12:40:06Z</time>
      </trkpt>
      <trkpt lat="47.90104" lon="-2.45992">
        <ele>24</ele>
        <time>2024-12-19T12:40:07Z</time>
      </trkpt>
      <trkpt lat="47.90104" lon="-2.45992">
        <ele>24</ele>
        <time>2024-12-19T12:40:08Z</time>
      </trkpt>
      <trkpt lat="47.90103" lon="-2.45993">
        <ele>23.9</ele>
        <time>2024-12-19T12:40:09Z</time>
      </trkpt>
      <trkpt lat="47.90102" lon="-2.45994">
        <ele>23.9</ele>
        <time>2024-12-19T12:40:10Z</time>
      </trkpt>
      <trkpt lat="47.90101" lon="-2.45995">
        <ele>23.8</ele>
        <time>2024-12-19T12:40:11Z</time>
      </trkpt>
      <trkpt lat="47.901" lon="-2.45996">
        <ele>23.8</ele>
        <time>2024-12-19T12:40:12Z</time>
      </trkpt>
      <trkpt lat="47.90099" lon="-2.45996">
        <ele>23.7</ele>
        <time>2024-12-19T12:40:13Z</time>
      </trkpt>
      <trkpt lat="47.90098" lon="-2.45997">
        <ele>23.6</ele>
        <time>2024-12-19T12:40:14Z</time>
      </trkpt>
      <trkpt lat="47.90097" lon="-2.45999">
        <ele>23.5</ele>
        <time>2024-12-19T12:40:15Z</time>
      </trkpt>
      <trkpt lat="47.90096" lon="-2.46001">
        <ele>23.5</ele>
        <time>2024-12-19T12:40:16Z</time>
      </trkpt>
      <trkpt lat="47.90096" lon="-2.46002">
        <ele>23.4</ele>
        <time>2024-12-19T12:40:17Z</time>
      </trkpt>
      <trkpt lat="47.90095" lon="-2.46004">
        <ele>23.4</ele>
        <time>2024-12-19T12:40:18Z</time>
      </trkpt>
      <trkpt lat="47.90095" lon="-2.46007">
        <ele>23.3</ele>
        <time>2024-12-19T12:40:19Z</time>
      </trkpt>
      <trkpt lat="47.90095" lon="-2.46008">
        <ele>23.3</ele>
        <time>2024-12-19T12:40:20Z</time>
      </trkpt>
      <trkpt lat="47.90095" lon="-2.46009">
        <ele>23.3</ele>
        <time>2024-12-19T12:40:21Z</time>
      </trkpt>
      <trkpt lat="47.90095" lon="-2.4601">
        <ele>23.3</ele>
        <time>2024-12-19T12:40:22Z</time>
      </trkpt>
      <trkpt lat="47.90095" lon="-2.4601">
        <ele>23.3</ele>
        <time>2024-12-19T12:40:23Z</time>
      </trkpt>
      <trkpt lat="47.90095" lon="-2.4601">
        <ele>23.3</ele>
        <time>2024-12-19T12:40:24Z</time>
      </trkpt>
      <trkpt lat="47.90095" lon="-2.4601">
        <ele>23.3</ele>
        <time>2024-12-19T12:40:25Z</time>
      </trkpt>
      <trkpt lat="47.90095" lon="-2.4601">
        <ele>23.3</ele>
        <time>2024-12-19T12:40:26Z</time>
      </trkpt>
      <trkpt lat="47.90095" lon="-2.4601">
        <ele>23.3</ele>
        <time>2024-12-19T12:40:27Z</time>
      </trkpt>
      <trkpt lat="47.90095" lon="-2.4601">
        <ele>23.3</ele>
        <time>2024-12-19T12:40:28Z</time>
      </trkpt>
      <trkpt lat="47.90095" lon="-2.46011">
        <ele>23.3</ele>
        <time>2024-12-19T12:40:29Z</time>
      </trkpt>
      <trkpt lat="47.90095" lon="-2.46011">
        <ele>23.3</ele>
        <time>2024-12-19T12:40:30Z</time>
      </trkpt>
      <trkpt lat="47.90095" lon="-2.46011">
        <ele>23.3</ele>
        <time>2024-12-19T12:40:31Z</time>
      </trkpt>
      <trkpt lat="47.90095" lon="-2.46011">
        <ele>23.3</ele>
        <time>2024-12-19T12:40:32Z</time>
      </trkpt>
      <trkpt lat="47.90095" lon="-2.46011">
        <ele>23.2</ele>
        <time>2024-12-19T12:40:33Z</time>
      </trkpt>
      <trkpt lat="47.90095" lon="-2.46011">
        <ele>23.2</ele>
        <time>2024-12-19T12:40:34Z</time>
      </trkpt>
      <trkpt lat="47.90095" lon="-2.46011">
        <ele>23.2</ele>
        <time>2024-12-19T12:40:35Z</time>
      </trkpt>
      <trkpt lat="47.90095" lon="-2.46011">
        <ele>23.2</ele>
        <time>2024-12-19T12:40:36Z</time>
      </trkpt>
      <trkpt lat="47.90094" lon="-2.46011">
        <ele>23.2</ele>
        <time>2024-12-19T12:40:37Z</time>
      </trkpt>
      <trkpt lat="47.90094" lon="-2.46011">
        <ele>23.2</ele>
        <time>2024-12-19T12:40:38Z</time>
      </trkpt>
      <trkpt lat="47.90094" lon="-2.46011">
        <ele>23.2</ele>
        <time>2024-12-19T12:40:39Z</time>
      </trkpt>
      <trkpt lat="47.90094" lon="-2.46011">
        <ele>23.2</ele>
        <time>2024-12-19T12:40:40Z</time>
      </trkpt>
      <trkpt lat="47.90094" lon="-2.46011">
        <ele>23.2</ele>
        <time>2024-12-19T12:40:41Z</time>
      </trkpt>
      <trkpt lat="47.90094" lon="-2.46011">
        <ele>23.2</ele>
        <time>2024-12-19T12:40:42Z</time>
      </trkpt>
      <trkpt lat="47.90094" lon="-2.46011">
        <ele>23.2</ele>
        <time>2024-12-19T12:40:43Z</time>
      </trkpt>
      <trkpt lat="47.90094" lon="-2.46011">
        <ele>23.2</ele>
        <time>2024-12-19T12:40:44Z</time>
      </trkpt>
      <trkpt lat="47.90094" lon="-2.46011">
        <ele>23.2</ele>
        <time>2024-12-19T12:40:45Z</time>
      </trkpt>
      <trkpt lat="47.90094" lon="-2.46011">
        <ele>23.2</ele>
        <time>2024-12-19T12:40:48Z</time>
      </trkpt>
      <trkpt lat="47.90094" lon="-2.46011">
        <ele>23.2</ele>
        <time>2024-12-19T12:40:49Z</time>
      </trkpt>
      <trkpt lat="47.90094" lon="-2.46011">
        <ele>23.2</ele>
        <time>2024-12-19T12:40:50Z</time>
      </trkpt>
      <trkpt lat="47.90094" lon="-2.46011">
        <ele>23.2</ele>
        <time>2024-12-19T12:40:51Z</time>
      </trkpt>
      <trkpt lat="47.90094" lon="-2.46011">
        <ele>23.2</ele>
        <time>2024-12-19T12:40:52Z</time>
      </trkpt>
      <trkpt lat="47.90094" lon="-2.46011">
        <ele>23.2</ele>
        <time>2024-12-19T12:40:53Z</time>
      </trkpt>
      <trkpt lat="47.90094" lon="-2.46011">
        <ele>23.2</ele>
        <time>2024-12-19T12:40:54Z</time>
      </trkpt>
      <trkpt lat="47.90094" lon="-2.46011">
        <ele>23.2</ele>
        <time>2024-12-19T12:40:55Z</time>
      </trkpt>
      <trkpt lat="47.90094" lon="-2.46011">
        <ele>23.2</ele>
        <time>2024-12-19T12:40:56Z</time>
      </trkpt>
      <trkpt lat="47.90094" lon="-2.46011">
        <ele>23.2</ele>
        <time>2024-12-19T12:40:57Z</time>
      </trkpt>
      <trkpt lat="47.90094" lon="-2.46011">
        <ele>23.2</ele>
        <time>2024-12-19T12:40:58Z</time>
      </trkpt>
      <trkpt lat="47.90094" lon="-2.46011">
        <ele>23.2</ele>
        <time>2024-12-19T12:40:59Z</time>
      </trkpt>
      <trkpt lat="47.90094" lon="-2.46011">
        <ele>23.2</ele>
        <time>2024-12-19T12:41:00Z</time>
      </trkpt>
      <trkpt lat="47.90094" lon="-2.46011">
        <ele>23.2</ele>
        <time>2024-12-19T12:41:01Z</time>
      </trkpt>
      <trkpt lat="47.90094" lon="-2.46011">
        <ele>23.2</ele>
        <time>2024-12-19T12:41:02Z</time>
      </trkpt>
      <trkpt lat="47.90094" lon="-2.46011">
        <ele>23.2</ele>
        <time>2024-12-19T12:41:03Z</time>
      </trkpt>
      <trkpt lat="47.90094" lon="-2.46011">
        <ele>23.2</ele>
        <time>2024-12-19T12:41:04Z</time>
      </trkpt>
      <trkpt lat="47.90094" lon="-2.46011">
        <ele>23.2</ele>
        <time>2024-12-19T12:41:05Z</time>
      </trkpt>
      <trkpt lat="47.90094" lon="-2.46011">
        <ele>23.2</ele>
        <time>2024-12-19T12:41:06Z</time>
      </trkpt>
      <trkpt lat="47.90094" lon="-2.46011">
        <ele>23.2</ele>
        <time>2024-12-19T12:41:07Z</time>
      </trkpt>
      <trkpt lat="47.90094" lon="-2.46012">
        <ele>23.2</ele>
        <time>2024-12-19T12:41:08Z</time>
      </trkpt>
      <trkpt lat="47.90094" lon="-2.46013">
        <ele>23.2</ele>
        <time>2024-12-19T12:41:09Z</time>
      </trkpt>
      <trkpt lat="47.90093" lon="-2.46015">
        <ele>23.2</ele>
        <time>2024-12-19T12:41:10Z</time>
      </trkpt>
      <trkpt lat="47.90092" lon="-2.46017">
        <ele>23.1</ele>
        <time>2024-12-19T12:41:11Z</time>
      </trkpt>
      <trkpt lat="47.9009" lon="-2.46019">
        <ele>23.1</ele>
        <time>2024-12-19T12:41:12Z</time>
      </trkpt>
      <trkpt lat="47.90089" lon="-2.46021">
        <ele>23.1</ele>
        <time>2024-12-19T12:41:13Z</time>
      </trkpt>
      <trkpt lat="47.90088" lon="-2.46022">
        <ele>23</ele>
        <time>2024-12-19T12:41:14Z</time>
      </trkpt>
      <trkpt lat="47.90087" lon="-2.46024">
        <ele>23</ele>
        <time>2024-12-19T12:41:15Z</time>
      </trkpt>
      <trkpt lat="47.90086" lon="-2.46025">
        <ele>23</ele>
        <time>2024-12-19T12:41:16Z</time>
      </trkpt>
      <trkpt lat="47.90085" lon="-2.46026">
        <ele>23</ele>
        <time>2024-12-19T12:41:17Z</time>
      </trkpt>
      <trkpt lat="47.90083" lon="-2.46027">
        <ele>23</ele>
        <time>2024-12-19T12:41:18Z</time>
      </trkpt>
      <trkpt lat="47.90082" lon="-2.46028">
        <ele>23</ele>
        <time>2024-12-19T12:41:19Z</time>
      </trkpt>
      <trkpt lat="47.9008" lon="-2.46029">
        <ele>23</ele>
        <time>2024-12-19T12:41:20Z</time>
      </trkpt>
      <trkpt lat="47.90079" lon="-2.4603">
        <ele>23</ele>
        <time>2024-12-19T12:41:21Z</time>
      </trkpt>
      <trkpt lat="47.90079" lon="-2.46031">
        <ele>23</ele>
        <time>2024-12-19T12:41:22Z</time>
      </trkpt>
      <trkpt lat="47.90078" lon="-2.46031">
        <ele>23</ele>
        <time>2024-12-19T12:41:23Z</time>
      </trkpt>
      <trkpt lat="47.90077" lon="-2.46033">
        <ele>23</ele>
        <time>2024-12-19T12:41:24Z</time>
      </trkpt>
      <trkpt lat="47.90076" lon="-2.46034">
        <ele>23</ele>
        <time>2024-12-19T12:41:25Z</time>
      </trkpt>
      <trkpt lat="47.90076" lon="-2.46035">
        <ele>23</ele>
        <time>2024-12-19T12:41:26Z</time>
      </trkpt>
      <trkpt lat="47.90075" lon="-2.46036">
        <ele>23</ele>
        <time>2024-12-19T12:41:27Z</time>
      </trkpt>
      <trkpt lat="47.90075" lon="-2.46037">
        <ele>23</ele>
        <time>2024-12-19T12:41:28Z</time>
      </trkpt>
      <trkpt lat="47.90074" lon="-2.46038">
        <ele>23</ele>
        <time>2024-12-19T12:41:29Z</time>
      </trkpt>
      <trkpt lat="47.90074" lon="-2.46039">
        <ele>23</ele>
        <time>2024-12-19T12:41:30Z</time>
      </trkpt>
      <trkpt lat="47.90073" lon="-2.46041">
        <ele>23</ele>
        <time>2024-12-19T12:41:31Z</time>
      </trkpt>
      <trkpt lat="47.90072" lon="-2.46042">
        <ele>23</ele>
        <time>2024-12-19T12:41:32Z</time>
      </trkpt>
      <trkpt lat="47.90071" lon="-2.46043">
        <ele>23</ele>
        <time>2024-12-19T12:41:33Z</time>
      </trkpt>
      <trkpt lat="47.9007" lon="-2.46044">
        <ele>23</ele>
        <time>2024-12-19T12:41:34Z</time>
      </trkpt>
      <trkpt lat="47.90069" lon="-2.46045">
        <ele>23</ele>
        <time>2024-12-19T12:41:35Z</time>
      </trkpt>
      <trkpt lat="47.90068" lon="-2.46046">
        <ele>23</ele>
        <time>2024-12-19T12:41:36Z</time>
      </trkpt>
      <trkpt lat="47.90067" lon="-2.46047">
        <ele>23</ele>
        <time>2024-12-19T12:41:37Z</time>
      </trkpt>
      <trkpt lat="47.90067" lon="-2.46049">
        <ele>23</ele>
        <time>2024-12-19T12:41:38Z</time>
      </trkpt>
      <trkpt lat="47.90066" lon="-2.4605">
        <ele>23</ele>
        <time>2024-12-19T12:41:39Z</time>
      </trkpt>
      <trkpt lat="47.90066" lon="-2.46051">
        <ele>23</ele>
        <time>2024-12-19T12:41:40Z</time>
      </trkpt>
      <trkpt lat="47.90065" lon="-2.46053">
        <ele>23</ele>
        <time>2024-12-19T12:41:41Z</time>
      </trkpt>
      <trkpt lat="47.90065" lon="-2.46055">
        <ele>23</ele>
        <time>2024-12-19T12:41:42Z</time>
      </trkpt>
      <trkpt lat="47.90065" lon="-2.46056">
        <ele>23</ele>
        <time>2024-12-19T12:41:43Z</time>
      </trkpt>
      <trkpt lat="47.90064" lon="-2.46057">
        <ele>23</ele>
        <time>2024-12-19T12:41:44Z</time>
      </trkpt>
      <trkpt lat="47.90064" lon="-2.46059">
        <ele>23</ele>
        <time>2024-12-19T12:41:45Z</time>
      </trkpt>
      <trkpt lat="47.90063" lon="-2.4606">
        <ele>23</ele>
        <time>2024-12-19T12:41:46Z</time>
      </trkpt>
      <trkpt lat="47.90063" lon="-2.46061">
        <ele>23</ele>
        <time>2024-12-19T12:41:47Z</time>
      </trkpt>
      <trkpt lat="47.90062" lon="-2.46062">
        <ele>23</ele>
        <time>2024-12-19T12:41:48Z</time>
      </trkpt>
      <trkpt lat="47.90062" lon="-2.46064">
        <ele>23</ele>
        <time>2024-12-19T12:41:49Z</time>
      </trkpt>
      <trkpt lat="47.90061" lon="-2.46065">
        <ele>23</ele>
        <time>2024-12-19T12:41:50Z</time>
      </trkpt>
      <trkpt lat="47.90061" lon="-2.46065">
        <ele>23</ele>
        <time>2024-12-19T12:41:51Z</time>
      </trkpt>
      <trkpt lat="47.90061" lon="-2.46065">
        <ele>23</ele>
        <time>2024-12-19T12:41:52Z</time>
      </trkpt>
      <trkpt lat="47.90061" lon="-2.46066">
        <ele>23</ele>
        <time>2024-12-19T12:41:53Z</time>
      </trkpt>
      <trkpt lat="47.9006" lon="-2.46066">
        <ele>23</ele>
        <time>2024-12-19T12:41:54Z</time>
      </trkpt>
      <trkpt lat="47.90059" lon="-2.46067">
        <ele>23</ele>
        <time>2024-12-19T12:41:55Z</time>
      </trkpt>
      <trkpt lat="47.90058" lon="-2.46067">
        <ele>23</ele>
        <time>2024-12-19T12:41:56Z</time>
      </trkpt>
      <trkpt lat="47.90057" lon="-2.46069">
        <ele>23</ele>
        <time>2024-12-19T12:41:57Z</time>
      </trkpt>
      <trkpt lat="47.90056" lon="-2.4607">
        <ele>23</ele>
        <time>2024-12-19T12:41:58Z</time>
      </trkpt>
      <trkpt lat="47.90055" lon="-2.46071">
        <ele>23</ele>
        <time>2024-12-19T12:41:59Z</time>
      </trkpt>
      <trkpt lat="47.90055" lon="-2.46071">
        <ele>23</ele>
        <time>2024-12-19T12:42:00Z</time>
      </trkpt>
      <trkpt lat="47.90054" lon="-2.46072">
        <ele>23</ele>
        <time>2024-12-19T12:42:01Z</time>
      </trkpt>
      <trkpt lat="47.90053" lon="-2.46074">
        <ele>23</ele>
        <time>2024-12-19T12:42:02Z</time>
      </trkpt>
      <trkpt lat="47.90052" lon="-2.46075">
        <ele>23</ele>
        <time>2024-12-19T12:42:03Z</time>
      </trkpt>
      <trkpt lat="47.90051" lon="-2.46076">
        <ele>23</ele>
        <time>2024-12-19T12:42:04Z</time>
      </trkpt>
      <trkpt lat="47.90051" lon="-2.46077">
        <ele>23</ele>
        <time>2024-12-19T12:42:05Z</time>
      </trkpt>
      <trkpt lat="47.90049" lon="-2.46078">
        <ele>23</ele>
        <time>2024-12-19T12:42:06Z</time>
      </trkpt>
      <trkpt lat="47.90048" lon="-2.4608">
        <ele>23</ele>
        <time>2024-12-19T12:42:07Z</time>
      </trkpt>
      <trkpt lat="47.90047" lon="-2.46081">
        <ele>23</ele>
        <time>2024-12-19T12:42:08Z</time>
      </trkpt>
      <trkpt lat="47.90046" lon="-2.46083">
        <ele>23</ele>
        <time>2024-12-19T12:42:09Z</time>
      </trkpt>
      <trkpt lat="47.90045" lon="-2.46085">
        <ele>23.1</ele>
        <time>2024-12-19T12:42:10Z</time>
      </trkpt>
      <trkpt lat="47.90044" lon="-2.46087">
        <ele>23.1</ele>
        <time>2024-12-19T12:42:11Z</time>
      </trkpt>
      <trkpt lat="47.90043" lon="-2.46089">
        <ele>23.2</ele>
        <time>2024-12-19T12:42:12Z</time>
      </trkpt>
      <trkpt lat="47.90042" lon="-2.46091">
        <ele>23.3</ele>
        <time>2024-12-19T12:42:13Z</time>
      </trkpt>
      <trkpt lat="47.90041" lon="-2.46093">
        <ele>23.4</ele>
        <time>2024-12-19T12:42:14Z</time>
      </trkpt>
      <trkpt lat="47.90039" lon="-2.46095">
        <ele>23.4</ele>
        <time>2024-12-19T12:42:15Z</time>
      </trkpt>
      <trkpt lat="47.90039" lon="-2.46097">
        <ele>23.5</ele>
        <time>2024-12-19T12:42:16Z</time>
      </trkpt>
      <trkpt lat="47.90038" lon="-2.46098">
        <ele>23.5</ele>
        <time>2024-12-19T12:42:17Z</time>
      </trkpt>
      <trkpt lat="47.90037" lon="-2.46098">
        <ele>23.5</ele>
        <time>2024-12-19T12:42:18Z</time>
      </trkpt>
      <trkpt lat="47.90036" lon="-2.46099">
        <ele>23.6</ele>
        <time>2024-12-19T12:42:19Z</time>
      </trkpt>
      <trkpt lat="47.90035" lon="-2.461">
        <ele>23.6</ele>
        <time>2024-12-19T12:42:20Z</time>
      </trkpt>
      <trkpt lat="47.90034" lon="-2.46101">
        <ele>23.7</ele>
        <time>2024-12-19T12:42:21Z</time>
      </trkpt>
      <trkpt lat="47.90033" lon="-2.46103">
        <ele>23.7</ele>
        <time>2024-12-19T12:42:22Z</time>
      </trkpt>
      <trkpt lat="47.90033" lon="-2.46104">
        <ele>23.8</ele>
        <time>2024-12-19T12:42:23Z</time>
      </trkpt>
      <trkpt lat="47.90032" lon="-2.46106">
        <ele>23.8</ele>
        <time>2024-12-19T12:42:24Z</time>
      </trkpt>
      <trkpt lat="47.90032" lon="-2.46107">
        <ele>23.9</ele>
        <time>2024-12-19T12:42:25Z</time>
      </trkpt>
      <trkpt lat="47.90032" lon="-2.46109">
        <ele>23.9</ele>
        <time>2024-12-19T12:42:26Z</time>
      </trkpt>
      <trkpt lat="47.90032" lon="-2.46112">
        <ele>24</ele>
        <time>2024-12-19T12:42:27Z</time>
      </trkpt>
      <trkpt lat="47.90031" lon="-2.46114">
        <ele>24</ele>
        <time>2024-12-19T12:42:28Z</time>
      </trkpt>
      <trkpt lat="47.9003" lon="-2.46116">
        <ele>24</ele>
        <time>2024-12-19T12:42:29Z</time>
      </trkpt>
      <trkpt lat="47.90029" lon="-2.46117">
        <ele>24</ele>
        <time>2024-12-19T12:42:30Z</time>
      </trkpt>
      <trkpt lat="47.90028" lon="-2.46118">
        <ele>24</ele>
        <time>2024-12-19T12:42:31Z</time>
      </trkpt>
      <trkpt lat="47.90027" lon="-2.4612">
        <ele>24</ele>
        <time>2024-12-19T12:42:32Z</time>
      </trkpt>
      <trkpt lat="47.90027" lon="-2.46121">
        <ele>24</ele>
        <time>2024-12-19T12:42:33Z</time>
      </trkpt>
      <trkpt lat="47.90026" lon="-2.46122">
        <ele>23.9</ele>
        <time>2024-12-19T12:42:34Z</time>
      </trkpt>
      <trkpt lat="47.90026" lon="-2.46124">
        <ele>23.9</ele>
        <time>2024-12-19T12:42:35Z</time>
      </trkpt>
      <trkpt lat="47.90026" lon="-2.46125">
        <ele>23.9</ele>
        <time>2024-12-19T12:42:36Z</time>
      </trkpt>
      <trkpt lat="47.90025" lon="-2.46127">
        <ele>23.9</ele>
        <time>2024-12-19T12:42:37Z</time>
      </trkpt>
      <trkpt lat="47.90025" lon="-2.46128">
        <ele>23.9</ele>
        <time>2024-12-19T12:42:38Z</time>
      </trkpt>
      <trkpt lat="47.90025" lon="-2.46129">
        <ele>23.9</ele>
        <time>2024-12-19T12:42:39Z</time>
      </trkpt>
      <trkpt lat="47.90024" lon="-2.4613">
        <ele>23.9</ele>
        <time>2024-12-19T12:42:40Z</time>
      </trkpt>
      <trkpt lat="47.90024" lon="-2.46131">
        <ele>23.8</ele>
        <time>2024-12-19T12:42:41Z</time>
      </trkpt>
      <trkpt lat="47.90023" lon="-2.46132">
        <ele>23.8</ele>
        <time>2024-12-19T12:42:42Z</time>
      </trkpt>
      <trkpt lat="47.90023" lon="-2.46134">
        <ele>23.8</ele>
        <time>2024-12-19T12:42:43Z</time>
      </trkpt>
      <trkpt lat="47.90023" lon="-2.46135">
        <ele>23.8</ele>
        <time>2024-12-19T12:42:44Z</time>
      </trkpt>
      <trkpt lat="47.90022" lon="-2.46137">
        <ele>23.8</ele>
        <time>2024-12-19T12:42:45Z</time>
      </trkpt>
      <trkpt lat="47.90022" lon="-2.46138">
        <ele>23.8</ele>
        <time>2024-12-19T12:42:46Z</time>
      </trkpt>
      <trkpt lat="47.90021" lon="-2.4614">
        <ele>23.7</ele>
        <time>2024-12-19T12:42:47Z</time>
      </trkpt>
      <trkpt lat="47.9002" lon="-2.46142">
        <ele>23.6</ele>
        <time>2024-12-19T12:42:48Z</time>
      </trkpt>
      <trkpt lat="47.90019" lon="-2.46143">
        <ele>23.6</ele>
        <time>2024-12-19T12:42:49Z</time>
      </trkpt>
      <trkpt lat="47.90018" lon="-2.46143">
        <ele>23.5</ele>
        <time>2024-12-19T12:42:50Z</time>
      </trkpt>
      <trkpt lat="47.90017" lon="-2.46144">
        <ele>23.5</ele>
        <time>2024-12-19T12:42:51Z</time>
      </trkpt>
      <trkpt lat="47.90016" lon="-2.46145">
        <ele>23.4</ele>
        <time>2024-12-19T12:42:52Z</time>
      </trkpt>
      <trkpt lat="47.90016" lon="-2.46146">
        <ele>23.4</ele>
        <time>2024-12-19T12:42:53Z</time>
      </trkpt>
      <trkpt lat="47.90016" lon="-2.46147">
        <ele>23.4</ele>
        <time>2024-12-19T12:42:54Z</time>
      </trkpt>
      <trkpt lat="47.90016" lon="-2.46148">
        <ele>23.4</ele>
        <time>2024-12-19T12:42:55Z</time>
      </trkpt>
      <trkpt lat="47.90016" lon="-2.46148">
        <ele>23.4</ele>
        <time>2024-12-19T12:42:56Z</time>
      </trkpt>
      <trkpt lat="47.90016" lon="-2.46149">
        <ele>23.4</ele>
        <time>2024-12-19T12:42:57Z</time>
      </trkpt>
      <trkpt lat="47.90016" lon="-2.4615">
        <ele>23.3</ele>
        <time>2024-12-19T12:42:58Z</time>
      </trkpt>
      <trkpt lat="47.90016" lon="-2.46151">
        <ele>23.3</ele>
        <time>2024-12-19T12:42:59Z</time>
      </trkpt>
      <trkpt lat="47.90017" lon="-2.46151">
        <ele>23.3</ele>
        <time>2024-12-19T12:43:00Z</time>
      </trkpt>
      <trkpt lat="47.90017" lon="-2.46151">
        <ele>23.3</ele>
        <time>2024-12-19T12:43:01Z</time>
      </trkpt>
      <trkpt lat="47.90017" lon="-2.46151">
        <ele>23.3</ele>
        <time>2024-12-19T12:43:02Z</time>
      </trkpt>
      <trkpt lat="47.90017" lon="-2.46152">
        <ele>23.3</ele>
        <time>2024-12-19T12:43:03Z</time>
      </trkpt>
      <trkpt lat="47.90016" lon="-2.46152">
        <ele>23.3</ele>
        <time>2024-12-19T12:43:04Z</time>
      </trkpt>
      <trkpt lat="47.90016" lon="-2.46153">
        <ele>23.3</ele>
        <time>2024-12-19T12:43:05Z</time>
      </trkpt>
      <trkpt lat="47.90014" lon="-2.46153">
        <ele>23.2</ele>
        <time>2024-12-19T12:43:06Z</time>
      </trkpt>
      <trkpt lat="47.90013" lon="-2.46154">
        <ele>23.2</ele>
        <time>2024-12-19T12:43:07Z</time>
      </trkpt>
      <trkpt lat="47.90012" lon="-2.46155">
        <ele>23.2</ele>
        <time>2024-12-19T12:43:08Z</time>
      </trkpt>
      <trkpt lat="47.90011" lon="-2.46156">
        <ele>23.2</ele>
        <time>2024-12-19T12:43:09Z</time>
      </trkpt>
      <trkpt lat="47.90011" lon="-2.46157">
        <ele>23.1</ele>
        <time>2024-12-19T12:43:10Z</time>
      </trkpt>
      <trkpt lat="47.9001" lon="-2.46158">
        <ele>23.1</ele>
        <time>2024-12-19T12:43:11Z</time>
      </trkpt>
      <trkpt lat="47.90009" lon="-2.46159">
        <ele>23.1</ele>
        <time>2024-12-19T12:43:12Z</time>
      </trkpt>
      <trkpt lat="47.90009" lon="-2.46161">
        <ele>23.1</ele>
        <time>2024-12-19T12:43:13Z</time>
      </trkpt>
      <trkpt lat="47.90008" lon="-2.46163">
        <ele>23</ele>
        <time>2024-12-19T12:43:14Z</time>
      </trkpt>
      <trkpt lat="47.90008" lon="-2.46165">
        <ele>23</ele>
        <time>2024-12-19T12:43:15Z</time>
      </trkpt>
      <trkpt lat="47.90007" lon="-2.46166">
        <ele>23</ele>
        <time>2024-12-19T12:43:16Z</time>
      </trkpt>
      <trkpt lat="47.90007" lon="-2.46168">
        <ele>23.1</ele>
        <time>2024-12-19T12:43:17Z</time>
      </trkpt>
      <trkpt lat="47.90006" lon="-2.46169">
        <ele>23.1</ele>
        <time>2024-12-19T12:43:18Z</time>
      </trkpt>
      <trkpt lat="47.90006" lon="-2.46171">
        <ele>23.3</ele>
        <time>2024-12-19T12:43:19Z</time>
      </trkpt>
      <trkpt lat="47.90005" lon="-2.46173">
        <ele>23.4</ele>
        <time>2024-12-19T12:43:20Z</time>
      </trkpt>
      <trkpt lat="47.90004" lon="-2.46175">
        <ele>23.5</ele>
        <time>2024-12-19T12:43:21Z</time>
      </trkpt>
      <trkpt lat="47.90004" lon="-2.46176">
        <ele>23.6</ele>
        <time>2024-12-19T12:43:22Z</time>
      </trkpt>
      <trkpt lat="47.90003" lon="-2.46178">
        <ele>23.7</ele>
        <time>2024-12-19T12:43:23Z</time>
      </trkpt>
      <trkpt lat="47.90002" lon="-2.46179">
        <ele>23.8</ele>
        <time>2024-12-19T12:43:24Z</time>
      </trkpt>
      <trkpt lat="47.90001" lon="-2.46181">
        <ele>24</ele>
        <time>2024-12-19T12:43:25Z</time>
      </trkpt>
      <trkpt lat="47.90001" lon="-2.46183">
        <ele>24.1</ele>
        <time>2024-12-19T12:43:26Z</time>
      </trkpt>
      <trkpt lat="47.9" lon="-2.46185">
        <ele>24.3</ele>
        <time>2024-12-19T12:43:27Z</time>
      </trkpt>
      <trkpt lat="47.89999" lon="-2.46186">
        <ele>24.4</ele>
        <time>2024-12-19T12:43:28Z</time>
      </trkpt>
      <trkpt lat="47.89998" lon="-2.46188">
        <ele>24.4</ele>
        <time>2024-12-19T12:43:29Z</time>
      </trkpt>
      <trkpt lat="47.89998" lon="-2.46189">
        <ele>24.5</ele>
        <time>2024-12-19T12:43:30Z</time>
      </trkpt>
      <trkpt lat="47.89997" lon="-2.46191">
        <ele>24.5</ele>
        <time>2024-12-19T12:43:31Z</time>
      </trkpt>
      <trkpt lat="47.89996" lon="-2.46192">
        <ele>24.6</ele>
        <time>2024-12-19T12:43:32Z</time>
      </trkpt>
      <trkpt lat="47.89995" lon="-2.46194">
        <ele>24.6</ele>
        <time>2024-12-19T12:43:33Z</time>
      </trkpt>
      <trkpt lat="47.89994" lon="-2.46196">
        <ele>24.7</ele>
        <time>2024-12-19T12:43:34Z</time>
      </trkpt>
      <trkpt lat="47.89994" lon="-2.46197">
        <ele>24.7</ele>
        <time>2024-12-19T12:43:35Z</time>
      </trkpt>
      <trkpt lat="47.89994" lon="-2.46198">
        <ele>24.8</ele>
        <time>2024-12-19T12:43:36Z</time>
      </trkpt>
      <trkpt lat="47.89995" lon="-2.46199">
        <ele>24.8</ele>
        <time>2024-12-19T12:43:37Z</time>
      </trkpt>
      <trkpt lat="47.89995" lon="-2.462">
        <ele>24.9</ele>
        <time>2024-12-19T12:43:38Z</time>
      </trkpt>
      <trkpt lat="47.89994" lon="-2.46201">
        <ele>24.9</ele>
        <time>2024-12-19T12:43:39Z</time>
      </trkpt>
      <trkpt lat="47.89994" lon="-2.46201">
        <ele>24.9</ele>
        <time>2024-12-19T12:43:40Z</time>
      </trkpt>
      <trkpt lat="47.89993" lon="-2.46202">
        <ele>24.9</ele>
        <time>2024-12-19T12:43:41Z</time>
      </trkpt>
      <trkpt lat="47.89992" lon="-2.46203">
        <ele>24.8</ele>
        <time>2024-12-19T12:43:42Z</time>
      </trkpt>
      <trkpt lat="47.89991" lon="-2.46204">
        <ele>24.8</ele>
        <time>2024-12-19T12:43:43Z</time>
      </trkpt>
      <trkpt lat="47.89991" lon="-2.46205">
        <ele>24.8</ele>
        <time>2024-12-19T12:43:44Z</time>
      </trkpt>
      <trkpt lat="47.89991" lon="-2.46207">
        <ele>24.9</ele>
        <time>2024-12-19T12:43:45Z</time>
      </trkpt>
      <trkpt lat="47.89991" lon="-2.46208">
        <ele>25</ele>
        <time>2024-12-19T12:43:46Z</time>
      </trkpt>
      <trkpt lat="47.89991" lon="-2.4621">
        <ele>25.1</ele>
        <time>2024-12-19T12:43:47Z</time>
      </trkpt>
      <trkpt lat="47.8999" lon="-2.46212">
        <ele>25.1</ele>
        <time>2024-12-19T12:43:48Z</time>
      </trkpt>
      <trkpt lat="47.8999" lon="-2.46214">
        <ele>25.2</ele>
        <time>2024-12-19T12:43:49Z</time>
      </trkpt>
      <trkpt lat="47.8999" lon="-2.46216">
        <ele>25.2</ele>
        <time>2024-12-19T12:43:50Z</time>
      </trkpt>
      <trkpt lat="47.8999" lon="-2.46218">
        <ele>25.3</ele>
        <time>2024-12-19T12:43:51Z</time>
      </trkpt>
      <trkpt lat="47.8999" lon="-2.46221">
        <ele>25.5</ele>
        <time>2024-12-19T12:43:52Z</time>
      </trkpt>
      <trkpt lat="47.8999" lon="-2.46223">
        <ele>25.5</ele>
        <time>2024-12-19T12:43:53Z</time>
      </trkpt>
      <trkpt lat="47.8999" lon="-2.46225">
        <ele>25.4</ele>
        <time>2024-12-19T12:43:54Z</time>
      </trkpt>
      <trkpt lat="47.8999" lon="-2.46227">
        <ele>25.3</ele>
        <time>2024-12-19T12:43:55Z</time>
      </trkpt>
      <trkpt lat="47.8999" lon="-2.46228">
        <ele>25.2</ele>
        <time>2024-12-19T12:43:56Z</time>
      </trkpt>
      <trkpt lat="47.8999" lon="-2.4623">
        <ele>25.1</ele>
        <time>2024-12-19T12:43:57Z</time>
      </trkpt>
      <trkpt lat="47.89989" lon="-2.46232">
        <ele>25</ele>
        <time>2024-12-19T12:43:58Z</time>
      </trkpt>
      <trkpt lat="47.89989" lon="-2.46233">
        <ele>25</ele>
        <time>2024-12-19T12:43:59Z</time>
      </trkpt>
      <trkpt lat="47.89989" lon="-2.46235">
        <ele>24.9</ele>
        <time>2024-12-19T12:44:00Z</time>
      </trkpt>
      <trkpt lat="47.89989" lon="-2.46236">
        <ele>24.8</ele>
        <time>2024-12-19T12:44:01Z</time>
      </trkpt>
      <trkpt lat="47.89989" lon="-2.46237">
        <ele>24.8</ele>
        <time>2024-12-19T12:44:02Z</time>
      </trkpt>
      <trkpt lat="47.89989" lon="-2.46237">
        <ele>24.8</ele>
        <time>2024-12-19T12:44:03Z</time>
      </trkpt>
      <trkpt lat="47.89989" lon="-2.46237">
        <ele>24.8</ele>
        <time>2024-12-19T12:44:04Z</time>
      </trkpt>
      <trkpt lat="47.89989" lon="-2.46238">
        <ele>24.7</ele>
        <time>2024-12-19T12:44:05Z</time>
      </trkpt>
      <trkpt lat="47.89989" lon="-2.46241">
        <ele>24.6</ele>
        <time>2024-12-19T12:44:06Z</time>
      </trkpt>
      <trkpt lat="47.89989" lon="-2.46242">
        <ele>24.5</ele>
        <time>2024-12-19T12:44:07Z</time>
      </trkpt>
      <trkpt lat="47.89989" lon="-2.46244">
        <ele>24.5</ele>
        <time>2024-12-19T12:44:08Z</time>
      </trkpt>
      <trkpt lat="47.89989" lon="-2.46246">
        <ele>24.3</ele>
        <time>2024-12-19T12:44:09Z</time>
      </trkpt>
      <trkpt lat="47.89988" lon="-2.46248">
        <ele>24.2</ele>
        <time>2024-12-19T12:44:10Z</time>
      </trkpt>
      <trkpt lat="47.89988" lon="-2.4625">
        <ele>24.1</ele>
        <time>2024-12-19T12:44:11Z</time>
      </trkpt>
      <trkpt lat="47.89988" lon="-2.46252">
        <ele>24</ele>
        <time>2024-12-19T12:44:12Z</time>
      </trkpt>
      <trkpt lat="47.89987" lon="-2.46254">
        <ele>23.9</ele>
        <time>2024-12-19T12:44:13Z</time>
      </trkpt>
      <trkpt lat="47.89986" lon="-2.46256">
        <ele>23.8</ele>
        <time>2024-12-19T12:44:14Z</time>
      </trkpt>
      <trkpt lat="47.89986" lon="-2.46258">
        <ele>23.7</ele>
        <time>2024-12-19T12:44:15Z</time>
      </trkpt>
      <trkpt lat="47.89986" lon="-2.4626">
        <ele>23.6</ele>
        <time>2024-12-19T12:44:16Z</time>
      </trkpt>
      <trkpt lat="47.89985" lon="-2.46262">
        <ele>23.5</ele>
        <time>2024-12-19T12:44:17Z</time>
      </trkpt>
      <trkpt lat="47.89985" lon="-2.46264">
        <ele>23.5</ele>
        <time>2024-12-19T12:44:18Z</time>
      </trkpt>
      <trkpt lat="47.89985" lon="-2.46266">
        <ele>23.4</ele>
        <time>2024-12-19T12:44:19Z</time>
      </trkpt>
      <trkpt lat="47.89985" lon="-2.46269">
        <ele>23.3</ele>
        <time>2024-12-19T12:44:20Z</time>
      </trkpt>
      <trkpt lat="47.89985" lon="-2.46271">
        <ele>23.2</ele>
        <time>2024-12-19T12:44:21Z</time>
      </trkpt>
      <trkpt lat="47.89985" lon="-2.46274">
        <ele>23.1</ele>
        <time>2024-12-19T12:44:22Z</time>
      </trkpt>
      <trkpt lat="47.89984" lon="-2.46276">
        <ele>23.1</ele>
        <time>2024-12-19T12:44:23Z</time>
      </trkpt>
      <trkpt lat="47.89984" lon="-2.46277">
        <ele>23</ele>
        <time>2024-12-19T12:44:24Z</time>
      </trkpt>
      <trkpt lat="47.89984" lon="-2.46279">
        <ele>23</ele>
        <time>2024-12-19T12:44:25Z</time>
      </trkpt>
      <trkpt lat="47.89983" lon="-2.46281">
        <ele>23</ele>
        <time>2024-12-19T12:44:26Z</time>
      </trkpt>
      <trkpt lat="47.89983" lon="-2.46284">
        <ele>23</ele>
        <time>2024-12-19T12:44:27Z</time>
      </trkpt>
      <trkpt lat="47.89983" lon="-2.46286">
        <ele>23</ele>
        <time>2024-12-19T12:44:28Z</time>
      </trkpt>
      <trkpt lat="47.89983" lon="-2.46288">
        <ele>23</ele>
        <time>2024-12-19T12:44:29Z</time>
      </trkpt>
      <trkpt lat="47.89983" lon="-2.46289">
        <ele>23</ele>
        <time>2024-12-19T12:44:30Z</time>
      </trkpt>
      <trkpt lat="47.89983" lon="-2.46291">
        <ele>23</ele>
        <time>2024-12-19T12:44:31Z</time>
      </trkpt>
      <trkpt lat="47.89983" lon="-2.46291">
        <ele>23</ele>
        <time>2024-12-19T12:44:32Z</time>
      </trkpt>
      <trkpt lat="47.89983" lon="-2.46293">
        <ele>23</ele>
        <time>2024-12-19T12:44:33Z</time>
      </trkpt>
      <trkpt lat="47.89982" lon="-2.46296">
        <ele>23</ele>
        <time>2024-12-19T12:44:34Z</time>
      </trkpt>
      <trkpt lat="47.89982" lon="-2.46298">
        <ele>23</ele>
        <time>2024-12-19T12:44:35Z</time>
      </trkpt>
      <trkpt lat="47.89982" lon="-2.463">
        <ele>23</ele>
        <time>2024-12-19T12:44:36Z</time>
      </trkpt>
      <trkpt lat="47.89982" lon="-2.46301">
        <ele>23</ele>
        <time>2024-12-19T12:44:37Z</time>
      </trkpt>
      <trkpt lat="47.89982" lon="-2.46303">
        <ele>23</ele>
        <time>2024-12-19T12:44:38Z</time>
      </trkpt>
      <trkpt lat="47.89981" lon="-2.46305">
        <ele>23</ele>
        <time>2024-12-19T12:44:39Z</time>
      </trkpt>
      <trkpt lat="47.89981" lon="-2.46307">
        <ele>23</ele>
        <time>2024-12-19T12:44:40Z</time>
      </trkpt>
      <trkpt lat="47.89981" lon="-2.46309">
        <ele>23</ele>
        <time>2024-12-19T12:44:41Z</time>
      </trkpt>
      <trkpt lat="47.8998" lon="-2.46311">
        <ele>23.1</ele>
        <time>2024-12-19T12:44:42Z</time>
      </trkpt>
      <trkpt lat="47.8998" lon="-2.46313">
        <ele>23.1</ele>
        <time>2024-12-19T12:44:43Z</time>
      </trkpt>
      <trkpt lat="47.8998" lon="-2.46314">
        <ele>23.1</ele>
        <time>2024-12-19T12:44:44Z</time>
      </trkpt>
      <trkpt lat="47.8998" lon="-2.46316">
        <ele>23.1</ele>
        <time>2024-12-19T12:44:45Z</time>
      </trkpt>
      <trkpt lat="47.8998" lon="-2.46318">
        <ele>23.1</ele>
        <time>2024-12-19T12:44:46Z</time>
      </trkpt>
      <trkpt lat="47.89979" lon="-2.4632">
        <ele>23.1</ele>
        <time>2024-12-19T12:44:47Z</time>
      </trkpt>
      <trkpt lat="47.89979" lon="-2.46322">
        <ele>23.1</ele>
        <time>2024-12-19T12:44:48Z</time>
      </trkpt>
      <trkpt lat="47.89979" lon="-2.46324">
        <ele>23.2</ele>
        <time>2024-12-19T12:44:49Z</time>
      </trkpt>
      <trkpt lat="47.89979" lon="-2.46325">
        <ele>23.2</ele>
        <time>2024-12-19T12:44:50Z</time>
      </trkpt>
      <trkpt lat="47.89978" lon="-2.46327">
        <ele>23.2</ele>
        <time>2024-12-19T12:44:51Z</time>
      </trkpt>
      <trkpt lat="47.89978" lon="-2.46328">
        <ele>23.2</ele>
        <time>2024-12-19T12:44:52Z</time>
      </trkpt>
      <trkpt lat="47.89978" lon="-2.46329">
        <ele>23.2</ele>
        <time>2024-12-19T12:44:53Z</time>
      </trkpt>
      <trkpt lat="47.89978" lon="-2.4633">
        <ele>23.2</ele>
        <time>2024-12-19T12:44:54Z</time>
      </trkpt>
      <trkpt lat="47.89978" lon="-2.46331">
        <ele>23.2</ele>
        <time>2024-12-19T12:44:55Z</time>
      </trkpt>
      <trkpt lat="47.89978" lon="-2.46332">
        <ele>23.2</ele>
        <time>2024-12-19T12:44:56Z</time>
      </trkpt>
      <trkpt lat="47.89978" lon="-2.46334">
        <ele>23.2</ele>
        <time>2024-12-19T12:44:57Z</time>
      </trkpt>
      <trkpt lat="47.89978" lon="-2.46336">
        <ele>23.2</ele>
        <time>2024-12-19T12:44:58Z</time>
      </trkpt>
      <trkpt lat="47.89978" lon="-2.46337">
        <ele>23.2</ele>
        <time>2024-12-19T12:44:59Z</time>
      </trkpt>
      <trkpt lat="47.89978" lon="-2.46339">
        <ele>23.2</ele>
        <time>2024-12-19T12:45:00Z</time>
      </trkpt>
      <trkpt lat="47.89978" lon="-2.4634">
        <ele>23.2</ele>
        <time>2024-12-19T12:45:01Z</time>
      </trkpt>
      <trkpt lat="47.89978" lon="-2.46342">
        <ele>23.2</ele>
        <time>2024-12-19T12:45:02Z</time>
      </trkpt>
      <trkpt lat="47.89978" lon="-2.46344">
        <ele>23.2</ele>
        <time>2024-12-19T12:45:03Z</time>
      </trkpt>
      <trkpt lat="47.89977" lon="-2.46346">
        <ele>23.2</ele>
        <time>2024-12-19T12:45:04Z</time>
      </trkpt>
      <trkpt lat="47.89977" lon="-2.46348">
        <ele>23.2</ele>
        <time>2024-12-19T12:45:05Z</time>
      </trkpt>
      <trkpt lat="47.89978" lon="-2.46349">
        <ele>23.2</ele>
        <time>2024-12-19T12:45:06Z</time>
      </trkpt>
      <trkpt lat="47.89978" lon="-2.46352">
        <ele>23.2</ele>
        <time>2024-12-19T12:45:07Z</time>
      </trkpt>
      <trkpt lat="47.89978" lon="-2.46354">
        <ele>23.2</ele>
        <time>2024-12-19T12:45:08Z</time>
      </trkpt>
      <trkpt lat="47.89979" lon="-2.46357">
        <ele>23.2</ele>
        <time>2024-12-19T12:45:09Z</time>
      </trkpt>
      <trkpt lat="47.89978" lon="-2.4636">
        <ele>23.2</ele>
        <time>2024-12-19T12:45:10Z</time>
      </trkpt>
      <trkpt lat="47.89978" lon="-2.46362">
        <ele>23.2</ele>
        <time>2024-12-19T12:45:11Z</time>
      </trkpt>
      <trkpt lat="47.89978" lon="-2.46364">
        <ele>23.2</ele>
        <time>2024-12-19T12:45:12Z</time>
      </trkpt>
      <trkpt lat="47.89978" lon="-2.46365">
        <ele>23.2</ele>
        <time>2024-12-19T12:45:13Z</time>
      </trkpt>
      <trkpt lat="47.89977" lon="-2.46367">
        <ele>23.2</ele>
        <time>2024-12-19T12:45:14Z</time>
      </trkpt>
      <trkpt lat="47.89977" lon="-2.46368">
        <ele>23.2</ele>
        <time>2024-12-19T12:45:15Z</time>
      </trkpt>
      <trkpt lat="47.89978" lon="-2.46369">
        <ele>23.2</ele>
        <time>2024-12-19T12:45:16Z</time>
      </trkpt>
      <trkpt lat="47.89978" lon="-2.46371">
        <ele>23.2</ele>
        <time>2024-12-19T12:45:17Z</time>
      </trkpt>
      <trkpt lat="47.89978" lon="-2.46373">
        <ele>23.2</ele>
        <time>2024-12-19T12:45:18Z</time>
      </trkpt>
      <trkpt lat="47.89979" lon="-2.46376">
        <ele>23.2</ele>
        <time>2024-12-19T12:45:19Z</time>
      </trkpt>
      <trkpt lat="47.89979" lon="-2.46378">
        <ele>23.2</ele>
        <time>2024-12-19T12:45:20Z</time>
      </trkpt>
      <trkpt lat="47.89979" lon="-2.4638">
        <ele>23.2</ele>
        <time>2024-12-19T12:45:21Z</time>
      </trkpt>
      <trkpt lat="47.89979" lon="-2.46382">
        <ele>23.2</ele>
        <time>2024-12-19T12:45:22Z</time>
      </trkpt>
      <trkpt lat="47.89979" lon="-2.46384">
        <ele>23.3</ele>
        <time>2024-12-19T12:45:23Z</time>
      </trkpt>
      <trkpt lat="47.8998" lon="-2.46385">
        <ele>23.3</ele>
        <time>2024-12-19T12:45:24Z</time>
      </trkpt>
      <trkpt lat="47.8998" lon="-2.46387">
        <ele>23.3</ele>
        <time>2024-12-19T12:45:25Z</time>
      </trkpt>
      <trkpt lat="47.8998" lon="-2.46388">
        <ele>23.3</ele>
        <time>2024-12-19T12:45:26Z</time>
      </trkpt>
      <trkpt lat="47.8998" lon="-2.4639">
        <ele>23.3</ele>
        <time>2024-12-19T12:45:27Z</time>
      </trkpt>
      <trkpt lat="47.8998" lon="-2.46392">
        <ele>23.3</ele>
        <time>2024-12-19T12:45:28Z</time>
      </trkpt>
      <trkpt lat="47.8998" lon="-2.46393">
        <ele>23.3</ele>
        <time>2024-12-19T12:45:29Z</time>
      </trkpt>
      <trkpt lat="47.8998" lon="-2.46395">
        <ele>23.3</ele>
        <time>2024-12-19T12:45:30Z</time>
      </trkpt>
      <trkpt lat="47.8998" lon="-2.46397">
        <ele>23.3</ele>
        <time>2024-12-19T12:45:31Z</time>
      </trkpt>
      <trkpt lat="47.89981" lon="-2.46399">
        <ele>23.3</ele>
        <time>2024-12-19T12:45:32Z</time>
      </trkpt>
      <trkpt lat="47.89981" lon="-2.464">
        <ele>23.3</ele>
        <time>2024-12-19T12:45:33Z</time>
      </trkpt>
      <trkpt lat="47.89981" lon="-2.46403">
        <ele>23.3</ele>
        <time>2024-12-19T12:45:34Z</time>
      </trkpt>
      <trkpt lat="47.89982" lon="-2.46405">
        <ele>23.3</ele>
        <time>2024-12-19T12:45:35Z</time>
      </trkpt>
      <trkpt lat="47.89982" lon="-2.46407">
        <ele>23.4</ele>
        <time>2024-12-19T12:45:36Z</time>
      </trkpt>
      <trkpt lat="47.89983" lon="-2.46409">
        <ele>23.4</ele>
        <time>2024-12-19T12:45:37Z</time>
      </trkpt>
      <trkpt lat="47.89983" lon="-2.46411">
        <ele>23.4</ele>
        <time>2024-12-19T12:45:38Z</time>
      </trkpt>
      <trkpt lat="47.89983" lon="-2.46412">
        <ele>23.4</ele>
        <time>2024-12-19T12:45:39Z</time>
      </trkpt>
      <trkpt lat="47.89983" lon="-2.46413">
        <ele>23.4</ele>
        <time>2024-12-19T12:45:40Z</time>
      </trkpt>
      <trkpt lat="47.89983" lon="-2.46415">
        <ele>23.4</ele>
        <time>2024-12-19T12:45:41Z</time>
      </trkpt>
      <trkpt lat="47.89984" lon="-2.46417">
        <ele>23.4</ele>
        <time>2024-12-19T12:45:42Z</time>
      </trkpt>
      <trkpt lat="47.89984" lon="-2.46418">
        <ele>23.4</ele>
        <time>2024-12-19T12:45:43Z</time>
      </trkpt>
      <trkpt lat="47.89984" lon="-2.4642">
        <ele>23.4</ele>
        <time>2024-12-19T12:45:44Z</time>
      </trkpt>
      <trkpt lat="47.89984" lon="-2.46422">
        <ele>23.4</ele>
        <time>2024-12-19T12:45:45Z</time>
      </trkpt>
      <trkpt lat="47.89985" lon="-2.46424">
        <ele>23.4</ele>
        <time>2024-12-19T12:45:46Z</time>
      </trkpt>
      <trkpt lat="47.89985" lon="-2.46426">
        <ele>23.4</ele>
        <time>2024-12-19T12:45:47Z</time>
      </trkpt>
      <trkpt lat="47.89985" lon="-2.46427">
        <ele>23.5</ele>
        <time>2024-12-19T12:45:48Z</time>
      </trkpt>
      <trkpt lat="47.89985" lon="-2.46428">
        <ele>23.5</ele>
        <time>2024-12-19T12:45:49Z</time>
      </trkpt>
      <trkpt lat="47.89986" lon="-2.4643">
        <ele>23.5</ele>
        <time>2024-12-19T12:45:50Z</time>
      </trkpt>
      <trkpt lat="47.89986" lon="-2.46433">
        <ele>23.5</ele>
        <time>2024-12-19T12:45:51Z</time>
      </trkpt>
      <trkpt lat="47.89986" lon="-2.46435">
        <ele>23.5</ele>
        <time>2024-12-19T12:45:52Z</time>
      </trkpt>
      <trkpt lat="47.89986" lon="-2.46436">
        <ele>23.5</ele>
        <time>2024-12-19T12:45:53Z</time>
      </trkpt>
      <trkpt lat="47.89986" lon="-2.46438">
        <ele>23.5</ele>
        <time>2024-12-19T12:45:54Z</time>
      </trkpt>
      <trkpt lat="47.89986" lon="-2.4644">
        <ele>23.5</ele>
        <time>2024-12-19T12:45:55Z</time>
      </trkpt>
      <trkpt lat="47.89986" lon="-2.46442">
        <ele>23.5</ele>
        <time>2024-12-19T12:45:56Z</time>
      </trkpt>
      <trkpt lat="47.89987" lon="-2.46444">
        <ele>23.5</ele>
        <time>2024-12-19T12:45:57Z</time>
      </trkpt>
      <trkpt lat="47.89987" lon="-2.46446">
        <ele>23.5</ele>
        <time>2024-12-19T12:45:58Z</time>
      </trkpt>
      <trkpt lat="47.89987" lon="-2.46447">
        <ele>23.5</ele>
        <time>2024-12-19T12:45:59Z</time>
      </trkpt>
      <trkpt lat="47.89987" lon="-2.46448">
        <ele>23.5</ele>
        <time>2024-12-19T12:46:00Z</time>
      </trkpt>
      <trkpt lat="47.89987" lon="-2.4645">
        <ele>23.5</ele>
        <time>2024-12-19T12:46:01Z</time>
      </trkpt>
      <trkpt lat="47.89987" lon="-2.46452">
        <ele>23.5</ele>
        <time>2024-12-19T12:46:02Z</time>
      </trkpt>
      <trkpt lat="47.89987" lon="-2.46454">
        <ele>23.5</ele>
        <time>2024-12-19T12:46:03Z</time>
      </trkpt>
      <trkpt lat="47.89987" lon="-2.46456">
        <ele>23.5</ele>
        <time>2024-12-19T12:46:04Z</time>
      </trkpt>
      <trkpt lat="47.89987" lon="-2.46457">
        <ele>23.5</ele>
        <time>2024-12-19T12:46:05Z</time>
      </trkpt>
      <trkpt lat="47.89988" lon="-2.4646">
        <ele>23.6</ele>
        <time>2024-12-19T12:46:06Z</time>
      </trkpt>
      <trkpt lat="47.89988" lon="-2.46462">
        <ele>23.6</ele>
        <time>2024-12-19T12:46:07Z</time>
      </trkpt>
      <trkpt lat="47.89988" lon="-2.46465">
        <ele>23.6</ele>
        <time>2024-12-19T12:46:08Z</time>
      </trkpt>
      <trkpt lat="47.89989" lon="-2.46468">
        <ele>23.6</ele>
        <time>2024-12-19T12:46:09Z</time>
      </trkpt>
      <trkpt lat="47.89989" lon="-2.4647">
        <ele>23.6</ele>
        <time>2024-12-19T12:46:10Z</time>
      </trkpt>
      <trkpt lat="47.8999" lon="-2.46471">
        <ele>23.6</ele>
        <time>2024-12-19T12:46:11Z</time>
      </trkpt>
      <trkpt lat="47.8999" lon="-2.46473">
        <ele>23.6</ele>
        <time>2024-12-19T12:46:12Z</time>
      </trkpt>
      <trkpt lat="47.89991" lon="-2.46476">
        <ele>23.7</ele>
        <time>2024-12-19T12:46:13Z</time>
      </trkpt>
      <trkpt lat="47.89991" lon="-2.46478">
        <ele>23.7</ele>
        <time>2024-12-19T12:46:14Z</time>
      </trkpt>
      <trkpt lat="47.89992" lon="-2.46481">
        <ele>23.7</ele>
        <time>2024-12-19T12:46:15Z</time>
      </trkpt>
      <trkpt lat="47.89992" lon="-2.46482">
        <ele>23.7</ele>
        <time>2024-12-19T12:46:16Z</time>
      </trkpt>
      <trkpt lat="47.89993" lon="-2.46483">
        <ele>23.7</ele>
        <time>2024-12-19T12:46:17Z</time>
      </trkpt>
      <trkpt lat="47.89993" lon="-2.46485">
        <ele>23.8</ele>
        <time>2024-12-19T12:46:18Z</time>
      </trkpt>
      <trkpt lat="47.89994" lon="-2.46487">
        <ele>23.8</ele>
        <time>2024-12-19T12:46:19Z</time>
      </trkpt>
      <trkpt lat="47.89995" lon="-2.46489">
        <ele>23.8</ele>
        <time>2024-12-19T12:46:20Z</time>
      </trkpt>
      <trkpt lat="47.89995" lon="-2.46491">
        <ele>23.8</ele>
        <time>2024-12-19T12:46:21Z</time>
      </trkpt>
      <trkpt lat="47.89996" lon="-2.46493">
        <ele>23.8</ele>
        <time>2024-12-19T12:46:22Z</time>
      </trkpt>
      <trkpt lat="47.89996" lon="-2.46494">
        <ele>23.8</ele>
        <time>2024-12-19T12:46:23Z</time>
      </trkpt>
      <trkpt lat="47.89996" lon="-2.46495">
        <ele>23.9</ele>
        <time>2024-12-19T12:46:24Z</time>
      </trkpt>
      <trkpt lat="47.89997" lon="-2.46497">
        <ele>23.9</ele>
        <time>2024-12-19T12:46:25Z</time>
      </trkpt>
      <trkpt lat="47.89997" lon="-2.46498">
        <ele>23.9</ele>
        <time>2024-12-19T12:46:26Z</time>
      </trkpt>
      <trkpt lat="47.89997" lon="-2.465">
        <ele>23.9</ele>
        <time>2024-12-19T12:46:27Z</time>
      </trkpt>
      <trkpt lat="47.89998" lon="-2.46501">
        <ele>23.9</ele>
        <time>2024-12-19T12:46:28Z</time>
      </trkpt>
      <trkpt lat="47.89998" lon="-2.46503">
        <ele>23.9</ele>
        <time>2024-12-19T12:46:29Z</time>
      </trkpt>
      <trkpt lat="47.89999" lon="-2.46504">
        <ele>23.8</ele>
        <time>2024-12-19T12:46:30Z</time>
      </trkpt>
      <trkpt lat="47.89999" lon="-2.46506">
        <ele>23.8</ele>
        <time>2024-12-19T12:46:31Z</time>
      </trkpt>
      <trkpt lat="47.9" lon="-2.46507">
        <ele>23.7</ele>
        <time>2024-12-19T12:46:32Z</time>
      </trkpt>
      <trkpt lat="47.90001" lon="-2.46509">
        <ele>23.7</ele>
        <time>2024-12-19T12:46:33Z</time>
      </trkpt>
      <trkpt lat="47.90001" lon="-2.4651">
        <ele>23.6</ele>
        <time>2024-12-19T12:46:34Z</time>
      </trkpt>
      <trkpt lat="47.90002" lon="-2.46511">
        <ele>23.6</ele>
        <time>2024-12-19T12:46:35Z</time>
      </trkpt>
      <trkpt lat="47.90003" lon="-2.46512">
        <ele>23.6</ele>
        <time>2024-12-19T12:46:36Z</time>
      </trkpt>
      <trkpt lat="47.90004" lon="-2.46513">
        <ele>23.6</ele>
        <time>2024-12-19T12:46:37Z</time>
      </trkpt>
      <trkpt lat="47.90005" lon="-2.46515">
        <ele>23.6</ele>
        <time>2024-12-19T12:46:38Z</time>
      </trkpt>
      <trkpt lat="47.90006" lon="-2.46516">
        <ele>23.5</ele>
        <time>2024-12-19T12:46:39Z</time>
      </trkpt>
      <trkpt lat="47.90007" lon="-2.46518">
        <ele>23.5</ele>
        <time>2024-12-19T12:46:40Z</time>
      </trkpt>
      <trkpt lat="47.90009" lon="-2.4652">
        <ele>23.5</ele>
        <time>2024-12-19T12:46:41Z</time>
      </trkpt>
      <trkpt lat="47.9001" lon="-2.46522">
        <ele>23.5</ele>
        <time>2024-12-19T12:46:42Z</time>
      </trkpt>
      <trkpt lat="47.90011" lon="-2.46523">
        <ele>23.5</ele>
        <time>2024-12-19T12:46:43Z</time>
      </trkpt>
      <trkpt lat="47.90012" lon="-2.46525">
        <ele>23.5</ele>
        <time>2024-12-19T12:46:44Z</time>
      </trkpt>
      <trkpt lat="47.90012" lon="-2.46526">
        <ele>23.5</ele>
        <time>2024-12-19T12:46:45Z</time>
      </trkpt>
      <trkpt lat="47.90013" lon="-2.46527">
        <ele>23.5</ele>
        <time>2024-12-19T12:46:46Z</time>
      </trkpt>
      <trkpt lat="47.90014" lon="-2.46529">
        <ele>23.5</ele>
        <time>2024-12-19T12:46:47Z</time>
      </trkpt>
      <trkpt lat="47.90014" lon="-2.46531">
        <ele>23.5</ele>
        <time>2024-12-19T12:46:48Z</time>
      </trkpt>
      <trkpt lat="47.90015" lon="-2.46533">
        <ele>23.5</ele>
        <time>2024-12-19T12:46:49Z</time>
      </trkpt>
      <trkpt lat="47.90015" lon="-2.46534">
        <ele>23.5</ele>
        <time>2024-12-19T12:46:50Z</time>
      </trkpt>
      <trkpt lat="47.90015" lon="-2.46534">
        <ele>23.5</ele>
        <time>2024-12-19T12:46:51Z</time>
      </trkpt>
      <trkpt lat="47.90015" lon="-2.46536">
        <ele>23.5</ele>
        <time>2024-12-19T12:46:52Z</time>
      </trkpt>
      <trkpt lat="47.90015" lon="-2.46538">
        <ele>23.5</ele>
        <time>2024-12-19T12:46:53Z</time>
      </trkpt>
      <trkpt lat="47.90016" lon="-2.46539">
        <ele>23.6</ele>
        <time>2024-12-19T12:46:54Z</time>
      </trkpt>
      <trkpt lat="47.90017" lon="-2.46541">
        <ele>23.6</ele>
        <time>2024-12-19T12:46:55Z</time>
      </trkpt>
      <trkpt lat="47.90018" lon="-2.46543">
        <ele>23.6</ele>
        <time>2024-12-19T12:46:56Z</time>
      </trkpt>
      <trkpt lat="47.90019" lon="-2.46545">
        <ele>23.7</ele>
        <time>2024-12-19T12:46:57Z</time>
      </trkpt>
      <trkpt lat="47.9002" lon="-2.46547">
        <ele>23.7</ele>
        <time>2024-12-19T12:46:58Z</time>
      </trkpt>
      <trkpt lat="47.90021" lon="-2.46548">
        <ele>23.7</ele>
        <time>2024-12-19T12:46:59Z</time>
      </trkpt>
      <trkpt lat="47.90021" lon="-2.46549">
        <ele>23.8</ele>
        <time>2024-12-19T12:47:00Z</time>
      </trkpt>
      <trkpt lat="47.90022" lon="-2.4655">
        <ele>23.8</ele>
        <time>2024-12-19T12:47:01Z</time>
      </trkpt>
      <trkpt lat="47.90022" lon="-2.46551">
        <ele>23.8</ele>
        <time>2024-12-19T12:47:02Z</time>
      </trkpt>
      <trkpt lat="47.90023" lon="-2.46552">
        <ele>23.8</ele>
        <time>2024-12-19T12:47:03Z</time>
      </trkpt>
      <trkpt lat="47.90023" lon="-2.46553">
        <ele>23.8</ele>
        <time>2024-12-19T12:47:04Z</time>
      </trkpt>
      <trkpt lat="47.90024" lon="-2.46554">
        <ele>23.9</ele>
        <time>2024-12-19T12:47:05Z</time>
      </trkpt>
      <trkpt lat="47.90025" lon="-2.46555">
        <ele>23.9</ele>
        <time>2024-12-19T12:47:06Z</time>
      </trkpt>
      <trkpt lat="47.90026" lon="-2.46556">
        <ele>23.9</ele>
        <time>2024-12-19T12:47:07Z</time>
      </trkpt>
      <trkpt lat="47.90027" lon="-2.46558">
        <ele>23.9</ele>
        <time>2024-12-19T12:47:08Z</time>
      </trkpt>
      <trkpt lat="47.90027" lon="-2.46559">
        <ele>23.8</ele>
        <time>2024-12-19T12:47:09Z</time>
      </trkpt>
      <trkpt lat="47.90028" lon="-2.46561">
        <ele>23.8</ele>
        <time>2024-12-19T12:47:10Z</time>
      </trkpt>
      <trkpt lat="47.90029" lon="-2.46562">
        <ele>23.8</ele>
        <time>2024-12-19T12:47:11Z</time>
      </trkpt>
      <trkpt lat="47.90029" lon="-2.46563">
        <ele>23.7</ele>
        <time>2024-12-19T12:47:12Z</time>
      </trkpt>
      <trkpt lat="47.90029" lon="-2.46565">
        <ele>23.7</ele>
        <time>2024-12-19T12:47:13Z</time>
      </trkpt>
      <trkpt lat="47.9003" lon="-2.46567">
        <ele>23.6</ele>
        <time>2024-12-19T12:47:14Z</time>
      </trkpt>
      <trkpt lat="47.90035" lon="-2.46573">
        <ele>23.6</ele>
        <time>2024-12-19T12:47:18Z</time>
      </trkpt>
      <trkpt lat="47.90037" lon="-2.46574">
        <ele>23.5</ele>
        <time>2024-12-19T12:47:19Z</time>
      </trkpt>
      <trkpt lat="47.90038" lon="-2.46576">
        <ele>23.5</ele>
        <time>2024-12-19T12:47:20Z</time>
      </trkpt>
      <trkpt lat="47.90039" lon="-2.46577">
        <ele>23.5</ele>
        <time>2024-12-19T12:47:21Z</time>
      </trkpt>
      <trkpt lat="47.9004" lon="-2.46579">
        <ele>23.5</ele>
        <time>2024-12-19T12:47:22Z</time>
      </trkpt>
      <trkpt lat="47.90041" lon="-2.4658">
        <ele>23.5</ele>
        <time>2024-12-19T12:47:23Z</time>
      </trkpt>
      <trkpt lat="47.90042" lon="-2.46581">
        <ele>23.5</ele>
        <time>2024-12-19T12:47:24Z</time>
      </trkpt>
      <trkpt lat="47.90043" lon="-2.46583">
        <ele>23.6</ele>
        <time>2024-12-19T12:47:25Z</time>
      </trkpt>
      <trkpt lat="47.90043" lon="-2.46583">
        <ele>23.6</ele>
        <time>2024-12-19T12:47:26Z</time>
      </trkpt>
      <trkpt lat="47.90044" lon="-2.46584">
        <ele>23.6</ele>
        <time>2024-12-19T12:47:27Z</time>
      </trkpt>
      <trkpt lat="47.90045" lon="-2.46585">
        <ele>23.6</ele>
        <time>2024-12-19T12:47:28Z</time>
      </trkpt>
      <trkpt lat="47.90046" lon="-2.46586">
        <ele>23.6</ele>
        <time>2024-12-19T12:47:29Z</time>
      </trkpt>
      <trkpt lat="47.90046" lon="-2.46587">
        <ele>23.6</ele>
        <time>2024-12-19T12:47:30Z</time>
      </trkpt>
      <trkpt lat="47.90047" lon="-2.46588">
        <ele>23.6</ele>
        <time>2024-12-19T12:47:31Z</time>
      </trkpt>
      <trkpt lat="47.90047" lon="-2.46589">
        <ele>23.6</ele>
        <time>2024-12-19T12:47:32Z</time>
      </trkpt>
      <trkpt lat="47.90048" lon="-2.4659">
        <ele>23.5</ele>
        <time>2024-12-19T12:47:33Z</time>
      </trkpt>
      <trkpt lat="47.90049" lon="-2.46592">
        <ele>23.5</ele>
        <time>2024-12-19T12:47:34Z</time>
      </trkpt>
      <trkpt lat="47.90049" lon="-2.46593">
        <ele>23.5</ele>
        <time>2024-12-19T12:47:35Z</time>
      </trkpt>
      <trkpt lat="47.90049" lon="-2.46594">
        <ele>23.5</ele>
        <time>2024-12-19T12:47:36Z</time>
      </trkpt>
      <trkpt lat="47.9005" lon="-2.46595">
        <ele>23.5</ele>
        <time>2024-12-19T12:47:37Z</time>
      </trkpt>
      <trkpt lat="47.90052" lon="-2.46596">
        <ele>23.5</ele>
        <time>2024-12-19T12:47:38Z</time>
      </trkpt>
      <trkpt lat="47.90054" lon="-2.46597">
        <ele>23.5</ele>
        <time>2024-12-19T12:47:39Z</time>
      </trkpt>
      <trkpt lat="47.90055" lon="-2.46597">
        <ele>23.5</ele>
        <time>2024-12-19T12:47:40Z</time>
      </trkpt>
      <trkpt lat="47.90056" lon="-2.46598">
        <ele>23.5</ele>
        <time>2024-12-19T12:47:41Z</time>
      </trkpt>
      <trkpt lat="47.90056" lon="-2.46599">
        <ele>23.5</ele>
        <time>2024-12-19T12:47:42Z</time>
      </trkpt>
      <trkpt lat="47.90056" lon="-2.46599">
        <ele>23.4</ele>
        <time>2024-12-19T12:47:43Z</time>
      </trkpt>
      <trkpt lat="47.90056" lon="-2.466">
        <ele>23.4</ele>
        <time>2024-12-19T12:47:44Z</time>
      </trkpt>
      <trkpt lat="47.90056" lon="-2.46601">
        <ele>23.4</ele>
        <time>2024-12-19T12:47:45Z</time>
      </trkpt>
      <trkpt lat="47.90057" lon="-2.46602">
        <ele>23.4</ele>
        <time>2024-12-19T12:47:46Z</time>
      </trkpt>
      <trkpt lat="47.90058" lon="-2.46603">
        <ele>23.4</ele>
        <time>2024-12-19T12:47:47Z</time>
      </trkpt>
      <trkpt lat="47.90059" lon="-2.46604">
        <ele>23.3</ele>
        <time>2024-12-19T12:47:48Z</time>
      </trkpt>
      <trkpt lat="47.9006" lon="-2.46606">
        <ele>23.3</ele>
        <time>2024-12-19T12:47:49Z</time>
      </trkpt>
      <trkpt lat="47.90062" lon="-2.46607">
        <ele>23.3</ele>
        <time>2024-12-19T12:47:50Z</time>
      </trkpt>
      <trkpt lat="47.90063" lon="-2.46609">
        <ele>23.3</ele>
        <time>2024-12-19T12:47:51Z</time>
      </trkpt>
      <trkpt lat="47.90064" lon="-2.4661">
        <ele>23.3</ele>
        <time>2024-12-19T12:47:52Z</time>
      </trkpt>
      <trkpt lat="47.90064" lon="-2.46611">
        <ele>23.3</ele>
        <time>2024-12-19T12:47:53Z</time>
      </trkpt>
      <trkpt lat="47.90065" lon="-2.46611">
        <ele>23.4</ele>
        <time>2024-12-19T12:47:54Z</time>
      </trkpt>
      <trkpt lat="47.90066" lon="-2.46611">
        <ele>23.4</ele>
        <time>2024-12-19T12:47:55Z</time>
      </trkpt>
      <trkpt lat="47.90066" lon="-2.46611">
        <ele>23.4</ele>
        <time>2024-12-19T12:47:56Z</time>
      </trkpt>
      <trkpt lat="47.90067" lon="-2.46611">
        <ele>23.4</ele>
        <time>2024-12-19T12:47:57Z</time>
      </trkpt>
      <trkpt lat="47.90068" lon="-2.46612">
        <ele>23.4</ele>
        <time>2024-12-19T12:47:58Z</time>
      </trkpt>
      <trkpt lat="47.90069" lon="-2.46614">
        <ele>23.4</ele>
        <time>2024-12-19T12:47:59Z</time>
      </trkpt>
      <trkpt lat="47.9007" lon="-2.46615">
        <ele>23.4</ele>
        <time>2024-12-19T12:48:00Z</time>
      </trkpt>
      <trkpt lat="47.90071" lon="-2.46616">
        <ele>23.4</ele>
        <time>2024-12-19T12:48:01Z</time>
      </trkpt>
      <trkpt lat="47.90072" lon="-2.46618">
        <ele>23.4</ele>
        <time>2024-12-19T12:48:02Z</time>
      </trkpt>
      <trkpt lat="47.90073" lon="-2.46619">
        <ele>23.4</ele>
        <time>2024-12-19T12:48:03Z</time>
      </trkpt>
      <trkpt lat="47.90073" lon="-2.4662">
        <ele>23.4</ele>
        <time>2024-12-19T12:48:04Z</time>
      </trkpt>
      <trkpt lat="47.90074" lon="-2.46621">
        <ele>23.4</ele>
        <time>2024-12-19T12:48:05Z</time>
      </trkpt>
      <trkpt lat="47.90075" lon="-2.46622">
        <ele>23.4</ele>
        <time>2024-12-19T12:48:06Z</time>
      </trkpt>
      <trkpt lat="47.90077" lon="-2.46623">
        <ele>23.4</ele>
        <time>2024-12-19T12:48:07Z</time>
      </trkpt>
      <trkpt lat="47.90078" lon="-2.46624">
        <ele>23.4</ele>
        <time>2024-12-19T12:48:08Z</time>
      </trkpt>
      <trkpt lat="47.9008" lon="-2.46625">
        <ele>23.4</ele>
        <time>2024-12-19T12:48:09Z</time>
      </trkpt>
      <trkpt lat="47.90081" lon="-2.46626">
        <ele>23.4</ele>
        <time>2024-12-19T12:48:10Z</time>
      </trkpt>
      <trkpt lat="47.90082" lon="-2.46626">
        <ele>23.4</ele>
        <time>2024-12-19T12:48:11Z</time>
      </trkpt>
      <trkpt lat="47.90083" lon="-2.46627">
        <ele>23.4</ele>
        <time>2024-12-19T12:48:12Z</time>
      </trkpt>
      <trkpt lat="47.90084" lon="-2.46628">
        <ele>23.4</ele>
        <time>2024-12-19T12:48:13Z</time>
      </trkpt>
      <trkpt lat="47.90085" lon="-2.46628">
        <ele>23.4</ele>
        <time>2024-12-19T12:48:14Z</time>
      </trkpt>
      <trkpt lat="47.90086" lon="-2.46629">
        <ele>23.4</ele>
        <time>2024-12-19T12:48:15Z</time>
      </trkpt>
      <trkpt lat="47.90088" lon="-2.4663">
        <ele>23.4</ele>
        <time>2024-12-19T12:48:16Z</time>
      </trkpt>
      <trkpt lat="47.90089" lon="-2.46631">
        <ele>23.4</ele>
        <time>2024-12-19T12:48:17Z</time>
      </trkpt>
      <trkpt lat="47.9009" lon="-2.46632">
        <ele>23.4</ele>
        <time>2024-12-19T12:48:18Z</time>
      </trkpt>
      <trkpt lat="47.90091" lon="-2.46633">
        <ele>23.4</ele>
        <time>2024-12-19T12:48:19Z</time>
      </trkpt>
      <trkpt lat="47.90092" lon="-2.46634">
        <ele>23.4</ele>
        <time>2024-12-19T12:48:20Z</time>
      </trkpt>
      <trkpt lat="47.90093" lon="-2.46634">
        <ele>23.5</ele>
        <time>2024-12-19T12:48:21Z</time>
      </trkpt>
      <trkpt lat="47.90094" lon="-2.46635">
        <ele>23.5</ele>
        <time>2024-12-19T12:48:22Z</time>
      </trkpt>
      <trkpt lat="47.90095" lon="-2.46636">
        <ele>23.5</ele>
        <time>2024-12-19T12:48:23Z</time>
      </trkpt>
      <trkpt lat="47.90096" lon="-2.46637">
        <ele>23.5</ele>
        <time>2024-12-19T12:48:24Z</time>
      </trkpt>
      <trkpt lat="47.90097" lon="-2.46638">
        <ele>23.5</ele>
        <time>2024-12-19T12:48:25Z</time>
      </trkpt>
      <trkpt lat="47.90098" lon="-2.46639">
        <ele>23.5</ele>
        <time>2024-12-19T12:48:26Z</time>
      </trkpt>
      <trkpt lat="47.901" lon="-2.4664">
        <ele>23.6</ele>
        <time>2024-12-19T12:48:27Z</time>
      </trkpt>
      <trkpt lat="47.90101" lon="-2.46641">
        <ele>23.6</ele>
        <time>2024-12-19T12:48:28Z</time>
      </trkpt>
      <trkpt lat="47.90102" lon="-2.46642">
        <ele>23.6</ele>
        <time>2024-12-19T12:48:29Z</time>
      </trkpt>
      <trkpt lat="47.90103" lon="-2.46642">
        <ele>23.6</ele>
        <time>2024-12-19T12:48:30Z</time>
      </trkpt>
      <trkpt lat="47.90104" lon="-2.46643">
        <ele>23.6</ele>
        <time>2024-12-19T12:48:31Z</time>
      </trkpt>
      <trkpt lat="47.90105" lon="-2.46644">
        <ele>23.6</ele>
        <time>2024-12-19T12:48:32Z</time>
      </trkpt>
      <trkpt lat="47.90106" lon="-2.46645">
        <ele>23.6</ele>
        <time>2024-12-19T12:48:33Z</time>
      </trkpt>
      <trkpt lat="47.90107" lon="-2.46646">
        <ele>23.6</ele>
        <time>2024-12-19T12:48:34Z</time>
      </trkpt>
      <trkpt lat="47.90108" lon="-2.46648">
        <ele>23.6</ele>
        <time>2024-12-19T12:48:35Z</time>
      </trkpt>
      <trkpt lat="47.9011" lon="-2.46649">
        <ele>23.6</ele>
        <time>2024-12-19T12:48:36Z</time>
      </trkpt>
      <trkpt lat="47.90112" lon="-2.4665">
        <ele>23.6</ele>
        <time>2024-12-19T12:48:37Z</time>
      </trkpt>
      <trkpt lat="47.90113" lon="-2.46651">
        <ele>23.6</ele>
        <time>2024-12-19T12:48:38Z</time>
      </trkpt>
      <trkpt lat="47.90113" lon="-2.46652">
        <ele>23.6</ele>
        <time>2024-12-19T12:48:39Z</time>
      </trkpt>
      <trkpt lat="47.90114" lon="-2.46653">
        <ele>23.5</ele>
        <time>2024-12-19T12:48:40Z</time>
      </trkpt>
      <trkpt lat="47.90116" lon="-2.46655">
        <ele>23.5</ele>
        <time>2024-12-19T12:48:41Z</time>
      </trkpt>
      <trkpt lat="47.90117" lon="-2.46656">
        <ele>23.5</ele>
        <time>2024-12-19T12:48:42Z</time>
      </trkpt>
      <trkpt lat="47.90118" lon="-2.46657">
        <ele>23.5</ele>
        <time>2024-12-19T12:48:43Z</time>
      </trkpt>
      <trkpt lat="47.90119" lon="-2.46658">
        <ele>23.5</ele>
        <time>2024-12-19T12:48:44Z</time>
      </trkpt>
      <trkpt lat="47.90121" lon="-2.46659">
        <ele>23.5</ele>
        <time>2024-12-19T12:48:45Z</time>
      </trkpt>
      <trkpt lat="47.90122" lon="-2.4666">
        <ele>23.5</ele>
        <time>2024-12-19T12:48:46Z</time>
      </trkpt>
      <trkpt lat="47.90123" lon="-2.46661">
        <ele>23.5</ele>
        <time>2024-12-19T12:48:47Z</time>
      </trkpt>
      <trkpt lat="47.90125" lon="-2.46662">
        <ele>23.6</ele>
        <time>2024-12-19T12:48:48Z</time>
      </trkpt>
      <trkpt lat="47.90126" lon="-2.46664">
        <ele>23.6</ele>
        <time>2024-12-19T12:48:49Z</time>
      </trkpt>
      <trkpt lat="47.90127" lon="-2.46665">
        <ele>23.6</ele>
        <time>2024-12-19T12:48:50Z</time>
      </trkpt>
      <trkpt lat="47.90128" lon="-2.46666">
        <ele>23.6</ele>
        <time>2024-12-19T12:48:51Z</time>
      </trkpt>
      <trkpt lat="47.90129" lon="-2.46667">
        <ele>23.6</ele>
        <time>2024-12-19T12:48:52Z</time>
      </trkpt>
      <trkpt lat="47.9013" lon="-2.46669">
        <ele>23.6</ele>
        <time>2024-12-19T12:48:53Z</time>
      </trkpt>
      <trkpt lat="47.90131" lon="-2.4667">
        <ele>23.6</ele>
        <time>2024-12-19T12:48:54Z</time>
      </trkpt>
      <trkpt lat="47.90131" lon="-2.4667">
        <ele>23.6</ele>
        <time>2024-12-19T12:48:55Z</time>
      </trkpt>
      <trkpt lat="47.90132" lon="-2.46671">
        <ele>23.6</ele>
        <time>2024-12-19T12:48:56Z</time>
      </trkpt>
      <trkpt lat="47.90132" lon="-2.46672">
        <ele>23.6</ele>
        <time>2024-12-19T12:48:57Z</time>
      </trkpt>
      <trkpt lat="47.90134" lon="-2.46673">
        <ele>23.6</ele>
        <time>2024-12-19T12:48:58Z</time>
      </trkpt>
      <trkpt lat="47.90135" lon="-2.46674">
        <ele>23.6</ele>
        <time>2024-12-19T12:48:59Z</time>
      </trkpt>
      <trkpt lat="47.90136" lon="-2.46675">
        <ele>23.6</ele>
        <time>2024-12-19T12:49:00Z</time>
      </trkpt>
      <trkpt lat="47.90137" lon="-2.46675">
        <ele>23.6</ele>
        <time>2024-12-19T12:49:01Z</time>
      </trkpt>
      <trkpt lat="47.90137" lon="-2.46677">
        <ele>23.6</ele>
        <time>2024-12-19T12:49:02Z</time>
      </trkpt>
      <trkpt lat="47.90138" lon="-2.46678">
        <ele>23.6</ele>
        <time>2024-12-19T12:49:03Z</time>
      </trkpt>
      <trkpt lat="47.90139" lon="-2.46679">
        <ele>23.6</ele>
        <time>2024-12-19T12:49:04Z</time>
      </trkpt>
      <trkpt lat="47.90139" lon="-2.4668">
        <ele>23.6</ele>
        <time>2024-12-19T12:49:05Z</time>
      </trkpt>
      <trkpt lat="47.9014" lon="-2.4668">
        <ele>23.6</ele>
        <time>2024-12-19T12:49:06Z</time>
      </trkpt>
      <trkpt lat="47.90141" lon="-2.46681">
        <ele>23.6</ele>
        <time>2024-12-19T12:49:07Z</time>
      </trkpt>
      <trkpt lat="47.90142" lon="-2.46682">
        <ele>23.6</ele>
        <time>2024-12-19T12:49:08Z</time>
      </trkpt>
      <trkpt lat="47.90144" lon="-2.46683">
        <ele>23.6</ele>
        <time>2024-12-19T12:49:09Z</time>
      </trkpt>
      <trkpt lat="47.90145" lon="-2.46684">
        <ele>23.6</ele>
        <time>2024-12-19T12:49:10Z</time>
      </trkpt>
      <trkpt lat="47.90146" lon="-2.46685">
        <ele>23.6</ele>
        <time>2024-12-19T12:49:11Z</time>
      </trkpt>
      <trkpt lat="47.90147" lon="-2.46686">
        <ele>23.6</ele>
        <time>2024-12-19T12:49:12Z</time>
      </trkpt>
      <trkpt lat="47.90148" lon="-2.46687">
        <ele>23.6</ele>
        <time>2024-12-19T12:49:13Z</time>
      </trkpt>
      <trkpt lat="47.90149" lon="-2.46689">
        <ele>23.6</ele>
        <time>2024-12-19T12:49:14Z</time>
      </trkpt>
      <trkpt lat="47.90149" lon="-2.4669">
        <ele>23.5</ele>
        <time>2024-12-19T12:49:15Z</time>
      </trkpt>
      <trkpt lat="47.9015" lon="-2.46691">
        <ele>23.5</ele>
        <time>2024-12-19T12:49:16Z</time>
      </trkpt>
      <trkpt lat="47.9015" lon="-2.46692">
        <ele>23.5</ele>
        <time>2024-12-19T12:49:17Z</time>
      </trkpt>
      <trkpt lat="47.90151" lon="-2.46694">
        <ele>23.5</ele>
        <time>2024-12-19T12:49:18Z</time>
      </trkpt>
      <trkpt lat="47.90151" lon="-2.46694">
        <ele>23.5</ele>
        <time>2024-12-19T12:49:19Z</time>
      </trkpt>
      <trkpt lat="47.90152" lon="-2.46695">
        <ele>23.5</ele>
        <time>2024-12-19T12:49:20Z</time>
      </trkpt>
      <trkpt lat="47.90153" lon="-2.46696">
        <ele>23.5</ele>
        <time>2024-12-19T12:49:21Z</time>
      </trkpt>
      <trkpt lat="47.90154" lon="-2.46697">
        <ele>23.6</ele>
        <time>2024-12-19T12:49:22Z</time>
      </trkpt>
      <trkpt lat="47.90155" lon="-2.46699">
        <ele>23.6</ele>
        <time>2024-12-19T12:49:23Z</time>
      </trkpt>
      <trkpt lat="47.90156" lon="-2.467">
        <ele>23.6</ele>
        <time>2024-12-19T12:49:24Z</time>
      </trkpt>
      <trkpt lat="47.90157" lon="-2.46702">
        <ele>23.6</ele>
        <time>2024-12-19T12:49:25Z</time>
      </trkpt>
      <trkpt lat="47.90158" lon="-2.46703">
        <ele>23.7</ele>
        <time>2024-12-19T12:49:26Z</time>
      </trkpt>
      <trkpt lat="47.90159" lon="-2.46705">
        <ele>23.7</ele>
        <time>2024-12-19T12:49:27Z</time>
      </trkpt>
      <trkpt lat="47.9016" lon="-2.46706">
        <ele>23.8</ele>
        <time>2024-12-19T12:49:28Z</time>
      </trkpt>
      <trkpt lat="47.90161" lon="-2.46707">
        <ele>23.8</ele>
        <time>2024-12-19T12:49:29Z</time>
      </trkpt>
      <trkpt lat="47.90162" lon="-2.46709">
        <ele>23.8</ele>
        <time>2024-12-19T12:49:30Z</time>
      </trkpt>
      <trkpt lat="47.90162" lon="-2.4671">
        <ele>23.8</ele>
        <time>2024-12-19T12:49:31Z</time>
      </trkpt>
      <trkpt lat="47.90163" lon="-2.46712">
        <ele>23.9</ele>
        <time>2024-12-19T12:49:32Z</time>
      </trkpt>
      <trkpt lat="47.90164" lon="-2.46713">
        <ele>23.9</ele>
        <time>2024-12-19T12:49:33Z</time>
      </trkpt>
      <trkpt lat="47.90165" lon="-2.46715">
        <ele>23.9</ele>
        <time>2024-12-19T12:49:34Z</time>
      </trkpt>
      <trkpt lat="47.90166" lon="-2.46717">
        <ele>24</ele>
        <time>2024-12-19T12:49:35Z</time>
      </trkpt>
      <trkpt lat="47.90167" lon="-2.46718">
        <ele>24</ele>
        <time>2024-12-19T12:49:36Z</time>
      </trkpt>
      <trkpt lat="47.90167" lon="-2.4672">
        <ele>24</ele>
        <time>2024-12-19T12:49:37Z</time>
      </trkpt>
      <trkpt lat="47.90168" lon="-2.46721">
        <ele>24</ele>
        <time>2024-12-19T12:49:38Z</time>
      </trkpt>
      <trkpt lat="47.90168" lon="-2.46723">
        <ele>24</ele>
        <time>2024-12-19T12:49:39Z</time>
      </trkpt>
      <trkpt lat="47.90169" lon="-2.46725">
        <ele>23.9</ele>
        <time>2024-12-19T12:49:40Z</time>
      </trkpt>
      <trkpt lat="47.9017" lon="-2.46727">
        <ele>23.9</ele>
        <time>2024-12-19T12:49:41Z</time>
      </trkpt>
      <trkpt lat="47.9017" lon="-2.46728">
        <ele>23.8</ele>
        <time>2024-12-19T12:49:42Z</time>
      </trkpt>
      <trkpt lat="47.90171" lon="-2.4673">
        <ele>23.8</ele>
        <time>2024-12-19T12:49:43Z</time>
      </trkpt>
      <trkpt lat="47.90172" lon="-2.4673">
        <ele>23.8</ele>
        <time>2024-12-19T12:49:44Z</time>
      </trkpt>
      <trkpt lat="47.90172" lon="-2.46731">
        <ele>23.7</ele>
        <time>2024-12-19T12:49:45Z</time>
      </trkpt>
      <trkpt lat="47.90173" lon="-2.46733">
        <ele>23.7</ele>
        <time>2024-12-19T12:49:46Z</time>
      </trkpt>
      <trkpt lat="47.90174" lon="-2.46735">
        <ele>23.7</ele>
        <time>2024-12-19T12:49:47Z</time>
      </trkpt>
      <trkpt lat="47.90175" lon="-2.46737">
        <ele>23.6</ele>
        <time>2024-12-19T12:49:48Z</time>
      </trkpt>
      <trkpt lat="47.90175" lon="-2.46738">
        <ele>23.6</ele>
        <time>2024-12-19T12:49:49Z</time>
      </trkpt>
      <trkpt lat="47.90176" lon="-2.4674">
        <ele>23.6</ele>
        <time>2024-12-19T12:49:50Z</time>
      </trkpt>
      <trkpt lat="47.90177" lon="-2.46741">
        <ele>23.6</ele>
        <time>2024-12-19T12:49:51Z</time>
      </trkpt>
      <trkpt lat="47.90177" lon="-2.46743">
        <ele>23.5</ele>
        <time>2024-12-19T12:49:52Z</time>
      </trkpt>
      <trkpt lat="47.90178" lon="-2.46745">
        <ele>23.5</ele>
        <time>2024-12-19T12:49:53Z</time>
      </trkpt>
      <trkpt lat="47.90178" lon="-2.46746">
        <ele>23.5</ele>
        <time>2024-12-19T12:49:54Z</time>
      </trkpt>
      <trkpt lat="47.90179" lon="-2.46748">
        <ele>23.5</ele>
        <time>2024-12-19T12:49:55Z</time>
      </trkpt>
      <trkpt lat="47.90179" lon="-2.4675">
        <ele>23.5</ele>
        <time>2024-12-19T12:49:56Z</time>
      </trkpt>
      <trkpt lat="47.9018" lon="-2.46751">
        <ele>23.5</ele>
        <time>2024-12-19T12:49:57Z</time>
      </trkpt>
      <trkpt lat="47.9018" lon="-2.46752">
        <ele>23.5</ele>
        <time>2024-12-19T12:49:58Z</time>
      </trkpt>
      <trkpt lat="47.90181" lon="-2.46753">
        <ele>23.5</ele>
        <time>2024-12-19T12:49:59Z</time>
      </trkpt>
      <trkpt lat="47.90182" lon="-2.46755">
        <ele>23.5</ele>
        <time>2024-12-19T12:50:00Z</time>
      </trkpt>
      <trkpt lat="47.90182" lon="-2.46757">
        <ele>23.6</ele>
        <time>2024-12-19T12:50:01Z</time>
      </trkpt>
      <trkpt lat="47.90183" lon="-2.46758">
        <ele>23.6</ele>
        <time>2024-12-19T12:50:02Z</time>
      </trkpt>
      <trkpt lat="47.90183" lon="-2.4676">
        <ele>23.6</ele>
        <time>2024-12-19T12:50:03Z</time>
      </trkpt>
      <trkpt lat="47.90184" lon="-2.46761">
        <ele>23.6</ele>
        <time>2024-12-19T12:50:04Z</time>
      </trkpt>
      <trkpt lat="47.90184" lon="-2.46763">
        <ele>23.6</ele>
        <time>2024-12-19T12:50:05Z</time>
      </trkpt>
      <trkpt lat="47.90184" lon="-2.46764">
        <ele>23.6</ele>
        <time>2024-12-19T12:50:06Z</time>
      </trkpt>
      <trkpt lat="47.90184" lon="-2.46766">
        <ele>23.6</ele>
        <time>2024-12-19T12:50:07Z</time>
      </trkpt>
      <trkpt lat="47.90185" lon="-2.46768">
        <ele>23.6</ele>
        <time>2024-12-19T12:50:08Z</time>
      </trkpt>
      <trkpt lat="47.90185" lon="-2.4677">
        <ele>23.7</ele>
        <time>2024-12-19T12:50:09Z</time>
      </trkpt>
      <trkpt lat="47.90186" lon="-2.46771">
        <ele>23.7</ele>
        <time>2024-12-19T12:50:10Z</time>
      </trkpt>
      <trkpt lat="47.90186" lon="-2.46773">
        <ele>23.7</ele>
        <time>2024-12-19T12:50:11Z</time>
      </trkpt>
      <trkpt lat="47.90187" lon="-2.46774">
        <ele>23.7</ele>
        <time>2024-12-19T12:50:12Z</time>
      </trkpt>
      <trkpt lat="47.90187" lon="-2.46775">
        <ele>23.7</ele>
        <time>2024-12-19T12:50:13Z</time>
      </trkpt>
      <trkpt lat="47.90188" lon="-2.46777">
        <ele>23.8</ele>
        <time>2024-12-19T12:50:14Z</time>
      </trkpt>
      <trkpt lat="47.90188" lon="-2.46778">
        <ele>23.8</ele>
        <time>2024-12-19T12:50:15Z</time>
      </trkpt>
      <trkpt lat="47.90189" lon="-2.46779">
        <ele>23.7</ele>
        <time>2024-12-19T12:50:16Z</time>
      </trkpt>
      <trkpt lat="47.90189" lon="-2.46781">
        <ele>23.7</ele>
        <time>2024-12-19T12:50:17Z</time>
      </trkpt>
      <trkpt lat="47.9019" lon="-2.46782">
        <ele>23.7</ele>
        <time>2024-12-19T12:50:18Z</time>
      </trkpt>
      <trkpt lat="47.9019" lon="-2.46785">
        <ele>23.6</ele>
        <time>2024-12-19T12:50:19Z</time>
      </trkpt>
      <trkpt lat="47.90191" lon="-2.46786">
        <ele>23.6</ele>
        <time>2024-12-19T12:50:20Z</time>
      </trkpt>
      <trkpt lat="47.90191" lon="-2.46787">
        <ele>23.6</ele>
        <time>2024-12-19T12:50:21Z</time>
      </trkpt>
      <trkpt lat="47.90192" lon="-2.46788">
        <ele>23.6</ele>
        <time>2024-12-19T12:50:22Z</time>
      </trkpt>
      <trkpt lat="47.90192" lon="-2.4679">
        <ele>23.5</ele>
        <time>2024-12-19T12:50:23Z</time>
      </trkpt>
      <trkpt lat="47.90193" lon="-2.46791">
        <ele>23.5</ele>
        <time>2024-12-19T12:50:24Z</time>
      </trkpt>
      <trkpt lat="47.90193" lon="-2.46793">
        <ele>23.4</ele>
        <time>2024-12-19T12:50:25Z</time>
      </trkpt>
      <trkpt lat="47.90194" lon="-2.46795">
        <ele>23.4</ele>
        <time>2024-12-19T12:50:26Z</time>
      </trkpt>
      <trkpt lat="47.90194" lon="-2.46796">
        <ele>23.3</ele>
        <time>2024-12-19T12:50:27Z</time>
      </trkpt>
      <trkpt lat="47.90194" lon="-2.46797">
        <ele>23.3</ele>
        <time>2024-12-19T12:50:28Z</time>
      </trkpt>
      <trkpt lat="47.90195" lon="-2.46799">
        <ele>23.2</ele>
        <time>2024-12-19T12:50:29Z</time>
      </trkpt>
      <trkpt lat="47.90195" lon="-2.468">
        <ele>23.2</ele>
        <time>2024-12-19T12:50:30Z</time>
      </trkpt>
      <trkpt lat="47.90196" lon="-2.46802">
        <ele>23.1</ele>
        <time>2024-12-19T12:50:31Z</time>
      </trkpt>
      <trkpt lat="47.90196" lon="-2.46804">
        <ele>23.1</ele>
        <time>2024-12-19T12:50:32Z</time>
      </trkpt>
      <trkpt lat="47.90196" lon="-2.46806">
        <ele>23</ele>
        <time>2024-12-19T12:50:33Z</time>
      </trkpt>
      <trkpt lat="47.90196" lon="-2.46809">
        <ele>23</ele>
        <time>2024-12-19T12:50:34Z</time>
      </trkpt>
      <trkpt lat="47.90197" lon="-2.46811">
        <ele>23</ele>
        <time>2024-12-19T12:50:35Z</time>
      </trkpt>
      <trkpt lat="47.90197" lon="-2.46813">
        <ele>23</ele>
        <time>2024-12-19T12:50:36Z</time>
      </trkpt>
      <trkpt lat="47.90197" lon="-2.46815">
        <ele>23</ele>
        <time>2024-12-19T12:50:37Z</time>
      </trkpt>
      <trkpt lat="47.90198" lon="-2.46818">
        <ele>23.1</ele>
        <time>2024-12-19T12:50:38Z</time>
      </trkpt>
      <trkpt lat="47.90198" lon="-2.4682">
        <ele>23.1</ele>
        <time>2024-12-19T12:50:39Z</time>
      </trkpt>
      <trkpt lat="47.90199" lon="-2.46823">
        <ele>23.1</ele>
        <time>2024-12-19T12:50:40Z</time>
      </trkpt>
      <trkpt lat="47.90199" lon="-2.46824">
        <ele>23.1</ele>
        <time>2024-12-19T12:50:41Z</time>
      </trkpt>
      <trkpt lat="47.902" lon="-2.46825">
        <ele>23.1</ele>
        <time>2024-12-19T12:50:42Z</time>
      </trkpt>
      <trkpt lat="47.902" lon="-2.46827">
        <ele>23.1</ele>
        <time>2024-12-19T12:50:43Z</time>
      </trkpt>
      <trkpt lat="47.902" lon="-2.46828">
        <ele>23.2</ele>
        <time>2024-12-19T12:50:44Z</time>
      </trkpt>
      <trkpt lat="47.90201" lon="-2.4683">
        <ele>23.2</ele>
        <time>2024-12-19T12:50:45Z</time>
      </trkpt>
      <trkpt lat="47.90201" lon="-2.46831">
        <ele>23.2</ele>
        <time>2024-12-19T12:50:46Z</time>
      </trkpt>
      <trkpt lat="47.90202" lon="-2.46833">
        <ele>23.3</ele>
        <time>2024-12-19T12:50:47Z</time>
      </trkpt>
      <trkpt lat="47.90202" lon="-2.46834">
        <ele>23.3</ele>
        <time>2024-12-19T12:50:48Z</time>
      </trkpt>
      <trkpt lat="47.90203" lon="-2.46836">
        <ele>23.3</ele>
        <time>2024-12-19T12:50:49Z</time>
      </trkpt>
      <trkpt lat="47.90203" lon="-2.46837">
        <ele>23.3</ele>
        <time>2024-12-19T12:50:50Z</time>
      </trkpt>
      <trkpt lat="47.90204" lon="-2.46838">
        <ele>23.3</ele>
        <time>2024-12-19T12:50:51Z</time>
      </trkpt>
      <trkpt lat="47.90204" lon="-2.4684">
        <ele>23.3</ele>
        <time>2024-12-19T12:50:52Z</time>
      </trkpt>
      <trkpt lat="47.90204" lon="-2.46842">
        <ele>23.4</ele>
        <time>2024-12-19T12:50:53Z</time>
      </trkpt>
      <trkpt lat="47.90205" lon="-2.46843">
        <ele>23.4</ele>
        <time>2024-12-19T12:50:54Z</time>
      </trkpt>
      <trkpt lat="47.90206" lon="-2.46844">
        <ele>23.4</ele>
        <time>2024-12-19T12:50:55Z</time>
      </trkpt>
      <trkpt lat="47.90206" lon="-2.46845">
        <ele>23.4</ele>
        <time>2024-12-19T12:50:56Z</time>
      </trkpt>
      <trkpt lat="47.90207" lon="-2.46846">
        <ele>23.5</ele>
        <time>2024-12-19T12:50:57Z</time>
      </trkpt>
      <trkpt lat="47.90208" lon="-2.46848">
        <ele>23.5</ele>
        <time>2024-12-19T12:50:58Z</time>
      </trkpt>
      <trkpt lat="47.90209" lon="-2.4685">
        <ele>23.5</ele>
        <time>2024-12-19T12:50:59Z</time>
      </trkpt>
      <trkpt lat="47.90209" lon="-2.46851">
        <ele>23.5</ele>
        <time>2024-12-19T12:51:00Z</time>
      </trkpt>
      <trkpt lat="47.90209" lon="-2.46853">
        <ele>23.5</ele>
        <time>2024-12-19T12:51:01Z</time>
      </trkpt>
      <trkpt lat="47.90209" lon="-2.46855">
        <ele>23.5</ele>
        <time>2024-12-19T12:51:02Z</time>
      </trkpt>
      <trkpt lat="47.90209" lon="-2.46856">
        <ele>23.5</ele>
        <time>2024-12-19T12:51:03Z</time>
      </trkpt>
      <trkpt lat="47.9021" lon="-2.46857">
        <ele>23.6</ele>
        <time>2024-12-19T12:51:04Z</time>
      </trkpt>
      <trkpt lat="47.90211" lon="-2.46859">
        <ele>23.6</ele>
        <time>2024-12-19T12:51:05Z</time>
      </trkpt>
      <trkpt lat="47.90211" lon="-2.4686">
        <ele>23.6</ele>
        <time>2024-12-19T12:51:06Z</time>
      </trkpt>
      <trkpt lat="47.90212" lon="-2.46862">
        <ele>23.6</ele>
        <time>2024-12-19T12:51:07Z</time>
      </trkpt>
      <trkpt lat="47.90212" lon="-2.46863">
        <ele>23.6</ele>
        <time>2024-12-19T12:51:08Z</time>
      </trkpt>
      <trkpt lat="47.90213" lon="-2.46865">
        <ele>23.7</ele>
        <time>2024-12-19T12:51:09Z</time>
      </trkpt>
      <trkpt lat="47.90213" lon="-2.46866">
        <ele>23.7</ele>
        <time>2024-12-19T12:51:10Z</time>
      </trkpt>
      <trkpt lat="47.90214" lon="-2.46867">
        <ele>23.7</ele>
        <time>2024-12-19T12:51:11Z</time>
      </trkpt>
      <trkpt lat="47.90214" lon="-2.46868">
        <ele>23.7</ele>
        <time>2024-12-19T12:51:12Z</time>
      </trkpt>
      <trkpt lat="47.90215" lon="-2.4687">
        <ele>23.7</ele>
        <time>2024-12-19T12:51:13Z</time>
      </trkpt>
      <trkpt lat="47.90215" lon="-2.46872">
        <ele>23.7</ele>
        <time>2024-12-19T12:51:14Z</time>
      </trkpt>
      <trkpt lat="47.90215" lon="-2.46873">
        <ele>23.7</ele>
        <time>2024-12-19T12:51:15Z</time>
      </trkpt>
      <trkpt lat="47.90215" lon="-2.46875">
        <ele>23.8</ele>
        <time>2024-12-19T12:51:16Z</time>
      </trkpt>
      <trkpt lat="47.90216" lon="-2.46877">
        <ele>23.8</ele>
        <time>2024-12-19T12:51:17Z</time>
      </trkpt>
      <trkpt lat="47.90216" lon="-2.46878">
        <ele>23.8</ele>
        <time>2024-12-19T12:51:18Z</time>
      </trkpt>
      <trkpt lat="47.90217" lon="-2.46881">
        <ele>23.8</ele>
        <time>2024-12-19T12:51:19Z</time>
      </trkpt>
      <trkpt lat="47.90217" lon="-2.46882">
        <ele>23.8</ele>
        <time>2024-12-19T12:51:20Z</time>
      </trkpt>
      <trkpt lat="47.90217" lon="-2.46884">
        <ele>23.8</ele>
        <time>2024-12-19T12:51:21Z</time>
      </trkpt>
      <trkpt lat="47.90217" lon="-2.46886">
        <ele>23.8</ele>
        <time>2024-12-19T12:51:22Z</time>
      </trkpt>
      <trkpt lat="47.90218" lon="-2.46888">
        <ele>23.8</ele>
        <time>2024-12-19T12:51:23Z</time>
      </trkpt>
      <trkpt lat="47.90218" lon="-2.46889">
        <ele>23.8</ele>
        <time>2024-12-19T12:51:24Z</time>
      </trkpt>
      <trkpt lat="47.90218" lon="-2.46891">
        <ele>23.8</ele>
        <time>2024-12-19T12:51:25Z</time>
      </trkpt>
      <trkpt lat="47.90218" lon="-2.46894">
        <ele>23.9</ele>
        <time>2024-12-19T12:51:26Z</time>
      </trkpt>
      <trkpt lat="47.90219" lon="-2.46896">
        <ele>23.9</ele>
        <time>2024-12-19T12:51:27Z</time>
      </trkpt>
      <trkpt lat="47.90219" lon="-2.46897">
        <ele>23.9</ele>
        <time>2024-12-19T12:51:28Z</time>
      </trkpt>
      <trkpt lat="47.90219" lon="-2.46899">
        <ele>23.9</ele>
        <time>2024-12-19T12:51:29Z</time>
      </trkpt>
      <trkpt lat="47.9022" lon="-2.469">
        <ele>23.9</ele>
        <time>2024-12-19T12:51:30Z</time>
      </trkpt>
      <trkpt lat="47.90221" lon="-2.46901">
        <ele>23.9</ele>
        <time>2024-12-19T12:51:31Z</time>
      </trkpt>
      <trkpt lat="47.90221" lon="-2.46902">
        <ele>24</ele>
        <time>2024-12-19T12:51:32Z</time>
      </trkpt>
      <trkpt lat="47.90221" lon="-2.46904">
        <ele>24</ele>
        <time>2024-12-19T12:51:33Z</time>
      </trkpt>
      <trkpt lat="47.90222" lon="-2.46905">
        <ele>24</ele>
        <time>2024-12-19T12:51:34Z</time>
      </trkpt>
      <trkpt lat="47.90222" lon="-2.46907">
        <ele>24</ele>
        <time>2024-12-19T12:51:35Z</time>
      </trkpt>
      <trkpt lat="47.90223" lon="-2.46909">
        <ele>24</ele>
        <time>2024-12-19T12:51:36Z</time>
      </trkpt>
      <trkpt lat="47.90223" lon="-2.46911">
        <ele>24</ele>
        <time>2024-12-19T12:51:37Z</time>
      </trkpt>
      <trkpt lat="47.90224" lon="-2.46912">
        <ele>24</ele>
        <time>2024-12-19T12:51:38Z</time>
      </trkpt>
      <trkpt lat="47.90224" lon="-2.46913">
        <ele>24</ele>
        <time>2024-12-19T12:51:39Z</time>
      </trkpt>
      <trkpt lat="47.90224" lon="-2.46915">
        <ele>24</ele>
        <time>2024-12-19T12:51:40Z</time>
      </trkpt>
      <trkpt lat="47.90224" lon="-2.46916">
        <ele>24</ele>
        <time>2024-12-19T12:51:41Z</time>
      </trkpt>
      <trkpt lat="47.90225" lon="-2.46917">
        <ele>24</ele>
        <time>2024-12-19T12:51:42Z</time>
      </trkpt>
      <trkpt lat="47.90225" lon="-2.46918">
        <ele>23.9</ele>
        <time>2024-12-19T12:51:43Z</time>
      </trkpt>
      <trkpt lat="47.90225" lon="-2.4692">
        <ele>23.9</ele>
        <time>2024-12-19T12:51:44Z</time>
      </trkpt>
      <trkpt lat="47.90226" lon="-2.46923">
        <ele>23.8</ele>
        <time>2024-12-19T12:51:45Z</time>
      </trkpt>
      <trkpt lat="47.90226" lon="-2.46926">
        <ele>23.7</ele>
        <time>2024-12-19T12:51:46Z</time>
      </trkpt>
      <trkpt lat="47.90227" lon="-2.46927">
        <ele>23.7</ele>
        <time>2024-12-19T12:51:47Z</time>
      </trkpt>
      <trkpt lat="47.90227" lon="-2.46928">
        <ele>23.6</ele>
        <time>2024-12-19T12:51:48Z</time>
      </trkpt>
      <trkpt lat="47.90227" lon="-2.4693">
        <ele>23.6</ele>
        <time>2024-12-19T12:51:49Z</time>
      </trkpt>
      <trkpt lat="47.90227" lon="-2.46931">
        <ele>23.6</ele>
        <time>2024-12-19T12:51:50Z</time>
      </trkpt>
      <trkpt lat="47.90227" lon="-2.46933">
        <ele>23.5</ele>
        <time>2024-12-19T12:51:51Z</time>
      </trkpt>
      <trkpt lat="47.90228" lon="-2.46934">
        <ele>23.5</ele>
        <time>2024-12-19T12:51:52Z</time>
      </trkpt>
      <trkpt lat="47.90228" lon="-2.46935">
        <ele>23.5</ele>
        <time>2024-12-19T12:51:53Z</time>
      </trkpt>
      <trkpt lat="47.90229" lon="-2.46936">
        <ele>23.5</ele>
        <time>2024-12-19T12:51:54Z</time>
      </trkpt>
      <trkpt lat="47.90229" lon="-2.46937">
        <ele>23.4</ele>
        <time>2024-12-19T12:51:55Z</time>
      </trkpt>
      <trkpt lat="47.9023" lon="-2.4694">
        <ele>23.4</ele>
        <time>2024-12-19T12:51:56Z</time>
      </trkpt>
      <trkpt lat="47.90231" lon="-2.46942">
        <ele>23.4</ele>
        <time>2024-12-19T12:51:57Z</time>
      </trkpt>
      <trkpt lat="47.90232" lon="-2.46944">
        <ele>23.4</ele>
        <time>2024-12-19T12:51:58Z</time>
      </trkpt>
      <trkpt lat="47.90233" lon="-2.46946">
        <ele>23.4</ele>
        <time>2024-12-19T12:51:59Z</time>
      </trkpt>
      <trkpt lat="47.90234" lon="-2.46947">
        <ele>23.4</ele>
        <time>2024-12-19T12:52:00Z</time>
      </trkpt>
      <trkpt lat="47.90234" lon="-2.46948">
        <ele>23.4</ele>
        <time>2024-12-19T12:52:01Z</time>
      </trkpt>
      <trkpt lat="47.90235" lon="-2.4695">
        <ele>23.4</ele>
        <time>2024-12-19T12:52:02Z</time>
      </trkpt>
      <trkpt lat="47.90235" lon="-2.46951">
        <ele>23.5</ele>
        <time>2024-12-19T12:52:03Z</time>
      </trkpt>
      <trkpt lat="47.90236" lon="-2.46953">
        <ele>23.5</ele>
        <time>2024-12-19T12:52:04Z</time>
      </trkpt>
      <trkpt lat="47.90237" lon="-2.46954">
        <ele>23.5</ele>
        <time>2024-12-19T12:52:05Z</time>
      </trkpt>
      <trkpt lat="47.90238" lon="-2.46954">
        <ele>23.6</ele>
        <time>2024-12-19T12:52:06Z</time>
      </trkpt>
      <trkpt lat="47.90239" lon="-2.46955">
        <ele>23.6</ele>
        <time>2024-12-19T12:52:07Z</time>
      </trkpt>
      <trkpt lat="47.9024" lon="-2.46957">
        <ele>23.6</ele>
        <time>2024-12-19T12:52:08Z</time>
      </trkpt>
      <trkpt lat="47.90242" lon="-2.46958">
        <ele>23.7</ele>
        <time>2024-12-19T12:52:09Z</time>
      </trkpt>
      <trkpt lat="47.90243" lon="-2.46959">
        <ele>23.7</ele>
        <time>2024-12-19T12:52:10Z</time>
      </trkpt>
      <trkpt lat="47.90244" lon="-2.4696">
        <ele>23.8</ele>
        <time>2024-12-19T12:52:11Z</time>
      </trkpt>
      <trkpt lat="47.90245" lon="-2.46962">
        <ele>23.8</ele>
        <time>2024-12-19T12:52:12Z</time>
      </trkpt>
      <trkpt lat="47.90246" lon="-2.46963">
        <ele>23.9</ele>
        <time>2024-12-19T12:52:13Z</time>
      </trkpt>
      <trkpt lat="47.90247" lon="-2.46965">
        <ele>23.9</ele>
        <time>2024-12-19T12:52:14Z</time>
      </trkpt>
      <trkpt lat="47.90249" lon="-2.46967">
        <ele>24</ele>
        <time>2024-12-19T12:52:15Z</time>
      </trkpt>
      <trkpt lat="47.9025" lon="-2.46968">
        <ele>24</ele>
        <time>2024-12-19T12:52:16Z</time>
      </trkpt>
      <trkpt lat="47.9025" lon="-2.46969">
        <ele>24</ele>
        <time>2024-12-19T12:52:17Z</time>
      </trkpt>
      <trkpt lat="47.90251" lon="-2.46971">
        <ele>24</ele>
        <time>2024-12-19T12:52:18Z</time>
      </trkpt>
      <trkpt lat="47.90253" lon="-2.46972">
        <ele>24</ele>
        <time>2024-12-19T12:52:19Z</time>
      </trkpt>
      <trkpt lat="47.90254" lon="-2.46972">
        <ele>24</ele>
        <time>2024-12-19T12:52:20Z</time>
      </trkpt>
      <trkpt lat="47.90255" lon="-2.46973">
        <ele>24</ele>
        <time>2024-12-19T12:52:21Z</time>
      </trkpt>
      <trkpt lat="47.90256" lon="-2.46974">
        <ele>24</ele>
        <time>2024-12-19T12:52:22Z</time>
      </trkpt>
      <trkpt lat="47.90257" lon="-2.46975">
        <ele>23.9</ele>
        <time>2024-12-19T12:52:23Z</time>
      </trkpt>
      <trkpt lat="47.90258" lon="-2.46976">
        <ele>23.8</ele>
        <time>2024-12-19T12:52:24Z</time>
      </trkpt>
      <trkpt lat="47.90259" lon="-2.46978">
        <ele>23.8</ele>
        <time>2024-12-19T12:52:25Z</time>
      </trkpt>
      <trkpt lat="47.9026" lon="-2.46979">
        <ele>23.8</ele>
        <time>2024-12-19T12:52:26Z</time>
      </trkpt>
      <trkpt lat="47.9026" lon="-2.4698">
        <ele>23.7</ele>
        <time>2024-12-19T12:52:27Z</time>
      </trkpt>
      <trkpt lat="47.90261" lon="-2.4698">
        <ele>23.7</ele>
        <time>2024-12-19T12:52:28Z</time>
      </trkpt>
      <trkpt lat="47.90262" lon="-2.46981">
        <ele>23.7</ele>
        <time>2024-12-19T12:52:29Z</time>
      </trkpt>
      <trkpt lat="47.90263" lon="-2.46981">
        <ele>23.7</ele>
        <time>2024-12-19T12:52:30Z</time>
      </trkpt>
      <trkpt lat="47.90264" lon="-2.46981">
        <ele>23.7</ele>
        <time>2024-12-19T12:52:31Z</time>
      </trkpt>
      <trkpt lat="47.90265" lon="-2.46981">
        <ele>23.7</ele>
        <time>2024-12-19T12:52:32Z</time>
      </trkpt>
      <trkpt lat="47.90266" lon="-2.46982">
        <ele>23.7</ele>
        <time>2024-12-19T12:52:33Z</time>
      </trkpt>
      <trkpt lat="47.90266" lon="-2.46982">
        <ele>23.6</ele>
        <time>2024-12-19T12:52:34Z</time>
      </trkpt>
      <trkpt lat="47.90267" lon="-2.46982">
        <ele>23.6</ele>
        <time>2024-12-19T12:52:35Z</time>
      </trkpt>
      <trkpt lat="47.90267" lon="-2.46983">
        <ele>23.6</ele>
        <time>2024-12-19T12:52:36Z</time>
      </trkpt>
      <trkpt lat="47.90268" lon="-2.46984">
        <ele>23.6</ele>
        <time>2024-12-19T12:52:38Z</time>
      </trkpt>
      <trkpt lat="47.90268" lon="-2.46985">
        <ele>23.6</ele>
        <time>2024-12-19T12:52:39Z</time>
      </trkpt>
      <trkpt lat="47.90269" lon="-2.46985">
        <ele>23.5</ele>
        <time>2024-12-19T12:52:40Z</time>
      </trkpt>
      <trkpt lat="47.9027" lon="-2.46985">
        <ele>23.5</ele>
        <time>2024-12-19T12:52:41Z</time>
      </trkpt>
      <trkpt lat="47.90271" lon="-2.46985">
        <ele>23.5</ele>
        <time>2024-12-19T12:52:42Z</time>
      </trkpt>
      <trkpt lat="47.90271" lon="-2.46985">
        <ele>23.5</ele>
        <time>2024-12-19T12:52:43Z</time>
      </trkpt>
      <trkpt lat="47.90272" lon="-2.46985">
        <ele>23.5</ele>
        <time>2024-12-19T12:52:44Z</time>
      </trkpt>
      <trkpt lat="47.90274" lon="-2.46985">
        <ele>23.6</ele>
        <time>2024-12-19T12:52:45Z</time>
      </trkpt>
      <trkpt lat="47.90276" lon="-2.46984">
        <ele>23.6</ele>
        <time>2024-12-19T12:52:46Z</time>
      </trkpt>
      <trkpt lat="47.90277" lon="-2.46984">
        <ele>23.6</ele>
        <time>2024-12-19T12:52:47Z</time>
      </trkpt>
      <trkpt lat="47.90278" lon="-2.46985">
        <ele>23.5</ele>
        <time>2024-12-19T12:52:48Z</time>
      </trkpt>
      <trkpt lat="47.90279" lon="-2.46986">
        <ele>23.5</ele>
        <time>2024-12-19T12:52:49Z</time>
      </trkpt>
      <trkpt lat="47.9028" lon="-2.46986">
        <ele>23.5</ele>
        <time>2024-12-19T12:52:50Z</time>
      </trkpt>
      <trkpt lat="47.90281" lon="-2.46987">
        <ele>23.5</ele>
        <time>2024-12-19T12:52:51Z</time>
      </trkpt>
      <trkpt lat="47.90283" lon="-2.46987">
        <ele>23.5</ele>
        <time>2024-12-19T12:52:52Z</time>
      </trkpt>
      <trkpt lat="47.90284" lon="-2.46987">
        <ele>23.5</ele>
        <time>2024-12-19T12:52:53Z</time>
      </trkpt>
      <trkpt lat="47.90285" lon="-2.46987">
        <ele>23.5</ele>
        <time>2024-12-19T12:52:54Z</time>
      </trkpt>
      <trkpt lat="47.90285" lon="-2.46987">
        <ele>23.5</ele>
        <time>2024-12-19T12:52:55Z</time>
      </trkpt>
      <trkpt lat="47.90285" lon="-2.46987">
        <ele>23.5</ele>
        <time>2024-12-19T12:52:56Z</time>
      </trkpt>
      <trkpt lat="47.90286" lon="-2.46987">
        <ele>23.5</ele>
        <time>2024-12-19T12:52:57Z</time>
      </trkpt>
      <trkpt lat="47.90286" lon="-2.46987">
        <ele>23.5</ele>
        <time>2024-12-19T12:52:58Z</time>
      </trkpt>
      <trkpt lat="47.90286" lon="-2.46987">
        <ele>23.5</ele>
        <time>2024-12-19T12:52:59Z</time>
      </trkpt>
      <trkpt lat="47.90287" lon="-2.46987">
        <ele>23.5</ele>
        <time>2024-12-19T12:53:00Z</time>
      </trkpt>
      <trkpt lat="47.90287" lon="-2.46987">
        <ele>23.5</ele>
        <time>2024-12-19T12:53:01Z</time>
      </trkpt>
      <trkpt lat="47.90288" lon="-2.46987">
        <ele>23.5</ele>
        <time>2024-12-19T12:53:02Z</time>
      </trkpt>
      <trkpt lat="47.90288" lon="-2.46987">
        <ele>23.5</ele>
        <time>2024-12-19T12:53:03Z</time>
      </trkpt>
      <trkpt lat="47.90289" lon="-2.46988">
        <ele>23.4</ele>
        <time>2024-12-19T12:53:04Z</time>
      </trkpt>
      <trkpt lat="47.90291" lon="-2.46988">
        <ele>23.4</ele>
        <time>2024-12-19T12:53:05Z</time>
      </trkpt>
      <trkpt lat="47.90292" lon="-2.46988">
        <ele>23.4</ele>
        <time>2024-12-19T12:53:06Z</time>
      </trkpt>
      <trkpt lat="47.90292" lon="-2.46989">
        <ele>23.4</ele>
        <time>2024-12-19T12:53:07Z</time>
      </trkpt>
      <trkpt lat="47.90294" lon="-2.46989">
        <ele>23.4</ele>
        <time>2024-12-19T12:53:08Z</time>
      </trkpt>
      <trkpt lat="47.90294" lon="-2.46989">
        <ele>23.4</ele>
        <time>2024-12-19T12:53:09Z</time>
      </trkpt>
      <trkpt lat="47.90295" lon="-2.4699">
        <ele>23.4</ele>
        <time>2024-12-19T12:53:10Z</time>
      </trkpt>
      <trkpt lat="47.90296" lon="-2.46991">
        <ele>23.3</ele>
        <time>2024-12-19T12:53:11Z</time>
      </trkpt>
      <trkpt lat="47.90297" lon="-2.46991">
        <ele>23.3</ele>
        <time>2024-12-19T12:53:12Z</time>
      </trkpt>
      <trkpt lat="47.90297" lon="-2.46992">
        <ele>23.3</ele>
        <time>2024-12-19T12:53:13Z</time>
      </trkpt>
      <trkpt lat="47.90298" lon="-2.46993">
        <ele>23.3</ele>
        <time>2024-12-19T12:53:14Z</time>
      </trkpt>
      <trkpt lat="47.90299" lon="-2.46993">
        <ele>23.2</ele>
        <time>2024-12-19T12:53:15Z</time>
      </trkpt>
      <trkpt lat="47.90301" lon="-2.46994">
        <ele>23.2</ele>
        <time>2024-12-19T12:53:16Z</time>
      </trkpt>
      <trkpt lat="47.90302" lon="-2.46994">
        <ele>23.2</ele>
        <time>2024-12-19T12:53:17Z</time>
      </trkpt>
      <trkpt lat="47.90303" lon="-2.46995">
        <ele>23.2</ele>
        <time>2024-12-19T12:53:18Z</time>
      </trkpt>
      <trkpt lat="47.90304" lon="-2.46995">
        <ele>23.2</ele>
        <time>2024-12-19T12:53:19Z</time>
      </trkpt>
      <trkpt lat="47.90306" lon="-2.46996">
        <ele>23.2</ele>
        <time>2024-12-19T12:53:20Z</time>
      </trkpt>
      <trkpt lat="47.90308" lon="-2.46997">
        <ele>23.2</ele>
        <time>2024-12-19T12:53:21Z</time>
      </trkpt>
      <trkpt lat="47.90309" lon="-2.46997">
        <ele>23.3</ele>
        <time>2024-12-19T12:53:22Z</time>
      </trkpt>
      <trkpt lat="47.9031" lon="-2.46998">
        <ele>23.4</ele>
        <time>2024-12-19T12:53:23Z</time>
      </trkpt>
      <trkpt lat="47.90311" lon="-2.46998">
        <ele>23.4</ele>
        <time>2024-12-19T12:53:24Z</time>
      </trkpt>
      <trkpt lat="47.90312" lon="-2.46998">
        <ele>23.5</ele>
        <time>2024-12-19T12:53:25Z</time>
      </trkpt>
      <trkpt lat="47.90314" lon="-2.46999">
        <ele>23.6</ele>
        <time>2024-12-19T12:53:26Z</time>
      </trkpt>
      <trkpt lat="47.90315" lon="-2.46999">
        <ele>23.7</ele>
        <time>2024-12-19T12:53:27Z</time>
      </trkpt>
      <trkpt lat="47.90317" lon="-2.47">
        <ele>23.8</ele>
        <time>2024-12-19T12:53:28Z</time>
      </trkpt>
      <trkpt lat="47.90318" lon="-2.47001">
        <ele>23.9</ele>
        <time>2024-12-19T12:53:29Z</time>
      </trkpt>
      <trkpt lat="47.9032" lon="-2.47002">
        <ele>24</ele>
        <time>2024-12-19T12:53:30Z</time>
      </trkpt>
      <trkpt lat="47.90321" lon="-2.47002">
        <ele>24</ele>
        <time>2024-12-19T12:53:31Z</time>
      </trkpt>
      <trkpt lat="47.90322" lon="-2.47001">
        <ele>24.1</ele>
        <time>2024-12-19T12:53:32Z</time>
      </trkpt>
      <trkpt lat="47.90322" lon="-2.47001">
        <ele>24.2</ele>
        <time>2024-12-19T12:53:33Z</time>
      </trkpt>
      <trkpt lat="47.90324" lon="-2.47001">
        <ele>24.3</ele>
        <time>2024-12-19T12:53:34Z</time>
      </trkpt>
      <trkpt lat="47.90325" lon="-2.47001">
        <ele>24.3</ele>
        <time>2024-12-19T12:53:35Z</time>
      </trkpt>
      <trkpt lat="47.90326" lon="-2.47001">
        <ele>24.4</ele>
        <time>2024-12-19T12:53:36Z</time>
      </trkpt>
      <trkpt lat="47.90327" lon="-2.47002">
        <ele>24.5</ele>
        <time>2024-12-19T12:53:37Z</time>
      </trkpt>
      <trkpt lat="47.90329" lon="-2.47002">
        <ele>24.5</ele>
        <time>2024-12-19T12:53:38Z</time>
      </trkpt>
      <trkpt lat="47.9033" lon="-2.47002">
        <ele>24.6</ele>
        <time>2024-12-19T12:53:39Z</time>
      </trkpt>
      <trkpt lat="47.90331" lon="-2.47003">
        <ele>24.6</ele>
        <time>2024-12-19T12:53:40Z</time>
      </trkpt>
      <trkpt lat="47.90332" lon="-2.47003">
        <ele>24.7</ele>
        <time>2024-12-19T12:53:41Z</time>
      </trkpt>
      <trkpt lat="47.90333" lon="-2.47004">
        <ele>24.7</ele>
        <time>2024-12-19T12:53:42Z</time>
      </trkpt>
      <trkpt lat="47.90335" lon="-2.47004">
        <ele>24.7</ele>
        <time>2024-12-19T12:53:43Z</time>
      </trkpt>
      <trkpt lat="47.90336" lon="-2.47005">
        <ele>24.7</ele>
        <time>2024-12-19T12:53:44Z</time>
      </trkpt>
      <trkpt lat="47.90337" lon="-2.47005">
        <ele>24.6</ele>
        <time>2024-12-19T12:53:45Z</time>
      </trkpt>
      <trkpt lat="47.90339" lon="-2.47006">
        <ele>24.6</ele>
        <time>2024-12-19T12:53:46Z</time>
      </trkpt>
      <trkpt lat="47.9034" lon="-2.47006">
        <ele>24.6</ele>
        <time>2024-12-19T12:53:47Z</time>
      </trkpt>
      <trkpt lat="47.90341" lon="-2.47007">
        <ele>24.5</ele>
        <time>2024-12-19T12:53:48Z</time>
      </trkpt>
      <trkpt lat="47.90341" lon="-2.47008">
        <ele>24.5</ele>
        <time>2024-12-19T12:53:49Z</time>
      </trkpt>
      <trkpt lat="47.90342" lon="-2.47008">
        <ele>24.4</ele>
        <time>2024-12-19T12:53:50Z</time>
      </trkpt>
      <trkpt lat="47.90344" lon="-2.47009">
        <ele>24.4</ele>
        <time>2024-12-19T12:53:51Z</time>
      </trkpt>
      <trkpt lat="47.90344" lon="-2.47009">
        <ele>24.3</ele>
        <time>2024-12-19T12:53:52Z</time>
      </trkpt>
      <trkpt lat="47.90345" lon="-2.4701">
        <ele>24.3</ele>
        <time>2024-12-19T12:53:53Z</time>
      </trkpt>
      <trkpt lat="47.90346" lon="-2.47011">
        <ele>24.2</ele>
        <time>2024-12-19T12:53:54Z</time>
      </trkpt>
      <trkpt lat="47.90347" lon="-2.47011">
        <ele>24.2</ele>
        <time>2024-12-19T12:53:55Z</time>
      </trkpt>
      <trkpt lat="47.90348" lon="-2.47012">
        <ele>24.2</ele>
        <time>2024-12-19T12:53:56Z</time>
      </trkpt>
      <trkpt lat="47.90349" lon="-2.47012">
        <ele>24.1</ele>
        <time>2024-12-19T12:53:57Z</time>
      </trkpt>
      <trkpt lat="47.9035" lon="-2.47013">
        <ele>24.1</ele>
        <time>2024-12-19T12:53:58Z</time>
      </trkpt>
      <trkpt lat="47.90351" lon="-2.47013">
        <ele>24</ele>
        <time>2024-12-19T12:53:59Z</time>
      </trkpt>
      <trkpt lat="47.90353" lon="-2.47014">
        <ele>24</ele>
        <time>2024-12-19T12:54:00Z</time>
      </trkpt>
      <trkpt lat="47.90353" lon="-2.47015">
        <ele>23.9</ele>
        <time>2024-12-19T12:54:01Z</time>
      </trkpt>
      <trkpt lat="47.90355" lon="-2.47016">
        <ele>23.9</ele>
        <time>2024-12-19T12:54:02Z</time>
      </trkpt>
      <trkpt lat="47.90356" lon="-2.47017">
        <ele>23.8</ele>
        <time>2024-12-19T12:54:03Z</time>
      </trkpt>
      <trkpt lat="47.90357" lon="-2.47017">
        <ele>23.8</ele>
        <time>2024-12-19T12:54:04Z</time>
      </trkpt>
      <trkpt lat="47.90358" lon="-2.47018">
        <ele>23.7</ele>
        <time>2024-12-19T12:54:05Z</time>
      </trkpt>
      <trkpt lat="47.90359" lon="-2.47018">
        <ele>23.7</ele>
        <time>2024-12-19T12:54:06Z</time>
      </trkpt>
      <trkpt lat="47.90361" lon="-2.47019">
        <ele>23.6</ele>
        <time>2024-12-19T12:54:07Z</time>
      </trkpt>
      <trkpt lat="47.90362" lon="-2.47019">
        <ele>23.6</ele>
        <time>2024-12-19T12:54:08Z</time>
      </trkpt>
      <trkpt lat="47.90363" lon="-2.4702">
        <ele>23.7</ele>
        <time>2024-12-19T12:54:09Z</time>
      </trkpt>
      <trkpt lat="47.90364" lon="-2.47021">
        <ele>23.8</ele>
        <time>2024-12-19T12:54:10Z</time>
      </trkpt>
      <trkpt lat="47.90365" lon="-2.47022">
        <ele>23.8</ele>
        <time>2024-12-19T12:54:11Z</time>
      </trkpt>
      <trkpt lat="47.90366" lon="-2.47022">
        <ele>23.8</ele>
        <time>2024-12-19T12:54:12Z</time>
      </trkpt>
      <trkpt lat="47.90367" lon="-2.47023">
        <ele>23.9</ele>
        <time>2024-12-19T12:54:13Z</time>
      </trkpt>
      <trkpt lat="47.90368" lon="-2.47024">
        <ele>24</ele>
        <time>2024-12-19T12:54:14Z</time>
      </trkpt>
      <trkpt lat="47.90369" lon="-2.47025">
        <ele>24</ele>
        <time>2024-12-19T12:54:15Z</time>
      </trkpt>
      <trkpt lat="47.9037" lon="-2.47025">
        <ele>24.1</ele>
        <time>2024-12-19T12:54:16Z</time>
      </trkpt>
      <trkpt lat="47.90371" lon="-2.47026">
        <ele>24.1</ele>
        <time>2024-12-19T12:54:17Z</time>
      </trkpt>
      <trkpt lat="47.90371" lon="-2.47028">
        <ele>24.1</ele>
        <time>2024-12-19T12:54:18Z</time>
      </trkpt>
      <trkpt lat="47.90372" lon="-2.47028">
        <ele>24.2</ele>
        <time>2024-12-19T12:54:19Z</time>
      </trkpt>
      <trkpt lat="47.90373" lon="-2.47029">
        <ele>24.2</ele>
        <time>2024-12-19T12:54:20Z</time>
      </trkpt>
      <trkpt lat="47.90374" lon="-2.4703">
        <ele>24.3</ele>
        <time>2024-12-19T12:54:21Z</time>
      </trkpt>
      <trkpt lat="47.90375" lon="-2.47031">
        <ele>24.4</ele>
        <time>2024-12-19T12:54:22Z</time>
      </trkpt>
      <trkpt lat="47.90376" lon="-2.47032">
        <ele>24.4</ele>
        <time>2024-12-19T12:54:23Z</time>
      </trkpt>
      <trkpt lat="47.90376" lon="-2.47033">
        <ele>24.4</ele>
        <time>2024-12-19T12:54:24Z</time>
      </trkpt>
      <trkpt lat="47.90377" lon="-2.47034">
        <ele>24.4</ele>
        <time>2024-12-19T12:54:25Z</time>
      </trkpt>
      <trkpt lat="47.90378" lon="-2.47035">
        <ele>24.4</ele>
        <time>2024-12-19T12:54:26Z</time>
      </trkpt>
      <trkpt lat="47.90379" lon="-2.47036">
        <ele>24.4</ele>
        <time>2024-12-19T12:54:27Z</time>
      </trkpt>
      <trkpt lat="47.9038" lon="-2.47038">
        <ele>24.4</ele>
        <time>2024-12-19T12:54:28Z</time>
      </trkpt>
      <trkpt lat="47.9038" lon="-2.47039">
        <ele>24.4</ele>
        <time>2024-12-19T12:54:29Z</time>
      </trkpt>
      <trkpt lat="47.90381" lon="-2.4704">
        <ele>24.3</ele>
        <time>2024-12-19T12:54:30Z</time>
      </trkpt>
      <trkpt lat="47.90382" lon="-2.47041">
        <ele>24.3</ele>
        <time>2024-12-19T12:54:31Z</time>
      </trkpt>
      <trkpt lat="47.90383" lon="-2.47042">
        <ele>24.3</ele>
        <time>2024-12-19T12:54:32Z</time>
      </trkpt>
      <trkpt lat="47.90385" lon="-2.47042">
        <ele>24.3</ele>
        <time>2024-12-19T12:54:33Z</time>
      </trkpt>
      <trkpt lat="47.90386" lon="-2.47043">
        <ele>24.3</ele>
        <time>2024-12-19T12:54:34Z</time>
      </trkpt>
      <trkpt lat="47.90387" lon="-2.47044">
        <ele>24.2</ele>
        <time>2024-12-19T12:54:35Z</time>
      </trkpt>
      <trkpt lat="47.90388" lon="-2.47045">
        <ele>24.1</ele>
        <time>2024-12-19T12:54:36Z</time>
      </trkpt>
      <trkpt lat="47.90389" lon="-2.47045">
        <ele>24.2</ele>
        <time>2024-12-19T12:54:37Z</time>
      </trkpt>
      <trkpt lat="47.90391" lon="-2.47046">
        <ele>24.2</ele>
        <time>2024-12-19T12:54:38Z</time>
      </trkpt>
      <trkpt lat="47.90392" lon="-2.47046">
        <ele>24.3</ele>
        <time>2024-12-19T12:54:39Z</time>
      </trkpt>
      <trkpt lat="47.90394" lon="-2.47047">
        <ele>24.3</ele>
        <time>2024-12-19T12:54:40Z</time>
      </trkpt>
      <trkpt lat="47.90395" lon="-2.47048">
        <ele>24.3</ele>
        <time>2024-12-19T12:54:41Z</time>
      </trkpt>
      <trkpt lat="47.90396" lon="-2.47049">
        <ele>24.4</ele>
        <time>2024-12-19T12:54:42Z</time>
      </trkpt>
      <trkpt lat="47.90398" lon="-2.47049">
        <ele>24.5</ele>
        <time>2024-12-19T12:54:43Z</time>
      </trkpt>
      <trkpt lat="47.90399" lon="-2.4705">
        <ele>24.6</ele>
        <time>2024-12-19T12:54:44Z</time>
      </trkpt>
      <trkpt lat="47.90401" lon="-2.47051">
        <ele>24.6</ele>
        <time>2024-12-19T12:54:45Z</time>
      </trkpt>
      <trkpt lat="47.90402" lon="-2.47052">
        <ele>24.7</ele>
        <time>2024-12-19T12:54:46Z</time>
      </trkpt>
      <trkpt lat="47.90403" lon="-2.47053">
        <ele>24.7</ele>
        <time>2024-12-19T12:54:47Z</time>
      </trkpt>
      <trkpt lat="47.90404" lon="-2.47054">
        <ele>24.8</ele>
        <time>2024-12-19T12:54:48Z</time>
      </trkpt>
      <trkpt lat="47.90406" lon="-2.47055">
        <ele>24.9</ele>
        <time>2024-12-19T12:54:49Z</time>
      </trkpt>
      <trkpt lat="47.90407" lon="-2.47056">
        <ele>24.9</ele>
        <time>2024-12-19T12:54:50Z</time>
      </trkpt>
      <trkpt lat="47.90409" lon="-2.47057">
        <ele>25</ele>
        <time>2024-12-19T12:54:51Z</time>
      </trkpt>
      <trkpt lat="47.9041" lon="-2.47058">
        <ele>25.1</ele>
        <time>2024-12-19T12:54:52Z</time>
      </trkpt>
      <trkpt lat="47.90411" lon="-2.47059">
        <ele>25.1</ele>
        <time>2024-12-19T12:54:53Z</time>
      </trkpt>
      <trkpt lat="47.90412" lon="-2.4706">
        <ele>25.1</ele>
        <time>2024-12-19T12:54:54Z</time>
      </trkpt>
      <trkpt lat="47.90413" lon="-2.47061">
        <ele>25.1</ele>
        <time>2024-12-19T12:54:55Z</time>
      </trkpt>
      <trkpt lat="47.90414" lon="-2.47062">
        <ele>25.1</ele>
        <time>2024-12-19T12:54:56Z</time>
      </trkpt>
      <trkpt lat="47.90415" lon="-2.47063">
        <ele>25</ele>
        <time>2024-12-19T12:54:57Z</time>
      </trkpt>
      <trkpt lat="47.90416" lon="-2.47064">
        <ele>25</ele>
        <time>2024-12-19T12:54:58Z</time>
      </trkpt>
      <trkpt lat="47.90417" lon="-2.47065">
        <ele>24.9</ele>
        <time>2024-12-19T12:54:59Z</time>
      </trkpt>
      <trkpt lat="47.90417" lon="-2.47067">
        <ele>24.8</ele>
        <time>2024-12-19T12:55:00Z</time>
      </trkpt>
      <trkpt lat="47.90418" lon="-2.47068">
        <ele>24.8</ele>
        <time>2024-12-19T12:55:01Z</time>
      </trkpt>
      <trkpt lat="47.90419" lon="-2.47069">
        <ele>24.7</ele>
        <time>2024-12-19T12:55:02Z</time>
      </trkpt>
      <trkpt lat="47.9042" lon="-2.47069">
        <ele>24.7</ele>
        <time>2024-12-19T12:55:03Z</time>
      </trkpt>
      <trkpt lat="47.90421" lon="-2.4707">
        <ele>24.6</ele>
        <time>2024-12-19T12:55:04Z</time>
      </trkpt>
      <trkpt lat="47.90422" lon="-2.47071">
        <ele>24.6</ele>
        <time>2024-12-19T12:55:05Z</time>
      </trkpt>
      <trkpt lat="47.90423" lon="-2.47072">
        <ele>24.5</ele>
        <time>2024-12-19T12:55:06Z</time>
      </trkpt>
      <trkpt lat="47.90424" lon="-2.47073">
        <ele>24.5</ele>
        <time>2024-12-19T12:55:07Z</time>
      </trkpt>
      <trkpt lat="47.90424" lon="-2.47075">
        <ele>24.4</ele>
        <time>2024-12-19T12:55:08Z</time>
      </trkpt>
      <trkpt lat="47.90425" lon="-2.47076">
        <ele>24.3</ele>
        <time>2024-12-19T12:55:09Z</time>
      </trkpt>
      <trkpt lat="47.90426" lon="-2.47077">
        <ele>24.3</ele>
        <time>2024-12-19T12:55:10Z</time>
      </trkpt>
      <trkpt lat="47.90427" lon="-2.47077">
        <ele>24.3</ele>
        <time>2024-12-19T12:55:11Z</time>
      </trkpt>
      <trkpt lat="47.90428" lon="-2.47078">
        <ele>24.3</ele>
        <time>2024-12-19T12:55:12Z</time>
      </trkpt>
      <trkpt lat="47.90429" lon="-2.47079">
        <ele>24.3</ele>
        <time>2024-12-19T12:55:13Z</time>
      </trkpt>
      <trkpt lat="47.90431" lon="-2.4708">
        <ele>24.4</ele>
        <time>2024-12-19T12:55:14Z</time>
      </trkpt>
      <trkpt lat="47.90433" lon="-2.47081">
        <ele>24.4</ele>
        <time>2024-12-19T12:55:15Z</time>
      </trkpt>
      <trkpt lat="47.90434" lon="-2.47081">
        <ele>24.4</ele>
        <time>2024-12-19T12:55:16Z</time>
      </trkpt>
      <trkpt lat="47.90436" lon="-2.47082">
        <ele>24.5</ele>
        <time>2024-12-19T12:55:17Z</time>
      </trkpt>
      <trkpt lat="47.90437" lon="-2.47083">
        <ele>24.5</ele>
        <time>2024-12-19T12:55:18Z</time>
      </trkpt>
      <trkpt lat="47.90439" lon="-2.47084">
        <ele>24.6</ele>
        <time>2024-12-19T12:55:19Z</time>
      </trkpt>
      <trkpt lat="47.9044" lon="-2.47084">
        <ele>24.7</ele>
        <time>2024-12-19T12:55:20Z</time>
      </trkpt>
      <trkpt lat="47.90441" lon="-2.47085">
        <ele>24.7</ele>
        <time>2024-12-19T12:55:21Z</time>
      </trkpt>
      <trkpt lat="47.90442" lon="-2.47086">
        <ele>24.8</ele>
        <time>2024-12-19T12:55:22Z</time>
      </trkpt>
      <trkpt lat="47.90443" lon="-2.47087">
        <ele>24.9</ele>
        <time>2024-12-19T12:55:23Z</time>
      </trkpt>
      <trkpt lat="47.90443" lon="-2.47088">
        <ele>24.9</ele>
        <time>2024-12-19T12:55:24Z</time>
      </trkpt>
      <trkpt lat="47.90444" lon="-2.47088">
        <ele>25</ele>
        <time>2024-12-19T12:55:25Z</time>
      </trkpt>
      <trkpt lat="47.90444" lon="-2.47089">
        <ele>25</ele>
        <time>2024-12-19T12:55:26Z</time>
      </trkpt>
      <trkpt lat="47.90445" lon="-2.47091">
        <ele>25.1</ele>
        <time>2024-12-19T12:55:27Z</time>
      </trkpt>
      <trkpt lat="47.90446" lon="-2.47093">
        <ele>25.2</ele>
        <time>2024-12-19T12:55:28Z</time>
      </trkpt>
      <trkpt lat="47.90447" lon="-2.47095">
        <ele>25.2</ele>
        <time>2024-12-19T12:55:29Z</time>
      </trkpt>
      <trkpt lat="47.90447" lon="-2.47097">
        <ele>25.2</ele>
        <time>2024-12-19T12:55:30Z</time>
      </trkpt>
      <trkpt lat="47.90446" lon="-2.47099">
        <ele>25.2</ele>
        <time>2024-12-19T12:55:31Z</time>
      </trkpt>
      <trkpt lat="47.90446" lon="-2.471">
        <ele>25.1</ele>
        <time>2024-12-19T12:55:32Z</time>
      </trkpt>
      <trkpt lat="47.90445" lon="-2.47101">
        <ele>25</ele>
        <time>2024-12-19T12:55:33Z</time>
      </trkpt>
      <trkpt lat="47.90444" lon="-2.47102">
        <ele>25</ele>
        <time>2024-12-19T12:55:34Z</time>
      </trkpt>
      <trkpt lat="47.90444" lon="-2.47102">
        <ele>25</ele>
        <time>2024-12-19T12:55:35Z</time>
      </trkpt>
      <trkpt lat="47.90444" lon="-2.47103">
        <ele>25</ele>
        <time>2024-12-19T12:55:36Z</time>
      </trkpt>
      <trkpt lat="47.90443" lon="-2.47102">
        <ele>24.9</ele>
        <time>2024-12-19T12:55:37Z</time>
      </trkpt>
      <trkpt lat="47.90442" lon="-2.47102">
        <ele>24.9</ele>
        <time>2024-12-19T12:55:38Z</time>
      </trkpt>
      <trkpt lat="47.90442" lon="-2.47102">
        <ele>24.9</ele>
        <time>2024-12-19T12:55:39Z</time>
      </trkpt>
      <trkpt lat="47.90441" lon="-2.47103">
        <ele>24.8</ele>
        <time>2024-12-19T12:55:40Z</time>
      </trkpt>
      <trkpt lat="47.90441" lon="-2.47104">
        <ele>24.8</ele>
        <time>2024-12-19T12:55:41Z</time>
      </trkpt>
      <trkpt lat="47.90441" lon="-2.47104">
        <ele>24.8</ele>
        <time>2024-12-19T12:55:42Z</time>
      </trkpt>
      <trkpt lat="47.90441" lon="-2.47104">
        <ele>24.8</ele>
        <time>2024-12-19T12:55:43Z</time>
      </trkpt>
      <trkpt lat="47.90442" lon="-2.47104">
        <ele>24.9</ele>
        <time>2024-12-19T12:55:44Z</time>
      </trkpt>
      <trkpt lat="47.90445" lon="-2.47106">
        <ele>25.1</ele>
        <time>2024-12-19T12:55:48Z</time>
      </trkpt>
      <trkpt lat="47.90445" lon="-2.47107">
        <ele>25</ele>
        <time>2024-12-19T12:55:49Z</time>
      </trkpt>
      <trkpt lat="47.90445" lon="-2.47108">
        <ele>25</ele>
        <time>2024-12-19T12:55:50Z</time>
      </trkpt>
      <trkpt lat="47.90444" lon="-2.47109">
        <ele>25</ele>
        <time>2024-12-19T12:55:51Z</time>
      </trkpt>
      <trkpt lat="47.90444" lon="-2.47109">
        <ele>25</ele>
        <time>2024-12-19T12:55:52Z</time>
      </trkpt>
      <trkpt lat="47.90443" lon="-2.47109">
        <ele>25</ele>
        <time>2024-12-19T12:55:53Z</time>
      </trkpt>
      <trkpt lat="47.90443" lon="-2.47109">
        <ele>25</ele>
        <time>2024-12-19T12:55:54Z</time>
      </trkpt>
      <trkpt lat="47.90443" lon="-2.47109">
        <ele>25</ele>
        <time>2024-12-19T12:55:55Z</time>
      </trkpt>
      <trkpt lat="47.90443" lon="-2.47109">
        <ele>25</ele>
        <time>2024-12-19T12:55:56Z</time>
      </trkpt>
      <trkpt lat="47.90444" lon="-2.47109">
        <ele>25</ele>
        <time>2024-12-19T12:55:57Z</time>
      </trkpt>
      <trkpt lat="47.90444" lon="-2.47109">
        <ele>25</ele>
        <time>2024-12-19T12:55:58Z</time>
      </trkpt>
      <trkpt lat="47.90444" lon="-2.47109">
        <ele>25</ele>
        <time>2024-12-19T12:55:59Z</time>
      </trkpt>
      <trkpt lat="47.90444" lon="-2.47109">
        <ele>25</ele>
        <time>2024-12-19T12:56:00Z</time>
      </trkpt>
      <trkpt lat="47.90444" lon="-2.47109">
        <ele>25</ele>
        <time>2024-12-19T12:56:01Z</time>
      </trkpt>
      <trkpt lat="47.90444" lon="-2.47109">
        <ele>25</ele>
        <time>2024-12-19T12:56:02Z</time>
      </trkpt>
      <trkpt lat="47.90443" lon="-2.47109">
        <ele>25</ele>
        <time>2024-12-19T12:56:03Z</time>
      </trkpt>
      <trkpt lat="47.90443" lon="-2.47109">
        <ele>25</ele>
        <time>2024-12-19T12:56:04Z</time>
      </trkpt>
      <trkpt lat="47.90443" lon="-2.47109">
        <ele>25</ele>
        <time>2024-12-19T12:56:06Z</time>
      </trkpt>
      <trkpt lat="47.90443" lon="-2.47109">
        <ele>25</ele>
        <time>2024-12-19T12:56:07Z</time>
      </trkpt>
      <trkpt lat="47.90444" lon="-2.4711">
        <ele>25</ele>
        <time>2024-12-19T12:56:08Z</time>
      </trkpt>
      <trkpt lat="47.90444" lon="-2.47111">
        <ele>25</ele>
        <time>2024-12-19T12:56:09Z</time>
      </trkpt>
      <trkpt lat="47.90445" lon="-2.47112">
        <ele>25</ele>
        <time>2024-12-19T12:56:10Z</time>
      </trkpt>
      <trkpt lat="47.90447" lon="-2.47113">
        <ele>25</ele>
        <time>2024-12-19T12:56:11Z</time>
      </trkpt>
      <trkpt lat="47.90448" lon="-2.47114">
        <ele>25</ele>
        <time>2024-12-19T12:56:12Z</time>
      </trkpt>
      <trkpt lat="47.90449" lon="-2.47114">
        <ele>25.1</ele>
        <time>2024-12-19T12:56:13Z</time>
      </trkpt>
      <trkpt lat="47.90449" lon="-2.47115">
        <ele>25.1</ele>
        <time>2024-12-19T12:56:14Z</time>
      </trkpt>
      <trkpt lat="47.9045" lon="-2.47115">
        <ele>25.1</ele>
        <time>2024-12-19T12:56:15Z</time>
      </trkpt>
      <trkpt lat="47.9045" lon="-2.47116">
        <ele>25.1</ele>
        <time>2024-12-19T12:56:16Z</time>
      </trkpt>
      <trkpt lat="47.9045" lon="-2.47116">
        <ele>25</ele>
        <time>2024-12-19T12:56:17Z</time>
      </trkpt>
      <trkpt lat="47.9045" lon="-2.47116">
        <ele>25</ele>
        <time>2024-12-19T12:56:18Z</time>
      </trkpt>
      <trkpt lat="47.9045" lon="-2.47116">
        <ele>25</ele>
        <time>2024-12-19T12:56:19Z</time>
      </trkpt>
      <trkpt lat="47.90451" lon="-2.47117">
        <ele>25</ele>
        <time>2024-12-19T12:56:20Z</time>
      </trkpt>
      <trkpt lat="47.90452" lon="-2.47118">
        <ele>25</ele>
        <time>2024-12-19T12:56:21Z</time>
      </trkpt>
      <trkpt lat="47.90453" lon="-2.47119">
        <ele>24.9</ele>
        <time>2024-12-19T12:56:22Z</time>
      </trkpt>
      <trkpt lat="47.90454" lon="-2.4712">
        <ele>24.9</ele>
        <time>2024-12-19T12:56:23Z</time>
      </trkpt>
      <trkpt lat="47.90455" lon="-2.47122">
        <ele>24.8</ele>
        <time>2024-12-19T12:56:24Z</time>
      </trkpt>
      <trkpt lat="47.90456" lon="-2.47123">
        <ele>24.8</ele>
        <time>2024-12-19T12:56:25Z</time>
      </trkpt>
      <trkpt lat="47.90457" lon="-2.47124">
        <ele>24.8</ele>
        <time>2024-12-19T12:56:26Z</time>
      </trkpt>
      <trkpt lat="47.90459" lon="-2.47125">
        <ele>24.8</ele>
        <time>2024-12-19T12:56:27Z</time>
      </trkpt>
      <trkpt lat="47.9046" lon="-2.47125">
        <ele>24.8</ele>
        <time>2024-12-19T12:56:28Z</time>
      </trkpt>
      <trkpt lat="47.90461" lon="-2.47126">
        <ele>24.8</ele>
        <time>2024-12-19T12:56:29Z</time>
      </trkpt>
      <trkpt lat="47.90461" lon="-2.47126">
        <ele>24.8</ele>
        <time>2024-12-19T12:56:30Z</time>
      </trkpt>
      <trkpt lat="47.90462" lon="-2.47126">
        <ele>24.8</ele>
        <time>2024-12-19T12:56:31Z</time>
      </trkpt>
      <trkpt lat="47.90462" lon="-2.47126">
        <ele>24.8</ele>
        <time>2024-12-19T12:56:32Z</time>
      </trkpt>
      <trkpt lat="47.90463" lon="-2.47127">
        <ele>24.8</ele>
        <time>2024-12-19T12:56:33Z</time>
      </trkpt>
      <trkpt lat="47.90464" lon="-2.47127">
        <ele>24.8</ele>
        <time>2024-12-19T12:56:34Z</time>
      </trkpt>
      <trkpt lat="47.90464" lon="-2.47128">
        <ele>24.8</ele>
        <time>2024-12-19T12:56:35Z</time>
      </trkpt>
      <trkpt lat="47.90465" lon="-2.47127">
        <ele>24.9</ele>
        <time>2024-12-19T12:56:36Z</time>
      </trkpt>
      <trkpt lat="47.90466" lon="-2.47127">
        <ele>25</ele>
        <time>2024-12-19T12:56:37Z</time>
      </trkpt>
      <trkpt lat="47.90466" lon="-2.47126">
        <ele>25</ele>
        <time>2024-12-19T12:56:38Z</time>
      </trkpt>
      <trkpt lat="47.90466" lon="-2.47126">
        <ele>25</ele>
        <time>2024-12-19T12:56:39Z</time>
      </trkpt>
      <trkpt lat="47.90467" lon="-2.47127">
        <ele>25</ele>
        <time>2024-12-19T12:56:40Z</time>
      </trkpt>
      <trkpt lat="47.90467" lon="-2.47126">
        <ele>25.1</ele>
        <time>2024-12-19T12:56:41Z</time>
      </trkpt>
      <trkpt lat="47.90467" lon="-2.47127">
        <ele>25.1</ele>
        <time>2024-12-19T12:56:42Z</time>
      </trkpt>
      <trkpt lat="47.90467" lon="-2.47127">
        <ele>25.1</ele>
        <time>2024-12-19T12:56:43Z</time>
      </trkpt>
      <trkpt lat="47.90467" lon="-2.47127">
        <ele>25</ele>
        <time>2024-12-19T12:56:44Z</time>
      </trkpt>
      <trkpt lat="47.90467" lon="-2.47127">
        <ele>25</ele>
        <time>2024-12-19T12:56:45Z</time>
      </trkpt>
      <trkpt lat="47.90467" lon="-2.47127">
        <ele>25</ele>
        <time>2024-12-19T12:56:46Z</time>
      </trkpt>
      <trkpt lat="47.90467" lon="-2.47127">
        <ele>25</ele>
        <time>2024-12-19T12:56:47Z</time>
      </trkpt>
      <trkpt lat="47.90467" lon="-2.47127">
        <ele>25</ele>
        <time>2024-12-19T12:56:48Z</time>
      </trkpt>
      <trkpt lat="47.90467" lon="-2.47127">
        <ele>25</ele>
        <time>2024-12-19T12:56:49Z</time>
      </trkpt>
      <trkpt lat="47.90467" lon="-2.47127">
        <ele>25</ele>
        <time>2024-12-19T12:56:50Z</time>
      </trkpt>
      <trkpt lat="47.90467" lon="-2.47127">
        <ele>25.1</ele>
        <time>2024-12-19T12:56:51Z</time>
      </trkpt>
      <trkpt lat="47.90468" lon="-2.47127">
        <ele>25.1</ele>
        <time>2024-12-19T12:56:52Z</time>
      </trkpt>
      <trkpt lat="47.90469" lon="-2.47126">
        <ele>25.2</ele>
        <time>2024-12-19T12:56:53Z</time>
      </trkpt>
      <trkpt lat="47.90469" lon="-2.47125">
        <ele>25.4</ele>
        <time>2024-12-19T12:56:54Z</time>
      </trkpt>
      <trkpt lat="47.90469" lon="-2.47123">
        <ele>25.5</ele>
        <time>2024-12-19T12:56:55Z</time>
      </trkpt>
      <trkpt lat="47.9047" lon="-2.47122">
        <ele>25.6</ele>
        <time>2024-12-19T12:56:56Z</time>
      </trkpt>
      <trkpt lat="47.9047" lon="-2.47122">
        <ele>25.8</ele>
        <time>2024-12-19T12:56:57Z</time>
      </trkpt>
      <trkpt lat="47.90471" lon="-2.47121">
        <ele>25.9</ele>
        <time>2024-12-19T12:56:58Z</time>
      </trkpt>
      <trkpt lat="47.90471" lon="-2.47121">
        <ele>25.9</ele>
        <time>2024-12-19T12:56:59Z</time>
      </trkpt>
      <trkpt lat="47.90472" lon="-2.47121">
        <ele>25.9</ele>
        <time>2024-12-19T12:57:00Z</time>
      </trkpt>
      <trkpt lat="47.90472" lon="-2.47121">
        <ele>26</ele>
        <time>2024-12-19T12:57:01Z</time>
      </trkpt>
      <trkpt lat="47.90473" lon="-2.47121">
        <ele>26</ele>
        <time>2024-12-19T12:57:02Z</time>
      </trkpt>
      <trkpt lat="47.90473" lon="-2.47122">
        <ele>26</ele>
        <time>2024-12-19T12:57:03Z</time>
      </trkpt>
      <trkpt lat="47.90474" lon="-2.47122">
        <ele>26</ele>
        <time>2024-12-19T12:57:04Z</time>
      </trkpt>
      <trkpt lat="47.90475" lon="-2.47122">
        <ele>26</ele>
        <time>2024-12-19T12:57:05Z</time>
      </trkpt>
      <trkpt lat="47.90476" lon="-2.47123">
        <ele>26</ele>
        <time>2024-12-19T12:57:06Z</time>
      </trkpt>
      <trkpt lat="47.90476" lon="-2.47123">
        <ele>26.1</ele>
        <time>2024-12-19T12:57:07Z</time>
      </trkpt>
      <trkpt lat="47.90477" lon="-2.47124">
        <ele>26</ele>
        <time>2024-12-19T12:57:08Z</time>
      </trkpt>
      <trkpt lat="47.90477" lon="-2.47125">
        <ele>25.9</ele>
        <time>2024-12-19T12:57:09Z</time>
      </trkpt>
      <trkpt lat="47.90478" lon="-2.47126">
        <ele>25.9</ele>
        <time>2024-12-19T12:57:10Z</time>
      </trkpt>
      <trkpt lat="47.90479" lon="-2.47127">
        <ele>25.8</ele>
        <time>2024-12-19T12:57:11Z</time>
      </trkpt>
      <trkpt lat="47.90479" lon="-2.47129">
        <ele>25.8</ele>
        <time>2024-12-19T12:57:12Z</time>
      </trkpt>
      <trkpt lat="47.90481" lon="-2.47132">
        <ele>25.6</ele>
        <time>2024-12-19T12:57:14Z</time>
      </trkpt>
      <trkpt lat="47.90482" lon="-2.47133">
        <ele>25.6</ele>
        <time>2024-12-19T12:57:15Z</time>
      </trkpt>
      <trkpt lat="47.90483" lon="-2.47134">
        <ele>25.7</ele>
        <time>2024-12-19T12:57:16Z</time>
      </trkpt>
      <trkpt lat="47.90484" lon="-2.47134">
        <ele>25.7</ele>
        <time>2024-12-19T12:57:17Z</time>
      </trkpt>
      <trkpt lat="47.90485" lon="-2.47135">
        <ele>25.8</ele>
        <time>2024-12-19T12:57:18Z</time>
      </trkpt>
      <trkpt lat="47.90486" lon="-2.47136">
        <ele>25.8</ele>
        <time>2024-12-19T12:57:19Z</time>
      </trkpt>
      <trkpt lat="47.90488" lon="-2.47137">
        <ele>25.8</ele>
        <time>2024-12-19T12:57:20Z</time>
      </trkpt>
      <trkpt lat="47.90489" lon="-2.47138">
        <ele>25.8</ele>
        <time>2024-12-19T12:57:21Z</time>
      </trkpt>
      <trkpt lat="47.9049" lon="-2.47139">
        <ele>25.9</ele>
        <time>2024-12-19T12:57:22Z</time>
      </trkpt>
      <trkpt lat="47.90491" lon="-2.47139">
        <ele>26</ele>
        <time>2024-12-19T12:57:23Z</time>
      </trkpt>
      <trkpt lat="47.90492" lon="-2.47139">
        <ele>26.1</ele>
        <time>2024-12-19T12:57:24Z</time>
      </trkpt>
      <trkpt lat="47.90493" lon="-2.4714">
        <ele>26.2</ele>
        <time>2024-12-19T12:57:25Z</time>
      </trkpt>
      <trkpt lat="47.90494" lon="-2.4714">
        <ele>26.3</ele>
        <time>2024-12-19T12:57:26Z</time>
      </trkpt>
      <trkpt lat="47.90495" lon="-2.47141">
        <ele>26.4</ele>
        <time>2024-12-19T12:57:27Z</time>
      </trkpt>
      <trkpt lat="47.90496" lon="-2.47141">
        <ele>26.5</ele>
        <time>2024-12-19T12:57:28Z</time>
      </trkpt>
      <trkpt lat="47.90498" lon="-2.47142">
        <ele>26.5</ele>
        <time>2024-12-19T12:57:29Z</time>
      </trkpt>
      <trkpt lat="47.90499" lon="-2.47144">
        <ele>26.5</ele>
        <time>2024-12-19T12:57:30Z</time>
      </trkpt>
      <trkpt lat="47.905" lon="-2.47146">
        <ele>26.5</ele>
        <time>2024-12-19T12:57:31Z</time>
      </trkpt>
      <trkpt lat="47.90501" lon="-2.47148">
        <ele>26.4</ele>
        <time>2024-12-19T12:57:32Z</time>
      </trkpt>
      <trkpt lat="47.90501" lon="-2.47149">
        <ele>26.4</ele>
        <time>2024-12-19T12:57:33Z</time>
      </trkpt>
      <trkpt lat="47.90502" lon="-2.47152">
        <ele>26.3</ele>
        <time>2024-12-19T12:57:34Z</time>
      </trkpt>
      <trkpt lat="47.90504" lon="-2.47153">
        <ele>26.4</ele>
        <time>2024-12-19T12:57:35Z</time>
      </trkpt>
      <trkpt lat="47.90505" lon="-2.47155">
        <ele>26.4</ele>
        <time>2024-12-19T12:57:36Z</time>
      </trkpt>
      <trkpt lat="47.90506" lon="-2.47156">
        <ele>26.5</ele>
        <time>2024-12-19T12:57:37Z</time>
      </trkpt>
      <trkpt lat="47.90507" lon="-2.47157">
        <ele>26.5</ele>
        <time>2024-12-19T12:57:38Z</time>
      </trkpt>
      <trkpt lat="47.90508" lon="-2.47159">
        <ele>26.6</ele>
        <time>2024-12-19T12:57:39Z</time>
      </trkpt>
      <trkpt lat="47.90509" lon="-2.4716">
        <ele>26.6</ele>
        <time>2024-12-19T12:57:40Z</time>
      </trkpt>
      <trkpt lat="47.9051" lon="-2.47161">
        <ele>26.7</ele>
        <time>2024-12-19T12:57:41Z</time>
      </trkpt>
      <trkpt lat="47.90511" lon="-2.47163">
        <ele>26.7</ele>
        <time>2024-12-19T12:57:42Z</time>
      </trkpt>
      <trkpt lat="47.90512" lon="-2.47164">
        <ele>26.8</ele>
        <time>2024-12-19T12:57:43Z</time>
      </trkpt>
      <trkpt lat="47.90512" lon="-2.47165">
        <ele>26.8</ele>
        <time>2024-12-19T12:57:44Z</time>
      </trkpt>
      <trkpt lat="47.90513" lon="-2.47166">
        <ele>26.9</ele>
        <time>2024-12-19T12:57:45Z</time>
      </trkpt>
      <trkpt lat="47.90514" lon="-2.47168">
        <ele>26.9</ele>
        <time>2024-12-19T12:57:46Z</time>
      </trkpt>
      <trkpt lat="47.90514" lon="-2.47169">
        <ele>26.9</ele>
        <time>2024-12-19T12:57:47Z</time>
      </trkpt>
      <trkpt lat="47.90515" lon="-2.4717">
        <ele>26.8</ele>
        <time>2024-12-19T12:57:48Z</time>
      </trkpt>
      <trkpt lat="47.90515" lon="-2.47172">
        <ele>26.8</ele>
        <time>2024-12-19T12:57:49Z</time>
      </trkpt>
      <trkpt lat="47.90516" lon="-2.47173">
        <ele>26.7</ele>
        <time>2024-12-19T12:57:50Z</time>
      </trkpt>
      <trkpt lat="47.90516" lon="-2.47175">
        <ele>26.7</ele>
        <time>2024-12-19T12:57:51Z</time>
      </trkpt>
      <trkpt lat="47.90517" lon="-2.47178">
        <ele>26.6</ele>
        <time>2024-12-19T12:57:52Z</time>
      </trkpt>
      <trkpt lat="47.90517" lon="-2.4718">
        <ele>26.5</ele>
        <time>2024-12-19T12:57:53Z</time>
      </trkpt>
      <trkpt lat="47.90518" lon="-2.47181">
        <ele>26.3</ele>
        <time>2024-12-19T12:57:54Z</time>
      </trkpt>
      <trkpt lat="47.90518" lon="-2.47183">
        <ele>26.3</ele>
        <time>2024-12-19T12:57:55Z</time>
      </trkpt>
      <trkpt lat="47.90518" lon="-2.47184">
        <ele>26.2</ele>
        <time>2024-12-19T12:57:56Z</time>
      </trkpt>
      <trkpt lat="47.90519" lon="-2.47186">
        <ele>26.1</ele>
        <time>2024-12-19T12:57:57Z</time>
      </trkpt>
      <trkpt lat="47.90519" lon="-2.47188">
        <ele>25.9</ele>
        <time>2024-12-19T12:57:58Z</time>
      </trkpt>
      <trkpt lat="47.9052" lon="-2.47191">
        <ele>25.7</ele>
        <time>2024-12-19T12:57:59Z</time>
      </trkpt>
      <trkpt lat="47.9052" lon="-2.47193">
        <ele>25.6</ele>
        <time>2024-12-19T12:58:00Z</time>
      </trkpt>
      <trkpt lat="47.90521" lon="-2.47194">
        <ele>25.5</ele>
        <time>2024-12-19T12:58:01Z</time>
      </trkpt>
      <trkpt lat="47.90521" lon="-2.47196">
        <ele>25.5</ele>
        <time>2024-12-19T12:58:02Z</time>
      </trkpt>
      <trkpt lat="47.90521" lon="-2.47198">
        <ele>25.6</ele>
        <time>2024-12-19T12:58:03Z</time>
      </trkpt>
      <trkpt lat="47.90522" lon="-2.47199">
        <ele>25.6</ele>
        <time>2024-12-19T12:58:04Z</time>
      </trkpt>
      <trkpt lat="47.90522" lon="-2.47201">
        <ele>25.6</ele>
        <time>2024-12-19T12:58:05Z</time>
      </trkpt>
      <trkpt lat="47.90522" lon="-2.47203">
        <ele>25.7</ele>
        <time>2024-12-19T12:58:06Z</time>
      </trkpt>
      <trkpt lat="47.90523" lon="-2.47204">
        <ele>25.7</ele>
        <time>2024-12-19T12:58:07Z</time>
      </trkpt>
      <trkpt lat="47.90523" lon="-2.47205">
        <ele>25.7</ele>
        <time>2024-12-19T12:58:08Z</time>
      </trkpt>
      <trkpt lat="47.90524" lon="-2.47206">
        <ele>25.8</ele>
        <time>2024-12-19T12:58:09Z</time>
      </trkpt>
      <trkpt lat="47.90524" lon="-2.47207">
        <ele>25.8</ele>
        <time>2024-12-19T12:58:10Z</time>
      </trkpt>
      <trkpt lat="47.90525" lon="-2.47208">
        <ele>25.8</ele>
        <time>2024-12-19T12:58:11Z</time>
      </trkpt>
      <trkpt lat="47.90526" lon="-2.47209">
        <ele>25.9</ele>
        <time>2024-12-19T12:58:12Z</time>
      </trkpt>
      <trkpt lat="47.90527" lon="-2.47209">
        <ele>26</ele>
        <time>2024-12-19T12:58:13Z</time>
      </trkpt>
      <trkpt lat="47.90527" lon="-2.47208">
        <ele>26</ele>
        <time>2024-12-19T12:58:14Z</time>
      </trkpt>
      <trkpt lat="47.90528" lon="-2.47207">
        <ele>26</ele>
        <time>2024-12-19T12:58:15Z</time>
      </trkpt>
      <trkpt lat="47.90528" lon="-2.47207">
        <ele>26</ele>
        <time>2024-12-19T12:58:16Z</time>
      </trkpt>
      <trkpt lat="47.90528" lon="-2.47207">
        <ele>26</ele>
        <time>2024-12-19T12:58:17Z</time>
      </trkpt>
      <trkpt lat="47.90528" lon="-2.47207">
        <ele>26</ele>
        <time>2024-12-19T12:58:18Z</time>
      </trkpt>
      <trkpt lat="47.90528" lon="-2.47207">
        <ele>26</ele>
        <time>2024-12-19T12:58:19Z</time>
      </trkpt>
      <trkpt lat="47.90528" lon="-2.47207">
        <ele>26</ele>
        <time>2024-12-19T12:58:20Z</time>
      </trkpt>
      <trkpt lat="47.90528" lon="-2.47207">
        <ele>26</ele>
        <time>2024-12-19T12:58:21Z</time>
      </trkpt>
      <trkpt lat="47.90528" lon="-2.47207">
        <ele>26</ele>
        <time>2024-12-19T12:58:22Z</time>
      </trkpt>
      <trkpt lat="47.90529" lon="-2.47207">
        <ele>26.1</ele>
        <time>2024-12-19T12:58:23Z</time>
      </trkpt>
      <trkpt lat="47.90529" lon="-2.47207">
        <ele>26.1</ele>
        <time>2024-12-19T12:58:24Z</time>
      </trkpt>
      <trkpt lat="47.90529" lon="-2.47207">
        <ele>26.1</ele>
        <time>2024-12-19T12:58:25Z</time>
      </trkpt>
      <trkpt lat="47.90529" lon="-2.47207">
        <ele>26.1</ele>
        <time>2024-12-19T12:58:26Z</time>
      </trkpt>
      <trkpt lat="47.90529" lon="-2.47207">
        <ele>26.1</ele>
        <time>2024-12-19T12:58:27Z</time>
      </trkpt>
      <trkpt lat="47.90529" lon="-2.47207">
        <ele>26.1</ele>
        <time>2024-12-19T12:58:28Z</time>
      </trkpt>
      <trkpt lat="47.90529" lon="-2.47207">
        <ele>26.1</ele>
        <time>2024-12-19T12:58:29Z</time>
      </trkpt>
      <trkpt lat="47.90529" lon="-2.47207">
        <ele>26.1</ele>
        <time>2024-12-19T12:58:30Z</time>
      </trkpt>
      <trkpt lat="47.90529" lon="-2.47207">
        <ele>26.1</ele>
        <time>2024-12-19T12:58:31Z</time>
      </trkpt>
      <trkpt lat="47.90529" lon="-2.47207">
        <ele>26.1</ele>
        <time>2024-12-19T12:58:32Z</time>
      </trkpt>
      <trkpt lat="47.90529" lon="-2.47207">
        <ele>26.1</ele>
        <time>2024-12-19T12:58:33Z</time>
      </trkpt>
      <trkpt lat="47.90529" lon="-2.47207">
        <ele>26.1</ele>
        <time>2024-12-19T12:58:34Z</time>
      </trkpt>
      <trkpt lat="47.90529" lon="-2.47207">
        <ele>26.1</ele>
        <time>2024-12-19T12:58:35Z</time>
      </trkpt>
      <trkpt lat="47.90529" lon="-2.47207">
        <ele>26.1</ele>
        <time>2024-12-19T12:58:36Z</time>
      </trkpt>
      <trkpt lat="47.9053" lon="-2.47207">
        <ele>26.1</ele>
        <time>2024-12-19T12:58:37Z</time>
      </trkpt>
      <trkpt lat="47.90531" lon="-2.47208">
        <ele>26.2</ele>
        <time>2024-12-19T12:58:38Z</time>
      </trkpt>
      <trkpt lat="47.90532" lon="-2.47209">
        <ele>26.2</ele>
        <time>2024-12-19T12:58:39Z</time>
      </trkpt>
      <trkpt lat="47.90533" lon="-2.4721">
        <ele>26.3</ele>
        <time>2024-12-19T12:58:40Z</time>
      </trkpt>
      <trkpt lat="47.90534" lon="-2.47211">
        <ele>26.3</ele>
        <time>2024-12-19T12:58:41Z</time>
      </trkpt>
      <trkpt lat="47.90534" lon="-2.47212">
        <ele>26.3</ele>
        <time>2024-12-19T12:58:42Z</time>
      </trkpt>
      <trkpt lat="47.90534" lon="-2.47213">
        <ele>26.3</ele>
        <time>2024-12-19T12:58:43Z</time>
      </trkpt>
      <trkpt lat="47.90534" lon="-2.47214">
        <ele>26.3</ele>
        <time>2024-12-19T12:58:44Z</time>
      </trkpt>
      <trkpt lat="47.90533" lon="-2.47214">
        <ele>26.3</ele>
        <time>2024-12-19T12:58:45Z</time>
      </trkpt>
      <trkpt lat="47.90533" lon="-2.47213">
        <ele>26.3</ele>
        <time>2024-12-19T12:58:46Z</time>
      </trkpt>
      <trkpt lat="47.90533" lon="-2.47211">
        <ele>26.2</ele>
        <time>2024-12-19T12:58:47Z</time>
      </trkpt>
      <trkpt lat="47.90532" lon="-2.47209">
        <ele>26.2</ele>
        <time>2024-12-19T12:58:48Z</time>
      </trkpt>
      <trkpt lat="47.90532" lon="-2.47209">
        <ele>26.2</ele>
        <time>2024-12-19T12:58:49Z</time>
      </trkpt>
      <trkpt lat="47.90533" lon="-2.47208">
        <ele>26.3</ele>
        <time>2024-12-19T12:58:50Z</time>
      </trkpt>
      <trkpt lat="47.90533" lon="-2.47208">
        <ele>26.3</ele>
        <time>2024-12-19T12:58:51Z</time>
      </trkpt>
      <trkpt lat="47.90533" lon="-2.47208">
        <ele>26.3</ele>
        <time>2024-12-19T12:58:52Z</time>
      </trkpt>
      <trkpt lat="47.90533" lon="-2.47208">
        <ele>26.3</ele>
        <time>2024-12-19T12:58:53Z</time>
      </trkpt>
      <trkpt lat="47.90533" lon="-2.47208">
        <ele>26.3</ele>
        <time>2024-12-19T12:58:54Z</time>
      </trkpt>
      <trkpt lat="47.90533" lon="-2.47208">
        <ele>26.3</ele>
        <time>2024-12-19T12:58:55Z</time>
      </trkpt>
      <trkpt lat="47.90533" lon="-2.47208">
        <ele>26.3</ele>
        <time>2024-12-19T12:58:56Z</time>
      </trkpt>
      <trkpt lat="47.90534" lon="-2.47208">
        <ele>26.3</ele>
        <time>2024-12-19T12:58:57Z</time>
      </trkpt>
      <trkpt lat="47.90534" lon="-2.47208">
        <ele>26.3</ele>
        <time>2024-12-19T12:58:58Z</time>
      </trkpt>
      <trkpt lat="47.90534" lon="-2.47208">
        <ele>26.3</ele>
        <time>2024-12-19T12:58:59Z</time>
      </trkpt>
      <trkpt lat="47.90534" lon="-2.47208">
        <ele>26.3</ele>
        <time>2024-12-19T12:59:00Z</time>
      </trkpt>
      <trkpt lat="47.90534" lon="-2.47208">
        <ele>26.3</ele>
        <time>2024-12-19T12:59:01Z</time>
      </trkpt>
      <trkpt lat="47.90534" lon="-2.47208">
        <ele>26.4</ele>
        <time>2024-12-19T12:59:02Z</time>
      </trkpt>
      <trkpt lat="47.90534" lon="-2.47208">
        <ele>26.4</ele>
        <time>2024-12-19T12:59:03Z</time>
      </trkpt>
      <trkpt lat="47.90535" lon="-2.47208">
        <ele>26.4</ele>
        <time>2024-12-19T12:59:04Z</time>
      </trkpt>
      <trkpt lat="47.90536" lon="-2.47208">
        <ele>26.4</ele>
        <time>2024-12-19T12:59:05Z</time>
      </trkpt>
      <trkpt lat="47.90536" lon="-2.47208">
        <ele>26.4</ele>
        <time>2024-12-19T12:59:06Z</time>
      </trkpt>
      <trkpt lat="47.90535" lon="-2.47208">
        <ele>26.4</ele>
        <time>2024-12-19T12:59:07Z</time>
      </trkpt>
      <trkpt lat="47.90535" lon="-2.47208">
        <ele>26.4</ele>
        <time>2024-12-19T12:59:08Z</time>
      </trkpt>
      <trkpt lat="47.90534" lon="-2.47208">
        <ele>26.3</ele>
        <time>2024-12-19T12:59:09Z</time>
      </trkpt>
      <trkpt lat="47.90534" lon="-2.47208">
        <ele>26.3</ele>
        <time>2024-12-19T12:59:10Z</time>
      </trkpt>
      <trkpt lat="47.90533" lon="-2.47207">
        <ele>26.3</ele>
        <time>2024-12-19T12:59:11Z</time>
      </trkpt>
      <trkpt lat="47.90533" lon="-2.47207">
        <ele>26.3</ele>
        <time>2024-12-19T12:59:12Z</time>
      </trkpt>
      <trkpt lat="47.90533" lon="-2.47208">
        <ele>26.3</ele>
        <time>2024-12-19T12:59:13Z</time>
      </trkpt>
      <trkpt lat="47.90533" lon="-2.47208">
        <ele>26.3</ele>
        <time>2024-12-19T12:59:14Z</time>
      </trkpt>
      <trkpt lat="47.90533" lon="-2.47209">
        <ele>26.3</ele>
        <time>2024-12-19T12:59:15Z</time>
      </trkpt>
      <trkpt lat="47.90533" lon="-2.47209">
        <ele>26.3</ele>
        <time>2024-12-19T12:59:16Z</time>
      </trkpt>
      <trkpt lat="47.90533" lon="-2.4721">
        <ele>26.3</ele>
        <time>2024-12-19T12:59:17Z</time>
      </trkpt>
      <trkpt lat="47.90533" lon="-2.47211">
        <ele>26.2</ele>
        <time>2024-12-19T12:59:18Z</time>
      </trkpt>
      <trkpt lat="47.90532" lon="-2.47212">
        <ele>26.2</ele>
        <time>2024-12-19T12:59:19Z</time>
      </trkpt>
      <trkpt lat="47.90532" lon="-2.47214">
        <ele>26.2</ele>
        <time>2024-12-19T12:59:20Z</time>
      </trkpt>
      <trkpt lat="47.90532" lon="-2.47215">
        <ele>26.2</ele>
        <time>2024-12-19T12:59:21Z</time>
      </trkpt>
      <trkpt lat="47.90533" lon="-2.47217">
        <ele>26.2</ele>
        <time>2024-12-19T12:59:22Z</time>
      </trkpt>
      <trkpt lat="47.90533" lon="-2.47218">
        <ele>26.2</ele>
        <time>2024-12-19T12:59:23Z</time>
      </trkpt>
      <trkpt lat="47.90534" lon="-2.47219">
        <ele>26.3</ele>
        <time>2024-12-19T12:59:24Z</time>
      </trkpt>
      <trkpt lat="47.90535" lon="-2.4722">
        <ele>26.3</ele>
        <time>2024-12-19T12:59:25Z</time>
      </trkpt>
      <trkpt lat="47.90536" lon="-2.47221">
        <ele>26.3</ele>
        <time>2024-12-19T12:59:26Z</time>
      </trkpt>
      <trkpt lat="47.90537" lon="-2.47221">
        <ele>26.3</ele>
        <time>2024-12-19T12:59:27Z</time>
      </trkpt>
      <trkpt lat="47.90537" lon="-2.47223">
        <ele>26.3</ele>
        <time>2024-12-19T12:59:28Z</time>
      </trkpt>
      <trkpt lat="47.90537" lon="-2.47224">
        <ele>26.3</ele>
        <time>2024-12-19T12:59:29Z</time>
      </trkpt>
      <trkpt lat="47.90537" lon="-2.47224">
        <ele>26.3</ele>
        <time>2024-12-19T12:59:30Z</time>
      </trkpt>
      <trkpt lat="47.90537" lon="-2.47224">
        <ele>26.3</ele>
        <time>2024-12-19T12:59:31Z</time>
      </trkpt>
      <trkpt lat="47.90537" lon="-2.47224">
        <ele>26.3</ele>
        <time>2024-12-19T12:59:32Z</time>
      </trkpt>
      <trkpt lat="47.90537" lon="-2.47225">
        <ele>26.3</ele>
        <time>2024-12-19T12:59:33Z</time>
      </trkpt>
      <trkpt lat="47.90537" lon="-2.47225">
        <ele>26.3</ele>
        <time>2024-12-19T12:59:34Z</time>
      </trkpt>
      <trkpt lat="47.90537" lon="-2.47225">
        <ele>26.3</ele>
        <time>2024-12-19T12:59:35Z</time>
      </trkpt>
      <trkpt lat="47.90537" lon="-2.47225">
        <ele>26.2</ele>
        <time>2024-12-19T12:59:36Z</time>
      </trkpt>
      <trkpt lat="47.90537" lon="-2.47225">
        <ele>26.2</ele>
        <time>2024-12-19T12:59:37Z</time>
      </trkpt>
      <trkpt lat="47.90536" lon="-2.47225">
        <ele>26.2</ele>
        <time>2024-12-19T12:59:38Z</time>
      </trkpt>
      <trkpt lat="47.90536" lon="-2.47225">
        <ele>26.2</ele>
        <time>2024-12-19T12:59:39Z</time>
      </trkpt>
      <trkpt lat="47.90536" lon="-2.47225">
        <ele>26.2</ele>
        <time>2024-12-19T12:59:40Z</time>
      </trkpt>
      <trkpt lat="47.90536" lon="-2.47225">
        <ele>26.2</ele>
        <time>2024-12-19T12:59:41Z</time>
      </trkpt>
      <trkpt lat="47.90536" lon="-2.47225">
        <ele>26.2</ele>
        <time>2024-12-19T12:59:42Z</time>
      </trkpt>
      <trkpt lat="47.90536" lon="-2.47225">
        <ele>26.2</ele>
        <time>2024-12-19T12:59:43Z</time>
      </trkpt>
      <trkpt lat="47.90536" lon="-2.47225">
        <ele>26.2</ele>
        <time>2024-12-19T12:59:44Z</time>
      </trkpt>
      <trkpt lat="47.90536" lon="-2.47225">
        <ele>26.2</ele>
        <time>2024-12-19T12:59:45Z</time>
      </trkpt>
      <trkpt lat="47.90536" lon="-2.47225">
        <ele>26.2</ele>
        <time>2024-12-19T12:59:46Z</time>
      </trkpt>
      <trkpt lat="47.90536" lon="-2.47225">
        <ele>26.2</ele>
        <time>2024-12-19T12:59:47Z</time>
      </trkpt>
      <trkpt lat="47.90536" lon="-2.47225">
        <ele>26.2</ele>
        <time>2024-12-19T12:59:48Z</time>
      </trkpt>
      <trkpt lat="47.90536" lon="-2.47225">
        <ele>26.2</ele>
        <time>2024-12-19T12:59:49Z</time>
      </trkpt>
      <trkpt lat="47.90536" lon="-2.47225">
        <ele>26.2</ele>
        <time>2024-12-19T12:59:50Z</time>
      </trkpt>
      <trkpt lat="47.90536" lon="-2.47225">
        <ele>26.2</ele>
        <time>2024-12-19T12:59:51Z</time>
      </trkpt>
      <trkpt lat="47.90536" lon="-2.47225">
        <ele>26.2</ele>
        <time>2024-12-19T12:59:52Z</time>
      </trkpt>
      <trkpt lat="47.90536" lon="-2.47225">
        <ele>26.2</ele>
        <time>2024-12-19T12:59:53Z</time>
      </trkpt>
      <trkpt lat="47.90536" lon="-2.47225">
        <ele>26.2</ele>
        <time>2024-12-19T12:59:54Z</time>
      </trkpt>
      <trkpt lat="47.90536" lon="-2.47225">
        <ele>26.2</ele>
        <time>2024-12-19T12:59:55Z</time>
      </trkpt>
      <trkpt lat="47.90536" lon="-2.47225">
        <ele>26.2</ele>
        <time>2024-12-19T12:59:56Z</time>
      </trkpt>
      <trkpt lat="47.90536" lon="-2.47225">
        <ele>26.2</ele>
        <time>2024-12-19T12:59:57Z</time>
      </trkpt>
      <trkpt lat="47.90536" lon="-2.47225">
        <ele>26.2</ele>
        <time>2024-12-19T12:59:58Z</time>
      </trkpt>
      <trkpt lat="47.90536" lon="-2.47225">
        <ele>26.2</ele>
        <time>2024-12-19T12:59:59Z</time>
      </trkpt>
      <trkpt lat="47.90536" lon="-2.47225">
        <ele>26.2</ele>
        <time>2024-12-19T13:00:00Z</time>
      </trkpt>
      <trkpt lat="47.90536" lon="-2.47225">
        <ele>26.2</ele>
        <time>2024-12-19T13:00:01Z</time>
      </trkpt>
      <trkpt lat="47.90536" lon="-2.47225">
        <ele>26.2</ele>
        <time>2024-12-19T13:00:02Z</time>
      </trkpt>
      <trkpt lat="47.90536" lon="-2.47225">
        <ele>26.2</ele>
        <time>2024-12-19T13:00:03Z</time>
      </trkpt>
      <trkpt lat="47.90536" lon="-2.47225">
        <ele>26.2</ele>
        <time>2024-12-19T13:00:04Z</time>
      </trkpt>
      <trkpt lat="47.90536" lon="-2.47225">
        <ele>26.2</ele>
        <time>2024-12-19T13:00:05Z</time>
      </trkpt>
      <trkpt lat="47.90536" lon="-2.47225">
        <ele>26.2</ele>
        <time>2024-12-19T13:00:06Z</time>
      </trkpt>
      <trkpt lat="47.90536" lon="-2.47225">
        <ele>26.2</ele>
        <time>2024-12-19T13:00:07Z</time>
      </trkpt>
      <trkpt lat="47.90536" lon="-2.47225">
        <ele>26.2</ele>
        <time>2024-12-19T13:00:08Z</time>
      </trkpt>
      <trkpt lat="47.90536" lon="-2.47225">
        <ele>26.2</ele>
        <time>2024-12-19T13:00:09Z</time>
      </trkpt>
      <trkpt lat="47.90536" lon="-2.47225">
        <ele>26.2</ele>
        <time>2024-12-19T13:00:10Z</time>
      </trkpt>
      <trkpt lat="47.90536" lon="-2.47225">
        <ele>26.2</ele>
        <time>2024-12-19T13:00:11Z</time>
      </trkpt>
      <trkpt lat="47.90536" lon="-2.47225">
        <ele>26.2</ele>
        <time>2024-12-19T13:00:12Z</time>
      </trkpt>
      <trkpt lat="47.90536" lon="-2.47225">
        <ele>26.2</ele>
        <time>2024-12-19T13:00:13Z</time>
      </trkpt>
      <trkpt lat="47.90536" lon="-2.47225">
        <ele>26.2</ele>
        <time>2024-12-19T13:00:14Z</time>
      </trkpt>
      <trkpt lat="47.90536" lon="-2.47225">
        <ele>26.2</ele>
        <time>2024-12-19T13:00:15Z</time>
      </trkpt>
      <trkpt lat="47.90536" lon="-2.47225">
        <ele>26.2</ele>
        <time>2024-12-19T13:00:16Z</time>
      </trkpt>
      <trkpt lat="47.90536" lon="-2.47225">
        <ele>26.2</ele>
        <time>2024-12-19T13:00:17Z</time>
      </trkpt>
      <trkpt lat="47.90536" lon="-2.47225">
        <ele>26.2</ele>
        <time>2024-12-19T13:00:18Z</time>
      </trkpt>
      <trkpt lat="47.90536" lon="-2.47225">
        <ele>26.2</ele>
        <time>2024-12-19T13:00:19Z</time>
      </trkpt>
      <trkpt lat="47.90536" lon="-2.47225">
        <ele>26.2</ele>
        <time>2024-12-19T13:00:20Z</time>
      </trkpt>
      <trkpt lat="47.90536" lon="-2.47225">
        <ele>26.2</ele>
        <time>2024-12-19T13:00:21Z</time>
      </trkpt>
      <trkpt lat="47.90536" lon="-2.47225">
        <ele>26.2</ele>
        <time>2024-12-19T13:00:22Z</time>
      </trkpt>
      <trkpt lat="47.90536" lon="-2.47225">
        <ele>26.2</ele>
        <time>2024-12-19T13:00:23Z</time>
      </trkpt>
      <trkpt lat="47.90536" lon="-2.47225">
        <ele>26.2</ele>
        <time>2024-12-19T13:00:24Z</time>
      </trkpt>
      <trkpt lat="47.90536" lon="-2.47225">
        <ele>26.2</ele>
        <time>2024-12-19T13:00:25Z</time>
      </trkpt>
      <trkpt lat="47.90536" lon="-2.47225">
        <ele>26.2</ele>
        <time>2024-12-19T13:00:26Z</time>
      </trkpt>
      <trkpt lat="47.90536" lon="-2.47225">
        <ele>26.2</ele>
        <time>2024-12-19T13:00:27Z</time>
      </trkpt>
      <trkpt lat="47.90536" lon="-2.47225">
        <ele>26.2</ele>
        <time>2024-12-19T13:00:28Z</time>
      </trkpt>
      <trkpt lat="47.90536" lon="-2.47225">
        <ele>26.2</ele>
        <time>2024-12-19T13:00:29Z</time>
      </trkpt>
      <trkpt lat="47.90536" lon="-2.47225">
        <ele>26.2</ele>
        <time>2024-12-19T13:00:30Z</time>
      </trkpt>
      <trkpt lat="47.90536" lon="-2.47225">
        <ele>26.2</ele>
        <time>2024-12-19T13:00:31Z</time>
      </trkpt>
      <trkpt lat="47.90536" lon="-2.47225">
        <ele>26.2</ele>
        <time>2024-12-19T13:00:32Z</time>
      </trkpt>
      <trkpt lat="47.90536" lon="-2.47225">
        <ele>26.2</ele>
        <time>2024-12-19T13:00:33Z</time>
      </trkpt>
      <trkpt lat="47.90536" lon="-2.47225">
        <ele>26.2</ele>
        <time>2024-12-19T13:00:34Z</time>
      </trkpt>
      <trkpt lat="47.90536" lon="-2.47225">
        <ele>26.2</ele>
        <time>2024-12-19T13:00:35Z</time>
      </trkpt>
      <trkpt lat="47.90536" lon="-2.47225">
        <ele>26.2</ele>
        <time>2024-12-19T13:00:36Z</time>
      </trkpt>
      <trkpt lat="47.90536" lon="-2.47225">
        <ele>26.2</ele>
        <time>2024-12-19T13:00:37Z</time>
      </trkpt>
      <trkpt lat="47.90536" lon="-2.47225">
        <ele>26.2</ele>
        <time>2024-12-19T13:00:38Z</time>
      </trkpt>
      <trkpt lat="47.90536" lon="-2.47225">
        <ele>26.2</ele>
        <time>2024-12-19T13:00:39Z</time>
      </trkpt>
      <trkpt lat="47.90536" lon="-2.47225">
        <ele>26.2</ele>
        <time>2024-12-19T13:00:40Z</time>
      </trkpt>
      <trkpt lat="47.90536" lon="-2.47225">
        <ele>26.2</ele>
        <time>2024-12-19T13:00:41Z</time>
      </trkpt>
      <trkpt lat="47.90536" lon="-2.47225">
        <ele>26.2</ele>
        <time>2024-12-19T13:00:42Z</time>
      </trkpt>
      <trkpt lat="47.90536" lon="-2.47225">
        <ele>26.2</ele>
        <time>2024-12-19T13:00:43Z</time>
      </trkpt>
      <trkpt lat="47.90536" lon="-2.47225">
        <ele>26.2</ele>
        <time>2024-12-19T13:00:44Z</time>
      </trkpt>
      <trkpt lat="47.90536" lon="-2.47225">
        <ele>26.2</ele>
        <time>2024-12-19T13:00:45Z</time>
      </trkpt>
      <trkpt lat="47.90536" lon="-2.47225">
        <ele>26.2</ele>
        <time>2024-12-19T13:00:46Z</time>
      </trkpt>
      <trkpt lat="47.90536" lon="-2.47225">
        <ele>26.2</ele>
        <time>2024-12-19T13:00:47Z</time>
      </trkpt>
      <trkpt lat="47.90536" lon="-2.47225">
        <ele>26.2</ele>
        <time>2024-12-19T13:00:48Z</time>
      </trkpt>
      <trkpt lat="47.90536" lon="-2.47225">
        <ele>26.2</ele>
        <time>2024-12-19T13:00:49Z</time>
      </trkpt>
      <trkpt lat="47.90536" lon="-2.47225">
        <ele>26.2</ele>
        <time>2024-12-19T13:00:50Z</time>
      </trkpt>
      <trkpt lat="47.90536" lon="-2.47225">
        <ele>26.2</ele>
        <time>2024-12-19T13:00:51Z</time>
      </trkpt>
      <trkpt lat="47.90536" lon="-2.47225">
        <ele>26.2</ele>
        <time>2024-12-19T13:00:52Z</time>
      </trkpt>
      <trkpt lat="47.90536" lon="-2.47225">
        <ele>26.2</ele>
        <time>2024-12-19T13:00:53Z</time>
      </trkpt>
      <trkpt lat="47.90536" lon="-2.47225">
        <ele>26.2</ele>
        <time>2024-12-19T13:00:54Z</time>
      </trkpt>
      <trkpt lat="47.90536" lon="-2.47225">
        <ele>26.2</ele>
        <time>2024-12-19T13:00:55Z</time>
      </trkpt>
      <trkpt lat="47.90536" lon="-2.47225">
        <ele>26.2</ele>
        <time>2024-12-19T13:00:56Z</time>
      </trkpt>
      <trkpt lat="47.90536" lon="-2.47225">
        <ele>26.2</ele>
        <time>2024-12-19T13:00:57Z</time>
      </trkpt>
      <trkpt lat="47.90536" lon="-2.47225">
        <ele>26.2</ele>
        <time>2024-12-19T13:00:58Z</time>
      </trkpt>
      <trkpt lat="47.90536" lon="-2.47225">
        <ele>26.2</ele>
        <time>2024-12-19T13:00:59Z</time>
      </trkpt>
      <trkpt lat="47.90536" lon="-2.47225">
        <ele>26.2</ele>
        <time>2024-12-19T13:01:00Z</time>
      </trkpt>
      <trkpt lat="47.90536" lon="-2.47225">
        <ele>26.2</ele>
        <time>2024-12-19T13:01:01Z</time>
      </trkpt>
      <trkpt lat="47.90536" lon="-2.47225">
        <ele>26.2</ele>
        <time>2024-12-19T13:01:02Z</time>
      </trkpt>
      <trkpt lat="47.90536" lon="-2.47225">
        <ele>26.2</ele>
        <time>2024-12-19T13:01:03Z</time>
      </trkpt>
      <trkpt lat="47.90536" lon="-2.47225">
        <ele>26.2</ele>
        <time>2024-12-19T13:01:04Z</time>
      </trkpt>
      <trkpt lat="47.90536" lon="-2.47225">
        <ele>26.2</ele>
        <time>2024-12-19T13:01:05Z</time>
      </trkpt>
      <trkpt lat="47.90536" lon="-2.47225">
        <ele>26.2</ele>
        <time>2024-12-19T13:01:06Z</time>
      </trkpt>
      <trkpt lat="47.90536" lon="-2.47225">
        <ele>26.2</ele>
        <time>2024-12-19T13:01:07Z</time>
      </trkpt>
      <trkpt lat="47.90536" lon="-2.47225">
        <ele>26.2</ele>
        <time>2024-12-19T13:01:08Z</time>
      </trkpt>
      <trkpt lat="47.90536" lon="-2.47225">
        <ele>26.2</ele>
        <time>2024-12-19T13:01:09Z</time>
      </trkpt>
      <trkpt lat="47.90536" lon="-2.47225">
        <ele>26.2</ele>
        <time>2024-12-19T13:01:10Z</time>
      </trkpt>
      <trkpt lat="47.90536" lon="-2.47225">
        <ele>26.2</ele>
        <time>2024-12-19T13:01:11Z</time>
      </trkpt>
      <trkpt lat="47.90536" lon="-2.47225">
        <ele>26.2</ele>
        <time>2024-12-19T13:01:12Z</time>
      </trkpt>
      <trkpt lat="47.90536" lon="-2.47225">
        <ele>26.2</ele>
        <time>2024-12-19T13:01:13Z</time>
      </trkpt>
      <trkpt lat="47.90536" lon="-2.47225">
        <ele>26.2</ele>
        <time>2024-12-19T13:01:14Z</time>
      </trkpt>
      <trkpt lat="47.90536" lon="-2.47225">
        <ele>26.2</ele>
        <time>2024-12-19T13:01:15Z</time>
      </trkpt>
      <trkpt lat="47.90536" lon="-2.47225">
        <ele>26.2</ele>
        <time>2024-12-19T13:01:16Z</time>
      </trkpt>
      <trkpt lat="47.90536" lon="-2.47225">
        <ele>26.2</ele>
        <time>2024-12-19T13:01:17Z</time>
      </trkpt>
      <trkpt lat="47.90536" lon="-2.47225">
        <ele>26.2</ele>
        <time>2024-12-19T13:01:18Z</time>
      </trkpt>
      <trkpt lat="47.90536" lon="-2.47225">
        <ele>26.2</ele>
        <time>2024-12-19T13:01:19Z</time>
      </trkpt>
      <trkpt lat="47.90536" lon="-2.47225">
        <ele>26.2</ele>
        <time>2024-12-19T13:01:20Z</time>
      </trkpt>
      <trkpt lat="47.90536" lon="-2.47225">
        <ele>26.2</ele>
        <time>2024-12-19T13:01:21Z</time>
      </trkpt>
      <trkpt lat="47.90536" lon="-2.47225">
        <ele>26.2</ele>
        <time>2024-12-19T13:01:22Z</time>
      </trkpt>
      <trkpt lat="47.90536" lon="-2.47225">
        <ele>26.2</ele>
        <time>2024-12-19T13:01:23Z</time>
      </trkpt>
      <trkpt lat="47.90536" lon="-2.47225">
        <ele>26.2</ele>
        <time>2024-12-19T13:01:24Z</time>
      </trkpt>
      <trkpt lat="47.90536" lon="-2.47225">
        <ele>26.2</ele>
        <time>2024-12-19T13:01:25Z</time>
      </trkpt>
      <trkpt lat="47.90536" lon="-2.47225">
        <ele>26.2</ele>
        <time>2024-12-19T13:01:26Z</time>
      </trkpt>
      <trkpt lat="47.90536" lon="-2.47225">
        <ele>26.2</ele>
        <time>2024-12-19T13:01:27Z</time>
      </trkpt>
      <trkpt lat="47.90536" lon="-2.47225">
        <ele>26.2</ele>
        <time>2024-12-19T13:01:28Z</time>
      </trkpt>
      <trkpt lat="47.90536" lon="-2.47225">
        <ele>26.2</ele>
        <time>2024-12-19T13:01:29Z</time>
      </trkpt>
      <trkpt lat="47.90536" lon="-2.47225">
        <ele>26.2</ele>
        <time>2024-12-19T13:01:30Z</time>
      </trkpt>
      <trkpt lat="47.90536" lon="-2.47225">
        <ele>26.2</ele>
        <time>2024-12-19T13:01:31Z</time>
      </trkpt>
      <trkpt lat="47.90536" lon="-2.47225">
        <ele>26.2</ele>
        <time>2024-12-19T13:01:32Z</time>
      </trkpt>
      <trkpt lat="47.90536" lon="-2.47225">
        <ele>26.2</ele>
        <time>2024-12-19T13:01:33Z</time>
      </trkpt>
      <trkpt lat="47.90536" lon="-2.47225">
        <ele>26.2</ele>
        <time>2024-12-19T13:01:34Z</time>
      </trkpt>
      <trkpt lat="47.90536" lon="-2.47225">
        <ele>26.2</ele>
        <time>2024-12-19T13:01:35Z</time>
      </trkpt>
      <trkpt lat="47.90536" lon="-2.47225">
        <ele>26.2</ele>
        <time>2024-12-19T13:01:36Z</time>
      </trkpt>
      <trkpt lat="47.90536" lon="-2.47225">
        <ele>26.2</ele>
        <time>2024-12-19T13:01:37Z</time>
      </trkpt>
      <trkpt lat="47.90536" lon="-2.47225">
        <ele>26.2</ele>
        <time>2024-12-19T13:01:38Z</time>
      </trkpt>
      <trkpt lat="47.90536" lon="-2.47225">
        <ele>26.2</ele>
        <time>2024-12-19T13:01:39Z</time>
      </trkpt>
      <trkpt lat="47.90536" lon="-2.47225">
        <ele>26.2</ele>
        <time>2024-12-19T13:01:40Z</time>
      </trkpt>
      <trkpt lat="47.90536" lon="-2.47225">
        <ele>26.2</ele>
        <time>2024-12-19T13:01:41Z</time>
      </trkpt>
      <trkpt lat="47.90536" lon="-2.47225">
        <ele>26.2</ele>
        <time>2024-12-19T13:01:42Z</time>
      </trkpt>
      <trkpt lat="47.90536" lon="-2.47225">
        <ele>26.2</ele>
        <time>2024-12-19T13:01:43Z</time>
      </trkpt>
      <trkpt lat="47.90536" lon="-2.47225">
        <ele>26.2</ele>
        <time>2024-12-19T13:01:44Z</time>
      </trkpt>
      <trkpt lat="47.90536" lon="-2.47225">
        <ele>26.2</ele>
        <time>2024-12-19T13:01:45Z</time>
      </trkpt>
      <trkpt lat="47.90536" lon="-2.47225">
        <ele>26.2</ele>
        <time>2024-12-19T13:01:46Z</time>
      </trkpt>
      <trkpt lat="47.90536" lon="-2.47225">
        <ele>26.2</ele>
        <time>2024-12-19T13:01:47Z</time>
      </trkpt>
      <trkpt lat="47.90536" lon="-2.47225">
        <ele>26.2</ele>
        <time>2024-12-19T13:01:48Z</time>
      </trkpt>
      <trkpt lat="47.90536" lon="-2.47225">
        <ele>26.2</ele>
        <time>2024-12-19T13:01:49Z</time>
      </trkpt>
      <trkpt lat="47.90536" lon="-2.47225">
        <ele>26.2</ele>
        <time>2024-12-19T13:01:50Z</time>
      </trkpt>
      <trkpt lat="47.90536" lon="-2.47225">
        <ele>26.2</ele>
        <time>2024-12-19T13:01:51Z</time>
      </trkpt>
      <trkpt lat="47.90536" lon="-2.47225">
        <ele>26.2</ele>
        <time>2024-12-19T13:01:52Z</time>
      </trkpt>
      <trkpt lat="47.90536" lon="-2.47225">
        <ele>26.2</ele>
        <time>2024-12-19T13:01:53Z</time>
      </trkpt>
      <trkpt lat="47.90536" lon="-2.47225">
        <ele>26.2</ele>
        <time>2024-12-19T13:01:54Z</time>
      </trkpt>
      <trkpt lat="47.90536" lon="-2.47225">
        <ele>26.2</ele>
        <time>2024-12-19T13:01:55Z</time>
      </trkpt>
      <trkpt lat="47.90536" lon="-2.47225">
        <ele>26.2</ele>
        <time>2024-12-19T13:01:56Z</time>
      </trkpt>
      <trkpt lat="47.90536" lon="-2.47225">
        <ele>26.2</ele>
        <time>2024-12-19T13:01:57Z</time>
      </trkpt>
      <trkpt lat="47.90536" lon="-2.47225">
        <ele>26.2</ele>
        <time>2024-12-19T13:01:58Z</time>
      </trkpt>
      <trkpt lat="47.90536" lon="-2.47225">
        <ele>26.2</ele>
        <time>2024-12-19T13:01:59Z</time>
      </trkpt>
      <trkpt lat="47.90536" lon="-2.47225">
        <ele>26.2</ele>
        <time>2024-12-19T13:02:00Z</time>
      </trkpt>
      <trkpt lat="47.90536" lon="-2.47225">
        <ele>26.2</ele>
        <time>2024-12-19T13:02:01Z</time>
      </trkpt>
      <trkpt lat="47.90536" lon="-2.47225">
        <ele>26.2</ele>
        <time>2024-12-19T13:02:02Z</time>
      </trkpt>
      <trkpt lat="47.90536" lon="-2.47225">
        <ele>26.2</ele>
        <time>2024-12-19T13:02:03Z</time>
      </trkpt>
      <trkpt lat="47.90536" lon="-2.47225">
        <ele>26.2</ele>
        <time>2024-12-19T13:02:04Z</time>
      </trkpt>
      <trkpt lat="47.90536" lon="-2.47225">
        <ele>26.2</ele>
        <time>2024-12-19T13:02:05Z</time>
      </trkpt>
      <trkpt lat="47.90536" lon="-2.47225">
        <ele>26.2</ele>
        <time>2024-12-19T13:02:06Z</time>
      </trkpt>
      <trkpt lat="47.90536" lon="-2.47225">
        <ele>26.2</ele>
        <time>2024-12-19T13:02:07Z</time>
      </trkpt>
      <trkpt lat="47.90536" lon="-2.47225">
        <ele>26.2</ele>
        <time>2024-12-19T13:02:08Z</time>
      </trkpt>
      <trkpt lat="47.90536" lon="-2.47225">
        <ele>26.2</ele>
        <time>2024-12-19T13:02:09Z</time>
      </trkpt>
      <trkpt lat="47.90536" lon="-2.47225">
        <ele>26.2</ele>
        <time>2024-12-19T13:02:10Z</time>
      </trkpt>
      <trkpt lat="47.90536" lon="-2.47225">
        <ele>26.2</ele>
        <time>2024-12-19T13:02:11Z</time>
      </trkpt>
      <trkpt lat="47.90536" lon="-2.47225">
        <ele>26.2</ele>
        <time>2024-12-19T13:02:12Z</time>
      </trkpt>
      <trkpt lat="47.90536" lon="-2.47225">
        <ele>26.2</ele>
        <time>2024-12-19T13:02:13Z</time>
      </trkpt>
      <trkpt lat="47.90536" lon="-2.47225">
        <ele>26.2</ele>
        <time>2024-12-19T13:02:14Z</time>
      </trkpt>
      <trkpt lat="47.90536" lon="-2.47225">
        <ele>26.2</ele>
        <time>2024-12-19T13:02:15Z</time>
      </trkpt>
      <trkpt lat="47.90536" lon="-2.47225">
        <ele>26.2</ele>
        <time>2024-12-19T13:02:16Z</time>
      </trkpt>
      <trkpt lat="47.90536" lon="-2.47225">
        <ele>26.2</ele>
        <time>2024-12-19T13:02:17Z</time>
      </trkpt>
      <trkpt lat="47.90536" lon="-2.47225">
        <ele>26.2</ele>
        <time>2024-12-19T13:02:18Z</time>
      </trkpt>
      <trkpt lat="47.90536" lon="-2.47225">
        <ele>26.2</ele>
        <time>2024-12-19T13:02:19Z</time>
      </trkpt>
      <trkpt lat="47.90536" lon="-2.47225">
        <ele>26.2</ele>
        <time>2024-12-19T13:02:20Z</time>
      </trkpt>
      <trkpt lat="47.90536" lon="-2.47225">
        <ele>26.2</ele>
        <time>2024-12-19T13:02:21Z</time>
      </trkpt>
      <trkpt lat="47.90536" lon="-2.47225">
        <ele>26.2</ele>
        <time>2024-12-19T13:02:22Z</time>
      </trkpt>
      <trkpt lat="47.90536" lon="-2.47225">
        <ele>26.2</ele>
        <time>2024-12-19T13:02:23Z</time>
      </trkpt>
      <trkpt lat="47.90536" lon="-2.47225">
        <ele>26.2</ele>
        <time>2024-12-19T13:02:24Z</time>
      </trkpt>
      <trkpt lat="47.90536" lon="-2.47225">
        <ele>26.2</ele>
        <time>2024-12-19T13:02:25Z</time>
      </trkpt>
      <trkpt lat="47.90536" lon="-2.47225">
        <ele>26.2</ele>
        <time>2024-12-19T13:02:26Z</time>
      </trkpt>
      <trkpt lat="47.90536" lon="-2.47225">
        <ele>26.2</ele>
        <time>2024-12-19T13:02:27Z</time>
      </trkpt>
      <trkpt lat="47.90536" lon="-2.47225">
        <ele>26.2</ele>
        <time>2024-12-19T13:02:28Z</time>
      </trkpt>
      <trkpt lat="47.90536" lon="-2.47225">
        <ele>26.2</ele>
        <time>2024-12-19T13:02:29Z</time>
      </trkpt>
      <trkpt lat="47.90536" lon="-2.47225">
        <ele>26.2</ele>
        <time>2024-12-19T13:02:30Z</time>
      </trkpt>
      <trkpt lat="47.90536" lon="-2.47225">
        <ele>26.2</ele>
        <time>2024-12-19T13:02:31Z</time>
      </trkpt>
      <trkpt lat="47.90536" lon="-2.47225">
        <ele>26.2</ele>
        <time>2024-12-19T13:02:32Z</time>
      </trkpt>
      <trkpt lat="47.90536" lon="-2.47225">
        <ele>26.2</ele>
        <time>2024-12-19T13:02:33Z</time>
      </trkpt>
      <trkpt lat="47.90536" lon="-2.47225">
        <ele>26.2</ele>
        <time>2024-12-19T13:02:34Z</time>
      </trkpt>
      <trkpt lat="47.90536" lon="-2.47225">
        <ele>26.2</ele>
        <time>2024-12-19T13:02:35Z</time>
      </trkpt>
      <trkpt lat="47.90536" lon="-2.47225">
        <ele>26.2</ele>
        <time>2024-12-19T13:02:36Z</time>
      </trkpt>
      <trkpt lat="47.90536" lon="-2.47225">
        <ele>26.2</ele>
        <time>2024-12-19T13:02:37Z</time>
      </trkpt>
      <trkpt lat="47.90536" lon="-2.47225">
        <ele>26.2</ele>
        <time>2024-12-19T13:02:38Z</time>
      </trkpt>
      <trkpt lat="47.90536" lon="-2.47225">
        <ele>26.2</ele>
        <time>2024-12-19T13:02:39Z</time>
      </trkpt>
      <trkpt lat="47.90536" lon="-2.47225">
        <ele>26.2</ele>
        <time>2024-12-19T13:02:40Z</time>
      </trkpt>
      <trkpt lat="47.90536" lon="-2.47225">
        <ele>26.2</ele>
        <time>2024-12-19T13:02:41Z</time>
      </trkpt>
      <trkpt lat="47.90536" lon="-2.47225">
        <ele>26.2</ele>
        <time>2024-12-19T13:02:42Z</time>
      </trkpt>
      <trkpt lat="47.90536" lon="-2.47225">
        <ele>26.2</ele>
        <time>2024-12-19T13:02:43Z</time>
      </trkpt>
      <trkpt lat="47.90536" lon="-2.47225">
        <ele>26.2</ele>
        <time>2024-12-19T13:02:44Z</time>
      </trkpt>
      <trkpt lat="47.90536" lon="-2.47225">
        <ele>26.2</ele>
        <time>2024-12-19T13:02:45Z</time>
      </trkpt>
      <trkpt lat="47.90536" lon="-2.47225">
        <ele>26.2</ele>
        <time>2024-12-19T13:02:46Z</time>
      </trkpt>
      <trkpt lat="47.90536" lon="-2.47225">
        <ele>26.2</ele>
        <time>2024-12-19T13:02:47Z</time>
      </trkpt>
      <trkpt lat="47.90536" lon="-2.47225">
        <ele>26.2</ele>
        <time>2024-12-19T13:02:48Z</time>
      </trkpt>
      <trkpt lat="47.90536" lon="-2.47225">
        <ele>26.2</ele>
        <time>2024-12-19T13:02:49Z</time>
      </trkpt>
      <trkpt lat="47.90536" lon="-2.47225">
        <ele>26.2</ele>
        <time>2024-12-19T13:02:50Z</time>
      </trkpt>
      <trkpt lat="47.90536" lon="-2.47225">
        <ele>26.2</ele>
        <time>2024-12-19T13:02:51Z</time>
      </trkpt>
      <trkpt lat="47.90536" lon="-2.47225">
        <ele>26.2</ele>
        <time>2024-12-19T13:02:52Z</time>
      </trkpt>
      <trkpt lat="47.90536" lon="-2.47225">
        <ele>26.2</ele>
        <time>2024-12-19T13:02:53Z</time>
      </trkpt>
      <trkpt lat="47.90536" lon="-2.47225">
        <ele>26.2</ele>
        <time>2024-12-19T13:02:54Z</time>
      </trkpt>
      <trkpt lat="47.90536" lon="-2.47225">
        <ele>26.2</ele>
        <time>2024-12-19T13:02:55Z</time>
      </trkpt>
      <trkpt lat="47.90536" lon="-2.47225">
        <ele>26.2</ele>
        <time>2024-12-19T13:02:56Z</time>
      </trkpt>
      <trkpt lat="47.90536" lon="-2.47225">
        <ele>26.2</ele>
        <time>2024-12-19T13:02:57Z</time>
      </trkpt>
      <trkpt lat="47.90536" lon="-2.47225">
        <ele>26.2</ele>
        <time>2024-12-19T13:02:58Z</time>
      </trkpt>
      <trkpt lat="47.90536" lon="-2.47225">
        <ele>26.2</ele>
        <time>2024-12-19T13:02:59Z</time>
      </trkpt>
      <trkpt lat="47.90536" lon="-2.47225">
        <ele>26.2</ele>
        <time>2024-12-19T13:03:00Z</time>
      </trkpt>
      <trkpt lat="47.90536" lon="-2.47225">
        <ele>26.2</ele>
        <time>2024-12-19T13:03:01Z</time>
      </trkpt>
      <trkpt lat="47.90536" lon="-2.47225">
        <ele>26.2</ele>
        <time>2024-12-19T13:03:02Z</time>
      </trkpt>
      <trkpt lat="47.90536" lon="-2.47225">
        <ele>26.2</ele>
        <time>2024-12-19T13:03:03Z</time>
      </trkpt>
      <trkpt lat="47.90536" lon="-2.47225">
        <ele>26.2</ele>
        <time>2024-12-19T13:03:04Z</time>
      </trkpt>
      <trkpt lat="47.90536" lon="-2.47225">
        <ele>26.2</ele>
        <time>2024-12-19T13:03:05Z</time>
      </trkpt>
      <trkpt lat="47.90536" lon="-2.47225">
        <ele>26.2</ele>
        <time>2024-12-19T13:03:06Z</time>
      </trkpt>
      <trkpt lat="47.90536" lon="-2.47225">
        <ele>26.2</ele>
        <time>2024-12-19T13:03:07Z</time>
      </trkpt>
      <trkpt lat="47.90536" lon="-2.47225">
        <ele>26.2</ele>
        <time>2024-12-19T13:03:08Z</time>
      </trkpt>
      <trkpt lat="47.90536" lon="-2.47225">
        <ele>26.2</ele>
        <time>2024-12-19T13:03:09Z</time>
      </trkpt>
      <trkpt lat="47.90536" lon="-2.47225">
        <ele>26.2</ele>
        <time>2024-12-19T13:03:10Z</time>
      </trkpt>
      <trkpt lat="47.90536" lon="-2.47225">
        <ele>26.2</ele>
        <time>2024-12-19T13:03:11Z</time>
      </trkpt>
      <trkpt lat="47.90536" lon="-2.47225">
        <ele>26.2</ele>
        <time>2024-12-19T13:03:12Z</time>
      </trkpt>
      <trkpt lat="47.90536" lon="-2.47225">
        <ele>26.2</ele>
        <time>2024-12-19T13:03:13Z</time>
      </trkpt>
      <trkpt lat="47.90536" lon="-2.47225">
        <ele>26.2</ele>
        <time>2024-12-19T13:03:14Z</time>
      </trkpt>
      <trkpt lat="47.90536" lon="-2.47225">
        <ele>26.2</ele>
        <time>2024-12-19T13:03:15Z</time>
      </trkpt>
      <trkpt lat="47.90536" lon="-2.47225">
        <ele>26.2</ele>
        <time>2024-12-19T13:03:16Z</time>
      </trkpt>
      <trkpt lat="47.90536" lon="-2.47225">
        <ele>26.2</ele>
        <time>2024-12-19T13:03:17Z</time>
      </trkpt>
      <trkpt lat="47.90536" lon="-2.47225">
        <ele>26.2</ele>
        <time>2024-12-19T13:03:18Z</time>
      </trkpt>
      <trkpt lat="47.90536" lon="-2.47225">
        <ele>26.2</ele>
        <time>2024-12-19T13:03:19Z</time>
      </trkpt>
      <trkpt lat="47.90536" lon="-2.47225">
        <ele>26.2</ele>
        <time>2024-12-19T13:03:20Z</time>
      </trkpt>
      <trkpt lat="47.90536" lon="-2.47226">
        <ele>26.2</ele>
        <time>2024-12-19T13:03:21Z</time>
      </trkpt>
      <trkpt lat="47.90536" lon="-2.47227">
        <ele>26.2</ele>
        <time>2024-12-19T13:03:22Z</time>
      </trkpt>
      <trkpt lat="47.90536" lon="-2.47227">
        <ele>26.2</ele>
        <time>2024-12-19T13:03:23Z</time>
      </trkpt>
      <trkpt lat="47.90535" lon="-2.47227">
        <ele>26.1</ele>
        <time>2024-12-19T13:03:24Z</time>
      </trkpt>
      <trkpt lat="47.90535" lon="-2.47226">
        <ele>26.2</ele>
        <time>2024-12-19T13:03:25Z</time>
      </trkpt>
      <trkpt lat="47.90535" lon="-2.47226">
        <ele>26.2</ele>
        <time>2024-12-19T13:03:26Z</time>
      </trkpt>
      <trkpt lat="47.90535" lon="-2.47225">
        <ele>26.2</ele>
        <time>2024-12-19T13:03:27Z</time>
      </trkpt>
      <trkpt lat="47.90536" lon="-2.47225">
        <ele>26.2</ele>
        <time>2024-12-19T13:03:28Z</time>
      </trkpt>
      <trkpt lat="47.90536" lon="-2.47225">
        <ele>26.2</ele>
        <time>2024-12-19T13:03:29Z</time>
      </trkpt>
      <trkpt lat="47.90536" lon="-2.47225">
        <ele>26.2</ele>
        <time>2024-12-19T13:03:30Z</time>
      </trkpt>
      <trkpt lat="47.90536" lon="-2.47225">
        <ele>26.2</ele>
        <time>2024-12-19T13:03:31Z</time>
      </trkpt>
      <trkpt lat="47.90536" lon="-2.47225">
        <ele>26.2</ele>
        <time>2024-12-19T13:03:32Z</time>
      </trkpt>
      <trkpt lat="47.90537" lon="-2.47225">
        <ele>26.3</ele>
        <time>2024-12-19T13:03:33Z</time>
      </trkpt>
      <trkpt lat="47.90538" lon="-2.47224">
        <ele>26.3</ele>
        <time>2024-12-19T13:03:34Z</time>
      </trkpt>
      <trkpt lat="47.90539" lon="-2.47222">
        <ele>26.4</ele>
        <time>2024-12-19T13:03:35Z</time>
      </trkpt>
      <trkpt lat="47.9054" lon="-2.47221">
        <ele>26.4</ele>
        <time>2024-12-19T13:03:36Z</time>
      </trkpt>
      <trkpt lat="47.90541" lon="-2.47221">
        <ele>26.5</ele>
        <time>2024-12-19T13:03:37Z</time>
      </trkpt>
      <trkpt lat="47.90542" lon="-2.4722">
        <ele>26.5</ele>
        <time>2024-12-19T13:03:38Z</time>
      </trkpt>
      <trkpt lat="47.90543" lon="-2.4722">
        <ele>26.6</ele>
        <time>2024-12-19T13:03:39Z</time>
      </trkpt>
      <trkpt lat="47.90543" lon="-2.47221">
        <ele>26.6</ele>
        <time>2024-12-19T13:03:40Z</time>
      </trkpt>
      <trkpt lat="47.90543" lon="-2.4722">
        <ele>26.6</ele>
        <time>2024-12-19T13:03:41Z</time>
      </trkpt>
      <trkpt lat="47.90544" lon="-2.4722">
        <ele>26.6</ele>
        <time>2024-12-19T13:03:42Z</time>
      </trkpt>
      <trkpt lat="47.90545" lon="-2.47219">
        <ele>26.7</ele>
        <time>2024-12-19T13:03:43Z</time>
      </trkpt>
      <trkpt lat="47.90546" lon="-2.47218">
        <ele>26.8</ele>
        <time>2024-12-19T13:03:44Z</time>
      </trkpt>
      <trkpt lat="47.90547" lon="-2.47217">
        <ele>26.8</ele>
        <time>2024-12-19T13:03:45Z</time>
      </trkpt>
      <trkpt lat="47.90549" lon="-2.47217">
        <ele>26.9</ele>
        <time>2024-12-19T13:03:46Z</time>
      </trkpt>
      <trkpt lat="47.90549" lon="-2.47217">
        <ele>26.9</ele>
        <time>2024-12-19T13:03:47Z</time>
      </trkpt>
      <trkpt lat="47.90548" lon="-2.47217">
        <ele>26.9</ele>
        <time>2024-12-19T13:03:48Z</time>
      </trkpt>
      <trkpt lat="47.9055" lon="-2.47217">
        <ele>26.9</ele>
        <time>2024-12-19T13:03:49Z</time>
      </trkpt>
      <trkpt lat="47.90551" lon="-2.47217">
        <ele>27</ele>
        <time>2024-12-19T13:03:50Z</time>
      </trkpt>
      <trkpt lat="47.90553" lon="-2.47217">
        <ele>27.1</ele>
        <time>2024-12-19T13:03:51Z</time>
      </trkpt>
      <trkpt lat="47.90554" lon="-2.47217">
        <ele>27.1</ele>
        <time>2024-12-19T13:03:52Z</time>
      </trkpt>
      <trkpt lat="47.90556" lon="-2.47217">
        <ele>27.2</ele>
        <time>2024-12-19T13:03:53Z</time>
      </trkpt>
      <trkpt lat="47.90557" lon="-2.47217">
        <ele>27.2</ele>
        <time>2024-12-19T13:03:54Z</time>
      </trkpt>
      <trkpt lat="47.90558" lon="-2.47217">
        <ele>27.2</ele>
        <time>2024-12-19T13:03:55Z</time>
      </trkpt>
      <trkpt lat="47.90558" lon="-2.47217">
        <ele>27.2</ele>
        <time>2024-12-19T13:03:56Z</time>
      </trkpt>
      <trkpt lat="47.9056" lon="-2.47218">
        <ele>27.2</ele>
        <time>2024-12-19T13:03:57Z</time>
      </trkpt>
      <trkpt lat="47.90561" lon="-2.4722">
        <ele>27.1</ele>
        <time>2024-12-19T13:03:58Z</time>
      </trkpt>
      <trkpt lat="47.90562" lon="-2.4722">
        <ele>27.1</ele>
        <time>2024-12-19T13:03:59Z</time>
      </trkpt>
      <trkpt lat="47.90563" lon="-2.47221">
        <ele>27.1</ele>
        <time>2024-12-19T13:04:00Z</time>
      </trkpt>
      <trkpt lat="47.90565" lon="-2.47222">
        <ele>27</ele>
        <time>2024-12-19T13:04:01Z</time>
      </trkpt>
      <trkpt lat="47.90566" lon="-2.47223">
        <ele>27</ele>
        <time>2024-12-19T13:04:02Z</time>
      </trkpt>
      <trkpt lat="47.90567" lon="-2.47224">
        <ele>27</ele>
        <time>2024-12-19T13:04:03Z</time>
      </trkpt>
      <trkpt lat="47.90568" lon="-2.47225">
        <ele>27</ele>
        <time>2024-12-19T13:04:04Z</time>
      </trkpt>
      <trkpt lat="47.90569" lon="-2.47225">
        <ele>27</ele>
        <time>2024-12-19T13:04:05Z</time>
      </trkpt>
      <trkpt lat="47.9057" lon="-2.47224">
        <ele>27</ele>
        <time>2024-12-19T13:04:06Z</time>
      </trkpt>
      <trkpt lat="47.90572" lon="-2.47224">
        <ele>27</ele>
        <time>2024-12-19T13:04:07Z</time>
      </trkpt>
      <trkpt lat="47.90574" lon="-2.47223">
        <ele>27</ele>
        <time>2024-12-19T13:04:08Z</time>
      </trkpt>
      <trkpt lat="47.90575" lon="-2.47223">
        <ele>27</ele>
        <time>2024-12-19T13:04:09Z</time>
      </trkpt>
      <trkpt lat="47.90577" lon="-2.47222">
        <ele>27</ele>
        <time>2024-12-19T13:04:10Z</time>
      </trkpt>
      <trkpt lat="47.90578" lon="-2.47222">
        <ele>27</ele>
        <time>2024-12-19T13:04:11Z</time>
      </trkpt>
      <trkpt lat="47.90579" lon="-2.47222">
        <ele>27</ele>
        <time>2024-12-19T13:04:12Z</time>
      </trkpt>
      <trkpt lat="47.9058" lon="-2.47222">
        <ele>27</ele>
        <time>2024-12-19T13:04:13Z</time>
      </trkpt>
      <trkpt lat="47.90581" lon="-2.47222">
        <ele>27.1</ele>
        <time>2024-12-19T13:04:14Z</time>
      </trkpt>
      <trkpt lat="47.90583" lon="-2.47222">
        <ele>27</ele>
        <time>2024-12-19T13:04:15Z</time>
      </trkpt>
      <trkpt lat="47.90584" lon="-2.47223">
        <ele>27.1</ele>
        <time>2024-12-19T13:04:16Z</time>
      </trkpt>
      <trkpt lat="47.90584" lon="-2.47224">
        <ele>27.1</ele>
        <time>2024-12-19T13:04:17Z</time>
      </trkpt>
      <trkpt lat="47.90585" lon="-2.47225">
        <ele>27.2</ele>
        <time>2024-12-19T13:04:18Z</time>
      </trkpt>
      <trkpt lat="47.90586" lon="-2.47226">
        <ele>27.3</ele>
        <time>2024-12-19T13:04:19Z</time>
      </trkpt>
      <trkpt lat="47.90587" lon="-2.47227">
        <ele>27.4</ele>
        <time>2024-12-19T13:04:20Z</time>
      </trkpt>
      <trkpt lat="47.90588" lon="-2.47228">
        <ele>27.5</ele>
        <time>2024-12-19T13:04:21Z</time>
      </trkpt>
      <trkpt lat="47.90589" lon="-2.4723">
        <ele>27.6</ele>
        <time>2024-12-19T13:04:22Z</time>
      </trkpt>
      <trkpt lat="47.90589" lon="-2.47232">
        <ele>27.6</ele>
        <time>2024-12-19T13:04:23Z</time>
      </trkpt>
      <trkpt lat="47.90589" lon="-2.47234">
        <ele>27.7</ele>
        <time>2024-12-19T13:04:24Z</time>
      </trkpt>
      <trkpt lat="47.9059" lon="-2.47236">
        <ele>27.7</ele>
        <time>2024-12-19T13:04:25Z</time>
      </trkpt>
      <trkpt lat="47.9059" lon="-2.47238">
        <ele>27.7</ele>
        <time>2024-12-19T13:04:26Z</time>
      </trkpt>
      <trkpt lat="47.9059" lon="-2.47238">
        <ele>27.7</ele>
        <time>2024-12-19T13:04:27Z</time>
      </trkpt>
      <trkpt lat="47.90589" lon="-2.4724">
        <ele>27.7</ele>
        <time>2024-12-19T13:04:28Z</time>
      </trkpt>
      <trkpt lat="47.90589" lon="-2.47241">
        <ele>27.7</ele>
        <time>2024-12-19T13:04:29Z</time>
      </trkpt>
      <trkpt lat="47.9059" lon="-2.47243">
        <ele>27.7</ele>
        <time>2024-12-19T13:04:30Z</time>
      </trkpt>
      <trkpt lat="47.9059" lon="-2.47244">
        <ele>27.7</ele>
        <time>2024-12-19T13:04:31Z</time>
      </trkpt>
      <trkpt lat="47.9059" lon="-2.47245">
        <ele>27.8</ele>
        <time>2024-12-19T13:04:32Z</time>
      </trkpt>
      <trkpt lat="47.90591" lon="-2.47246">
        <ele>27.8</ele>
        <time>2024-12-19T13:04:33Z</time>
      </trkpt>
      <trkpt lat="47.90591" lon="-2.47247">
        <ele>27.9</ele>
        <time>2024-12-19T13:04:34Z</time>
      </trkpt>
      <trkpt lat="47.90592" lon="-2.47248">
        <ele>28</ele>
        <time>2024-12-19T13:04:35Z</time>
      </trkpt>
      <trkpt lat="47.90593" lon="-2.47248">
        <ele>28.1</ele>
        <time>2024-12-19T13:04:36Z</time>
      </trkpt>
      <trkpt lat="47.90594" lon="-2.4725">
        <ele>28.2</ele>
        <time>2024-12-19T13:04:37Z</time>
      </trkpt>
      <trkpt lat="47.90595" lon="-2.47252">
        <ele>28.1</ele>
        <time>2024-12-19T13:04:38Z</time>
      </trkpt>
      <trkpt lat="47.90595" lon="-2.47254">
        <ele>28</ele>
        <time>2024-12-19T13:04:39Z</time>
      </trkpt>
      <trkpt lat="47.90596" lon="-2.47256">
        <ele>28</ele>
        <time>2024-12-19T13:04:40Z</time>
      </trkpt>
      <trkpt lat="47.90597" lon="-2.47258">
        <ele>28</ele>
        <time>2024-12-19T13:04:41Z</time>
      </trkpt>
      <trkpt lat="47.90597" lon="-2.47259">
        <ele>28</ele>
        <time>2024-12-19T13:04:42Z</time>
      </trkpt>
      <trkpt lat="47.90598" lon="-2.4726">
        <ele>28.1</ele>
        <time>2024-12-19T13:04:43Z</time>
      </trkpt>
      <trkpt lat="47.90599" lon="-2.47261">
        <ele>28.1</ele>
        <time>2024-12-19T13:04:44Z</time>
      </trkpt>
      <trkpt lat="47.906" lon="-2.47262">
        <ele>28.2</ele>
        <time>2024-12-19T13:04:45Z</time>
      </trkpt>
      <trkpt lat="47.90601" lon="-2.47263">
        <ele>28.3</ele>
        <time>2024-12-19T13:04:46Z</time>
      </trkpt>
      <trkpt lat="47.90602" lon="-2.47264">
        <ele>28.3</ele>
        <time>2024-12-19T13:04:47Z</time>
      </trkpt>
      <trkpt lat="47.90602" lon="-2.47265">
        <ele>28.3</ele>
        <time>2024-12-19T13:04:48Z</time>
      </trkpt>
      <trkpt lat="47.90603" lon="-2.47267">
        <ele>28.3</ele>
        <time>2024-12-19T13:04:49Z</time>
      </trkpt>
      <trkpt lat="47.90604" lon="-2.47268">
        <ele>28.4</ele>
        <time>2024-12-19T13:04:50Z</time>
      </trkpt>
      <trkpt lat="47.90605" lon="-2.47269">
        <ele>28.5</ele>
        <time>2024-12-19T13:04:51Z</time>
      </trkpt>
      <trkpt lat="47.90606" lon="-2.4727">
        <ele>28.5</ele>
        <time>2024-12-19T13:04:52Z</time>
      </trkpt>
      <trkpt lat="47.90606" lon="-2.47271">
        <ele>28.5</ele>
        <time>2024-12-19T13:04:53Z</time>
      </trkpt>
      <trkpt lat="47.90606" lon="-2.47272">
        <ele>28.5</ele>
        <time>2024-12-19T13:04:54Z</time>
      </trkpt>
      <trkpt lat="47.90606" lon="-2.47273">
        <ele>28.5</ele>
        <time>2024-12-19T13:04:55Z</time>
      </trkpt>
      <trkpt lat="47.90607" lon="-2.47274">
        <ele>28.5</ele>
        <time>2024-12-19T13:04:56Z</time>
      </trkpt>
      <trkpt lat="47.90607" lon="-2.47276">
        <ele>28.6</ele>
        <time>2024-12-19T13:04:57Z</time>
      </trkpt>
      <trkpt lat="47.90608" lon="-2.47277">
        <ele>28.6</ele>
        <time>2024-12-19T13:04:58Z</time>
      </trkpt>
      <trkpt lat="47.90609" lon="-2.47279">
        <ele>28.6</ele>
        <time>2024-12-19T13:04:59Z</time>
      </trkpt>
      <trkpt lat="47.90609" lon="-2.4728">
        <ele>28.6</ele>
        <time>2024-12-19T13:05:00Z</time>
      </trkpt>
      <trkpt lat="47.9061" lon="-2.47282">
        <ele>28.5</ele>
        <time>2024-12-19T13:05:01Z</time>
      </trkpt>
      <trkpt lat="47.90611" lon="-2.47284">
        <ele>28.5</ele>
        <time>2024-12-19T13:05:02Z</time>
      </trkpt>
      <trkpt lat="47.90611" lon="-2.47286">
        <ele>28.4</ele>
        <time>2024-12-19T13:05:03Z</time>
      </trkpt>
      <trkpt lat="47.90612" lon="-2.47289">
        <ele>28.3</ele>
        <time>2024-12-19T13:05:04Z</time>
      </trkpt>
      <trkpt lat="47.90613" lon="-2.4729">
        <ele>28.3</ele>
        <time>2024-12-19T13:05:05Z</time>
      </trkpt>
      <trkpt lat="47.90614" lon="-2.47292">
        <ele>28.2</ele>
        <time>2024-12-19T13:05:06Z</time>
      </trkpt>
      <trkpt lat="47.90615" lon="-2.47293">
        <ele>28.2</ele>
        <time>2024-12-19T13:05:07Z</time>
      </trkpt>
      <trkpt lat="47.90615" lon="-2.47294">
        <ele>28.1</ele>
        <time>2024-12-19T13:05:08Z</time>
      </trkpt>
      <trkpt lat="47.90616" lon="-2.47296">
        <ele>28.1</ele>
        <time>2024-12-19T13:05:09Z</time>
      </trkpt>
      <trkpt lat="47.90617" lon="-2.47297">
        <ele>28.1</ele>
        <time>2024-12-19T13:05:10Z</time>
      </trkpt>
      <trkpt lat="47.90619" lon="-2.47298">
        <ele>28.2</ele>
        <time>2024-12-19T13:05:11Z</time>
      </trkpt>
      <trkpt lat="47.90619" lon="-2.47298">
        <ele>28.3</ele>
        <time>2024-12-19T13:05:12Z</time>
      </trkpt>
      <trkpt lat="47.9062" lon="-2.47298">
        <ele>28.3</ele>
        <time>2024-12-19T13:05:13Z</time>
      </trkpt>
      <trkpt lat="47.9062" lon="-2.47299">
        <ele>28.3</ele>
        <time>2024-12-19T13:05:14Z</time>
      </trkpt>
      <trkpt lat="47.9062" lon="-2.47301">
        <ele>28.2</ele>
        <time>2024-12-19T13:05:15Z</time>
      </trkpt>
      <trkpt lat="47.90621" lon="-2.47302">
        <ele>28.2</ele>
        <time>2024-12-19T13:05:16Z</time>
      </trkpt>
      <trkpt lat="47.90621" lon="-2.47303">
        <ele>28.2</ele>
        <time>2024-12-19T13:05:17Z</time>
      </trkpt>
      <trkpt lat="47.90622" lon="-2.47304">
        <ele>28.2</ele>
        <time>2024-12-19T13:05:18Z</time>
      </trkpt>
      <trkpt lat="47.90623" lon="-2.47306">
        <ele>28.2</ele>
        <time>2024-12-19T13:05:19Z</time>
      </trkpt>
      <trkpt lat="47.90623" lon="-2.47307">
        <ele>28.2</ele>
        <time>2024-12-19T13:05:20Z</time>
      </trkpt>
      <trkpt lat="47.90623" lon="-2.47309">
        <ele>28.2</ele>
        <time>2024-12-19T13:05:21Z</time>
      </trkpt>
      <trkpt lat="47.90623" lon="-2.4731">
        <ele>28.2</ele>
        <time>2024-12-19T13:05:22Z</time>
      </trkpt>
      <trkpt lat="47.90623" lon="-2.47311">
        <ele>28.2</ele>
        <time>2024-12-19T13:05:23Z</time>
      </trkpt>
      <trkpt lat="47.90624" lon="-2.47313">
        <ele>28.2</ele>
        <time>2024-12-19T13:05:24Z</time>
      </trkpt>
      <trkpt lat="47.90624" lon="-2.47315">
        <ele>28.2</ele>
        <time>2024-12-19T13:05:25Z</time>
      </trkpt>
      <trkpt lat="47.90624" lon="-2.47317">
        <ele>28.2</ele>
        <time>2024-12-19T13:05:26Z</time>
      </trkpt>
      <trkpt lat="47.90625" lon="-2.47319">
        <ele>28.2</ele>
        <time>2024-12-19T13:05:27Z</time>
      </trkpt>
      <trkpt lat="47.90625" lon="-2.47321">
        <ele>28.2</ele>
        <time>2024-12-19T13:05:28Z</time>
      </trkpt>
      <trkpt lat="47.90626" lon="-2.47323">
        <ele>28.3</ele>
        <time>2024-12-19T13:05:29Z</time>
      </trkpt>
      <trkpt lat="47.90626" lon="-2.47324">
        <ele>28.3</ele>
        <time>2024-12-19T13:05:30Z</time>
      </trkpt>
      <trkpt lat="47.90627" lon="-2.47327">
        <ele>28.4</ele>
        <time>2024-12-19T13:05:31Z</time>
      </trkpt>
      <trkpt lat="47.90628" lon="-2.47328">
        <ele>28.5</ele>
        <time>2024-12-19T13:05:32Z</time>
      </trkpt>
      <trkpt lat="47.90629" lon="-2.47329">
        <ele>28.6</ele>
        <time>2024-12-19T13:05:33Z</time>
      </trkpt>
      <trkpt lat="47.90629" lon="-2.4733">
        <ele>28.6</ele>
        <time>2024-12-19T13:05:34Z</time>
      </trkpt>
      <trkpt lat="47.9063" lon="-2.47332">
        <ele>28.7</ele>
        <time>2024-12-19T13:05:35Z</time>
      </trkpt>
      <trkpt lat="47.90631" lon="-2.47334">
        <ele>28.8</ele>
        <time>2024-12-19T13:05:36Z</time>
      </trkpt>
      <trkpt lat="47.90631" lon="-2.47337">
        <ele>28.9</ele>
        <time>2024-12-19T13:05:37Z</time>
      </trkpt>
      <trkpt lat="47.90632" lon="-2.4734">
        <ele>28.9</ele>
        <time>2024-12-19T13:05:38Z</time>
      </trkpt>
      <trkpt lat="47.90632" lon="-2.47343">
        <ele>28.9</ele>
        <time>2024-12-19T13:05:39Z</time>
      </trkpt>
      <trkpt lat="47.90633" lon="-2.47345">
        <ele>29</ele>
        <time>2024-12-19T13:05:40Z</time>
      </trkpt>
      <trkpt lat="47.90633" lon="-2.47349">
        <ele>29.1</ele>
        <time>2024-12-19T13:05:41Z</time>
      </trkpt>
      <trkpt lat="47.90634" lon="-2.47352">
        <ele>29.2</ele>
        <time>2024-12-19T13:05:42Z</time>
      </trkpt>
      <trkpt lat="47.90635" lon="-2.47354">
        <ele>29.3</ele>
        <time>2024-12-19T13:05:43Z</time>
      </trkpt>
      <trkpt lat="47.90636" lon="-2.47357">
        <ele>29.4</ele>
        <time>2024-12-19T13:05:44Z</time>
      </trkpt>
      <trkpt lat="47.90636" lon="-2.47359">
        <ele>29.5</ele>
        <time>2024-12-19T13:05:45Z</time>
      </trkpt>
      <trkpt lat="47.90636" lon="-2.47361">
        <ele>29.4</ele>
        <time>2024-12-19T13:05:46Z</time>
      </trkpt>
      <trkpt lat="47.90636" lon="-2.47363">
        <ele>29.3</ele>
        <time>2024-12-19T13:05:47Z</time>
      </trkpt>
      <trkpt lat="47.90636" lon="-2.47365">
        <ele>29.2</ele>
        <time>2024-12-19T13:05:48Z</time>
      </trkpt>
      <trkpt lat="47.90636" lon="-2.47366">
        <ele>29.2</ele>
        <time>2024-12-19T13:05:49Z</time>
      </trkpt>
      <trkpt lat="47.90637" lon="-2.47368">
        <ele>29.2</ele>
        <time>2024-12-19T13:05:50Z</time>
      </trkpt>
      <trkpt lat="47.90638" lon="-2.4737">
        <ele>29.2</ele>
        <time>2024-12-19T13:05:51Z</time>
      </trkpt>
      <trkpt lat="47.90638" lon="-2.47371">
        <ele>29.2</ele>
        <time>2024-12-19T13:05:52Z</time>
      </trkpt>
      <trkpt lat="47.90639" lon="-2.47372">
        <ele>29.2</ele>
        <time>2024-12-19T13:05:53Z</time>
      </trkpt>
      <trkpt lat="47.90639" lon="-2.47374">
        <ele>29.1</ele>
        <time>2024-12-19T13:05:54Z</time>
      </trkpt>
      <trkpt lat="47.9064" lon="-2.47376">
        <ele>29</ele>
        <time>2024-12-19T13:05:55Z</time>
      </trkpt>
      <trkpt lat="47.90641" lon="-2.47377">
        <ele>28.9</ele>
        <time>2024-12-19T13:05:56Z</time>
      </trkpt>
      <trkpt lat="47.90642" lon="-2.47379">
        <ele>28.9</ele>
        <time>2024-12-19T13:05:57Z</time>
      </trkpt>
      <trkpt lat="47.90643" lon="-2.4738">
        <ele>28.8</ele>
        <time>2024-12-19T13:05:58Z</time>
      </trkpt>
      <trkpt lat="47.90644" lon="-2.47382">
        <ele>28.8</ele>
        <time>2024-12-19T13:05:59Z</time>
      </trkpt>
      <trkpt lat="47.90645" lon="-2.47383">
        <ele>28.8</ele>
        <time>2024-12-19T13:06:00Z</time>
      </trkpt>
      <trkpt lat="47.90646" lon="-2.47385">
        <ele>28.7</ele>
        <time>2024-12-19T13:06:01Z</time>
      </trkpt>
      <trkpt lat="47.90647" lon="-2.47387">
        <ele>28.7</ele>
        <time>2024-12-19T13:06:02Z</time>
      </trkpt>
      <trkpt lat="47.90649" lon="-2.47389">
        <ele>28.7</ele>
        <time>2024-12-19T13:06:03Z</time>
      </trkpt>
      <trkpt lat="47.90649" lon="-2.47391">
        <ele>28.6</ele>
        <time>2024-12-19T13:06:04Z</time>
      </trkpt>
      <trkpt lat="47.9065" lon="-2.47392">
        <ele>28.6</ele>
        <time>2024-12-19T13:06:05Z</time>
      </trkpt>
      <trkpt lat="47.90651" lon="-2.47394">
        <ele>28.6</ele>
        <time>2024-12-19T13:06:06Z</time>
      </trkpt>
      <trkpt lat="47.90652" lon="-2.47395">
        <ele>28.5</ele>
        <time>2024-12-19T13:06:07Z</time>
      </trkpt>
      <trkpt lat="47.90652" lon="-2.47397">
        <ele>28.5</ele>
        <time>2024-12-19T13:06:08Z</time>
      </trkpt>
      <trkpt lat="47.90653" lon="-2.47399">
        <ele>28.4</ele>
        <time>2024-12-19T13:06:09Z</time>
      </trkpt>
      <trkpt lat="47.90653" lon="-2.474">
        <ele>28.4</ele>
        <time>2024-12-19T13:06:10Z</time>
      </trkpt>
      <trkpt lat="47.90654" lon="-2.47402">
        <ele>28.5</ele>
        <time>2024-12-19T13:06:11Z</time>
      </trkpt>
      <trkpt lat="47.90655" lon="-2.47403">
        <ele>28.5</ele>
        <time>2024-12-19T13:06:12Z</time>
      </trkpt>
      <trkpt lat="47.90656" lon="-2.47405">
        <ele>28.5</ele>
        <time>2024-12-19T13:06:13Z</time>
      </trkpt>
      <trkpt lat="47.90657" lon="-2.47406">
        <ele>28.6</ele>
        <time>2024-12-19T13:06:14Z</time>
      </trkpt>
      <trkpt lat="47.90658" lon="-2.47408">
        <ele>28.8</ele>
        <time>2024-12-19T13:06:15Z</time>
      </trkpt>
      <trkpt lat="47.90659" lon="-2.47409">
        <ele>28.9</ele>
        <time>2024-12-19T13:06:16Z</time>
      </trkpt>
      <trkpt lat="47.90661" lon="-2.47411">
        <ele>29</ele>
        <time>2024-12-19T13:06:17Z</time>
      </trkpt>
      <trkpt lat="47.90661" lon="-2.47412">
        <ele>29.1</ele>
        <time>2024-12-19T13:06:18Z</time>
      </trkpt>
      <trkpt lat="47.90662" lon="-2.47414">
        <ele>29.1</ele>
        <time>2024-12-19T13:06:19Z</time>
      </trkpt>
      <trkpt lat="47.90662" lon="-2.47415">
        <ele>29.2</ele>
        <time>2024-12-19T13:06:20Z</time>
      </trkpt>
      <trkpt lat="47.90663" lon="-2.47417">
        <ele>29.2</ele>
        <time>2024-12-19T13:06:21Z</time>
      </trkpt>
      <trkpt lat="47.90663" lon="-2.47418">
        <ele>29.2</ele>
        <time>2024-12-19T13:06:22Z</time>
      </trkpt>
      <trkpt lat="47.90664" lon="-2.47419">
        <ele>29.2</ele>
        <time>2024-12-19T13:06:23Z</time>
      </trkpt>
      <trkpt lat="47.90665" lon="-2.4742">
        <ele>29.2</ele>
        <time>2024-12-19T13:06:24Z</time>
      </trkpt>
      <trkpt lat="47.90665" lon="-2.47421">
        <ele>29.2</ele>
        <time>2024-12-19T13:06:25Z</time>
      </trkpt>
      <trkpt lat="47.90666" lon="-2.47421">
        <ele>29.2</ele>
        <time>2024-12-19T13:06:26Z</time>
      </trkpt>
      <trkpt lat="47.90667" lon="-2.47422">
        <ele>29.2</ele>
        <time>2024-12-19T13:06:27Z</time>
      </trkpt>
      <trkpt lat="47.90667" lon="-2.47424">
        <ele>29</ele>
        <time>2024-12-19T13:06:28Z</time>
      </trkpt>
      <trkpt lat="47.90668" lon="-2.47425">
        <ele>28.9</ele>
        <time>2024-12-19T13:06:29Z</time>
      </trkpt>
      <trkpt lat="47.90668" lon="-2.47426">
        <ele>28.8</ele>
        <time>2024-12-19T13:06:30Z</time>
      </trkpt>
      <trkpt lat="47.90669" lon="-2.47427">
        <ele>28.6</ele>
        <time>2024-12-19T13:06:31Z</time>
      </trkpt>
      <trkpt lat="47.9067" lon="-2.47429">
        <ele>28.5</ele>
        <time>2024-12-19T13:06:32Z</time>
      </trkpt>
      <trkpt lat="47.90671" lon="-2.4743">
        <ele>28.4</ele>
        <time>2024-12-19T13:06:33Z</time>
      </trkpt>
      <trkpt lat="47.90672" lon="-2.47431">
        <ele>28.3</ele>
        <time>2024-12-19T13:06:34Z</time>
      </trkpt>
      <trkpt lat="47.90673" lon="-2.47432">
        <ele>28.3</ele>
        <time>2024-12-19T13:06:35Z</time>
      </trkpt>
      <trkpt lat="47.90674" lon="-2.47433">
        <ele>28.3</ele>
        <time>2024-12-19T13:06:36Z</time>
      </trkpt>
      <trkpt lat="47.90675" lon="-2.47434">
        <ele>28.3</ele>
        <time>2024-12-19T13:06:37Z</time>
      </trkpt>
      <trkpt lat="47.90676" lon="-2.47435">
        <ele>28.3</ele>
        <time>2024-12-19T13:06:38Z</time>
      </trkpt>
      <trkpt lat="47.90677" lon="-2.47436">
        <ele>28.2</ele>
        <time>2024-12-19T13:06:39Z</time>
      </trkpt>
      <trkpt lat="47.90678" lon="-2.47437">
        <ele>28.2</ele>
        <time>2024-12-19T13:06:40Z</time>
      </trkpt>
      <trkpt lat="47.90679" lon="-2.47438">
        <ele>28.2</ele>
        <time>2024-12-19T13:06:41Z</time>
      </trkpt>
      <trkpt lat="47.90679" lon="-2.47439">
        <ele>28.3</ele>
        <time>2024-12-19T13:06:42Z</time>
      </trkpt>
      <trkpt lat="47.9068" lon="-2.4744">
        <ele>28.3</ele>
        <time>2024-12-19T13:06:43Z</time>
      </trkpt>
      <trkpt lat="47.90682" lon="-2.47442">
        <ele>28.3</ele>
        <time>2024-12-19T13:06:44Z</time>
      </trkpt>
      <trkpt lat="47.90683" lon="-2.47443">
        <ele>28.4</ele>
        <time>2024-12-19T13:06:45Z</time>
      </trkpt>
      <trkpt lat="47.90684" lon="-2.47445">
        <ele>28.5</ele>
        <time>2024-12-19T13:06:46Z</time>
      </trkpt>
      <trkpt lat="47.90686" lon="-2.47446">
        <ele>28.5</ele>
        <time>2024-12-19T13:06:47Z</time>
      </trkpt>
      <trkpt lat="47.90687" lon="-2.47447">
        <ele>28.5</ele>
        <time>2024-12-19T13:06:48Z</time>
      </trkpt>
      <trkpt lat="47.90687" lon="-2.47449">
        <ele>28.5</ele>
        <time>2024-12-19T13:06:49Z</time>
      </trkpt>
      <trkpt lat="47.90688" lon="-2.4745">
        <ele>28.4</ele>
        <time>2024-12-19T13:06:50Z</time>
      </trkpt>
      <trkpt lat="47.90689" lon="-2.47452">
        <ele>28.3</ele>
        <time>2024-12-19T13:06:51Z</time>
      </trkpt>
      <trkpt lat="47.9069" lon="-2.47453">
        <ele>28.3</ele>
        <time>2024-12-19T13:06:52Z</time>
      </trkpt>
      <trkpt lat="47.90691" lon="-2.47454">
        <ele>28.3</ele>
        <time>2024-12-19T13:06:53Z</time>
      </trkpt>
      <trkpt lat="47.90692" lon="-2.47455">
        <ele>28.3</ele>
        <time>2024-12-19T13:06:54Z</time>
      </trkpt>
      <trkpt lat="47.90693" lon="-2.47455">
        <ele>28.4</ele>
        <time>2024-12-19T13:06:55Z</time>
      </trkpt>
      <trkpt lat="47.90694" lon="-2.47456">
        <ele>28.4</ele>
        <time>2024-12-19T13:06:56Z</time>
      </trkpt>
      <trkpt lat="47.90696" lon="-2.47456">
        <ele>28.4</ele>
        <time>2024-12-19T13:06:57Z</time>
      </trkpt>
      <trkpt lat="47.90696" lon="-2.47457">
        <ele>28.4</ele>
        <time>2024-12-19T13:06:58Z</time>
      </trkpt>
      <trkpt lat="47.90697" lon="-2.47458">
        <ele>28.3</ele>
        <time>2024-12-19T13:06:59Z</time>
      </trkpt>
      <trkpt lat="47.90698" lon="-2.4746">
        <ele>28.2</ele>
        <time>2024-12-19T13:07:00Z</time>
      </trkpt>
      <trkpt lat="47.90699" lon="-2.47461">
        <ele>28.1</ele>
        <time>2024-12-19T13:07:01Z</time>
      </trkpt>
      <trkpt lat="47.90699" lon="-2.47461">
        <ele>28.1</ele>
        <time>2024-12-19T13:07:02Z</time>
      </trkpt>
      <trkpt lat="47.907" lon="-2.47463">
        <ele>28</ele>
        <time>2024-12-19T13:07:03Z</time>
      </trkpt>
      <trkpt lat="47.90701" lon="-2.47464">
        <ele>28</ele>
        <time>2024-12-19T13:07:04Z</time>
      </trkpt>
      <trkpt lat="47.90702" lon="-2.47465">
        <ele>27.9</ele>
        <time>2024-12-19T13:07:05Z</time>
      </trkpt>
      <trkpt lat="47.90702" lon="-2.47466">
        <ele>27.8</ele>
        <time>2024-12-19T13:07:06Z</time>
      </trkpt>
      <trkpt lat="47.90702" lon="-2.47467">
        <ele>27.7</ele>
        <time>2024-12-19T13:07:07Z</time>
      </trkpt>
      <trkpt lat="47.90703" lon="-2.47468">
        <ele>27.7</ele>
        <time>2024-12-19T13:07:08Z</time>
      </trkpt>
      <trkpt lat="47.90704" lon="-2.47469">
        <ele>27.7</ele>
        <time>2024-12-19T13:07:09Z</time>
      </trkpt>
      <trkpt lat="47.90704" lon="-2.4747">
        <ele>27.7</ele>
        <time>2024-12-19T13:07:10Z</time>
      </trkpt>
      <trkpt lat="47.90705" lon="-2.47471">
        <ele>27.7</ele>
        <time>2024-12-19T13:07:11Z</time>
      </trkpt>
      <trkpt lat="47.90706" lon="-2.47472">
        <ele>27.6</ele>
        <time>2024-12-19T13:07:12Z</time>
      </trkpt>
      <trkpt lat="47.90707" lon="-2.47473">
        <ele>27.6</ele>
        <time>2024-12-19T13:07:13Z</time>
      </trkpt>
      <trkpt lat="47.90708" lon="-2.47474">
        <ele>27.7</ele>
        <time>2024-12-19T13:07:14Z</time>
      </trkpt>
      <trkpt lat="47.90709" lon="-2.47475">
        <ele>27.8</ele>
        <time>2024-12-19T13:07:15Z</time>
      </trkpt>
      <trkpt lat="47.90711" lon="-2.47476">
        <ele>27.9</ele>
        <time>2024-12-19T13:07:16Z</time>
      </trkpt>
      <trkpt lat="47.90712" lon="-2.47476">
        <ele>28.1</ele>
        <time>2024-12-19T13:07:17Z</time>
      </trkpt>
      <trkpt lat="47.90713" lon="-2.47477">
        <ele>28.2</ele>
        <time>2024-12-19T13:07:18Z</time>
      </trkpt>
      <trkpt lat="47.90714" lon="-2.47477">
        <ele>28.3</ele>
        <time>2024-12-19T13:07:19Z</time>
      </trkpt>
      <trkpt lat="47.90715" lon="-2.47477">
        <ele>28.3</ele>
        <time>2024-12-19T13:07:20Z</time>
      </trkpt>
      <trkpt lat="47.90716" lon="-2.47479">
        <ele>28.3</ele>
        <time>2024-12-19T13:07:21Z</time>
      </trkpt>
      <trkpt lat="47.90717" lon="-2.47479">
        <ele>28.3</ele>
        <time>2024-12-19T13:07:22Z</time>
      </trkpt>
      <trkpt lat="47.90718" lon="-2.47481">
        <ele>28.3</ele>
        <time>2024-12-19T13:07:23Z</time>
      </trkpt>
      <trkpt lat="47.90719" lon="-2.47482">
        <ele>28.3</ele>
        <time>2024-12-19T13:07:24Z</time>
      </trkpt>
      <trkpt lat="47.9072" lon="-2.47482">
        <ele>28.3</ele>
        <time>2024-12-19T13:07:25Z</time>
      </trkpt>
      <trkpt lat="47.90721" lon="-2.47483">
        <ele>28.3</ele>
        <time>2024-12-19T13:07:26Z</time>
      </trkpt>
      <trkpt lat="47.90723" lon="-2.47484">
        <ele>28.3</ele>
        <time>2024-12-19T13:07:27Z</time>
      </trkpt>
      <trkpt lat="47.90724" lon="-2.47485">
        <ele>28.2</ele>
        <time>2024-12-19T13:07:28Z</time>
      </trkpt>
      <trkpt lat="47.90728" lon="-2.47491">
        <ele>27.9</ele>
        <time>2024-12-19T13:07:32Z</time>
      </trkpt>
      <trkpt lat="47.90729" lon="-2.47493">
        <ele>27.7</ele>
        <time>2024-12-19T13:07:33Z</time>
      </trkpt>
      <trkpt lat="47.90729" lon="-2.47494">
        <ele>27.7</ele>
        <time>2024-12-19T13:07:34Z</time>
      </trkpt>
      <trkpt lat="47.9073" lon="-2.47495">
        <ele>27.6</ele>
        <time>2024-12-19T13:07:35Z</time>
      </trkpt>
      <trkpt lat="47.9073" lon="-2.47496">
        <ele>27.6</ele>
        <time>2024-12-19T13:07:36Z</time>
      </trkpt>
      <trkpt lat="47.90731" lon="-2.47496">
        <ele>27.7</ele>
        <time>2024-12-19T13:07:37Z</time>
      </trkpt>
      <trkpt lat="47.90732" lon="-2.47497">
        <ele>27.7</ele>
        <time>2024-12-19T13:07:38Z</time>
      </trkpt>
      <trkpt lat="47.90733" lon="-2.47498">
        <ele>27.7</ele>
        <time>2024-12-19T13:07:39Z</time>
      </trkpt>
      <trkpt lat="47.90734" lon="-2.475">
        <ele>27.7</ele>
        <time>2024-12-19T13:07:40Z</time>
      </trkpt>
      <trkpt lat="47.90736" lon="-2.47502">
        <ele>27.7</ele>
        <time>2024-12-19T13:07:41Z</time>
      </trkpt>
      <trkpt lat="47.90737" lon="-2.47504">
        <ele>27.7</ele>
        <time>2024-12-19T13:07:42Z</time>
      </trkpt>
      <trkpt lat="47.90738" lon="-2.47506">
        <ele>27.8</ele>
        <time>2024-12-19T13:07:43Z</time>
      </trkpt>
      <trkpt lat="47.9074" lon="-2.47508">
        <ele>27.8</ele>
        <time>2024-12-19T13:07:44Z</time>
      </trkpt>
      <trkpt lat="47.90741" lon="-2.47509">
        <ele>27.8</ele>
        <time>2024-12-19T13:07:45Z</time>
      </trkpt>
      <trkpt lat="47.90742" lon="-2.4751">
        <ele>27.9</ele>
        <time>2024-12-19T13:07:46Z</time>
      </trkpt>
      <trkpt lat="47.90743" lon="-2.47511">
        <ele>27.9</ele>
        <time>2024-12-19T13:07:47Z</time>
      </trkpt>
      <trkpt lat="47.90744" lon="-2.47512">
        <ele>27.9</ele>
        <time>2024-12-19T13:07:48Z</time>
      </trkpt>
      <trkpt lat="47.90745" lon="-2.47513">
        <ele>28</ele>
        <time>2024-12-19T13:07:49Z</time>
      </trkpt>
      <trkpt lat="47.90747" lon="-2.47515">
        <ele>28</ele>
        <time>2024-12-19T13:07:50Z</time>
      </trkpt>
      <trkpt lat="47.90747" lon="-2.47515">
        <ele>28.1</ele>
        <time>2024-12-19T13:07:51Z</time>
      </trkpt>
      <trkpt lat="47.90748" lon="-2.47515">
        <ele>28.1</ele>
        <time>2024-12-19T13:07:52Z</time>
      </trkpt>
      <trkpt lat="47.90749" lon="-2.47516">
        <ele>28.2</ele>
        <time>2024-12-19T13:07:53Z</time>
      </trkpt>
      <trkpt lat="47.9075" lon="-2.47517">
        <ele>28.2</ele>
        <time>2024-12-19T13:07:54Z</time>
      </trkpt>
      <trkpt lat="47.90751" lon="-2.47518">
        <ele>28.2</ele>
        <time>2024-12-19T13:07:55Z</time>
      </trkpt>
      <trkpt lat="47.90752" lon="-2.47518">
        <ele>28.2</ele>
        <time>2024-12-19T13:07:56Z</time>
      </trkpt>
      <trkpt lat="47.90753" lon="-2.47519">
        <ele>28.1</ele>
        <time>2024-12-19T13:07:57Z</time>
      </trkpt>
      <trkpt lat="47.90753" lon="-2.4752">
        <ele>28.1</ele>
        <time>2024-12-19T13:07:58Z</time>
      </trkpt>
      <trkpt lat="47.90754" lon="-2.47521">
        <ele>28.1</ele>
        <time>2024-12-19T13:07:59Z</time>
      </trkpt>
      <trkpt lat="47.90755" lon="-2.47521">
        <ele>28.1</ele>
        <time>2024-12-19T13:08:00Z</time>
      </trkpt>
      <trkpt lat="47.90755" lon="-2.47521">
        <ele>28.1</ele>
        <time>2024-12-19T13:08:01Z</time>
      </trkpt>
      <trkpt lat="47.90755" lon="-2.47522">
        <ele>28.1</ele>
        <time>2024-12-19T13:08:02Z</time>
      </trkpt>
      <trkpt lat="47.90756" lon="-2.47523">
        <ele>28.1</ele>
        <time>2024-12-19T13:08:03Z</time>
      </trkpt>
      <trkpt lat="47.90757" lon="-2.47524">
        <ele>28.1</ele>
        <time>2024-12-19T13:08:04Z</time>
      </trkpt>
      <trkpt lat="47.90759" lon="-2.47525">
        <ele>28.1</ele>
        <time>2024-12-19T13:08:05Z</time>
      </trkpt>
      <trkpt lat="47.9076" lon="-2.47526">
        <ele>28.1</ele>
        <time>2024-12-19T13:08:06Z</time>
      </trkpt>
      <trkpt lat="47.9076" lon="-2.47528">
        <ele>28.1</ele>
        <time>2024-12-19T13:08:07Z</time>
      </trkpt>
      <trkpt lat="47.90761" lon="-2.47529">
        <ele>28.1</ele>
        <time>2024-12-19T13:08:08Z</time>
      </trkpt>
      <trkpt lat="47.90763" lon="-2.4753">
        <ele>28.1</ele>
        <time>2024-12-19T13:08:09Z</time>
      </trkpt>
      <trkpt lat="47.90764" lon="-2.47531">
        <ele>28.2</ele>
        <time>2024-12-19T13:08:10Z</time>
      </trkpt>
      <trkpt lat="47.90765" lon="-2.47532">
        <ele>28.2</ele>
        <time>2024-12-19T13:08:11Z</time>
      </trkpt>
      <trkpt lat="47.90767" lon="-2.47534">
        <ele>28.2</ele>
        <time>2024-12-19T13:08:12Z</time>
      </trkpt>
      <trkpt lat="47.90769" lon="-2.47535">
        <ele>28.2</ele>
        <time>2024-12-19T13:08:13Z</time>
      </trkpt>
      <trkpt lat="47.9077" lon="-2.47536">
        <ele>28.3</ele>
        <time>2024-12-19T13:08:14Z</time>
      </trkpt>
      <trkpt lat="47.90771" lon="-2.47537">
        <ele>28.3</ele>
        <time>2024-12-19T13:08:15Z</time>
      </trkpt>
      <trkpt lat="47.90772" lon="-2.47538">
        <ele>28.2</ele>
        <time>2024-12-19T13:08:16Z</time>
      </trkpt>
      <trkpt lat="47.90773" lon="-2.47539">
        <ele>28.2</ele>
        <time>2024-12-19T13:08:17Z</time>
      </trkpt>
      <trkpt lat="47.90774" lon="-2.47541">
        <ele>28.2</ele>
        <time>2024-12-19T13:08:18Z</time>
      </trkpt>
      <trkpt lat="47.90775" lon="-2.47542">
        <ele>28.1</ele>
        <time>2024-12-19T13:08:19Z</time>
      </trkpt>
      <trkpt lat="47.90776" lon="-2.47544">
        <ele>28.1</ele>
        <time>2024-12-19T13:08:20Z</time>
      </trkpt>
      <trkpt lat="47.90778" lon="-2.47545">
        <ele>28.1</ele>
        <time>2024-12-19T13:08:21Z</time>
      </trkpt>
      <trkpt lat="47.90779" lon="-2.47547">
        <ele>28</ele>
        <time>2024-12-19T13:08:22Z</time>
      </trkpt>
      <trkpt lat="47.90779" lon="-2.47548">
        <ele>28</ele>
        <time>2024-12-19T13:08:23Z</time>
      </trkpt>
      <trkpt lat="47.9078" lon="-2.47549">
        <ele>27.9</ele>
        <time>2024-12-19T13:08:24Z</time>
      </trkpt>
      <trkpt lat="47.90781" lon="-2.47551">
        <ele>27.8</ele>
        <time>2024-12-19T13:08:25Z</time>
      </trkpt>
      <trkpt lat="47.90782" lon="-2.47552">
        <ele>27.7</ele>
        <time>2024-12-19T13:08:26Z</time>
      </trkpt>
      <trkpt lat="47.90782" lon="-2.47554">
        <ele>27.6</ele>
        <time>2024-12-19T13:08:27Z</time>
      </trkpt>
      <trkpt lat="47.90783" lon="-2.47555">
        <ele>27.6</ele>
        <time>2024-12-19T13:08:28Z</time>
      </trkpt>
      <trkpt lat="47.90783" lon="-2.47555">
        <ele>27.6</ele>
        <time>2024-12-19T13:08:29Z</time>
      </trkpt>
      <trkpt lat="47.90785" lon="-2.47556">
        <ele>27.7</ele>
        <time>2024-12-19T13:08:30Z</time>
      </trkpt>
      <trkpt lat="47.90786" lon="-2.47557">
        <ele>27.8</ele>
        <time>2024-12-19T13:08:31Z</time>
      </trkpt>
      <trkpt lat="47.90787" lon="-2.47559">
        <ele>27.8</ele>
        <time>2024-12-19T13:08:32Z</time>
      </trkpt>
      <trkpt lat="47.90788" lon="-2.4756">
        <ele>27.9</ele>
        <time>2024-12-19T13:08:33Z</time>
      </trkpt>
      <trkpt lat="47.90789" lon="-2.47561">
        <ele>27.9</ele>
        <time>2024-12-19T13:08:34Z</time>
      </trkpt>
      <trkpt lat="47.90789" lon="-2.47562">
        <ele>27.9</ele>
        <time>2024-12-19T13:08:35Z</time>
      </trkpt>
      <trkpt lat="47.9079" lon="-2.47563">
        <ele>27.9</ele>
        <time>2024-12-19T13:08:36Z</time>
      </trkpt>
      <trkpt lat="47.90791" lon="-2.47565">
        <ele>27.9</ele>
        <time>2024-12-19T13:08:37Z</time>
      </trkpt>
      <trkpt lat="47.90792" lon="-2.47566">
        <ele>28</ele>
        <time>2024-12-19T13:08:38Z</time>
      </trkpt>
      <trkpt lat="47.90792" lon="-2.47567">
        <ele>28</ele>
        <time>2024-12-19T13:08:39Z</time>
      </trkpt>
      <trkpt lat="47.90792" lon="-2.47568">
        <ele>27.9</ele>
        <time>2024-12-19T13:08:40Z</time>
      </trkpt>
      <trkpt lat="47.90792" lon="-2.47569">
        <ele>27.9</ele>
        <time>2024-12-19T13:08:41Z</time>
      </trkpt>
      <trkpt lat="47.90793" lon="-2.4757">
        <ele>27.8</ele>
        <time>2024-12-19T13:08:42Z</time>
      </trkpt>
      <trkpt lat="47.90793" lon="-2.47571">
        <ele>27.8</ele>
        <time>2024-12-19T13:08:43Z</time>
      </trkpt>
      <trkpt lat="47.90794" lon="-2.47573">
        <ele>27.8</ele>
        <time>2024-12-19T13:08:44Z</time>
      </trkpt>
      <trkpt lat="47.90794" lon="-2.47576">
        <ele>27.8</ele>
        <time>2024-12-19T13:08:45Z</time>
      </trkpt>
      <trkpt lat="47.90795" lon="-2.47578">
        <ele>27.7</ele>
        <time>2024-12-19T13:08:46Z</time>
      </trkpt>
      <trkpt lat="47.90795" lon="-2.47579">
        <ele>27.7</ele>
        <time>2024-12-19T13:08:47Z</time>
      </trkpt>
      <trkpt lat="47.90795" lon="-2.47581">
        <ele>27.6</ele>
        <time>2024-12-19T13:08:48Z</time>
      </trkpt>
      <trkpt lat="47.90795" lon="-2.47582">
        <ele>27.6</ele>
        <time>2024-12-19T13:08:49Z</time>
      </trkpt>
      <trkpt lat="47.90796" lon="-2.47584">
        <ele>27.6</ele>
        <time>2024-12-19T13:08:50Z</time>
      </trkpt>
      <trkpt lat="47.90796" lon="-2.47585">
        <ele>27.5</ele>
        <time>2024-12-19T13:08:51Z</time>
      </trkpt>
      <trkpt lat="47.90797" lon="-2.47587">
        <ele>27.4</ele>
        <time>2024-12-19T13:08:52Z</time>
      </trkpt>
      <trkpt lat="47.90798" lon="-2.47588">
        <ele>27.5</ele>
        <time>2024-12-19T13:08:53Z</time>
      </trkpt>
      <trkpt lat="47.90799" lon="-2.47589">
        <ele>27.5</ele>
        <time>2024-12-19T13:08:54Z</time>
      </trkpt>
      <trkpt lat="47.908" lon="-2.4759">
        <ele>27.4</ele>
        <time>2024-12-19T13:08:55Z</time>
      </trkpt>
      <trkpt lat="47.90801" lon="-2.47592">
        <ele>27.3</ele>
        <time>2024-12-19T13:08:56Z</time>
      </trkpt>
      <trkpt lat="47.90802" lon="-2.47593">
        <ele>27.2</ele>
        <time>2024-12-19T13:08:57Z</time>
      </trkpt>
      <trkpt lat="47.90802" lon="-2.47595">
        <ele>27</ele>
        <time>2024-12-19T13:08:58Z</time>
      </trkpt>
      <trkpt lat="47.90803" lon="-2.47597">
        <ele>26.8</ele>
        <time>2024-12-19T13:08:59Z</time>
      </trkpt>
      <trkpt lat="47.90803" lon="-2.47599">
        <ele>26.6</ele>
        <time>2024-12-19T13:09:00Z</time>
      </trkpt>
      <trkpt lat="47.90803" lon="-2.476">
        <ele>26.4</ele>
        <time>2024-12-19T13:09:01Z</time>
      </trkpt>
      <trkpt lat="47.90803" lon="-2.47601">
        <ele>26.3</ele>
        <time>2024-12-19T13:09:02Z</time>
      </trkpt>
      <trkpt lat="47.90804" lon="-2.47602">
        <ele>26.2</ele>
        <time>2024-12-19T13:09:03Z</time>
      </trkpt>
      <trkpt lat="47.90804" lon="-2.47603">
        <ele>26</ele>
        <time>2024-12-19T13:09:04Z</time>
      </trkpt>
      <trkpt lat="47.90805" lon="-2.47605">
        <ele>25.9</ele>
        <time>2024-12-19T13:09:05Z</time>
      </trkpt>
      <trkpt lat="47.90805" lon="-2.47607">
        <ele>25.6</ele>
        <time>2024-12-19T13:09:06Z</time>
      </trkpt>
      <trkpt lat="47.90806" lon="-2.47608">
        <ele>25.6</ele>
        <time>2024-12-19T13:09:07Z</time>
      </trkpt>
      <trkpt lat="47.90808" lon="-2.47609">
        <ele>25.6</ele>
        <time>2024-12-19T13:09:08Z</time>
      </trkpt>
      <trkpt lat="47.90809" lon="-2.4761">
        <ele>25.7</ele>
        <time>2024-12-19T13:09:09Z</time>
      </trkpt>
      <trkpt lat="47.90809" lon="-2.47611">
        <ele>25.7</ele>
        <time>2024-12-19T13:09:10Z</time>
      </trkpt>
      <trkpt lat="47.9081" lon="-2.47613">
        <ele>25.8</ele>
        <time>2024-12-19T13:09:11Z</time>
      </trkpt>
      <trkpt lat="47.9081" lon="-2.47614">
        <ele>25.9</ele>
        <time>2024-12-19T13:09:12Z</time>
      </trkpt>
      <trkpt lat="47.90812" lon="-2.47614">
        <ele>26.1</ele>
        <time>2024-12-19T13:09:13Z</time>
      </trkpt>
      <trkpt lat="47.90812" lon="-2.47615">
        <ele>26.2</ele>
        <time>2024-12-19T13:09:14Z</time>
      </trkpt>
      <trkpt lat="47.90812" lon="-2.47616">
        <ele>26.2</ele>
        <time>2024-12-19T13:09:15Z</time>
      </trkpt>
      <trkpt lat="47.90813" lon="-2.47618">
        <ele>26.3</ele>
        <time>2024-12-19T13:09:16Z</time>
      </trkpt>
      <trkpt lat="47.90814" lon="-2.4762">
        <ele>26.3</ele>
        <time>2024-12-19T13:09:17Z</time>
      </trkpt>
      <trkpt lat="47.90814" lon="-2.47622">
        <ele>26.4</ele>
        <time>2024-12-19T13:09:18Z</time>
      </trkpt>
      <trkpt lat="47.90814" lon="-2.47624">
        <ele>26.4</ele>
        <time>2024-12-19T13:09:19Z</time>
      </trkpt>
      <trkpt lat="47.90815" lon="-2.47625">
        <ele>26.5</ele>
        <time>2024-12-19T13:09:20Z</time>
      </trkpt>
      <trkpt lat="47.90816" lon="-2.47627">
        <ele>26.6</ele>
        <time>2024-12-19T13:09:21Z</time>
      </trkpt>
      <trkpt lat="47.90816" lon="-2.47628">
        <ele>26.6</ele>
        <time>2024-12-19T13:09:22Z</time>
      </trkpt>
      <trkpt lat="47.90816" lon="-2.4763">
        <ele>26.7</ele>
        <time>2024-12-19T13:09:23Z</time>
      </trkpt>
      <trkpt lat="47.90817" lon="-2.47632">
        <ele>26.7</ele>
        <time>2024-12-19T13:09:24Z</time>
      </trkpt>
      <trkpt lat="47.90818" lon="-2.47634">
        <ele>26.8</ele>
        <time>2024-12-19T13:09:25Z</time>
      </trkpt>
      <trkpt lat="47.90818" lon="-2.47636">
        <ele>26.9</ele>
        <time>2024-12-19T13:09:26Z</time>
      </trkpt>
      <trkpt lat="47.90819" lon="-2.47637">
        <ele>27</ele>
        <time>2024-12-19T13:09:27Z</time>
      </trkpt>
      <trkpt lat="47.9082" lon="-2.47639">
        <ele>27</ele>
        <time>2024-12-19T13:09:28Z</time>
      </trkpt>
      <trkpt lat="47.9082" lon="-2.47642">
        <ele>27.1</ele>
        <time>2024-12-19T13:09:29Z</time>
      </trkpt>
      <trkpt lat="47.9082" lon="-2.47644">
        <ele>27.1</ele>
        <time>2024-12-19T13:09:30Z</time>
      </trkpt>
      <trkpt lat="47.90821" lon="-2.47646">
        <ele>27.2</ele>
        <time>2024-12-19T13:09:31Z</time>
      </trkpt>
      <trkpt lat="47.90821" lon="-2.47648">
        <ele>27.2</ele>
        <time>2024-12-19T13:09:32Z</time>
      </trkpt>
      <trkpt lat="47.90821" lon="-2.47649">
        <ele>27.3</ele>
        <time>2024-12-19T13:09:33Z</time>
      </trkpt>
      <trkpt lat="47.90822" lon="-2.47651">
        <ele>27.3</ele>
        <time>2024-12-19T13:09:34Z</time>
      </trkpt>
      <trkpt lat="47.90822" lon="-2.47653">
        <ele>27.4</ele>
        <time>2024-12-19T13:09:35Z</time>
      </trkpt>
      <trkpt lat="47.90823" lon="-2.47655">
        <ele>27.4</ele>
        <time>2024-12-19T13:09:36Z</time>
      </trkpt>
      <trkpt lat="47.90823" lon="-2.47657">
        <ele>27.5</ele>
        <time>2024-12-19T13:09:37Z</time>
      </trkpt>
      <trkpt lat="47.90823" lon="-2.47659">
        <ele>27.6</ele>
        <time>2024-12-19T13:09:38Z</time>
      </trkpt>
      <trkpt lat="47.90824" lon="-2.47661">
        <ele>27.6</ele>
        <time>2024-12-19T13:09:39Z</time>
      </trkpt>
      <trkpt lat="47.90824" lon="-2.47662">
        <ele>27.7</ele>
        <time>2024-12-19T13:09:40Z</time>
      </trkpt>
      <trkpt lat="47.90825" lon="-2.47664">
        <ele>27.8</ele>
        <time>2024-12-19T13:09:41Z</time>
      </trkpt>
      <trkpt lat="47.90826" lon="-2.47666">
        <ele>27.9</ele>
        <time>2024-12-19T13:09:42Z</time>
      </trkpt>
      <trkpt lat="47.90826" lon="-2.47667">
        <ele>27.9</ele>
        <time>2024-12-19T13:09:43Z</time>
      </trkpt>
      <trkpt lat="47.90826" lon="-2.47668">
        <ele>27.9</ele>
        <time>2024-12-19T13:09:44Z</time>
      </trkpt>
      <trkpt lat="47.90827" lon="-2.47669">
        <ele>28</ele>
        <time>2024-12-19T13:09:45Z</time>
      </trkpt>
      <trkpt lat="47.90828" lon="-2.47671">
        <ele>28</ele>
        <time>2024-12-19T13:09:46Z</time>
      </trkpt>
      <trkpt lat="47.90829" lon="-2.47673">
        <ele>28</ele>
        <time>2024-12-19T13:09:47Z</time>
      </trkpt>
      <trkpt lat="47.9083" lon="-2.47675">
        <ele>28</ele>
        <time>2024-12-19T13:09:48Z</time>
      </trkpt>
      <trkpt lat="47.9083" lon="-2.47677">
        <ele>27.9</ele>
        <time>2024-12-19T13:09:49Z</time>
      </trkpt>
      <trkpt lat="47.90831" lon="-2.47678">
        <ele>27.9</ele>
        <time>2024-12-19T13:09:50Z</time>
      </trkpt>
      <trkpt lat="47.90831" lon="-2.47679">
        <ele>27.8</ele>
        <time>2024-12-19T13:09:51Z</time>
      </trkpt>
      <trkpt lat="47.90832" lon="-2.47681">
        <ele>27.8</ele>
        <time>2024-12-19T13:09:52Z</time>
      </trkpt>
      <trkpt lat="47.90832" lon="-2.47682">
        <ele>27.8</ele>
        <time>2024-12-19T13:09:53Z</time>
      </trkpt>
      <trkpt lat="47.90833" lon="-2.47684">
        <ele>27.7</ele>
        <time>2024-12-19T13:09:54Z</time>
      </trkpt>
      <trkpt lat="47.90833" lon="-2.47686">
        <ele>27.6</ele>
        <time>2024-12-19T13:09:55Z</time>
      </trkpt>
      <trkpt lat="47.90834" lon="-2.47687">
        <ele>27.6</ele>
        <time>2024-12-19T13:09:56Z</time>
      </trkpt>
      <trkpt lat="47.90834" lon="-2.47688">
        <ele>27.5</ele>
        <time>2024-12-19T13:09:57Z</time>
      </trkpt>
      <trkpt lat="47.90835" lon="-2.4769">
        <ele>27.5</ele>
        <time>2024-12-19T13:09:58Z</time>
      </trkpt>
      <trkpt lat="47.90836" lon="-2.47691">
        <ele>27.4</ele>
        <time>2024-12-19T13:09:59Z</time>
      </trkpt>
      <trkpt lat="47.90836" lon="-2.47692">
        <ele>27.4</ele>
        <time>2024-12-19T13:10:00Z</time>
      </trkpt>
      <trkpt lat="47.90837" lon="-2.47694">
        <ele>27.3</ele>
        <time>2024-12-19T13:10:01Z</time>
      </trkpt>
      <trkpt lat="47.90837" lon="-2.47696">
        <ele>27.2</ele>
        <time>2024-12-19T13:10:02Z</time>
      </trkpt>
      <trkpt lat="47.90838" lon="-2.47698">
        <ele>27.2</ele>
        <time>2024-12-19T13:10:03Z</time>
      </trkpt>
      <trkpt lat="47.90838" lon="-2.477">
        <ele>27.2</ele>
        <time>2024-12-19T13:10:04Z</time>
      </trkpt>
      <trkpt lat="47.90839" lon="-2.47702">
        <ele>27.2</ele>
        <time>2024-12-19T13:10:05Z</time>
      </trkpt>
      <trkpt lat="47.90839" lon="-2.47704">
        <ele>27.2</ele>
        <time>2024-12-19T13:10:06Z</time>
      </trkpt>
      <trkpt lat="47.9084" lon="-2.47706">
        <ele>27.2</ele>
        <time>2024-12-19T13:10:07Z</time>
      </trkpt>
      <trkpt lat="47.90841" lon="-2.47708">
        <ele>27.2</ele>
        <time>2024-12-19T13:10:08Z</time>
      </trkpt>
      <trkpt lat="47.90842" lon="-2.4771">
        <ele>27.2</ele>
        <time>2024-12-19T13:10:09Z</time>
      </trkpt>
      <trkpt lat="47.90842" lon="-2.47712">
        <ele>27.2</ele>
        <time>2024-12-19T13:10:10Z</time>
      </trkpt>
      <trkpt lat="47.90843" lon="-2.47713">
        <ele>27.3</ele>
        <time>2024-12-19T13:10:11Z</time>
      </trkpt>
      <trkpt lat="47.90844" lon="-2.47714">
        <ele>27.3</ele>
        <time>2024-12-19T13:10:12Z</time>
      </trkpt>
      <trkpt lat="47.90845" lon="-2.47716">
        <ele>27.4</ele>
        <time>2024-12-19T13:10:13Z</time>
      </trkpt>
      <trkpt lat="47.90846" lon="-2.47718">
        <ele>27.4</ele>
        <time>2024-12-19T13:10:14Z</time>
      </trkpt>
      <trkpt lat="47.90847" lon="-2.47719">
        <ele>27.5</ele>
        <time>2024-12-19T13:10:15Z</time>
      </trkpt>
      <trkpt lat="47.90847" lon="-2.47722">
        <ele>27.5</ele>
        <time>2024-12-19T13:10:16Z</time>
      </trkpt>
      <trkpt lat="47.90848" lon="-2.47724">
        <ele>27.4</ele>
        <time>2024-12-19T13:10:17Z</time>
      </trkpt>
      <trkpt lat="47.90848" lon="-2.47726">
        <ele>27.3</ele>
        <time>2024-12-19T13:10:18Z</time>
      </trkpt>
      <trkpt lat="47.90848" lon="-2.47728">
        <ele>27.2</ele>
        <time>2024-12-19T13:10:19Z</time>
      </trkpt>
      <trkpt lat="47.90848" lon="-2.47729">
        <ele>27.2</ele>
        <time>2024-12-19T13:10:20Z</time>
      </trkpt>
      <trkpt lat="47.90848" lon="-2.47731">
        <ele>27.1</ele>
        <time>2024-12-19T13:10:21Z</time>
      </trkpt>
      <trkpt lat="47.90849" lon="-2.47732">
        <ele>27.1</ele>
        <time>2024-12-19T13:10:22Z</time>
      </trkpt>
      <trkpt lat="47.90849" lon="-2.47733">
        <ele>27.1</ele>
        <time>2024-12-19T13:10:23Z</time>
      </trkpt>
      <trkpt lat="47.9085" lon="-2.47735">
        <ele>27</ele>
        <time>2024-12-19T13:10:24Z</time>
      </trkpt>
      <trkpt lat="47.9085" lon="-2.47737">
        <ele>27</ele>
        <time>2024-12-19T13:10:25Z</time>
      </trkpt>
      <trkpt lat="47.90851" lon="-2.47739">
        <ele>26.9</ele>
        <time>2024-12-19T13:10:26Z</time>
      </trkpt>
      <trkpt lat="47.90851" lon="-2.4774">
        <ele>26.9</ele>
        <time>2024-12-19T13:10:27Z</time>
      </trkpt>
      <trkpt lat="47.90851" lon="-2.47741">
        <ele>26.8</ele>
        <time>2024-12-19T13:10:28Z</time>
      </trkpt>
      <trkpt lat="47.90852" lon="-2.47742">
        <ele>26.8</ele>
        <time>2024-12-19T13:10:29Z</time>
      </trkpt>
      <trkpt lat="47.90852" lon="-2.47744">
        <ele>26.7</ele>
        <time>2024-12-19T13:10:30Z</time>
      </trkpt>
      <trkpt lat="47.90852" lon="-2.47746">
        <ele>26.6</ele>
        <time>2024-12-19T13:10:31Z</time>
      </trkpt>
      <trkpt lat="47.90852" lon="-2.47748">
        <ele>26.5</ele>
        <time>2024-12-19T13:10:32Z</time>
      </trkpt>
      <trkpt lat="47.90852" lon="-2.47749">
        <ele>26.4</ele>
        <time>2024-12-19T13:10:33Z</time>
      </trkpt>
      <trkpt lat="47.90853" lon="-2.47751">
        <ele>26.4</ele>
        <time>2024-12-19T13:10:34Z</time>
      </trkpt>
      <trkpt lat="47.90855" lon="-2.47753">
        <ele>26.4</ele>
        <time>2024-12-19T13:10:35Z</time>
      </trkpt>
      <trkpt lat="47.90856" lon="-2.47754">
        <ele>26.4</ele>
        <time>2024-12-19T13:10:36Z</time>
      </trkpt>
      <trkpt lat="47.90857" lon="-2.47755">
        <ele>26.4</ele>
        <time>2024-12-19T13:10:37Z</time>
      </trkpt>
      <trkpt lat="47.90858" lon="-2.47755">
        <ele>26.4</ele>
        <time>2024-12-19T13:10:38Z</time>
      </trkpt>
      <trkpt lat="47.90859" lon="-2.47756">
        <ele>26.4</ele>
        <time>2024-12-19T13:10:39Z</time>
      </trkpt>
      <trkpt lat="47.90859" lon="-2.47758">
        <ele>26.3</ele>
        <time>2024-12-19T13:10:40Z</time>
      </trkpt>
      <trkpt lat="47.90859" lon="-2.4776">
        <ele>26.2</ele>
        <time>2024-12-19T13:10:41Z</time>
      </trkpt>
      <trkpt lat="47.9086" lon="-2.47761">
        <ele>26.2</ele>
        <time>2024-12-19T13:10:42Z</time>
      </trkpt>
      <trkpt lat="47.9086" lon="-2.47762">
        <ele>26.1</ele>
        <time>2024-12-19T13:10:43Z</time>
      </trkpt>
      <trkpt lat="47.90861" lon="-2.47763">
        <ele>26.1</ele>
        <time>2024-12-19T13:10:44Z</time>
      </trkpt>
      <trkpt lat="47.90862" lon="-2.47764">
        <ele>26</ele>
        <time>2024-12-19T13:10:45Z</time>
      </trkpt>
      <trkpt lat="47.90863" lon="-2.47766">
        <ele>26</ele>
        <time>2024-12-19T13:10:46Z</time>
      </trkpt>
      <trkpt lat="47.90864" lon="-2.47767">
        <ele>25.9</ele>
        <time>2024-12-19T13:10:47Z</time>
      </trkpt>
      <trkpt lat="47.90866" lon="-2.47769">
        <ele>25.9</ele>
        <time>2024-12-19T13:10:48Z</time>
      </trkpt>
      <trkpt lat="47.90867" lon="-2.4777">
        <ele>25.9</ele>
        <time>2024-12-19T13:10:49Z</time>
      </trkpt>
      <trkpt lat="47.90868" lon="-2.47771">
        <ele>25.9</ele>
        <time>2024-12-19T13:10:50Z</time>
      </trkpt>
      <trkpt lat="47.9087" lon="-2.47772">
        <ele>26</ele>
        <time>2024-12-19T13:10:51Z</time>
      </trkpt>
      <trkpt lat="47.90871" lon="-2.47772">
        <ele>26</ele>
        <time>2024-12-19T13:10:52Z</time>
      </trkpt>
      <trkpt lat="47.90871" lon="-2.47773">
        <ele>26</ele>
        <time>2024-12-19T13:10:53Z</time>
      </trkpt>
      <trkpt lat="47.90871" lon="-2.47773">
        <ele>26</ele>
        <time>2024-12-19T13:10:54Z</time>
      </trkpt>
      <trkpt lat="47.90872" lon="-2.47774">
        <ele>26</ele>
        <time>2024-12-19T13:10:55Z</time>
      </trkpt>
      <trkpt lat="47.90872" lon="-2.47774">
        <ele>26</ele>
        <time>2024-12-19T13:10:56Z</time>
      </trkpt>
      <trkpt lat="47.90872" lon="-2.47774">
        <ele>26</ele>
        <time>2024-12-19T13:10:57Z</time>
      </trkpt>
      <trkpt lat="47.90871" lon="-2.47775">
        <ele>25.9</ele>
        <time>2024-12-19T13:10:58Z</time>
      </trkpt>
      <trkpt lat="47.90871" lon="-2.47775">
        <ele>25.9</ele>
        <time>2024-12-19T13:10:59Z</time>
      </trkpt>
      <trkpt lat="47.90871" lon="-2.47776">
        <ele>25.8</ele>
        <time>2024-12-19T13:11:01Z</time>
      </trkpt>
      <trkpt lat="47.90871" lon="-2.47776">
        <ele>25.8</ele>
        <time>2024-12-19T13:11:02Z</time>
      </trkpt>
      <trkpt lat="47.90871" lon="-2.47776">
        <ele>25.8</ele>
        <time>2024-12-19T13:11:03Z</time>
      </trkpt>
      <trkpt lat="47.90871" lon="-2.47776">
        <ele>25.8</ele>
        <time>2024-12-19T13:11:04Z</time>
      </trkpt>
      <trkpt lat="47.90871" lon="-2.47776">
        <ele>25.8</ele>
        <time>2024-12-19T13:11:05Z</time>
      </trkpt>
      <trkpt lat="47.90871" lon="-2.47777">
        <ele>25.8</ele>
        <time>2024-12-19T13:11:06Z</time>
      </trkpt>
      <trkpt lat="47.90871" lon="-2.47777">
        <ele>25.8</ele>
        <time>2024-12-19T13:11:07Z</time>
      </trkpt>
      <trkpt lat="47.90871" lon="-2.47777">
        <ele>25.8</ele>
        <time>2024-12-19T13:11:08Z</time>
      </trkpt>
      <trkpt lat="47.90871" lon="-2.47777">
        <ele>25.8</ele>
        <time>2024-12-19T13:11:09Z</time>
      </trkpt>
      <trkpt lat="47.90871" lon="-2.47777">
        <ele>25.8</ele>
        <time>2024-12-19T13:11:10Z</time>
      </trkpt>
      <trkpt lat="47.90871" lon="-2.47777">
        <ele>25.8</ele>
        <time>2024-12-19T13:11:11Z</time>
      </trkpt>
      <trkpt lat="47.90871" lon="-2.47777">
        <ele>25.8</ele>
        <time>2024-12-19T13:11:12Z</time>
      </trkpt>
      <trkpt lat="47.90871" lon="-2.47777">
        <ele>25.8</ele>
        <time>2024-12-19T13:11:13Z</time>
      </trkpt>
      <trkpt lat="47.90871" lon="-2.47777">
        <ele>25.8</ele>
        <time>2024-12-19T13:11:14Z</time>
      </trkpt>
      <trkpt lat="47.90871" lon="-2.47777">
        <ele>25.8</ele>
        <time>2024-12-19T13:11:15Z</time>
      </trkpt>
      <trkpt lat="47.90871" lon="-2.47777">
        <ele>25.8</ele>
        <time>2024-12-19T13:11:16Z</time>
      </trkpt>
      <trkpt lat="47.90871" lon="-2.47777">
        <ele>25.8</ele>
        <time>2024-12-19T13:11:17Z</time>
      </trkpt>
      <trkpt lat="47.90871" lon="-2.47777">
        <ele>25.8</ele>
        <time>2024-12-19T13:11:18Z</time>
      </trkpt>
      <trkpt lat="47.90871" lon="-2.47777">
        <ele>25.8</ele>
        <time>2024-12-19T13:11:19Z</time>
      </trkpt>
      <trkpt lat="47.90871" lon="-2.47777">
        <ele>25.8</ele>
        <time>2024-12-19T13:11:20Z</time>
      </trkpt>
      <trkpt lat="47.90871" lon="-2.47777">
        <ele>25.8</ele>
        <time>2024-12-19T13:11:21Z</time>
      </trkpt>
      <trkpt lat="47.90871" lon="-2.47777">
        <ele>25.8</ele>
        <time>2024-12-19T13:11:22Z</time>
      </trkpt>
      <trkpt lat="47.90871" lon="-2.47777">
        <ele>25.8</ele>
        <time>2024-12-19T13:11:23Z</time>
      </trkpt>
      <trkpt lat="47.90871" lon="-2.47777">
        <ele>25.8</ele>
        <time>2024-12-19T13:11:24Z</time>
      </trkpt>
      <trkpt lat="47.90871" lon="-2.47777">
        <ele>25.8</ele>
        <time>2024-12-19T13:11:25Z</time>
      </trkpt>
      <trkpt lat="47.90871" lon="-2.47777">
        <ele>25.8</ele>
        <time>2024-12-19T13:11:26Z</time>
      </trkpt>
      <trkpt lat="47.90871" lon="-2.47777">
        <ele>25.8</ele>
        <time>2024-12-19T13:11:27Z</time>
      </trkpt>
      <trkpt lat="47.90871" lon="-2.47777">
        <ele>25.8</ele>
        <time>2024-12-19T13:11:28Z</time>
      </trkpt>
      <trkpt lat="47.90871" lon="-2.47777">
        <ele>25.8</ele>
        <time>2024-12-19T13:11:29Z</time>
      </trkpt>
      <trkpt lat="47.90871" lon="-2.47777">
        <ele>25.8</ele>
        <time>2024-12-19T13:11:30Z</time>
      </trkpt>
      <trkpt lat="47.90871" lon="-2.47777">
        <ele>25.8</ele>
        <time>2024-12-19T13:11:31Z</time>
      </trkpt>
      <trkpt lat="47.90871" lon="-2.47777">
        <ele>25.8</ele>
        <time>2024-12-19T13:11:32Z</time>
      </trkpt>
      <trkpt lat="47.90871" lon="-2.47777">
        <ele>25.8</ele>
        <time>2024-12-19T13:11:33Z</time>
      </trkpt>
      <trkpt lat="47.90871" lon="-2.47777">
        <ele>25.8</ele>
        <time>2024-12-19T13:11:34Z</time>
      </trkpt>
      <trkpt lat="47.90871" lon="-2.47777">
        <ele>25.8</ele>
        <time>2024-12-19T13:11:35Z</time>
      </trkpt>
      <trkpt lat="47.90871" lon="-2.47777">
        <ele>25.8</ele>
        <time>2024-12-19T13:11:36Z</time>
      </trkpt>
      <trkpt lat="47.90871" lon="-2.47777">
        <ele>25.8</ele>
        <time>2024-12-19T13:11:37Z</time>
      </trkpt>
      <trkpt lat="47.90871" lon="-2.47777">
        <ele>25.8</ele>
        <time>2024-12-19T13:11:38Z</time>
      </trkpt>
      <trkpt lat="47.90871" lon="-2.47777">
        <ele>25.8</ele>
        <time>2024-12-19T13:11:39Z</time>
      </trkpt>
      <trkpt lat="47.90871" lon="-2.47777">
        <ele>25.8</ele>
        <time>2024-12-19T13:11:40Z</time>
      </trkpt>
      <trkpt lat="47.9087" lon="-2.47777">
        <ele>25.7</ele>
        <time>2024-12-19T13:11:41Z</time>
      </trkpt>
      <trkpt lat="47.90869" lon="-2.47777">
        <ele>25.6</ele>
        <time>2024-12-19T13:11:42Z</time>
      </trkpt>
      <trkpt lat="47.90868" lon="-2.47777">
        <ele>25.6</ele>
        <time>2024-12-19T13:11:43Z</time>
      </trkpt>
      <trkpt lat="47.90867" lon="-2.47776">
        <ele>25.5</ele>
        <time>2024-12-19T13:11:44Z</time>
      </trkpt>
      <trkpt lat="47.90867" lon="-2.47775">
        <ele>25.6</ele>
        <time>2024-12-19T13:11:45Z</time>
      </trkpt>
      <trkpt lat="47.90868" lon="-2.47775">
        <ele>25.6</ele>
        <time>2024-12-19T13:11:46Z</time>
      </trkpt>
      <trkpt lat="47.90868" lon="-2.47775">
        <ele>25.7</ele>
        <time>2024-12-19T13:11:47Z</time>
      </trkpt>
      <trkpt lat="47.90868" lon="-2.47776">
        <ele>25.6</ele>
        <time>2024-12-19T13:11:48Z</time>
      </trkpt>
      <trkpt lat="47.90868" lon="-2.47776">
        <ele>25.6</ele>
        <time>2024-12-19T13:11:49Z</time>
      </trkpt>
      <trkpt lat="47.90868" lon="-2.47776">
        <ele>25.6</ele>
        <time>2024-12-19T13:11:50Z</time>
      </trkpt>
      <trkpt lat="47.90868" lon="-2.47776">
        <ele>25.6</ele>
        <time>2024-12-19T13:11:51Z</time>
      </trkpt>
      <trkpt lat="47.90868" lon="-2.47776">
        <ele>25.6</ele>
        <time>2024-12-19T13:11:52Z</time>
      </trkpt>
      <trkpt lat="47.90868" lon="-2.47776">
        <ele>25.5</ele>
        <time>2024-12-19T13:11:53Z</time>
      </trkpt>
      <trkpt lat="47.90868" lon="-2.47777">
        <ele>25.5</ele>
        <time>2024-12-19T13:11:54Z</time>
      </trkpt>
      <trkpt lat="47.90867" lon="-2.47777">
        <ele>25.5</ele>
        <time>2024-12-19T13:11:55Z</time>
      </trkpt>
      <trkpt lat="47.90867" lon="-2.47777">
        <ele>25.5</ele>
        <time>2024-12-19T13:11:56Z</time>
      </trkpt>
      <trkpt lat="47.90867" lon="-2.47777">
        <ele>25.5</ele>
        <time>2024-12-19T13:11:57Z</time>
      </trkpt>
      <trkpt lat="47.90867" lon="-2.47777">
        <ele>25.5</ele>
        <time>2024-12-19T13:11:58Z</time>
      </trkpt>
      <trkpt lat="47.90867" lon="-2.47777">
        <ele>25.5</ele>
        <time>2024-12-19T13:11:59Z</time>
      </trkpt>
      <trkpt lat="47.90867" lon="-2.47777">
        <ele>25.5</ele>
        <time>2024-12-19T13:12:00Z</time>
      </trkpt>
      <trkpt lat="47.90867" lon="-2.47777">
        <ele>25.5</ele>
        <time>2024-12-19T13:12:01Z</time>
      </trkpt>
      <trkpt lat="47.90867" lon="-2.47777">
        <ele>25.5</ele>
        <time>2024-12-19T13:12:02Z</time>
      </trkpt>
      <trkpt lat="47.90867" lon="-2.47777">
        <ele>25.5</ele>
        <time>2024-12-19T13:12:03Z</time>
      </trkpt>
      <trkpt lat="47.90867" lon="-2.47777">
        <ele>25.5</ele>
        <time>2024-12-19T13:12:04Z</time>
      </trkpt>
      <trkpt lat="47.90867" lon="-2.47777">
        <ele>25.5</ele>
        <time>2024-12-19T13:12:05Z</time>
      </trkpt>
      <trkpt lat="47.90867" lon="-2.47777">
        <ele>25.5</ele>
        <time>2024-12-19T13:12:06Z</time>
      </trkpt>
      <trkpt lat="47.90867" lon="-2.47777">
        <ele>25.5</ele>
        <time>2024-12-19T13:12:07Z</time>
      </trkpt>
      <trkpt lat="47.90867" lon="-2.47777">
        <ele>25.5</ele>
        <time>2024-12-19T13:12:08Z</time>
      </trkpt>
      <trkpt lat="47.90867" lon="-2.47777">
        <ele>25.5</ele>
        <time>2024-12-19T13:12:09Z</time>
      </trkpt>
      <trkpt lat="47.90867" lon="-2.47777">
        <ele>25.5</ele>
        <time>2024-12-19T13:12:10Z</time>
      </trkpt>
      <trkpt lat="47.90867" lon="-2.47777">
        <ele>25.5</ele>
        <time>2024-12-19T13:12:11Z</time>
      </trkpt>
      <trkpt lat="47.90867" lon="-2.47777">
        <ele>25.5</ele>
        <time>2024-12-19T13:12:12Z</time>
      </trkpt>
      <trkpt lat="47.90867" lon="-2.47777">
        <ele>25.5</ele>
        <time>2024-12-19T13:12:13Z</time>
      </trkpt>
      <trkpt lat="47.90867" lon="-2.47777">
        <ele>25.5</ele>
        <time>2024-12-19T13:12:14Z</time>
      </trkpt>
      <trkpt lat="47.90867" lon="-2.47777">
        <ele>25.5</ele>
        <time>2024-12-19T13:12:15Z</time>
      </trkpt>
      <trkpt lat="47.90867" lon="-2.47777">
        <ele>25.5</ele>
        <time>2024-12-19T13:12:16Z</time>
      </trkpt>
      <trkpt lat="47.90867" lon="-2.47777">
        <ele>25.5</ele>
        <time>2024-12-19T13:12:17Z</time>
      </trkpt>
      <trkpt lat="47.90867" lon="-2.47777">
        <ele>25.5</ele>
        <time>2024-12-19T13:12:18Z</time>
      </trkpt>
      <trkpt lat="47.90867" lon="-2.47777">
        <ele>25.5</ele>
        <time>2024-12-19T13:12:19Z</time>
      </trkpt>
      <trkpt lat="47.90867" lon="-2.47777">
        <ele>25.5</ele>
        <time>2024-12-19T13:12:20Z</time>
      </trkpt>
      <trkpt lat="47.90867" lon="-2.47777">
        <ele>25.5</ele>
        <time>2024-12-19T13:12:21Z</time>
      </trkpt>
      <trkpt lat="47.90867" lon="-2.47777">
        <ele>25.5</ele>
        <time>2024-12-19T13:12:22Z</time>
      </trkpt>
      <trkpt lat="47.90867" lon="-2.47777">
        <ele>25.5</ele>
        <time>2024-12-19T13:12:23Z</time>
      </trkpt>
      <trkpt lat="47.90867" lon="-2.47777">
        <ele>25.5</ele>
        <time>2024-12-19T13:12:24Z</time>
      </trkpt>
      <trkpt lat="47.90867" lon="-2.47777">
        <ele>25.5</ele>
        <time>2024-12-19T13:12:25Z</time>
      </trkpt>
      <trkpt lat="47.90867" lon="-2.47777">
        <ele>25.5</ele>
        <time>2024-12-19T13:12:26Z</time>
      </trkpt>
      <trkpt lat="47.90867" lon="-2.47777">
        <ele>25.5</ele>
        <time>2024-12-19T13:12:27Z</time>
      </trkpt>
      <trkpt lat="47.90867" lon="-2.47777">
        <ele>25.5</ele>
        <time>2024-12-19T13:12:28Z</time>
      </trkpt>
      <trkpt lat="47.90867" lon="-2.47777">
        <ele>25.5</ele>
        <time>2024-12-19T13:12:29Z</time>
      </trkpt>
      <trkpt lat="47.90867" lon="-2.47777">
        <ele>25.5</ele>
        <time>2024-12-19T13:12:30Z</time>
      </trkpt>
      <trkpt lat="47.90867" lon="-2.47777">
        <ele>25.5</ele>
        <time>2024-12-19T13:12:31Z</time>
      </trkpt>
      <trkpt lat="47.90867" lon="-2.47777">
        <ele>25.5</ele>
        <time>2024-12-19T13:12:32Z</time>
      </trkpt>
      <trkpt lat="47.90867" lon="-2.47777">
        <ele>25.5</ele>
        <time>2024-12-19T13:12:33Z</time>
      </trkpt>
      <trkpt lat="47.90867" lon="-2.47777">
        <ele>25.5</ele>
        <time>2024-12-19T13:12:34Z</time>
      </trkpt>
      <trkpt lat="47.90867" lon="-2.47777">
        <ele>25.5</ele>
        <time>2024-12-19T13:12:35Z</time>
      </trkpt>
      <trkpt lat="47.90867" lon="-2.47777">
        <ele>25.5</ele>
        <time>2024-12-19T13:12:36Z</time>
      </trkpt>
      <trkpt lat="47.90867" lon="-2.47777">
        <ele>25.5</ele>
        <time>2024-12-19T13:12:37Z</time>
      </trkpt>
      <trkpt lat="47.90867" lon="-2.47777">
        <ele>25.5</ele>
        <time>2024-12-19T13:12:38Z</time>
      </trkpt>
      <trkpt lat="47.90867" lon="-2.47777">
        <ele>25.5</ele>
        <time>2024-12-19T13:12:39Z</time>
      </trkpt>
      <trkpt lat="47.90867" lon="-2.47777">
        <ele>25.5</ele>
        <time>2024-12-19T13:12:40Z</time>
      </trkpt>
      <trkpt lat="47.90867" lon="-2.47777">
        <ele>25.5</ele>
        <time>2024-12-19T13:12:41Z</time>
      </trkpt>
      <trkpt lat="47.90867" lon="-2.47777">
        <ele>25.5</ele>
        <time>2024-12-19T13:12:42Z</time>
      </trkpt>
      <trkpt lat="47.90867" lon="-2.47777">
        <ele>25.5</ele>
        <time>2024-12-19T13:12:43Z</time>
      </trkpt>
      <trkpt lat="47.90867" lon="-2.47777">
        <ele>25.5</ele>
        <time>2024-12-19T13:12:44Z</time>
      </trkpt>
      <trkpt lat="47.90867" lon="-2.47777">
        <ele>25.5</ele>
        <time>2024-12-19T13:12:45Z</time>
      </trkpt>
      <trkpt lat="47.90867" lon="-2.47777">
        <ele>25.5</ele>
        <time>2024-12-19T13:12:46Z</time>
      </trkpt>
      <trkpt lat="47.90867" lon="-2.47777">
        <ele>25.5</ele>
        <time>2024-12-19T13:12:47Z</time>
      </trkpt>
      <trkpt lat="47.90867" lon="-2.47777">
        <ele>25.5</ele>
        <time>2024-12-19T13:12:48Z</time>
      </trkpt>
      <trkpt lat="47.90867" lon="-2.47777">
        <ele>25.5</ele>
        <time>2024-12-19T13:12:49Z</time>
      </trkpt>
      <trkpt lat="47.90867" lon="-2.47777">
        <ele>25.5</ele>
        <time>2024-12-19T13:12:50Z</time>
      </trkpt>
      <trkpt lat="47.90867" lon="-2.47777">
        <ele>25.5</ele>
        <time>2024-12-19T13:12:51Z</time>
      </trkpt>
      <trkpt lat="47.90867" lon="-2.47777">
        <ele>25.5</ele>
        <time>2024-12-19T13:12:52Z</time>
      </trkpt>
      <trkpt lat="47.90868" lon="-2.47776">
        <ele>25.6</ele>
        <time>2024-12-19T13:12:53Z</time>
      </trkpt>
      <trkpt lat="47.90868" lon="-2.47776">
        <ele>25.6</ele>
        <time>2024-12-19T13:12:54Z</time>
      </trkpt>
      <trkpt lat="47.90869" lon="-2.47776">
        <ele>25.7</ele>
        <time>2024-12-19T13:12:55Z</time>
      </trkpt>
      <trkpt lat="47.9087" lon="-2.47776">
        <ele>25.7</ele>
        <time>2024-12-19T13:12:56Z</time>
      </trkpt>
      <trkpt lat="47.90871" lon="-2.47776">
        <ele>25.8</ele>
        <time>2024-12-19T13:12:57Z</time>
      </trkpt>
      <trkpt lat="47.9087" lon="-2.47776">
        <ele>25.7</ele>
        <time>2024-12-19T13:12:58Z</time>
      </trkpt>
      <trkpt lat="47.9087" lon="-2.47776">
        <ele>25.7</ele>
        <time>2024-12-19T13:12:59Z</time>
      </trkpt>
      <trkpt lat="47.9087" lon="-2.47777">
        <ele>25.7</ele>
        <time>2024-12-19T13:13:00Z</time>
      </trkpt>
      <trkpt lat="47.90869" lon="-2.47777">
        <ele>25.6</ele>
        <time>2024-12-19T13:13:01Z</time>
      </trkpt>
      <trkpt lat="47.90869" lon="-2.47777">
        <ele>25.6</ele>
        <time>2024-12-19T13:13:02Z</time>
      </trkpt>
      <trkpt lat="47.90869" lon="-2.47777">
        <ele>25.6</ele>
        <time>2024-12-19T13:13:03Z</time>
      </trkpt>
      <trkpt lat="47.9087" lon="-2.47777">
        <ele>25.6</ele>
        <time>2024-12-19T13:13:04Z</time>
      </trkpt>
      <trkpt lat="47.90869" lon="-2.47777">
        <ele>25.6</ele>
        <time>2024-12-19T13:13:05Z</time>
      </trkpt>
      <trkpt lat="47.90869" lon="-2.47777">
        <ele>25.6</ele>
        <time>2024-12-19T13:13:06Z</time>
      </trkpt>
      <trkpt lat="47.90869" lon="-2.47778">
        <ele>25.6</ele>
        <time>2024-12-19T13:13:07Z</time>
      </trkpt>
      <trkpt lat="47.90869" lon="-2.47778">
        <ele>25.6</ele>
        <time>2024-12-19T13:13:08Z</time>
      </trkpt>
      <trkpt lat="47.9087" lon="-2.47778">
        <ele>25.6</ele>
        <time>2024-12-19T13:13:09Z</time>
      </trkpt>
      <trkpt lat="47.9087" lon="-2.47778">
        <ele>25.6</ele>
        <time>2024-12-19T13:13:10Z</time>
      </trkpt>
      <trkpt lat="47.90871" lon="-2.47778">
        <ele>25.7</ele>
        <time>2024-12-19T13:13:11Z</time>
      </trkpt>
      <trkpt lat="47.90871" lon="-2.47777">
        <ele>25.7</ele>
        <time>2024-12-19T13:13:12Z</time>
      </trkpt>
      <trkpt lat="47.90871" lon="-2.47777">
        <ele>25.7</ele>
        <time>2024-12-19T13:13:13Z</time>
      </trkpt>
      <trkpt lat="47.90871" lon="-2.47777">
        <ele>25.7</ele>
        <time>2024-12-19T13:13:14Z</time>
      </trkpt>
      <trkpt lat="47.90871" lon="-2.47777">
        <ele>25.7</ele>
        <time>2024-12-19T13:13:15Z</time>
      </trkpt>
      <trkpt lat="47.90871" lon="-2.47777">
        <ele>25.7</ele>
        <time>2024-12-19T13:13:16Z</time>
      </trkpt>
      <trkpt lat="47.90871" lon="-2.47777">
        <ele>25.7</ele>
        <time>2024-12-19T13:13:17Z</time>
      </trkpt>
      <trkpt lat="47.90871" lon="-2.47777">
        <ele>25.7</ele>
        <time>2024-12-19T13:13:18Z</time>
      </trkpt>
      <trkpt lat="47.90871" lon="-2.47777">
        <ele>25.7</ele>
        <time>2024-12-19T13:13:19Z</time>
      </trkpt>
      <trkpt lat="47.90871" lon="-2.47777">
        <ele>25.8</ele>
        <time>2024-12-19T13:13:20Z</time>
      </trkpt>
      <trkpt lat="47.90871" lon="-2.47777">
        <ele>25.8</ele>
        <time>2024-12-19T13:13:21Z</time>
      </trkpt>
      <trkpt lat="47.90871" lon="-2.47777">
        <ele>25.8</ele>
        <time>2024-12-19T13:13:22Z</time>
      </trkpt>
      <trkpt lat="47.9087" lon="-2.47777">
        <ele>25.7</ele>
        <time>2024-12-19T13:13:23Z</time>
      </trkpt>
      <trkpt lat="47.9087" lon="-2.47777">
        <ele>25.7</ele>
        <time>2024-12-19T13:13:24Z</time>
      </trkpt>
      <trkpt lat="47.9087" lon="-2.47776">
        <ele>25.7</ele>
        <time>2024-12-19T13:13:25Z</time>
      </trkpt>
      <trkpt lat="47.9087" lon="-2.47776">
        <ele>25.7</ele>
        <time>2024-12-19T13:13:26Z</time>
      </trkpt>
      <trkpt lat="47.9087" lon="-2.47776">
        <ele>25.7</ele>
        <time>2024-12-19T13:13:27Z</time>
      </trkpt>
      <trkpt lat="47.9087" lon="-2.47776">
        <ele>25.7</ele>
        <time>2024-12-19T13:13:28Z</time>
      </trkpt>
      <trkpt lat="47.9087" lon="-2.47776">
        <ele>25.7</ele>
        <time>2024-12-19T13:13:29Z</time>
      </trkpt>
      <trkpt lat="47.90871" lon="-2.47777">
        <ele>25.7</ele>
        <time>2024-12-19T13:13:30Z</time>
      </trkpt>
      <trkpt lat="47.90871" lon="-2.47777">
        <ele>25.8</ele>
        <time>2024-12-19T13:13:31Z</time>
      </trkpt>
      <trkpt lat="47.90872" lon="-2.47776">
        <ele>25.8</ele>
        <time>2024-12-19T13:13:32Z</time>
      </trkpt>
      <trkpt lat="47.90873" lon="-2.47776">
        <ele>26</ele>
        <time>2024-12-19T13:13:33Z</time>
      </trkpt>
      <trkpt lat="47.90875" lon="-2.47776">
        <ele>26.1</ele>
        <time>2024-12-19T13:13:34Z</time>
      </trkpt>
      <trkpt lat="47.90876" lon="-2.47775">
        <ele>26.2</ele>
        <time>2024-12-19T13:13:35Z</time>
      </trkpt>
      <trkpt lat="47.90877" lon="-2.47775">
        <ele>26.3</ele>
        <time>2024-12-19T13:13:36Z</time>
      </trkpt>
      <trkpt lat="47.90879" lon="-2.47775">
        <ele>26.4</ele>
        <time>2024-12-19T13:13:37Z</time>
      </trkpt>
      <trkpt lat="47.90881" lon="-2.47775">
        <ele>26.5</ele>
        <time>2024-12-19T13:13:38Z</time>
      </trkpt>
      <trkpt lat="47.90882" lon="-2.47775">
        <ele>26.6</ele>
        <time>2024-12-19T13:13:39Z</time>
      </trkpt>
      <trkpt lat="47.90883" lon="-2.47776">
        <ele>26.6</ele>
        <time>2024-12-19T13:13:40Z</time>
      </trkpt>
      <trkpt lat="47.90884" lon="-2.47776">
        <ele>26.7</ele>
        <time>2024-12-19T13:13:41Z</time>
      </trkpt>
      <trkpt lat="47.90885" lon="-2.47777">
        <ele>26.7</ele>
        <time>2024-12-19T13:13:42Z</time>
      </trkpt>
      <trkpt lat="47.90885" lon="-2.47778">
        <ele>26.7</ele>
        <time>2024-12-19T13:13:43Z</time>
      </trkpt>
      <trkpt lat="47.90885" lon="-2.47778">
        <ele>26.7</ele>
        <time>2024-12-19T13:13:44Z</time>
      </trkpt>
      <trkpt lat="47.90887" lon="-2.47779">
        <ele>26.8</ele>
        <time>2024-12-19T13:13:45Z</time>
      </trkpt>
      <trkpt lat="47.90888" lon="-2.47779">
        <ele>26.9</ele>
        <time>2024-12-19T13:13:46Z</time>
      </trkpt>
      <trkpt lat="47.90888" lon="-2.4778">
        <ele>26.9</ele>
        <time>2024-12-19T13:13:47Z</time>
      </trkpt>
      <trkpt lat="47.90889" lon="-2.4778">
        <ele>26.9</ele>
        <time>2024-12-19T13:13:48Z</time>
      </trkpt>
      <trkpt lat="47.90889" lon="-2.47781">
        <ele>26.9</ele>
        <time>2024-12-19T13:13:49Z</time>
      </trkpt>
      <trkpt lat="47.90889" lon="-2.47782">
        <ele>26.9</ele>
        <time>2024-12-19T13:13:50Z</time>
      </trkpt>
      <trkpt lat="47.9089" lon="-2.47782">
        <ele>26.9</ele>
        <time>2024-12-19T13:13:51Z</time>
      </trkpt>
      <trkpt lat="47.90891" lon="-2.47783">
        <ele>26.9</ele>
        <time>2024-12-19T13:13:52Z</time>
      </trkpt>
      <trkpt lat="47.90891" lon="-2.47784">
        <ele>26.9</ele>
        <time>2024-12-19T13:13:53Z</time>
      </trkpt>
      <trkpt lat="47.90892" lon="-2.47785">
        <ele>26.9</ele>
        <time>2024-12-19T13:13:54Z</time>
      </trkpt>
      <trkpt lat="47.90892" lon="-2.47786">
        <ele>26.8</ele>
        <time>2024-12-19T13:13:55Z</time>
      </trkpt>
      <trkpt lat="47.90893" lon="-2.47787">
        <ele>26.8</ele>
        <time>2024-12-19T13:13:56Z</time>
      </trkpt>
      <trkpt lat="47.90894" lon="-2.47788">
        <ele>26.8</ele>
        <time>2024-12-19T13:13:57Z</time>
      </trkpt>
      <trkpt lat="47.90895" lon="-2.47789">
        <ele>26.8</ele>
        <time>2024-12-19T13:13:58Z</time>
      </trkpt>
      <trkpt lat="47.90896" lon="-2.4779">
        <ele>26.8</ele>
        <time>2024-12-19T13:13:59Z</time>
      </trkpt>
      <trkpt lat="47.90897" lon="-2.47791">
        <ele>26.8</ele>
        <time>2024-12-19T13:14:00Z</time>
      </trkpt>
      <trkpt lat="47.90898" lon="-2.47792">
        <ele>26.8</ele>
        <time>2024-12-19T13:14:01Z</time>
      </trkpt>
      <trkpt lat="47.90899" lon="-2.47793">
        <ele>26.8</ele>
        <time>2024-12-19T13:14:02Z</time>
      </trkpt>
      <trkpt lat="47.90899" lon="-2.47794">
        <ele>26.8</ele>
        <time>2024-12-19T13:14:03Z</time>
      </trkpt>
      <trkpt lat="47.909" lon="-2.47796">
        <ele>26.8</ele>
        <time>2024-12-19T13:14:04Z</time>
      </trkpt>
      <trkpt lat="47.90901" lon="-2.47797">
        <ele>26.7</ele>
        <time>2024-12-19T13:14:05Z</time>
      </trkpt>
      <trkpt lat="47.90902" lon="-2.47798">
        <ele>26.7</ele>
        <time>2024-12-19T13:14:06Z</time>
      </trkpt>
      <trkpt lat="47.90902" lon="-2.47799">
        <ele>26.7</ele>
        <time>2024-12-19T13:14:07Z</time>
      </trkpt>
      <trkpt lat="47.90904" lon="-2.478">
        <ele>26.7</ele>
        <time>2024-12-19T13:14:08Z</time>
      </trkpt>
      <trkpt lat="47.90905" lon="-2.47801">
        <ele>26.7</ele>
        <time>2024-12-19T13:14:09Z</time>
      </trkpt>
      <trkpt lat="47.90906" lon="-2.47802">
        <ele>26.7</ele>
        <time>2024-12-19T13:14:10Z</time>
      </trkpt>
      <trkpt lat="47.90907" lon="-2.47803">
        <ele>26.7</ele>
        <time>2024-12-19T13:14:11Z</time>
      </trkpt>
      <trkpt lat="47.90908" lon="-2.47804">
        <ele>26.7</ele>
        <time>2024-12-19T13:14:12Z</time>
      </trkpt>
      <trkpt lat="47.90908" lon="-2.47805">
        <ele>26.7</ele>
        <time>2024-12-19T13:14:13Z</time>
      </trkpt>
      <trkpt lat="47.9091" lon="-2.47806">
        <ele>26.7</ele>
        <time>2024-12-19T13:14:14Z</time>
      </trkpt>
      <trkpt lat="47.90911" lon="-2.47807">
        <ele>26.8</ele>
        <time>2024-12-19T13:14:15Z</time>
      </trkpt>
      <trkpt lat="47.90911" lon="-2.47808">
        <ele>26.8</ele>
        <time>2024-12-19T13:14:16Z</time>
      </trkpt>
      <trkpt lat="47.90912" lon="-2.47809">
        <ele>26.8</ele>
        <time>2024-12-19T13:14:17Z</time>
      </trkpt>
      <trkpt lat="47.90913" lon="-2.4781">
        <ele>26.8</ele>
        <time>2024-12-19T13:14:18Z</time>
      </trkpt>
      <trkpt lat="47.90913" lon="-2.47811">
        <ele>26.8</ele>
        <time>2024-12-19T13:14:19Z</time>
      </trkpt>
      <trkpt lat="47.90913" lon="-2.47811">
        <ele>26.9</ele>
        <time>2024-12-19T13:14:20Z</time>
      </trkpt>
      <trkpt lat="47.90914" lon="-2.47812">
        <ele>26.9</ele>
        <time>2024-12-19T13:14:21Z</time>
      </trkpt>
      <trkpt lat="47.90914" lon="-2.47813">
        <ele>26.9</ele>
        <time>2024-12-19T13:14:22Z</time>
      </trkpt>
      <trkpt lat="47.90915" lon="-2.47814">
        <ele>26.9</ele>
        <time>2024-12-19T13:14:23Z</time>
      </trkpt>
      <trkpt lat="47.90915" lon="-2.47814">
        <ele>26.9</ele>
        <time>2024-12-19T13:14:24Z</time>
      </trkpt>
      <trkpt lat="47.90916" lon="-2.47814">
        <ele>26.9</ele>
        <time>2024-12-19T13:14:25Z</time>
      </trkpt>
      <trkpt lat="47.90916" lon="-2.47814">
        <ele>27</ele>
        <time>2024-12-19T13:14:26Z</time>
      </trkpt>
      <trkpt lat="47.90917" lon="-2.47814">
        <ele>27</ele>
        <time>2024-12-19T13:14:27Z</time>
      </trkpt>
      <trkpt lat="47.90918" lon="-2.47815">
        <ele>27</ele>
        <time>2024-12-19T13:14:28Z</time>
      </trkpt>
      <trkpt lat="47.9092" lon="-2.47816">
        <ele>27.1</ele>
        <time>2024-12-19T13:14:29Z</time>
      </trkpt>
      <trkpt lat="47.90921" lon="-2.47817">
        <ele>27.1</ele>
        <time>2024-12-19T13:14:30Z</time>
      </trkpt>
      <trkpt lat="47.90922" lon="-2.47817">
        <ele>27.1</ele>
        <time>2024-12-19T13:14:31Z</time>
      </trkpt>
      <trkpt lat="47.90923" lon="-2.47818">
        <ele>27.1</ele>
        <time>2024-12-19T13:14:32Z</time>
      </trkpt>
      <trkpt lat="47.90924" lon="-2.47818">
        <ele>27.1</ele>
        <time>2024-12-19T13:14:33Z</time>
      </trkpt>
      <trkpt lat="47.90925" lon="-2.47819">
        <ele>27.2</ele>
        <time>2024-12-19T13:14:34Z</time>
      </trkpt>
      <trkpt lat="47.90926" lon="-2.4782">
        <ele>27.2</ele>
        <time>2024-12-19T13:14:35Z</time>
      </trkpt>
      <trkpt lat="47.90928" lon="-2.4782">
        <ele>27.2</ele>
        <time>2024-12-19T13:14:36Z</time>
      </trkpt>
      <trkpt lat="47.90929" lon="-2.4782">
        <ele>27.2</ele>
        <time>2024-12-19T13:14:37Z</time>
      </trkpt>
      <trkpt lat="47.90929" lon="-2.4782">
        <ele>27.2</ele>
        <time>2024-12-19T13:14:38Z</time>
      </trkpt>
      <trkpt lat="47.9093" lon="-2.4782">
        <ele>27.2</ele>
        <time>2024-12-19T13:14:39Z</time>
      </trkpt>
      <trkpt lat="47.90931" lon="-2.4782">
        <ele>27.2</ele>
        <time>2024-12-19T13:14:40Z</time>
      </trkpt>
      <trkpt lat="47.90932" lon="-2.47819">
        <ele>27.3</ele>
        <time>2024-12-19T13:14:41Z</time>
      </trkpt>
      <trkpt lat="47.90933" lon="-2.47819">
        <ele>27.3</ele>
        <time>2024-12-19T13:14:42Z</time>
      </trkpt>
      <trkpt lat="47.90934" lon="-2.47818">
        <ele>27.4</ele>
        <time>2024-12-19T13:14:43Z</time>
      </trkpt>
      <trkpt lat="47.90935" lon="-2.47817">
        <ele>27.4</ele>
        <time>2024-12-19T13:14:44Z</time>
      </trkpt>
      <trkpt lat="47.90936" lon="-2.47816">
        <ele>27.5</ele>
        <time>2024-12-19T13:14:45Z</time>
      </trkpt>
      <trkpt lat="47.90937" lon="-2.47815">
        <ele>27.5</ele>
        <time>2024-12-19T13:14:46Z</time>
      </trkpt>
      <trkpt lat="47.90939" lon="-2.47814">
        <ele>27.6</ele>
        <time>2024-12-19T13:14:47Z</time>
      </trkpt>
      <trkpt lat="47.9094" lon="-2.47813">
        <ele>27.6</ele>
        <time>2024-12-19T13:14:48Z</time>
      </trkpt>
      <trkpt lat="47.90942" lon="-2.47813">
        <ele>27.7</ele>
        <time>2024-12-19T13:14:49Z</time>
      </trkpt>
      <trkpt lat="47.90943" lon="-2.47812">
        <ele>27.7</ele>
        <time>2024-12-19T13:14:50Z</time>
      </trkpt>
      <trkpt lat="47.90944" lon="-2.47811">
        <ele>27.8</ele>
        <time>2024-12-19T13:14:51Z</time>
      </trkpt>
      <trkpt lat="47.90945" lon="-2.4781">
        <ele>27.8</ele>
        <time>2024-12-19T13:14:52Z</time>
      </trkpt>
      <trkpt lat="47.90946" lon="-2.4781">
        <ele>27.9</ele>
        <time>2024-12-19T13:14:53Z</time>
      </trkpt>
      <trkpt lat="47.90947" lon="-2.47809">
        <ele>28</ele>
        <time>2024-12-19T13:14:54Z</time>
      </trkpt>
      <trkpt lat="47.90948" lon="-2.47809">
        <ele>28</ele>
        <time>2024-12-19T13:14:55Z</time>
      </trkpt>
      <trkpt lat="47.9095" lon="-2.47807">
        <ele>28.1</ele>
        <time>2024-12-19T13:14:56Z</time>
      </trkpt>
      <trkpt lat="47.90951" lon="-2.47806">
        <ele>28.2</ele>
        <time>2024-12-19T13:14:57Z</time>
      </trkpt>
      <trkpt lat="47.90951" lon="-2.47806">
        <ele>28.2</ele>
        <time>2024-12-19T13:14:58Z</time>
      </trkpt>
      <trkpt lat="47.90952" lon="-2.47805">
        <ele>28.3</ele>
        <time>2024-12-19T13:14:59Z</time>
      </trkpt>
      <trkpt lat="47.90953" lon="-2.47804">
        <ele>28.4</ele>
        <time>2024-12-19T13:15:00Z</time>
      </trkpt>
      <trkpt lat="47.90955" lon="-2.47804">
        <ele>28.4</ele>
        <time>2024-12-19T13:15:01Z</time>
      </trkpt>
      <trkpt lat="47.90956" lon="-2.47804">
        <ele>28.5</ele>
        <time>2024-12-19T13:15:02Z</time>
      </trkpt>
      <trkpt lat="47.90957" lon="-2.47803">
        <ele>28.6</ele>
        <time>2024-12-19T13:15:03Z</time>
      </trkpt>
      <trkpt lat="47.90958" lon="-2.47802">
        <ele>28.7</ele>
        <time>2024-12-19T13:15:04Z</time>
      </trkpt>
      <trkpt lat="47.90959" lon="-2.47801">
        <ele>28.7</ele>
        <time>2024-12-19T13:15:05Z</time>
      </trkpt>
      <trkpt lat="47.9096" lon="-2.47801">
        <ele>28.8</ele>
        <time>2024-12-19T13:15:06Z</time>
      </trkpt>
      <trkpt lat="47.90961" lon="-2.478">
        <ele>28.9</ele>
        <time>2024-12-19T13:15:07Z</time>
      </trkpt>
      <trkpt lat="47.90962" lon="-2.47799">
        <ele>29</ele>
        <time>2024-12-19T13:15:08Z</time>
      </trkpt>
      <trkpt lat="47.90963" lon="-2.47799">
        <ele>29.1</ele>
        <time>2024-12-19T13:15:09Z</time>
      </trkpt>
      <trkpt lat="47.90965" lon="-2.47798">
        <ele>29.2</ele>
        <time>2024-12-19T13:15:10Z</time>
      </trkpt>
      <trkpt lat="47.90966" lon="-2.47797">
        <ele>29.3</ele>
        <time>2024-12-19T13:15:11Z</time>
      </trkpt>
      <trkpt lat="47.90967" lon="-2.47796">
        <ele>29.5</ele>
        <time>2024-12-19T13:15:12Z</time>
      </trkpt>
      <trkpt lat="47.90969" lon="-2.47794">
        <ele>29.6</ele>
        <time>2024-12-19T13:15:13Z</time>
      </trkpt>
      <trkpt lat="47.90969" lon="-2.47794">
        <ele>29.7</ele>
        <time>2024-12-19T13:15:14Z</time>
      </trkpt>
      <trkpt lat="47.9097" lon="-2.47793">
        <ele>29.8</ele>
        <time>2024-12-19T13:15:15Z</time>
      </trkpt>
      <trkpt lat="47.90971" lon="-2.47792">
        <ele>29.9</ele>
        <time>2024-12-19T13:15:16Z</time>
      </trkpt>
      <trkpt lat="47.90972" lon="-2.47792">
        <ele>30</ele>
        <time>2024-12-19T13:15:17Z</time>
      </trkpt>
      <trkpt lat="47.90973" lon="-2.47791">
        <ele>30.1</ele>
        <time>2024-12-19T13:15:18Z</time>
      </trkpt>
      <trkpt lat="47.90974" lon="-2.4779">
        <ele>30.2</ele>
        <time>2024-12-19T13:15:19Z</time>
      </trkpt>
      <trkpt lat="47.90976" lon="-2.47789">
        <ele>30.4</ele>
        <time>2024-12-19T13:15:20Z</time>
      </trkpt>
      <trkpt lat="47.90977" lon="-2.47788">
        <ele>30.5</ele>
        <time>2024-12-19T13:15:21Z</time>
      </trkpt>
      <trkpt lat="47.90978" lon="-2.47787">
        <ele>30.6</ele>
        <time>2024-12-19T13:15:22Z</time>
      </trkpt>
      <trkpt lat="47.90979" lon="-2.47787">
        <ele>30.6</ele>
        <time>2024-12-19T13:15:23Z</time>
      </trkpt>
      <trkpt lat="47.9098" lon="-2.47787">
        <ele>30.7</ele>
        <time>2024-12-19T13:15:24Z</time>
      </trkpt>
      <trkpt lat="47.9098" lon="-2.47787">
        <ele>30.7</ele>
        <time>2024-12-19T13:15:25Z</time>
      </trkpt>
      <trkpt lat="47.90981" lon="-2.47786">
        <ele>30.8</ele>
        <time>2024-12-19T13:15:26Z</time>
      </trkpt>
      <trkpt lat="47.90982" lon="-2.47786">
        <ele>30.9</ele>
        <time>2024-12-19T13:15:27Z</time>
      </trkpt>
      <trkpt lat="47.90983" lon="-2.47785">
        <ele>31</ele>
        <time>2024-12-19T13:15:28Z</time>
      </trkpt>
      <trkpt lat="47.90984" lon="-2.47785">
        <ele>31</ele>
        <time>2024-12-19T13:15:29Z</time>
      </trkpt>
      <trkpt lat="47.90984" lon="-2.47785">
        <ele>31</ele>
        <time>2024-12-19T13:15:30Z</time>
      </trkpt>
      <trkpt lat="47.90985" lon="-2.47785">
        <ele>31</ele>
        <time>2024-12-19T13:15:31Z</time>
      </trkpt>
      <trkpt lat="47.90986" lon="-2.47785">
        <ele>31.1</ele>
        <time>2024-12-19T13:15:32Z</time>
      </trkpt>
      <trkpt lat="47.90986" lon="-2.47784">
        <ele>31.2</ele>
        <time>2024-12-19T13:15:33Z</time>
      </trkpt>
      <trkpt lat="47.90987" lon="-2.47784">
        <ele>31.2</ele>
        <time>2024-12-19T13:15:34Z</time>
      </trkpt>
      <trkpt lat="47.90987" lon="-2.47784">
        <ele>31.2</ele>
        <time>2024-12-19T13:15:35Z</time>
      </trkpt>
      <trkpt lat="47.90988" lon="-2.47784">
        <ele>31.2</ele>
        <time>2024-12-19T13:15:36Z</time>
      </trkpt>
      <trkpt lat="47.90988" lon="-2.47784">
        <ele>31.2</ele>
        <time>2024-12-19T13:15:37Z</time>
      </trkpt>
      <trkpt lat="47.90989" lon="-2.47785">
        <ele>31.2</ele>
        <time>2024-12-19T13:15:38Z</time>
      </trkpt>
      <trkpt lat="47.90989" lon="-2.47787">
        <ele>31.2</ele>
        <time>2024-12-19T13:15:39Z</time>
      </trkpt>
      <trkpt lat="47.9099" lon="-2.47788">
        <ele>31.1</ele>
        <time>2024-12-19T13:15:40Z</time>
      </trkpt>
      <trkpt lat="47.9099" lon="-2.4779">
        <ele>31.1</ele>
        <time>2024-12-19T13:15:41Z</time>
      </trkpt>
      <trkpt lat="47.90991" lon="-2.47791">
        <ele>31</ele>
        <time>2024-12-19T13:15:42Z</time>
      </trkpt>
      <trkpt lat="47.90991" lon="-2.47793">
        <ele>30.9</ele>
        <time>2024-12-19T13:15:43Z</time>
      </trkpt>
      <trkpt lat="47.90991" lon="-2.47795">
        <ele>30.9</ele>
        <time>2024-12-19T13:15:44Z</time>
      </trkpt>
      <trkpt lat="47.90992" lon="-2.47796">
        <ele>30.9</ele>
        <time>2024-12-19T13:15:45Z</time>
      </trkpt>
      <trkpt lat="47.90992" lon="-2.47797">
        <ele>30.8</ele>
        <time>2024-12-19T13:15:46Z</time>
      </trkpt>
      <trkpt lat="47.90993" lon="-2.47799">
        <ele>30.8</ele>
        <time>2024-12-19T13:15:47Z</time>
      </trkpt>
      <trkpt lat="47.90993" lon="-2.47801">
        <ele>30.7</ele>
        <time>2024-12-19T13:15:48Z</time>
      </trkpt>
      <trkpt lat="47.90994" lon="-2.47803">
        <ele>30.7</ele>
        <time>2024-12-19T13:15:49Z</time>
      </trkpt>
      <trkpt lat="47.90995" lon="-2.47804">
        <ele>30.7</ele>
        <time>2024-12-19T13:15:50Z</time>
      </trkpt>
      <trkpt lat="47.90996" lon="-2.47805">
        <ele>30.7</ele>
        <time>2024-12-19T13:15:51Z</time>
      </trkpt>
      <trkpt lat="47.90996" lon="-2.47806">
        <ele>30.7</ele>
        <time>2024-12-19T13:15:52Z</time>
      </trkpt>
      <trkpt lat="47.90997" lon="-2.47808">
        <ele>30.6</ele>
        <time>2024-12-19T13:15:53Z</time>
      </trkpt>
      <trkpt lat="47.90997" lon="-2.47809">
        <ele>30.5</ele>
        <time>2024-12-19T13:15:54Z</time>
      </trkpt>
      <trkpt lat="47.90998" lon="-2.47811">
        <ele>30.5</ele>
        <time>2024-12-19T13:15:55Z</time>
      </trkpt>
      <trkpt lat="47.90999" lon="-2.47813">
        <ele>30.4</ele>
        <time>2024-12-19T13:15:56Z</time>
      </trkpt>
      <trkpt lat="47.90999" lon="-2.47814">
        <ele>30.3</ele>
        <time>2024-12-19T13:15:57Z</time>
      </trkpt>
      <trkpt lat="47.91" lon="-2.47816">
        <ele>30.3</ele>
        <time>2024-12-19T13:15:58Z</time>
      </trkpt>
      <trkpt lat="47.91001" lon="-2.47817">
        <ele>30.2</ele>
        <time>2024-12-19T13:15:59Z</time>
      </trkpt>
      <trkpt lat="47.91001" lon="-2.47819">
        <ele>30.2</ele>
        <time>2024-12-19T13:16:00Z</time>
      </trkpt>
      <trkpt lat="47.91002" lon="-2.47819">
        <ele>30.2</ele>
        <time>2024-12-19T13:16:01Z</time>
      </trkpt>
      <trkpt lat="47.91003" lon="-2.4782">
        <ele>30.3</ele>
        <time>2024-12-19T13:16:02Z</time>
      </trkpt>
      <trkpt lat="47.91004" lon="-2.47821">
        <ele>30.3</ele>
        <time>2024-12-19T13:16:03Z</time>
      </trkpt>
      <trkpt lat="47.91005" lon="-2.47823">
        <ele>30.3</ele>
        <time>2024-12-19T13:16:04Z</time>
      </trkpt>
      <trkpt lat="47.91006" lon="-2.47824">
        <ele>30.2</ele>
        <time>2024-12-19T13:16:05Z</time>
      </trkpt>
      <trkpt lat="47.91006" lon="-2.47826">
        <ele>30.2</ele>
        <time>2024-12-19T13:16:06Z</time>
      </trkpt>
      <trkpt lat="47.91007" lon="-2.47828">
        <ele>30.1</ele>
        <time>2024-12-19T13:16:07Z</time>
      </trkpt>
      <trkpt lat="47.91007" lon="-2.47829">
        <ele>30.1</ele>
        <time>2024-12-19T13:16:08Z</time>
      </trkpt>
      <trkpt lat="47.91008" lon="-2.4783">
        <ele>30.1</ele>
        <time>2024-12-19T13:16:09Z</time>
      </trkpt>
      <trkpt lat="47.91008" lon="-2.47831">
        <ele>30.1</ele>
        <time>2024-12-19T13:16:10Z</time>
      </trkpt>
      <trkpt lat="47.9101" lon="-2.47833">
        <ele>30.1</ele>
        <time>2024-12-19T13:16:11Z</time>
      </trkpt>
      <trkpt lat="47.91011" lon="-2.47835">
        <ele>30.1</ele>
        <time>2024-12-19T13:16:12Z</time>
      </trkpt>
      <trkpt lat="47.91013" lon="-2.47836">
        <ele>30.1</ele>
        <time>2024-12-19T13:16:13Z</time>
      </trkpt>
      <trkpt lat="47.91014" lon="-2.47837">
        <ele>30.2</ele>
        <time>2024-12-19T13:16:14Z</time>
      </trkpt>
      <trkpt lat="47.91015" lon="-2.47839">
        <ele>30.2</ele>
        <time>2024-12-19T13:16:15Z</time>
      </trkpt>
      <trkpt lat="47.91016" lon="-2.4784">
        <ele>30.1</ele>
        <time>2024-12-19T13:16:16Z</time>
      </trkpt>
      <trkpt lat="47.91017" lon="-2.47841">
        <ele>30.1</ele>
        <time>2024-12-19T13:16:17Z</time>
      </trkpt>
      <trkpt lat="47.91018" lon="-2.47842">
        <ele>30.1</ele>
        <time>2024-12-19T13:16:18Z</time>
      </trkpt>
      <trkpt lat="47.91019" lon="-2.47843">
        <ele>30.1</ele>
        <time>2024-12-19T13:16:19Z</time>
      </trkpt>
      <trkpt lat="47.9102" lon="-2.47845">
        <ele>30.1</ele>
        <time>2024-12-19T13:16:20Z</time>
      </trkpt>
      <trkpt lat="47.91022" lon="-2.47846">
        <ele>30.1</ele>
        <time>2024-12-19T13:16:21Z</time>
      </trkpt>
      <trkpt lat="47.91023" lon="-2.47847">
        <ele>30.1</ele>
        <time>2024-12-19T13:16:22Z</time>
      </trkpt>
      <trkpt lat="47.91025" lon="-2.47848">
        <ele>30.2</ele>
        <time>2024-12-19T13:16:23Z</time>
      </trkpt>
      <trkpt lat="47.91026" lon="-2.47849">
        <ele>30.2</ele>
        <time>2024-12-19T13:16:24Z</time>
      </trkpt>
      <trkpt lat="47.91027" lon="-2.4785">
        <ele>30.1</ele>
        <time>2024-12-19T13:16:25Z</time>
      </trkpt>
      <trkpt lat="47.91028" lon="-2.47852">
        <ele>30</ele>
        <time>2024-12-19T13:16:26Z</time>
      </trkpt>
      <trkpt lat="47.91029" lon="-2.47853">
        <ele>30</ele>
        <time>2024-12-19T13:16:27Z</time>
      </trkpt>
      <trkpt lat="47.9103" lon="-2.47855">
        <ele>30.1</ele>
        <time>2024-12-19T13:16:28Z</time>
      </trkpt>
      <trkpt lat="47.91031" lon="-2.47856">
        <ele>30.1</ele>
        <time>2024-12-19T13:16:29Z</time>
      </trkpt>
      <trkpt lat="47.91032" lon="-2.47858">
        <ele>30.2</ele>
        <time>2024-12-19T13:16:30Z</time>
      </trkpt>
      <trkpt lat="47.91033" lon="-2.47859">
        <ele>30.2</ele>
        <time>2024-12-19T13:16:31Z</time>
      </trkpt>
      <trkpt lat="47.91034" lon="-2.47861">
        <ele>30.2</ele>
        <time>2024-12-19T13:16:32Z</time>
      </trkpt>
      <trkpt lat="47.91034" lon="-2.47862">
        <ele>30.3</ele>
        <time>2024-12-19T13:16:33Z</time>
      </trkpt>
      <trkpt lat="47.91035" lon="-2.47863">
        <ele>30.3</ele>
        <time>2024-12-19T13:16:34Z</time>
      </trkpt>
      <trkpt lat="47.91035" lon="-2.47864">
        <ele>30.3</ele>
        <time>2024-12-19T13:16:35Z</time>
      </trkpt>
      <trkpt lat="47.91036" lon="-2.47866">
        <ele>30.3</ele>
        <time>2024-12-19T13:16:36Z</time>
      </trkpt>
      <trkpt lat="47.91037" lon="-2.47867">
        <ele>30.4</ele>
        <time>2024-12-19T13:16:37Z</time>
      </trkpt>
      <trkpt lat="47.91038" lon="-2.47868">
        <ele>30.5</ele>
        <time>2024-12-19T13:16:38Z</time>
      </trkpt>
      <trkpt lat="47.91039" lon="-2.47869">
        <ele>30.6</ele>
        <time>2024-12-19T13:16:39Z</time>
      </trkpt>
      <trkpt lat="47.91041" lon="-2.4787">
        <ele>30.7</ele>
        <time>2024-12-19T13:16:40Z</time>
      </trkpt>
      <trkpt lat="47.91042" lon="-2.4787">
        <ele>30.9</ele>
        <time>2024-12-19T13:16:41Z</time>
      </trkpt>
      <trkpt lat="47.91042" lon="-2.47871">
        <ele>30.8</ele>
        <time>2024-12-19T13:16:42Z</time>
      </trkpt>
      <trkpt lat="47.91042" lon="-2.47871">
        <ele>30.7</ele>
        <time>2024-12-19T13:16:43Z</time>
      </trkpt>
      <trkpt lat="47.91043" lon="-2.47872">
        <ele>30.8</ele>
        <time>2024-12-19T13:16:44Z</time>
      </trkpt>
      <trkpt lat="47.91043" lon="-2.47873">
        <ele>30.9</ele>
        <time>2024-12-19T13:16:45Z</time>
      </trkpt>
      <trkpt lat="47.91044" lon="-2.47873">
        <ele>30.9</ele>
        <time>2024-12-19T13:16:46Z</time>
      </trkpt>
      <trkpt lat="47.91045" lon="-2.47874">
        <ele>31</ele>
        <time>2024-12-19T13:16:47Z</time>
      </trkpt>
      <trkpt lat="47.91046" lon="-2.47875">
        <ele>31</ele>
        <time>2024-12-19T13:16:48Z</time>
      </trkpt>
      <trkpt lat="47.91048" lon="-2.47877">
        <ele>30.9</ele>
        <time>2024-12-19T13:16:49Z</time>
      </trkpt>
      <trkpt lat="47.91048" lon="-2.47878">
        <ele>30.9</ele>
        <time>2024-12-19T13:16:50Z</time>
      </trkpt>
      <trkpt lat="47.91049" lon="-2.47879">
        <ele>30.7</ele>
        <time>2024-12-19T13:16:51Z</time>
      </trkpt>
      <trkpt lat="47.9105" lon="-2.47881">
        <ele>30.6</ele>
        <time>2024-12-19T13:16:52Z</time>
      </trkpt>
      <trkpt lat="47.91051" lon="-2.47883">
        <ele>30.4</ele>
        <time>2024-12-19T13:16:53Z</time>
      </trkpt>
      <trkpt lat="47.91052" lon="-2.47884">
        <ele>30.4</ele>
        <time>2024-12-19T13:16:54Z</time>
      </trkpt>
      <trkpt lat="47.91053" lon="-2.47885">
        <ele>30.3</ele>
        <time>2024-12-19T13:16:55Z</time>
      </trkpt>
      <trkpt lat="47.91054" lon="-2.47887">
        <ele>30.2</ele>
        <time>2024-12-19T13:16:56Z</time>
      </trkpt>
      <trkpt lat="47.91054" lon="-2.47888">
        <ele>30</ele>
        <time>2024-12-19T13:16:57Z</time>
      </trkpt>
      <trkpt lat="47.91055" lon="-2.47889">
        <ele>29.9</ele>
        <time>2024-12-19T13:16:58Z</time>
      </trkpt>
      <trkpt lat="47.91056" lon="-2.47891">
        <ele>29.9</ele>
        <time>2024-12-19T13:16:59Z</time>
      </trkpt>
      <trkpt lat="47.91058" lon="-2.47892">
        <ele>29.9</ele>
        <time>2024-12-19T13:17:00Z</time>
      </trkpt>
      <trkpt lat="47.91059" lon="-2.47893">
        <ele>30</ele>
        <time>2024-12-19T13:17:01Z</time>
      </trkpt>
      <trkpt lat="47.91061" lon="-2.47894">
        <ele>30</ele>
        <time>2024-12-19T13:17:02Z</time>
      </trkpt>
      <trkpt lat="47.91062" lon="-2.47895">
        <ele>30.1</ele>
        <time>2024-12-19T13:17:03Z</time>
      </trkpt>
      <trkpt lat="47.91064" lon="-2.47896">
        <ele>30.2</ele>
        <time>2024-12-19T13:17:04Z</time>
      </trkpt>
      <trkpt lat="47.91065" lon="-2.47896">
        <ele>30.3</ele>
        <time>2024-12-19T13:17:05Z</time>
      </trkpt>
      <trkpt lat="47.91065" lon="-2.47897">
        <ele>30.3</ele>
        <time>2024-12-19T13:17:06Z</time>
      </trkpt>
      <trkpt lat="47.91066" lon="-2.47897">
        <ele>30.4</ele>
        <time>2024-12-19T13:17:07Z</time>
      </trkpt>
      <trkpt lat="47.91068" lon="-2.47898">
        <ele>30.4</ele>
        <time>2024-12-19T13:17:08Z</time>
      </trkpt>
      <trkpt lat="47.91069" lon="-2.47899">
        <ele>30.4</ele>
        <time>2024-12-19T13:17:09Z</time>
      </trkpt>
      <trkpt lat="47.9107" lon="-2.479">
        <ele>30.4</ele>
        <time>2024-12-19T13:17:10Z</time>
      </trkpt>
      <trkpt lat="47.91071" lon="-2.47901">
        <ele>30.3</ele>
        <time>2024-12-19T13:17:11Z</time>
      </trkpt>
      <trkpt lat="47.91071" lon="-2.47902">
        <ele>30.1</ele>
        <time>2024-12-19T13:17:12Z</time>
      </trkpt>
      <trkpt lat="47.91072" lon="-2.47904">
        <ele>29.9</ele>
        <time>2024-12-19T13:17:13Z</time>
      </trkpt>
      <trkpt lat="47.91073" lon="-2.47904">
        <ele>29.9</ele>
        <time>2024-12-19T13:17:14Z</time>
      </trkpt>
      <trkpt lat="47.91075" lon="-2.47904">
        <ele>30.2</ele>
        <time>2024-12-19T13:17:15Z</time>
      </trkpt>
      <trkpt lat="47.91076" lon="-2.47905">
        <ele>30.1</ele>
        <time>2024-12-19T13:17:16Z</time>
      </trkpt>
      <trkpt lat="47.91078" lon="-2.47906">
        <ele>29.9</ele>
        <time>2024-12-19T13:17:17Z</time>
      </trkpt>
      <trkpt lat="47.91079" lon="-2.47908">
        <ele>29.6</ele>
        <time>2024-12-19T13:17:18Z</time>
      </trkpt>
      <trkpt lat="47.9108" lon="-2.4791">
        <ele>29.4</ele>
        <time>2024-12-19T13:17:19Z</time>
      </trkpt>
      <trkpt lat="47.91081" lon="-2.47911">
        <ele>29.3</ele>
        <time>2024-12-19T13:17:20Z</time>
      </trkpt>
      <trkpt lat="47.91082" lon="-2.47912">
        <ele>29.1</ele>
        <time>2024-12-19T13:17:21Z</time>
      </trkpt>
      <trkpt lat="47.91083" lon="-2.47913">
        <ele>28.8</ele>
        <time>2024-12-19T13:17:22Z</time>
      </trkpt>
      <trkpt lat="47.91083" lon="-2.47914">
        <ele>28.6</ele>
        <time>2024-12-19T13:17:23Z</time>
      </trkpt>
      <trkpt lat="47.91084" lon="-2.47915">
        <ele>28.6</ele>
        <time>2024-12-19T13:17:24Z</time>
      </trkpt>
      <trkpt lat="47.91086" lon="-2.47916">
        <ele>28.6</ele>
        <time>2024-12-19T13:17:25Z</time>
      </trkpt>
      <trkpt lat="47.91086" lon="-2.47917">
        <ele>28.5</ele>
        <time>2024-12-19T13:17:26Z</time>
      </trkpt>
      <trkpt lat="47.91087" lon="-2.47918">
        <ele>28.5</ele>
        <time>2024-12-19T13:17:27Z</time>
      </trkpt>
      <trkpt lat="47.91088" lon="-2.47919">
        <ele>28.5</ele>
        <time>2024-12-19T13:17:28Z</time>
      </trkpt>
      <trkpt lat="47.91089" lon="-2.47921">
        <ele>28.4</ele>
        <time>2024-12-19T13:17:29Z</time>
      </trkpt>
      <trkpt lat="47.9109" lon="-2.47922">
        <ele>28.4</ele>
        <time>2024-12-19T13:17:30Z</time>
      </trkpt>
      <trkpt lat="47.91091" lon="-2.47925">
        <ele>28.2</ele>
        <time>2024-12-19T13:17:31Z</time>
      </trkpt>
      <trkpt lat="47.91092" lon="-2.47927">
        <ele>28</ele>
        <time>2024-12-19T13:17:32Z</time>
      </trkpt>
      <trkpt lat="47.91094" lon="-2.47928">
        <ele>28</ele>
        <time>2024-12-19T13:17:33Z</time>
      </trkpt>
      <trkpt lat="47.91095" lon="-2.4793">
        <ele>27.9</ele>
        <time>2024-12-19T13:17:34Z</time>
      </trkpt>
      <trkpt lat="47.91096" lon="-2.47931">
        <ele>27.9</ele>
        <time>2024-12-19T13:17:35Z</time>
      </trkpt>
      <trkpt lat="47.91098" lon="-2.47931">
        <ele>28</ele>
        <time>2024-12-19T13:17:36Z</time>
      </trkpt>
      <trkpt lat="47.91099" lon="-2.47931">
        <ele>28.1</ele>
        <time>2024-12-19T13:17:37Z</time>
      </trkpt>
      <trkpt lat="47.91101" lon="-2.47932">
        <ele>28.1</ele>
        <time>2024-12-19T13:17:38Z</time>
      </trkpt>
      <trkpt lat="47.91102" lon="-2.47932">
        <ele>28.2</ele>
        <time>2024-12-19T13:17:39Z</time>
      </trkpt>
      <trkpt lat="47.91103" lon="-2.47933">
        <ele>28.2</ele>
        <time>2024-12-19T13:17:40Z</time>
      </trkpt>
      <trkpt lat="47.91104" lon="-2.47934">
        <ele>27.9</ele>
        <time>2024-12-19T13:17:41Z</time>
      </trkpt>
      <trkpt lat="47.91105" lon="-2.47936">
        <ele>27.7</ele>
        <time>2024-12-19T13:17:42Z</time>
      </trkpt>
      <trkpt lat="47.91106" lon="-2.47937">
        <ele>27.5</ele>
        <time>2024-12-19T13:17:43Z</time>
      </trkpt>
      <trkpt lat="47.91107" lon="-2.47938">
        <ele>27.4</ele>
        <time>2024-12-19T13:17:44Z</time>
      </trkpt>
      <trkpt lat="47.91108" lon="-2.47938">
        <ele>27.3</ele>
        <time>2024-12-19T13:17:45Z</time>
      </trkpt>
      <trkpt lat="47.91109" lon="-2.47939">
        <ele>27.3</ele>
        <time>2024-12-19T13:17:46Z</time>
      </trkpt>
      <trkpt lat="47.9111" lon="-2.4794">
        <ele>27.1</ele>
        <time>2024-12-19T13:17:47Z</time>
      </trkpt>
      <trkpt lat="47.91112" lon="-2.4794">
        <ele>27.1</ele>
        <time>2024-12-19T13:17:48Z</time>
      </trkpt>
      <trkpt lat="47.91113" lon="-2.47941">
        <ele>27.1</ele>
        <time>2024-12-19T13:17:49Z</time>
      </trkpt>
      <trkpt lat="47.91115" lon="-2.47941">
        <ele>27.2</ele>
        <time>2024-12-19T13:17:50Z</time>
      </trkpt>
      <trkpt lat="47.91116" lon="-2.47942">
        <ele>27.2</ele>
        <time>2024-12-19T13:17:51Z</time>
      </trkpt>
      <trkpt lat="47.91117" lon="-2.47943">
        <ele>27.2</ele>
        <time>2024-12-19T13:17:52Z</time>
      </trkpt>
      <trkpt lat="47.91119" lon="-2.47942">
        <ele>27.6</ele>
        <time>2024-12-19T13:17:53Z</time>
      </trkpt>
      <trkpt lat="47.9112" lon="-2.47941">
        <ele>27.9</ele>
        <time>2024-12-19T13:17:54Z</time>
      </trkpt>
      <trkpt lat="47.91122" lon="-2.47941">
        <ele>28</ele>
        <time>2024-12-19T13:17:55Z</time>
      </trkpt>
      <trkpt lat="47.91123" lon="-2.47942">
        <ele>28.1</ele>
        <time>2024-12-19T13:17:56Z</time>
      </trkpt>
      <trkpt lat="47.91125" lon="-2.47942">
        <ele>28.1</ele>
        <time>2024-12-19T13:17:57Z</time>
      </trkpt>
      <trkpt lat="47.91126" lon="-2.47943">
        <ele>28</ele>
        <time>2024-12-19T13:17:58Z</time>
      </trkpt>
      <trkpt lat="47.91127" lon="-2.47944">
        <ele>27.9</ele>
        <time>2024-12-19T13:17:59Z</time>
      </trkpt>
      <trkpt lat="47.91128" lon="-2.47945">
        <ele>27.8</ele>
        <time>2024-12-19T13:18:00Z</time>
      </trkpt>
      <trkpt lat="47.9113" lon="-2.47946">
        <ele>27.9</ele>
        <time>2024-12-19T13:18:01Z</time>
      </trkpt>
      <trkpt lat="47.91131" lon="-2.47947">
        <ele>28</ele>
        <time>2024-12-19T13:18:02Z</time>
      </trkpt>
      <trkpt lat="47.91132" lon="-2.47948">
        <ele>28</ele>
        <time>2024-12-19T13:18:03Z</time>
      </trkpt>
      <trkpt lat="47.91133" lon="-2.47948">
        <ele>28</ele>
        <time>2024-12-19T13:18:04Z</time>
      </trkpt>
      <trkpt lat="47.91134" lon="-2.47949">
        <ele>28.1</ele>
        <time>2024-12-19T13:18:05Z</time>
      </trkpt>
      <trkpt lat="47.91136" lon="-2.4795">
        <ele>28.2</ele>
        <time>2024-12-19T13:18:06Z</time>
      </trkpt>
      <trkpt lat="47.91137" lon="-2.47951">
        <ele>28.2</ele>
        <time>2024-12-19T13:18:07Z</time>
      </trkpt>
      <trkpt lat="47.91138" lon="-2.47951">
        <ele>28.2</ele>
        <time>2024-12-19T13:18:08Z</time>
      </trkpt>
      <trkpt lat="47.91139" lon="-2.47952">
        <ele>28.2</ele>
        <time>2024-12-19T13:18:09Z</time>
      </trkpt>
      <trkpt lat="47.9114" lon="-2.47953">
        <ele>28.2</ele>
        <time>2024-12-19T13:18:10Z</time>
      </trkpt>
      <trkpt lat="47.91141" lon="-2.47953">
        <ele>28.3</ele>
        <time>2024-12-19T13:18:11Z</time>
      </trkpt>
      <trkpt lat="47.91142" lon="-2.47953">
        <ele>28.5</ele>
        <time>2024-12-19T13:18:12Z</time>
      </trkpt>
      <trkpt lat="47.91142" lon="-2.47952">
        <ele>28.6</ele>
        <time>2024-12-19T13:18:13Z</time>
      </trkpt>
      <trkpt lat="47.91143" lon="-2.4795">
        <ele>28.8</ele>
        <time>2024-12-19T13:18:14Z</time>
      </trkpt>
      <trkpt lat="47.91143" lon="-2.47949">
        <ele>29</ele>
        <time>2024-12-19T13:18:15Z</time>
      </trkpt>
      <trkpt lat="47.91143" lon="-2.47948">
        <ele>29.1</ele>
        <time>2024-12-19T13:18:16Z</time>
      </trkpt>
      <trkpt lat="47.91141" lon="-2.47948">
        <ele>28.9</ele>
        <time>2024-12-19T13:18:17Z</time>
      </trkpt>
      <trkpt lat="47.9114" lon="-2.47948">
        <ele>28.8</ele>
        <time>2024-12-19T13:18:18Z</time>
      </trkpt>
      <trkpt lat="47.91139" lon="-2.47947">
        <ele>28.8</ele>
        <time>2024-12-19T13:18:19Z</time>
      </trkpt>
      <trkpt lat="47.91138" lon="-2.47946">
        <ele>28.7</ele>
        <time>2024-12-19T13:18:20Z</time>
      </trkpt>
      <trkpt lat="47.91138" lon="-2.47946">
        <ele>28.7</ele>
        <time>2024-12-19T13:18:21Z</time>
      </trkpt>
      <trkpt lat="47.91137" lon="-2.47944">
        <ele>28.8</ele>
        <time>2024-12-19T13:18:22Z</time>
      </trkpt>
      <trkpt lat="47.91137" lon="-2.47944">
        <ele>29.1</ele>
        <time>2024-12-19T13:18:23Z</time>
      </trkpt>
      <trkpt lat="47.91136" lon="-2.47943">
        <ele>29.2</ele>
        <time>2024-12-19T13:18:24Z</time>
      </trkpt>
      <trkpt lat="47.91136" lon="-2.47943">
        <ele>29.3</ele>
        <time>2024-12-19T13:18:25Z</time>
      </trkpt>
      <trkpt lat="47.91135" lon="-2.47942">
        <ele>29.3</ele>
        <time>2024-12-19T13:18:26Z</time>
      </trkpt>
      <trkpt lat="47.91134" lon="-2.47942">
        <ele>29.2</ele>
        <time>2024-12-19T13:18:27Z</time>
      </trkpt>
      <trkpt lat="47.91133" lon="-2.47942">
        <ele>29.2</ele>
        <time>2024-12-19T13:18:28Z</time>
      </trkpt>
      <trkpt lat="47.91132" lon="-2.47942">
        <ele>29.1</ele>
        <time>2024-12-19T13:18:29Z</time>
      </trkpt>
      <trkpt lat="47.91131" lon="-2.47942">
        <ele>29.1</ele>
        <time>2024-12-19T13:18:30Z</time>
      </trkpt>
      <trkpt lat="47.91131" lon="-2.47942">
        <ele>29.1</ele>
        <time>2024-12-19T13:18:31Z</time>
      </trkpt>
      <trkpt lat="47.91131" lon="-2.47941">
        <ele>29.3</ele>
        <time>2024-12-19T13:18:32Z</time>
      </trkpt>
      <trkpt lat="47.9113" lon="-2.4794">
        <ele>29.5</ele>
        <time>2024-12-19T13:18:33Z</time>
      </trkpt>
      <trkpt lat="47.9113" lon="-2.47939">
        <ele>29.8</ele>
        <time>2024-12-19T13:18:34Z</time>
      </trkpt>
      <trkpt lat="47.9113" lon="-2.47938">
        <ele>30</ele>
        <time>2024-12-19T13:18:35Z</time>
      </trkpt>
      <trkpt lat="47.9113" lon="-2.47937">
        <ele>30.3</ele>
        <time>2024-12-19T13:18:36Z</time>
      </trkpt>
      <trkpt lat="47.9113" lon="-2.47936">
        <ele>30.7</ele>
        <time>2024-12-19T13:18:37Z</time>
      </trkpt>
      <trkpt lat="47.9113" lon="-2.47935">
        <ele>31.1</ele>
        <time>2024-12-19T13:18:38Z</time>
      </trkpt>
      <trkpt lat="47.9113" lon="-2.47933">
        <ele>31.7</ele>
        <time>2024-12-19T13:18:39Z</time>
      </trkpt>
      <trkpt lat="47.9113" lon="-2.47932">
        <ele>32.2</ele>
        <time>2024-12-19T13:18:40Z</time>
      </trkpt>
      <trkpt lat="47.9113" lon="-2.47931">
        <ele>32.5</ele>
        <time>2024-12-19T13:18:41Z</time>
      </trkpt>
      <trkpt lat="47.91129" lon="-2.4793">
        <ele>32.6</ele>
        <time>2024-12-19T13:18:42Z</time>
      </trkpt>
      <trkpt lat="47.91128" lon="-2.47929">
        <ele>32.7</ele>
        <time>2024-12-19T13:18:43Z</time>
      </trkpt>
      <trkpt lat="47.91128" lon="-2.47929">
        <ele>32.8</ele>
        <time>2024-12-19T13:18:44Z</time>
      </trkpt>
      <trkpt lat="47.91127" lon="-2.47927">
        <ele>33</ele>
        <time>2024-12-19T13:18:45Z</time>
      </trkpt>
      <trkpt lat="47.91126" lon="-2.47926">
        <ele>33.2</ele>
        <time>2024-12-19T13:18:46Z</time>
      </trkpt>
      <trkpt lat="47.91126" lon="-2.47925">
        <ele>33.5</ele>
        <time>2024-12-19T13:18:47Z</time>
      </trkpt>
      <trkpt lat="47.91126" lon="-2.47924">
        <ele>33.9</ele>
        <time>2024-12-19T13:18:48Z</time>
      </trkpt>
      <trkpt lat="47.91126" lon="-2.47923">
        <ele>34.4</ele>
        <time>2024-12-19T13:18:49Z</time>
      </trkpt>
      <trkpt lat="47.91126" lon="-2.47922">
        <ele>34.7</ele>
        <time>2024-12-19T13:18:50Z</time>
      </trkpt>
      <trkpt lat="47.91126" lon="-2.47921">
        <ele>35</ele>
        <time>2024-12-19T13:18:51Z</time>
      </trkpt>
      <trkpt lat="47.91126" lon="-2.4792">
        <ele>35.3</ele>
        <time>2024-12-19T13:18:52Z</time>
      </trkpt>
      <trkpt lat="47.91126" lon="-2.47919">
        <ele>35.4</ele>
        <time>2024-12-19T13:18:53Z</time>
      </trkpt>
      <trkpt lat="47.91126" lon="-2.47919">
        <ele>35.5</ele>
        <time>2024-12-19T13:18:54Z</time>
      </trkpt>
      <trkpt lat="47.91126" lon="-2.47918">
        <ele>35.7</ele>
        <time>2024-12-19T13:18:55Z</time>
      </trkpt>
      <trkpt lat="47.91125" lon="-2.47918">
        <ele>35.8</ele>
        <time>2024-12-19T13:18:56Z</time>
      </trkpt>
      <trkpt lat="47.91125" lon="-2.47917">
        <ele>35.9</ele>
        <time>2024-12-19T13:18:57Z</time>
      </trkpt>
      <trkpt lat="47.91125" lon="-2.47916">
        <ele>36.1</ele>
        <time>2024-12-19T13:18:58Z</time>
      </trkpt>
      <trkpt lat="47.91125" lon="-2.47916">
        <ele>36.3</ele>
        <time>2024-12-19T13:18:59Z</time>
      </trkpt>
      <trkpt lat="47.91125" lon="-2.47915">
        <ele>36.5</ele>
        <time>2024-12-19T13:19:00Z</time>
      </trkpt>
      <trkpt lat="47.91124" lon="-2.47913">
        <ele>36.7</ele>
        <time>2024-12-19T13:19:01Z</time>
      </trkpt>
      <trkpt lat="47.91123" lon="-2.47912">
        <ele>36.8</ele>
        <time>2024-12-19T13:19:02Z</time>
      </trkpt>
      <trkpt lat="47.91123" lon="-2.47912">
        <ele>36.8</ele>
        <time>2024-12-19T13:19:03Z</time>
      </trkpt>
      <trkpt lat="47.91123" lon="-2.47911">
        <ele>37.1</ele>
        <time>2024-12-19T13:19:04Z</time>
      </trkpt>
      <trkpt lat="47.91124" lon="-2.4791">
        <ele>37.6</ele>
        <time>2024-12-19T13:19:05Z</time>
      </trkpt>
      <trkpt lat="47.91124" lon="-2.47909">
        <ele>38</ele>
        <time>2024-12-19T13:19:06Z</time>
      </trkpt>
      <trkpt lat="47.91124" lon="-2.47907">
        <ele>38.3</ele>
        <time>2024-12-19T13:19:07Z</time>
      </trkpt>
      <trkpt lat="47.91123" lon="-2.47906">
        <ele>38.5</ele>
        <time>2024-12-19T13:19:08Z</time>
      </trkpt>
      <trkpt lat="47.91123" lon="-2.47905">
        <ele>38.6</ele>
        <time>2024-12-19T13:19:09Z</time>
      </trkpt>
      <trkpt lat="47.91122" lon="-2.47903">
        <ele>38.9</ele>
        <time>2024-12-19T13:19:10Z</time>
      </trkpt>
      <trkpt lat="47.91122" lon="-2.47902">
        <ele>39.2</ele>
        <time>2024-12-19T13:19:11Z</time>
      </trkpt>
      <trkpt lat="47.91121" lon="-2.47901">
        <ele>39.4</ele>
        <time>2024-12-19T13:19:12Z</time>
      </trkpt>
      <trkpt lat="47.91121" lon="-2.479">
        <ele>39.5</ele>
        <time>2024-12-19T13:19:13Z</time>
      </trkpt>
      <trkpt lat="47.91121" lon="-2.47898">
        <ele>39.9</ele>
        <time>2024-12-19T13:19:14Z</time>
      </trkpt>
      <trkpt lat="47.91121" lon="-2.47897">
        <ele>40.5</ele>
        <time>2024-12-19T13:19:15Z</time>
      </trkpt>
      <trkpt lat="47.91122" lon="-2.47895">
        <ele>41</ele>
        <time>2024-12-19T13:19:16Z</time>
      </trkpt>
      <trkpt lat="47.91122" lon="-2.47894">
        <ele>41.5</ele>
        <time>2024-12-19T13:19:17Z</time>
      </trkpt>
      <trkpt lat="47.91122" lon="-2.47892">
        <ele>41.9</ele>
        <time>2024-12-19T13:19:18Z</time>
      </trkpt>
      <trkpt lat="47.91121" lon="-2.4789">
        <ele>42.2</ele>
        <time>2024-12-19T13:19:19Z</time>
      </trkpt>
      <trkpt lat="47.9112" lon="-2.4789">
        <ele>42.1</ele>
        <time>2024-12-19T13:19:20Z</time>
      </trkpt>
      <trkpt lat="47.91119" lon="-2.47889">
        <ele>42</ele>
        <time>2024-12-19T13:19:21Z</time>
      </trkpt>
      <trkpt lat="47.91118" lon="-2.47888">
        <ele>41.8</ele>
        <time>2024-12-19T13:19:22Z</time>
      </trkpt>
      <trkpt lat="47.91117" lon="-2.47888">
        <ele>41.6</ele>
        <time>2024-12-19T13:19:23Z</time>
      </trkpt>
      <trkpt lat="47.91116" lon="-2.47886">
        <ele>41.5</ele>
        <time>2024-12-19T13:19:25Z</time>
      </trkpt>
      <trkpt lat="47.91115" lon="-2.47886">
        <ele>41.3</ele>
        <time>2024-12-19T13:19:26Z</time>
      </trkpt>
      <trkpt lat="47.91114" lon="-2.47886">
        <ele>41.2</ele>
        <time>2024-12-19T13:19:27Z</time>
      </trkpt>
      <trkpt lat="47.91114" lon="-2.47885">
        <ele>41.2</ele>
        <time>2024-12-19T13:19:28Z</time>
      </trkpt>
      <trkpt lat="47.91114" lon="-2.47885">
        <ele>41.4</ele>
        <time>2024-12-19T13:19:29Z</time>
      </trkpt>
      <trkpt lat="47.91115" lon="-2.47884">
        <ele>41.5</ele>
        <time>2024-12-19T13:19:30Z</time>
      </trkpt>
      <trkpt lat="47.91115" lon="-2.47884">
        <ele>41.5</ele>
        <time>2024-12-19T13:19:31Z</time>
      </trkpt>
      <trkpt lat="47.91115" lon="-2.47883">
        <ele>41.7</ele>
        <time>2024-12-19T13:19:32Z</time>
      </trkpt>
      <trkpt lat="47.91114" lon="-2.47882">
        <ele>41.7</ele>
        <time>2024-12-19T13:19:33Z</time>
      </trkpt>
      <trkpt lat="47.91114" lon="-2.47882">
        <ele>41.7</ele>
        <time>2024-12-19T13:19:34Z</time>
      </trkpt>
      <trkpt lat="47.91114" lon="-2.47881">
        <ele>41.7</ele>
        <time>2024-12-19T13:19:35Z</time>
      </trkpt>
      <trkpt lat="47.91114" lon="-2.47881">
        <ele>41.8</ele>
        <time>2024-12-19T13:19:36Z</time>
      </trkpt>
      <trkpt lat="47.91114" lon="-2.47879">
        <ele>42.1</ele>
        <time>2024-12-19T13:19:37Z</time>
      </trkpt>
      <trkpt lat="47.91114" lon="-2.47877">
        <ele>42.3</ele>
        <time>2024-12-19T13:19:38Z</time>
      </trkpt>
      <trkpt lat="47.91114" lon="-2.47876">
        <ele>42.5</ele>
        <time>2024-12-19T13:19:39Z</time>
      </trkpt>
      <trkpt lat="47.91114" lon="-2.47875">
        <ele>42.7</ele>
        <time>2024-12-19T13:19:40Z</time>
      </trkpt>
      <trkpt lat="47.91115" lon="-2.47874">
        <ele>42.8</ele>
        <time>2024-12-19T13:19:41Z</time>
      </trkpt>
      <trkpt lat="47.91115" lon="-2.47873">
        <ele>43</ele>
        <time>2024-12-19T13:19:42Z</time>
      </trkpt>
      <trkpt lat="47.91115" lon="-2.47872">
        <ele>43.2</ele>
        <time>2024-12-19T13:19:43Z</time>
      </trkpt>
      <trkpt lat="47.91115" lon="-2.47871">
        <ele>43.3</ele>
        <time>2024-12-19T13:19:44Z</time>
      </trkpt>
      <trkpt lat="47.91115" lon="-2.4787">
        <ele>43.5</ele>
        <time>2024-12-19T13:19:45Z</time>
      </trkpt>
      <trkpt lat="47.91116" lon="-2.47869">
        <ele>43.6</ele>
        <time>2024-12-19T13:19:46Z</time>
      </trkpt>
      <trkpt lat="47.91116" lon="-2.47868">
        <ele>43.8</ele>
        <time>2024-12-19T13:19:47Z</time>
      </trkpt>
      <trkpt lat="47.91116" lon="-2.47867">
        <ele>43.9</ele>
        <time>2024-12-19T13:19:48Z</time>
      </trkpt>
      <trkpt lat="47.91116" lon="-2.47866">
        <ele>44.1</ele>
        <time>2024-12-19T13:19:49Z</time>
      </trkpt>
      <trkpt lat="47.91116" lon="-2.47865">
        <ele>44.2</ele>
        <time>2024-12-19T13:19:50Z</time>
      </trkpt>
      <trkpt lat="47.91116" lon="-2.47864">
        <ele>44.3</ele>
        <time>2024-12-19T13:19:51Z</time>
      </trkpt>
      <trkpt lat="47.91115" lon="-2.47863">
        <ele>44.3</ele>
        <time>2024-12-19T13:19:52Z</time>
      </trkpt>
      <trkpt lat="47.91115" lon="-2.47863">
        <ele>44.3</ele>
        <time>2024-12-19T13:19:53Z</time>
      </trkpt>
      <trkpt lat="47.91115" lon="-2.47862">
        <ele>44.4</ele>
        <time>2024-12-19T13:19:54Z</time>
      </trkpt>
      <trkpt lat="47.91115" lon="-2.47862">
        <ele>44.4</ele>
        <time>2024-12-19T13:19:55Z</time>
      </trkpt>
      <trkpt lat="47.91114" lon="-2.47862">
        <ele>44.4</ele>
        <time>2024-12-19T13:19:56Z</time>
      </trkpt>
      <trkpt lat="47.91114" lon="-2.47862">
        <ele>44.4</ele>
        <time>2024-12-19T13:19:57Z</time>
      </trkpt>
      <trkpt lat="47.91114" lon="-2.47862">
        <ele>44.4</ele>
        <time>2024-12-19T13:19:58Z</time>
      </trkpt>
      <trkpt lat="47.91114" lon="-2.47862">
        <ele>44.4</ele>
        <time>2024-12-19T13:19:59Z</time>
      </trkpt>
      <trkpt lat="47.91115" lon="-2.47861">
        <ele>44.5</ele>
        <time>2024-12-19T13:20:00Z</time>
      </trkpt>
      <trkpt lat="47.91116" lon="-2.47859">
        <ele>44.6</ele>
        <time>2024-12-19T13:20:01Z</time>
      </trkpt>
      <trkpt lat="47.91116" lon="-2.47857">
        <ele>44.7</ele>
        <time>2024-12-19T13:20:02Z</time>
      </trkpt>
      <trkpt lat="47.91117" lon="-2.47856">
        <ele>44.8</ele>
        <time>2024-12-19T13:20:03Z</time>
      </trkpt>
      <trkpt lat="47.91118" lon="-2.47855">
        <ele>44.9</ele>
        <time>2024-12-19T13:20:04Z</time>
      </trkpt>
      <trkpt lat="47.91119" lon="-2.47855">
        <ele>45</ele>
        <time>2024-12-19T13:20:05Z</time>
      </trkpt>
      <trkpt lat="47.9112" lon="-2.47855">
        <ele>45.2</ele>
        <time>2024-12-19T13:20:06Z</time>
      </trkpt>
      <trkpt lat="47.91122" lon="-2.47855">
        <ele>45.3</ele>
        <time>2024-12-19T13:20:07Z</time>
      </trkpt>
      <trkpt lat="47.91123" lon="-2.47855">
        <ele>45.5</ele>
        <time>2024-12-19T13:20:08Z</time>
      </trkpt>
      <trkpt lat="47.91124" lon="-2.47854">
        <ele>45.7</ele>
        <time>2024-12-19T13:20:09Z</time>
      </trkpt>
      <trkpt lat="47.91126" lon="-2.47854">
        <ele>45.8</ele>
        <time>2024-12-19T13:20:10Z</time>
      </trkpt>
      <trkpt lat="47.91127" lon="-2.47853">
        <ele>46</ele>
        <time>2024-12-19T13:20:11Z</time>
      </trkpt>
      <trkpt lat="47.91128" lon="-2.47849">
        <ele>45.9</ele>
        <time>2024-12-19T13:20:12Z</time>
      </trkpt>
      <trkpt lat="47.91129" lon="-2.47847">
        <ele>45.9</ele>
        <time>2024-12-19T13:20:13Z</time>
      </trkpt>
      <trkpt lat="47.91129" lon="-2.47846">
        <ele>45.9</ele>
        <time>2024-12-19T13:20:14Z</time>
      </trkpt>
      <trkpt lat="47.9113" lon="-2.47845">
        <ele>45.9</ele>
        <time>2024-12-19T13:20:15Z</time>
      </trkpt>
      <trkpt lat="47.9113" lon="-2.47845">
        <ele>46</ele>
        <time>2024-12-19T13:20:16Z</time>
      </trkpt>
      <trkpt lat="47.91131" lon="-2.47844">
        <ele>46</ele>
        <time>2024-12-19T13:20:17Z</time>
      </trkpt>
      <trkpt lat="47.91131" lon="-2.47844">
        <ele>46</ele>
        <time>2024-12-19T13:20:18Z</time>
      </trkpt>
      <trkpt lat="47.91131" lon="-2.47844">
        <ele>46</ele>
        <time>2024-12-19T13:20:19Z</time>
      </trkpt>
      <trkpt lat="47.91131" lon="-2.47844">
        <ele>46</ele>
        <time>2024-12-19T13:20:20Z</time>
      </trkpt>
      <trkpt lat="47.91131" lon="-2.47843">
        <ele>46</ele>
        <time>2024-12-19T13:20:21Z</time>
      </trkpt>
      <trkpt lat="47.91132" lon="-2.47843">
        <ele>46</ele>
        <time>2024-12-19T13:20:22Z</time>
      </trkpt>
      <trkpt lat="47.91132" lon="-2.47843">
        <ele>46</ele>
        <time>2024-12-19T13:20:23Z</time>
      </trkpt>
      <trkpt lat="47.91132" lon="-2.47843">
        <ele>46</ele>
        <time>2024-12-19T13:20:24Z</time>
      </trkpt>
      <trkpt lat="47.91132" lon="-2.47843">
        <ele>46</ele>
        <time>2024-12-19T13:20:25Z</time>
      </trkpt>
      <trkpt lat="47.91132" lon="-2.47843">
        <ele>46</ele>
        <time>2024-12-19T13:20:26Z</time>
      </trkpt>
      <trkpt lat="47.91132" lon="-2.47843">
        <ele>46</ele>
        <time>2024-12-19T13:20:27Z</time>
      </trkpt>
      <trkpt lat="47.91132" lon="-2.47843">
        <ele>46</ele>
        <time>2024-12-19T13:20:28Z</time>
      </trkpt>
      <trkpt lat="47.91132" lon="-2.47843">
        <ele>46</ele>
        <time>2024-12-19T13:20:29Z</time>
      </trkpt>
      <trkpt lat="47.91132" lon="-2.47843">
        <ele>46</ele>
        <time>2024-12-19T13:20:30Z</time>
      </trkpt>
      <trkpt lat="47.91132" lon="-2.47843">
        <ele>46</ele>
        <time>2024-12-19T13:20:31Z</time>
      </trkpt>
      <trkpt lat="47.91132" lon="-2.47843">
        <ele>46</ele>
        <time>2024-12-19T13:20:32Z</time>
      </trkpt>
      <trkpt lat="47.91132" lon="-2.47843">
        <ele>46</ele>
        <time>2024-12-19T13:20:33Z</time>
      </trkpt>
      <trkpt lat="47.91132" lon="-2.47843">
        <ele>46</ele>
        <time>2024-12-19T13:20:34Z</time>
      </trkpt>
      <trkpt lat="47.91133" lon="-2.47844">
        <ele>46.1</ele>
        <time>2024-12-19T13:20:35Z</time>
      </trkpt>
      <trkpt lat="47.91134" lon="-2.47844">
        <ele>46.3</ele>
        <time>2024-12-19T13:20:36Z</time>
      </trkpt>
      <trkpt lat="47.91135" lon="-2.47844">
        <ele>46.4</ele>
        <time>2024-12-19T13:20:37Z</time>
      </trkpt>
      <trkpt lat="47.91136" lon="-2.47845">
        <ele>46.5</ele>
        <time>2024-12-19T13:20:38Z</time>
      </trkpt>
      <trkpt lat="47.91137" lon="-2.47845">
        <ele>46.7</ele>
        <time>2024-12-19T13:20:39Z</time>
      </trkpt>
      <trkpt lat="47.91139" lon="-2.47845">
        <ele>46.8</ele>
        <time>2024-12-19T13:20:40Z</time>
      </trkpt>
      <trkpt lat="47.91141" lon="-2.47845">
        <ele>47</ele>
        <time>2024-12-19T13:20:41Z</time>
      </trkpt>
      <trkpt lat="47.91143" lon="-2.47845">
        <ele>47.3</ele>
        <time>2024-12-19T13:20:42Z</time>
      </trkpt>
      <trkpt lat="47.91145" lon="-2.47845">
        <ele>47.5</ele>
        <time>2024-12-19T13:20:43Z</time>
      </trkpt>
      <trkpt lat="47.91147" lon="-2.47844">
        <ele>47.7</ele>
        <time>2024-12-19T13:20:44Z</time>
      </trkpt>
      <trkpt lat="47.9115" lon="-2.47844">
        <ele>47.9</ele>
        <time>2024-12-19T13:20:45Z</time>
      </trkpt>
      <trkpt lat="47.91152" lon="-2.47843">
        <ele>48.2</ele>
        <time>2024-12-19T13:20:46Z</time>
      </trkpt>
      <trkpt lat="47.91155" lon="-2.47843">
        <ele>48.4</ele>
        <time>2024-12-19T13:20:47Z</time>
      </trkpt>
      <trkpt lat="47.91157" lon="-2.47843">
        <ele>48.6</ele>
        <time>2024-12-19T13:20:48Z</time>
      </trkpt>
      <trkpt lat="47.91158" lon="-2.47843">
        <ele>48.8</ele>
        <time>2024-12-19T13:20:49Z</time>
      </trkpt>
      <trkpt lat="47.9116" lon="-2.47843">
        <ele>48.9</ele>
        <time>2024-12-19T13:20:50Z</time>
      </trkpt>
      <trkpt lat="47.91161" lon="-2.47842">
        <ele>49</ele>
        <time>2024-12-19T13:20:51Z</time>
      </trkpt>
      <trkpt lat="47.91162" lon="-2.47842">
        <ele>49.2</ele>
        <time>2024-12-19T13:20:52Z</time>
      </trkpt>
      <trkpt lat="47.91164" lon="-2.47842">
        <ele>49.4</ele>
        <time>2024-12-19T13:20:53Z</time>
      </trkpt>
      <trkpt lat="47.91166" lon="-2.47842">
        <ele>49.6</ele>
        <time>2024-12-19T13:20:54Z</time>
      </trkpt>
      <trkpt lat="47.91167" lon="-2.47842">
        <ele>49.7</ele>
        <time>2024-12-19T13:20:55Z</time>
      </trkpt>
      <trkpt lat="47.91168" lon="-2.47842">
        <ele>49.9</ele>
        <time>2024-12-19T13:20:56Z</time>
      </trkpt>
      <trkpt lat="47.9117" lon="-2.47842">
        <ele>50</ele>
        <time>2024-12-19T13:20:57Z</time>
      </trkpt>
      <trkpt lat="47.91171" lon="-2.47843">
        <ele>50.2</ele>
        <time>2024-12-19T13:20:58Z</time>
      </trkpt>
      <trkpt lat="47.91172" lon="-2.47843">
        <ele>50.4</ele>
        <time>2024-12-19T13:20:59Z</time>
      </trkpt>
      <trkpt lat="47.91174" lon="-2.47843">
        <ele>50.6</ele>
        <time>2024-12-19T13:21:00Z</time>
      </trkpt>
      <trkpt lat="47.91175" lon="-2.47843">
        <ele>50.7</ele>
        <time>2024-12-19T13:21:01Z</time>
      </trkpt>
      <trkpt lat="47.91176" lon="-2.47843">
        <ele>50.8</ele>
        <time>2024-12-19T13:21:02Z</time>
      </trkpt>
      <trkpt lat="47.91177" lon="-2.47843">
        <ele>51</ele>
        <time>2024-12-19T13:21:03Z</time>
      </trkpt>
      <trkpt lat="47.91178" lon="-2.47843">
        <ele>51.1</ele>
        <time>2024-12-19T13:21:04Z</time>
      </trkpt>
      <trkpt lat="47.91179" lon="-2.47843">
        <ele>51.2</ele>
        <time>2024-12-19T13:21:05Z</time>
      </trkpt>
      <trkpt lat="47.9118" lon="-2.47842">
        <ele>51.4</ele>
        <time>2024-12-19T13:21:06Z</time>
      </trkpt>
      <trkpt lat="47.91181" lon="-2.47842">
        <ele>51.5</ele>
        <time>2024-12-19T13:21:07Z</time>
      </trkpt>
      <trkpt lat="47.91181" lon="-2.47842">
        <ele>51.5</ele>
        <time>2024-12-19T13:21:08Z</time>
      </trkpt>
      <trkpt lat="47.91181" lon="-2.47841">
        <ele>51.5</ele>
        <time>2024-12-19T13:21:09Z</time>
      </trkpt>
      <trkpt lat="47.91182" lon="-2.47841">
        <ele>51.6</ele>
        <time>2024-12-19T13:21:10Z</time>
      </trkpt>
      <trkpt lat="47.91182" lon="-2.47841">
        <ele>51.6</ele>
        <time>2024-12-19T13:21:11Z</time>
      </trkpt>
      <trkpt lat="47.91182" lon="-2.47841">
        <ele>51.6</ele>
        <time>2024-12-19T13:21:12Z</time>
      </trkpt>
      <trkpt lat="47.91182" lon="-2.47842">
        <ele>51.6</ele>
        <time>2024-12-19T13:21:13Z</time>
      </trkpt>
      <trkpt lat="47.91182" lon="-2.47841">
        <ele>51.6</ele>
        <time>2024-12-19T13:21:14Z</time>
      </trkpt>
      <trkpt lat="47.91182" lon="-2.47841">
        <ele>51.6</ele>
        <time>2024-12-19T13:21:15Z</time>
      </trkpt>
      <trkpt lat="47.91183" lon="-2.47841">
        <ele>51.7</ele>
        <time>2024-12-19T13:21:16Z</time>
      </trkpt>
      <trkpt lat="47.91183" lon="-2.47841">
        <ele>51.7</ele>
        <time>2024-12-19T13:21:17Z</time>
      </trkpt>
      <trkpt lat="47.91183" lon="-2.47841">
        <ele>51.7</ele>
        <time>2024-12-19T13:21:18Z</time>
      </trkpt>
      <trkpt lat="47.91183" lon="-2.47841">
        <ele>51.7</ele>
        <time>2024-12-19T13:21:19Z</time>
      </trkpt>
      <trkpt lat="47.91183" lon="-2.47841">
        <ele>51.7</ele>
        <time>2024-12-19T13:21:20Z</time>
      </trkpt>
      <trkpt lat="47.91183" lon="-2.47841">
        <ele>51.7</ele>
        <time>2024-12-19T13:21:21Z</time>
      </trkpt>
      <trkpt lat="47.91183" lon="-2.47841">
        <ele>51.7</ele>
        <time>2024-12-19T13:21:22Z</time>
      </trkpt>
      <trkpt lat="47.91183" lon="-2.47841">
        <ele>51.7</ele>
        <time>2024-12-19T13:21:23Z</time>
      </trkpt>
      <trkpt lat="47.91183" lon="-2.47841">
        <ele>51.7</ele>
        <time>2024-12-19T13:21:24Z</time>
      </trkpt>
      <trkpt lat="47.91183" lon="-2.47841">
        <ele>51.7</ele>
        <time>2024-12-19T13:21:25Z</time>
      </trkpt>
      <trkpt lat="47.91183" lon="-2.47841">
        <ele>51.7</ele>
        <time>2024-12-19T13:21:26Z</time>
      </trkpt>
      <trkpt lat="47.91183" lon="-2.47841">
        <ele>51.7</ele>
        <time>2024-12-19T13:21:27Z</time>
      </trkpt>
      <trkpt lat="47.91183" lon="-2.47841">
        <ele>51.7</ele>
        <time>2024-12-19T13:21:28Z</time>
      </trkpt>
      <trkpt lat="47.91183" lon="-2.47841">
        <ele>51.7</ele>
        <time>2024-12-19T13:21:29Z</time>
      </trkpt>
      <trkpt lat="47.91183" lon="-2.47841">
        <ele>51.7</ele>
        <time>2024-12-19T13:21:30Z</time>
      </trkpt>
      <trkpt lat="47.91183" lon="-2.47841">
        <ele>51.7</ele>
        <time>2024-12-19T13:21:31Z</time>
      </trkpt>
      <trkpt lat="47.91183" lon="-2.47841">
        <ele>51.7</ele>
        <time>2024-12-19T13:21:32Z</time>
      </trkpt>
      <trkpt lat="47.91183" lon="-2.47841">
        <ele>51.7</ele>
        <time>2024-12-19T13:21:33Z</time>
      </trkpt>
      <trkpt lat="47.91183" lon="-2.47841">
        <ele>51.7</ele>
        <time>2024-12-19T13:21:34Z</time>
      </trkpt>
      <trkpt lat="47.91183" lon="-2.47841">
        <ele>51.7</ele>
        <time>2024-12-19T13:21:35Z</time>
      </trkpt>
      <trkpt lat="47.91183" lon="-2.47841">
        <ele>51.7</ele>
        <time>2024-12-19T13:21:36Z</time>
      </trkpt>
      <trkpt lat="47.91183" lon="-2.47841">
        <ele>51.7</ele>
        <time>2024-12-19T13:21:37Z</time>
      </trkpt>
      <trkpt lat="47.91183" lon="-2.47841">
        <ele>51.7</ele>
        <time>2024-12-19T13:21:38Z</time>
      </trkpt>
      <trkpt lat="47.91183" lon="-2.47841">
        <ele>51.7</ele>
        <time>2024-12-19T13:21:39Z</time>
      </trkpt>
      <trkpt lat="47.91183" lon="-2.47841">
        <ele>51.7</ele>
        <time>2024-12-19T13:21:40Z</time>
      </trkpt>
      <trkpt lat="47.91183" lon="-2.47841">
        <ele>51.7</ele>
        <time>2024-12-19T13:21:41Z</time>
      </trkpt>
      <trkpt lat="47.91183" lon="-2.47841">
        <ele>51.7</ele>
        <time>2024-12-19T13:21:42Z</time>
      </trkpt>
      <trkpt lat="47.91183" lon="-2.47841">
        <ele>51.7</ele>
        <time>2024-12-19T13:21:43Z</time>
      </trkpt>
      <trkpt lat="47.91183" lon="-2.47841">
        <ele>51.7</ele>
        <time>2024-12-19T13:21:44Z</time>
      </trkpt>
      <trkpt lat="47.91183" lon="-2.47841">
        <ele>51.7</ele>
        <time>2024-12-19T13:21:45Z</time>
      </trkpt>
      <trkpt lat="47.91183" lon="-2.47841">
        <ele>51.7</ele>
        <time>2024-12-19T13:21:46Z</time>
      </trkpt>
      <trkpt lat="47.91183" lon="-2.47841">
        <ele>51.7</ele>
        <time>2024-12-19T13:21:47Z</time>
      </trkpt>
      <trkpt lat="47.91183" lon="-2.47841">
        <ele>51.7</ele>
        <time>2024-12-19T13:21:48Z</time>
      </trkpt>
      <trkpt lat="47.91183" lon="-2.47841">
        <ele>51.7</ele>
        <time>2024-12-19T13:21:49Z</time>
      </trkpt>
      <trkpt lat="47.91183" lon="-2.47841">
        <ele>51.7</ele>
        <time>2024-12-19T13:21:50Z</time>
      </trkpt>
      <trkpt lat="47.91183" lon="-2.47841">
        <ele>51.7</ele>
        <time>2024-12-19T13:21:51Z</time>
      </trkpt>
      <trkpt lat="47.91183" lon="-2.47842">
        <ele>51.8</ele>
        <time>2024-12-19T13:21:52Z</time>
      </trkpt>
      <trkpt lat="47.91184" lon="-2.47842">
        <ele>51.9</ele>
        <time>2024-12-19T13:21:53Z</time>
      </trkpt>
      <trkpt lat="47.91185" lon="-2.47842">
        <ele>52</ele>
        <time>2024-12-19T13:21:54Z</time>
      </trkpt>
      <trkpt lat="47.91186" lon="-2.47843">
        <ele>52.3</ele>
        <time>2024-12-19T13:21:55Z</time>
      </trkpt>
      <trkpt lat="47.91188" lon="-2.47842">
        <ele>52.4</ele>
        <time>2024-12-19T13:21:56Z</time>
      </trkpt>
      <trkpt lat="47.91189" lon="-2.47842">
        <ele>52.5</ele>
        <time>2024-12-19T13:21:57Z</time>
      </trkpt>
      <trkpt lat="47.9119" lon="-2.47842">
        <ele>52.7</ele>
        <time>2024-12-19T13:21:58Z</time>
      </trkpt>
      <trkpt lat="47.91191" lon="-2.47842">
        <ele>52.9</ele>
        <time>2024-12-19T13:21:59Z</time>
      </trkpt>
      <trkpt lat="47.91192" lon="-2.47842">
        <ele>53</ele>
        <time>2024-12-19T13:22:00Z</time>
      </trkpt>
      <trkpt lat="47.91193" lon="-2.47842">
        <ele>53.2</ele>
        <time>2024-12-19T13:22:01Z</time>
      </trkpt>
      <trkpt lat="47.91195" lon="-2.47843">
        <ele>53.3</ele>
        <time>2024-12-19T13:22:02Z</time>
      </trkpt>
      <trkpt lat="47.91196" lon="-2.47843">
        <ele>53.5</ele>
        <time>2024-12-19T13:22:03Z</time>
      </trkpt>
      <trkpt lat="47.91197" lon="-2.47843">
        <ele>53.6</ele>
        <time>2024-12-19T13:22:04Z</time>
      </trkpt>
      <trkpt lat="47.91198" lon="-2.47843">
        <ele>53.7</ele>
        <time>2024-12-19T13:22:05Z</time>
      </trkpt>
      <trkpt lat="47.91199" lon="-2.47843">
        <ele>53.8</ele>
        <time>2024-12-19T13:22:06Z</time>
      </trkpt>
      <trkpt lat="47.912" lon="-2.47843">
        <ele>53.8</ele>
        <time>2024-12-19T13:22:07Z</time>
      </trkpt>
      <trkpt lat="47.91201" lon="-2.47843">
        <ele>53.9</ele>
        <time>2024-12-19T13:22:08Z</time>
      </trkpt>
      <trkpt lat="47.91202" lon="-2.47843">
        <ele>54</ele>
        <time>2024-12-19T13:22:09Z</time>
      </trkpt>
      <trkpt lat="47.91203" lon="-2.47843">
        <ele>54.1</ele>
        <time>2024-12-19T13:22:10Z</time>
      </trkpt>
      <trkpt lat="47.91204" lon="-2.47842">
        <ele>54.1</ele>
        <time>2024-12-19T13:22:11Z</time>
      </trkpt>
      <trkpt lat="47.91205" lon="-2.47843">
        <ele>54.2</ele>
        <time>2024-12-19T13:22:12Z</time>
      </trkpt>
      <trkpt lat="47.91205" lon="-2.47843">
        <ele>54.2</ele>
        <time>2024-12-19T13:22:13Z</time>
      </trkpt>
      <trkpt lat="47.91205" lon="-2.47843">
        <ele>54.2</ele>
        <time>2024-12-19T13:22:14Z</time>
      </trkpt>
      <trkpt lat="47.91206" lon="-2.47843">
        <ele>54.3</ele>
        <time>2024-12-19T13:22:15Z</time>
      </trkpt>
      <trkpt lat="47.91207" lon="-2.47843">
        <ele>54.3</ele>
        <time>2024-12-19T13:22:16Z</time>
      </trkpt>
      <trkpt lat="47.91208" lon="-2.47842">
        <ele>54.4</ele>
        <time>2024-12-19T13:22:17Z</time>
      </trkpt>
      <trkpt lat="47.91209" lon="-2.47842">
        <ele>54.5</ele>
        <time>2024-12-19T13:22:18Z</time>
      </trkpt>
      <trkpt lat="47.9121" lon="-2.47841">
        <ele>54.5</ele>
        <time>2024-12-19T13:22:19Z</time>
      </trkpt>
      <trkpt lat="47.91211" lon="-2.4784">
        <ele>54.6</ele>
        <time>2024-12-19T13:22:20Z</time>
      </trkpt>
      <trkpt lat="47.91211" lon="-2.4784">
        <ele>54.5</ele>
        <time>2024-12-19T13:22:21Z</time>
      </trkpt>
      <trkpt lat="47.91212" lon="-2.47839">
        <ele>54.6</ele>
        <time>2024-12-19T13:22:22Z</time>
      </trkpt>
      <trkpt lat="47.91212" lon="-2.47838">
        <ele>54.6</ele>
        <time>2024-12-19T13:22:23Z</time>
      </trkpt>
      <trkpt lat="47.91213" lon="-2.47838">
        <ele>54.6</ele>
        <time>2024-12-19T13:22:24Z</time>
      </trkpt>
      <trkpt lat="47.91214" lon="-2.47837">
        <ele>54.7</ele>
        <time>2024-12-19T13:22:25Z</time>
      </trkpt>
      <trkpt lat="47.91216" lon="-2.47837">
        <ele>54.7</ele>
        <time>2024-12-19T13:22:26Z</time>
      </trkpt>
      <trkpt lat="47.91217" lon="-2.47836">
        <ele>54.8</ele>
        <time>2024-12-19T13:22:27Z</time>
      </trkpt>
      <trkpt lat="47.91218" lon="-2.47836">
        <ele>54.9</ele>
        <time>2024-12-19T13:22:28Z</time>
      </trkpt>
      <trkpt lat="47.91219" lon="-2.47836">
        <ele>54.9</ele>
        <time>2024-12-19T13:22:29Z</time>
      </trkpt>
      <trkpt lat="47.91219" lon="-2.47836">
        <ele>54.9</ele>
        <time>2024-12-19T13:22:30Z</time>
      </trkpt>
      <trkpt lat="47.9122" lon="-2.47835">
        <ele>55</ele>
        <time>2024-12-19T13:22:31Z</time>
      </trkpt>
      <trkpt lat="47.91222" lon="-2.47835">
        <ele>55.1</ele>
        <time>2024-12-19T13:22:32Z</time>
      </trkpt>
      <trkpt lat="47.91223" lon="-2.47834">
        <ele>55.2</ele>
        <time>2024-12-19T13:22:33Z</time>
      </trkpt>
      <trkpt lat="47.91224" lon="-2.47833">
        <ele>55.5</ele>
        <time>2024-12-19T13:22:34Z</time>
      </trkpt>
      <trkpt lat="47.91225" lon="-2.47831">
        <ele>55.8</ele>
        <time>2024-12-19T13:22:35Z</time>
      </trkpt>
      <trkpt lat="47.91226" lon="-2.4783">
        <ele>56</ele>
        <time>2024-12-19T13:22:36Z</time>
      </trkpt>
      <trkpt lat="47.91227" lon="-2.47829">
        <ele>56.3</ele>
        <time>2024-12-19T13:22:37Z</time>
      </trkpt>
      <trkpt lat="47.91228" lon="-2.47828">
        <ele>56.5</ele>
        <time>2024-12-19T13:22:38Z</time>
      </trkpt>
      <trkpt lat="47.91228" lon="-2.47827">
        <ele>56.6</ele>
        <time>2024-12-19T13:22:39Z</time>
      </trkpt>
      <trkpt lat="47.91229" lon="-2.47826">
        <ele>56.8</ele>
        <time>2024-12-19T13:22:40Z</time>
      </trkpt>
      <trkpt lat="47.9123" lon="-2.47825">
        <ele>57</ele>
        <time>2024-12-19T13:22:41Z</time>
      </trkpt>
      <trkpt lat="47.91231" lon="-2.47824">
        <ele>57.2</ele>
        <time>2024-12-19T13:22:42Z</time>
      </trkpt>
      <trkpt lat="47.91232" lon="-2.47822">
        <ele>57.4</ele>
        <time>2024-12-19T13:22:43Z</time>
      </trkpt>
      <trkpt lat="47.91232" lon="-2.47821">
        <ele>57.6</ele>
        <time>2024-12-19T13:22:44Z</time>
      </trkpt>
      <trkpt lat="47.91233" lon="-2.4782">
        <ele>57.8</ele>
        <time>2024-12-19T13:22:45Z</time>
      </trkpt>
      <trkpt lat="47.91234" lon="-2.4782">
        <ele>58</ele>
        <time>2024-12-19T13:22:46Z</time>
      </trkpt>
      <trkpt lat="47.91235" lon="-2.47819">
        <ele>58.1</ele>
        <time>2024-12-19T13:22:47Z</time>
      </trkpt>
      <trkpt lat="47.91236" lon="-2.47819">
        <ele>58.2</ele>
        <time>2024-12-19T13:22:48Z</time>
      </trkpt>
      <trkpt lat="47.91236" lon="-2.47818">
        <ele>58.3</ele>
        <time>2024-12-19T13:22:49Z</time>
      </trkpt>
      <trkpt lat="47.91237" lon="-2.47816">
        <ele>58.4</ele>
        <time>2024-12-19T13:22:50Z</time>
      </trkpt>
      <trkpt lat="47.91237" lon="-2.47815">
        <ele>58.5</ele>
        <time>2024-12-19T13:22:51Z</time>
      </trkpt>
      <trkpt lat="47.91238" lon="-2.47814">
        <ele>58.6</ele>
        <time>2024-12-19T13:22:52Z</time>
      </trkpt>
      <trkpt lat="47.91238" lon="-2.47813">
        <ele>58.6</ele>
        <time>2024-12-19T13:22:53Z</time>
      </trkpt>
      <trkpt lat="47.91239" lon="-2.47812">
        <ele>58.7</ele>
        <time>2024-12-19T13:22:54Z</time>
      </trkpt>
      <trkpt lat="47.91239" lon="-2.47811">
        <ele>58.8</ele>
        <time>2024-12-19T13:22:55Z</time>
      </trkpt>
      <trkpt lat="47.9124" lon="-2.4781">
        <ele>58.9</ele>
        <time>2024-12-19T13:22:56Z</time>
      </trkpt>
      <trkpt lat="47.91241" lon="-2.47809">
        <ele>59.1</ele>
        <time>2024-12-19T13:22:57Z</time>
      </trkpt>
      <trkpt lat="47.91242" lon="-2.47809">
        <ele>59.2</ele>
        <time>2024-12-19T13:22:58Z</time>
      </trkpt>
      <trkpt lat="47.91243" lon="-2.47808">
        <ele>59.2</ele>
        <time>2024-12-19T13:22:59Z</time>
      </trkpt>
      <trkpt lat="47.91243" lon="-2.47807">
        <ele>59.3</ele>
        <time>2024-12-19T13:23:00Z</time>
      </trkpt>
      <trkpt lat="47.91243" lon="-2.47807">
        <ele>59.3</ele>
        <time>2024-12-19T13:23:01Z</time>
      </trkpt>
      <trkpt lat="47.91244" lon="-2.47807">
        <ele>59.4</ele>
        <time>2024-12-19T13:23:02Z</time>
      </trkpt>
      <trkpt lat="47.91245" lon="-2.47807">
        <ele>59.5</ele>
        <time>2024-12-19T13:23:03Z</time>
      </trkpt>
      <trkpt lat="47.91246" lon="-2.47806">
        <ele>59.5</ele>
        <time>2024-12-19T13:23:04Z</time>
      </trkpt>
      <trkpt lat="47.91246" lon="-2.47806">
        <ele>59.6</ele>
        <time>2024-12-19T13:23:05Z</time>
      </trkpt>
      <trkpt lat="47.91247" lon="-2.47805">
        <ele>59.6</ele>
        <time>2024-12-19T13:23:06Z</time>
      </trkpt>
      <trkpt lat="47.91247" lon="-2.47804">
        <ele>59.6</ele>
        <time>2024-12-19T13:23:07Z</time>
      </trkpt>
      <trkpt lat="47.91248" lon="-2.47804">
        <ele>59.7</ele>
        <time>2024-12-19T13:23:08Z</time>
      </trkpt>
      <trkpt lat="47.91247" lon="-2.47803">
        <ele>59.6</ele>
        <time>2024-12-19T13:23:09Z</time>
      </trkpt>
      <trkpt lat="47.91247" lon="-2.47803">
        <ele>59.6</ele>
        <time>2024-12-19T13:23:10Z</time>
      </trkpt>
      <trkpt lat="47.91247" lon="-2.47802">
        <ele>59.5</ele>
        <time>2024-12-19T13:23:11Z</time>
      </trkpt>
      <trkpt lat="47.91247" lon="-2.47801">
        <ele>59.5</ele>
        <time>2024-12-19T13:23:12Z</time>
      </trkpt>
      <trkpt lat="47.91248" lon="-2.47801">
        <ele>59.5</ele>
        <time>2024-12-19T13:23:13Z</time>
      </trkpt>
      <trkpt lat="47.91248" lon="-2.478">
        <ele>59.6</ele>
        <time>2024-12-19T13:23:14Z</time>
      </trkpt>
      <trkpt lat="47.91248" lon="-2.478">
        <ele>59.6</ele>
        <time>2024-12-19T13:23:15Z</time>
      </trkpt>
      <trkpt lat="47.91249" lon="-2.478">
        <ele>59.6</ele>
        <time>2024-12-19T13:23:16Z</time>
      </trkpt>
      <trkpt lat="47.91249" lon="-2.478">
        <ele>59.7</ele>
        <time>2024-12-19T13:23:17Z</time>
      </trkpt>
      <trkpt lat="47.91249" lon="-2.478">
        <ele>59.7</ele>
        <time>2024-12-19T13:23:18Z</time>
      </trkpt>
      <trkpt lat="47.9125" lon="-2.478">
        <ele>59.8</ele>
        <time>2024-12-19T13:23:19Z</time>
      </trkpt>
      <trkpt lat="47.9125" lon="-2.478">
        <ele>59.8</ele>
        <time>2024-12-19T13:23:20Z</time>
      </trkpt>
      <trkpt lat="47.91252" lon="-2.47799">
        <ele>59.9</ele>
        <time>2024-12-19T13:23:21Z</time>
      </trkpt>
      <trkpt lat="47.91253" lon="-2.47799">
        <ele>60</ele>
        <time>2024-12-19T13:23:22Z</time>
      </trkpt>
      <trkpt lat="47.91254" lon="-2.47799">
        <ele>60.1</ele>
        <time>2024-12-19T13:23:23Z</time>
      </trkpt>
      <trkpt lat="47.91256" lon="-2.47799">
        <ele>60.2</ele>
        <time>2024-12-19T13:23:24Z</time>
      </trkpt>
      <trkpt lat="47.91257" lon="-2.47798">
        <ele>60.3</ele>
        <time>2024-12-19T13:23:25Z</time>
      </trkpt>
      <trkpt lat="47.91259" lon="-2.47798">
        <ele>60.4</ele>
        <time>2024-12-19T13:23:26Z</time>
      </trkpt>
      <trkpt lat="47.91259" lon="-2.47797">
        <ele>60.5</ele>
        <time>2024-12-19T13:23:27Z</time>
      </trkpt>
      <trkpt lat="47.9126" lon="-2.47797">
        <ele>60.5</ele>
        <time>2024-12-19T13:23:28Z</time>
      </trkpt>
      <trkpt lat="47.91261" lon="-2.47797">
        <ele>60.6</ele>
        <time>2024-12-19T13:23:29Z</time>
      </trkpt>
      <trkpt lat="47.91262" lon="-2.47797">
        <ele>60.7</ele>
        <time>2024-12-19T13:23:30Z</time>
      </trkpt>
      <trkpt lat="47.91263" lon="-2.47797">
        <ele>60.8</ele>
        <time>2024-12-19T13:23:31Z</time>
      </trkpt>
      <trkpt lat="47.91264" lon="-2.47797">
        <ele>60.9</ele>
        <time>2024-12-19T13:23:32Z</time>
      </trkpt>
      <trkpt lat="47.91265" lon="-2.47798">
        <ele>61</ele>
        <time>2024-12-19T13:23:33Z</time>
      </trkpt>
      <trkpt lat="47.91266" lon="-2.47799">
        <ele>61.1</ele>
        <time>2024-12-19T13:23:34Z</time>
      </trkpt>
      <trkpt lat="47.91268" lon="-2.478">
        <ele>61.2</ele>
        <time>2024-12-19T13:23:35Z</time>
      </trkpt>
      <trkpt lat="47.91269" lon="-2.47801">
        <ele>61.3</ele>
        <time>2024-12-19T13:23:36Z</time>
      </trkpt>
      <trkpt lat="47.91271" lon="-2.47802">
        <ele>61.4</ele>
        <time>2024-12-19T13:23:37Z</time>
      </trkpt>
      <trkpt lat="47.91271" lon="-2.47804">
        <ele>61.5</ele>
        <time>2024-12-19T13:23:38Z</time>
      </trkpt>
      <trkpt lat="47.91272" lon="-2.47805">
        <ele>61.6</ele>
        <time>2024-12-19T13:23:39Z</time>
      </trkpt>
      <trkpt lat="47.91272" lon="-2.47807">
        <ele>61.6</ele>
        <time>2024-12-19T13:23:40Z</time>
      </trkpt>
      <trkpt lat="47.91272" lon="-2.47808">
        <ele>61.7</ele>
        <time>2024-12-19T13:23:41Z</time>
      </trkpt>
      <trkpt lat="47.91272" lon="-2.47808">
        <ele>61.7</ele>
        <time>2024-12-19T13:23:42Z</time>
      </trkpt>
      <trkpt lat="47.91272" lon="-2.47808">
        <ele>61.7</ele>
        <time>2024-12-19T13:23:43Z</time>
      </trkpt>
      <trkpt lat="47.91272" lon="-2.47808">
        <ele>61.7</ele>
        <time>2024-12-19T13:23:44Z</time>
      </trkpt>
      <trkpt lat="47.91272" lon="-2.47808">
        <ele>61.7</ele>
        <time>2024-12-19T13:23:45Z</time>
      </trkpt>
      <trkpt lat="47.91272" lon="-2.47807">
        <ele>61.6</ele>
        <time>2024-12-19T13:23:46Z</time>
      </trkpt>
      <trkpt lat="47.91272" lon="-2.47805">
        <ele>61.6</ele>
        <time>2024-12-19T13:23:47Z</time>
      </trkpt>
      <trkpt lat="47.91272" lon="-2.47804">
        <ele>61.6</ele>
        <time>2024-12-19T13:23:48Z</time>
      </trkpt>
      <trkpt lat="47.91273" lon="-2.47803">
        <ele>61.6</ele>
        <time>2024-12-19T13:23:49Z</time>
      </trkpt>
      <trkpt lat="47.91274" lon="-2.47803">
        <ele>61.7</ele>
        <time>2024-12-19T13:23:50Z</time>
      </trkpt>
      <trkpt lat="47.91274" lon="-2.47803">
        <ele>61.7</ele>
        <time>2024-12-19T13:23:51Z</time>
      </trkpt>
      <trkpt lat="47.91275" lon="-2.47803">
        <ele>61.8</ele>
        <time>2024-12-19T13:23:52Z</time>
      </trkpt>
      <trkpt lat="47.91275" lon="-2.47803">
        <ele>61.8</ele>
        <time>2024-12-19T13:23:53Z</time>
      </trkpt>
      <trkpt lat="47.91274" lon="-2.47803">
        <ele>61.7</ele>
        <time>2024-12-19T13:23:54Z</time>
      </trkpt>
      <trkpt lat="47.91275" lon="-2.47804">
        <ele>61.8</ele>
        <time>2024-12-19T13:23:55Z</time>
      </trkpt>
      <trkpt lat="47.91275" lon="-2.47804">
        <ele>61.8</ele>
        <time>2024-12-19T13:23:56Z</time>
      </trkpt>
      <trkpt lat="47.91275" lon="-2.47804">
        <ele>61.8</ele>
        <time>2024-12-19T13:23:57Z</time>
      </trkpt>
      <trkpt lat="47.91275" lon="-2.47805">
        <ele>61.8</ele>
        <time>2024-12-19T13:23:58Z</time>
      </trkpt>
      <trkpt lat="47.91275" lon="-2.47805">
        <ele>61.8</ele>
        <time>2024-12-19T13:23:59Z</time>
      </trkpt>
      <trkpt lat="47.91275" lon="-2.47805">
        <ele>61.8</ele>
        <time>2024-12-19T13:24:00Z</time>
      </trkpt>
      <trkpt lat="47.91275" lon="-2.47805">
        <ele>61.8</ele>
        <time>2024-12-19T13:24:01Z</time>
      </trkpt>
      <trkpt lat="47.91275" lon="-2.47805">
        <ele>61.8</ele>
        <time>2024-12-19T13:24:02Z</time>
      </trkpt>
      <trkpt lat="47.91275" lon="-2.47806">
        <ele>61.8</ele>
        <time>2024-12-19T13:24:03Z</time>
      </trkpt>
      <trkpt lat="47.91275" lon="-2.47807">
        <ele>61.8</ele>
        <time>2024-12-19T13:24:04Z</time>
      </trkpt>
      <trkpt lat="47.91275" lon="-2.47809">
        <ele>61.9</ele>
        <time>2024-12-19T13:24:05Z</time>
      </trkpt>
      <trkpt lat="47.91275" lon="-2.47812">
        <ele>62</ele>
        <time>2024-12-19T13:24:06Z</time>
      </trkpt>
      <trkpt lat="47.91275" lon="-2.47814">
        <ele>62.1</ele>
        <time>2024-12-19T13:24:07Z</time>
      </trkpt>
      <trkpt lat="47.91274" lon="-2.47816">
        <ele>62.1</ele>
        <time>2024-12-19T13:24:08Z</time>
      </trkpt>
      <trkpt lat="47.91274" lon="-2.47818">
        <ele>62.2</ele>
        <time>2024-12-19T13:24:09Z</time>
      </trkpt>
      <trkpt lat="47.91274" lon="-2.4782">
        <ele>62.2</ele>
        <time>2024-12-19T13:24:10Z</time>
      </trkpt>
      <trkpt lat="47.91274" lon="-2.47821">
        <ele>62.3</ele>
        <time>2024-12-19T13:24:11Z</time>
      </trkpt>
      <trkpt lat="47.91274" lon="-2.47822">
        <ele>62.3</ele>
        <time>2024-12-19T13:24:12Z</time>
      </trkpt>
      <trkpt lat="47.91274" lon="-2.47824">
        <ele>62.4</ele>
        <time>2024-12-19T13:24:13Z</time>
      </trkpt>
      <trkpt lat="47.91274" lon="-2.47826">
        <ele>62.5</ele>
        <time>2024-12-19T13:24:14Z</time>
      </trkpt>
      <trkpt lat="47.91274" lon="-2.47828">
        <ele>62.6</ele>
        <time>2024-12-19T13:24:15Z</time>
      </trkpt>
      <trkpt lat="47.91275" lon="-2.47829">
        <ele>62.6</ele>
        <time>2024-12-19T13:24:16Z</time>
      </trkpt>
      <trkpt lat="47.91275" lon="-2.47829">
        <ele>62.6</ele>
        <time>2024-12-19T13:24:17Z</time>
      </trkpt>
      <trkpt lat="47.91275" lon="-2.47829">
        <ele>62.6</ele>
        <time>2024-12-19T13:24:18Z</time>
      </trkpt>
      <trkpt lat="47.91275" lon="-2.47829">
        <ele>62.6</ele>
        <time>2024-12-19T13:24:19Z</time>
      </trkpt>
      <trkpt lat="47.91275" lon="-2.47829">
        <ele>62.6</ele>
        <time>2024-12-19T13:24:20Z</time>
      </trkpt>
      <trkpt lat="47.91275" lon="-2.4783">
        <ele>62.7</ele>
        <time>2024-12-19T13:24:21Z</time>
      </trkpt>
      <trkpt lat="47.91275" lon="-2.4783">
        <ele>62.7</ele>
        <time>2024-12-19T13:24:22Z</time>
      </trkpt>
      <trkpt lat="47.91275" lon="-2.4783">
        <ele>62.7</ele>
        <time>2024-12-19T13:24:23Z</time>
      </trkpt>
      <trkpt lat="47.91276" lon="-2.4783">
        <ele>62.7</ele>
        <time>2024-12-19T13:24:24Z</time>
      </trkpt>
      <trkpt lat="47.91276" lon="-2.47832">
        <ele>62.8</ele>
        <time>2024-12-19T13:24:25Z</time>
      </trkpt>
      <trkpt lat="47.91276" lon="-2.47833">
        <ele>62.9</ele>
        <time>2024-12-19T13:24:26Z</time>
      </trkpt>
      <trkpt lat="47.91277" lon="-2.47834">
        <ele>62.9</ele>
        <time>2024-12-19T13:24:27Z</time>
      </trkpt>
      <trkpt lat="47.91277" lon="-2.47836">
        <ele>63</ele>
        <time>2024-12-19T13:24:28Z</time>
      </trkpt>
      <trkpt lat="47.91278" lon="-2.47838">
        <ele>63</ele>
        <time>2024-12-19T13:24:29Z</time>
      </trkpt>
      <trkpt lat="47.91278" lon="-2.4784">
        <ele>63</ele>
        <time>2024-12-19T13:24:30Z</time>
      </trkpt>
      <trkpt lat="47.91278" lon="-2.47842">
        <ele>63</ele>
        <time>2024-12-19T13:24:31Z</time>
      </trkpt>
      <trkpt lat="47.91279" lon="-2.47845">
        <ele>63.1</ele>
        <time>2024-12-19T13:24:32Z</time>
      </trkpt>
      <trkpt lat="47.9128" lon="-2.47847">
        <ele>63.2</ele>
        <time>2024-12-19T13:24:33Z</time>
      </trkpt>
      <trkpt lat="47.9128" lon="-2.47849">
        <ele>63.2</ele>
        <time>2024-12-19T13:24:34Z</time>
      </trkpt>
      <trkpt lat="47.91281" lon="-2.47851">
        <ele>63.3</ele>
        <time>2024-12-19T13:24:35Z</time>
      </trkpt>
      <trkpt lat="47.91281" lon="-2.47852">
        <ele>63.3</ele>
        <time>2024-12-19T13:24:36Z</time>
      </trkpt>
      <trkpt lat="47.91281" lon="-2.47853">
        <ele>63.3</ele>
        <time>2024-12-19T13:24:37Z</time>
      </trkpt>
      <trkpt lat="47.91282" lon="-2.47855">
        <ele>63.4</ele>
        <time>2024-12-19T13:24:38Z</time>
      </trkpt>
      <trkpt lat="47.91282" lon="-2.47857">
        <ele>63.4</ele>
        <time>2024-12-19T13:24:39Z</time>
      </trkpt>
      <trkpt lat="47.91283" lon="-2.47858">
        <ele>63.5</ele>
        <time>2024-12-19T13:24:40Z</time>
      </trkpt>
      <trkpt lat="47.91283" lon="-2.47859">
        <ele>63.6</ele>
        <time>2024-12-19T13:24:41Z</time>
      </trkpt>
      <trkpt lat="47.91284" lon="-2.47861">
        <ele>63.6</ele>
        <time>2024-12-19T13:24:42Z</time>
      </trkpt>
      <trkpt lat="47.91285" lon="-2.47862">
        <ele>63.8</ele>
        <time>2024-12-19T13:24:43Z</time>
      </trkpt>
      <trkpt lat="47.91286" lon="-2.47864">
        <ele>63.9</ele>
        <time>2024-12-19T13:24:44Z</time>
      </trkpt>
      <trkpt lat="47.91287" lon="-2.47865">
        <ele>64</ele>
        <time>2024-12-19T13:24:45Z</time>
      </trkpt>
      <trkpt lat="47.91288" lon="-2.47866">
        <ele>64.1</ele>
        <time>2024-12-19T13:24:46Z</time>
      </trkpt>
      <trkpt lat="47.91288" lon="-2.47866">
        <ele>64.2</ele>
        <time>2024-12-19T13:24:47Z</time>
      </trkpt>
      <trkpt lat="47.91288" lon="-2.47866">
        <ele>64.2</ele>
        <time>2024-12-19T13:24:48Z</time>
      </trkpt>
      <trkpt lat="47.91288" lon="-2.47867">
        <ele>64.2</ele>
        <time>2024-12-19T13:24:49Z</time>
      </trkpt>
      <trkpt lat="47.91289" lon="-2.47867">
        <ele>64.2</ele>
        <time>2024-12-19T13:24:50Z</time>
      </trkpt>
      <trkpt lat="47.9129" lon="-2.47867">
        <ele>64.3</ele>
        <time>2024-12-19T13:24:51Z</time>
      </trkpt>
      <trkpt lat="47.91291" lon="-2.47868">
        <ele>64.4</ele>
        <time>2024-12-19T13:24:52Z</time>
      </trkpt>
      <trkpt lat="47.91292" lon="-2.47868">
        <ele>64.5</ele>
        <time>2024-12-19T13:24:53Z</time>
      </trkpt>
      <trkpt lat="47.91292" lon="-2.47868">
        <ele>64.5</ele>
        <time>2024-12-19T13:24:54Z</time>
      </trkpt>
      <trkpt lat="47.91292" lon="-2.47867">
        <ele>64.5</ele>
        <time>2024-12-19T13:24:55Z</time>
      </trkpt>
      <trkpt lat="47.91292" lon="-2.47868">
        <ele>64.5</ele>
        <time>2024-12-19T13:24:56Z</time>
      </trkpt>
      <trkpt lat="47.91292" lon="-2.47868">
        <ele>64.5</ele>
        <time>2024-12-19T13:24:57Z</time>
      </trkpt>
      <trkpt lat="47.91292" lon="-2.47869">
        <ele>64.5</ele>
        <time>2024-12-19T13:24:58Z</time>
      </trkpt>
      <trkpt lat="47.91292" lon="-2.4787">
        <ele>64.5</ele>
        <time>2024-12-19T13:24:59Z</time>
      </trkpt>
      <trkpt lat="47.91292" lon="-2.47869">
        <ele>64.6</ele>
        <time>2024-12-19T13:25:00Z</time>
      </trkpt>
      <trkpt lat="47.91294" lon="-2.47869">
        <ele>64.7</ele>
        <time>2024-12-19T13:25:01Z</time>
      </trkpt>
      <trkpt lat="47.91295" lon="-2.47868">
        <ele>64.8</ele>
        <time>2024-12-19T13:25:02Z</time>
      </trkpt>
      <trkpt lat="47.91297" lon="-2.47869">
        <ele>64.9</ele>
        <time>2024-12-19T13:25:03Z</time>
      </trkpt>
      <trkpt lat="47.91298" lon="-2.4787">
        <ele>65.1</ele>
        <time>2024-12-19T13:25:04Z</time>
      </trkpt>
      <trkpt lat="47.91301" lon="-2.47872">
        <ele>65.3</ele>
        <time>2024-12-19T13:25:05Z</time>
      </trkpt>
      <trkpt lat="47.91302" lon="-2.47872">
        <ele>65.3</ele>
        <time>2024-12-19T13:25:06Z</time>
      </trkpt>
      <trkpt lat="47.91303" lon="-2.47873">
        <ele>65.4</ele>
        <time>2024-12-19T13:25:07Z</time>
      </trkpt>
      <trkpt lat="47.91305" lon="-2.47873">
        <ele>65.5</ele>
        <time>2024-12-19T13:25:08Z</time>
      </trkpt>
      <trkpt lat="47.91306" lon="-2.47873">
        <ele>65.6</ele>
        <time>2024-12-19T13:25:09Z</time>
      </trkpt>
      <trkpt lat="47.91307" lon="-2.47873">
        <ele>65.6</ele>
        <time>2024-12-19T13:25:10Z</time>
      </trkpt>
      <trkpt lat="47.91308" lon="-2.47872">
        <ele>65.7</ele>
        <time>2024-12-19T13:25:11Z</time>
      </trkpt>
      <trkpt lat="47.91309" lon="-2.47871">
        <ele>65.8</ele>
        <time>2024-12-19T13:25:12Z</time>
      </trkpt>
      <trkpt lat="47.9131" lon="-2.47871">
        <ele>65.9</ele>
        <time>2024-12-19T13:25:13Z</time>
      </trkpt>
      <trkpt lat="47.91311" lon="-2.4787">
        <ele>65.9</ele>
        <time>2024-12-19T13:25:14Z</time>
      </trkpt>
      <trkpt lat="47.91312" lon="-2.4787">
        <ele>66</ele>
        <time>2024-12-19T13:25:15Z</time>
      </trkpt>
      <trkpt lat="47.91312" lon="-2.4787">
        <ele>66</ele>
        <time>2024-12-19T13:25:16Z</time>
      </trkpt>
      <trkpt lat="47.91313" lon="-2.4787">
        <ele>66.1</ele>
        <time>2024-12-19T13:25:17Z</time>
      </trkpt>
      <trkpt lat="47.91314" lon="-2.47871">
        <ele>66.1</ele>
        <time>2024-12-19T13:25:18Z</time>
      </trkpt>
      <trkpt lat="47.91316" lon="-2.47871">
        <ele>66.1</ele>
        <time>2024-12-19T13:25:19Z</time>
      </trkpt>
      <trkpt lat="47.91317" lon="-2.47871">
        <ele>66.2</ele>
        <time>2024-12-19T13:25:20Z</time>
      </trkpt>
      <trkpt lat="47.91318" lon="-2.47872">
        <ele>66.2</ele>
        <time>2024-12-19T13:25:21Z</time>
      </trkpt>
      <trkpt lat="47.91319" lon="-2.47872">
        <ele>66.3</ele>
        <time>2024-12-19T13:25:22Z</time>
      </trkpt>
      <trkpt lat="47.91321" lon="-2.47872">
        <ele>66.4</ele>
        <time>2024-12-19T13:25:23Z</time>
      </trkpt>
      <trkpt lat="47.91323" lon="-2.47872">
        <ele>66.5</ele>
        <time>2024-12-19T13:25:24Z</time>
      </trkpt>
      <trkpt lat="47.91324" lon="-2.47871">
        <ele>66.6</ele>
        <time>2024-12-19T13:25:25Z</time>
      </trkpt>
      <trkpt lat="47.91326" lon="-2.47871">
        <ele>66.6</ele>
        <time>2024-12-19T13:25:26Z</time>
      </trkpt>
      <trkpt lat="47.91327" lon="-2.47871">
        <ele>66.7</ele>
        <time>2024-12-19T13:25:27Z</time>
      </trkpt>
      <trkpt lat="47.91328" lon="-2.47871">
        <ele>66.7</ele>
        <time>2024-12-19T13:25:28Z</time>
      </trkpt>
      <trkpt lat="47.91329" lon="-2.47872">
        <ele>66.8</ele>
        <time>2024-12-19T13:25:29Z</time>
      </trkpt>
      <trkpt lat="47.9133" lon="-2.47872">
        <ele>66.8</ele>
        <time>2024-12-19T13:25:30Z</time>
      </trkpt>
      <trkpt lat="47.91331" lon="-2.47873">
        <ele>66.9</ele>
        <time>2024-12-19T13:25:31Z</time>
      </trkpt>
      <trkpt lat="47.91332" lon="-2.47873">
        <ele>66.9</ele>
        <time>2024-12-19T13:25:32Z</time>
      </trkpt>
      <trkpt lat="47.91332" lon="-2.47874">
        <ele>67</ele>
        <time>2024-12-19T13:25:33Z</time>
      </trkpt>
      <trkpt lat="47.91332" lon="-2.47874">
        <ele>67</ele>
        <time>2024-12-19T13:25:34Z</time>
      </trkpt>
      <trkpt lat="47.91333" lon="-2.47874">
        <ele>67</ele>
        <time>2024-12-19T13:25:35Z</time>
      </trkpt>
      <trkpt lat="47.91334" lon="-2.47874">
        <ele>67.1</ele>
        <time>2024-12-19T13:25:36Z</time>
      </trkpt>
      <trkpt lat="47.91335" lon="-2.47873">
        <ele>67.2</ele>
        <time>2024-12-19T13:25:37Z</time>
      </trkpt>
      <trkpt lat="47.91336" lon="-2.47873">
        <ele>67.3</ele>
        <time>2024-12-19T13:25:38Z</time>
      </trkpt>
      <trkpt lat="47.91338" lon="-2.47872">
        <ele>67.4</ele>
        <time>2024-12-19T13:25:39Z</time>
      </trkpt>
      <trkpt lat="47.91338" lon="-2.47871">
        <ele>67.5</ele>
        <time>2024-12-19T13:25:40Z</time>
      </trkpt>
      <trkpt lat="47.91339" lon="-2.47871">
        <ele>67.6</ele>
        <time>2024-12-19T13:25:41Z</time>
      </trkpt>
      <trkpt lat="47.9134" lon="-2.47871">
        <ele>67.6</ele>
        <time>2024-12-19T13:25:42Z</time>
      </trkpt>
      <trkpt lat="47.91342" lon="-2.47871">
        <ele>67.8</ele>
        <time>2024-12-19T13:25:43Z</time>
      </trkpt>
      <trkpt lat="47.91343" lon="-2.47871">
        <ele>67.9</ele>
        <time>2024-12-19T13:25:44Z</time>
      </trkpt>
      <trkpt lat="47.91343" lon="-2.47872">
        <ele>67.9</ele>
        <time>2024-12-19T13:25:45Z</time>
      </trkpt>
      <trkpt lat="47.91344" lon="-2.47872">
        <ele>68</ele>
        <time>2024-12-19T13:25:46Z</time>
      </trkpt>
      <trkpt lat="47.91346" lon="-2.47872">
        <ele>68.2</ele>
        <time>2024-12-19T13:25:47Z</time>
      </trkpt>
      <trkpt lat="47.91347" lon="-2.47872">
        <ele>68.3</ele>
        <time>2024-12-19T13:25:48Z</time>
      </trkpt>
      <trkpt lat="47.91348" lon="-2.47872">
        <ele>68.4</ele>
        <time>2024-12-19T13:25:49Z</time>
      </trkpt>
      <trkpt lat="47.91348" lon="-2.47872">
        <ele>68.4</ele>
        <time>2024-12-19T13:25:50Z</time>
      </trkpt>
      <trkpt lat="47.91349" lon="-2.47872">
        <ele>68.4</ele>
        <time>2024-12-19T13:25:51Z</time>
      </trkpt>
      <trkpt lat="47.91349" lon="-2.47873">
        <ele>68.5</ele>
        <time>2024-12-19T13:25:52Z</time>
      </trkpt>
      <trkpt lat="47.91352" lon="-2.47872">
        <ele>68.8</ele>
        <time>2024-12-19T13:25:53Z</time>
      </trkpt>
      <trkpt lat="47.91354" lon="-2.47872">
        <ele>68.9</ele>
        <time>2024-12-19T13:25:54Z</time>
      </trkpt>
      <trkpt lat="47.91355" lon="-2.47872">
        <ele>69</ele>
        <time>2024-12-19T13:25:55Z</time>
      </trkpt>
      <trkpt lat="47.91356" lon="-2.47872">
        <ele>69.1</ele>
        <time>2024-12-19T13:25:56Z</time>
      </trkpt>
      <trkpt lat="47.91358" lon="-2.47872">
        <ele>69.3</ele>
        <time>2024-12-19T13:25:57Z</time>
      </trkpt>
      <trkpt lat="47.91359" lon="-2.47871">
        <ele>69.5</ele>
        <time>2024-12-19T13:25:58Z</time>
      </trkpt>
      <trkpt lat="47.91361" lon="-2.47871">
        <ele>69.7</ele>
        <time>2024-12-19T13:25:59Z</time>
      </trkpt>
      <trkpt lat="47.91363" lon="-2.47871">
        <ele>69.7</ele>
        <time>2024-12-19T13:26:00Z</time>
      </trkpt>
      <trkpt lat="47.91364" lon="-2.47871">
        <ele>69.8</ele>
        <time>2024-12-19T13:26:01Z</time>
      </trkpt>
      <trkpt lat="47.91365" lon="-2.47871">
        <ele>69.9</ele>
        <time>2024-12-19T13:26:02Z</time>
      </trkpt>
      <trkpt lat="47.91365" lon="-2.47871">
        <ele>69.9</ele>
        <time>2024-12-19T13:26:03Z</time>
      </trkpt>
      <trkpt lat="47.91366" lon="-2.47871">
        <ele>70</ele>
        <time>2024-12-19T13:26:04Z</time>
      </trkpt>
      <trkpt lat="47.91366" lon="-2.47871">
        <ele>70</ele>
        <time>2024-12-19T13:26:05Z</time>
      </trkpt>
      <trkpt lat="47.91365" lon="-2.4787">
        <ele>70</ele>
        <time>2024-12-19T13:26:06Z</time>
      </trkpt>
      <trkpt lat="47.91366" lon="-2.4787">
        <ele>70</ele>
        <time>2024-12-19T13:26:07Z</time>
      </trkpt>
      <trkpt lat="47.91366" lon="-2.47869">
        <ele>70</ele>
        <time>2024-12-19T13:26:08Z</time>
      </trkpt>
      <trkpt lat="47.91366" lon="-2.47869">
        <ele>70.1</ele>
        <time>2024-12-19T13:26:09Z</time>
      </trkpt>
      <trkpt lat="47.91367" lon="-2.47869">
        <ele>70.2</ele>
        <time>2024-12-19T13:26:10Z</time>
      </trkpt>
      <trkpt lat="47.91368" lon="-2.47869">
        <ele>70.2</ele>
        <time>2024-12-19T13:26:11Z</time>
      </trkpt>
      <trkpt lat="47.9137" lon="-2.47869">
        <ele>70.3</ele>
        <time>2024-12-19T13:26:12Z</time>
      </trkpt>
      <trkpt lat="47.91371" lon="-2.4787">
        <ele>70.4</ele>
        <time>2024-12-19T13:26:13Z</time>
      </trkpt>
      <trkpt lat="47.91372" lon="-2.47869">
        <ele>70.5</ele>
        <time>2024-12-19T13:26:14Z</time>
      </trkpt>
      <trkpt lat="47.91373" lon="-2.47869">
        <ele>70.6</ele>
        <time>2024-12-19T13:26:15Z</time>
      </trkpt>
      <trkpt lat="47.91375" lon="-2.47868">
        <ele>70.8</ele>
        <time>2024-12-19T13:26:16Z</time>
      </trkpt>
      <trkpt lat="47.91377" lon="-2.47868">
        <ele>70.9</ele>
        <time>2024-12-19T13:26:17Z</time>
      </trkpt>
      <trkpt lat="47.91378" lon="-2.47867">
        <ele>71</ele>
        <time>2024-12-19T13:26:18Z</time>
      </trkpt>
      <trkpt lat="47.91379" lon="-2.47867">
        <ele>71.1</ele>
        <time>2024-12-19T13:26:19Z</time>
      </trkpt>
      <trkpt lat="47.9138" lon="-2.47866">
        <ele>71.2</ele>
        <time>2024-12-19T13:26:20Z</time>
      </trkpt>
      <trkpt lat="47.91382" lon="-2.47866">
        <ele>71.3</ele>
        <time>2024-12-19T13:26:21Z</time>
      </trkpt>
      <trkpt lat="47.91383" lon="-2.47866">
        <ele>71.4</ele>
        <time>2024-12-19T13:26:22Z</time>
      </trkpt>
      <trkpt lat="47.91385" lon="-2.47866">
        <ele>71.5</ele>
        <time>2024-12-19T13:26:23Z</time>
      </trkpt>
      <trkpt lat="47.91386" lon="-2.47866">
        <ele>71.6</ele>
        <time>2024-12-19T13:26:24Z</time>
      </trkpt>
      <trkpt lat="47.91388" lon="-2.47866">
        <ele>71.8</ele>
        <time>2024-12-19T13:26:25Z</time>
      </trkpt>
      <trkpt lat="47.9139" lon="-2.47865">
        <ele>72.1</ele>
        <time>2024-12-19T13:26:26Z</time>
      </trkpt>
      <trkpt lat="47.91393" lon="-2.47864">
        <ele>72.4</ele>
        <time>2024-12-19T13:26:27Z</time>
      </trkpt>
      <trkpt lat="47.91394" lon="-2.47863">
        <ele>72.6</ele>
        <time>2024-12-19T13:26:28Z</time>
      </trkpt>
      <trkpt lat="47.91395" lon="-2.47863">
        <ele>72.8</ele>
        <time>2024-12-19T13:26:29Z</time>
      </trkpt>
      <trkpt lat="47.91396" lon="-2.47863">
        <ele>72.9</ele>
        <time>2024-12-19T13:26:30Z</time>
      </trkpt>
      <trkpt lat="47.91397" lon="-2.47862">
        <ele>73</ele>
        <time>2024-12-19T13:26:31Z</time>
      </trkpt>
      <trkpt lat="47.91398" lon="-2.47862">
        <ele>73.2</ele>
        <time>2024-12-19T13:26:32Z</time>
      </trkpt>
      <trkpt lat="47.91398" lon="-2.47862">
        <ele>73.3</ele>
        <time>2024-12-19T13:26:33Z</time>
      </trkpt>
      <trkpt lat="47.91399" lon="-2.47862">
        <ele>73.4</ele>
        <time>2024-12-19T13:26:34Z</time>
      </trkpt>
      <trkpt lat="47.91399" lon="-2.47863">
        <ele>73.4</ele>
        <time>2024-12-19T13:26:35Z</time>
      </trkpt>
      <trkpt lat="47.91399" lon="-2.47864">
        <ele>73.4</ele>
        <time>2024-12-19T13:26:36Z</time>
      </trkpt>
      <trkpt lat="47.914" lon="-2.47864">
        <ele>73.4</ele>
        <time>2024-12-19T13:26:37Z</time>
      </trkpt>
      <trkpt lat="47.91402" lon="-2.47864">
        <ele>73.7</ele>
        <time>2024-12-19T13:26:40Z</time>
      </trkpt>
      <trkpt lat="47.91402" lon="-2.47864">
        <ele>73.8</ele>
        <time>2024-12-19T13:26:41Z</time>
      </trkpt>
      <trkpt lat="47.91403" lon="-2.47864">
        <ele>73.9</ele>
        <time>2024-12-19T13:26:42Z</time>
      </trkpt>
      <trkpt lat="47.91404" lon="-2.47864">
        <ele>74.1</ele>
        <time>2024-12-19T13:26:43Z</time>
      </trkpt>
      <trkpt lat="47.91405" lon="-2.47863">
        <ele>74.2</ele>
        <time>2024-12-19T13:26:44Z</time>
      </trkpt>
      <trkpt lat="47.91406" lon="-2.47863">
        <ele>74.4</ele>
        <time>2024-12-19T13:26:45Z</time>
      </trkpt>
      <trkpt lat="47.91407" lon="-2.47863">
        <ele>74.5</ele>
        <time>2024-12-19T13:26:46Z</time>
      </trkpt>
      <trkpt lat="47.91408" lon="-2.47863">
        <ele>74.6</ele>
        <time>2024-12-19T13:26:47Z</time>
      </trkpt>
      <trkpt lat="47.91409" lon="-2.47863">
        <ele>74.7</ele>
        <time>2024-12-19T13:26:48Z</time>
      </trkpt>
      <trkpt lat="47.91409" lon="-2.47863">
        <ele>74.8</ele>
        <time>2024-12-19T13:26:49Z</time>
      </trkpt>
      <trkpt lat="47.91411" lon="-2.47863">
        <ele>75</ele>
        <time>2024-12-19T13:26:50Z</time>
      </trkpt>
      <trkpt lat="47.91413" lon="-2.47862">
        <ele>75.4</ele>
        <time>2024-12-19T13:26:51Z</time>
      </trkpt>
      <trkpt lat="47.91416" lon="-2.47862">
        <ele>75.9</ele>
        <time>2024-12-19T13:26:52Z</time>
      </trkpt>
      <trkpt lat="47.91418" lon="-2.47862">
        <ele>76.1</ele>
        <time>2024-12-19T13:26:53Z</time>
      </trkpt>
      <trkpt lat="47.9142" lon="-2.47861">
        <ele>76.3</ele>
        <time>2024-12-19T13:26:54Z</time>
      </trkpt>
      <trkpt lat="47.91422" lon="-2.47861">
        <ele>76.5</ele>
        <time>2024-12-19T13:26:55Z</time>
      </trkpt>
      <trkpt lat="47.91423" lon="-2.47861">
        <ele>76.7</ele>
        <time>2024-12-19T13:26:56Z</time>
      </trkpt>
      <trkpt lat="47.91424" lon="-2.4786">
        <ele>76.8</ele>
        <time>2024-12-19T13:26:57Z</time>
      </trkpt>
      <trkpt lat="47.91425" lon="-2.4786">
        <ele>77</ele>
        <time>2024-12-19T13:26:58Z</time>
      </trkpt>
      <trkpt lat="47.91426" lon="-2.47859">
        <ele>77.1</ele>
        <time>2024-12-19T13:26:59Z</time>
      </trkpt>
      <trkpt lat="47.91428" lon="-2.47859">
        <ele>77.2</ele>
        <time>2024-12-19T13:27:00Z</time>
      </trkpt>
      <trkpt lat="47.91428" lon="-2.47859">
        <ele>77.3</ele>
        <time>2024-12-19T13:27:01Z</time>
      </trkpt>
      <trkpt lat="47.91429" lon="-2.47858">
        <ele>77.4</ele>
        <time>2024-12-19T13:27:02Z</time>
      </trkpt>
      <trkpt lat="47.9143" lon="-2.47858">
        <ele>77.5</ele>
        <time>2024-12-19T13:27:03Z</time>
      </trkpt>
      <trkpt lat="47.91432" lon="-2.47858">
        <ele>77.7</ele>
        <time>2024-12-19T13:27:04Z</time>
      </trkpt>
      <trkpt lat="47.91433" lon="-2.47858">
        <ele>77.8</ele>
        <time>2024-12-19T13:27:05Z</time>
      </trkpt>
      <trkpt lat="47.91434" lon="-2.47857">
        <ele>77.9</ele>
        <time>2024-12-19T13:27:06Z</time>
      </trkpt>
      <trkpt lat="47.91436" lon="-2.47857">
        <ele>78.1</ele>
        <time>2024-12-19T13:27:07Z</time>
      </trkpt>
      <trkpt lat="47.91437" lon="-2.47857">
        <ele>78.2</ele>
        <time>2024-12-19T13:27:08Z</time>
      </trkpt>
      <trkpt lat="47.91439" lon="-2.47857">
        <ele>78.4</ele>
        <time>2024-12-19T13:27:09Z</time>
      </trkpt>
      <trkpt lat="47.9144" lon="-2.47856">
        <ele>78.5</ele>
        <time>2024-12-19T13:27:10Z</time>
      </trkpt>
      <trkpt lat="47.91441" lon="-2.47856">
        <ele>78.6</ele>
        <time>2024-12-19T13:27:11Z</time>
      </trkpt>
      <trkpt lat="47.91442" lon="-2.47856">
        <ele>78.8</ele>
        <time>2024-12-19T13:27:12Z</time>
      </trkpt>
      <trkpt lat="47.91443" lon="-2.47856">
        <ele>78.9</ele>
        <time>2024-12-19T13:27:13Z</time>
      </trkpt>
      <trkpt lat="47.91445" lon="-2.47856">
        <ele>79</ele>
        <time>2024-12-19T13:27:14Z</time>
      </trkpt>
      <trkpt lat="47.91447" lon="-2.47856">
        <ele>79.2</ele>
        <time>2024-12-19T13:27:15Z</time>
      </trkpt>
      <trkpt lat="47.91447" lon="-2.47856">
        <ele>79.3</ele>
        <time>2024-12-19T13:27:16Z</time>
      </trkpt>
      <trkpt lat="47.91448" lon="-2.47857">
        <ele>79.4</ele>
        <time>2024-12-19T13:27:17Z</time>
      </trkpt>
      <trkpt lat="47.91449" lon="-2.47856">
        <ele>79.5</ele>
        <time>2024-12-19T13:27:18Z</time>
      </trkpt>
      <trkpt lat="47.9145" lon="-2.47856">
        <ele>79.7</ele>
        <time>2024-12-19T13:27:19Z</time>
      </trkpt>
      <trkpt lat="47.91452" lon="-2.47855">
        <ele>79.8</ele>
        <time>2024-12-19T13:27:20Z</time>
      </trkpt>
      <trkpt lat="47.91453" lon="-2.47854">
        <ele>80</ele>
        <time>2024-12-19T13:27:21Z</time>
      </trkpt>
      <trkpt lat="47.91454" lon="-2.47853">
        <ele>80.1</ele>
        <time>2024-12-19T13:27:22Z</time>
      </trkpt>
      <trkpt lat="47.91455" lon="-2.47853">
        <ele>80.3</ele>
        <time>2024-12-19T13:27:23Z</time>
      </trkpt>
      <trkpt lat="47.91457" lon="-2.47853">
        <ele>80.5</ele>
        <time>2024-12-19T13:27:24Z</time>
      </trkpt>
      <trkpt lat="47.91459" lon="-2.47853">
        <ele>80.7</ele>
        <time>2024-12-19T13:27:25Z</time>
      </trkpt>
      <trkpt lat="47.9146" lon="-2.47854">
        <ele>80.9</ele>
        <time>2024-12-19T13:27:26Z</time>
      </trkpt>
      <trkpt lat="47.91462" lon="-2.47854">
        <ele>81</ele>
        <time>2024-12-19T13:27:27Z</time>
      </trkpt>
      <trkpt lat="47.91463" lon="-2.47855">
        <ele>81.2</ele>
        <time>2024-12-19T13:27:28Z</time>
      </trkpt>
      <trkpt lat="47.91464" lon="-2.47856">
        <ele>81.3</ele>
        <time>2024-12-19T13:27:29Z</time>
      </trkpt>
      <trkpt lat="47.91466" lon="-2.47856">
        <ele>81.4</ele>
        <time>2024-12-19T13:27:30Z</time>
      </trkpt>
      <trkpt lat="47.91467" lon="-2.47856">
        <ele>81.6</ele>
        <time>2024-12-19T13:27:31Z</time>
      </trkpt>
      <trkpt lat="47.91468" lon="-2.47856">
        <ele>81.7</ele>
        <time>2024-12-19T13:27:32Z</time>
      </trkpt>
      <trkpt lat="47.91469" lon="-2.47856">
        <ele>81.8</ele>
        <time>2024-12-19T13:27:33Z</time>
      </trkpt>
      <trkpt lat="47.9147" lon="-2.47856">
        <ele>81.9</ele>
        <time>2024-12-19T13:27:34Z</time>
      </trkpt>
      <trkpt lat="47.91471" lon="-2.47856">
        <ele>82</ele>
        <time>2024-12-19T13:27:35Z</time>
      </trkpt>
      <trkpt lat="47.91472" lon="-2.47857">
        <ele>82.1</ele>
        <time>2024-12-19T13:27:36Z</time>
      </trkpt>
      <trkpt lat="47.91473" lon="-2.47857">
        <ele>82.2</ele>
        <time>2024-12-19T13:27:37Z</time>
      </trkpt>
      <trkpt lat="47.91477" lon="-2.47858">
        <ele>82.4</ele>
        <time>2024-12-19T13:27:39Z</time>
      </trkpt>
      <trkpt lat="47.91479" lon="-2.47858">
        <ele>82.6</ele>
        <time>2024-12-19T13:27:40Z</time>
      </trkpt>
      <trkpt lat="47.9148" lon="-2.47858">
        <ele>82.7</ele>
        <time>2024-12-19T13:27:41Z</time>
      </trkpt>
      <trkpt lat="47.91481" lon="-2.47858">
        <ele>82.7</ele>
        <time>2024-12-19T13:27:42Z</time>
      </trkpt>
      <trkpt lat="47.91482" lon="-2.47858">
        <ele>82.8</ele>
        <time>2024-12-19T13:27:43Z</time>
      </trkpt>
      <trkpt lat="47.91483" lon="-2.47857">
        <ele>82.9</ele>
        <time>2024-12-19T13:27:44Z</time>
      </trkpt>
      <trkpt lat="47.91484" lon="-2.47857">
        <ele>83</ele>
        <time>2024-12-19T13:27:45Z</time>
      </trkpt>
      <trkpt lat="47.91484" lon="-2.47856">
        <ele>83</ele>
        <time>2024-12-19T13:27:46Z</time>
      </trkpt>
      <trkpt lat="47.91485" lon="-2.47856">
        <ele>83.1</ele>
        <time>2024-12-19T13:27:47Z</time>
      </trkpt>
      <trkpt lat="47.91486" lon="-2.47857">
        <ele>83.2</ele>
        <time>2024-12-19T13:27:48Z</time>
      </trkpt>
      <trkpt lat="47.91487" lon="-2.47857">
        <ele>83.2</ele>
        <time>2024-12-19T13:27:49Z</time>
      </trkpt>
      <trkpt lat="47.91488" lon="-2.47856">
        <ele>83.3</ele>
        <time>2024-12-19T13:27:50Z</time>
      </trkpt>
      <trkpt lat="47.91489" lon="-2.47856">
        <ele>83.4</ele>
        <time>2024-12-19T13:27:51Z</time>
      </trkpt>
      <trkpt lat="47.9149" lon="-2.47856">
        <ele>83.5</ele>
        <time>2024-12-19T13:27:52Z</time>
      </trkpt>
      <trkpt lat="47.9149" lon="-2.47855">
        <ele>83.5</ele>
        <time>2024-12-19T13:27:53Z</time>
      </trkpt>
      <trkpt lat="47.91491" lon="-2.47855">
        <ele>83.5</ele>
        <time>2024-12-19T13:27:54Z</time>
      </trkpt>
      <trkpt lat="47.91491" lon="-2.47855">
        <ele>83.6</ele>
        <time>2024-12-19T13:27:55Z</time>
      </trkpt>
      <trkpt lat="47.91492" lon="-2.47855">
        <ele>83.6</ele>
        <time>2024-12-19T13:27:56Z</time>
      </trkpt>
      <trkpt lat="47.91492" lon="-2.47855">
        <ele>83.6</ele>
        <time>2024-12-19T13:27:57Z</time>
      </trkpt>
      <trkpt lat="47.91492" lon="-2.47855">
        <ele>83.7</ele>
        <time>2024-12-19T13:27:58Z</time>
      </trkpt>
      <trkpt lat="47.91493" lon="-2.47855">
        <ele>83.8</ele>
        <time>2024-12-19T13:27:59Z</time>
      </trkpt>
      <trkpt lat="47.91494" lon="-2.47855">
        <ele>83.8</ele>
        <time>2024-12-19T13:28:00Z</time>
      </trkpt>
      <trkpt lat="47.91496" lon="-2.47855">
        <ele>83.9</ele>
        <time>2024-12-19T13:28:01Z</time>
      </trkpt>
      <trkpt lat="47.91497" lon="-2.47856">
        <ele>84</ele>
        <time>2024-12-19T13:28:02Z</time>
      </trkpt>
      <trkpt lat="47.91499" lon="-2.47857">
        <ele>84.1</ele>
        <time>2024-12-19T13:28:03Z</time>
      </trkpt>
      <trkpt lat="47.915" lon="-2.47856">
        <ele>84.2</ele>
        <time>2024-12-19T13:28:04Z</time>
      </trkpt>
      <trkpt lat="47.91501" lon="-2.47856">
        <ele>84.2</ele>
        <time>2024-12-19T13:28:05Z</time>
      </trkpt>
      <trkpt lat="47.91501" lon="-2.47856">
        <ele>84.3</ele>
        <time>2024-12-19T13:28:06Z</time>
      </trkpt>
      <trkpt lat="47.91501" lon="-2.47856">
        <ele>84.3</ele>
        <time>2024-12-19T13:28:07Z</time>
      </trkpt>
      <trkpt lat="47.91502" lon="-2.47856">
        <ele>84.3</ele>
        <time>2024-12-19T13:28:08Z</time>
      </trkpt>
      <trkpt lat="47.91502" lon="-2.47856">
        <ele>84.4</ele>
        <time>2024-12-19T13:28:09Z</time>
      </trkpt>
      <trkpt lat="47.91503" lon="-2.47856">
        <ele>84.4</ele>
        <time>2024-12-19T13:28:10Z</time>
      </trkpt>
      <trkpt lat="47.91504" lon="-2.47856">
        <ele>84.6</ele>
        <time>2024-12-19T13:28:11Z</time>
      </trkpt>
      <trkpt lat="47.91506" lon="-2.47856">
        <ele>84.7</ele>
        <time>2024-12-19T13:28:12Z</time>
      </trkpt>
      <trkpt lat="47.91508" lon="-2.47856">
        <ele>85</ele>
        <time>2024-12-19T13:28:13Z</time>
      </trkpt>
      <trkpt lat="47.91509" lon="-2.47856">
        <ele>85.1</ele>
        <time>2024-12-19T13:28:14Z</time>
      </trkpt>
      <trkpt lat="47.91511" lon="-2.47856">
        <ele>85.3</ele>
        <time>2024-12-19T13:28:15Z</time>
      </trkpt>
      <trkpt lat="47.91513" lon="-2.47855">
        <ele>85.5</ele>
        <time>2024-12-19T13:28:16Z</time>
      </trkpt>
      <trkpt lat="47.91515" lon="-2.47855">
        <ele>85.7</ele>
        <time>2024-12-19T13:28:17Z</time>
      </trkpt>
      <trkpt lat="47.91517" lon="-2.47855">
        <ele>85.9</ele>
        <time>2024-12-19T13:28:18Z</time>
      </trkpt>
      <trkpt lat="47.91519" lon="-2.47854">
        <ele>86.1</ele>
        <time>2024-12-19T13:28:19Z</time>
      </trkpt>
      <trkpt lat="47.91521" lon="-2.47854">
        <ele>86.3</ele>
        <time>2024-12-19T13:28:20Z</time>
      </trkpt>
      <trkpt lat="47.91522" lon="-2.47854">
        <ele>86.5</ele>
        <time>2024-12-19T13:28:21Z</time>
      </trkpt>
      <trkpt lat="47.91524" lon="-2.47853">
        <ele>86.6</ele>
        <time>2024-12-19T13:28:22Z</time>
      </trkpt>
      <trkpt lat="47.91525" lon="-2.47853">
        <ele>86.8</ele>
        <time>2024-12-19T13:28:23Z</time>
      </trkpt>
      <trkpt lat="47.91527" lon="-2.47853">
        <ele>86.9</ele>
        <time>2024-12-19T13:28:24Z</time>
      </trkpt>
      <trkpt lat="47.91528" lon="-2.47853">
        <ele>87</ele>
        <time>2024-12-19T13:28:25Z</time>
      </trkpt>
      <trkpt lat="47.91529" lon="-2.47853">
        <ele>87.1</ele>
        <time>2024-12-19T13:28:26Z</time>
      </trkpt>
      <trkpt lat="47.9153" lon="-2.47853">
        <ele>87.2</ele>
        <time>2024-12-19T13:28:27Z</time>
      </trkpt>
      <trkpt lat="47.91532" lon="-2.47853">
        <ele>87.3</ele>
        <time>2024-12-19T13:28:28Z</time>
      </trkpt>
      <trkpt lat="47.91533" lon="-2.47853">
        <ele>87.4</ele>
        <time>2024-12-19T13:28:29Z</time>
      </trkpt>
      <trkpt lat="47.91534" lon="-2.47853">
        <ele>87.5</ele>
        <time>2024-12-19T13:28:30Z</time>
      </trkpt>
      <trkpt lat="47.91536" lon="-2.47853">
        <ele>87.6</ele>
        <time>2024-12-19T13:28:31Z</time>
      </trkpt>
      <trkpt lat="47.91537" lon="-2.47853">
        <ele>87.7</ele>
        <time>2024-12-19T13:28:32Z</time>
      </trkpt>
      <trkpt lat="47.91538" lon="-2.47853">
        <ele>87.8</ele>
        <time>2024-12-19T13:28:33Z</time>
      </trkpt>
      <trkpt lat="47.91539" lon="-2.47853">
        <ele>87.9</ele>
        <time>2024-12-19T13:28:34Z</time>
      </trkpt>
      <trkpt lat="47.9154" lon="-2.47853">
        <ele>88</ele>
        <time>2024-12-19T13:28:35Z</time>
      </trkpt>
      <trkpt lat="47.91541" lon="-2.47853">
        <ele>88.1</ele>
        <time>2024-12-19T13:28:36Z</time>
      </trkpt>
      <trkpt lat="47.91543" lon="-2.47852">
        <ele>88.2</ele>
        <time>2024-12-19T13:28:37Z</time>
      </trkpt>
      <trkpt lat="47.91544" lon="-2.47852">
        <ele>88.4</ele>
        <time>2024-12-19T13:28:38Z</time>
      </trkpt>
      <trkpt lat="47.91546" lon="-2.47851">
        <ele>88.5</ele>
        <time>2024-12-19T13:28:39Z</time>
      </trkpt>
      <trkpt lat="47.91547" lon="-2.47851">
        <ele>88.6</ele>
        <time>2024-12-19T13:28:40Z</time>
      </trkpt>
      <trkpt lat="47.91548" lon="-2.47851">
        <ele>88.7</ele>
        <time>2024-12-19T13:28:41Z</time>
      </trkpt>
      <trkpt lat="47.91549" lon="-2.47851">
        <ele>88.8</ele>
        <time>2024-12-19T13:28:42Z</time>
      </trkpt>
      <trkpt lat="47.91551" lon="-2.47851">
        <ele>89</ele>
        <time>2024-12-19T13:28:43Z</time>
      </trkpt>
      <trkpt lat="47.91552" lon="-2.47851">
        <ele>89.1</ele>
        <time>2024-12-19T13:28:44Z</time>
      </trkpt>
      <trkpt lat="47.91554" lon="-2.47851">
        <ele>89.2</ele>
        <time>2024-12-19T13:28:45Z</time>
      </trkpt>
      <trkpt lat="47.91555" lon="-2.47851">
        <ele>89.3</ele>
        <time>2024-12-19T13:28:46Z</time>
      </trkpt>
      <trkpt lat="47.91556" lon="-2.4785">
        <ele>89.4</ele>
        <time>2024-12-19T13:28:47Z</time>
      </trkpt>
      <trkpt lat="47.91557" lon="-2.4785">
        <ele>89.4</ele>
        <time>2024-12-19T13:28:48Z</time>
      </trkpt>
      <trkpt lat="47.91556" lon="-2.47849">
        <ele>89.4</ele>
        <time>2024-12-19T13:28:49Z</time>
      </trkpt>
      <trkpt lat="47.91556" lon="-2.47849">
        <ele>89.4</ele>
        <time>2024-12-19T13:28:50Z</time>
      </trkpt>
      <trkpt lat="47.91556" lon="-2.47849">
        <ele>89.5</ele>
        <time>2024-12-19T13:28:51Z</time>
      </trkpt>
      <trkpt lat="47.91557" lon="-2.47849">
        <ele>89.5</ele>
        <time>2024-12-19T13:28:52Z</time>
      </trkpt>
      <trkpt lat="47.91557" lon="-2.47849">
        <ele>89.5</ele>
        <time>2024-12-19T13:28:53Z</time>
      </trkpt>
      <trkpt lat="47.91558" lon="-2.47849">
        <ele>89.5</ele>
        <time>2024-12-19T13:28:54Z</time>
      </trkpt>
      <trkpt lat="47.91559" lon="-2.47849">
        <ele>89.5</ele>
        <time>2024-12-19T13:28:55Z</time>
      </trkpt>
      <trkpt lat="47.9156" lon="-2.47849">
        <ele>89.5</ele>
        <time>2024-12-19T13:28:56Z</time>
      </trkpt>
      <trkpt lat="47.91561" lon="-2.47849">
        <ele>89.6</ele>
        <time>2024-12-19T13:28:57Z</time>
      </trkpt>
      <trkpt lat="47.91562" lon="-2.47849">
        <ele>89.6</ele>
        <time>2024-12-19T13:28:58Z</time>
      </trkpt>
      <trkpt lat="47.91563" lon="-2.47848">
        <ele>89.6</ele>
        <time>2024-12-19T13:28:59Z</time>
      </trkpt>
      <trkpt lat="47.91564" lon="-2.47848">
        <ele>89.6</ele>
        <time>2024-12-19T13:29:00Z</time>
      </trkpt>
      <trkpt lat="47.91564" lon="-2.47848">
        <ele>89.6</ele>
        <time>2024-12-19T13:29:01Z</time>
      </trkpt>
      <trkpt lat="47.91564" lon="-2.47847">
        <ele>89.7</ele>
        <time>2024-12-19T13:29:02Z</time>
      </trkpt>
      <trkpt lat="47.91565" lon="-2.47847">
        <ele>89.7</ele>
        <time>2024-12-19T13:29:03Z</time>
      </trkpt>
      <trkpt lat="47.91565" lon="-2.47847">
        <ele>89.7</ele>
        <time>2024-12-19T13:29:04Z</time>
      </trkpt>
      <trkpt lat="47.91566" lon="-2.47847">
        <ele>89.7</ele>
        <time>2024-12-19T13:29:05Z</time>
      </trkpt>
      <trkpt lat="47.91568" lon="-2.47848">
        <ele>89.7</ele>
        <time>2024-12-19T13:29:06Z</time>
      </trkpt>
      <trkpt lat="47.91569" lon="-2.47848">
        <ele>89.7</ele>
        <time>2024-12-19T13:29:07Z</time>
      </trkpt>
      <trkpt lat="47.9157" lon="-2.47848">
        <ele>89.7</ele>
        <time>2024-12-19T13:29:08Z</time>
      </trkpt>
      <trkpt lat="47.9157" lon="-2.47849">
        <ele>89.7</ele>
        <time>2024-12-19T13:29:09Z</time>
      </trkpt>
      <trkpt lat="47.91571" lon="-2.4785">
        <ele>89.7</ele>
        <time>2024-12-19T13:29:10Z</time>
      </trkpt>
      <trkpt lat="47.91572" lon="-2.4785">
        <ele>89.7</ele>
        <time>2024-12-19T13:29:11Z</time>
      </trkpt>
      <trkpt lat="47.91572" lon="-2.47851">
        <ele>89.7</ele>
        <time>2024-12-19T13:29:12Z</time>
      </trkpt>
      <trkpt lat="47.91573" lon="-2.47851">
        <ele>89.8</ele>
        <time>2024-12-19T13:29:13Z</time>
      </trkpt>
      <trkpt lat="47.91573" lon="-2.47851">
        <ele>89.8</ele>
        <time>2024-12-19T13:29:14Z</time>
      </trkpt>
      <trkpt lat="47.91574" lon="-2.47851">
        <ele>89.8</ele>
        <time>2024-12-19T13:29:15Z</time>
      </trkpt>
      <trkpt lat="47.91575" lon="-2.47851">
        <ele>89.8</ele>
        <time>2024-12-19T13:29:16Z</time>
      </trkpt>
      <trkpt lat="47.91576" lon="-2.47851">
        <ele>89.8</ele>
        <time>2024-12-19T13:29:17Z</time>
      </trkpt>
      <trkpt lat="47.91577" lon="-2.47851">
        <ele>89.8</ele>
        <time>2024-12-19T13:29:18Z</time>
      </trkpt>
      <trkpt lat="47.91577" lon="-2.47851">
        <ele>89.9</ele>
        <time>2024-12-19T13:29:19Z</time>
      </trkpt>
      <trkpt lat="47.91578" lon="-2.47851">
        <ele>89.9</ele>
        <time>2024-12-19T13:29:20Z</time>
      </trkpt>
      <trkpt lat="47.91579" lon="-2.47851">
        <ele>89.9</ele>
        <time>2024-12-19T13:29:21Z</time>
      </trkpt>
      <trkpt lat="47.91581" lon="-2.47851">
        <ele>89.9</ele>
        <time>2024-12-19T13:29:22Z</time>
      </trkpt>
      <trkpt lat="47.91582" lon="-2.4785">
        <ele>90</ele>
        <time>2024-12-19T13:29:23Z</time>
      </trkpt>
      <trkpt lat="47.91583" lon="-2.4785">
        <ele>90</ele>
        <time>2024-12-19T13:29:24Z</time>
      </trkpt>
      <trkpt lat="47.91585" lon="-2.4785">
        <ele>90</ele>
        <time>2024-12-19T13:29:25Z</time>
      </trkpt>
      <trkpt lat="47.91586" lon="-2.47849">
        <ele>90</ele>
        <time>2024-12-19T13:29:26Z</time>
      </trkpt>
      <trkpt lat="47.91586" lon="-2.47849">
        <ele>90</ele>
        <time>2024-12-19T13:29:27Z</time>
      </trkpt>
      <trkpt lat="47.91587" lon="-2.47849">
        <ele>90.1</ele>
        <time>2024-12-19T13:29:28Z</time>
      </trkpt>
      <trkpt lat="47.91588" lon="-2.47849">
        <ele>90.1</ele>
        <time>2024-12-19T13:29:29Z</time>
      </trkpt>
      <trkpt lat="47.91589" lon="-2.47849">
        <ele>90.1</ele>
        <time>2024-12-19T13:29:30Z</time>
      </trkpt>
      <trkpt lat="47.91591" lon="-2.47849">
        <ele>90.1</ele>
        <time>2024-12-19T13:29:31Z</time>
      </trkpt>
      <trkpt lat="47.91592" lon="-2.47849">
        <ele>90.1</ele>
        <time>2024-12-19T13:29:32Z</time>
      </trkpt>
      <trkpt lat="47.91594" lon="-2.47848">
        <ele>90.2</ele>
        <time>2024-12-19T13:29:33Z</time>
      </trkpt>
      <trkpt lat="47.91596" lon="-2.47848">
        <ele>90.2</ele>
        <time>2024-12-19T13:29:34Z</time>
      </trkpt>
      <trkpt lat="47.91597" lon="-2.47847">
        <ele>90.2</ele>
        <time>2024-12-19T13:29:35Z</time>
      </trkpt>
      <trkpt lat="47.91598" lon="-2.47847">
        <ele>90.3</ele>
        <time>2024-12-19T13:29:36Z</time>
      </trkpt>
      <trkpt lat="47.91599" lon="-2.47846">
        <ele>90.3</ele>
        <time>2024-12-19T13:29:37Z</time>
      </trkpt>
      <trkpt lat="47.91601" lon="-2.47846">
        <ele>90.3</ele>
        <time>2024-12-19T13:29:38Z</time>
      </trkpt>
      <trkpt lat="47.91601" lon="-2.47846">
        <ele>90.4</ele>
        <time>2024-12-19T13:29:39Z</time>
      </trkpt>
      <trkpt lat="47.91602" lon="-2.47846">
        <ele>90.4</ele>
        <time>2024-12-19T13:29:40Z</time>
      </trkpt>
      <trkpt lat="47.91603" lon="-2.47846">
        <ele>90.4</ele>
        <time>2024-12-19T13:29:41Z</time>
      </trkpt>
      <trkpt lat="47.91605" lon="-2.47846">
        <ele>90.4</ele>
        <time>2024-12-19T13:29:42Z</time>
      </trkpt>
      <trkpt lat="47.91607" lon="-2.47846">
        <ele>90.5</ele>
        <time>2024-12-19T13:29:43Z</time>
      </trkpt>
      <trkpt lat="47.91608" lon="-2.47846">
        <ele>90.5</ele>
        <time>2024-12-19T13:29:44Z</time>
      </trkpt>
      <trkpt lat="47.9161" lon="-2.47846">
        <ele>90.5</ele>
        <time>2024-12-19T13:29:45Z</time>
      </trkpt>
      <trkpt lat="47.91611" lon="-2.47846">
        <ele>90.5</ele>
        <time>2024-12-19T13:29:46Z</time>
      </trkpt>
      <trkpt lat="47.91612" lon="-2.47846">
        <ele>90.6</ele>
        <time>2024-12-19T13:29:47Z</time>
      </trkpt>
      <trkpt lat="47.91614" lon="-2.47846">
        <ele>90.6</ele>
        <time>2024-12-19T13:29:48Z</time>
      </trkpt>
      <trkpt lat="47.91616" lon="-2.47846">
        <ele>90.6</ele>
        <time>2024-12-19T13:29:49Z</time>
      </trkpt>
      <trkpt lat="47.91617" lon="-2.47845">
        <ele>90.7</ele>
        <time>2024-12-19T13:29:50Z</time>
      </trkpt>
      <trkpt lat="47.91619" lon="-2.47845">
        <ele>90.7</ele>
        <time>2024-12-19T13:29:51Z</time>
      </trkpt>
      <trkpt lat="47.9162" lon="-2.47844">
        <ele>90.7</ele>
        <time>2024-12-19T13:29:52Z</time>
      </trkpt>
      <trkpt lat="47.91621" lon="-2.47844">
        <ele>90.7</ele>
        <time>2024-12-19T13:29:53Z</time>
      </trkpt>
      <trkpt lat="47.91621" lon="-2.47844">
        <ele>90.8</ele>
        <time>2024-12-19T13:29:54Z</time>
      </trkpt>
      <trkpt lat="47.91622" lon="-2.47844">
        <ele>90.8</ele>
        <time>2024-12-19T13:29:55Z</time>
      </trkpt>
      <trkpt lat="47.91622" lon="-2.47845">
        <ele>90.8</ele>
        <time>2024-12-19T13:29:56Z</time>
      </trkpt>
      <trkpt lat="47.91623" lon="-2.47844">
        <ele>90.8</ele>
        <time>2024-12-19T13:29:57Z</time>
      </trkpt>
      <trkpt lat="47.91624" lon="-2.47844">
        <ele>90.8</ele>
        <time>2024-12-19T13:29:58Z</time>
      </trkpt>
      <trkpt lat="47.91625" lon="-2.47845">
        <ele>90.8</ele>
        <time>2024-12-19T13:29:59Z</time>
      </trkpt>
      <trkpt lat="47.91625" lon="-2.47845">
        <ele>90.8</ele>
        <time>2024-12-19T13:30:00Z</time>
      </trkpt>
      <trkpt lat="47.91626" lon="-2.47845">
        <ele>90.8</ele>
        <time>2024-12-19T13:30:01Z</time>
      </trkpt>
      <trkpt lat="47.91626" lon="-2.47846">
        <ele>90.8</ele>
        <time>2024-12-19T13:30:02Z</time>
      </trkpt>
      <trkpt lat="47.91627" lon="-2.47846">
        <ele>90.8</ele>
        <time>2024-12-19T13:30:03Z</time>
      </trkpt>
      <trkpt lat="47.91628" lon="-2.47845">
        <ele>90.8</ele>
        <time>2024-12-19T13:30:04Z</time>
      </trkpt>
      <trkpt lat="47.91629" lon="-2.47844">
        <ele>90.9</ele>
        <time>2024-12-19T13:30:05Z</time>
      </trkpt>
      <trkpt lat="47.91631" lon="-2.47844">
        <ele>90.9</ele>
        <time>2024-12-19T13:30:06Z</time>
      </trkpt>
      <trkpt lat="47.91633" lon="-2.47843">
        <ele>90.9</ele>
        <time>2024-12-19T13:30:07Z</time>
      </trkpt>
      <trkpt lat="47.91634" lon="-2.47843">
        <ele>90.9</ele>
        <time>2024-12-19T13:30:08Z</time>
      </trkpt>
      <trkpt lat="47.91636" lon="-2.47842">
        <ele>91</ele>
        <time>2024-12-19T13:30:09Z</time>
      </trkpt>
      <trkpt lat="47.91638" lon="-2.47842">
        <ele>91</ele>
        <time>2024-12-19T13:30:10Z</time>
      </trkpt>
      <trkpt lat="47.91639" lon="-2.47842">
        <ele>91</ele>
        <time>2024-12-19T13:30:11Z</time>
      </trkpt>
      <trkpt lat="47.91641" lon="-2.47842">
        <ele>91</ele>
        <time>2024-12-19T13:30:12Z</time>
      </trkpt>
      <trkpt lat="47.91642" lon="-2.47841">
        <ele>91</ele>
        <time>2024-12-19T13:30:13Z</time>
      </trkpt>
      <trkpt lat="47.91643" lon="-2.47841">
        <ele>91</ele>
        <time>2024-12-19T13:30:14Z</time>
      </trkpt>
      <trkpt lat="47.91645" lon="-2.4784">
        <ele>91</ele>
        <time>2024-12-19T13:30:15Z</time>
      </trkpt>
      <trkpt lat="47.91646" lon="-2.4784">
        <ele>91</ele>
        <time>2024-12-19T13:30:16Z</time>
      </trkpt>
      <trkpt lat="47.91648" lon="-2.47839">
        <ele>91</ele>
        <time>2024-12-19T13:30:17Z</time>
      </trkpt>
      <trkpt lat="47.9165" lon="-2.47839">
        <ele>91</ele>
        <time>2024-12-19T13:30:18Z</time>
      </trkpt>
      <trkpt lat="47.91651" lon="-2.47839">
        <ele>91</ele>
        <time>2024-12-19T13:30:19Z</time>
      </trkpt>
      <trkpt lat="47.91653" lon="-2.47839">
        <ele>91</ele>
        <time>2024-12-19T13:30:20Z</time>
      </trkpt>
      <trkpt lat="47.91655" lon="-2.47839">
        <ele>91</ele>
        <time>2024-12-19T13:30:21Z</time>
      </trkpt>
      <trkpt lat="47.91656" lon="-2.47838">
        <ele>91</ele>
        <time>2024-12-19T13:30:22Z</time>
      </trkpt>
      <trkpt lat="47.91657" lon="-2.47838">
        <ele>91</ele>
        <time>2024-12-19T13:30:23Z</time>
      </trkpt>
      <trkpt lat="47.91659" lon="-2.47837">
        <ele>91</ele>
        <time>2024-12-19T13:30:24Z</time>
      </trkpt>
      <trkpt lat="47.9166" lon="-2.47837">
        <ele>91</ele>
        <time>2024-12-19T13:30:25Z</time>
      </trkpt>
      <trkpt lat="47.91661" lon="-2.47837">
        <ele>91</ele>
        <time>2024-12-19T13:30:26Z</time>
      </trkpt>
      <trkpt lat="47.91663" lon="-2.47836">
        <ele>91</ele>
        <time>2024-12-19T13:30:27Z</time>
      </trkpt>
      <trkpt lat="47.91664" lon="-2.47836">
        <ele>91</ele>
        <time>2024-12-19T13:30:28Z</time>
      </trkpt>
      <trkpt lat="47.91665" lon="-2.47836">
        <ele>91</ele>
        <time>2024-12-19T13:30:29Z</time>
      </trkpt>
      <trkpt lat="47.91666" lon="-2.47836">
        <ele>91</ele>
        <time>2024-12-19T13:30:30Z</time>
      </trkpt>
      <trkpt lat="47.91667" lon="-2.47836">
        <ele>91</ele>
        <time>2024-12-19T13:30:31Z</time>
      </trkpt>
      <trkpt lat="47.91668" lon="-2.47836">
        <ele>90.9</ele>
        <time>2024-12-19T13:30:32Z</time>
      </trkpt>
      <trkpt lat="47.9167" lon="-2.47836">
        <ele>90.9</ele>
        <time>2024-12-19T13:30:33Z</time>
      </trkpt>
      <trkpt lat="47.91671" lon="-2.47836">
        <ele>90.8</ele>
        <time>2024-12-19T13:30:34Z</time>
      </trkpt>
      <trkpt lat="47.91673" lon="-2.47836">
        <ele>90.8</ele>
        <time>2024-12-19T13:30:35Z</time>
      </trkpt>
      <trkpt lat="47.91674" lon="-2.47836">
        <ele>90.7</ele>
        <time>2024-12-19T13:30:36Z</time>
      </trkpt>
      <trkpt lat="47.91675" lon="-2.47836">
        <ele>90.7</ele>
        <time>2024-12-19T13:30:37Z</time>
      </trkpt>
      <trkpt lat="47.91677" lon="-2.47835">
        <ele>90.6</ele>
        <time>2024-12-19T13:30:38Z</time>
      </trkpt>
      <trkpt lat="47.91678" lon="-2.47835">
        <ele>90.6</ele>
        <time>2024-12-19T13:30:39Z</time>
      </trkpt>
      <trkpt lat="47.9168" lon="-2.47834">
        <ele>90.5</ele>
        <time>2024-12-19T13:30:40Z</time>
      </trkpt>
      <trkpt lat="47.91682" lon="-2.47834">
        <ele>90.5</ele>
        <time>2024-12-19T13:30:41Z</time>
      </trkpt>
      <trkpt lat="47.91683" lon="-2.47833">
        <ele>90.4</ele>
        <time>2024-12-19T13:30:42Z</time>
      </trkpt>
      <trkpt lat="47.91684" lon="-2.47832">
        <ele>90.3</ele>
        <time>2024-12-19T13:30:43Z</time>
      </trkpt>
      <trkpt lat="47.91686" lon="-2.47831">
        <ele>90.3</ele>
        <time>2024-12-19T13:30:44Z</time>
      </trkpt>
      <trkpt lat="47.91688" lon="-2.47831">
        <ele>90.2</ele>
        <time>2024-12-19T13:30:45Z</time>
      </trkpt>
      <trkpt lat="47.91689" lon="-2.47831">
        <ele>90.2</ele>
        <time>2024-12-19T13:30:46Z</time>
      </trkpt>
      <trkpt lat="47.9169" lon="-2.4783">
        <ele>90.1</ele>
        <time>2024-12-19T13:30:47Z</time>
      </trkpt>
      <trkpt lat="47.91692" lon="-2.4783">
        <ele>90.1</ele>
        <time>2024-12-19T13:30:48Z</time>
      </trkpt>
      <trkpt lat="47.91693" lon="-2.4783">
        <ele>90.1</ele>
        <time>2024-12-19T13:30:49Z</time>
      </trkpt>
      <trkpt lat="47.91694" lon="-2.4783">
        <ele>90</ele>
        <time>2024-12-19T13:30:50Z</time>
      </trkpt>
      <trkpt lat="47.91695" lon="-2.4783">
        <ele>90</ele>
        <time>2024-12-19T13:30:51Z</time>
      </trkpt>
      <trkpt lat="47.91696" lon="-2.4783">
        <ele>90</ele>
        <time>2024-12-19T13:30:52Z</time>
      </trkpt>
      <trkpt lat="47.91697" lon="-2.47831">
        <ele>90</ele>
        <time>2024-12-19T13:30:53Z</time>
      </trkpt>
      <trkpt lat="47.91697" lon="-2.47831">
        <ele>90</ele>
        <time>2024-12-19T13:30:54Z</time>
      </trkpt>
      <trkpt lat="47.91699" lon="-2.47831">
        <ele>90</ele>
        <time>2024-12-19T13:30:55Z</time>
      </trkpt>
      <trkpt lat="47.917" lon="-2.47831">
        <ele>90</ele>
        <time>2024-12-19T13:30:56Z</time>
      </trkpt>
      <trkpt lat="47.91701" lon="-2.4783">
        <ele>90</ele>
        <time>2024-12-19T13:30:57Z</time>
      </trkpt>
      <trkpt lat="47.91702" lon="-2.4783">
        <ele>90</ele>
        <time>2024-12-19T13:30:58Z</time>
      </trkpt>
      <trkpt lat="47.91703" lon="-2.47829">
        <ele>90</ele>
        <time>2024-12-19T13:30:59Z</time>
      </trkpt>
      <trkpt lat="47.91705" lon="-2.47828">
        <ele>90</ele>
        <time>2024-12-19T13:31:00Z</time>
      </trkpt>
      <trkpt lat="47.91706" lon="-2.47828">
        <ele>90</ele>
        <time>2024-12-19T13:31:01Z</time>
      </trkpt>
      <trkpt lat="47.91706" lon="-2.47827">
        <ele>90</ele>
        <time>2024-12-19T13:31:02Z</time>
      </trkpt>
      <trkpt lat="47.91707" lon="-2.47827">
        <ele>90</ele>
        <time>2024-12-19T13:31:03Z</time>
      </trkpt>
      <trkpt lat="47.91709" lon="-2.47827">
        <ele>90</ele>
        <time>2024-12-19T13:31:04Z</time>
      </trkpt>
      <trkpt lat="47.9171" lon="-2.47827">
        <ele>90</ele>
        <time>2024-12-19T13:31:05Z</time>
      </trkpt>
      <trkpt lat="47.9171" lon="-2.47827">
        <ele>90</ele>
        <time>2024-12-19T13:31:06Z</time>
      </trkpt>
      <trkpt lat="47.91711" lon="-2.47827">
        <ele>90</ele>
        <time>2024-12-19T13:31:07Z</time>
      </trkpt>
      <trkpt lat="47.91712" lon="-2.47827">
        <ele>90</ele>
        <time>2024-12-19T13:31:08Z</time>
      </trkpt>
      <trkpt lat="47.91713" lon="-2.47827">
        <ele>90</ele>
        <time>2024-12-19T13:31:09Z</time>
      </trkpt>
      <trkpt lat="47.91714" lon="-2.47826">
        <ele>90</ele>
        <time>2024-12-19T13:31:10Z</time>
      </trkpt>
      <trkpt lat="47.91715" lon="-2.47826">
        <ele>90</ele>
        <time>2024-12-19T13:31:11Z</time>
      </trkpt>
      <trkpt lat="47.91715" lon="-2.47826">
        <ele>90</ele>
        <time>2024-12-19T13:31:12Z</time>
      </trkpt>
      <trkpt lat="47.91714" lon="-2.47826">
        <ele>90</ele>
        <time>2024-12-19T13:31:13Z</time>
      </trkpt>
      <trkpt lat="47.91714" lon="-2.47826">
        <ele>90</ele>
        <time>2024-12-19T13:31:14Z</time>
      </trkpt>
      <trkpt lat="47.91714" lon="-2.47826">
        <ele>90</ele>
        <time>2024-12-19T13:31:15Z</time>
      </trkpt>
      <trkpt lat="47.91714" lon="-2.47826">
        <ele>90</ele>
        <time>2024-12-19T13:31:16Z</time>
      </trkpt>
      <trkpt lat="47.91714" lon="-2.47826">
        <ele>90</ele>
        <time>2024-12-19T13:31:17Z</time>
      </trkpt>
      <trkpt lat="47.91715" lon="-2.47826">
        <ele>90</ele>
        <time>2024-12-19T13:31:18Z</time>
      </trkpt>
      <trkpt lat="47.91715" lon="-2.47827">
        <ele>90</ele>
        <time>2024-12-19T13:31:19Z</time>
      </trkpt>
      <trkpt lat="47.91716" lon="-2.47828">
        <ele>90</ele>
        <time>2024-12-19T13:31:20Z</time>
      </trkpt>
      <trkpt lat="47.91717" lon="-2.47829">
        <ele>90</ele>
        <time>2024-12-19T13:31:21Z</time>
      </trkpt>
      <trkpt lat="47.91718" lon="-2.47831">
        <ele>90</ele>
        <time>2024-12-19T13:31:22Z</time>
      </trkpt>
      <trkpt lat="47.91719" lon="-2.47832">
        <ele>90</ele>
        <time>2024-12-19T13:31:23Z</time>
      </trkpt>
      <trkpt lat="47.9172" lon="-2.47834">
        <ele>90</ele>
        <time>2024-12-19T13:31:24Z</time>
      </trkpt>
      <trkpt lat="47.91721" lon="-2.47835">
        <ele>90</ele>
        <time>2024-12-19T13:31:25Z</time>
      </trkpt>
      <trkpt lat="47.91723" lon="-2.47837">
        <ele>90</ele>
        <time>2024-12-19T13:31:26Z</time>
      </trkpt>
      <trkpt lat="47.91724" lon="-2.47838">
        <ele>90</ele>
        <time>2024-12-19T13:31:27Z</time>
      </trkpt>
      <trkpt lat="47.91725" lon="-2.4784">
        <ele>90</ele>
        <time>2024-12-19T13:31:28Z</time>
      </trkpt>
      <trkpt lat="47.91725" lon="-2.47841">
        <ele>90</ele>
        <time>2024-12-19T13:31:29Z</time>
      </trkpt>
      <trkpt lat="47.91726" lon="-2.47843">
        <ele>90</ele>
        <time>2024-12-19T13:31:30Z</time>
      </trkpt>
      <trkpt lat="47.91727" lon="-2.47844">
        <ele>90</ele>
        <time>2024-12-19T13:31:31Z</time>
      </trkpt>
      <trkpt lat="47.91727" lon="-2.47845">
        <ele>90</ele>
        <time>2024-12-19T13:31:32Z</time>
      </trkpt>
      <trkpt lat="47.91728" lon="-2.47845">
        <ele>90</ele>
        <time>2024-12-19T13:31:33Z</time>
      </trkpt>
      <trkpt lat="47.91729" lon="-2.47846">
        <ele>90</ele>
        <time>2024-12-19T13:31:34Z</time>
      </trkpt>
      <trkpt lat="47.9173" lon="-2.47847">
        <ele>90</ele>
        <time>2024-12-19T13:31:35Z</time>
      </trkpt>
      <trkpt lat="47.91731" lon="-2.47849">
        <ele>90</ele>
        <time>2024-12-19T13:31:36Z</time>
      </trkpt>
      <trkpt lat="47.91732" lon="-2.47851">
        <ele>90</ele>
        <time>2024-12-19T13:31:37Z</time>
      </trkpt>
      <trkpt lat="47.91733" lon="-2.47852">
        <ele>90</ele>
        <time>2024-12-19T13:31:38Z</time>
      </trkpt>
      <trkpt lat="47.91733" lon="-2.47852">
        <ele>90</ele>
        <time>2024-12-19T13:31:39Z</time>
      </trkpt>
      <trkpt lat="47.91734" lon="-2.47853">
        <ele>90</ele>
        <time>2024-12-19T13:31:40Z</time>
      </trkpt>
      <trkpt lat="47.91735" lon="-2.47854">
        <ele>90</ele>
        <time>2024-12-19T13:31:41Z</time>
      </trkpt>
      <trkpt lat="47.91736" lon="-2.47855">
        <ele>90</ele>
        <time>2024-12-19T13:31:42Z</time>
      </trkpt>
      <trkpt lat="47.91736" lon="-2.47856">
        <ele>90</ele>
        <time>2024-12-19T13:31:43Z</time>
      </trkpt>
      <trkpt lat="47.91737" lon="-2.47856">
        <ele>90</ele>
        <time>2024-12-19T13:31:44Z</time>
      </trkpt>
      <trkpt lat="47.91738" lon="-2.47858">
        <ele>90</ele>
        <time>2024-12-19T13:31:45Z</time>
      </trkpt>
      <trkpt lat="47.91739" lon="-2.47859">
        <ele>90</ele>
        <time>2024-12-19T13:31:46Z</time>
      </trkpt>
      <trkpt lat="47.91739" lon="-2.4786">
        <ele>90</ele>
        <time>2024-12-19T13:31:47Z</time>
      </trkpt>
      <trkpt lat="47.9174" lon="-2.47861">
        <ele>90</ele>
        <time>2024-12-19T13:31:48Z</time>
      </trkpt>
      <trkpt lat="47.91741" lon="-2.47863">
        <ele>90</ele>
        <time>2024-12-19T13:31:49Z</time>
      </trkpt>
      <trkpt lat="47.91741" lon="-2.47863">
        <ele>90</ele>
        <time>2024-12-19T13:31:50Z</time>
      </trkpt>
      <trkpt lat="47.91741" lon="-2.47864">
        <ele>90</ele>
        <time>2024-12-19T13:31:51Z</time>
      </trkpt>
      <trkpt lat="47.91742" lon="-2.47865">
        <ele>90</ele>
        <time>2024-12-19T13:31:52Z</time>
      </trkpt>
      <trkpt lat="47.91742" lon="-2.47867">
        <ele>90</ele>
        <time>2024-12-19T13:31:53Z</time>
      </trkpt>
      <trkpt lat="47.91743" lon="-2.47868">
        <ele>90</ele>
        <time>2024-12-19T13:31:54Z</time>
      </trkpt>
      <trkpt lat="47.91743" lon="-2.4787">
        <ele>90</ele>
        <time>2024-12-19T13:31:55Z</time>
      </trkpt>
      <trkpt lat="47.91744" lon="-2.47871">
        <ele>90</ele>
        <time>2024-12-19T13:31:56Z</time>
      </trkpt>
      <trkpt lat="47.91745" lon="-2.47873">
        <ele>90</ele>
        <time>2024-12-19T13:31:57Z</time>
      </trkpt>
      <trkpt lat="47.91746" lon="-2.47873">
        <ele>90</ele>
        <time>2024-12-19T13:31:58Z</time>
      </trkpt>
      <trkpt lat="47.91747" lon="-2.47875">
        <ele>90</ele>
        <time>2024-12-19T13:31:59Z</time>
      </trkpt>
      <trkpt lat="47.91748" lon="-2.47876">
        <ele>90</ele>
        <time>2024-12-19T13:32:00Z</time>
      </trkpt>
      <trkpt lat="47.91749" lon="-2.47878">
        <ele>90</ele>
        <time>2024-12-19T13:32:01Z</time>
      </trkpt>
      <trkpt lat="47.91749" lon="-2.47879">
        <ele>90</ele>
        <time>2024-12-19T13:32:02Z</time>
      </trkpt>
      <trkpt lat="47.9175" lon="-2.47881">
        <ele>90</ele>
        <time>2024-12-19T13:32:03Z</time>
      </trkpt>
      <trkpt lat="47.9175" lon="-2.47883">
        <ele>90</ele>
        <time>2024-12-19T13:32:04Z</time>
      </trkpt>
      <trkpt lat="47.91751" lon="-2.47884">
        <ele>90</ele>
        <time>2024-12-19T13:32:05Z</time>
      </trkpt>
      <trkpt lat="47.91752" lon="-2.47885">
        <ele>90</ele>
        <time>2024-12-19T13:32:06Z</time>
      </trkpt>
      <trkpt lat="47.91753" lon="-2.47886">
        <ele>90</ele>
        <time>2024-12-19T13:32:07Z</time>
      </trkpt>
      <trkpt lat="47.91754" lon="-2.47888">
        <ele>90</ele>
        <time>2024-12-19T13:32:08Z</time>
      </trkpt>
      <trkpt lat="47.91755" lon="-2.47889">
        <ele>90</ele>
        <time>2024-12-19T13:32:09Z</time>
      </trkpt>
      <trkpt lat="47.91755" lon="-2.4789">
        <ele>90</ele>
        <time>2024-12-19T13:32:10Z</time>
      </trkpt>
      <trkpt lat="47.91756" lon="-2.47891">
        <ele>90</ele>
        <time>2024-12-19T13:32:11Z</time>
      </trkpt>
      <trkpt lat="47.91757" lon="-2.47892">
        <ele>90</ele>
        <time>2024-12-19T13:32:12Z</time>
      </trkpt>
      <trkpt lat="47.91757" lon="-2.47893">
        <ele>90</ele>
        <time>2024-12-19T13:32:13Z</time>
      </trkpt>
      <trkpt lat="47.91758" lon="-2.47895">
        <ele>90</ele>
        <time>2024-12-19T13:32:14Z</time>
      </trkpt>
      <trkpt lat="47.91758" lon="-2.47896">
        <ele>90</ele>
        <time>2024-12-19T13:32:15Z</time>
      </trkpt>
      <trkpt lat="47.91759" lon="-2.47898">
        <ele>90</ele>
        <time>2024-12-19T13:32:16Z</time>
      </trkpt>
      <trkpt lat="47.9176" lon="-2.479">
        <ele>90</ele>
        <time>2024-12-19T13:32:17Z</time>
      </trkpt>
      <trkpt lat="47.91761" lon="-2.47901">
        <ele>90</ele>
        <time>2024-12-19T13:32:18Z</time>
      </trkpt>
      <trkpt lat="47.91761" lon="-2.47903">
        <ele>90</ele>
        <time>2024-12-19T13:32:19Z</time>
      </trkpt>
      <trkpt lat="47.91762" lon="-2.47905">
        <ele>90</ele>
        <time>2024-12-19T13:32:20Z</time>
      </trkpt>
      <trkpt lat="47.91763" lon="-2.47906">
        <ele>90</ele>
        <time>2024-12-19T13:32:21Z</time>
      </trkpt>
      <trkpt lat="47.91764" lon="-2.47907">
        <ele>90</ele>
        <time>2024-12-19T13:32:22Z</time>
      </trkpt>
      <trkpt lat="47.91765" lon="-2.47909">
        <ele>90</ele>
        <time>2024-12-19T13:32:23Z</time>
      </trkpt>
      <trkpt lat="47.91766" lon="-2.47911">
        <ele>90</ele>
        <time>2024-12-19T13:32:24Z</time>
      </trkpt>
      <trkpt lat="47.91767" lon="-2.47912">
        <ele>90</ele>
        <time>2024-12-19T13:32:25Z</time>
      </trkpt>
      <trkpt lat="47.91768" lon="-2.47914">
        <ele>90</ele>
        <time>2024-12-19T13:32:26Z</time>
      </trkpt>
      <trkpt lat="47.91768" lon="-2.47915">
        <ele>90</ele>
        <time>2024-12-19T13:32:27Z</time>
      </trkpt>
      <trkpt lat="47.91769" lon="-2.47916">
        <ele>90</ele>
        <time>2024-12-19T13:32:28Z</time>
      </trkpt>
      <trkpt lat="47.9177" lon="-2.47918">
        <ele>90</ele>
        <time>2024-12-19T13:32:29Z</time>
      </trkpt>
      <trkpt lat="47.9177" lon="-2.47918">
        <ele>89.9</ele>
        <time>2024-12-19T13:32:30Z</time>
      </trkpt>
      <trkpt lat="47.9177" lon="-2.47919">
        <ele>89.9</ele>
        <time>2024-12-19T13:32:31Z</time>
      </trkpt>
      <trkpt lat="47.91771" lon="-2.4792">
        <ele>89.9</ele>
        <time>2024-12-19T13:32:32Z</time>
      </trkpt>
      <trkpt lat="47.91772" lon="-2.47921">
        <ele>89.8</ele>
        <time>2024-12-19T13:32:33Z</time>
      </trkpt>
      <trkpt lat="47.91772" lon="-2.47923">
        <ele>89.8</ele>
        <time>2024-12-19T13:32:34Z</time>
      </trkpt>
      <trkpt lat="47.91773" lon="-2.47924">
        <ele>89.7</ele>
        <time>2024-12-19T13:32:35Z</time>
      </trkpt>
      <trkpt lat="47.91774" lon="-2.47925">
        <ele>89.7</ele>
        <time>2024-12-19T13:32:36Z</time>
      </trkpt>
      <trkpt lat="47.91774" lon="-2.47926">
        <ele>89.7</ele>
        <time>2024-12-19T13:32:37Z</time>
      </trkpt>
      <trkpt lat="47.91775" lon="-2.47927">
        <ele>89.6</ele>
        <time>2024-12-19T13:32:38Z</time>
      </trkpt>
      <trkpt lat="47.91775" lon="-2.47928">
        <ele>89.6</ele>
        <time>2024-12-19T13:32:39Z</time>
      </trkpt>
      <trkpt lat="47.91776" lon="-2.47929">
        <ele>89.5</ele>
        <time>2024-12-19T13:32:40Z</time>
      </trkpt>
      <trkpt lat="47.91778" lon="-2.4793">
        <ele>89.5</ele>
        <time>2024-12-19T13:32:41Z</time>
      </trkpt>
      <trkpt lat="47.91779" lon="-2.47931">
        <ele>89.5</ele>
        <time>2024-12-19T13:32:42Z</time>
      </trkpt>
      <trkpt lat="47.91781" lon="-2.47932">
        <ele>89.4</ele>
        <time>2024-12-19T13:32:43Z</time>
      </trkpt>
      <trkpt lat="47.91782" lon="-2.47933">
        <ele>89.4</ele>
        <time>2024-12-19T13:32:44Z</time>
      </trkpt>
      <trkpt lat="47.91784" lon="-2.47934">
        <ele>89.3</ele>
        <time>2024-12-19T13:32:45Z</time>
      </trkpt>
      <trkpt lat="47.91785" lon="-2.47934">
        <ele>89.3</ele>
        <time>2024-12-19T13:32:46Z</time>
      </trkpt>
      <trkpt lat="47.91787" lon="-2.47935">
        <ele>89.2</ele>
        <time>2024-12-19T13:32:47Z</time>
      </trkpt>
      <trkpt lat="47.91788" lon="-2.47935">
        <ele>89.2</ele>
        <time>2024-12-19T13:32:48Z</time>
      </trkpt>
      <trkpt lat="47.9179" lon="-2.47936">
        <ele>89.2</ele>
        <time>2024-12-19T13:32:49Z</time>
      </trkpt>
      <trkpt lat="47.91791" lon="-2.47937">
        <ele>89.1</ele>
        <time>2024-12-19T13:32:50Z</time>
      </trkpt>
      <trkpt lat="47.91793" lon="-2.47937">
        <ele>89.1</ele>
        <time>2024-12-19T13:32:51Z</time>
      </trkpt>
      <trkpt lat="47.91794" lon="-2.47937">
        <ele>89.1</ele>
        <time>2024-12-19T13:32:52Z</time>
      </trkpt>
      <trkpt lat="47.91794" lon="-2.47937">
        <ele>89.1</ele>
        <time>2024-12-19T13:32:53Z</time>
      </trkpt>
      <trkpt lat="47.91795" lon="-2.47938">
        <ele>89.1</ele>
        <time>2024-12-19T13:32:54Z</time>
      </trkpt>
      <trkpt lat="47.91795" lon="-2.47938">
        <ele>89.1</ele>
        <time>2024-12-19T13:32:55Z</time>
      </trkpt>
      <trkpt lat="47.91796" lon="-2.47939">
        <ele>89.1</ele>
        <time>2024-12-19T13:32:56Z</time>
      </trkpt>
      <trkpt lat="47.91797" lon="-2.4794">
        <ele>89.1</ele>
        <time>2024-12-19T13:32:57Z</time>
      </trkpt>
      <trkpt lat="47.91798" lon="-2.47941">
        <ele>89</ele>
        <time>2024-12-19T13:32:58Z</time>
      </trkpt>
      <trkpt lat="47.91798" lon="-2.47941">
        <ele>89</ele>
        <time>2024-12-19T13:32:59Z</time>
      </trkpt>
      <trkpt lat="47.91798" lon="-2.47942">
        <ele>89</ele>
        <time>2024-12-19T13:33:00Z</time>
      </trkpt>
      <trkpt lat="47.91798" lon="-2.47943">
        <ele>89</ele>
        <time>2024-12-19T13:33:01Z</time>
      </trkpt>
      <trkpt lat="47.91799" lon="-2.47943">
        <ele>89</ele>
        <time>2024-12-19T13:33:02Z</time>
      </trkpt>
      <trkpt lat="47.91799" lon="-2.47943">
        <ele>89</ele>
        <time>2024-12-19T13:33:03Z</time>
      </trkpt>
      <trkpt lat="47.918" lon="-2.47944">
        <ele>89</ele>
        <time>2024-12-19T13:33:04Z</time>
      </trkpt>
      <trkpt lat="47.91801" lon="-2.47944">
        <ele>89</ele>
        <time>2024-12-19T13:33:05Z</time>
      </trkpt>
      <trkpt lat="47.91802" lon="-2.47945">
        <ele>89</ele>
        <time>2024-12-19T13:33:06Z</time>
      </trkpt>
      <trkpt lat="47.91802" lon="-2.47945">
        <ele>89</ele>
        <time>2024-12-19T13:33:07Z</time>
      </trkpt>
      <trkpt lat="47.91803" lon="-2.47946">
        <ele>88.9</ele>
        <time>2024-12-19T13:33:08Z</time>
      </trkpt>
      <trkpt lat="47.91804" lon="-2.47946">
        <ele>88.9</ele>
        <time>2024-12-19T13:33:09Z</time>
      </trkpt>
      <trkpt lat="47.91805" lon="-2.47947">
        <ele>88.9</ele>
        <time>2024-12-19T13:33:10Z</time>
      </trkpt>
      <trkpt lat="47.91807" lon="-2.47948">
        <ele>88.9</ele>
        <time>2024-12-19T13:33:11Z</time>
      </trkpt>
      <trkpt lat="47.91809" lon="-2.47948">
        <ele>88.9</ele>
        <time>2024-12-19T13:33:12Z</time>
      </trkpt>
      <trkpt lat="47.9181" lon="-2.47949">
        <ele>88.9</ele>
        <time>2024-12-19T13:33:13Z</time>
      </trkpt>
      <trkpt lat="47.91811" lon="-2.47949">
        <ele>88.8</ele>
        <time>2024-12-19T13:33:14Z</time>
      </trkpt>
      <trkpt lat="47.91811" lon="-2.47949">
        <ele>88.8</ele>
        <time>2024-12-19T13:33:15Z</time>
      </trkpt>
      <trkpt lat="47.91811" lon="-2.4795">
        <ele>88.8</ele>
        <time>2024-12-19T13:33:16Z</time>
      </trkpt>
      <trkpt lat="47.91812" lon="-2.47951">
        <ele>88.8</ele>
        <time>2024-12-19T13:33:17Z</time>
      </trkpt>
      <trkpt lat="47.91812" lon="-2.47952">
        <ele>88.7</ele>
        <time>2024-12-19T13:33:18Z</time>
      </trkpt>
      <trkpt lat="47.91812" lon="-2.47954">
        <ele>88.7</ele>
        <time>2024-12-19T13:33:19Z</time>
      </trkpt>
      <trkpt lat="47.91813" lon="-2.47956">
        <ele>88.6</ele>
        <time>2024-12-19T13:33:20Z</time>
      </trkpt>
      <trkpt lat="47.91815" lon="-2.47957">
        <ele>88.6</ele>
        <time>2024-12-19T13:33:21Z</time>
      </trkpt>
      <trkpt lat="47.91816" lon="-2.47957">
        <ele>88.5</ele>
        <time>2024-12-19T13:33:22Z</time>
      </trkpt>
      <trkpt lat="47.91816" lon="-2.47957">
        <ele>88.5</ele>
        <time>2024-12-19T13:33:23Z</time>
      </trkpt>
      <trkpt lat="47.91817" lon="-2.47958">
        <ele>88.5</ele>
        <time>2024-12-19T13:33:24Z</time>
      </trkpt>
      <trkpt lat="47.91818" lon="-2.47959">
        <ele>88.5</ele>
        <time>2024-12-19T13:33:25Z</time>
      </trkpt>
      <trkpt lat="47.91818" lon="-2.4796">
        <ele>88.4</ele>
        <time>2024-12-19T13:33:26Z</time>
      </trkpt>
      <trkpt lat="47.91819" lon="-2.47961">
        <ele>88.4</ele>
        <time>2024-12-19T13:33:27Z</time>
      </trkpt>
      <trkpt lat="47.9182" lon="-2.47962">
        <ele>88.4</ele>
        <time>2024-12-19T13:33:28Z</time>
      </trkpt>
      <trkpt lat="47.91821" lon="-2.47963">
        <ele>88.3</ele>
        <time>2024-12-19T13:33:29Z</time>
      </trkpt>
      <trkpt lat="47.91822" lon="-2.47964">
        <ele>88.3</ele>
        <time>2024-12-19T13:33:30Z</time>
      </trkpt>
      <trkpt lat="47.91824" lon="-2.47965">
        <ele>88.3</ele>
        <time>2024-12-19T13:33:31Z</time>
      </trkpt>
      <trkpt lat="47.91825" lon="-2.47967">
        <ele>88.2</ele>
        <time>2024-12-19T13:33:32Z</time>
      </trkpt>
      <trkpt lat="47.91827" lon="-2.47968">
        <ele>88.2</ele>
        <time>2024-12-19T13:33:33Z</time>
      </trkpt>
      <trkpt lat="47.91828" lon="-2.4797">
        <ele>88.1</ele>
        <time>2024-12-19T13:33:34Z</time>
      </trkpt>
      <trkpt lat="47.91829" lon="-2.47971">
        <ele>88</ele>
        <time>2024-12-19T13:33:35Z</time>
      </trkpt>
      <trkpt lat="47.91831" lon="-2.47973">
        <ele>88</ele>
        <time>2024-12-19T13:33:36Z</time>
      </trkpt>
      <trkpt lat="47.91832" lon="-2.47974">
        <ele>87.9</ele>
        <time>2024-12-19T13:33:37Z</time>
      </trkpt>
      <trkpt lat="47.91832" lon="-2.47975">
        <ele>87.8</ele>
        <time>2024-12-19T13:33:38Z</time>
      </trkpt>
      <trkpt lat="47.91833" lon="-2.47977">
        <ele>87.7</ele>
        <time>2024-12-19T13:33:39Z</time>
      </trkpt>
      <trkpt lat="47.91833" lon="-2.47977">
        <ele>87.6</ele>
        <time>2024-12-19T13:33:40Z</time>
      </trkpt>
      <trkpt lat="47.91834" lon="-2.47978">
        <ele>87.6</ele>
        <time>2024-12-19T13:33:41Z</time>
      </trkpt>
      <trkpt lat="47.91836" lon="-2.47979">
        <ele>87.5</ele>
        <time>2024-12-19T13:33:42Z</time>
      </trkpt>
      <trkpt lat="47.91838" lon="-2.47979">
        <ele>87.5</ele>
        <time>2024-12-19T13:33:43Z</time>
      </trkpt>
      <trkpt lat="47.91839" lon="-2.4798">
        <ele>87.5</ele>
        <time>2024-12-19T13:33:44Z</time>
      </trkpt>
      <trkpt lat="47.91841" lon="-2.47981">
        <ele>87.4</ele>
        <time>2024-12-19T13:33:45Z</time>
      </trkpt>
      <trkpt lat="47.91842" lon="-2.47982">
        <ele>87.4</ele>
        <time>2024-12-19T13:33:46Z</time>
      </trkpt>
      <trkpt lat="47.91843" lon="-2.47983">
        <ele>87.3</ele>
        <time>2024-12-19T13:33:47Z</time>
      </trkpt>
      <trkpt lat="47.91843" lon="-2.47984">
        <ele>87.3</ele>
        <time>2024-12-19T13:33:48Z</time>
      </trkpt>
      <trkpt lat="47.91843" lon="-2.47985">
        <ele>87.3</ele>
        <time>2024-12-19T13:33:49Z</time>
      </trkpt>
      <trkpt lat="47.91843" lon="-2.47986">
        <ele>87.2</ele>
        <time>2024-12-19T13:33:50Z</time>
      </trkpt>
      <trkpt lat="47.91844" lon="-2.47987">
        <ele>87.2</ele>
        <time>2024-12-19T13:33:51Z</time>
      </trkpt>
      <trkpt lat="47.91845" lon="-2.47987">
        <ele>87.2</ele>
        <time>2024-12-19T13:33:52Z</time>
      </trkpt>
      <trkpt lat="47.91846" lon="-2.47987">
        <ele>87.2</ele>
        <time>2024-12-19T13:33:53Z</time>
      </trkpt>
      <trkpt lat="47.91846" lon="-2.47988">
        <ele>87.1</ele>
        <time>2024-12-19T13:33:54Z</time>
      </trkpt>
      <trkpt lat="47.91847" lon="-2.4799">
        <ele>87</ele>
        <time>2024-12-19T13:33:55Z</time>
      </trkpt>
      <trkpt lat="47.91848" lon="-2.47991">
        <ele>87</ele>
        <time>2024-12-19T13:33:56Z</time>
      </trkpt>
      <trkpt lat="47.91849" lon="-2.47993">
        <ele>86.9</ele>
        <time>2024-12-19T13:33:57Z</time>
      </trkpt>
      <trkpt lat="47.9185" lon="-2.47994">
        <ele>86.9</ele>
        <time>2024-12-19T13:33:58Z</time>
      </trkpt>
      <trkpt lat="47.91852" lon="-2.47995">
        <ele>86.9</ele>
        <time>2024-12-19T13:33:59Z</time>
      </trkpt>
      <trkpt lat="47.91853" lon="-2.47996">
        <ele>86.9</ele>
        <time>2024-12-19T13:34:00Z</time>
      </trkpt>
      <trkpt lat="47.91854" lon="-2.47997">
        <ele>86.9</ele>
        <time>2024-12-19T13:34:01Z</time>
      </trkpt>
      <trkpt lat="47.91854" lon="-2.47998">
        <ele>86.9</ele>
        <time>2024-12-19T13:34:02Z</time>
      </trkpt>
      <trkpt lat="47.91855" lon="-2.47999">
        <ele>86.8</ele>
        <time>2024-12-19T13:34:03Z</time>
      </trkpt>
      <trkpt lat="47.91857" lon="-2.48001">
        <ele>86.8</ele>
        <time>2024-12-19T13:34:04Z</time>
      </trkpt>
      <trkpt lat="47.91857" lon="-2.48002">
        <ele>86.7</ele>
        <time>2024-12-19T13:34:05Z</time>
      </trkpt>
      <trkpt lat="47.91857" lon="-2.48003">
        <ele>86.6</ele>
        <time>2024-12-19T13:34:06Z</time>
      </trkpt>
      <trkpt lat="47.91858" lon="-2.48005">
        <ele>86.5</ele>
        <time>2024-12-19T13:34:07Z</time>
      </trkpt>
      <trkpt lat="47.91859" lon="-2.48006">
        <ele>86.5</ele>
        <time>2024-12-19T13:34:08Z</time>
      </trkpt>
      <trkpt lat="47.9186" lon="-2.48007">
        <ele>86.5</ele>
        <time>2024-12-19T13:34:09Z</time>
      </trkpt>
      <trkpt lat="47.9186" lon="-2.48008">
        <ele>86.4</ele>
        <time>2024-12-19T13:34:10Z</time>
      </trkpt>
      <trkpt lat="47.9186" lon="-2.48009">
        <ele>86.3</ele>
        <time>2024-12-19T13:34:11Z</time>
      </trkpt>
      <trkpt lat="47.91861" lon="-2.48009">
        <ele>86.3</ele>
        <time>2024-12-19T13:34:12Z</time>
      </trkpt>
      <trkpt lat="47.91861" lon="-2.4801">
        <ele>86.3</ele>
        <time>2024-12-19T13:34:13Z</time>
      </trkpt>
      <trkpt lat="47.91862" lon="-2.48012">
        <ele>86.2</ele>
        <time>2024-12-19T13:34:14Z</time>
      </trkpt>
      <trkpt lat="47.91863" lon="-2.48013">
        <ele>86.1</ele>
        <time>2024-12-19T13:34:15Z</time>
      </trkpt>
      <trkpt lat="47.91864" lon="-2.48014">
        <ele>86</ele>
        <time>2024-12-19T13:34:16Z</time>
      </trkpt>
      <trkpt lat="47.91865" lon="-2.48015">
        <ele>86</ele>
        <time>2024-12-19T13:34:17Z</time>
      </trkpt>
      <trkpt lat="47.91866" lon="-2.48016">
        <ele>85.9</ele>
        <time>2024-12-19T13:34:18Z</time>
      </trkpt>
      <trkpt lat="47.91867" lon="-2.48017">
        <ele>85.9</ele>
        <time>2024-12-19T13:34:19Z</time>
      </trkpt>
      <trkpt lat="47.91868" lon="-2.48018">
        <ele>85.8</ele>
        <time>2024-12-19T13:34:20Z</time>
      </trkpt>
      <trkpt lat="47.91869" lon="-2.48019">
        <ele>85.8</ele>
        <time>2024-12-19T13:34:21Z</time>
      </trkpt>
      <trkpt lat="47.91869" lon="-2.48021">
        <ele>85.7</ele>
        <time>2024-12-19T13:34:22Z</time>
      </trkpt>
      <trkpt lat="47.9187" lon="-2.48022">
        <ele>85.7</ele>
        <time>2024-12-19T13:34:23Z</time>
      </trkpt>
      <trkpt lat="47.91871" lon="-2.48023">
        <ele>85.6</ele>
        <time>2024-12-19T13:34:24Z</time>
      </trkpt>
      <trkpt lat="47.91871" lon="-2.48025">
        <ele>85.5</ele>
        <time>2024-12-19T13:34:25Z</time>
      </trkpt>
      <trkpt lat="47.91872" lon="-2.48026">
        <ele>85.5</ele>
        <time>2024-12-19T13:34:26Z</time>
      </trkpt>
      <trkpt lat="47.91872" lon="-2.48028">
        <ele>85.4</ele>
        <time>2024-12-19T13:34:27Z</time>
      </trkpt>
      <trkpt lat="47.91873" lon="-2.48029">
        <ele>85.3</ele>
        <time>2024-12-19T13:34:28Z</time>
      </trkpt>
      <trkpt lat="47.91873" lon="-2.4803">
        <ele>85.2</ele>
        <time>2024-12-19T13:34:29Z</time>
      </trkpt>
      <trkpt lat="47.91874" lon="-2.48031">
        <ele>85.2</ele>
        <time>2024-12-19T13:34:30Z</time>
      </trkpt>
      <trkpt lat="47.91875" lon="-2.48032">
        <ele>85.1</ele>
        <time>2024-12-19T13:34:31Z</time>
      </trkpt>
      <trkpt lat="47.91876" lon="-2.48033">
        <ele>85.1</ele>
        <time>2024-12-19T13:34:32Z</time>
      </trkpt>
      <trkpt lat="47.91877" lon="-2.48034">
        <ele>85</ele>
        <time>2024-12-19T13:34:33Z</time>
      </trkpt>
      <trkpt lat="47.91878" lon="-2.48035">
        <ele>84.9</ele>
        <time>2024-12-19T13:34:34Z</time>
      </trkpt>
      <trkpt lat="47.9188" lon="-2.48036">
        <ele>84.9</ele>
        <time>2024-12-19T13:34:35Z</time>
      </trkpt>
      <trkpt lat="47.91881" lon="-2.48038">
        <ele>84.8</ele>
        <time>2024-12-19T13:34:36Z</time>
      </trkpt>
      <trkpt lat="47.91882" lon="-2.48039">
        <ele>84.7</ele>
        <time>2024-12-19T13:34:37Z</time>
      </trkpt>
      <trkpt lat="47.91883" lon="-2.4804">
        <ele>84.6</ele>
        <time>2024-12-19T13:34:38Z</time>
      </trkpt>
      <trkpt lat="47.91883" lon="-2.48041">
        <ele>84.5</ele>
        <time>2024-12-19T13:34:39Z</time>
      </trkpt>
      <trkpt lat="47.91884" lon="-2.48042">
        <ele>84.4</ele>
        <time>2024-12-19T13:34:40Z</time>
      </trkpt>
      <trkpt lat="47.91885" lon="-2.48043">
        <ele>84.3</ele>
        <time>2024-12-19T13:34:41Z</time>
      </trkpt>
      <trkpt lat="47.91886" lon="-2.48045">
        <ele>84.1</ele>
        <time>2024-12-19T13:34:42Z</time>
      </trkpt>
      <trkpt lat="47.91888" lon="-2.48046">
        <ele>84</ele>
        <time>2024-12-19T13:34:43Z</time>
      </trkpt>
      <trkpt lat="47.91889" lon="-2.48047">
        <ele>83.9</ele>
        <time>2024-12-19T13:34:44Z</time>
      </trkpt>
      <trkpt lat="47.9189" lon="-2.48048">
        <ele>83.8</ele>
        <time>2024-12-19T13:34:45Z</time>
      </trkpt>
      <trkpt lat="47.91891" lon="-2.4805">
        <ele>83.6</ele>
        <time>2024-12-19T13:34:46Z</time>
      </trkpt>
      <trkpt lat="47.91892" lon="-2.48051">
        <ele>83.5</ele>
        <time>2024-12-19T13:34:47Z</time>
      </trkpt>
      <trkpt lat="47.91893" lon="-2.48052">
        <ele>83.3</ele>
        <time>2024-12-19T13:34:48Z</time>
      </trkpt>
      <trkpt lat="47.91893" lon="-2.48054">
        <ele>83.2</ele>
        <time>2024-12-19T13:34:49Z</time>
      </trkpt>
      <trkpt lat="47.91894" lon="-2.48055">
        <ele>83.1</ele>
        <time>2024-12-19T13:34:50Z</time>
      </trkpt>
      <trkpt lat="47.91895" lon="-2.48056">
        <ele>83</ele>
        <time>2024-12-19T13:34:51Z</time>
      </trkpt>
      <trkpt lat="47.91895" lon="-2.48057">
        <ele>82.9</ele>
        <time>2024-12-19T13:34:52Z</time>
      </trkpt>
      <trkpt lat="47.91896" lon="-2.48058">
        <ele>82.7</ele>
        <time>2024-12-19T13:34:53Z</time>
      </trkpt>
      <trkpt lat="47.91896" lon="-2.48059">
        <ele>82.6</ele>
        <time>2024-12-19T13:34:54Z</time>
      </trkpt>
      <trkpt lat="47.91897" lon="-2.4806">
        <ele>82.5</ele>
        <time>2024-12-19T13:34:55Z</time>
      </trkpt>
      <trkpt lat="47.91898" lon="-2.48061">
        <ele>82.4</ele>
        <time>2024-12-19T13:34:56Z</time>
      </trkpt>
      <trkpt lat="47.91898" lon="-2.48062">
        <ele>82.2</ele>
        <time>2024-12-19T13:34:57Z</time>
      </trkpt>
      <trkpt lat="47.91899" lon="-2.48063">
        <ele>82.1</ele>
        <time>2024-12-19T13:34:58Z</time>
      </trkpt>
      <trkpt lat="47.91899" lon="-2.48064">
        <ele>82</ele>
        <time>2024-12-19T13:34:59Z</time>
      </trkpt>
      <trkpt lat="47.919" lon="-2.48065">
        <ele>81.8</ele>
        <time>2024-12-19T13:35:00Z</time>
      </trkpt>
      <trkpt lat="47.91901" lon="-2.48067">
        <ele>81.6</ele>
        <time>2024-12-19T13:35:01Z</time>
      </trkpt>
      <trkpt lat="47.91902" lon="-2.48068">
        <ele>81.5</ele>
        <time>2024-12-19T13:35:02Z</time>
      </trkpt>
      <trkpt lat="47.91903" lon="-2.48068">
        <ele>81.4</ele>
        <time>2024-12-19T13:35:03Z</time>
      </trkpt>
      <trkpt lat="47.91904" lon="-2.48069">
        <ele>81.3</ele>
        <time>2024-12-19T13:35:04Z</time>
      </trkpt>
      <trkpt lat="47.91904" lon="-2.48069">
        <ele>81.2</ele>
        <time>2024-12-19T13:35:05Z</time>
      </trkpt>
      <trkpt lat="47.91905" lon="-2.4807">
        <ele>81.1</ele>
        <time>2024-12-19T13:35:06Z</time>
      </trkpt>
      <trkpt lat="47.91907" lon="-2.48071">
        <ele>81</ele>
        <time>2024-12-19T13:35:07Z</time>
      </trkpt>
      <trkpt lat="47.91908" lon="-2.48071">
        <ele>81</ele>
        <time>2024-12-19T13:35:08Z</time>
      </trkpt>
      <trkpt lat="47.9191" lon="-2.48071">
        <ele>80.9</ele>
        <time>2024-12-19T13:35:09Z</time>
      </trkpt>
      <trkpt lat="47.91911" lon="-2.48071">
        <ele>80.9</ele>
        <time>2024-12-19T13:35:10Z</time>
      </trkpt>
      <trkpt lat="47.91913" lon="-2.48073">
        <ele>80.7</ele>
        <time>2024-12-19T13:35:11Z</time>
      </trkpt>
      <trkpt lat="47.91914" lon="-2.48074">
        <ele>80.4</ele>
        <time>2024-12-19T13:35:12Z</time>
      </trkpt>
      <trkpt lat="47.91916" lon="-2.48075">
        <ele>80.3</ele>
        <time>2024-12-19T13:35:13Z</time>
      </trkpt>
      <trkpt lat="47.91917" lon="-2.48076">
        <ele>80.1</ele>
        <time>2024-12-19T13:35:14Z</time>
      </trkpt>
      <trkpt lat="47.91918" lon="-2.48076">
        <ele>80.1</ele>
        <time>2024-12-19T13:35:15Z</time>
      </trkpt>
      <trkpt lat="47.91918" lon="-2.48076">
        <ele>80.1</ele>
        <time>2024-12-19T13:35:16Z</time>
      </trkpt>
      <trkpt lat="47.91918" lon="-2.48077">
        <ele>80</ele>
        <time>2024-12-19T13:35:17Z</time>
      </trkpt>
      <trkpt lat="47.91919" lon="-2.48077">
        <ele>79.9</ele>
        <time>2024-12-19T13:35:18Z</time>
      </trkpt>
      <trkpt lat="47.91919" lon="-2.48078">
        <ele>79.9</ele>
        <time>2024-12-19T13:35:19Z</time>
      </trkpt>
      <trkpt lat="47.9192" lon="-2.48078">
        <ele>79.8</ele>
        <time>2024-12-19T13:35:20Z</time>
      </trkpt>
      <trkpt lat="47.9192" lon="-2.48079">
        <ele>79.7</ele>
        <time>2024-12-19T13:35:21Z</time>
      </trkpt>
      <trkpt lat="47.9192" lon="-2.4808">
        <ele>79.6</ele>
        <time>2024-12-19T13:35:22Z</time>
      </trkpt>
      <trkpt lat="47.91921" lon="-2.48081">
        <ele>79.5</ele>
        <time>2024-12-19T13:35:23Z</time>
      </trkpt>
      <trkpt lat="47.91922" lon="-2.48081">
        <ele>79.4</ele>
        <time>2024-12-19T13:35:24Z</time>
      </trkpt>
      <trkpt lat="47.91923" lon="-2.48082">
        <ele>79.4</ele>
        <time>2024-12-19T13:35:25Z</time>
      </trkpt>
      <trkpt lat="47.91924" lon="-2.48082">
        <ele>79.4</ele>
        <time>2024-12-19T13:35:26Z</time>
      </trkpt>
      <trkpt lat="47.91925" lon="-2.48083">
        <ele>79.4</ele>
        <time>2024-12-19T13:35:27Z</time>
      </trkpt>
      <trkpt lat="47.91926" lon="-2.48083">
        <ele>79.3</ele>
        <time>2024-12-19T13:35:28Z</time>
      </trkpt>
      <trkpt lat="47.91927" lon="-2.48084">
        <ele>79.3</ele>
        <time>2024-12-19T13:35:29Z</time>
      </trkpt>
      <trkpt lat="47.91928" lon="-2.48085">
        <ele>79.3</ele>
        <time>2024-12-19T13:35:30Z</time>
      </trkpt>
      <trkpt lat="47.91929" lon="-2.48085">
        <ele>79.2</ele>
        <time>2024-12-19T13:35:31Z</time>
      </trkpt>
      <trkpt lat="47.91929" lon="-2.48086">
        <ele>79.1</ele>
        <time>2024-12-19T13:35:32Z</time>
      </trkpt>
      <trkpt lat="47.91931" lon="-2.48087">
        <ele>79</ele>
        <time>2024-12-19T13:35:33Z</time>
      </trkpt>
      <trkpt lat="47.91932" lon="-2.48088">
        <ele>78.8</ele>
        <time>2024-12-19T13:35:34Z</time>
      </trkpt>
      <trkpt lat="47.91933" lon="-2.48089">
        <ele>78.7</ele>
        <time>2024-12-19T13:35:35Z</time>
      </trkpt>
      <trkpt lat="47.91935" lon="-2.48089">
        <ele>78.7</ele>
        <time>2024-12-19T13:35:36Z</time>
      </trkpt>
      <trkpt lat="47.91936" lon="-2.4809">
        <ele>78.7</ele>
        <time>2024-12-19T13:35:37Z</time>
      </trkpt>
      <trkpt lat="47.91936" lon="-2.4809">
        <ele>78.7</ele>
        <time>2024-12-19T13:35:38Z</time>
      </trkpt>
      <trkpt lat="47.91938" lon="-2.48091">
        <ele>78.6</ele>
        <time>2024-12-19T13:35:39Z</time>
      </trkpt>
      <trkpt lat="47.91939" lon="-2.48091">
        <ele>78.5</ele>
        <time>2024-12-19T13:35:40Z</time>
      </trkpt>
      <trkpt lat="47.91939" lon="-2.48092">
        <ele>78.4</ele>
        <time>2024-12-19T13:35:41Z</time>
      </trkpt>
      <trkpt lat="47.9194" lon="-2.48092">
        <ele>78.3</ele>
        <time>2024-12-19T13:35:42Z</time>
      </trkpt>
      <trkpt lat="47.9194" lon="-2.48093">
        <ele>78.2</ele>
        <time>2024-12-19T13:35:43Z</time>
      </trkpt>
      <trkpt lat="47.91941" lon="-2.48094">
        <ele>78.1</ele>
        <time>2024-12-19T13:35:44Z</time>
      </trkpt>
      <trkpt lat="47.91942" lon="-2.48095">
        <ele>77.8</ele>
        <time>2024-12-19T13:35:45Z</time>
      </trkpt>
      <trkpt lat="47.91942" lon="-2.48096">
        <ele>77.7</ele>
        <time>2024-12-19T13:35:46Z</time>
      </trkpt>
      <trkpt lat="47.91943" lon="-2.48097">
        <ele>77.5</ele>
        <time>2024-12-19T13:35:47Z</time>
      </trkpt>
      <trkpt lat="47.91944" lon="-2.48098">
        <ele>77.3</ele>
        <time>2024-12-19T13:35:48Z</time>
      </trkpt>
      <trkpt lat="47.91945" lon="-2.48099">
        <ele>77.1</ele>
        <time>2024-12-19T13:35:49Z</time>
      </trkpt>
      <trkpt lat="47.91947" lon="-2.48101">
        <ele>76.8</ele>
        <time>2024-12-19T13:35:50Z</time>
      </trkpt>
      <trkpt lat="47.91948" lon="-2.48102">
        <ele>76.5</ele>
        <time>2024-12-19T13:35:51Z</time>
      </trkpt>
      <trkpt lat="47.91949" lon="-2.48103">
        <ele>76.4</ele>
        <time>2024-12-19T13:35:52Z</time>
      </trkpt>
      <trkpt lat="47.9195" lon="-2.48104">
        <ele>76.2</ele>
        <time>2024-12-19T13:35:53Z</time>
      </trkpt>
      <trkpt lat="47.9195" lon="-2.48105">
        <ele>76</ele>
        <time>2024-12-19T13:35:54Z</time>
      </trkpt>
      <trkpt lat="47.91951" lon="-2.48106">
        <ele>75.8</ele>
        <time>2024-12-19T13:35:55Z</time>
      </trkpt>
      <trkpt lat="47.91952" lon="-2.48108">
        <ele>75.6</ele>
        <time>2024-12-19T13:35:56Z</time>
      </trkpt>
      <trkpt lat="47.91953" lon="-2.48109">
        <ele>75.4</ele>
        <time>2024-12-19T13:35:57Z</time>
      </trkpt>
      <trkpt lat="47.91954" lon="-2.48109">
        <ele>75.3</ele>
        <time>2024-12-19T13:35:58Z</time>
      </trkpt>
      <trkpt lat="47.91957" lon="-2.4811">
        <ele>75.2</ele>
        <time>2024-12-19T13:35:59Z</time>
      </trkpt>
      <trkpt lat="47.91958" lon="-2.48111">
        <ele>75</ele>
        <time>2024-12-19T13:36:00Z</time>
      </trkpt>
      <trkpt lat="47.9196" lon="-2.48112">
        <ele>74.8</ele>
        <time>2024-12-19T13:36:01Z</time>
      </trkpt>
      <trkpt lat="47.91961" lon="-2.48113">
        <ele>74.7</ele>
        <time>2024-12-19T13:36:02Z</time>
      </trkpt>
      <trkpt lat="47.91962" lon="-2.48114">
        <ele>74.6</ele>
        <time>2024-12-19T13:36:03Z</time>
      </trkpt>
      <trkpt lat="47.91962" lon="-2.48115">
        <ele>74.5</ele>
        <time>2024-12-19T13:36:04Z</time>
      </trkpt>
      <trkpt lat="47.91963" lon="-2.48116">
        <ele>74.3</ele>
        <time>2024-12-19T13:36:05Z</time>
      </trkpt>
      <trkpt lat="47.91963" lon="-2.48117">
        <ele>74.2</ele>
        <time>2024-12-19T13:36:06Z</time>
      </trkpt>
      <trkpt lat="47.91964" lon="-2.48119">
        <ele>74</ele>
        <time>2024-12-19T13:36:07Z</time>
      </trkpt>
      <trkpt lat="47.91965" lon="-2.4812">
        <ele>73.8</ele>
        <time>2024-12-19T13:36:08Z</time>
      </trkpt>
      <trkpt lat="47.91965" lon="-2.48121">
        <ele>73.6</ele>
        <time>2024-12-19T13:36:09Z</time>
      </trkpt>
      <trkpt lat="47.91967" lon="-2.48123">
        <ele>73.4</ele>
        <time>2024-12-19T13:36:10Z</time>
      </trkpt>
      <trkpt lat="47.91968" lon="-2.48124">
        <ele>73.2</ele>
        <time>2024-12-19T13:36:11Z</time>
      </trkpt>
      <trkpt lat="47.91969" lon="-2.48126">
        <ele>73</ele>
        <time>2024-12-19T13:36:12Z</time>
      </trkpt>
      <trkpt lat="47.91969" lon="-2.48128">
        <ele>72.7</ele>
        <time>2024-12-19T13:36:13Z</time>
      </trkpt>
      <trkpt lat="47.9197" lon="-2.48129">
        <ele>72.4</ele>
        <time>2024-12-19T13:36:14Z</time>
      </trkpt>
      <trkpt lat="47.91971" lon="-2.48131">
        <ele>72.2</ele>
        <time>2024-12-19T13:36:15Z</time>
      </trkpt>
      <trkpt lat="47.91973" lon="-2.48132">
        <ele>72</ele>
        <time>2024-12-19T13:36:16Z</time>
      </trkpt>
      <trkpt lat="47.91974" lon="-2.48133">
        <ele>71.9</ele>
        <time>2024-12-19T13:36:17Z</time>
      </trkpt>
      <trkpt lat="47.91976" lon="-2.48135">
        <ele>71.7</ele>
        <time>2024-12-19T13:36:18Z</time>
      </trkpt>
      <trkpt lat="47.91977" lon="-2.48136">
        <ele>71.6</ele>
        <time>2024-12-19T13:36:19Z</time>
      </trkpt>
      <trkpt lat="47.91979" lon="-2.48138">
        <ele>71.4</ele>
        <time>2024-12-19T13:36:20Z</time>
      </trkpt>
      <trkpt lat="47.9198" lon="-2.4814">
        <ele>71.3</ele>
        <time>2024-12-19T13:36:21Z</time>
      </trkpt>
      <trkpt lat="47.91982" lon="-2.48141">
        <ele>71.2</ele>
        <time>2024-12-19T13:36:22Z</time>
      </trkpt>
      <trkpt lat="47.91983" lon="-2.48143">
        <ele>71.2</ele>
        <time>2024-12-19T13:36:23Z</time>
      </trkpt>
      <trkpt lat="47.91984" lon="-2.48144">
        <ele>71.1</ele>
        <time>2024-12-19T13:36:24Z</time>
      </trkpt>
      <trkpt lat="47.91985" lon="-2.48146">
        <ele>71.1</ele>
        <time>2024-12-19T13:36:25Z</time>
      </trkpt>
      <trkpt lat="47.91987" lon="-2.48147">
        <ele>71.1</ele>
        <time>2024-12-19T13:36:26Z</time>
      </trkpt>
      <trkpt lat="47.91988" lon="-2.48149">
        <ele>71</ele>
        <time>2024-12-19T13:36:27Z</time>
      </trkpt>
      <trkpt lat="47.91989" lon="-2.48151">
        <ele>70.9</ele>
        <time>2024-12-19T13:36:28Z</time>
      </trkpt>
      <trkpt lat="47.9199" lon="-2.48153">
        <ele>70.8</ele>
        <time>2024-12-19T13:36:29Z</time>
      </trkpt>
      <trkpt lat="47.91991" lon="-2.48154">
        <ele>70.7</ele>
        <time>2024-12-19T13:36:30Z</time>
      </trkpt>
      <trkpt lat="47.91992" lon="-2.48155">
        <ele>70.7</ele>
        <time>2024-12-19T13:36:31Z</time>
      </trkpt>
      <trkpt lat="47.91993" lon="-2.48157">
        <ele>70.6</ele>
        <time>2024-12-19T13:36:32Z</time>
      </trkpt>
      <trkpt lat="47.91994" lon="-2.48159">
        <ele>70.5</ele>
        <time>2024-12-19T13:36:33Z</time>
      </trkpt>
      <trkpt lat="47.91995" lon="-2.48161">
        <ele>70.3</ele>
        <time>2024-12-19T13:36:34Z</time>
      </trkpt>
      <trkpt lat="47.91996" lon="-2.48164">
        <ele>70.2</ele>
        <time>2024-12-19T13:36:35Z</time>
      </trkpt>
      <trkpt lat="47.91996" lon="-2.48166">
        <ele>70.1</ele>
        <time>2024-12-19T13:36:36Z</time>
      </trkpt>
      <trkpt lat="47.91997" lon="-2.48168">
        <ele>69.9</ele>
        <time>2024-12-19T13:36:37Z</time>
      </trkpt>
      <trkpt lat="47.91998" lon="-2.4817">
        <ele>69.6</ele>
        <time>2024-12-19T13:36:38Z</time>
      </trkpt>
      <trkpt lat="47.91998" lon="-2.48172">
        <ele>69.4</ele>
        <time>2024-12-19T13:36:39Z</time>
      </trkpt>
      <trkpt lat="47.91999" lon="-2.48174">
        <ele>69.2</ele>
        <time>2024-12-19T13:36:40Z</time>
      </trkpt>
      <trkpt lat="47.91999" lon="-2.48176">
        <ele>69</ele>
        <time>2024-12-19T13:36:41Z</time>
      </trkpt>
      <trkpt lat="47.92" lon="-2.48178">
        <ele>68.8</ele>
        <time>2024-12-19T13:36:42Z</time>
      </trkpt>
      <trkpt lat="47.92" lon="-2.4818">
        <ele>68.6</ele>
        <time>2024-12-19T13:36:43Z</time>
      </trkpt>
      <trkpt lat="47.92001" lon="-2.48181">
        <ele>68.4</ele>
        <time>2024-12-19T13:36:44Z</time>
      </trkpt>
      <trkpt lat="47.92001" lon="-2.48183">
        <ele>68.2</ele>
        <time>2024-12-19T13:36:45Z</time>
      </trkpt>
      <trkpt lat="47.92002" lon="-2.48184">
        <ele>68</ele>
        <time>2024-12-19T13:36:46Z</time>
      </trkpt>
      <trkpt lat="47.92003" lon="-2.48186">
        <ele>67.9</ele>
        <time>2024-12-19T13:36:47Z</time>
      </trkpt>
      <trkpt lat="47.92004" lon="-2.48188">
        <ele>67.7</ele>
        <time>2024-12-19T13:36:48Z</time>
      </trkpt>
      <trkpt lat="47.92005" lon="-2.4819">
        <ele>67.5</ele>
        <time>2024-12-19T13:36:49Z</time>
      </trkpt>
      <trkpt lat="47.92005" lon="-2.48191">
        <ele>67.3</ele>
        <time>2024-12-19T13:36:50Z</time>
      </trkpt>
      <trkpt lat="47.92006" lon="-2.48193">
        <ele>67.2</ele>
        <time>2024-12-19T13:36:51Z</time>
      </trkpt>
      <trkpt lat="47.92007" lon="-2.48194">
        <ele>67</ele>
        <time>2024-12-19T13:36:52Z</time>
      </trkpt>
      <trkpt lat="47.92008" lon="-2.48195">
        <ele>67</ele>
        <time>2024-12-19T13:36:53Z</time>
      </trkpt>
      <trkpt lat="47.92009" lon="-2.48196">
        <ele>66.9</ele>
        <time>2024-12-19T13:36:54Z</time>
      </trkpt>
      <trkpt lat="47.9201" lon="-2.48198">
        <ele>66.8</ele>
        <time>2024-12-19T13:36:55Z</time>
      </trkpt>
      <trkpt lat="47.92011" lon="-2.48199">
        <ele>66.8</ele>
        <time>2024-12-19T13:36:56Z</time>
      </trkpt>
      <trkpt lat="47.92012" lon="-2.482">
        <ele>66.7</ele>
        <time>2024-12-19T13:36:57Z</time>
      </trkpt>
      <trkpt lat="47.92013" lon="-2.48202">
        <ele>66.6</ele>
        <time>2024-12-19T13:36:58Z</time>
      </trkpt>
      <trkpt lat="47.92015" lon="-2.48203">
        <ele>66.5</ele>
        <time>2024-12-19T13:36:59Z</time>
      </trkpt>
      <trkpt lat="47.92015" lon="-2.48204">
        <ele>66.5</ele>
        <time>2024-12-19T13:37:00Z</time>
      </trkpt>
      <trkpt lat="47.92016" lon="-2.48205">
        <ele>66.4</ele>
        <time>2024-12-19T13:37:01Z</time>
      </trkpt>
      <trkpt lat="47.92017" lon="-2.48206">
        <ele>66.3</ele>
        <time>2024-12-19T13:37:02Z</time>
      </trkpt>
      <trkpt lat="47.92018" lon="-2.48207">
        <ele>66.3</ele>
        <time>2024-12-19T13:37:03Z</time>
      </trkpt>
      <trkpt lat="47.92019" lon="-2.48208">
        <ele>66.2</ele>
        <time>2024-12-19T13:37:04Z</time>
      </trkpt>
      <trkpt lat="47.9202" lon="-2.48209">
        <ele>66.1</ele>
        <time>2024-12-19T13:37:05Z</time>
      </trkpt>
      <trkpt lat="47.92021" lon="-2.4821">
        <ele>66</ele>
        <time>2024-12-19T13:37:06Z</time>
      </trkpt>
      <trkpt lat="47.92021" lon="-2.48211">
        <ele>65.9</ele>
        <time>2024-12-19T13:37:07Z</time>
      </trkpt>
      <trkpt lat="47.92022" lon="-2.48212">
        <ele>65.9</ele>
        <time>2024-12-19T13:37:08Z</time>
      </trkpt>
      <trkpt lat="47.92023" lon="-2.48213">
        <ele>65.8</ele>
        <time>2024-12-19T13:37:09Z</time>
      </trkpt>
      <trkpt lat="47.92023" lon="-2.48214">
        <ele>65.7</ele>
        <time>2024-12-19T13:37:10Z</time>
      </trkpt>
      <trkpt lat="47.92024" lon="-2.48214">
        <ele>65.7</ele>
        <time>2024-12-19T13:37:11Z</time>
      </trkpt>
      <trkpt lat="47.92024" lon="-2.48215">
        <ele>65.6</ele>
        <time>2024-12-19T13:37:12Z</time>
      </trkpt>
      <trkpt lat="47.92025" lon="-2.48215">
        <ele>65.6</ele>
        <time>2024-12-19T13:37:13Z</time>
      </trkpt>
      <trkpt lat="47.92024" lon="-2.48215">
        <ele>65.7</ele>
        <time>2024-12-19T13:37:14Z</time>
      </trkpt>
      <trkpt lat="47.92024" lon="-2.48214">
        <ele>65.7</ele>
        <time>2024-12-19T13:37:15Z</time>
      </trkpt>
      <trkpt lat="47.92024" lon="-2.48215">
        <ele>65.6</ele>
        <time>2024-12-19T13:37:16Z</time>
      </trkpt>
      <trkpt lat="47.92024" lon="-2.48216">
        <ele>65.6</ele>
        <time>2024-12-19T13:37:17Z</time>
      </trkpt>
      <trkpt lat="47.92024" lon="-2.48217">
        <ele>65.5</ele>
        <time>2024-12-19T13:37:18Z</time>
      </trkpt>
      <trkpt lat="47.92025" lon="-2.48217">
        <ele>65.5</ele>
        <time>2024-12-19T13:37:19Z</time>
      </trkpt>
      <trkpt lat="47.92026" lon="-2.48217">
        <ele>65.4</ele>
        <time>2024-12-19T13:37:20Z</time>
      </trkpt>
      <trkpt lat="47.92027" lon="-2.48217">
        <ele>65.4</ele>
        <time>2024-12-19T13:37:21Z</time>
      </trkpt>
      <trkpt lat="47.92028" lon="-2.48216">
        <ele>65.5</ele>
        <time>2024-12-19T13:37:22Z</time>
      </trkpt>
      <trkpt lat="47.92029" lon="-2.48215">
        <ele>65.6</ele>
        <time>2024-12-19T13:37:23Z</time>
      </trkpt>
      <trkpt lat="47.92031" lon="-2.48214">
        <ele>65.7</ele>
        <time>2024-12-19T13:37:24Z</time>
      </trkpt>
      <trkpt lat="47.92032" lon="-2.48213">
        <ele>65.7</ele>
        <time>2024-12-19T13:37:25Z</time>
      </trkpt>
      <trkpt lat="47.92033" lon="-2.48213">
        <ele>65.8</ele>
        <time>2024-12-19T13:37:26Z</time>
      </trkpt>
      <trkpt lat="47.92035" lon="-2.48212">
        <ele>65.9</ele>
        <time>2024-12-19T13:37:27Z</time>
      </trkpt>
      <trkpt lat="47.92036" lon="-2.48212">
        <ele>65.9</ele>
        <time>2024-12-19T13:37:28Z</time>
      </trkpt>
      <trkpt lat="47.92037" lon="-2.48211">
        <ele>66</ele>
        <time>2024-12-19T13:37:29Z</time>
      </trkpt>
      <trkpt lat="47.92038" lon="-2.48211">
        <ele>66</ele>
        <time>2024-12-19T13:37:30Z</time>
      </trkpt>
      <trkpt lat="47.92039" lon="-2.48209">
        <ele>66.1</ele>
        <time>2024-12-19T13:37:31Z</time>
      </trkpt>
      <trkpt lat="47.9204" lon="-2.48208">
        <ele>66.2</ele>
        <time>2024-12-19T13:37:32Z</time>
      </trkpt>
      <trkpt lat="47.92041" lon="-2.48206">
        <ele>66.3</ele>
        <time>2024-12-19T13:37:33Z</time>
      </trkpt>
      <trkpt lat="47.92042" lon="-2.48205">
        <ele>66.4</ele>
        <time>2024-12-19T13:37:34Z</time>
      </trkpt>
      <trkpt lat="47.92043" lon="-2.48204">
        <ele>66.5</ele>
        <time>2024-12-19T13:37:35Z</time>
      </trkpt>
      <trkpt lat="47.92043" lon="-2.48203">
        <ele>66.6</ele>
        <time>2024-12-19T13:37:36Z</time>
      </trkpt>
      <trkpt lat="47.92044" lon="-2.48202">
        <ele>66.6</ele>
        <time>2024-12-19T13:37:37Z</time>
      </trkpt>
      <trkpt lat="47.92045" lon="-2.482">
        <ele>66.7</ele>
        <time>2024-12-19T13:37:38Z</time>
      </trkpt>
      <trkpt lat="47.92046" lon="-2.48199">
        <ele>66.8</ele>
        <time>2024-12-19T13:37:39Z</time>
      </trkpt>
      <trkpt lat="47.92047" lon="-2.48198">
        <ele>66.8</ele>
        <time>2024-12-19T13:37:40Z</time>
      </trkpt>
      <trkpt lat="47.92048" lon="-2.48197">
        <ele>66.9</ele>
        <time>2024-12-19T13:37:41Z</time>
      </trkpt>
      <trkpt lat="47.92049" lon="-2.48197">
        <ele>66.9</ele>
        <time>2024-12-19T13:37:42Z</time>
      </trkpt>
      <trkpt lat="47.9205" lon="-2.48196">
        <ele>66.9</ele>
        <time>2024-12-19T13:37:43Z</time>
      </trkpt>
      <trkpt lat="47.9205" lon="-2.48196">
        <ele>67</ele>
        <time>2024-12-19T13:37:44Z</time>
      </trkpt>
      <trkpt lat="47.92051" lon="-2.48195">
        <ele>67</ele>
        <time>2024-12-19T13:37:45Z</time>
      </trkpt>
      <trkpt lat="47.92052" lon="-2.48195">
        <ele>67</ele>
        <time>2024-12-19T13:37:46Z</time>
      </trkpt>
      <trkpt lat="47.92053" lon="-2.48196">
        <ele>67</ele>
        <time>2024-12-19T13:37:47Z</time>
      </trkpt>
      <trkpt lat="47.92054" lon="-2.48196">
        <ele>67</ele>
        <time>2024-12-19T13:37:48Z</time>
      </trkpt>
      <trkpt lat="47.92055" lon="-2.48195">
        <ele>67</ele>
        <time>2024-12-19T13:37:49Z</time>
      </trkpt>
      <trkpt lat="47.92056" lon="-2.48195">
        <ele>67</ele>
        <time>2024-12-19T13:37:50Z</time>
      </trkpt>
      <trkpt lat="47.92057" lon="-2.48195">
        <ele>67.1</ele>
        <time>2024-12-19T13:37:51Z</time>
      </trkpt>
      <trkpt lat="47.92058" lon="-2.48194">
        <ele>67.2</ele>
        <time>2024-12-19T13:37:52Z</time>
      </trkpt>
      <trkpt lat="47.92059" lon="-2.48193">
        <ele>67.3</ele>
        <time>2024-12-19T13:37:53Z</time>
      </trkpt>
      <trkpt lat="47.92059" lon="-2.48192">
        <ele>67.3</ele>
        <time>2024-12-19T13:37:54Z</time>
      </trkpt>
      <trkpt lat="47.92059" lon="-2.48192">
        <ele>67.3</ele>
        <time>2024-12-19T13:37:55Z</time>
      </trkpt>
      <trkpt lat="47.9206" lon="-2.48192">
        <ele>67.4</ele>
        <time>2024-12-19T13:37:56Z</time>
      </trkpt>
      <trkpt lat="47.9206" lon="-2.48192">
        <ele>67.4</ele>
        <time>2024-12-19T13:37:57Z</time>
      </trkpt>
      <trkpt lat="47.9206" lon="-2.48192">
        <ele>67.4</ele>
        <time>2024-12-19T13:37:58Z</time>
      </trkpt>
      <trkpt lat="47.9206" lon="-2.48191">
        <ele>67.4</ele>
        <time>2024-12-19T13:37:59Z</time>
      </trkpt>
      <trkpt lat="47.9206" lon="-2.48192">
        <ele>67.4</ele>
        <time>2024-12-19T13:38:00Z</time>
      </trkpt>
      <trkpt lat="47.9206" lon="-2.48192">
        <ele>67.4</ele>
        <time>2024-12-19T13:38:01Z</time>
      </trkpt>
      <trkpt lat="47.92061" lon="-2.48191">
        <ele>67.5</ele>
        <time>2024-12-19T13:38:02Z</time>
      </trkpt>
      <trkpt lat="47.92062" lon="-2.48191">
        <ele>67.5</ele>
        <time>2024-12-19T13:38:03Z</time>
      </trkpt>
      <trkpt lat="47.92062" lon="-2.4819">
        <ele>67.6</ele>
        <time>2024-12-19T13:38:04Z</time>
      </trkpt>
      <trkpt lat="47.92063" lon="-2.4819">
        <ele>67.6</ele>
        <time>2024-12-19T13:38:05Z</time>
      </trkpt>
      <trkpt lat="47.92064" lon="-2.48189">
        <ele>67.7</ele>
        <time>2024-12-19T13:38:06Z</time>
      </trkpt>
      <trkpt lat="47.92064" lon="-2.48188">
        <ele>67.8</ele>
        <time>2024-12-19T13:38:07Z</time>
      </trkpt>
      <trkpt lat="47.92065" lon="-2.48188">
        <ele>67.8</ele>
        <time>2024-12-19T13:38:08Z</time>
      </trkpt>
      <trkpt lat="47.92066" lon="-2.48187">
        <ele>67.9</ele>
        <time>2024-12-19T13:38:09Z</time>
      </trkpt>
      <trkpt lat="47.92067" lon="-2.48186">
        <ele>68</ele>
        <time>2024-12-19T13:38:10Z</time>
      </trkpt>
      <trkpt lat="47.92068" lon="-2.48186">
        <ele>68.1</ele>
        <time>2024-12-19T13:38:11Z</time>
      </trkpt>
      <trkpt lat="47.9207" lon="-2.48185">
        <ele>68.2</ele>
        <time>2024-12-19T13:38:12Z</time>
      </trkpt>
      <trkpt lat="47.92071" lon="-2.48184">
        <ele>68.2</ele>
        <time>2024-12-19T13:38:13Z</time>
      </trkpt>
      <trkpt lat="47.92071" lon="-2.48184">
        <ele>68.3</ele>
        <time>2024-12-19T13:38:14Z</time>
      </trkpt>
      <trkpt lat="47.92072" lon="-2.48183">
        <ele>68.4</ele>
        <time>2024-12-19T13:38:15Z</time>
      </trkpt>
      <trkpt lat="47.92074" lon="-2.48182">
        <ele>68.5</ele>
        <time>2024-12-19T13:38:16Z</time>
      </trkpt>
      <trkpt lat="47.92075" lon="-2.48181">
        <ele>68.5</ele>
        <time>2024-12-19T13:38:17Z</time>
      </trkpt>
      <trkpt lat="47.92076" lon="-2.4818">
        <ele>68.6</ele>
        <time>2024-12-19T13:38:18Z</time>
      </trkpt>
      <trkpt lat="47.92077" lon="-2.48179">
        <ele>68.6</ele>
        <time>2024-12-19T13:38:19Z</time>
      </trkpt>
      <trkpt lat="47.92078" lon="-2.48179">
        <ele>68.7</ele>
        <time>2024-12-19T13:38:20Z</time>
      </trkpt>
      <trkpt lat="47.92079" lon="-2.48178">
        <ele>68.8</ele>
        <time>2024-12-19T13:38:21Z</time>
      </trkpt>
      <trkpt lat="47.9208" lon="-2.48178">
        <ele>68.8</ele>
        <time>2024-12-19T13:38:22Z</time>
      </trkpt>
      <trkpt lat="47.92081" lon="-2.48177">
        <ele>68.9</ele>
        <time>2024-12-19T13:38:23Z</time>
      </trkpt>
      <trkpt lat="47.92082" lon="-2.48176">
        <ele>68.9</ele>
        <time>2024-12-19T13:38:24Z</time>
      </trkpt>
      <trkpt lat="47.92083" lon="-2.48174">
        <ele>69</ele>
        <time>2024-12-19T13:38:25Z</time>
      </trkpt>
      <trkpt lat="47.92084" lon="-2.48173">
        <ele>69</ele>
        <time>2024-12-19T13:38:26Z</time>
      </trkpt>
      <trkpt lat="47.92085" lon="-2.48172">
        <ele>69</ele>
        <time>2024-12-19T13:38:27Z</time>
      </trkpt>
      <trkpt lat="47.92086" lon="-2.48171">
        <ele>69.1</ele>
        <time>2024-12-19T13:38:28Z</time>
      </trkpt>
      <trkpt lat="47.92086" lon="-2.4817">
        <ele>69.1</ele>
        <time>2024-12-19T13:38:29Z</time>
      </trkpt>
      <trkpt lat="47.92087" lon="-2.48169">
        <ele>69.1</ele>
        <time>2024-12-19T13:38:30Z</time>
      </trkpt>
      <trkpt lat="47.92088" lon="-2.48168">
        <ele>69.2</ele>
        <time>2024-12-19T13:38:31Z</time>
      </trkpt>
      <trkpt lat="47.92089" lon="-2.48167">
        <ele>69.2</ele>
        <time>2024-12-19T13:38:32Z</time>
      </trkpt>
      <trkpt lat="47.9209" lon="-2.48165">
        <ele>69.3</ele>
        <time>2024-12-19T13:38:33Z</time>
      </trkpt>
      <trkpt lat="47.92091" lon="-2.48164">
        <ele>69.4</ele>
        <time>2024-12-19T13:38:34Z</time>
      </trkpt>
      <trkpt lat="47.92092" lon="-2.48163">
        <ele>69.4</ele>
        <time>2024-12-19T13:38:35Z</time>
      </trkpt>
      <trkpt lat="47.92093" lon="-2.48162">
        <ele>69.5</ele>
        <time>2024-12-19T13:38:36Z</time>
      </trkpt>
      <trkpt lat="47.92094" lon="-2.4816">
        <ele>69.6</ele>
        <time>2024-12-19T13:38:37Z</time>
      </trkpt>
      <trkpt lat="47.92095" lon="-2.48158">
        <ele>69.7</ele>
        <time>2024-12-19T13:38:38Z</time>
      </trkpt>
      <trkpt lat="47.92096" lon="-2.48157">
        <ele>69.8</ele>
        <time>2024-12-19T13:38:39Z</time>
      </trkpt>
      <trkpt lat="47.92097" lon="-2.48157">
        <ele>69.9</ele>
        <time>2024-12-19T13:38:40Z</time>
      </trkpt>
      <trkpt lat="47.92098" lon="-2.48156">
        <ele>69.9</ele>
        <time>2024-12-19T13:38:41Z</time>
      </trkpt>
      <trkpt lat="47.92098" lon="-2.48156">
        <ele>69.9</ele>
        <time>2024-12-19T13:38:42Z</time>
      </trkpt>
      <trkpt lat="47.92099" lon="-2.48155">
        <ele>70</ele>
        <time>2024-12-19T13:38:43Z</time>
      </trkpt>
      <trkpt lat="47.921" lon="-2.48154">
        <ele>70.1</ele>
        <time>2024-12-19T13:38:44Z</time>
      </trkpt>
      <trkpt lat="47.92101" lon="-2.48154">
        <ele>70.1</ele>
        <time>2024-12-19T13:38:45Z</time>
      </trkpt>
      <trkpt lat="47.92102" lon="-2.48154">
        <ele>70.1</ele>
        <time>2024-12-19T13:38:46Z</time>
      </trkpt>
      <trkpt lat="47.92103" lon="-2.48153">
        <ele>70.2</ele>
        <time>2024-12-19T13:38:47Z</time>
      </trkpt>
      <trkpt lat="47.92103" lon="-2.48153">
        <ele>70.2</ele>
        <time>2024-12-19T13:38:48Z</time>
      </trkpt>
      <trkpt lat="47.92104" lon="-2.48152">
        <ele>70.3</ele>
        <time>2024-12-19T13:38:49Z</time>
      </trkpt>
      <trkpt lat="47.92105" lon="-2.48151">
        <ele>70.3</ele>
        <time>2024-12-19T13:38:50Z</time>
      </trkpt>
      <trkpt lat="47.92106" lon="-2.48151">
        <ele>70.4</ele>
        <time>2024-12-19T13:38:51Z</time>
      </trkpt>
      <trkpt lat="47.92107" lon="-2.48149">
        <ele>70.5</ele>
        <time>2024-12-19T13:38:52Z</time>
      </trkpt>
      <trkpt lat="47.92108" lon="-2.48148">
        <ele>70.5</ele>
        <time>2024-12-19T13:38:53Z</time>
      </trkpt>
      <trkpt lat="47.92109" lon="-2.48147">
        <ele>70.6</ele>
        <time>2024-12-19T13:38:54Z</time>
      </trkpt>
      <trkpt lat="47.9211" lon="-2.48146">
        <ele>70.7</ele>
        <time>2024-12-19T13:38:55Z</time>
      </trkpt>
      <trkpt lat="47.92111" lon="-2.48145">
        <ele>70.8</ele>
        <time>2024-12-19T13:38:56Z</time>
      </trkpt>
      <trkpt lat="47.92112" lon="-2.48144">
        <ele>70.8</ele>
        <time>2024-12-19T13:38:57Z</time>
      </trkpt>
      <trkpt lat="47.92113" lon="-2.48143">
        <ele>70.8</ele>
        <time>2024-12-19T13:38:58Z</time>
      </trkpt>
      <trkpt lat="47.92114" lon="-2.48143">
        <ele>70.7</ele>
        <time>2024-12-19T13:38:59Z</time>
      </trkpt>
      <trkpt lat="47.92115" lon="-2.48142">
        <ele>70.7</ele>
        <time>2024-12-19T13:39:00Z</time>
      </trkpt>
      <trkpt lat="47.92116" lon="-2.48141">
        <ele>70.7</ele>
        <time>2024-12-19T13:39:01Z</time>
      </trkpt>
      <trkpt lat="47.92117" lon="-2.4814">
        <ele>70.7</ele>
        <time>2024-12-19T13:39:02Z</time>
      </trkpt>
      <trkpt lat="47.92119" lon="-2.48138">
        <ele>70.8</ele>
        <time>2024-12-19T13:39:03Z</time>
      </trkpt>
      <trkpt lat="47.9212" lon="-2.48137">
        <ele>70.8</ele>
        <time>2024-12-19T13:39:04Z</time>
      </trkpt>
      <trkpt lat="47.92121" lon="-2.48136">
        <ele>70.8</ele>
        <time>2024-12-19T13:39:05Z</time>
      </trkpt>
      <trkpt lat="47.92123" lon="-2.48136">
        <ele>70.7</ele>
        <time>2024-12-19T13:39:06Z</time>
      </trkpt>
      <trkpt lat="47.92124" lon="-2.48136">
        <ele>70.7</ele>
        <time>2024-12-19T13:39:07Z</time>
      </trkpt>
      <trkpt lat="47.92125" lon="-2.48136">
        <ele>70.7</ele>
        <time>2024-12-19T13:39:08Z</time>
      </trkpt>
      <trkpt lat="47.92126" lon="-2.48135">
        <ele>70.7</ele>
        <time>2024-12-19T13:39:09Z</time>
      </trkpt>
      <trkpt lat="47.92128" lon="-2.48135">
        <ele>70.7</ele>
        <time>2024-12-19T13:39:10Z</time>
      </trkpt>
      <trkpt lat="47.92129" lon="-2.48134">
        <ele>70.7</ele>
        <time>2024-12-19T13:39:11Z</time>
      </trkpt>
      <trkpt lat="47.9213" lon="-2.48133">
        <ele>70.7</ele>
        <time>2024-12-19T13:39:12Z</time>
      </trkpt>
      <trkpt lat="47.92132" lon="-2.48132">
        <ele>70.7</ele>
        <time>2024-12-19T13:39:13Z</time>
      </trkpt>
      <trkpt lat="47.92133" lon="-2.48131">
        <ele>70.7</ele>
        <time>2024-12-19T13:39:14Z</time>
      </trkpt>
      <trkpt lat="47.92134" lon="-2.48131">
        <ele>70.7</ele>
        <time>2024-12-19T13:39:15Z</time>
      </trkpt>
      <trkpt lat="47.92136" lon="-2.4813">
        <ele>70.7</ele>
        <time>2024-12-19T13:39:16Z</time>
      </trkpt>
      <trkpt lat="47.92137" lon="-2.48129">
        <ele>70.7</ele>
        <time>2024-12-19T13:39:17Z</time>
      </trkpt>
      <trkpt lat="47.92138" lon="-2.48129">
        <ele>70.8</ele>
        <time>2024-12-19T13:39:18Z</time>
      </trkpt>
      <trkpt lat="47.92139" lon="-2.48128">
        <ele>70.8</ele>
        <time>2024-12-19T13:39:19Z</time>
      </trkpt>
      <trkpt lat="47.9214" lon="-2.48127">
        <ele>70.9</ele>
        <time>2024-12-19T13:39:20Z</time>
      </trkpt>
      <trkpt lat="47.92141" lon="-2.48126">
        <ele>70.9</ele>
        <time>2024-12-19T13:39:21Z</time>
      </trkpt>
      <trkpt lat="47.92142" lon="-2.48125">
        <ele>71</ele>
        <time>2024-12-19T13:39:22Z</time>
      </trkpt>
      <trkpt lat="47.92144" lon="-2.48124">
        <ele>71.1</ele>
        <time>2024-12-19T13:39:23Z</time>
      </trkpt>
      <trkpt lat="47.92145" lon="-2.48122">
        <ele>71.2</ele>
        <time>2024-12-19T13:39:24Z</time>
      </trkpt>
      <trkpt lat="47.92146" lon="-2.48121">
        <ele>71.3</ele>
        <time>2024-12-19T13:39:25Z</time>
      </trkpt>
      <trkpt lat="47.92147" lon="-2.48119">
        <ele>71.5</ele>
        <time>2024-12-19T13:39:26Z</time>
      </trkpt>
      <trkpt lat="47.92148" lon="-2.48117">
        <ele>71.6</ele>
        <time>2024-12-19T13:39:27Z</time>
      </trkpt>
      <trkpt lat="47.92149" lon="-2.48115">
        <ele>71.7</ele>
        <time>2024-12-19T13:39:28Z</time>
      </trkpt>
      <trkpt lat="47.9215" lon="-2.48114">
        <ele>71.8</ele>
        <time>2024-12-19T13:39:29Z</time>
      </trkpt>
      <trkpt lat="47.92151" lon="-2.48113">
        <ele>71.9</ele>
        <time>2024-12-19T13:39:30Z</time>
      </trkpt>
      <trkpt lat="47.92152" lon="-2.48113">
        <ele>71.9</ele>
        <time>2024-12-19T13:39:31Z</time>
      </trkpt>
      <trkpt lat="47.92153" lon="-2.48112">
        <ele>72</ele>
        <time>2024-12-19T13:39:32Z</time>
      </trkpt>
      <trkpt lat="47.92154" lon="-2.48111">
        <ele>72</ele>
        <time>2024-12-19T13:39:33Z</time>
      </trkpt>
      <trkpt lat="47.92155" lon="-2.4811">
        <ele>72</ele>
        <time>2024-12-19T13:39:34Z</time>
      </trkpt>
      <trkpt lat="47.92155" lon="-2.48109">
        <ele>72.1</ele>
        <time>2024-12-19T13:39:35Z</time>
      </trkpt>
      <trkpt lat="47.92156" lon="-2.48108">
        <ele>72.1</ele>
        <time>2024-12-19T13:39:36Z</time>
      </trkpt>
      <trkpt lat="47.92157" lon="-2.48107">
        <ele>72.2</ele>
        <time>2024-12-19T13:39:37Z</time>
      </trkpt>
      <trkpt lat="47.92157" lon="-2.48106">
        <ele>72.2</ele>
        <time>2024-12-19T13:39:38Z</time>
      </trkpt>
      <trkpt lat="47.92158" lon="-2.48105">
        <ele>72.2</ele>
        <time>2024-12-19T13:39:39Z</time>
      </trkpt>
      <trkpt lat="47.92159" lon="-2.48104">
        <ele>72.3</ele>
        <time>2024-12-19T13:39:40Z</time>
      </trkpt>
      <trkpt lat="47.9216" lon="-2.48104">
        <ele>72.3</ele>
        <time>2024-12-19T13:39:41Z</time>
      </trkpt>
      <trkpt lat="47.92161" lon="-2.48104">
        <ele>72.3</ele>
        <time>2024-12-19T13:39:42Z</time>
      </trkpt>
      <trkpt lat="47.92162" lon="-2.48104">
        <ele>72.3</ele>
        <time>2024-12-19T13:39:43Z</time>
      </trkpt>
      <trkpt lat="47.92163" lon="-2.48105">
        <ele>72.2</ele>
        <time>2024-12-19T13:39:44Z</time>
      </trkpt>
      <trkpt lat="47.92164" lon="-2.48105">
        <ele>72.2</ele>
        <time>2024-12-19T13:39:45Z</time>
      </trkpt>
      <trkpt lat="47.92165" lon="-2.48106">
        <ele>72.2</ele>
        <time>2024-12-19T13:39:46Z</time>
      </trkpt>
      <trkpt lat="47.92165" lon="-2.48106">
        <ele>72.2</ele>
        <time>2024-12-19T13:39:47Z</time>
      </trkpt>
      <trkpt lat="47.92165" lon="-2.48107">
        <ele>72.2</ele>
        <time>2024-12-19T13:39:48Z</time>
      </trkpt>
      <trkpt lat="47.92165" lon="-2.48107">
        <ele>72.2</ele>
        <time>2024-12-19T13:39:49Z</time>
      </trkpt>
      <trkpt lat="47.92165" lon="-2.48106">
        <ele>72.2</ele>
        <time>2024-12-19T13:39:50Z</time>
      </trkpt>
      <trkpt lat="47.92165" lon="-2.48107">
        <ele>72.2</ele>
        <time>2024-12-19T13:39:51Z</time>
      </trkpt>
      <trkpt lat="47.92165" lon="-2.48107">
        <ele>72.2</ele>
        <time>2024-12-19T13:39:52Z</time>
      </trkpt>
      <trkpt lat="47.92165" lon="-2.48107">
        <ele>72.2</ele>
        <time>2024-12-19T13:39:53Z</time>
      </trkpt>
      <trkpt lat="47.92165" lon="-2.48107">
        <ele>72.1</ele>
        <time>2024-12-19T13:39:54Z</time>
      </trkpt>
      <trkpt lat="47.92166" lon="-2.48108">
        <ele>72.1</ele>
        <time>2024-12-19T13:39:55Z</time>
      </trkpt>
      <trkpt lat="47.92166" lon="-2.48108">
        <ele>72.1</ele>
        <time>2024-12-19T13:39:56Z</time>
      </trkpt>
      <trkpt lat="47.92167" lon="-2.4811">
        <ele>72</ele>
        <time>2024-12-19T13:39:57Z</time>
      </trkpt>
      <trkpt lat="47.92168" lon="-2.48111">
        <ele>71.9</ele>
        <time>2024-12-19T13:39:58Z</time>
      </trkpt>
      <trkpt lat="47.92168" lon="-2.48114">
        <ele>71.7</ele>
        <time>2024-12-19T13:39:59Z</time>
      </trkpt>
      <trkpt lat="47.92169" lon="-2.48116">
        <ele>71.5</ele>
        <time>2024-12-19T13:40:00Z</time>
      </trkpt>
      <trkpt lat="47.92169" lon="-2.48118">
        <ele>71.3</ele>
        <time>2024-12-19T13:40:01Z</time>
      </trkpt>
      <trkpt lat="47.92169" lon="-2.4812">
        <ele>71.2</ele>
        <time>2024-12-19T13:40:02Z</time>
      </trkpt>
      <trkpt lat="47.92169" lon="-2.48122">
        <ele>71</ele>
        <time>2024-12-19T13:40:03Z</time>
      </trkpt>
      <trkpt lat="47.92169" lon="-2.48124">
        <ele>70.9</ele>
        <time>2024-12-19T13:40:04Z</time>
      </trkpt>
      <trkpt lat="47.92169" lon="-2.48126">
        <ele>70.8</ele>
        <time>2024-12-19T13:40:05Z</time>
      </trkpt>
      <trkpt lat="47.92169" lon="-2.48127">
        <ele>70.7</ele>
        <time>2024-12-19T13:40:06Z</time>
      </trkpt>
      <trkpt lat="47.92169" lon="-2.48128">
        <ele>70.6</ele>
        <time>2024-12-19T13:40:07Z</time>
      </trkpt>
      <trkpt lat="47.92169" lon="-2.48129">
        <ele>70.5</ele>
        <time>2024-12-19T13:40:08Z</time>
      </trkpt>
      <trkpt lat="47.92169" lon="-2.48129">
        <ele>70.5</ele>
        <time>2024-12-19T13:40:09Z</time>
      </trkpt>
      <trkpt lat="47.92169" lon="-2.48129">
        <ele>70.5</ele>
        <time>2024-12-19T13:40:10Z</time>
      </trkpt>
      <trkpt lat="47.92168" lon="-2.48129">
        <ele>70.6</ele>
        <time>2024-12-19T13:40:11Z</time>
      </trkpt>
      <trkpt lat="47.92168" lon="-2.48129">
        <ele>70.5</ele>
        <time>2024-12-19T13:40:12Z</time>
      </trkpt>
      <trkpt lat="47.92169" lon="-2.48129">
        <ele>70.5</ele>
        <time>2024-12-19T13:40:13Z</time>
      </trkpt>
      <trkpt lat="47.92169" lon="-2.48129">
        <ele>70.5</ele>
        <time>2024-12-19T13:40:14Z</time>
      </trkpt>
      <trkpt lat="47.92169" lon="-2.48129">
        <ele>70.5</ele>
        <time>2024-12-19T13:40:15Z</time>
      </trkpt>
      <trkpt lat="47.92169" lon="-2.48129">
        <ele>70.5</ele>
        <time>2024-12-19T13:40:16Z</time>
      </trkpt>
      <trkpt lat="47.92169" lon="-2.48129">
        <ele>70.5</ele>
        <time>2024-12-19T13:40:17Z</time>
      </trkpt>
      <trkpt lat="47.92169" lon="-2.48129">
        <ele>70.5</ele>
        <time>2024-12-19T13:40:18Z</time>
      </trkpt>
      <trkpt lat="47.9217" lon="-2.48131">
        <ele>70.3</ele>
        <time>2024-12-19T13:40:19Z</time>
      </trkpt>
      <trkpt lat="47.9217" lon="-2.48132">
        <ele>70.3</ele>
        <time>2024-12-19T13:40:20Z</time>
      </trkpt>
      <trkpt lat="47.9217" lon="-2.48132">
        <ele>70.2</ele>
        <time>2024-12-19T13:40:21Z</time>
      </trkpt>
      <trkpt lat="47.9217" lon="-2.48132">
        <ele>70.2</ele>
        <time>2024-12-19T13:40:22Z</time>
      </trkpt>
      <trkpt lat="47.9217" lon="-2.48132">
        <ele>70.2</ele>
        <time>2024-12-19T13:40:23Z</time>
      </trkpt>
      <trkpt lat="47.92171" lon="-2.48132">
        <ele>70.2</ele>
        <time>2024-12-19T13:40:24Z</time>
      </trkpt>
      <trkpt lat="47.92171" lon="-2.48132">
        <ele>70.2</ele>
        <time>2024-12-19T13:40:25Z</time>
      </trkpt>
      <trkpt lat="47.92171" lon="-2.48132">
        <ele>70.2</ele>
        <time>2024-12-19T13:40:26Z</time>
      </trkpt>
      <trkpt lat="47.92171" lon="-2.48132">
        <ele>70.1</ele>
        <time>2024-12-19T13:40:27Z</time>
      </trkpt>
      <trkpt lat="47.92171" lon="-2.48132">
        <ele>70.1</ele>
        <time>2024-12-19T13:40:28Z</time>
      </trkpt>
      <trkpt lat="47.92171" lon="-2.48132">
        <ele>70.1</ele>
        <time>2024-12-19T13:40:29Z</time>
      </trkpt>
      <trkpt lat="47.92172" lon="-2.48131">
        <ele>70.1</ele>
        <time>2024-12-19T13:40:30Z</time>
      </trkpt>
      <trkpt lat="47.92172" lon="-2.48131">
        <ele>70.1</ele>
        <time>2024-12-19T13:40:31Z</time>
      </trkpt>
      <trkpt lat="47.92172" lon="-2.48131">
        <ele>70.1</ele>
        <time>2024-12-19T13:40:32Z</time>
      </trkpt>
      <trkpt lat="47.92172" lon="-2.48131">
        <ele>70.1</ele>
        <time>2024-12-19T13:40:33Z</time>
      </trkpt>
      <trkpt lat="47.92172" lon="-2.48131">
        <ele>70.1</ele>
        <time>2024-12-19T13:40:34Z</time>
      </trkpt>
      <trkpt lat="47.92171" lon="-2.4813">
        <ele>70.3</ele>
        <time>2024-12-19T13:40:35Z</time>
      </trkpt>
      <trkpt lat="47.9217" lon="-2.48128">
        <ele>70.6</ele>
        <time>2024-12-19T13:40:36Z</time>
      </trkpt>
      <trkpt lat="47.92168" lon="-2.48126">
        <ele>70.8</ele>
        <time>2024-12-19T13:40:37Z</time>
      </trkpt>
      <trkpt lat="47.92168" lon="-2.48125">
        <ele>71</ele>
        <time>2024-12-19T13:40:38Z</time>
      </trkpt>
      <trkpt lat="47.92167" lon="-2.48124">
        <ele>71</ele>
        <time>2024-12-19T13:40:39Z</time>
      </trkpt>
      <trkpt lat="47.92167" lon="-2.48122">
        <ele>71.2</ele>
        <time>2024-12-19T13:40:40Z</time>
      </trkpt>
      <trkpt lat="47.92167" lon="-2.48121">
        <ele>71.3</ele>
        <time>2024-12-19T13:40:41Z</time>
      </trkpt>
      <trkpt lat="47.92167" lon="-2.48119">
        <ele>71.4</ele>
        <time>2024-12-19T13:40:42Z</time>
      </trkpt>
      <trkpt lat="47.92167" lon="-2.48118">
        <ele>71.5</ele>
        <time>2024-12-19T13:40:43Z</time>
      </trkpt>
      <trkpt lat="47.92167" lon="-2.48117">
        <ele>71.5</ele>
        <time>2024-12-19T13:40:44Z</time>
      </trkpt>
      <trkpt lat="47.92168" lon="-2.48118">
        <ele>71.4</ele>
        <time>2024-12-19T13:40:45Z</time>
      </trkpt>
      <trkpt lat="47.92168" lon="-2.48118">
        <ele>71.4</ele>
        <time>2024-12-19T13:40:46Z</time>
      </trkpt>
      <trkpt lat="47.92168" lon="-2.48117">
        <ele>71.4</ele>
        <time>2024-12-19T13:40:47Z</time>
      </trkpt>
      <trkpt lat="47.92168" lon="-2.48117">
        <ele>71.4</ele>
        <time>2024-12-19T13:40:48Z</time>
      </trkpt>
      <trkpt lat="47.92168" lon="-2.48117">
        <ele>71.5</ele>
        <time>2024-12-19T13:40:49Z</time>
      </trkpt>
      <trkpt lat="47.92167" lon="-2.48117">
        <ele>71.5</ele>
        <time>2024-12-19T13:40:50Z</time>
      </trkpt>
      <trkpt lat="47.92168" lon="-2.48117">
        <ele>71.5</ele>
        <time>2024-12-19T13:40:51Z</time>
      </trkpt>
      <trkpt lat="47.92168" lon="-2.48116">
        <ele>71.5</ele>
        <time>2024-12-19T13:40:52Z</time>
      </trkpt>
      <trkpt lat="47.92168" lon="-2.48116">
        <ele>71.6</ele>
        <time>2024-12-19T13:40:53Z</time>
      </trkpt>
      <trkpt lat="47.92167" lon="-2.48115">
        <ele>71.7</ele>
        <time>2024-12-19T13:40:54Z</time>
      </trkpt>
      <trkpt lat="47.92166" lon="-2.48114">
        <ele>71.8</ele>
        <time>2024-12-19T13:40:55Z</time>
      </trkpt>
      <trkpt lat="47.92165" lon="-2.48113">
        <ele>71.9</ele>
        <time>2024-12-19T13:40:56Z</time>
      </trkpt>
      <trkpt lat="47.92164" lon="-2.48112">
        <ele>71.9</ele>
        <time>2024-12-19T13:40:57Z</time>
      </trkpt>
      <trkpt lat="47.92163" lon="-2.48112">
        <ele>72</ele>
        <time>2024-12-19T13:40:58Z</time>
      </trkpt>
      <trkpt lat="47.92162" lon="-2.48111">
        <ele>72</ele>
        <time>2024-12-19T13:40:59Z</time>
      </trkpt>
      <trkpt lat="47.9216" lon="-2.48111">
        <ele>72</ele>
        <time>2024-12-19T13:41:00Z</time>
      </trkpt>
      <trkpt lat="47.92159" lon="-2.48111">
        <ele>72</ele>
        <time>2024-12-19T13:41:01Z</time>
      </trkpt>
      <trkpt lat="47.92158" lon="-2.48112">
        <ele>72</ele>
        <time>2024-12-19T13:41:02Z</time>
      </trkpt>
      <trkpt lat="47.92157" lon="-2.48112">
        <ele>71.9</ele>
        <time>2024-12-19T13:41:03Z</time>
      </trkpt>
      <trkpt lat="47.92156" lon="-2.48113">
        <ele>71.8</ele>
        <time>2024-12-19T13:41:04Z</time>
      </trkpt>
      <trkpt lat="47.92156" lon="-2.48115">
        <ele>71.8</ele>
        <time>2024-12-19T13:41:05Z</time>
      </trkpt>
      <trkpt lat="47.92155" lon="-2.48116">
        <ele>71.7</ele>
        <time>2024-12-19T13:41:06Z</time>
      </trkpt>
      <trkpt lat="47.92154" lon="-2.48117">
        <ele>71.6</ele>
        <time>2024-12-19T13:41:07Z</time>
      </trkpt>
      <trkpt lat="47.92153" lon="-2.48117">
        <ele>71.6</ele>
        <time>2024-12-19T13:41:08Z</time>
      </trkpt>
      <trkpt lat="47.92153" lon="-2.48118">
        <ele>71.5</ele>
        <time>2024-12-19T13:41:09Z</time>
      </trkpt>
      <trkpt lat="47.92152" lon="-2.48119">
        <ele>71.4</ele>
        <time>2024-12-19T13:41:10Z</time>
      </trkpt>
      <trkpt lat="47.92151" lon="-2.48121">
        <ele>71.3</ele>
        <time>2024-12-19T13:41:11Z</time>
      </trkpt>
      <trkpt lat="47.9215" lon="-2.48122">
        <ele>71.3</ele>
        <time>2024-12-19T13:41:12Z</time>
      </trkpt>
      <trkpt lat="47.92149" lon="-2.48122">
        <ele>71.2</ele>
        <time>2024-12-19T13:41:13Z</time>
      </trkpt>
      <trkpt lat="47.92148" lon="-2.48123">
        <ele>71.2</ele>
        <time>2024-12-19T13:41:14Z</time>
      </trkpt>
      <trkpt lat="47.92147" lon="-2.48123">
        <ele>71.1</ele>
        <time>2024-12-19T13:41:15Z</time>
      </trkpt>
      <trkpt lat="47.92147" lon="-2.48124">
        <ele>71.1</ele>
        <time>2024-12-19T13:41:16Z</time>
      </trkpt>
      <trkpt lat="47.92146" lon="-2.48124">
        <ele>71.1</ele>
        <time>2024-12-19T13:41:17Z</time>
      </trkpt>
      <trkpt lat="47.92145" lon="-2.48125">
        <ele>71</ele>
        <time>2024-12-19T13:41:18Z</time>
      </trkpt>
      <trkpt lat="47.92144" lon="-2.48125">
        <ele>71</ele>
        <time>2024-12-19T13:41:19Z</time>
      </trkpt>
      <trkpt lat="47.92143" lon="-2.48126">
        <ele>70.9</ele>
        <time>2024-12-19T13:41:20Z</time>
      </trkpt>
      <trkpt lat="47.92142" lon="-2.48127">
        <ele>70.9</ele>
        <time>2024-12-19T13:41:21Z</time>
      </trkpt>
      <trkpt lat="47.92141" lon="-2.48127">
        <ele>70.8</ele>
        <time>2024-12-19T13:41:22Z</time>
      </trkpt>
      <trkpt lat="47.9214" lon="-2.48129">
        <ele>70.7</ele>
        <time>2024-12-19T13:41:23Z</time>
      </trkpt>
      <trkpt lat="47.92139" lon="-2.4813">
        <ele>70.7</ele>
        <time>2024-12-19T13:41:24Z</time>
      </trkpt>
      <trkpt lat="47.92138" lon="-2.48131">
        <ele>70.6</ele>
        <time>2024-12-19T13:41:25Z</time>
      </trkpt>
      <trkpt lat="47.92137" lon="-2.48132">
        <ele>70.6</ele>
        <time>2024-12-19T13:41:26Z</time>
      </trkpt>
      <trkpt lat="47.92136" lon="-2.48132">
        <ele>70.6</ele>
        <time>2024-12-19T13:41:27Z</time>
      </trkpt>
      <trkpt lat="47.92134" lon="-2.48133">
        <ele>70.5</ele>
        <time>2024-12-19T13:41:28Z</time>
      </trkpt>
      <trkpt lat="47.92133" lon="-2.48134">
        <ele>70.5</ele>
        <time>2024-12-19T13:41:29Z</time>
      </trkpt>
      <trkpt lat="47.92133" lon="-2.48134">
        <ele>70.5</ele>
        <time>2024-12-19T13:41:30Z</time>
      </trkpt>
      <trkpt lat="47.92133" lon="-2.48134">
        <ele>70.5</ele>
        <time>2024-12-19T13:41:31Z</time>
      </trkpt>
      <trkpt lat="47.92133" lon="-2.48134">
        <ele>70.5</ele>
        <time>2024-12-19T13:41:32Z</time>
      </trkpt>
      <trkpt lat="47.92132" lon="-2.48135">
        <ele>70.5</ele>
        <time>2024-12-19T13:41:33Z</time>
      </trkpt>
      <trkpt lat="47.92131" lon="-2.48135">
        <ele>70.5</ele>
        <time>2024-12-19T13:41:34Z</time>
      </trkpt>
      <trkpt lat="47.9213" lon="-2.48136">
        <ele>70.5</ele>
        <time>2024-12-19T13:41:35Z</time>
      </trkpt>
      <trkpt lat="47.92128" lon="-2.48136">
        <ele>70.5</ele>
        <time>2024-12-19T13:41:36Z</time>
      </trkpt>
      <trkpt lat="47.92127" lon="-2.48137">
        <ele>70.5</ele>
        <time>2024-12-19T13:41:37Z</time>
      </trkpt>
      <trkpt lat="47.92126" lon="-2.48138">
        <ele>70.5</ele>
        <time>2024-12-19T13:41:38Z</time>
      </trkpt>
      <trkpt lat="47.92124" lon="-2.48139">
        <ele>70.5</ele>
        <time>2024-12-19T13:41:39Z</time>
      </trkpt>
      <trkpt lat="47.92123" lon="-2.48139">
        <ele>70.5</ele>
        <time>2024-12-19T13:41:40Z</time>
      </trkpt>
      <trkpt lat="47.92122" lon="-2.4814">
        <ele>70.5</ele>
        <time>2024-12-19T13:41:41Z</time>
      </trkpt>
      <trkpt lat="47.92121" lon="-2.48141">
        <ele>70.5</ele>
        <time>2024-12-19T13:41:42Z</time>
      </trkpt>
      <trkpt lat="47.92121" lon="-2.48142">
        <ele>70.5</ele>
        <time>2024-12-19T13:41:43Z</time>
      </trkpt>
      <trkpt lat="47.9212" lon="-2.48144">
        <ele>70.4</ele>
        <time>2024-12-19T13:41:44Z</time>
      </trkpt>
      <trkpt lat="47.9212" lon="-2.48145">
        <ele>70.4</ele>
        <time>2024-12-19T13:41:45Z</time>
      </trkpt>
      <trkpt lat="47.92119" lon="-2.48146">
        <ele>70.4</ele>
        <time>2024-12-19T13:41:46Z</time>
      </trkpt>
      <trkpt lat="47.92118" lon="-2.48147">
        <ele>70.4</ele>
        <time>2024-12-19T13:41:47Z</time>
      </trkpt>
      <trkpt lat="47.92117" lon="-2.48148">
        <ele>70.4</ele>
        <time>2024-12-19T13:41:48Z</time>
      </trkpt>
      <trkpt lat="47.92116" lon="-2.48149">
        <ele>70.4</ele>
        <time>2024-12-19T13:41:49Z</time>
      </trkpt>
      <trkpt lat="47.92114" lon="-2.4815">
        <ele>70.4</ele>
        <time>2024-12-19T13:41:50Z</time>
      </trkpt>
      <trkpt lat="47.92113" lon="-2.48151">
        <ele>70.5</ele>
        <time>2024-12-19T13:41:51Z</time>
      </trkpt>
      <trkpt lat="47.92112" lon="-2.48152">
        <ele>70.5</ele>
        <time>2024-12-19T13:41:52Z</time>
      </trkpt>
      <trkpt lat="47.92111" lon="-2.48153">
        <ele>70.5</ele>
        <time>2024-12-19T13:41:53Z</time>
      </trkpt>
      <trkpt lat="47.9211" lon="-2.48154">
        <ele>70.4</ele>
        <time>2024-12-19T13:41:54Z</time>
      </trkpt>
      <trkpt lat="47.92109" lon="-2.48155">
        <ele>70.3</ele>
        <time>2024-12-19T13:41:55Z</time>
      </trkpt>
      <trkpt lat="47.92108" lon="-2.48156">
        <ele>70.3</ele>
        <time>2024-12-19T13:41:56Z</time>
      </trkpt>
      <trkpt lat="47.92107" lon="-2.48156">
        <ele>70.2</ele>
        <time>2024-12-19T13:41:57Z</time>
      </trkpt>
      <trkpt lat="47.92105" lon="-2.48156">
        <ele>70.2</ele>
        <time>2024-12-19T13:41:58Z</time>
      </trkpt>
      <trkpt lat="47.92104" lon="-2.48157">
        <ele>70.1</ele>
        <time>2024-12-19T13:41:59Z</time>
      </trkpt>
      <trkpt lat="47.92103" lon="-2.48157">
        <ele>70</ele>
        <time>2024-12-19T13:42:00Z</time>
      </trkpt>
      <trkpt lat="47.92102" lon="-2.48158">
        <ele>70</ele>
        <time>2024-12-19T13:42:01Z</time>
      </trkpt>
      <trkpt lat="47.92101" lon="-2.48158">
        <ele>69.9</ele>
        <time>2024-12-19T13:42:02Z</time>
      </trkpt>
      <trkpt lat="47.921" lon="-2.48159">
        <ele>69.9</ele>
        <time>2024-12-19T13:42:03Z</time>
      </trkpt>
      <trkpt lat="47.921" lon="-2.4816">
        <ele>69.8</ele>
        <time>2024-12-19T13:42:04Z</time>
      </trkpt>
      <trkpt lat="47.92099" lon="-2.48161">
        <ele>69.8</ele>
        <time>2024-12-19T13:42:05Z</time>
      </trkpt>
      <trkpt lat="47.92098" lon="-2.48162">
        <ele>69.7</ele>
        <time>2024-12-19T13:42:06Z</time>
      </trkpt>
      <trkpt lat="47.92097" lon="-2.48162">
        <ele>69.6</ele>
        <time>2024-12-19T13:42:07Z</time>
      </trkpt>
      <trkpt lat="47.92096" lon="-2.48163">
        <ele>69.6</ele>
        <time>2024-12-19T13:42:08Z</time>
      </trkpt>
      <trkpt lat="47.92095" lon="-2.48164">
        <ele>69.5</ele>
        <time>2024-12-19T13:42:09Z</time>
      </trkpt>
      <trkpt lat="47.92093" lon="-2.48166">
        <ele>69.4</ele>
        <time>2024-12-19T13:42:10Z</time>
      </trkpt>
      <trkpt lat="47.92091" lon="-2.48167">
        <ele>69.3</ele>
        <time>2024-12-19T13:42:11Z</time>
      </trkpt>
      <trkpt lat="47.92089" lon="-2.48168">
        <ele>69.2</ele>
        <time>2024-12-19T13:42:12Z</time>
      </trkpt>
      <trkpt lat="47.92088" lon="-2.48168">
        <ele>69.1</ele>
        <time>2024-12-19T13:42:13Z</time>
      </trkpt>
      <trkpt lat="47.92087" lon="-2.48169">
        <ele>69.1</ele>
        <time>2024-12-19T13:42:14Z</time>
      </trkpt>
      <trkpt lat="47.92086" lon="-2.48169">
        <ele>69.1</ele>
        <time>2024-12-19T13:42:15Z</time>
      </trkpt>
      <trkpt lat="47.92085" lon="-2.48169">
        <ele>69</ele>
        <time>2024-12-19T13:42:16Z</time>
      </trkpt>
      <trkpt lat="47.92083" lon="-2.4817">
        <ele>69</ele>
        <time>2024-12-19T13:42:17Z</time>
      </trkpt>
      <trkpt lat="47.92082" lon="-2.48171">
        <ele>69</ele>
        <time>2024-12-19T13:42:18Z</time>
      </trkpt>
      <trkpt lat="47.92081" lon="-2.48172">
        <ele>68.9</ele>
        <time>2024-12-19T13:42:19Z</time>
      </trkpt>
      <trkpt lat="47.9208" lon="-2.48173">
        <ele>68.8</ele>
        <time>2024-12-19T13:42:20Z</time>
      </trkpt>
      <trkpt lat="47.92079" lon="-2.48174">
        <ele>68.8</ele>
        <time>2024-12-19T13:42:21Z</time>
      </trkpt>
      <trkpt lat="47.92078" lon="-2.48175">
        <ele>68.7</ele>
        <time>2024-12-19T13:42:22Z</time>
      </trkpt>
      <trkpt lat="47.92077" lon="-2.48175">
        <ele>68.7</ele>
        <time>2024-12-19T13:42:23Z</time>
      </trkpt>
      <trkpt lat="47.92076" lon="-2.48176">
        <ele>68.7</ele>
        <time>2024-12-19T13:42:24Z</time>
      </trkpt>
      <trkpt lat="47.92075" lon="-2.48176">
        <ele>68.6</ele>
        <time>2024-12-19T13:42:25Z</time>
      </trkpt>
      <trkpt lat="47.92074" lon="-2.48177">
        <ele>68.6</ele>
        <time>2024-12-19T13:42:26Z</time>
      </trkpt>
      <trkpt lat="47.92073" lon="-2.48178">
        <ele>68.5</ele>
        <time>2024-12-19T13:42:27Z</time>
      </trkpt>
      <trkpt lat="47.92072" lon="-2.4818">
        <ele>68.4</ele>
        <time>2024-12-19T13:42:28Z</time>
      </trkpt>
      <trkpt lat="47.9207" lon="-2.48182">
        <ele>68.3</ele>
        <time>2024-12-19T13:42:29Z</time>
      </trkpt>
      <trkpt lat="47.92069" lon="-2.48184">
        <ele>68.2</ele>
        <time>2024-12-19T13:42:30Z</time>
      </trkpt>
      <trkpt lat="47.92068" lon="-2.48185">
        <ele>68.1</ele>
        <time>2024-12-19T13:42:31Z</time>
      </trkpt>
      <trkpt lat="47.92067" lon="-2.48186">
        <ele>68</ele>
        <time>2024-12-19T13:42:32Z</time>
      </trkpt>
      <trkpt lat="47.92066" lon="-2.48187">
        <ele>67.9</ele>
        <time>2024-12-19T13:42:33Z</time>
      </trkpt>
      <trkpt lat="47.92065" lon="-2.48187">
        <ele>67.8</ele>
        <time>2024-12-19T13:42:34Z</time>
      </trkpt>
      <trkpt lat="47.92064" lon="-2.48188">
        <ele>67.7</ele>
        <time>2024-12-19T13:42:35Z</time>
      </trkpt>
      <trkpt lat="47.92063" lon="-2.48189">
        <ele>67.6</ele>
        <time>2024-12-19T13:42:36Z</time>
      </trkpt>
      <trkpt lat="47.92061" lon="-2.4819">
        <ele>67.5</ele>
        <time>2024-12-19T13:42:37Z</time>
      </trkpt>
      <trkpt lat="47.9206" lon="-2.48191">
        <ele>67.4</ele>
        <time>2024-12-19T13:42:38Z</time>
      </trkpt>
      <trkpt lat="47.9206" lon="-2.48193">
        <ele>67.4</ele>
        <time>2024-12-19T13:42:39Z</time>
      </trkpt>
      <trkpt lat="47.9206" lon="-2.48194">
        <ele>67.3</ele>
        <time>2024-12-19T13:42:40Z</time>
      </trkpt>
      <trkpt lat="47.9206" lon="-2.48195">
        <ele>67.3</ele>
        <time>2024-12-19T13:42:41Z</time>
      </trkpt>
      <trkpt lat="47.92061" lon="-2.48196">
        <ele>67.3</ele>
        <time>2024-12-19T13:42:42Z</time>
      </trkpt>
      <trkpt lat="47.9206" lon="-2.48196">
        <ele>67.3</ele>
        <time>2024-12-19T13:42:43Z</time>
      </trkpt>
      <trkpt lat="47.92059" lon="-2.48197">
        <ele>67.1</ele>
        <time>2024-12-19T13:42:44Z</time>
      </trkpt>
      <trkpt lat="47.92058" lon="-2.48198">
        <ele>67.1</ele>
        <time>2024-12-19T13:42:45Z</time>
      </trkpt>
      <trkpt lat="47.92057" lon="-2.48198">
        <ele>67</ele>
        <time>2024-12-19T13:42:46Z</time>
      </trkpt>
      <trkpt lat="47.92057" lon="-2.48198">
        <ele>66.9</ele>
        <time>2024-12-19T13:42:47Z</time>
      </trkpt>
      <trkpt lat="47.92056" lon="-2.48198">
        <ele>66.9</ele>
        <time>2024-12-19T13:42:48Z</time>
      </trkpt>
      <trkpt lat="47.92054" lon="-2.48198">
        <ele>66.9</ele>
        <time>2024-12-19T13:42:49Z</time>
      </trkpt>
      <trkpt lat="47.92053" lon="-2.48199">
        <ele>66.8</ele>
        <time>2024-12-19T13:42:50Z</time>
      </trkpt>
      <trkpt lat="47.92052" lon="-2.482">
        <ele>66.8</ele>
        <time>2024-12-19T13:42:51Z</time>
      </trkpt>
      <trkpt lat="47.9205" lon="-2.482">
        <ele>66.8</ele>
        <time>2024-12-19T13:42:52Z</time>
      </trkpt>
      <trkpt lat="47.92049" lon="-2.482">
        <ele>66.7</ele>
        <time>2024-12-19T13:42:53Z</time>
      </trkpt>
      <trkpt lat="47.92048" lon="-2.48201">
        <ele>66.7</ele>
        <time>2024-12-19T13:42:54Z</time>
      </trkpt>
      <trkpt lat="47.92047" lon="-2.48202">
        <ele>66.7</ele>
        <time>2024-12-19T13:42:55Z</time>
      </trkpt>
      <trkpt lat="47.92046" lon="-2.48203">
        <ele>66.6</ele>
        <time>2024-12-19T13:42:56Z</time>
      </trkpt>
      <trkpt lat="47.92045" lon="-2.48204">
        <ele>66.5</ele>
        <time>2024-12-19T13:42:57Z</time>
      </trkpt>
      <trkpt lat="47.92043" lon="-2.48205">
        <ele>66.4</ele>
        <time>2024-12-19T13:42:58Z</time>
      </trkpt>
      <trkpt lat="47.92042" lon="-2.48206">
        <ele>66.4</ele>
        <time>2024-12-19T13:42:59Z</time>
      </trkpt>
      <trkpt lat="47.92041" lon="-2.48207">
        <ele>66.3</ele>
        <time>2024-12-19T13:43:00Z</time>
      </trkpt>
      <trkpt lat="47.9204" lon="-2.48208">
        <ele>66.2</ele>
        <time>2024-12-19T13:43:01Z</time>
      </trkpt>
      <trkpt lat="47.92039" lon="-2.48209">
        <ele>66.2</ele>
        <time>2024-12-19T13:43:02Z</time>
      </trkpt>
      <trkpt lat="47.92039" lon="-2.4821">
        <ele>66.1</ele>
        <time>2024-12-19T13:43:03Z</time>
      </trkpt>
      <trkpt lat="47.92038" lon="-2.48211">
        <ele>66</ele>
        <time>2024-12-19T13:43:04Z</time>
      </trkpt>
      <trkpt lat="47.92037" lon="-2.48212">
        <ele>66</ele>
        <time>2024-12-19T13:43:05Z</time>
      </trkpt>
      <trkpt lat="47.92035" lon="-2.48213">
        <ele>65.9</ele>
        <time>2024-12-19T13:43:06Z</time>
      </trkpt>
      <trkpt lat="47.92034" lon="-2.48214">
        <ele>65.8</ele>
        <time>2024-12-19T13:43:07Z</time>
      </trkpt>
      <trkpt lat="47.92033" lon="-2.48215">
        <ele>65.7</ele>
        <time>2024-12-19T13:43:08Z</time>
      </trkpt>
      <trkpt lat="47.92032" lon="-2.48215">
        <ele>65.6</ele>
        <time>2024-12-19T13:43:09Z</time>
      </trkpt>
      <trkpt lat="47.92031" lon="-2.48216">
        <ele>65.5</ele>
        <time>2024-12-19T13:43:10Z</time>
      </trkpt>
      <trkpt lat="47.9203" lon="-2.48217">
        <ele>65.5</ele>
        <time>2024-12-19T13:43:11Z</time>
      </trkpt>
      <trkpt lat="47.92029" lon="-2.48217">
        <ele>65.4</ele>
        <time>2024-12-19T13:43:12Z</time>
      </trkpt>
      <trkpt lat="47.92029" lon="-2.48218">
        <ele>65.4</ele>
        <time>2024-12-19T13:43:13Z</time>
      </trkpt>
      <trkpt lat="47.92028" lon="-2.48219">
        <ele>65.3</ele>
        <time>2024-12-19T13:43:14Z</time>
      </trkpt>
      <trkpt lat="47.92028" lon="-2.4822">
        <ele>65.2</ele>
        <time>2024-12-19T13:43:15Z</time>
      </trkpt>
      <trkpt lat="47.92027" lon="-2.48222">
        <ele>65.1</ele>
        <time>2024-12-19T13:43:16Z</time>
      </trkpt>
      <trkpt lat="47.92026" lon="-2.48223">
        <ele>65</ele>
        <time>2024-12-19T13:43:17Z</time>
      </trkpt>
      <trkpt lat="47.92025" lon="-2.48224">
        <ele>64.9</ele>
        <time>2024-12-19T13:43:18Z</time>
      </trkpt>
      <trkpt lat="47.92024" lon="-2.48224">
        <ele>64.9</ele>
        <time>2024-12-19T13:43:19Z</time>
      </trkpt>
      <trkpt lat="47.92024" lon="-2.48225">
        <ele>64.9</ele>
        <time>2024-12-19T13:43:20Z</time>
      </trkpt>
      <trkpt lat="47.92024" lon="-2.48225">
        <ele>64.9</ele>
        <time>2024-12-19T13:43:21Z</time>
      </trkpt>
      <trkpt lat="47.92023" lon="-2.48225">
        <ele>64.9</ele>
        <time>2024-12-19T13:43:22Z</time>
      </trkpt>
      <trkpt lat="47.92023" lon="-2.48226">
        <ele>64.8</ele>
        <time>2024-12-19T13:43:23Z</time>
      </trkpt>
      <trkpt lat="47.92022" lon="-2.48227">
        <ele>64.8</ele>
        <time>2024-12-19T13:43:24Z</time>
      </trkpt>
      <trkpt lat="47.92021" lon="-2.48227">
        <ele>64.8</ele>
        <time>2024-12-19T13:43:25Z</time>
      </trkpt>
      <trkpt lat="47.9202" lon="-2.48228">
        <ele>64.7</ele>
        <time>2024-12-19T13:43:26Z</time>
      </trkpt>
      <trkpt lat="47.92019" lon="-2.48229">
        <ele>64.7</ele>
        <time>2024-12-19T13:43:27Z</time>
      </trkpt>
      <trkpt lat="47.92018" lon="-2.4823">
        <ele>64.6</ele>
        <time>2024-12-19T13:43:28Z</time>
      </trkpt>
      <trkpt lat="47.92017" lon="-2.48231">
        <ele>64.6</ele>
        <time>2024-12-19T13:43:29Z</time>
      </trkpt>
      <trkpt lat="47.92016" lon="-2.48232">
        <ele>64.5</ele>
        <time>2024-12-19T13:43:30Z</time>
      </trkpt>
      <trkpt lat="47.92015" lon="-2.48234">
        <ele>64.4</ele>
        <time>2024-12-19T13:43:31Z</time>
      </trkpt>
      <trkpt lat="47.92014" lon="-2.48235">
        <ele>64.3</ele>
        <time>2024-12-19T13:43:32Z</time>
      </trkpt>
      <trkpt lat="47.92013" lon="-2.48237">
        <ele>64.2</ele>
        <time>2024-12-19T13:43:33Z</time>
      </trkpt>
      <trkpt lat="47.92012" lon="-2.48238">
        <ele>64.1</ele>
        <time>2024-12-19T13:43:34Z</time>
      </trkpt>
      <trkpt lat="47.92011" lon="-2.4824">
        <ele>64.1</ele>
        <time>2024-12-19T13:43:35Z</time>
      </trkpt>
      <trkpt lat="47.9201" lon="-2.48241">
        <ele>64</ele>
        <time>2024-12-19T13:43:36Z</time>
      </trkpt>
      <trkpt lat="47.92008" lon="-2.48242">
        <ele>64</ele>
        <time>2024-12-19T13:43:37Z</time>
      </trkpt>
      <trkpt lat="47.92007" lon="-2.48243">
        <ele>64.1</ele>
        <time>2024-12-19T13:43:38Z</time>
      </trkpt>
      <trkpt lat="47.92006" lon="-2.48245">
        <ele>64</ele>
        <time>2024-12-19T13:43:39Z</time>
      </trkpt>
      <trkpt lat="47.92005" lon="-2.48246">
        <ele>64</ele>
        <time>2024-12-19T13:43:40Z</time>
      </trkpt>
      <trkpt lat="47.92003" lon="-2.48248">
        <ele>63.9</ele>
        <time>2024-12-19T13:43:41Z</time>
      </trkpt>
      <trkpt lat="47.92002" lon="-2.48249">
        <ele>63.9</ele>
        <time>2024-12-19T13:43:42Z</time>
      </trkpt>
      <trkpt lat="47.92001" lon="-2.4825">
        <ele>63.9</ele>
        <time>2024-12-19T13:43:43Z</time>
      </trkpt>
      <trkpt lat="47.92" lon="-2.48251">
        <ele>63.9</ele>
        <time>2024-12-19T13:43:44Z</time>
      </trkpt>
      <trkpt lat="47.92" lon="-2.48252">
        <ele>63.8</ele>
        <time>2024-12-19T13:43:45Z</time>
      </trkpt>
      <trkpt lat="47.92" lon="-2.48252">
        <ele>63.7</ele>
        <time>2024-12-19T13:43:46Z</time>
      </trkpt>
      <trkpt lat="47.91999" lon="-2.48253">
        <ele>63.6</ele>
        <time>2024-12-19T13:43:47Z</time>
      </trkpt>
      <trkpt lat="47.91999" lon="-2.48253">
        <ele>63.5</ele>
        <time>2024-12-19T13:43:48Z</time>
      </trkpt>
      <trkpt lat="47.91998" lon="-2.48254">
        <ele>63.4</ele>
        <time>2024-12-19T13:43:49Z</time>
      </trkpt>
      <trkpt lat="47.91997" lon="-2.48254">
        <ele>63.3</ele>
        <time>2024-12-19T13:43:50Z</time>
      </trkpt>
      <trkpt lat="47.91996" lon="-2.48255">
        <ele>63.2</ele>
        <time>2024-12-19T13:43:51Z</time>
      </trkpt>
      <trkpt lat="47.91995" lon="-2.48255">
        <ele>63.1</ele>
        <time>2024-12-19T13:43:52Z</time>
      </trkpt>
      <trkpt lat="47.91994" lon="-2.48256">
        <ele>62.9</ele>
        <time>2024-12-19T13:43:53Z</time>
      </trkpt>
      <trkpt lat="47.91993" lon="-2.48257">
        <ele>62.7</ele>
        <time>2024-12-19T13:43:54Z</time>
      </trkpt>
      <trkpt lat="47.91993" lon="-2.48258">
        <ele>62.6</ele>
        <time>2024-12-19T13:43:55Z</time>
      </trkpt>
      <trkpt lat="47.91991" lon="-2.4826">
        <ele>62.3</ele>
        <time>2024-12-19T13:43:56Z</time>
      </trkpt>
      <trkpt lat="47.9199" lon="-2.48261">
        <ele>62.1</ele>
        <time>2024-12-19T13:43:57Z</time>
      </trkpt>
      <trkpt lat="47.91989" lon="-2.48262">
        <ele>61.9</ele>
        <time>2024-12-19T13:43:58Z</time>
      </trkpt>
      <trkpt lat="47.91989" lon="-2.48264">
        <ele>61.7</ele>
        <time>2024-12-19T13:43:59Z</time>
      </trkpt>
      <trkpt lat="47.91988" lon="-2.48265">
        <ele>61.6</ele>
        <time>2024-12-19T13:44:00Z</time>
      </trkpt>
      <trkpt lat="47.91988" lon="-2.48266">
        <ele>61.4</ele>
        <time>2024-12-19T13:44:01Z</time>
      </trkpt>
      <trkpt lat="47.91987" lon="-2.48267">
        <ele>61.3</ele>
        <time>2024-12-19T13:44:02Z</time>
      </trkpt>
      <trkpt lat="47.91986" lon="-2.48267">
        <ele>61.2</ele>
        <time>2024-12-19T13:44:03Z</time>
      </trkpt>
      <trkpt lat="47.91985" lon="-2.48267">
        <ele>61.1</ele>
        <time>2024-12-19T13:44:04Z</time>
      </trkpt>
      <trkpt lat="47.91983" lon="-2.48267">
        <ele>60.9</ele>
        <time>2024-12-19T13:44:05Z</time>
      </trkpt>
      <trkpt lat="47.91981" lon="-2.48268">
        <ele>60.7</ele>
        <time>2024-12-19T13:44:06Z</time>
      </trkpt>
      <trkpt lat="47.9198" lon="-2.48269">
        <ele>60.5</ele>
        <time>2024-12-19T13:44:07Z</time>
      </trkpt>
      <trkpt lat="47.91979" lon="-2.4827">
        <ele>60.3</ele>
        <time>2024-12-19T13:44:08Z</time>
      </trkpt>
      <trkpt lat="47.91978" lon="-2.48271">
        <ele>60.1</ele>
        <time>2024-12-19T13:44:09Z</time>
      </trkpt>
      <trkpt lat="47.91977" lon="-2.48273">
        <ele>59.9</ele>
        <time>2024-12-19T13:44:10Z</time>
      </trkpt>
      <trkpt lat="47.91977" lon="-2.48274">
        <ele>59.7</ele>
        <time>2024-12-19T13:44:11Z</time>
      </trkpt>
      <trkpt lat="47.91976" lon="-2.48275">
        <ele>59.5</ele>
        <time>2024-12-19T13:44:12Z</time>
      </trkpt>
      <trkpt lat="47.91975" lon="-2.48277">
        <ele>59.3</ele>
        <time>2024-12-19T13:44:13Z</time>
      </trkpt>
      <trkpt lat="47.91974" lon="-2.48277">
        <ele>59.2</ele>
        <time>2024-12-19T13:44:14Z</time>
      </trkpt>
      <trkpt lat="47.91973" lon="-2.48278">
        <ele>59.1</ele>
        <time>2024-12-19T13:44:15Z</time>
      </trkpt>
      <trkpt lat="47.91972" lon="-2.48277">
        <ele>59</ele>
        <time>2024-12-19T13:44:16Z</time>
      </trkpt>
      <trkpt lat="47.91972" lon="-2.48277">
        <ele>59</ele>
        <time>2024-12-19T13:44:17Z</time>
      </trkpt>
      <trkpt lat="47.91971" lon="-2.48276">
        <ele>58.9</ele>
        <time>2024-12-19T13:44:18Z</time>
      </trkpt>
      <trkpt lat="47.91969" lon="-2.48276">
        <ele>58.7</ele>
        <time>2024-12-19T13:44:19Z</time>
      </trkpt>
      <trkpt lat="47.91968" lon="-2.48276">
        <ele>58.6</ele>
        <time>2024-12-19T13:44:20Z</time>
      </trkpt>
      <trkpt lat="47.91968" lon="-2.48276">
        <ele>58.5</ele>
        <time>2024-12-19T13:44:21Z</time>
      </trkpt>
      <trkpt lat="47.91967" lon="-2.48276">
        <ele>58.4</ele>
        <time>2024-12-19T13:44:22Z</time>
      </trkpt>
      <trkpt lat="47.91967" lon="-2.48277">
        <ele>58.3</ele>
        <time>2024-12-19T13:44:23Z</time>
      </trkpt>
      <trkpt lat="47.91966" lon="-2.48277">
        <ele>58.2</ele>
        <time>2024-12-19T13:44:24Z</time>
      </trkpt>
      <trkpt lat="47.91965" lon="-2.48277">
        <ele>58.1</ele>
        <time>2024-12-19T13:44:25Z</time>
      </trkpt>
      <trkpt lat="47.91964" lon="-2.48277">
        <ele>57.9</ele>
        <time>2024-12-19T13:44:26Z</time>
      </trkpt>
      <trkpt lat="47.91963" lon="-2.48277">
        <ele>57.8</ele>
        <time>2024-12-19T13:44:27Z</time>
      </trkpt>
      <trkpt lat="47.91962" lon="-2.48278">
        <ele>57.5</ele>
        <time>2024-12-19T13:44:28Z</time>
      </trkpt>
      <trkpt lat="47.91961" lon="-2.4828">
        <ele>57.1</ele>
        <time>2024-12-19T13:44:32Z</time>
      </trkpt>
      <trkpt lat="47.91961" lon="-2.4828">
        <ele>57.1</ele>
        <time>2024-12-19T13:44:33Z</time>
      </trkpt>
      <trkpt lat="47.91961" lon="-2.4828">
        <ele>57</ele>
        <time>2024-12-19T13:44:34Z</time>
      </trkpt>
      <trkpt lat="47.9196" lon="-2.48282">
        <ele>56.7</ele>
        <time>2024-12-19T13:44:35Z</time>
      </trkpt>
      <trkpt lat="47.91959" lon="-2.48284">
        <ele>56.4</ele>
        <time>2024-12-19T13:44:36Z</time>
      </trkpt>
      <trkpt lat="47.91959" lon="-2.48286">
        <ele>56</ele>
        <time>2024-12-19T13:44:37Z</time>
      </trkpt>
      <trkpt lat="47.91959" lon="-2.48288">
        <ele>55.8</ele>
        <time>2024-12-19T13:44:38Z</time>
      </trkpt>
      <trkpt lat="47.91958" lon="-2.4829">
        <ele>55.5</ele>
        <time>2024-12-19T13:44:39Z</time>
      </trkpt>
      <trkpt lat="47.91958" lon="-2.48291">
        <ele>55.3</ele>
        <time>2024-12-19T13:44:40Z</time>
      </trkpt>
      <trkpt lat="47.91958" lon="-2.48291">
        <ele>55.3</ele>
        <time>2024-12-19T13:44:41Z</time>
      </trkpt>
      <trkpt lat="47.91958" lon="-2.48292">
        <ele>55.1</ele>
        <time>2024-12-19T13:44:42Z</time>
      </trkpt>
      <trkpt lat="47.91957" lon="-2.48293">
        <ele>54.9</ele>
        <time>2024-12-19T13:44:43Z</time>
      </trkpt>
      <trkpt lat="47.91957" lon="-2.48294">
        <ele>54.7</ele>
        <time>2024-12-19T13:44:44Z</time>
      </trkpt>
      <trkpt lat="47.91956" lon="-2.48296">
        <ele>54.4</ele>
        <time>2024-12-19T13:44:45Z</time>
      </trkpt>
      <trkpt lat="47.91956" lon="-2.48296">
        <ele>54.3</ele>
        <time>2024-12-19T13:44:46Z</time>
      </trkpt>
      <trkpt lat="47.91956" lon="-2.48297">
        <ele>54.2</ele>
        <time>2024-12-19T13:44:47Z</time>
      </trkpt>
      <trkpt lat="47.91957" lon="-2.48298">
        <ele>54.2</ele>
        <time>2024-12-19T13:44:48Z</time>
      </trkpt>
      <trkpt lat="47.91957" lon="-2.48298">
        <ele>54.2</ele>
        <time>2024-12-19T13:44:49Z</time>
      </trkpt>
      <trkpt lat="47.91958" lon="-2.48298">
        <ele>54.3</ele>
        <time>2024-12-19T13:44:50Z</time>
      </trkpt>
      <trkpt lat="47.91958" lon="-2.48299">
        <ele>54.2</ele>
        <time>2024-12-19T13:44:51Z</time>
      </trkpt>
      <trkpt lat="47.91958" lon="-2.48299">
        <ele>54.3</ele>
        <time>2024-12-19T13:44:52Z</time>
      </trkpt>
      <trkpt lat="47.91958" lon="-2.48299">
        <ele>54.3</ele>
        <time>2024-12-19T13:44:53Z</time>
      </trkpt>
      <trkpt lat="47.91958" lon="-2.48299">
        <ele>54.3</ele>
        <time>2024-12-19T13:44:54Z</time>
      </trkpt>
      <trkpt lat="47.91958" lon="-2.483">
        <ele>54.2</ele>
        <time>2024-12-19T13:44:55Z</time>
      </trkpt>
      <trkpt lat="47.91958" lon="-2.48302">
        <ele>53.9</ele>
        <time>2024-12-19T13:44:56Z</time>
      </trkpt>
      <trkpt lat="47.91959" lon="-2.48305">
        <ele>53.6</ele>
        <time>2024-12-19T13:44:57Z</time>
      </trkpt>
      <trkpt lat="47.91959" lon="-2.48308">
        <ele>53.3</ele>
        <time>2024-12-19T13:44:58Z</time>
      </trkpt>
      <trkpt lat="47.9196" lon="-2.48311">
        <ele>53.1</ele>
        <time>2024-12-19T13:44:59Z</time>
      </trkpt>
      <trkpt lat="47.91959" lon="-2.48314">
        <ele>52.8</ele>
        <time>2024-12-19T13:45:00Z</time>
      </trkpt>
      <trkpt lat="47.91959" lon="-2.48317">
        <ele>52.4</ele>
        <time>2024-12-19T13:45:01Z</time>
      </trkpt>
      <trkpt lat="47.91959" lon="-2.4832">
        <ele>52.1</ele>
        <time>2024-12-19T13:45:02Z</time>
      </trkpt>
      <trkpt lat="47.91959" lon="-2.48323">
        <ele>51.8</ele>
        <time>2024-12-19T13:45:03Z</time>
      </trkpt>
      <trkpt lat="47.91959" lon="-2.48326">
        <ele>51.4</ele>
        <time>2024-12-19T13:45:04Z</time>
      </trkpt>
      <trkpt lat="47.91958" lon="-2.48329">
        <ele>51</ele>
        <time>2024-12-19T13:45:05Z</time>
      </trkpt>
      <trkpt lat="47.91958" lon="-2.48331">
        <ele>50.7</ele>
        <time>2024-12-19T13:45:06Z</time>
      </trkpt>
      <trkpt lat="47.91958" lon="-2.48333">
        <ele>50.4</ele>
        <time>2024-12-19T13:45:07Z</time>
      </trkpt>
      <trkpt lat="47.91958" lon="-2.48336">
        <ele>50.2</ele>
        <time>2024-12-19T13:45:08Z</time>
      </trkpt>
      <trkpt lat="47.91958" lon="-2.48338">
        <ele>50</ele>
        <time>2024-12-19T13:45:09Z</time>
      </trkpt>
      <trkpt lat="47.91958" lon="-2.4834">
        <ele>49.8</ele>
        <time>2024-12-19T13:45:10Z</time>
      </trkpt>
      <trkpt lat="47.91958" lon="-2.48342">
        <ele>49.6</ele>
        <time>2024-12-19T13:45:11Z</time>
      </trkpt>
      <trkpt lat="47.91958" lon="-2.48343">
        <ele>49.4</ele>
        <time>2024-12-19T13:45:12Z</time>
      </trkpt>
      <trkpt lat="47.91958" lon="-2.48345">
        <ele>49.2</ele>
        <time>2024-12-19T13:45:13Z</time>
      </trkpt>
      <trkpt lat="47.91959" lon="-2.48347">
        <ele>49.1</ele>
        <time>2024-12-19T13:45:14Z</time>
      </trkpt>
      <trkpt lat="47.91959" lon="-2.4835">
        <ele>48.9</ele>
        <time>2024-12-19T13:45:15Z</time>
      </trkpt>
      <trkpt lat="47.9196" lon="-2.48356">
        <ele>48.4</ele>
        <time>2024-12-19T13:45:16Z</time>
      </trkpt>
      <trkpt lat="47.91961" lon="-2.48359">
        <ele>48.1</ele>
        <time>2024-12-19T13:45:17Z</time>
      </trkpt>
      <trkpt lat="47.91961" lon="-2.48361">
        <ele>48</ele>
        <time>2024-12-19T13:45:18Z</time>
      </trkpt>
      <trkpt lat="47.91961" lon="-2.48363">
        <ele>47.8</ele>
        <time>2024-12-19T13:45:19Z</time>
      </trkpt>
      <trkpt lat="47.91961" lon="-2.48367">
        <ele>47.3</ele>
        <time>2024-12-19T13:45:20Z</time>
      </trkpt>
      <trkpt lat="47.91962" lon="-2.4837">
        <ele>47</ele>
        <time>2024-12-19T13:45:21Z</time>
      </trkpt>
      <trkpt lat="47.91962" lon="-2.48371">
        <ele>46.8</ele>
        <time>2024-12-19T13:45:22Z</time>
      </trkpt>
      <trkpt lat="47.91963" lon="-2.48373">
        <ele>46.7</ele>
        <time>2024-12-19T13:45:23Z</time>
      </trkpt>
      <trkpt lat="47.91963" lon="-2.48374">
        <ele>46.6</ele>
        <time>2024-12-19T13:45:24Z</time>
      </trkpt>
      <trkpt lat="47.91963" lon="-2.48377">
        <ele>46.2</ele>
        <time>2024-12-19T13:45:25Z</time>
      </trkpt>
      <trkpt lat="47.91963" lon="-2.48378">
        <ele>46</ele>
        <time>2024-12-19T13:45:26Z</time>
      </trkpt>
      <trkpt lat="47.91963" lon="-2.4838">
        <ele>45.8</ele>
        <time>2024-12-19T13:45:27Z</time>
      </trkpt>
      <trkpt lat="47.91962" lon="-2.4838">
        <ele>45.7</ele>
        <time>2024-12-19T13:45:28Z</time>
      </trkpt>
      <trkpt lat="47.91962" lon="-2.48381">
        <ele>45.5</ele>
        <time>2024-12-19T13:45:29Z</time>
      </trkpt>
      <trkpt lat="47.91962" lon="-2.48383">
        <ele>45.3</ele>
        <time>2024-12-19T13:45:30Z</time>
      </trkpt>
      <trkpt lat="47.91961" lon="-2.48384">
        <ele>44.9</ele>
        <time>2024-12-19T13:45:31Z</time>
      </trkpt>
      <trkpt lat="47.9196" lon="-2.48386">
        <ele>44.6</ele>
        <time>2024-12-19T13:45:32Z</time>
      </trkpt>
      <trkpt lat="47.9196" lon="-2.48388">
        <ele>44.3</ele>
        <time>2024-12-19T13:45:33Z</time>
      </trkpt>
      <trkpt lat="47.91959" lon="-2.48389">
        <ele>44.1</ele>
        <time>2024-12-19T13:45:34Z</time>
      </trkpt>
      <trkpt lat="47.91959" lon="-2.4839">
        <ele>43.9</ele>
        <time>2024-12-19T13:45:35Z</time>
      </trkpt>
      <trkpt lat="47.91959" lon="-2.48392">
        <ele>43.7</ele>
        <time>2024-12-19T13:45:36Z</time>
      </trkpt>
      <trkpt lat="47.91958" lon="-2.48394">
        <ele>43.4</ele>
        <time>2024-12-19T13:45:37Z</time>
      </trkpt>
      <trkpt lat="47.91958" lon="-2.48396">
        <ele>43.1</ele>
        <time>2024-12-19T13:45:38Z</time>
      </trkpt>
      <trkpt lat="47.91957" lon="-2.48397">
        <ele>42.8</ele>
        <time>2024-12-19T13:45:39Z</time>
      </trkpt>
      <trkpt lat="47.91957" lon="-2.48398">
        <ele>42.7</ele>
        <time>2024-12-19T13:45:40Z</time>
      </trkpt>
      <trkpt lat="47.91957" lon="-2.48399">
        <ele>42.5</ele>
        <time>2024-12-19T13:45:41Z</time>
      </trkpt>
      <trkpt lat="47.91956" lon="-2.484">
        <ele>42.3</ele>
        <time>2024-12-19T13:45:42Z</time>
      </trkpt>
      <trkpt lat="47.91956" lon="-2.48402">
        <ele>42.1</ele>
        <time>2024-12-19T13:45:43Z</time>
      </trkpt>
      <trkpt lat="47.91955" lon="-2.48404">
        <ele>41.7</ele>
        <time>2024-12-19T13:45:44Z</time>
      </trkpt>
      <trkpt lat="47.91955" lon="-2.48406">
        <ele>41.4</ele>
        <time>2024-12-19T13:45:45Z</time>
      </trkpt>
      <trkpt lat="47.91954" lon="-2.48408">
        <ele>41.1</ele>
        <time>2024-12-19T13:45:46Z</time>
      </trkpt>
      <trkpt lat="47.91954" lon="-2.4841">
        <ele>40.8</ele>
        <time>2024-12-19T13:45:47Z</time>
      </trkpt>
      <trkpt lat="47.91953" lon="-2.48411">
        <ele>40.7</ele>
        <time>2024-12-19T13:45:48Z</time>
      </trkpt>
      <trkpt lat="47.91953" lon="-2.48411">
        <ele>40.6</ele>
        <time>2024-12-19T13:45:49Z</time>
      </trkpt>
      <trkpt lat="47.91953" lon="-2.48413">
        <ele>40.3</ele>
        <time>2024-12-19T13:45:50Z</time>
      </trkpt>
      <trkpt lat="47.91952" lon="-2.48415">
        <ele>40</ele>
        <time>2024-12-19T13:45:51Z</time>
      </trkpt>
      <trkpt lat="47.91952" lon="-2.48417">
        <ele>39.7</ele>
        <time>2024-12-19T13:45:52Z</time>
      </trkpt>
      <trkpt lat="47.91951" lon="-2.48419">
        <ele>39.6</ele>
        <time>2024-12-19T13:45:53Z</time>
      </trkpt>
      <trkpt lat="47.91951" lon="-2.4842">
        <ele>39.5</ele>
        <time>2024-12-19T13:45:54Z</time>
      </trkpt>
      <trkpt lat="47.91951" lon="-2.48422">
        <ele>39.3</ele>
        <time>2024-12-19T13:45:55Z</time>
      </trkpt>
      <trkpt lat="47.9195" lon="-2.48424">
        <ele>39.1</ele>
        <time>2024-12-19T13:45:56Z</time>
      </trkpt>
      <trkpt lat="47.9195" lon="-2.48426">
        <ele>38.9</ele>
        <time>2024-12-19T13:45:57Z</time>
      </trkpt>
      <trkpt lat="47.91949" lon="-2.48428">
        <ele>38.7</ele>
        <time>2024-12-19T13:45:58Z</time>
      </trkpt>
      <trkpt lat="47.91949" lon="-2.4843">
        <ele>38.5</ele>
        <time>2024-12-19T13:45:59Z</time>
      </trkpt>
      <trkpt lat="47.91948" lon="-2.48432">
        <ele>38.3</ele>
        <time>2024-12-19T13:46:00Z</time>
      </trkpt>
      <trkpt lat="47.91947" lon="-2.48435">
        <ele>38</ele>
        <time>2024-12-19T13:46:01Z</time>
      </trkpt>
      <trkpt lat="47.91947" lon="-2.48437">
        <ele>37.8</ele>
        <time>2024-12-19T13:46:02Z</time>
      </trkpt>
      <trkpt lat="47.91946" lon="-2.48438">
        <ele>37.6</ele>
        <time>2024-12-19T13:46:03Z</time>
      </trkpt>
      <trkpt lat="47.91946" lon="-2.48439">
        <ele>37.5</ele>
        <time>2024-12-19T13:46:04Z</time>
      </trkpt>
      <trkpt lat="47.91945" lon="-2.4844">
        <ele>37.4</ele>
        <time>2024-12-19T13:46:05Z</time>
      </trkpt>
      <trkpt lat="47.91945" lon="-2.4844">
        <ele>37.3</ele>
        <time>2024-12-19T13:46:06Z</time>
      </trkpt>
      <trkpt lat="47.91944" lon="-2.48441">
        <ele>37.3</ele>
        <time>2024-12-19T13:46:07Z</time>
      </trkpt>
      <trkpt lat="47.91944" lon="-2.48443">
        <ele>37.1</ele>
        <time>2024-12-19T13:46:08Z</time>
      </trkpt>
      <trkpt lat="47.91944" lon="-2.48445">
        <ele>36.9</ele>
        <time>2024-12-19T13:46:09Z</time>
      </trkpt>
      <trkpt lat="47.91943" lon="-2.48447">
        <ele>36.7</ele>
        <time>2024-12-19T13:46:10Z</time>
      </trkpt>
      <trkpt lat="47.91942" lon="-2.4845">
        <ele>36.5</ele>
        <time>2024-12-19T13:46:11Z</time>
      </trkpt>
      <trkpt lat="47.91942" lon="-2.48453">
        <ele>36.2</ele>
        <time>2024-12-19T13:46:12Z</time>
      </trkpt>
      <trkpt lat="47.91941" lon="-2.48455">
        <ele>36</ele>
        <time>2024-12-19T13:46:13Z</time>
      </trkpt>
      <trkpt lat="47.91941" lon="-2.48457">
        <ele>35.8</ele>
        <time>2024-12-19T13:46:14Z</time>
      </trkpt>
      <trkpt lat="47.9194" lon="-2.48459">
        <ele>35.7</ele>
        <time>2024-12-19T13:46:15Z</time>
      </trkpt>
      <trkpt lat="47.91941" lon="-2.4846">
        <ele>35.6</ele>
        <time>2024-12-19T13:46:16Z</time>
      </trkpt>
      <trkpt lat="47.91941" lon="-2.4846">
        <ele>35.6</ele>
        <time>2024-12-19T13:46:17Z</time>
      </trkpt>
      <trkpt lat="47.9194" lon="-2.48461">
        <ele>35.5</ele>
        <time>2024-12-19T13:46:18Z</time>
      </trkpt>
      <trkpt lat="47.9194" lon="-2.48462">
        <ele>35.4</ele>
        <time>2024-12-19T13:46:19Z</time>
      </trkpt>
      <trkpt lat="47.91939" lon="-2.48464">
        <ele>35.2</ele>
        <time>2024-12-19T13:46:20Z</time>
      </trkpt>
      <trkpt lat="47.91939" lon="-2.48466">
        <ele>35</ele>
        <time>2024-12-19T13:46:21Z</time>
      </trkpt>
      <trkpt lat="47.91939" lon="-2.48467">
        <ele>34.9</ele>
        <time>2024-12-19T13:46:22Z</time>
      </trkpt>
      <trkpt lat="47.91939" lon="-2.48468">
        <ele>34.9</ele>
        <time>2024-12-19T13:46:23Z</time>
      </trkpt>
      <trkpt lat="47.91938" lon="-2.4847">
        <ele>34.7</ele>
        <time>2024-12-19T13:46:24Z</time>
      </trkpt>
      <trkpt lat="47.91938" lon="-2.48471">
        <ele>34.6</ele>
        <time>2024-12-19T13:46:25Z</time>
      </trkpt>
      <trkpt lat="47.91938" lon="-2.48473">
        <ele>34.4</ele>
        <time>2024-12-19T13:46:26Z</time>
      </trkpt>
      <trkpt lat="47.91937" lon="-2.48475">
        <ele>34.3</ele>
        <time>2024-12-19T13:46:27Z</time>
      </trkpt>
      <trkpt lat="47.91937" lon="-2.48477">
        <ele>34.1</ele>
        <time>2024-12-19T13:46:28Z</time>
      </trkpt>
      <trkpt lat="47.91936" lon="-2.48479">
        <ele>33.9</ele>
        <time>2024-12-19T13:46:29Z</time>
      </trkpt>
      <trkpt lat="47.91935" lon="-2.4848">
        <ele>33.8</ele>
        <time>2024-12-19T13:46:30Z</time>
      </trkpt>
      <trkpt lat="47.91935" lon="-2.48482">
        <ele>33.6</ele>
        <time>2024-12-19T13:46:31Z</time>
      </trkpt>
      <trkpt lat="47.91934" lon="-2.48483">
        <ele>33.5</ele>
        <time>2024-12-19T13:46:32Z</time>
      </trkpt>
      <trkpt lat="47.91934" lon="-2.48483">
        <ele>33.5</ele>
        <time>2024-12-19T13:46:33Z</time>
      </trkpt>
      <trkpt lat="47.91934" lon="-2.48483">
        <ele>33.5</ele>
        <time>2024-12-19T13:46:34Z</time>
      </trkpt>
      <trkpt lat="47.91934" lon="-2.48484">
        <ele>33.4</ele>
        <time>2024-12-19T13:46:35Z</time>
      </trkpt>
      <trkpt lat="47.91933" lon="-2.48485">
        <ele>33.3</ele>
        <time>2024-12-19T13:46:36Z</time>
      </trkpt>
      <trkpt lat="47.91933" lon="-2.48486">
        <ele>33.1</ele>
        <time>2024-12-19T13:46:37Z</time>
      </trkpt>
      <trkpt lat="47.91932" lon="-2.48489">
        <ele>32.9</ele>
        <time>2024-12-19T13:46:38Z</time>
      </trkpt>
      <trkpt lat="47.91931" lon="-2.48491">
        <ele>32.7</ele>
        <time>2024-12-19T13:46:39Z</time>
      </trkpt>
      <trkpt lat="47.9193" lon="-2.48492">
        <ele>32.6</ele>
        <time>2024-12-19T13:46:40Z</time>
      </trkpt>
      <trkpt lat="47.9193" lon="-2.48494">
        <ele>32.4</ele>
        <time>2024-12-19T13:46:41Z</time>
      </trkpt>
      <trkpt lat="47.91929" lon="-2.48495">
        <ele>32.3</ele>
        <time>2024-12-19T13:46:42Z</time>
      </trkpt>
      <trkpt lat="47.91929" lon="-2.48496">
        <ele>32.2</ele>
        <time>2024-12-19T13:46:43Z</time>
      </trkpt>
      <trkpt lat="47.91928" lon="-2.48497">
        <ele>32.1</ele>
        <time>2024-12-19T13:46:44Z</time>
      </trkpt>
      <trkpt lat="47.91928" lon="-2.48498">
        <ele>31.9</ele>
        <time>2024-12-19T13:46:45Z</time>
      </trkpt>
      <trkpt lat="47.91927" lon="-2.485">
        <ele>31.7</ele>
        <time>2024-12-19T13:46:46Z</time>
      </trkpt>
      <trkpt lat="47.91926" lon="-2.48501">
        <ele>31.6</ele>
        <time>2024-12-19T13:46:47Z</time>
      </trkpt>
      <trkpt lat="47.91925" lon="-2.48502">
        <ele>31.5</ele>
        <time>2024-12-19T13:46:48Z</time>
      </trkpt>
      <trkpt lat="47.91924" lon="-2.48504">
        <ele>31.3</ele>
        <time>2024-12-19T13:46:49Z</time>
      </trkpt>
      <trkpt lat="47.91923" lon="-2.48505">
        <ele>31.2</ele>
        <time>2024-12-19T13:46:50Z</time>
      </trkpt>
      <trkpt lat="47.91923" lon="-2.48507">
        <ele>31</ele>
        <time>2024-12-19T13:46:51Z</time>
      </trkpt>
      <trkpt lat="47.91923" lon="-2.48508">
        <ele>30.9</ele>
        <time>2024-12-19T13:46:52Z</time>
      </trkpt>
      <trkpt lat="47.91924" lon="-2.4851">
        <ele>30.8</ele>
        <time>2024-12-19T13:46:53Z</time>
      </trkpt>
      <trkpt lat="47.91924" lon="-2.48512">
        <ele>30.8</ele>
        <time>2024-12-19T13:46:54Z</time>
      </trkpt>
      <trkpt lat="47.91925" lon="-2.48514">
        <ele>30.8</ele>
        <time>2024-12-19T13:46:55Z</time>
      </trkpt>
      <trkpt lat="47.91926" lon="-2.48515">
        <ele>30.8</ele>
        <time>2024-12-19T13:46:56Z</time>
      </trkpt>
      <trkpt lat="47.91927" lon="-2.48517">
        <ele>30.8</ele>
        <time>2024-12-19T13:46:57Z</time>
      </trkpt>
      <trkpt lat="47.91929" lon="-2.48518">
        <ele>30.8</ele>
        <time>2024-12-19T13:46:58Z</time>
      </trkpt>
      <trkpt lat="47.9193" lon="-2.48519">
        <ele>30.9</ele>
        <time>2024-12-19T13:46:59Z</time>
      </trkpt>
      <trkpt lat="47.9193" lon="-2.4852">
        <ele>30.9</ele>
        <time>2024-12-19T13:47:00Z</time>
      </trkpt>
      <trkpt lat="47.91931" lon="-2.48521">
        <ele>30.9</ele>
        <time>2024-12-19T13:47:01Z</time>
      </trkpt>
      <trkpt lat="47.91931" lon="-2.48521">
        <ele>30.9</ele>
        <time>2024-12-19T13:47:02Z</time>
      </trkpt>
      <trkpt lat="47.91932" lon="-2.48522">
        <ele>31</ele>
        <time>2024-12-19T13:47:03Z</time>
      </trkpt>
      <trkpt lat="47.91933" lon="-2.48523">
        <ele>31</ele>
        <time>2024-12-19T13:47:04Z</time>
      </trkpt>
      <trkpt lat="47.91934" lon="-2.48524">
        <ele>31</ele>
        <time>2024-12-19T13:47:05Z</time>
      </trkpt>
      <trkpt lat="47.91934" lon="-2.48524">
        <ele>31.1</ele>
        <time>2024-12-19T13:47:06Z</time>
      </trkpt>
      <trkpt lat="47.91935" lon="-2.48525">
        <ele>31.1</ele>
        <time>2024-12-19T13:47:07Z</time>
      </trkpt>
      <trkpt lat="47.91935" lon="-2.48526">
        <ele>31.1</ele>
        <time>2024-12-19T13:47:08Z</time>
      </trkpt>
      <trkpt lat="47.91936" lon="-2.48527">
        <ele>31.1</ele>
        <time>2024-12-19T13:47:09Z</time>
      </trkpt>
      <trkpt lat="47.91936" lon="-2.4853">
        <ele>31</ele>
        <time>2024-12-19T13:47:10Z</time>
      </trkpt>
      <trkpt lat="47.91937" lon="-2.48531">
        <ele>30.9</ele>
        <time>2024-12-19T13:47:11Z</time>
      </trkpt>
      <trkpt lat="47.91938" lon="-2.48533">
        <ele>30.8</ele>
        <time>2024-12-19T13:47:12Z</time>
      </trkpt>
      <trkpt lat="47.91939" lon="-2.48535">
        <ele>30.8</ele>
        <time>2024-12-19T13:47:13Z</time>
      </trkpt>
      <trkpt lat="47.91941" lon="-2.48536">
        <ele>30.7</ele>
        <time>2024-12-19T13:47:14Z</time>
      </trkpt>
      <trkpt lat="47.91942" lon="-2.48538">
        <ele>30.6</ele>
        <time>2024-12-19T13:47:15Z</time>
      </trkpt>
      <trkpt lat="47.91943" lon="-2.4854">
        <ele>30.6</ele>
        <time>2024-12-19T13:47:16Z</time>
      </trkpt>
      <trkpt lat="47.91945" lon="-2.48542">
        <ele>30.6</ele>
        <time>2024-12-19T13:47:17Z</time>
      </trkpt>
      <trkpt lat="47.91946" lon="-2.48543">
        <ele>30.6</ele>
        <time>2024-12-19T13:47:18Z</time>
      </trkpt>
      <trkpt lat="47.91947" lon="-2.48544">
        <ele>30.6</ele>
        <time>2024-12-19T13:47:19Z</time>
      </trkpt>
      <trkpt lat="47.91947" lon="-2.48546">
        <ele>30.5</ele>
        <time>2024-12-19T13:47:20Z</time>
      </trkpt>
      <trkpt lat="47.91948" lon="-2.48547">
        <ele>30.4</ele>
        <time>2024-12-19T13:47:21Z</time>
      </trkpt>
      <trkpt lat="47.91948" lon="-2.48549">
        <ele>30.3</ele>
        <time>2024-12-19T13:47:22Z</time>
      </trkpt>
      <trkpt lat="47.91949" lon="-2.48551">
        <ele>30.2</ele>
        <time>2024-12-19T13:47:23Z</time>
      </trkpt>
      <trkpt lat="47.9195" lon="-2.48552">
        <ele>30.1</ele>
        <time>2024-12-19T13:47:24Z</time>
      </trkpt>
      <trkpt lat="47.9195" lon="-2.48553">
        <ele>30.1</ele>
        <time>2024-12-19T13:47:25Z</time>
      </trkpt>
      <trkpt lat="47.9195" lon="-2.48554">
        <ele>30</ele>
        <time>2024-12-19T13:47:26Z</time>
      </trkpt>
      <trkpt lat="47.91951" lon="-2.48555">
        <ele>30.1</ele>
        <time>2024-12-19T13:47:27Z</time>
      </trkpt>
      <trkpt lat="47.91952" lon="-2.48556">
        <ele>30.1</ele>
        <time>2024-12-19T13:47:28Z</time>
      </trkpt>
      <trkpt lat="47.91954" lon="-2.48557">
        <ele>30.2</ele>
        <time>2024-12-19T13:47:29Z</time>
      </trkpt>
      <trkpt lat="47.91955" lon="-2.48559">
        <ele>30.3</ele>
        <time>2024-12-19T13:47:30Z</time>
      </trkpt>
      <trkpt lat="47.91956" lon="-2.4856">
        <ele>30.3</ele>
        <time>2024-12-19T13:47:31Z</time>
      </trkpt>
      <trkpt lat="47.91956" lon="-2.48563">
        <ele>30.1</ele>
        <time>2024-12-19T13:47:32Z</time>
      </trkpt>
      <trkpt lat="47.91956" lon="-2.48565">
        <ele>30</ele>
        <time>2024-12-19T13:47:33Z</time>
      </trkpt>
      <trkpt lat="47.91957" lon="-2.48567">
        <ele>30</ele>
        <time>2024-12-19T13:47:34Z</time>
      </trkpt>
      <trkpt lat="47.91957" lon="-2.48569">
        <ele>29.9</ele>
        <time>2024-12-19T13:47:35Z</time>
      </trkpt>
      <trkpt lat="47.91957" lon="-2.48571">
        <ele>29.8</ele>
        <time>2024-12-19T13:47:36Z</time>
      </trkpt>
      <trkpt lat="47.91957" lon="-2.48573">
        <ele>29.6</ele>
        <time>2024-12-19T13:47:37Z</time>
      </trkpt>
      <trkpt lat="47.91957" lon="-2.48575">
        <ele>29.4</ele>
        <time>2024-12-19T13:47:38Z</time>
      </trkpt>
      <trkpt lat="47.91956" lon="-2.48577">
        <ele>29.1</ele>
        <time>2024-12-19T13:47:39Z</time>
      </trkpt>
      <trkpt lat="47.91957" lon="-2.48579">
        <ele>29.1</ele>
        <time>2024-12-19T13:47:40Z</time>
      </trkpt>
      <trkpt lat="47.91958" lon="-2.4858">
        <ele>29.1</ele>
        <time>2024-12-19T13:47:41Z</time>
      </trkpt>
      <trkpt lat="47.91959" lon="-2.48581">
        <ele>29.3</ele>
        <time>2024-12-19T13:47:42Z</time>
      </trkpt>
      <trkpt lat="47.91961" lon="-2.48581">
        <ele>29.5</ele>
        <time>2024-12-19T13:47:43Z</time>
      </trkpt>
      <trkpt lat="47.91962" lon="-2.48583">
        <ele>29.6</ele>
        <time>2024-12-19T13:47:44Z</time>
      </trkpt>
      <trkpt lat="47.91963" lon="-2.48584">
        <ele>29.7</ele>
        <time>2024-12-19T13:47:45Z</time>
      </trkpt>
      <trkpt lat="47.91965" lon="-2.48586">
        <ele>29.7</ele>
        <time>2024-12-19T13:47:46Z</time>
      </trkpt>
      <trkpt lat="47.91966" lon="-2.48587">
        <ele>29.8</ele>
        <time>2024-12-19T13:47:47Z</time>
      </trkpt>
      <trkpt lat="47.91968" lon="-2.48589">
        <ele>29.8</ele>
        <time>2024-12-19T13:47:48Z</time>
      </trkpt>
      <trkpt lat="47.91969" lon="-2.4859">
        <ele>29.9</ele>
        <time>2024-12-19T13:47:49Z</time>
      </trkpt>
      <trkpt lat="47.9197" lon="-2.48591">
        <ele>29.9</ele>
        <time>2024-12-19T13:47:50Z</time>
      </trkpt>
      <trkpt lat="47.91972" lon="-2.48593">
        <ele>29.9</ele>
        <time>2024-12-19T13:47:51Z</time>
      </trkpt>
      <trkpt lat="47.91972" lon="-2.48593">
        <ele>29.9</ele>
        <time>2024-12-19T13:47:52Z</time>
      </trkpt>
      <trkpt lat="47.91973" lon="-2.48594">
        <ele>29.9</ele>
        <time>2024-12-19T13:47:53Z</time>
      </trkpt>
      <trkpt lat="47.91974" lon="-2.48596">
        <ele>29.9</ele>
        <time>2024-12-19T13:47:54Z</time>
      </trkpt>
      <trkpt lat="47.91974" lon="-2.48598">
        <ele>29.9</ele>
        <time>2024-12-19T13:47:55Z</time>
      </trkpt>
      <trkpt lat="47.91975" lon="-2.48599">
        <ele>29.8</ele>
        <time>2024-12-19T13:47:56Z</time>
      </trkpt>
      <trkpt lat="47.91975" lon="-2.48601">
        <ele>29.7</ele>
        <time>2024-12-19T13:47:57Z</time>
      </trkpt>
      <trkpt lat="47.91975" lon="-2.48602">
        <ele>29.6</ele>
        <time>2024-12-19T13:47:58Z</time>
      </trkpt>
      <trkpt lat="47.91975" lon="-2.48603">
        <ele>29.5</ele>
        <time>2024-12-19T13:47:59Z</time>
      </trkpt>
      <trkpt lat="47.91975" lon="-2.48604">
        <ele>29.4</ele>
        <time>2024-12-19T13:48:00Z</time>
      </trkpt>
      <trkpt lat="47.91976" lon="-2.48605">
        <ele>29.4</ele>
        <time>2024-12-19T13:48:01Z</time>
      </trkpt>
      <trkpt lat="47.91976" lon="-2.48606">
        <ele>29.3</ele>
        <time>2024-12-19T13:48:02Z</time>
      </trkpt>
      <trkpt lat="47.91976" lon="-2.48607">
        <ele>29.2</ele>
        <time>2024-12-19T13:48:03Z</time>
      </trkpt>
      <trkpt lat="47.91976" lon="-2.48608">
        <ele>29.1</ele>
        <time>2024-12-19T13:48:04Z</time>
      </trkpt>
      <trkpt lat="47.91976" lon="-2.48609">
        <ele>29</ele>
        <time>2024-12-19T13:48:05Z</time>
      </trkpt>
      <trkpt lat="47.91976" lon="-2.48611">
        <ele>28.9</ele>
        <time>2024-12-19T13:48:06Z</time>
      </trkpt>
      <trkpt lat="47.91977" lon="-2.48613">
        <ele>28.9</ele>
        <time>2024-12-19T13:48:07Z</time>
      </trkpt>
      <trkpt lat="47.91978" lon="-2.48615">
        <ele>28.8</ele>
        <time>2024-12-19T13:48:08Z</time>
      </trkpt>
      <trkpt lat="47.91978" lon="-2.48616">
        <ele>28.9</ele>
        <time>2024-12-19T13:48:09Z</time>
      </trkpt>
      <trkpt lat="47.91979" lon="-2.48618">
        <ele>28.9</ele>
        <time>2024-12-19T13:48:10Z</time>
      </trkpt>
      <trkpt lat="47.9198" lon="-2.4862">
        <ele>28.9</ele>
        <time>2024-12-19T13:48:11Z</time>
      </trkpt>
      <trkpt lat="47.91981" lon="-2.48621">
        <ele>29</ele>
        <time>2024-12-19T13:48:12Z</time>
      </trkpt>
      <trkpt lat="47.91982" lon="-2.48622">
        <ele>29.1</ele>
        <time>2024-12-19T13:48:13Z</time>
      </trkpt>
      <trkpt lat="47.91982" lon="-2.48623">
        <ele>29.2</ele>
        <time>2024-12-19T13:48:14Z</time>
      </trkpt>
      <trkpt lat="47.91983" lon="-2.48624">
        <ele>29.2</ele>
        <time>2024-12-19T13:48:15Z</time>
      </trkpt>
      <trkpt lat="47.91984" lon="-2.48626">
        <ele>29.2</ele>
        <time>2024-12-19T13:48:16Z</time>
      </trkpt>
      <trkpt lat="47.91985" lon="-2.48627">
        <ele>29.2</ele>
        <time>2024-12-19T13:48:17Z</time>
      </trkpt>
      <trkpt lat="47.91985" lon="-2.48629">
        <ele>29.3</ele>
        <time>2024-12-19T13:48:18Z</time>
      </trkpt>
      <trkpt lat="47.91986" lon="-2.4863">
        <ele>29.3</ele>
        <time>2024-12-19T13:48:19Z</time>
      </trkpt>
      <trkpt lat="47.91987" lon="-2.48631">
        <ele>29.4</ele>
        <time>2024-12-19T13:48:20Z</time>
      </trkpt>
      <trkpt lat="47.91988" lon="-2.48632">
        <ele>29.5</ele>
        <time>2024-12-19T13:48:21Z</time>
      </trkpt>
      <trkpt lat="47.91989" lon="-2.48633">
        <ele>29.5</ele>
        <time>2024-12-19T13:48:22Z</time>
      </trkpt>
      <trkpt lat="47.9199" lon="-2.48635">
        <ele>29.5</ele>
        <time>2024-12-19T13:48:23Z</time>
      </trkpt>
      <trkpt lat="47.9199" lon="-2.48637">
        <ele>29.5</ele>
        <time>2024-12-19T13:48:24Z</time>
      </trkpt>
      <trkpt lat="47.91991" lon="-2.48638">
        <ele>29.4</ele>
        <time>2024-12-19T13:48:25Z</time>
      </trkpt>
      <trkpt lat="47.91991" lon="-2.48639">
        <ele>29.4</ele>
        <time>2024-12-19T13:48:26Z</time>
      </trkpt>
      <trkpt lat="47.91992" lon="-2.4864">
        <ele>29.5</ele>
        <time>2024-12-19T13:48:27Z</time>
      </trkpt>
      <trkpt lat="47.91993" lon="-2.4864">
        <ele>29.6</ele>
        <time>2024-12-19T13:48:28Z</time>
      </trkpt>
      <trkpt lat="47.91994" lon="-2.48641">
        <ele>29.7</ele>
        <time>2024-12-19T13:48:29Z</time>
      </trkpt>
      <trkpt lat="47.91995" lon="-2.48642">
        <ele>29.7</ele>
        <time>2024-12-19T13:48:30Z</time>
      </trkpt>
      <trkpt lat="47.91995" lon="-2.48644">
        <ele>29.7</ele>
        <time>2024-12-19T13:48:31Z</time>
      </trkpt>
      <trkpt lat="47.91996" lon="-2.48645">
        <ele>29.7</ele>
        <time>2024-12-19T13:48:32Z</time>
      </trkpt>
      <trkpt lat="47.91996" lon="-2.48645">
        <ele>29.7</ele>
        <time>2024-12-19T13:48:33Z</time>
      </trkpt>
      <trkpt lat="47.91996" lon="-2.48646">
        <ele>29.7</ele>
        <time>2024-12-19T13:48:34Z</time>
      </trkpt>
      <trkpt lat="47.91997" lon="-2.48647">
        <ele>29.6</ele>
        <time>2024-12-19T13:48:35Z</time>
      </trkpt>
      <trkpt lat="47.91998" lon="-2.48649">
        <ele>29.6</ele>
        <time>2024-12-19T13:48:36Z</time>
      </trkpt>
      <trkpt lat="47.91998" lon="-2.4865">
        <ele>29.5</ele>
        <time>2024-12-19T13:48:37Z</time>
      </trkpt>
      <trkpt lat="47.91999" lon="-2.48651">
        <ele>29.5</ele>
        <time>2024-12-19T13:48:38Z</time>
      </trkpt>
      <trkpt lat="47.92" lon="-2.48653">
        <ele>29.4</ele>
        <time>2024-12-19T13:48:39Z</time>
      </trkpt>
      <trkpt lat="47.92" lon="-2.48655">
        <ele>29.4</ele>
        <time>2024-12-19T13:48:40Z</time>
      </trkpt>
      <trkpt lat="47.92001" lon="-2.48657">
        <ele>29.4</ele>
        <time>2024-12-19T13:48:41Z</time>
      </trkpt>
      <trkpt lat="47.92002" lon="-2.48659">
        <ele>29.3</ele>
        <time>2024-12-19T13:48:42Z</time>
      </trkpt>
      <trkpt lat="47.92002" lon="-2.4866">
        <ele>29.2</ele>
        <time>2024-12-19T13:48:43Z</time>
      </trkpt>
      <trkpt lat="47.92003" lon="-2.48663">
        <ele>29.1</ele>
        <time>2024-12-19T13:48:44Z</time>
      </trkpt>
      <trkpt lat="47.92003" lon="-2.48665">
        <ele>29</ele>
        <time>2024-12-19T13:48:45Z</time>
      </trkpt>
      <trkpt lat="47.92003" lon="-2.48667">
        <ele>28.8</ele>
        <time>2024-12-19T13:48:46Z</time>
      </trkpt>
      <trkpt lat="47.92003" lon="-2.48669">
        <ele>28.8</ele>
        <time>2024-12-19T13:48:47Z</time>
      </trkpt>
      <trkpt lat="47.92004" lon="-2.4867">
        <ele>28.7</ele>
        <time>2024-12-19T13:48:48Z</time>
      </trkpt>
      <trkpt lat="47.92004" lon="-2.48671">
        <ele>28.7</ele>
        <time>2024-12-19T13:48:49Z</time>
      </trkpt>
      <trkpt lat="47.92004" lon="-2.48672">
        <ele>28.8</ele>
        <time>2024-12-19T13:48:50Z</time>
      </trkpt>
      <trkpt lat="47.92005" lon="-2.48673">
        <ele>29</ele>
        <time>2024-12-19T13:48:51Z</time>
      </trkpt>
      <trkpt lat="47.92006" lon="-2.48675">
        <ele>29.1</ele>
        <time>2024-12-19T13:48:52Z</time>
      </trkpt>
      <trkpt lat="47.92007" lon="-2.48676">
        <ele>29.2</ele>
        <time>2024-12-19T13:48:53Z</time>
      </trkpt>
      <trkpt lat="47.92008" lon="-2.48678">
        <ele>29.3</ele>
        <time>2024-12-19T13:48:54Z</time>
      </trkpt>
      <trkpt lat="47.92009" lon="-2.4868">
        <ele>29.3</ele>
        <time>2024-12-19T13:48:55Z</time>
      </trkpt>
      <trkpt lat="47.9201" lon="-2.48682">
        <ele>29.3</ele>
        <time>2024-12-19T13:48:56Z</time>
      </trkpt>
      <trkpt lat="47.9201" lon="-2.48685">
        <ele>29.2</ele>
        <time>2024-12-19T13:48:57Z</time>
      </trkpt>
      <trkpt lat="47.92011" lon="-2.48688">
        <ele>29.1</ele>
        <time>2024-12-19T13:48:58Z</time>
      </trkpt>
      <trkpt lat="47.92012" lon="-2.48691">
        <ele>29</ele>
        <time>2024-12-19T13:48:59Z</time>
      </trkpt>
      <trkpt lat="47.92013" lon="-2.48693">
        <ele>29</ele>
        <time>2024-12-19T13:49:00Z</time>
      </trkpt>
      <trkpt lat="47.92013" lon="-2.48694">
        <ele>28.9</ele>
        <time>2024-12-19T13:49:01Z</time>
      </trkpt>
      <trkpt lat="47.92013" lon="-2.48695">
        <ele>28.9</ele>
        <time>2024-12-19T13:49:02Z</time>
      </trkpt>
      <trkpt lat="47.92014" lon="-2.48696">
        <ele>28.9</ele>
        <time>2024-12-19T13:49:03Z</time>
      </trkpt>
      <trkpt lat="47.92015" lon="-2.48697">
        <ele>28.9</ele>
        <time>2024-12-19T13:49:04Z</time>
      </trkpt>
      <trkpt lat="47.92016" lon="-2.48698">
        <ele>29</ele>
        <time>2024-12-19T13:49:05Z</time>
      </trkpt>
      <trkpt lat="47.92016" lon="-2.48699">
        <ele>28.9</ele>
        <time>2024-12-19T13:49:06Z</time>
      </trkpt>
      <trkpt lat="47.92017" lon="-2.48701">
        <ele>28.9</ele>
        <time>2024-12-19T13:49:07Z</time>
      </trkpt>
      <trkpt lat="47.92017" lon="-2.48703">
        <ele>28.8</ele>
        <time>2024-12-19T13:49:08Z</time>
      </trkpt>
      <trkpt lat="47.92017" lon="-2.48705">
        <ele>28.6</ele>
        <time>2024-12-19T13:49:09Z</time>
      </trkpt>
      <trkpt lat="47.92017" lon="-2.48707">
        <ele>28.5</ele>
        <time>2024-12-19T13:49:10Z</time>
      </trkpt>
      <trkpt lat="47.92018" lon="-2.48709">
        <ele>28.4</ele>
        <time>2024-12-19T13:49:11Z</time>
      </trkpt>
      <trkpt lat="47.92018" lon="-2.4871">
        <ele>28.3</ele>
        <time>2024-12-19T13:49:12Z</time>
      </trkpt>
      <trkpt lat="47.92019" lon="-2.48711">
        <ele>28.3</ele>
        <time>2024-12-19T13:49:13Z</time>
      </trkpt>
      <trkpt lat="47.92019" lon="-2.48712">
        <ele>28.2</ele>
        <time>2024-12-19T13:49:14Z</time>
      </trkpt>
      <trkpt lat="47.92019" lon="-2.48713">
        <ele>28.2</ele>
        <time>2024-12-19T13:49:15Z</time>
      </trkpt>
      <trkpt lat="47.9202" lon="-2.48715">
        <ele>28.1</ele>
        <time>2024-12-19T13:49:16Z</time>
      </trkpt>
      <trkpt lat="47.9202" lon="-2.48716">
        <ele>28</ele>
        <time>2024-12-19T13:49:17Z</time>
      </trkpt>
      <trkpt lat="47.92021" lon="-2.48717">
        <ele>27.9</ele>
        <time>2024-12-19T13:49:18Z</time>
      </trkpt>
      <trkpt lat="47.92022" lon="-2.48719">
        <ele>27.9</ele>
        <time>2024-12-19T13:49:19Z</time>
      </trkpt>
      <trkpt lat="47.92022" lon="-2.4872">
        <ele>27.8</ele>
        <time>2024-12-19T13:49:20Z</time>
      </trkpt>
      <trkpt lat="47.92023" lon="-2.48722">
        <ele>27.7</ele>
        <time>2024-12-19T13:49:21Z</time>
      </trkpt>
      <trkpt lat="47.92023" lon="-2.48724">
        <ele>27.6</ele>
        <time>2024-12-19T13:49:22Z</time>
      </trkpt>
      <trkpt lat="47.92026" lon="-2.48725">
        <ele>27.7</ele>
        <time>2024-12-19T13:49:23Z</time>
      </trkpt>
      <trkpt lat="47.92027" lon="-2.48726">
        <ele>27.8</ele>
        <time>2024-12-19T13:49:24Z</time>
      </trkpt>
      <trkpt lat="47.92029" lon="-2.48727">
        <ele>28</ele>
        <time>2024-12-19T13:49:25Z</time>
      </trkpt>
      <trkpt lat="47.9203" lon="-2.48728">
        <ele>28.3</ele>
        <time>2024-12-19T13:49:26Z</time>
      </trkpt>
      <trkpt lat="47.92031" lon="-2.4873">
        <ele>28.4</ele>
        <time>2024-12-19T13:49:27Z</time>
      </trkpt>
      <trkpt lat="47.92032" lon="-2.48732">
        <ele>28.6</ele>
        <time>2024-12-19T13:49:28Z</time>
      </trkpt>
      <trkpt lat="47.92033" lon="-2.48734">
        <ele>28.7</ele>
        <time>2024-12-19T13:49:29Z</time>
      </trkpt>
      <trkpt lat="47.92034" lon="-2.48736">
        <ele>28.8</ele>
        <time>2024-12-19T13:49:30Z</time>
      </trkpt>
      <trkpt lat="47.92034" lon="-2.48739">
        <ele>28.9</ele>
        <time>2024-12-19T13:49:31Z</time>
      </trkpt>
      <trkpt lat="47.92035" lon="-2.48739">
        <ele>29</ele>
        <time>2024-12-19T13:49:32Z</time>
      </trkpt>
      <trkpt lat="47.92035" lon="-2.4874">
        <ele>29.1</ele>
        <time>2024-12-19T13:49:33Z</time>
      </trkpt>
      <trkpt lat="47.92036" lon="-2.48742">
        <ele>29.1</ele>
        <time>2024-12-19T13:49:34Z</time>
      </trkpt>
      <trkpt lat="47.92036" lon="-2.48743">
        <ele>29.1</ele>
        <time>2024-12-19T13:49:35Z</time>
      </trkpt>
      <trkpt lat="47.92037" lon="-2.48745">
        <ele>29.2</ele>
        <time>2024-12-19T13:49:36Z</time>
      </trkpt>
      <trkpt lat="47.92038" lon="-2.48746">
        <ele>29.3</ele>
        <time>2024-12-19T13:49:37Z</time>
      </trkpt>
      <trkpt lat="47.92038" lon="-2.48748">
        <ele>29.4</ele>
        <time>2024-12-19T13:49:38Z</time>
      </trkpt>
      <trkpt lat="47.92039" lon="-2.48748">
        <ele>29.5</ele>
        <time>2024-12-19T13:49:39Z</time>
      </trkpt>
      <trkpt lat="47.9204" lon="-2.48749">
        <ele>29.7</ele>
        <time>2024-12-19T13:49:40Z</time>
      </trkpt>
      <trkpt lat="47.92041" lon="-2.4875">
        <ele>29.9</ele>
        <time>2024-12-19T13:49:41Z</time>
      </trkpt>
      <trkpt lat="47.92043" lon="-2.48751">
        <ele>30.1</ele>
        <time>2024-12-19T13:49:42Z</time>
      </trkpt>
      <trkpt lat="47.92044" lon="-2.48753">
        <ele>30.1</ele>
        <time>2024-12-19T13:49:43Z</time>
      </trkpt>
      <trkpt lat="47.92045" lon="-2.48755">
        <ele>30.1</ele>
        <time>2024-12-19T13:49:44Z</time>
      </trkpt>
      <trkpt lat="47.92046" lon="-2.48758">
        <ele>29.9</ele>
        <time>2024-12-19T13:49:45Z</time>
      </trkpt>
      <trkpt lat="47.92046" lon="-2.4876">
        <ele>29.7</ele>
        <time>2024-12-19T13:49:46Z</time>
      </trkpt>
      <trkpt lat="47.92047" lon="-2.48762">
        <ele>29.5</ele>
        <time>2024-12-19T13:49:47Z</time>
      </trkpt>
      <trkpt lat="47.92047" lon="-2.48764">
        <ele>29.3</ele>
        <time>2024-12-19T13:49:48Z</time>
      </trkpt>
      <trkpt lat="47.92048" lon="-2.48766">
        <ele>29.2</ele>
        <time>2024-12-19T13:49:49Z</time>
      </trkpt>
      <trkpt lat="47.92049" lon="-2.48767">
        <ele>29.1</ele>
        <time>2024-12-19T13:49:50Z</time>
      </trkpt>
      <trkpt lat="47.9205" lon="-2.48769">
        <ele>28.9</ele>
        <time>2024-12-19T13:49:51Z</time>
      </trkpt>
      <trkpt lat="47.92051" lon="-2.48771">
        <ele>28.8</ele>
        <time>2024-12-19T13:49:52Z</time>
      </trkpt>
      <trkpt lat="47.92052" lon="-2.48772">
        <ele>28.7</ele>
        <time>2024-12-19T13:49:53Z</time>
      </trkpt>
      <trkpt lat="47.92053" lon="-2.48774">
        <ele>28.5</ele>
        <time>2024-12-19T13:49:54Z</time>
      </trkpt>
      <trkpt lat="47.92054" lon="-2.48775">
        <ele>28.3</ele>
        <time>2024-12-19T13:49:55Z</time>
      </trkpt>
      <trkpt lat="47.92055" lon="-2.48777">
        <ele>28.1</ele>
        <time>2024-12-19T13:49:56Z</time>
      </trkpt>
      <trkpt lat="47.92055" lon="-2.48778">
        <ele>28</ele>
        <time>2024-12-19T13:49:57Z</time>
      </trkpt>
      <trkpt lat="47.92056" lon="-2.4878">
        <ele>27.9</ele>
        <time>2024-12-19T13:49:58Z</time>
      </trkpt>
      <trkpt lat="47.92057" lon="-2.48783">
        <ele>27.9</ele>
        <time>2024-12-19T13:49:59Z</time>
      </trkpt>
      <trkpt lat="47.92057" lon="-2.48785">
        <ele>28</ele>
        <time>2024-12-19T13:50:00Z</time>
      </trkpt>
      <trkpt lat="47.92058" lon="-2.48787">
        <ele>28.2</ele>
        <time>2024-12-19T13:50:01Z</time>
      </trkpt>
      <trkpt lat="47.92059" lon="-2.48788">
        <ele>28.3</ele>
        <time>2024-12-19T13:50:02Z</time>
      </trkpt>
      <trkpt lat="47.9206" lon="-2.4879">
        <ele>28.5</ele>
        <time>2024-12-19T13:50:03Z</time>
      </trkpt>
      <trkpt lat="47.92061" lon="-2.48792">
        <ele>28.6</ele>
        <time>2024-12-19T13:50:04Z</time>
      </trkpt>
      <trkpt lat="47.92062" lon="-2.48794">
        <ele>28.7</ele>
        <time>2024-12-19T13:50:05Z</time>
      </trkpt>
      <trkpt lat="47.92063" lon="-2.48795">
        <ele>28.9</ele>
        <time>2024-12-19T13:50:06Z</time>
      </trkpt>
      <trkpt lat="47.92064" lon="-2.48797">
        <ele>29</ele>
        <time>2024-12-19T13:50:07Z</time>
      </trkpt>
      <trkpt lat="47.92065" lon="-2.48798">
        <ele>29</ele>
        <time>2024-12-19T13:50:08Z</time>
      </trkpt>
      <trkpt lat="47.92065" lon="-2.488">
        <ele>28.9</ele>
        <time>2024-12-19T13:50:09Z</time>
      </trkpt>
      <trkpt lat="47.92066" lon="-2.48802">
        <ele>28.9</ele>
        <time>2024-12-19T13:50:10Z</time>
      </trkpt>
      <trkpt lat="47.92066" lon="-2.48804">
        <ele>28.8</ele>
        <time>2024-12-19T13:50:11Z</time>
      </trkpt>
      <trkpt lat="47.92066" lon="-2.48805">
        <ele>28.8</ele>
        <time>2024-12-19T13:50:12Z</time>
      </trkpt>
      <trkpt lat="47.92067" lon="-2.48807">
        <ele>28.8</ele>
        <time>2024-12-19T13:50:13Z</time>
      </trkpt>
      <trkpt lat="47.92068" lon="-2.48808">
        <ele>28.9</ele>
        <time>2024-12-19T13:50:14Z</time>
      </trkpt>
      <trkpt lat="47.92069" lon="-2.48809">
        <ele>29</ele>
        <time>2024-12-19T13:50:15Z</time>
      </trkpt>
      <trkpt lat="47.9207" lon="-2.48811">
        <ele>29</ele>
        <time>2024-12-19T13:50:16Z</time>
      </trkpt>
      <trkpt lat="47.9207" lon="-2.48813">
        <ele>29</ele>
        <time>2024-12-19T13:50:17Z</time>
      </trkpt>
      <trkpt lat="47.92071" lon="-2.48815">
        <ele>29</ele>
        <time>2024-12-19T13:50:18Z</time>
      </trkpt>
      <trkpt lat="47.92072" lon="-2.48817">
        <ele>28.9</ele>
        <time>2024-12-19T13:50:19Z</time>
      </trkpt>
      <trkpt lat="47.92073" lon="-2.48819">
        <ele>28.8</ele>
        <time>2024-12-19T13:50:20Z</time>
      </trkpt>
      <trkpt lat="47.92073" lon="-2.48821">
        <ele>28.7</ele>
        <time>2024-12-19T13:50:21Z</time>
      </trkpt>
      <trkpt lat="47.92074" lon="-2.48821">
        <ele>28.8</ele>
        <time>2024-12-19T13:50:22Z</time>
      </trkpt>
      <trkpt lat="47.92075" lon="-2.48822">
        <ele>28.9</ele>
        <time>2024-12-19T13:50:23Z</time>
      </trkpt>
      <trkpt lat="47.92077" lon="-2.48822">
        <ele>29</ele>
        <time>2024-12-19T13:50:24Z</time>
      </trkpt>
      <trkpt lat="47.92078" lon="-2.48823">
        <ele>29.1</ele>
        <time>2024-12-19T13:50:25Z</time>
      </trkpt>
      <trkpt lat="47.92079" lon="-2.48824">
        <ele>29.2</ele>
        <time>2024-12-19T13:50:26Z</time>
      </trkpt>
      <trkpt lat="47.92081" lon="-2.48824">
        <ele>29.3</ele>
        <time>2024-12-19T13:50:27Z</time>
      </trkpt>
      <trkpt lat="47.92081" lon="-2.48825">
        <ele>29.2</ele>
        <time>2024-12-19T13:50:28Z</time>
      </trkpt>
      <trkpt lat="47.92082" lon="-2.48827">
        <ele>29</ele>
        <time>2024-12-19T13:50:29Z</time>
      </trkpt>
      <trkpt lat="47.92082" lon="-2.48829">
        <ele>28.7</ele>
        <time>2024-12-19T13:50:30Z</time>
      </trkpt>
      <trkpt lat="47.92083" lon="-2.48831">
        <ele>28.5</ele>
        <time>2024-12-19T13:50:31Z</time>
      </trkpt>
      <trkpt lat="47.92084" lon="-2.48832">
        <ele>28.5</ele>
        <time>2024-12-19T13:50:32Z</time>
      </trkpt>
      <trkpt lat="47.92085" lon="-2.48833">
        <ele>28.6</ele>
        <time>2024-12-19T13:50:33Z</time>
      </trkpt>
      <trkpt lat="47.92086" lon="-2.48834">
        <ele>28.9</ele>
        <time>2024-12-19T13:50:34Z</time>
      </trkpt>
      <trkpt lat="47.92087" lon="-2.48835">
        <ele>29.1</ele>
        <time>2024-12-19T13:50:35Z</time>
      </trkpt>
      <trkpt lat="47.92088" lon="-2.48837">
        <ele>29.3</ele>
        <time>2024-12-19T13:50:36Z</time>
      </trkpt>
      <trkpt lat="47.92089" lon="-2.48838">
        <ele>29.5</ele>
        <time>2024-12-19T13:50:37Z</time>
      </trkpt>
      <trkpt lat="47.92089" lon="-2.4884">
        <ele>29.6</ele>
        <time>2024-12-19T13:50:38Z</time>
      </trkpt>
      <trkpt lat="47.9209" lon="-2.48841">
        <ele>29.6</ele>
        <time>2024-12-19T13:50:39Z</time>
      </trkpt>
      <trkpt lat="47.92091" lon="-2.48843">
        <ele>29.7</ele>
        <time>2024-12-19T13:50:40Z</time>
      </trkpt>
      <trkpt lat="47.92091" lon="-2.48845">
        <ele>29.8</ele>
        <time>2024-12-19T13:50:41Z</time>
      </trkpt>
      <trkpt lat="47.92092" lon="-2.48847">
        <ele>29.8</ele>
        <time>2024-12-19T13:50:42Z</time>
      </trkpt>
      <trkpt lat="47.92093" lon="-2.4885">
        <ele>29.9</ele>
        <time>2024-12-19T13:50:43Z</time>
      </trkpt>
      <trkpt lat="47.92094" lon="-2.48851">
        <ele>30.1</ele>
        <time>2024-12-19T13:50:44Z</time>
      </trkpt>
      <trkpt lat="47.92095" lon="-2.48853">
        <ele>30.2</ele>
        <time>2024-12-19T13:50:45Z</time>
      </trkpt>
      <trkpt lat="47.92096" lon="-2.48854">
        <ele>30.3</ele>
        <time>2024-12-19T13:50:46Z</time>
      </trkpt>
      <trkpt lat="47.92097" lon="-2.48854">
        <ele>30.5</ele>
        <time>2024-12-19T13:50:47Z</time>
      </trkpt>
      <trkpt lat="47.92098" lon="-2.48855">
        <ele>30.6</ele>
        <time>2024-12-19T13:50:48Z</time>
      </trkpt>
      <trkpt lat="47.92099" lon="-2.48856">
        <ele>30.8</ele>
        <time>2024-12-19T13:50:49Z</time>
      </trkpt>
      <trkpt lat="47.92099" lon="-2.48857">
        <ele>30.9</ele>
        <time>2024-12-19T13:50:50Z</time>
      </trkpt>
      <trkpt lat="47.921" lon="-2.48859">
        <ele>30.8</ele>
        <time>2024-12-19T13:50:51Z</time>
      </trkpt>
      <trkpt lat="47.92101" lon="-2.48861">
        <ele>30.8</ele>
        <time>2024-12-19T13:50:52Z</time>
      </trkpt>
      <trkpt lat="47.92102" lon="-2.48863">
        <ele>30.8</ele>
        <time>2024-12-19T13:50:53Z</time>
      </trkpt>
      <trkpt lat="47.92103" lon="-2.48865">
        <ele>30.8</ele>
        <time>2024-12-19T13:50:54Z</time>
      </trkpt>
      <trkpt lat="47.92103" lon="-2.48866">
        <ele>30.8</ele>
        <time>2024-12-19T13:50:55Z</time>
      </trkpt>
      <trkpt lat="47.92104" lon="-2.48867">
        <ele>30.7</ele>
        <time>2024-12-19T13:50:56Z</time>
      </trkpt>
      <trkpt lat="47.92105" lon="-2.48869">
        <ele>30.8</ele>
        <time>2024-12-19T13:50:57Z</time>
      </trkpt>
      <trkpt lat="47.92106" lon="-2.4887">
        <ele>30.8</ele>
        <time>2024-12-19T13:50:58Z</time>
      </trkpt>
      <trkpt lat="47.92107" lon="-2.48871">
        <ele>30.8</ele>
        <time>2024-12-19T13:50:59Z</time>
      </trkpt>
      <trkpt lat="47.92108" lon="-2.48873">
        <ele>30.7</ele>
        <time>2024-12-19T13:51:00Z</time>
      </trkpt>
      <trkpt lat="47.92109" lon="-2.48875">
        <ele>30.6</ele>
        <time>2024-12-19T13:51:01Z</time>
      </trkpt>
      <trkpt lat="47.92109" lon="-2.48877">
        <ele>30.4</ele>
        <time>2024-12-19T13:51:02Z</time>
      </trkpt>
      <trkpt lat="47.9211" lon="-2.48878">
        <ele>30.4</ele>
        <time>2024-12-19T13:51:03Z</time>
      </trkpt>
      <trkpt lat="47.92111" lon="-2.4888">
        <ele>30.4</ele>
        <time>2024-12-19T13:51:04Z</time>
      </trkpt>
      <trkpt lat="47.92112" lon="-2.48881">
        <ele>30.5</ele>
        <time>2024-12-19T13:51:05Z</time>
      </trkpt>
      <trkpt lat="47.92113" lon="-2.48881">
        <ele>30.7</ele>
        <time>2024-12-19T13:51:06Z</time>
      </trkpt>
      <trkpt lat="47.92114" lon="-2.48882">
        <ele>30.8</ele>
        <time>2024-12-19T13:51:07Z</time>
      </trkpt>
      <trkpt lat="47.92115" lon="-2.48883">
        <ele>30.9</ele>
        <time>2024-12-19T13:51:08Z</time>
      </trkpt>
      <trkpt lat="47.92116" lon="-2.48884">
        <ele>31</ele>
        <time>2024-12-19T13:51:09Z</time>
      </trkpt>
      <trkpt lat="47.92116" lon="-2.48886">
        <ele>31.1</ele>
        <time>2024-12-19T13:51:10Z</time>
      </trkpt>
      <trkpt lat="47.92117" lon="-2.48888">
        <ele>31</ele>
        <time>2024-12-19T13:51:11Z</time>
      </trkpt>
      <trkpt lat="47.92117" lon="-2.48889">
        <ele>30.9</ele>
        <time>2024-12-19T13:51:12Z</time>
      </trkpt>
      <trkpt lat="47.92118" lon="-2.48891">
        <ele>31.1</ele>
        <time>2024-12-19T13:51:13Z</time>
      </trkpt>
      <trkpt lat="47.92119" lon="-2.48892">
        <ele>31.2</ele>
        <time>2024-12-19T13:51:14Z</time>
      </trkpt>
      <trkpt lat="47.92119" lon="-2.48894">
        <ele>31.2</ele>
        <time>2024-12-19T13:51:15Z</time>
      </trkpt>
      <trkpt lat="47.92119" lon="-2.48895">
        <ele>31.3</ele>
        <time>2024-12-19T13:51:16Z</time>
      </trkpt>
      <trkpt lat="47.9212" lon="-2.48897">
        <ele>31.5</ele>
        <time>2024-12-19T13:51:17Z</time>
      </trkpt>
      <trkpt lat="47.92121" lon="-2.48898">
        <ele>31.6</ele>
        <time>2024-12-19T13:51:18Z</time>
      </trkpt>
      <trkpt lat="47.92122" lon="-2.489">
        <ele>31.8</ele>
        <time>2024-12-19T13:51:19Z</time>
      </trkpt>
      <trkpt lat="47.92122" lon="-2.48901">
        <ele>31.9</ele>
        <time>2024-12-19T13:51:20Z</time>
      </trkpt>
      <trkpt lat="47.92123" lon="-2.48902">
        <ele>31.9</ele>
        <time>2024-12-19T13:51:21Z</time>
      </trkpt>
      <trkpt lat="47.92123" lon="-2.48903">
        <ele>31.9</ele>
        <time>2024-12-19T13:51:22Z</time>
      </trkpt>
      <trkpt lat="47.92123" lon="-2.48905">
        <ele>31.8</ele>
        <time>2024-12-19T13:51:23Z</time>
      </trkpt>
      <trkpt lat="47.92123" lon="-2.48906">
        <ele>31.7</ele>
        <time>2024-12-19T13:51:24Z</time>
      </trkpt>
      <trkpt lat="47.92123" lon="-2.48908">
        <ele>31.7</ele>
        <time>2024-12-19T13:51:25Z</time>
      </trkpt>
      <trkpt lat="47.92124" lon="-2.48909">
        <ele>31.7</ele>
        <time>2024-12-19T13:51:26Z</time>
      </trkpt>
      <trkpt lat="47.92124" lon="-2.4891">
        <ele>31.8</ele>
        <time>2024-12-19T13:51:27Z</time>
      </trkpt>
      <trkpt lat="47.92125" lon="-2.48912">
        <ele>32</ele>
        <time>2024-12-19T13:51:28Z</time>
      </trkpt>
      <trkpt lat="47.92126" lon="-2.48913">
        <ele>32.1</ele>
        <time>2024-12-19T13:51:29Z</time>
      </trkpt>
      <trkpt lat="47.92127" lon="-2.48914">
        <ele>32.2</ele>
        <time>2024-12-19T13:51:30Z</time>
      </trkpt>
      <trkpt lat="47.92128" lon="-2.48916">
        <ele>32.2</ele>
        <time>2024-12-19T13:51:31Z</time>
      </trkpt>
      <trkpt lat="47.92128" lon="-2.48918">
        <ele>32.1</ele>
        <time>2024-12-19T13:51:32Z</time>
      </trkpt>
      <trkpt lat="47.92129" lon="-2.48921">
        <ele>32</ele>
        <time>2024-12-19T13:51:33Z</time>
      </trkpt>
      <trkpt lat="47.92129" lon="-2.48923">
        <ele>31.8</ele>
        <time>2024-12-19T13:51:34Z</time>
      </trkpt>
      <trkpt lat="47.92131" lon="-2.48926">
        <ele>31.8</ele>
        <time>2024-12-19T13:51:35Z</time>
      </trkpt>
      <trkpt lat="47.92131" lon="-2.48927">
        <ele>31.7</ele>
        <time>2024-12-19T13:51:36Z</time>
      </trkpt>
      <trkpt lat="47.92132" lon="-2.48928">
        <ele>31.6</ele>
        <time>2024-12-19T13:51:37Z</time>
      </trkpt>
      <trkpt lat="47.92132" lon="-2.4893">
        <ele>31.5</ele>
        <time>2024-12-19T13:51:38Z</time>
      </trkpt>
      <trkpt lat="47.92132" lon="-2.48931">
        <ele>31.3</ele>
        <time>2024-12-19T13:51:39Z</time>
      </trkpt>
      <trkpt lat="47.92131" lon="-2.48935">
        <ele>30.6</ele>
        <time>2024-12-19T13:51:40Z</time>
      </trkpt>
      <trkpt lat="47.9213" lon="-2.48938">
        <ele>30.2</ele>
        <time>2024-12-19T13:51:41Z</time>
      </trkpt>
      <trkpt lat="47.9213" lon="-2.48939">
        <ele>30</ele>
        <time>2024-12-19T13:51:42Z</time>
      </trkpt>
      <trkpt lat="47.9213" lon="-2.4894">
        <ele>29.9</ele>
        <time>2024-12-19T13:51:43Z</time>
      </trkpt>
      <trkpt lat="47.92131" lon="-2.48942">
        <ele>29.8</ele>
        <time>2024-12-19T13:51:44Z</time>
      </trkpt>
      <trkpt lat="47.92132" lon="-2.48944">
        <ele>29.6</ele>
        <time>2024-12-19T13:51:46Z</time>
      </trkpt>
      <trkpt lat="47.92133" lon="-2.48945">
        <ele>29.5</ele>
        <time>2024-12-19T13:51:47Z</time>
      </trkpt>
      <trkpt lat="47.92134" lon="-2.48946">
        <ele>29.5</ele>
        <time>2024-12-19T13:51:48Z</time>
      </trkpt>
      <trkpt lat="47.92134" lon="-2.48948">
        <ele>29.5</ele>
        <time>2024-12-19T13:51:49Z</time>
      </trkpt>
      <trkpt lat="47.92135" lon="-2.48951">
        <ele>29.4</ele>
        <time>2024-12-19T13:51:50Z</time>
      </trkpt>
      <trkpt lat="47.92136" lon="-2.48951">
        <ele>29.5</ele>
        <time>2024-12-19T13:51:51Z</time>
      </trkpt>
      <trkpt lat="47.92136" lon="-2.48952">
        <ele>29.5</ele>
        <time>2024-12-19T13:51:52Z</time>
      </trkpt>
      <trkpt lat="47.92136" lon="-2.48954">
        <ele>29.5</ele>
        <time>2024-12-19T13:51:53Z</time>
      </trkpt>
      <trkpt lat="47.92137" lon="-2.48955">
        <ele>29.4</ele>
        <time>2024-12-19T13:51:54Z</time>
      </trkpt>
      <trkpt lat="47.92137" lon="-2.48956">
        <ele>29.4</ele>
        <time>2024-12-19T13:51:55Z</time>
      </trkpt>
      <trkpt lat="47.92138" lon="-2.48957">
        <ele>29.5</ele>
        <time>2024-12-19T13:51:56Z</time>
      </trkpt>
      <trkpt lat="47.92139" lon="-2.48959">
        <ele>29.5</ele>
        <time>2024-12-19T13:51:57Z</time>
      </trkpt>
      <trkpt lat="47.9214" lon="-2.4896">
        <ele>29.6</ele>
        <time>2024-12-19T13:51:58Z</time>
      </trkpt>
      <trkpt lat="47.92141" lon="-2.48961">
        <ele>29.7</ele>
        <time>2024-12-19T13:51:59Z</time>
      </trkpt>
      <trkpt lat="47.92141" lon="-2.48963">
        <ele>29.6</ele>
        <time>2024-12-19T13:52:00Z</time>
      </trkpt>
      <trkpt lat="47.92141" lon="-2.48966">
        <ele>29.5</ele>
        <time>2024-12-19T13:52:01Z</time>
      </trkpt>
      <trkpt lat="47.92142" lon="-2.48964">
        <ele>29.8</ele>
        <time>2024-12-19T13:52:02Z</time>
      </trkpt>
      <trkpt lat="47.92144" lon="-2.48964">
        <ele>30.1</ele>
        <time>2024-12-19T13:52:03Z</time>
      </trkpt>
      <trkpt lat="47.92145" lon="-2.48963">
        <ele>30.4</ele>
        <time>2024-12-19T13:52:04Z</time>
      </trkpt>
      <trkpt lat="47.92146" lon="-2.48962">
        <ele>30.7</ele>
        <time>2024-12-19T13:52:05Z</time>
      </trkpt>
      <trkpt lat="47.92147" lon="-2.4896">
        <ele>30.9</ele>
        <time>2024-12-19T13:52:06Z</time>
      </trkpt>
      <trkpt lat="47.92147" lon="-2.4896">
        <ele>31</ele>
        <time>2024-12-19T13:52:07Z</time>
      </trkpt>
      <trkpt lat="47.92148" lon="-2.4896">
        <ele>31.1</ele>
        <time>2024-12-19T13:52:08Z</time>
      </trkpt>
      <trkpt lat="47.92148" lon="-2.48963">
        <ele>31</ele>
        <time>2024-12-19T13:52:09Z</time>
      </trkpt>
      <trkpt lat="47.92148" lon="-2.48966">
        <ele>30.8</ele>
        <time>2024-12-19T13:52:10Z</time>
      </trkpt>
      <trkpt lat="47.92148" lon="-2.48969">
        <ele>30.6</ele>
        <time>2024-12-19T13:52:11Z</time>
      </trkpt>
      <trkpt lat="47.92149" lon="-2.48971">
        <ele>30.5</ele>
        <time>2024-12-19T13:52:12Z</time>
      </trkpt>
      <trkpt lat="47.92149" lon="-2.48973">
        <ele>30.5</ele>
        <time>2024-12-19T13:52:13Z</time>
      </trkpt>
      <trkpt lat="47.9215" lon="-2.48976">
        <ele>30.4</ele>
        <time>2024-12-19T13:52:14Z</time>
      </trkpt>
      <trkpt lat="47.92151" lon="-2.48978">
        <ele>30.4</ele>
        <time>2024-12-19T13:52:15Z</time>
      </trkpt>
      <trkpt lat="47.92152" lon="-2.4898">
        <ele>30.4</ele>
        <time>2024-12-19T13:52:16Z</time>
      </trkpt>
      <trkpt lat="47.92153" lon="-2.48982">
        <ele>30.5</ele>
        <time>2024-12-19T13:52:17Z</time>
      </trkpt>
      <trkpt lat="47.92154" lon="-2.48985">
        <ele>30.5</ele>
        <time>2024-12-19T13:52:18Z</time>
      </trkpt>
      <trkpt lat="47.92154" lon="-2.48987">
        <ele>30.4</ele>
        <time>2024-12-19T13:52:19Z</time>
      </trkpt>
      <trkpt lat="47.92155" lon="-2.48989">
        <ele>30.4</ele>
        <time>2024-12-19T13:52:20Z</time>
      </trkpt>
      <trkpt lat="47.92156" lon="-2.4899">
        <ele>30.5</ele>
        <time>2024-12-19T13:52:21Z</time>
      </trkpt>
      <trkpt lat="47.92158" lon="-2.48992">
        <ele>30.5</ele>
        <time>2024-12-19T13:52:22Z</time>
      </trkpt>
      <trkpt lat="47.92159" lon="-2.48992">
        <ele>30.7</ele>
        <time>2024-12-19T13:52:23Z</time>
      </trkpt>
      <trkpt lat="47.92161" lon="-2.48993">
        <ele>30.8</ele>
        <time>2024-12-19T13:52:24Z</time>
      </trkpt>
      <trkpt lat="47.92162" lon="-2.48994">
        <ele>30.9</ele>
        <time>2024-12-19T13:52:25Z</time>
      </trkpt>
      <trkpt lat="47.92163" lon="-2.48996">
        <ele>30.9</ele>
        <time>2024-12-19T13:52:26Z</time>
      </trkpt>
      <trkpt lat="47.92164" lon="-2.48997">
        <ele>30.9</ele>
        <time>2024-12-19T13:52:27Z</time>
      </trkpt>
      <trkpt lat="47.92165" lon="-2.48998">
        <ele>31</ele>
        <time>2024-12-19T13:52:28Z</time>
      </trkpt>
      <trkpt lat="47.92167" lon="-2.48999">
        <ele>31</ele>
        <time>2024-12-19T13:52:29Z</time>
      </trkpt>
      <trkpt lat="47.92167" lon="-2.49">
        <ele>31.1</ele>
        <time>2024-12-19T13:52:30Z</time>
      </trkpt>
      <trkpt lat="47.92168" lon="-2.49001">
        <ele>31.2</ele>
        <time>2024-12-19T13:52:31Z</time>
      </trkpt>
      <trkpt lat="47.92169" lon="-2.49002">
        <ele>31.3</ele>
        <time>2024-12-19T13:52:32Z</time>
      </trkpt>
      <trkpt lat="47.9217" lon="-2.49003">
        <ele>31.4</ele>
        <time>2024-12-19T13:52:33Z</time>
      </trkpt>
      <trkpt lat="47.92171" lon="-2.49004">
        <ele>31.5</ele>
        <time>2024-12-19T13:52:34Z</time>
      </trkpt>
      <trkpt lat="47.92171" lon="-2.49005">
        <ele>31.5</ele>
        <time>2024-12-19T13:52:35Z</time>
      </trkpt>
      <trkpt lat="47.92171" lon="-2.49008">
        <ele>31.4</ele>
        <time>2024-12-19T13:52:36Z</time>
      </trkpt>
      <trkpt lat="47.92172" lon="-2.4901">
        <ele>31.3</ele>
        <time>2024-12-19T13:52:37Z</time>
      </trkpt>
      <trkpt lat="47.92173" lon="-2.49013">
        <ele>31.2</ele>
        <time>2024-12-19T13:52:38Z</time>
      </trkpt>
      <trkpt lat="47.92174" lon="-2.49014">
        <ele>31.2</ele>
        <time>2024-12-19T13:52:39Z</time>
      </trkpt>
      <trkpt lat="47.92175" lon="-2.49015">
        <ele>31.3</ele>
        <time>2024-12-19T13:52:40Z</time>
      </trkpt>
      <trkpt lat="47.92175" lon="-2.49017">
        <ele>31.3</ele>
        <time>2024-12-19T13:52:41Z</time>
      </trkpt>
      <trkpt lat="47.92176" lon="-2.49017">
        <ele>31.4</ele>
        <time>2024-12-19T13:52:42Z</time>
      </trkpt>
      <trkpt lat="47.92177" lon="-2.49019">
        <ele>31.5</ele>
        <time>2024-12-19T13:52:43Z</time>
      </trkpt>
      <trkpt lat="47.92178" lon="-2.4902">
        <ele>31.5</ele>
        <time>2024-12-19T13:52:44Z</time>
      </trkpt>
      <trkpt lat="47.92179" lon="-2.49021">
        <ele>31.5</ele>
        <time>2024-12-19T13:52:45Z</time>
      </trkpt>
      <trkpt lat="47.9218" lon="-2.49023">
        <ele>31.3</ele>
        <time>2024-12-19T13:52:46Z</time>
      </trkpt>
      <trkpt lat="47.9218" lon="-2.49026">
        <ele>31.1</ele>
        <time>2024-12-19T13:52:47Z</time>
      </trkpt>
      <trkpt lat="47.92179" lon="-2.49028">
        <ele>30.8</ele>
        <time>2024-12-19T13:52:48Z</time>
      </trkpt>
      <trkpt lat="47.9218" lon="-2.4903">
        <ele>30.8</ele>
        <time>2024-12-19T13:52:49Z</time>
      </trkpt>
      <trkpt lat="47.9218" lon="-2.49031">
        <ele>30.7</ele>
        <time>2024-12-19T13:52:50Z</time>
      </trkpt>
      <trkpt lat="47.9218" lon="-2.49032">
        <ele>30.7</ele>
        <time>2024-12-19T13:52:51Z</time>
      </trkpt>
      <trkpt lat="47.92181" lon="-2.49033">
        <ele>30.8</ele>
        <time>2024-12-19T13:52:52Z</time>
      </trkpt>
      <trkpt lat="47.92182" lon="-2.49034">
        <ele>30.8</ele>
        <time>2024-12-19T13:52:53Z</time>
      </trkpt>
      <trkpt lat="47.92182" lon="-2.49036">
        <ele>30.8</ele>
        <time>2024-12-19T13:52:54Z</time>
      </trkpt>
      <trkpt lat="47.92183" lon="-2.49037">
        <ele>30.8</ele>
        <time>2024-12-19T13:52:55Z</time>
      </trkpt>
      <trkpt lat="47.92184" lon="-2.49039">
        <ele>30.8</ele>
        <time>2024-12-19T13:52:56Z</time>
      </trkpt>
      <trkpt lat="47.92185" lon="-2.49041">
        <ele>30.8</ele>
        <time>2024-12-19T13:52:57Z</time>
      </trkpt>
      <trkpt lat="47.92185" lon="-2.49043">
        <ele>30.8</ele>
        <time>2024-12-19T13:52:58Z</time>
      </trkpt>
      <trkpt lat="47.92186" lon="-2.49044">
        <ele>30.8</ele>
        <time>2024-12-19T13:52:59Z</time>
      </trkpt>
      <trkpt lat="47.92187" lon="-2.49045">
        <ele>30.9</ele>
        <time>2024-12-19T13:53:00Z</time>
      </trkpt>
      <trkpt lat="47.92189" lon="-2.49045">
        <ele>31</ele>
        <time>2024-12-19T13:53:01Z</time>
      </trkpt>
      <trkpt lat="47.9219" lon="-2.49047">
        <ele>31.1</ele>
        <time>2024-12-19T13:53:02Z</time>
      </trkpt>
      <trkpt lat="47.9219" lon="-2.49048">
        <ele>31.1</ele>
        <time>2024-12-19T13:53:03Z</time>
      </trkpt>
      <trkpt lat="47.92191" lon="-2.49049">
        <ele>31.1</ele>
        <time>2024-12-19T13:53:04Z</time>
      </trkpt>
      <trkpt lat="47.92192" lon="-2.4905">
        <ele>31</ele>
        <time>2024-12-19T13:53:05Z</time>
      </trkpt>
      <trkpt lat="47.92192" lon="-2.49053">
        <ele>30.9</ele>
        <time>2024-12-19T13:53:06Z</time>
      </trkpt>
      <trkpt lat="47.92192" lon="-2.49056">
        <ele>30.8</ele>
        <time>2024-12-19T13:53:07Z</time>
      </trkpt>
      <trkpt lat="47.92193" lon="-2.49058">
        <ele>30.6</ele>
        <time>2024-12-19T13:53:08Z</time>
      </trkpt>
      <trkpt lat="47.92194" lon="-2.4906">
        <ele>30.6</ele>
        <time>2024-12-19T13:53:09Z</time>
      </trkpt>
      <trkpt lat="47.92195" lon="-2.49062">
        <ele>30.7</ele>
        <time>2024-12-19T13:53:10Z</time>
      </trkpt>
      <trkpt lat="47.92196" lon="-2.49063">
        <ele>30.9</ele>
        <time>2024-12-19T13:53:11Z</time>
      </trkpt>
      <trkpt lat="47.92198" lon="-2.49065">
        <ele>31.2</ele>
        <time>2024-12-19T13:53:12Z</time>
      </trkpt>
      <trkpt lat="47.92199" lon="-2.49066">
        <ele>31.3</ele>
        <time>2024-12-19T13:53:13Z</time>
      </trkpt>
      <trkpt lat="47.922" lon="-2.49067">
        <ele>31.5</ele>
        <time>2024-12-19T13:53:14Z</time>
      </trkpt>
      <trkpt lat="47.922" lon="-2.49069">
        <ele>31.5</ele>
        <time>2024-12-19T13:53:15Z</time>
      </trkpt>
      <trkpt lat="47.92201" lon="-2.49071">
        <ele>31.5</ele>
        <time>2024-12-19T13:53:16Z</time>
      </trkpt>
      <trkpt lat="47.92201" lon="-2.49073">
        <ele>31.4</ele>
        <time>2024-12-19T13:53:17Z</time>
      </trkpt>
      <trkpt lat="47.92202" lon="-2.49076">
        <ele>31.3</ele>
        <time>2024-12-19T13:53:18Z</time>
      </trkpt>
      <trkpt lat="47.92202" lon="-2.49078">
        <ele>31.2</ele>
        <time>2024-12-19T13:53:19Z</time>
      </trkpt>
      <trkpt lat="47.92203" lon="-2.49079">
        <ele>31.1</ele>
        <time>2024-12-19T13:53:20Z</time>
      </trkpt>
      <trkpt lat="47.92203" lon="-2.49081">
        <ele>31.1</ele>
        <time>2024-12-19T13:53:21Z</time>
      </trkpt>
      <trkpt lat="47.92204" lon="-2.49083">
        <ele>30.9</ele>
        <time>2024-12-19T13:53:22Z</time>
      </trkpt>
      <trkpt lat="47.92204" lon="-2.49085">
        <ele>30.9</ele>
        <time>2024-12-19T13:53:23Z</time>
      </trkpt>
      <trkpt lat="47.92205" lon="-2.49087">
        <ele>31</ele>
        <time>2024-12-19T13:53:24Z</time>
      </trkpt>
      <trkpt lat="47.92206" lon="-2.49088">
        <ele>31</ele>
        <time>2024-12-19T13:53:25Z</time>
      </trkpt>
      <trkpt lat="47.92207" lon="-2.4909">
        <ele>31</ele>
        <time>2024-12-19T13:53:26Z</time>
      </trkpt>
      <trkpt lat="47.92208" lon="-2.49092">
        <ele>31</ele>
        <time>2024-12-19T13:53:27Z</time>
      </trkpt>
      <trkpt lat="47.92209" lon="-2.49094">
        <ele>30.9</ele>
        <time>2024-12-19T13:53:28Z</time>
      </trkpt>
      <trkpt lat="47.92209" lon="-2.49097">
        <ele>30.8</ele>
        <time>2024-12-19T13:53:29Z</time>
      </trkpt>
      <trkpt lat="47.9221" lon="-2.49098">
        <ele>30.6</ele>
        <time>2024-12-19T13:53:30Z</time>
      </trkpt>
      <trkpt lat="47.9221" lon="-2.49099">
        <ele>30.6</ele>
        <time>2024-12-19T13:53:31Z</time>
      </trkpt>
      <trkpt lat="47.9221" lon="-2.491">
        <ele>30.5</ele>
        <time>2024-12-19T13:53:32Z</time>
      </trkpt>
      <trkpt lat="47.9221" lon="-2.49102">
        <ele>30.3</ele>
        <time>2024-12-19T13:53:33Z</time>
      </trkpt>
      <trkpt lat="47.92211" lon="-2.49104">
        <ele>30.1</ele>
        <time>2024-12-19T13:53:34Z</time>
      </trkpt>
      <trkpt lat="47.92211" lon="-2.49106">
        <ele>29.9</ele>
        <time>2024-12-19T13:53:35Z</time>
      </trkpt>
      <trkpt lat="47.92211" lon="-2.49108">
        <ele>29.7</ele>
        <time>2024-12-19T13:53:36Z</time>
      </trkpt>
      <trkpt lat="47.92211" lon="-2.4911">
        <ele>29.6</ele>
        <time>2024-12-19T13:53:37Z</time>
      </trkpt>
      <trkpt lat="47.92212" lon="-2.49111">
        <ele>29.5</ele>
        <time>2024-12-19T13:53:38Z</time>
      </trkpt>
      <trkpt lat="47.92212" lon="-2.49113">
        <ele>29.4</ele>
        <time>2024-12-19T13:53:39Z</time>
      </trkpt>
      <trkpt lat="47.92213" lon="-2.49114">
        <ele>29.5</ele>
        <time>2024-12-19T13:53:40Z</time>
      </trkpt>
      <trkpt lat="47.92214" lon="-2.49114">
        <ele>29.5</ele>
        <time>2024-12-19T13:53:41Z</time>
      </trkpt>
      <trkpt lat="47.92214" lon="-2.49115">
        <ele>29.6</ele>
        <time>2024-12-19T13:53:42Z</time>
      </trkpt>
      <trkpt lat="47.92215" lon="-2.49116">
        <ele>29.6</ele>
        <time>2024-12-19T13:53:43Z</time>
      </trkpt>
      <trkpt lat="47.92216" lon="-2.49117">
        <ele>29.6</ele>
        <time>2024-12-19T13:53:44Z</time>
      </trkpt>
      <trkpt lat="47.92217" lon="-2.49118">
        <ele>29.6</ele>
        <time>2024-12-19T13:53:45Z</time>
      </trkpt>
      <trkpt lat="47.92217" lon="-2.49119">
        <ele>29.5</ele>
        <time>2024-12-19T13:53:46Z</time>
      </trkpt>
      <trkpt lat="47.92218" lon="-2.49121">
        <ele>29.5</ele>
        <time>2024-12-19T13:53:47Z</time>
      </trkpt>
      <trkpt lat="47.92218" lon="-2.49122">
        <ele>29.4</ele>
        <time>2024-12-19T13:53:48Z</time>
      </trkpt>
      <trkpt lat="47.92219" lon="-2.49121">
        <ele>29.5</ele>
        <time>2024-12-19T13:53:49Z</time>
      </trkpt>
      <trkpt lat="47.92219" lon="-2.49121">
        <ele>29.6</ele>
        <time>2024-12-19T13:53:50Z</time>
      </trkpt>
      <trkpt lat="47.9222" lon="-2.49122">
        <ele>29.5</ele>
        <time>2024-12-19T13:53:51Z</time>
      </trkpt>
      <trkpt lat="47.92221" lon="-2.49124">
        <ele>29.5</ele>
        <time>2024-12-19T13:53:52Z</time>
      </trkpt>
      <trkpt lat="47.92222" lon="-2.49126">
        <ele>29.4</ele>
        <time>2024-12-19T13:53:53Z</time>
      </trkpt>
      <trkpt lat="47.92222" lon="-2.49127">
        <ele>29.2</ele>
        <time>2024-12-19T13:53:54Z</time>
      </trkpt>
      <trkpt lat="47.92222" lon="-2.49129">
        <ele>29.1</ele>
        <time>2024-12-19T13:53:55Z</time>
      </trkpt>
      <trkpt lat="47.92223" lon="-2.49129">
        <ele>29.2</ele>
        <time>2024-12-19T13:53:56Z</time>
      </trkpt>
      <trkpt lat="47.92223" lon="-2.49129">
        <ele>29.3</ele>
        <time>2024-12-19T13:53:57Z</time>
      </trkpt>
      <trkpt lat="47.92224" lon="-2.4913">
        <ele>29.4</ele>
        <time>2024-12-19T13:53:58Z</time>
      </trkpt>
      <trkpt lat="47.92225" lon="-2.49131">
        <ele>29.5</ele>
        <time>2024-12-19T13:53:59Z</time>
      </trkpt>
      <trkpt lat="47.92225" lon="-2.49131">
        <ele>29.6</ele>
        <time>2024-12-19T13:54:00Z</time>
      </trkpt>
      <trkpt lat="47.92227" lon="-2.49132">
        <ele>29.7</ele>
        <time>2024-12-19T13:54:01Z</time>
      </trkpt>
      <trkpt lat="47.92228" lon="-2.49134">
        <ele>29.9</ele>
        <time>2024-12-19T13:54:02Z</time>
      </trkpt>
      <trkpt lat="47.9223" lon="-2.49136">
        <ele>30</ele>
        <time>2024-12-19T13:54:03Z</time>
      </trkpt>
      <trkpt lat="47.92231" lon="-2.49138">
        <ele>30.1</ele>
        <time>2024-12-19T13:54:04Z</time>
      </trkpt>
      <trkpt lat="47.92233" lon="-2.49139">
        <ele>30.2</ele>
        <time>2024-12-19T13:54:05Z</time>
      </trkpt>
      <trkpt lat="47.92234" lon="-2.49141">
        <ele>30.3</ele>
        <time>2024-12-19T13:54:06Z</time>
      </trkpt>
      <trkpt lat="47.92235" lon="-2.49142">
        <ele>30.4</ele>
        <time>2024-12-19T13:54:07Z</time>
      </trkpt>
      <trkpt lat="47.92236" lon="-2.49144">
        <ele>30.5</ele>
        <time>2024-12-19T13:54:08Z</time>
      </trkpt>
      <trkpt lat="47.92237" lon="-2.49145">
        <ele>30.7</ele>
        <time>2024-12-19T13:54:09Z</time>
      </trkpt>
      <trkpt lat="47.92238" lon="-2.49146">
        <ele>30.8</ele>
        <time>2024-12-19T13:54:10Z</time>
      </trkpt>
      <trkpt lat="47.92239" lon="-2.49147">
        <ele>30.9</ele>
        <time>2024-12-19T13:54:11Z</time>
      </trkpt>
      <trkpt lat="47.92241" lon="-2.49148">
        <ele>31</ele>
        <time>2024-12-19T13:54:12Z</time>
      </trkpt>
      <trkpt lat="47.92242" lon="-2.4915">
        <ele>31.1</ele>
        <time>2024-12-19T13:54:13Z</time>
      </trkpt>
      <trkpt lat="47.92243" lon="-2.49151">
        <ele>31.1</ele>
        <time>2024-12-19T13:54:14Z</time>
      </trkpt>
      <trkpt lat="47.92245" lon="-2.49155">
        <ele>30.9</ele>
        <time>2024-12-19T13:54:16Z</time>
      </trkpt>
      <trkpt lat="47.92246" lon="-2.49156">
        <ele>30.9</ele>
        <time>2024-12-19T13:54:17Z</time>
      </trkpt>
      <trkpt lat="47.92247" lon="-2.49158">
        <ele>30.8</ele>
        <time>2024-12-19T13:54:18Z</time>
      </trkpt>
      <trkpt lat="47.92248" lon="-2.49159">
        <ele>30.8</ele>
        <time>2024-12-19T13:54:19Z</time>
      </trkpt>
      <trkpt lat="47.92249" lon="-2.4916">
        <ele>30.7</ele>
        <time>2024-12-19T13:54:20Z</time>
      </trkpt>
      <trkpt lat="47.92249" lon="-2.49161">
        <ele>30.7</ele>
        <time>2024-12-19T13:54:21Z</time>
      </trkpt>
      <trkpt lat="47.92249" lon="-2.49161">
        <ele>30.7</ele>
        <time>2024-12-19T13:54:22Z</time>
      </trkpt>
      <trkpt lat="47.9225" lon="-2.49162">
        <ele>30.6</ele>
        <time>2024-12-19T13:54:23Z</time>
      </trkpt>
      <trkpt lat="47.92251" lon="-2.49164">
        <ele>30.7</ele>
        <time>2024-12-19T13:54:24Z</time>
      </trkpt>
      <trkpt lat="47.92252" lon="-2.49165">
        <ele>30.7</ele>
        <time>2024-12-19T13:54:25Z</time>
      </trkpt>
      <trkpt lat="47.92253" lon="-2.49167">
        <ele>30.6</ele>
        <time>2024-12-19T13:54:26Z</time>
      </trkpt>
      <trkpt lat="47.92253" lon="-2.49169">
        <ele>30.6</ele>
        <time>2024-12-19T13:54:27Z</time>
      </trkpt>
      <trkpt lat="47.92254" lon="-2.49171">
        <ele>30.6</ele>
        <time>2024-12-19T13:54:28Z</time>
      </trkpt>
      <trkpt lat="47.92254" lon="-2.49173">
        <ele>30.6</ele>
        <time>2024-12-19T13:54:29Z</time>
      </trkpt>
      <trkpt lat="47.92255" lon="-2.49175">
        <ele>30.6</ele>
        <time>2024-12-19T13:54:30Z</time>
      </trkpt>
      <trkpt lat="47.92255" lon="-2.49176">
        <ele>30.6</ele>
        <time>2024-12-19T13:54:31Z</time>
      </trkpt>
      <trkpt lat="47.92255" lon="-2.49177">
        <ele>30.5</ele>
        <time>2024-12-19T13:54:32Z</time>
      </trkpt>
      <trkpt lat="47.92256" lon="-2.49178">
        <ele>30.6</ele>
        <time>2024-12-19T13:54:33Z</time>
      </trkpt>
      <trkpt lat="47.92257" lon="-2.49178">
        <ele>30.8</ele>
        <time>2024-12-19T13:54:34Z</time>
      </trkpt>
      <trkpt lat="47.92258" lon="-2.4918">
        <ele>30.9</ele>
        <time>2024-12-19T13:54:35Z</time>
      </trkpt>
      <trkpt lat="47.92259" lon="-2.49181">
        <ele>31</ele>
        <time>2024-12-19T13:54:36Z</time>
      </trkpt>
      <trkpt lat="47.92259" lon="-2.49182">
        <ele>30.9</ele>
        <time>2024-12-19T13:54:37Z</time>
      </trkpt>
      <trkpt lat="47.92259" lon="-2.49184">
        <ele>30.8</ele>
        <time>2024-12-19T13:54:38Z</time>
      </trkpt>
      <trkpt lat="47.92258" lon="-2.49184">
        <ele>30.7</ele>
        <time>2024-12-19T13:54:39Z</time>
      </trkpt>
      <trkpt lat="47.92259" lon="-2.49183">
        <ele>30.8</ele>
        <time>2024-12-19T13:54:40Z</time>
      </trkpt>
      <trkpt lat="47.92259" lon="-2.49183">
        <ele>30.9</ele>
        <time>2024-12-19T13:54:41Z</time>
      </trkpt>
      <trkpt lat="47.92259" lon="-2.49185">
        <ele>30.8</ele>
        <time>2024-12-19T13:54:42Z</time>
      </trkpt>
      <trkpt lat="47.9226" lon="-2.49187">
        <ele>30.8</ele>
        <time>2024-12-19T13:54:43Z</time>
      </trkpt>
      <trkpt lat="47.92261" lon="-2.49189">
        <ele>30.8</ele>
        <time>2024-12-19T13:54:44Z</time>
      </trkpt>
      <trkpt lat="47.92262" lon="-2.4919">
        <ele>30.9</ele>
        <time>2024-12-19T13:54:45Z</time>
      </trkpt>
      <trkpt lat="47.92263" lon="-2.49191">
        <ele>31</ele>
        <time>2024-12-19T13:54:46Z</time>
      </trkpt>
      <trkpt lat="47.92264" lon="-2.49193">
        <ele>31.2</ele>
        <time>2024-12-19T13:54:47Z</time>
      </trkpt>
      <trkpt lat="47.92265" lon="-2.49194">
        <ele>31.2</ele>
        <time>2024-12-19T13:54:48Z</time>
      </trkpt>
      <trkpt lat="47.92266" lon="-2.49196">
        <ele>31.2</ele>
        <time>2024-12-19T13:54:49Z</time>
      </trkpt>
      <trkpt lat="47.92266" lon="-2.49197">
        <ele>31.2</ele>
        <time>2024-12-19T13:54:50Z</time>
      </trkpt>
      <trkpt lat="47.92267" lon="-2.49198">
        <ele>31.2</ele>
        <time>2024-12-19T13:54:51Z</time>
      </trkpt>
      <trkpt lat="47.92267" lon="-2.49199">
        <ele>31.2</ele>
        <time>2024-12-19T13:54:52Z</time>
      </trkpt>
      <trkpt lat="47.92269" lon="-2.49201">
        <ele>31.2</ele>
        <time>2024-12-19T13:54:53Z</time>
      </trkpt>
      <trkpt lat="47.9227" lon="-2.49203">
        <ele>31.2</ele>
        <time>2024-12-19T13:54:54Z</time>
      </trkpt>
      <trkpt lat="47.9227" lon="-2.49205">
        <ele>31.1</ele>
        <time>2024-12-19T13:54:55Z</time>
      </trkpt>
      <trkpt lat="47.92271" lon="-2.49206">
        <ele>31</ele>
        <time>2024-12-19T13:54:56Z</time>
      </trkpt>
      <trkpt lat="47.92271" lon="-2.49207">
        <ele>30.9</ele>
        <time>2024-12-19T13:54:57Z</time>
      </trkpt>
      <trkpt lat="47.92272" lon="-2.4921">
        <ele>30.7</ele>
        <time>2024-12-19T13:54:58Z</time>
      </trkpt>
      <trkpt lat="47.92273" lon="-2.49212">
        <ele>30.6</ele>
        <time>2024-12-19T13:54:59Z</time>
      </trkpt>
      <trkpt lat="47.92273" lon="-2.49214">
        <ele>30.4</ele>
        <time>2024-12-19T13:55:00Z</time>
      </trkpt>
      <trkpt lat="47.92274" lon="-2.49216">
        <ele>30.3</ele>
        <time>2024-12-19T13:55:01Z</time>
      </trkpt>
      <trkpt lat="47.92275" lon="-2.49218">
        <ele>30.2</ele>
        <time>2024-12-19T13:55:02Z</time>
      </trkpt>
      <trkpt lat="47.92275" lon="-2.49219">
        <ele>30.1</ele>
        <time>2024-12-19T13:55:03Z</time>
      </trkpt>
      <trkpt lat="47.92275" lon="-2.49218">
        <ele>30.2</ele>
        <time>2024-12-19T13:55:04Z</time>
      </trkpt>
      <trkpt lat="47.92276" lon="-2.49219">
        <ele>30.2</ele>
        <time>2024-12-19T13:55:05Z</time>
      </trkpt>
      <trkpt lat="47.92277" lon="-2.49221">
        <ele>30.2</ele>
        <time>2024-12-19T13:55:06Z</time>
      </trkpt>
      <trkpt lat="47.92278" lon="-2.49221">
        <ele>30.2</ele>
        <time>2024-12-19T13:55:07Z</time>
      </trkpt>
      <trkpt lat="47.92279" lon="-2.49222">
        <ele>30.3</ele>
        <time>2024-12-19T13:55:08Z</time>
      </trkpt>
      <trkpt lat="47.92279" lon="-2.49222">
        <ele>30.5</ele>
        <time>2024-12-19T13:55:09Z</time>
      </trkpt>
      <trkpt lat="47.9228" lon="-2.4922">
        <ele>30.9</ele>
        <time>2024-12-19T13:55:10Z</time>
      </trkpt>
      <trkpt lat="47.92281" lon="-2.49219">
        <ele>31.3</ele>
        <time>2024-12-19T13:55:11Z</time>
      </trkpt>
      <trkpt lat="47.92282" lon="-2.49219">
        <ele>31.5</ele>
        <time>2024-12-19T13:55:12Z</time>
      </trkpt>
      <trkpt lat="47.92283" lon="-2.4922">
        <ele>31.7</ele>
        <time>2024-12-19T13:55:13Z</time>
      </trkpt>
      <trkpt lat="47.92283" lon="-2.49221">
        <ele>31.8</ele>
        <time>2024-12-19T13:55:14Z</time>
      </trkpt>
      <trkpt lat="47.92284" lon="-2.49221">
        <ele>32</ele>
        <time>2024-12-19T13:55:15Z</time>
      </trkpt>
      <trkpt lat="47.92285" lon="-2.49222">
        <ele>32.1</ele>
        <time>2024-12-19T13:55:16Z</time>
      </trkpt>
      <trkpt lat="47.92286" lon="-2.49223">
        <ele>32.4</ele>
        <time>2024-12-19T13:55:17Z</time>
      </trkpt>
      <trkpt lat="47.92287" lon="-2.49225">
        <ele>32.6</ele>
        <time>2024-12-19T13:55:18Z</time>
      </trkpt>
      <trkpt lat="47.92288" lon="-2.49227">
        <ele>32.8</ele>
        <time>2024-12-19T13:55:19Z</time>
      </trkpt>
      <trkpt lat="47.92289" lon="-2.4923">
        <ele>33.1</ele>
        <time>2024-12-19T13:55:20Z</time>
      </trkpt>
      <trkpt lat="47.9229" lon="-2.49232">
        <ele>33.3</ele>
        <time>2024-12-19T13:55:21Z</time>
      </trkpt>
      <trkpt lat="47.9229" lon="-2.49233">
        <ele>33.4</ele>
        <time>2024-12-19T13:55:22Z</time>
      </trkpt>
      <trkpt lat="47.9229" lon="-2.49235">
        <ele>33.4</ele>
        <time>2024-12-19T13:55:23Z</time>
      </trkpt>
      <trkpt lat="47.9229" lon="-2.49237">
        <ele>33.5</ele>
        <time>2024-12-19T13:55:24Z</time>
      </trkpt>
      <trkpt lat="47.9229" lon="-2.49239">
        <ele>33.5</ele>
        <time>2024-12-19T13:55:25Z</time>
      </trkpt>
      <trkpt lat="47.92291" lon="-2.49241">
        <ele>33.5</ele>
        <time>2024-12-19T13:55:26Z</time>
      </trkpt>
      <trkpt lat="47.92291" lon="-2.49244">
        <ele>33.8</ele>
        <time>2024-12-19T13:55:27Z</time>
      </trkpt>
      <trkpt lat="47.92292" lon="-2.49247">
        <ele>34.3</ele>
        <time>2024-12-19T13:55:28Z</time>
      </trkpt>
      <trkpt lat="47.92293" lon="-2.49249">
        <ele>34.7</ele>
        <time>2024-12-19T13:55:29Z</time>
      </trkpt>
      <trkpt lat="47.92295" lon="-2.49251">
        <ele>35.1</ele>
        <time>2024-12-19T13:55:30Z</time>
      </trkpt>
      <trkpt lat="47.92296" lon="-2.49253">
        <ele>35.1</ele>
        <time>2024-12-19T13:55:31Z</time>
      </trkpt>
      <trkpt lat="47.92296" lon="-2.49255">
        <ele>34.9</ele>
        <time>2024-12-19T13:55:32Z</time>
      </trkpt>
      <trkpt lat="47.92297" lon="-2.49258">
        <ele>34.6</ele>
        <time>2024-12-19T13:55:33Z</time>
      </trkpt>
      <trkpt lat="47.92298" lon="-2.49259">
        <ele>34.6</ele>
        <time>2024-12-19T13:55:34Z</time>
      </trkpt>
      <trkpt lat="47.92298" lon="-2.49261">
        <ele>34.5</ele>
        <time>2024-12-19T13:55:35Z</time>
      </trkpt>
      <trkpt lat="47.92298" lon="-2.49263">
        <ele>34.1</ele>
        <time>2024-12-19T13:55:36Z</time>
      </trkpt>
      <trkpt lat="47.92299" lon="-2.49265">
        <ele>33.6</ele>
        <time>2024-12-19T13:55:37Z</time>
      </trkpt>
      <trkpt lat="47.92299" lon="-2.49268">
        <ele>33.4</ele>
        <time>2024-12-19T13:55:38Z</time>
      </trkpt>
      <trkpt lat="47.92299" lon="-2.4927">
        <ele>33</ele>
        <time>2024-12-19T13:55:39Z</time>
      </trkpt>
      <trkpt lat="47.923" lon="-2.49271">
        <ele>32.8</ele>
        <time>2024-12-19T13:55:40Z</time>
      </trkpt>
      <trkpt lat="47.923" lon="-2.49272">
        <ele>32.8</ele>
        <time>2024-12-19T13:55:41Z</time>
      </trkpt>
      <trkpt lat="47.92301" lon="-2.49273">
        <ele>32.9</ele>
        <time>2024-12-19T13:55:42Z</time>
      </trkpt>
      <trkpt lat="47.92302" lon="-2.49274">
        <ele>32.8</ele>
        <time>2024-12-19T13:55:43Z</time>
      </trkpt>
      <trkpt lat="47.92302" lon="-2.49275">
        <ele>32.6</ele>
        <time>2024-12-19T13:55:44Z</time>
      </trkpt>
      <trkpt lat="47.92302" lon="-2.49277">
        <ele>32.3</ele>
        <time>2024-12-19T13:55:45Z</time>
      </trkpt>
      <trkpt lat="47.92303" lon="-2.49279">
        <ele>32.1</ele>
        <time>2024-12-19T13:55:46Z</time>
      </trkpt>
      <trkpt lat="47.92303" lon="-2.4928">
        <ele>31.9</ele>
        <time>2024-12-19T13:55:47Z</time>
      </trkpt>
      <trkpt lat="47.92304" lon="-2.49282">
        <ele>31.8</ele>
        <time>2024-12-19T13:55:48Z</time>
      </trkpt>
      <trkpt lat="47.92305" lon="-2.49284">
        <ele>31.7</ele>
        <time>2024-12-19T13:55:49Z</time>
      </trkpt>
      <trkpt lat="47.92305" lon="-2.49285">
        <ele>31.6</ele>
        <time>2024-12-19T13:55:50Z</time>
      </trkpt>
      <trkpt lat="47.92306" lon="-2.49287">
        <ele>31.7</ele>
        <time>2024-12-19T13:55:51Z</time>
      </trkpt>
      <trkpt lat="47.92307" lon="-2.49289">
        <ele>31.7</ele>
        <time>2024-12-19T13:55:52Z</time>
      </trkpt>
      <trkpt lat="47.92308" lon="-2.4929">
        <ele>31.9</ele>
        <time>2024-12-19T13:55:53Z</time>
      </trkpt>
      <trkpt lat="47.92309" lon="-2.49292">
        <ele>32.1</ele>
        <time>2024-12-19T13:55:54Z</time>
      </trkpt>
      <trkpt lat="47.9231" lon="-2.49294">
        <ele>32.2</ele>
        <time>2024-12-19T13:55:55Z</time>
      </trkpt>
      <trkpt lat="47.92311" lon="-2.49295">
        <ele>32.2</ele>
        <time>2024-12-19T13:55:56Z</time>
      </trkpt>
      <trkpt lat="47.92312" lon="-2.49296">
        <ele>32.3</ele>
        <time>2024-12-19T13:55:57Z</time>
      </trkpt>
      <trkpt lat="47.92312" lon="-2.49298">
        <ele>32.3</ele>
        <time>2024-12-19T13:55:58Z</time>
      </trkpt>
      <trkpt lat="47.92313" lon="-2.493">
        <ele>32.3</ele>
        <time>2024-12-19T13:55:59Z</time>
      </trkpt>
      <trkpt lat="47.92313" lon="-2.49301">
        <ele>32.4</ele>
        <time>2024-12-19T13:56:00Z</time>
      </trkpt>
      <trkpt lat="47.92314" lon="-2.49301">
        <ele>32.7</ele>
        <time>2024-12-19T13:56:01Z</time>
      </trkpt>
      <trkpt lat="47.92315" lon="-2.49302">
        <ele>32.9</ele>
        <time>2024-12-19T13:56:02Z</time>
      </trkpt>
      <trkpt lat="47.92316" lon="-2.49303">
        <ele>33.3</ele>
        <time>2024-12-19T13:56:03Z</time>
      </trkpt>
      <trkpt lat="47.92317" lon="-2.49304">
        <ele>33.6</ele>
        <time>2024-12-19T13:56:04Z</time>
      </trkpt>
      <trkpt lat="47.92318" lon="-2.49305">
        <ele>33.8</ele>
        <time>2024-12-19T13:56:05Z</time>
      </trkpt>
      <trkpt lat="47.92318" lon="-2.49306">
        <ele>33.8</ele>
        <time>2024-12-19T13:56:06Z</time>
      </trkpt>
      <trkpt lat="47.92318" lon="-2.49306">
        <ele>33.7</ele>
        <time>2024-12-19T13:56:07Z</time>
      </trkpt>
      <trkpt lat="47.92318" lon="-2.49308">
        <ele>33.7</ele>
        <time>2024-12-19T13:56:08Z</time>
      </trkpt>
      <trkpt lat="47.92319" lon="-2.4931">
        <ele>33.8</ele>
        <time>2024-12-19T13:56:09Z</time>
      </trkpt>
      <trkpt lat="47.9232" lon="-2.49312">
        <ele>33.9</ele>
        <time>2024-12-19T13:56:10Z</time>
      </trkpt>
      <trkpt lat="47.9232" lon="-2.49313">
        <ele>33.8</ele>
        <time>2024-12-19T13:56:11Z</time>
      </trkpt>
      <trkpt lat="47.9232" lon="-2.49315">
        <ele>33.8</ele>
        <time>2024-12-19T13:56:12Z</time>
      </trkpt>
      <trkpt lat="47.92321" lon="-2.49317">
        <ele>33.9</ele>
        <time>2024-12-19T13:56:13Z</time>
      </trkpt>
      <trkpt lat="47.92322" lon="-2.49319">
        <ele>33.9</ele>
        <time>2024-12-19T13:56:14Z</time>
      </trkpt>
      <trkpt lat="47.92322" lon="-2.4932">
        <ele>33.9</ele>
        <time>2024-12-19T13:56:15Z</time>
      </trkpt>
      <trkpt lat="47.92322" lon="-2.49321">
        <ele>33.9</ele>
        <time>2024-12-19T13:56:16Z</time>
      </trkpt>
      <trkpt lat="47.92322" lon="-2.49322">
        <ele>34</ele>
        <time>2024-12-19T13:56:17Z</time>
      </trkpt>
      <trkpt lat="47.92323" lon="-2.49324">
        <ele>34</ele>
        <time>2024-12-19T13:56:18Z</time>
      </trkpt>
      <trkpt lat="47.92323" lon="-2.49325">
        <ele>33.9</ele>
        <time>2024-12-19T13:56:19Z</time>
      </trkpt>
      <trkpt lat="47.92323" lon="-2.49327">
        <ele>33.7</ele>
        <time>2024-12-19T13:56:20Z</time>
      </trkpt>
      <trkpt lat="47.92323" lon="-2.49328">
        <ele>33.7</ele>
        <time>2024-12-19T13:56:21Z</time>
      </trkpt>
      <trkpt lat="47.92324" lon="-2.49329">
        <ele>33.7</ele>
        <time>2024-12-19T13:56:22Z</time>
      </trkpt>
      <trkpt lat="47.92325" lon="-2.4933">
        <ele>33.9</ele>
        <time>2024-12-19T13:56:23Z</time>
      </trkpt>
      <trkpt lat="47.92325" lon="-2.49331">
        <ele>34</ele>
        <time>2024-12-19T13:56:24Z</time>
      </trkpt>
      <trkpt lat="47.92325" lon="-2.49332">
        <ele>33.9</ele>
        <time>2024-12-19T13:56:25Z</time>
      </trkpt>
      <trkpt lat="47.92325" lon="-2.49334">
        <ele>33.7</ele>
        <time>2024-12-19T13:56:26Z</time>
      </trkpt>
      <trkpt lat="47.92326" lon="-2.49336">
        <ele>33.4</ele>
        <time>2024-12-19T13:56:27Z</time>
      </trkpt>
      <trkpt lat="47.92326" lon="-2.49338">
        <ele>33.1</ele>
        <time>2024-12-19T13:56:28Z</time>
      </trkpt>
      <trkpt lat="47.92327" lon="-2.4934">
        <ele>32.9</ele>
        <time>2024-12-19T13:56:29Z</time>
      </trkpt>
      <trkpt lat="47.92328" lon="-2.49342">
        <ele>32.8</ele>
        <time>2024-12-19T13:56:30Z</time>
      </trkpt>
      <trkpt lat="47.92329" lon="-2.49343">
        <ele>32.9</ele>
        <time>2024-12-19T13:56:31Z</time>
      </trkpt>
      <trkpt lat="47.9233" lon="-2.49344">
        <ele>32.8</ele>
        <time>2024-12-19T13:56:32Z</time>
      </trkpt>
      <trkpt lat="47.92331" lon="-2.49346">
        <ele>32.7</ele>
        <time>2024-12-19T13:56:33Z</time>
      </trkpt>
      <trkpt lat="47.92331" lon="-2.49348">
        <ele>32.3</ele>
        <time>2024-12-19T13:56:34Z</time>
      </trkpt>
      <trkpt lat="47.92332" lon="-2.49349">
        <ele>32</ele>
        <time>2024-12-19T13:56:35Z</time>
      </trkpt>
      <trkpt lat="47.92332" lon="-2.4935">
        <ele>31.9</ele>
        <time>2024-12-19T13:56:36Z</time>
      </trkpt>
      <trkpt lat="47.92333" lon="-2.49352">
        <ele>31.7</ele>
        <time>2024-12-19T13:56:37Z</time>
      </trkpt>
      <trkpt lat="47.92334" lon="-2.49353">
        <ele>31.4</ele>
        <time>2024-12-19T13:56:38Z</time>
      </trkpt>
      <trkpt lat="47.92334" lon="-2.49355">
        <ele>31.2</ele>
        <time>2024-12-19T13:56:39Z</time>
      </trkpt>
      <trkpt lat="47.92335" lon="-2.49356">
        <ele>31.1</ele>
        <time>2024-12-19T13:56:40Z</time>
      </trkpt>
      <trkpt lat="47.92335" lon="-2.49357">
        <ele>30.9</ele>
        <time>2024-12-19T13:56:41Z</time>
      </trkpt>
      <trkpt lat="47.92335" lon="-2.49357">
        <ele>30.8</ele>
        <time>2024-12-19T13:56:42Z</time>
      </trkpt>
      <trkpt lat="47.92335" lon="-2.49358">
        <ele>30.5</ele>
        <time>2024-12-19T13:56:43Z</time>
      </trkpt>
      <trkpt lat="47.92335" lon="-2.4936">
        <ele>30.2</ele>
        <time>2024-12-19T13:56:44Z</time>
      </trkpt>
      <trkpt lat="47.92335" lon="-2.49363">
        <ele>29.7</ele>
        <time>2024-12-19T13:56:46Z</time>
      </trkpt>
      <trkpt lat="47.92335" lon="-2.49364">
        <ele>29.6</ele>
        <time>2024-12-19T13:56:47Z</time>
      </trkpt>
      <trkpt lat="47.92335" lon="-2.49366">
        <ele>29.6</ele>
        <time>2024-12-19T13:56:48Z</time>
      </trkpt>
      <trkpt lat="47.92336" lon="-2.49368">
        <ele>29.5</ele>
        <time>2024-12-19T13:56:49Z</time>
      </trkpt>
      <trkpt lat="47.92336" lon="-2.49369">
        <ele>29.5</ele>
        <time>2024-12-19T13:56:50Z</time>
      </trkpt>
      <trkpt lat="47.92336" lon="-2.49371">
        <ele>29.5</ele>
        <time>2024-12-19T13:56:51Z</time>
      </trkpt>
      <trkpt lat="47.92336" lon="-2.49373">
        <ele>29.4</ele>
        <time>2024-12-19T13:56:52Z</time>
      </trkpt>
      <trkpt lat="47.92337" lon="-2.49374">
        <ele>29.5</ele>
        <time>2024-12-19T13:56:53Z</time>
      </trkpt>
      <trkpt lat="47.92337" lon="-2.49375">
        <ele>29.7</ele>
        <time>2024-12-19T13:56:54Z</time>
      </trkpt>
      <trkpt lat="47.92338" lon="-2.49376">
        <ele>29.9</ele>
        <time>2024-12-19T13:56:55Z</time>
      </trkpt>
      <trkpt lat="47.92339" lon="-2.49378">
        <ele>30.2</ele>
        <time>2024-12-19T13:56:56Z</time>
      </trkpt>
      <trkpt lat="47.9234" lon="-2.4938">
        <ele>30.5</ele>
        <time>2024-12-19T13:56:57Z</time>
      </trkpt>
      <trkpt lat="47.92341" lon="-2.49381">
        <ele>30.9</ele>
        <time>2024-12-19T13:56:58Z</time>
      </trkpt>
      <trkpt lat="47.92343" lon="-2.49383">
        <ele>31.4</ele>
        <time>2024-12-19T13:56:59Z</time>
      </trkpt>
      <trkpt lat="47.92345" lon="-2.49384">
        <ele>32.1</ele>
        <time>2024-12-19T13:57:00Z</time>
      </trkpt>
      <trkpt lat="47.92346" lon="-2.49385">
        <ele>32.3</ele>
        <time>2024-12-19T13:57:01Z</time>
      </trkpt>
      <trkpt lat="47.92346" lon="-2.49385">
        <ele>32.5</ele>
        <time>2024-12-19T13:57:02Z</time>
      </trkpt>
      <trkpt lat="47.92347" lon="-2.49386">
        <ele>32.7</ele>
        <time>2024-12-19T13:57:03Z</time>
      </trkpt>
      <trkpt lat="47.92348" lon="-2.49387">
        <ele>32.8</ele>
        <time>2024-12-19T13:57:04Z</time>
      </trkpt>
      <trkpt lat="47.92348" lon="-2.49389">
        <ele>32.8</ele>
        <time>2024-12-19T13:57:05Z</time>
      </trkpt>
      <trkpt lat="47.92349" lon="-2.49391">
        <ele>32.7</ele>
        <time>2024-12-19T13:57:06Z</time>
      </trkpt>
      <trkpt lat="47.9235" lon="-2.49393">
        <ele>32.5</ele>
        <time>2024-12-19T13:57:07Z</time>
      </trkpt>
      <trkpt lat="47.9235" lon="-2.49395">
        <ele>32.3</ele>
        <time>2024-12-19T13:57:08Z</time>
      </trkpt>
      <trkpt lat="47.92351" lon="-2.49397">
        <ele>32.1</ele>
        <time>2024-12-19T13:57:09Z</time>
      </trkpt>
      <trkpt lat="47.92352" lon="-2.49398">
        <ele>32.1</ele>
        <time>2024-12-19T13:57:10Z</time>
      </trkpt>
      <trkpt lat="47.92353" lon="-2.494">
        <ele>32</ele>
        <time>2024-12-19T13:57:11Z</time>
      </trkpt>
      <trkpt lat="47.92354" lon="-2.49401">
        <ele>32</ele>
        <time>2024-12-19T13:57:12Z</time>
      </trkpt>
      <trkpt lat="47.92354" lon="-2.49402">
        <ele>31.8</ele>
        <time>2024-12-19T13:57:13Z</time>
      </trkpt>
      <trkpt lat="47.92355" lon="-2.49404">
        <ele>31.7</ele>
        <time>2024-12-19T13:57:14Z</time>
      </trkpt>
      <trkpt lat="47.92356" lon="-2.49405">
        <ele>31.5</ele>
        <time>2024-12-19T13:57:15Z</time>
      </trkpt>
      <trkpt lat="47.92357" lon="-2.49407">
        <ele>31.2</ele>
        <time>2024-12-19T13:57:16Z</time>
      </trkpt>
      <trkpt lat="47.92358" lon="-2.49409">
        <ele>30.9</ele>
        <time>2024-12-19T13:57:17Z</time>
      </trkpt>
      <trkpt lat="47.92359" lon="-2.49411">
        <ele>30.5</ele>
        <time>2024-12-19T13:57:18Z</time>
      </trkpt>
      <trkpt lat="47.9236" lon="-2.49412">
        <ele>30.1</ele>
        <time>2024-12-19T13:57:19Z</time>
      </trkpt>
      <trkpt lat="47.9236" lon="-2.49414">
        <ele>29.7</ele>
        <time>2024-12-19T13:57:20Z</time>
      </trkpt>
      <trkpt lat="47.92361" lon="-2.49416">
        <ele>29.3</ele>
        <time>2024-12-19T13:57:21Z</time>
      </trkpt>
      <trkpt lat="47.92361" lon="-2.49416">
        <ele>29.2</ele>
        <time>2024-12-19T13:57:22Z</time>
      </trkpt>
      <trkpt lat="47.92362" lon="-2.49416">
        <ele>29.4</ele>
        <time>2024-12-19T13:57:23Z</time>
      </trkpt>
      <trkpt lat="47.92362" lon="-2.49416">
        <ele>29.5</ele>
        <time>2024-12-19T13:57:24Z</time>
      </trkpt>
      <trkpt lat="47.92362" lon="-2.49416">
        <ele>29.5</ele>
        <time>2024-12-19T13:57:25Z</time>
      </trkpt>
      <trkpt lat="47.92363" lon="-2.49417">
        <ele>29.3</ele>
        <time>2024-12-19T13:57:26Z</time>
      </trkpt>
      <trkpt lat="47.92364" lon="-2.4942">
        <ele>29.3</ele>
        <time>2024-12-19T13:57:27Z</time>
      </trkpt>
      <trkpt lat="47.92364" lon="-2.49423">
        <ele>29.1</ele>
        <time>2024-12-19T13:57:28Z</time>
      </trkpt>
      <trkpt lat="47.92364" lon="-2.49426">
        <ele>28.9</ele>
        <time>2024-12-19T13:57:29Z</time>
      </trkpt>
      <trkpt lat="47.92364" lon="-2.49429">
        <ele>28.6</ele>
        <time>2024-12-19T13:57:30Z</time>
      </trkpt>
      <trkpt lat="47.92364" lon="-2.49431">
        <ele>28.4</ele>
        <time>2024-12-19T13:57:31Z</time>
      </trkpt>
      <trkpt lat="47.92364" lon="-2.49433">
        <ele>28.3</ele>
        <time>2024-12-19T13:57:32Z</time>
      </trkpt>
      <trkpt lat="47.92364" lon="-2.49435">
        <ele>28.2</ele>
        <time>2024-12-19T13:57:33Z</time>
      </trkpt>
      <trkpt lat="47.92365" lon="-2.49437">
        <ele>28.2</ele>
        <time>2024-12-19T13:57:34Z</time>
      </trkpt>
      <trkpt lat="47.92366" lon="-2.49439">
        <ele>28.1</ele>
        <time>2024-12-19T13:57:35Z</time>
      </trkpt>
      <trkpt lat="47.92367" lon="-2.49442">
        <ele>28.1</ele>
        <time>2024-12-19T13:57:36Z</time>
      </trkpt>
      <trkpt lat="47.92368" lon="-2.49444">
        <ele>28</ele>
        <time>2024-12-19T13:57:37Z</time>
      </trkpt>
      <trkpt lat="47.92368" lon="-2.49445">
        <ele>27.9</ele>
        <time>2024-12-19T13:57:38Z</time>
      </trkpt>
      <trkpt lat="47.92369" lon="-2.49447">
        <ele>28</ele>
        <time>2024-12-19T13:57:39Z</time>
      </trkpt>
      <trkpt lat="47.9237" lon="-2.49449">
        <ele>28</ele>
        <time>2024-12-19T13:57:40Z</time>
      </trkpt>
      <trkpt lat="47.92371" lon="-2.49451">
        <ele>28.1</ele>
        <time>2024-12-19T13:57:41Z</time>
      </trkpt>
      <trkpt lat="47.92372" lon="-2.49452">
        <ele>28.1</ele>
        <time>2024-12-19T13:57:42Z</time>
      </trkpt>
      <trkpt lat="47.92373" lon="-2.49454">
        <ele>28.1</ele>
        <time>2024-12-19T13:57:43Z</time>
      </trkpt>
      <trkpt lat="47.92373" lon="-2.49456">
        <ele>28.1</ele>
        <time>2024-12-19T13:57:44Z</time>
      </trkpt>
      <trkpt lat="47.92374" lon="-2.49459">
        <ele>28.1</ele>
        <time>2024-12-19T13:57:45Z</time>
      </trkpt>
      <trkpt lat="47.92375" lon="-2.49461">
        <ele>28.2</ele>
        <time>2024-12-19T13:57:46Z</time>
      </trkpt>
      <trkpt lat="47.92376" lon="-2.49463">
        <ele>28.2</ele>
        <time>2024-12-19T13:57:47Z</time>
      </trkpt>
      <trkpt lat="47.92377" lon="-2.49463">
        <ele>28.4</ele>
        <time>2024-12-19T13:57:48Z</time>
      </trkpt>
      <trkpt lat="47.92378" lon="-2.49464">
        <ele>28.5</ele>
        <time>2024-12-19T13:57:49Z</time>
      </trkpt>
      <trkpt lat="47.9238" lon="-2.49463">
        <ele>28.8</ele>
        <time>2024-12-19T13:57:50Z</time>
      </trkpt>
      <trkpt lat="47.92381" lon="-2.49464">
        <ele>28.9</ele>
        <time>2024-12-19T13:57:51Z</time>
      </trkpt>
      <trkpt lat="47.92382" lon="-2.49465">
        <ele>29</ele>
        <time>2024-12-19T13:57:52Z</time>
      </trkpt>
      <trkpt lat="47.92382" lon="-2.49466">
        <ele>29.1</ele>
        <time>2024-12-19T13:57:53Z</time>
      </trkpt>
      <trkpt lat="47.92383" lon="-2.49468">
        <ele>29.1</ele>
        <time>2024-12-19T13:57:54Z</time>
      </trkpt>
      <trkpt lat="47.92383" lon="-2.4947">
        <ele>29.1</ele>
        <time>2024-12-19T13:57:55Z</time>
      </trkpt>
      <trkpt lat="47.92384" lon="-2.49472">
        <ele>29.1</ele>
        <time>2024-12-19T13:57:56Z</time>
      </trkpt>
      <trkpt lat="47.92384" lon="-2.49473">
        <ele>29.1</ele>
        <time>2024-12-19T13:57:57Z</time>
      </trkpt>
      <trkpt lat="47.92385" lon="-2.49474">
        <ele>29.2</ele>
        <time>2024-12-19T13:57:58Z</time>
      </trkpt>
      <trkpt lat="47.92386" lon="-2.49476">
        <ele>29.2</ele>
        <time>2024-12-19T13:57:59Z</time>
      </trkpt>
      <trkpt lat="47.92386" lon="-2.49477">
        <ele>29.2</ele>
        <time>2024-12-19T13:58:00Z</time>
      </trkpt>
      <trkpt lat="47.92387" lon="-2.49479">
        <ele>29.2</ele>
        <time>2024-12-19T13:58:01Z</time>
      </trkpt>
      <trkpt lat="47.92387" lon="-2.4948">
        <ele>29.1</ele>
        <time>2024-12-19T13:58:02Z</time>
      </trkpt>
      <trkpt lat="47.92387" lon="-2.49481">
        <ele>29.1</ele>
        <time>2024-12-19T13:58:03Z</time>
      </trkpt>
      <trkpt lat="47.92387" lon="-2.49482">
        <ele>29</ele>
        <time>2024-12-19T13:58:04Z</time>
      </trkpt>
      <trkpt lat="47.92388" lon="-2.49483">
        <ele>29</ele>
        <time>2024-12-19T13:58:05Z</time>
      </trkpt>
      <trkpt lat="47.92388" lon="-2.49486">
        <ele>28.9</ele>
        <time>2024-12-19T13:58:06Z</time>
      </trkpt>
      <trkpt lat="47.92389" lon="-2.49488">
        <ele>28.8</ele>
        <time>2024-12-19T13:58:07Z</time>
      </trkpt>
      <trkpt lat="47.92389" lon="-2.49489">
        <ele>28.8</ele>
        <time>2024-12-19T13:58:08Z</time>
      </trkpt>
      <trkpt lat="47.92389" lon="-2.4949">
        <ele>28.8</ele>
        <time>2024-12-19T13:58:09Z</time>
      </trkpt>
      <trkpt lat="47.9239" lon="-2.49492">
        <ele>28.8</ele>
        <time>2024-12-19T13:58:10Z</time>
      </trkpt>
      <trkpt lat="47.92391" lon="-2.49493">
        <ele>28.9</ele>
        <time>2024-12-19T13:58:11Z</time>
      </trkpt>
      <trkpt lat="47.92392" lon="-2.49495">
        <ele>29</ele>
        <time>2024-12-19T13:58:12Z</time>
      </trkpt>
      <trkpt lat="47.92393" lon="-2.49496">
        <ele>29</ele>
        <time>2024-12-19T13:58:13Z</time>
      </trkpt>
      <trkpt lat="47.92394" lon="-2.49498">
        <ele>29</ele>
        <time>2024-12-19T13:58:14Z</time>
      </trkpt>
      <trkpt lat="47.92395" lon="-2.495">
        <ele>29.1</ele>
        <time>2024-12-19T13:58:15Z</time>
      </trkpt>
      <trkpt lat="47.92396" lon="-2.49502">
        <ele>29.1</ele>
        <time>2024-12-19T13:58:16Z</time>
      </trkpt>
      <trkpt lat="47.92397" lon="-2.49504">
        <ele>29.2</ele>
        <time>2024-12-19T13:58:17Z</time>
      </trkpt>
      <trkpt lat="47.92398" lon="-2.49507">
        <ele>29.3</ele>
        <time>2024-12-19T13:58:18Z</time>
      </trkpt>
      <trkpt lat="47.92398" lon="-2.49509">
        <ele>29.4</ele>
        <time>2024-12-19T13:58:19Z</time>
      </trkpt>
      <trkpt lat="47.92399" lon="-2.49511">
        <ele>29.4</ele>
        <time>2024-12-19T13:58:20Z</time>
      </trkpt>
      <trkpt lat="47.92399" lon="-2.49512">
        <ele>29.4</ele>
        <time>2024-12-19T13:58:21Z</time>
      </trkpt>
      <trkpt lat="47.92399" lon="-2.49514">
        <ele>29.3</ele>
        <time>2024-12-19T13:58:22Z</time>
      </trkpt>
      <trkpt lat="47.924" lon="-2.49516">
        <ele>29.3</ele>
        <time>2024-12-19T13:58:23Z</time>
      </trkpt>
      <trkpt lat="47.924" lon="-2.49517">
        <ele>29.4</ele>
        <time>2024-12-19T13:58:24Z</time>
      </trkpt>
      <trkpt lat="47.92401" lon="-2.49518">
        <ele>29.5</ele>
        <time>2024-12-19T13:58:25Z</time>
      </trkpt>
      <trkpt lat="47.92402" lon="-2.49519">
        <ele>29.7</ele>
        <time>2024-12-19T13:58:26Z</time>
      </trkpt>
      <trkpt lat="47.92403" lon="-2.4952">
        <ele>29.8</ele>
        <time>2024-12-19T13:58:27Z</time>
      </trkpt>
      <trkpt lat="47.92403" lon="-2.49522">
        <ele>29.8</ele>
        <time>2024-12-19T13:58:28Z</time>
      </trkpt>
      <trkpt lat="47.92404" lon="-2.49523">
        <ele>29.9</ele>
        <time>2024-12-19T13:58:29Z</time>
      </trkpt>
      <trkpt lat="47.92405" lon="-2.49524">
        <ele>29.9</ele>
        <time>2024-12-19T13:58:30Z</time>
      </trkpt>
      <trkpt lat="47.92405" lon="-2.49525">
        <ele>30</ele>
        <time>2024-12-19T13:58:31Z</time>
      </trkpt>
      <trkpt lat="47.92406" lon="-2.49527">
        <ele>30</ele>
        <time>2024-12-19T13:58:32Z</time>
      </trkpt>
      <trkpt lat="47.92406" lon="-2.49528">
        <ele>30.1</ele>
        <time>2024-12-19T13:58:33Z</time>
      </trkpt>
      <trkpt lat="47.92407" lon="-2.4953">
        <ele>30.2</ele>
        <time>2024-12-19T13:58:34Z</time>
      </trkpt>
      <trkpt lat="47.92408" lon="-2.49531">
        <ele>30.3</ele>
        <time>2024-12-19T13:58:35Z</time>
      </trkpt>
      <trkpt lat="47.92408" lon="-2.49533">
        <ele>30.3</ele>
        <time>2024-12-19T13:58:36Z</time>
      </trkpt>
      <trkpt lat="47.92409" lon="-2.49534">
        <ele>30.4</ele>
        <time>2024-12-19T13:58:37Z</time>
      </trkpt>
      <trkpt lat="47.9241" lon="-2.49537">
        <ele>30.4</ele>
        <time>2024-12-19T13:58:38Z</time>
      </trkpt>
      <trkpt lat="47.9241" lon="-2.49539">
        <ele>30.4</ele>
        <time>2024-12-19T13:58:39Z</time>
      </trkpt>
      <trkpt lat="47.92411" lon="-2.4954">
        <ele>30.5</ele>
        <time>2024-12-19T13:58:40Z</time>
      </trkpt>
      <trkpt lat="47.92411" lon="-2.49542">
        <ele>30.5</ele>
        <time>2024-12-19T13:58:41Z</time>
      </trkpt>
      <trkpt lat="47.92412" lon="-2.49542">
        <ele>30.7</ele>
        <time>2024-12-19T13:58:42Z</time>
      </trkpt>
      <trkpt lat="47.92413" lon="-2.49543">
        <ele>30.7</ele>
        <time>2024-12-19T13:58:43Z</time>
      </trkpt>
      <trkpt lat="47.92413" lon="-2.49544">
        <ele>30.8</ele>
        <time>2024-12-19T13:58:44Z</time>
      </trkpt>
      <trkpt lat="47.92414" lon="-2.49546">
        <ele>30.9</ele>
        <time>2024-12-19T13:58:45Z</time>
      </trkpt>
      <trkpt lat="47.92415" lon="-2.49548">
        <ele>31</ele>
        <time>2024-12-19T13:58:46Z</time>
      </trkpt>
      <trkpt lat="47.92416" lon="-2.49551">
        <ele>31</ele>
        <time>2024-12-19T13:58:47Z</time>
      </trkpt>
      <trkpt lat="47.92416" lon="-2.49553">
        <ele>31</ele>
        <time>2024-12-19T13:58:48Z</time>
      </trkpt>
      <trkpt lat="47.92417" lon="-2.49555">
        <ele>31</ele>
        <time>2024-12-19T13:58:49Z</time>
      </trkpt>
      <trkpt lat="47.92417" lon="-2.49557">
        <ele>31</ele>
        <time>2024-12-19T13:58:50Z</time>
      </trkpt>
      <trkpt lat="47.92418" lon="-2.49559">
        <ele>30.9</ele>
        <time>2024-12-19T13:58:51Z</time>
      </trkpt>
      <trkpt lat="47.92418" lon="-2.49561">
        <ele>30.9</ele>
        <time>2024-12-19T13:58:52Z</time>
      </trkpt>
      <trkpt lat="47.92419" lon="-2.49562">
        <ele>30.9</ele>
        <time>2024-12-19T13:58:53Z</time>
      </trkpt>
      <trkpt lat="47.92419" lon="-2.49564">
        <ele>30.8</ele>
        <time>2024-12-19T13:58:54Z</time>
      </trkpt>
      <trkpt lat="47.92419" lon="-2.49567">
        <ele>30.8</ele>
        <time>2024-12-19T13:58:55Z</time>
      </trkpt>
      <trkpt lat="47.9242" lon="-2.49569">
        <ele>30.8</ele>
        <time>2024-12-19T13:58:56Z</time>
      </trkpt>
      <trkpt lat="47.9242" lon="-2.49571">
        <ele>30.7</ele>
        <time>2024-12-19T13:58:57Z</time>
      </trkpt>
      <trkpt lat="47.9242" lon="-2.49573">
        <ele>30.6</ele>
        <time>2024-12-19T13:58:58Z</time>
      </trkpt>
      <trkpt lat="47.92421" lon="-2.49575">
        <ele>30.6</ele>
        <time>2024-12-19T13:58:59Z</time>
      </trkpt>
      <trkpt lat="47.92421" lon="-2.49578">
        <ele>30.5</ele>
        <time>2024-12-19T13:59:00Z</time>
      </trkpt>
      <trkpt lat="47.92421" lon="-2.49579">
        <ele>30.4</ele>
        <time>2024-12-19T13:59:01Z</time>
      </trkpt>
      <trkpt lat="47.92421" lon="-2.49581">
        <ele>30.4</ele>
        <time>2024-12-19T13:59:02Z</time>
      </trkpt>
      <trkpt lat="47.92422" lon="-2.49582">
        <ele>30.4</ele>
        <time>2024-12-19T13:59:03Z</time>
      </trkpt>
      <trkpt lat="47.92421" lon="-2.49583">
        <ele>30.4</ele>
        <time>2024-12-19T13:59:04Z</time>
      </trkpt>
      <trkpt lat="47.92421" lon="-2.49584">
        <ele>30.3</ele>
        <time>2024-12-19T13:59:05Z</time>
      </trkpt>
      <trkpt lat="47.92421" lon="-2.49585">
        <ele>30.3</ele>
        <time>2024-12-19T13:59:06Z</time>
      </trkpt>
      <trkpt lat="47.92421" lon="-2.49586">
        <ele>30.2</ele>
        <time>2024-12-19T13:59:07Z</time>
      </trkpt>
      <trkpt lat="47.92421" lon="-2.49588">
        <ele>30.2</ele>
        <time>2024-12-19T13:59:08Z</time>
      </trkpt>
      <trkpt lat="47.92421" lon="-2.49591">
        <ele>30.1</ele>
        <time>2024-12-19T13:59:09Z</time>
      </trkpt>
      <trkpt lat="47.92421" lon="-2.49593">
        <ele>30</ele>
        <time>2024-12-19T13:59:10Z</time>
      </trkpt>
      <trkpt lat="47.92421" lon="-2.49595">
        <ele>29.9</ele>
        <time>2024-12-19T13:59:11Z</time>
      </trkpt>
      <trkpt lat="47.92421" lon="-2.49597">
        <ele>29.8</ele>
        <time>2024-12-19T13:59:12Z</time>
      </trkpt>
      <trkpt lat="47.92421" lon="-2.49598">
        <ele>29.8</ele>
        <time>2024-12-19T13:59:13Z</time>
      </trkpt>
      <trkpt lat="47.92421" lon="-2.496">
        <ele>29.7</ele>
        <time>2024-12-19T13:59:14Z</time>
      </trkpt>
      <trkpt lat="47.92421" lon="-2.49601">
        <ele>29.7</ele>
        <time>2024-12-19T13:59:15Z</time>
      </trkpt>
      <trkpt lat="47.92422" lon="-2.49603">
        <ele>29.7</ele>
        <time>2024-12-19T13:59:16Z</time>
      </trkpt>
      <trkpt lat="47.92422" lon="-2.49603">
        <ele>29.7</ele>
        <time>2024-12-19T13:59:17Z</time>
      </trkpt>
      <trkpt lat="47.92423" lon="-2.49602">
        <ele>29.8</ele>
        <time>2024-12-19T13:59:18Z</time>
      </trkpt>
      <trkpt lat="47.92423" lon="-2.49604">
        <ele>29.7</ele>
        <time>2024-12-19T13:59:19Z</time>
      </trkpt>
      <trkpt lat="47.92423" lon="-2.49606">
        <ele>29.7</ele>
        <time>2024-12-19T13:59:20Z</time>
      </trkpt>
      <trkpt lat="47.92424" lon="-2.49608">
        <ele>29.6</ele>
        <time>2024-12-19T13:59:21Z</time>
      </trkpt>
      <trkpt lat="47.92424" lon="-2.4961">
        <ele>29.6</ele>
        <time>2024-12-19T13:59:22Z</time>
      </trkpt>
      <trkpt lat="47.92424" lon="-2.49612">
        <ele>29.5</ele>
        <time>2024-12-19T13:59:23Z</time>
      </trkpt>
      <trkpt lat="47.92424" lon="-2.49614">
        <ele>29.6</ele>
        <time>2024-12-19T13:59:24Z</time>
      </trkpt>
      <trkpt lat="47.92425" lon="-2.49616">
        <ele>29.6</ele>
        <time>2024-12-19T13:59:25Z</time>
      </trkpt>
      <trkpt lat="47.92425" lon="-2.49618">
        <ele>29.6</ele>
        <time>2024-12-19T13:59:26Z</time>
      </trkpt>
      <trkpt lat="47.92425" lon="-2.4962">
        <ele>29.6</ele>
        <time>2024-12-19T13:59:27Z</time>
      </trkpt>
      <trkpt lat="47.92425" lon="-2.49621">
        <ele>29.6</ele>
        <time>2024-12-19T13:59:28Z</time>
      </trkpt>
      <trkpt lat="47.92426" lon="-2.49623">
        <ele>29.6</ele>
        <time>2024-12-19T13:59:29Z</time>
      </trkpt>
      <trkpt lat="47.92426" lon="-2.49625">
        <ele>29.7</ele>
        <time>2024-12-19T13:59:30Z</time>
      </trkpt>
      <trkpt lat="47.92426" lon="-2.49629">
        <ele>29.7</ele>
        <time>2024-12-19T13:59:31Z</time>
      </trkpt>
      <trkpt lat="47.92426" lon="-2.49631">
        <ele>29.7</ele>
        <time>2024-12-19T13:59:32Z</time>
      </trkpt>
      <trkpt lat="47.92427" lon="-2.49634">
        <ele>29.7</ele>
        <time>2024-12-19T13:59:33Z</time>
      </trkpt>
      <trkpt lat="47.92427" lon="-2.49636">
        <ele>29.7</ele>
        <time>2024-12-19T13:59:34Z</time>
      </trkpt>
      <trkpt lat="47.92427" lon="-2.49639">
        <ele>29.8</ele>
        <time>2024-12-19T13:59:35Z</time>
      </trkpt>
      <trkpt lat="47.92428" lon="-2.49641">
        <ele>29.8</ele>
        <time>2024-12-19T13:59:36Z</time>
      </trkpt>
      <trkpt lat="47.92428" lon="-2.49644">
        <ele>29.8</ele>
        <time>2024-12-19T13:59:37Z</time>
      </trkpt>
      <trkpt lat="47.92428" lon="-2.49646">
        <ele>29.8</ele>
        <time>2024-12-19T13:59:38Z</time>
      </trkpt>
      <trkpt lat="47.92428" lon="-2.49649">
        <ele>29.8</ele>
        <time>2024-12-19T13:59:39Z</time>
      </trkpt>
      <trkpt lat="47.92428" lon="-2.49651">
        <ele>29.8</ele>
        <time>2024-12-19T13:59:40Z</time>
      </trkpt>
      <trkpt lat="47.92428" lon="-2.49653">
        <ele>29.8</ele>
        <time>2024-12-19T13:59:41Z</time>
      </trkpt>
      <trkpt lat="47.92429" lon="-2.49654">
        <ele>29.9</ele>
        <time>2024-12-19T13:59:42Z</time>
      </trkpt>
      <trkpt lat="47.92429" lon="-2.49655">
        <ele>29.9</ele>
        <time>2024-12-19T13:59:43Z</time>
      </trkpt>
      <trkpt lat="47.92429" lon="-2.49655">
        <ele>29.9</ele>
        <time>2024-12-19T13:59:44Z</time>
      </trkpt>
      <trkpt lat="47.92429" lon="-2.49656">
        <ele>29.9</ele>
        <time>2024-12-19T13:59:45Z</time>
      </trkpt>
      <trkpt lat="47.92429" lon="-2.49658">
        <ele>29.9</ele>
        <time>2024-12-19T13:59:46Z</time>
      </trkpt>
      <trkpt lat="47.92429" lon="-2.4966">
        <ele>29.9</ele>
        <time>2024-12-19T13:59:47Z</time>
      </trkpt>
      <trkpt lat="47.92429" lon="-2.49662">
        <ele>29.9</ele>
        <time>2024-12-19T13:59:48Z</time>
      </trkpt>
      <trkpt lat="47.9243" lon="-2.49663">
        <ele>29.9</ele>
        <time>2024-12-19T13:59:49Z</time>
      </trkpt>
      <trkpt lat="47.9243" lon="-2.49665">
        <ele>30</ele>
        <time>2024-12-19T13:59:50Z</time>
      </trkpt>
      <trkpt lat="47.9243" lon="-2.49667">
        <ele>30</ele>
        <time>2024-12-19T13:59:51Z</time>
      </trkpt>
      <trkpt lat="47.9243" lon="-2.49668">
        <ele>30</ele>
        <time>2024-12-19T13:59:52Z</time>
      </trkpt>
      <trkpt lat="47.9243" lon="-2.4967">
        <ele>30</ele>
        <time>2024-12-19T13:59:53Z</time>
      </trkpt>
      <trkpt lat="47.9243" lon="-2.49673">
        <ele>30</ele>
        <time>2024-12-19T13:59:54Z</time>
      </trkpt>
      <trkpt lat="47.9243" lon="-2.49676">
        <ele>29.9</ele>
        <time>2024-12-19T13:59:55Z</time>
      </trkpt>
      <trkpt lat="47.9243" lon="-2.49678">
        <ele>29.9</ele>
        <time>2024-12-19T13:59:56Z</time>
      </trkpt>
      <trkpt lat="47.9243" lon="-2.49681">
        <ele>29.9</ele>
        <time>2024-12-19T13:59:57Z</time>
      </trkpt>
      <trkpt lat="47.9243" lon="-2.49683">
        <ele>29.9</ele>
        <time>2024-12-19T13:59:58Z</time>
      </trkpt>
      <trkpt lat="47.92429" lon="-2.49684">
        <ele>29.9</ele>
        <time>2024-12-19T13:59:59Z</time>
      </trkpt>
      <trkpt lat="47.92429" lon="-2.49685">
        <ele>29.9</ele>
        <time>2024-12-19T14:00:00Z</time>
      </trkpt>
      <trkpt lat="47.92429" lon="-2.49686">
        <ele>29.9</ele>
        <time>2024-12-19T14:00:01Z</time>
      </trkpt>
      <trkpt lat="47.92429" lon="-2.49687">
        <ele>29.9</ele>
        <time>2024-12-19T14:00:02Z</time>
      </trkpt>
      <trkpt lat="47.92428" lon="-2.49687">
        <ele>29.8</ele>
        <time>2024-12-19T14:00:03Z</time>
      </trkpt>
      <trkpt lat="47.92428" lon="-2.49688">
        <ele>29.8</ele>
        <time>2024-12-19T14:00:04Z</time>
      </trkpt>
      <trkpt lat="47.92428" lon="-2.49688">
        <ele>29.8</ele>
        <time>2024-12-19T14:00:05Z</time>
      </trkpt>
      <trkpt lat="47.92427" lon="-2.49689">
        <ele>29.8</ele>
        <time>2024-12-19T14:00:06Z</time>
      </trkpt>
      <trkpt lat="47.92427" lon="-2.49689">
        <ele>29.8</ele>
        <time>2024-12-19T14:00:07Z</time>
      </trkpt>
      <trkpt lat="47.92427" lon="-2.4969">
        <ele>29.7</ele>
        <time>2024-12-19T14:00:08Z</time>
      </trkpt>
      <trkpt lat="47.92427" lon="-2.49691">
        <ele>29.8</ele>
        <time>2024-12-19T14:00:09Z</time>
      </trkpt>
      <trkpt lat="47.92428" lon="-2.49694">
        <ele>29.8</ele>
        <time>2024-12-19T14:00:10Z</time>
      </trkpt>
      <trkpt lat="47.92428" lon="-2.49696">
        <ele>29.8</ele>
        <time>2024-12-19T14:00:11Z</time>
      </trkpt>
      <trkpt lat="47.92429" lon="-2.49698">
        <ele>29.9</ele>
        <time>2024-12-19T14:00:12Z</time>
      </trkpt>
      <trkpt lat="47.9243" lon="-2.497">
        <ele>30</ele>
        <time>2024-12-19T14:00:13Z</time>
      </trkpt>
      <trkpt lat="47.92431" lon="-2.49701">
        <ele>30</ele>
        <time>2024-12-19T14:00:14Z</time>
      </trkpt>
      <trkpt lat="47.92432" lon="-2.49703">
        <ele>30.1</ele>
        <time>2024-12-19T14:00:15Z</time>
      </trkpt>
      <trkpt lat="47.92432" lon="-2.49705">
        <ele>30.1</ele>
        <time>2024-12-19T14:00:16Z</time>
      </trkpt>
      <trkpt lat="47.92432" lon="-2.49707">
        <ele>30.1</ele>
        <time>2024-12-19T14:00:17Z</time>
      </trkpt>
      <trkpt lat="47.92433" lon="-2.4971">
        <ele>30.1</ele>
        <time>2024-12-19T14:00:18Z</time>
      </trkpt>
      <trkpt lat="47.92433" lon="-2.49712">
        <ele>30.1</ele>
        <time>2024-12-19T14:00:19Z</time>
      </trkpt>
      <trkpt lat="47.92433" lon="-2.49713">
        <ele>30.2</ele>
        <time>2024-12-19T14:00:20Z</time>
      </trkpt>
      <trkpt lat="47.92433" lon="-2.49714">
        <ele>30.2</ele>
        <time>2024-12-19T14:00:21Z</time>
      </trkpt>
      <trkpt lat="47.92433" lon="-2.49715">
        <ele>30.2</ele>
        <time>2024-12-19T14:00:22Z</time>
      </trkpt>
      <trkpt lat="47.92433" lon="-2.49715">
        <ele>30.2</ele>
        <time>2024-12-19T14:00:23Z</time>
      </trkpt>
      <trkpt lat="47.92434" lon="-2.49715">
        <ele>30.2</ele>
        <time>2024-12-19T14:00:24Z</time>
      </trkpt>
      <trkpt lat="47.92433" lon="-2.49716">
        <ele>30.2</ele>
        <time>2024-12-19T14:00:25Z</time>
      </trkpt>
      <trkpt lat="47.92434" lon="-2.49717">
        <ele>30.2</ele>
        <time>2024-12-19T14:00:26Z</time>
      </trkpt>
      <trkpt lat="47.92434" lon="-2.49719">
        <ele>30.2</ele>
        <time>2024-12-19T14:00:27Z</time>
      </trkpt>
      <trkpt lat="47.92434" lon="-2.49721">
        <ele>30.2</ele>
        <time>2024-12-19T14:00:28Z</time>
      </trkpt>
      <trkpt lat="47.92434" lon="-2.49723">
        <ele>30.3</ele>
        <time>2024-12-19T14:00:29Z</time>
      </trkpt>
      <trkpt lat="47.92434" lon="-2.49725">
        <ele>30.2</ele>
        <time>2024-12-19T14:00:30Z</time>
      </trkpt>
      <trkpt lat="47.92435" lon="-2.49727">
        <ele>30.2</ele>
        <time>2024-12-19T14:00:31Z</time>
      </trkpt>
      <trkpt lat="47.92434" lon="-2.4973">
        <ele>30.1</ele>
        <time>2024-12-19T14:00:32Z</time>
      </trkpt>
      <trkpt lat="47.92434" lon="-2.49734">
        <ele>30</ele>
        <time>2024-12-19T14:00:33Z</time>
      </trkpt>
      <trkpt lat="47.92434" lon="-2.49737">
        <ele>29.9</ele>
        <time>2024-12-19T14:00:34Z</time>
      </trkpt>
      <trkpt lat="47.92434" lon="-2.4974">
        <ele>29.9</ele>
        <time>2024-12-19T14:00:35Z</time>
      </trkpt>
      <trkpt lat="47.92434" lon="-2.49742">
        <ele>29.8</ele>
        <time>2024-12-19T14:00:36Z</time>
      </trkpt>
      <trkpt lat="47.92434" lon="-2.49743">
        <ele>29.8</ele>
        <time>2024-12-19T14:00:37Z</time>
      </trkpt>
      <trkpt lat="47.92434" lon="-2.49745">
        <ele>29.7</ele>
        <time>2024-12-19T14:00:38Z</time>
      </trkpt>
      <trkpt lat="47.92434" lon="-2.49748">
        <ele>29.7</ele>
        <time>2024-12-19T14:00:39Z</time>
      </trkpt>
      <trkpt lat="47.92434" lon="-2.4975">
        <ele>29.6</ele>
        <time>2024-12-19T14:00:40Z</time>
      </trkpt>
      <trkpt lat="47.92434" lon="-2.49752">
        <ele>29.6</ele>
        <time>2024-12-19T14:00:41Z</time>
      </trkpt>
      <trkpt lat="47.92434" lon="-2.49754">
        <ele>29.6</ele>
        <time>2024-12-19T14:00:42Z</time>
      </trkpt>
      <trkpt lat="47.92435" lon="-2.49757">
        <ele>29.6</ele>
        <time>2024-12-19T14:00:43Z</time>
      </trkpt>
      <trkpt lat="47.92435" lon="-2.49759">
        <ele>29.7</ele>
        <time>2024-12-19T14:00:44Z</time>
      </trkpt>
      <trkpt lat="47.92435" lon="-2.4976">
        <ele>29.7</ele>
        <time>2024-12-19T14:00:45Z</time>
      </trkpt>
      <trkpt lat="47.92435" lon="-2.49762">
        <ele>29.7</ele>
        <time>2024-12-19T14:00:46Z</time>
      </trkpt>
      <trkpt lat="47.92436" lon="-2.49764">
        <ele>29.7</ele>
        <time>2024-12-19T14:00:47Z</time>
      </trkpt>
      <trkpt lat="47.92436" lon="-2.49767">
        <ele>29.7</ele>
        <time>2024-12-19T14:00:48Z</time>
      </trkpt>
      <trkpt lat="47.92436" lon="-2.49769">
        <ele>29.7</ele>
        <time>2024-12-19T14:00:49Z</time>
      </trkpt>
      <trkpt lat="47.92436" lon="-2.49771">
        <ele>29.7</ele>
        <time>2024-12-19T14:00:50Z</time>
      </trkpt>
      <trkpt lat="47.92436" lon="-2.49773">
        <ele>29.7</ele>
        <time>2024-12-19T14:00:51Z</time>
      </trkpt>
      <trkpt lat="47.92435" lon="-2.49775">
        <ele>29.7</ele>
        <time>2024-12-19T14:00:52Z</time>
      </trkpt>
      <trkpt lat="47.92435" lon="-2.49777">
        <ele>29.6</ele>
        <time>2024-12-19T14:00:53Z</time>
      </trkpt>
      <trkpt lat="47.92435" lon="-2.49779">
        <ele>29.6</ele>
        <time>2024-12-19T14:00:54Z</time>
      </trkpt>
      <trkpt lat="47.92434" lon="-2.49781">
        <ele>29.6</ele>
        <time>2024-12-19T14:00:55Z</time>
      </trkpt>
      <trkpt lat="47.92434" lon="-2.49783">
        <ele>29.6</ele>
        <time>2024-12-19T14:00:56Z</time>
      </trkpt>
      <trkpt lat="47.92435" lon="-2.49785">
        <ele>29.6</ele>
        <time>2024-12-19T14:00:57Z</time>
      </trkpt>
      <trkpt lat="47.92435" lon="-2.49786">
        <ele>29.7</ele>
        <time>2024-12-19T14:00:58Z</time>
      </trkpt>
      <trkpt lat="47.92435" lon="-2.49788">
        <ele>29.7</ele>
        <time>2024-12-19T14:00:59Z</time>
      </trkpt>
      <trkpt lat="47.92435" lon="-2.4979">
        <ele>29.7</ele>
        <time>2024-12-19T14:01:00Z</time>
      </trkpt>
      <trkpt lat="47.92435" lon="-2.49792">
        <ele>29.7</ele>
        <time>2024-12-19T14:01:01Z</time>
      </trkpt>
      <trkpt lat="47.92436" lon="-2.49794">
        <ele>29.7</ele>
        <time>2024-12-19T14:01:02Z</time>
      </trkpt>
      <trkpt lat="47.92436" lon="-2.49796">
        <ele>29.7</ele>
        <time>2024-12-19T14:01:03Z</time>
      </trkpt>
      <trkpt lat="47.92437" lon="-2.49797">
        <ele>29.7</ele>
        <time>2024-12-19T14:01:04Z</time>
      </trkpt>
      <trkpt lat="47.92437" lon="-2.49799">
        <ele>29.7</ele>
        <time>2024-12-19T14:01:05Z</time>
      </trkpt>
      <trkpt lat="47.92437" lon="-2.498">
        <ele>29.7</ele>
        <time>2024-12-19T14:01:06Z</time>
      </trkpt>
      <trkpt lat="47.92437" lon="-2.49801">
        <ele>29.7</ele>
        <time>2024-12-19T14:01:07Z</time>
      </trkpt>
      <trkpt lat="47.92437" lon="-2.49802">
        <ele>29.7</ele>
        <time>2024-12-19T14:01:08Z</time>
      </trkpt>
      <trkpt lat="47.92438" lon="-2.49803">
        <ele>29.7</ele>
        <time>2024-12-19T14:01:09Z</time>
      </trkpt>
      <trkpt lat="47.92437" lon="-2.49804">
        <ele>29.7</ele>
        <time>2024-12-19T14:01:10Z</time>
      </trkpt>
      <trkpt lat="47.92437" lon="-2.49805">
        <ele>29.7</ele>
        <time>2024-12-19T14:01:11Z</time>
      </trkpt>
      <trkpt lat="47.92437" lon="-2.49806">
        <ele>29.7</ele>
        <time>2024-12-19T14:01:12Z</time>
      </trkpt>
      <trkpt lat="47.92437" lon="-2.49807">
        <ele>29.7</ele>
        <time>2024-12-19T14:01:13Z</time>
      </trkpt>
      <trkpt lat="47.92438" lon="-2.49809">
        <ele>29.6</ele>
        <time>2024-12-19T14:01:14Z</time>
      </trkpt>
      <trkpt lat="47.92438" lon="-2.49811">
        <ele>29.6</ele>
        <time>2024-12-19T14:01:15Z</time>
      </trkpt>
      <trkpt lat="47.92439" lon="-2.49813">
        <ele>29.5</ele>
        <time>2024-12-19T14:01:16Z</time>
      </trkpt>
      <trkpt lat="47.92439" lon="-2.49815">
        <ele>29.5</ele>
        <time>2024-12-19T14:01:17Z</time>
      </trkpt>
      <trkpt lat="47.92438" lon="-2.49816">
        <ele>29.4</ele>
        <time>2024-12-19T14:01:18Z</time>
      </trkpt>
      <trkpt lat="47.92438" lon="-2.49818">
        <ele>29.3</ele>
        <time>2024-12-19T14:01:19Z</time>
      </trkpt>
      <trkpt lat="47.92437" lon="-2.49819">
        <ele>29.2</ele>
        <time>2024-12-19T14:01:20Z</time>
      </trkpt>
      <trkpt lat="47.92436" lon="-2.49821">
        <ele>29.2</ele>
        <time>2024-12-19T14:01:21Z</time>
      </trkpt>
      <trkpt lat="47.92436" lon="-2.49822">
        <ele>29.1</ele>
        <time>2024-12-19T14:01:22Z</time>
      </trkpt>
      <trkpt lat="47.92436" lon="-2.49824">
        <ele>29</ele>
        <time>2024-12-19T14:01:23Z</time>
      </trkpt>
      <trkpt lat="47.92436" lon="-2.49825">
        <ele>29</ele>
        <time>2024-12-19T14:01:24Z</time>
      </trkpt>
      <trkpt lat="47.92436" lon="-2.49827">
        <ele>28.9</ele>
        <time>2024-12-19T14:01:25Z</time>
      </trkpt>
      <trkpt lat="47.92435" lon="-2.49829">
        <ele>28.8</ele>
        <time>2024-12-19T14:01:26Z</time>
      </trkpt>
      <trkpt lat="47.92435" lon="-2.4983">
        <ele>28.8</ele>
        <time>2024-12-19T14:01:27Z</time>
      </trkpt>
      <trkpt lat="47.92435" lon="-2.49832">
        <ele>28.7</ele>
        <time>2024-12-19T14:01:28Z</time>
      </trkpt>
      <trkpt lat="47.92435" lon="-2.49834">
        <ele>28.7</ele>
        <time>2024-12-19T14:01:29Z</time>
      </trkpt>
      <trkpt lat="47.92435" lon="-2.49836">
        <ele>28.7</ele>
        <time>2024-12-19T14:01:30Z</time>
      </trkpt>
      <trkpt lat="47.92434" lon="-2.49838">
        <ele>28.8</ele>
        <time>2024-12-19T14:01:31Z</time>
      </trkpt>
      <trkpt lat="47.92434" lon="-2.4984">
        <ele>28.8</ele>
        <time>2024-12-19T14:01:32Z</time>
      </trkpt>
      <trkpt lat="47.92434" lon="-2.49842">
        <ele>28.8</ele>
        <time>2024-12-19T14:01:33Z</time>
      </trkpt>
      <trkpt lat="47.92434" lon="-2.49844">
        <ele>28.8</ele>
        <time>2024-12-19T14:01:34Z</time>
      </trkpt>
      <trkpt lat="47.92433" lon="-2.49846">
        <ele>28.9</ele>
        <time>2024-12-19T14:01:35Z</time>
      </trkpt>
      <trkpt lat="47.92433" lon="-2.49849">
        <ele>28.9</ele>
        <time>2024-12-19T14:01:36Z</time>
      </trkpt>
      <trkpt lat="47.92432" lon="-2.49849">
        <ele>28.9</ele>
        <time>2024-12-19T14:01:37Z</time>
      </trkpt>
      <trkpt lat="47.92432" lon="-2.4985">
        <ele>28.9</ele>
        <time>2024-12-19T14:01:38Z</time>
      </trkpt>
      <trkpt lat="47.92432" lon="-2.49853">
        <ele>28.9</ele>
        <time>2024-12-19T14:01:39Z</time>
      </trkpt>
      <trkpt lat="47.92432" lon="-2.49855">
        <ele>29</ele>
        <time>2024-12-19T14:01:40Z</time>
      </trkpt>
      <trkpt lat="47.92432" lon="-2.49857">
        <ele>29</ele>
        <time>2024-12-19T14:01:41Z</time>
      </trkpt>
      <trkpt lat="47.92432" lon="-2.49858">
        <ele>29.1</ele>
        <time>2024-12-19T14:01:42Z</time>
      </trkpt>
      <trkpt lat="47.92432" lon="-2.4986">
        <ele>29.1</ele>
        <time>2024-12-19T14:01:43Z</time>
      </trkpt>
      <trkpt lat="47.92432" lon="-2.49862">
        <ele>29.1</ele>
        <time>2024-12-19T14:01:44Z</time>
      </trkpt>
      <trkpt lat="47.92432" lon="-2.49864">
        <ele>29.1</ele>
        <time>2024-12-19T14:01:45Z</time>
      </trkpt>
      <trkpt lat="47.92432" lon="-2.49866">
        <ele>29</ele>
        <time>2024-12-19T14:01:46Z</time>
      </trkpt>
      <trkpt lat="47.92433" lon="-2.49868">
        <ele>29</ele>
        <time>2024-12-19T14:01:47Z</time>
      </trkpt>
      <trkpt lat="47.92433" lon="-2.4987">
        <ele>29</ele>
        <time>2024-12-19T14:01:48Z</time>
      </trkpt>
      <trkpt lat="47.92433" lon="-2.49872">
        <ele>29</ele>
        <time>2024-12-19T14:01:49Z</time>
      </trkpt>
      <trkpt lat="47.92433" lon="-2.49874">
        <ele>29</ele>
        <time>2024-12-19T14:01:50Z</time>
      </trkpt>
      <trkpt lat="47.92433" lon="-2.49875">
        <ele>29</ele>
        <time>2024-12-19T14:01:51Z</time>
      </trkpt>
      <trkpt lat="47.92433" lon="-2.49876">
        <ele>28.9</ele>
        <time>2024-12-19T14:01:52Z</time>
      </trkpt>
      <trkpt lat="47.92433" lon="-2.49878">
        <ele>28.9</ele>
        <time>2024-12-19T14:01:53Z</time>
      </trkpt>
      <trkpt lat="47.92432" lon="-2.4988">
        <ele>28.8</ele>
        <time>2024-12-19T14:01:54Z</time>
      </trkpt>
      <trkpt lat="47.92433" lon="-2.49882">
        <ele>28.8</ele>
        <time>2024-12-19T14:01:55Z</time>
      </trkpt>
      <trkpt lat="47.92434" lon="-2.49885">
        <ele>28.9</ele>
        <time>2024-12-19T14:01:57Z</time>
      </trkpt>
      <trkpt lat="47.92434" lon="-2.49887">
        <ele>28.9</ele>
        <time>2024-12-19T14:01:58Z</time>
      </trkpt>
      <trkpt lat="47.92434" lon="-2.49889">
        <ele>28.9</ele>
        <time>2024-12-19T14:01:59Z</time>
      </trkpt>
      <trkpt lat="47.92434" lon="-2.49891">
        <ele>28.9</ele>
        <time>2024-12-19T14:02:00Z</time>
      </trkpt>
      <trkpt lat="47.92434" lon="-2.49894">
        <ele>28.9</ele>
        <time>2024-12-19T14:02:01Z</time>
      </trkpt>
      <trkpt lat="47.92433" lon="-2.49895">
        <ele>28.8</ele>
        <time>2024-12-19T14:02:02Z</time>
      </trkpt>
      <trkpt lat="47.92432" lon="-2.49897">
        <ele>28.6</ele>
        <time>2024-12-19T14:02:03Z</time>
      </trkpt>
      <trkpt lat="47.92431" lon="-2.49899">
        <ele>28.5</ele>
        <time>2024-12-19T14:02:04Z</time>
      </trkpt>
      <trkpt lat="47.9243" lon="-2.499">
        <ele>28.4</ele>
        <time>2024-12-19T14:02:05Z</time>
      </trkpt>
      <trkpt lat="47.92429" lon="-2.49901">
        <ele>28.3</ele>
        <time>2024-12-19T14:02:06Z</time>
      </trkpt>
      <trkpt lat="47.92428" lon="-2.49903">
        <ele>28.3</ele>
        <time>2024-12-19T14:02:07Z</time>
      </trkpt>
      <trkpt lat="47.92428" lon="-2.49904">
        <ele>28.2</ele>
        <time>2024-12-19T14:02:08Z</time>
      </trkpt>
      <trkpt lat="47.92427" lon="-2.49906">
        <ele>28.2</ele>
        <time>2024-12-19T14:02:09Z</time>
      </trkpt>
      <trkpt lat="47.92427" lon="-2.49908">
        <ele>28.1</ele>
        <time>2024-12-19T14:02:10Z</time>
      </trkpt>
      <trkpt lat="47.92427" lon="-2.4991">
        <ele>28.2</ele>
        <time>2024-12-19T14:02:11Z</time>
      </trkpt>
      <trkpt lat="47.92428" lon="-2.49912">
        <ele>28.2</ele>
        <time>2024-12-19T14:02:12Z</time>
      </trkpt>
      <trkpt lat="47.92428" lon="-2.49913">
        <ele>28.2</ele>
        <time>2024-12-19T14:02:13Z</time>
      </trkpt>
      <trkpt lat="47.92428" lon="-2.49915">
        <ele>28.3</ele>
        <time>2024-12-19T14:02:14Z</time>
      </trkpt>
      <trkpt lat="47.92429" lon="-2.49916">
        <ele>28.3</ele>
        <time>2024-12-19T14:02:15Z</time>
      </trkpt>
      <trkpt lat="47.9243" lon="-2.49918">
        <ele>28.4</ele>
        <time>2024-12-19T14:02:16Z</time>
      </trkpt>
      <trkpt lat="47.9243" lon="-2.49919">
        <ele>28.5</ele>
        <time>2024-12-19T14:02:17Z</time>
      </trkpt>
      <trkpt lat="47.9243" lon="-2.49921">
        <ele>28.5</ele>
        <time>2024-12-19T14:02:18Z</time>
      </trkpt>
      <trkpt lat="47.9243" lon="-2.49923">
        <ele>28.5</ele>
        <time>2024-12-19T14:02:19Z</time>
      </trkpt>
      <trkpt lat="47.9243" lon="-2.49924">
        <ele>28.5</ele>
        <time>2024-12-19T14:02:20Z</time>
      </trkpt>
      <trkpt lat="47.92429" lon="-2.49925">
        <ele>28.5</ele>
        <time>2024-12-19T14:02:21Z</time>
      </trkpt>
      <trkpt lat="47.9243" lon="-2.49926">
        <ele>28.6</ele>
        <time>2024-12-19T14:02:22Z</time>
      </trkpt>
      <trkpt lat="47.9243" lon="-2.49929">
        <ele>28.7</ele>
        <time>2024-12-19T14:02:23Z</time>
      </trkpt>
      <trkpt lat="47.9243" lon="-2.49931">
        <ele>28.7</ele>
        <time>2024-12-19T14:02:24Z</time>
      </trkpt>
      <trkpt lat="47.9243" lon="-2.49932">
        <ele>28.7</ele>
        <time>2024-12-19T14:02:25Z</time>
      </trkpt>
      <trkpt lat="47.9243" lon="-2.49934">
        <ele>28.7</ele>
        <time>2024-12-19T14:02:26Z</time>
      </trkpt>
      <trkpt lat="47.92429" lon="-2.49935">
        <ele>28.7</ele>
        <time>2024-12-19T14:02:27Z</time>
      </trkpt>
      <trkpt lat="47.92429" lon="-2.49936">
        <ele>28.7</ele>
        <time>2024-12-19T14:02:28Z</time>
      </trkpt>
      <trkpt lat="47.9243" lon="-2.49938">
        <ele>28.8</ele>
        <time>2024-12-19T14:02:29Z</time>
      </trkpt>
      <trkpt lat="47.92431" lon="-2.49939">
        <ele>28.9</ele>
        <time>2024-12-19T14:02:30Z</time>
      </trkpt>
      <trkpt lat="47.92431" lon="-2.49941">
        <ele>29</ele>
        <time>2024-12-19T14:02:31Z</time>
      </trkpt>
      <trkpt lat="47.92431" lon="-2.49943">
        <ele>29</ele>
        <time>2024-12-19T14:02:32Z</time>
      </trkpt>
      <trkpt lat="47.92431" lon="-2.49945">
        <ele>29</ele>
        <time>2024-12-19T14:02:33Z</time>
      </trkpt>
      <trkpt lat="47.9243" lon="-2.49948">
        <ele>29</ele>
        <time>2024-12-19T14:02:34Z</time>
      </trkpt>
      <trkpt lat="47.9243" lon="-2.4995">
        <ele>29.1</ele>
        <time>2024-12-19T14:02:35Z</time>
      </trkpt>
      <trkpt lat="47.92431" lon="-2.49953">
        <ele>29.2</ele>
        <time>2024-12-19T14:02:36Z</time>
      </trkpt>
      <trkpt lat="47.92432" lon="-2.49956">
        <ele>29.3</ele>
        <time>2024-12-19T14:02:37Z</time>
      </trkpt>
      <trkpt lat="47.92433" lon="-2.49958">
        <ele>29.4</ele>
        <time>2024-12-19T14:02:38Z</time>
      </trkpt>
      <trkpt lat="47.92434" lon="-2.4996">
        <ele>29.4</ele>
        <time>2024-12-19T14:02:39Z</time>
      </trkpt>
      <trkpt lat="47.92435" lon="-2.49962">
        <ele>29.5</ele>
        <time>2024-12-19T14:02:40Z</time>
      </trkpt>
      <trkpt lat="47.92435" lon="-2.49965">
        <ele>29.6</ele>
        <time>2024-12-19T14:02:41Z</time>
      </trkpt>
      <trkpt lat="47.92435" lon="-2.49967">
        <ele>29.6</ele>
        <time>2024-12-19T14:02:42Z</time>
      </trkpt>
      <trkpt lat="47.92435" lon="-2.49969">
        <ele>29.6</ele>
        <time>2024-12-19T14:02:43Z</time>
      </trkpt>
      <trkpt lat="47.92435" lon="-2.49972">
        <ele>29.7</ele>
        <time>2024-12-19T14:02:44Z</time>
      </trkpt>
      <trkpt lat="47.92435" lon="-2.49974">
        <ele>29.7</ele>
        <time>2024-12-19T14:02:45Z</time>
      </trkpt>
      <trkpt lat="47.92435" lon="-2.49975">
        <ele>29.7</ele>
        <time>2024-12-19T14:02:46Z</time>
      </trkpt>
      <trkpt lat="47.92435" lon="-2.49976">
        <ele>29.7</ele>
        <time>2024-12-19T14:02:47Z</time>
      </trkpt>
      <trkpt lat="47.92436" lon="-2.49977">
        <ele>29.7</ele>
        <time>2024-12-19T14:02:48Z</time>
      </trkpt>
      <trkpt lat="47.92436" lon="-2.49979">
        <ele>29.8</ele>
        <time>2024-12-19T14:02:49Z</time>
      </trkpt>
      <trkpt lat="47.92436" lon="-2.4998">
        <ele>29.8</ele>
        <time>2024-12-19T14:02:50Z</time>
      </trkpt>
      <trkpt lat="47.92436" lon="-2.49982">
        <ele>29.8</ele>
        <time>2024-12-19T14:02:51Z</time>
      </trkpt>
      <trkpt lat="47.92436" lon="-2.49983">
        <ele>29.8</ele>
        <time>2024-12-19T14:02:52Z</time>
      </trkpt>
      <trkpt lat="47.92437" lon="-2.49984">
        <ele>29.8</ele>
        <time>2024-12-19T14:02:53Z</time>
      </trkpt>
      <trkpt lat="47.92437" lon="-2.49985">
        <ele>29.9</ele>
        <time>2024-12-19T14:02:54Z</time>
      </trkpt>
      <trkpt lat="47.92437" lon="-2.49986">
        <ele>29.9</ele>
        <time>2024-12-19T14:02:55Z</time>
      </trkpt>
      <trkpt lat="47.92437" lon="-2.49988">
        <ele>29.9</ele>
        <time>2024-12-19T14:02:56Z</time>
      </trkpt>
      <trkpt lat="47.92437" lon="-2.49988">
        <ele>29.9</ele>
        <time>2024-12-19T14:02:57Z</time>
      </trkpt>
      <trkpt lat="47.92437" lon="-2.49988">
        <ele>29.9</ele>
        <time>2024-12-19T14:02:58Z</time>
      </trkpt>
      <trkpt lat="47.92438" lon="-2.49988">
        <ele>29.9</ele>
        <time>2024-12-19T14:02:59Z</time>
      </trkpt>
      <trkpt lat="47.9244" lon="-2.49988">
        <ele>29.9</ele>
        <time>2024-12-19T14:03:00Z</time>
      </trkpt>
      <trkpt lat="47.92442" lon="-2.49989">
        <ele>30</ele>
        <time>2024-12-19T14:03:01Z</time>
      </trkpt>
      <trkpt lat="47.92444" lon="-2.4999">
        <ele>30</ele>
        <time>2024-12-19T14:03:02Z</time>
      </trkpt>
      <trkpt lat="47.92445" lon="-2.49991">
        <ele>30</ele>
        <time>2024-12-19T14:03:03Z</time>
      </trkpt>
      <trkpt lat="47.92445" lon="-2.49993">
        <ele>30</ele>
        <time>2024-12-19T14:03:04Z</time>
      </trkpt>
      <trkpt lat="47.92444" lon="-2.49996">
        <ele>30</ele>
        <time>2024-12-19T14:03:05Z</time>
      </trkpt>
      <trkpt lat="47.92444" lon="-2.49998">
        <ele>30</ele>
        <time>2024-12-19T14:03:06Z</time>
      </trkpt>
      <trkpt lat="47.92444" lon="-2.50001">
        <ele>30</ele>
        <time>2024-12-19T14:03:07Z</time>
      </trkpt>
      <trkpt lat="47.92445" lon="-2.50004">
        <ele>30</ele>
        <time>2024-12-19T14:03:08Z</time>
      </trkpt>
      <trkpt lat="47.92445" lon="-2.50007">
        <ele>30</ele>
        <time>2024-12-19T14:03:09Z</time>
      </trkpt>
      <trkpt lat="47.92445" lon="-2.50009">
        <ele>30</ele>
        <time>2024-12-19T14:03:10Z</time>
      </trkpt>
      <trkpt lat="47.92445" lon="-2.50012">
        <ele>30</ele>
        <time>2024-12-19T14:03:11Z</time>
      </trkpt>
      <trkpt lat="47.92445" lon="-2.50014">
        <ele>30</ele>
        <time>2024-12-19T14:03:12Z</time>
      </trkpt>
      <trkpt lat="47.92444" lon="-2.50016">
        <ele>30</ele>
        <time>2024-12-19T14:03:13Z</time>
      </trkpt>
      <trkpt lat="47.92444" lon="-2.50018">
        <ele>30</ele>
        <time>2024-12-19T14:03:14Z</time>
      </trkpt>
      <trkpt lat="47.92444" lon="-2.50019">
        <ele>30</ele>
        <time>2024-12-19T14:03:15Z</time>
      </trkpt>
      <trkpt lat="47.92444" lon="-2.50021">
        <ele>30</ele>
        <time>2024-12-19T14:03:16Z</time>
      </trkpt>
      <trkpt lat="47.92443" lon="-2.50022">
        <ele>30</ele>
        <time>2024-12-19T14:03:17Z</time>
      </trkpt>
      <trkpt lat="47.92443" lon="-2.50024">
        <ele>30</ele>
        <time>2024-12-19T14:03:18Z</time>
      </trkpt>
      <trkpt lat="47.92443" lon="-2.50025">
        <ele>30</ele>
        <time>2024-12-19T14:03:19Z</time>
      </trkpt>
      <trkpt lat="47.92443" lon="-2.50027">
        <ele>30</ele>
        <time>2024-12-19T14:03:20Z</time>
      </trkpt>
      <trkpt lat="47.92443" lon="-2.50029">
        <ele>30</ele>
        <time>2024-12-19T14:03:21Z</time>
      </trkpt>
      <trkpt lat="47.92443" lon="-2.50032">
        <ele>30</ele>
        <time>2024-12-19T14:03:22Z</time>
      </trkpt>
      <trkpt lat="47.92442" lon="-2.50033">
        <ele>30</ele>
        <time>2024-12-19T14:03:23Z</time>
      </trkpt>
      <trkpt lat="47.92442" lon="-2.50035">
        <ele>30</ele>
        <time>2024-12-19T14:03:24Z</time>
      </trkpt>
      <trkpt lat="47.92442" lon="-2.50037">
        <ele>30</ele>
        <time>2024-12-19T14:03:25Z</time>
      </trkpt>
      <trkpt lat="47.92442" lon="-2.50039">
        <ele>30</ele>
        <time>2024-12-19T14:03:26Z</time>
      </trkpt>
      <trkpt lat="47.92442" lon="-2.50041">
        <ele>30</ele>
        <time>2024-12-19T14:03:27Z</time>
      </trkpt>
      <trkpt lat="47.92442" lon="-2.50043">
        <ele>30</ele>
        <time>2024-12-19T14:03:28Z</time>
      </trkpt>
      <trkpt lat="47.92442" lon="-2.50045">
        <ele>30</ele>
        <time>2024-12-19T14:03:29Z</time>
      </trkpt>
      <trkpt lat="47.92442" lon="-2.50046">
        <ele>30</ele>
        <time>2024-12-19T14:03:30Z</time>
      </trkpt>
      <trkpt lat="47.92442" lon="-2.50048">
        <ele>30</ele>
        <time>2024-12-19T14:03:31Z</time>
      </trkpt>
      <trkpt lat="47.92443" lon="-2.50049">
        <ele>30</ele>
        <time>2024-12-19T14:03:32Z</time>
      </trkpt>
      <trkpt lat="47.92443" lon="-2.50051">
        <ele>30</ele>
        <time>2024-12-19T14:03:33Z</time>
      </trkpt>
      <trkpt lat="47.92443" lon="-2.50052">
        <ele>30</ele>
        <time>2024-12-19T14:03:34Z</time>
      </trkpt>
      <trkpt lat="47.92443" lon="-2.50054">
        <ele>30</ele>
        <time>2024-12-19T14:03:35Z</time>
      </trkpt>
      <trkpt lat="47.92444" lon="-2.50055">
        <ele>30</ele>
        <time>2024-12-19T14:03:36Z</time>
      </trkpt>
      <trkpt lat="47.92445" lon="-2.50057">
        <ele>30</ele>
        <time>2024-12-19T14:03:37Z</time>
      </trkpt>
      <trkpt lat="47.92445" lon="-2.50059">
        <ele>30</ele>
        <time>2024-12-19T14:03:38Z</time>
      </trkpt>
      <trkpt lat="47.92446" lon="-2.50061">
        <ele>30</ele>
        <time>2024-12-19T14:03:39Z</time>
      </trkpt>
      <trkpt lat="47.92447" lon="-2.50062">
        <ele>30</ele>
        <time>2024-12-19T14:03:40Z</time>
      </trkpt>
      <trkpt lat="47.92447" lon="-2.50063">
        <ele>30</ele>
        <time>2024-12-19T14:03:41Z</time>
      </trkpt>
      <trkpt lat="47.92447" lon="-2.50065">
        <ele>30</ele>
        <time>2024-12-19T14:03:42Z</time>
      </trkpt>
      <trkpt lat="47.92447" lon="-2.50067">
        <ele>30</ele>
        <time>2024-12-19T14:03:43Z</time>
      </trkpt>
      <trkpt lat="47.92448" lon="-2.50068">
        <ele>30</ele>
        <time>2024-12-19T14:03:44Z</time>
      </trkpt>
      <trkpt lat="47.92449" lon="-2.5007">
        <ele>30</ele>
        <time>2024-12-19T14:03:45Z</time>
      </trkpt>
      <trkpt lat="47.92449" lon="-2.50072">
        <ele>30</ele>
        <time>2024-12-19T14:03:46Z</time>
      </trkpt>
      <trkpt lat="47.9245" lon="-2.50073">
        <ele>30</ele>
        <time>2024-12-19T14:03:47Z</time>
      </trkpt>
      <trkpt lat="47.92451" lon="-2.50073">
        <ele>30</ele>
        <time>2024-12-19T14:03:48Z</time>
      </trkpt>
      <trkpt lat="47.92451" lon="-2.50073">
        <ele>30</ele>
        <time>2024-12-19T14:03:49Z</time>
      </trkpt>
      <trkpt lat="47.92451" lon="-2.50073">
        <ele>30</ele>
        <time>2024-12-19T14:03:50Z</time>
      </trkpt>
      <trkpt lat="47.92451" lon="-2.50074">
        <ele>30</ele>
        <time>2024-12-19T14:03:51Z</time>
      </trkpt>
      <trkpt lat="47.92452" lon="-2.50076">
        <ele>30</ele>
        <time>2024-12-19T14:03:52Z</time>
      </trkpt>
      <trkpt lat="47.92452" lon="-2.50077">
        <ele>30</ele>
        <time>2024-12-19T14:03:53Z</time>
      </trkpt>
      <trkpt lat="47.92453" lon="-2.50078">
        <ele>30</ele>
        <time>2024-12-19T14:03:54Z</time>
      </trkpt>
      <trkpt lat="47.92453" lon="-2.5008">
        <ele>30</ele>
        <time>2024-12-19T14:03:55Z</time>
      </trkpt>
      <trkpt lat="47.92454" lon="-2.50081">
        <ele>30</ele>
        <time>2024-12-19T14:03:56Z</time>
      </trkpt>
      <trkpt lat="47.92455" lon="-2.50083">
        <ele>30</ele>
        <time>2024-12-19T14:03:57Z</time>
      </trkpt>
      <trkpt lat="47.92456" lon="-2.50085">
        <ele>30</ele>
        <time>2024-12-19T14:03:58Z</time>
      </trkpt>
      <trkpt lat="47.92456" lon="-2.50086">
        <ele>30</ele>
        <time>2024-12-19T14:03:59Z</time>
      </trkpt>
      <trkpt lat="47.92457" lon="-2.50088">
        <ele>30.1</ele>
        <time>2024-12-19T14:04:00Z</time>
      </trkpt>
      <trkpt lat="47.92458" lon="-2.5009">
        <ele>30.1</ele>
        <time>2024-12-19T14:04:01Z</time>
      </trkpt>
      <trkpt lat="47.92458" lon="-2.50092">
        <ele>30.2</ele>
        <time>2024-12-19T14:04:02Z</time>
      </trkpt>
      <trkpt lat="47.92459" lon="-2.50094">
        <ele>30.2</ele>
        <time>2024-12-19T14:04:03Z</time>
      </trkpt>
      <trkpt lat="47.9246" lon="-2.50095">
        <ele>30.2</ele>
        <time>2024-12-19T14:04:04Z</time>
      </trkpt>
      <trkpt lat="47.9246" lon="-2.50095">
        <ele>30.2</ele>
        <time>2024-12-19T14:04:05Z</time>
      </trkpt>
      <trkpt lat="47.92461" lon="-2.50096">
        <ele>30.3</ele>
        <time>2024-12-19T14:04:06Z</time>
      </trkpt>
      <trkpt lat="47.92461" lon="-2.50097">
        <ele>30.3</ele>
        <time>2024-12-19T14:04:07Z</time>
      </trkpt>
      <trkpt lat="47.92462" lon="-2.50098">
        <ele>30.3</ele>
        <time>2024-12-19T14:04:08Z</time>
      </trkpt>
      <trkpt lat="47.92463" lon="-2.501">
        <ele>30.4</ele>
        <time>2024-12-19T14:04:09Z</time>
      </trkpt>
      <trkpt lat="47.92463" lon="-2.50102">
        <ele>30.4</ele>
        <time>2024-12-19T14:04:10Z</time>
      </trkpt>
      <trkpt lat="47.92464" lon="-2.50103">
        <ele>30.5</ele>
        <time>2024-12-19T14:04:11Z</time>
      </trkpt>
      <trkpt lat="47.92464" lon="-2.50104">
        <ele>30.5</ele>
        <time>2024-12-19T14:04:12Z</time>
      </trkpt>
      <trkpt lat="47.92465" lon="-2.50105">
        <ele>30.6</ele>
        <time>2024-12-19T14:04:13Z</time>
      </trkpt>
      <trkpt lat="47.92466" lon="-2.50106">
        <ele>30.6</ele>
        <time>2024-12-19T14:04:14Z</time>
      </trkpt>
      <trkpt lat="47.92467" lon="-2.50107">
        <ele>30.7</ele>
        <time>2024-12-19T14:04:15Z</time>
      </trkpt>
      <trkpt lat="47.92467" lon="-2.50109">
        <ele>30.7</ele>
        <time>2024-12-19T14:04:16Z</time>
      </trkpt>
      <trkpt lat="47.92468" lon="-2.5011">
        <ele>30.8</ele>
        <time>2024-12-19T14:04:17Z</time>
      </trkpt>
      <trkpt lat="47.92468" lon="-2.50112">
        <ele>30.8</ele>
        <time>2024-12-19T14:04:18Z</time>
      </trkpt>
      <trkpt lat="47.92469" lon="-2.50114">
        <ele>30.8</ele>
        <time>2024-12-19T14:04:19Z</time>
      </trkpt>
      <trkpt lat="47.92469" lon="-2.50115">
        <ele>30.7</ele>
        <time>2024-12-19T14:04:20Z</time>
      </trkpt>
      <trkpt lat="47.9247" lon="-2.50117">
        <ele>30.7</ele>
        <time>2024-12-19T14:04:21Z</time>
      </trkpt>
      <trkpt lat="47.92471" lon="-2.50118">
        <ele>30.7</ele>
        <time>2024-12-19T14:04:22Z</time>
      </trkpt>
      <trkpt lat="47.92472" lon="-2.5012">
        <ele>30.7</ele>
        <time>2024-12-19T14:04:23Z</time>
      </trkpt>
      <trkpt lat="47.92472" lon="-2.50122">
        <ele>30.6</ele>
        <time>2024-12-19T14:04:24Z</time>
      </trkpt>
      <trkpt lat="47.92473" lon="-2.50123">
        <ele>30.6</ele>
        <time>2024-12-19T14:04:25Z</time>
      </trkpt>
      <trkpt lat="47.92474" lon="-2.50126">
        <ele>30.5</ele>
        <time>2024-12-19T14:04:26Z</time>
      </trkpt>
      <trkpt lat="47.92475" lon="-2.50128">
        <ele>30.5</ele>
        <time>2024-12-19T14:04:27Z</time>
      </trkpt>
      <trkpt lat="47.92476" lon="-2.50129">
        <ele>30.4</ele>
        <time>2024-12-19T14:04:28Z</time>
      </trkpt>
      <trkpt lat="47.92477" lon="-2.5013">
        <ele>30.4</ele>
        <time>2024-12-19T14:04:29Z</time>
      </trkpt>
      <trkpt lat="47.92478" lon="-2.50131">
        <ele>30.4</ele>
        <time>2024-12-19T14:04:30Z</time>
      </trkpt>
      <trkpt lat="47.92479" lon="-2.50133">
        <ele>30.4</ele>
        <time>2024-12-19T14:04:31Z</time>
      </trkpt>
      <trkpt lat="47.92479" lon="-2.50134">
        <ele>30.4</ele>
        <time>2024-12-19T14:04:32Z</time>
      </trkpt>
      <trkpt lat="47.9248" lon="-2.50136">
        <ele>30.4</ele>
        <time>2024-12-19T14:04:33Z</time>
      </trkpt>
      <trkpt lat="47.92481" lon="-2.50138">
        <ele>30.3</ele>
        <time>2024-12-19T14:04:34Z</time>
      </trkpt>
      <trkpt lat="47.92481" lon="-2.50139">
        <ele>30.3</ele>
        <time>2024-12-19T14:04:35Z</time>
      </trkpt>
      <trkpt lat="47.92482" lon="-2.5014">
        <ele>30.3</ele>
        <time>2024-12-19T14:04:36Z</time>
      </trkpt>
      <trkpt lat="47.92482" lon="-2.50141">
        <ele>30.3</ele>
        <time>2024-12-19T14:04:37Z</time>
      </trkpt>
      <trkpt lat="47.92484" lon="-2.50142">
        <ele>30.3</ele>
        <time>2024-12-19T14:04:38Z</time>
      </trkpt>
      <trkpt lat="47.92484" lon="-2.50144">
        <ele>30.3</ele>
        <time>2024-12-19T14:04:39Z</time>
      </trkpt>
      <trkpt lat="47.92485" lon="-2.50145">
        <ele>30.3</ele>
        <time>2024-12-19T14:04:40Z</time>
      </trkpt>
      <trkpt lat="47.92486" lon="-2.50147">
        <ele>30.3</ele>
        <time>2024-12-19T14:04:41Z</time>
      </trkpt>
      <trkpt lat="47.92486" lon="-2.50149">
        <ele>30.3</ele>
        <time>2024-12-19T14:04:42Z</time>
      </trkpt>
      <trkpt lat="47.92487" lon="-2.5015">
        <ele>30.3</ele>
        <time>2024-12-19T14:04:43Z</time>
      </trkpt>
      <trkpt lat="47.92487" lon="-2.50151">
        <ele>30.3</ele>
        <time>2024-12-19T14:04:44Z</time>
      </trkpt>
      <trkpt lat="47.92488" lon="-2.50152">
        <ele>30.3</ele>
        <time>2024-12-19T14:04:45Z</time>
      </trkpt>
      <trkpt lat="47.92488" lon="-2.50153">
        <ele>30.4</ele>
        <time>2024-12-19T14:04:46Z</time>
      </trkpt>
      <trkpt lat="47.92489" lon="-2.50153">
        <ele>30.4</ele>
        <time>2024-12-19T14:04:47Z</time>
      </trkpt>
      <trkpt lat="47.9249" lon="-2.50154">
        <ele>30.4</ele>
        <time>2024-12-19T14:04:48Z</time>
      </trkpt>
      <trkpt lat="47.92491" lon="-2.50156">
        <ele>30.5</ele>
        <time>2024-12-19T14:04:49Z</time>
      </trkpt>
      <trkpt lat="47.92491" lon="-2.50158">
        <ele>30.5</ele>
        <time>2024-12-19T14:04:50Z</time>
      </trkpt>
      <trkpt lat="47.92492" lon="-2.50159">
        <ele>30.5</ele>
        <time>2024-12-19T14:04:51Z</time>
      </trkpt>
      <trkpt lat="47.92493" lon="-2.50161">
        <ele>30.5</ele>
        <time>2024-12-19T14:04:52Z</time>
      </trkpt>
      <trkpt lat="47.92493" lon="-2.50163">
        <ele>30.6</ele>
        <time>2024-12-19T14:04:53Z</time>
      </trkpt>
      <trkpt lat="47.92494" lon="-2.50164">
        <ele>30.6</ele>
        <time>2024-12-19T14:04:54Z</time>
      </trkpt>
      <trkpt lat="47.92495" lon="-2.50166">
        <ele>30.6</ele>
        <time>2024-12-19T14:04:55Z</time>
      </trkpt>
      <trkpt lat="47.92495" lon="-2.50167">
        <ele>30.6</ele>
        <time>2024-12-19T14:04:56Z</time>
      </trkpt>
      <trkpt lat="47.92496" lon="-2.50168">
        <ele>30.6</ele>
        <time>2024-12-19T14:04:57Z</time>
      </trkpt>
      <trkpt lat="47.92496" lon="-2.50169">
        <ele>30.7</ele>
        <time>2024-12-19T14:04:58Z</time>
      </trkpt>
      <trkpt lat="47.92498" lon="-2.5017">
        <ele>30.7</ele>
        <time>2024-12-19T14:04:59Z</time>
      </trkpt>
      <trkpt lat="47.92499" lon="-2.50172">
        <ele>30.7</ele>
        <time>2024-12-19T14:05:00Z</time>
      </trkpt>
      <trkpt lat="47.925" lon="-2.50173">
        <ele>30.8</ele>
        <time>2024-12-19T14:05:01Z</time>
      </trkpt>
      <trkpt lat="47.92502" lon="-2.50174">
        <ele>30.7</ele>
        <time>2024-12-19T14:05:02Z</time>
      </trkpt>
      <trkpt lat="47.92503" lon="-2.50175">
        <ele>30.7</ele>
        <time>2024-12-19T14:05:03Z</time>
      </trkpt>
      <trkpt lat="47.92504" lon="-2.50176">
        <ele>30.6</ele>
        <time>2024-12-19T14:05:04Z</time>
      </trkpt>
      <trkpt lat="47.92505" lon="-2.50178">
        <ele>30.6</ele>
        <time>2024-12-19T14:05:05Z</time>
      </trkpt>
      <trkpt lat="47.92506" lon="-2.5018">
        <ele>30.5</ele>
        <time>2024-12-19T14:05:06Z</time>
      </trkpt>
      <trkpt lat="47.92508" lon="-2.50182">
        <ele>30.5</ele>
        <time>2024-12-19T14:05:07Z</time>
      </trkpt>
      <trkpt lat="47.92509" lon="-2.50183">
        <ele>30.4</ele>
        <time>2024-12-19T14:05:08Z</time>
      </trkpt>
      <trkpt lat="47.9251" lon="-2.50184">
        <ele>30.4</ele>
        <time>2024-12-19T14:05:09Z</time>
      </trkpt>
      <trkpt lat="47.92511" lon="-2.50184">
        <ele>30.4</ele>
        <time>2024-12-19T14:05:10Z</time>
      </trkpt>
      <trkpt lat="47.92512" lon="-2.50185">
        <ele>30.3</ele>
        <time>2024-12-19T14:05:11Z</time>
      </trkpt>
      <trkpt lat="47.92514" lon="-2.50186">
        <ele>30.3</ele>
        <time>2024-12-19T14:05:12Z</time>
      </trkpt>
      <trkpt lat="47.92515" lon="-2.50187">
        <ele>30.3</ele>
        <time>2024-12-19T14:05:13Z</time>
      </trkpt>
      <trkpt lat="47.92516" lon="-2.50188">
        <ele>30.2</ele>
        <time>2024-12-19T14:05:14Z</time>
      </trkpt>
      <trkpt lat="47.92517" lon="-2.5019">
        <ele>30.2</ele>
        <time>2024-12-19T14:05:15Z</time>
      </trkpt>
      <trkpt lat="47.92518" lon="-2.50193">
        <ele>30.1</ele>
        <time>2024-12-19T14:05:16Z</time>
      </trkpt>
      <trkpt lat="47.9252" lon="-2.50195">
        <ele>30</ele>
        <time>2024-12-19T14:05:17Z</time>
      </trkpt>
      <trkpt lat="47.92521" lon="-2.50197">
        <ele>30</ele>
        <time>2024-12-19T14:05:18Z</time>
      </trkpt>
      <trkpt lat="47.92522" lon="-2.50199">
        <ele>30</ele>
        <time>2024-12-19T14:05:19Z</time>
      </trkpt>
      <trkpt lat="47.92522" lon="-2.502">
        <ele>30</ele>
        <time>2024-12-19T14:05:20Z</time>
      </trkpt>
      <trkpt lat="47.92523" lon="-2.50202">
        <ele>30</ele>
        <time>2024-12-19T14:05:21Z</time>
      </trkpt>
      <trkpt lat="47.92523" lon="-2.50203">
        <ele>30</ele>
        <time>2024-12-19T14:05:22Z</time>
      </trkpt>
      <trkpt lat="47.92524" lon="-2.50204">
        <ele>30</ele>
        <time>2024-12-19T14:05:23Z</time>
      </trkpt>
      <trkpt lat="47.92525" lon="-2.50206">
        <ele>30</ele>
        <time>2024-12-19T14:05:24Z</time>
      </trkpt>
      <trkpt lat="47.92526" lon="-2.50209">
        <ele>30</ele>
        <time>2024-12-19T14:05:25Z</time>
      </trkpt>
      <trkpt lat="47.92527" lon="-2.5021">
        <ele>30</ele>
        <time>2024-12-19T14:05:26Z</time>
      </trkpt>
      <trkpt lat="47.92528" lon="-2.50212">
        <ele>30</ele>
        <time>2024-12-19T14:05:27Z</time>
      </trkpt>
      <trkpt lat="47.92529" lon="-2.50213">
        <ele>30</ele>
        <time>2024-12-19T14:05:28Z</time>
      </trkpt>
      <trkpt lat="47.9253" lon="-2.50213">
        <ele>30.1</ele>
        <time>2024-12-19T14:05:29Z</time>
      </trkpt>
      <trkpt lat="47.92531" lon="-2.50214">
        <ele>30.1</ele>
        <time>2024-12-19T14:05:30Z</time>
      </trkpt>
      <trkpt lat="47.92532" lon="-2.50216">
        <ele>30.2</ele>
        <time>2024-12-19T14:05:31Z</time>
      </trkpt>
      <trkpt lat="47.92534" lon="-2.50217">
        <ele>30.2</ele>
        <time>2024-12-19T14:05:32Z</time>
      </trkpt>
      <trkpt lat="47.92535" lon="-2.50219">
        <ele>30.2</ele>
        <time>2024-12-19T14:05:33Z</time>
      </trkpt>
      <trkpt lat="47.92535" lon="-2.5022">
        <ele>30.3</ele>
        <time>2024-12-19T14:05:34Z</time>
      </trkpt>
      <trkpt lat="47.92536" lon="-2.50222">
        <ele>30.3</ele>
        <time>2024-12-19T14:05:35Z</time>
      </trkpt>
      <trkpt lat="47.92537" lon="-2.50223">
        <ele>30.3</ele>
        <time>2024-12-19T14:05:36Z</time>
      </trkpt>
      <trkpt lat="47.92537" lon="-2.50226">
        <ele>30.3</ele>
        <time>2024-12-19T14:05:37Z</time>
      </trkpt>
      <trkpt lat="47.92538" lon="-2.50227">
        <ele>30.3</ele>
        <time>2024-12-19T14:05:38Z</time>
      </trkpt>
      <trkpt lat="47.92538" lon="-2.5023">
        <ele>30.3</ele>
        <time>2024-12-19T14:05:39Z</time>
      </trkpt>
      <trkpt lat="47.92539" lon="-2.50232">
        <ele>30.3</ele>
        <time>2024-12-19T14:05:40Z</time>
      </trkpt>
      <trkpt lat="47.92539" lon="-2.50233">
        <ele>30.2</ele>
        <time>2024-12-19T14:05:41Z</time>
      </trkpt>
      <trkpt lat="47.92539" lon="-2.50234">
        <ele>30.2</ele>
        <time>2024-12-19T14:05:42Z</time>
      </trkpt>
      <trkpt lat="47.92539" lon="-2.50235">
        <ele>30.2</ele>
        <time>2024-12-19T14:05:43Z</time>
      </trkpt>
      <trkpt lat="47.92538" lon="-2.50236">
        <ele>30.2</ele>
        <time>2024-12-19T14:05:44Z</time>
      </trkpt>
      <trkpt lat="47.92537" lon="-2.50237">
        <ele>30.2</ele>
        <time>2024-12-19T14:05:45Z</time>
      </trkpt>
      <trkpt lat="47.92537" lon="-2.50237">
        <ele>30.2</ele>
        <time>2024-12-19T14:05:46Z</time>
      </trkpt>
      <trkpt lat="47.92537" lon="-2.50238">
        <ele>30.2</ele>
        <time>2024-12-19T14:05:47Z</time>
      </trkpt>
      <trkpt lat="47.92538" lon="-2.50238">
        <ele>30.2</ele>
        <time>2024-12-19T14:05:48Z</time>
      </trkpt>
      <trkpt lat="47.92538" lon="-2.50238">
        <ele>30.2</ele>
        <time>2024-12-19T14:05:49Z</time>
      </trkpt>
      <trkpt lat="47.92538" lon="-2.50238">
        <ele>30.2</ele>
        <time>2024-12-19T14:05:50Z</time>
      </trkpt>
      <trkpt lat="47.92538" lon="-2.50238">
        <ele>30.2</ele>
        <time>2024-12-19T14:05:51Z</time>
      </trkpt>
      <trkpt lat="47.92538" lon="-2.50238">
        <ele>30.2</ele>
        <time>2024-12-19T14:05:52Z</time>
      </trkpt>
      <trkpt lat="47.92538" lon="-2.50239">
        <ele>30.1</ele>
        <time>2024-12-19T14:05:53Z</time>
      </trkpt>
      <trkpt lat="47.92539" lon="-2.50241">
        <ele>30.1</ele>
        <time>2024-12-19T14:05:54Z</time>
      </trkpt>
      <trkpt lat="47.9254" lon="-2.50243">
        <ele>30.1</ele>
        <time>2024-12-19T14:05:55Z</time>
      </trkpt>
      <trkpt lat="47.92541" lon="-2.50245">
        <ele>30.1</ele>
        <time>2024-12-19T14:05:56Z</time>
      </trkpt>
      <trkpt lat="47.92542" lon="-2.50246">
        <ele>30.1</ele>
        <time>2024-12-19T14:05:57Z</time>
      </trkpt>
      <trkpt lat="47.92542" lon="-2.50247">
        <ele>30.1</ele>
        <time>2024-12-19T14:05:58Z</time>
      </trkpt>
      <trkpt lat="47.92542" lon="-2.50248">
        <ele>30</ele>
        <time>2024-12-19T14:05:59Z</time>
      </trkpt>
      <trkpt lat="47.92542" lon="-2.50248">
        <ele>30</ele>
        <time>2024-12-19T14:06:00Z</time>
      </trkpt>
      <trkpt lat="47.92543" lon="-2.5025">
        <ele>30</ele>
        <time>2024-12-19T14:06:01Z</time>
      </trkpt>
      <trkpt lat="47.92543" lon="-2.50252">
        <ele>30</ele>
        <time>2024-12-19T14:06:02Z</time>
      </trkpt>
      <trkpt lat="47.92544" lon="-2.50253">
        <ele>29.9</ele>
        <time>2024-12-19T14:06:03Z</time>
      </trkpt>
      <trkpt lat="47.92545" lon="-2.50255">
        <ele>29.9</ele>
        <time>2024-12-19T14:06:04Z</time>
      </trkpt>
      <trkpt lat="47.92546" lon="-2.50256">
        <ele>29.9</ele>
        <time>2024-12-19T14:06:05Z</time>
      </trkpt>
      <trkpt lat="47.92547" lon="-2.50258">
        <ele>29.9</ele>
        <time>2024-12-19T14:06:06Z</time>
      </trkpt>
      <trkpt lat="47.92548" lon="-2.50259">
        <ele>29.9</ele>
        <time>2024-12-19T14:06:07Z</time>
      </trkpt>
      <trkpt lat="47.92549" lon="-2.5026">
        <ele>29.9</ele>
        <time>2024-12-19T14:06:08Z</time>
      </trkpt>
      <trkpt lat="47.9255" lon="-2.50261">
        <ele>29.9</ele>
        <time>2024-12-19T14:06:09Z</time>
      </trkpt>
      <trkpt lat="47.9255" lon="-2.50262">
        <ele>29.9</ele>
        <time>2024-12-19T14:06:10Z</time>
      </trkpt>
      <trkpt lat="47.92551" lon="-2.50263">
        <ele>29.9</ele>
        <time>2024-12-19T14:06:11Z</time>
      </trkpt>
      <trkpt lat="47.92552" lon="-2.50265">
        <ele>29.9</ele>
        <time>2024-12-19T14:06:12Z</time>
      </trkpt>
      <trkpt lat="47.92553" lon="-2.50266">
        <ele>29.9</ele>
        <time>2024-12-19T14:06:13Z</time>
      </trkpt>
      <trkpt lat="47.92554" lon="-2.50268">
        <ele>30</ele>
        <time>2024-12-19T14:06:14Z</time>
      </trkpt>
      <trkpt lat="47.92555" lon="-2.50269">
        <ele>30</ele>
        <time>2024-12-19T14:06:15Z</time>
      </trkpt>
      <trkpt lat="47.92557" lon="-2.5027">
        <ele>30</ele>
        <time>2024-12-19T14:06:16Z</time>
      </trkpt>
      <trkpt lat="47.92558" lon="-2.50272">
        <ele>30.1</ele>
        <time>2024-12-19T14:06:17Z</time>
      </trkpt>
      <trkpt lat="47.9256" lon="-2.50274">
        <ele>30.2</ele>
        <time>2024-12-19T14:06:18Z</time>
      </trkpt>
      <trkpt lat="47.92561" lon="-2.50275">
        <ele>30.2</ele>
        <time>2024-12-19T14:06:19Z</time>
      </trkpt>
      <trkpt lat="47.92563" lon="-2.50276">
        <ele>30.3</ele>
        <time>2024-12-19T14:06:20Z</time>
      </trkpt>
      <trkpt lat="47.92564" lon="-2.50277">
        <ele>30.3</ele>
        <time>2024-12-19T14:06:21Z</time>
      </trkpt>
      <trkpt lat="47.92564" lon="-2.50278">
        <ele>30.3</ele>
        <time>2024-12-19T14:06:22Z</time>
      </trkpt>
      <trkpt lat="47.92564" lon="-2.50279">
        <ele>30.3</ele>
        <time>2024-12-19T14:06:23Z</time>
      </trkpt>
      <trkpt lat="47.92564" lon="-2.5028">
        <ele>30.2</ele>
        <time>2024-12-19T14:06:24Z</time>
      </trkpt>
      <trkpt lat="47.92564" lon="-2.50281">
        <ele>30.2</ele>
        <time>2024-12-19T14:06:25Z</time>
      </trkpt>
      <trkpt lat="47.92565" lon="-2.50282">
        <ele>30.2</ele>
        <time>2024-12-19T14:06:26Z</time>
      </trkpt>
      <trkpt lat="47.92565" lon="-2.50284">
        <ele>30.1</ele>
        <time>2024-12-19T14:06:27Z</time>
      </trkpt>
      <trkpt lat="47.92566" lon="-2.50286">
        <ele>30.1</ele>
        <time>2024-12-19T14:06:28Z</time>
      </trkpt>
      <trkpt lat="47.92567" lon="-2.50288">
        <ele>30.1</ele>
        <time>2024-12-19T14:06:29Z</time>
      </trkpt>
      <trkpt lat="47.92567" lon="-2.50289">
        <ele>30</ele>
        <time>2024-12-19T14:06:30Z</time>
      </trkpt>
      <trkpt lat="47.92568" lon="-2.50291">
        <ele>30</ele>
        <time>2024-12-19T14:06:31Z</time>
      </trkpt>
      <trkpt lat="47.92568" lon="-2.50292">
        <ele>29.9</ele>
        <time>2024-12-19T14:06:32Z</time>
      </trkpt>
      <trkpt lat="47.92568" lon="-2.50294">
        <ele>29.9</ele>
        <time>2024-12-19T14:06:33Z</time>
      </trkpt>
      <trkpt lat="47.92569" lon="-2.50296">
        <ele>29.8</ele>
        <time>2024-12-19T14:06:34Z</time>
      </trkpt>
      <trkpt lat="47.92569" lon="-2.50298">
        <ele>29.8</ele>
        <time>2024-12-19T14:06:35Z</time>
      </trkpt>
      <trkpt lat="47.92569" lon="-2.503">
        <ele>29.7</ele>
        <time>2024-12-19T14:06:36Z</time>
      </trkpt>
      <trkpt lat="47.9257" lon="-2.50301">
        <ele>29.7</ele>
        <time>2024-12-19T14:06:37Z</time>
      </trkpt>
      <trkpt lat="47.9257" lon="-2.50302">
        <ele>29.6</ele>
        <time>2024-12-19T14:06:38Z</time>
      </trkpt>
      <trkpt lat="47.92571" lon="-2.50304">
        <ele>29.6</ele>
        <time>2024-12-19T14:06:39Z</time>
      </trkpt>
      <trkpt lat="47.92572" lon="-2.50305">
        <ele>29.6</ele>
        <time>2024-12-19T14:06:40Z</time>
      </trkpt>
      <trkpt lat="47.92572" lon="-2.50307">
        <ele>29.6</ele>
        <time>2024-12-19T14:06:41Z</time>
      </trkpt>
      <trkpt lat="47.92573" lon="-2.50309">
        <ele>29.6</ele>
        <time>2024-12-19T14:06:42Z</time>
      </trkpt>
      <trkpt lat="47.92574" lon="-2.50311">
        <ele>29.6</ele>
        <time>2024-12-19T14:06:43Z</time>
      </trkpt>
      <trkpt lat="47.92575" lon="-2.50312">
        <ele>29.6</ele>
        <time>2024-12-19T14:06:44Z</time>
      </trkpt>
      <trkpt lat="47.92575" lon="-2.50314">
        <ele>29.6</ele>
        <time>2024-12-19T14:06:45Z</time>
      </trkpt>
      <trkpt lat="47.92576" lon="-2.50316">
        <ele>29.6</ele>
        <time>2024-12-19T14:06:46Z</time>
      </trkpt>
      <trkpt lat="47.92577" lon="-2.50318">
        <ele>29.7</ele>
        <time>2024-12-19T14:06:47Z</time>
      </trkpt>
      <trkpt lat="47.92579" lon="-2.50319">
        <ele>29.8</ele>
        <time>2024-12-19T14:06:48Z</time>
      </trkpt>
      <trkpt lat="47.9258" lon="-2.50321">
        <ele>29.8</ele>
        <time>2024-12-19T14:06:49Z</time>
      </trkpt>
      <trkpt lat="47.92581" lon="-2.50322">
        <ele>29.9</ele>
        <time>2024-12-19T14:06:50Z</time>
      </trkpt>
      <trkpt lat="47.92582" lon="-2.50323">
        <ele>29.9</ele>
        <time>2024-12-19T14:06:51Z</time>
      </trkpt>
      <trkpt lat="47.92583" lon="-2.50325">
        <ele>30</ele>
        <time>2024-12-19T14:06:52Z</time>
      </trkpt>
      <trkpt lat="47.92584" lon="-2.50327">
        <ele>30</ele>
        <time>2024-12-19T14:06:53Z</time>
      </trkpt>
      <trkpt lat="47.92585" lon="-2.50328">
        <ele>30</ele>
        <time>2024-12-19T14:06:54Z</time>
      </trkpt>
      <trkpt lat="47.92586" lon="-2.5033">
        <ele>30</ele>
        <time>2024-12-19T14:06:55Z</time>
      </trkpt>
      <trkpt lat="47.92587" lon="-2.50331">
        <ele>30</ele>
        <time>2024-12-19T14:06:56Z</time>
      </trkpt>
      <trkpt lat="47.92588" lon="-2.50332">
        <ele>30</ele>
        <time>2024-12-19T14:06:57Z</time>
      </trkpt>
      <trkpt lat="47.9259" lon="-2.50333">
        <ele>30</ele>
        <time>2024-12-19T14:06:58Z</time>
      </trkpt>
      <trkpt lat="47.9259" lon="-2.50334">
        <ele>30</ele>
        <time>2024-12-19T14:06:59Z</time>
      </trkpt>
      <trkpt lat="47.92591" lon="-2.50335">
        <ele>29.9</ele>
        <time>2024-12-19T14:07:00Z</time>
      </trkpt>
      <trkpt lat="47.92592" lon="-2.50336">
        <ele>29.8</ele>
        <time>2024-12-19T14:07:01Z</time>
      </trkpt>
      <trkpt lat="47.92593" lon="-2.50338">
        <ele>29.7</ele>
        <time>2024-12-19T14:07:02Z</time>
      </trkpt>
      <trkpt lat="47.92594" lon="-2.5034">
        <ele>29.6</ele>
        <time>2024-12-19T14:07:03Z</time>
      </trkpt>
      <trkpt lat="47.92595" lon="-2.50341">
        <ele>29.5</ele>
        <time>2024-12-19T14:07:04Z</time>
      </trkpt>
      <trkpt lat="47.92596" lon="-2.50343">
        <ele>29.5</ele>
        <time>2024-12-19T14:07:05Z</time>
      </trkpt>
      <trkpt lat="47.92597" lon="-2.50345">
        <ele>29.4</ele>
        <time>2024-12-19T14:07:06Z</time>
      </trkpt>
      <trkpt lat="47.92599" lon="-2.50346">
        <ele>29.3</ele>
        <time>2024-12-19T14:07:07Z</time>
      </trkpt>
      <trkpt lat="47.926" lon="-2.50347">
        <ele>29.3</ele>
        <time>2024-12-19T14:07:08Z</time>
      </trkpt>
      <trkpt lat="47.92601" lon="-2.50349">
        <ele>29.2</ele>
        <time>2024-12-19T14:07:09Z</time>
      </trkpt>
      <trkpt lat="47.92602" lon="-2.5035">
        <ele>29.2</ele>
        <time>2024-12-19T14:07:10Z</time>
      </trkpt>
      <trkpt lat="47.92602" lon="-2.50351">
        <ele>29.2</ele>
        <time>2024-12-19T14:07:11Z</time>
      </trkpt>
      <trkpt lat="47.92603" lon="-2.50352">
        <ele>29.1</ele>
        <time>2024-12-19T14:07:12Z</time>
      </trkpt>
      <trkpt lat="47.92605" lon="-2.50353">
        <ele>29.1</ele>
        <time>2024-12-19T14:07:13Z</time>
      </trkpt>
      <trkpt lat="47.92606" lon="-2.50355">
        <ele>29.1</ele>
        <time>2024-12-19T14:07:14Z</time>
      </trkpt>
      <trkpt lat="47.92608" lon="-2.50357">
        <ele>29.1</ele>
        <time>2024-12-19T14:07:15Z</time>
      </trkpt>
      <trkpt lat="47.92609" lon="-2.50358">
        <ele>29</ele>
        <time>2024-12-19T14:07:16Z</time>
      </trkpt>
      <trkpt lat="47.9261" lon="-2.50359">
        <ele>29</ele>
        <time>2024-12-19T14:07:17Z</time>
      </trkpt>
      <trkpt lat="47.92611" lon="-2.50361">
        <ele>29</ele>
        <time>2024-12-19T14:07:18Z</time>
      </trkpt>
      <trkpt lat="47.92613" lon="-2.50363">
        <ele>28.9</ele>
        <time>2024-12-19T14:07:19Z</time>
      </trkpt>
      <trkpt lat="47.92614" lon="-2.50364">
        <ele>28.8</ele>
        <time>2024-12-19T14:07:20Z</time>
      </trkpt>
      <trkpt lat="47.92614" lon="-2.50366">
        <ele>28.7</ele>
        <time>2024-12-19T14:07:21Z</time>
      </trkpt>
      <trkpt lat="47.92614" lon="-2.50368">
        <ele>28.6</ele>
        <time>2024-12-19T14:07:22Z</time>
      </trkpt>
      <trkpt lat="47.92615" lon="-2.5037">
        <ele>28.5</ele>
        <time>2024-12-19T14:07:23Z</time>
      </trkpt>
      <trkpt lat="47.92615" lon="-2.5037">
        <ele>28.4</ele>
        <time>2024-12-19T14:07:24Z</time>
      </trkpt>
      <trkpt lat="47.92615" lon="-2.50371">
        <ele>28.4</ele>
        <time>2024-12-19T14:07:25Z</time>
      </trkpt>
      <trkpt lat="47.92616" lon="-2.50372">
        <ele>28.3</ele>
        <time>2024-12-19T14:07:26Z</time>
      </trkpt>
      <trkpt lat="47.92617" lon="-2.50373">
        <ele>28.3</ele>
        <time>2024-12-19T14:07:27Z</time>
      </trkpt>
      <trkpt lat="47.92617" lon="-2.50374">
        <ele>28.3</ele>
        <time>2024-12-19T14:07:28Z</time>
      </trkpt>
      <trkpt lat="47.92617" lon="-2.50375">
        <ele>28.2</ele>
        <time>2024-12-19T14:07:29Z</time>
      </trkpt>
      <trkpt lat="47.92617" lon="-2.50375">
        <ele>28.2</ele>
        <time>2024-12-19T14:07:30Z</time>
      </trkpt>
      <trkpt lat="47.92618" lon="-2.50376">
        <ele>28.2</ele>
        <time>2024-12-19T14:07:31Z</time>
      </trkpt>
      <trkpt lat="47.92618" lon="-2.50378">
        <ele>28.1</ele>
        <time>2024-12-19T14:07:32Z</time>
      </trkpt>
      <trkpt lat="47.92619" lon="-2.50379">
        <ele>28.1</ele>
        <time>2024-12-19T14:07:33Z</time>
      </trkpt>
      <trkpt lat="47.9262" lon="-2.50379">
        <ele>28.1</ele>
        <time>2024-12-19T14:07:34Z</time>
      </trkpt>
      <trkpt lat="47.92621" lon="-2.5038">
        <ele>28.1</ele>
        <time>2024-12-19T14:07:35Z</time>
      </trkpt>
      <trkpt lat="47.92621" lon="-2.50382">
        <ele>28.1</ele>
        <time>2024-12-19T14:07:36Z</time>
      </trkpt>
      <trkpt lat="47.92622" lon="-2.50383">
        <ele>28</ele>
        <time>2024-12-19T14:07:37Z</time>
      </trkpt>
      <trkpt lat="47.92623" lon="-2.50385">
        <ele>28</ele>
        <time>2024-12-19T14:07:38Z</time>
      </trkpt>
      <trkpt lat="47.92624" lon="-2.50387">
        <ele>28</ele>
        <time>2024-12-19T14:07:39Z</time>
      </trkpt>
      <trkpt lat="47.92625" lon="-2.50388">
        <ele>28</ele>
        <time>2024-12-19T14:07:40Z</time>
      </trkpt>
      <trkpt lat="47.92625" lon="-2.5039">
        <ele>28</ele>
        <time>2024-12-19T14:07:41Z</time>
      </trkpt>
      <trkpt lat="47.92626" lon="-2.50392">
        <ele>28</ele>
        <time>2024-12-19T14:07:42Z</time>
      </trkpt>
      <trkpt lat="47.92626" lon="-2.50394">
        <ele>28</ele>
        <time>2024-12-19T14:07:43Z</time>
      </trkpt>
      <trkpt lat="47.92627" lon="-2.50396">
        <ele>28</ele>
        <time>2024-12-19T14:07:44Z</time>
      </trkpt>
      <trkpt lat="47.92628" lon="-2.50397">
        <ele>28</ele>
        <time>2024-12-19T14:07:45Z</time>
      </trkpt>
      <trkpt lat="47.92629" lon="-2.50398">
        <ele>28</ele>
        <time>2024-12-19T14:07:46Z</time>
      </trkpt>
      <trkpt lat="47.92629" lon="-2.504">
        <ele>28.1</ele>
        <time>2024-12-19T14:07:47Z</time>
      </trkpt>
      <trkpt lat="47.9263" lon="-2.50401">
        <ele>28.1</ele>
        <time>2024-12-19T14:07:48Z</time>
      </trkpt>
      <trkpt lat="47.92631" lon="-2.50402">
        <ele>28.1</ele>
        <time>2024-12-19T14:07:49Z</time>
      </trkpt>
      <trkpt lat="47.92632" lon="-2.50404">
        <ele>28.1</ele>
        <time>2024-12-19T14:07:50Z</time>
      </trkpt>
      <trkpt lat="47.92633" lon="-2.50405">
        <ele>28.1</ele>
        <time>2024-12-19T14:07:51Z</time>
      </trkpt>
      <trkpt lat="47.92633" lon="-2.50407">
        <ele>28.1</ele>
        <time>2024-12-19T14:07:52Z</time>
      </trkpt>
      <trkpt lat="47.92634" lon="-2.50408">
        <ele>28.1</ele>
        <time>2024-12-19T14:07:53Z</time>
      </trkpt>
      <trkpt lat="47.92635" lon="-2.5041">
        <ele>28.1</ele>
        <time>2024-12-19T14:07:54Z</time>
      </trkpt>
      <trkpt lat="47.92636" lon="-2.50411">
        <ele>28.1</ele>
        <time>2024-12-19T14:07:55Z</time>
      </trkpt>
      <trkpt lat="47.92637" lon="-2.50413">
        <ele>28.1</ele>
        <time>2024-12-19T14:07:56Z</time>
      </trkpt>
      <trkpt lat="47.92638" lon="-2.50414">
        <ele>28.1</ele>
        <time>2024-12-19T14:07:57Z</time>
      </trkpt>
      <trkpt lat="47.92639" lon="-2.50416">
        <ele>28.1</ele>
        <time>2024-12-19T14:07:58Z</time>
      </trkpt>
      <trkpt lat="47.9264" lon="-2.50416">
        <ele>28.1</ele>
        <time>2024-12-19T14:07:59Z</time>
      </trkpt>
      <trkpt lat="47.92641" lon="-2.50418">
        <ele>28.2</ele>
        <time>2024-12-19T14:08:00Z</time>
      </trkpt>
      <trkpt lat="47.92641" lon="-2.50419">
        <ele>28.2</ele>
        <time>2024-12-19T14:08:01Z</time>
      </trkpt>
      <trkpt lat="47.92642" lon="-2.50421">
        <ele>28.2</ele>
        <time>2024-12-19T14:08:02Z</time>
      </trkpt>
      <trkpt lat="47.92643" lon="-2.50421">
        <ele>28.2</ele>
        <time>2024-12-19T14:08:03Z</time>
      </trkpt>
      <trkpt lat="47.92643" lon="-2.50423">
        <ele>28.3</ele>
        <time>2024-12-19T14:08:04Z</time>
      </trkpt>
      <trkpt lat="47.92644" lon="-2.50424">
        <ele>28.3</ele>
        <time>2024-12-19T14:08:05Z</time>
      </trkpt>
      <trkpt lat="47.92645" lon="-2.50425">
        <ele>28.4</ele>
        <time>2024-12-19T14:08:06Z</time>
      </trkpt>
      <trkpt lat="47.92646" lon="-2.50427">
        <ele>28.4</ele>
        <time>2024-12-19T14:08:07Z</time>
      </trkpt>
      <trkpt lat="47.92647" lon="-2.50428">
        <ele>28.4</ele>
        <time>2024-12-19T14:08:08Z</time>
      </trkpt>
      <trkpt lat="47.92648" lon="-2.5043">
        <ele>28.5</ele>
        <time>2024-12-19T14:08:09Z</time>
      </trkpt>
      <trkpt lat="47.92648" lon="-2.50432">
        <ele>28.4</ele>
        <time>2024-12-19T14:08:10Z</time>
      </trkpt>
      <trkpt lat="47.92648" lon="-2.50433">
        <ele>28.4</ele>
        <time>2024-12-19T14:08:11Z</time>
      </trkpt>
      <trkpt lat="47.92649" lon="-2.50435">
        <ele>28.4</ele>
        <time>2024-12-19T14:08:12Z</time>
      </trkpt>
      <trkpt lat="47.92649" lon="-2.50436">
        <ele>28.4</ele>
        <time>2024-12-19T14:08:13Z</time>
      </trkpt>
      <trkpt lat="47.9265" lon="-2.50438">
        <ele>28.4</ele>
        <time>2024-12-19T14:08:14Z</time>
      </trkpt>
      <trkpt lat="47.92651" lon="-2.50439">
        <ele>28.4</ele>
        <time>2024-12-19T14:08:15Z</time>
      </trkpt>
      <trkpt lat="47.92651" lon="-2.50441">
        <ele>28.5</ele>
        <time>2024-12-19T14:08:16Z</time>
      </trkpt>
      <trkpt lat="47.92652" lon="-2.50443">
        <ele>28.5</ele>
        <time>2024-12-19T14:08:17Z</time>
      </trkpt>
      <trkpt lat="47.92653" lon="-2.50444">
        <ele>28.6</ele>
        <time>2024-12-19T14:08:18Z</time>
      </trkpt>
      <trkpt lat="47.92654" lon="-2.50446">
        <ele>28.6</ele>
        <time>2024-12-19T14:08:19Z</time>
      </trkpt>
      <trkpt lat="47.92655" lon="-2.50447">
        <ele>28.6</ele>
        <time>2024-12-19T14:08:20Z</time>
      </trkpt>
      <trkpt lat="47.92656" lon="-2.50449">
        <ele>28.6</ele>
        <time>2024-12-19T14:08:21Z</time>
      </trkpt>
      <trkpt lat="47.92657" lon="-2.5045">
        <ele>28.6</ele>
        <time>2024-12-19T14:08:22Z</time>
      </trkpt>
      <trkpt lat="47.92659" lon="-2.50452">
        <ele>28.5</ele>
        <time>2024-12-19T14:08:23Z</time>
      </trkpt>
      <trkpt lat="47.9266" lon="-2.50454">
        <ele>28.5</ele>
        <time>2024-12-19T14:08:24Z</time>
      </trkpt>
      <trkpt lat="47.92661" lon="-2.50456">
        <ele>28.4</ele>
        <time>2024-12-19T14:08:25Z</time>
      </trkpt>
      <trkpt lat="47.92662" lon="-2.50457">
        <ele>28.4</ele>
        <time>2024-12-19T14:08:26Z</time>
      </trkpt>
      <trkpt lat="47.92663" lon="-2.50458">
        <ele>28.3</ele>
        <time>2024-12-19T14:08:27Z</time>
      </trkpt>
      <trkpt lat="47.92663" lon="-2.5046">
        <ele>28.1</ele>
        <time>2024-12-19T14:08:28Z</time>
      </trkpt>
      <trkpt lat="47.92663" lon="-2.50462">
        <ele>28</ele>
        <time>2024-12-19T14:08:29Z</time>
      </trkpt>
      <trkpt lat="47.92664" lon="-2.50464">
        <ele>27.8</ele>
        <time>2024-12-19T14:08:30Z</time>
      </trkpt>
      <trkpt lat="47.92664" lon="-2.50465">
        <ele>27.7</ele>
        <time>2024-12-19T14:08:31Z</time>
      </trkpt>
      <trkpt lat="47.92665" lon="-2.50467">
        <ele>27.6</ele>
        <time>2024-12-19T14:08:32Z</time>
      </trkpt>
      <trkpt lat="47.92666" lon="-2.50468">
        <ele>27.5</ele>
        <time>2024-12-19T14:08:33Z</time>
      </trkpt>
      <trkpt lat="47.92667" lon="-2.50469">
        <ele>27.4</ele>
        <time>2024-12-19T14:08:34Z</time>
      </trkpt>
      <trkpt lat="47.92668" lon="-2.5047">
        <ele>27.4</ele>
        <time>2024-12-19T14:08:35Z</time>
      </trkpt>
      <trkpt lat="47.9267" lon="-2.50472">
        <ele>27.5</ele>
        <time>2024-12-19T14:08:36Z</time>
      </trkpt>
      <trkpt lat="47.92671" lon="-2.50473">
        <ele>27.6</ele>
        <time>2024-12-19T14:08:37Z</time>
      </trkpt>
      <trkpt lat="47.92672" lon="-2.50474">
        <ele>27.7</ele>
        <time>2024-12-19T14:08:38Z</time>
      </trkpt>
      <trkpt lat="47.92672" lon="-2.50476">
        <ele>27.8</ele>
        <time>2024-12-19T14:08:39Z</time>
      </trkpt>
      <trkpt lat="47.92673" lon="-2.50478">
        <ele>27.8</ele>
        <time>2024-12-19T14:08:40Z</time>
      </trkpt>
      <trkpt lat="47.92673" lon="-2.50479">
        <ele>27.9</ele>
        <time>2024-12-19T14:08:41Z</time>
      </trkpt>
      <trkpt lat="47.92674" lon="-2.50481">
        <ele>27.9</ele>
        <time>2024-12-19T14:08:42Z</time>
      </trkpt>
      <trkpt lat="47.92674" lon="-2.50482">
        <ele>27.9</ele>
        <time>2024-12-19T14:08:43Z</time>
      </trkpt>
      <trkpt lat="47.92675" lon="-2.50483">
        <ele>28</ele>
        <time>2024-12-19T14:08:44Z</time>
      </trkpt>
      <trkpt lat="47.92675" lon="-2.50484">
        <ele>28.1</ele>
        <time>2024-12-19T14:08:45Z</time>
      </trkpt>
      <trkpt lat="47.92676" lon="-2.50484">
        <ele>28.2</ele>
        <time>2024-12-19T14:08:46Z</time>
      </trkpt>
      <trkpt lat="47.92677" lon="-2.50486">
        <ele>28.3</ele>
        <time>2024-12-19T14:08:47Z</time>
      </trkpt>
      <trkpt lat="47.92677" lon="-2.50487">
        <ele>28.3</ele>
        <time>2024-12-19T14:08:48Z</time>
      </trkpt>
      <trkpt lat="47.92678" lon="-2.50489">
        <ele>28.4</ele>
        <time>2024-12-19T14:08:49Z</time>
      </trkpt>
      <trkpt lat="47.92679" lon="-2.50491">
        <ele>28.4</ele>
        <time>2024-12-19T14:08:50Z</time>
      </trkpt>
      <trkpt lat="47.9268" lon="-2.50492">
        <ele>28.5</ele>
        <time>2024-12-19T14:08:51Z</time>
      </trkpt>
      <trkpt lat="47.9268" lon="-2.50494">
        <ele>28.6</ele>
        <time>2024-12-19T14:08:52Z</time>
      </trkpt>
      <trkpt lat="47.92681" lon="-2.50495">
        <ele>28.6</ele>
        <time>2024-12-19T14:08:53Z</time>
      </trkpt>
      <trkpt lat="47.92682" lon="-2.50496">
        <ele>28.7</ele>
        <time>2024-12-19T14:08:54Z</time>
      </trkpt>
      <trkpt lat="47.92683" lon="-2.50497">
        <ele>28.8</ele>
        <time>2024-12-19T14:08:55Z</time>
      </trkpt>
      <trkpt lat="47.92684" lon="-2.50499">
        <ele>28.9</ele>
        <time>2024-12-19T14:08:56Z</time>
      </trkpt>
      <trkpt lat="47.92685" lon="-2.505">
        <ele>28.9</ele>
        <time>2024-12-19T14:08:57Z</time>
      </trkpt>
      <trkpt lat="47.92685" lon="-2.50502">
        <ele>28.9</ele>
        <time>2024-12-19T14:08:58Z</time>
      </trkpt>
      <trkpt lat="47.92686" lon="-2.50503">
        <ele>28.9</ele>
        <time>2024-12-19T14:08:59Z</time>
      </trkpt>
      <trkpt lat="47.92687" lon="-2.50504">
        <ele>28.9</ele>
        <time>2024-12-19T14:09:00Z</time>
      </trkpt>
      <trkpt lat="47.92688" lon="-2.50505">
        <ele>28.9</ele>
        <time>2024-12-19T14:09:01Z</time>
      </trkpt>
      <trkpt lat="47.9269" lon="-2.50506">
        <ele>29</ele>
        <time>2024-12-19T14:09:02Z</time>
      </trkpt>
      <trkpt lat="47.92691" lon="-2.50507">
        <ele>29</ele>
        <time>2024-12-19T14:09:03Z</time>
      </trkpt>
      <trkpt lat="47.92691" lon="-2.50507">
        <ele>29</ele>
        <time>2024-12-19T14:09:04Z</time>
      </trkpt>
      <trkpt lat="47.92692" lon="-2.50509">
        <ele>28.9</ele>
        <time>2024-12-19T14:09:05Z</time>
      </trkpt>
      <trkpt lat="47.92693" lon="-2.5051">
        <ele>28.8</ele>
        <time>2024-12-19T14:09:06Z</time>
      </trkpt>
      <trkpt lat="47.92694" lon="-2.50512">
        <ele>28.7</ele>
        <time>2024-12-19T14:09:07Z</time>
      </trkpt>
      <trkpt lat="47.92695" lon="-2.50514">
        <ele>28.6</ele>
        <time>2024-12-19T14:09:08Z</time>
      </trkpt>
      <trkpt lat="47.92696" lon="-2.50515">
        <ele>28.5</ele>
        <time>2024-12-19T14:09:09Z</time>
      </trkpt>
      <trkpt lat="47.92696" lon="-2.50517">
        <ele>28.4</ele>
        <time>2024-12-19T14:09:10Z</time>
      </trkpt>
      <trkpt lat="47.92697" lon="-2.50518">
        <ele>28.3</ele>
        <time>2024-12-19T14:09:11Z</time>
      </trkpt>
      <trkpt lat="47.92697" lon="-2.5052">
        <ele>28.2</ele>
        <time>2024-12-19T14:09:12Z</time>
      </trkpt>
      <trkpt lat="47.92698" lon="-2.50521">
        <ele>28.1</ele>
        <time>2024-12-19T14:09:13Z</time>
      </trkpt>
      <trkpt lat="47.92698" lon="-2.50523">
        <ele>28.1</ele>
        <time>2024-12-19T14:09:14Z</time>
      </trkpt>
      <trkpt lat="47.92699" lon="-2.50524">
        <ele>28</ele>
        <time>2024-12-19T14:09:15Z</time>
      </trkpt>
      <trkpt lat="47.927" lon="-2.50525">
        <ele>28</ele>
        <time>2024-12-19T14:09:16Z</time>
      </trkpt>
      <trkpt lat="47.927" lon="-2.50527">
        <ele>27.9</ele>
        <time>2024-12-19T14:09:17Z</time>
      </trkpt>
      <trkpt lat="47.92701" lon="-2.50529">
        <ele>28</ele>
        <time>2024-12-19T14:09:18Z</time>
      </trkpt>
      <trkpt lat="47.92702" lon="-2.5053">
        <ele>28.1</ele>
        <time>2024-12-19T14:09:19Z</time>
      </trkpt>
      <trkpt lat="47.92703" lon="-2.50531">
        <ele>28.2</ele>
        <time>2024-12-19T14:09:20Z</time>
      </trkpt>
      <trkpt lat="47.92704" lon="-2.50532">
        <ele>28.3</ele>
        <time>2024-12-19T14:09:21Z</time>
      </trkpt>
      <trkpt lat="47.92705" lon="-2.50533">
        <ele>28.3</ele>
        <time>2024-12-19T14:09:22Z</time>
      </trkpt>
      <trkpt lat="47.92705" lon="-2.50534">
        <ele>28.3</ele>
        <time>2024-12-19T14:09:23Z</time>
      </trkpt>
      <trkpt lat="47.92706" lon="-2.50536">
        <ele>28.4</ele>
        <time>2024-12-19T14:09:24Z</time>
      </trkpt>
      <trkpt lat="47.92707" lon="-2.50537">
        <ele>28.5</ele>
        <time>2024-12-19T14:09:25Z</time>
      </trkpt>
      <trkpt lat="47.92707" lon="-2.50538">
        <ele>28.5</ele>
        <time>2024-12-19T14:09:26Z</time>
      </trkpt>
      <trkpt lat="47.92708" lon="-2.5054">
        <ele>28.5</ele>
        <time>2024-12-19T14:09:27Z</time>
      </trkpt>
      <trkpt lat="47.92709" lon="-2.50542">
        <ele>28.5</ele>
        <time>2024-12-19T14:09:28Z</time>
      </trkpt>
      <trkpt lat="47.92709" lon="-2.50544">
        <ele>28.5</ele>
        <time>2024-12-19T14:09:29Z</time>
      </trkpt>
      <trkpt lat="47.9271" lon="-2.50545">
        <ele>28.5</ele>
        <time>2024-12-19T14:09:30Z</time>
      </trkpt>
      <trkpt lat="47.92711" lon="-2.50547">
        <ele>28.6</ele>
        <time>2024-12-19T14:09:31Z</time>
      </trkpt>
      <trkpt lat="47.92712" lon="-2.50548">
        <ele>28.6</ele>
        <time>2024-12-19T14:09:32Z</time>
      </trkpt>
      <trkpt lat="47.92712" lon="-2.50548">
        <ele>28.6</ele>
        <time>2024-12-19T14:09:33Z</time>
      </trkpt>
      <trkpt lat="47.92713" lon="-2.50549">
        <ele>28.7</ele>
        <time>2024-12-19T14:09:34Z</time>
      </trkpt>
      <trkpt lat="47.92715" lon="-2.50551">
        <ele>28.7</ele>
        <time>2024-12-19T14:09:35Z</time>
      </trkpt>
      <trkpt lat="47.92716" lon="-2.50552">
        <ele>28.7</ele>
        <time>2024-12-19T14:09:36Z</time>
      </trkpt>
      <trkpt lat="47.92716" lon="-2.50554">
        <ele>28.7</ele>
        <time>2024-12-19T14:09:37Z</time>
      </trkpt>
      <trkpt lat="47.92717" lon="-2.50556">
        <ele>28.6</ele>
        <time>2024-12-19T14:09:38Z</time>
      </trkpt>
      <trkpt lat="47.92718" lon="-2.50557">
        <ele>28.6</ele>
        <time>2024-12-19T14:09:39Z</time>
      </trkpt>
      <trkpt lat="47.92719" lon="-2.50559">
        <ele>28.5</ele>
        <time>2024-12-19T14:09:40Z</time>
      </trkpt>
      <trkpt lat="47.9272" lon="-2.5056">
        <ele>28.5</ele>
        <time>2024-12-19T14:09:41Z</time>
      </trkpt>
      <trkpt lat="47.9272" lon="-2.50561">
        <ele>28.5</ele>
        <time>2024-12-19T14:09:42Z</time>
      </trkpt>
      <trkpt lat="47.92721" lon="-2.50563">
        <ele>28.4</ele>
        <time>2024-12-19T14:09:43Z</time>
      </trkpt>
      <trkpt lat="47.92722" lon="-2.50565">
        <ele>28.3</ele>
        <time>2024-12-19T14:09:44Z</time>
      </trkpt>
      <trkpt lat="47.92722" lon="-2.50566">
        <ele>28.2</ele>
        <time>2024-12-19T14:09:45Z</time>
      </trkpt>
      <trkpt lat="47.92723" lon="-2.50567">
        <ele>28.2</ele>
        <time>2024-12-19T14:09:46Z</time>
      </trkpt>
      <trkpt lat="47.92723" lon="-2.50569">
        <ele>28.1</ele>
        <time>2024-12-19T14:09:47Z</time>
      </trkpt>
      <trkpt lat="47.92724" lon="-2.50571">
        <ele>28</ele>
        <time>2024-12-19T14:09:48Z</time>
      </trkpt>
      <trkpt lat="47.92724" lon="-2.50572">
        <ele>28</ele>
        <time>2024-12-19T14:09:49Z</time>
      </trkpt>
      <trkpt lat="47.92725" lon="-2.50573">
        <ele>28.1</ele>
        <time>2024-12-19T14:09:50Z</time>
      </trkpt>
      <trkpt lat="47.92726" lon="-2.50574">
        <ele>28.1</ele>
        <time>2024-12-19T14:09:51Z</time>
      </trkpt>
      <trkpt lat="47.92727" lon="-2.50575">
        <ele>28.1</ele>
        <time>2024-12-19T14:09:52Z</time>
      </trkpt>
      <trkpt lat="47.92728" lon="-2.50577">
        <ele>28.1</ele>
        <time>2024-12-19T14:09:53Z</time>
      </trkpt>
      <trkpt lat="47.92729" lon="-2.50578">
        <ele>28.1</ele>
        <time>2024-12-19T14:09:54Z</time>
      </trkpt>
      <trkpt lat="47.92729" lon="-2.5058">
        <ele>28</ele>
        <time>2024-12-19T14:09:55Z</time>
      </trkpt>
      <trkpt lat="47.9273" lon="-2.50581">
        <ele>28</ele>
        <time>2024-12-19T14:09:56Z</time>
      </trkpt>
      <trkpt lat="47.9273" lon="-2.50583">
        <ele>27.9</ele>
        <time>2024-12-19T14:09:57Z</time>
      </trkpt>
      <trkpt lat="47.92731" lon="-2.50585">
        <ele>27.9</ele>
        <time>2024-12-19T14:09:58Z</time>
      </trkpt>
      <trkpt lat="47.92732" lon="-2.50586">
        <ele>28</ele>
        <time>2024-12-19T14:09:59Z</time>
      </trkpt>
      <trkpt lat="47.92733" lon="-2.50587">
        <ele>28.1</ele>
        <time>2024-12-19T14:10:00Z</time>
      </trkpt>
      <trkpt lat="47.92734" lon="-2.50588">
        <ele>28.1</ele>
        <time>2024-12-19T14:10:01Z</time>
      </trkpt>
      <trkpt lat="47.92735" lon="-2.50589">
        <ele>28.2</ele>
        <time>2024-12-19T14:10:02Z</time>
      </trkpt>
      <trkpt lat="47.92736" lon="-2.50591">
        <ele>28.3</ele>
        <time>2024-12-19T14:10:03Z</time>
      </trkpt>
      <trkpt lat="47.92737" lon="-2.50592">
        <ele>28.3</ele>
        <time>2024-12-19T14:10:04Z</time>
      </trkpt>
      <trkpt lat="47.92738" lon="-2.50594">
        <ele>28.3</ele>
        <time>2024-12-19T14:10:05Z</time>
      </trkpt>
      <trkpt lat="47.92739" lon="-2.50596">
        <ele>28.3</ele>
        <time>2024-12-19T14:10:06Z</time>
      </trkpt>
      <trkpt lat="47.92739" lon="-2.50598">
        <ele>28.2</ele>
        <time>2024-12-19T14:10:07Z</time>
      </trkpt>
      <trkpt lat="47.9274" lon="-2.506">
        <ele>28.1</ele>
        <time>2024-12-19T14:10:08Z</time>
      </trkpt>
      <trkpt lat="47.92741" lon="-2.50602">
        <ele>28.1</ele>
        <time>2024-12-19T14:10:09Z</time>
      </trkpt>
      <trkpt lat="47.92742" lon="-2.50603">
        <ele>28.1</ele>
        <time>2024-12-19T14:10:10Z</time>
      </trkpt>
      <trkpt lat="47.92743" lon="-2.50604">
        <ele>28.1</ele>
        <time>2024-12-19T14:10:11Z</time>
      </trkpt>
      <trkpt lat="47.92744" lon="-2.50606">
        <ele>28.1</ele>
        <time>2024-12-19T14:10:12Z</time>
      </trkpt>
      <trkpt lat="47.92745" lon="-2.50608">
        <ele>28</ele>
        <time>2024-12-19T14:10:13Z</time>
      </trkpt>
      <trkpt lat="47.92747" lon="-2.50609">
        <ele>28</ele>
        <time>2024-12-19T14:10:14Z</time>
      </trkpt>
      <trkpt lat="47.92748" lon="-2.50611">
        <ele>28</ele>
        <time>2024-12-19T14:10:15Z</time>
      </trkpt>
      <trkpt lat="47.92749" lon="-2.50612">
        <ele>27.9</ele>
        <time>2024-12-19T14:10:16Z</time>
      </trkpt>
      <trkpt lat="47.9275" lon="-2.50613">
        <ele>27.9</ele>
        <time>2024-12-19T14:10:17Z</time>
      </trkpt>
      <trkpt lat="47.92751" lon="-2.50615">
        <ele>28</ele>
        <time>2024-12-19T14:10:18Z</time>
      </trkpt>
      <trkpt lat="47.92752" lon="-2.50616">
        <ele>28.1</ele>
        <time>2024-12-19T14:10:19Z</time>
      </trkpt>
      <trkpt lat="47.92753" lon="-2.50618">
        <ele>28.1</ele>
        <time>2024-12-19T14:10:20Z</time>
      </trkpt>
      <trkpt lat="47.92755" lon="-2.50618">
        <ele>28.3</ele>
        <time>2024-12-19T14:10:21Z</time>
      </trkpt>
      <trkpt lat="47.92756" lon="-2.50619">
        <ele>28.3</ele>
        <time>2024-12-19T14:10:22Z</time>
      </trkpt>
      <trkpt lat="47.92757" lon="-2.50621">
        <ele>28.4</ele>
        <time>2024-12-19T14:10:23Z</time>
      </trkpt>
      <trkpt lat="47.92758" lon="-2.50622">
        <ele>28.5</ele>
        <time>2024-12-19T14:10:24Z</time>
      </trkpt>
      <trkpt lat="47.92759" lon="-2.50623">
        <ele>28.5</ele>
        <time>2024-12-19T14:10:25Z</time>
      </trkpt>
      <trkpt lat="47.9276" lon="-2.50625">
        <ele>28.6</ele>
        <time>2024-12-19T14:10:26Z</time>
      </trkpt>
      <trkpt lat="47.9276" lon="-2.50626">
        <ele>28.6</ele>
        <time>2024-12-19T14:10:27Z</time>
      </trkpt>
      <trkpt lat="47.92761" lon="-2.50628">
        <ele>28.6</ele>
        <time>2024-12-19T14:10:28Z</time>
      </trkpt>
      <trkpt lat="47.92761" lon="-2.5063">
        <ele>28.5</ele>
        <time>2024-12-19T14:10:29Z</time>
      </trkpt>
      <trkpt lat="47.92762" lon="-2.50632">
        <ele>28.5</ele>
        <time>2024-12-19T14:10:30Z</time>
      </trkpt>
      <trkpt lat="47.92762" lon="-2.50633">
        <ele>28.5</ele>
        <time>2024-12-19T14:10:31Z</time>
      </trkpt>
      <trkpt lat="47.92763" lon="-2.50634">
        <ele>28.6</ele>
        <time>2024-12-19T14:10:32Z</time>
      </trkpt>
      <trkpt lat="47.92764" lon="-2.50635">
        <ele>28.7</ele>
        <time>2024-12-19T14:10:33Z</time>
      </trkpt>
      <trkpt lat="47.92766" lon="-2.50637">
        <ele>28.8</ele>
        <time>2024-12-19T14:10:34Z</time>
      </trkpt>
      <trkpt lat="47.92768" lon="-2.50639">
        <ele>28.9</ele>
        <time>2024-12-19T14:10:35Z</time>
      </trkpt>
      <trkpt lat="47.92769" lon="-2.5064">
        <ele>29</ele>
        <time>2024-12-19T14:10:36Z</time>
      </trkpt>
      <trkpt lat="47.9277" lon="-2.50641">
        <ele>29</ele>
        <time>2024-12-19T14:10:37Z</time>
      </trkpt>
      <trkpt lat="47.92771" lon="-2.50643">
        <ele>29</ele>
        <time>2024-12-19T14:10:38Z</time>
      </trkpt>
      <trkpt lat="47.92772" lon="-2.50644">
        <ele>29</ele>
        <time>2024-12-19T14:10:39Z</time>
      </trkpt>
      <trkpt lat="47.92773" lon="-2.50645">
        <ele>28.9</ele>
        <time>2024-12-19T14:10:40Z</time>
      </trkpt>
      <trkpt lat="47.92774" lon="-2.50647">
        <ele>28.8</ele>
        <time>2024-12-19T14:10:41Z</time>
      </trkpt>
      <trkpt lat="47.92774" lon="-2.50649">
        <ele>28.6</ele>
        <time>2024-12-19T14:10:42Z</time>
      </trkpt>
      <trkpt lat="47.92775" lon="-2.50651">
        <ele>28.6</ele>
        <time>2024-12-19T14:10:43Z</time>
      </trkpt>
      <trkpt lat="47.92776" lon="-2.50652">
        <ele>28.5</ele>
        <time>2024-12-19T14:10:44Z</time>
      </trkpt>
      <trkpt lat="47.92777" lon="-2.50654">
        <ele>28.4</ele>
        <time>2024-12-19T14:10:45Z</time>
      </trkpt>
      <trkpt lat="47.92778" lon="-2.50655">
        <ele>28.2</ele>
        <time>2024-12-19T14:10:46Z</time>
      </trkpt>
      <trkpt lat="47.92778" lon="-2.50657">
        <ele>28.1</ele>
        <time>2024-12-19T14:10:47Z</time>
      </trkpt>
      <trkpt lat="47.92779" lon="-2.50658">
        <ele>28</ele>
        <time>2024-12-19T14:10:48Z</time>
      </trkpt>
      <trkpt lat="47.9278" lon="-2.5066">
        <ele>28</ele>
        <time>2024-12-19T14:10:49Z</time>
      </trkpt>
      <trkpt lat="47.92781" lon="-2.50662">
        <ele>27.9</ele>
        <time>2024-12-19T14:10:50Z</time>
      </trkpt>
      <trkpt lat="47.92781" lon="-2.50663">
        <ele>27.9</ele>
        <time>2024-12-19T14:10:51Z</time>
      </trkpt>
      <trkpt lat="47.92782" lon="-2.50664">
        <ele>27.9</ele>
        <time>2024-12-19T14:10:52Z</time>
      </trkpt>
      <trkpt lat="47.92783" lon="-2.50664">
        <ele>27.9</ele>
        <time>2024-12-19T14:10:53Z</time>
      </trkpt>
      <trkpt lat="47.92783" lon="-2.50665">
        <ele>28</ele>
        <time>2024-12-19T14:10:54Z</time>
      </trkpt>
      <trkpt lat="47.92785" lon="-2.50666">
        <ele>28.1</ele>
        <time>2024-12-19T14:10:55Z</time>
      </trkpt>
      <trkpt lat="47.92786" lon="-2.50666">
        <ele>28.3</ele>
        <time>2024-12-19T14:10:56Z</time>
      </trkpt>
      <trkpt lat="47.92787" lon="-2.50666">
        <ele>28.4</ele>
        <time>2024-12-19T14:10:57Z</time>
      </trkpt>
      <trkpt lat="47.92788" lon="-2.50668">
        <ele>28.5</ele>
        <time>2024-12-19T14:10:58Z</time>
      </trkpt>
      <trkpt lat="47.9279" lon="-2.50669">
        <ele>28.6</ele>
        <time>2024-12-19T14:10:59Z</time>
      </trkpt>
      <trkpt lat="47.9279" lon="-2.50671">
        <ele>28.6</ele>
        <time>2024-12-19T14:11:00Z</time>
      </trkpt>
      <trkpt lat="47.92791" lon="-2.50672">
        <ele>28.7</ele>
        <time>2024-12-19T14:11:01Z</time>
      </trkpt>
      <trkpt lat="47.92791" lon="-2.50674">
        <ele>28.7</ele>
        <time>2024-12-19T14:11:02Z</time>
      </trkpt>
      <trkpt lat="47.92792" lon="-2.50675">
        <ele>28.7</ele>
        <time>2024-12-19T14:11:03Z</time>
      </trkpt>
      <trkpt lat="47.92793" lon="-2.50676">
        <ele>28.8</ele>
        <time>2024-12-19T14:11:04Z</time>
      </trkpt>
      <trkpt lat="47.92793" lon="-2.50677">
        <ele>28.8</ele>
        <time>2024-12-19T14:11:05Z</time>
      </trkpt>
      <trkpt lat="47.92794" lon="-2.50678">
        <ele>28.9</ele>
        <time>2024-12-19T14:11:06Z</time>
      </trkpt>
      <trkpt lat="47.92795" lon="-2.50678">
        <ele>28.9</ele>
        <time>2024-12-19T14:11:07Z</time>
      </trkpt>
      <trkpt lat="47.92796" lon="-2.50679">
        <ele>29</ele>
        <time>2024-12-19T14:11:08Z</time>
      </trkpt>
      <trkpt lat="47.92796" lon="-2.5068">
        <ele>29</ele>
        <time>2024-12-19T14:11:09Z</time>
      </trkpt>
      <trkpt lat="47.92797" lon="-2.50681">
        <ele>29</ele>
        <time>2024-12-19T14:11:10Z</time>
      </trkpt>
      <trkpt lat="47.92798" lon="-2.50683">
        <ele>29</ele>
        <time>2024-12-19T14:11:11Z</time>
      </trkpt>
      <trkpt lat="47.92798" lon="-2.50684">
        <ele>29</ele>
        <time>2024-12-19T14:11:12Z</time>
      </trkpt>
      <trkpt lat="47.92798" lon="-2.50686">
        <ele>28.9</ele>
        <time>2024-12-19T14:11:13Z</time>
      </trkpt>
      <trkpt lat="47.92798" lon="-2.50688">
        <ele>28.9</ele>
        <time>2024-12-19T14:11:14Z</time>
      </trkpt>
      <trkpt lat="47.92799" lon="-2.50689">
        <ele>28.8</ele>
        <time>2024-12-19T14:11:15Z</time>
      </trkpt>
      <trkpt lat="47.92799" lon="-2.5069">
        <ele>28.8</ele>
        <time>2024-12-19T14:11:16Z</time>
      </trkpt>
      <trkpt lat="47.928" lon="-2.50691">
        <ele>28.8</ele>
        <time>2024-12-19T14:11:17Z</time>
      </trkpt>
      <trkpt lat="47.92801" lon="-2.50693">
        <ele>28.8</ele>
        <time>2024-12-19T14:11:18Z</time>
      </trkpt>
      <trkpt lat="47.92803" lon="-2.50694">
        <ele>28.8</ele>
        <time>2024-12-19T14:11:19Z</time>
      </trkpt>
      <trkpt lat="47.92804" lon="-2.50695">
        <ele>28.8</ele>
        <time>2024-12-19T14:11:20Z</time>
      </trkpt>
      <trkpt lat="47.92805" lon="-2.50696">
        <ele>28.8</ele>
        <time>2024-12-19T14:11:21Z</time>
      </trkpt>
      <trkpt lat="47.92806" lon="-2.50698">
        <ele>28.8</ele>
        <time>2024-12-19T14:11:22Z</time>
      </trkpt>
      <trkpt lat="47.92806" lon="-2.507">
        <ele>28.7</ele>
        <time>2024-12-19T14:11:23Z</time>
      </trkpt>
      <trkpt lat="47.92807" lon="-2.50701">
        <ele>28.7</ele>
        <time>2024-12-19T14:11:24Z</time>
      </trkpt>
      <trkpt lat="47.92808" lon="-2.50702">
        <ele>28.6</ele>
        <time>2024-12-19T14:11:25Z</time>
      </trkpt>
      <trkpt lat="47.92808" lon="-2.50704">
        <ele>28.6</ele>
        <time>2024-12-19T14:11:26Z</time>
      </trkpt>
      <trkpt lat="47.92809" lon="-2.50705">
        <ele>28.7</ele>
        <time>2024-12-19T14:11:27Z</time>
      </trkpt>
      <trkpt lat="47.9281" lon="-2.50706">
        <ele>28.6</ele>
        <time>2024-12-19T14:11:28Z</time>
      </trkpt>
      <trkpt lat="47.9281" lon="-2.50707">
        <ele>28.6</ele>
        <time>2024-12-19T14:11:29Z</time>
      </trkpt>
      <trkpt lat="47.92811" lon="-2.50708">
        <ele>28.6</ele>
        <time>2024-12-19T14:11:30Z</time>
      </trkpt>
      <trkpt lat="47.92811" lon="-2.50709">
        <ele>28.6</ele>
        <time>2024-12-19T14:11:31Z</time>
      </trkpt>
      <trkpt lat="47.92812" lon="-2.5071">
        <ele>28.6</ele>
        <time>2024-12-19T14:11:32Z</time>
      </trkpt>
      <trkpt lat="47.92813" lon="-2.50711">
        <ele>28.6</ele>
        <time>2024-12-19T14:11:33Z</time>
      </trkpt>
      <trkpt lat="47.92814" lon="-2.50712">
        <ele>28.6</ele>
        <time>2024-12-19T14:11:34Z</time>
      </trkpt>
      <trkpt lat="47.92814" lon="-2.50714">
        <ele>28.6</ele>
        <time>2024-12-19T14:11:35Z</time>
      </trkpt>
      <trkpt lat="47.92815" lon="-2.50715">
        <ele>28.6</ele>
        <time>2024-12-19T14:11:36Z</time>
      </trkpt>
      <trkpt lat="47.92815" lon="-2.50716">
        <ele>28.5</ele>
        <time>2024-12-19T14:11:37Z</time>
      </trkpt>
      <trkpt lat="47.92816" lon="-2.50717">
        <ele>28.5</ele>
        <time>2024-12-19T14:11:38Z</time>
      </trkpt>
      <trkpt lat="47.92817" lon="-2.50718">
        <ele>28.6</ele>
        <time>2024-12-19T14:11:39Z</time>
      </trkpt>
      <trkpt lat="47.92818" lon="-2.50719">
        <ele>28.6</ele>
        <time>2024-12-19T14:11:40Z</time>
      </trkpt>
      <trkpt lat="47.92819" lon="-2.5072">
        <ele>28.7</ele>
        <time>2024-12-19T14:11:41Z</time>
      </trkpt>
      <trkpt lat="47.9282" lon="-2.50721">
        <ele>28.7</ele>
        <time>2024-12-19T14:11:42Z</time>
      </trkpt>
      <trkpt lat="47.92821" lon="-2.50721">
        <ele>28.7</ele>
        <time>2024-12-19T14:11:43Z</time>
      </trkpt>
      <trkpt lat="47.92822" lon="-2.50723">
        <ele>28.8</ele>
        <time>2024-12-19T14:11:44Z</time>
      </trkpt>
      <trkpt lat="47.92823" lon="-2.50724">
        <ele>28.8</ele>
        <time>2024-12-19T14:11:45Z</time>
      </trkpt>
      <trkpt lat="47.92824" lon="-2.50726">
        <ele>28.8</ele>
        <time>2024-12-19T14:11:46Z</time>
      </trkpt>
      <trkpt lat="47.92825" lon="-2.50727">
        <ele>28.8</ele>
        <time>2024-12-19T14:11:47Z</time>
      </trkpt>
      <trkpt lat="47.92825" lon="-2.50728">
        <ele>28.8</ele>
        <time>2024-12-19T14:11:48Z</time>
      </trkpt>
      <trkpt lat="47.92826" lon="-2.5073">
        <ele>28.8</ele>
        <time>2024-12-19T14:11:49Z</time>
      </trkpt>
      <trkpt lat="47.92826" lon="-2.50731">
        <ele>28.8</ele>
        <time>2024-12-19T14:11:50Z</time>
      </trkpt>
      <trkpt lat="47.92826" lon="-2.50731">
        <ele>28.7</ele>
        <time>2024-12-19T14:11:51Z</time>
      </trkpt>
      <trkpt lat="47.92826" lon="-2.50733">
        <ele>28.7</ele>
        <time>2024-12-19T14:11:52Z</time>
      </trkpt>
      <trkpt lat="47.92827" lon="-2.50735">
        <ele>28.6</ele>
        <time>2024-12-19T14:11:53Z</time>
      </trkpt>
      <trkpt lat="47.92827" lon="-2.50737">
        <ele>28.5</ele>
        <time>2024-12-19T14:11:54Z</time>
      </trkpt>
      <trkpt lat="47.92828" lon="-2.50738">
        <ele>28.5</ele>
        <time>2024-12-19T14:11:55Z</time>
      </trkpt>
      <trkpt lat="47.9283" lon="-2.50741">
        <ele>28.4</ele>
        <time>2024-12-19T14:11:57Z</time>
      </trkpt>
      <trkpt lat="47.92831" lon="-2.50742">
        <ele>28.4</ele>
        <time>2024-12-19T14:11:58Z</time>
      </trkpt>
      <trkpt lat="47.92832" lon="-2.50743">
        <ele>28.4</ele>
        <time>2024-12-19T14:11:59Z</time>
      </trkpt>
      <trkpt lat="47.92833" lon="-2.50745">
        <ele>28.4</ele>
        <time>2024-12-19T14:12:00Z</time>
      </trkpt>
      <trkpt lat="47.92834" lon="-2.50746">
        <ele>28.4</ele>
        <time>2024-12-19T14:12:01Z</time>
      </trkpt>
      <trkpt lat="47.92835" lon="-2.50747">
        <ele>28.4</ele>
        <time>2024-12-19T14:12:02Z</time>
      </trkpt>
      <trkpt lat="47.92837" lon="-2.50748">
        <ele>28.5</ele>
        <time>2024-12-19T14:12:03Z</time>
      </trkpt>
      <trkpt lat="47.92839" lon="-2.50749">
        <ele>28.6</ele>
        <time>2024-12-19T14:12:04Z</time>
      </trkpt>
      <trkpt lat="47.92841" lon="-2.5075">
        <ele>28.8</ele>
        <time>2024-12-19T14:12:05Z</time>
      </trkpt>
      <trkpt lat="47.92843" lon="-2.5075">
        <ele>29</ele>
        <time>2024-12-19T14:12:06Z</time>
      </trkpt>
      <trkpt lat="47.92845" lon="-2.50751">
        <ele>29.2</ele>
        <time>2024-12-19T14:12:07Z</time>
      </trkpt>
      <trkpt lat="47.92846" lon="-2.50752">
        <ele>29.4</ele>
        <time>2024-12-19T14:12:08Z</time>
      </trkpt>
      <trkpt lat="47.92848" lon="-2.50753">
        <ele>29.5</ele>
        <time>2024-12-19T14:12:09Z</time>
      </trkpt>
      <trkpt lat="47.92849" lon="-2.50754">
        <ele>29.5</ele>
        <time>2024-12-19T14:12:10Z</time>
      </trkpt>
      <trkpt lat="47.9285" lon="-2.50756">
        <ele>29.6</ele>
        <time>2024-12-19T14:12:11Z</time>
      </trkpt>
      <trkpt lat="47.92851" lon="-2.50757">
        <ele>29.7</ele>
        <time>2024-12-19T14:12:12Z</time>
      </trkpt>
      <trkpt lat="47.92853" lon="-2.50758">
        <ele>29.8</ele>
        <time>2024-12-19T14:12:13Z</time>
      </trkpt>
      <trkpt lat="47.92854" lon="-2.50758">
        <ele>30</ele>
        <time>2024-12-19T14:12:14Z</time>
      </trkpt>
      <trkpt lat="47.92856" lon="-2.50759">
        <ele>30.1</ele>
        <time>2024-12-19T14:12:15Z</time>
      </trkpt>
      <trkpt lat="47.92857" lon="-2.5076">
        <ele>30.2</ele>
        <time>2024-12-19T14:12:16Z</time>
      </trkpt>
      <trkpt lat="47.92858" lon="-2.50762">
        <ele>30.3</ele>
        <time>2024-12-19T14:12:17Z</time>
      </trkpt>
      <trkpt lat="47.92859" lon="-2.50763">
        <ele>30.4</ele>
        <time>2024-12-19T14:12:18Z</time>
      </trkpt>
      <trkpt lat="47.92861" lon="-2.50764">
        <ele>30.4</ele>
        <time>2024-12-19T14:12:19Z</time>
      </trkpt>
      <trkpt lat="47.92861" lon="-2.50765">
        <ele>30.5</ele>
        <time>2024-12-19T14:12:20Z</time>
      </trkpt>
      <trkpt lat="47.92861" lon="-2.50766">
        <ele>30.4</ele>
        <time>2024-12-19T14:12:21Z</time>
      </trkpt>
      <trkpt lat="47.92862" lon="-2.50767">
        <ele>30.4</ele>
        <time>2024-12-19T14:12:22Z</time>
      </trkpt>
      <trkpt lat="47.92862" lon="-2.50769">
        <ele>30.4</ele>
        <time>2024-12-19T14:12:23Z</time>
      </trkpt>
      <trkpt lat="47.92862" lon="-2.5077">
        <ele>30.4</ele>
        <time>2024-12-19T14:12:24Z</time>
      </trkpt>
      <trkpt lat="47.92862" lon="-2.50771">
        <ele>30.3</ele>
        <time>2024-12-19T14:12:25Z</time>
      </trkpt>
      <trkpt lat="47.92862" lon="-2.50772">
        <ele>30.3</ele>
        <time>2024-12-19T14:12:26Z</time>
      </trkpt>
      <trkpt lat="47.92863" lon="-2.50772">
        <ele>30.3</ele>
        <time>2024-12-19T14:12:27Z</time>
      </trkpt>
      <trkpt lat="47.92864" lon="-2.50776">
        <ele>30.3</ele>
        <time>2024-12-19T14:12:29Z</time>
      </trkpt>
      <trkpt lat="47.92864" lon="-2.50777">
        <ele>30.2</ele>
        <time>2024-12-19T14:12:30Z</time>
      </trkpt>
      <trkpt lat="47.92865" lon="-2.50779">
        <ele>30.2</ele>
        <time>2024-12-19T14:12:31Z</time>
      </trkpt>
      <trkpt lat="47.92865" lon="-2.5078">
        <ele>30.2</ele>
        <time>2024-12-19T14:12:32Z</time>
      </trkpt>
      <trkpt lat="47.92866" lon="-2.50781">
        <ele>30.2</ele>
        <time>2024-12-19T14:12:33Z</time>
      </trkpt>
      <trkpt lat="47.92866" lon="-2.50783">
        <ele>30.2</ele>
        <time>2024-12-19T14:12:34Z</time>
      </trkpt>
      <trkpt lat="47.92867" lon="-2.50784">
        <ele>30.2</ele>
        <time>2024-12-19T14:12:35Z</time>
      </trkpt>
      <trkpt lat="47.92868" lon="-2.50786">
        <ele>30.2</ele>
        <time>2024-12-19T14:12:36Z</time>
      </trkpt>
      <trkpt lat="47.92868" lon="-2.50788">
        <ele>30.2</ele>
        <time>2024-12-19T14:12:37Z</time>
      </trkpt>
      <trkpt lat="47.92869" lon="-2.50789">
        <ele>30.2</ele>
        <time>2024-12-19T14:12:38Z</time>
      </trkpt>
      <trkpt lat="47.9287" lon="-2.5079">
        <ele>30.2</ele>
        <time>2024-12-19T14:12:39Z</time>
      </trkpt>
      <trkpt lat="47.92871" lon="-2.50791">
        <ele>30.2</ele>
        <time>2024-12-19T14:12:40Z</time>
      </trkpt>
      <trkpt lat="47.92871" lon="-2.50792">
        <ele>30.2</ele>
        <time>2024-12-19T14:12:41Z</time>
      </trkpt>
      <trkpt lat="47.92872" lon="-2.50793">
        <ele>30.2</ele>
        <time>2024-12-19T14:12:42Z</time>
      </trkpt>
      <trkpt lat="47.92872" lon="-2.50794">
        <ele>30.2</ele>
        <time>2024-12-19T14:12:43Z</time>
      </trkpt>
      <trkpt lat="47.92873" lon="-2.50795">
        <ele>30.2</ele>
        <time>2024-12-19T14:12:44Z</time>
      </trkpt>
      <trkpt lat="47.92873" lon="-2.50796">
        <ele>30.2</ele>
        <time>2024-12-19T14:12:45Z</time>
      </trkpt>
      <trkpt lat="47.92873" lon="-2.50797">
        <ele>30.2</ele>
        <time>2024-12-19T14:12:46Z</time>
      </trkpt>
      <trkpt lat="47.92874" lon="-2.50798">
        <ele>30.2</ele>
        <time>2024-12-19T14:12:47Z</time>
      </trkpt>
      <trkpt lat="47.92875" lon="-2.50799">
        <ele>30.2</ele>
        <time>2024-12-19T14:12:48Z</time>
      </trkpt>
      <trkpt lat="47.92876" lon="-2.508">
        <ele>30.3</ele>
        <time>2024-12-19T14:12:49Z</time>
      </trkpt>
      <trkpt lat="47.92877" lon="-2.50801">
        <ele>30.3</ele>
        <time>2024-12-19T14:12:50Z</time>
      </trkpt>
      <trkpt lat="47.92878" lon="-2.50802">
        <ele>30.3</ele>
        <time>2024-12-19T14:12:51Z</time>
      </trkpt>
      <trkpt lat="47.92878" lon="-2.50803">
        <ele>30.4</ele>
        <time>2024-12-19T14:12:52Z</time>
      </trkpt>
      <trkpt lat="47.92879" lon="-2.50803">
        <ele>30.4</ele>
        <time>2024-12-19T14:12:53Z</time>
      </trkpt>
      <trkpt lat="47.92881" lon="-2.50804">
        <ele>30.4</ele>
        <time>2024-12-19T14:12:54Z</time>
      </trkpt>
      <trkpt lat="47.92881" lon="-2.50805">
        <ele>30.5</ele>
        <time>2024-12-19T14:12:55Z</time>
      </trkpt>
      <trkpt lat="47.92882" lon="-2.50806">
        <ele>30.5</ele>
        <time>2024-12-19T14:12:56Z</time>
      </trkpt>
      <trkpt lat="47.92884" lon="-2.50807">
        <ele>30.5</ele>
        <time>2024-12-19T14:12:57Z</time>
      </trkpt>
      <trkpt lat="47.92885" lon="-2.50809">
        <ele>30.5</ele>
        <time>2024-12-19T14:12:58Z</time>
      </trkpt>
      <trkpt lat="47.92886" lon="-2.5081">
        <ele>30.5</ele>
        <time>2024-12-19T14:12:59Z</time>
      </trkpt>
      <trkpt lat="47.92887" lon="-2.50811">
        <ele>30.5</ele>
        <time>2024-12-19T14:13:00Z</time>
      </trkpt>
      <trkpt lat="47.92888" lon="-2.50812">
        <ele>30.5</ele>
        <time>2024-12-19T14:13:01Z</time>
      </trkpt>
      <trkpt lat="47.92889" lon="-2.50813">
        <ele>30.4</ele>
        <time>2024-12-19T14:13:02Z</time>
      </trkpt>
      <trkpt lat="47.9289" lon="-2.50815">
        <ele>30.4</ele>
        <time>2024-12-19T14:13:03Z</time>
      </trkpt>
      <trkpt lat="47.92891" lon="-2.50815">
        <ele>30.4</ele>
        <time>2024-12-19T14:13:04Z</time>
      </trkpt>
      <trkpt lat="47.92892" lon="-2.50817">
        <ele>30.3</ele>
        <time>2024-12-19T14:13:05Z</time>
      </trkpt>
      <trkpt lat="47.92893" lon="-2.50818">
        <ele>30.3</ele>
        <time>2024-12-19T14:13:06Z</time>
      </trkpt>
      <trkpt lat="47.92894" lon="-2.50819">
        <ele>30.3</ele>
        <time>2024-12-19T14:13:07Z</time>
      </trkpt>
      <trkpt lat="47.92896" lon="-2.5082">
        <ele>30.3</ele>
        <time>2024-12-19T14:13:08Z</time>
      </trkpt>
      <trkpt lat="47.92897" lon="-2.50821">
        <ele>30.3</ele>
        <time>2024-12-19T14:13:09Z</time>
      </trkpt>
      <trkpt lat="47.92898" lon="-2.50822">
        <ele>30.3</ele>
        <time>2024-12-19T14:13:10Z</time>
      </trkpt>
      <trkpt lat="47.92898" lon="-2.50824">
        <ele>30.2</ele>
        <time>2024-12-19T14:13:11Z</time>
      </trkpt>
      <trkpt lat="47.92898" lon="-2.50825">
        <ele>30.2</ele>
        <time>2024-12-19T14:13:12Z</time>
      </trkpt>
      <trkpt lat="47.92898" lon="-2.50825">
        <ele>30.2</ele>
        <time>2024-12-19T14:13:13Z</time>
      </trkpt>
      <trkpt lat="47.92899" lon="-2.50826">
        <ele>30.1</ele>
        <time>2024-12-19T14:13:14Z</time>
      </trkpt>
      <trkpt lat="47.92899" lon="-2.50827">
        <ele>30.1</ele>
        <time>2024-12-19T14:13:15Z</time>
      </trkpt>
      <trkpt lat="47.929" lon="-2.50828">
        <ele>30.1</ele>
        <time>2024-12-19T14:13:16Z</time>
      </trkpt>
      <trkpt lat="47.92901" lon="-2.50829">
        <ele>30.1</ele>
        <time>2024-12-19T14:13:17Z</time>
      </trkpt>
      <trkpt lat="47.92902" lon="-2.5083">
        <ele>30.1</ele>
        <time>2024-12-19T14:13:18Z</time>
      </trkpt>
      <trkpt lat="47.92903" lon="-2.50831">
        <ele>30.1</ele>
        <time>2024-12-19T14:13:19Z</time>
      </trkpt>
      <trkpt lat="47.92905" lon="-2.50833">
        <ele>30.2</ele>
        <time>2024-12-19T14:13:20Z</time>
      </trkpt>
      <trkpt lat="47.92906" lon="-2.50834">
        <ele>30.2</ele>
        <time>2024-12-19T14:13:21Z</time>
      </trkpt>
      <trkpt lat="47.92907" lon="-2.50834">
        <ele>30.2</ele>
        <time>2024-12-19T14:13:22Z</time>
      </trkpt>
      <trkpt lat="47.92908" lon="-2.50835">
        <ele>30.2</ele>
        <time>2024-12-19T14:13:23Z</time>
      </trkpt>
      <trkpt lat="47.92909" lon="-2.50836">
        <ele>30.3</ele>
        <time>2024-12-19T14:13:24Z</time>
      </trkpt>
      <trkpt lat="47.9291" lon="-2.50837">
        <ele>30.3</ele>
        <time>2024-12-19T14:13:25Z</time>
      </trkpt>
      <trkpt lat="47.92911" lon="-2.50839">
        <ele>30.3</ele>
        <time>2024-12-19T14:13:26Z</time>
      </trkpt>
      <trkpt lat="47.92912" lon="-2.5084">
        <ele>30.2</ele>
        <time>2024-12-19T14:13:27Z</time>
      </trkpt>
      <trkpt lat="47.92914" lon="-2.50842">
        <ele>30.2</ele>
        <time>2024-12-19T14:13:28Z</time>
      </trkpt>
      <trkpt lat="47.92915" lon="-2.50843">
        <ele>30.2</ele>
        <time>2024-12-19T14:13:29Z</time>
      </trkpt>
      <trkpt lat="47.92916" lon="-2.50845">
        <ele>30.1</ele>
        <time>2024-12-19T14:13:30Z</time>
      </trkpt>
      <trkpt lat="47.92917" lon="-2.50847">
        <ele>30.1</ele>
        <time>2024-12-19T14:13:31Z</time>
      </trkpt>
      <trkpt lat="47.92918" lon="-2.50848">
        <ele>30.1</ele>
        <time>2024-12-19T14:13:32Z</time>
      </trkpt>
      <trkpt lat="47.92919" lon="-2.5085">
        <ele>30.1</ele>
        <time>2024-12-19T14:13:33Z</time>
      </trkpt>
      <trkpt lat="47.9292" lon="-2.5085">
        <ele>30.1</ele>
        <time>2024-12-19T14:13:34Z</time>
      </trkpt>
      <trkpt lat="47.92922" lon="-2.50851">
        <ele>30.2</ele>
        <time>2024-12-19T14:13:35Z</time>
      </trkpt>
      <trkpt lat="47.92923" lon="-2.50852">
        <ele>30.2</ele>
        <time>2024-12-19T14:13:36Z</time>
      </trkpt>
      <trkpt lat="47.92925" lon="-2.50854">
        <ele>30.3</ele>
        <time>2024-12-19T14:13:37Z</time>
      </trkpt>
      <trkpt lat="47.92926" lon="-2.50854">
        <ele>30.4</ele>
        <time>2024-12-19T14:13:38Z</time>
      </trkpt>
      <trkpt lat="47.92927" lon="-2.50855">
        <ele>30.5</ele>
        <time>2024-12-19T14:13:39Z</time>
      </trkpt>
      <trkpt lat="47.92928" lon="-2.50856">
        <ele>30.5</ele>
        <time>2024-12-19T14:13:40Z</time>
      </trkpt>
      <trkpt lat="47.92929" lon="-2.50857">
        <ele>30.6</ele>
        <time>2024-12-19T14:13:41Z</time>
      </trkpt>
      <trkpt lat="47.92931" lon="-2.50858">
        <ele>30.7</ele>
        <time>2024-12-19T14:13:42Z</time>
      </trkpt>
      <trkpt lat="47.92932" lon="-2.50859">
        <ele>30.8</ele>
        <time>2024-12-19T14:13:43Z</time>
      </trkpt>
      <trkpt lat="47.92934" lon="-2.5086">
        <ele>30.9</ele>
        <time>2024-12-19T14:13:44Z</time>
      </trkpt>
      <trkpt lat="47.92935" lon="-2.50861">
        <ele>31</ele>
        <time>2024-12-19T14:13:45Z</time>
      </trkpt>
      <trkpt lat="47.92936" lon="-2.50862">
        <ele>31.1</ele>
        <time>2024-12-19T14:13:46Z</time>
      </trkpt>
      <trkpt lat="47.92938" lon="-2.50863">
        <ele>31.2</ele>
        <time>2024-12-19T14:13:47Z</time>
      </trkpt>
      <trkpt lat="47.9294" lon="-2.50865">
        <ele>31.3</ele>
        <time>2024-12-19T14:13:48Z</time>
      </trkpt>
      <trkpt lat="47.92942" lon="-2.50867">
        <ele>31.4</ele>
        <time>2024-12-19T14:13:49Z</time>
      </trkpt>
      <trkpt lat="47.92943" lon="-2.50868">
        <ele>31.4</ele>
        <time>2024-12-19T14:13:50Z</time>
      </trkpt>
      <trkpt lat="47.92944" lon="-2.50869">
        <ele>31.5</ele>
        <time>2024-12-19T14:13:51Z</time>
      </trkpt>
      <trkpt lat="47.92945" lon="-2.50869">
        <ele>31.5</ele>
        <time>2024-12-19T14:13:52Z</time>
      </trkpt>
      <trkpt lat="47.92946" lon="-2.5087">
        <ele>31.4</ele>
        <time>2024-12-19T14:13:53Z</time>
      </trkpt>
      <trkpt lat="47.92946" lon="-2.5087">
        <ele>31.4</ele>
        <time>2024-12-19T14:13:54Z</time>
      </trkpt>
      <trkpt lat="47.92947" lon="-2.5087">
        <ele>31.4</ele>
        <time>2024-12-19T14:13:55Z</time>
      </trkpt>
      <trkpt lat="47.92948" lon="-2.5087">
        <ele>31.5</ele>
        <time>2024-12-19T14:13:56Z</time>
      </trkpt>
      <trkpt lat="47.92948" lon="-2.5087">
        <ele>31.6</ele>
        <time>2024-12-19T14:13:57Z</time>
      </trkpt>
      <trkpt lat="47.92949" lon="-2.50871">
        <ele>31.5</ele>
        <time>2024-12-19T14:13:58Z</time>
      </trkpt>
      <trkpt lat="47.9295" lon="-2.50872">
        <ele>31.5</ele>
        <time>2024-12-19T14:13:59Z</time>
      </trkpt>
      <trkpt lat="47.92951" lon="-2.50873">
        <ele>31.4</ele>
        <time>2024-12-19T14:14:00Z</time>
      </trkpt>
      <trkpt lat="47.92952" lon="-2.50874">
        <ele>31.4</ele>
        <time>2024-12-19T14:14:01Z</time>
      </trkpt>
      <trkpt lat="47.92953" lon="-2.50876">
        <ele>31.4</ele>
        <time>2024-12-19T14:14:02Z</time>
      </trkpt>
      <trkpt lat="47.92954" lon="-2.50877">
        <ele>31.4</ele>
        <time>2024-12-19T14:14:03Z</time>
      </trkpt>
      <trkpt lat="47.92955" lon="-2.50879">
        <ele>31.4</ele>
        <time>2024-12-19T14:14:04Z</time>
      </trkpt>
      <trkpt lat="47.92956" lon="-2.5088">
        <ele>31.4</ele>
        <time>2024-12-19T14:14:05Z</time>
      </trkpt>
      <trkpt lat="47.92957" lon="-2.50881">
        <ele>31.3</ele>
        <time>2024-12-19T14:14:06Z</time>
      </trkpt>
      <trkpt lat="47.92957" lon="-2.50882">
        <ele>31.3</ele>
        <time>2024-12-19T14:14:07Z</time>
      </trkpt>
      <trkpt lat="47.92958" lon="-2.50884">
        <ele>31.2</ele>
        <time>2024-12-19T14:14:08Z</time>
      </trkpt>
      <trkpt lat="47.92958" lon="-2.50884">
        <ele>31.2</ele>
        <time>2024-12-19T14:14:09Z</time>
      </trkpt>
      <trkpt lat="47.92958" lon="-2.50885">
        <ele>31.2</ele>
        <time>2024-12-19T14:14:10Z</time>
      </trkpt>
      <trkpt lat="47.92959" lon="-2.50886">
        <ele>31.2</ele>
        <time>2024-12-19T14:14:11Z</time>
      </trkpt>
      <trkpt lat="47.9296" lon="-2.50888">
        <ele>31.2</ele>
        <time>2024-12-19T14:14:12Z</time>
      </trkpt>
      <trkpt lat="47.92961" lon="-2.50889">
        <ele>31.2</ele>
        <time>2024-12-19T14:14:13Z</time>
      </trkpt>
      <trkpt lat="47.92961" lon="-2.5089">
        <ele>31.1</ele>
        <time>2024-12-19T14:14:14Z</time>
      </trkpt>
      <trkpt lat="47.92961" lon="-2.5089">
        <ele>31.1</ele>
        <time>2024-12-19T14:14:15Z</time>
      </trkpt>
      <trkpt lat="47.92962" lon="-2.50892">
        <ele>31.2</ele>
        <time>2024-12-19T14:14:16Z</time>
      </trkpt>
      <trkpt lat="47.92963" lon="-2.50893">
        <ele>31.2</ele>
        <time>2024-12-19T14:14:17Z</time>
      </trkpt>
      <trkpt lat="47.92964" lon="-2.50894">
        <ele>31.3</ele>
        <time>2024-12-19T14:14:18Z</time>
      </trkpt>
      <trkpt lat="47.92965" lon="-2.50895">
        <ele>31.3</ele>
        <time>2024-12-19T14:14:19Z</time>
      </trkpt>
      <trkpt lat="47.92966" lon="-2.50896">
        <ele>31.4</ele>
        <time>2024-12-19T14:14:20Z</time>
      </trkpt>
      <trkpt lat="47.92967" lon="-2.50897">
        <ele>31.4</ele>
        <time>2024-12-19T14:14:21Z</time>
      </trkpt>
      <trkpt lat="47.92967" lon="-2.50898">
        <ele>31.4</ele>
        <time>2024-12-19T14:14:22Z</time>
      </trkpt>
      <trkpt lat="47.92968" lon="-2.509">
        <ele>31.4</ele>
        <time>2024-12-19T14:14:23Z</time>
      </trkpt>
      <trkpt lat="47.92968" lon="-2.50901">
        <ele>31.3</ele>
        <time>2024-12-19T14:14:24Z</time>
      </trkpt>
      <trkpt lat="47.92969" lon="-2.50902">
        <ele>31.3</ele>
        <time>2024-12-19T14:14:25Z</time>
      </trkpt>
      <trkpt lat="47.92969" lon="-2.50903">
        <ele>31.3</ele>
        <time>2024-12-19T14:14:26Z</time>
      </trkpt>
      <trkpt lat="47.92969" lon="-2.50904">
        <ele>31.3</ele>
        <time>2024-12-19T14:14:27Z</time>
      </trkpt>
      <trkpt lat="47.92969" lon="-2.50905">
        <ele>31.3</ele>
        <time>2024-12-19T14:14:28Z</time>
      </trkpt>
      <trkpt lat="47.9297" lon="-2.50907">
        <ele>31.3</ele>
        <time>2024-12-19T14:14:29Z</time>
      </trkpt>
      <trkpt lat="47.92971" lon="-2.50908">
        <ele>31.3</ele>
        <time>2024-12-19T14:14:30Z</time>
      </trkpt>
      <trkpt lat="47.92973" lon="-2.50909">
        <ele>31.3</ele>
        <time>2024-12-19T14:14:31Z</time>
      </trkpt>
      <trkpt lat="47.92973" lon="-2.5091">
        <ele>31.3</ele>
        <time>2024-12-19T14:14:32Z</time>
      </trkpt>
      <trkpt lat="47.92973" lon="-2.50911">
        <ele>31.2</ele>
        <time>2024-12-19T14:14:33Z</time>
      </trkpt>
      <trkpt lat="47.92974" lon="-2.50912">
        <ele>31.2</ele>
        <time>2024-12-19T14:14:34Z</time>
      </trkpt>
      <trkpt lat="47.92974" lon="-2.50913">
        <ele>31.2</ele>
        <time>2024-12-19T14:14:35Z</time>
      </trkpt>
      <trkpt lat="47.92974" lon="-2.50915">
        <ele>31.2</ele>
        <time>2024-12-19T14:14:36Z</time>
      </trkpt>
      <trkpt lat="47.92975" lon="-2.50916">
        <ele>31.1</ele>
        <time>2024-12-19T14:14:37Z</time>
      </trkpt>
      <trkpt lat="47.92976" lon="-2.50917">
        <ele>31.1</ele>
        <time>2024-12-19T14:14:38Z</time>
      </trkpt>
      <trkpt lat="47.92977" lon="-2.50918">
        <ele>31.1</ele>
        <time>2024-12-19T14:14:39Z</time>
      </trkpt>
      <trkpt lat="47.92978" lon="-2.50919">
        <ele>31.1</ele>
        <time>2024-12-19T14:14:40Z</time>
      </trkpt>
      <trkpt lat="47.92979" lon="-2.5092">
        <ele>31.1</ele>
        <time>2024-12-19T14:14:41Z</time>
      </trkpt>
      <trkpt lat="47.9298" lon="-2.50921">
        <ele>31.1</ele>
        <time>2024-12-19T14:14:42Z</time>
      </trkpt>
      <trkpt lat="47.92982" lon="-2.50922">
        <ele>31.2</ele>
        <time>2024-12-19T14:14:43Z</time>
      </trkpt>
      <trkpt lat="47.92983" lon="-2.50923">
        <ele>31.2</ele>
        <time>2024-12-19T14:14:44Z</time>
      </trkpt>
      <trkpt lat="47.92985" lon="-2.50924">
        <ele>31.2</ele>
        <time>2024-12-19T14:14:45Z</time>
      </trkpt>
      <trkpt lat="47.92986" lon="-2.50925">
        <ele>31.2</ele>
        <time>2024-12-19T14:14:46Z</time>
      </trkpt>
      <trkpt lat="47.92987" lon="-2.50925">
        <ele>31.2</ele>
        <time>2024-12-19T14:14:47Z</time>
      </trkpt>
      <trkpt lat="47.92989" lon="-2.50926">
        <ele>31.3</ele>
        <time>2024-12-19T14:14:48Z</time>
      </trkpt>
      <trkpt lat="47.9299" lon="-2.50927">
        <ele>31.3</ele>
        <time>2024-12-19T14:14:49Z</time>
      </trkpt>
      <trkpt lat="47.92992" lon="-2.50927">
        <ele>31.3</ele>
        <time>2024-12-19T14:14:50Z</time>
      </trkpt>
      <trkpt lat="47.92993" lon="-2.50927">
        <ele>31.4</ele>
        <time>2024-12-19T14:14:51Z</time>
      </trkpt>
      <trkpt lat="47.92994" lon="-2.50927">
        <ele>31.4</ele>
        <time>2024-12-19T14:14:52Z</time>
      </trkpt>
      <trkpt lat="47.92995" lon="-2.50928">
        <ele>31.4</ele>
        <time>2024-12-19T14:14:53Z</time>
      </trkpt>
      <trkpt lat="47.92996" lon="-2.50928">
        <ele>31.5</ele>
        <time>2024-12-19T14:14:54Z</time>
      </trkpt>
      <trkpt lat="47.92997" lon="-2.50929">
        <ele>31.5</ele>
        <time>2024-12-19T14:14:55Z</time>
      </trkpt>
      <trkpt lat="47.92998" lon="-2.5093">
        <ele>31.5</ele>
        <time>2024-12-19T14:14:56Z</time>
      </trkpt>
      <trkpt lat="47.93" lon="-2.50931">
        <ele>31.5</ele>
        <time>2024-12-19T14:14:57Z</time>
      </trkpt>
      <trkpt lat="47.93" lon="-2.50932">
        <ele>31.5</ele>
        <time>2024-12-19T14:14:58Z</time>
      </trkpt>
      <trkpt lat="47.93001" lon="-2.50933">
        <ele>31.5</ele>
        <time>2024-12-19T14:14:59Z</time>
      </trkpt>
      <trkpt lat="47.93002" lon="-2.50934">
        <ele>31.5</ele>
        <time>2024-12-19T14:15:00Z</time>
      </trkpt>
      <trkpt lat="47.93002" lon="-2.50935">
        <ele>31.5</ele>
        <time>2024-12-19T14:15:01Z</time>
      </trkpt>
      <trkpt lat="47.93003" lon="-2.50937">
        <ele>31.5</ele>
        <time>2024-12-19T14:15:02Z</time>
      </trkpt>
      <trkpt lat="47.93004" lon="-2.50938">
        <ele>31.5</ele>
        <time>2024-12-19T14:15:03Z</time>
      </trkpt>
      <trkpt lat="47.93004" lon="-2.50939">
        <ele>31.5</ele>
        <time>2024-12-19T14:15:04Z</time>
      </trkpt>
      <trkpt lat="47.93005" lon="-2.5094">
        <ele>31.5</ele>
        <time>2024-12-19T14:15:05Z</time>
      </trkpt>
      <trkpt lat="47.93005" lon="-2.50941">
        <ele>31.5</ele>
        <time>2024-12-19T14:15:06Z</time>
      </trkpt>
      <trkpt lat="47.93006" lon="-2.50942">
        <ele>31.5</ele>
        <time>2024-12-19T14:15:07Z</time>
      </trkpt>
      <trkpt lat="47.93006" lon="-2.50942">
        <ele>31.5</ele>
        <time>2024-12-19T14:15:08Z</time>
      </trkpt>
      <trkpt lat="47.93007" lon="-2.50941">
        <ele>31.6</ele>
        <time>2024-12-19T14:15:09Z</time>
      </trkpt>
      <trkpt lat="47.93007" lon="-2.50941">
        <ele>31.6</ele>
        <time>2024-12-19T14:15:10Z</time>
      </trkpt>
      <trkpt lat="47.93008" lon="-2.50941">
        <ele>31.6</ele>
        <time>2024-12-19T14:15:11Z</time>
      </trkpt>
      <trkpt lat="47.93008" lon="-2.50941">
        <ele>31.7</ele>
        <time>2024-12-19T14:15:12Z</time>
      </trkpt>
      <trkpt lat="47.93008" lon="-2.50941">
        <ele>31.7</ele>
        <time>2024-12-19T14:15:13Z</time>
      </trkpt>
      <trkpt lat="47.93009" lon="-2.50942">
        <ele>31.7</ele>
        <time>2024-12-19T14:15:14Z</time>
      </trkpt>
      <trkpt lat="47.9301" lon="-2.50943">
        <ele>31.8</ele>
        <time>2024-12-19T14:15:15Z</time>
      </trkpt>
      <trkpt lat="47.93011" lon="-2.50944">
        <ele>31.8</ele>
        <time>2024-12-19T14:15:16Z</time>
      </trkpt>
      <trkpt lat="47.93012" lon="-2.50946">
        <ele>31.8</ele>
        <time>2024-12-19T14:15:17Z</time>
      </trkpt>
      <trkpt lat="47.93012" lon="-2.50947">
        <ele>31.8</ele>
        <time>2024-12-19T14:15:18Z</time>
      </trkpt>
      <trkpt lat="47.93013" lon="-2.50948">
        <ele>31.8</ele>
        <time>2024-12-19T14:15:19Z</time>
      </trkpt>
      <trkpt lat="47.93014" lon="-2.50949">
        <ele>31.9</ele>
        <time>2024-12-19T14:15:20Z</time>
      </trkpt>
      <trkpt lat="47.93015" lon="-2.50951">
        <ele>31.9</ele>
        <time>2024-12-19T14:15:21Z</time>
      </trkpt>
      <trkpt lat="47.93016" lon="-2.50952">
        <ele>31.9</ele>
        <time>2024-12-19T14:15:22Z</time>
      </trkpt>
      <trkpt lat="47.93016" lon="-2.50952">
        <ele>31.9</ele>
        <time>2024-12-19T14:15:23Z</time>
      </trkpt>
      <trkpt lat="47.93017" lon="-2.50953">
        <ele>31.9</ele>
        <time>2024-12-19T14:15:24Z</time>
      </trkpt>
      <trkpt lat="47.93016" lon="-2.50953">
        <ele>31.9</ele>
        <time>2024-12-19T14:15:25Z</time>
      </trkpt>
      <trkpt lat="47.93017" lon="-2.50953">
        <ele>31.9</ele>
        <time>2024-12-19T14:15:26Z</time>
      </trkpt>
      <trkpt lat="47.93017" lon="-2.50953">
        <ele>31.9</ele>
        <time>2024-12-19T14:15:27Z</time>
      </trkpt>
      <trkpt lat="47.93016" lon="-2.50953">
        <ele>31.9</ele>
        <time>2024-12-19T14:15:28Z</time>
      </trkpt>
      <trkpt lat="47.93016" lon="-2.50953">
        <ele>31.8</ele>
        <time>2024-12-19T14:15:29Z</time>
      </trkpt>
      <trkpt lat="47.93016" lon="-2.50953">
        <ele>31.8</ele>
        <time>2024-12-19T14:15:30Z</time>
      </trkpt>
      <trkpt lat="47.93016" lon="-2.50953">
        <ele>31.9</ele>
        <time>2024-12-19T14:15:31Z</time>
      </trkpt>
      <trkpt lat="47.93017" lon="-2.50952">
        <ele>31.9</ele>
        <time>2024-12-19T14:15:34Z</time>
      </trkpt>
      <trkpt lat="47.93017" lon="-2.50952">
        <ele>31.9</ele>
        <time>2024-12-19T14:15:35Z</time>
      </trkpt>
      <trkpt lat="47.93017" lon="-2.50952">
        <ele>31.9</ele>
        <time>2024-12-19T14:15:36Z</time>
      </trkpt>
      <trkpt lat="47.93017" lon="-2.50952">
        <ele>31.9</ele>
        <time>2024-12-19T14:15:37Z</time>
      </trkpt>
      <trkpt lat="47.93017" lon="-2.50952">
        <ele>31.9</ele>
        <time>2024-12-19T14:15:38Z</time>
      </trkpt>
      <trkpt lat="47.93017" lon="-2.50952">
        <ele>31.9</ele>
        <time>2024-12-19T14:15:39Z</time>
      </trkpt>
      <trkpt lat="47.93017" lon="-2.50952">
        <ele>31.9</ele>
        <time>2024-12-19T14:15:40Z</time>
      </trkpt>
      <trkpt lat="47.93017" lon="-2.50952">
        <ele>31.9</ele>
        <time>2024-12-19T14:15:41Z</time>
      </trkpt>
      <trkpt lat="47.93017" lon="-2.50952">
        <ele>31.9</ele>
        <time>2024-12-19T14:15:42Z</time>
      </trkpt>
      <trkpt lat="47.93017" lon="-2.50952">
        <ele>31.9</ele>
        <time>2024-12-19T14:15:43Z</time>
      </trkpt>
      <trkpt lat="47.93017" lon="-2.50952">
        <ele>32</ele>
        <time>2024-12-19T14:15:44Z</time>
      </trkpt>
      <trkpt lat="47.93017" lon="-2.50952">
        <ele>32</ele>
        <time>2024-12-19T14:15:45Z</time>
      </trkpt>
      <trkpt lat="47.93017" lon="-2.50952">
        <ele>32</ele>
        <time>2024-12-19T14:15:46Z</time>
      </trkpt>
      <trkpt lat="47.93017" lon="-2.50952">
        <ele>32</ele>
        <time>2024-12-19T14:15:47Z</time>
      </trkpt>
      <trkpt lat="47.93017" lon="-2.50952">
        <ele>32</ele>
        <time>2024-12-19T14:15:48Z</time>
      </trkpt>
      <trkpt lat="47.93017" lon="-2.50952">
        <ele>32</ele>
        <time>2024-12-19T14:15:49Z</time>
      </trkpt>
      <trkpt lat="47.93017" lon="-2.50952">
        <ele>32</ele>
        <time>2024-12-19T14:15:50Z</time>
      </trkpt>
      <trkpt lat="47.93017" lon="-2.50952">
        <ele>32</ele>
        <time>2024-12-19T14:15:51Z</time>
      </trkpt>
      <trkpt lat="47.93017" lon="-2.50953">
        <ele>31.9</ele>
        <time>2024-12-19T14:15:52Z</time>
      </trkpt>
      <trkpt lat="47.93018" lon="-2.50954">
        <ele>31.9</ele>
        <time>2024-12-19T14:15:53Z</time>
      </trkpt>
      <trkpt lat="47.93019" lon="-2.50956">
        <ele>32</ele>
        <time>2024-12-19T14:15:54Z</time>
      </trkpt>
      <trkpt lat="47.93021" lon="-2.50957">
        <ele>32.1</ele>
        <time>2024-12-19T14:15:55Z</time>
      </trkpt>
      <trkpt lat="47.93022" lon="-2.50958">
        <ele>32.1</ele>
        <time>2024-12-19T14:15:56Z</time>
      </trkpt>
      <trkpt lat="47.93023" lon="-2.50958">
        <ele>32.2</ele>
        <time>2024-12-19T14:15:57Z</time>
      </trkpt>
      <trkpt lat="47.93024" lon="-2.50959">
        <ele>32.2</ele>
        <time>2024-12-19T14:15:58Z</time>
      </trkpt>
      <trkpt lat="47.93025" lon="-2.5096">
        <ele>32.2</ele>
        <time>2024-12-19T14:15:59Z</time>
      </trkpt>
      <trkpt lat="47.93025" lon="-2.50962">
        <ele>32.2</ele>
        <time>2024-12-19T14:16:00Z</time>
      </trkpt>
      <trkpt lat="47.93026" lon="-2.50964">
        <ele>32.2</ele>
        <time>2024-12-19T14:16:01Z</time>
      </trkpt>
      <trkpt lat="47.93027" lon="-2.50965">
        <ele>32.2</ele>
        <time>2024-12-19T14:16:02Z</time>
      </trkpt>
      <trkpt lat="47.93027" lon="-2.50967">
        <ele>32.2</ele>
        <time>2024-12-19T14:16:03Z</time>
      </trkpt>
      <trkpt lat="47.93028" lon="-2.50968">
        <ele>32.2</ele>
        <time>2024-12-19T14:16:04Z</time>
      </trkpt>
      <trkpt lat="47.93029" lon="-2.50971">
        <ele>32.2</ele>
        <time>2024-12-19T14:16:05Z</time>
      </trkpt>
      <trkpt lat="47.9303" lon="-2.50972">
        <ele>32.2</ele>
        <time>2024-12-19T14:16:06Z</time>
      </trkpt>
      <trkpt lat="47.93032" lon="-2.50974">
        <ele>32.3</ele>
        <time>2024-12-19T14:16:07Z</time>
      </trkpt>
      <trkpt lat="47.93032" lon="-2.50976">
        <ele>32.3</ele>
        <time>2024-12-19T14:16:08Z</time>
      </trkpt>
      <trkpt lat="47.93033" lon="-2.50977">
        <ele>32.3</ele>
        <time>2024-12-19T14:16:09Z</time>
      </trkpt>
      <trkpt lat="47.93033" lon="-2.50978">
        <ele>32.4</ele>
        <time>2024-12-19T14:16:10Z</time>
      </trkpt>
      <trkpt lat="47.93034" lon="-2.5098">
        <ele>32.4</ele>
        <time>2024-12-19T14:16:11Z</time>
      </trkpt>
      <trkpt lat="47.93035" lon="-2.50981">
        <ele>32.5</ele>
        <time>2024-12-19T14:16:12Z</time>
      </trkpt>
      <trkpt lat="47.93036" lon="-2.50982">
        <ele>32.5</ele>
        <time>2024-12-19T14:16:13Z</time>
      </trkpt>
      <trkpt lat="47.93037" lon="-2.50984">
        <ele>32.5</ele>
        <time>2024-12-19T14:16:14Z</time>
      </trkpt>
      <trkpt lat="47.93038" lon="-2.50985">
        <ele>32.5</ele>
        <time>2024-12-19T14:16:15Z</time>
      </trkpt>
      <trkpt lat="47.93038" lon="-2.50985">
        <ele>32.6</ele>
        <time>2024-12-19T14:16:16Z</time>
      </trkpt>
      <trkpt lat="47.93038" lon="-2.50986">
        <ele>32.6</ele>
        <time>2024-12-19T14:16:17Z</time>
      </trkpt>
      <trkpt lat="47.93038" lon="-2.50988">
        <ele>32.6</ele>
        <time>2024-12-19T14:16:18Z</time>
      </trkpt>
      <trkpt lat="47.93039" lon="-2.50989">
        <ele>32.6</ele>
        <time>2024-12-19T14:16:19Z</time>
      </trkpt>
      <trkpt lat="47.9304" lon="-2.50991">
        <ele>32.6</ele>
        <time>2024-12-19T14:16:20Z</time>
      </trkpt>
      <trkpt lat="47.9304" lon="-2.50992">
        <ele>32.6</ele>
        <time>2024-12-19T14:16:21Z</time>
      </trkpt>
      <trkpt lat="47.9304" lon="-2.50993">
        <ele>32.6</ele>
        <time>2024-12-19T14:16:22Z</time>
      </trkpt>
      <trkpt lat="47.93041" lon="-2.50995">
        <ele>32.5</ele>
        <time>2024-12-19T14:16:23Z</time>
      </trkpt>
      <trkpt lat="47.93041" lon="-2.50997">
        <ele>32.5</ele>
        <time>2024-12-19T14:16:24Z</time>
      </trkpt>
      <trkpt lat="47.93042" lon="-2.50998">
        <ele>32.5</ele>
        <time>2024-12-19T14:16:25Z</time>
      </trkpt>
      <trkpt lat="47.93042" lon="-2.51">
        <ele>32.5</ele>
        <time>2024-12-19T14:16:26Z</time>
      </trkpt>
      <trkpt lat="47.93043" lon="-2.51001">
        <ele>32.6</ele>
        <time>2024-12-19T14:16:27Z</time>
      </trkpt>
      <trkpt lat="47.93044" lon="-2.51003">
        <ele>32.6</ele>
        <time>2024-12-19T14:16:28Z</time>
      </trkpt>
      <trkpt lat="47.93044" lon="-2.51004">
        <ele>32.6</ele>
        <time>2024-12-19T14:16:29Z</time>
      </trkpt>
      <trkpt lat="47.93044" lon="-2.51005">
        <ele>32.6</ele>
        <time>2024-12-19T14:16:30Z</time>
      </trkpt>
      <trkpt lat="47.93044" lon="-2.51005">
        <ele>32.6</ele>
        <time>2024-12-19T14:16:31Z</time>
      </trkpt>
      <trkpt lat="47.93044" lon="-2.51005">
        <ele>32.6</ele>
        <time>2024-12-19T14:16:32Z</time>
      </trkpt>
      <trkpt lat="47.93044" lon="-2.51005">
        <ele>32.6</ele>
        <time>2024-12-19T14:16:33Z</time>
      </trkpt>
      <trkpt lat="47.93044" lon="-2.51007">
        <ele>32.6</ele>
        <time>2024-12-19T14:16:34Z</time>
      </trkpt>
      <trkpt lat="47.93045" lon="-2.51008">
        <ele>32.6</ele>
        <time>2024-12-19T14:16:35Z</time>
      </trkpt>
      <trkpt lat="47.93045" lon="-2.5101">
        <ele>32.6</ele>
        <time>2024-12-19T14:16:36Z</time>
      </trkpt>
      <trkpt lat="47.93045" lon="-2.51012">
        <ele>32.6</ele>
        <time>2024-12-19T14:16:37Z</time>
      </trkpt>
      <trkpt lat="47.93046" lon="-2.51014">
        <ele>32.7</ele>
        <time>2024-12-19T14:16:38Z</time>
      </trkpt>
      <trkpt lat="47.93047" lon="-2.51016">
        <ele>32.7</ele>
        <time>2024-12-19T14:16:39Z</time>
      </trkpt>
      <trkpt lat="47.93048" lon="-2.51017">
        <ele>32.7</ele>
        <time>2024-12-19T14:16:40Z</time>
      </trkpt>
      <trkpt lat="47.93049" lon="-2.51018">
        <ele>32.8</ele>
        <time>2024-12-19T14:16:41Z</time>
      </trkpt>
      <trkpt lat="47.93049" lon="-2.51019">
        <ele>32.8</ele>
        <time>2024-12-19T14:16:42Z</time>
      </trkpt>
      <trkpt lat="47.9305" lon="-2.51019">
        <ele>32.8</ele>
        <time>2024-12-19T14:16:43Z</time>
      </trkpt>
      <trkpt lat="47.9305" lon="-2.51021">
        <ele>32.8</ele>
        <time>2024-12-19T14:16:44Z</time>
      </trkpt>
      <trkpt lat="47.93051" lon="-2.51023">
        <ele>32.8</ele>
        <time>2024-12-19T14:16:45Z</time>
      </trkpt>
      <trkpt lat="47.93051" lon="-2.51026">
        <ele>32.8</ele>
        <time>2024-12-19T14:16:46Z</time>
      </trkpt>
      <trkpt lat="47.93051" lon="-2.51028">
        <ele>32.8</ele>
        <time>2024-12-19T14:16:47Z</time>
      </trkpt>
      <trkpt lat="47.93051" lon="-2.51031">
        <ele>32.7</ele>
        <time>2024-12-19T14:16:48Z</time>
      </trkpt>
      <trkpt lat="47.93052" lon="-2.51034">
        <ele>32.7</ele>
        <time>2024-12-19T14:16:49Z</time>
      </trkpt>
      <trkpt lat="47.93052" lon="-2.51036">
        <ele>32.6</ele>
        <time>2024-12-19T14:16:50Z</time>
      </trkpt>
      <trkpt lat="47.93052" lon="-2.51038">
        <ele>32.6</ele>
        <time>2024-12-19T14:16:51Z</time>
      </trkpt>
      <trkpt lat="47.93053" lon="-2.5104">
        <ele>32.5</ele>
        <time>2024-12-19T14:16:52Z</time>
      </trkpt>
      <trkpt lat="47.93053" lon="-2.51043">
        <ele>32.4</ele>
        <time>2024-12-19T14:16:53Z</time>
      </trkpt>
      <trkpt lat="47.93053" lon="-2.51046">
        <ele>32.3</ele>
        <time>2024-12-19T14:16:54Z</time>
      </trkpt>
      <trkpt lat="47.93053" lon="-2.51048">
        <ele>32.2</ele>
        <time>2024-12-19T14:16:55Z</time>
      </trkpt>
      <trkpt lat="47.93054" lon="-2.51051">
        <ele>32.2</ele>
        <time>2024-12-19T14:16:56Z</time>
      </trkpt>
      <trkpt lat="47.93054" lon="-2.51053">
        <ele>32.1</ele>
        <time>2024-12-19T14:16:57Z</time>
      </trkpt>
      <trkpt lat="47.93055" lon="-2.51055">
        <ele>32</ele>
        <time>2024-12-19T14:16:58Z</time>
      </trkpt>
      <trkpt lat="47.93056" lon="-2.51058">
        <ele>32</ele>
        <time>2024-12-19T14:16:59Z</time>
      </trkpt>
      <trkpt lat="47.93056" lon="-2.51059">
        <ele>32</ele>
        <time>2024-12-19T14:17:00Z</time>
      </trkpt>
      <trkpt lat="47.93057" lon="-2.51061">
        <ele>32</ele>
        <time>2024-12-19T14:17:01Z</time>
      </trkpt>
      <trkpt lat="47.93058" lon="-2.51062">
        <ele>32.1</ele>
        <time>2024-12-19T14:17:02Z</time>
      </trkpt>
      <trkpt lat="47.93058" lon="-2.51064">
        <ele>32.1</ele>
        <time>2024-12-19T14:17:03Z</time>
      </trkpt>
      <trkpt lat="47.93058" lon="-2.51066">
        <ele>32.1</ele>
        <time>2024-12-19T14:17:04Z</time>
      </trkpt>
      <trkpt lat="47.93058" lon="-2.51067">
        <ele>32.1</ele>
        <time>2024-12-19T14:17:05Z</time>
      </trkpt>
      <trkpt lat="47.93059" lon="-2.51069">
        <ele>32.1</ele>
        <time>2024-12-19T14:17:06Z</time>
      </trkpt>
      <trkpt lat="47.93059" lon="-2.5107">
        <ele>32.1</ele>
        <time>2024-12-19T14:17:07Z</time>
      </trkpt>
      <trkpt lat="47.93059" lon="-2.51073">
        <ele>32</ele>
        <time>2024-12-19T14:17:08Z</time>
      </trkpt>
      <trkpt lat="47.93059" lon="-2.51074">
        <ele>32</ele>
        <time>2024-12-19T14:17:09Z</time>
      </trkpt>
      <trkpt lat="47.9306" lon="-2.51076">
        <ele>32</ele>
        <time>2024-12-19T14:17:10Z</time>
      </trkpt>
      <trkpt lat="47.9306" lon="-2.51078">
        <ele>32</ele>
        <time>2024-12-19T14:17:11Z</time>
      </trkpt>
      <trkpt lat="47.9306" lon="-2.51079">
        <ele>32</ele>
        <time>2024-12-19T14:17:12Z</time>
      </trkpt>
      <trkpt lat="47.93061" lon="-2.51081">
        <ele>32</ele>
        <time>2024-12-19T14:17:13Z</time>
      </trkpt>
      <trkpt lat="47.93061" lon="-2.51082">
        <ele>32</ele>
        <time>2024-12-19T14:17:14Z</time>
      </trkpt>
      <trkpt lat="47.93061" lon="-2.51083">
        <ele>32</ele>
        <time>2024-12-19T14:17:15Z</time>
      </trkpt>
      <trkpt lat="47.93062" lon="-2.51085">
        <ele>32</ele>
        <time>2024-12-19T14:17:16Z</time>
      </trkpt>
      <trkpt lat="47.93062" lon="-2.51087">
        <ele>32</ele>
        <time>2024-12-19T14:17:17Z</time>
      </trkpt>
      <trkpt lat="47.93062" lon="-2.51089">
        <ele>32</ele>
        <time>2024-12-19T14:17:18Z</time>
      </trkpt>
      <trkpt lat="47.93062" lon="-2.51091">
        <ele>32</ele>
        <time>2024-12-19T14:17:19Z</time>
      </trkpt>
      <trkpt lat="47.93063" lon="-2.51094">
        <ele>32</ele>
        <time>2024-12-19T14:17:20Z</time>
      </trkpt>
      <trkpt lat="47.93063" lon="-2.51095">
        <ele>32</ele>
        <time>2024-12-19T14:17:21Z</time>
      </trkpt>
      <trkpt lat="47.93064" lon="-2.51098">
        <ele>32</ele>
        <time>2024-12-19T14:17:22Z</time>
      </trkpt>
      <trkpt lat="47.93065" lon="-2.511">
        <ele>32</ele>
        <time>2024-12-19T14:17:23Z</time>
      </trkpt>
      <trkpt lat="47.93065" lon="-2.51102">
        <ele>32</ele>
        <time>2024-12-19T14:17:24Z</time>
      </trkpt>
      <trkpt lat="47.93065" lon="-2.51104">
        <ele>32</ele>
        <time>2024-12-19T14:17:25Z</time>
      </trkpt>
      <trkpt lat="47.93066" lon="-2.51106">
        <ele>32</ele>
        <time>2024-12-19T14:17:26Z</time>
      </trkpt>
      <trkpt lat="47.93066" lon="-2.51107">
        <ele>32</ele>
        <time>2024-12-19T14:17:27Z</time>
      </trkpt>
      <trkpt lat="47.93067" lon="-2.51109">
        <ele>32</ele>
        <time>2024-12-19T14:17:28Z</time>
      </trkpt>
      <trkpt lat="47.93067" lon="-2.5111">
        <ele>32</ele>
        <time>2024-12-19T14:17:29Z</time>
      </trkpt>
      <trkpt lat="47.93068" lon="-2.51112">
        <ele>32</ele>
        <time>2024-12-19T14:17:30Z</time>
      </trkpt>
      <trkpt lat="47.93068" lon="-2.51114">
        <ele>31.9</ele>
        <time>2024-12-19T14:17:31Z</time>
      </trkpt>
      <trkpt lat="47.93069" lon="-2.51116">
        <ele>31.9</ele>
        <time>2024-12-19T14:17:32Z</time>
      </trkpt>
      <trkpt lat="47.93069" lon="-2.51118">
        <ele>31.9</ele>
        <time>2024-12-19T14:17:33Z</time>
      </trkpt>
      <trkpt lat="47.9307" lon="-2.51121">
        <ele>31.8</ele>
        <time>2024-12-19T14:17:34Z</time>
      </trkpt>
      <trkpt lat="47.93071" lon="-2.51123">
        <ele>31.8</ele>
        <time>2024-12-19T14:17:35Z</time>
      </trkpt>
      <trkpt lat="47.93072" lon="-2.51125">
        <ele>31.8</ele>
        <time>2024-12-19T14:17:36Z</time>
      </trkpt>
      <trkpt lat="47.93072" lon="-2.51127">
        <ele>31.8</ele>
        <time>2024-12-19T14:17:37Z</time>
      </trkpt>
      <trkpt lat="47.93073" lon="-2.51129">
        <ele>31.8</ele>
        <time>2024-12-19T14:17:38Z</time>
      </trkpt>
      <trkpt lat="47.93074" lon="-2.51131">
        <ele>31.7</ele>
        <time>2024-12-19T14:17:39Z</time>
      </trkpt>
      <trkpt lat="47.93074" lon="-2.51133">
        <ele>31.7</ele>
        <time>2024-12-19T14:17:40Z</time>
      </trkpt>
      <trkpt lat="47.93074" lon="-2.51135">
        <ele>31.7</ele>
        <time>2024-12-19T14:17:41Z</time>
      </trkpt>
      <trkpt lat="47.93074" lon="-2.51137">
        <ele>31.7</ele>
        <time>2024-12-19T14:17:42Z</time>
      </trkpt>
      <trkpt lat="47.93075" lon="-2.51138">
        <ele>31.7</ele>
        <time>2024-12-19T14:17:43Z</time>
      </trkpt>
      <trkpt lat="47.93075" lon="-2.5114">
        <ele>31.6</ele>
        <time>2024-12-19T14:17:44Z</time>
      </trkpt>
      <trkpt lat="47.93075" lon="-2.51142">
        <ele>31.6</ele>
        <time>2024-12-19T14:17:45Z</time>
      </trkpt>
      <trkpt lat="47.93076" lon="-2.51144">
        <ele>31.5</ele>
        <time>2024-12-19T14:17:46Z</time>
      </trkpt>
      <trkpt lat="47.93076" lon="-2.51146">
        <ele>31.5</ele>
        <time>2024-12-19T14:17:47Z</time>
      </trkpt>
      <trkpt lat="47.93077" lon="-2.51147">
        <ele>31.5</ele>
        <time>2024-12-19T14:17:48Z</time>
      </trkpt>
      <trkpt lat="47.93077" lon="-2.51149">
        <ele>31.4</ele>
        <time>2024-12-19T14:17:49Z</time>
      </trkpt>
      <trkpt lat="47.93078" lon="-2.51151">
        <ele>31.4</ele>
        <time>2024-12-19T14:17:50Z</time>
      </trkpt>
      <trkpt lat="47.93078" lon="-2.51152">
        <ele>31.3</ele>
        <time>2024-12-19T14:17:51Z</time>
      </trkpt>
      <trkpt lat="47.93078" lon="-2.51154">
        <ele>31.3</ele>
        <time>2024-12-19T14:17:52Z</time>
      </trkpt>
      <trkpt lat="47.93079" lon="-2.51157">
        <ele>31.2</ele>
        <time>2024-12-19T14:17:53Z</time>
      </trkpt>
      <trkpt lat="47.93079" lon="-2.51159">
        <ele>31.1</ele>
        <time>2024-12-19T14:17:54Z</time>
      </trkpt>
      <trkpt lat="47.9308" lon="-2.51161">
        <ele>31.1</ele>
        <time>2024-12-19T14:17:55Z</time>
      </trkpt>
      <trkpt lat="47.9308" lon="-2.51162">
        <ele>31</ele>
        <time>2024-12-19T14:17:56Z</time>
      </trkpt>
      <trkpt lat="47.9308" lon="-2.51164">
        <ele>31</ele>
        <time>2024-12-19T14:17:57Z</time>
      </trkpt>
      <trkpt lat="47.9308" lon="-2.51166">
        <ele>30.9</ele>
        <time>2024-12-19T14:17:58Z</time>
      </trkpt>
      <trkpt lat="47.9308" lon="-2.51169">
        <ele>30.8</ele>
        <time>2024-12-19T14:17:59Z</time>
      </trkpt>
      <trkpt lat="47.9308" lon="-2.51171">
        <ele>30.7</ele>
        <time>2024-12-19T14:18:00Z</time>
      </trkpt>
      <trkpt lat="47.93081" lon="-2.51173">
        <ele>30.7</ele>
        <time>2024-12-19T14:18:01Z</time>
      </trkpt>
      <trkpt lat="47.93082" lon="-2.51175">
        <ele>30.6</ele>
        <time>2024-12-19T14:18:02Z</time>
      </trkpt>
      <trkpt lat="47.93082" lon="-2.51178">
        <ele>30.6</ele>
        <time>2024-12-19T14:18:03Z</time>
      </trkpt>
      <trkpt lat="47.93082" lon="-2.51179">
        <ele>30.5</ele>
        <time>2024-12-19T14:18:04Z</time>
      </trkpt>
      <trkpt lat="47.93083" lon="-2.51181">
        <ele>30.5</ele>
        <time>2024-12-19T14:18:05Z</time>
      </trkpt>
      <trkpt lat="47.93083" lon="-2.51182">
        <ele>30.4</ele>
        <time>2024-12-19T14:18:06Z</time>
      </trkpt>
      <trkpt lat="47.93083" lon="-2.51184">
        <ele>30.4</ele>
        <time>2024-12-19T14:18:07Z</time>
      </trkpt>
      <trkpt lat="47.93084" lon="-2.51186">
        <ele>30.3</ele>
        <time>2024-12-19T14:18:08Z</time>
      </trkpt>
      <trkpt lat="47.93084" lon="-2.51189">
        <ele>30.2</ele>
        <time>2024-12-19T14:18:09Z</time>
      </trkpt>
      <trkpt lat="47.93084" lon="-2.51192">
        <ele>30.1</ele>
        <time>2024-12-19T14:18:10Z</time>
      </trkpt>
      <trkpt lat="47.93084" lon="-2.51194">
        <ele>30.1</ele>
        <time>2024-12-19T14:18:11Z</time>
      </trkpt>
      <trkpt lat="47.93085" lon="-2.51196">
        <ele>30.1</ele>
        <time>2024-12-19T14:18:12Z</time>
      </trkpt>
      <trkpt lat="47.93085" lon="-2.51198">
        <ele>30.1</ele>
        <time>2024-12-19T14:18:13Z</time>
      </trkpt>
      <trkpt lat="47.93085" lon="-2.512">
        <ele>30.1</ele>
        <time>2024-12-19T14:18:14Z</time>
      </trkpt>
      <trkpt lat="47.93085" lon="-2.51202">
        <ele>30.1</ele>
        <time>2024-12-19T14:18:15Z</time>
      </trkpt>
      <trkpt lat="47.93085" lon="-2.51203">
        <ele>30.1</ele>
        <time>2024-12-19T14:18:16Z</time>
      </trkpt>
      <trkpt lat="47.93086" lon="-2.51205">
        <ele>30.1</ele>
        <time>2024-12-19T14:18:17Z</time>
      </trkpt>
      <trkpt lat="47.93086" lon="-2.51207">
        <ele>30.2</ele>
        <time>2024-12-19T14:18:18Z</time>
      </trkpt>
      <trkpt lat="47.93087" lon="-2.51208">
        <ele>30.2</ele>
        <time>2024-12-19T14:18:19Z</time>
      </trkpt>
      <trkpt lat="47.93087" lon="-2.5121">
        <ele>30.2</ele>
        <time>2024-12-19T14:18:20Z</time>
      </trkpt>
      <trkpt lat="47.93088" lon="-2.51213">
        <ele>30.2</ele>
        <time>2024-12-19T14:18:21Z</time>
      </trkpt>
      <trkpt lat="47.93089" lon="-2.51215">
        <ele>30.2</ele>
        <time>2024-12-19T14:18:22Z</time>
      </trkpt>
      <trkpt lat="47.93089" lon="-2.51216">
        <ele>30.3</ele>
        <time>2024-12-19T14:18:23Z</time>
      </trkpt>
      <trkpt lat="47.9309" lon="-2.51218">
        <ele>30.3</ele>
        <time>2024-12-19T14:18:24Z</time>
      </trkpt>
      <trkpt lat="47.93091" lon="-2.51219">
        <ele>30.3</ele>
        <time>2024-12-19T14:18:25Z</time>
      </trkpt>
      <trkpt lat="47.93092" lon="-2.51221">
        <ele>30.3</ele>
        <time>2024-12-19T14:18:26Z</time>
      </trkpt>
      <trkpt lat="47.93093" lon="-2.51223">
        <ele>30.3</ele>
        <time>2024-12-19T14:18:27Z</time>
      </trkpt>
      <trkpt lat="47.93093" lon="-2.51225">
        <ele>30.3</ele>
        <time>2024-12-19T14:18:28Z</time>
      </trkpt>
      <trkpt lat="47.93094" lon="-2.51227">
        <ele>30.2</ele>
        <time>2024-12-19T14:18:29Z</time>
      </trkpt>
      <trkpt lat="47.93095" lon="-2.51229">
        <ele>30.2</ele>
        <time>2024-12-19T14:18:30Z</time>
      </trkpt>
      <trkpt lat="47.93096" lon="-2.51231">
        <ele>30.1</ele>
        <time>2024-12-19T14:18:31Z</time>
      </trkpt>
      <trkpt lat="47.93096" lon="-2.51233">
        <ele>30.1</ele>
        <time>2024-12-19T14:18:32Z</time>
      </trkpt>
      <trkpt lat="47.93097" lon="-2.51234">
        <ele>30</ele>
        <time>2024-12-19T14:18:33Z</time>
      </trkpt>
      <trkpt lat="47.93097" lon="-2.51236">
        <ele>30</ele>
        <time>2024-12-19T14:18:34Z</time>
      </trkpt>
      <trkpt lat="47.93098" lon="-2.51238">
        <ele>30</ele>
        <time>2024-12-19T14:18:35Z</time>
      </trkpt>
      <trkpt lat="47.93098" lon="-2.5124">
        <ele>29.9</ele>
        <time>2024-12-19T14:18:36Z</time>
      </trkpt>
      <trkpt lat="47.93098" lon="-2.51242">
        <ele>29.8</ele>
        <time>2024-12-19T14:18:37Z</time>
      </trkpt>
      <trkpt lat="47.93098" lon="-2.51244">
        <ele>29.8</ele>
        <time>2024-12-19T14:18:38Z</time>
      </trkpt>
      <trkpt lat="47.93098" lon="-2.51245">
        <ele>29.7</ele>
        <time>2024-12-19T14:18:39Z</time>
      </trkpt>
      <trkpt lat="47.93099" lon="-2.51245">
        <ele>29.7</ele>
        <time>2024-12-19T14:18:40Z</time>
      </trkpt>
      <trkpt lat="47.931" lon="-2.51246">
        <ele>29.7</ele>
        <time>2024-12-19T14:18:41Z</time>
      </trkpt>
      <trkpt lat="47.93101" lon="-2.51247">
        <ele>29.7</ele>
        <time>2024-12-19T14:18:42Z</time>
      </trkpt>
      <trkpt lat="47.93102" lon="-2.51248">
        <ele>29.7</ele>
        <time>2024-12-19T14:18:43Z</time>
      </trkpt>
      <trkpt lat="47.93102" lon="-2.5125">
        <ele>29.7</ele>
        <time>2024-12-19T14:18:44Z</time>
      </trkpt>
      <trkpt lat="47.93103" lon="-2.51251">
        <ele>29.7</ele>
        <time>2024-12-19T14:18:45Z</time>
      </trkpt>
      <trkpt lat="47.93104" lon="-2.51253">
        <ele>29.7</ele>
        <time>2024-12-19T14:18:46Z</time>
      </trkpt>
      <trkpt lat="47.93104" lon="-2.51254">
        <ele>29.7</ele>
        <time>2024-12-19T14:18:47Z</time>
      </trkpt>
      <trkpt lat="47.93104" lon="-2.51256">
        <ele>29.8</ele>
        <time>2024-12-19T14:18:48Z</time>
      </trkpt>
      <trkpt lat="47.93104" lon="-2.51258">
        <ele>29.8</ele>
        <time>2024-12-19T14:18:49Z</time>
      </trkpt>
      <trkpt lat="47.93104" lon="-2.51259">
        <ele>29.7</ele>
        <time>2024-12-19T14:18:50Z</time>
      </trkpt>
      <trkpt lat="47.93104" lon="-2.51261">
        <ele>29.7</ele>
        <time>2024-12-19T14:18:51Z</time>
      </trkpt>
      <trkpt lat="47.93104" lon="-2.51262">
        <ele>29.7</ele>
        <time>2024-12-19T14:18:52Z</time>
      </trkpt>
      <trkpt lat="47.93104" lon="-2.51264">
        <ele>29.8</ele>
        <time>2024-12-19T14:18:53Z</time>
      </trkpt>
      <trkpt lat="47.93105" lon="-2.51266">
        <ele>29.8</ele>
        <time>2024-12-19T14:18:54Z</time>
      </trkpt>
      <trkpt lat="47.93105" lon="-2.51267">
        <ele>29.8</ele>
        <time>2024-12-19T14:18:55Z</time>
      </trkpt>
      <trkpt lat="47.93105" lon="-2.51269">
        <ele>29.8</ele>
        <time>2024-12-19T14:18:56Z</time>
      </trkpt>
      <trkpt lat="47.93105" lon="-2.51271">
        <ele>29.8</ele>
        <time>2024-12-19T14:18:57Z</time>
      </trkpt>
      <trkpt lat="47.93106" lon="-2.51273">
        <ele>29.8</ele>
        <time>2024-12-19T14:18:58Z</time>
      </trkpt>
      <trkpt lat="47.93106" lon="-2.51275">
        <ele>29.8</ele>
        <time>2024-12-19T14:18:59Z</time>
      </trkpt>
      <trkpt lat="47.93106" lon="-2.51276">
        <ele>29.8</ele>
        <time>2024-12-19T14:19:00Z</time>
      </trkpt>
      <trkpt lat="47.93106" lon="-2.51279">
        <ele>29.8</ele>
        <time>2024-12-19T14:19:01Z</time>
      </trkpt>
      <trkpt lat="47.93107" lon="-2.51281">
        <ele>29.8</ele>
        <time>2024-12-19T14:19:02Z</time>
      </trkpt>
      <trkpt lat="47.93108" lon="-2.51283">
        <ele>29.8</ele>
        <time>2024-12-19T14:19:03Z</time>
      </trkpt>
      <trkpt lat="47.93108" lon="-2.51285">
        <ele>29.9</ele>
        <time>2024-12-19T14:19:04Z</time>
      </trkpt>
      <trkpt lat="47.93109" lon="-2.51286">
        <ele>29.9</ele>
        <time>2024-12-19T14:19:05Z</time>
      </trkpt>
      <trkpt lat="47.9311" lon="-2.51287">
        <ele>29.9</ele>
        <time>2024-12-19T14:19:06Z</time>
      </trkpt>
      <trkpt lat="47.9311" lon="-2.51288">
        <ele>30</ele>
        <time>2024-12-19T14:19:07Z</time>
      </trkpt>
      <trkpt lat="47.93111" lon="-2.51289">
        <ele>30</ele>
        <time>2024-12-19T14:19:08Z</time>
      </trkpt>
      <trkpt lat="47.93111" lon="-2.51291">
        <ele>30</ele>
        <time>2024-12-19T14:19:09Z</time>
      </trkpt>
      <trkpt lat="47.93111" lon="-2.51293">
        <ele>30</ele>
        <time>2024-12-19T14:19:10Z</time>
      </trkpt>
      <trkpt lat="47.93111" lon="-2.51295">
        <ele>30</ele>
        <time>2024-12-19T14:19:11Z</time>
      </trkpt>
      <trkpt lat="47.93111" lon="-2.51297">
        <ele>30</ele>
        <time>2024-12-19T14:19:12Z</time>
      </trkpt>
      <trkpt lat="47.93111" lon="-2.51298">
        <ele>30</ele>
        <time>2024-12-19T14:19:13Z</time>
      </trkpt>
      <trkpt lat="47.93112" lon="-2.51299">
        <ele>30</ele>
        <time>2024-12-19T14:19:14Z</time>
      </trkpt>
      <trkpt lat="47.93112" lon="-2.51301">
        <ele>30.1</ele>
        <time>2024-12-19T14:19:15Z</time>
      </trkpt>
      <trkpt lat="47.93113" lon="-2.51302">
        <ele>30.1</ele>
        <time>2024-12-19T14:19:16Z</time>
      </trkpt>
      <trkpt lat="47.93113" lon="-2.51302">
        <ele>30.1</ele>
        <time>2024-12-19T14:19:17Z</time>
      </trkpt>
      <trkpt lat="47.93113" lon="-2.51303">
        <ele>30.2</ele>
        <time>2024-12-19T14:19:18Z</time>
      </trkpt>
      <trkpt lat="47.93114" lon="-2.51305">
        <ele>30.2</ele>
        <time>2024-12-19T14:19:19Z</time>
      </trkpt>
      <trkpt lat="47.93115" lon="-2.51306">
        <ele>30.3</ele>
        <time>2024-12-19T14:19:20Z</time>
      </trkpt>
      <trkpt lat="47.93116" lon="-2.51308">
        <ele>30.2</ele>
        <time>2024-12-19T14:19:21Z</time>
      </trkpt>
      <trkpt lat="47.93116" lon="-2.51309">
        <ele>30.1</ele>
        <time>2024-12-19T14:19:22Z</time>
      </trkpt>
      <trkpt lat="47.93117" lon="-2.5131">
        <ele>30.1</ele>
        <time>2024-12-19T14:19:23Z</time>
      </trkpt>
      <trkpt lat="47.93117" lon="-2.51312">
        <ele>30</ele>
        <time>2024-12-19T14:19:24Z</time>
      </trkpt>
      <trkpt lat="47.93117" lon="-2.51314">
        <ele>29.8</ele>
        <time>2024-12-19T14:19:25Z</time>
      </trkpt>
      <trkpt lat="47.93117" lon="-2.51316">
        <ele>29.7</ele>
        <time>2024-12-19T14:19:26Z</time>
      </trkpt>
      <trkpt lat="47.93117" lon="-2.51317">
        <ele>29.6</ele>
        <time>2024-12-19T14:19:27Z</time>
      </trkpt>
      <trkpt lat="47.93117" lon="-2.5132">
        <ele>29.5</ele>
        <time>2024-12-19T14:19:28Z</time>
      </trkpt>
      <trkpt lat="47.93117" lon="-2.51322">
        <ele>29.3</ele>
        <time>2024-12-19T14:19:29Z</time>
      </trkpt>
      <trkpt lat="47.93117" lon="-2.51324">
        <ele>29.2</ele>
        <time>2024-12-19T14:19:30Z</time>
      </trkpt>
      <trkpt lat="47.93118" lon="-2.51326">
        <ele>29.2</ele>
        <time>2024-12-19T14:19:31Z</time>
      </trkpt>
      <trkpt lat="47.93119" lon="-2.51328">
        <ele>29.1</ele>
        <time>2024-12-19T14:19:32Z</time>
      </trkpt>
      <trkpt lat="47.93119" lon="-2.5133">
        <ele>29.1</ele>
        <time>2024-12-19T14:19:33Z</time>
      </trkpt>
      <trkpt lat="47.93121" lon="-2.51333">
        <ele>29.1</ele>
        <time>2024-12-19T14:19:35Z</time>
      </trkpt>
      <trkpt lat="47.93121" lon="-2.51335">
        <ele>29.1</ele>
        <time>2024-12-19T14:19:36Z</time>
      </trkpt>
      <trkpt lat="47.93122" lon="-2.51337">
        <ele>29.2</ele>
        <time>2024-12-19T14:19:37Z</time>
      </trkpt>
      <trkpt lat="47.93122" lon="-2.51339">
        <ele>29.2</ele>
        <time>2024-12-19T14:19:38Z</time>
      </trkpt>
      <trkpt lat="47.93122" lon="-2.51341">
        <ele>29.2</ele>
        <time>2024-12-19T14:19:39Z</time>
      </trkpt>
      <trkpt lat="47.93123" lon="-2.51342">
        <ele>29.2</ele>
        <time>2024-12-19T14:19:40Z</time>
      </trkpt>
      <trkpt lat="47.93123" lon="-2.51344">
        <ele>29.3</ele>
        <time>2024-12-19T14:19:41Z</time>
      </trkpt>
      <trkpt lat="47.93124" lon="-2.51346">
        <ele>29.4</ele>
        <time>2024-12-19T14:19:42Z</time>
      </trkpt>
      <trkpt lat="47.93124" lon="-2.51348">
        <ele>29.4</ele>
        <time>2024-12-19T14:19:43Z</time>
      </trkpt>
      <trkpt lat="47.93125" lon="-2.5135">
        <ele>29.5</ele>
        <time>2024-12-19T14:19:44Z</time>
      </trkpt>
      <trkpt lat="47.93125" lon="-2.51352">
        <ele>29.5</ele>
        <time>2024-12-19T14:19:45Z</time>
      </trkpt>
      <trkpt lat="47.93126" lon="-2.51354">
        <ele>29.6</ele>
        <time>2024-12-19T14:19:46Z</time>
      </trkpt>
      <trkpt lat="47.93126" lon="-2.51356">
        <ele>29.6</ele>
        <time>2024-12-19T14:19:47Z</time>
      </trkpt>
      <trkpt lat="47.93127" lon="-2.51358">
        <ele>29.7</ele>
        <time>2024-12-19T14:19:48Z</time>
      </trkpt>
      <trkpt lat="47.93128" lon="-2.51361">
        <ele>29.8</ele>
        <time>2024-12-19T14:19:49Z</time>
      </trkpt>
      <trkpt lat="47.93128" lon="-2.51363">
        <ele>29.8</ele>
        <time>2024-12-19T14:19:50Z</time>
      </trkpt>
      <trkpt lat="47.93129" lon="-2.51365">
        <ele>29.8</ele>
        <time>2024-12-19T14:19:51Z</time>
      </trkpt>
      <trkpt lat="47.93129" lon="-2.51366">
        <ele>29.8</ele>
        <time>2024-12-19T14:19:52Z</time>
      </trkpt>
      <trkpt lat="47.9313" lon="-2.51368">
        <ele>29.9</ele>
        <time>2024-12-19T14:19:53Z</time>
      </trkpt>
      <trkpt lat="47.93131" lon="-2.5137">
        <ele>29.9</ele>
        <time>2024-12-19T14:19:54Z</time>
      </trkpt>
      <trkpt lat="47.93132" lon="-2.51372">
        <ele>29.9</ele>
        <time>2024-12-19T14:19:55Z</time>
      </trkpt>
      <trkpt lat="47.93132" lon="-2.51374">
        <ele>29.9</ele>
        <time>2024-12-19T14:19:56Z</time>
      </trkpt>
      <trkpt lat="47.93133" lon="-2.51376">
        <ele>29.9</ele>
        <time>2024-12-19T14:19:57Z</time>
      </trkpt>
      <trkpt lat="47.93133" lon="-2.51378">
        <ele>29.9</ele>
        <time>2024-12-19T14:19:58Z</time>
      </trkpt>
      <trkpt lat="47.93134" lon="-2.51379">
        <ele>29.9</ele>
        <time>2024-12-19T14:19:59Z</time>
      </trkpt>
      <trkpt lat="47.93135" lon="-2.51381">
        <ele>29.9</ele>
        <time>2024-12-19T14:20:00Z</time>
      </trkpt>
      <trkpt lat="47.93135" lon="-2.51382">
        <ele>29.9</ele>
        <time>2024-12-19T14:20:01Z</time>
      </trkpt>
      <trkpt lat="47.93136" lon="-2.51384">
        <ele>29.9</ele>
        <time>2024-12-19T14:20:02Z</time>
      </trkpt>
      <trkpt lat="47.93136" lon="-2.51386">
        <ele>29.9</ele>
        <time>2024-12-19T14:20:03Z</time>
      </trkpt>
      <trkpt lat="47.93136" lon="-2.51387">
        <ele>29.9</ele>
        <time>2024-12-19T14:20:04Z</time>
      </trkpt>
      <trkpt lat="47.93137" lon="-2.51389">
        <ele>29.9</ele>
        <time>2024-12-19T14:20:05Z</time>
      </trkpt>
      <trkpt lat="47.93137" lon="-2.5139">
        <ele>29.8</ele>
        <time>2024-12-19T14:20:06Z</time>
      </trkpt>
      <trkpt lat="47.93137" lon="-2.51391">
        <ele>29.8</ele>
        <time>2024-12-19T14:20:07Z</time>
      </trkpt>
      <trkpt lat="47.93137" lon="-2.51393">
        <ele>29.7</ele>
        <time>2024-12-19T14:20:08Z</time>
      </trkpt>
      <trkpt lat="47.93137" lon="-2.51395">
        <ele>29.7</ele>
        <time>2024-12-19T14:20:09Z</time>
      </trkpt>
      <trkpt lat="47.93138" lon="-2.51397">
        <ele>29.7</ele>
        <time>2024-12-19T14:20:10Z</time>
      </trkpt>
      <trkpt lat="47.93139" lon="-2.51399">
        <ele>29.6</ele>
        <time>2024-12-19T14:20:11Z</time>
      </trkpt>
      <trkpt lat="47.9314" lon="-2.514">
        <ele>29.6</ele>
        <time>2024-12-19T14:20:12Z</time>
      </trkpt>
      <trkpt lat="47.9314" lon="-2.51402">
        <ele>29.7</ele>
        <time>2024-12-19T14:20:13Z</time>
      </trkpt>
      <trkpt lat="47.93141" lon="-2.51403">
        <ele>29.7</ele>
        <time>2024-12-19T14:20:14Z</time>
      </trkpt>
      <trkpt lat="47.93142" lon="-2.51405">
        <ele>29.7</ele>
        <time>2024-12-19T14:20:15Z</time>
      </trkpt>
      <trkpt lat="47.93143" lon="-2.51407">
        <ele>29.7</ele>
        <time>2024-12-19T14:20:16Z</time>
      </trkpt>
      <trkpt lat="47.93143" lon="-2.51408">
        <ele>29.7</ele>
        <time>2024-12-19T14:20:17Z</time>
      </trkpt>
      <trkpt lat="47.93144" lon="-2.5141">
        <ele>29.7</ele>
        <time>2024-12-19T14:20:18Z</time>
      </trkpt>
      <trkpt lat="47.93144" lon="-2.51412">
        <ele>29.7</ele>
        <time>2024-12-19T14:20:19Z</time>
      </trkpt>
      <trkpt lat="47.93144" lon="-2.51413">
        <ele>29.7</ele>
        <time>2024-12-19T14:20:20Z</time>
      </trkpt>
      <trkpt lat="47.93144" lon="-2.51415">
        <ele>29.6</ele>
        <time>2024-12-19T14:20:21Z</time>
      </trkpt>
      <trkpt lat="47.93145" lon="-2.51416">
        <ele>29.6</ele>
        <time>2024-12-19T14:20:22Z</time>
      </trkpt>
      <trkpt lat="47.93145" lon="-2.51418">
        <ele>29.6</ele>
        <time>2024-12-19T14:20:23Z</time>
      </trkpt>
      <trkpt lat="47.93145" lon="-2.51419">
        <ele>29.6</ele>
        <time>2024-12-19T14:20:24Z</time>
      </trkpt>
      <trkpt lat="47.93145" lon="-2.51421">
        <ele>29.6</ele>
        <time>2024-12-19T14:20:25Z</time>
      </trkpt>
      <trkpt lat="47.93145" lon="-2.51423">
        <ele>29.6</ele>
        <time>2024-12-19T14:20:26Z</time>
      </trkpt>
      <trkpt lat="47.93144" lon="-2.51425">
        <ele>29.6</ele>
        <time>2024-12-19T14:20:27Z</time>
      </trkpt>
      <trkpt lat="47.93144" lon="-2.51426">
        <ele>29.5</ele>
        <time>2024-12-19T14:20:28Z</time>
      </trkpt>
      <trkpt lat="47.93144" lon="-2.51429">
        <ele>29.5</ele>
        <time>2024-12-19T14:20:29Z</time>
      </trkpt>
      <trkpt lat="47.93143" lon="-2.51431">
        <ele>29.5</ele>
        <time>2024-12-19T14:20:30Z</time>
      </trkpt>
      <trkpt lat="47.93143" lon="-2.51432">
        <ele>29.5</ele>
        <time>2024-12-19T14:20:31Z</time>
      </trkpt>
      <trkpt lat="47.93144" lon="-2.51434">
        <ele>29.5</ele>
        <time>2024-12-19T14:20:32Z</time>
      </trkpt>
      <trkpt lat="47.93144" lon="-2.51435">
        <ele>29.6</ele>
        <time>2024-12-19T14:20:33Z</time>
      </trkpt>
      <trkpt lat="47.93145" lon="-2.51437">
        <ele>29.6</ele>
        <time>2024-12-19T14:20:34Z</time>
      </trkpt>
      <trkpt lat="47.93146" lon="-2.51438">
        <ele>29.7</ele>
        <time>2024-12-19T14:20:35Z</time>
      </trkpt>
      <trkpt lat="47.93147" lon="-2.51439">
        <ele>29.8</ele>
        <time>2024-12-19T14:20:36Z</time>
      </trkpt>
      <trkpt lat="47.93147" lon="-2.5144">
        <ele>29.9</ele>
        <time>2024-12-19T14:20:37Z</time>
      </trkpt>
      <trkpt lat="47.93148" lon="-2.51441">
        <ele>30</ele>
        <time>2024-12-19T14:20:38Z</time>
      </trkpt>
      <trkpt lat="47.93148" lon="-2.51442">
        <ele>30</ele>
        <time>2024-12-19T14:20:39Z</time>
      </trkpt>
      <trkpt lat="47.93148" lon="-2.51444">
        <ele>30</ele>
        <time>2024-12-19T14:20:40Z</time>
      </trkpt>
      <trkpt lat="47.93148" lon="-2.51446">
        <ele>30</ele>
        <time>2024-12-19T14:20:41Z</time>
      </trkpt>
      <trkpt lat="47.93148" lon="-2.51449">
        <ele>29.9</ele>
        <time>2024-12-19T14:20:42Z</time>
      </trkpt>
      <trkpt lat="47.93149" lon="-2.51451">
        <ele>29.8</ele>
        <time>2024-12-19T14:20:43Z</time>
      </trkpt>
      <trkpt lat="47.93149" lon="-2.51452">
        <ele>29.8</ele>
        <time>2024-12-19T14:20:44Z</time>
      </trkpt>
      <trkpt lat="47.9315" lon="-2.51454">
        <ele>29.8</ele>
        <time>2024-12-19T14:20:45Z</time>
      </trkpt>
      <trkpt lat="47.93151" lon="-2.51455">
        <ele>29.9</ele>
        <time>2024-12-19T14:20:46Z</time>
      </trkpt>
      <trkpt lat="47.93151" lon="-2.51457">
        <ele>29.8</ele>
        <time>2024-12-19T14:20:47Z</time>
      </trkpt>
      <trkpt lat="47.93151" lon="-2.51459">
        <ele>29.8</ele>
        <time>2024-12-19T14:20:48Z</time>
      </trkpt>
      <trkpt lat="47.93152" lon="-2.51461">
        <ele>29.8</ele>
        <time>2024-12-19T14:20:49Z</time>
      </trkpt>
      <trkpt lat="47.93153" lon="-2.51463">
        <ele>29.8</ele>
        <time>2024-12-19T14:20:50Z</time>
      </trkpt>
      <trkpt lat="47.93153" lon="-2.51464">
        <ele>29.8</ele>
        <time>2024-12-19T14:20:51Z</time>
      </trkpt>
      <trkpt lat="47.93154" lon="-2.51466">
        <ele>29.8</ele>
        <time>2024-12-19T14:20:52Z</time>
      </trkpt>
      <trkpt lat="47.93154" lon="-2.51468">
        <ele>29.8</ele>
        <time>2024-12-19T14:20:53Z</time>
      </trkpt>
      <trkpt lat="47.93155" lon="-2.5147">
        <ele>29.8</ele>
        <time>2024-12-19T14:20:54Z</time>
      </trkpt>
      <trkpt lat="47.93155" lon="-2.51471">
        <ele>29.8</ele>
        <time>2024-12-19T14:20:55Z</time>
      </trkpt>
      <trkpt lat="47.93156" lon="-2.51472">
        <ele>29.8</ele>
        <time>2024-12-19T14:20:56Z</time>
      </trkpt>
      <trkpt lat="47.93156" lon="-2.51474">
        <ele>29.9</ele>
        <time>2024-12-19T14:20:57Z</time>
      </trkpt>
      <trkpt lat="47.93157" lon="-2.51476">
        <ele>29.9</ele>
        <time>2024-12-19T14:20:58Z</time>
      </trkpt>
      <trkpt lat="47.93157" lon="-2.51477">
        <ele>30</ele>
        <time>2024-12-19T14:20:59Z</time>
      </trkpt>
      <trkpt lat="47.93158" lon="-2.51479">
        <ele>30</ele>
        <time>2024-12-19T14:21:00Z</time>
      </trkpt>
      <trkpt lat="47.93158" lon="-2.5148">
        <ele>30.1</ele>
        <time>2024-12-19T14:21:01Z</time>
      </trkpt>
      <trkpt lat="47.93158" lon="-2.51482">
        <ele>30.1</ele>
        <time>2024-12-19T14:21:02Z</time>
      </trkpt>
      <trkpt lat="47.93159" lon="-2.51484">
        <ele>30.2</ele>
        <time>2024-12-19T14:21:03Z</time>
      </trkpt>
      <trkpt lat="47.9316" lon="-2.51485">
        <ele>30.2</ele>
        <time>2024-12-19T14:21:04Z</time>
      </trkpt>
      <trkpt lat="47.9316" lon="-2.51487">
        <ele>30.3</ele>
        <time>2024-12-19T14:21:05Z</time>
      </trkpt>
      <trkpt lat="47.93161" lon="-2.51487">
        <ele>30.4</ele>
        <time>2024-12-19T14:21:06Z</time>
      </trkpt>
      <trkpt lat="47.93161" lon="-2.51488">
        <ele>30.4</ele>
        <time>2024-12-19T14:21:07Z</time>
      </trkpt>
      <trkpt lat="47.93162" lon="-2.51489">
        <ele>30.5</ele>
        <time>2024-12-19T14:21:08Z</time>
      </trkpt>
      <trkpt lat="47.93163" lon="-2.51491">
        <ele>30.6</ele>
        <time>2024-12-19T14:21:09Z</time>
      </trkpt>
      <trkpt lat="47.93163" lon="-2.51494">
        <ele>30.6</ele>
        <time>2024-12-19T14:21:10Z</time>
      </trkpt>
      <trkpt lat="47.93164" lon="-2.51496">
        <ele>30.7</ele>
        <time>2024-12-19T14:21:11Z</time>
      </trkpt>
      <trkpt lat="47.93164" lon="-2.51497">
        <ele>30.7</ele>
        <time>2024-12-19T14:21:12Z</time>
      </trkpt>
      <trkpt lat="47.93164" lon="-2.51499">
        <ele>30.7</ele>
        <time>2024-12-19T14:21:13Z</time>
      </trkpt>
      <trkpt lat="47.93165" lon="-2.51502">
        <ele>30.7</ele>
        <time>2024-12-19T14:21:14Z</time>
      </trkpt>
      <trkpt lat="47.93166" lon="-2.51503">
        <ele>30.8</ele>
        <time>2024-12-19T14:21:15Z</time>
      </trkpt>
      <trkpt lat="47.93166" lon="-2.51505">
        <ele>30.8</ele>
        <time>2024-12-19T14:21:16Z</time>
      </trkpt>
      <trkpt lat="47.93167" lon="-2.51506">
        <ele>30.8</ele>
        <time>2024-12-19T14:21:17Z</time>
      </trkpt>
      <trkpt lat="47.93167" lon="-2.51507">
        <ele>30.8</ele>
        <time>2024-12-19T14:21:18Z</time>
      </trkpt>
      <trkpt lat="47.93167" lon="-2.51509">
        <ele>30.7</ele>
        <time>2024-12-19T14:21:19Z</time>
      </trkpt>
      <trkpt lat="47.93167" lon="-2.51511">
        <ele>30.6</ele>
        <time>2024-12-19T14:21:20Z</time>
      </trkpt>
      <trkpt lat="47.93167" lon="-2.51513">
        <ele>30.6</ele>
        <time>2024-12-19T14:21:21Z</time>
      </trkpt>
      <trkpt lat="47.93167" lon="-2.51515">
        <ele>30.5</ele>
        <time>2024-12-19T14:21:22Z</time>
      </trkpt>
      <trkpt lat="47.93168" lon="-2.51516">
        <ele>30.5</ele>
        <time>2024-12-19T14:21:23Z</time>
      </trkpt>
      <trkpt lat="47.93168" lon="-2.51517">
        <ele>30.5</ele>
        <time>2024-12-19T14:21:24Z</time>
      </trkpt>
      <trkpt lat="47.93168" lon="-2.51518">
        <ele>30.4</ele>
        <time>2024-12-19T14:21:25Z</time>
      </trkpt>
      <trkpt lat="47.93168" lon="-2.5152">
        <ele>30.4</ele>
        <time>2024-12-19T14:21:26Z</time>
      </trkpt>
      <trkpt lat="47.93169" lon="-2.51522">
        <ele>30.4</ele>
        <time>2024-12-19T14:21:27Z</time>
      </trkpt>
      <trkpt lat="47.9317" lon="-2.51523">
        <ele>30.4</ele>
        <time>2024-12-19T14:21:28Z</time>
      </trkpt>
      <trkpt lat="47.9317" lon="-2.51525">
        <ele>30.4</ele>
        <time>2024-12-19T14:21:29Z</time>
      </trkpt>
      <trkpt lat="47.93171" lon="-2.51526">
        <ele>30.4</ele>
        <time>2024-12-19T14:21:30Z</time>
      </trkpt>
      <trkpt lat="47.93171" lon="-2.51526">
        <ele>30.4</ele>
        <time>2024-12-19T14:21:31Z</time>
      </trkpt>
      <trkpt lat="47.93172" lon="-2.51527">
        <ele>30.4</ele>
        <time>2024-12-19T14:21:32Z</time>
      </trkpt>
      <trkpt lat="47.93172" lon="-2.51529">
        <ele>30.4</ele>
        <time>2024-12-19T14:21:33Z</time>
      </trkpt>
      <trkpt lat="47.93172" lon="-2.5153">
        <ele>30.4</ele>
        <time>2024-12-19T14:21:34Z</time>
      </trkpt>
      <trkpt lat="47.93173" lon="-2.51532">
        <ele>30.5</ele>
        <time>2024-12-19T14:21:35Z</time>
      </trkpt>
      <trkpt lat="47.93173" lon="-2.51535">
        <ele>30.5</ele>
        <time>2024-12-19T14:21:36Z</time>
      </trkpt>
      <trkpt lat="47.93173" lon="-2.51537">
        <ele>30.5</ele>
        <time>2024-12-19T14:21:37Z</time>
      </trkpt>
      <trkpt lat="47.93173" lon="-2.51539">
        <ele>30.6</ele>
        <time>2024-12-19T14:21:38Z</time>
      </trkpt>
      <trkpt lat="47.93174" lon="-2.5154">
        <ele>30.7</ele>
        <time>2024-12-19T14:21:39Z</time>
      </trkpt>
      <trkpt lat="47.93175" lon="-2.51541">
        <ele>30.7</ele>
        <time>2024-12-19T14:21:40Z</time>
      </trkpt>
      <trkpt lat="47.93175" lon="-2.51542">
        <ele>30.8</ele>
        <time>2024-12-19T14:21:41Z</time>
      </trkpt>
      <trkpt lat="47.93176" lon="-2.51543">
        <ele>30.9</ele>
        <time>2024-12-19T14:21:42Z</time>
      </trkpt>
      <trkpt lat="47.93176" lon="-2.51544">
        <ele>30.9</ele>
        <time>2024-12-19T14:21:43Z</time>
      </trkpt>
      <trkpt lat="47.93176" lon="-2.51544">
        <ele>30.9</ele>
        <time>2024-12-19T14:21:44Z</time>
      </trkpt>
      <trkpt lat="47.93177" lon="-2.51544">
        <ele>30.9</ele>
        <time>2024-12-19T14:21:45Z</time>
      </trkpt>
      <trkpt lat="47.93177" lon="-2.51545">
        <ele>31</ele>
        <time>2024-12-19T14:21:46Z</time>
      </trkpt>
      <trkpt lat="47.93177" lon="-2.51546">
        <ele>31</ele>
        <time>2024-12-19T14:21:47Z</time>
      </trkpt>
      <trkpt lat="47.93177" lon="-2.51546">
        <ele>31</ele>
        <time>2024-12-19T14:21:48Z</time>
      </trkpt>
      <trkpt lat="47.93178" lon="-2.51547">
        <ele>31.1</ele>
        <time>2024-12-19T14:21:49Z</time>
      </trkpt>
      <trkpt lat="47.93178" lon="-2.51547">
        <ele>31.1</ele>
        <time>2024-12-19T14:21:50Z</time>
      </trkpt>
      <trkpt lat="47.93178" lon="-2.51547">
        <ele>31.1</ele>
        <time>2024-12-19T14:21:51Z</time>
      </trkpt>
      <trkpt lat="47.93177" lon="-2.51547">
        <ele>31</ele>
        <time>2024-12-19T14:21:52Z</time>
      </trkpt>
      <trkpt lat="47.93177" lon="-2.51547">
        <ele>31</ele>
        <time>2024-12-19T14:21:53Z</time>
      </trkpt>
      <trkpt lat="47.93177" lon="-2.51548">
        <ele>31</ele>
        <time>2024-12-19T14:21:54Z</time>
      </trkpt>
      <trkpt lat="47.93176" lon="-2.51548">
        <ele>30.9</ele>
        <time>2024-12-19T14:21:55Z</time>
      </trkpt>
      <trkpt lat="47.93176" lon="-2.51549">
        <ele>30.9</ele>
        <time>2024-12-19T14:21:56Z</time>
      </trkpt>
      <trkpt lat="47.93176" lon="-2.5155">
        <ele>30.9</ele>
        <time>2024-12-19T14:21:57Z</time>
      </trkpt>
      <trkpt lat="47.93175" lon="-2.5155">
        <ele>30.9</ele>
        <time>2024-12-19T14:21:58Z</time>
      </trkpt>
      <trkpt lat="47.93175" lon="-2.51551">
        <ele>30.9</ele>
        <time>2024-12-19T14:21:59Z</time>
      </trkpt>
      <trkpt lat="47.93175" lon="-2.51551">
        <ele>30.9</ele>
        <time>2024-12-19T14:22:00Z</time>
      </trkpt>
      <trkpt lat="47.93175" lon="-2.51551">
        <ele>30.9</ele>
        <time>2024-12-19T14:22:01Z</time>
      </trkpt>
      <trkpt lat="47.93175" lon="-2.51551">
        <ele>30.8</ele>
        <time>2024-12-19T14:22:02Z</time>
      </trkpt>
      <trkpt lat="47.93175" lon="-2.51551">
        <ele>30.8</ele>
        <time>2024-12-19T14:22:03Z</time>
      </trkpt>
      <trkpt lat="47.93175" lon="-2.51551">
        <ele>30.8</ele>
        <time>2024-12-19T14:22:04Z</time>
      </trkpt>
      <trkpt lat="47.93175" lon="-2.51551">
        <ele>30.8</ele>
        <time>2024-12-19T14:22:05Z</time>
      </trkpt>
      <trkpt lat="47.93175" lon="-2.51551">
        <ele>30.8</ele>
        <time>2024-12-19T14:22:06Z</time>
      </trkpt>
      <trkpt lat="47.93175" lon="-2.51551">
        <ele>30.9</ele>
        <time>2024-12-19T14:22:07Z</time>
      </trkpt>
      <trkpt lat="47.93175" lon="-2.51551">
        <ele>30.9</ele>
        <time>2024-12-19T14:22:08Z</time>
      </trkpt>
      <trkpt lat="47.93175" lon="-2.51551">
        <ele>30.9</ele>
        <time>2024-12-19T14:22:09Z</time>
      </trkpt>
      <trkpt lat="47.93175" lon="-2.51551">
        <ele>30.9</ele>
        <time>2024-12-19T14:22:10Z</time>
      </trkpt>
      <trkpt lat="47.93175" lon="-2.51551">
        <ele>30.9</ele>
        <time>2024-12-19T14:22:11Z</time>
      </trkpt>
      <trkpt lat="47.93175" lon="-2.51551">
        <ele>30.9</ele>
        <time>2024-12-19T14:22:12Z</time>
      </trkpt>
      <trkpt lat="47.93175" lon="-2.51551">
        <ele>30.9</ele>
        <time>2024-12-19T14:22:13Z</time>
      </trkpt>
      <trkpt lat="47.93175" lon="-2.51551">
        <ele>30.9</ele>
        <time>2024-12-19T14:22:14Z</time>
      </trkpt>
      <trkpt lat="47.93175" lon="-2.51551">
        <ele>30.9</ele>
        <time>2024-12-19T14:22:15Z</time>
      </trkpt>
      <trkpt lat="47.93175" lon="-2.51551">
        <ele>30.9</ele>
        <time>2024-12-19T14:22:16Z</time>
      </trkpt>
      <trkpt lat="47.93175" lon="-2.51551">
        <ele>30.9</ele>
        <time>2024-12-19T14:22:17Z</time>
      </trkpt>
      <trkpt lat="47.93175" lon="-2.51551">
        <ele>30.9</ele>
        <time>2024-12-19T14:22:18Z</time>
      </trkpt>
      <trkpt lat="47.93175" lon="-2.51551">
        <ele>30.9</ele>
        <time>2024-12-19T14:22:19Z</time>
      </trkpt>
      <trkpt lat="47.93175" lon="-2.51551">
        <ele>30.8</ele>
        <time>2024-12-19T14:22:20Z</time>
      </trkpt>
      <trkpt lat="47.93175" lon="-2.51551">
        <ele>30.8</ele>
        <time>2024-12-19T14:22:21Z</time>
      </trkpt>
      <trkpt lat="47.93175" lon="-2.51551">
        <ele>30.8</ele>
        <time>2024-12-19T14:22:22Z</time>
      </trkpt>
      <trkpt lat="47.93175" lon="-2.51551">
        <ele>30.9</ele>
        <time>2024-12-19T14:22:23Z</time>
      </trkpt>
      <trkpt lat="47.93176" lon="-2.51552">
        <ele>30.9</ele>
        <time>2024-12-19T14:22:24Z</time>
      </trkpt>
      <trkpt lat="47.93176" lon="-2.51552">
        <ele>31</ele>
        <time>2024-12-19T14:22:25Z</time>
      </trkpt>
      <trkpt lat="47.93176" lon="-2.51552">
        <ele>31</ele>
        <time>2024-12-19T14:22:26Z</time>
      </trkpt>
      <trkpt lat="47.93177" lon="-2.51554">
        <ele>31</ele>
        <time>2024-12-19T14:22:27Z</time>
      </trkpt>
      <trkpt lat="47.93177" lon="-2.51555">
        <ele>31.1</ele>
        <time>2024-12-19T14:22:28Z</time>
      </trkpt>
      <trkpt lat="47.93177" lon="-2.51556">
        <ele>31.1</ele>
        <time>2024-12-19T14:22:29Z</time>
      </trkpt>
      <trkpt lat="47.93177" lon="-2.51557">
        <ele>31.1</ele>
        <time>2024-12-19T14:22:30Z</time>
      </trkpt>
      <trkpt lat="47.93177" lon="-2.51558">
        <ele>31.1</ele>
        <time>2024-12-19T14:22:31Z</time>
      </trkpt>
      <trkpt lat="47.93177" lon="-2.51558">
        <ele>31</ele>
        <time>2024-12-19T14:22:32Z</time>
      </trkpt>
      <trkpt lat="47.93178" lon="-2.5156">
        <ele>31</ele>
        <time>2024-12-19T14:22:33Z</time>
      </trkpt>
      <trkpt lat="47.93178" lon="-2.51561">
        <ele>31</ele>
        <time>2024-12-19T14:22:34Z</time>
      </trkpt>
      <trkpt lat="47.93178" lon="-2.51562">
        <ele>30.9</ele>
        <time>2024-12-19T14:22:35Z</time>
      </trkpt>
      <trkpt lat="47.93178" lon="-2.51564">
        <ele>30.9</ele>
        <time>2024-12-19T14:22:36Z</time>
      </trkpt>
      <trkpt lat="47.93178" lon="-2.51566">
        <ele>30.8</ele>
        <time>2024-12-19T14:22:37Z</time>
      </trkpt>
      <trkpt lat="47.93178" lon="-2.51568">
        <ele>30.8</ele>
        <time>2024-12-19T14:22:38Z</time>
      </trkpt>
      <trkpt lat="47.93179" lon="-2.51569">
        <ele>30.8</ele>
        <time>2024-12-19T14:22:39Z</time>
      </trkpt>
      <trkpt lat="47.93179" lon="-2.51571">
        <ele>30.7</ele>
        <time>2024-12-19T14:22:40Z</time>
      </trkpt>
      <trkpt lat="47.93179" lon="-2.51573">
        <ele>30.7</ele>
        <time>2024-12-19T14:22:41Z</time>
      </trkpt>
      <trkpt lat="47.9318" lon="-2.51574">
        <ele>30.7</ele>
        <time>2024-12-19T14:22:42Z</time>
      </trkpt>
      <trkpt lat="47.9318" lon="-2.51576">
        <ele>30.8</ele>
        <time>2024-12-19T14:22:43Z</time>
      </trkpt>
      <trkpt lat="47.93181" lon="-2.51578">
        <ele>30.8</ele>
        <time>2024-12-19T14:22:44Z</time>
      </trkpt>
      <trkpt lat="47.93182" lon="-2.51579">
        <ele>30.8</ele>
        <time>2024-12-19T14:22:45Z</time>
      </trkpt>
      <trkpt lat="47.93182" lon="-2.51581">
        <ele>30.7</ele>
        <time>2024-12-19T14:22:46Z</time>
      </trkpt>
      <trkpt lat="47.93183" lon="-2.51583">
        <ele>30.7</ele>
        <time>2024-12-19T14:22:47Z</time>
      </trkpt>
      <trkpt lat="47.93183" lon="-2.51585">
        <ele>30.7</ele>
        <time>2024-12-19T14:22:48Z</time>
      </trkpt>
      <trkpt lat="47.93183" lon="-2.51587">
        <ele>30.7</ele>
        <time>2024-12-19T14:22:49Z</time>
      </trkpt>
      <trkpt lat="47.93183" lon="-2.51589">
        <ele>30.6</ele>
        <time>2024-12-19T14:22:50Z</time>
      </trkpt>
      <trkpt lat="47.93183" lon="-2.51592">
        <ele>30.6</ele>
        <time>2024-12-19T14:22:51Z</time>
      </trkpt>
      <trkpt lat="47.93183" lon="-2.51594">
        <ele>30.6</ele>
        <time>2024-12-19T14:22:52Z</time>
      </trkpt>
      <trkpt lat="47.93184" lon="-2.51597">
        <ele>30.5</ele>
        <time>2024-12-19T14:22:53Z</time>
      </trkpt>
      <trkpt lat="47.93184" lon="-2.51598">
        <ele>30.6</ele>
        <time>2024-12-19T14:22:54Z</time>
      </trkpt>
      <trkpt lat="47.93185" lon="-2.51599">
        <ele>30.6</ele>
        <time>2024-12-19T14:22:55Z</time>
      </trkpt>
      <trkpt lat="47.93186" lon="-2.51601">
        <ele>30.6</ele>
        <time>2024-12-19T14:22:56Z</time>
      </trkpt>
      <trkpt lat="47.93187" lon="-2.51602">
        <ele>30.7</ele>
        <time>2024-12-19T14:22:57Z</time>
      </trkpt>
      <trkpt lat="47.93188" lon="-2.51603">
        <ele>30.7</ele>
        <time>2024-12-19T14:22:58Z</time>
      </trkpt>
      <trkpt lat="47.93189" lon="-2.51605">
        <ele>30.8</ele>
        <time>2024-12-19T14:22:59Z</time>
      </trkpt>
      <trkpt lat="47.93189" lon="-2.51606">
        <ele>30.7</ele>
        <time>2024-12-19T14:23:00Z</time>
      </trkpt>
      <trkpt lat="47.93189" lon="-2.51607">
        <ele>30.7</ele>
        <time>2024-12-19T14:23:01Z</time>
      </trkpt>
      <trkpt lat="47.93189" lon="-2.51608">
        <ele>30.7</ele>
        <time>2024-12-19T14:23:02Z</time>
      </trkpt>
      <trkpt lat="47.93189" lon="-2.5161">
        <ele>30.7</ele>
        <time>2024-12-19T14:23:03Z</time>
      </trkpt>
      <trkpt lat="47.93189" lon="-2.51612">
        <ele>30.6</ele>
        <time>2024-12-19T14:23:04Z</time>
      </trkpt>
      <trkpt lat="47.93188" lon="-2.51615">
        <ele>30.5</ele>
        <time>2024-12-19T14:23:05Z</time>
      </trkpt>
      <trkpt lat="47.93188" lon="-2.51616">
        <ele>30.5</ele>
        <time>2024-12-19T14:23:06Z</time>
      </trkpt>
      <trkpt lat="47.93187" lon="-2.51618">
        <ele>30.5</ele>
        <time>2024-12-19T14:23:07Z</time>
      </trkpt>
      <trkpt lat="47.93188" lon="-2.51619">
        <ele>30.5</ele>
        <time>2024-12-19T14:23:08Z</time>
      </trkpt>
      <trkpt lat="47.93188" lon="-2.5162">
        <ele>30.5</ele>
        <time>2024-12-19T14:23:09Z</time>
      </trkpt>
      <trkpt lat="47.93188" lon="-2.51621">
        <ele>30.5</ele>
        <time>2024-12-19T14:23:10Z</time>
      </trkpt>
      <trkpt lat="47.93189" lon="-2.51622">
        <ele>30.6</ele>
        <time>2024-12-19T14:23:11Z</time>
      </trkpt>
      <trkpt lat="47.9319" lon="-2.51622">
        <ele>30.6</ele>
        <time>2024-12-19T14:23:12Z</time>
      </trkpt>
      <trkpt lat="47.9319" lon="-2.51623">
        <ele>30.7</ele>
        <time>2024-12-19T14:23:13Z</time>
      </trkpt>
      <trkpt lat="47.9319" lon="-2.51623">
        <ele>30.7</ele>
        <time>2024-12-19T14:23:14Z</time>
      </trkpt>
      <trkpt lat="47.9319" lon="-2.51625">
        <ele>30.7</ele>
        <time>2024-12-19T14:23:15Z</time>
      </trkpt>
      <trkpt lat="47.9319" lon="-2.51627">
        <ele>30.7</ele>
        <time>2024-12-19T14:23:16Z</time>
      </trkpt>
      <trkpt lat="47.9319" lon="-2.51627">
        <ele>30.7</ele>
        <time>2024-12-19T14:23:17Z</time>
      </trkpt>
      <trkpt lat="47.93191" lon="-2.51628">
        <ele>30.7</ele>
        <time>2024-12-19T14:23:18Z</time>
      </trkpt>
      <trkpt lat="47.93191" lon="-2.51628">
        <ele>30.7</ele>
        <time>2024-12-19T14:23:19Z</time>
      </trkpt>
      <trkpt lat="47.93191" lon="-2.51629">
        <ele>30.7</ele>
        <time>2024-12-19T14:23:20Z</time>
      </trkpt>
      <trkpt lat="47.93191" lon="-2.51631">
        <ele>30.7</ele>
        <time>2024-12-19T14:23:21Z</time>
      </trkpt>
      <trkpt lat="47.9319" lon="-2.51632">
        <ele>30.7</ele>
        <time>2024-12-19T14:23:22Z</time>
      </trkpt>
      <trkpt lat="47.9319" lon="-2.51632">
        <ele>30.7</ele>
        <time>2024-12-19T14:23:23Z</time>
      </trkpt>
      <trkpt lat="47.9319" lon="-2.51632">
        <ele>30.7</ele>
        <time>2024-12-19T14:23:24Z</time>
      </trkpt>
      <trkpt lat="47.9319" lon="-2.51634">
        <ele>30.7</ele>
        <time>2024-12-19T14:23:25Z</time>
      </trkpt>
      <trkpt lat="47.9319" lon="-2.51637">
        <ele>30.6</ele>
        <time>2024-12-19T14:23:26Z</time>
      </trkpt>
      <trkpt lat="47.93189" lon="-2.51639">
        <ele>30.6</ele>
        <time>2024-12-19T14:23:27Z</time>
      </trkpt>
      <trkpt lat="47.93189" lon="-2.5164">
        <ele>30.6</ele>
        <time>2024-12-19T14:23:28Z</time>
      </trkpt>
      <trkpt lat="47.93189" lon="-2.51642">
        <ele>30.6</ele>
        <time>2024-12-19T14:23:29Z</time>
      </trkpt>
      <trkpt lat="47.93188" lon="-2.51644">
        <ele>30.6</ele>
        <time>2024-12-19T14:23:30Z</time>
      </trkpt>
      <trkpt lat="47.93188" lon="-2.51647">
        <ele>30.5</ele>
        <time>2024-12-19T14:23:31Z</time>
      </trkpt>
      <trkpt lat="47.93188" lon="-2.51649">
        <ele>30.5</ele>
        <time>2024-12-19T14:23:32Z</time>
      </trkpt>
      <trkpt lat="47.93188" lon="-2.51651">
        <ele>30.6</ele>
        <time>2024-12-19T14:23:33Z</time>
      </trkpt>
      <trkpt lat="47.93189" lon="-2.51652">
        <ele>30.6</ele>
        <time>2024-12-19T14:23:34Z</time>
      </trkpt>
      <trkpt lat="47.9319" lon="-2.51654">
        <ele>30.7</ele>
        <time>2024-12-19T14:23:35Z</time>
      </trkpt>
      <trkpt lat="47.93191" lon="-2.51656">
        <ele>30.7</ele>
        <time>2024-12-19T14:23:36Z</time>
      </trkpt>
      <trkpt lat="47.93191" lon="-2.51659">
        <ele>30.8</ele>
        <time>2024-12-19T14:23:37Z</time>
      </trkpt>
      <trkpt lat="47.93192" lon="-2.5166">
        <ele>30.8</ele>
        <time>2024-12-19T14:23:38Z</time>
      </trkpt>
      <trkpt lat="47.93192" lon="-2.51661">
        <ele>30.8</ele>
        <time>2024-12-19T14:23:39Z</time>
      </trkpt>
      <trkpt lat="47.93192" lon="-2.51664">
        <ele>30.8</ele>
        <time>2024-12-19T14:23:40Z</time>
      </trkpt>
      <trkpt lat="47.93192" lon="-2.51665">
        <ele>30.8</ele>
        <time>2024-12-19T14:23:41Z</time>
      </trkpt>
      <trkpt lat="47.93192" lon="-2.51665">
        <ele>30.8</ele>
        <time>2024-12-19T14:23:42Z</time>
      </trkpt>
      <trkpt lat="47.93193" lon="-2.51666">
        <ele>30.9</ele>
        <time>2024-12-19T14:23:43Z</time>
      </trkpt>
      <trkpt lat="47.93193" lon="-2.51667">
        <ele>30.9</ele>
        <time>2024-12-19T14:23:44Z</time>
      </trkpt>
      <trkpt lat="47.93193" lon="-2.51669">
        <ele>30.9</ele>
        <time>2024-12-19T14:23:45Z</time>
      </trkpt>
      <trkpt lat="47.93194" lon="-2.5167">
        <ele>31</ele>
        <time>2024-12-19T14:23:46Z</time>
      </trkpt>
      <trkpt lat="47.93194" lon="-2.51672">
        <ele>31</ele>
        <time>2024-12-19T14:23:47Z</time>
      </trkpt>
      <trkpt lat="47.93195" lon="-2.51674">
        <ele>31</ele>
        <time>2024-12-19T14:23:48Z</time>
      </trkpt>
      <trkpt lat="47.93195" lon="-2.51677">
        <ele>31</ele>
        <time>2024-12-19T14:23:49Z</time>
      </trkpt>
      <trkpt lat="47.93195" lon="-2.51679">
        <ele>31</ele>
        <time>2024-12-19T14:23:50Z</time>
      </trkpt>
      <trkpt lat="47.93196" lon="-2.51682">
        <ele>31.1</ele>
        <time>2024-12-19T14:23:51Z</time>
      </trkpt>
      <trkpt lat="47.93196" lon="-2.51684">
        <ele>31.1</ele>
        <time>2024-12-19T14:23:52Z</time>
      </trkpt>
      <trkpt lat="47.93197" lon="-2.51687">
        <ele>31.1</ele>
        <time>2024-12-19T14:23:53Z</time>
      </trkpt>
      <trkpt lat="47.93198" lon="-2.5169">
        <ele>31.1</ele>
        <time>2024-12-19T14:23:54Z</time>
      </trkpt>
      <trkpt lat="47.93198" lon="-2.51693">
        <ele>31.1</ele>
        <time>2024-12-19T14:23:55Z</time>
      </trkpt>
      <trkpt lat="47.93199" lon="-2.51696">
        <ele>31.2</ele>
        <time>2024-12-19T14:23:56Z</time>
      </trkpt>
      <trkpt lat="47.93199" lon="-2.51697">
        <ele>31.2</ele>
        <time>2024-12-19T14:23:57Z</time>
      </trkpt>
      <trkpt lat="47.932" lon="-2.51699">
        <ele>31.2</ele>
        <time>2024-12-19T14:23:58Z</time>
      </trkpt>
      <trkpt lat="47.93199" lon="-2.51702">
        <ele>31.2</ele>
        <time>2024-12-19T14:23:59Z</time>
      </trkpt>
      <trkpt lat="47.93199" lon="-2.51706">
        <ele>31.2</ele>
        <time>2024-12-19T14:24:00Z</time>
      </trkpt>
      <trkpt lat="47.93199" lon="-2.51709">
        <ele>31.2</ele>
        <time>2024-12-19T14:24:01Z</time>
      </trkpt>
      <trkpt lat="47.93199" lon="-2.51711">
        <ele>31.2</ele>
        <time>2024-12-19T14:24:02Z</time>
      </trkpt>
      <trkpt lat="47.93199" lon="-2.51712">
        <ele>31.2</ele>
        <time>2024-12-19T14:24:03Z</time>
      </trkpt>
      <trkpt lat="47.93199" lon="-2.51714">
        <ele>31.2</ele>
        <time>2024-12-19T14:24:04Z</time>
      </trkpt>
      <trkpt lat="47.93199" lon="-2.51716">
        <ele>31.2</ele>
        <time>2024-12-19T14:24:05Z</time>
      </trkpt>
      <trkpt lat="47.93199" lon="-2.51717">
        <ele>31.2</ele>
        <time>2024-12-19T14:24:06Z</time>
      </trkpt>
      <trkpt lat="47.93199" lon="-2.51719">
        <ele>31.2</ele>
        <time>2024-12-19T14:24:07Z</time>
      </trkpt>
      <trkpt lat="47.93199" lon="-2.51721">
        <ele>31.2</ele>
        <time>2024-12-19T14:24:08Z</time>
      </trkpt>
      <trkpt lat="47.93199" lon="-2.51724">
        <ele>31.2</ele>
        <time>2024-12-19T14:24:09Z</time>
      </trkpt>
      <trkpt lat="47.93199" lon="-2.51727">
        <ele>31.2</ele>
        <time>2024-12-19T14:24:10Z</time>
      </trkpt>
      <trkpt lat="47.93199" lon="-2.51729">
        <ele>31.2</ele>
        <time>2024-12-19T14:24:11Z</time>
      </trkpt>
      <trkpt lat="47.93199" lon="-2.51732">
        <ele>31.2</ele>
        <time>2024-12-19T14:24:12Z</time>
      </trkpt>
      <trkpt lat="47.93199" lon="-2.51735">
        <ele>31.2</ele>
        <time>2024-12-19T14:24:13Z</time>
      </trkpt>
      <trkpt lat="47.93199" lon="-2.51736">
        <ele>31.2</ele>
        <time>2024-12-19T14:24:14Z</time>
      </trkpt>
      <trkpt lat="47.93199" lon="-2.51737">
        <ele>31.2</ele>
        <time>2024-12-19T14:24:15Z</time>
      </trkpt>
      <trkpt lat="47.932" lon="-2.51737">
        <ele>31.2</ele>
        <time>2024-12-19T14:24:16Z</time>
      </trkpt>
      <trkpt lat="47.932" lon="-2.51739">
        <ele>31.2</ele>
        <time>2024-12-19T14:24:17Z</time>
      </trkpt>
      <trkpt lat="47.93199" lon="-2.51742">
        <ele>31.2</ele>
        <time>2024-12-19T14:24:18Z</time>
      </trkpt>
      <trkpt lat="47.93199" lon="-2.51744">
        <ele>31.2</ele>
        <time>2024-12-19T14:24:19Z</time>
      </trkpt>
      <trkpt lat="47.93199" lon="-2.51746">
        <ele>31.1</ele>
        <time>2024-12-19T14:24:20Z</time>
      </trkpt>
      <trkpt lat="47.93198" lon="-2.51748">
        <ele>31.1</ele>
        <time>2024-12-19T14:24:21Z</time>
      </trkpt>
      <trkpt lat="47.93199" lon="-2.51749">
        <ele>31.1</ele>
        <time>2024-12-19T14:24:22Z</time>
      </trkpt>
      <trkpt lat="47.93199" lon="-2.51751">
        <ele>31.2</ele>
        <time>2024-12-19T14:24:23Z</time>
      </trkpt>
      <trkpt lat="47.93199" lon="-2.51754">
        <ele>31.2</ele>
        <time>2024-12-19T14:24:24Z</time>
      </trkpt>
      <trkpt lat="47.932" lon="-2.51756">
        <ele>31.2</ele>
        <time>2024-12-19T14:24:25Z</time>
      </trkpt>
      <trkpt lat="47.932" lon="-2.51758">
        <ele>31.2</ele>
        <time>2024-12-19T14:24:26Z</time>
      </trkpt>
      <trkpt lat="47.93201" lon="-2.51759">
        <ele>31.2</ele>
        <time>2024-12-19T14:24:27Z</time>
      </trkpt>
      <trkpt lat="47.93201" lon="-2.5176">
        <ele>31.2</ele>
        <time>2024-12-19T14:24:28Z</time>
      </trkpt>
      <trkpt lat="47.93201" lon="-2.51762">
        <ele>31.3</ele>
        <time>2024-12-19T14:24:29Z</time>
      </trkpt>
      <trkpt lat="47.93201" lon="-2.51764">
        <ele>31.2</ele>
        <time>2024-12-19T14:24:30Z</time>
      </trkpt>
      <trkpt lat="47.93201" lon="-2.51765">
        <ele>31.2</ele>
        <time>2024-12-19T14:24:31Z</time>
      </trkpt>
      <trkpt lat="47.93201" lon="-2.51767">
        <ele>31.2</ele>
        <time>2024-12-19T14:24:32Z</time>
      </trkpt>
      <trkpt lat="47.93201" lon="-2.51769">
        <ele>31.2</ele>
        <time>2024-12-19T14:24:33Z</time>
      </trkpt>
      <trkpt lat="47.93201" lon="-2.5177">
        <ele>31.2</ele>
        <time>2024-12-19T14:24:34Z</time>
      </trkpt>
      <trkpt lat="47.93201" lon="-2.51772">
        <ele>31.2</ele>
        <time>2024-12-19T14:24:35Z</time>
      </trkpt>
      <trkpt lat="47.93201" lon="-2.51773">
        <ele>31.2</ele>
        <time>2024-12-19T14:24:36Z</time>
      </trkpt>
      <trkpt lat="47.932" lon="-2.51773">
        <ele>31.2</ele>
        <time>2024-12-19T14:24:37Z</time>
      </trkpt>
      <trkpt lat="47.932" lon="-2.51774">
        <ele>31.2</ele>
        <time>2024-12-19T14:24:38Z</time>
      </trkpt>
      <trkpt lat="47.932" lon="-2.51776">
        <ele>31.2</ele>
        <time>2024-12-19T14:24:39Z</time>
      </trkpt>
      <trkpt lat="47.932" lon="-2.51777">
        <ele>31.2</ele>
        <time>2024-12-19T14:24:40Z</time>
      </trkpt>
      <trkpt lat="47.932" lon="-2.51779">
        <ele>31.2</ele>
        <time>2024-12-19T14:24:41Z</time>
      </trkpt>
      <trkpt lat="47.93199" lon="-2.51781">
        <ele>31.2</ele>
        <time>2024-12-19T14:24:42Z</time>
      </trkpt>
      <trkpt lat="47.93199" lon="-2.51784">
        <ele>31.2</ele>
        <time>2024-12-19T14:24:43Z</time>
      </trkpt>
      <trkpt lat="47.93199" lon="-2.51786">
        <ele>31.2</ele>
        <time>2024-12-19T14:24:44Z</time>
      </trkpt>
      <trkpt lat="47.93198" lon="-2.51788">
        <ele>31.1</ele>
        <time>2024-12-19T14:24:45Z</time>
      </trkpt>
      <trkpt lat="47.93198" lon="-2.5179">
        <ele>31.1</ele>
        <time>2024-12-19T14:24:46Z</time>
      </trkpt>
      <trkpt lat="47.93197" lon="-2.51792">
        <ele>31.1</ele>
        <time>2024-12-19T14:24:47Z</time>
      </trkpt>
      <trkpt lat="47.93197" lon="-2.51794">
        <ele>31.1</ele>
        <time>2024-12-19T14:24:48Z</time>
      </trkpt>
      <trkpt lat="47.93197" lon="-2.51796">
        <ele>31.1</ele>
        <time>2024-12-19T14:24:49Z</time>
      </trkpt>
      <trkpt lat="47.93197" lon="-2.51798">
        <ele>31.1</ele>
        <time>2024-12-19T14:24:50Z</time>
      </trkpt>
      <trkpt lat="47.93197" lon="-2.51799">
        <ele>31.1</ele>
        <time>2024-12-19T14:24:51Z</time>
      </trkpt>
      <trkpt lat="47.93196" lon="-2.51801">
        <ele>31.1</ele>
        <time>2024-12-19T14:24:52Z</time>
      </trkpt>
      <trkpt lat="47.93196" lon="-2.51803">
        <ele>31.1</ele>
        <time>2024-12-19T14:24:53Z</time>
      </trkpt>
      <trkpt lat="47.93196" lon="-2.51805">
        <ele>31.1</ele>
        <time>2024-12-19T14:24:54Z</time>
      </trkpt>
      <trkpt lat="47.93196" lon="-2.51807">
        <ele>31</ele>
        <time>2024-12-19T14:24:55Z</time>
      </trkpt>
      <trkpt lat="47.93196" lon="-2.51809">
        <ele>30.9</ele>
        <time>2024-12-19T14:24:56Z</time>
      </trkpt>
      <trkpt lat="47.93196" lon="-2.51811">
        <ele>30.9</ele>
        <time>2024-12-19T14:24:57Z</time>
      </trkpt>
      <trkpt lat="47.93196" lon="-2.51813">
        <ele>30.8</ele>
        <time>2024-12-19T14:24:58Z</time>
      </trkpt>
      <trkpt lat="47.93196" lon="-2.51814">
        <ele>30.8</ele>
        <time>2024-12-19T14:24:59Z</time>
      </trkpt>
      <trkpt lat="47.93196" lon="-2.51816">
        <ele>30.7</ele>
        <time>2024-12-19T14:25:00Z</time>
      </trkpt>
      <trkpt lat="47.93196" lon="-2.51817">
        <ele>30.7</ele>
        <time>2024-12-19T14:25:01Z</time>
      </trkpt>
      <trkpt lat="47.93195" lon="-2.51819">
        <ele>30.6</ele>
        <time>2024-12-19T14:25:02Z</time>
      </trkpt>
      <trkpt lat="47.93195" lon="-2.51821">
        <ele>30.5</ele>
        <time>2024-12-19T14:25:03Z</time>
      </trkpt>
      <trkpt lat="47.93195" lon="-2.51822">
        <ele>30.4</ele>
        <time>2024-12-19T14:25:04Z</time>
      </trkpt>
      <trkpt lat="47.93195" lon="-2.51824">
        <ele>30.4</ele>
        <time>2024-12-19T14:25:05Z</time>
      </trkpt>
      <trkpt lat="47.93195" lon="-2.51826">
        <ele>30.3</ele>
        <time>2024-12-19T14:25:06Z</time>
      </trkpt>
      <trkpt lat="47.93195" lon="-2.51828">
        <ele>30.2</ele>
        <time>2024-12-19T14:25:07Z</time>
      </trkpt>
      <trkpt lat="47.93194" lon="-2.51831">
        <ele>30.1</ele>
        <time>2024-12-19T14:25:08Z</time>
      </trkpt>
      <trkpt lat="47.93194" lon="-2.51833">
        <ele>30</ele>
        <time>2024-12-19T14:25:09Z</time>
      </trkpt>
      <trkpt lat="47.93195" lon="-2.51834">
        <ele>30</ele>
        <time>2024-12-19T14:25:10Z</time>
      </trkpt>
      <trkpt lat="47.93195" lon="-2.51835">
        <ele>30</ele>
        <time>2024-12-19T14:25:11Z</time>
      </trkpt>
      <trkpt lat="47.93196" lon="-2.51837">
        <ele>30.1</ele>
        <time>2024-12-19T14:25:12Z</time>
      </trkpt>
      <trkpt lat="47.93196" lon="-2.51839">
        <ele>30.1</ele>
        <time>2024-12-19T14:25:13Z</time>
      </trkpt>
      <trkpt lat="47.93196" lon="-2.51841">
        <ele>30.1</ele>
        <time>2024-12-19T14:25:14Z</time>
      </trkpt>
      <trkpt lat="47.93196" lon="-2.51842">
        <ele>30.1</ele>
        <time>2024-12-19T14:25:15Z</time>
      </trkpt>
      <trkpt lat="47.93196" lon="-2.51843">
        <ele>30.1</ele>
        <time>2024-12-19T14:25:16Z</time>
      </trkpt>
      <trkpt lat="47.93196" lon="-2.51844">
        <ele>30.1</ele>
        <time>2024-12-19T14:25:17Z</time>
      </trkpt>
      <trkpt lat="47.93196" lon="-2.51845">
        <ele>30.1</ele>
        <time>2024-12-19T14:25:18Z</time>
      </trkpt>
      <trkpt lat="47.93196" lon="-2.51845">
        <ele>30.1</ele>
        <time>2024-12-19T14:25:19Z</time>
      </trkpt>
      <trkpt lat="47.93196" lon="-2.51847">
        <ele>30.1</ele>
        <time>2024-12-19T14:25:20Z</time>
      </trkpt>
      <trkpt lat="47.93196" lon="-2.51848">
        <ele>30.1</ele>
        <time>2024-12-19T14:25:21Z</time>
      </trkpt>
      <trkpt lat="47.93196" lon="-2.5185">
        <ele>30.1</ele>
        <time>2024-12-19T14:25:22Z</time>
      </trkpt>
      <trkpt lat="47.93196" lon="-2.51852">
        <ele>30.1</ele>
        <time>2024-12-19T14:25:23Z</time>
      </trkpt>
      <trkpt lat="47.93196" lon="-2.51854">
        <ele>30.1</ele>
        <time>2024-12-19T14:25:24Z</time>
      </trkpt>
      <trkpt lat="47.93197" lon="-2.51857">
        <ele>30.1</ele>
        <time>2024-12-19T14:25:25Z</time>
      </trkpt>
      <trkpt lat="47.93197" lon="-2.51859">
        <ele>30.2</ele>
        <time>2024-12-19T14:25:26Z</time>
      </trkpt>
      <trkpt lat="47.93197" lon="-2.51861">
        <ele>30.2</ele>
        <time>2024-12-19T14:25:27Z</time>
      </trkpt>
      <trkpt lat="47.93197" lon="-2.51863">
        <ele>30.2</ele>
        <time>2024-12-19T14:25:28Z</time>
      </trkpt>
      <trkpt lat="47.93197" lon="-2.51864">
        <ele>30.2</ele>
        <time>2024-12-19T14:25:29Z</time>
      </trkpt>
      <trkpt lat="47.93197" lon="-2.51866">
        <ele>30.2</ele>
        <time>2024-12-19T14:25:30Z</time>
      </trkpt>
      <trkpt lat="47.93197" lon="-2.51867">
        <ele>30.2</ele>
        <time>2024-12-19T14:25:31Z</time>
      </trkpt>
      <trkpt lat="47.93198" lon="-2.51869">
        <ele>30.2</ele>
        <time>2024-12-19T14:25:32Z</time>
      </trkpt>
      <trkpt lat="47.93198" lon="-2.51871">
        <ele>30.2</ele>
        <time>2024-12-19T14:25:33Z</time>
      </trkpt>
      <trkpt lat="47.93197" lon="-2.51873">
        <ele>30.2</ele>
        <time>2024-12-19T14:25:34Z</time>
      </trkpt>
      <trkpt lat="47.93197" lon="-2.51874">
        <ele>30.2</ele>
        <time>2024-12-19T14:25:35Z</time>
      </trkpt>
      <trkpt lat="47.93197" lon="-2.51876">
        <ele>30.2</ele>
        <time>2024-12-19T14:25:36Z</time>
      </trkpt>
      <trkpt lat="47.93197" lon="-2.51878">
        <ele>30.2</ele>
        <time>2024-12-19T14:25:37Z</time>
      </trkpt>
      <trkpt lat="47.93197" lon="-2.51879">
        <ele>30.2</ele>
        <time>2024-12-19T14:25:38Z</time>
      </trkpt>
      <trkpt lat="47.93198" lon="-2.51881">
        <ele>30.2</ele>
        <time>2024-12-19T14:25:39Z</time>
      </trkpt>
      <trkpt lat="47.93198" lon="-2.51883">
        <ele>30.3</ele>
        <time>2024-12-19T14:25:40Z</time>
      </trkpt>
      <trkpt lat="47.93198" lon="-2.51885">
        <ele>30.3</ele>
        <time>2024-12-19T14:25:41Z</time>
      </trkpt>
      <trkpt lat="47.93198" lon="-2.51887">
        <ele>30.3</ele>
        <time>2024-12-19T14:25:42Z</time>
      </trkpt>
      <trkpt lat="47.93198" lon="-2.51889">
        <ele>30.3</ele>
        <time>2024-12-19T14:25:43Z</time>
      </trkpt>
      <trkpt lat="47.93199" lon="-2.51891">
        <ele>30.3</ele>
        <time>2024-12-19T14:25:44Z</time>
      </trkpt>
      <trkpt lat="47.93199" lon="-2.51893">
        <ele>30.3</ele>
        <time>2024-12-19T14:25:45Z</time>
      </trkpt>
      <trkpt lat="47.93198" lon="-2.51894">
        <ele>30.3</ele>
        <time>2024-12-19T14:25:46Z</time>
      </trkpt>
      <trkpt lat="47.93199" lon="-2.51896">
        <ele>30.3</ele>
        <time>2024-12-19T14:25:47Z</time>
      </trkpt>
      <trkpt lat="47.93198" lon="-2.51898">
        <ele>30.3</ele>
        <time>2024-12-19T14:25:48Z</time>
      </trkpt>
      <trkpt lat="47.93198" lon="-2.519">
        <ele>30.3</ele>
        <time>2024-12-19T14:25:49Z</time>
      </trkpt>
      <trkpt lat="47.93198" lon="-2.51902">
        <ele>30.3</ele>
        <time>2024-12-19T14:25:50Z</time>
      </trkpt>
      <trkpt lat="47.93198" lon="-2.51904">
        <ele>30.3</ele>
        <time>2024-12-19T14:25:51Z</time>
      </trkpt>
      <trkpt lat="47.93198" lon="-2.51905">
        <ele>30.3</ele>
        <time>2024-12-19T14:25:52Z</time>
      </trkpt>
      <trkpt lat="47.93198" lon="-2.51907">
        <ele>30.2</ele>
        <time>2024-12-19T14:25:53Z</time>
      </trkpt>
      <trkpt lat="47.93198" lon="-2.51908">
        <ele>30.2</ele>
        <time>2024-12-19T14:25:54Z</time>
      </trkpt>
      <trkpt lat="47.93198" lon="-2.5191">
        <ele>30.2</ele>
        <time>2024-12-19T14:25:55Z</time>
      </trkpt>
      <trkpt lat="47.93198" lon="-2.51912">
        <ele>30.2</ele>
        <time>2024-12-19T14:25:56Z</time>
      </trkpt>
      <trkpt lat="47.93198" lon="-2.51914">
        <ele>30.3</ele>
        <time>2024-12-19T14:25:57Z</time>
      </trkpt>
      <trkpt lat="47.93199" lon="-2.51916">
        <ele>30.3</ele>
        <time>2024-12-19T14:25:58Z</time>
      </trkpt>
      <trkpt lat="47.93199" lon="-2.51918">
        <ele>30.3</ele>
        <time>2024-12-19T14:25:59Z</time>
      </trkpt>
      <trkpt lat="47.93199" lon="-2.5192">
        <ele>30.3</ele>
        <time>2024-12-19T14:26:00Z</time>
      </trkpt>
      <trkpt lat="47.93199" lon="-2.51922">
        <ele>30.3</ele>
        <time>2024-12-19T14:26:01Z</time>
      </trkpt>
      <trkpt lat="47.93199" lon="-2.51924">
        <ele>30.3</ele>
        <time>2024-12-19T14:26:02Z</time>
      </trkpt>
      <trkpt lat="47.93199" lon="-2.51925">
        <ele>30.3</ele>
        <time>2024-12-19T14:26:03Z</time>
      </trkpt>
      <trkpt lat="47.93199" lon="-2.51927">
        <ele>30.3</ele>
        <time>2024-12-19T14:26:04Z</time>
      </trkpt>
      <trkpt lat="47.932" lon="-2.51928">
        <ele>30.4</ele>
        <time>2024-12-19T14:26:05Z</time>
      </trkpt>
      <trkpt lat="47.932" lon="-2.5193">
        <ele>30.4</ele>
        <time>2024-12-19T14:26:06Z</time>
      </trkpt>
      <trkpt lat="47.93201" lon="-2.51932">
        <ele>30.4</ele>
        <time>2024-12-19T14:26:07Z</time>
      </trkpt>
      <trkpt lat="47.93201" lon="-2.51934">
        <ele>30.5</ele>
        <time>2024-12-19T14:26:08Z</time>
      </trkpt>
      <trkpt lat="47.93201" lon="-2.51935">
        <ele>30.5</ele>
        <time>2024-12-19T14:26:09Z</time>
      </trkpt>
      <trkpt lat="47.93201" lon="-2.51935">
        <ele>30.5</ele>
        <time>2024-12-19T14:26:10Z</time>
      </trkpt>
      <trkpt lat="47.93201" lon="-2.51937">
        <ele>30.5</ele>
        <time>2024-12-19T14:26:11Z</time>
      </trkpt>
      <trkpt lat="47.93202" lon="-2.51938">
        <ele>30.5</ele>
        <time>2024-12-19T14:26:12Z</time>
      </trkpt>
      <trkpt lat="47.93202" lon="-2.5194">
        <ele>30.6</ele>
        <time>2024-12-19T14:26:13Z</time>
      </trkpt>
      <trkpt lat="47.93202" lon="-2.51942">
        <ele>30.6</ele>
        <time>2024-12-19T14:26:14Z</time>
      </trkpt>
      <trkpt lat="47.93203" lon="-2.51943">
        <ele>30.6</ele>
        <time>2024-12-19T14:26:15Z</time>
      </trkpt>
      <trkpt lat="47.93203" lon="-2.51945">
        <ele>30.6</ele>
        <time>2024-12-19T14:26:16Z</time>
      </trkpt>
      <trkpt lat="47.93204" lon="-2.51947">
        <ele>30.7</ele>
        <time>2024-12-19T14:26:17Z</time>
      </trkpt>
      <trkpt lat="47.93204" lon="-2.51948">
        <ele>30.7</ele>
        <time>2024-12-19T14:26:18Z</time>
      </trkpt>
      <trkpt lat="47.93204" lon="-2.5195">
        <ele>30.7</ele>
        <time>2024-12-19T14:26:19Z</time>
      </trkpt>
      <trkpt lat="47.93205" lon="-2.51952">
        <ele>30.7</ele>
        <time>2024-12-19T14:26:20Z</time>
      </trkpt>
      <trkpt lat="47.93205" lon="-2.51953">
        <ele>30.8</ele>
        <time>2024-12-19T14:26:21Z</time>
      </trkpt>
      <trkpt lat="47.93206" lon="-2.51955">
        <ele>30.8</ele>
        <time>2024-12-19T14:26:22Z</time>
      </trkpt>
      <trkpt lat="47.93206" lon="-2.51957">
        <ele>30.8</ele>
        <time>2024-12-19T14:26:23Z</time>
      </trkpt>
      <trkpt lat="47.93207" lon="-2.51958">
        <ele>30.9</ele>
        <time>2024-12-19T14:26:24Z</time>
      </trkpt>
      <trkpt lat="47.93207" lon="-2.51961">
        <ele>30.9</ele>
        <time>2024-12-19T14:26:25Z</time>
      </trkpt>
      <trkpt lat="47.93208" lon="-2.51962">
        <ele>31</ele>
        <time>2024-12-19T14:26:26Z</time>
      </trkpt>
      <trkpt lat="47.93208" lon="-2.51964">
        <ele>31</ele>
        <time>2024-12-19T14:26:27Z</time>
      </trkpt>
      <trkpt lat="47.93208" lon="-2.51965">
        <ele>31</ele>
        <time>2024-12-19T14:26:28Z</time>
      </trkpt>
      <trkpt lat="47.93208" lon="-2.51966">
        <ele>31</ele>
        <time>2024-12-19T14:26:29Z</time>
      </trkpt>
      <trkpt lat="47.93209" lon="-2.51968">
        <ele>31</ele>
        <time>2024-12-19T14:26:30Z</time>
      </trkpt>
      <trkpt lat="47.93209" lon="-2.51969">
        <ele>31.1</ele>
        <time>2024-12-19T14:26:31Z</time>
      </trkpt>
      <trkpt lat="47.9321" lon="-2.5197">
        <ele>31.1</ele>
        <time>2024-12-19T14:26:32Z</time>
      </trkpt>
      <trkpt lat="47.9321" lon="-2.51972">
        <ele>31.1</ele>
        <time>2024-12-19T14:26:33Z</time>
      </trkpt>
      <trkpt lat="47.93211" lon="-2.51973">
        <ele>31.2</ele>
        <time>2024-12-19T14:26:34Z</time>
      </trkpt>
      <trkpt lat="47.93211" lon="-2.51974">
        <ele>31.2</ele>
        <time>2024-12-19T14:26:35Z</time>
      </trkpt>
      <trkpt lat="47.93212" lon="-2.51975">
        <ele>31.3</ele>
        <time>2024-12-19T14:26:36Z</time>
      </trkpt>
      <trkpt lat="47.93213" lon="-2.51977">
        <ele>31.3</ele>
        <time>2024-12-19T14:26:37Z</time>
      </trkpt>
      <trkpt lat="47.93213" lon="-2.51979">
        <ele>31.4</ele>
        <time>2024-12-19T14:26:38Z</time>
      </trkpt>
      <trkpt lat="47.93214" lon="-2.5198">
        <ele>31.4</ele>
        <time>2024-12-19T14:26:39Z</time>
      </trkpt>
      <trkpt lat="47.93215" lon="-2.51982">
        <ele>31.5</ele>
        <time>2024-12-19T14:26:40Z</time>
      </trkpt>
      <trkpt lat="47.93215" lon="-2.51983">
        <ele>31.5</ele>
        <time>2024-12-19T14:26:41Z</time>
      </trkpt>
      <trkpt lat="47.93216" lon="-2.51984">
        <ele>31.6</ele>
        <time>2024-12-19T14:26:42Z</time>
      </trkpt>
      <trkpt lat="47.93217" lon="-2.51986">
        <ele>31.6</ele>
        <time>2024-12-19T14:26:43Z</time>
      </trkpt>
      <trkpt lat="47.93218" lon="-2.51987">
        <ele>31.7</ele>
        <time>2024-12-19T14:26:44Z</time>
      </trkpt>
      <trkpt lat="47.93219" lon="-2.51989">
        <ele>31.7</ele>
        <time>2024-12-19T14:26:45Z</time>
      </trkpt>
      <trkpt lat="47.9322" lon="-2.51991">
        <ele>31.8</ele>
        <time>2024-12-19T14:26:46Z</time>
      </trkpt>
      <trkpt lat="47.9322" lon="-2.51992">
        <ele>31.9</ele>
        <time>2024-12-19T14:26:47Z</time>
      </trkpt>
      <trkpt lat="47.93221" lon="-2.51994">
        <ele>31.9</ele>
        <time>2024-12-19T14:26:48Z</time>
      </trkpt>
      <trkpt lat="47.93222" lon="-2.51995">
        <ele>32</ele>
        <time>2024-12-19T14:26:49Z</time>
      </trkpt>
      <trkpt lat="47.93223" lon="-2.51996">
        <ele>32</ele>
        <time>2024-12-19T14:26:50Z</time>
      </trkpt>
      <trkpt lat="47.93224" lon="-2.51998">
        <ele>32</ele>
        <time>2024-12-19T14:26:51Z</time>
      </trkpt>
      <trkpt lat="47.93224" lon="-2.52">
        <ele>32.1</ele>
        <time>2024-12-19T14:26:52Z</time>
      </trkpt>
      <trkpt lat="47.93225" lon="-2.52001">
        <ele>32.1</ele>
        <time>2024-12-19T14:26:53Z</time>
      </trkpt>
      <trkpt lat="47.93226" lon="-2.52002">
        <ele>32.1</ele>
        <time>2024-12-19T14:26:54Z</time>
      </trkpt>
      <trkpt lat="47.93227" lon="-2.52004">
        <ele>32.2</ele>
        <time>2024-12-19T14:26:55Z</time>
      </trkpt>
      <trkpt lat="47.93227" lon="-2.52005">
        <ele>32.2</ele>
        <time>2024-12-19T14:26:56Z</time>
      </trkpt>
      <trkpt lat="47.93228" lon="-2.52007">
        <ele>32.2</ele>
        <time>2024-12-19T14:26:57Z</time>
      </trkpt>
      <trkpt lat="47.93229" lon="-2.52008">
        <ele>32.2</ele>
        <time>2024-12-19T14:26:58Z</time>
      </trkpt>
      <trkpt lat="47.93229" lon="-2.52009">
        <ele>32.3</ele>
        <time>2024-12-19T14:26:59Z</time>
      </trkpt>
      <trkpt lat="47.9323" lon="-2.5201">
        <ele>32.3</ele>
        <time>2024-12-19T14:27:00Z</time>
      </trkpt>
      <trkpt lat="47.93231" lon="-2.52012">
        <ele>32.3</ele>
        <time>2024-12-19T14:27:01Z</time>
      </trkpt>
      <trkpt lat="47.93232" lon="-2.52013">
        <ele>32.3</ele>
        <time>2024-12-19T14:27:02Z</time>
      </trkpt>
      <trkpt lat="47.93232" lon="-2.52015">
        <ele>32.4</ele>
        <time>2024-12-19T14:27:03Z</time>
      </trkpt>
      <trkpt lat="47.93233" lon="-2.52017">
        <ele>32.4</ele>
        <time>2024-12-19T14:27:04Z</time>
      </trkpt>
      <trkpt lat="47.93233" lon="-2.52018">
        <ele>32.4</ele>
        <time>2024-12-19T14:27:05Z</time>
      </trkpt>
      <trkpt lat="47.93233" lon="-2.52019">
        <ele>32.4</ele>
        <time>2024-12-19T14:27:06Z</time>
      </trkpt>
      <trkpt lat="47.93233" lon="-2.5202">
        <ele>32.4</ele>
        <time>2024-12-19T14:27:07Z</time>
      </trkpt>
      <trkpt lat="47.93234" lon="-2.52021">
        <ele>32.4</ele>
        <time>2024-12-19T14:27:08Z</time>
      </trkpt>
      <trkpt lat="47.93235" lon="-2.52022">
        <ele>32.5</ele>
        <time>2024-12-19T14:27:09Z</time>
      </trkpt>
      <trkpt lat="47.93236" lon="-2.52023">
        <ele>32.5</ele>
        <time>2024-12-19T14:27:10Z</time>
      </trkpt>
      <trkpt lat="47.93237" lon="-2.52025">
        <ele>32.5</ele>
        <time>2024-12-19T14:27:11Z</time>
      </trkpt>
      <trkpt lat="47.93238" lon="-2.52026">
        <ele>32.6</ele>
        <time>2024-12-19T14:27:12Z</time>
      </trkpt>
      <trkpt lat="47.93239" lon="-2.52028">
        <ele>32.6</ele>
        <time>2024-12-19T14:27:13Z</time>
      </trkpt>
      <trkpt lat="47.93239" lon="-2.52029">
        <ele>32.6</ele>
        <time>2024-12-19T14:27:14Z</time>
      </trkpt>
      <trkpt lat="47.9324" lon="-2.52031">
        <ele>32.6</ele>
        <time>2024-12-19T14:27:15Z</time>
      </trkpt>
      <trkpt lat="47.93241" lon="-2.52032">
        <ele>32.6</ele>
        <time>2024-12-19T14:27:16Z</time>
      </trkpt>
      <trkpt lat="47.93242" lon="-2.52033">
        <ele>32.6</ele>
        <time>2024-12-19T14:27:17Z</time>
      </trkpt>
      <trkpt lat="47.93243" lon="-2.52034">
        <ele>32.7</ele>
        <time>2024-12-19T14:27:18Z</time>
      </trkpt>
      <trkpt lat="47.93244" lon="-2.52035">
        <ele>32.7</ele>
        <time>2024-12-19T14:27:19Z</time>
      </trkpt>
      <trkpt lat="47.93245" lon="-2.52037">
        <ele>32.8</ele>
        <time>2024-12-19T14:27:20Z</time>
      </trkpt>
      <trkpt lat="47.93245" lon="-2.52039">
        <ele>32.8</ele>
        <time>2024-12-19T14:27:21Z</time>
      </trkpt>
      <trkpt lat="47.93246" lon="-2.52041">
        <ele>32.8</ele>
        <time>2024-12-19T14:27:22Z</time>
      </trkpt>
      <trkpt lat="47.93247" lon="-2.52043">
        <ele>32.8</ele>
        <time>2024-12-19T14:27:23Z</time>
      </trkpt>
      <trkpt lat="47.93248" lon="-2.52044">
        <ele>32.9</ele>
        <time>2024-12-19T14:27:24Z</time>
      </trkpt>
      <trkpt lat="47.93248" lon="-2.52045">
        <ele>32.9</ele>
        <time>2024-12-19T14:27:25Z</time>
      </trkpt>
      <trkpt lat="47.93249" lon="-2.52046">
        <ele>32.9</ele>
        <time>2024-12-19T14:27:26Z</time>
      </trkpt>
      <trkpt lat="47.9325" lon="-2.52048">
        <ele>33</ele>
        <time>2024-12-19T14:27:27Z</time>
      </trkpt>
      <trkpt lat="47.93252" lon="-2.52049">
        <ele>33.1</ele>
        <time>2024-12-19T14:27:28Z</time>
      </trkpt>
      <trkpt lat="47.93253" lon="-2.52051">
        <ele>33.1</ele>
        <time>2024-12-19T14:27:29Z</time>
      </trkpt>
      <trkpt lat="47.93254" lon="-2.52052">
        <ele>33.1</ele>
        <time>2024-12-19T14:27:30Z</time>
      </trkpt>
      <trkpt lat="47.93255" lon="-2.52054">
        <ele>33.2</ele>
        <time>2024-12-19T14:27:31Z</time>
      </trkpt>
      <trkpt lat="47.93255" lon="-2.52055">
        <ele>33.2</ele>
        <time>2024-12-19T14:27:32Z</time>
      </trkpt>
      <trkpt lat="47.93256" lon="-2.52056">
        <ele>33.2</ele>
        <time>2024-12-19T14:27:33Z</time>
      </trkpt>
      <trkpt lat="47.93256" lon="-2.52057">
        <ele>33.2</ele>
        <time>2024-12-19T14:27:34Z</time>
      </trkpt>
      <trkpt lat="47.93257" lon="-2.52058">
        <ele>33.2</ele>
        <time>2024-12-19T14:27:35Z</time>
      </trkpt>
      <trkpt lat="47.93258" lon="-2.52058">
        <ele>33.2</ele>
        <time>2024-12-19T14:27:36Z</time>
      </trkpt>
      <trkpt lat="47.93259" lon="-2.5206">
        <ele>33.2</ele>
        <time>2024-12-19T14:27:37Z</time>
      </trkpt>
      <trkpt lat="47.9326" lon="-2.52061">
        <ele>33.2</ele>
        <time>2024-12-19T14:27:38Z</time>
      </trkpt>
      <trkpt lat="47.93261" lon="-2.52063">
        <ele>33.1</ele>
        <time>2024-12-19T14:27:39Z</time>
      </trkpt>
      <trkpt lat="47.93261" lon="-2.52064">
        <ele>33.1</ele>
        <time>2024-12-19T14:27:40Z</time>
      </trkpt>
      <trkpt lat="47.93262" lon="-2.52065">
        <ele>33.1</ele>
        <time>2024-12-19T14:27:41Z</time>
      </trkpt>
      <trkpt lat="47.93262" lon="-2.52066">
        <ele>33.1</ele>
        <time>2024-12-19T14:27:42Z</time>
      </trkpt>
      <trkpt lat="47.93263" lon="-2.52068">
        <ele>33</ele>
        <time>2024-12-19T14:27:43Z</time>
      </trkpt>
      <trkpt lat="47.93263" lon="-2.52069">
        <ele>33</ele>
        <time>2024-12-19T14:27:44Z</time>
      </trkpt>
      <trkpt lat="47.93264" lon="-2.5207">
        <ele>33</ele>
        <time>2024-12-19T14:27:45Z</time>
      </trkpt>
      <trkpt lat="47.93264" lon="-2.52071">
        <ele>32.9</ele>
        <time>2024-12-19T14:27:46Z</time>
      </trkpt>
      <trkpt lat="47.93265" lon="-2.52073">
        <ele>32.9</ele>
        <time>2024-12-19T14:27:47Z</time>
      </trkpt>
      <trkpt lat="47.93265" lon="-2.52074">
        <ele>32.9</ele>
        <time>2024-12-19T14:27:48Z</time>
      </trkpt>
      <trkpt lat="47.93267" lon="-2.52076">
        <ele>32.9</ele>
        <time>2024-12-19T14:27:49Z</time>
      </trkpt>
      <trkpt lat="47.93268" lon="-2.52078">
        <ele>32.8</ele>
        <time>2024-12-19T14:27:50Z</time>
      </trkpt>
      <trkpt lat="47.93269" lon="-2.52079">
        <ele>32.8</ele>
        <time>2024-12-19T14:27:51Z</time>
      </trkpt>
      <trkpt lat="47.93269" lon="-2.5208">
        <ele>32.8</ele>
        <time>2024-12-19T14:27:52Z</time>
      </trkpt>
      <trkpt lat="47.9327" lon="-2.52082">
        <ele>32.8</ele>
        <time>2024-12-19T14:27:53Z</time>
      </trkpt>
      <trkpt lat="47.93272" lon="-2.52083">
        <ele>32.8</ele>
        <time>2024-12-19T14:27:54Z</time>
      </trkpt>
      <trkpt lat="47.93273" lon="-2.52085">
        <ele>32.8</ele>
        <time>2024-12-19T14:27:55Z</time>
      </trkpt>
      <trkpt lat="47.93274" lon="-2.52086">
        <ele>32.8</ele>
        <time>2024-12-19T14:27:56Z</time>
      </trkpt>
      <trkpt lat="47.93275" lon="-2.52087">
        <ele>32.8</ele>
        <time>2024-12-19T14:27:57Z</time>
      </trkpt>
      <trkpt lat="47.93276" lon="-2.52088">
        <ele>32.8</ele>
        <time>2024-12-19T14:27:58Z</time>
      </trkpt>
      <trkpt lat="47.93277" lon="-2.5209">
        <ele>32.7</ele>
        <time>2024-12-19T14:27:59Z</time>
      </trkpt>
      <trkpt lat="47.93278" lon="-2.52091">
        <ele>32.7</ele>
        <time>2024-12-19T14:28:00Z</time>
      </trkpt>
      <trkpt lat="47.93279" lon="-2.52092">
        <ele>32.7</ele>
        <time>2024-12-19T14:28:01Z</time>
      </trkpt>
      <trkpt lat="47.9328" lon="-2.52094">
        <ele>32.7</ele>
        <time>2024-12-19T14:28:02Z</time>
      </trkpt>
      <trkpt lat="47.93281" lon="-2.52095">
        <ele>32.7</ele>
        <time>2024-12-19T14:28:03Z</time>
      </trkpt>
      <trkpt lat="47.93281" lon="-2.52096">
        <ele>32.7</ele>
        <time>2024-12-19T14:28:04Z</time>
      </trkpt>
      <trkpt lat="47.93282" lon="-2.52098">
        <ele>32.7</ele>
        <time>2024-12-19T14:28:05Z</time>
      </trkpt>
      <trkpt lat="47.93282" lon="-2.521">
        <ele>32.7</ele>
        <time>2024-12-19T14:28:06Z</time>
      </trkpt>
      <trkpt lat="47.93283" lon="-2.52102">
        <ele>32.6</ele>
        <time>2024-12-19T14:28:07Z</time>
      </trkpt>
      <trkpt lat="47.93283" lon="-2.52103">
        <ele>32.6</ele>
        <time>2024-12-19T14:28:08Z</time>
      </trkpt>
      <trkpt lat="47.93284" lon="-2.52104">
        <ele>32.6</ele>
        <time>2024-12-19T14:28:09Z</time>
      </trkpt>
      <trkpt lat="47.93285" lon="-2.52105">
        <ele>32.7</ele>
        <time>2024-12-19T14:28:10Z</time>
      </trkpt>
      <trkpt lat="47.93285" lon="-2.52105">
        <ele>32.7</ele>
        <time>2024-12-19T14:28:11Z</time>
      </trkpt>
      <trkpt lat="47.93286" lon="-2.52107">
        <ele>32.7</ele>
        <time>2024-12-19T14:28:12Z</time>
      </trkpt>
      <trkpt lat="47.93287" lon="-2.52108">
        <ele>32.7</ele>
        <time>2024-12-19T14:28:13Z</time>
      </trkpt>
      <trkpt lat="47.93287" lon="-2.5211">
        <ele>32.7</ele>
        <time>2024-12-19T14:28:14Z</time>
      </trkpt>
      <trkpt lat="47.93288" lon="-2.52111">
        <ele>32.8</ele>
        <time>2024-12-19T14:28:15Z</time>
      </trkpt>
      <trkpt lat="47.93289" lon="-2.52112">
        <ele>32.8</ele>
        <time>2024-12-19T14:28:16Z</time>
      </trkpt>
      <trkpt lat="47.9329" lon="-2.52113">
        <ele>32.8</ele>
        <time>2024-12-19T14:28:17Z</time>
      </trkpt>
      <trkpt lat="47.9329" lon="-2.52114">
        <ele>32.8</ele>
        <time>2024-12-19T14:28:18Z</time>
      </trkpt>
      <trkpt lat="47.93291" lon="-2.52116">
        <ele>32.8</ele>
        <time>2024-12-19T14:28:19Z</time>
      </trkpt>
      <trkpt lat="47.93291" lon="-2.52117">
        <ele>32.9</ele>
        <time>2024-12-19T14:28:20Z</time>
      </trkpt>
      <trkpt lat="47.93292" lon="-2.52117">
        <ele>32.9</ele>
        <time>2024-12-19T14:28:21Z</time>
      </trkpt>
      <trkpt lat="47.93293" lon="-2.52117">
        <ele>32.9</ele>
        <time>2024-12-19T14:28:22Z</time>
      </trkpt>
      <trkpt lat="47.93294" lon="-2.52118">
        <ele>33</ele>
        <time>2024-12-19T14:28:23Z</time>
      </trkpt>
      <trkpt lat="47.93295" lon="-2.52119">
        <ele>33</ele>
        <time>2024-12-19T14:28:24Z</time>
      </trkpt>
      <trkpt lat="47.93296" lon="-2.5212">
        <ele>33.1</ele>
        <time>2024-12-19T14:28:25Z</time>
      </trkpt>
      <trkpt lat="47.93297" lon="-2.52122">
        <ele>33.1</ele>
        <time>2024-12-19T14:28:26Z</time>
      </trkpt>
      <trkpt lat="47.93298" lon="-2.52124">
        <ele>33.1</ele>
        <time>2024-12-19T14:28:27Z</time>
      </trkpt>
      <trkpt lat="47.93298" lon="-2.52126">
        <ele>33.1</ele>
        <time>2024-12-19T14:28:28Z</time>
      </trkpt>
      <trkpt lat="47.93299" lon="-2.52127">
        <ele>33.1</ele>
        <time>2024-12-19T14:28:29Z</time>
      </trkpt>
      <trkpt lat="47.93299" lon="-2.52129">
        <ele>33.1</ele>
        <time>2024-12-19T14:28:30Z</time>
      </trkpt>
      <trkpt lat="47.93301" lon="-2.52131">
        <ele>33.1</ele>
        <time>2024-12-19T14:28:31Z</time>
      </trkpt>
      <trkpt lat="47.93302" lon="-2.52133">
        <ele>33.1</ele>
        <time>2024-12-19T14:28:32Z</time>
      </trkpt>
      <trkpt lat="47.93303" lon="-2.52134">
        <ele>33.1</ele>
        <time>2024-12-19T14:28:33Z</time>
      </trkpt>
      <trkpt lat="47.93304" lon="-2.52135">
        <ele>33.1</ele>
        <time>2024-12-19T14:28:34Z</time>
      </trkpt>
      <trkpt lat="47.93305" lon="-2.52137">
        <ele>33.1</ele>
        <time>2024-12-19T14:28:35Z</time>
      </trkpt>
      <trkpt lat="47.93306" lon="-2.52138">
        <ele>33.1</ele>
        <time>2024-12-19T14:28:36Z</time>
      </trkpt>
      <trkpt lat="47.93308" lon="-2.5214">
        <ele>33</ele>
        <time>2024-12-19T14:28:37Z</time>
      </trkpt>
      <trkpt lat="47.93309" lon="-2.52142">
        <ele>33</ele>
        <time>2024-12-19T14:28:38Z</time>
      </trkpt>
      <trkpt lat="47.9331" lon="-2.52143">
        <ele>33</ele>
        <time>2024-12-19T14:28:39Z</time>
      </trkpt>
      <trkpt lat="47.93311" lon="-2.52144">
        <ele>33.1</ele>
        <time>2024-12-19T14:28:40Z</time>
      </trkpt>
      <trkpt lat="47.93312" lon="-2.52145">
        <ele>33.1</ele>
        <time>2024-12-19T14:28:41Z</time>
      </trkpt>
      <trkpt lat="47.93313" lon="-2.52146">
        <ele>33.1</ele>
        <time>2024-12-19T14:28:42Z</time>
      </trkpt>
      <trkpt lat="47.93314" lon="-2.52147">
        <ele>33.1</ele>
        <time>2024-12-19T14:28:43Z</time>
      </trkpt>
      <trkpt lat="47.93315" lon="-2.52148">
        <ele>33.1</ele>
        <time>2024-12-19T14:28:44Z</time>
      </trkpt>
      <trkpt lat="47.93316" lon="-2.5215">
        <ele>33.1</ele>
        <time>2024-12-19T14:28:45Z</time>
      </trkpt>
      <trkpt lat="47.93317" lon="-2.52151">
        <ele>33.1</ele>
        <time>2024-12-19T14:28:46Z</time>
      </trkpt>
      <trkpt lat="47.93317" lon="-2.52152">
        <ele>33.1</ele>
        <time>2024-12-19T14:28:47Z</time>
      </trkpt>
      <trkpt lat="47.93318" lon="-2.52153">
        <ele>33.1</ele>
        <time>2024-12-19T14:28:48Z</time>
      </trkpt>
      <trkpt lat="47.93318" lon="-2.52153">
        <ele>33.2</ele>
        <time>2024-12-19T14:28:49Z</time>
      </trkpt>
      <trkpt lat="47.93319" lon="-2.52154">
        <ele>33.2</ele>
        <time>2024-12-19T14:28:50Z</time>
      </trkpt>
      <trkpt lat="47.9332" lon="-2.52155">
        <ele>33.2</ele>
        <time>2024-12-19T14:28:51Z</time>
      </trkpt>
      <trkpt lat="47.93321" lon="-2.52156">
        <ele>33.3</ele>
        <time>2024-12-19T14:28:52Z</time>
      </trkpt>
      <trkpt lat="47.93321" lon="-2.52157">
        <ele>33.3</ele>
        <time>2024-12-19T14:28:53Z</time>
      </trkpt>
      <trkpt lat="47.93322" lon="-2.52158">
        <ele>33.3</ele>
        <time>2024-12-19T14:28:54Z</time>
      </trkpt>
      <trkpt lat="47.93323" lon="-2.5216">
        <ele>33.3</ele>
        <time>2024-12-19T14:28:55Z</time>
      </trkpt>
      <trkpt lat="47.93323" lon="-2.52161">
        <ele>33.4</ele>
        <time>2024-12-19T14:28:56Z</time>
      </trkpt>
      <trkpt lat="47.93324" lon="-2.52162">
        <ele>33.4</ele>
        <time>2024-12-19T14:28:57Z</time>
      </trkpt>
      <trkpt lat="47.93324" lon="-2.52163">
        <ele>33.4</ele>
        <time>2024-12-19T14:28:58Z</time>
      </trkpt>
      <trkpt lat="47.93325" lon="-2.52164">
        <ele>33.4</ele>
        <time>2024-12-19T14:28:59Z</time>
      </trkpt>
      <trkpt lat="47.93326" lon="-2.52165">
        <ele>33.5</ele>
        <time>2024-12-19T14:29:00Z</time>
      </trkpt>
      <trkpt lat="47.93327" lon="-2.52166">
        <ele>33.5</ele>
        <time>2024-12-19T14:29:01Z</time>
      </trkpt>
      <trkpt lat="47.93328" lon="-2.52168">
        <ele>33.6</ele>
        <time>2024-12-19T14:29:02Z</time>
      </trkpt>
      <trkpt lat="47.93328" lon="-2.52169">
        <ele>33.7</ele>
        <time>2024-12-19T14:29:03Z</time>
      </trkpt>
      <trkpt lat="47.93329" lon="-2.52171">
        <ele>33.7</ele>
        <time>2024-12-19T14:29:04Z</time>
      </trkpt>
      <trkpt lat="47.9333" lon="-2.52173">
        <ele>33.8</ele>
        <time>2024-12-19T14:29:05Z</time>
      </trkpt>
      <trkpt lat="47.93331" lon="-2.52175">
        <ele>33.9</ele>
        <time>2024-12-19T14:29:06Z</time>
      </trkpt>
      <trkpt lat="47.93332" lon="-2.52177">
        <ele>33.9</ele>
        <time>2024-12-19T14:29:07Z</time>
      </trkpt>
      <trkpt lat="47.93333" lon="-2.52178">
        <ele>34</ele>
        <time>2024-12-19T14:29:08Z</time>
      </trkpt>
      <trkpt lat="47.93334" lon="-2.5218">
        <ele>34</ele>
        <time>2024-12-19T14:29:09Z</time>
      </trkpt>
      <trkpt lat="47.93335" lon="-2.52182">
        <ele>34.1</ele>
        <time>2024-12-19T14:29:10Z</time>
      </trkpt>
      <trkpt lat="47.93337" lon="-2.52184">
        <ele>34.2</ele>
        <time>2024-12-19T14:29:11Z</time>
      </trkpt>
      <trkpt lat="47.93338" lon="-2.52185">
        <ele>34.3</ele>
        <time>2024-12-19T14:29:12Z</time>
      </trkpt>
      <trkpt lat="47.93338" lon="-2.52186">
        <ele>34.3</ele>
        <time>2024-12-19T14:29:13Z</time>
      </trkpt>
      <trkpt lat="47.93339" lon="-2.52187">
        <ele>34.3</ele>
        <time>2024-12-19T14:29:14Z</time>
      </trkpt>
      <trkpt lat="47.93339" lon="-2.52188">
        <ele>34.4</ele>
        <time>2024-12-19T14:29:15Z</time>
      </trkpt>
      <trkpt lat="47.9334" lon="-2.5219">
        <ele>34.4</ele>
        <time>2024-12-19T14:29:16Z</time>
      </trkpt>
      <trkpt lat="47.93341" lon="-2.52191">
        <ele>34.5</ele>
        <time>2024-12-19T14:29:17Z</time>
      </trkpt>
      <trkpt lat="47.93341" lon="-2.52191">
        <ele>34.5</ele>
        <time>2024-12-19T14:29:18Z</time>
      </trkpt>
      <trkpt lat="47.93342" lon="-2.52192">
        <ele>34.6</ele>
        <time>2024-12-19T14:29:19Z</time>
      </trkpt>
      <trkpt lat="47.93343" lon="-2.52193">
        <ele>34.7</ele>
        <time>2024-12-19T14:29:20Z</time>
      </trkpt>
      <trkpt lat="47.93344" lon="-2.52194">
        <ele>34.7</ele>
        <time>2024-12-19T14:29:21Z</time>
      </trkpt>
      <trkpt lat="47.93344" lon="-2.52195">
        <ele>34.8</ele>
        <time>2024-12-19T14:29:22Z</time>
      </trkpt>
      <trkpt lat="47.93345" lon="-2.52196">
        <ele>34.8</ele>
        <time>2024-12-19T14:29:23Z</time>
      </trkpt>
      <trkpt lat="47.93346" lon="-2.52197">
        <ele>34.8</ele>
        <time>2024-12-19T14:29:24Z</time>
      </trkpt>
      <trkpt lat="47.93347" lon="-2.52198">
        <ele>34.8</ele>
        <time>2024-12-19T14:29:25Z</time>
      </trkpt>
      <trkpt lat="47.93348" lon="-2.522">
        <ele>34.9</ele>
        <time>2024-12-19T14:29:26Z</time>
      </trkpt>
      <trkpt lat="47.9335" lon="-2.52201">
        <ele>34.9</ele>
        <time>2024-12-19T14:29:27Z</time>
      </trkpt>
      <trkpt lat="47.9335" lon="-2.52202">
        <ele>34.9</ele>
        <time>2024-12-19T14:29:28Z</time>
      </trkpt>
      <trkpt lat="47.93351" lon="-2.52203">
        <ele>34.9</ele>
        <time>2024-12-19T14:29:29Z</time>
      </trkpt>
      <trkpt lat="47.93352" lon="-2.52204">
        <ele>34.9</ele>
        <time>2024-12-19T14:29:30Z</time>
      </trkpt>
      <trkpt lat="47.93353" lon="-2.52205">
        <ele>34.9</ele>
        <time>2024-12-19T14:29:31Z</time>
      </trkpt>
      <trkpt lat="47.93354" lon="-2.52207">
        <ele>34.8</ele>
        <time>2024-12-19T14:29:32Z</time>
      </trkpt>
      <trkpt lat="47.93355" lon="-2.52207">
        <ele>34.8</ele>
        <time>2024-12-19T14:29:33Z</time>
      </trkpt>
      <trkpt lat="47.93356" lon="-2.52208">
        <ele>34.9</ele>
        <time>2024-12-19T14:29:34Z</time>
      </trkpt>
      <trkpt lat="47.93358" lon="-2.52208">
        <ele>34.9</ele>
        <time>2024-12-19T14:29:35Z</time>
      </trkpt>
      <trkpt lat="47.93359" lon="-2.5221">
        <ele>34.8</ele>
        <time>2024-12-19T14:29:36Z</time>
      </trkpt>
      <trkpt lat="47.9336" lon="-2.52211">
        <ele>34.8</ele>
        <time>2024-12-19T14:29:37Z</time>
      </trkpt>
      <trkpt lat="47.93361" lon="-2.52212">
        <ele>34.7</ele>
        <time>2024-12-19T14:29:38Z</time>
      </trkpt>
      <trkpt lat="47.93362" lon="-2.52213">
        <ele>34.7</ele>
        <time>2024-12-19T14:29:39Z</time>
      </trkpt>
      <trkpt lat="47.93363" lon="-2.52214">
        <ele>34.7</ele>
        <time>2024-12-19T14:29:40Z</time>
      </trkpt>
      <trkpt lat="47.93364" lon="-2.52215">
        <ele>34.7</ele>
        <time>2024-12-19T14:29:41Z</time>
      </trkpt>
      <trkpt lat="47.93365" lon="-2.52217">
        <ele>34.6</ele>
        <time>2024-12-19T14:29:42Z</time>
      </trkpt>
      <trkpt lat="47.93366" lon="-2.52218">
        <ele>34.6</ele>
        <time>2024-12-19T14:29:43Z</time>
      </trkpt>
      <trkpt lat="47.93367" lon="-2.5222">
        <ele>34.5</ele>
        <time>2024-12-19T14:29:44Z</time>
      </trkpt>
      <trkpt lat="47.93367" lon="-2.52221">
        <ele>34.5</ele>
        <time>2024-12-19T14:29:45Z</time>
      </trkpt>
      <trkpt lat="47.93367" lon="-2.52223">
        <ele>34.4</ele>
        <time>2024-12-19T14:29:46Z</time>
      </trkpt>
      <trkpt lat="47.93368" lon="-2.52224">
        <ele>34.3</ele>
        <time>2024-12-19T14:29:47Z</time>
      </trkpt>
      <trkpt lat="47.93368" lon="-2.52225">
        <ele>34.2</ele>
        <time>2024-12-19T14:29:48Z</time>
      </trkpt>
      <trkpt lat="47.93368" lon="-2.52226">
        <ele>34.2</ele>
        <time>2024-12-19T14:29:49Z</time>
      </trkpt>
      <trkpt lat="47.93368" lon="-2.52227">
        <ele>34.2</ele>
        <time>2024-12-19T14:29:50Z</time>
      </trkpt>
      <trkpt lat="47.93369" lon="-2.52227">
        <ele>34.2</ele>
        <time>2024-12-19T14:29:51Z</time>
      </trkpt>
      <trkpt lat="47.93369" lon="-2.52228">
        <ele>34.2</ele>
        <time>2024-12-19T14:29:52Z</time>
      </trkpt>
      <trkpt lat="47.9337" lon="-2.5223">
        <ele>34.1</ele>
        <time>2024-12-19T14:29:53Z</time>
      </trkpt>
      <trkpt lat="47.93371" lon="-2.52231">
        <ele>34.1</ele>
        <time>2024-12-19T14:29:54Z</time>
      </trkpt>
      <trkpt lat="47.93372" lon="-2.52233">
        <ele>34</ele>
        <time>2024-12-19T14:29:55Z</time>
      </trkpt>
      <trkpt lat="47.93372" lon="-2.52234">
        <ele>34</ele>
        <time>2024-12-19T14:29:56Z</time>
      </trkpt>
      <trkpt lat="47.93373" lon="-2.52235">
        <ele>33.9</ele>
        <time>2024-12-19T14:29:57Z</time>
      </trkpt>
      <trkpt lat="47.93373" lon="-2.52235">
        <ele>33.9</ele>
        <time>2024-12-19T14:29:58Z</time>
      </trkpt>
      <trkpt lat="47.93374" lon="-2.52236">
        <ele>33.9</ele>
        <time>2024-12-19T14:29:59Z</time>
      </trkpt>
      <trkpt lat="47.93375" lon="-2.52237">
        <ele>33.9</ele>
        <time>2024-12-19T14:30:00Z</time>
      </trkpt>
      <trkpt lat="47.93375" lon="-2.52238">
        <ele>33.9</ele>
        <time>2024-12-19T14:30:01Z</time>
      </trkpt>
      <trkpt lat="47.93376" lon="-2.52239">
        <ele>33.8</ele>
        <time>2024-12-19T14:30:02Z</time>
      </trkpt>
      <trkpt lat="47.93377" lon="-2.52241">
        <ele>33.8</ele>
        <time>2024-12-19T14:30:03Z</time>
      </trkpt>
      <trkpt lat="47.93377" lon="-2.52243">
        <ele>33.7</ele>
        <time>2024-12-19T14:30:04Z</time>
      </trkpt>
      <trkpt lat="47.93377" lon="-2.52245">
        <ele>33.6</ele>
        <time>2024-12-19T14:30:05Z</time>
      </trkpt>
      <trkpt lat="47.93377" lon="-2.52246">
        <ele>33.4</ele>
        <time>2024-12-19T14:30:06Z</time>
      </trkpt>
      <trkpt lat="47.93378" lon="-2.52248">
        <ele>33.3</ele>
        <time>2024-12-19T14:30:07Z</time>
      </trkpt>
      <trkpt lat="47.93378" lon="-2.52249">
        <ele>33.3</ele>
        <time>2024-12-19T14:30:08Z</time>
      </trkpt>
      <trkpt lat="47.93378" lon="-2.5225">
        <ele>33.2</ele>
        <time>2024-12-19T14:30:09Z</time>
      </trkpt>
      <trkpt lat="47.93379" lon="-2.52252">
        <ele>33.1</ele>
        <time>2024-12-19T14:30:10Z</time>
      </trkpt>
      <trkpt lat="47.9338" lon="-2.52254">
        <ele>33.1</ele>
        <time>2024-12-19T14:30:11Z</time>
      </trkpt>
      <trkpt lat="47.9338" lon="-2.52255">
        <ele>33</ele>
        <time>2024-12-19T14:30:12Z</time>
      </trkpt>
      <trkpt lat="47.93381" lon="-2.52256">
        <ele>33</ele>
        <time>2024-12-19T14:30:13Z</time>
      </trkpt>
      <trkpt lat="47.93382" lon="-2.52258">
        <ele>32.9</ele>
        <time>2024-12-19T14:30:14Z</time>
      </trkpt>
      <trkpt lat="47.93383" lon="-2.5226">
        <ele>32.8</ele>
        <time>2024-12-19T14:30:15Z</time>
      </trkpt>
      <trkpt lat="47.93383" lon="-2.52262">
        <ele>32.7</ele>
        <time>2024-12-19T14:30:16Z</time>
      </trkpt>
      <trkpt lat="47.93384" lon="-2.52263">
        <ele>32.7</ele>
        <time>2024-12-19T14:30:17Z</time>
      </trkpt>
      <trkpt lat="47.93384" lon="-2.52266">
        <ele>32.5</ele>
        <time>2024-12-19T14:30:18Z</time>
      </trkpt>
      <trkpt lat="47.93385" lon="-2.52268">
        <ele>32.4</ele>
        <time>2024-12-19T14:30:19Z</time>
      </trkpt>
      <trkpt lat="47.93386" lon="-2.52269">
        <ele>32.4</ele>
        <time>2024-12-19T14:30:20Z</time>
      </trkpt>
      <trkpt lat="47.93386" lon="-2.5227">
        <ele>32.4</ele>
        <time>2024-12-19T14:30:21Z</time>
      </trkpt>
      <trkpt lat="47.93387" lon="-2.52271">
        <ele>32.4</ele>
        <time>2024-12-19T14:30:22Z</time>
      </trkpt>
      <trkpt lat="47.93388" lon="-2.52272">
        <ele>32.4</ele>
        <time>2024-12-19T14:30:23Z</time>
      </trkpt>
      <trkpt lat="47.93389" lon="-2.52273">
        <ele>32.4</ele>
        <time>2024-12-19T14:30:24Z</time>
      </trkpt>
      <trkpt lat="47.93391" lon="-2.52275">
        <ele>32.3</ele>
        <time>2024-12-19T14:30:25Z</time>
      </trkpt>
      <trkpt lat="47.93391" lon="-2.52277">
        <ele>32.3</ele>
        <time>2024-12-19T14:30:26Z</time>
      </trkpt>
      <trkpt lat="47.93392" lon="-2.52278">
        <ele>32.2</ele>
        <time>2024-12-19T14:30:27Z</time>
      </trkpt>
      <trkpt lat="47.93393" lon="-2.5228">
        <ele>32.2</ele>
        <time>2024-12-19T14:30:28Z</time>
      </trkpt>
      <trkpt lat="47.93393" lon="-2.52282">
        <ele>32.2</ele>
        <time>2024-12-19T14:30:29Z</time>
      </trkpt>
      <trkpt lat="47.93394" lon="-2.52283">
        <ele>32.2</ele>
        <time>2024-12-19T14:30:30Z</time>
      </trkpt>
      <trkpt lat="47.93395" lon="-2.52284">
        <ele>32.2</ele>
        <time>2024-12-19T14:30:31Z</time>
      </trkpt>
      <trkpt lat="47.93396" lon="-2.52286">
        <ele>32.3</ele>
        <time>2024-12-19T14:30:32Z</time>
      </trkpt>
      <trkpt lat="47.93398" lon="-2.52287">
        <ele>32.3</ele>
        <time>2024-12-19T14:30:33Z</time>
      </trkpt>
      <trkpt lat="47.93399" lon="-2.52289">
        <ele>32.3</ele>
        <time>2024-12-19T14:30:34Z</time>
      </trkpt>
      <trkpt lat="47.934" lon="-2.5229">
        <ele>32.3</ele>
        <time>2024-12-19T14:30:35Z</time>
      </trkpt>
      <trkpt lat="47.93401" lon="-2.52291">
        <ele>32.4</ele>
        <time>2024-12-19T14:30:36Z</time>
      </trkpt>
      <trkpt lat="47.93402" lon="-2.52293">
        <ele>32.4</ele>
        <time>2024-12-19T14:30:37Z</time>
      </trkpt>
      <trkpt lat="47.93402" lon="-2.52294">
        <ele>32.4</ele>
        <time>2024-12-19T14:30:38Z</time>
      </trkpt>
      <trkpt lat="47.93403" lon="-2.52295">
        <ele>32.4</ele>
        <time>2024-12-19T14:30:39Z</time>
      </trkpt>
      <trkpt lat="47.93404" lon="-2.52295">
        <ele>32.4</ele>
        <time>2024-12-19T14:30:40Z</time>
      </trkpt>
      <trkpt lat="47.93404" lon="-2.52296">
        <ele>32.4</ele>
        <time>2024-12-19T14:30:41Z</time>
      </trkpt>
      <trkpt lat="47.93405" lon="-2.52297">
        <ele>32.5</ele>
        <time>2024-12-19T14:30:42Z</time>
      </trkpt>
      <trkpt lat="47.93406" lon="-2.52299">
        <ele>32.5</ele>
        <time>2024-12-19T14:30:43Z</time>
      </trkpt>
      <trkpt lat="47.93407" lon="-2.52301">
        <ele>32.5</ele>
        <time>2024-12-19T14:30:44Z</time>
      </trkpt>
      <trkpt lat="47.93408" lon="-2.52302">
        <ele>32.5</ele>
        <time>2024-12-19T14:30:45Z</time>
      </trkpt>
      <trkpt lat="47.93408" lon="-2.52304">
        <ele>32.4</ele>
        <time>2024-12-19T14:30:46Z</time>
      </trkpt>
      <trkpt lat="47.93408" lon="-2.52306">
        <ele>32.4</ele>
        <time>2024-12-19T14:30:47Z</time>
      </trkpt>
      <trkpt lat="47.93409" lon="-2.52307">
        <ele>32.4</ele>
        <time>2024-12-19T14:30:48Z</time>
      </trkpt>
      <trkpt lat="47.9341" lon="-2.52308">
        <ele>32.4</ele>
        <time>2024-12-19T14:30:49Z</time>
      </trkpt>
      <trkpt lat="47.9341" lon="-2.52309">
        <ele>32.4</ele>
        <time>2024-12-19T14:30:50Z</time>
      </trkpt>
      <trkpt lat="47.93411" lon="-2.5231">
        <ele>32.5</ele>
        <time>2024-12-19T14:30:51Z</time>
      </trkpt>
      <trkpt lat="47.93412" lon="-2.52311">
        <ele>32.5</ele>
        <time>2024-12-19T14:30:52Z</time>
      </trkpt>
      <trkpt lat="47.93413" lon="-2.52311">
        <ele>32.6</ele>
        <time>2024-12-19T14:30:53Z</time>
      </trkpt>
      <trkpt lat="47.93414" lon="-2.52312">
        <ele>32.6</ele>
        <time>2024-12-19T14:30:54Z</time>
      </trkpt>
      <trkpt lat="47.93414" lon="-2.52313">
        <ele>32.6</ele>
        <time>2024-12-19T14:30:55Z</time>
      </trkpt>
      <trkpt lat="47.93415" lon="-2.52314">
        <ele>32.6</ele>
        <time>2024-12-19T14:30:56Z</time>
      </trkpt>
      <trkpt lat="47.93415" lon="-2.52315">
        <ele>32.6</ele>
        <time>2024-12-19T14:30:57Z</time>
      </trkpt>
      <trkpt lat="47.93416" lon="-2.52317">
        <ele>32.6</ele>
        <time>2024-12-19T14:30:58Z</time>
      </trkpt>
      <trkpt lat="47.93417" lon="-2.52318">
        <ele>32.6</ele>
        <time>2024-12-19T14:30:59Z</time>
      </trkpt>
      <trkpt lat="47.93417" lon="-2.52319">
        <ele>32.5</ele>
        <time>2024-12-19T14:31:00Z</time>
      </trkpt>
      <trkpt lat="47.93417" lon="-2.5232">
        <ele>32.5</ele>
        <time>2024-12-19T14:31:01Z</time>
      </trkpt>
      <trkpt lat="47.93418" lon="-2.52322">
        <ele>32.6</ele>
        <time>2024-12-19T14:31:02Z</time>
      </trkpt>
      <trkpt lat="47.93419" lon="-2.52324">
        <ele>32.6</ele>
        <time>2024-12-19T14:31:03Z</time>
      </trkpt>
      <trkpt lat="47.93419" lon="-2.52326">
        <ele>32.6</ele>
        <time>2024-12-19T14:31:04Z</time>
      </trkpt>
      <trkpt lat="47.9342" lon="-2.52328">
        <ele>32.6</ele>
        <time>2024-12-19T14:31:05Z</time>
      </trkpt>
      <trkpt lat="47.93421" lon="-2.52331">
        <ele>32.7</ele>
        <time>2024-12-19T14:31:06Z</time>
      </trkpt>
      <trkpt lat="47.93422" lon="-2.52332">
        <ele>32.7</ele>
        <time>2024-12-19T14:31:07Z</time>
      </trkpt>
      <trkpt lat="47.93423" lon="-2.52334">
        <ele>32.8</ele>
        <time>2024-12-19T14:31:08Z</time>
      </trkpt>
      <trkpt lat="47.93424" lon="-2.52335">
        <ele>32.9</ele>
        <time>2024-12-19T14:31:09Z</time>
      </trkpt>
      <trkpt lat="47.93424" lon="-2.52335">
        <ele>33</ele>
        <time>2024-12-19T14:31:10Z</time>
      </trkpt>
      <trkpt lat="47.93425" lon="-2.52336">
        <ele>33.1</ele>
        <time>2024-12-19T14:31:11Z</time>
      </trkpt>
      <trkpt lat="47.93426" lon="-2.52337">
        <ele>33.1</ele>
        <time>2024-12-19T14:31:12Z</time>
      </trkpt>
      <trkpt lat="47.93426" lon="-2.52338">
        <ele>33.1</ele>
        <time>2024-12-19T14:31:13Z</time>
      </trkpt>
      <trkpt lat="47.93427" lon="-2.5234">
        <ele>33.1</ele>
        <time>2024-12-19T14:31:14Z</time>
      </trkpt>
      <trkpt lat="47.93427" lon="-2.52341">
        <ele>33.1</ele>
        <time>2024-12-19T14:31:15Z</time>
      </trkpt>
      <trkpt lat="47.93427" lon="-2.52343">
        <ele>33</ele>
        <time>2024-12-19T14:31:16Z</time>
      </trkpt>
      <trkpt lat="47.93427" lon="-2.52345">
        <ele>33</ele>
        <time>2024-12-19T14:31:17Z</time>
      </trkpt>
      <trkpt lat="47.93427" lon="-2.52346">
        <ele>32.9</ele>
        <time>2024-12-19T14:31:18Z</time>
      </trkpt>
      <trkpt lat="47.93427" lon="-2.52348">
        <ele>32.8</ele>
        <time>2024-12-19T14:31:19Z</time>
      </trkpt>
      <trkpt lat="47.93428" lon="-2.5235">
        <ele>32.8</ele>
        <time>2024-12-19T14:31:20Z</time>
      </trkpt>
      <trkpt lat="47.93429" lon="-2.52351">
        <ele>32.8</ele>
        <time>2024-12-19T14:31:21Z</time>
      </trkpt>
      <trkpt lat="47.93429" lon="-2.52352">
        <ele>32.8</ele>
        <time>2024-12-19T14:31:22Z</time>
      </trkpt>
      <trkpt lat="47.93429" lon="-2.52353">
        <ele>32.8</ele>
        <time>2024-12-19T14:31:23Z</time>
      </trkpt>
      <trkpt lat="47.9343" lon="-2.52355">
        <ele>32.8</ele>
        <time>2024-12-19T14:31:24Z</time>
      </trkpt>
      <trkpt lat="47.93431" lon="-2.52356">
        <ele>32.8</ele>
        <time>2024-12-19T14:31:25Z</time>
      </trkpt>
      <trkpt lat="47.93431" lon="-2.52358">
        <ele>32.8</ele>
        <time>2024-12-19T14:31:26Z</time>
      </trkpt>
      <trkpt lat="47.93432" lon="-2.5236">
        <ele>32.7</ele>
        <time>2024-12-19T14:31:27Z</time>
      </trkpt>
      <trkpt lat="47.93433" lon="-2.52362">
        <ele>32.7</ele>
        <time>2024-12-19T14:31:28Z</time>
      </trkpt>
      <trkpt lat="47.93434" lon="-2.52364">
        <ele>32.8</ele>
        <time>2024-12-19T14:31:29Z</time>
      </trkpt>
      <trkpt lat="47.93435" lon="-2.52365">
        <ele>32.9</ele>
        <time>2024-12-19T14:31:30Z</time>
      </trkpt>
      <trkpt lat="47.93436" lon="-2.52365">
        <ele>33</ele>
        <time>2024-12-19T14:31:31Z</time>
      </trkpt>
      <trkpt lat="47.93437" lon="-2.52367">
        <ele>33.1</ele>
        <time>2024-12-19T14:31:32Z</time>
      </trkpt>
      <trkpt lat="47.93438" lon="-2.52367">
        <ele>33.2</ele>
        <time>2024-12-19T14:31:33Z</time>
      </trkpt>
      <trkpt lat="47.93439" lon="-2.52369">
        <ele>33.2</ele>
        <time>2024-12-19T14:31:34Z</time>
      </trkpt>
      <trkpt lat="47.9344" lon="-2.5237">
        <ele>33.3</ele>
        <time>2024-12-19T14:31:35Z</time>
      </trkpt>
      <trkpt lat="47.93441" lon="-2.5237">
        <ele>33.3</ele>
        <time>2024-12-19T14:31:36Z</time>
      </trkpt>
      <trkpt lat="47.93442" lon="-2.52372">
        <ele>33.4</ele>
        <time>2024-12-19T14:31:37Z</time>
      </trkpt>
      <trkpt lat="47.93443" lon="-2.52373">
        <ele>33.4</ele>
        <time>2024-12-19T14:31:38Z</time>
      </trkpt>
      <trkpt lat="47.93443" lon="-2.52375">
        <ele>33.4</ele>
        <time>2024-12-19T14:31:39Z</time>
      </trkpt>
      <trkpt lat="47.93444" lon="-2.52377">
        <ele>33.4</ele>
        <time>2024-12-19T14:31:40Z</time>
      </trkpt>
      <trkpt lat="47.93445" lon="-2.52379">
        <ele>33.4</ele>
        <time>2024-12-19T14:31:41Z</time>
      </trkpt>
      <trkpt lat="47.93445" lon="-2.5238">
        <ele>33.4</ele>
        <time>2024-12-19T14:31:42Z</time>
      </trkpt>
      <trkpt lat="47.93446" lon="-2.52381">
        <ele>33.3</ele>
        <time>2024-12-19T14:31:43Z</time>
      </trkpt>
      <trkpt lat="47.93446" lon="-2.52382">
        <ele>33.3</ele>
        <time>2024-12-19T14:31:44Z</time>
      </trkpt>
      <trkpt lat="47.93447" lon="-2.52384">
        <ele>33.3</ele>
        <time>2024-12-19T14:31:45Z</time>
      </trkpt>
      <trkpt lat="47.93448" lon="-2.52386">
        <ele>33.2</ele>
        <time>2024-12-19T14:31:46Z</time>
      </trkpt>
      <trkpt lat="47.93448" lon="-2.52388">
        <ele>33.2</ele>
        <time>2024-12-19T14:31:47Z</time>
      </trkpt>
      <trkpt lat="47.93449" lon="-2.5239">
        <ele>33.1</ele>
        <time>2024-12-19T14:31:48Z</time>
      </trkpt>
      <trkpt lat="47.9345" lon="-2.52393">
        <ele>33.1</ele>
        <time>2024-12-19T14:31:49Z</time>
      </trkpt>
      <trkpt lat="47.9345" lon="-2.52394">
        <ele>33</ele>
        <time>2024-12-19T14:31:50Z</time>
      </trkpt>
      <trkpt lat="47.93451" lon="-2.52396">
        <ele>33</ele>
        <time>2024-12-19T14:31:51Z</time>
      </trkpt>
      <trkpt lat="47.93451" lon="-2.52398">
        <ele>32.9</ele>
        <time>2024-12-19T14:31:52Z</time>
      </trkpt>
      <trkpt lat="47.9345" lon="-2.52401">
        <ele>32.8</ele>
        <time>2024-12-19T14:31:53Z</time>
      </trkpt>
      <trkpt lat="47.93451" lon="-2.52403">
        <ele>32.7</ele>
        <time>2024-12-19T14:31:54Z</time>
      </trkpt>
      <trkpt lat="47.93451" lon="-2.52406">
        <ele>32.6</ele>
        <time>2024-12-19T14:31:55Z</time>
      </trkpt>
      <trkpt lat="47.93452" lon="-2.52408">
        <ele>32.6</ele>
        <time>2024-12-19T14:31:56Z</time>
      </trkpt>
      <trkpt lat="47.93452" lon="-2.5241">
        <ele>32.5</ele>
        <time>2024-12-19T14:31:57Z</time>
      </trkpt>
      <trkpt lat="47.93453" lon="-2.52411">
        <ele>32.5</ele>
        <time>2024-12-19T14:31:58Z</time>
      </trkpt>
      <trkpt lat="47.93453" lon="-2.52413">
        <ele>32.5</ele>
        <time>2024-12-19T14:31:59Z</time>
      </trkpt>
      <trkpt lat="47.93454" lon="-2.52415">
        <ele>32.4</ele>
        <time>2024-12-19T14:32:00Z</time>
      </trkpt>
      <trkpt lat="47.93455" lon="-2.52417">
        <ele>32.4</ele>
        <time>2024-12-19T14:32:01Z</time>
      </trkpt>
      <trkpt lat="47.93456" lon="-2.52419">
        <ele>32.4</ele>
        <time>2024-12-19T14:32:02Z</time>
      </trkpt>
      <trkpt lat="47.93456" lon="-2.52422">
        <ele>32.4</ele>
        <time>2024-12-19T14:32:03Z</time>
      </trkpt>
      <trkpt lat="47.93457" lon="-2.52424">
        <ele>32.4</ele>
        <time>2024-12-19T14:32:04Z</time>
      </trkpt>
      <trkpt lat="47.93457" lon="-2.52426">
        <ele>32.4</ele>
        <time>2024-12-19T14:32:05Z</time>
      </trkpt>
      <trkpt lat="47.93457" lon="-2.52428">
        <ele>32.5</ele>
        <time>2024-12-19T14:32:06Z</time>
      </trkpt>
      <trkpt lat="47.93457" lon="-2.52431">
        <ele>32.5</ele>
        <time>2024-12-19T14:32:07Z</time>
      </trkpt>
      <trkpt lat="47.93458" lon="-2.52433">
        <ele>32.5</ele>
        <time>2024-12-19T14:32:08Z</time>
      </trkpt>
      <trkpt lat="47.93458" lon="-2.52435">
        <ele>32.5</ele>
        <time>2024-12-19T14:32:09Z</time>
      </trkpt>
      <trkpt lat="47.93459" lon="-2.52436">
        <ele>32.5</ele>
        <time>2024-12-19T14:32:10Z</time>
      </trkpt>
      <trkpt lat="47.93459" lon="-2.52438">
        <ele>32.5</ele>
        <time>2024-12-19T14:32:11Z</time>
      </trkpt>
      <trkpt lat="47.9346" lon="-2.5244">
        <ele>32.6</ele>
        <time>2024-12-19T14:32:12Z</time>
      </trkpt>
      <trkpt lat="47.93461" lon="-2.52442">
        <ele>32.6</ele>
        <time>2024-12-19T14:32:13Z</time>
      </trkpt>
      <trkpt lat="47.93461" lon="-2.52444">
        <ele>32.6</ele>
        <time>2024-12-19T14:32:14Z</time>
      </trkpt>
      <trkpt lat="47.93462" lon="-2.52446">
        <ele>32.6</ele>
        <time>2024-12-19T14:32:15Z</time>
      </trkpt>
      <trkpt lat="47.93462" lon="-2.52447">
        <ele>32.7</ele>
        <time>2024-12-19T14:32:16Z</time>
      </trkpt>
      <trkpt lat="47.93462" lon="-2.5245">
        <ele>32.7</ele>
        <time>2024-12-19T14:32:17Z</time>
      </trkpt>
      <trkpt lat="47.93462" lon="-2.52452">
        <ele>32.8</ele>
        <time>2024-12-19T14:32:18Z</time>
      </trkpt>
      <trkpt lat="47.93462" lon="-2.52454">
        <ele>32.8</ele>
        <time>2024-12-19T14:32:19Z</time>
      </trkpt>
      <trkpt lat="47.93462" lon="-2.52457">
        <ele>32.9</ele>
        <time>2024-12-19T14:32:20Z</time>
      </trkpt>
      <trkpt lat="47.93462" lon="-2.52459">
        <ele>33</ele>
        <time>2024-12-19T14:32:21Z</time>
      </trkpt>
      <trkpt lat="47.93462" lon="-2.52461">
        <ele>33</ele>
        <time>2024-12-19T14:32:22Z</time>
      </trkpt>
      <trkpt lat="47.93463" lon="-2.52462">
        <ele>33.1</ele>
        <time>2024-12-19T14:32:23Z</time>
      </trkpt>
      <trkpt lat="47.93463" lon="-2.52464">
        <ele>33.1</ele>
        <time>2024-12-19T14:32:24Z</time>
      </trkpt>
      <trkpt lat="47.93463" lon="-2.52467">
        <ele>33.2</ele>
        <time>2024-12-19T14:32:25Z</time>
      </trkpt>
      <trkpt lat="47.93464" lon="-2.52469">
        <ele>33.3</ele>
        <time>2024-12-19T14:32:26Z</time>
      </trkpt>
      <trkpt lat="47.93464" lon="-2.5247">
        <ele>33.3</ele>
        <time>2024-12-19T14:32:27Z</time>
      </trkpt>
      <trkpt lat="47.93464" lon="-2.52472">
        <ele>33.4</ele>
        <time>2024-12-19T14:32:28Z</time>
      </trkpt>
      <trkpt lat="47.93464" lon="-2.52474">
        <ele>33.5</ele>
        <time>2024-12-19T14:32:29Z</time>
      </trkpt>
      <trkpt lat="47.93464" lon="-2.52476">
        <ele>33.5</ele>
        <time>2024-12-19T14:32:30Z</time>
      </trkpt>
      <trkpt lat="47.93464" lon="-2.52478">
        <ele>33.6</ele>
        <time>2024-12-19T14:32:31Z</time>
      </trkpt>
      <trkpt lat="47.93464" lon="-2.5248">
        <ele>33.6</ele>
        <time>2024-12-19T14:32:32Z</time>
      </trkpt>
      <trkpt lat="47.93464" lon="-2.52482">
        <ele>33.7</ele>
        <time>2024-12-19T14:32:33Z</time>
      </trkpt>
      <trkpt lat="47.93465" lon="-2.52485">
        <ele>33.8</ele>
        <time>2024-12-19T14:32:34Z</time>
      </trkpt>
      <trkpt lat="47.93465" lon="-2.52487">
        <ele>33.9</ele>
        <time>2024-12-19T14:32:35Z</time>
      </trkpt>
      <trkpt lat="47.93465" lon="-2.52489">
        <ele>33.9</ele>
        <time>2024-12-19T14:32:36Z</time>
      </trkpt>
      <trkpt lat="47.93466" lon="-2.52491">
        <ele>34.1</ele>
        <time>2024-12-19T14:32:37Z</time>
      </trkpt>
      <trkpt lat="47.93466" lon="-2.52494">
        <ele>34.1</ele>
        <time>2024-12-19T14:32:38Z</time>
      </trkpt>
      <trkpt lat="47.93466" lon="-2.52494">
        <ele>34.2</ele>
        <time>2024-12-19T14:32:39Z</time>
      </trkpt>
      <trkpt lat="47.93466" lon="-2.52494">
        <ele>34.2</ele>
        <time>2024-12-19T14:32:40Z</time>
      </trkpt>
      <trkpt lat="47.93466" lon="-2.52496">
        <ele>34.2</ele>
        <time>2024-12-19T14:32:41Z</time>
      </trkpt>
      <trkpt lat="47.93466" lon="-2.52498">
        <ele>34.3</ele>
        <time>2024-12-19T14:32:42Z</time>
      </trkpt>
      <trkpt lat="47.93466" lon="-2.52501">
        <ele>34.4</ele>
        <time>2024-12-19T14:32:43Z</time>
      </trkpt>
      <trkpt lat="47.93466" lon="-2.52503">
        <ele>34.4</ele>
        <time>2024-12-19T14:32:44Z</time>
      </trkpt>
      <trkpt lat="47.93466" lon="-2.52505">
        <ele>34.4</ele>
        <time>2024-12-19T14:32:45Z</time>
      </trkpt>
      <trkpt lat="47.93466" lon="-2.52507">
        <ele>34.4</ele>
        <time>2024-12-19T14:32:46Z</time>
      </trkpt>
      <trkpt lat="47.93466" lon="-2.52509">
        <ele>34.3</ele>
        <time>2024-12-19T14:32:47Z</time>
      </trkpt>
      <trkpt lat="47.93466" lon="-2.5251">
        <ele>34.3</ele>
        <time>2024-12-19T14:32:48Z</time>
      </trkpt>
      <trkpt lat="47.93466" lon="-2.52511">
        <ele>34.3</ele>
        <time>2024-12-19T14:32:49Z</time>
      </trkpt>
      <trkpt lat="47.93466" lon="-2.52514">
        <ele>34.4</ele>
        <time>2024-12-19T14:32:50Z</time>
      </trkpt>
      <trkpt lat="47.93467" lon="-2.52515">
        <ele>34.4</ele>
        <time>2024-12-19T14:32:51Z</time>
      </trkpt>
      <trkpt lat="47.93467" lon="-2.52515">
        <ele>34.4</ele>
        <time>2024-12-19T14:32:52Z</time>
      </trkpt>
      <trkpt lat="47.93466" lon="-2.52516">
        <ele>34.4</ele>
        <time>2024-12-19T14:32:53Z</time>
      </trkpt>
      <trkpt lat="47.93466" lon="-2.52519">
        <ele>34.3</ele>
        <time>2024-12-19T14:32:54Z</time>
      </trkpt>
      <trkpt lat="47.93466" lon="-2.52521">
        <ele>34.3</ele>
        <time>2024-12-19T14:32:55Z</time>
      </trkpt>
      <trkpt lat="47.93465" lon="-2.52524">
        <ele>34.3</ele>
        <time>2024-12-19T14:32:56Z</time>
      </trkpt>
      <trkpt lat="47.93465" lon="-2.52526">
        <ele>34.2</ele>
        <time>2024-12-19T14:32:57Z</time>
      </trkpt>
      <trkpt lat="47.93465" lon="-2.52528">
        <ele>34.2</ele>
        <time>2024-12-19T14:32:58Z</time>
      </trkpt>
      <trkpt lat="47.93465" lon="-2.52529">
        <ele>34.2</ele>
        <time>2024-12-19T14:32:59Z</time>
      </trkpt>
      <trkpt lat="47.93466" lon="-2.52531">
        <ele>34.2</ele>
        <time>2024-12-19T14:33:00Z</time>
      </trkpt>
      <trkpt lat="47.93466" lon="-2.52533">
        <ele>34.3</ele>
        <time>2024-12-19T14:33:01Z</time>
      </trkpt>
      <trkpt lat="47.93466" lon="-2.52535">
        <ele>34.2</ele>
        <time>2024-12-19T14:33:02Z</time>
      </trkpt>
      <trkpt lat="47.93466" lon="-2.52537">
        <ele>34.2</ele>
        <time>2024-12-19T14:33:03Z</time>
      </trkpt>
      <trkpt lat="47.93466" lon="-2.52539">
        <ele>34.2</ele>
        <time>2024-12-19T14:33:04Z</time>
      </trkpt>
      <trkpt lat="47.93466" lon="-2.52541">
        <ele>34.2</ele>
        <time>2024-12-19T14:33:05Z</time>
      </trkpt>
      <trkpt lat="47.93466" lon="-2.52543">
        <ele>34.2</ele>
        <time>2024-12-19T14:33:06Z</time>
      </trkpt>
      <trkpt lat="47.93466" lon="-2.52545">
        <ele>34.1</ele>
        <time>2024-12-19T14:33:07Z</time>
      </trkpt>
      <trkpt lat="47.93465" lon="-2.52546">
        <ele>34.1</ele>
        <time>2024-12-19T14:33:08Z</time>
      </trkpt>
      <trkpt lat="47.93465" lon="-2.52547">
        <ele>34.1</ele>
        <time>2024-12-19T14:33:09Z</time>
      </trkpt>
      <trkpt lat="47.93465" lon="-2.52547">
        <ele>34.1</ele>
        <time>2024-12-19T14:33:10Z</time>
      </trkpt>
      <trkpt lat="47.93466" lon="-2.52548">
        <ele>34.1</ele>
        <time>2024-12-19T14:33:11Z</time>
      </trkpt>
      <trkpt lat="47.93466" lon="-2.52548">
        <ele>34.1</ele>
        <time>2024-12-19T14:33:12Z</time>
      </trkpt>
      <trkpt lat="47.93466" lon="-2.52549">
        <ele>34.1</ele>
        <time>2024-12-19T14:33:13Z</time>
      </trkpt>
      <trkpt lat="47.93466" lon="-2.5255">
        <ele>34.1</ele>
        <time>2024-12-19T14:33:14Z</time>
      </trkpt>
      <trkpt lat="47.93466" lon="-2.52552">
        <ele>34.1</ele>
        <time>2024-12-19T14:33:15Z</time>
      </trkpt>
      <trkpt lat="47.93466" lon="-2.52554">
        <ele>34.1</ele>
        <time>2024-12-19T14:33:16Z</time>
      </trkpt>
      <trkpt lat="47.93466" lon="-2.52555">
        <ele>34</ele>
        <time>2024-12-19T14:33:17Z</time>
      </trkpt>
      <trkpt lat="47.93465" lon="-2.52557">
        <ele>34</ele>
        <time>2024-12-19T14:33:18Z</time>
      </trkpt>
      <trkpt lat="47.93465" lon="-2.52559">
        <ele>33.9</ele>
        <time>2024-12-19T14:33:19Z</time>
      </trkpt>
      <trkpt lat="47.93465" lon="-2.5256">
        <ele>33.8</ele>
        <time>2024-12-19T14:33:20Z</time>
      </trkpt>
      <trkpt lat="47.93465" lon="-2.52562">
        <ele>33.7</ele>
        <time>2024-12-19T14:33:21Z</time>
      </trkpt>
      <trkpt lat="47.93465" lon="-2.52564">
        <ele>33.7</ele>
        <time>2024-12-19T14:33:22Z</time>
      </trkpt>
      <trkpt lat="47.93465" lon="-2.52565">
        <ele>33.7</ele>
        <time>2024-12-19T14:33:23Z</time>
      </trkpt>
      <trkpt lat="47.93465" lon="-2.52567">
        <ele>33.6</ele>
        <time>2024-12-19T14:33:24Z</time>
      </trkpt>
      <trkpt lat="47.93465" lon="-2.52569">
        <ele>33.6</ele>
        <time>2024-12-19T14:33:25Z</time>
      </trkpt>
      <trkpt lat="47.93465" lon="-2.52571">
        <ele>33.5</ele>
        <time>2024-12-19T14:33:26Z</time>
      </trkpt>
      <trkpt lat="47.93465" lon="-2.52573">
        <ele>33.5</ele>
        <time>2024-12-19T14:33:27Z</time>
      </trkpt>
      <trkpt lat="47.93464" lon="-2.52575">
        <ele>33.4</ele>
        <time>2024-12-19T14:33:28Z</time>
      </trkpt>
      <trkpt lat="47.93464" lon="-2.52577">
        <ele>33.3</ele>
        <time>2024-12-19T14:33:29Z</time>
      </trkpt>
      <trkpt lat="47.93464" lon="-2.52579">
        <ele>33.2</ele>
        <time>2024-12-19T14:33:30Z</time>
      </trkpt>
      <trkpt lat="47.93464" lon="-2.52581">
        <ele>33.2</ele>
        <time>2024-12-19T14:33:31Z</time>
      </trkpt>
      <trkpt lat="47.93464" lon="-2.52583">
        <ele>33.1</ele>
        <time>2024-12-19T14:33:32Z</time>
      </trkpt>
      <trkpt lat="47.93464" lon="-2.52584">
        <ele>33.1</ele>
        <time>2024-12-19T14:33:33Z</time>
      </trkpt>
      <trkpt lat="47.93464" lon="-2.52585">
        <ele>33.2</ele>
        <time>2024-12-19T14:33:34Z</time>
      </trkpt>
      <trkpt lat="47.93464" lon="-2.52586">
        <ele>33.2</ele>
        <time>2024-12-19T14:33:35Z</time>
      </trkpt>
      <trkpt lat="47.93464" lon="-2.52588">
        <ele>33.3</ele>
        <time>2024-12-19T14:33:36Z</time>
      </trkpt>
      <trkpt lat="47.93465" lon="-2.52589">
        <ele>33.3</ele>
        <time>2024-12-19T14:33:37Z</time>
      </trkpt>
      <trkpt lat="47.93465" lon="-2.52591">
        <ele>33.4</ele>
        <time>2024-12-19T14:33:38Z</time>
      </trkpt>
      <trkpt lat="47.93465" lon="-2.52593">
        <ele>33.5</ele>
        <time>2024-12-19T14:33:39Z</time>
      </trkpt>
      <trkpt lat="47.93465" lon="-2.52594">
        <ele>33.5</ele>
        <time>2024-12-19T14:33:40Z</time>
      </trkpt>
      <trkpt lat="47.93465" lon="-2.52596">
        <ele>33.6</ele>
        <time>2024-12-19T14:33:41Z</time>
      </trkpt>
      <trkpt lat="47.93465" lon="-2.52598">
        <ele>33.6</ele>
        <time>2024-12-19T14:33:42Z</time>
      </trkpt>
      <trkpt lat="47.93465" lon="-2.526">
        <ele>33.6</ele>
        <time>2024-12-19T14:33:43Z</time>
      </trkpt>
      <trkpt lat="47.93465" lon="-2.52602">
        <ele>33.6</ele>
        <time>2024-12-19T14:33:44Z</time>
      </trkpt>
      <trkpt lat="47.93464" lon="-2.52604">
        <ele>33.6</ele>
        <time>2024-12-19T14:33:45Z</time>
      </trkpt>
      <trkpt lat="47.93464" lon="-2.52607">
        <ele>33.6</ele>
        <time>2024-12-19T14:33:46Z</time>
      </trkpt>
      <trkpt lat="47.93463" lon="-2.52609">
        <ele>33.6</ele>
        <time>2024-12-19T14:33:47Z</time>
      </trkpt>
      <trkpt lat="47.93463" lon="-2.52611">
        <ele>33.7</ele>
        <time>2024-12-19T14:33:48Z</time>
      </trkpt>
      <trkpt lat="47.93463" lon="-2.52613">
        <ele>33.7</ele>
        <time>2024-12-19T14:33:49Z</time>
      </trkpt>
      <trkpt lat="47.93463" lon="-2.52615">
        <ele>33.6</ele>
        <time>2024-12-19T14:33:50Z</time>
      </trkpt>
      <trkpt lat="47.93463" lon="-2.52617">
        <ele>33.7</ele>
        <time>2024-12-19T14:33:51Z</time>
      </trkpt>
      <trkpt lat="47.93463" lon="-2.52619">
        <ele>33.6</ele>
        <time>2024-12-19T14:33:52Z</time>
      </trkpt>
      <trkpt lat="47.93463" lon="-2.52622">
        <ele>33.6</ele>
        <time>2024-12-19T14:33:53Z</time>
      </trkpt>
      <trkpt lat="47.93463" lon="-2.52624">
        <ele>33.6</ele>
        <time>2024-12-19T14:33:54Z</time>
      </trkpt>
      <trkpt lat="47.93463" lon="-2.52626">
        <ele>33.6</ele>
        <time>2024-12-19T14:33:55Z</time>
      </trkpt>
      <trkpt lat="47.93462" lon="-2.52628">
        <ele>33.6</ele>
        <time>2024-12-19T14:33:56Z</time>
      </trkpt>
      <trkpt lat="47.93462" lon="-2.52629">
        <ele>33.5</ele>
        <time>2024-12-19T14:33:57Z</time>
      </trkpt>
      <trkpt lat="47.93462" lon="-2.52631">
        <ele>33.5</ele>
        <time>2024-12-19T14:33:58Z</time>
      </trkpt>
      <trkpt lat="47.93462" lon="-2.52632">
        <ele>33.5</ele>
        <time>2024-12-19T14:33:59Z</time>
      </trkpt>
      <trkpt lat="47.93462" lon="-2.52633">
        <ele>33.5</ele>
        <time>2024-12-19T14:34:00Z</time>
      </trkpt>
      <trkpt lat="47.93462" lon="-2.52634">
        <ele>33.5</ele>
        <time>2024-12-19T14:34:01Z</time>
      </trkpt>
      <trkpt lat="47.93462" lon="-2.52636">
        <ele>33.5</ele>
        <time>2024-12-19T14:34:02Z</time>
      </trkpt>
      <trkpt lat="47.93462" lon="-2.52637">
        <ele>33.6</ele>
        <time>2024-12-19T14:34:03Z</time>
      </trkpt>
      <trkpt lat="47.93463" lon="-2.52639">
        <ele>33.6</ele>
        <time>2024-12-19T14:34:04Z</time>
      </trkpt>
      <trkpt lat="47.93463" lon="-2.52641">
        <ele>33.7</ele>
        <time>2024-12-19T14:34:05Z</time>
      </trkpt>
      <trkpt lat="47.93463" lon="-2.52642">
        <ele>33.7</ele>
        <time>2024-12-19T14:34:06Z</time>
      </trkpt>
      <trkpt lat="47.93463" lon="-2.52644">
        <ele>33.7</ele>
        <time>2024-12-19T14:34:07Z</time>
      </trkpt>
      <trkpt lat="47.93463" lon="-2.52646">
        <ele>33.7</ele>
        <time>2024-12-19T14:34:08Z</time>
      </trkpt>
      <trkpt lat="47.93463" lon="-2.52648">
        <ele>33.6</ele>
        <time>2024-12-19T14:34:09Z</time>
      </trkpt>
      <trkpt lat="47.93462" lon="-2.5265">
        <ele>33.6</ele>
        <time>2024-12-19T14:34:10Z</time>
      </trkpt>
      <trkpt lat="47.93462" lon="-2.52652">
        <ele>33.6</ele>
        <time>2024-12-19T14:34:11Z</time>
      </trkpt>
      <trkpt lat="47.93462" lon="-2.52653">
        <ele>33.6</ele>
        <time>2024-12-19T14:34:12Z</time>
      </trkpt>
      <trkpt lat="47.93462" lon="-2.52656">
        <ele>33.6</ele>
        <time>2024-12-19T14:34:13Z</time>
      </trkpt>
      <trkpt lat="47.93463" lon="-2.52658">
        <ele>33.6</ele>
        <time>2024-12-19T14:34:14Z</time>
      </trkpt>
      <trkpt lat="47.93463" lon="-2.52659">
        <ele>33.7</ele>
        <time>2024-12-19T14:34:15Z</time>
      </trkpt>
      <trkpt lat="47.93463" lon="-2.52661">
        <ele>33.7</ele>
        <time>2024-12-19T14:34:16Z</time>
      </trkpt>
      <trkpt lat="47.93464" lon="-2.52661">
        <ele>33.8</ele>
        <time>2024-12-19T14:34:17Z</time>
      </trkpt>
      <trkpt lat="47.93464" lon="-2.52661">
        <ele>33.8</ele>
        <time>2024-12-19T14:34:18Z</time>
      </trkpt>
      <trkpt lat="47.93464" lon="-2.52661">
        <ele>33.8</ele>
        <time>2024-12-19T14:34:19Z</time>
      </trkpt>
      <trkpt lat="47.93464" lon="-2.52661">
        <ele>33.8</ele>
        <time>2024-12-19T14:34:20Z</time>
      </trkpt>
      <trkpt lat="47.93464" lon="-2.52663">
        <ele>33.8</ele>
        <time>2024-12-19T14:34:21Z</time>
      </trkpt>
      <trkpt lat="47.93464" lon="-2.52665">
        <ele>33.8</ele>
        <time>2024-12-19T14:34:22Z</time>
      </trkpt>
      <trkpt lat="47.93464" lon="-2.52668">
        <ele>33.8</ele>
        <time>2024-12-19T14:34:23Z</time>
      </trkpt>
      <trkpt lat="47.93464" lon="-2.5267">
        <ele>33.8</ele>
        <time>2024-12-19T14:34:24Z</time>
      </trkpt>
      <trkpt lat="47.93464" lon="-2.52672">
        <ele>33.7</ele>
        <time>2024-12-19T14:34:25Z</time>
      </trkpt>
      <trkpt lat="47.93464" lon="-2.52675">
        <ele>33.8</ele>
        <time>2024-12-19T14:34:26Z</time>
      </trkpt>
      <trkpt lat="47.93464" lon="-2.52677">
        <ele>33.8</ele>
        <time>2024-12-19T14:34:27Z</time>
      </trkpt>
      <trkpt lat="47.93465" lon="-2.52679">
        <ele>33.9</ele>
        <time>2024-12-19T14:34:28Z</time>
      </trkpt>
      <trkpt lat="47.93465" lon="-2.52681">
        <ele>33.9</ele>
        <time>2024-12-19T14:34:29Z</time>
      </trkpt>
      <trkpt lat="47.93465" lon="-2.52684">
        <ele>33.9</ele>
        <time>2024-12-19T14:34:30Z</time>
      </trkpt>
      <trkpt lat="47.93465" lon="-2.52686">
        <ele>33.9</ele>
        <time>2024-12-19T14:34:31Z</time>
      </trkpt>
      <trkpt lat="47.93465" lon="-2.52688">
        <ele>33.9</ele>
        <time>2024-12-19T14:34:32Z</time>
      </trkpt>
      <trkpt lat="47.93465" lon="-2.5269">
        <ele>33.9</ele>
        <time>2024-12-19T14:34:33Z</time>
      </trkpt>
      <trkpt lat="47.93465" lon="-2.52692">
        <ele>34</ele>
        <time>2024-12-19T14:34:34Z</time>
      </trkpt>
      <trkpt lat="47.93465" lon="-2.52694">
        <ele>34</ele>
        <time>2024-12-19T14:34:35Z</time>
      </trkpt>
      <trkpt lat="47.93465" lon="-2.52697">
        <ele>34</ele>
        <time>2024-12-19T14:34:36Z</time>
      </trkpt>
      <trkpt lat="47.93465" lon="-2.52699">
        <ele>34</ele>
        <time>2024-12-19T14:34:37Z</time>
      </trkpt>
      <trkpt lat="47.93465" lon="-2.52702">
        <ele>34</ele>
        <time>2024-12-19T14:34:38Z</time>
      </trkpt>
      <trkpt lat="47.93465" lon="-2.52704">
        <ele>33.9</ele>
        <time>2024-12-19T14:34:39Z</time>
      </trkpt>
      <trkpt lat="47.93465" lon="-2.52706">
        <ele>34</ele>
        <time>2024-12-19T14:34:40Z</time>
      </trkpt>
      <trkpt lat="47.93465" lon="-2.52708">
        <ele>34</ele>
        <time>2024-12-19T14:34:41Z</time>
      </trkpt>
      <trkpt lat="47.93465" lon="-2.52709">
        <ele>34</ele>
        <time>2024-12-19T14:34:42Z</time>
      </trkpt>
      <trkpt lat="47.93466" lon="-2.52708">
        <ele>34</ele>
        <time>2024-12-19T14:34:43Z</time>
      </trkpt>
      <trkpt lat="47.93466" lon="-2.52709">
        <ele>34</ele>
        <time>2024-12-19T14:34:44Z</time>
      </trkpt>
      <trkpt lat="47.93466" lon="-2.52709">
        <ele>34.1</ele>
        <time>2024-12-19T14:34:45Z</time>
      </trkpt>
      <trkpt lat="47.93466" lon="-2.52709">
        <ele>34.1</ele>
        <time>2024-12-19T14:34:46Z</time>
      </trkpt>
      <trkpt lat="47.93466" lon="-2.52711">
        <ele>34.1</ele>
        <time>2024-12-19T14:34:47Z</time>
      </trkpt>
      <trkpt lat="47.93466" lon="-2.52713">
        <ele>34.1</ele>
        <time>2024-12-19T14:34:48Z</time>
      </trkpt>
      <trkpt lat="47.93466" lon="-2.52715">
        <ele>34.1</ele>
        <time>2024-12-19T14:34:49Z</time>
      </trkpt>
      <trkpt lat="47.93466" lon="-2.52716">
        <ele>34</ele>
        <time>2024-12-19T14:34:50Z</time>
      </trkpt>
      <trkpt lat="47.93466" lon="-2.52717">
        <ele>34</ele>
        <time>2024-12-19T14:34:51Z</time>
      </trkpt>
      <trkpt lat="47.93466" lon="-2.52719">
        <ele>34</ele>
        <time>2024-12-19T14:34:52Z</time>
      </trkpt>
      <trkpt lat="47.93465" lon="-2.52721">
        <ele>34</ele>
        <time>2024-12-19T14:34:53Z</time>
      </trkpt>
      <trkpt lat="47.93465" lon="-2.52721">
        <ele>34</ele>
        <time>2024-12-19T14:34:54Z</time>
      </trkpt>
      <trkpt lat="47.93465" lon="-2.52721">
        <ele>34</ele>
        <time>2024-12-19T14:34:55Z</time>
      </trkpt>
      <trkpt lat="47.93465" lon="-2.52722">
        <ele>34</ele>
        <time>2024-12-19T14:34:56Z</time>
      </trkpt>
      <trkpt lat="47.93465" lon="-2.52722">
        <ele>34</ele>
        <time>2024-12-19T14:34:57Z</time>
      </trkpt>
      <trkpt lat="47.93465" lon="-2.52724">
        <ele>33.9</ele>
        <time>2024-12-19T14:34:58Z</time>
      </trkpt>
      <trkpt lat="47.93465" lon="-2.52727">
        <ele>33.9</ele>
        <time>2024-12-19T14:34:59Z</time>
      </trkpt>
      <trkpt lat="47.93465" lon="-2.52729">
        <ele>33.8</ele>
        <time>2024-12-19T14:35:00Z</time>
      </trkpt>
      <trkpt lat="47.93465" lon="-2.52731">
        <ele>33.8</ele>
        <time>2024-12-19T14:35:01Z</time>
      </trkpt>
      <trkpt lat="47.93465" lon="-2.52734">
        <ele>33.8</ele>
        <time>2024-12-19T14:35:02Z</time>
      </trkpt>
      <trkpt lat="47.93465" lon="-2.52737">
        <ele>33.7</ele>
        <time>2024-12-19T14:35:03Z</time>
      </trkpt>
      <trkpt lat="47.93465" lon="-2.5274">
        <ele>33.7</ele>
        <time>2024-12-19T14:35:04Z</time>
      </trkpt>
      <trkpt lat="47.93465" lon="-2.52742">
        <ele>33.6</ele>
        <time>2024-12-19T14:35:05Z</time>
      </trkpt>
      <trkpt lat="47.93466" lon="-2.52744">
        <ele>33.7</ele>
        <time>2024-12-19T14:35:06Z</time>
      </trkpt>
      <trkpt lat="47.93466" lon="-2.52744">
        <ele>33.7</ele>
        <time>2024-12-19T14:35:07Z</time>
      </trkpt>
      <trkpt lat="47.93466" lon="-2.52746">
        <ele>33.6</ele>
        <time>2024-12-19T14:35:08Z</time>
      </trkpt>
      <trkpt lat="47.93466" lon="-2.52748">
        <ele>33.6</ele>
        <time>2024-12-19T14:35:09Z</time>
      </trkpt>
      <trkpt lat="47.93466" lon="-2.52751">
        <ele>33.5</ele>
        <time>2024-12-19T14:35:10Z</time>
      </trkpt>
      <trkpt lat="47.93466" lon="-2.52754">
        <ele>33.5</ele>
        <time>2024-12-19T14:35:11Z</time>
      </trkpt>
      <trkpt lat="47.93466" lon="-2.52756">
        <ele>33.5</ele>
        <time>2024-12-19T14:35:12Z</time>
      </trkpt>
      <trkpt lat="47.93466" lon="-2.52758">
        <ele>33.5</ele>
        <time>2024-12-19T14:35:13Z</time>
      </trkpt>
      <trkpt lat="47.93466" lon="-2.52761">
        <ele>33.5</ele>
        <time>2024-12-19T14:35:14Z</time>
      </trkpt>
      <trkpt lat="47.93466" lon="-2.52763">
        <ele>33.6</ele>
        <time>2024-12-19T14:35:15Z</time>
      </trkpt>
      <trkpt lat="47.93467" lon="-2.52766">
        <ele>33.6</ele>
        <time>2024-12-19T14:35:16Z</time>
      </trkpt>
      <trkpt lat="47.93467" lon="-2.52768">
        <ele>33.6</ele>
        <time>2024-12-19T14:35:17Z</time>
      </trkpt>
      <trkpt lat="47.93467" lon="-2.5277">
        <ele>33.6</ele>
        <time>2024-12-19T14:35:18Z</time>
      </trkpt>
      <trkpt lat="47.93467" lon="-2.52773">
        <ele>33.6</ele>
        <time>2024-12-19T14:35:19Z</time>
      </trkpt>
      <trkpt lat="47.93467" lon="-2.52775">
        <ele>33.6</ele>
        <time>2024-12-19T14:35:20Z</time>
      </trkpt>
      <trkpt lat="47.93467" lon="-2.52777">
        <ele>33.6</ele>
        <time>2024-12-19T14:35:21Z</time>
      </trkpt>
      <trkpt lat="47.93466" lon="-2.52779">
        <ele>33.6</ele>
        <time>2024-12-19T14:35:22Z</time>
      </trkpt>
      <trkpt lat="47.93466" lon="-2.52781">
        <ele>33.5</ele>
        <time>2024-12-19T14:35:23Z</time>
      </trkpt>
      <trkpt lat="47.93466" lon="-2.52783">
        <ele>33.5</ele>
        <time>2024-12-19T14:35:24Z</time>
      </trkpt>
      <trkpt lat="47.93466" lon="-2.52785">
        <ele>33.5</ele>
        <time>2024-12-19T14:35:25Z</time>
      </trkpt>
      <trkpt lat="47.93466" lon="-2.52787">
        <ele>33.5</ele>
        <time>2024-12-19T14:35:26Z</time>
      </trkpt>
      <trkpt lat="47.93466" lon="-2.52788">
        <ele>33.6</ele>
        <time>2024-12-19T14:35:27Z</time>
      </trkpt>
      <trkpt lat="47.93466" lon="-2.5279">
        <ele>33.6</ele>
        <time>2024-12-19T14:35:28Z</time>
      </trkpt>
      <trkpt lat="47.93466" lon="-2.52793">
        <ele>33.6</ele>
        <time>2024-12-19T14:35:29Z</time>
      </trkpt>
      <trkpt lat="47.93466" lon="-2.52794">
        <ele>33.6</ele>
        <time>2024-12-19T14:35:30Z</time>
      </trkpt>
      <trkpt lat="47.93466" lon="-2.52796">
        <ele>33.6</ele>
        <time>2024-12-19T14:35:31Z</time>
      </trkpt>
      <trkpt lat="47.93466" lon="-2.52798">
        <ele>33.6</ele>
        <time>2024-12-19T14:35:32Z</time>
      </trkpt>
      <trkpt lat="47.93466" lon="-2.528">
        <ele>33.6</ele>
        <time>2024-12-19T14:35:33Z</time>
      </trkpt>
      <trkpt lat="47.93466" lon="-2.52802">
        <ele>33.6</ele>
        <time>2024-12-19T14:35:34Z</time>
      </trkpt>
      <trkpt lat="47.93466" lon="-2.52803">
        <ele>33.6</ele>
        <time>2024-12-19T14:35:35Z</time>
      </trkpt>
      <trkpt lat="47.93467" lon="-2.52805">
        <ele>33.6</ele>
        <time>2024-12-19T14:35:36Z</time>
      </trkpt>
      <trkpt lat="47.93467" lon="-2.52807">
        <ele>33.6</ele>
        <time>2024-12-19T14:35:37Z</time>
      </trkpt>
      <trkpt lat="47.93467" lon="-2.52809">
        <ele>33.6</ele>
        <time>2024-12-19T14:35:38Z</time>
      </trkpt>
      <trkpt lat="47.93467" lon="-2.52811">
        <ele>33.6</ele>
        <time>2024-12-19T14:35:39Z</time>
      </trkpt>
      <trkpt lat="47.93467" lon="-2.52813">
        <ele>33.7</ele>
        <time>2024-12-19T14:35:40Z</time>
      </trkpt>
      <trkpt lat="47.93468" lon="-2.52815">
        <ele>33.7</ele>
        <time>2024-12-19T14:35:41Z</time>
      </trkpt>
      <trkpt lat="47.93468" lon="-2.52817">
        <ele>33.7</ele>
        <time>2024-12-19T14:35:42Z</time>
      </trkpt>
      <trkpt lat="47.93468" lon="-2.52819">
        <ele>33.7</ele>
        <time>2024-12-19T14:35:43Z</time>
      </trkpt>
      <trkpt lat="47.93469" lon="-2.52821">
        <ele>33.7</ele>
        <time>2024-12-19T14:35:44Z</time>
      </trkpt>
      <trkpt lat="47.93469" lon="-2.52823">
        <ele>33.8</ele>
        <time>2024-12-19T14:35:45Z</time>
      </trkpt>
      <trkpt lat="47.9347" lon="-2.52825">
        <ele>33.8</ele>
        <time>2024-12-19T14:35:46Z</time>
      </trkpt>
      <trkpt lat="47.9347" lon="-2.52827">
        <ele>33.9</ele>
        <time>2024-12-19T14:35:47Z</time>
      </trkpt>
      <trkpt lat="47.93471" lon="-2.52829">
        <ele>33.9</ele>
        <time>2024-12-19T14:35:48Z</time>
      </trkpt>
      <trkpt lat="47.93471" lon="-2.52831">
        <ele>33.9</ele>
        <time>2024-12-19T14:35:49Z</time>
      </trkpt>
      <trkpt lat="47.93472" lon="-2.52832">
        <ele>34</ele>
        <time>2024-12-19T14:35:50Z</time>
      </trkpt>
      <trkpt lat="47.93472" lon="-2.52832">
        <ele>34</ele>
        <time>2024-12-19T14:35:51Z</time>
      </trkpt>
      <trkpt lat="47.93472" lon="-2.52832">
        <ele>34</ele>
        <time>2024-12-19T14:35:52Z</time>
      </trkpt>
      <trkpt lat="47.93472" lon="-2.52833">
        <ele>34</ele>
        <time>2024-12-19T14:35:53Z</time>
      </trkpt>
      <trkpt lat="47.93472" lon="-2.52836">
        <ele>33.9</ele>
        <time>2024-12-19T14:35:54Z</time>
      </trkpt>
      <trkpt lat="47.93472" lon="-2.52838">
        <ele>33.9</ele>
        <time>2024-12-19T14:35:55Z</time>
      </trkpt>
      <trkpt lat="47.93472" lon="-2.52839">
        <ele>33.8</ele>
        <time>2024-12-19T14:35:56Z</time>
      </trkpt>
      <trkpt lat="47.93473" lon="-2.52841">
        <ele>33.7</ele>
        <time>2024-12-19T14:35:57Z</time>
      </trkpt>
      <trkpt lat="47.93473" lon="-2.52843">
        <ele>33.7</ele>
        <time>2024-12-19T14:35:58Z</time>
      </trkpt>
      <trkpt lat="47.93473" lon="-2.52845">
        <ele>33.7</ele>
        <time>2024-12-19T14:35:59Z</time>
      </trkpt>
      <trkpt lat="47.93474" lon="-2.52847">
        <ele>33.6</ele>
        <time>2024-12-19T14:36:00Z</time>
      </trkpt>
      <trkpt lat="47.93474" lon="-2.52849">
        <ele>33.6</ele>
        <time>2024-12-19T14:36:01Z</time>
      </trkpt>
      <trkpt lat="47.93475" lon="-2.52852">
        <ele>33.6</ele>
        <time>2024-12-19T14:36:02Z</time>
      </trkpt>
      <trkpt lat="47.93475" lon="-2.52854">
        <ele>33.6</ele>
        <time>2024-12-19T14:36:03Z</time>
      </trkpt>
      <trkpt lat="47.93476" lon="-2.52856">
        <ele>33.5</ele>
        <time>2024-12-19T14:36:04Z</time>
      </trkpt>
      <trkpt lat="47.93476" lon="-2.52859">
        <ele>33.5</ele>
        <time>2024-12-19T14:36:05Z</time>
      </trkpt>
      <trkpt lat="47.93476" lon="-2.52861">
        <ele>33.4</ele>
        <time>2024-12-19T14:36:06Z</time>
      </trkpt>
      <trkpt lat="47.93476" lon="-2.52864">
        <ele>33.5</ele>
        <time>2024-12-19T14:36:07Z</time>
      </trkpt>
      <trkpt lat="47.93476" lon="-2.52865">
        <ele>33.5</ele>
        <time>2024-12-19T14:36:08Z</time>
      </trkpt>
      <trkpt lat="47.93476" lon="-2.52867">
        <ele>33.6</ele>
        <time>2024-12-19T14:36:09Z</time>
      </trkpt>
      <trkpt lat="47.93477" lon="-2.52868">
        <ele>33.7</ele>
        <time>2024-12-19T14:36:10Z</time>
      </trkpt>
      <trkpt lat="47.93477" lon="-2.5287">
        <ele>33.8</ele>
        <time>2024-12-19T14:36:11Z</time>
      </trkpt>
      <trkpt lat="47.93478" lon="-2.5287">
        <ele>33.9</ele>
        <time>2024-12-19T14:36:12Z</time>
      </trkpt>
      <trkpt lat="47.93478" lon="-2.5287">
        <ele>33.9</ele>
        <time>2024-12-19T14:36:13Z</time>
      </trkpt>
      <trkpt lat="47.93478" lon="-2.52872">
        <ele>33.9</ele>
        <time>2024-12-19T14:36:14Z</time>
      </trkpt>
      <trkpt lat="47.93478" lon="-2.52873">
        <ele>34</ele>
        <time>2024-12-19T14:36:15Z</time>
      </trkpt>
      <trkpt lat="47.93479" lon="-2.52874">
        <ele>34.1</ele>
        <time>2024-12-19T14:36:16Z</time>
      </trkpt>
      <trkpt lat="47.93479" lon="-2.52876">
        <ele>34.1</ele>
        <time>2024-12-19T14:36:17Z</time>
      </trkpt>
      <trkpt lat="47.93479" lon="-2.52878">
        <ele>34.2</ele>
        <time>2024-12-19T14:36:18Z</time>
      </trkpt>
      <trkpt lat="47.9348" lon="-2.52879">
        <ele>34.3</ele>
        <time>2024-12-19T14:36:19Z</time>
      </trkpt>
      <trkpt lat="47.9348" lon="-2.5288">
        <ele>34.3</ele>
        <time>2024-12-19T14:36:20Z</time>
      </trkpt>
      <trkpt lat="47.9348" lon="-2.52882">
        <ele>34.4</ele>
        <time>2024-12-19T14:36:21Z</time>
      </trkpt>
      <trkpt lat="47.9348" lon="-2.52883">
        <ele>34.4</ele>
        <time>2024-12-19T14:36:22Z</time>
      </trkpt>
      <trkpt lat="47.9348" lon="-2.52884">
        <ele>34.5</ele>
        <time>2024-12-19T14:36:23Z</time>
      </trkpt>
      <trkpt lat="47.93481" lon="-2.52886">
        <ele>34.5</ele>
        <time>2024-12-19T14:36:24Z</time>
      </trkpt>
      <trkpt lat="47.93481" lon="-2.52889">
        <ele>34.6</ele>
        <time>2024-12-19T14:36:25Z</time>
      </trkpt>
      <trkpt lat="47.93481" lon="-2.52891">
        <ele>34.6</ele>
        <time>2024-12-19T14:36:26Z</time>
      </trkpt>
      <trkpt lat="47.93481" lon="-2.52893">
        <ele>34.6</ele>
        <time>2024-12-19T14:36:27Z</time>
      </trkpt>
      <trkpt lat="47.93481" lon="-2.52894">
        <ele>34.6</ele>
        <time>2024-12-19T14:36:28Z</time>
      </trkpt>
      <trkpt lat="47.93481" lon="-2.52895">
        <ele>34.6</ele>
        <time>2024-12-19T14:36:29Z</time>
      </trkpt>
      <trkpt lat="47.93481" lon="-2.52896">
        <ele>34.6</ele>
        <time>2024-12-19T14:36:30Z</time>
      </trkpt>
      <trkpt lat="47.93481" lon="-2.52898">
        <ele>34.5</ele>
        <time>2024-12-19T14:36:31Z</time>
      </trkpt>
      <trkpt lat="47.93481" lon="-2.52899">
        <ele>34.5</ele>
        <time>2024-12-19T14:36:32Z</time>
      </trkpt>
      <trkpt lat="47.93482" lon="-2.52899">
        <ele>34.5</ele>
        <time>2024-12-19T14:36:33Z</time>
      </trkpt>
      <trkpt lat="47.93481" lon="-2.529">
        <ele>34.5</ele>
        <time>2024-12-19T14:36:34Z</time>
      </trkpt>
      <trkpt lat="47.93482" lon="-2.52901">
        <ele>34.5</ele>
        <time>2024-12-19T14:36:35Z</time>
      </trkpt>
      <trkpt lat="47.93482" lon="-2.52902">
        <ele>34.5</ele>
        <time>2024-12-19T14:36:36Z</time>
      </trkpt>
      <trkpt lat="47.93482" lon="-2.52903">
        <ele>34.5</ele>
        <time>2024-12-19T14:36:37Z</time>
      </trkpt>
      <trkpt lat="47.93483" lon="-2.52905">
        <ele>34.6</ele>
        <time>2024-12-19T14:36:38Z</time>
      </trkpt>
      <trkpt lat="47.93483" lon="-2.52906">
        <ele>34.5</ele>
        <time>2024-12-19T14:36:39Z</time>
      </trkpt>
      <trkpt lat="47.93483" lon="-2.52909">
        <ele>34.5</ele>
        <time>2024-12-19T14:36:40Z</time>
      </trkpt>
      <trkpt lat="47.93483" lon="-2.52911">
        <ele>34.4</ele>
        <time>2024-12-19T14:36:41Z</time>
      </trkpt>
      <trkpt lat="47.93483" lon="-2.52912">
        <ele>34.4</ele>
        <time>2024-12-19T14:36:42Z</time>
      </trkpt>
      <trkpt lat="47.93483" lon="-2.52914">
        <ele>34.4</ele>
        <time>2024-12-19T14:36:43Z</time>
      </trkpt>
      <trkpt lat="47.93483" lon="-2.52915">
        <ele>34.4</ele>
        <time>2024-12-19T14:36:44Z</time>
      </trkpt>
      <trkpt lat="47.93484" lon="-2.52917">
        <ele>34.4</ele>
        <time>2024-12-19T14:36:45Z</time>
      </trkpt>
      <trkpt lat="47.93484" lon="-2.52919">
        <ele>34.4</ele>
        <time>2024-12-19T14:36:46Z</time>
      </trkpt>
      <trkpt lat="47.93484" lon="-2.52921">
        <ele>34.4</ele>
        <time>2024-12-19T14:36:47Z</time>
      </trkpt>
      <trkpt lat="47.93484" lon="-2.52923">
        <ele>34.3</ele>
        <time>2024-12-19T14:36:48Z</time>
      </trkpt>
      <trkpt lat="47.93484" lon="-2.52925">
        <ele>34.3</ele>
        <time>2024-12-19T14:36:49Z</time>
      </trkpt>
      <trkpt lat="47.93484" lon="-2.52927">
        <ele>34.2</ele>
        <time>2024-12-19T14:36:50Z</time>
      </trkpt>
      <trkpt lat="47.93484" lon="-2.52928">
        <ele>34.2</ele>
        <time>2024-12-19T14:36:51Z</time>
      </trkpt>
      <trkpt lat="47.93483" lon="-2.52929">
        <ele>34.1</ele>
        <time>2024-12-19T14:36:52Z</time>
      </trkpt>
      <trkpt lat="47.93484" lon="-2.5293">
        <ele>34.1</ele>
        <time>2024-12-19T14:36:53Z</time>
      </trkpt>
      <trkpt lat="47.93484" lon="-2.5293">
        <ele>34.1</ele>
        <time>2024-12-19T14:36:54Z</time>
      </trkpt>
      <trkpt lat="47.93484" lon="-2.52931">
        <ele>34.1</ele>
        <time>2024-12-19T14:36:55Z</time>
      </trkpt>
      <trkpt lat="47.93484" lon="-2.52932">
        <ele>34.1</ele>
        <time>2024-12-19T14:36:56Z</time>
      </trkpt>
      <trkpt lat="47.93485" lon="-2.52934">
        <ele>34.1</ele>
        <time>2024-12-19T14:36:57Z</time>
      </trkpt>
      <trkpt lat="47.93486" lon="-2.52935">
        <ele>34.1</ele>
        <time>2024-12-19T14:36:58Z</time>
      </trkpt>
      <trkpt lat="47.93486" lon="-2.52935">
        <ele>34.2</ele>
        <time>2024-12-19T14:36:59Z</time>
      </trkpt>
      <trkpt lat="47.93486" lon="-2.52935">
        <ele>34.2</ele>
        <time>2024-12-19T14:37:03Z</time>
      </trkpt>
      <trkpt lat="47.93486" lon="-2.52935">
        <ele>34.1</ele>
        <time>2024-12-19T14:37:04Z</time>
      </trkpt>
      <trkpt lat="47.93486" lon="-2.52935">
        <ele>34.1</ele>
        <time>2024-12-19T14:37:05Z</time>
      </trkpt>
      <trkpt lat="47.93486" lon="-2.52935">
        <ele>34.1</ele>
        <time>2024-12-19T14:37:06Z</time>
      </trkpt>
      <trkpt lat="47.93486" lon="-2.52935">
        <ele>34.2</ele>
        <time>2024-12-19T14:37:07Z</time>
      </trkpt>
      <trkpt lat="47.93486" lon="-2.52934">
        <ele>34.2</ele>
        <time>2024-12-19T14:37:08Z</time>
      </trkpt>
      <trkpt lat="47.93486" lon="-2.52934">
        <ele>34.2</ele>
        <time>2024-12-19T14:37:09Z</time>
      </trkpt>
      <trkpt lat="47.93486" lon="-2.52934">
        <ele>34.2</ele>
        <time>2024-12-19T14:37:10Z</time>
      </trkpt>
      <trkpt lat="47.93486" lon="-2.52934">
        <ele>34.2</ele>
        <time>2024-12-19T14:37:11Z</time>
      </trkpt>
      <trkpt lat="47.93486" lon="-2.52934">
        <ele>34.2</ele>
        <time>2024-12-19T14:37:12Z</time>
      </trkpt>
      <trkpt lat="47.93486" lon="-2.52934">
        <ele>34.2</ele>
        <time>2024-12-19T14:37:13Z</time>
      </trkpt>
      <trkpt lat="47.93486" lon="-2.52934">
        <ele>34.2</ele>
        <time>2024-12-19T14:37:14Z</time>
      </trkpt>
      <trkpt lat="47.93486" lon="-2.52934">
        <ele>34.2</ele>
        <time>2024-12-19T14:37:15Z</time>
      </trkpt>
      <trkpt lat="47.93486" lon="-2.52934">
        <ele>34.2</ele>
        <time>2024-12-19T14:37:16Z</time>
      </trkpt>
      <trkpt lat="47.93486" lon="-2.52934">
        <ele>34.2</ele>
        <time>2024-12-19T14:37:17Z</time>
      </trkpt>
      <trkpt lat="47.93486" lon="-2.52934">
        <ele>34.2</ele>
        <time>2024-12-19T14:37:18Z</time>
      </trkpt>
      <trkpt lat="47.93486" lon="-2.52935">
        <ele>34.2</ele>
        <time>2024-12-19T14:37:19Z</time>
      </trkpt>
      <trkpt lat="47.93486" lon="-2.52936">
        <ele>34.2</ele>
        <time>2024-12-19T14:37:20Z</time>
      </trkpt>
      <trkpt lat="47.93486" lon="-2.52938">
        <ele>34.1</ele>
        <time>2024-12-19T14:37:21Z</time>
      </trkpt>
      <trkpt lat="47.93486" lon="-2.5294">
        <ele>34.1</ele>
        <time>2024-12-19T14:37:22Z</time>
      </trkpt>
      <trkpt lat="47.93486" lon="-2.52942">
        <ele>34.1</ele>
        <time>2024-12-19T14:37:23Z</time>
      </trkpt>
      <trkpt lat="47.93486" lon="-2.52944">
        <ele>34</ele>
        <time>2024-12-19T14:37:24Z</time>
      </trkpt>
      <trkpt lat="47.93486" lon="-2.52945">
        <ele>34</ele>
        <time>2024-12-19T14:37:25Z</time>
      </trkpt>
      <trkpt lat="47.93487" lon="-2.52947">
        <ele>34.1</ele>
        <time>2024-12-19T14:37:26Z</time>
      </trkpt>
      <trkpt lat="47.93487" lon="-2.52948">
        <ele>34.1</ele>
        <time>2024-12-19T14:37:27Z</time>
      </trkpt>
      <trkpt lat="47.93487" lon="-2.52949">
        <ele>34.1</ele>
        <time>2024-12-19T14:37:28Z</time>
      </trkpt>
      <trkpt lat="47.93487" lon="-2.5295">
        <ele>34.2</ele>
        <time>2024-12-19T14:37:29Z</time>
      </trkpt>
      <trkpt lat="47.93487" lon="-2.5295">
        <ele>34.2</ele>
        <time>2024-12-19T14:37:30Z</time>
      </trkpt>
      <trkpt lat="47.93487" lon="-2.52951">
        <ele>34.2</ele>
        <time>2024-12-19T14:37:31Z</time>
      </trkpt>
      <trkpt lat="47.93487" lon="-2.52951">
        <ele>34.2</ele>
        <time>2024-12-19T14:37:32Z</time>
      </trkpt>
      <trkpt lat="47.93487" lon="-2.52951">
        <ele>34.2</ele>
        <time>2024-12-19T14:37:33Z</time>
      </trkpt>
      <trkpt lat="47.93487" lon="-2.52951">
        <ele>34.2</ele>
        <time>2024-12-19T14:37:34Z</time>
      </trkpt>
      <trkpt lat="47.93487" lon="-2.52952">
        <ele>34.2</ele>
        <time>2024-12-19T14:37:35Z</time>
      </trkpt>
      <trkpt lat="47.93487" lon="-2.52954">
        <ele>34.3</ele>
        <time>2024-12-19T14:37:36Z</time>
      </trkpt>
      <trkpt lat="47.93487" lon="-2.52956">
        <ele>34.3</ele>
        <time>2024-12-19T14:37:37Z</time>
      </trkpt>
      <trkpt lat="47.93488" lon="-2.52958">
        <ele>34.4</ele>
        <time>2024-12-19T14:37:38Z</time>
      </trkpt>
      <trkpt lat="47.93488" lon="-2.52961">
        <ele>34.5</ele>
        <time>2024-12-19T14:37:39Z</time>
      </trkpt>
      <trkpt lat="47.93488" lon="-2.52963">
        <ele>34.5</ele>
        <time>2024-12-19T14:37:40Z</time>
      </trkpt>
      <trkpt lat="47.93488" lon="-2.52964">
        <ele>34.6</ele>
        <time>2024-12-19T14:37:41Z</time>
      </trkpt>
      <trkpt lat="47.93489" lon="-2.52965">
        <ele>34.6</ele>
        <time>2024-12-19T14:37:42Z</time>
      </trkpt>
      <trkpt lat="47.93489" lon="-2.52967">
        <ele>34.7</ele>
        <time>2024-12-19T14:37:43Z</time>
      </trkpt>
      <trkpt lat="47.93489" lon="-2.52968">
        <ele>34.7</ele>
        <time>2024-12-19T14:37:44Z</time>
      </trkpt>
      <trkpt lat="47.93489" lon="-2.5297">
        <ele>34.8</ele>
        <time>2024-12-19T14:37:45Z</time>
      </trkpt>
      <trkpt lat="47.93489" lon="-2.52971">
        <ele>34.8</ele>
        <time>2024-12-19T14:37:46Z</time>
      </trkpt>
      <trkpt lat="47.93489" lon="-2.52973">
        <ele>34.8</ele>
        <time>2024-12-19T14:37:47Z</time>
      </trkpt>
      <trkpt lat="47.93489" lon="-2.52974">
        <ele>34.7</ele>
        <time>2024-12-19T14:37:48Z</time>
      </trkpt>
      <trkpt lat="47.93489" lon="-2.52976">
        <ele>34.7</ele>
        <time>2024-12-19T14:37:49Z</time>
      </trkpt>
      <trkpt lat="47.93488" lon="-2.52977">
        <ele>34.6</ele>
        <time>2024-12-19T14:37:50Z</time>
      </trkpt>
      <trkpt lat="47.93488" lon="-2.52978">
        <ele>34.6</ele>
        <time>2024-12-19T14:37:51Z</time>
      </trkpt>
      <trkpt lat="47.93488" lon="-2.5298">
        <ele>34.6</ele>
        <time>2024-12-19T14:37:52Z</time>
      </trkpt>
      <trkpt lat="47.93488" lon="-2.52982">
        <ele>34.5</ele>
        <time>2024-12-19T14:37:53Z</time>
      </trkpt>
      <trkpt lat="47.93489" lon="-2.52983">
        <ele>34.5</ele>
        <time>2024-12-19T14:37:54Z</time>
      </trkpt>
      <trkpt lat="47.93489" lon="-2.52983">
        <ele>34.5</ele>
        <time>2024-12-19T14:37:55Z</time>
      </trkpt>
      <trkpt lat="47.93489" lon="-2.52983">
        <ele>34.6</ele>
        <time>2024-12-19T14:37:56Z</time>
      </trkpt>
      <trkpt lat="47.93489" lon="-2.52984">
        <ele>34.5</ele>
        <time>2024-12-19T14:37:57Z</time>
      </trkpt>
      <trkpt lat="47.93489" lon="-2.52985">
        <ele>34.5</ele>
        <time>2024-12-19T14:37:58Z</time>
      </trkpt>
      <trkpt lat="47.93489" lon="-2.52986">
        <ele>34.5</ele>
        <time>2024-12-19T14:37:59Z</time>
      </trkpt>
      <trkpt lat="47.93489" lon="-2.52988">
        <ele>34.5</ele>
        <time>2024-12-19T14:38:00Z</time>
      </trkpt>
      <trkpt lat="47.93489" lon="-2.5299">
        <ele>34.4</ele>
        <time>2024-12-19T14:38:01Z</time>
      </trkpt>
      <trkpt lat="47.93489" lon="-2.52991">
        <ele>34.4</ele>
        <time>2024-12-19T14:38:02Z</time>
      </trkpt>
      <trkpt lat="47.9349" lon="-2.52991">
        <ele>34.5</ele>
        <time>2024-12-19T14:38:03Z</time>
      </trkpt>
      <trkpt lat="47.9349" lon="-2.52991">
        <ele>34.5</ele>
        <time>2024-12-19T14:38:04Z</time>
      </trkpt>
      <trkpt lat="47.9349" lon="-2.52991">
        <ele>34.5</ele>
        <time>2024-12-19T14:38:05Z</time>
      </trkpt>
      <trkpt lat="47.9349" lon="-2.52992">
        <ele>34.5</ele>
        <time>2024-12-19T14:38:06Z</time>
      </trkpt>
      <trkpt lat="47.9349" lon="-2.52993">
        <ele>34.4</ele>
        <time>2024-12-19T14:38:07Z</time>
      </trkpt>
      <trkpt lat="47.9349" lon="-2.52995">
        <ele>34.4</ele>
        <time>2024-12-19T14:38:08Z</time>
      </trkpt>
      <trkpt lat="47.9349" lon="-2.52995">
        <ele>34.4</ele>
        <time>2024-12-19T14:38:09Z</time>
      </trkpt>
      <trkpt lat="47.9349" lon="-2.52996">
        <ele>34.3</ele>
        <time>2024-12-19T14:38:10Z</time>
      </trkpt>
      <trkpt lat="47.9349" lon="-2.52998">
        <ele>34.3</ele>
        <time>2024-12-19T14:38:11Z</time>
      </trkpt>
      <trkpt lat="47.9349" lon="-2.52999">
        <ele>34.3</ele>
        <time>2024-12-19T14:38:12Z</time>
      </trkpt>
      <trkpt lat="47.9349" lon="-2.53">
        <ele>34.3</ele>
        <time>2024-12-19T14:38:13Z</time>
      </trkpt>
      <trkpt lat="47.9349" lon="-2.53001">
        <ele>34.2</ele>
        <time>2024-12-19T14:38:14Z</time>
      </trkpt>
      <trkpt lat="47.9349" lon="-2.53002">
        <ele>34.2</ele>
        <time>2024-12-19T14:38:15Z</time>
      </trkpt>
      <trkpt lat="47.9349" lon="-2.53005">
        <ele>34.1</ele>
        <time>2024-12-19T14:38:16Z</time>
      </trkpt>
      <trkpt lat="47.9349" lon="-2.53007">
        <ele>34.1</ele>
        <time>2024-12-19T14:38:17Z</time>
      </trkpt>
      <trkpt lat="47.9349" lon="-2.53008">
        <ele>34</ele>
        <time>2024-12-19T14:38:18Z</time>
      </trkpt>
      <trkpt lat="47.9349" lon="-2.5301">
        <ele>33.9</ele>
        <time>2024-12-19T14:38:19Z</time>
      </trkpt>
      <trkpt lat="47.9349" lon="-2.53012">
        <ele>33.8</ele>
        <time>2024-12-19T14:38:20Z</time>
      </trkpt>
      <trkpt lat="47.9349" lon="-2.53014">
        <ele>33.7</ele>
        <time>2024-12-19T14:38:21Z</time>
      </trkpt>
      <trkpt lat="47.93489" lon="-2.53016">
        <ele>33.7</ele>
        <time>2024-12-19T14:38:22Z</time>
      </trkpt>
      <trkpt lat="47.93489" lon="-2.53017">
        <ele>33.6</ele>
        <time>2024-12-19T14:38:23Z</time>
      </trkpt>
      <trkpt lat="47.9349" lon="-2.53018">
        <ele>33.6</ele>
        <time>2024-12-19T14:38:24Z</time>
      </trkpt>
      <trkpt lat="47.9349" lon="-2.53018">
        <ele>33.6</ele>
        <time>2024-12-19T14:38:25Z</time>
      </trkpt>
      <trkpt lat="47.93489" lon="-2.53019">
        <ele>33.6</ele>
        <time>2024-12-19T14:38:26Z</time>
      </trkpt>
      <trkpt lat="47.93489" lon="-2.53019">
        <ele>33.5</ele>
        <time>2024-12-19T14:38:27Z</time>
      </trkpt>
      <trkpt lat="47.93489" lon="-2.5302">
        <ele>33.4</ele>
        <time>2024-12-19T14:38:28Z</time>
      </trkpt>
      <trkpt lat="47.93488" lon="-2.53021">
        <ele>33.4</ele>
        <time>2024-12-19T14:38:29Z</time>
      </trkpt>
      <trkpt lat="47.93487" lon="-2.53023">
        <ele>33.2</ele>
        <time>2024-12-19T14:38:30Z</time>
      </trkpt>
      <trkpt lat="47.93486" lon="-2.53025">
        <ele>33.1</ele>
        <time>2024-12-19T14:38:31Z</time>
      </trkpt>
      <trkpt lat="47.93486" lon="-2.53027">
        <ele>33</ele>
        <time>2024-12-19T14:38:32Z</time>
      </trkpt>
      <trkpt lat="47.93486" lon="-2.53029">
        <ele>33</ele>
        <time>2024-12-19T14:38:33Z</time>
      </trkpt>
      <trkpt lat="47.93486" lon="-2.53029">
        <ele>33</ele>
        <time>2024-12-19T14:38:34Z</time>
      </trkpt>
      <trkpt lat="47.93485" lon="-2.53031">
        <ele>32.9</ele>
        <time>2024-12-19T14:38:35Z</time>
      </trkpt>
      <trkpt lat="47.93485" lon="-2.53034">
        <ele>32.9</ele>
        <time>2024-12-19T14:38:36Z</time>
      </trkpt>
      <trkpt lat="47.93484" lon="-2.53036">
        <ele>32.9</ele>
        <time>2024-12-19T14:38:37Z</time>
      </trkpt>
      <trkpt lat="47.93484" lon="-2.53038">
        <ele>32.8</ele>
        <time>2024-12-19T14:38:38Z</time>
      </trkpt>
      <trkpt lat="47.93483" lon="-2.53041">
        <ele>32.8</ele>
        <time>2024-12-19T14:38:39Z</time>
      </trkpt>
      <trkpt lat="47.93482" lon="-2.53043">
        <ele>32.7</ele>
        <time>2024-12-19T14:38:40Z</time>
      </trkpt>
      <trkpt lat="47.93482" lon="-2.53045">
        <ele>32.7</ele>
        <time>2024-12-19T14:38:41Z</time>
      </trkpt>
      <trkpt lat="47.93481" lon="-2.53047">
        <ele>32.6</ele>
        <time>2024-12-19T14:38:42Z</time>
      </trkpt>
      <trkpt lat="47.9348" lon="-2.53049">
        <ele>32.6</ele>
        <time>2024-12-19T14:38:43Z</time>
      </trkpt>
      <trkpt lat="47.9348" lon="-2.53052">
        <ele>32.6</ele>
        <time>2024-12-19T14:38:44Z</time>
      </trkpt>
      <trkpt lat="47.93479" lon="-2.53055">
        <ele>32.5</ele>
        <time>2024-12-19T14:38:45Z</time>
      </trkpt>
      <trkpt lat="47.93479" lon="-2.53059">
        <ele>32.4</ele>
        <time>2024-12-19T14:38:46Z</time>
      </trkpt>
      <trkpt lat="47.93478" lon="-2.53061">
        <ele>32.4</ele>
        <time>2024-12-19T14:38:47Z</time>
      </trkpt>
      <trkpt lat="47.93478" lon="-2.53063">
        <ele>32.3</ele>
        <time>2024-12-19T14:38:48Z</time>
      </trkpt>
      <trkpt lat="47.93477" lon="-2.53066">
        <ele>32.3</ele>
        <time>2024-12-19T14:38:49Z</time>
      </trkpt>
      <trkpt lat="47.93477" lon="-2.53069">
        <ele>32.2</ele>
        <time>2024-12-19T14:38:50Z</time>
      </trkpt>
      <trkpt lat="47.93476" lon="-2.53072">
        <ele>32.2</ele>
        <time>2024-12-19T14:38:51Z</time>
      </trkpt>
      <trkpt lat="47.93476" lon="-2.53075">
        <ele>32.2</ele>
        <time>2024-12-19T14:38:52Z</time>
      </trkpt>
      <trkpt lat="47.93476" lon="-2.53076">
        <ele>32.2</ele>
        <time>2024-12-19T14:38:53Z</time>
      </trkpt>
      <trkpt lat="47.93476" lon="-2.53076">
        <ele>32.2</ele>
        <time>2024-12-19T14:38:54Z</time>
      </trkpt>
      <trkpt lat="47.93476" lon="-2.53077">
        <ele>32.2</ele>
        <time>2024-12-19T14:38:55Z</time>
      </trkpt>
      <trkpt lat="47.93476" lon="-2.53078">
        <ele>32.2</ele>
        <time>2024-12-19T14:38:56Z</time>
      </trkpt>
      <trkpt lat="47.93476" lon="-2.5308">
        <ele>32.1</ele>
        <time>2024-12-19T14:38:57Z</time>
      </trkpt>
      <trkpt lat="47.93475" lon="-2.53082">
        <ele>32.1</ele>
        <time>2024-12-19T14:38:58Z</time>
      </trkpt>
      <trkpt lat="47.93475" lon="-2.53084">
        <ele>32.1</ele>
        <time>2024-12-19T14:38:59Z</time>
      </trkpt>
      <trkpt lat="47.93475" lon="-2.53085">
        <ele>32.1</ele>
        <time>2024-12-19T14:39:00Z</time>
      </trkpt>
      <trkpt lat="47.93475" lon="-2.53084">
        <ele>32.1</ele>
        <time>2024-12-19T14:39:01Z</time>
      </trkpt>
      <trkpt lat="47.93475" lon="-2.53086">
        <ele>32.1</ele>
        <time>2024-12-19T14:39:02Z</time>
      </trkpt>
      <trkpt lat="47.93476" lon="-2.53087">
        <ele>32.1</ele>
        <time>2024-12-19T14:39:03Z</time>
      </trkpt>
      <trkpt lat="47.93476" lon="-2.53089">
        <ele>32.1</ele>
        <time>2024-12-19T14:39:04Z</time>
      </trkpt>
      <trkpt lat="47.93476" lon="-2.5309">
        <ele>32.1</ele>
        <time>2024-12-19T14:39:05Z</time>
      </trkpt>
      <trkpt lat="47.93476" lon="-2.53092">
        <ele>32.1</ele>
        <time>2024-12-19T14:39:06Z</time>
      </trkpt>
      <trkpt lat="47.93477" lon="-2.53094">
        <ele>32.1</ele>
        <time>2024-12-19T14:39:07Z</time>
      </trkpt>
      <trkpt lat="47.93477" lon="-2.53096">
        <ele>32.1</ele>
        <time>2024-12-19T14:39:08Z</time>
      </trkpt>
      <trkpt lat="47.93477" lon="-2.53099">
        <ele>32.1</ele>
        <time>2024-12-19T14:39:09Z</time>
      </trkpt>
      <trkpt lat="47.93477" lon="-2.531">
        <ele>32.1</ele>
        <time>2024-12-19T14:39:10Z</time>
      </trkpt>
      <trkpt lat="47.93477" lon="-2.53101">
        <ele>32.1</ele>
        <time>2024-12-19T14:39:11Z</time>
      </trkpt>
      <trkpt lat="47.93477" lon="-2.53102">
        <ele>32.1</ele>
        <time>2024-12-19T14:39:12Z</time>
      </trkpt>
      <trkpt lat="47.93478" lon="-2.53103">
        <ele>32.1</ele>
        <time>2024-12-19T14:39:13Z</time>
      </trkpt>
      <trkpt lat="47.93478" lon="-2.53104">
        <ele>32.1</ele>
        <time>2024-12-19T14:39:14Z</time>
      </trkpt>
      <trkpt lat="47.93478" lon="-2.53104">
        <ele>32.1</ele>
        <time>2024-12-19T14:39:15Z</time>
      </trkpt>
      <trkpt lat="47.93478" lon="-2.53105">
        <ele>32</ele>
        <time>2024-12-19T14:39:16Z</time>
      </trkpt>
      <trkpt lat="47.93478" lon="-2.53105">
        <ele>32</ele>
        <time>2024-12-19T14:39:17Z</time>
      </trkpt>
      <trkpt lat="47.93478" lon="-2.53105">
        <ele>32</ele>
        <time>2024-12-19T14:39:18Z</time>
      </trkpt>
      <trkpt lat="47.93478" lon="-2.53106">
        <ele>32</ele>
        <time>2024-12-19T14:39:19Z</time>
      </trkpt>
      <trkpt lat="47.93478" lon="-2.53106">
        <ele>32</ele>
        <time>2024-12-19T14:39:20Z</time>
      </trkpt>
      <trkpt lat="47.93478" lon="-2.53106">
        <ele>32</ele>
        <time>2024-12-19T14:39:21Z</time>
      </trkpt>
      <trkpt lat="47.93478" lon="-2.53106">
        <ele>32</ele>
        <time>2024-12-19T14:39:22Z</time>
      </trkpt>
      <trkpt lat="47.93478" lon="-2.53107">
        <ele>32</ele>
        <time>2024-12-19T14:39:23Z</time>
      </trkpt>
      <trkpt lat="47.93479" lon="-2.53108">
        <ele>32</ele>
        <time>2024-12-19T14:39:24Z</time>
      </trkpt>
      <trkpt lat="47.9348" lon="-2.5311">
        <ele>32</ele>
        <time>2024-12-19T14:39:25Z</time>
      </trkpt>
      <trkpt lat="47.93481" lon="-2.53111">
        <ele>32</ele>
        <time>2024-12-19T14:39:26Z</time>
      </trkpt>
      <trkpt lat="47.93482" lon="-2.53113">
        <ele>32</ele>
        <time>2024-12-19T14:39:27Z</time>
      </trkpt>
      <trkpt lat="47.93483" lon="-2.53114">
        <ele>31.9</ele>
        <time>2024-12-19T14:39:28Z</time>
      </trkpt>
      <trkpt lat="47.93485" lon="-2.53116">
        <ele>31.9</ele>
        <time>2024-12-19T14:39:29Z</time>
      </trkpt>
      <trkpt lat="47.93486" lon="-2.53117">
        <ele>31.9</ele>
        <time>2024-12-19T14:39:30Z</time>
      </trkpt>
      <trkpt lat="47.93487" lon="-2.53118">
        <ele>31.9</ele>
        <time>2024-12-19T14:39:31Z</time>
      </trkpt>
      <trkpt lat="47.93488" lon="-2.53119">
        <ele>31.9</ele>
        <time>2024-12-19T14:39:32Z</time>
      </trkpt>
      <trkpt lat="47.93489" lon="-2.5312">
        <ele>31.9</ele>
        <time>2024-12-19T14:39:33Z</time>
      </trkpt>
      <trkpt lat="47.9349" lon="-2.53121">
        <ele>31.9</ele>
        <time>2024-12-19T14:39:34Z</time>
      </trkpt>
      <trkpt lat="47.9349" lon="-2.53123">
        <ele>31.9</ele>
        <time>2024-12-19T14:39:35Z</time>
      </trkpt>
      <trkpt lat="47.93491" lon="-2.53124">
        <ele>31.9</ele>
        <time>2024-12-19T14:39:36Z</time>
      </trkpt>
      <trkpt lat="47.93492" lon="-2.53125">
        <ele>31.9</ele>
        <time>2024-12-19T14:39:37Z</time>
      </trkpt>
      <trkpt lat="47.93493" lon="-2.53125">
        <ele>31.9</ele>
        <time>2024-12-19T14:39:38Z</time>
      </trkpt>
      <trkpt lat="47.93494" lon="-2.53126">
        <ele>31.9</ele>
        <time>2024-12-19T14:39:39Z</time>
      </trkpt>
      <trkpt lat="47.93496" lon="-2.53128">
        <ele>31.9</ele>
        <time>2024-12-19T14:39:40Z</time>
      </trkpt>
      <trkpt lat="47.93497" lon="-2.53129">
        <ele>31.9</ele>
        <time>2024-12-19T14:39:41Z</time>
      </trkpt>
      <trkpt lat="47.93498" lon="-2.5313">
        <ele>32</ele>
        <time>2024-12-19T14:39:42Z</time>
      </trkpt>
      <trkpt lat="47.93499" lon="-2.53131">
        <ele>32</ele>
        <time>2024-12-19T14:39:43Z</time>
      </trkpt>
      <trkpt lat="47.93501" lon="-2.53132">
        <ele>32</ele>
        <time>2024-12-19T14:39:44Z</time>
      </trkpt>
      <trkpt lat="47.93503" lon="-2.53134">
        <ele>32.1</ele>
        <time>2024-12-19T14:39:45Z</time>
      </trkpt>
      <trkpt lat="47.93504" lon="-2.53135">
        <ele>32.2</ele>
        <time>2024-12-19T14:39:46Z</time>
      </trkpt>
      <trkpt lat="47.93505" lon="-2.53136">
        <ele>32.2</ele>
        <time>2024-12-19T14:39:47Z</time>
      </trkpt>
      <trkpt lat="47.93506" lon="-2.53137">
        <ele>32.2</ele>
        <time>2024-12-19T14:39:48Z</time>
      </trkpt>
      <trkpt lat="47.93508" lon="-2.53138">
        <ele>32.3</ele>
        <time>2024-12-19T14:39:49Z</time>
      </trkpt>
      <trkpt lat="47.93509" lon="-2.53139">
        <ele>32.3</ele>
        <time>2024-12-19T14:39:50Z</time>
      </trkpt>
      <trkpt lat="47.9351" lon="-2.53139">
        <ele>32.4</ele>
        <time>2024-12-19T14:39:51Z</time>
      </trkpt>
      <trkpt lat="47.93511" lon="-2.5314">
        <ele>32.4</ele>
        <time>2024-12-19T14:39:52Z</time>
      </trkpt>
      <trkpt lat="47.93513" lon="-2.53141">
        <ele>32.4</ele>
        <time>2024-12-19T14:39:53Z</time>
      </trkpt>
      <trkpt lat="47.93514" lon="-2.53142">
        <ele>32.4</ele>
        <time>2024-12-19T14:39:54Z</time>
      </trkpt>
      <trkpt lat="47.93515" lon="-2.53143">
        <ele>32.5</ele>
        <time>2024-12-19T14:39:55Z</time>
      </trkpt>
      <trkpt lat="47.93516" lon="-2.53144">
        <ele>32.5</ele>
        <time>2024-12-19T14:39:56Z</time>
      </trkpt>
      <trkpt lat="47.93517" lon="-2.53145">
        <ele>32.5</ele>
        <time>2024-12-19T14:39:57Z</time>
      </trkpt>
      <trkpt lat="47.93518" lon="-2.53145">
        <ele>32.5</ele>
        <time>2024-12-19T14:39:58Z</time>
      </trkpt>
      <trkpt lat="47.93519" lon="-2.53147">
        <ele>32.5</ele>
        <time>2024-12-19T14:39:59Z</time>
      </trkpt>
      <trkpt lat="47.9352" lon="-2.53147">
        <ele>32.5</ele>
        <time>2024-12-19T14:40:00Z</time>
      </trkpt>
      <trkpt lat="47.9352" lon="-2.53148">
        <ele>32.5</ele>
        <time>2024-12-19T14:40:01Z</time>
      </trkpt>
      <trkpt lat="47.93521" lon="-2.53149">
        <ele>32.5</ele>
        <time>2024-12-19T14:40:02Z</time>
      </trkpt>
      <trkpt lat="47.93522" lon="-2.5315">
        <ele>32.5</ele>
        <time>2024-12-19T14:40:03Z</time>
      </trkpt>
      <trkpt lat="47.93523" lon="-2.53151">
        <ele>32.5</ele>
        <time>2024-12-19T14:40:04Z</time>
      </trkpt>
      <trkpt lat="47.93524" lon="-2.53152">
        <ele>32.5</ele>
        <time>2024-12-19T14:40:05Z</time>
      </trkpt>
      <trkpt lat="47.93526" lon="-2.53153">
        <ele>32.4</ele>
        <time>2024-12-19T14:40:06Z</time>
      </trkpt>
      <trkpt lat="47.93527" lon="-2.53155">
        <ele>32.4</ele>
        <time>2024-12-19T14:40:07Z</time>
      </trkpt>
      <trkpt lat="47.93528" lon="-2.53156">
        <ele>32.4</ele>
        <time>2024-12-19T14:40:08Z</time>
      </trkpt>
      <trkpt lat="47.93529" lon="-2.53157">
        <ele>32.4</ele>
        <time>2024-12-19T14:40:09Z</time>
      </trkpt>
      <trkpt lat="47.9353" lon="-2.53158">
        <ele>32.5</ele>
        <time>2024-12-19T14:40:10Z</time>
      </trkpt>
      <trkpt lat="47.93531" lon="-2.53159">
        <ele>32.5</ele>
        <time>2024-12-19T14:40:11Z</time>
      </trkpt>
      <trkpt lat="47.93531" lon="-2.53161">
        <ele>32.5</ele>
        <time>2024-12-19T14:40:12Z</time>
      </trkpt>
      <trkpt lat="47.93532" lon="-2.53161">
        <ele>32.5</ele>
        <time>2024-12-19T14:40:13Z</time>
      </trkpt>
      <trkpt lat="47.93533" lon="-2.53162">
        <ele>32.5</ele>
        <time>2024-12-19T14:40:14Z</time>
      </trkpt>
      <trkpt lat="47.93534" lon="-2.53163">
        <ele>32.6</ele>
        <time>2024-12-19T14:40:15Z</time>
      </trkpt>
      <trkpt lat="47.93535" lon="-2.53164">
        <ele>32.6</ele>
        <time>2024-12-19T14:40:16Z</time>
      </trkpt>
      <trkpt lat="47.93536" lon="-2.53165">
        <ele>32.7</ele>
        <time>2024-12-19T14:40:17Z</time>
      </trkpt>
      <trkpt lat="47.93537" lon="-2.53166">
        <ele>32.7</ele>
        <time>2024-12-19T14:40:18Z</time>
      </trkpt>
      <trkpt lat="47.93538" lon="-2.53166">
        <ele>32.8</ele>
        <time>2024-12-19T14:40:19Z</time>
      </trkpt>
      <trkpt lat="47.93539" lon="-2.53167">
        <ele>32.8</ele>
        <time>2024-12-19T14:40:20Z</time>
      </trkpt>
      <trkpt lat="47.9354" lon="-2.53168">
        <ele>32.9</ele>
        <time>2024-12-19T14:40:21Z</time>
      </trkpt>
      <trkpt lat="47.93541" lon="-2.53168">
        <ele>32.9</ele>
        <time>2024-12-19T14:40:22Z</time>
      </trkpt>
      <trkpt lat="47.93542" lon="-2.53169">
        <ele>33</ele>
        <time>2024-12-19T14:40:23Z</time>
      </trkpt>
      <trkpt lat="47.93543" lon="-2.5317">
        <ele>33</ele>
        <time>2024-12-19T14:40:24Z</time>
      </trkpt>
      <trkpt lat="47.93544" lon="-2.53172">
        <ele>33.1</ele>
        <time>2024-12-19T14:40:26Z</time>
      </trkpt>
      <trkpt lat="47.93545" lon="-2.53172">
        <ele>33.1</ele>
        <time>2024-12-19T14:40:27Z</time>
      </trkpt>
      <trkpt lat="47.93547" lon="-2.53174">
        <ele>33.2</ele>
        <time>2024-12-19T14:40:28Z</time>
      </trkpt>
      <trkpt lat="47.93548" lon="-2.53175">
        <ele>33.2</ele>
        <time>2024-12-19T14:40:29Z</time>
      </trkpt>
      <trkpt lat="47.93548" lon="-2.53176">
        <ele>33.2</ele>
        <time>2024-12-19T14:40:30Z</time>
      </trkpt>
      <trkpt lat="47.93549" lon="-2.53177">
        <ele>33.3</ele>
        <time>2024-12-19T14:40:31Z</time>
      </trkpt>
      <trkpt lat="47.9355" lon="-2.53178">
        <ele>33.3</ele>
        <time>2024-12-19T14:40:32Z</time>
      </trkpt>
      <trkpt lat="47.93551" lon="-2.53179">
        <ele>33.3</ele>
        <time>2024-12-19T14:40:33Z</time>
      </trkpt>
      <trkpt lat="47.93551" lon="-2.53181">
        <ele>33.3</ele>
        <time>2024-12-19T14:40:34Z</time>
      </trkpt>
      <trkpt lat="47.93552" lon="-2.53182">
        <ele>33.3</ele>
        <time>2024-12-19T14:40:35Z</time>
      </trkpt>
      <trkpt lat="47.93554" lon="-2.53183">
        <ele>33.3</ele>
        <time>2024-12-19T14:40:36Z</time>
      </trkpt>
      <trkpt lat="47.93555" lon="-2.53184">
        <ele>33.4</ele>
        <time>2024-12-19T14:40:37Z</time>
      </trkpt>
      <trkpt lat="47.93556" lon="-2.53185">
        <ele>33.4</ele>
        <time>2024-12-19T14:40:38Z</time>
      </trkpt>
      <trkpt lat="47.93557" lon="-2.53185">
        <ele>33.4</ele>
        <time>2024-12-19T14:40:39Z</time>
      </trkpt>
      <trkpt lat="47.93558" lon="-2.53186">
        <ele>33.4</ele>
        <time>2024-12-19T14:40:40Z</time>
      </trkpt>
      <trkpt lat="47.93559" lon="-2.53187">
        <ele>33.4</ele>
        <time>2024-12-19T14:40:41Z</time>
      </trkpt>
      <trkpt lat="47.9356" lon="-2.53188">
        <ele>33.4</ele>
        <time>2024-12-19T14:40:42Z</time>
      </trkpt>
      <trkpt lat="47.93561" lon="-2.53189">
        <ele>33.4</ele>
        <time>2024-12-19T14:40:43Z</time>
      </trkpt>
      <trkpt lat="47.93562" lon="-2.5319">
        <ele>33.4</ele>
        <time>2024-12-19T14:40:44Z</time>
      </trkpt>
      <trkpt lat="47.93563" lon="-2.53191">
        <ele>33.4</ele>
        <time>2024-12-19T14:40:45Z</time>
      </trkpt>
      <trkpt lat="47.93564" lon="-2.53193">
        <ele>33.4</ele>
        <time>2024-12-19T14:40:46Z</time>
      </trkpt>
      <trkpt lat="47.93565" lon="-2.53194">
        <ele>33.4</ele>
        <time>2024-12-19T14:40:47Z</time>
      </trkpt>
      <trkpt lat="47.93566" lon="-2.53194">
        <ele>33.4</ele>
        <time>2024-12-19T14:40:48Z</time>
      </trkpt>
      <trkpt lat="47.93567" lon="-2.53195">
        <ele>33.4</ele>
        <time>2024-12-19T14:40:49Z</time>
      </trkpt>
      <trkpt lat="47.93569" lon="-2.53196">
        <ele>33.5</ele>
        <time>2024-12-19T14:40:50Z</time>
      </trkpt>
      <trkpt lat="47.9357" lon="-2.53197">
        <ele>33.5</ele>
        <time>2024-12-19T14:40:51Z</time>
      </trkpt>
      <trkpt lat="47.93571" lon="-2.53198">
        <ele>33.5</ele>
        <time>2024-12-19T14:40:52Z</time>
      </trkpt>
      <trkpt lat="47.93572" lon="-2.53199">
        <ele>33.6</ele>
        <time>2024-12-19T14:40:53Z</time>
      </trkpt>
      <trkpt lat="47.93572" lon="-2.532">
        <ele>33.6</ele>
        <time>2024-12-19T14:40:54Z</time>
      </trkpt>
      <trkpt lat="47.93573" lon="-2.53201">
        <ele>33.6</ele>
        <time>2024-12-19T14:40:55Z</time>
      </trkpt>
      <trkpt lat="47.93574" lon="-2.53202">
        <ele>33.7</ele>
        <time>2024-12-19T14:40:56Z</time>
      </trkpt>
      <trkpt lat="47.93575" lon="-2.53203">
        <ele>33.7</ele>
        <time>2024-12-19T14:40:57Z</time>
      </trkpt>
      <trkpt lat="47.93576" lon="-2.53204">
        <ele>33.7</ele>
        <time>2024-12-19T14:40:58Z</time>
      </trkpt>
      <trkpt lat="47.93577" lon="-2.53205">
        <ele>33.8</ele>
        <time>2024-12-19T14:40:59Z</time>
      </trkpt>
      <trkpt lat="47.93578" lon="-2.53206">
        <ele>33.8</ele>
        <time>2024-12-19T14:41:00Z</time>
      </trkpt>
      <trkpt lat="47.93579" lon="-2.53207">
        <ele>33.8</ele>
        <time>2024-12-19T14:41:01Z</time>
      </trkpt>
      <trkpt lat="47.9358" lon="-2.53208">
        <ele>33.9</ele>
        <time>2024-12-19T14:41:02Z</time>
      </trkpt>
      <trkpt lat="47.9358" lon="-2.53208">
        <ele>33.9</ele>
        <time>2024-12-19T14:41:03Z</time>
      </trkpt>
      <trkpt lat="47.93581" lon="-2.53209">
        <ele>33.9</ele>
        <time>2024-12-19T14:41:04Z</time>
      </trkpt>
      <trkpt lat="47.93582" lon="-2.5321">
        <ele>34</ele>
        <time>2024-12-19T14:41:05Z</time>
      </trkpt>
      <trkpt lat="47.93583" lon="-2.53212">
        <ele>34</ele>
        <time>2024-12-19T14:41:06Z</time>
      </trkpt>
      <trkpt lat="47.93584" lon="-2.53213">
        <ele>34</ele>
        <time>2024-12-19T14:41:07Z</time>
      </trkpt>
      <trkpt lat="47.93585" lon="-2.53214">
        <ele>34.1</ele>
        <time>2024-12-19T14:41:08Z</time>
      </trkpt>
      <trkpt lat="47.93585" lon="-2.53215">
        <ele>34.1</ele>
        <time>2024-12-19T14:41:09Z</time>
      </trkpt>
      <trkpt lat="47.93586" lon="-2.53216">
        <ele>34.1</ele>
        <time>2024-12-19T14:41:10Z</time>
      </trkpt>
      <trkpt lat="47.93587" lon="-2.53217">
        <ele>34.2</ele>
        <time>2024-12-19T14:41:11Z</time>
      </trkpt>
      <trkpt lat="47.93588" lon="-2.53219">
        <ele>34.2</ele>
        <time>2024-12-19T14:41:12Z</time>
      </trkpt>
      <trkpt lat="47.93589" lon="-2.5322">
        <ele>34.2</ele>
        <time>2024-12-19T14:41:13Z</time>
      </trkpt>
      <trkpt lat="47.9359" lon="-2.5322">
        <ele>34.3</ele>
        <time>2024-12-19T14:41:14Z</time>
      </trkpt>
      <trkpt lat="47.93591" lon="-2.53221">
        <ele>34.3</ele>
        <time>2024-12-19T14:41:15Z</time>
      </trkpt>
      <trkpt lat="47.93592" lon="-2.53222">
        <ele>34.3</ele>
        <time>2024-12-19T14:41:16Z</time>
      </trkpt>
      <trkpt lat="47.93593" lon="-2.53223">
        <ele>34.3</ele>
        <time>2024-12-19T14:41:17Z</time>
      </trkpt>
      <trkpt lat="47.93595" lon="-2.53224">
        <ele>34.3</ele>
        <time>2024-12-19T14:41:18Z</time>
      </trkpt>
      <trkpt lat="47.93596" lon="-2.53225">
        <ele>34.3</ele>
        <time>2024-12-19T14:41:19Z</time>
      </trkpt>
      <trkpt lat="47.93597" lon="-2.53226">
        <ele>34.3</ele>
        <time>2024-12-19T14:41:20Z</time>
      </trkpt>
      <trkpt lat="47.93598" lon="-2.53227">
        <ele>34.3</ele>
        <time>2024-12-19T14:41:21Z</time>
      </trkpt>
      <trkpt lat="47.93599" lon="-2.53228">
        <ele>34.3</ele>
        <time>2024-12-19T14:41:22Z</time>
      </trkpt>
      <trkpt lat="47.936" lon="-2.53229">
        <ele>34.3</ele>
        <time>2024-12-19T14:41:23Z</time>
      </trkpt>
      <trkpt lat="47.93601" lon="-2.5323">
        <ele>34.3</ele>
        <time>2024-12-19T14:41:24Z</time>
      </trkpt>
      <trkpt lat="47.93602" lon="-2.53231">
        <ele>34.4</ele>
        <time>2024-12-19T14:41:25Z</time>
      </trkpt>
      <trkpt lat="47.93603" lon="-2.53232">
        <ele>34.4</ele>
        <time>2024-12-19T14:41:26Z</time>
      </trkpt>
      <trkpt lat="47.93604" lon="-2.53233">
        <ele>34.4</ele>
        <time>2024-12-19T14:41:27Z</time>
      </trkpt>
      <trkpt lat="47.93605" lon="-2.53234">
        <ele>34.4</ele>
        <time>2024-12-19T14:41:28Z</time>
      </trkpt>
      <trkpt lat="47.93606" lon="-2.53234">
        <ele>34.4</ele>
        <time>2024-12-19T14:41:29Z</time>
      </trkpt>
      <trkpt lat="47.93607" lon="-2.53235">
        <ele>34.4</ele>
        <time>2024-12-19T14:41:30Z</time>
      </trkpt>
      <trkpt lat="47.93608" lon="-2.53236">
        <ele>34.4</ele>
        <time>2024-12-19T14:41:31Z</time>
      </trkpt>
      <trkpt lat="47.93609" lon="-2.53238">
        <ele>34.4</ele>
        <time>2024-12-19T14:41:32Z</time>
      </trkpt>
      <trkpt lat="47.93609" lon="-2.53239">
        <ele>34.3</ele>
        <time>2024-12-19T14:41:33Z</time>
      </trkpt>
      <trkpt lat="47.9361" lon="-2.5324">
        <ele>34.3</ele>
        <time>2024-12-19T14:41:34Z</time>
      </trkpt>
      <trkpt lat="47.93611" lon="-2.5324">
        <ele>34.3</ele>
        <time>2024-12-19T14:41:35Z</time>
      </trkpt>
      <trkpt lat="47.93612" lon="-2.53241">
        <ele>34.3</ele>
        <time>2024-12-19T14:41:36Z</time>
      </trkpt>
      <trkpt lat="47.93613" lon="-2.53243">
        <ele>34.3</ele>
        <time>2024-12-19T14:41:37Z</time>
      </trkpt>
      <trkpt lat="47.93614" lon="-2.53244">
        <ele>34.3</ele>
        <time>2024-12-19T14:41:38Z</time>
      </trkpt>
      <trkpt lat="47.93614" lon="-2.53245">
        <ele>34.2</ele>
        <time>2024-12-19T14:41:39Z</time>
      </trkpt>
      <trkpt lat="47.93615" lon="-2.53246">
        <ele>34.1</ele>
        <time>2024-12-19T14:41:40Z</time>
      </trkpt>
      <trkpt lat="47.93616" lon="-2.53248">
        <ele>34.1</ele>
        <time>2024-12-19T14:41:41Z</time>
      </trkpt>
      <trkpt lat="47.93617" lon="-2.53248">
        <ele>34.1</ele>
        <time>2024-12-19T14:41:42Z</time>
      </trkpt>
      <trkpt lat="47.93618" lon="-2.53249">
        <ele>34</ele>
        <time>2024-12-19T14:41:43Z</time>
      </trkpt>
      <trkpt lat="47.93619" lon="-2.5325">
        <ele>34</ele>
        <time>2024-12-19T14:41:44Z</time>
      </trkpt>
      <trkpt lat="47.9362" lon="-2.53251">
        <ele>34</ele>
        <time>2024-12-19T14:41:45Z</time>
      </trkpt>
      <trkpt lat="47.93621" lon="-2.53252">
        <ele>34</ele>
        <time>2024-12-19T14:41:46Z</time>
      </trkpt>
      <trkpt lat="47.93622" lon="-2.53253">
        <ele>33.9</ele>
        <time>2024-12-19T14:41:47Z</time>
      </trkpt>
      <trkpt lat="47.93623" lon="-2.53254">
        <ele>33.9</ele>
        <time>2024-12-19T14:41:48Z</time>
      </trkpt>
      <trkpt lat="47.93623" lon="-2.53255">
        <ele>33.9</ele>
        <time>2024-12-19T14:41:49Z</time>
      </trkpt>
      <trkpt lat="47.93624" lon="-2.53256">
        <ele>33.9</ele>
        <time>2024-12-19T14:41:50Z</time>
      </trkpt>
      <trkpt lat="47.93625" lon="-2.53257">
        <ele>33.9</ele>
        <time>2024-12-19T14:41:51Z</time>
      </trkpt>
      <trkpt lat="47.93625" lon="-2.53258">
        <ele>33.9</ele>
        <time>2024-12-19T14:41:52Z</time>
      </trkpt>
      <trkpt lat="47.93627" lon="-2.53259">
        <ele>33.9</ele>
        <time>2024-12-19T14:41:53Z</time>
      </trkpt>
      <trkpt lat="47.93628" lon="-2.5326">
        <ele>33.9</ele>
        <time>2024-12-19T14:41:54Z</time>
      </trkpt>
      <trkpt lat="47.93629" lon="-2.53261">
        <ele>33.9</ele>
        <time>2024-12-19T14:41:55Z</time>
      </trkpt>
      <trkpt lat="47.9363" lon="-2.53263">
        <ele>33.9</ele>
        <time>2024-12-19T14:41:56Z</time>
      </trkpt>
      <trkpt lat="47.93631" lon="-2.53264">
        <ele>33.9</ele>
        <time>2024-12-19T14:41:57Z</time>
      </trkpt>
      <trkpt lat="47.93632" lon="-2.53265">
        <ele>33.9</ele>
        <time>2024-12-19T14:41:58Z</time>
      </trkpt>
      <trkpt lat="47.93633" lon="-2.53266">
        <ele>33.9</ele>
        <time>2024-12-19T14:41:59Z</time>
      </trkpt>
      <trkpt lat="47.93635" lon="-2.53267">
        <ele>33.9</ele>
        <time>2024-12-19T14:42:00Z</time>
      </trkpt>
      <trkpt lat="47.93636" lon="-2.53268">
        <ele>33.9</ele>
        <time>2024-12-19T14:42:01Z</time>
      </trkpt>
      <trkpt lat="47.93637" lon="-2.53268">
        <ele>34</ele>
        <time>2024-12-19T14:42:02Z</time>
      </trkpt>
      <trkpt lat="47.93639" lon="-2.53269">
        <ele>34</ele>
        <time>2024-12-19T14:42:03Z</time>
      </trkpt>
      <trkpt lat="47.9364" lon="-2.5327">
        <ele>34</ele>
        <time>2024-12-19T14:42:04Z</time>
      </trkpt>
      <trkpt lat="47.93641" lon="-2.53271">
        <ele>34</ele>
        <time>2024-12-19T14:42:05Z</time>
      </trkpt>
      <trkpt lat="47.93643" lon="-2.53272">
        <ele>34</ele>
        <time>2024-12-19T14:42:06Z</time>
      </trkpt>
      <trkpt lat="47.93644" lon="-2.53273">
        <ele>34</ele>
        <time>2024-12-19T14:42:07Z</time>
      </trkpt>
      <trkpt lat="47.93644" lon="-2.53274">
        <ele>34</ele>
        <time>2024-12-19T14:42:08Z</time>
      </trkpt>
      <trkpt lat="47.93645" lon="-2.53275">
        <ele>34</ele>
        <time>2024-12-19T14:42:09Z</time>
      </trkpt>
      <trkpt lat="47.93646" lon="-2.53276">
        <ele>34</ele>
        <time>2024-12-19T14:42:10Z</time>
      </trkpt>
      <trkpt lat="47.93647" lon="-2.53277">
        <ele>34</ele>
        <time>2024-12-19T14:42:11Z</time>
      </trkpt>
      <trkpt lat="47.93648" lon="-2.53278">
        <ele>34</ele>
        <time>2024-12-19T14:42:12Z</time>
      </trkpt>
      <trkpt lat="47.93649" lon="-2.53278">
        <ele>34</ele>
        <time>2024-12-19T14:42:13Z</time>
      </trkpt>
      <trkpt lat="47.9365" lon="-2.53279">
        <ele>34</ele>
        <time>2024-12-19T14:42:14Z</time>
      </trkpt>
      <trkpt lat="47.93651" lon="-2.5328">
        <ele>33.9</ele>
        <time>2024-12-19T14:42:15Z</time>
      </trkpt>
      <trkpt lat="47.93652" lon="-2.53281">
        <ele>33.9</ele>
        <time>2024-12-19T14:42:16Z</time>
      </trkpt>
      <trkpt lat="47.93654" lon="-2.53282">
        <ele>33.9</ele>
        <time>2024-12-19T14:42:17Z</time>
      </trkpt>
      <trkpt lat="47.93655" lon="-2.53283">
        <ele>33.8</ele>
        <time>2024-12-19T14:42:18Z</time>
      </trkpt>
      <trkpt lat="47.93656" lon="-2.53284">
        <ele>33.8</ele>
        <time>2024-12-19T14:42:19Z</time>
      </trkpt>
      <trkpt lat="47.93657" lon="-2.53285">
        <ele>33.8</ele>
        <time>2024-12-19T14:42:20Z</time>
      </trkpt>
      <trkpt lat="47.93657" lon="-2.53286">
        <ele>33.7</ele>
        <time>2024-12-19T14:42:21Z</time>
      </trkpt>
      <trkpt lat="47.93658" lon="-2.53287">
        <ele>33.7</ele>
        <time>2024-12-19T14:42:22Z</time>
      </trkpt>
      <trkpt lat="47.93659" lon="-2.53287">
        <ele>33.7</ele>
        <time>2024-12-19T14:42:23Z</time>
      </trkpt>
      <trkpt lat="47.93659" lon="-2.53289">
        <ele>33.6</ele>
        <time>2024-12-19T14:42:24Z</time>
      </trkpt>
      <trkpt lat="47.9366" lon="-2.5329">
        <ele>33.6</ele>
        <time>2024-12-19T14:42:25Z</time>
      </trkpt>
      <trkpt lat="47.93661" lon="-2.53292">
        <ele>33.5</ele>
        <time>2024-12-19T14:42:26Z</time>
      </trkpt>
      <trkpt lat="47.93662" lon="-2.53293">
        <ele>33.5</ele>
        <time>2024-12-19T14:42:27Z</time>
      </trkpt>
      <trkpt lat="47.93663" lon="-2.53294">
        <ele>33.4</ele>
        <time>2024-12-19T14:42:28Z</time>
      </trkpt>
      <trkpt lat="47.93664" lon="-2.53295">
        <ele>33.4</ele>
        <time>2024-12-19T14:42:29Z</time>
      </trkpt>
      <trkpt lat="47.93664" lon="-2.53296">
        <ele>33.4</ele>
        <time>2024-12-19T14:42:30Z</time>
      </trkpt>
      <trkpt lat="47.93665" lon="-2.53297">
        <ele>33.3</ele>
        <time>2024-12-19T14:42:31Z</time>
      </trkpt>
      <trkpt lat="47.93667" lon="-2.53298">
        <ele>33.3</ele>
        <time>2024-12-19T14:42:32Z</time>
      </trkpt>
      <trkpt lat="47.93667" lon="-2.533">
        <ele>33.3</ele>
        <time>2024-12-19T14:42:33Z</time>
      </trkpt>
      <trkpt lat="47.93668" lon="-2.53301">
        <ele>33.2</ele>
        <time>2024-12-19T14:42:34Z</time>
      </trkpt>
      <trkpt lat="47.93668" lon="-2.53302">
        <ele>33.2</ele>
        <time>2024-12-19T14:42:35Z</time>
      </trkpt>
      <trkpt lat="47.93667" lon="-2.53303">
        <ele>33.1</ele>
        <time>2024-12-19T14:42:36Z</time>
      </trkpt>
      <trkpt lat="47.93667" lon="-2.53305">
        <ele>33</ele>
        <time>2024-12-19T14:42:37Z</time>
      </trkpt>
      <trkpt lat="47.93666" lon="-2.53307">
        <ele>32.9</ele>
        <time>2024-12-19T14:42:38Z</time>
      </trkpt>
      <trkpt lat="47.93665" lon="-2.53309">
        <ele>32.9</ele>
        <time>2024-12-19T14:42:39Z</time>
      </trkpt>
      <trkpt lat="47.93664" lon="-2.53311">
        <ele>32.8</ele>
        <time>2024-12-19T14:42:40Z</time>
      </trkpt>
      <trkpt lat="47.93663" lon="-2.53312">
        <ele>32.7</ele>
        <time>2024-12-19T14:42:41Z</time>
      </trkpt>
      <trkpt lat="47.93661" lon="-2.53314">
        <ele>32.6</ele>
        <time>2024-12-19T14:42:42Z</time>
      </trkpt>
      <trkpt lat="47.9366" lon="-2.53316">
        <ele>32.5</ele>
        <time>2024-12-19T14:42:43Z</time>
      </trkpt>
      <trkpt lat="47.93659" lon="-2.53318">
        <ele>32.5</ele>
        <time>2024-12-19T14:42:44Z</time>
      </trkpt>
      <trkpt lat="47.93659" lon="-2.5332">
        <ele>32.3</ele>
        <time>2024-12-19T14:42:45Z</time>
      </trkpt>
      <trkpt lat="47.93658" lon="-2.53322">
        <ele>32.2</ele>
        <time>2024-12-19T14:42:46Z</time>
      </trkpt>
      <trkpt lat="47.93657" lon="-2.53324">
        <ele>32.1</ele>
        <time>2024-12-19T14:42:47Z</time>
      </trkpt>
      <trkpt lat="47.93657" lon="-2.53327">
        <ele>32</ele>
        <time>2024-12-19T14:42:48Z</time>
      </trkpt>
      <trkpt lat="47.93657" lon="-2.53329">
        <ele>31.9</ele>
        <time>2024-12-19T14:42:49Z</time>
      </trkpt>
      <trkpt lat="47.93656" lon="-2.53331">
        <ele>31.7</ele>
        <time>2024-12-19T14:42:50Z</time>
      </trkpt>
      <trkpt lat="47.93656" lon="-2.53333">
        <ele>31.6</ele>
        <time>2024-12-19T14:42:51Z</time>
      </trkpt>
      <trkpt lat="47.93656" lon="-2.53334">
        <ele>31.6</ele>
        <time>2024-12-19T14:42:52Z</time>
      </trkpt>
      <trkpt lat="47.93656" lon="-2.53336">
        <ele>31.5</ele>
        <time>2024-12-19T14:42:53Z</time>
      </trkpt>
      <trkpt lat="47.93655" lon="-2.53338">
        <ele>31.4</ele>
        <time>2024-12-19T14:42:54Z</time>
      </trkpt>
      <trkpt lat="47.93655" lon="-2.53339">
        <ele>31.4</ele>
        <time>2024-12-19T14:42:55Z</time>
      </trkpt>
      <trkpt lat="47.93656" lon="-2.5334">
        <ele>31.4</ele>
        <time>2024-12-19T14:42:56Z</time>
      </trkpt>
      <trkpt lat="47.93656" lon="-2.5334">
        <ele>31.4</ele>
        <time>2024-12-19T14:42:57Z</time>
      </trkpt>
      <trkpt lat="47.93656" lon="-2.5334">
        <ele>31.4</ele>
        <time>2024-12-19T14:42:58Z</time>
      </trkpt>
      <trkpt lat="47.93656" lon="-2.5334">
        <ele>31.4</ele>
        <time>2024-12-19T14:42:59Z</time>
      </trkpt>
      <trkpt lat="47.93656" lon="-2.5334">
        <ele>31.4</ele>
        <time>2024-12-19T14:43:00Z</time>
      </trkpt>
      <trkpt lat="47.93656" lon="-2.53341">
        <ele>31.4</ele>
        <time>2024-12-19T14:43:01Z</time>
      </trkpt>
      <trkpt lat="47.93656" lon="-2.53342">
        <ele>31.3</ele>
        <time>2024-12-19T14:43:02Z</time>
      </trkpt>
      <trkpt lat="47.93655" lon="-2.53344">
        <ele>31.2</ele>
        <time>2024-12-19T14:43:03Z</time>
      </trkpt>
      <trkpt lat="47.93655" lon="-2.53346">
        <ele>31.1</ele>
        <time>2024-12-19T14:43:04Z</time>
      </trkpt>
      <trkpt lat="47.93654" lon="-2.53349">
        <ele>31</ele>
        <time>2024-12-19T14:43:05Z</time>
      </trkpt>
      <trkpt lat="47.93654" lon="-2.5335">
        <ele>30.9</ele>
        <time>2024-12-19T14:43:06Z</time>
      </trkpt>
      <trkpt lat="47.93653" lon="-2.53352">
        <ele>30.9</ele>
        <time>2024-12-19T14:43:07Z</time>
      </trkpt>
      <trkpt lat="47.93653" lon="-2.53353">
        <ele>30.8</ele>
        <time>2024-12-19T14:43:08Z</time>
      </trkpt>
      <trkpt lat="47.93652" lon="-2.53355">
        <ele>30.7</ele>
        <time>2024-12-19T14:43:09Z</time>
      </trkpt>
      <trkpt lat="47.93652" lon="-2.53357">
        <ele>30.6</ele>
        <time>2024-12-19T14:43:10Z</time>
      </trkpt>
      <trkpt lat="47.93651" lon="-2.53359">
        <ele>30.5</ele>
        <time>2024-12-19T14:43:11Z</time>
      </trkpt>
      <trkpt lat="47.9365" lon="-2.53361">
        <ele>30.4</ele>
        <time>2024-12-19T14:43:12Z</time>
      </trkpt>
      <trkpt lat="47.9365" lon="-2.53363">
        <ele>30.3</ele>
        <time>2024-12-19T14:43:13Z</time>
      </trkpt>
      <trkpt lat="47.93649" lon="-2.53364">
        <ele>30.2</ele>
        <time>2024-12-19T14:43:14Z</time>
      </trkpt>
      <trkpt lat="47.93648" lon="-2.53366">
        <ele>30.1</ele>
        <time>2024-12-19T14:43:15Z</time>
      </trkpt>
      <trkpt lat="47.93648" lon="-2.53368">
        <ele>30</ele>
        <time>2024-12-19T14:43:16Z</time>
      </trkpt>
      <trkpt lat="47.93647" lon="-2.5337">
        <ele>29.9</ele>
        <time>2024-12-19T14:43:17Z</time>
      </trkpt>
      <trkpt lat="47.93647" lon="-2.53372">
        <ele>29.8</ele>
        <time>2024-12-19T14:43:18Z</time>
      </trkpt>
      <trkpt lat="47.93646" lon="-2.53373">
        <ele>29.7</ele>
        <time>2024-12-19T14:43:19Z</time>
      </trkpt>
      <trkpt lat="47.93646" lon="-2.53375">
        <ele>29.6</ele>
        <time>2024-12-19T14:43:20Z</time>
      </trkpt>
      <trkpt lat="47.93646" lon="-2.53377">
        <ele>29.5</ele>
        <time>2024-12-19T14:43:21Z</time>
      </trkpt>
      <trkpt lat="47.93645" lon="-2.5338">
        <ele>29.4</ele>
        <time>2024-12-19T14:43:22Z</time>
      </trkpt>
      <trkpt lat="47.93645" lon="-2.53383">
        <ele>29.3</ele>
        <time>2024-12-19T14:43:23Z</time>
      </trkpt>
      <trkpt lat="47.93644" lon="-2.53386">
        <ele>29.1</ele>
        <time>2024-12-19T14:43:24Z</time>
      </trkpt>
      <trkpt lat="47.93644" lon="-2.53388">
        <ele>29</ele>
        <time>2024-12-19T14:43:25Z</time>
      </trkpt>
      <trkpt lat="47.93643" lon="-2.53391">
        <ele>29.1</ele>
        <time>2024-12-19T14:43:26Z</time>
      </trkpt>
      <trkpt lat="47.93643" lon="-2.53393">
        <ele>29.1</ele>
        <time>2024-12-19T14:43:27Z</time>
      </trkpt>
      <trkpt lat="47.93642" lon="-2.53395">
        <ele>29.2</ele>
        <time>2024-12-19T14:43:28Z</time>
      </trkpt>
      <trkpt lat="47.93642" lon="-2.53397">
        <ele>29.3</ele>
        <time>2024-12-19T14:43:29Z</time>
      </trkpt>
      <trkpt lat="47.93641" lon="-2.53399">
        <ele>29.3</ele>
        <time>2024-12-19T14:43:30Z</time>
      </trkpt>
      <trkpt lat="47.93641" lon="-2.53401">
        <ele>29.4</ele>
        <time>2024-12-19T14:43:31Z</time>
      </trkpt>
      <trkpt lat="47.9364" lon="-2.53404">
        <ele>29.5</ele>
        <time>2024-12-19T14:43:32Z</time>
      </trkpt>
      <trkpt lat="47.9364" lon="-2.53405">
        <ele>29.6</ele>
        <time>2024-12-19T14:43:33Z</time>
      </trkpt>
      <trkpt lat="47.9364" lon="-2.53406">
        <ele>29.6</ele>
        <time>2024-12-19T14:43:34Z</time>
      </trkpt>
      <trkpt lat="47.93639" lon="-2.53408">
        <ele>29.7</ele>
        <time>2024-12-19T14:43:35Z</time>
      </trkpt>
      <trkpt lat="47.93639" lon="-2.53409">
        <ele>29.7</ele>
        <time>2024-12-19T14:43:36Z</time>
      </trkpt>
      <trkpt lat="47.93639" lon="-2.53409">
        <ele>29.7</ele>
        <time>2024-12-19T14:43:37Z</time>
      </trkpt>
      <trkpt lat="47.93638" lon="-2.5341">
        <ele>29.7</ele>
        <time>2024-12-19T14:43:38Z</time>
      </trkpt>
      <trkpt lat="47.93638" lon="-2.5341">
        <ele>29.7</ele>
        <time>2024-12-19T14:43:39Z</time>
      </trkpt>
      <trkpt lat="47.93638" lon="-2.5341">
        <ele>29.7</ele>
        <time>2024-12-19T14:43:40Z</time>
      </trkpt>
      <trkpt lat="47.93637" lon="-2.5341">
        <ele>29.7</ele>
        <time>2024-12-19T14:43:41Z</time>
      </trkpt>
      <trkpt lat="47.93637" lon="-2.53412">
        <ele>29.8</ele>
        <time>2024-12-19T14:43:42Z</time>
      </trkpt>
      <trkpt lat="47.93636" lon="-2.53414">
        <ele>29.8</ele>
        <time>2024-12-19T14:43:43Z</time>
      </trkpt>
      <trkpt lat="47.93635" lon="-2.53415">
        <ele>29.8</ele>
        <time>2024-12-19T14:43:44Z</time>
      </trkpt>
      <trkpt lat="47.93635" lon="-2.53417">
        <ele>29.8</ele>
        <time>2024-12-19T14:43:45Z</time>
      </trkpt>
      <trkpt lat="47.93635" lon="-2.53419">
        <ele>29.8</ele>
        <time>2024-12-19T14:43:46Z</time>
      </trkpt>
      <trkpt lat="47.93634" lon="-2.53421">
        <ele>29.7</ele>
        <time>2024-12-19T14:43:47Z</time>
      </trkpt>
      <trkpt lat="47.93633" lon="-2.53423">
        <ele>29.6</ele>
        <time>2024-12-19T14:43:48Z</time>
      </trkpt>
      <trkpt lat="47.93633" lon="-2.53425">
        <ele>29.5</ele>
        <time>2024-12-19T14:43:49Z</time>
      </trkpt>
      <trkpt lat="47.93632" lon="-2.53427">
        <ele>29.5</ele>
        <time>2024-12-19T14:43:50Z</time>
      </trkpt>
      <trkpt lat="47.93631" lon="-2.53428">
        <ele>29.4</ele>
        <time>2024-12-19T14:43:51Z</time>
      </trkpt>
      <trkpt lat="47.93631" lon="-2.53431">
        <ele>29.4</ele>
        <time>2024-12-19T14:43:52Z</time>
      </trkpt>
      <trkpt lat="47.9363" lon="-2.53433">
        <ele>29.3</ele>
        <time>2024-12-19T14:43:53Z</time>
      </trkpt>
      <trkpt lat="47.93629" lon="-2.53435">
        <ele>29.2</ele>
        <time>2024-12-19T14:43:54Z</time>
      </trkpt>
      <trkpt lat="47.93628" lon="-2.53438">
        <ele>29.1</ele>
        <time>2024-12-19T14:43:55Z</time>
      </trkpt>
      <trkpt lat="47.93627" lon="-2.5344">
        <ele>29.1</ele>
        <time>2024-12-19T14:43:56Z</time>
      </trkpt>
      <trkpt lat="47.93626" lon="-2.53442">
        <ele>29.1</ele>
        <time>2024-12-19T14:43:57Z</time>
      </trkpt>
      <trkpt lat="47.93626" lon="-2.53443">
        <ele>29</ele>
        <time>2024-12-19T14:43:58Z</time>
      </trkpt>
      <trkpt lat="47.93625" lon="-2.53444">
        <ele>29</ele>
        <time>2024-12-19T14:43:59Z</time>
      </trkpt>
      <trkpt lat="47.93624" lon="-2.53445">
        <ele>29</ele>
        <time>2024-12-19T14:44:00Z</time>
      </trkpt>
      <trkpt lat="47.93623" lon="-2.53447">
        <ele>29</ele>
        <time>2024-12-19T14:44:01Z</time>
      </trkpt>
      <trkpt lat="47.93622" lon="-2.53448">
        <ele>29</ele>
        <time>2024-12-19T14:44:02Z</time>
      </trkpt>
      <trkpt lat="47.93622" lon="-2.53449">
        <ele>29</ele>
        <time>2024-12-19T14:44:03Z</time>
      </trkpt>
      <trkpt lat="47.93621" lon="-2.53451">
        <ele>29</ele>
        <time>2024-12-19T14:44:04Z</time>
      </trkpt>
      <trkpt lat="47.93621" lon="-2.53453">
        <ele>29</ele>
        <time>2024-12-19T14:44:05Z</time>
      </trkpt>
      <trkpt lat="47.9362" lon="-2.53454">
        <ele>29</ele>
        <time>2024-12-19T14:44:06Z</time>
      </trkpt>
      <trkpt lat="47.93619" lon="-2.53456">
        <ele>29</ele>
        <time>2024-12-19T14:44:07Z</time>
      </trkpt>
      <trkpt lat="47.93619" lon="-2.53459">
        <ele>29</ele>
        <time>2024-12-19T14:44:08Z</time>
      </trkpt>
      <trkpt lat="47.93618" lon="-2.53461">
        <ele>29</ele>
        <time>2024-12-19T14:44:09Z</time>
      </trkpt>
      <trkpt lat="47.93617" lon="-2.53463">
        <ele>29</ele>
        <time>2024-12-19T14:44:10Z</time>
      </trkpt>
      <trkpt lat="47.93616" lon="-2.53465">
        <ele>29</ele>
        <time>2024-12-19T14:44:11Z</time>
      </trkpt>
      <trkpt lat="47.93616" lon="-2.53467">
        <ele>29</ele>
        <time>2024-12-19T14:44:12Z</time>
      </trkpt>
      <trkpt lat="47.93615" lon="-2.53469">
        <ele>29</ele>
        <time>2024-12-19T14:44:13Z</time>
      </trkpt>
      <trkpt lat="47.93615" lon="-2.53471">
        <ele>29</ele>
        <time>2024-12-19T14:44:14Z</time>
      </trkpt>
      <trkpt lat="47.93614" lon="-2.53473">
        <ele>29</ele>
        <time>2024-12-19T14:44:15Z</time>
      </trkpt>
      <trkpt lat="47.93614" lon="-2.53474">
        <ele>29</ele>
        <time>2024-12-19T14:44:16Z</time>
      </trkpt>
      <trkpt lat="47.93613" lon="-2.53475">
        <ele>29.1</ele>
        <time>2024-12-19T14:44:17Z</time>
      </trkpt>
      <trkpt lat="47.93612" lon="-2.53476">
        <ele>29.1</ele>
        <time>2024-12-19T14:44:18Z</time>
      </trkpt>
      <trkpt lat="47.93611" lon="-2.53476">
        <ele>29.1</ele>
        <time>2024-12-19T14:44:19Z</time>
      </trkpt>
      <trkpt lat="47.9361" lon="-2.53477">
        <ele>29.2</ele>
        <time>2024-12-19T14:44:20Z</time>
      </trkpt>
      <trkpt lat="47.93609" lon="-2.53478">
        <ele>29.2</ele>
        <time>2024-12-19T14:44:21Z</time>
      </trkpt>
      <trkpt lat="47.93608" lon="-2.53479">
        <ele>29.2</ele>
        <time>2024-12-19T14:44:22Z</time>
      </trkpt>
      <trkpt lat="47.93607" lon="-2.5348">
        <ele>29.3</ele>
        <time>2024-12-19T14:44:23Z</time>
      </trkpt>
      <trkpt lat="47.93606" lon="-2.53481">
        <ele>29.3</ele>
        <time>2024-12-19T14:44:24Z</time>
      </trkpt>
      <trkpt lat="47.93605" lon="-2.53482">
        <ele>29.3</ele>
        <time>2024-12-19T14:44:25Z</time>
      </trkpt>
      <trkpt lat="47.93604" lon="-2.53484">
        <ele>29.4</ele>
        <time>2024-12-19T14:44:26Z</time>
      </trkpt>
      <trkpt lat="47.93602" lon="-2.53486">
        <ele>29.5</ele>
        <time>2024-12-19T14:44:27Z</time>
      </trkpt>
      <trkpt lat="47.93601" lon="-2.53488">
        <ele>29.6</ele>
        <time>2024-12-19T14:44:28Z</time>
      </trkpt>
      <trkpt lat="47.936" lon="-2.5349">
        <ele>29.6</ele>
        <time>2024-12-19T14:44:29Z</time>
      </trkpt>
      <trkpt lat="47.936" lon="-2.53492">
        <ele>29.7</ele>
        <time>2024-12-19T14:44:30Z</time>
      </trkpt>
      <trkpt lat="47.93599" lon="-2.53493">
        <ele>29.7</ele>
        <time>2024-12-19T14:44:31Z</time>
      </trkpt>
      <trkpt lat="47.93598" lon="-2.53494">
        <ele>29.8</ele>
        <time>2024-12-19T14:44:32Z</time>
      </trkpt>
      <trkpt lat="47.93597" lon="-2.53496">
        <ele>29.8</ele>
        <time>2024-12-19T14:44:33Z</time>
      </trkpt>
      <trkpt lat="47.93596" lon="-2.53498">
        <ele>29.9</ele>
        <time>2024-12-19T14:44:34Z</time>
      </trkpt>
      <trkpt lat="47.93595" lon="-2.53499">
        <ele>30</ele>
        <time>2024-12-19T14:44:35Z</time>
      </trkpt>
      <trkpt lat="47.93594" lon="-2.53501">
        <ele>30</ele>
        <time>2024-12-19T14:44:36Z</time>
      </trkpt>
      <trkpt lat="47.93592" lon="-2.53502">
        <ele>30.1</ele>
        <time>2024-12-19T14:44:37Z</time>
      </trkpt>
      <trkpt lat="47.93591" lon="-2.53504">
        <ele>30.1</ele>
        <time>2024-12-19T14:44:38Z</time>
      </trkpt>
      <trkpt lat="47.9359" lon="-2.53505">
        <ele>30.1</ele>
        <time>2024-12-19T14:44:39Z</time>
      </trkpt>
      <trkpt lat="47.93589" lon="-2.53506">
        <ele>30.2</ele>
        <time>2024-12-19T14:44:40Z</time>
      </trkpt>
      <trkpt lat="47.93589" lon="-2.53507">
        <ele>30.2</ele>
        <time>2024-12-19T14:44:41Z</time>
      </trkpt>
      <trkpt lat="47.93588" lon="-2.53508">
        <ele>30.2</ele>
        <time>2024-12-19T14:44:42Z</time>
      </trkpt>
      <trkpt lat="47.93587" lon="-2.53509">
        <ele>30.3</ele>
        <time>2024-12-19T14:44:43Z</time>
      </trkpt>
      <trkpt lat="47.93586" lon="-2.5351">
        <ele>30.3</ele>
        <time>2024-12-19T14:44:44Z</time>
      </trkpt>
      <trkpt lat="47.93585" lon="-2.53511">
        <ele>30.4</ele>
        <time>2024-12-19T14:44:45Z</time>
      </trkpt>
      <trkpt lat="47.93585" lon="-2.53512">
        <ele>30.4</ele>
        <time>2024-12-19T14:44:46Z</time>
      </trkpt>
      <trkpt lat="47.93584" lon="-2.53513">
        <ele>30.5</ele>
        <time>2024-12-19T14:44:47Z</time>
      </trkpt>
      <trkpt lat="47.93584" lon="-2.53515">
        <ele>30.5</ele>
        <time>2024-12-19T14:44:48Z</time>
      </trkpt>
      <trkpt lat="47.93583" lon="-2.53516">
        <ele>30.6</ele>
        <time>2024-12-19T14:44:49Z</time>
      </trkpt>
      <trkpt lat="47.93583" lon="-2.53518">
        <ele>30.6</ele>
        <time>2024-12-19T14:44:50Z</time>
      </trkpt>
      <trkpt lat="47.93582" lon="-2.53519">
        <ele>30.6</ele>
        <time>2024-12-19T14:44:51Z</time>
      </trkpt>
      <trkpt lat="47.93581" lon="-2.53521">
        <ele>30.7</ele>
        <time>2024-12-19T14:44:52Z</time>
      </trkpt>
      <trkpt lat="47.9358" lon="-2.53523">
        <ele>30.7</ele>
        <time>2024-12-19T14:44:53Z</time>
      </trkpt>
      <trkpt lat="47.9358" lon="-2.53523">
        <ele>30.7</ele>
        <time>2024-12-19T14:44:54Z</time>
      </trkpt>
      <trkpt lat="47.9358" lon="-2.53524">
        <ele>30.7</ele>
        <time>2024-12-19T14:44:55Z</time>
      </trkpt>
      <trkpt lat="47.9358" lon="-2.53524">
        <ele>30.7</ele>
        <time>2024-12-19T14:44:56Z</time>
      </trkpt>
      <trkpt lat="47.9358" lon="-2.53524">
        <ele>30.7</ele>
        <time>2024-12-19T14:44:57Z</time>
      </trkpt>
      <trkpt lat="47.9358" lon="-2.53524">
        <ele>30.7</ele>
        <time>2024-12-19T14:44:58Z</time>
      </trkpt>
      <trkpt lat="47.9358" lon="-2.53524">
        <ele>30.7</ele>
        <time>2024-12-19T14:44:59Z</time>
      </trkpt>
      <trkpt lat="47.93579" lon="-2.53525">
        <ele>30.8</ele>
        <time>2024-12-19T14:45:00Z</time>
      </trkpt>
      <trkpt lat="47.93579" lon="-2.53527">
        <ele>30.8</ele>
        <time>2024-12-19T14:45:01Z</time>
      </trkpt>
      <trkpt lat="47.93578" lon="-2.53528">
        <ele>30.8</ele>
        <time>2024-12-19T14:45:02Z</time>
      </trkpt>
      <trkpt lat="47.93578" lon="-2.53528">
        <ele>30.8</ele>
        <time>2024-12-19T14:45:03Z</time>
      </trkpt>
      <trkpt lat="47.93578" lon="-2.53528">
        <ele>30.8</ele>
        <time>2024-12-19T14:45:04Z</time>
      </trkpt>
      <trkpt lat="47.93577" lon="-2.53529">
        <ele>30.8</ele>
        <time>2024-12-19T14:45:05Z</time>
      </trkpt>
      <trkpt lat="47.93577" lon="-2.5353">
        <ele>30.7</ele>
        <time>2024-12-19T14:45:06Z</time>
      </trkpt>
      <trkpt lat="47.93577" lon="-2.53532">
        <ele>30.7</ele>
        <time>2024-12-19T14:45:07Z</time>
      </trkpt>
      <trkpt lat="47.93577" lon="-2.53533">
        <ele>30.7</ele>
        <time>2024-12-19T14:45:08Z</time>
      </trkpt>
      <trkpt lat="47.93579" lon="-2.53534">
        <ele>30.8</ele>
        <time>2024-12-19T14:45:09Z</time>
      </trkpt>
      <trkpt lat="47.93581" lon="-2.53535">
        <ele>30.9</ele>
        <time>2024-12-19T14:45:10Z</time>
      </trkpt>
      <trkpt lat="47.93582" lon="-2.53535">
        <ele>31</ele>
        <time>2024-12-19T14:45:11Z</time>
      </trkpt>
      <trkpt lat="47.93584" lon="-2.53536">
        <ele>31</ele>
        <time>2024-12-19T14:45:12Z</time>
      </trkpt>
      <trkpt lat="47.93585" lon="-2.53536">
        <ele>30.9</ele>
        <time>2024-12-19T14:45:13Z</time>
      </trkpt>
      <trkpt lat="47.93586" lon="-2.53536">
        <ele>30.9</ele>
        <time>2024-12-19T14:45:14Z</time>
      </trkpt>
      <trkpt lat="47.93587" lon="-2.53537">
        <ele>30.9</ele>
        <time>2024-12-19T14:45:15Z</time>
      </trkpt>
      <trkpt lat="47.93588" lon="-2.53538">
        <ele>30.8</ele>
        <time>2024-12-19T14:45:16Z</time>
      </trkpt>
      <trkpt lat="47.93588" lon="-2.53538">
        <ele>30.8</ele>
        <time>2024-12-19T14:45:17Z</time>
      </trkpt>
      <trkpt lat="47.93589" lon="-2.53538">
        <ele>30.8</ele>
        <time>2024-12-19T14:45:18Z</time>
      </trkpt>
      <trkpt lat="47.93589" lon="-2.53539">
        <ele>30.8</ele>
        <time>2024-12-19T14:45:19Z</time>
      </trkpt>
      <trkpt lat="47.9359" lon="-2.5354">
        <ele>30.8</ele>
        <time>2024-12-19T14:45:20Z</time>
      </trkpt>
      <trkpt lat="47.93591" lon="-2.5354">
        <ele>30.7</ele>
        <time>2024-12-19T14:45:21Z</time>
      </trkpt>
      <trkpt lat="47.93592" lon="-2.53541">
        <ele>30.7</ele>
        <time>2024-12-19T14:45:22Z</time>
      </trkpt>
      <trkpt lat="47.93593" lon="-2.53543">
        <ele>30.6</ele>
        <time>2024-12-19T14:45:23Z</time>
      </trkpt>
      <trkpt lat="47.93594" lon="-2.53544">
        <ele>30.6</ele>
        <time>2024-12-19T14:45:24Z</time>
      </trkpt>
      <trkpt lat="47.93595" lon="-2.53546">
        <ele>30.6</ele>
        <time>2024-12-19T14:45:25Z</time>
      </trkpt>
      <trkpt lat="47.93596" lon="-2.53547">
        <ele>30.5</ele>
        <time>2024-12-19T14:45:26Z</time>
      </trkpt>
      <trkpt lat="47.93597" lon="-2.53549">
        <ele>30.5</ele>
        <time>2024-12-19T14:45:27Z</time>
      </trkpt>
      <trkpt lat="47.93597" lon="-2.53551">
        <ele>30.5</ele>
        <time>2024-12-19T14:45:28Z</time>
      </trkpt>
      <trkpt lat="47.93598" lon="-2.53552">
        <ele>30.5</ele>
        <time>2024-12-19T14:45:29Z</time>
      </trkpt>
      <trkpt lat="47.93599" lon="-2.53554">
        <ele>30.4</ele>
        <time>2024-12-19T14:45:30Z</time>
      </trkpt>
      <trkpt lat="47.936" lon="-2.53555">
        <ele>30.4</ele>
        <time>2024-12-19T14:45:31Z</time>
      </trkpt>
      <trkpt lat="47.936" lon="-2.53556">
        <ele>30.4</ele>
        <time>2024-12-19T14:45:32Z</time>
      </trkpt>
      <trkpt lat="47.93601" lon="-2.53558">
        <ele>30.3</ele>
        <time>2024-12-19T14:45:33Z</time>
      </trkpt>
      <trkpt lat="47.93602" lon="-2.53559">
        <ele>30.3</ele>
        <time>2024-12-19T14:45:34Z</time>
      </trkpt>
      <trkpt lat="47.93602" lon="-2.5356">
        <ele>30.3</ele>
        <time>2024-12-19T14:45:35Z</time>
      </trkpt>
      <trkpt lat="47.93603" lon="-2.53561">
        <ele>30.2</ele>
        <time>2024-12-19T14:45:36Z</time>
      </trkpt>
      <trkpt lat="47.93605" lon="-2.53563">
        <ele>30.2</ele>
        <time>2024-12-19T14:45:37Z</time>
      </trkpt>
      <trkpt lat="47.93606" lon="-2.53564">
        <ele>30.1</ele>
        <time>2024-12-19T14:45:38Z</time>
      </trkpt>
      <trkpt lat="47.93607" lon="-2.53566">
        <ele>30.1</ele>
        <time>2024-12-19T14:45:39Z</time>
      </trkpt>
      <trkpt lat="47.93608" lon="-2.53567">
        <ele>30.1</ele>
        <time>2024-12-19T14:45:40Z</time>
      </trkpt>
      <trkpt lat="47.93609" lon="-2.53568">
        <ele>30</ele>
        <time>2024-12-19T14:45:41Z</time>
      </trkpt>
      <trkpt lat="47.9361" lon="-2.53569">
        <ele>30</ele>
        <time>2024-12-19T14:45:42Z</time>
      </trkpt>
      <trkpt lat="47.93611" lon="-2.53571">
        <ele>30</ele>
        <time>2024-12-19T14:45:43Z</time>
      </trkpt>
      <trkpt lat="47.93612" lon="-2.53572">
        <ele>30</ele>
        <time>2024-12-19T14:45:44Z</time>
      </trkpt>
      <trkpt lat="47.93613" lon="-2.53573">
        <ele>29.9</ele>
        <time>2024-12-19T14:45:45Z</time>
      </trkpt>
      <trkpt lat="47.93614" lon="-2.53574">
        <ele>29.9</ele>
        <time>2024-12-19T14:45:46Z</time>
      </trkpt>
      <trkpt lat="47.93615" lon="-2.53575">
        <ele>29.9</ele>
        <time>2024-12-19T14:45:47Z</time>
      </trkpt>
      <trkpt lat="47.93615" lon="-2.53576">
        <ele>29.9</ele>
        <time>2024-12-19T14:45:48Z</time>
      </trkpt>
      <trkpt lat="47.93616" lon="-2.53576">
        <ele>29.8</ele>
        <time>2024-12-19T14:45:49Z</time>
      </trkpt>
      <trkpt lat="47.93617" lon="-2.53577">
        <ele>29.8</ele>
        <time>2024-12-19T14:45:50Z</time>
      </trkpt>
      <trkpt lat="47.93618" lon="-2.53577">
        <ele>29.8</ele>
        <time>2024-12-19T14:45:51Z</time>
      </trkpt>
      <trkpt lat="47.93619" lon="-2.53578">
        <ele>29.7</ele>
        <time>2024-12-19T14:45:52Z</time>
      </trkpt>
      <trkpt lat="47.9362" lon="-2.53579">
        <ele>29.7</ele>
        <time>2024-12-19T14:45:53Z</time>
      </trkpt>
      <trkpt lat="47.93621" lon="-2.53581">
        <ele>29.6</ele>
        <time>2024-12-19T14:45:54Z</time>
      </trkpt>
      <trkpt lat="47.93622" lon="-2.53582">
        <ele>29.6</ele>
        <time>2024-12-19T14:45:55Z</time>
      </trkpt>
      <trkpt lat="47.93623" lon="-2.53583">
        <ele>29.6</ele>
        <time>2024-12-19T14:45:56Z</time>
      </trkpt>
      <trkpt lat="47.93624" lon="-2.53584">
        <ele>29.5</ele>
        <time>2024-12-19T14:45:57Z</time>
      </trkpt>
      <trkpt lat="47.93625" lon="-2.53584">
        <ele>29.5</ele>
        <time>2024-12-19T14:45:58Z</time>
      </trkpt>
      <trkpt lat="47.93626" lon="-2.53585">
        <ele>29.5</ele>
        <time>2024-12-19T14:45:59Z</time>
      </trkpt>
      <trkpt lat="47.93627" lon="-2.53586">
        <ele>29.5</ele>
        <time>2024-12-19T14:46:00Z</time>
      </trkpt>
      <trkpt lat="47.93628" lon="-2.53587">
        <ele>29.5</ele>
        <time>2024-12-19T14:46:01Z</time>
      </trkpt>
      <trkpt lat="47.9363" lon="-2.53588">
        <ele>29.4</ele>
        <time>2024-12-19T14:46:02Z</time>
      </trkpt>
      <trkpt lat="47.9363" lon="-2.53588">
        <ele>29.4</ele>
        <time>2024-12-19T14:46:03Z</time>
      </trkpt>
      <trkpt lat="47.93631" lon="-2.53589">
        <ele>29.4</ele>
        <time>2024-12-19T14:46:04Z</time>
      </trkpt>
      <trkpt lat="47.93631" lon="-2.5359">
        <ele>29.4</ele>
        <time>2024-12-19T14:46:05Z</time>
      </trkpt>
      <trkpt lat="47.93632" lon="-2.5359">
        <ele>29.4</ele>
        <time>2024-12-19T14:46:06Z</time>
      </trkpt>
      <trkpt lat="47.93633" lon="-2.53591">
        <ele>29.4</ele>
        <time>2024-12-19T14:46:07Z</time>
      </trkpt>
      <trkpt lat="47.93634" lon="-2.53592">
        <ele>29.4</ele>
        <time>2024-12-19T14:46:08Z</time>
      </trkpt>
      <trkpt lat="47.93636" lon="-2.53593">
        <ele>29.4</ele>
        <time>2024-12-19T14:46:09Z</time>
      </trkpt>
      <trkpt lat="47.93637" lon="-2.53595">
        <ele>29.5</ele>
        <time>2024-12-19T14:46:10Z</time>
      </trkpt>
      <trkpt lat="47.93638" lon="-2.53595">
        <ele>29.5</ele>
        <time>2024-12-19T14:46:11Z</time>
      </trkpt>
      <trkpt lat="47.93638" lon="-2.53596">
        <ele>29.5</ele>
        <time>2024-12-19T14:46:12Z</time>
      </trkpt>
      <trkpt lat="47.93639" lon="-2.53596">
        <ele>29.5</ele>
        <time>2024-12-19T14:46:13Z</time>
      </trkpt>
      <trkpt lat="47.9364" lon="-2.53597">
        <ele>29.5</ele>
        <time>2024-12-19T14:46:14Z</time>
      </trkpt>
      <trkpt lat="47.93641" lon="-2.53599">
        <ele>29.6</ele>
        <time>2024-12-19T14:46:15Z</time>
      </trkpt>
      <trkpt lat="47.93642" lon="-2.536">
        <ele>29.6</ele>
        <time>2024-12-19T14:46:16Z</time>
      </trkpt>
      <trkpt lat="47.93643" lon="-2.536">
        <ele>29.7</ele>
        <time>2024-12-19T14:46:17Z</time>
      </trkpt>
      <trkpt lat="47.93643" lon="-2.53601">
        <ele>29.7</ele>
        <time>2024-12-19T14:46:18Z</time>
      </trkpt>
      <trkpt lat="47.93644" lon="-2.53602">
        <ele>29.7</ele>
        <time>2024-12-19T14:46:19Z</time>
      </trkpt>
      <trkpt lat="47.93645" lon="-2.53603">
        <ele>29.8</ele>
        <time>2024-12-19T14:46:20Z</time>
      </trkpt>
      <trkpt lat="47.93647" lon="-2.53605">
        <ele>29.8</ele>
        <time>2024-12-19T14:46:21Z</time>
      </trkpt>
      <trkpt lat="47.93648" lon="-2.53606">
        <ele>29.9</ele>
        <time>2024-12-19T14:46:22Z</time>
      </trkpt>
      <trkpt lat="47.93649" lon="-2.53607">
        <ele>29.9</ele>
        <time>2024-12-19T14:46:23Z</time>
      </trkpt>
      <trkpt lat="47.9365" lon="-2.53607">
        <ele>29.9</ele>
        <time>2024-12-19T14:46:24Z</time>
      </trkpt>
      <trkpt lat="47.93651" lon="-2.53609">
        <ele>29.9</ele>
        <time>2024-12-19T14:46:25Z</time>
      </trkpt>
      <trkpt lat="47.93652" lon="-2.53609">
        <ele>30</ele>
        <time>2024-12-19T14:46:26Z</time>
      </trkpt>
      <trkpt lat="47.93652" lon="-2.5361">
        <ele>30</ele>
        <time>2024-12-19T14:46:27Z</time>
      </trkpt>
      <trkpt lat="47.93653" lon="-2.53611">
        <ele>30</ele>
        <time>2024-12-19T14:46:28Z</time>
      </trkpt>
      <trkpt lat="47.93654" lon="-2.53612">
        <ele>30</ele>
        <time>2024-12-19T14:46:29Z</time>
      </trkpt>
      <trkpt lat="47.93655" lon="-2.53614">
        <ele>30</ele>
        <time>2024-12-19T14:46:30Z</time>
      </trkpt>
      <trkpt lat="47.93655" lon="-2.53615">
        <ele>30</ele>
        <time>2024-12-19T14:46:31Z</time>
      </trkpt>
      <trkpt lat="47.93656" lon="-2.53616">
        <ele>30</ele>
        <time>2024-12-19T14:46:32Z</time>
      </trkpt>
      <trkpt lat="47.93657" lon="-2.53617">
        <ele>30</ele>
        <time>2024-12-19T14:46:33Z</time>
      </trkpt>
      <trkpt lat="47.93658" lon="-2.53619">
        <ele>30</ele>
        <time>2024-12-19T14:46:34Z</time>
      </trkpt>
      <trkpt lat="47.93659" lon="-2.5362">
        <ele>30</ele>
        <time>2024-12-19T14:46:35Z</time>
      </trkpt>
      <trkpt lat="47.9366" lon="-2.53621">
        <ele>30</ele>
        <time>2024-12-19T14:46:36Z</time>
      </trkpt>
      <trkpt lat="47.93661" lon="-2.53622">
        <ele>30</ele>
        <time>2024-12-19T14:46:37Z</time>
      </trkpt>
      <trkpt lat="47.93662" lon="-2.53624">
        <ele>30</ele>
        <time>2024-12-19T14:46:38Z</time>
      </trkpt>
      <trkpt lat="47.93663" lon="-2.53625">
        <ele>30</ele>
        <time>2024-12-19T14:46:39Z</time>
      </trkpt>
      <trkpt lat="47.93664" lon="-2.53627">
        <ele>30</ele>
        <time>2024-12-19T14:46:40Z</time>
      </trkpt>
      <trkpt lat="47.93665" lon="-2.53628">
        <ele>30</ele>
        <time>2024-12-19T14:46:41Z</time>
      </trkpt>
      <trkpt lat="47.93666" lon="-2.53628">
        <ele>30</ele>
        <time>2024-12-19T14:46:42Z</time>
      </trkpt>
      <trkpt lat="47.93667" lon="-2.53629">
        <ele>30</ele>
        <time>2024-12-19T14:46:43Z</time>
      </trkpt>
      <trkpt lat="47.93668" lon="-2.5363">
        <ele>30</ele>
        <time>2024-12-19T14:46:44Z</time>
      </trkpt>
      <trkpt lat="47.93669" lon="-2.53631">
        <ele>30</ele>
        <time>2024-12-19T14:46:45Z</time>
      </trkpt>
      <trkpt lat="47.9367" lon="-2.53632">
        <ele>30</ele>
        <time>2024-12-19T14:46:46Z</time>
      </trkpt>
      <trkpt lat="47.93672" lon="-2.53633">
        <ele>30</ele>
        <time>2024-12-19T14:46:47Z</time>
      </trkpt>
      <trkpt lat="47.93673" lon="-2.53634">
        <ele>30</ele>
        <time>2024-12-19T14:46:48Z</time>
      </trkpt>
      <trkpt lat="47.93674" lon="-2.53635">
        <ele>30</ele>
        <time>2024-12-19T14:46:49Z</time>
      </trkpt>
      <trkpt lat="47.93675" lon="-2.53636">
        <ele>30</ele>
        <time>2024-12-19T14:46:50Z</time>
      </trkpt>
      <trkpt lat="47.93676" lon="-2.53637">
        <ele>30</ele>
        <time>2024-12-19T14:46:51Z</time>
      </trkpt>
      <trkpt lat="47.93677" lon="-2.53638">
        <ele>30</ele>
        <time>2024-12-19T14:46:52Z</time>
      </trkpt>
      <trkpt lat="47.93678" lon="-2.53638">
        <ele>30</ele>
        <time>2024-12-19T14:46:53Z</time>
      </trkpt>
      <trkpt lat="47.93679" lon="-2.53639">
        <ele>30</ele>
        <time>2024-12-19T14:46:54Z</time>
      </trkpt>
      <trkpt lat="47.9368" lon="-2.5364">
        <ele>30</ele>
        <time>2024-12-19T14:46:55Z</time>
      </trkpt>
      <trkpt lat="47.93681" lon="-2.5364">
        <ele>30</ele>
        <time>2024-12-19T14:46:56Z</time>
      </trkpt>
      <trkpt lat="47.93681" lon="-2.53641">
        <ele>30</ele>
        <time>2024-12-19T14:46:57Z</time>
      </trkpt>
      <trkpt lat="47.93682" lon="-2.53642">
        <ele>30</ele>
        <time>2024-12-19T14:46:58Z</time>
      </trkpt>
      <trkpt lat="47.93683" lon="-2.53644">
        <ele>30</ele>
        <time>2024-12-19T14:46:59Z</time>
      </trkpt>
      <trkpt lat="47.93684" lon="-2.53645">
        <ele>30</ele>
        <time>2024-12-19T14:47:00Z</time>
      </trkpt>
      <trkpt lat="47.93685" lon="-2.53646">
        <ele>30</ele>
        <time>2024-12-19T14:47:01Z</time>
      </trkpt>
      <trkpt lat="47.93686" lon="-2.53648">
        <ele>30</ele>
        <time>2024-12-19T14:47:02Z</time>
      </trkpt>
      <trkpt lat="47.93687" lon="-2.53649">
        <ele>30</ele>
        <time>2024-12-19T14:47:03Z</time>
      </trkpt>
      <trkpt lat="47.93688" lon="-2.5365">
        <ele>30</ele>
        <time>2024-12-19T14:47:04Z</time>
      </trkpt>
      <trkpt lat="47.93689" lon="-2.53651">
        <ele>30</ele>
        <time>2024-12-19T14:47:05Z</time>
      </trkpt>
      <trkpt lat="47.93689" lon="-2.53652">
        <ele>30</ele>
        <time>2024-12-19T14:47:06Z</time>
      </trkpt>
      <trkpt lat="47.9369" lon="-2.53653">
        <ele>30</ele>
        <time>2024-12-19T14:47:07Z</time>
      </trkpt>
      <trkpt lat="47.9369" lon="-2.53654">
        <ele>30</ele>
        <time>2024-12-19T14:47:08Z</time>
      </trkpt>
      <trkpt lat="47.93691" lon="-2.53655">
        <ele>30</ele>
        <time>2024-12-19T14:47:09Z</time>
      </trkpt>
      <trkpt lat="47.93692" lon="-2.53656">
        <ele>30</ele>
        <time>2024-12-19T14:47:10Z</time>
      </trkpt>
      <trkpt lat="47.93693" lon="-2.53657">
        <ele>30</ele>
        <time>2024-12-19T14:47:11Z</time>
      </trkpt>
      <trkpt lat="47.93693" lon="-2.53658">
        <ele>30</ele>
        <time>2024-12-19T14:47:12Z</time>
      </trkpt>
      <trkpt lat="47.93695" lon="-2.53659">
        <ele>30</ele>
        <time>2024-12-19T14:47:13Z</time>
      </trkpt>
      <trkpt lat="47.93696" lon="-2.53661">
        <ele>30</ele>
        <time>2024-12-19T14:47:14Z</time>
      </trkpt>
      <trkpt lat="47.93697" lon="-2.53661">
        <ele>30</ele>
        <time>2024-12-19T14:47:15Z</time>
      </trkpt>
      <trkpt lat="47.93698" lon="-2.53662">
        <ele>30</ele>
        <time>2024-12-19T14:47:16Z</time>
      </trkpt>
      <trkpt lat="47.937" lon="-2.53662">
        <ele>30</ele>
        <time>2024-12-19T14:47:17Z</time>
      </trkpt>
      <trkpt lat="47.93701" lon="-2.53663">
        <ele>30</ele>
        <time>2024-12-19T14:47:18Z</time>
      </trkpt>
      <trkpt lat="47.93702" lon="-2.53664">
        <ele>30</ele>
        <time>2024-12-19T14:47:19Z</time>
      </trkpt>
      <trkpt lat="47.93703" lon="-2.53665">
        <ele>30</ele>
        <time>2024-12-19T14:47:20Z</time>
      </trkpt>
      <trkpt lat="47.93704" lon="-2.53666">
        <ele>30</ele>
        <time>2024-12-19T14:47:21Z</time>
      </trkpt>
      <trkpt lat="47.93705" lon="-2.53667">
        <ele>30</ele>
        <time>2024-12-19T14:47:22Z</time>
      </trkpt>
      <trkpt lat="47.93706" lon="-2.53668">
        <ele>30</ele>
        <time>2024-12-19T14:47:23Z</time>
      </trkpt>
      <trkpt lat="47.93707" lon="-2.53668">
        <ele>30</ele>
        <time>2024-12-19T14:47:24Z</time>
      </trkpt>
      <trkpt lat="47.93708" lon="-2.5367">
        <ele>30</ele>
        <time>2024-12-19T14:47:25Z</time>
      </trkpt>
      <trkpt lat="47.93708" lon="-2.53671">
        <ele>30.1</ele>
        <time>2024-12-19T14:47:26Z</time>
      </trkpt>
      <trkpt lat="47.93709" lon="-2.53672">
        <ele>30.1</ele>
        <time>2024-12-19T14:47:27Z</time>
      </trkpt>
      <trkpt lat="47.9371" lon="-2.53673">
        <ele>30.1</ele>
        <time>2024-12-19T14:47:28Z</time>
      </trkpt>
      <trkpt lat="47.93712" lon="-2.53675">
        <ele>30.2</ele>
        <time>2024-12-19T14:47:29Z</time>
      </trkpt>
      <trkpt lat="47.93713" lon="-2.53676">
        <ele>30.2</ele>
        <time>2024-12-19T14:47:30Z</time>
      </trkpt>
      <trkpt lat="47.93714" lon="-2.53677">
        <ele>30.2</ele>
        <time>2024-12-19T14:47:31Z</time>
      </trkpt>
      <trkpt lat="47.93714" lon="-2.53677">
        <ele>30.3</ele>
        <time>2024-12-19T14:47:32Z</time>
      </trkpt>
      <trkpt lat="47.93715" lon="-2.53678">
        <ele>30.3</ele>
        <time>2024-12-19T14:47:33Z</time>
      </trkpt>
      <trkpt lat="47.93716" lon="-2.5368">
        <ele>30.4</ele>
        <time>2024-12-19T14:47:34Z</time>
      </trkpt>
      <trkpt lat="47.93717" lon="-2.53681">
        <ele>30.4</ele>
        <time>2024-12-19T14:47:35Z</time>
      </trkpt>
      <trkpt lat="47.93718" lon="-2.53682">
        <ele>30.5</ele>
        <time>2024-12-19T14:47:36Z</time>
      </trkpt>
      <trkpt lat="47.9372" lon="-2.53683">
        <ele>30.5</ele>
        <time>2024-12-19T14:47:37Z</time>
      </trkpt>
      <trkpt lat="47.9372" lon="-2.53684">
        <ele>30.6</ele>
        <time>2024-12-19T14:47:38Z</time>
      </trkpt>
      <trkpt lat="47.93721" lon="-2.53685">
        <ele>30.6</ele>
        <time>2024-12-19T14:47:39Z</time>
      </trkpt>
      <trkpt lat="47.93723" lon="-2.53686">
        <ele>30.7</ele>
        <time>2024-12-19T14:47:40Z</time>
      </trkpt>
      <trkpt lat="47.93724" lon="-2.53687">
        <ele>30.7</ele>
        <time>2024-12-19T14:47:41Z</time>
      </trkpt>
      <trkpt lat="47.93725" lon="-2.53688">
        <ele>30.7</ele>
        <time>2024-12-19T14:47:42Z</time>
      </trkpt>
      <trkpt lat="47.93726" lon="-2.53689">
        <ele>30.7</ele>
        <time>2024-12-19T14:47:43Z</time>
      </trkpt>
      <trkpt lat="47.93726" lon="-2.5369">
        <ele>30.7</ele>
        <time>2024-12-19T14:47:44Z</time>
      </trkpt>
      <trkpt lat="47.93726" lon="-2.53692">
        <ele>30.8</ele>
        <time>2024-12-19T14:47:45Z</time>
      </trkpt>
      <trkpt lat="47.93727" lon="-2.53693">
        <ele>30.8</ele>
        <time>2024-12-19T14:47:46Z</time>
      </trkpt>
      <trkpt lat="47.93727" lon="-2.53694">
        <ele>30.8</ele>
        <time>2024-12-19T14:47:47Z</time>
      </trkpt>
      <trkpt lat="47.93728" lon="-2.53695">
        <ele>30.8</ele>
        <time>2024-12-19T14:47:48Z</time>
      </trkpt>
      <trkpt lat="47.93729" lon="-2.53696">
        <ele>30.7</ele>
        <time>2024-12-19T14:47:49Z</time>
      </trkpt>
      <trkpt lat="47.93731" lon="-2.53697">
        <ele>30.7</ele>
        <time>2024-12-19T14:47:50Z</time>
      </trkpt>
      <trkpt lat="47.93732" lon="-2.53698">
        <ele>30.6</ele>
        <time>2024-12-19T14:47:51Z</time>
      </trkpt>
      <trkpt lat="47.93733" lon="-2.53699">
        <ele>30.6</ele>
        <time>2024-12-19T14:47:52Z</time>
      </trkpt>
      <trkpt lat="47.93734" lon="-2.537">
        <ele>30.5</ele>
        <time>2024-12-19T14:47:53Z</time>
      </trkpt>
      <trkpt lat="47.93735" lon="-2.53701">
        <ele>30.5</ele>
        <time>2024-12-19T14:47:54Z</time>
      </trkpt>
      <trkpt lat="47.93736" lon="-2.53702">
        <ele>30.5</ele>
        <time>2024-12-19T14:47:55Z</time>
      </trkpt>
      <trkpt lat="47.93737" lon="-2.53702">
        <ele>30.5</ele>
        <time>2024-12-19T14:47:56Z</time>
      </trkpt>
      <trkpt lat="47.93738" lon="-2.53702">
        <ele>30.5</ele>
        <time>2024-12-19T14:47:57Z</time>
      </trkpt>
      <trkpt lat="47.9374" lon="-2.53703">
        <ele>30.5</ele>
        <time>2024-12-19T14:47:58Z</time>
      </trkpt>
      <trkpt lat="47.93741" lon="-2.53704">
        <ele>30.4</ele>
        <time>2024-12-19T14:47:59Z</time>
      </trkpt>
      <trkpt lat="47.93743" lon="-2.53705">
        <ele>30.4</ele>
        <time>2024-12-19T14:48:00Z</time>
      </trkpt>
      <trkpt lat="47.93744" lon="-2.53706">
        <ele>30.4</ele>
        <time>2024-12-19T14:48:01Z</time>
      </trkpt>
      <trkpt lat="47.93746" lon="-2.53707">
        <ele>30.5</ele>
        <time>2024-12-19T14:48:02Z</time>
      </trkpt>
      <trkpt lat="47.93747" lon="-2.53708">
        <ele>30.5</ele>
        <time>2024-12-19T14:48:03Z</time>
      </trkpt>
      <trkpt lat="47.93748" lon="-2.53709">
        <ele>30.5</ele>
        <time>2024-12-19T14:48:04Z</time>
      </trkpt>
      <trkpt lat="47.93748" lon="-2.5371">
        <ele>30.5</ele>
        <time>2024-12-19T14:48:05Z</time>
      </trkpt>
      <trkpt lat="47.93749" lon="-2.53711">
        <ele>30.6</ele>
        <time>2024-12-19T14:48:06Z</time>
      </trkpt>
      <trkpt lat="47.9375" lon="-2.53712">
        <ele>30.6</ele>
        <time>2024-12-19T14:48:07Z</time>
      </trkpt>
      <trkpt lat="47.93751" lon="-2.53713">
        <ele>30.6</ele>
        <time>2024-12-19T14:48:08Z</time>
      </trkpt>
      <trkpt lat="47.93751" lon="-2.53714">
        <ele>30.7</ele>
        <time>2024-12-19T14:48:09Z</time>
      </trkpt>
      <trkpt lat="47.93751" lon="-2.53715">
        <ele>30.7</ele>
        <time>2024-12-19T14:48:10Z</time>
      </trkpt>
      <trkpt lat="47.93752" lon="-2.53716">
        <ele>30.7</ele>
        <time>2024-12-19T14:48:11Z</time>
      </trkpt>
      <trkpt lat="47.93753" lon="-2.53717">
        <ele>30.7</ele>
        <time>2024-12-19T14:48:12Z</time>
      </trkpt>
      <trkpt lat="47.93753" lon="-2.53718">
        <ele>30.7</ele>
        <time>2024-12-19T14:48:13Z</time>
      </trkpt>
      <trkpt lat="47.93754" lon="-2.53719">
        <ele>30.7</ele>
        <time>2024-12-19T14:48:14Z</time>
      </trkpt>
      <trkpt lat="47.93756" lon="-2.5372">
        <ele>30.7</ele>
        <time>2024-12-19T14:48:15Z</time>
      </trkpt>
      <trkpt lat="47.93757" lon="-2.53721">
        <ele>30.7</ele>
        <time>2024-12-19T14:48:16Z</time>
      </trkpt>
      <trkpt lat="47.93757" lon="-2.53722">
        <ele>30.7</ele>
        <time>2024-12-19T14:48:17Z</time>
      </trkpt>
      <trkpt lat="47.93758" lon="-2.53722">
        <ele>30.7</ele>
        <time>2024-12-19T14:48:18Z</time>
      </trkpt>
      <trkpt lat="47.93759" lon="-2.53723">
        <ele>30.6</ele>
        <time>2024-12-19T14:48:19Z</time>
      </trkpt>
      <trkpt lat="47.93761" lon="-2.53724">
        <ele>30.6</ele>
        <time>2024-12-19T14:48:20Z</time>
      </trkpt>
      <trkpt lat="47.93762" lon="-2.53725">
        <ele>30.5</ele>
        <time>2024-12-19T14:48:21Z</time>
      </trkpt>
      <trkpt lat="47.93763" lon="-2.53726">
        <ele>30.5</ele>
        <time>2024-12-19T14:48:22Z</time>
      </trkpt>
      <trkpt lat="47.93764" lon="-2.53727">
        <ele>30.4</ele>
        <time>2024-12-19T14:48:23Z</time>
      </trkpt>
      <trkpt lat="47.93765" lon="-2.53728">
        <ele>30.4</ele>
        <time>2024-12-19T14:48:24Z</time>
      </trkpt>
      <trkpt lat="47.93765" lon="-2.53729">
        <ele>30.3</ele>
        <time>2024-12-19T14:48:25Z</time>
      </trkpt>
      <trkpt lat="47.93766" lon="-2.5373">
        <ele>30.3</ele>
        <time>2024-12-19T14:48:26Z</time>
      </trkpt>
      <trkpt lat="47.93768" lon="-2.5373">
        <ele>30.3</ele>
        <time>2024-12-19T14:48:27Z</time>
      </trkpt>
      <trkpt lat="47.93769" lon="-2.53731">
        <ele>30.2</ele>
        <time>2024-12-19T14:48:28Z</time>
      </trkpt>
      <trkpt lat="47.9377" lon="-2.53732">
        <ele>30.2</ele>
        <time>2024-12-19T14:48:29Z</time>
      </trkpt>
      <trkpt lat="47.93771" lon="-2.53733">
        <ele>30.1</ele>
        <time>2024-12-19T14:48:30Z</time>
      </trkpt>
      <trkpt lat="47.93772" lon="-2.53734">
        <ele>30.1</ele>
        <time>2024-12-19T14:48:31Z</time>
      </trkpt>
      <trkpt lat="47.93773" lon="-2.53735">
        <ele>30.1</ele>
        <time>2024-12-19T14:48:32Z</time>
      </trkpt>
      <trkpt lat="47.93774" lon="-2.53736">
        <ele>30.1</ele>
        <time>2024-12-19T14:48:33Z</time>
      </trkpt>
      <trkpt lat="47.93774" lon="-2.53737">
        <ele>30.1</ele>
        <time>2024-12-19T14:48:34Z</time>
      </trkpt>
      <trkpt lat="47.93775" lon="-2.53738">
        <ele>30</ele>
        <time>2024-12-19T14:48:35Z</time>
      </trkpt>
      <trkpt lat="47.93775" lon="-2.53739">
        <ele>30</ele>
        <time>2024-12-19T14:48:36Z</time>
      </trkpt>
      <trkpt lat="47.93775" lon="-2.5374">
        <ele>30</ele>
        <time>2024-12-19T14:48:37Z</time>
      </trkpt>
      <trkpt lat="47.93776" lon="-2.53741">
        <ele>30</ele>
        <time>2024-12-19T14:48:38Z</time>
      </trkpt>
      <trkpt lat="47.93776" lon="-2.53742">
        <ele>30</ele>
        <time>2024-12-19T14:48:39Z</time>
      </trkpt>
      <trkpt lat="47.93776" lon="-2.53744">
        <ele>30</ele>
        <time>2024-12-19T14:48:40Z</time>
      </trkpt>
      <trkpt lat="47.93777" lon="-2.53745">
        <ele>30</ele>
        <time>2024-12-19T14:48:41Z</time>
      </trkpt>
      <trkpt lat="47.93778" lon="-2.53746">
        <ele>30</ele>
        <time>2024-12-19T14:48:42Z</time>
      </trkpt>
      <trkpt lat="47.93779" lon="-2.53747">
        <ele>30</ele>
        <time>2024-12-19T14:48:43Z</time>
      </trkpt>
      <trkpt lat="47.9378" lon="-2.53747">
        <ele>30</ele>
        <time>2024-12-19T14:48:44Z</time>
      </trkpt>
      <trkpt lat="47.9378" lon="-2.53748">
        <ele>30</ele>
        <time>2024-12-19T14:48:45Z</time>
      </trkpt>
      <trkpt lat="47.93781" lon="-2.53749">
        <ele>30</ele>
        <time>2024-12-19T14:48:46Z</time>
      </trkpt>
      <trkpt lat="47.93782" lon="-2.5375">
        <ele>30</ele>
        <time>2024-12-19T14:48:47Z</time>
      </trkpt>
      <trkpt lat="47.93783" lon="-2.53751">
        <ele>30</ele>
        <time>2024-12-19T14:48:48Z</time>
      </trkpt>
      <trkpt lat="47.93784" lon="-2.53751">
        <ele>30</ele>
        <time>2024-12-19T14:48:49Z</time>
      </trkpt>
      <trkpt lat="47.93785" lon="-2.53752">
        <ele>30</ele>
        <time>2024-12-19T14:48:50Z</time>
      </trkpt>
      <trkpt lat="47.93786" lon="-2.53752">
        <ele>30</ele>
        <time>2024-12-19T14:48:51Z</time>
      </trkpt>
      <trkpt lat="47.93787" lon="-2.53753">
        <ele>30</ele>
        <time>2024-12-19T14:48:52Z</time>
      </trkpt>
      <trkpt lat="47.93788" lon="-2.53754">
        <ele>30</ele>
        <time>2024-12-19T14:48:53Z</time>
      </trkpt>
      <trkpt lat="47.93788" lon="-2.53754">
        <ele>30.1</ele>
        <time>2024-12-19T14:48:54Z</time>
      </trkpt>
      <trkpt lat="47.93789" lon="-2.53755">
        <ele>30.1</ele>
        <time>2024-12-19T14:48:55Z</time>
      </trkpt>
      <trkpt lat="47.9379" lon="-2.53756">
        <ele>30.1</ele>
        <time>2024-12-19T14:48:56Z</time>
      </trkpt>
      <trkpt lat="47.9379" lon="-2.53757">
        <ele>30.1</ele>
        <time>2024-12-19T14:48:57Z</time>
      </trkpt>
      <trkpt lat="47.93792" lon="-2.53758">
        <ele>30.1</ele>
        <time>2024-12-19T14:48:58Z</time>
      </trkpt>
      <trkpt lat="47.93793" lon="-2.53759">
        <ele>30.2</ele>
        <time>2024-12-19T14:48:59Z</time>
      </trkpt>
      <trkpt lat="47.93794" lon="-2.5376">
        <ele>30.2</ele>
        <time>2024-12-19T14:49:00Z</time>
      </trkpt>
      <trkpt lat="47.93796" lon="-2.53761">
        <ele>30.3</ele>
        <time>2024-12-19T14:49:01Z</time>
      </trkpt>
      <trkpt lat="47.93797" lon="-2.53762">
        <ele>30.3</ele>
        <time>2024-12-19T14:49:02Z</time>
      </trkpt>
      <trkpt lat="47.93798" lon="-2.53764">
        <ele>30.4</ele>
        <time>2024-12-19T14:49:03Z</time>
      </trkpt>
      <trkpt lat="47.93799" lon="-2.53766">
        <ele>30.4</ele>
        <time>2024-12-19T14:49:04Z</time>
      </trkpt>
      <trkpt lat="47.938" lon="-2.53768">
        <ele>30.5</ele>
        <time>2024-12-19T14:49:05Z</time>
      </trkpt>
      <trkpt lat="47.938" lon="-2.53769">
        <ele>30.6</ele>
        <time>2024-12-19T14:49:06Z</time>
      </trkpt>
      <trkpt lat="47.93801" lon="-2.53772">
        <ele>30.6</ele>
        <time>2024-12-19T14:49:07Z</time>
      </trkpt>
      <trkpt lat="47.93802" lon="-2.53774">
        <ele>30.7</ele>
        <time>2024-12-19T14:49:08Z</time>
      </trkpt>
      <trkpt lat="47.93803" lon="-2.53775">
        <ele>30.8</ele>
        <time>2024-12-19T14:49:09Z</time>
      </trkpt>
      <trkpt lat="47.93804" lon="-2.53777">
        <ele>30.9</ele>
        <time>2024-12-19T14:49:10Z</time>
      </trkpt>
      <trkpt lat="47.93805" lon="-2.53778">
        <ele>30.9</ele>
        <time>2024-12-19T14:49:11Z</time>
      </trkpt>
      <trkpt lat="47.93806" lon="-2.5378">
        <ele>30.9</ele>
        <time>2024-12-19T14:49:12Z</time>
      </trkpt>
      <trkpt lat="47.93807" lon="-2.53781">
        <ele>30.8</ele>
        <time>2024-12-19T14:49:13Z</time>
      </trkpt>
      <trkpt lat="47.93808" lon="-2.53783">
        <ele>30.8</ele>
        <time>2024-12-19T14:49:14Z</time>
      </trkpt>
      <trkpt lat="47.93809" lon="-2.53784">
        <ele>30.7</ele>
        <time>2024-12-19T14:49:15Z</time>
      </trkpt>
      <trkpt lat="47.9381" lon="-2.53785">
        <ele>30.6</ele>
        <time>2024-12-19T14:49:16Z</time>
      </trkpt>
      <trkpt lat="47.93811" lon="-2.53786">
        <ele>30.6</ele>
        <time>2024-12-19T14:49:17Z</time>
      </trkpt>
      <trkpt lat="47.93812" lon="-2.53787">
        <ele>30.5</ele>
        <time>2024-12-19T14:49:18Z</time>
      </trkpt>
      <trkpt lat="47.93813" lon="-2.53788">
        <ele>30.5</ele>
        <time>2024-12-19T14:49:19Z</time>
      </trkpt>
      <trkpt lat="47.93814" lon="-2.53788">
        <ele>30.4</ele>
        <time>2024-12-19T14:49:20Z</time>
      </trkpt>
      <trkpt lat="47.93815" lon="-2.53789">
        <ele>30.4</ele>
        <time>2024-12-19T14:49:21Z</time>
      </trkpt>
      <trkpt lat="47.93816" lon="-2.53789">
        <ele>30.4</ele>
        <time>2024-12-19T14:49:22Z</time>
      </trkpt>
      <trkpt lat="47.93816" lon="-2.5379">
        <ele>30.3</ele>
        <time>2024-12-19T14:49:23Z</time>
      </trkpt>
      <trkpt lat="47.93817" lon="-2.53791">
        <ele>30.3</ele>
        <time>2024-12-19T14:49:24Z</time>
      </trkpt>
      <trkpt lat="47.93818" lon="-2.53792">
        <ele>30.3</ele>
        <time>2024-12-19T14:49:25Z</time>
      </trkpt>
      <trkpt lat="47.93819" lon="-2.53793">
        <ele>30.2</ele>
        <time>2024-12-19T14:49:26Z</time>
      </trkpt>
      <trkpt lat="47.93821" lon="-2.53795">
        <ele>30.2</ele>
        <time>2024-12-19T14:49:27Z</time>
      </trkpt>
      <trkpt lat="47.93822" lon="-2.53796">
        <ele>30.2</ele>
        <time>2024-12-19T14:49:28Z</time>
      </trkpt>
      <trkpt lat="47.93822" lon="-2.53797">
        <ele>30.1</ele>
        <time>2024-12-19T14:49:29Z</time>
      </trkpt>
      <trkpt lat="47.93823" lon="-2.53798">
        <ele>30.1</ele>
        <time>2024-12-19T14:49:30Z</time>
      </trkpt>
      <trkpt lat="47.93824" lon="-2.53799">
        <ele>30.1</ele>
        <time>2024-12-19T14:49:31Z</time>
      </trkpt>
      <trkpt lat="47.93825" lon="-2.538">
        <ele>30.1</ele>
        <time>2024-12-19T14:49:32Z</time>
      </trkpt>
      <trkpt lat="47.93827" lon="-2.53801">
        <ele>30</ele>
        <time>2024-12-19T14:49:33Z</time>
      </trkpt>
      <trkpt lat="47.93828" lon="-2.53802">
        <ele>30</ele>
        <time>2024-12-19T14:49:34Z</time>
      </trkpt>
      <trkpt lat="47.93829" lon="-2.53802">
        <ele>30</ele>
        <time>2024-12-19T14:49:35Z</time>
      </trkpt>
      <trkpt lat="47.9383" lon="-2.53803">
        <ele>30</ele>
        <time>2024-12-19T14:49:36Z</time>
      </trkpt>
      <trkpt lat="47.93831" lon="-2.53804">
        <ele>30</ele>
        <time>2024-12-19T14:49:37Z</time>
      </trkpt>
      <trkpt lat="47.93832" lon="-2.53805">
        <ele>30</ele>
        <time>2024-12-19T14:49:38Z</time>
      </trkpt>
      <trkpt lat="47.93833" lon="-2.53807">
        <ele>30</ele>
        <time>2024-12-19T14:49:39Z</time>
      </trkpt>
      <trkpt lat="47.93834" lon="-2.53809">
        <ele>29.9</ele>
        <time>2024-12-19T14:49:40Z</time>
      </trkpt>
      <trkpt lat="47.93835" lon="-2.5381">
        <ele>29.9</ele>
        <time>2024-12-19T14:49:41Z</time>
      </trkpt>
      <trkpt lat="47.93836" lon="-2.53811">
        <ele>29.8</ele>
        <time>2024-12-19T14:49:42Z</time>
      </trkpt>
      <trkpt lat="47.93837" lon="-2.53812">
        <ele>29.8</ele>
        <time>2024-12-19T14:49:43Z</time>
      </trkpt>
      <trkpt lat="47.93838" lon="-2.53813">
        <ele>29.8</ele>
        <time>2024-12-19T14:49:44Z</time>
      </trkpt>
      <trkpt lat="47.93839" lon="-2.53814">
        <ele>29.8</ele>
        <time>2024-12-19T14:49:45Z</time>
      </trkpt>
      <trkpt lat="47.9384" lon="-2.53814">
        <ele>29.8</ele>
        <time>2024-12-19T14:49:46Z</time>
      </trkpt>
      <trkpt lat="47.93841" lon="-2.53815">
        <ele>29.7</ele>
        <time>2024-12-19T14:49:47Z</time>
      </trkpt>
      <trkpt lat="47.93842" lon="-2.53816">
        <ele>29.7</ele>
        <time>2024-12-19T14:49:48Z</time>
      </trkpt>
      <trkpt lat="47.93843" lon="-2.53817">
        <ele>29.7</ele>
        <time>2024-12-19T14:49:49Z</time>
      </trkpt>
      <trkpt lat="47.93844" lon="-2.53817">
        <ele>29.7</ele>
        <time>2024-12-19T14:49:50Z</time>
      </trkpt>
      <trkpt lat="47.93845" lon="-2.53818">
        <ele>29.7</ele>
        <time>2024-12-19T14:49:51Z</time>
      </trkpt>
      <trkpt lat="47.93845" lon="-2.53819">
        <ele>29.7</ele>
        <time>2024-12-19T14:49:52Z</time>
      </trkpt>
      <trkpt lat="47.93846" lon="-2.53819">
        <ele>29.7</ele>
        <time>2024-12-19T14:49:53Z</time>
      </trkpt>
      <trkpt lat="47.93847" lon="-2.5382">
        <ele>29.7</ele>
        <time>2024-12-19T14:49:54Z</time>
      </trkpt>
      <trkpt lat="47.93848" lon="-2.5382">
        <ele>29.8</ele>
        <time>2024-12-19T14:49:55Z</time>
      </trkpt>
      <trkpt lat="47.93849" lon="-2.53821">
        <ele>29.8</ele>
        <time>2024-12-19T14:49:56Z</time>
      </trkpt>
      <trkpt lat="47.93851" lon="-2.53821">
        <ele>29.8</ele>
        <time>2024-12-19T14:49:57Z</time>
      </trkpt>
      <trkpt lat="47.93852" lon="-2.53822">
        <ele>29.8</ele>
        <time>2024-12-19T14:49:58Z</time>
      </trkpt>
      <trkpt lat="47.93853" lon="-2.53822">
        <ele>29.8</ele>
        <time>2024-12-19T14:49:59Z</time>
      </trkpt>
      <trkpt lat="47.93854" lon="-2.53822">
        <ele>29.8</ele>
        <time>2024-12-19T14:50:00Z</time>
      </trkpt>
      <trkpt lat="47.93855" lon="-2.53823">
        <ele>29.9</ele>
        <time>2024-12-19T14:50:01Z</time>
      </trkpt>
      <trkpt lat="47.93856" lon="-2.53822">
        <ele>29.9</ele>
        <time>2024-12-19T14:50:02Z</time>
      </trkpt>
      <trkpt lat="47.93856" lon="-2.53822">
        <ele>29.9</ele>
        <time>2024-12-19T14:50:03Z</time>
      </trkpt>
      <trkpt lat="47.93857" lon="-2.53823">
        <ele>29.9</ele>
        <time>2024-12-19T14:50:04Z</time>
      </trkpt>
      <trkpt lat="47.93858" lon="-2.53823">
        <ele>29.9</ele>
        <time>2024-12-19T14:50:05Z</time>
      </trkpt>
      <trkpt lat="47.9386" lon="-2.53824">
        <ele>30</ele>
        <time>2024-12-19T14:50:06Z</time>
      </trkpt>
      <trkpt lat="47.93861" lon="-2.53824">
        <ele>30</ele>
        <time>2024-12-19T14:50:07Z</time>
      </trkpt>
      <trkpt lat="47.93861" lon="-2.53824">
        <ele>30</ele>
        <time>2024-12-19T14:50:08Z</time>
      </trkpt>
      <trkpt lat="47.93862" lon="-2.53825">
        <ele>30</ele>
        <time>2024-12-19T14:50:09Z</time>
      </trkpt>
      <trkpt lat="47.93863" lon="-2.53825">
        <ele>30</ele>
        <time>2024-12-19T14:50:10Z</time>
      </trkpt>
      <trkpt lat="47.93864" lon="-2.53825">
        <ele>30</ele>
        <time>2024-12-19T14:50:11Z</time>
      </trkpt>
      <trkpt lat="47.93865" lon="-2.53825">
        <ele>30</ele>
        <time>2024-12-19T14:50:12Z</time>
      </trkpt>
      <trkpt lat="47.93867" lon="-2.53827">
        <ele>30</ele>
        <time>2024-12-19T14:50:14Z</time>
      </trkpt>
      <trkpt lat="47.93868" lon="-2.53827">
        <ele>30</ele>
        <time>2024-12-19T14:50:15Z</time>
      </trkpt>
      <trkpt lat="47.93869" lon="-2.53828">
        <ele>30</ele>
        <time>2024-12-19T14:50:16Z</time>
      </trkpt>
      <trkpt lat="47.93869" lon="-2.53828">
        <ele>30</ele>
        <time>2024-12-19T14:50:17Z</time>
      </trkpt>
      <trkpt lat="47.93869" lon="-2.53828">
        <ele>30</ele>
        <time>2024-12-19T14:50:18Z</time>
      </trkpt>
      <trkpt lat="47.9387" lon="-2.53828">
        <ele>30</ele>
        <time>2024-12-19T14:50:19Z</time>
      </trkpt>
      <trkpt lat="47.93871" lon="-2.53829">
        <ele>30</ele>
        <time>2024-12-19T14:50:20Z</time>
      </trkpt>
      <trkpt lat="47.93872" lon="-2.53829">
        <ele>30</ele>
        <time>2024-12-19T14:50:21Z</time>
      </trkpt>
      <trkpt lat="47.93874" lon="-2.5383">
        <ele>30</ele>
        <time>2024-12-19T14:50:22Z</time>
      </trkpt>
      <trkpt lat="47.93874" lon="-2.5383">
        <ele>30</ele>
        <time>2024-12-19T14:50:23Z</time>
      </trkpt>
      <trkpt lat="47.93875" lon="-2.53829">
        <ele>30</ele>
        <time>2024-12-19T14:50:24Z</time>
      </trkpt>
      <trkpt lat="47.93875" lon="-2.53829">
        <ele>30</ele>
        <time>2024-12-19T14:50:25Z</time>
      </trkpt>
      <trkpt lat="47.93876" lon="-2.53829">
        <ele>30</ele>
        <time>2024-12-19T14:50:26Z</time>
      </trkpt>
      <trkpt lat="47.93876" lon="-2.53829">
        <ele>30</ele>
        <time>2024-12-19T14:50:27Z</time>
      </trkpt>
      <trkpt lat="47.93877" lon="-2.53829">
        <ele>30</ele>
        <time>2024-12-19T14:50:28Z</time>
      </trkpt>
      <trkpt lat="47.93878" lon="-2.53829">
        <ele>30</ele>
        <time>2024-12-19T14:50:29Z</time>
      </trkpt>
      <trkpt lat="47.93879" lon="-2.5383">
        <ele>30</ele>
        <time>2024-12-19T14:50:30Z</time>
      </trkpt>
      <trkpt lat="47.9388" lon="-2.5383">
        <ele>30</ele>
        <time>2024-12-19T14:50:31Z</time>
      </trkpt>
      <trkpt lat="47.93881" lon="-2.53831">
        <ele>30</ele>
        <time>2024-12-19T14:50:32Z</time>
      </trkpt>
      <trkpt lat="47.93882" lon="-2.53832">
        <ele>30</ele>
        <time>2024-12-19T14:50:33Z</time>
      </trkpt>
      <trkpt lat="47.93883" lon="-2.53832">
        <ele>30</ele>
        <time>2024-12-19T14:50:34Z</time>
      </trkpt>
      <trkpt lat="47.93884" lon="-2.53833">
        <ele>30</ele>
        <time>2024-12-19T14:50:35Z</time>
      </trkpt>
      <trkpt lat="47.93884" lon="-2.53833">
        <ele>30</ele>
        <time>2024-12-19T14:50:36Z</time>
      </trkpt>
      <trkpt lat="47.93886" lon="-2.53833">
        <ele>30</ele>
        <time>2024-12-19T14:50:37Z</time>
      </trkpt>
      <trkpt lat="47.93887" lon="-2.53834">
        <ele>30</ele>
        <time>2024-12-19T14:50:38Z</time>
      </trkpt>
      <trkpt lat="47.93889" lon="-2.53834">
        <ele>30</ele>
        <time>2024-12-19T14:50:39Z</time>
      </trkpt>
      <trkpt lat="47.9389" lon="-2.53833">
        <ele>30</ele>
        <time>2024-12-19T14:50:40Z</time>
      </trkpt>
      <trkpt lat="47.93891" lon="-2.53832">
        <ele>30</ele>
        <time>2024-12-19T14:50:41Z</time>
      </trkpt>
      <trkpt lat="47.93892" lon="-2.53832">
        <ele>30</ele>
        <time>2024-12-19T14:50:42Z</time>
      </trkpt>
      <trkpt lat="47.93893" lon="-2.53832">
        <ele>30</ele>
        <time>2024-12-19T14:50:43Z</time>
      </trkpt>
      <trkpt lat="47.93894" lon="-2.53831">
        <ele>30</ele>
        <time>2024-12-19T14:50:44Z</time>
      </trkpt>
      <trkpt lat="47.93895" lon="-2.5383">
        <ele>30</ele>
        <time>2024-12-19T14:50:45Z</time>
      </trkpt>
      <trkpt lat="47.93895" lon="-2.5383">
        <ele>30</ele>
        <time>2024-12-19T14:50:46Z</time>
      </trkpt>
      <trkpt lat="47.93897" lon="-2.5383">
        <ele>30</ele>
        <time>2024-12-19T14:50:47Z</time>
      </trkpt>
      <trkpt lat="47.93898" lon="-2.5383">
        <ele>30</ele>
        <time>2024-12-19T14:50:48Z</time>
      </trkpt>
      <trkpt lat="47.93899" lon="-2.5383">
        <ele>30</ele>
        <time>2024-12-19T14:50:49Z</time>
      </trkpt>
      <trkpt lat="47.93899" lon="-2.5383">
        <ele>30</ele>
        <time>2024-12-19T14:50:50Z</time>
      </trkpt>
      <trkpt lat="47.939" lon="-2.5383">
        <ele>30</ele>
        <time>2024-12-19T14:50:51Z</time>
      </trkpt>
      <trkpt lat="47.93901" lon="-2.5383">
        <ele>30</ele>
        <time>2024-12-19T14:50:52Z</time>
      </trkpt>
      <trkpt lat="47.93903" lon="-2.53831">
        <ele>30</ele>
        <time>2024-12-19T14:50:53Z</time>
      </trkpt>
      <trkpt lat="47.93904" lon="-2.53832">
        <ele>30</ele>
        <time>2024-12-19T14:50:54Z</time>
      </trkpt>
      <trkpt lat="47.93906" lon="-2.53833">
        <ele>30</ele>
        <time>2024-12-19T14:50:55Z</time>
      </trkpt>
      <trkpt lat="47.93908" lon="-2.53833">
        <ele>30</ele>
        <time>2024-12-19T14:50:56Z</time>
      </trkpt>
      <trkpt lat="47.93909" lon="-2.53834">
        <ele>30</ele>
        <time>2024-12-19T14:50:57Z</time>
      </trkpt>
      <trkpt lat="47.9391" lon="-2.53834">
        <ele>30</ele>
        <time>2024-12-19T14:50:58Z</time>
      </trkpt>
      <trkpt lat="47.93911" lon="-2.53833">
        <ele>30</ele>
        <time>2024-12-19T14:50:59Z</time>
      </trkpt>
      <trkpt lat="47.93912" lon="-2.53833">
        <ele>30</ele>
        <time>2024-12-19T14:51:00Z</time>
      </trkpt>
      <trkpt lat="47.93912" lon="-2.53833">
        <ele>30</ele>
        <time>2024-12-19T14:51:01Z</time>
      </trkpt>
      <trkpt lat="47.93913" lon="-2.53833">
        <ele>30</ele>
        <time>2024-12-19T14:51:02Z</time>
      </trkpt>
      <trkpt lat="47.93915" lon="-2.53833">
        <ele>30</ele>
        <time>2024-12-19T14:51:03Z</time>
      </trkpt>
      <trkpt lat="47.93916" lon="-2.53833">
        <ele>30</ele>
        <time>2024-12-19T14:51:04Z</time>
      </trkpt>
      <trkpt lat="47.93918" lon="-2.53833">
        <ele>30</ele>
        <time>2024-12-19T14:51:05Z</time>
      </trkpt>
      <trkpt lat="47.93919" lon="-2.53833">
        <ele>30.1</ele>
        <time>2024-12-19T14:51:06Z</time>
      </trkpt>
      <trkpt lat="47.9392" lon="-2.53833">
        <ele>30.1</ele>
        <time>2024-12-19T14:51:07Z</time>
      </trkpt>
      <trkpt lat="47.93922" lon="-2.53834">
        <ele>30.2</ele>
        <time>2024-12-19T14:51:08Z</time>
      </trkpt>
      <trkpt lat="47.93922" lon="-2.53834">
        <ele>30.2</ele>
        <time>2024-12-19T14:51:09Z</time>
      </trkpt>
      <trkpt lat="47.93923" lon="-2.53834">
        <ele>30.2</ele>
        <time>2024-12-19T14:51:10Z</time>
      </trkpt>
      <trkpt lat="47.93923" lon="-2.53834">
        <ele>30.2</ele>
        <time>2024-12-19T14:51:11Z</time>
      </trkpt>
      <trkpt lat="47.93925" lon="-2.53834">
        <ele>30.3</ele>
        <time>2024-12-19T14:51:12Z</time>
      </trkpt>
      <trkpt lat="47.93926" lon="-2.53834">
        <ele>30.3</ele>
        <time>2024-12-19T14:51:13Z</time>
      </trkpt>
      <trkpt lat="47.93927" lon="-2.53834">
        <ele>30.4</ele>
        <time>2024-12-19T14:51:14Z</time>
      </trkpt>
      <trkpt lat="47.93929" lon="-2.53834">
        <ele>30.4</ele>
        <time>2024-12-19T14:51:15Z</time>
      </trkpt>
      <trkpt lat="47.93931" lon="-2.53834">
        <ele>30.5</ele>
        <time>2024-12-19T14:51:16Z</time>
      </trkpt>
      <trkpt lat="47.93933" lon="-2.53834">
        <ele>30.6</ele>
        <time>2024-12-19T14:51:17Z</time>
      </trkpt>
      <trkpt lat="47.93934" lon="-2.53834">
        <ele>30.6</ele>
        <time>2024-12-19T14:51:18Z</time>
      </trkpt>
      <trkpt lat="47.93935" lon="-2.53835">
        <ele>30.6</ele>
        <time>2024-12-19T14:51:19Z</time>
      </trkpt>
      <trkpt lat="47.93937" lon="-2.53836">
        <ele>30.7</ele>
        <time>2024-12-19T14:51:20Z</time>
      </trkpt>
      <trkpt lat="47.93939" lon="-2.53836">
        <ele>30.7</ele>
        <time>2024-12-19T14:51:21Z</time>
      </trkpt>
      <trkpt lat="47.93941" lon="-2.53836">
        <ele>30.8</ele>
        <time>2024-12-19T14:51:22Z</time>
      </trkpt>
      <trkpt lat="47.93942" lon="-2.53836">
        <ele>30.8</ele>
        <time>2024-12-19T14:51:23Z</time>
      </trkpt>
      <trkpt lat="47.93943" lon="-2.53836">
        <ele>30.8</ele>
        <time>2024-12-19T14:51:24Z</time>
      </trkpt>
      <trkpt lat="47.93944" lon="-2.53837">
        <ele>30.9</ele>
        <time>2024-12-19T14:51:25Z</time>
      </trkpt>
      <trkpt lat="47.93946" lon="-2.53837">
        <ele>30.9</ele>
        <time>2024-12-19T14:51:26Z</time>
      </trkpt>
      <trkpt lat="47.93947" lon="-2.53837">
        <ele>30.9</ele>
        <time>2024-12-19T14:51:27Z</time>
      </trkpt>
      <trkpt lat="47.93949" lon="-2.53837">
        <ele>30.9</ele>
        <time>2024-12-19T14:51:28Z</time>
      </trkpt>
      <trkpt lat="47.9395" lon="-2.53837">
        <ele>30.9</ele>
        <time>2024-12-19T14:51:29Z</time>
      </trkpt>
      <trkpt lat="47.93951" lon="-2.53837">
        <ele>30.9</ele>
        <time>2024-12-19T14:51:30Z</time>
      </trkpt>
      <trkpt lat="47.93952" lon="-2.53837">
        <ele>30.9</ele>
        <time>2024-12-19T14:51:31Z</time>
      </trkpt>
      <trkpt lat="47.93953" lon="-2.53836">
        <ele>30.9</ele>
        <time>2024-12-19T14:51:32Z</time>
      </trkpt>
      <trkpt lat="47.93953" lon="-2.53836">
        <ele>30.9</ele>
        <time>2024-12-19T14:51:33Z</time>
      </trkpt>
      <trkpt lat="47.93953" lon="-2.53836">
        <ele>30.9</ele>
        <time>2024-12-19T14:51:34Z</time>
      </trkpt>
      <trkpt lat="47.93954" lon="-2.53836">
        <ele>30.9</ele>
        <time>2024-12-19T14:51:35Z</time>
      </trkpt>
      <trkpt lat="47.93954" lon="-2.53836">
        <ele>30.9</ele>
        <time>2024-12-19T14:51:36Z</time>
      </trkpt>
      <trkpt lat="47.93954" lon="-2.53837">
        <ele>30.9</ele>
        <time>2024-12-19T14:51:37Z</time>
      </trkpt>
      <trkpt lat="47.93954" lon="-2.53837">
        <ele>30.9</ele>
        <time>2024-12-19T14:51:38Z</time>
      </trkpt>
      <trkpt lat="47.93954" lon="-2.53837">
        <ele>30.9</ele>
        <time>2024-12-19T14:51:39Z</time>
      </trkpt>
      <trkpt lat="47.93955" lon="-2.53837">
        <ele>30.9</ele>
        <time>2024-12-19T14:51:40Z</time>
      </trkpt>
      <trkpt lat="47.93956" lon="-2.53838">
        <ele>30.8</ele>
        <time>2024-12-19T14:51:41Z</time>
      </trkpt>
      <trkpt lat="47.93958" lon="-2.53838">
        <ele>30.8</ele>
        <time>2024-12-19T14:51:42Z</time>
      </trkpt>
      <trkpt lat="47.93959" lon="-2.53838">
        <ele>30.8</ele>
        <time>2024-12-19T14:51:43Z</time>
      </trkpt>
      <trkpt lat="47.9396" lon="-2.53838">
        <ele>30.8</ele>
        <time>2024-12-19T14:51:44Z</time>
      </trkpt>
      <trkpt lat="47.93961" lon="-2.53838">
        <ele>30.8</ele>
        <time>2024-12-19T14:51:45Z</time>
      </trkpt>
      <trkpt lat="47.93962" lon="-2.53838">
        <ele>30.8</ele>
        <time>2024-12-19T14:51:46Z</time>
      </trkpt>
      <trkpt lat="47.93963" lon="-2.53838">
        <ele>30.8</ele>
        <time>2024-12-19T14:51:47Z</time>
      </trkpt>
      <trkpt lat="47.93965" lon="-2.53839">
        <ele>30.8</ele>
        <time>2024-12-19T14:51:48Z</time>
      </trkpt>
      <trkpt lat="47.93966" lon="-2.53839">
        <ele>30.8</ele>
        <time>2024-12-19T14:51:49Z</time>
      </trkpt>
      <trkpt lat="47.93967" lon="-2.53839">
        <ele>30.8</ele>
        <time>2024-12-19T14:51:50Z</time>
      </trkpt>
      <trkpt lat="47.93968" lon="-2.5384">
        <ele>30.8</ele>
        <time>2024-12-19T14:51:51Z</time>
      </trkpt>
      <trkpt lat="47.9397" lon="-2.5384">
        <ele>30.8</ele>
        <time>2024-12-19T14:51:52Z</time>
      </trkpt>
      <trkpt lat="47.93971" lon="-2.5384">
        <ele>30.8</ele>
        <time>2024-12-19T14:51:53Z</time>
      </trkpt>
      <trkpt lat="47.93972" lon="-2.53839">
        <ele>30.8</ele>
        <time>2024-12-19T14:51:54Z</time>
      </trkpt>
      <trkpt lat="47.93972" lon="-2.53838">
        <ele>30.8</ele>
        <time>2024-12-19T14:51:55Z</time>
      </trkpt>
      <trkpt lat="47.93974" lon="-2.53838">
        <ele>30.9</ele>
        <time>2024-12-19T14:51:56Z</time>
      </trkpt>
      <trkpt lat="47.93976" lon="-2.53837">
        <ele>30.9</ele>
        <time>2024-12-19T14:51:57Z</time>
      </trkpt>
      <trkpt lat="47.93977" lon="-2.53837">
        <ele>30.9</ele>
        <time>2024-12-19T14:51:58Z</time>
      </trkpt>
      <trkpt lat="47.93978" lon="-2.53837">
        <ele>30.9</ele>
        <time>2024-12-19T14:51:59Z</time>
      </trkpt>
      <trkpt lat="47.9398" lon="-2.53837">
        <ele>30.9</ele>
        <time>2024-12-19T14:52:00Z</time>
      </trkpt>
      <trkpt lat="47.93981" lon="-2.53837">
        <ele>30.9</ele>
        <time>2024-12-19T14:52:01Z</time>
      </trkpt>
      <trkpt lat="47.93983" lon="-2.53837">
        <ele>30.9</ele>
        <time>2024-12-19T14:52:02Z</time>
      </trkpt>
      <trkpt lat="47.93984" lon="-2.53838">
        <ele>30.9</ele>
        <time>2024-12-19T14:52:03Z</time>
      </trkpt>
      <trkpt lat="47.93985" lon="-2.53838">
        <ele>30.8</ele>
        <time>2024-12-19T14:52:04Z</time>
      </trkpt>
      <trkpt lat="47.93987" lon="-2.53839">
        <ele>30.8</ele>
        <time>2024-12-19T14:52:05Z</time>
      </trkpt>
      <trkpt lat="47.93988" lon="-2.5384">
        <ele>30.8</ele>
        <time>2024-12-19T14:52:06Z</time>
      </trkpt>
      <trkpt lat="47.93989" lon="-2.53841">
        <ele>30.7</ele>
        <time>2024-12-19T14:52:07Z</time>
      </trkpt>
      <trkpt lat="47.9399" lon="-2.53841">
        <ele>30.7</ele>
        <time>2024-12-19T14:52:08Z</time>
      </trkpt>
      <trkpt lat="47.93991" lon="-2.53842">
        <ele>30.7</ele>
        <time>2024-12-19T14:52:09Z</time>
      </trkpt>
      <trkpt lat="47.93992" lon="-2.53843">
        <ele>30.7</ele>
        <time>2024-12-19T14:52:10Z</time>
      </trkpt>
      <trkpt lat="47.93992" lon="-2.53843">
        <ele>30.6</ele>
        <time>2024-12-19T14:52:11Z</time>
      </trkpt>
      <trkpt lat="47.93994" lon="-2.53844">
        <ele>30.6</ele>
        <time>2024-12-19T14:52:12Z</time>
      </trkpt>
      <trkpt lat="47.93995" lon="-2.53844">
        <ele>30.6</ele>
        <time>2024-12-19T14:52:13Z</time>
      </trkpt>
      <trkpt lat="47.93996" lon="-2.53845">
        <ele>30.6</ele>
        <time>2024-12-19T14:52:14Z</time>
      </trkpt>
      <trkpt lat="47.93997" lon="-2.53845">
        <ele>30.6</ele>
        <time>2024-12-19T14:52:15Z</time>
      </trkpt>
      <trkpt lat="47.93999" lon="-2.53846">
        <ele>30.6</ele>
        <time>2024-12-19T14:52:16Z</time>
      </trkpt>
      <trkpt lat="47.94" lon="-2.53846">
        <ele>30.5</ele>
        <time>2024-12-19T14:52:17Z</time>
      </trkpt>
      <trkpt lat="47.94002" lon="-2.53847">
        <ele>30.5</ele>
        <time>2024-12-19T14:52:18Z</time>
      </trkpt>
      <trkpt lat="47.94003" lon="-2.53847">
        <ele>30.5</ele>
        <time>2024-12-19T14:52:19Z</time>
      </trkpt>
      <trkpt lat="47.94004" lon="-2.53848">
        <ele>30.4</ele>
        <time>2024-12-19T14:52:20Z</time>
      </trkpt>
      <trkpt lat="47.94004" lon="-2.53849">
        <ele>30.4</ele>
        <time>2024-12-19T14:52:21Z</time>
      </trkpt>
      <trkpt lat="47.94006" lon="-2.5385">
        <ele>30.3</ele>
        <time>2024-12-19T14:52:22Z</time>
      </trkpt>
      <trkpt lat="47.94007" lon="-2.53851">
        <ele>30.3</ele>
        <time>2024-12-19T14:52:23Z</time>
      </trkpt>
      <trkpt lat="47.94008" lon="-2.53851">
        <ele>30.3</ele>
        <time>2024-12-19T14:52:24Z</time>
      </trkpt>
      <trkpt lat="47.9401" lon="-2.53852">
        <ele>30.2</ele>
        <time>2024-12-19T14:52:25Z</time>
      </trkpt>
      <trkpt lat="47.94011" lon="-2.53852">
        <ele>30.2</ele>
        <time>2024-12-19T14:52:26Z</time>
      </trkpt>
      <trkpt lat="47.94012" lon="-2.53852">
        <ele>30.2</ele>
        <time>2024-12-19T14:52:27Z</time>
      </trkpt>
      <trkpt lat="47.94013" lon="-2.53853">
        <ele>30.2</ele>
        <time>2024-12-19T14:52:28Z</time>
      </trkpt>
      <trkpt lat="47.94013" lon="-2.53854">
        <ele>30.1</ele>
        <time>2024-12-19T14:52:29Z</time>
      </trkpt>
      <trkpt lat="47.94013" lon="-2.53854">
        <ele>30.1</ele>
        <time>2024-12-19T14:52:30Z</time>
      </trkpt>
      <trkpt lat="47.94013" lon="-2.53854">
        <ele>30.1</ele>
        <time>2024-12-19T14:52:31Z</time>
      </trkpt>
      <trkpt lat="47.94014" lon="-2.53855">
        <ele>30.1</ele>
        <time>2024-12-19T14:52:32Z</time>
      </trkpt>
      <trkpt lat="47.94014" lon="-2.53855">
        <ele>30.1</ele>
        <time>2024-12-19T14:52:33Z</time>
      </trkpt>
      <trkpt lat="47.94016" lon="-2.53855">
        <ele>30.1</ele>
        <time>2024-12-19T14:52:34Z</time>
      </trkpt>
      <trkpt lat="47.94017" lon="-2.53855">
        <ele>30.1</ele>
        <time>2024-12-19T14:52:35Z</time>
      </trkpt>
      <trkpt lat="47.94018" lon="-2.53855">
        <ele>30.1</ele>
        <time>2024-12-19T14:52:36Z</time>
      </trkpt>
      <trkpt lat="47.9402" lon="-2.53855">
        <ele>30.1</ele>
        <time>2024-12-19T14:52:37Z</time>
      </trkpt>
      <trkpt lat="47.94022" lon="-2.53856">
        <ele>30</ele>
        <time>2024-12-19T14:52:38Z</time>
      </trkpt>
      <trkpt lat="47.94023" lon="-2.53857">
        <ele>30</ele>
        <time>2024-12-19T14:52:39Z</time>
      </trkpt>
      <trkpt lat="47.94024" lon="-2.53857">
        <ele>30</ele>
        <time>2024-12-19T14:52:40Z</time>
      </trkpt>
      <trkpt lat="47.94025" lon="-2.53857">
        <ele>30</ele>
        <time>2024-12-19T14:52:41Z</time>
      </trkpt>
      <trkpt lat="47.94026" lon="-2.53858">
        <ele>30</ele>
        <time>2024-12-19T14:52:42Z</time>
      </trkpt>
      <trkpt lat="47.94027" lon="-2.53858">
        <ele>30</ele>
        <time>2024-12-19T14:52:43Z</time>
      </trkpt>
      <trkpt lat="47.94028" lon="-2.53859">
        <ele>30</ele>
        <time>2024-12-19T14:52:44Z</time>
      </trkpt>
      <trkpt lat="47.9403" lon="-2.53859">
        <ele>30</ele>
        <time>2024-12-19T14:52:45Z</time>
      </trkpt>
      <trkpt lat="47.94031" lon="-2.5386">
        <ele>30</ele>
        <time>2024-12-19T14:52:46Z</time>
      </trkpt>
      <trkpt lat="47.94032" lon="-2.53861">
        <ele>30</ele>
        <time>2024-12-19T14:52:47Z</time>
      </trkpt>
      <trkpt lat="47.94034" lon="-2.53862">
        <ele>30</ele>
        <time>2024-12-19T14:52:48Z</time>
      </trkpt>
      <trkpt lat="47.94035" lon="-2.53863">
        <ele>30</ele>
        <time>2024-12-19T14:52:49Z</time>
      </trkpt>
      <trkpt lat="47.94036" lon="-2.53863">
        <ele>30</ele>
        <time>2024-12-19T14:52:50Z</time>
      </trkpt>
      <trkpt lat="47.94037" lon="-2.53865">
        <ele>30</ele>
        <time>2024-12-19T14:52:51Z</time>
      </trkpt>
      <trkpt lat="47.94039" lon="-2.53866">
        <ele>30</ele>
        <time>2024-12-19T14:52:52Z</time>
      </trkpt>
      <trkpt lat="47.9404" lon="-2.53867">
        <ele>30</ele>
        <time>2024-12-19T14:52:53Z</time>
      </trkpt>
      <trkpt lat="47.94041" lon="-2.53867">
        <ele>30</ele>
        <time>2024-12-19T14:52:54Z</time>
      </trkpt>
      <trkpt lat="47.94042" lon="-2.53868">
        <ele>30</ele>
        <time>2024-12-19T14:52:55Z</time>
      </trkpt>
      <trkpt lat="47.94044" lon="-2.53868">
        <ele>30</ele>
        <time>2024-12-19T14:52:56Z</time>
      </trkpt>
      <trkpt lat="47.94044" lon="-2.53869">
        <ele>30</ele>
        <time>2024-12-19T14:52:57Z</time>
      </trkpt>
      <trkpt lat="47.94045" lon="-2.5387">
        <ele>30</ele>
        <time>2024-12-19T14:52:58Z</time>
      </trkpt>
      <trkpt lat="47.94046" lon="-2.53871">
        <ele>30</ele>
        <time>2024-12-19T14:52:59Z</time>
      </trkpt>
      <trkpt lat="47.94047" lon="-2.53872">
        <ele>30</ele>
        <time>2024-12-19T14:53:00Z</time>
      </trkpt>
      <trkpt lat="47.94049" lon="-2.53872">
        <ele>30</ele>
        <time>2024-12-19T14:53:01Z</time>
      </trkpt>
      <trkpt lat="47.9405" lon="-2.53873">
        <ele>30</ele>
        <time>2024-12-19T14:53:02Z</time>
      </trkpt>
      <trkpt lat="47.94051" lon="-2.53873">
        <ele>30</ele>
        <time>2024-12-19T14:53:03Z</time>
      </trkpt>
      <trkpt lat="47.94052" lon="-2.53874">
        <ele>30</ele>
        <time>2024-12-19T14:53:04Z</time>
      </trkpt>
      <trkpt lat="47.94053" lon="-2.53874">
        <ele>30</ele>
        <time>2024-12-19T14:53:05Z</time>
      </trkpt>
      <trkpt lat="47.94054" lon="-2.53875">
        <ele>30</ele>
        <time>2024-12-19T14:53:06Z</time>
      </trkpt>
      <trkpt lat="47.94056" lon="-2.53876">
        <ele>30</ele>
        <time>2024-12-19T14:53:07Z</time>
      </trkpt>
      <trkpt lat="47.94057" lon="-2.53876">
        <ele>30</ele>
        <time>2024-12-19T14:53:08Z</time>
      </trkpt>
      <trkpt lat="47.94059" lon="-2.53876">
        <ele>30</ele>
        <time>2024-12-19T14:53:09Z</time>
      </trkpt>
      <trkpt lat="47.9406" lon="-2.53876">
        <ele>30</ele>
        <time>2024-12-19T14:53:10Z</time>
      </trkpt>
      <trkpt lat="47.9406" lon="-2.53876">
        <ele>30</ele>
        <time>2024-12-19T14:53:11Z</time>
      </trkpt>
      <trkpt lat="47.94062" lon="-2.53877">
        <ele>30</ele>
        <time>2024-12-19T14:53:12Z</time>
      </trkpt>
      <trkpt lat="47.94063" lon="-2.53877">
        <ele>30</ele>
        <time>2024-12-19T14:53:13Z</time>
      </trkpt>
      <trkpt lat="47.94065" lon="-2.53878">
        <ele>30</ele>
        <time>2024-12-19T14:53:14Z</time>
      </trkpt>
      <trkpt lat="47.94066" lon="-2.53878">
        <ele>30</ele>
        <time>2024-12-19T14:53:15Z</time>
      </trkpt>
      <trkpt lat="47.94066" lon="-2.53879">
        <ele>30</ele>
        <time>2024-12-19T14:53:16Z</time>
      </trkpt>
      <trkpt lat="47.94067" lon="-2.53879">
        <ele>30</ele>
        <time>2024-12-19T14:53:17Z</time>
      </trkpt>
      <trkpt lat="47.94069" lon="-2.5388">
        <ele>30</ele>
        <time>2024-12-19T14:53:18Z</time>
      </trkpt>
      <trkpt lat="47.9407" lon="-2.5388">
        <ele>30</ele>
        <time>2024-12-19T14:53:19Z</time>
      </trkpt>
      <trkpt lat="47.94071" lon="-2.53881">
        <ele>30</ele>
        <time>2024-12-19T14:53:20Z</time>
      </trkpt>
      <trkpt lat="47.94071" lon="-2.53881">
        <ele>30</ele>
        <time>2024-12-19T14:53:21Z</time>
      </trkpt>
      <trkpt lat="47.94072" lon="-2.53882">
        <ele>30</ele>
        <time>2024-12-19T14:53:22Z</time>
      </trkpt>
      <trkpt lat="47.94073" lon="-2.53883">
        <ele>30</ele>
        <time>2024-12-19T14:53:23Z</time>
      </trkpt>
      <trkpt lat="47.94074" lon="-2.53883">
        <ele>30</ele>
        <time>2024-12-19T14:53:24Z</time>
      </trkpt>
      <trkpt lat="47.94075" lon="-2.53884">
        <ele>30</ele>
        <time>2024-12-19T14:53:25Z</time>
      </trkpt>
      <trkpt lat="47.94076" lon="-2.53884">
        <ele>30</ele>
        <time>2024-12-19T14:53:26Z</time>
      </trkpt>
      <trkpt lat="47.94076" lon="-2.53884">
        <ele>30</ele>
        <time>2024-12-19T14:53:27Z</time>
      </trkpt>
      <trkpt lat="47.94078" lon="-2.53885">
        <ele>30</ele>
        <time>2024-12-19T14:53:28Z</time>
      </trkpt>
      <trkpt lat="47.94079" lon="-2.53886">
        <ele>30</ele>
        <time>2024-12-19T14:53:29Z</time>
      </trkpt>
      <trkpt lat="47.9408" lon="-2.53887">
        <ele>30</ele>
        <time>2024-12-19T14:53:30Z</time>
      </trkpt>
      <trkpt lat="47.94082" lon="-2.53888">
        <ele>30</ele>
        <time>2024-12-19T14:53:31Z</time>
      </trkpt>
      <trkpt lat="47.94083" lon="-2.53889">
        <ele>30</ele>
        <time>2024-12-19T14:53:32Z</time>
      </trkpt>
      <trkpt lat="47.94085" lon="-2.5389">
        <ele>30</ele>
        <time>2024-12-19T14:53:33Z</time>
      </trkpt>
      <trkpt lat="47.94086" lon="-2.5389">
        <ele>30</ele>
        <time>2024-12-19T14:53:34Z</time>
      </trkpt>
      <trkpt lat="47.94087" lon="-2.53891">
        <ele>30</ele>
        <time>2024-12-19T14:53:35Z</time>
      </trkpt>
      <trkpt lat="47.94087" lon="-2.53891">
        <ele>30</ele>
        <time>2024-12-19T14:53:36Z</time>
      </trkpt>
      <trkpt lat="47.94088" lon="-2.53892">
        <ele>30</ele>
        <time>2024-12-19T14:53:37Z</time>
      </trkpt>
      <trkpt lat="47.94089" lon="-2.53892">
        <ele>30</ele>
        <time>2024-12-19T14:53:38Z</time>
      </trkpt>
      <trkpt lat="47.94089" lon="-2.53892">
        <ele>30</ele>
        <time>2024-12-19T14:53:39Z</time>
      </trkpt>
      <trkpt lat="47.9409" lon="-2.53892">
        <ele>30</ele>
        <time>2024-12-19T14:53:40Z</time>
      </trkpt>
      <trkpt lat="47.94092" lon="-2.53892">
        <ele>30</ele>
        <time>2024-12-19T14:53:41Z</time>
      </trkpt>
      <trkpt lat="47.94092" lon="-2.53892">
        <ele>30</ele>
        <time>2024-12-19T14:53:42Z</time>
      </trkpt>
      <trkpt lat="47.94093" lon="-2.53893">
        <ele>30</ele>
        <time>2024-12-19T14:53:43Z</time>
      </trkpt>
      <trkpt lat="47.94094" lon="-2.53894">
        <ele>30</ele>
        <time>2024-12-19T14:53:44Z</time>
      </trkpt>
      <trkpt lat="47.94096" lon="-2.53895">
        <ele>30</ele>
        <time>2024-12-19T14:53:45Z</time>
      </trkpt>
      <trkpt lat="47.94097" lon="-2.53896">
        <ele>30</ele>
        <time>2024-12-19T14:53:46Z</time>
      </trkpt>
      <trkpt lat="47.94099" lon="-2.53896">
        <ele>30</ele>
        <time>2024-12-19T14:53:47Z</time>
      </trkpt>
      <trkpt lat="47.94101" lon="-2.53897">
        <ele>30</ele>
        <time>2024-12-19T14:53:48Z</time>
      </trkpt>
      <trkpt lat="47.94102" lon="-2.53898">
        <ele>30</ele>
        <time>2024-12-19T14:53:49Z</time>
      </trkpt>
      <trkpt lat="47.94103" lon="-2.53899">
        <ele>30</ele>
        <time>2024-12-19T14:53:50Z</time>
      </trkpt>
      <trkpt lat="47.94105" lon="-2.539">
        <ele>30</ele>
        <time>2024-12-19T14:53:51Z</time>
      </trkpt>
      <trkpt lat="47.94106" lon="-2.53901">
        <ele>30</ele>
        <time>2024-12-19T14:53:52Z</time>
      </trkpt>
      <trkpt lat="47.94108" lon="-2.53903">
        <ele>30</ele>
        <time>2024-12-19T14:53:53Z</time>
      </trkpt>
      <trkpt lat="47.94109" lon="-2.53903">
        <ele>30</ele>
        <time>2024-12-19T14:53:54Z</time>
      </trkpt>
      <trkpt lat="47.9411" lon="-2.53903">
        <ele>30</ele>
        <time>2024-12-19T14:53:55Z</time>
      </trkpt>
      <trkpt lat="47.94111" lon="-2.53904">
        <ele>30</ele>
        <time>2024-12-19T14:53:56Z</time>
      </trkpt>
      <trkpt lat="47.94112" lon="-2.53904">
        <ele>30</ele>
        <time>2024-12-19T14:53:57Z</time>
      </trkpt>
      <trkpt lat="47.94114" lon="-2.53905">
        <ele>30</ele>
        <time>2024-12-19T14:53:58Z</time>
      </trkpt>
      <trkpt lat="47.94115" lon="-2.53905">
        <ele>30</ele>
        <time>2024-12-19T14:53:59Z</time>
      </trkpt>
      <trkpt lat="47.94117" lon="-2.53905">
        <ele>30</ele>
        <time>2024-12-19T14:54:00Z</time>
      </trkpt>
      <trkpt lat="47.94118" lon="-2.53906">
        <ele>30</ele>
        <time>2024-12-19T14:54:01Z</time>
      </trkpt>
      <trkpt lat="47.9412" lon="-2.53907">
        <ele>30</ele>
        <time>2024-12-19T14:54:02Z</time>
      </trkpt>
      <trkpt lat="47.94122" lon="-2.53907">
        <ele>30</ele>
        <time>2024-12-19T14:54:03Z</time>
      </trkpt>
      <trkpt lat="47.94124" lon="-2.53908">
        <ele>30</ele>
        <time>2024-12-19T14:54:04Z</time>
      </trkpt>
      <trkpt lat="47.94126" lon="-2.53909">
        <ele>30</ele>
        <time>2024-12-19T14:54:05Z</time>
      </trkpt>
      <trkpt lat="47.94127" lon="-2.53909">
        <ele>30</ele>
        <time>2024-12-19T14:54:06Z</time>
      </trkpt>
      <trkpt lat="47.94128" lon="-2.5391">
        <ele>30</ele>
        <time>2024-12-19T14:54:07Z</time>
      </trkpt>
      <trkpt lat="47.9413" lon="-2.53911">
        <ele>30</ele>
        <time>2024-12-19T14:54:08Z</time>
      </trkpt>
      <trkpt lat="47.94132" lon="-2.53911">
        <ele>30</ele>
        <time>2024-12-19T14:54:09Z</time>
      </trkpt>
      <trkpt lat="47.94133" lon="-2.53912">
        <ele>30</ele>
        <time>2024-12-19T14:54:10Z</time>
      </trkpt>
      <trkpt lat="47.94134" lon="-2.53913">
        <ele>30</ele>
        <time>2024-12-19T14:54:11Z</time>
      </trkpt>
      <trkpt lat="47.94135" lon="-2.53914">
        <ele>30</ele>
        <time>2024-12-19T14:54:12Z</time>
      </trkpt>
      <trkpt lat="47.94136" lon="-2.53915">
        <ele>30</ele>
        <time>2024-12-19T14:54:13Z</time>
      </trkpt>
      <trkpt lat="47.94136" lon="-2.53916">
        <ele>30</ele>
        <time>2024-12-19T14:54:14Z</time>
      </trkpt>
      <trkpt lat="47.94137" lon="-2.53917">
        <ele>30</ele>
        <time>2024-12-19T14:54:15Z</time>
      </trkpt>
      <trkpt lat="47.94138" lon="-2.53919">
        <ele>30</ele>
        <time>2024-12-19T14:54:16Z</time>
      </trkpt>
      <trkpt lat="47.94139" lon="-2.53919">
        <ele>30</ele>
        <time>2024-12-19T14:54:17Z</time>
      </trkpt>
      <trkpt lat="47.94141" lon="-2.5392">
        <ele>30</ele>
        <time>2024-12-19T14:54:18Z</time>
      </trkpt>
      <trkpt lat="47.94142" lon="-2.53921">
        <ele>30</ele>
        <time>2024-12-19T14:54:19Z</time>
      </trkpt>
      <trkpt lat="47.94143" lon="-2.53922">
        <ele>30</ele>
        <time>2024-12-19T14:54:20Z</time>
      </trkpt>
      <trkpt lat="47.94144" lon="-2.53922">
        <ele>30</ele>
        <time>2024-12-19T14:54:21Z</time>
      </trkpt>
      <trkpt lat="47.94145" lon="-2.53923">
        <ele>30</ele>
        <time>2024-12-19T14:54:22Z</time>
      </trkpt>
      <trkpt lat="47.94147" lon="-2.53923">
        <ele>30</ele>
        <time>2024-12-19T14:54:23Z</time>
      </trkpt>
      <trkpt lat="47.94148" lon="-2.53923">
        <ele>30</ele>
        <time>2024-12-19T14:54:24Z</time>
      </trkpt>
      <trkpt lat="47.94149" lon="-2.53924">
        <ele>30</ele>
        <time>2024-12-19T14:54:25Z</time>
      </trkpt>
      <trkpt lat="47.94151" lon="-2.53924">
        <ele>30</ele>
        <time>2024-12-19T14:54:26Z</time>
      </trkpt>
      <trkpt lat="47.94152" lon="-2.53924">
        <ele>30</ele>
        <time>2024-12-19T14:54:27Z</time>
      </trkpt>
      <trkpt lat="47.94154" lon="-2.53924">
        <ele>30</ele>
        <time>2024-12-19T14:54:28Z</time>
      </trkpt>
      <trkpt lat="47.94156" lon="-2.53924">
        <ele>30</ele>
        <time>2024-12-19T14:54:29Z</time>
      </trkpt>
      <trkpt lat="47.94157" lon="-2.53925">
        <ele>30</ele>
        <time>2024-12-19T14:54:30Z</time>
      </trkpt>
      <trkpt lat="47.94159" lon="-2.53926">
        <ele>30</ele>
        <time>2024-12-19T14:54:31Z</time>
      </trkpt>
      <trkpt lat="47.9416" lon="-2.53926">
        <ele>30</ele>
        <time>2024-12-19T14:54:32Z</time>
      </trkpt>
      <trkpt lat="47.94162" lon="-2.53927">
        <ele>30</ele>
        <time>2024-12-19T14:54:33Z</time>
      </trkpt>
      <trkpt lat="47.94163" lon="-2.53927">
        <ele>30</ele>
        <time>2024-12-19T14:54:34Z</time>
      </trkpt>
      <trkpt lat="47.94165" lon="-2.53928">
        <ele>30</ele>
        <time>2024-12-19T14:54:35Z</time>
      </trkpt>
      <trkpt lat="47.94167" lon="-2.53928">
        <ele>30</ele>
        <time>2024-12-19T14:54:36Z</time>
      </trkpt>
      <trkpt lat="47.94168" lon="-2.53928">
        <ele>30</ele>
        <time>2024-12-19T14:54:37Z</time>
      </trkpt>
      <trkpt lat="47.94169" lon="-2.53929">
        <ele>30</ele>
        <time>2024-12-19T14:54:38Z</time>
      </trkpt>
      <trkpt lat="47.94169" lon="-2.53929">
        <ele>30</ele>
        <time>2024-12-19T14:54:39Z</time>
      </trkpt>
      <trkpt lat="47.9417" lon="-2.5393">
        <ele>30</ele>
        <time>2024-12-19T14:54:40Z</time>
      </trkpt>
      <trkpt lat="47.94172" lon="-2.5393">
        <ele>30</ele>
        <time>2024-12-19T14:54:41Z</time>
      </trkpt>
      <trkpt lat="47.94173" lon="-2.53931">
        <ele>30</ele>
        <time>2024-12-19T14:54:42Z</time>
      </trkpt>
      <trkpt lat="47.94175" lon="-2.53932">
        <ele>30</ele>
        <time>2024-12-19T14:54:43Z</time>
      </trkpt>
      <trkpt lat="47.94177" lon="-2.53933">
        <ele>30</ele>
        <time>2024-12-19T14:54:44Z</time>
      </trkpt>
      <trkpt lat="47.94178" lon="-2.53933">
        <ele>30</ele>
        <time>2024-12-19T14:54:45Z</time>
      </trkpt>
      <trkpt lat="47.94179" lon="-2.53934">
        <ele>30</ele>
        <time>2024-12-19T14:54:46Z</time>
      </trkpt>
      <trkpt lat="47.9418" lon="-2.53934">
        <ele>30</ele>
        <time>2024-12-19T14:54:47Z</time>
      </trkpt>
      <trkpt lat="47.94181" lon="-2.53935">
        <ele>30</ele>
        <time>2024-12-19T14:54:48Z</time>
      </trkpt>
      <trkpt lat="47.94182" lon="-2.53936">
        <ele>30</ele>
        <time>2024-12-19T14:54:49Z</time>
      </trkpt>
      <trkpt lat="47.94183" lon="-2.53937">
        <ele>30</ele>
        <time>2024-12-19T14:54:50Z</time>
      </trkpt>
      <trkpt lat="47.94183" lon="-2.53938">
        <ele>30</ele>
        <time>2024-12-19T14:54:51Z</time>
      </trkpt>
      <trkpt lat="47.94184" lon="-2.53938">
        <ele>30</ele>
        <time>2024-12-19T14:54:52Z</time>
      </trkpt>
      <trkpt lat="47.94185" lon="-2.53938">
        <ele>30</ele>
        <time>2024-12-19T14:54:53Z</time>
      </trkpt>
      <trkpt lat="47.94186" lon="-2.53939">
        <ele>30</ele>
        <time>2024-12-19T14:54:54Z</time>
      </trkpt>
      <trkpt lat="47.94187" lon="-2.53939">
        <ele>30</ele>
        <time>2024-12-19T14:54:55Z</time>
      </trkpt>
      <trkpt lat="47.94188" lon="-2.53939">
        <ele>30</ele>
        <time>2024-12-19T14:54:56Z</time>
      </trkpt>
      <trkpt lat="47.94189" lon="-2.5394">
        <ele>30</ele>
        <time>2024-12-19T14:54:57Z</time>
      </trkpt>
      <trkpt lat="47.9419" lon="-2.53941">
        <ele>30</ele>
        <time>2024-12-19T14:54:58Z</time>
      </trkpt>
      <trkpt lat="47.94192" lon="-2.53941">
        <ele>30</ele>
        <time>2024-12-19T14:54:59Z</time>
      </trkpt>
      <trkpt lat="47.94193" lon="-2.53942">
        <ele>30</ele>
        <time>2024-12-19T14:55:00Z</time>
      </trkpt>
      <trkpt lat="47.94194" lon="-2.53941">
        <ele>30</ele>
        <time>2024-12-19T14:55:01Z</time>
      </trkpt>
      <trkpt lat="47.94195" lon="-2.53941">
        <ele>30</ele>
        <time>2024-12-19T14:55:02Z</time>
      </trkpt>
      <trkpt lat="47.94196" lon="-2.53941">
        <ele>30</ele>
        <time>2024-12-19T14:55:03Z</time>
      </trkpt>
      <trkpt lat="47.94198" lon="-2.53942">
        <ele>30</ele>
        <time>2024-12-19T14:55:04Z</time>
      </trkpt>
      <trkpt lat="47.94199" lon="-2.53943">
        <ele>30</ele>
        <time>2024-12-19T14:55:05Z</time>
      </trkpt>
      <trkpt lat="47.942" lon="-2.53944">
        <ele>30</ele>
        <time>2024-12-19T14:55:06Z</time>
      </trkpt>
      <trkpt lat="47.94201" lon="-2.53944">
        <ele>30</ele>
        <time>2024-12-19T14:55:07Z</time>
      </trkpt>
      <trkpt lat="47.94202" lon="-2.53944">
        <ele>30</ele>
        <time>2024-12-19T14:55:08Z</time>
      </trkpt>
      <trkpt lat="47.94204" lon="-2.53945">
        <ele>30</ele>
        <time>2024-12-19T14:55:09Z</time>
      </trkpt>
      <trkpt lat="47.94205" lon="-2.53946">
        <ele>30</ele>
        <time>2024-12-19T14:55:10Z</time>
      </trkpt>
      <trkpt lat="47.94207" lon="-2.53946">
        <ele>30</ele>
        <time>2024-12-19T14:55:11Z</time>
      </trkpt>
      <trkpt lat="47.94208" lon="-2.53946">
        <ele>30</ele>
        <time>2024-12-19T14:55:12Z</time>
      </trkpt>
      <trkpt lat="47.94209" lon="-2.53947">
        <ele>30</ele>
        <time>2024-12-19T14:55:13Z</time>
      </trkpt>
      <trkpt lat="47.9421" lon="-2.53947">
        <ele>30</ele>
        <time>2024-12-19T14:55:14Z</time>
      </trkpt>
      <trkpt lat="47.94212" lon="-2.53948">
        <ele>30</ele>
        <time>2024-12-19T14:55:15Z</time>
      </trkpt>
      <trkpt lat="47.94213" lon="-2.53948">
        <ele>30</ele>
        <time>2024-12-19T14:55:16Z</time>
      </trkpt>
      <trkpt lat="47.94214" lon="-2.53949">
        <ele>30</ele>
        <time>2024-12-19T14:55:17Z</time>
      </trkpt>
      <trkpt lat="47.94215" lon="-2.53949">
        <ele>30</ele>
        <time>2024-12-19T14:55:18Z</time>
      </trkpt>
      <trkpt lat="47.94216" lon="-2.53949">
        <ele>30</ele>
        <time>2024-12-19T14:55:19Z</time>
      </trkpt>
      <trkpt lat="47.94216" lon="-2.53949">
        <ele>30</ele>
        <time>2024-12-19T14:55:20Z</time>
      </trkpt>
      <trkpt lat="47.94217" lon="-2.5395">
        <ele>30</ele>
        <time>2024-12-19T14:55:21Z</time>
      </trkpt>
      <trkpt lat="47.94219" lon="-2.53951">
        <ele>30</ele>
        <time>2024-12-19T14:55:22Z</time>
      </trkpt>
      <trkpt lat="47.94219" lon="-2.53951">
        <ele>30</ele>
        <time>2024-12-19T14:55:23Z</time>
      </trkpt>
      <trkpt lat="47.9422" lon="-2.53951">
        <ele>30</ele>
        <time>2024-12-19T14:55:24Z</time>
      </trkpt>
      <trkpt lat="47.94221" lon="-2.53952">
        <ele>30</ele>
        <time>2024-12-19T14:55:25Z</time>
      </trkpt>
      <trkpt lat="47.94222" lon="-2.53953">
        <ele>30</ele>
        <time>2024-12-19T14:55:26Z</time>
      </trkpt>
      <trkpt lat="47.94223" lon="-2.53954">
        <ele>30</ele>
        <time>2024-12-19T14:55:27Z</time>
      </trkpt>
      <trkpt lat="47.94224" lon="-2.53954">
        <ele>30</ele>
        <time>2024-12-19T14:55:28Z</time>
      </trkpt>
      <trkpt lat="47.94223" lon="-2.53955">
        <ele>30</ele>
        <time>2024-12-19T14:55:29Z</time>
      </trkpt>
      <trkpt lat="47.94224" lon="-2.53955">
        <ele>30</ele>
        <time>2024-12-19T14:55:30Z</time>
      </trkpt>
      <trkpt lat="47.94225" lon="-2.53956">
        <ele>30</ele>
        <time>2024-12-19T14:55:31Z</time>
      </trkpt>
      <trkpt lat="47.94225" lon="-2.53956">
        <ele>30</ele>
        <time>2024-12-19T14:55:32Z</time>
      </trkpt>
      <trkpt lat="47.94226" lon="-2.53957">
        <ele>30</ele>
        <time>2024-12-19T14:55:33Z</time>
      </trkpt>
      <trkpt lat="47.94227" lon="-2.53957">
        <ele>30</ele>
        <time>2024-12-19T14:55:34Z</time>
      </trkpt>
      <trkpt lat="47.94228" lon="-2.53957">
        <ele>30</ele>
        <time>2024-12-19T14:55:35Z</time>
      </trkpt>
      <trkpt lat="47.9423" lon="-2.53957">
        <ele>30</ele>
        <time>2024-12-19T14:55:36Z</time>
      </trkpt>
      <trkpt lat="47.94231" lon="-2.53957">
        <ele>30</ele>
        <time>2024-12-19T14:55:37Z</time>
      </trkpt>
      <trkpt lat="47.94231" lon="-2.53957">
        <ele>30</ele>
        <time>2024-12-19T14:55:38Z</time>
      </trkpt>
      <trkpt lat="47.94232" lon="-2.53958">
        <ele>30</ele>
        <time>2024-12-19T14:55:39Z</time>
      </trkpt>
      <trkpt lat="47.94233" lon="-2.53958">
        <ele>30</ele>
        <time>2024-12-19T14:55:40Z</time>
      </trkpt>
      <trkpt lat="47.94235" lon="-2.53959">
        <ele>30</ele>
        <time>2024-12-19T14:55:41Z</time>
      </trkpt>
      <trkpt lat="47.94237" lon="-2.53959">
        <ele>30</ele>
        <time>2024-12-19T14:55:42Z</time>
      </trkpt>
      <trkpt lat="47.94239" lon="-2.5396">
        <ele>30</ele>
        <time>2024-12-19T14:55:43Z</time>
      </trkpt>
      <trkpt lat="47.9424" lon="-2.5396">
        <ele>30</ele>
        <time>2024-12-19T14:55:44Z</time>
      </trkpt>
      <trkpt lat="47.94241" lon="-2.5396">
        <ele>30</ele>
        <time>2024-12-19T14:55:45Z</time>
      </trkpt>
      <trkpt lat="47.94242" lon="-2.53961">
        <ele>30</ele>
        <time>2024-12-19T14:55:46Z</time>
      </trkpt>
      <trkpt lat="47.94243" lon="-2.53962">
        <ele>30</ele>
        <time>2024-12-19T14:55:47Z</time>
      </trkpt>
      <trkpt lat="47.94244" lon="-2.53963">
        <ele>30</ele>
        <time>2024-12-19T14:55:48Z</time>
      </trkpt>
      <trkpt lat="47.94245" lon="-2.53963">
        <ele>30</ele>
        <time>2024-12-19T14:55:49Z</time>
      </trkpt>
      <trkpt lat="47.94246" lon="-2.53963">
        <ele>30</ele>
        <time>2024-12-19T14:55:50Z</time>
      </trkpt>
      <trkpt lat="47.94247" lon="-2.53964">
        <ele>30</ele>
        <time>2024-12-19T14:55:51Z</time>
      </trkpt>
      <trkpt lat="47.94247" lon="-2.53964">
        <ele>30</ele>
        <time>2024-12-19T14:55:52Z</time>
      </trkpt>
      <trkpt lat="47.94248" lon="-2.53965">
        <ele>30</ele>
        <time>2024-12-19T14:55:53Z</time>
      </trkpt>
      <trkpt lat="47.94249" lon="-2.53966">
        <ele>30</ele>
        <time>2024-12-19T14:55:54Z</time>
      </trkpt>
      <trkpt lat="47.9425" lon="-2.53966">
        <ele>30</ele>
        <time>2024-12-19T14:55:55Z</time>
      </trkpt>
      <trkpt lat="47.94251" lon="-2.53967">
        <ele>30</ele>
        <time>2024-12-19T14:55:56Z</time>
      </trkpt>
      <trkpt lat="47.94252" lon="-2.53967">
        <ele>30.1</ele>
        <time>2024-12-19T14:55:57Z</time>
      </trkpt>
      <trkpt lat="47.94253" lon="-2.53967">
        <ele>30.1</ele>
        <time>2024-12-19T14:55:58Z</time>
      </trkpt>
      <trkpt lat="47.94254" lon="-2.53967">
        <ele>30.1</ele>
        <time>2024-12-19T14:55:59Z</time>
      </trkpt>
      <trkpt lat="47.94256" lon="-2.53968">
        <ele>30.2</ele>
        <time>2024-12-19T14:56:00Z</time>
      </trkpt>
      <trkpt lat="47.94257" lon="-2.53968">
        <ele>30.2</ele>
        <time>2024-12-19T14:56:01Z</time>
      </trkpt>
      <trkpt lat="47.94258" lon="-2.53969">
        <ele>30.3</ele>
        <time>2024-12-19T14:56:02Z</time>
      </trkpt>
      <trkpt lat="47.94259" lon="-2.53969">
        <ele>30.3</ele>
        <time>2024-12-19T14:56:03Z</time>
      </trkpt>
      <trkpt lat="47.94261" lon="-2.5397">
        <ele>30.3</ele>
        <time>2024-12-19T14:56:04Z</time>
      </trkpt>
      <trkpt lat="47.94262" lon="-2.53971">
        <ele>30.4</ele>
        <time>2024-12-19T14:56:05Z</time>
      </trkpt>
      <trkpt lat="47.94263" lon="-2.53972">
        <ele>30.5</ele>
        <time>2024-12-19T14:56:06Z</time>
      </trkpt>
      <trkpt lat="47.94264" lon="-2.53972">
        <ele>30.5</ele>
        <time>2024-12-19T14:56:07Z</time>
      </trkpt>
      <trkpt lat="47.94265" lon="-2.53972">
        <ele>30.6</ele>
        <time>2024-12-19T14:56:08Z</time>
      </trkpt>
      <trkpt lat="47.94266" lon="-2.53973">
        <ele>30.6</ele>
        <time>2024-12-19T14:56:09Z</time>
      </trkpt>
      <trkpt lat="47.94267" lon="-2.53973">
        <ele>30.6</ele>
        <time>2024-12-19T14:56:10Z</time>
      </trkpt>
      <trkpt lat="47.94268" lon="-2.53974">
        <ele>30.6</ele>
        <time>2024-12-19T14:56:11Z</time>
      </trkpt>
      <trkpt lat="47.94269" lon="-2.53975">
        <ele>30.6</ele>
        <time>2024-12-19T14:56:12Z</time>
      </trkpt>
      <trkpt lat="47.94271" lon="-2.53976">
        <ele>30.6</ele>
        <time>2024-12-19T14:56:13Z</time>
      </trkpt>
      <trkpt lat="47.94272" lon="-2.53977">
        <ele>30.7</ele>
        <time>2024-12-19T14:56:14Z</time>
      </trkpt>
      <trkpt lat="47.94273" lon="-2.53977">
        <ele>30.7</ele>
        <time>2024-12-19T14:56:15Z</time>
      </trkpt>
      <trkpt lat="47.94274" lon="-2.53978">
        <ele>30.7</ele>
        <time>2024-12-19T14:56:16Z</time>
      </trkpt>
      <trkpt lat="47.94276" lon="-2.53978">
        <ele>30.7</ele>
        <time>2024-12-19T14:56:17Z</time>
      </trkpt>
      <trkpt lat="47.94277" lon="-2.53978">
        <ele>30.8</ele>
        <time>2024-12-19T14:56:18Z</time>
      </trkpt>
      <trkpt lat="47.94278" lon="-2.53979">
        <ele>30.8</ele>
        <time>2024-12-19T14:56:19Z</time>
      </trkpt>
      <trkpt lat="47.94279" lon="-2.53979">
        <ele>30.7</ele>
        <time>2024-12-19T14:56:20Z</time>
      </trkpt>
      <trkpt lat="47.94279" lon="-2.53979">
        <ele>30.7</ele>
        <time>2024-12-19T14:56:21Z</time>
      </trkpt>
      <trkpt lat="47.9428" lon="-2.53979">
        <ele>30.7</ele>
        <time>2024-12-19T14:56:22Z</time>
      </trkpt>
      <trkpt lat="47.94281" lon="-2.53979">
        <ele>30.7</ele>
        <time>2024-12-19T14:56:23Z</time>
      </trkpt>
      <trkpt lat="47.94283" lon="-2.53979">
        <ele>30.6</ele>
        <time>2024-12-19T14:56:24Z</time>
      </trkpt>
      <trkpt lat="47.94285" lon="-2.53979">
        <ele>30.6</ele>
        <time>2024-12-19T14:56:25Z</time>
      </trkpt>
      <trkpt lat="47.94286" lon="-2.53979">
        <ele>30.5</ele>
        <time>2024-12-19T14:56:26Z</time>
      </trkpt>
      <trkpt lat="47.94287" lon="-2.53978">
        <ele>30.5</ele>
        <time>2024-12-19T14:56:27Z</time>
      </trkpt>
      <trkpt lat="47.94288" lon="-2.53978">
        <ele>30.5</ele>
        <time>2024-12-19T14:56:28Z</time>
      </trkpt>
      <trkpt lat="47.94289" lon="-2.53978">
        <ele>30.5</ele>
        <time>2024-12-19T14:56:29Z</time>
      </trkpt>
      <trkpt lat="47.94291" lon="-2.53979">
        <ele>30.4</ele>
        <time>2024-12-19T14:56:30Z</time>
      </trkpt>
      <trkpt lat="47.94293" lon="-2.53979">
        <ele>30.3</ele>
        <time>2024-12-19T14:56:31Z</time>
      </trkpt>
      <trkpt lat="47.94294" lon="-2.53979">
        <ele>30.3</ele>
        <time>2024-12-19T14:56:32Z</time>
      </trkpt>
      <trkpt lat="47.94295" lon="-2.53979">
        <ele>30.3</ele>
        <time>2024-12-19T14:56:33Z</time>
      </trkpt>
      <trkpt lat="47.94297" lon="-2.53979">
        <ele>30.2</ele>
        <time>2024-12-19T14:56:34Z</time>
      </trkpt>
      <trkpt lat="47.94298" lon="-2.53979">
        <ele>30.2</ele>
        <time>2024-12-19T14:56:35Z</time>
      </trkpt>
      <trkpt lat="47.94299" lon="-2.53979">
        <ele>30.2</ele>
        <time>2024-12-19T14:56:36Z</time>
      </trkpt>
      <trkpt lat="47.943" lon="-2.5398">
        <ele>30.1</ele>
        <time>2024-12-19T14:56:37Z</time>
      </trkpt>
      <trkpt lat="47.94302" lon="-2.5398">
        <ele>30.1</ele>
        <time>2024-12-19T14:56:38Z</time>
      </trkpt>
      <trkpt lat="47.94303" lon="-2.53981">
        <ele>30.1</ele>
        <time>2024-12-19T14:56:39Z</time>
      </trkpt>
      <trkpt lat="47.94305" lon="-2.53981">
        <ele>30</ele>
        <time>2024-12-19T14:56:40Z</time>
      </trkpt>
      <trkpt lat="47.94306" lon="-2.53982">
        <ele>30</ele>
        <time>2024-12-19T14:56:41Z</time>
      </trkpt>
      <trkpt lat="47.94308" lon="-2.53982">
        <ele>30.1</ele>
        <time>2024-12-19T14:56:42Z</time>
      </trkpt>
      <trkpt lat="47.94309" lon="-2.53983">
        <ele>30.1</ele>
        <time>2024-12-19T14:56:43Z</time>
      </trkpt>
      <trkpt lat="47.9431" lon="-2.53983">
        <ele>30.1</ele>
        <time>2024-12-19T14:56:44Z</time>
      </trkpt>
      <trkpt lat="47.94312" lon="-2.53984">
        <ele>30.1</ele>
        <time>2024-12-19T14:56:45Z</time>
      </trkpt>
      <trkpt lat="47.94313" lon="-2.53985">
        <ele>30.1</ele>
        <time>2024-12-19T14:56:46Z</time>
      </trkpt>
      <trkpt lat="47.94314" lon="-2.53986">
        <ele>30.1</ele>
        <time>2024-12-19T14:56:47Z</time>
      </trkpt>
      <trkpt lat="47.94315" lon="-2.53987">
        <ele>30.2</ele>
        <time>2024-12-19T14:56:48Z</time>
      </trkpt>
      <trkpt lat="47.94316" lon="-2.53987">
        <ele>30.2</ele>
        <time>2024-12-19T14:56:49Z</time>
      </trkpt>
      <trkpt lat="47.94317" lon="-2.53988">
        <ele>30.2</ele>
        <time>2024-12-19T14:56:50Z</time>
      </trkpt>
      <trkpt lat="47.94317" lon="-2.53989">
        <ele>30.2</ele>
        <time>2024-12-19T14:56:51Z</time>
      </trkpt>
      <trkpt lat="47.94318" lon="-2.53989">
        <ele>30.2</ele>
        <time>2024-12-19T14:56:52Z</time>
      </trkpt>
      <trkpt lat="47.9432" lon="-2.5399">
        <ele>30.2</ele>
        <time>2024-12-19T14:56:53Z</time>
      </trkpt>
      <trkpt lat="47.94321" lon="-2.5399">
        <ele>30.2</ele>
        <time>2024-12-19T14:56:54Z</time>
      </trkpt>
      <trkpt lat="47.94322" lon="-2.5399">
        <ele>30.2</ele>
        <time>2024-12-19T14:56:55Z</time>
      </trkpt>
      <trkpt lat="47.94323" lon="-2.53991">
        <ele>30.2</ele>
        <time>2024-12-19T14:56:56Z</time>
      </trkpt>
      <trkpt lat="47.94324" lon="-2.53991">
        <ele>30.2</ele>
        <time>2024-12-19T14:56:57Z</time>
      </trkpt>
      <trkpt lat="47.94326" lon="-2.53992">
        <ele>30.2</ele>
        <time>2024-12-19T14:56:58Z</time>
      </trkpt>
      <trkpt lat="47.94326" lon="-2.53992">
        <ele>30.2</ele>
        <time>2024-12-19T14:56:59Z</time>
      </trkpt>
      <trkpt lat="47.94327" lon="-2.53992">
        <ele>30.2</ele>
        <time>2024-12-19T14:57:00Z</time>
      </trkpt>
      <trkpt lat="47.94329" lon="-2.53992">
        <ele>30.2</ele>
        <time>2024-12-19T14:57:01Z</time>
      </trkpt>
      <trkpt lat="47.9433" lon="-2.53992">
        <ele>30.3</ele>
        <time>2024-12-19T14:57:02Z</time>
      </trkpt>
      <trkpt lat="47.94332" lon="-2.53992">
        <ele>30.3</ele>
        <time>2024-12-19T14:57:03Z</time>
      </trkpt>
      <trkpt lat="47.94332" lon="-2.53992">
        <ele>30.3</ele>
        <time>2024-12-19T14:57:04Z</time>
      </trkpt>
      <trkpt lat="47.94334" lon="-2.53991">
        <ele>30.3</ele>
        <time>2024-12-19T14:57:05Z</time>
      </trkpt>
      <trkpt lat="47.94335" lon="-2.53991">
        <ele>30.3</ele>
        <time>2024-12-19T14:57:06Z</time>
      </trkpt>
      <trkpt lat="47.94336" lon="-2.53992">
        <ele>30.3</ele>
        <time>2024-12-19T14:57:07Z</time>
      </trkpt>
      <trkpt lat="47.94338" lon="-2.53992">
        <ele>30.3</ele>
        <time>2024-12-19T14:57:08Z</time>
      </trkpt>
      <trkpt lat="47.94339" lon="-2.53992">
        <ele>30.4</ele>
        <time>2024-12-19T14:57:09Z</time>
      </trkpt>
      <trkpt lat="47.9434" lon="-2.53993">
        <ele>30.4</ele>
        <time>2024-12-19T14:57:10Z</time>
      </trkpt>
      <trkpt lat="47.94341" lon="-2.53993">
        <ele>30.4</ele>
        <time>2024-12-19T14:57:11Z</time>
      </trkpt>
      <trkpt lat="47.94342" lon="-2.53993">
        <ele>30.4</ele>
        <time>2024-12-19T14:57:12Z</time>
      </trkpt>
      <trkpt lat="47.94343" lon="-2.53993">
        <ele>30.4</ele>
        <time>2024-12-19T14:57:13Z</time>
      </trkpt>
      <trkpt lat="47.94344" lon="-2.53994">
        <ele>30.4</ele>
        <time>2024-12-19T14:57:14Z</time>
      </trkpt>
      <trkpt lat="47.94345" lon="-2.53994">
        <ele>30.4</ele>
        <time>2024-12-19T14:57:15Z</time>
      </trkpt>
      <trkpt lat="47.94345" lon="-2.53996">
        <ele>30.4</ele>
        <time>2024-12-19T14:57:16Z</time>
      </trkpt>
      <trkpt lat="47.94345" lon="-2.53996">
        <ele>30.4</ele>
        <time>2024-12-19T14:57:17Z</time>
      </trkpt>
      <trkpt lat="47.94346" lon="-2.53997">
        <ele>30.5</ele>
        <time>2024-12-19T14:57:18Z</time>
      </trkpt>
      <trkpt lat="47.94346" lon="-2.53998">
        <ele>30.5</ele>
        <time>2024-12-19T14:57:19Z</time>
      </trkpt>
      <trkpt lat="47.94348" lon="-2.53999">
        <ele>30.5</ele>
        <time>2024-12-19T14:57:20Z</time>
      </trkpt>
      <trkpt lat="47.94349" lon="-2.53999">
        <ele>30.6</ele>
        <time>2024-12-19T14:57:21Z</time>
      </trkpt>
      <trkpt lat="47.9435" lon="-2.53999">
        <ele>30.6</ele>
        <time>2024-12-19T14:57:22Z</time>
      </trkpt>
      <trkpt lat="47.94351" lon="-2.53999">
        <ele>30.6</ele>
        <time>2024-12-19T14:57:23Z</time>
      </trkpt>
      <trkpt lat="47.94352" lon="-2.53999">
        <ele>30.7</ele>
        <time>2024-12-19T14:57:24Z</time>
      </trkpt>
      <trkpt lat="47.94353" lon="-2.53999">
        <ele>30.7</ele>
        <time>2024-12-19T14:57:25Z</time>
      </trkpt>
      <trkpt lat="47.94354" lon="-2.53999">
        <ele>30.7</ele>
        <time>2024-12-19T14:57:26Z</time>
      </trkpt>
      <trkpt lat="47.94355" lon="-2.54">
        <ele>30.8</ele>
        <time>2024-12-19T14:57:27Z</time>
      </trkpt>
      <trkpt lat="47.94356" lon="-2.54">
        <ele>30.8</ele>
        <time>2024-12-19T14:57:28Z</time>
      </trkpt>
      <trkpt lat="47.94357" lon="-2.54">
        <ele>30.9</ele>
        <time>2024-12-19T14:57:29Z</time>
      </trkpt>
      <trkpt lat="47.94359" lon="-2.54">
        <ele>30.9</ele>
        <time>2024-12-19T14:57:30Z</time>
      </trkpt>
      <trkpt lat="47.9436" lon="-2.54">
        <ele>31</ele>
        <time>2024-12-19T14:57:31Z</time>
      </trkpt>
      <trkpt lat="47.94362" lon="-2.54">
        <ele>31</ele>
        <time>2024-12-19T14:57:32Z</time>
      </trkpt>
      <trkpt lat="47.94363" lon="-2.54">
        <ele>31</ele>
        <time>2024-12-19T14:57:33Z</time>
      </trkpt>
      <trkpt lat="47.94364" lon="-2.54">
        <ele>31</ele>
        <time>2024-12-19T14:57:34Z</time>
      </trkpt>
      <trkpt lat="47.94364" lon="-2.54">
        <ele>31</ele>
        <time>2024-12-19T14:57:35Z</time>
      </trkpt>
      <trkpt lat="47.94366" lon="-2.54001">
        <ele>31</ele>
        <time>2024-12-19T14:57:36Z</time>
      </trkpt>
      <trkpt lat="47.94368" lon="-2.54002">
        <ele>30.9</ele>
        <time>2024-12-19T14:57:37Z</time>
      </trkpt>
      <trkpt lat="47.94369" lon="-2.54003">
        <ele>30.9</ele>
        <time>2024-12-19T14:57:38Z</time>
      </trkpt>
      <trkpt lat="47.9437" lon="-2.54003">
        <ele>30.9</ele>
        <time>2024-12-19T14:57:39Z</time>
      </trkpt>
      <trkpt lat="47.94371" lon="-2.54004">
        <ele>30.9</ele>
        <time>2024-12-19T14:57:40Z</time>
      </trkpt>
      <trkpt lat="47.94372" lon="-2.54004">
        <ele>30.9</ele>
        <time>2024-12-19T14:57:41Z</time>
      </trkpt>
      <trkpt lat="47.94373" lon="-2.54004">
        <ele>30.8</ele>
        <time>2024-12-19T14:57:42Z</time>
      </trkpt>
      <trkpt lat="47.94374" lon="-2.54005">
        <ele>30.8</ele>
        <time>2024-12-19T14:57:43Z</time>
      </trkpt>
      <trkpt lat="47.94375" lon="-2.54006">
        <ele>30.8</ele>
        <time>2024-12-19T14:57:44Z</time>
      </trkpt>
      <trkpt lat="47.94376" lon="-2.54007">
        <ele>30.8</ele>
        <time>2024-12-19T14:57:45Z</time>
      </trkpt>
      <trkpt lat="47.94378" lon="-2.54007">
        <ele>30.7</ele>
        <time>2024-12-19T14:57:46Z</time>
      </trkpt>
      <trkpt lat="47.94379" lon="-2.54008">
        <ele>30.7</ele>
        <time>2024-12-19T14:57:47Z</time>
      </trkpt>
      <trkpt lat="47.9438" lon="-2.54008">
        <ele>30.7</ele>
        <time>2024-12-19T14:57:48Z</time>
      </trkpt>
      <trkpt lat="47.94381" lon="-2.54008">
        <ele>30.7</ele>
        <time>2024-12-19T14:57:49Z</time>
      </trkpt>
      <trkpt lat="47.94382" lon="-2.54009">
        <ele>30.7</ele>
        <time>2024-12-19T14:57:50Z</time>
      </trkpt>
      <trkpt lat="47.94383" lon="-2.54009">
        <ele>30.7</ele>
        <time>2024-12-19T14:57:51Z</time>
      </trkpt>
      <trkpt lat="47.94385" lon="-2.54009">
        <ele>30.7</ele>
        <time>2024-12-19T14:57:52Z</time>
      </trkpt>
      <trkpt lat="47.94386" lon="-2.5401">
        <ele>30.7</ele>
        <time>2024-12-19T14:57:53Z</time>
      </trkpt>
      <trkpt lat="47.94387" lon="-2.5401">
        <ele>30.6</ele>
        <time>2024-12-19T14:57:54Z</time>
      </trkpt>
      <trkpt lat="47.94388" lon="-2.54011">
        <ele>30.6</ele>
        <time>2024-12-19T14:57:55Z</time>
      </trkpt>
      <trkpt lat="47.94389" lon="-2.54011">
        <ele>30.6</ele>
        <time>2024-12-19T14:57:56Z</time>
      </trkpt>
      <trkpt lat="47.9439" lon="-2.54012">
        <ele>30.6</ele>
        <time>2024-12-19T14:57:57Z</time>
      </trkpt>
      <trkpt lat="47.94391" lon="-2.54013">
        <ele>30.5</ele>
        <time>2024-12-19T14:57:58Z</time>
      </trkpt>
      <trkpt lat="47.94392" lon="-2.54013">
        <ele>30.5</ele>
        <time>2024-12-19T14:57:59Z</time>
      </trkpt>
      <trkpt lat="47.94393" lon="-2.54013">
        <ele>30.5</ele>
        <time>2024-12-19T14:58:00Z</time>
      </trkpt>
      <trkpt lat="47.94395" lon="-2.54013">
        <ele>30.5</ele>
        <time>2024-12-19T14:58:01Z</time>
      </trkpt>
      <trkpt lat="47.94396" lon="-2.54014">
        <ele>30.5</ele>
        <time>2024-12-19T14:58:02Z</time>
      </trkpt>
      <trkpt lat="47.94397" lon="-2.54014">
        <ele>30.5</ele>
        <time>2024-12-19T14:58:03Z</time>
      </trkpt>
      <trkpt lat="47.94398" lon="-2.54015">
        <ele>30.5</ele>
        <time>2024-12-19T14:58:04Z</time>
      </trkpt>
      <trkpt lat="47.94399" lon="-2.54015">
        <ele>30.5</ele>
        <time>2024-12-19T14:58:05Z</time>
      </trkpt>
      <trkpt lat="47.944" lon="-2.54016">
        <ele>30.4</ele>
        <time>2024-12-19T14:58:06Z</time>
      </trkpt>
      <trkpt lat="47.94401" lon="-2.54017">
        <ele>30.4</ele>
        <time>2024-12-19T14:58:07Z</time>
      </trkpt>
      <trkpt lat="47.94403" lon="-2.54017">
        <ele>30.4</ele>
        <time>2024-12-19T14:58:08Z</time>
      </trkpt>
      <trkpt lat="47.94404" lon="-2.54017">
        <ele>30.4</ele>
        <time>2024-12-19T14:58:09Z</time>
      </trkpt>
      <trkpt lat="47.94405" lon="-2.54017">
        <ele>30.4</ele>
        <time>2024-12-19T14:58:10Z</time>
      </trkpt>
      <trkpt lat="47.94406" lon="-2.54017">
        <ele>30.4</ele>
        <time>2024-12-19T14:58:11Z</time>
      </trkpt>
      <trkpt lat="47.94407" lon="-2.54018">
        <ele>30.3</ele>
        <time>2024-12-19T14:58:12Z</time>
      </trkpt>
      <trkpt lat="47.94408" lon="-2.54019">
        <ele>30.3</ele>
        <time>2024-12-19T14:58:13Z</time>
      </trkpt>
      <trkpt lat="47.94409" lon="-2.5402">
        <ele>30.3</ele>
        <time>2024-12-19T14:58:14Z</time>
      </trkpt>
      <trkpt lat="47.9441" lon="-2.54021">
        <ele>30.3</ele>
        <time>2024-12-19T14:58:15Z</time>
      </trkpt>
      <trkpt lat="47.94411" lon="-2.54021">
        <ele>30.2</ele>
        <time>2024-12-19T14:58:16Z</time>
      </trkpt>
      <trkpt lat="47.94412" lon="-2.54021">
        <ele>30.3</ele>
        <time>2024-12-19T14:58:17Z</time>
      </trkpt>
      <trkpt lat="47.94413" lon="-2.5402">
        <ele>30.3</ele>
        <time>2024-12-19T14:58:18Z</time>
      </trkpt>
      <trkpt lat="47.94414" lon="-2.5402">
        <ele>30.3</ele>
        <time>2024-12-19T14:58:19Z</time>
      </trkpt>
      <trkpt lat="47.94416" lon="-2.5402">
        <ele>30.3</ele>
        <time>2024-12-19T14:58:20Z</time>
      </trkpt>
      <trkpt lat="47.94417" lon="-2.5402">
        <ele>30.3</ele>
        <time>2024-12-19T14:58:21Z</time>
      </trkpt>
      <trkpt lat="47.94419" lon="-2.5402">
        <ele>30.3</ele>
        <time>2024-12-19T14:58:22Z</time>
      </trkpt>
      <trkpt lat="47.9442" lon="-2.54021">
        <ele>30.3</ele>
        <time>2024-12-19T14:58:23Z</time>
      </trkpt>
      <trkpt lat="47.94422" lon="-2.54022">
        <ele>30.4</ele>
        <time>2024-12-19T14:58:24Z</time>
      </trkpt>
      <trkpt lat="47.94424" lon="-2.54022">
        <ele>30.4</ele>
        <time>2024-12-19T14:58:25Z</time>
      </trkpt>
      <trkpt lat="47.94425" lon="-2.54022">
        <ele>30.4</ele>
        <time>2024-12-19T14:58:26Z</time>
      </trkpt>
      <trkpt lat="47.94426" lon="-2.54022">
        <ele>30.5</ele>
        <time>2024-12-19T14:58:27Z</time>
      </trkpt>
      <trkpt lat="47.94428" lon="-2.54023">
        <ele>30.5</ele>
        <time>2024-12-19T14:58:28Z</time>
      </trkpt>
      <trkpt lat="47.94429" lon="-2.54024">
        <ele>30.5</ele>
        <time>2024-12-19T14:58:29Z</time>
      </trkpt>
      <trkpt lat="47.94431" lon="-2.54025">
        <ele>30.5</ele>
        <time>2024-12-19T14:58:30Z</time>
      </trkpt>
      <trkpt lat="47.94432" lon="-2.54026">
        <ele>30.6</ele>
        <time>2024-12-19T14:58:31Z</time>
      </trkpt>
      <trkpt lat="47.94433" lon="-2.54027">
        <ele>30.6</ele>
        <time>2024-12-19T14:58:32Z</time>
      </trkpt>
      <trkpt lat="47.94433" lon="-2.54028">
        <ele>30.6</ele>
        <time>2024-12-19T14:58:33Z</time>
      </trkpt>
      <trkpt lat="47.94434" lon="-2.54029">
        <ele>30.6</ele>
        <time>2024-12-19T14:58:34Z</time>
      </trkpt>
      <trkpt lat="47.94435" lon="-2.5403">
        <ele>30.6</ele>
        <time>2024-12-19T14:58:35Z</time>
      </trkpt>
      <trkpt lat="47.94436" lon="-2.54031">
        <ele>30.6</ele>
        <time>2024-12-19T14:58:36Z</time>
      </trkpt>
      <trkpt lat="47.94436" lon="-2.54031">
        <ele>30.6</ele>
        <time>2024-12-19T14:58:37Z</time>
      </trkpt>
      <trkpt lat="47.94437" lon="-2.54032">
        <ele>30.6</ele>
        <time>2024-12-19T14:58:38Z</time>
      </trkpt>
      <trkpt lat="47.94438" lon="-2.54033">
        <ele>30.6</ele>
        <time>2024-12-19T14:58:39Z</time>
      </trkpt>
      <trkpt lat="47.9444" lon="-2.54034">
        <ele>30.7</ele>
        <time>2024-12-19T14:58:40Z</time>
      </trkpt>
      <trkpt lat="47.94441" lon="-2.54035">
        <ele>30.7</ele>
        <time>2024-12-19T14:58:41Z</time>
      </trkpt>
      <trkpt lat="47.94441" lon="-2.54036">
        <ele>30.6</ele>
        <time>2024-12-19T14:58:42Z</time>
      </trkpt>
      <trkpt lat="47.94443" lon="-2.54037">
        <ele>30.6</ele>
        <time>2024-12-19T14:58:43Z</time>
      </trkpt>
      <trkpt lat="47.94443" lon="-2.54038">
        <ele>30.6</ele>
        <time>2024-12-19T14:58:44Z</time>
      </trkpt>
      <trkpt lat="47.94445" lon="-2.54039">
        <ele>30.6</ele>
        <time>2024-12-19T14:58:45Z</time>
      </trkpt>
      <trkpt lat="47.94446" lon="-2.54039">
        <ele>30.6</ele>
        <time>2024-12-19T14:58:46Z</time>
      </trkpt>
      <trkpt lat="47.94446" lon="-2.5404">
        <ele>30.6</ele>
        <time>2024-12-19T14:58:47Z</time>
      </trkpt>
      <trkpt lat="47.94447" lon="-2.54041">
        <ele>30.5</ele>
        <time>2024-12-19T14:58:48Z</time>
      </trkpt>
      <trkpt lat="47.94448" lon="-2.54041">
        <ele>30.5</ele>
        <time>2024-12-19T14:58:49Z</time>
      </trkpt>
      <trkpt lat="47.94449" lon="-2.54042">
        <ele>30.5</ele>
        <time>2024-12-19T14:58:50Z</time>
      </trkpt>
      <trkpt lat="47.94451" lon="-2.54043">
        <ele>30.5</ele>
        <time>2024-12-19T14:58:51Z</time>
      </trkpt>
      <trkpt lat="47.94452" lon="-2.54044">
        <ele>30.4</ele>
        <time>2024-12-19T14:58:52Z</time>
      </trkpt>
      <trkpt lat="47.94453" lon="-2.54045">
        <ele>30.4</ele>
        <time>2024-12-19T14:58:53Z</time>
      </trkpt>
      <trkpt lat="47.94455" lon="-2.54045">
        <ele>30.4</ele>
        <time>2024-12-19T14:58:54Z</time>
      </trkpt>
      <trkpt lat="47.94456" lon="-2.54046">
        <ele>30.4</ele>
        <time>2024-12-19T14:58:55Z</time>
      </trkpt>
      <trkpt lat="47.94457" lon="-2.54047">
        <ele>30.3</ele>
        <time>2024-12-19T14:58:56Z</time>
      </trkpt>
      <trkpt lat="47.94458" lon="-2.54047">
        <ele>30.3</ele>
        <time>2024-12-19T14:58:57Z</time>
      </trkpt>
      <trkpt lat="47.9446" lon="-2.54048">
        <ele>30.3</ele>
        <time>2024-12-19T14:58:58Z</time>
      </trkpt>
      <trkpt lat="47.94461" lon="-2.54048">
        <ele>30.3</ele>
        <time>2024-12-19T14:58:59Z</time>
      </trkpt>
      <trkpt lat="47.94462" lon="-2.54048">
        <ele>30.3</ele>
        <time>2024-12-19T14:59:00Z</time>
      </trkpt>
      <trkpt lat="47.94463" lon="-2.54048">
        <ele>30.3</ele>
        <time>2024-12-19T14:59:01Z</time>
      </trkpt>
      <trkpt lat="47.94464" lon="-2.54048">
        <ele>30.3</ele>
        <time>2024-12-19T14:59:02Z</time>
      </trkpt>
      <trkpt lat="47.94465" lon="-2.54049">
        <ele>30.3</ele>
        <time>2024-12-19T14:59:03Z</time>
      </trkpt>
      <trkpt lat="47.94466" lon="-2.54049">
        <ele>30.2</ele>
        <time>2024-12-19T14:59:04Z</time>
      </trkpt>
      <trkpt lat="47.94467" lon="-2.54049">
        <ele>30.2</ele>
        <time>2024-12-19T14:59:05Z</time>
      </trkpt>
      <trkpt lat="47.94468" lon="-2.54049">
        <ele>30.2</ele>
        <time>2024-12-19T14:59:06Z</time>
      </trkpt>
      <trkpt lat="47.94469" lon="-2.54049">
        <ele>30.2</ele>
        <time>2024-12-19T14:59:07Z</time>
      </trkpt>
      <trkpt lat="47.9447" lon="-2.54049">
        <ele>30.2</ele>
        <time>2024-12-19T14:59:08Z</time>
      </trkpt>
      <trkpt lat="47.94471" lon="-2.54049">
        <ele>30.2</ele>
        <time>2024-12-19T14:59:09Z</time>
      </trkpt>
      <trkpt lat="47.94472" lon="-2.54049">
        <ele>30.2</ele>
        <time>2024-12-19T14:59:10Z</time>
      </trkpt>
      <trkpt lat="47.94474" lon="-2.5405">
        <ele>30.3</ele>
        <time>2024-12-19T14:59:11Z</time>
      </trkpt>
      <trkpt lat="47.94475" lon="-2.5405">
        <ele>30.3</ele>
        <time>2024-12-19T14:59:12Z</time>
      </trkpt>
      <trkpt lat="47.94475" lon="-2.5405">
        <ele>30.3</ele>
        <time>2024-12-19T14:59:13Z</time>
      </trkpt>
      <trkpt lat="47.94476" lon="-2.5405">
        <ele>30.3</ele>
        <time>2024-12-19T14:59:14Z</time>
      </trkpt>
      <trkpt lat="47.94476" lon="-2.5405">
        <ele>30.3</ele>
        <time>2024-12-19T14:59:15Z</time>
      </trkpt>
      <trkpt lat="47.94476" lon="-2.54051">
        <ele>30.3</ele>
        <time>2024-12-19T14:59:16Z</time>
      </trkpt>
      <trkpt lat="47.94477" lon="-2.54052">
        <ele>30.3</ele>
        <time>2024-12-19T14:59:17Z</time>
      </trkpt>
      <trkpt lat="47.94477" lon="-2.54054">
        <ele>30.2</ele>
        <time>2024-12-19T14:59:18Z</time>
      </trkpt>
      <trkpt lat="47.94479" lon="-2.54055">
        <ele>30.2</ele>
        <time>2024-12-19T14:59:19Z</time>
      </trkpt>
      <trkpt lat="47.9448" lon="-2.54057">
        <ele>30.3</ele>
        <time>2024-12-19T14:59:20Z</time>
      </trkpt>
      <trkpt lat="47.94481" lon="-2.54057">
        <ele>30.3</ele>
        <time>2024-12-19T14:59:21Z</time>
      </trkpt>
      <trkpt lat="47.94482" lon="-2.54058">
        <ele>30.3</ele>
        <time>2024-12-19T14:59:22Z</time>
      </trkpt>
      <trkpt lat="47.94482" lon="-2.54058">
        <ele>30.3</ele>
        <time>2024-12-19T14:59:23Z</time>
      </trkpt>
      <trkpt lat="47.94483" lon="-2.54059">
        <ele>30.3</ele>
        <time>2024-12-19T14:59:24Z</time>
      </trkpt>
      <trkpt lat="47.94483" lon="-2.54059">
        <ele>30.3</ele>
        <time>2024-12-19T14:59:25Z</time>
      </trkpt>
      <trkpt lat="47.94483" lon="-2.54059">
        <ele>30.3</ele>
        <time>2024-12-19T14:59:26Z</time>
      </trkpt>
      <trkpt lat="47.94484" lon="-2.54059">
        <ele>30.4</ele>
        <time>2024-12-19T14:59:27Z</time>
      </trkpt>
      <trkpt lat="47.94484" lon="-2.54059">
        <ele>30.4</ele>
        <time>2024-12-19T14:59:28Z</time>
      </trkpt>
      <trkpt lat="47.94484" lon="-2.54059">
        <ele>30.4</ele>
        <time>2024-12-19T14:59:29Z</time>
      </trkpt>
      <trkpt lat="47.94485" lon="-2.5406">
        <ele>30.4</ele>
        <time>2024-12-19T14:59:30Z</time>
      </trkpt>
      <trkpt lat="47.94486" lon="-2.5406">
        <ele>30.4</ele>
        <time>2024-12-19T14:59:31Z</time>
      </trkpt>
      <trkpt lat="47.94487" lon="-2.54061">
        <ele>30.4</ele>
        <time>2024-12-19T14:59:32Z</time>
      </trkpt>
      <trkpt lat="47.94489" lon="-2.54061">
        <ele>30.5</ele>
        <time>2024-12-19T14:59:33Z</time>
      </trkpt>
      <trkpt lat="47.94491" lon="-2.5406">
        <ele>30.6</ele>
        <time>2024-12-19T14:59:34Z</time>
      </trkpt>
      <trkpt lat="47.94493" lon="-2.5406">
        <ele>30.6</ele>
        <time>2024-12-19T14:59:35Z</time>
      </trkpt>
      <trkpt lat="47.94495" lon="-2.54061">
        <ele>30.7</ele>
        <time>2024-12-19T14:59:36Z</time>
      </trkpt>
      <trkpt lat="47.94497" lon="-2.54061">
        <ele>30.7</ele>
        <time>2024-12-19T14:59:37Z</time>
      </trkpt>
      <trkpt lat="47.94499" lon="-2.54061">
        <ele>30.8</ele>
        <time>2024-12-19T14:59:38Z</time>
      </trkpt>
      <trkpt lat="47.94501" lon="-2.54061">
        <ele>30.8</ele>
        <time>2024-12-19T14:59:39Z</time>
      </trkpt>
      <trkpt lat="47.94504" lon="-2.54062">
        <ele>30.8</ele>
        <time>2024-12-19T14:59:40Z</time>
      </trkpt>
      <trkpt lat="47.94506" lon="-2.54062">
        <ele>30.8</ele>
        <time>2024-12-19T14:59:41Z</time>
      </trkpt>
      <trkpt lat="47.94507" lon="-2.54064">
        <ele>30.7</ele>
        <time>2024-12-19T14:59:42Z</time>
      </trkpt>
      <trkpt lat="47.94508" lon="-2.54065">
        <ele>30.6</ele>
        <time>2024-12-19T14:59:43Z</time>
      </trkpt>
      <trkpt lat="47.94509" lon="-2.54067">
        <ele>30.6</ele>
        <time>2024-12-19T14:59:44Z</time>
      </trkpt>
      <trkpt lat="47.94511" lon="-2.54068">
        <ele>30.5</ele>
        <time>2024-12-19T14:59:45Z</time>
      </trkpt>
      <trkpt lat="47.94513" lon="-2.5407">
        <ele>30.5</ele>
        <time>2024-12-19T14:59:46Z</time>
      </trkpt>
      <trkpt lat="47.94515" lon="-2.54072">
        <ele>30.4</ele>
        <time>2024-12-19T14:59:47Z</time>
      </trkpt>
      <trkpt lat="47.94516" lon="-2.54073">
        <ele>30.4</ele>
        <time>2024-12-19T14:59:48Z</time>
      </trkpt>
      <trkpt lat="47.94517" lon="-2.54075">
        <ele>30.3</ele>
        <time>2024-12-19T14:59:49Z</time>
      </trkpt>
      <trkpt lat="47.94518" lon="-2.54076">
        <ele>30.3</ele>
        <time>2024-12-19T14:59:50Z</time>
      </trkpt>
      <trkpt lat="47.9452" lon="-2.54078">
        <ele>30.2</ele>
        <time>2024-12-19T14:59:51Z</time>
      </trkpt>
      <trkpt lat="47.94521" lon="-2.54079">
        <ele>30.2</ele>
        <time>2024-12-19T14:59:52Z</time>
      </trkpt>
      <trkpt lat="47.94522" lon="-2.54081">
        <ele>30.1</ele>
        <time>2024-12-19T14:59:53Z</time>
      </trkpt>
      <trkpt lat="47.94523" lon="-2.54082">
        <ele>30</ele>
        <time>2024-12-19T14:59:54Z</time>
      </trkpt>
      <trkpt lat="47.94524" lon="-2.54084">
        <ele>30</ele>
        <time>2024-12-19T14:59:55Z</time>
      </trkpt>
      <trkpt lat="47.94525" lon="-2.54085">
        <ele>30</ele>
        <time>2024-12-19T14:59:56Z</time>
      </trkpt>
      <trkpt lat="47.94526" lon="-2.54087">
        <ele>30</ele>
        <time>2024-12-19T14:59:57Z</time>
      </trkpt>
      <trkpt lat="47.94528" lon="-2.54089">
        <ele>30</ele>
        <time>2024-12-19T14:59:58Z</time>
      </trkpt>
      <trkpt lat="47.94529" lon="-2.5409">
        <ele>30</ele>
        <time>2024-12-19T14:59:59Z</time>
      </trkpt>
      <trkpt lat="47.9453" lon="-2.54091">
        <ele>30</ele>
        <time>2024-12-19T15:00:00Z</time>
      </trkpt>
      <trkpt lat="47.94531" lon="-2.54091">
        <ele>30</ele>
        <time>2024-12-19T15:00:01Z</time>
      </trkpt>
      <trkpt lat="47.94532" lon="-2.54092">
        <ele>30</ele>
        <time>2024-12-19T15:00:02Z</time>
      </trkpt>
      <trkpt lat="47.94532" lon="-2.54093">
        <ele>30.1</ele>
        <time>2024-12-19T15:00:03Z</time>
      </trkpt>
      <trkpt lat="47.94533" lon="-2.54093">
        <ele>30.1</ele>
        <time>2024-12-19T15:00:04Z</time>
      </trkpt>
      <trkpt lat="47.94535" lon="-2.54094">
        <ele>30.1</ele>
        <time>2024-12-19T15:00:05Z</time>
      </trkpt>
      <trkpt lat="47.94536" lon="-2.54096">
        <ele>30.1</ele>
        <time>2024-12-19T15:00:06Z</time>
      </trkpt>
      <trkpt lat="47.94537" lon="-2.54097">
        <ele>30.2</ele>
        <time>2024-12-19T15:00:07Z</time>
      </trkpt>
      <trkpt lat="47.94539" lon="-2.54098">
        <ele>30.2</ele>
        <time>2024-12-19T15:00:08Z</time>
      </trkpt>
      <trkpt lat="47.9454" lon="-2.54099">
        <ele>30.2</ele>
        <time>2024-12-19T15:00:09Z</time>
      </trkpt>
      <trkpt lat="47.94542" lon="-2.54101">
        <ele>30.3</ele>
        <time>2024-12-19T15:00:10Z</time>
      </trkpt>
      <trkpt lat="47.94543" lon="-2.54102">
        <ele>30.4</ele>
        <time>2024-12-19T15:00:11Z</time>
      </trkpt>
      <trkpt lat="47.94545" lon="-2.54103">
        <ele>30.4</ele>
        <time>2024-12-19T15:00:12Z</time>
      </trkpt>
      <trkpt lat="47.94546" lon="-2.54104">
        <ele>30.5</ele>
        <time>2024-12-19T15:00:13Z</time>
      </trkpt>
      <trkpt lat="47.94547" lon="-2.54104">
        <ele>30.5</ele>
        <time>2024-12-19T15:00:14Z</time>
      </trkpt>
      <trkpt lat="47.94548" lon="-2.54105">
        <ele>30.6</ele>
        <time>2024-12-19T15:00:15Z</time>
      </trkpt>
      <trkpt lat="47.9455" lon="-2.54106">
        <ele>30.6</ele>
        <time>2024-12-19T15:00:16Z</time>
      </trkpt>
      <trkpt lat="47.94551" lon="-2.54107">
        <ele>30.7</ele>
        <time>2024-12-19T15:00:17Z</time>
      </trkpt>
      <trkpt lat="47.94552" lon="-2.54108">
        <ele>30.8</ele>
        <time>2024-12-19T15:00:18Z</time>
      </trkpt>
      <trkpt lat="47.94556" lon="-2.54111">
        <ele>31</ele>
        <time>2024-12-19T15:00:20Z</time>
      </trkpt>
      <trkpt lat="47.94557" lon="-2.54112">
        <ele>30.9</ele>
        <time>2024-12-19T15:00:21Z</time>
      </trkpt>
      <trkpt lat="47.94559" lon="-2.54114">
        <ele>30.8</ele>
        <time>2024-12-19T15:00:22Z</time>
      </trkpt>
      <trkpt lat="47.94565" lon="-2.54117">
        <ele>30.5</ele>
        <time>2024-12-19T15:00:26Z</time>
      </trkpt>
      <trkpt lat="47.94566" lon="-2.54118">
        <ele>30.5</ele>
        <time>2024-12-19T15:00:27Z</time>
      </trkpt>
      <trkpt lat="47.94567" lon="-2.54119">
        <ele>30.4</ele>
        <time>2024-12-19T15:00:28Z</time>
      </trkpt>
      <trkpt lat="47.94567" lon="-2.5412">
        <ele>30.4</ele>
        <time>2024-12-19T15:00:29Z</time>
      </trkpt>
      <trkpt lat="47.94568" lon="-2.54121">
        <ele>30.4</ele>
        <time>2024-12-19T15:00:30Z</time>
      </trkpt>
      <trkpt lat="47.94569" lon="-2.54122">
        <ele>30.3</ele>
        <time>2024-12-19T15:00:31Z</time>
      </trkpt>
      <trkpt lat="47.9457" lon="-2.54123">
        <ele>30.3</ele>
        <time>2024-12-19T15:00:32Z</time>
      </trkpt>
      <trkpt lat="47.94571" lon="-2.54125">
        <ele>30.2</ele>
        <time>2024-12-19T15:00:33Z</time>
      </trkpt>
      <trkpt lat="47.94572" lon="-2.54126">
        <ele>30.2</ele>
        <time>2024-12-19T15:00:34Z</time>
      </trkpt>
      <trkpt lat="47.94572" lon="-2.54126">
        <ele>30.2</ele>
        <time>2024-12-19T15:00:35Z</time>
      </trkpt>
      <trkpt lat="47.94573" lon="-2.54127">
        <ele>30.2</ele>
        <time>2024-12-19T15:00:36Z</time>
      </trkpt>
      <trkpt lat="47.94574" lon="-2.54128">
        <ele>30.1</ele>
        <time>2024-12-19T15:00:37Z</time>
      </trkpt>
      <trkpt lat="47.94575" lon="-2.54129">
        <ele>30.1</ele>
        <time>2024-12-19T15:00:38Z</time>
      </trkpt>
      <trkpt lat="47.94576" lon="-2.5413">
        <ele>30.1</ele>
        <time>2024-12-19T15:00:39Z</time>
      </trkpt>
      <trkpt lat="47.94577" lon="-2.54131">
        <ele>30.1</ele>
        <time>2024-12-19T15:00:40Z</time>
      </trkpt>
      <trkpt lat="47.94578" lon="-2.54132">
        <ele>30</ele>
        <time>2024-12-19T15:00:41Z</time>
      </trkpt>
      <trkpt lat="47.9458" lon="-2.54132">
        <ele>30</ele>
        <time>2024-12-19T15:00:42Z</time>
      </trkpt>
      <trkpt lat="47.9458" lon="-2.54133">
        <ele>30</ele>
        <time>2024-12-19T15:00:43Z</time>
      </trkpt>
      <trkpt lat="47.94581" lon="-2.54133">
        <ele>30</ele>
        <time>2024-12-19T15:00:44Z</time>
      </trkpt>
      <trkpt lat="47.94582" lon="-2.54134">
        <ele>30</ele>
        <time>2024-12-19T15:00:45Z</time>
      </trkpt>
      <trkpt lat="47.94583" lon="-2.54135">
        <ele>30</ele>
        <time>2024-12-19T15:00:46Z</time>
      </trkpt>
      <trkpt lat="47.94585" lon="-2.54136">
        <ele>30</ele>
        <time>2024-12-19T15:00:47Z</time>
      </trkpt>
      <trkpt lat="47.94587" lon="-2.54137">
        <ele>30</ele>
        <time>2024-12-19T15:00:48Z</time>
      </trkpt>
      <trkpt lat="47.94588" lon="-2.54138">
        <ele>30</ele>
        <time>2024-12-19T15:00:49Z</time>
      </trkpt>
      <trkpt lat="47.94589" lon="-2.5414">
        <ele>30</ele>
        <time>2024-12-19T15:00:50Z</time>
      </trkpt>
      <trkpt lat="47.9459" lon="-2.54141">
        <ele>30</ele>
        <time>2024-12-19T15:00:51Z</time>
      </trkpt>
      <trkpt lat="47.94591" lon="-2.54142">
        <ele>30</ele>
        <time>2024-12-19T15:00:52Z</time>
      </trkpt>
      <trkpt lat="47.94592" lon="-2.54143">
        <ele>30</ele>
        <time>2024-12-19T15:00:53Z</time>
      </trkpt>
      <trkpt lat="47.94592" lon="-2.54144">
        <ele>30</ele>
        <time>2024-12-19T15:00:54Z</time>
      </trkpt>
      <trkpt lat="47.94593" lon="-2.54144">
        <ele>30</ele>
        <time>2024-12-19T15:00:55Z</time>
      </trkpt>
      <trkpt lat="47.94593" lon="-2.54144">
        <ele>30</ele>
        <time>2024-12-19T15:00:56Z</time>
      </trkpt>
      <trkpt lat="47.94594" lon="-2.54145">
        <ele>30</ele>
        <time>2024-12-19T15:00:57Z</time>
      </trkpt>
      <trkpt lat="47.94595" lon="-2.54145">
        <ele>30</ele>
        <time>2024-12-19T15:00:58Z</time>
      </trkpt>
      <trkpt lat="47.94596" lon="-2.54146">
        <ele>30</ele>
        <time>2024-12-19T15:00:59Z</time>
      </trkpt>
      <trkpt lat="47.94597" lon="-2.54147">
        <ele>30</ele>
        <time>2024-12-19T15:01:00Z</time>
      </trkpt>
      <trkpt lat="47.94598" lon="-2.54148">
        <ele>30</ele>
        <time>2024-12-19T15:01:01Z</time>
      </trkpt>
      <trkpt lat="47.94599" lon="-2.54149">
        <ele>30</ele>
        <time>2024-12-19T15:01:02Z</time>
      </trkpt>
      <trkpt lat="47.946" lon="-2.5415">
        <ele>30</ele>
        <time>2024-12-19T15:01:03Z</time>
      </trkpt>
      <trkpt lat="47.94601" lon="-2.54151">
        <ele>30</ele>
        <time>2024-12-19T15:01:04Z</time>
      </trkpt>
      <trkpt lat="47.94602" lon="-2.54152">
        <ele>30</ele>
        <time>2024-12-19T15:01:05Z</time>
      </trkpt>
      <trkpt lat="47.94603" lon="-2.54153">
        <ele>30</ele>
        <time>2024-12-19T15:01:06Z</time>
      </trkpt>
      <trkpt lat="47.94605" lon="-2.54154">
        <ele>30</ele>
        <time>2024-12-19T15:01:07Z</time>
      </trkpt>
      <trkpt lat="47.94605" lon="-2.54155">
        <ele>30</ele>
        <time>2024-12-19T15:01:08Z</time>
      </trkpt>
      <trkpt lat="47.94606" lon="-2.54156">
        <ele>30</ele>
        <time>2024-12-19T15:01:09Z</time>
      </trkpt>
      <trkpt lat="47.94607" lon="-2.54156">
        <ele>30</ele>
        <time>2024-12-19T15:01:10Z</time>
      </trkpt>
      <trkpt lat="47.94608" lon="-2.54157">
        <ele>30</ele>
        <time>2024-12-19T15:01:11Z</time>
      </trkpt>
      <trkpt lat="47.94608" lon="-2.54157">
        <ele>30</ele>
        <time>2024-12-19T15:01:12Z</time>
      </trkpt>
      <trkpt lat="47.94609" lon="-2.54158">
        <ele>30</ele>
        <time>2024-12-19T15:01:13Z</time>
      </trkpt>
      <trkpt lat="47.94611" lon="-2.54159">
        <ele>30</ele>
        <time>2024-12-19T15:01:14Z</time>
      </trkpt>
      <trkpt lat="47.94611" lon="-2.5416">
        <ele>30</ele>
        <time>2024-12-19T15:01:15Z</time>
      </trkpt>
      <trkpt lat="47.94611" lon="-2.5416">
        <ele>30</ele>
        <time>2024-12-19T15:01:16Z</time>
      </trkpt>
      <trkpt lat="47.94611" lon="-2.54161">
        <ele>30</ele>
        <time>2024-12-19T15:01:17Z</time>
      </trkpt>
      <trkpt lat="47.94612" lon="-2.54162">
        <ele>30</ele>
        <time>2024-12-19T15:01:18Z</time>
      </trkpt>
      <trkpt lat="47.94613" lon="-2.54162">
        <ele>30</ele>
        <time>2024-12-19T15:01:19Z</time>
      </trkpt>
      <trkpt lat="47.94614" lon="-2.54162">
        <ele>30</ele>
        <time>2024-12-19T15:01:20Z</time>
      </trkpt>
      <trkpt lat="47.94614" lon="-2.54163">
        <ele>30</ele>
        <time>2024-12-19T15:01:21Z</time>
      </trkpt>
      <trkpt lat="47.94615" lon="-2.54163">
        <ele>30</ele>
        <time>2024-12-19T15:01:22Z</time>
      </trkpt>
      <trkpt lat="47.94615" lon="-2.54163">
        <ele>30</ele>
        <time>2024-12-19T15:01:23Z</time>
      </trkpt>
      <trkpt lat="47.94614" lon="-2.54163">
        <ele>30</ele>
        <time>2024-12-19T15:01:24Z</time>
      </trkpt>
      <trkpt lat="47.94614" lon="-2.54163">
        <ele>30</ele>
        <time>2024-12-19T15:01:25Z</time>
      </trkpt>
      <trkpt lat="47.94614" lon="-2.54163">
        <ele>30</ele>
        <time>2024-12-19T15:01:26Z</time>
      </trkpt>
      <trkpt lat="47.94614" lon="-2.54163">
        <ele>30</ele>
        <time>2024-12-19T15:01:27Z</time>
      </trkpt>
      <trkpt lat="47.94614" lon="-2.54163">
        <ele>30</ele>
        <time>2024-12-19T15:01:28Z</time>
      </trkpt>
      <trkpt lat="47.94614" lon="-2.54162">
        <ele>30</ele>
        <time>2024-12-19T15:01:29Z</time>
      </trkpt>
      <trkpt lat="47.94615" lon="-2.54163">
        <ele>30</ele>
        <time>2024-12-19T15:01:30Z</time>
      </trkpt>
      <trkpt lat="47.94616" lon="-2.54163">
        <ele>30</ele>
        <time>2024-12-19T15:01:31Z</time>
      </trkpt>
      <trkpt lat="47.94616" lon="-2.54164">
        <ele>30</ele>
        <time>2024-12-19T15:01:32Z</time>
      </trkpt>
      <trkpt lat="47.94617" lon="-2.54166">
        <ele>30</ele>
        <time>2024-12-19T15:01:33Z</time>
      </trkpt>
      <trkpt lat="47.94618" lon="-2.54167">
        <ele>30</ele>
        <time>2024-12-19T15:01:34Z</time>
      </trkpt>
      <trkpt lat="47.94619" lon="-2.54168">
        <ele>30</ele>
        <time>2024-12-19T15:01:35Z</time>
      </trkpt>
      <trkpt lat="47.9462" lon="-2.54169">
        <ele>30</ele>
        <time>2024-12-19T15:01:36Z</time>
      </trkpt>
      <trkpt lat="47.9462" lon="-2.5417">
        <ele>30</ele>
        <time>2024-12-19T15:01:37Z</time>
      </trkpt>
      <trkpt lat="47.94621" lon="-2.5417">
        <ele>30</ele>
        <time>2024-12-19T15:01:38Z</time>
      </trkpt>
      <trkpt lat="47.94621" lon="-2.54171">
        <ele>30</ele>
        <time>2024-12-19T15:01:39Z</time>
      </trkpt>
      <trkpt lat="47.94622" lon="-2.54172">
        <ele>30</ele>
        <time>2024-12-19T15:01:40Z</time>
      </trkpt>
      <trkpt lat="47.94623" lon="-2.54173">
        <ele>30</ele>
        <time>2024-12-19T15:01:41Z</time>
      </trkpt>
      <trkpt lat="47.94623" lon="-2.54174">
        <ele>30</ele>
        <time>2024-12-19T15:01:42Z</time>
      </trkpt>
      <trkpt lat="47.94624" lon="-2.54175">
        <ele>30</ele>
        <time>2024-12-19T15:01:43Z</time>
      </trkpt>
      <trkpt lat="47.94625" lon="-2.54176">
        <ele>30</ele>
        <time>2024-12-19T15:01:44Z</time>
      </trkpt>
      <trkpt lat="47.94626" lon="-2.54177">
        <ele>30</ele>
        <time>2024-12-19T15:01:45Z</time>
      </trkpt>
      <trkpt lat="47.94627" lon="-2.54178">
        <ele>30</ele>
        <time>2024-12-19T15:01:46Z</time>
      </trkpt>
      <trkpt lat="47.94628" lon="-2.54179">
        <ele>30</ele>
        <time>2024-12-19T15:01:47Z</time>
      </trkpt>
      <trkpt lat="47.94629" lon="-2.54179">
        <ele>30</ele>
        <time>2024-12-19T15:01:48Z</time>
      </trkpt>
      <trkpt lat="47.94629" lon="-2.5418">
        <ele>30</ele>
        <time>2024-12-19T15:01:49Z</time>
      </trkpt>
      <trkpt lat="47.9463" lon="-2.54181">
        <ele>30</ele>
        <time>2024-12-19T15:01:50Z</time>
      </trkpt>
      <trkpt lat="47.94631" lon="-2.54182">
        <ele>30</ele>
        <time>2024-12-19T15:01:51Z</time>
      </trkpt>
      <trkpt lat="47.94632" lon="-2.54183">
        <ele>30</ele>
        <time>2024-12-19T15:01:52Z</time>
      </trkpt>
      <trkpt lat="47.94634" lon="-2.54184">
        <ele>30</ele>
        <time>2024-12-19T15:01:53Z</time>
      </trkpt>
      <trkpt lat="47.94635" lon="-2.54184">
        <ele>30</ele>
        <time>2024-12-19T15:01:54Z</time>
      </trkpt>
      <trkpt lat="47.94636" lon="-2.54185">
        <ele>30</ele>
        <time>2024-12-19T15:01:55Z</time>
      </trkpt>
      <trkpt lat="47.94637" lon="-2.54187">
        <ele>30</ele>
        <time>2024-12-19T15:01:56Z</time>
      </trkpt>
      <trkpt lat="47.94638" lon="-2.54188">
        <ele>30</ele>
        <time>2024-12-19T15:01:57Z</time>
      </trkpt>
      <trkpt lat="47.94639" lon="-2.54188">
        <ele>30</ele>
        <time>2024-12-19T15:01:58Z</time>
      </trkpt>
      <trkpt lat="47.94641" lon="-2.54189">
        <ele>30</ele>
        <time>2024-12-19T15:01:59Z</time>
      </trkpt>
      <trkpt lat="47.94642" lon="-2.5419">
        <ele>30.1</ele>
        <time>2024-12-19T15:02:00Z</time>
      </trkpt>
      <trkpt lat="47.94643" lon="-2.54191">
        <ele>30.1</ele>
        <time>2024-12-19T15:02:01Z</time>
      </trkpt>
      <trkpt lat="47.94644" lon="-2.54192">
        <ele>30.2</ele>
        <time>2024-12-19T15:02:02Z</time>
      </trkpt>
      <trkpt lat="47.94645" lon="-2.54193">
        <ele>30.2</ele>
        <time>2024-12-19T15:02:03Z</time>
      </trkpt>
      <trkpt lat="47.94645" lon="-2.54194">
        <ele>30.2</ele>
        <time>2024-12-19T15:02:04Z</time>
      </trkpt>
      <trkpt lat="47.94646" lon="-2.54195">
        <ele>30.3</ele>
        <time>2024-12-19T15:02:05Z</time>
      </trkpt>
      <trkpt lat="47.94647" lon="-2.54196">
        <ele>30.3</ele>
        <time>2024-12-19T15:02:06Z</time>
      </trkpt>
      <trkpt lat="47.94649" lon="-2.54197">
        <ele>30.3</ele>
        <time>2024-12-19T15:02:07Z</time>
      </trkpt>
      <trkpt lat="47.9465" lon="-2.54198">
        <ele>30.3</ele>
        <time>2024-12-19T15:02:08Z</time>
      </trkpt>
      <trkpt lat="47.94651" lon="-2.54198">
        <ele>30.4</ele>
        <time>2024-12-19T15:02:09Z</time>
      </trkpt>
      <trkpt lat="47.94652" lon="-2.54199">
        <ele>30.4</ele>
        <time>2024-12-19T15:02:10Z</time>
      </trkpt>
      <trkpt lat="47.94653" lon="-2.54199">
        <ele>30.4</ele>
        <time>2024-12-19T15:02:11Z</time>
      </trkpt>
      <trkpt lat="47.94653" lon="-2.542">
        <ele>30.4</ele>
        <time>2024-12-19T15:02:12Z</time>
      </trkpt>
      <trkpt lat="47.94654" lon="-2.54201">
        <ele>30.4</ele>
        <time>2024-12-19T15:02:13Z</time>
      </trkpt>
      <trkpt lat="47.94656" lon="-2.54202">
        <ele>30.4</ele>
        <time>2024-12-19T15:02:14Z</time>
      </trkpt>
      <trkpt lat="47.94657" lon="-2.54203">
        <ele>30.5</ele>
        <time>2024-12-19T15:02:15Z</time>
      </trkpt>
      <trkpt lat="47.94658" lon="-2.54203">
        <ele>30.5</ele>
        <time>2024-12-19T15:02:16Z</time>
      </trkpt>
      <trkpt lat="47.94659" lon="-2.54204">
        <ele>30.5</ele>
        <time>2024-12-19T15:02:17Z</time>
      </trkpt>
      <trkpt lat="47.9466" lon="-2.54205">
        <ele>30.5</ele>
        <time>2024-12-19T15:02:18Z</time>
      </trkpt>
      <trkpt lat="47.94661" lon="-2.54207">
        <ele>30.5</ele>
        <time>2024-12-19T15:02:19Z</time>
      </trkpt>
      <trkpt lat="47.94662" lon="-2.54208">
        <ele>30.4</ele>
        <time>2024-12-19T15:02:21Z</time>
      </trkpt>
      <trkpt lat="47.94663" lon="-2.54209">
        <ele>30.4</ele>
        <time>2024-12-19T15:02:22Z</time>
      </trkpt>
      <trkpt lat="47.94665" lon="-2.5421">
        <ele>30.4</ele>
        <time>2024-12-19T15:02:23Z</time>
      </trkpt>
      <trkpt lat="47.94666" lon="-2.54211">
        <ele>30.4</ele>
        <time>2024-12-19T15:02:24Z</time>
      </trkpt>
      <trkpt lat="47.94667" lon="-2.54211">
        <ele>30.4</ele>
        <time>2024-12-19T15:02:25Z</time>
      </trkpt>
      <trkpt lat="47.94668" lon="-2.54212">
        <ele>30.4</ele>
        <time>2024-12-19T15:02:26Z</time>
      </trkpt>
      <trkpt lat="47.94669" lon="-2.54213">
        <ele>30.3</ele>
        <time>2024-12-19T15:02:27Z</time>
      </trkpt>
      <trkpt lat="47.9467" lon="-2.54214">
        <ele>30.3</ele>
        <time>2024-12-19T15:02:28Z</time>
      </trkpt>
      <trkpt lat="47.9467" lon="-2.54215">
        <ele>30.2</ele>
        <time>2024-12-19T15:02:29Z</time>
      </trkpt>
      <trkpt lat="47.94672" lon="-2.54216">
        <ele>30.2</ele>
        <time>2024-12-19T15:02:30Z</time>
      </trkpt>
      <trkpt lat="47.94673" lon="-2.54216">
        <ele>30.2</ele>
        <time>2024-12-19T15:02:31Z</time>
      </trkpt>
      <trkpt lat="47.94674" lon="-2.54217">
        <ele>30.1</ele>
        <time>2024-12-19T15:02:32Z</time>
      </trkpt>
      <trkpt lat="47.94675" lon="-2.54218">
        <ele>30.1</ele>
        <time>2024-12-19T15:02:33Z</time>
      </trkpt>
      <trkpt lat="47.94676" lon="-2.54218">
        <ele>30.1</ele>
        <time>2024-12-19T15:02:34Z</time>
      </trkpt>
      <trkpt lat="47.94677" lon="-2.54219">
        <ele>30.1</ele>
        <time>2024-12-19T15:02:35Z</time>
      </trkpt>
      <trkpt lat="47.94678" lon="-2.54219">
        <ele>30.1</ele>
        <time>2024-12-19T15:02:36Z</time>
      </trkpt>
      <trkpt lat="47.94679" lon="-2.5422">
        <ele>30.1</ele>
        <time>2024-12-19T15:02:37Z</time>
      </trkpt>
      <trkpt lat="47.9468" lon="-2.5422">
        <ele>30</ele>
        <time>2024-12-19T15:02:38Z</time>
      </trkpt>
      <trkpt lat="47.94681" lon="-2.54221">
        <ele>30</ele>
        <time>2024-12-19T15:02:39Z</time>
      </trkpt>
      <trkpt lat="47.94682" lon="-2.54223">
        <ele>30</ele>
        <time>2024-12-19T15:02:40Z</time>
      </trkpt>
      <trkpt lat="47.94684" lon="-2.54224">
        <ele>30</ele>
        <time>2024-12-19T15:02:41Z</time>
      </trkpt>
      <trkpt lat="47.94685" lon="-2.54225">
        <ele>30</ele>
        <time>2024-12-19T15:02:42Z</time>
      </trkpt>
      <trkpt lat="47.94686" lon="-2.54226">
        <ele>30</ele>
        <time>2024-12-19T15:02:43Z</time>
      </trkpt>
      <trkpt lat="47.94687" lon="-2.54227">
        <ele>30</ele>
        <time>2024-12-19T15:02:44Z</time>
      </trkpt>
      <trkpt lat="47.94688" lon="-2.54228">
        <ele>30</ele>
        <time>2024-12-19T15:02:45Z</time>
      </trkpt>
      <trkpt lat="47.94689" lon="-2.54229">
        <ele>30</ele>
        <time>2024-12-19T15:02:46Z</time>
      </trkpt>
      <trkpt lat="47.9469" lon="-2.5423">
        <ele>30</ele>
        <time>2024-12-19T15:02:47Z</time>
      </trkpt>
      <trkpt lat="47.9469" lon="-2.5423">
        <ele>30</ele>
        <time>2024-12-19T15:02:48Z</time>
      </trkpt>
      <trkpt lat="47.94691" lon="-2.54231">
        <ele>30</ele>
        <time>2024-12-19T15:02:49Z</time>
      </trkpt>
      <trkpt lat="47.94692" lon="-2.54232">
        <ele>30</ele>
        <time>2024-12-19T15:02:50Z</time>
      </trkpt>
      <trkpt lat="47.94693" lon="-2.54231">
        <ele>30</ele>
        <time>2024-12-19T15:02:51Z</time>
      </trkpt>
      <trkpt lat="47.94693" lon="-2.54231">
        <ele>30</ele>
        <time>2024-12-19T15:02:52Z</time>
      </trkpt>
      <trkpt lat="47.94695" lon="-2.54232">
        <ele>30</ele>
        <time>2024-12-19T15:02:53Z</time>
      </trkpt>
      <trkpt lat="47.94696" lon="-2.54233">
        <ele>30</ele>
        <time>2024-12-19T15:02:54Z</time>
      </trkpt>
      <trkpt lat="47.94696" lon="-2.54233">
        <ele>30</ele>
        <time>2024-12-19T15:02:55Z</time>
      </trkpt>
      <trkpt lat="47.94697" lon="-2.54234">
        <ele>30</ele>
        <time>2024-12-19T15:02:56Z</time>
      </trkpt>
      <trkpt lat="47.94697" lon="-2.54236">
        <ele>30</ele>
        <time>2024-12-19T15:02:57Z</time>
      </trkpt>
      <trkpt lat="47.94698" lon="-2.54237">
        <ele>30.1</ele>
        <time>2024-12-19T15:02:58Z</time>
      </trkpt>
      <trkpt lat="47.94699" lon="-2.54238">
        <ele>30.1</ele>
        <time>2024-12-19T15:02:59Z</time>
      </trkpt>
      <trkpt lat="47.947" lon="-2.54239">
        <ele>30.1</ele>
        <time>2024-12-19T15:03:00Z</time>
      </trkpt>
      <trkpt lat="47.94702" lon="-2.54239">
        <ele>30.2</ele>
        <time>2024-12-19T15:03:01Z</time>
      </trkpt>
      <trkpt lat="47.94702" lon="-2.5424">
        <ele>30.2</ele>
        <time>2024-12-19T15:03:02Z</time>
      </trkpt>
      <trkpt lat="47.94703" lon="-2.5424">
        <ele>30.2</ele>
        <time>2024-12-19T15:03:03Z</time>
      </trkpt>
      <trkpt lat="47.94704" lon="-2.54241">
        <ele>30.2</ele>
        <time>2024-12-19T15:03:04Z</time>
      </trkpt>
      <trkpt lat="47.94705" lon="-2.54242">
        <ele>30.3</ele>
        <time>2024-12-19T15:03:05Z</time>
      </trkpt>
      <trkpt lat="47.94706" lon="-2.54243">
        <ele>30.3</ele>
        <time>2024-12-19T15:03:06Z</time>
      </trkpt>
      <trkpt lat="47.94707" lon="-2.54244">
        <ele>30.3</ele>
        <time>2024-12-19T15:03:07Z</time>
      </trkpt>
      <trkpt lat="47.94707" lon="-2.54246">
        <ele>30.4</ele>
        <time>2024-12-19T15:03:08Z</time>
      </trkpt>
      <trkpt lat="47.94708" lon="-2.54247">
        <ele>30.4</ele>
        <time>2024-12-19T15:03:09Z</time>
      </trkpt>
      <trkpt lat="47.94709" lon="-2.54248">
        <ele>30.5</ele>
        <time>2024-12-19T15:03:10Z</time>
      </trkpt>
      <trkpt lat="47.94709" lon="-2.54248">
        <ele>30.5</ele>
        <time>2024-12-19T15:03:11Z</time>
      </trkpt>
      <trkpt lat="47.9471" lon="-2.54249">
        <ele>30.5</ele>
        <time>2024-12-19T15:03:12Z</time>
      </trkpt>
      <trkpt lat="47.94711" lon="-2.54249">
        <ele>30.6</ele>
        <time>2024-12-19T15:03:13Z</time>
      </trkpt>
      <trkpt lat="47.94712" lon="-2.5425">
        <ele>30.6</ele>
        <time>2024-12-19T15:03:14Z</time>
      </trkpt>
      <trkpt lat="47.94714" lon="-2.54251">
        <ele>30.7</ele>
        <time>2024-12-19T15:03:15Z</time>
      </trkpt>
      <trkpt lat="47.94715" lon="-2.54252">
        <ele>30.7</ele>
        <time>2024-12-19T15:03:16Z</time>
      </trkpt>
      <trkpt lat="47.94715" lon="-2.54252">
        <ele>30.7</ele>
        <time>2024-12-19T15:03:17Z</time>
      </trkpt>
      <trkpt lat="47.94716" lon="-2.54253">
        <ele>30.7</ele>
        <time>2024-12-19T15:03:18Z</time>
      </trkpt>
      <trkpt lat="47.94717" lon="-2.54254">
        <ele>30.7</ele>
        <time>2024-12-19T15:03:19Z</time>
      </trkpt>
      <trkpt lat="47.94718" lon="-2.54255">
        <ele>30.7</ele>
        <time>2024-12-19T15:03:20Z</time>
      </trkpt>
      <trkpt lat="47.94719" lon="-2.54255">
        <ele>30.8</ele>
        <time>2024-12-19T15:03:21Z</time>
      </trkpt>
      <trkpt lat="47.94721" lon="-2.54255">
        <ele>30.8</ele>
        <time>2024-12-19T15:03:22Z</time>
      </trkpt>
      <trkpt lat="47.94722" lon="-2.54256">
        <ele>30.8</ele>
        <time>2024-12-19T15:03:23Z</time>
      </trkpt>
      <trkpt lat="47.94724" lon="-2.54256">
        <ele>30.8</ele>
        <time>2024-12-19T15:03:24Z</time>
      </trkpt>
      <trkpt lat="47.94725" lon="-2.54257">
        <ele>30.8</ele>
        <time>2024-12-19T15:03:25Z</time>
      </trkpt>
      <trkpt lat="47.94726" lon="-2.54257">
        <ele>30.7</ele>
        <time>2024-12-19T15:03:26Z</time>
      </trkpt>
      <trkpt lat="47.94727" lon="-2.54258">
        <ele>30.7</ele>
        <time>2024-12-19T15:03:27Z</time>
      </trkpt>
      <trkpt lat="47.94729" lon="-2.54259">
        <ele>30.7</ele>
        <time>2024-12-19T15:03:28Z</time>
      </trkpt>
      <trkpt lat="47.9473" lon="-2.5426">
        <ele>30.6</ele>
        <time>2024-12-19T15:03:29Z</time>
      </trkpt>
      <trkpt lat="47.94732" lon="-2.54261">
        <ele>30.6</ele>
        <time>2024-12-19T15:03:30Z</time>
      </trkpt>
      <trkpt lat="47.94734" lon="-2.54262">
        <ele>30.6</ele>
        <time>2024-12-19T15:03:31Z</time>
      </trkpt>
      <trkpt lat="47.94735" lon="-2.54262">
        <ele>30.6</ele>
        <time>2024-12-19T15:03:32Z</time>
      </trkpt>
      <trkpt lat="47.94736" lon="-2.54263">
        <ele>30.5</ele>
        <time>2024-12-19T15:03:33Z</time>
      </trkpt>
      <trkpt lat="47.94737" lon="-2.54264">
        <ele>30.5</ele>
        <time>2024-12-19T15:03:34Z</time>
      </trkpt>
      <trkpt lat="47.94738" lon="-2.54265">
        <ele>30.5</ele>
        <time>2024-12-19T15:03:35Z</time>
      </trkpt>
      <trkpt lat="47.94741" lon="-2.54267">
        <ele>30.4</ele>
        <time>2024-12-19T15:03:37Z</time>
      </trkpt>
      <trkpt lat="47.94742" lon="-2.54267">
        <ele>30.4</ele>
        <time>2024-12-19T15:03:38Z</time>
      </trkpt>
      <trkpt lat="47.94744" lon="-2.54268">
        <ele>30.4</ele>
        <time>2024-12-19T15:03:39Z</time>
      </trkpt>
      <trkpt lat="47.94745" lon="-2.54268">
        <ele>30.4</ele>
        <time>2024-12-19T15:03:40Z</time>
      </trkpt>
      <trkpt lat="47.94746" lon="-2.54268">
        <ele>30.3</ele>
        <time>2024-12-19T15:03:41Z</time>
      </trkpt>
      <trkpt lat="47.94747" lon="-2.54269">
        <ele>30.3</ele>
        <time>2024-12-19T15:03:42Z</time>
      </trkpt>
      <trkpt lat="47.94748" lon="-2.5427">
        <ele>30.3</ele>
        <time>2024-12-19T15:03:43Z</time>
      </trkpt>
      <trkpt lat="47.94749" lon="-2.54271">
        <ele>30.3</ele>
        <time>2024-12-19T15:03:44Z</time>
      </trkpt>
      <trkpt lat="47.9475" lon="-2.54271">
        <ele>30.2</ele>
        <time>2024-12-19T15:03:45Z</time>
      </trkpt>
      <trkpt lat="47.94751" lon="-2.54272">
        <ele>30.2</ele>
        <time>2024-12-19T15:03:46Z</time>
      </trkpt>
      <trkpt lat="47.94752" lon="-2.54273">
        <ele>30.2</ele>
        <time>2024-12-19T15:03:47Z</time>
      </trkpt>
      <trkpt lat="47.94753" lon="-2.54274">
        <ele>30.2</ele>
        <time>2024-12-19T15:03:48Z</time>
      </trkpt>
      <trkpt lat="47.94754" lon="-2.54275">
        <ele>30.2</ele>
        <time>2024-12-19T15:03:49Z</time>
      </trkpt>
      <trkpt lat="47.94755" lon="-2.54276">
        <ele>30.2</ele>
        <time>2024-12-19T15:03:50Z</time>
      </trkpt>
      <trkpt lat="47.94756" lon="-2.54277">
        <ele>30.3</ele>
        <time>2024-12-19T15:03:51Z</time>
      </trkpt>
      <trkpt lat="47.94758" lon="-2.54277">
        <ele>30.3</ele>
        <time>2024-12-19T15:03:52Z</time>
      </trkpt>
      <trkpt lat="47.94759" lon="-2.54278">
        <ele>30.3</ele>
        <time>2024-12-19T15:03:53Z</time>
      </trkpt>
      <trkpt lat="47.9476" lon="-2.54279">
        <ele>30.3</ele>
        <time>2024-12-19T15:03:54Z</time>
      </trkpt>
      <trkpt lat="47.94761" lon="-2.5428">
        <ele>30.4</ele>
        <time>2024-12-19T15:03:55Z</time>
      </trkpt>
      <trkpt lat="47.94762" lon="-2.54281">
        <ele>30.4</ele>
        <time>2024-12-19T15:03:56Z</time>
      </trkpt>
      <trkpt lat="47.94763" lon="-2.54282">
        <ele>30.4</ele>
        <time>2024-12-19T15:03:57Z</time>
      </trkpt>
      <trkpt lat="47.94764" lon="-2.54283">
        <ele>30.4</ele>
        <time>2024-12-19T15:03:58Z</time>
      </trkpt>
      <trkpt lat="47.94765" lon="-2.54283">
        <ele>30.4</ele>
        <time>2024-12-19T15:03:59Z</time>
      </trkpt>
      <trkpt lat="47.94766" lon="-2.54284">
        <ele>30.4</ele>
        <time>2024-12-19T15:04:00Z</time>
      </trkpt>
      <trkpt lat="47.94767" lon="-2.54284">
        <ele>30.5</ele>
        <time>2024-12-19T15:04:01Z</time>
      </trkpt>
      <trkpt lat="47.94769" lon="-2.54285">
        <ele>30.5</ele>
        <time>2024-12-19T15:04:02Z</time>
      </trkpt>
      <trkpt lat="47.94771" lon="-2.54285">
        <ele>30.5</ele>
        <time>2024-12-19T15:04:03Z</time>
      </trkpt>
      <trkpt lat="47.94772" lon="-2.54286">
        <ele>30.6</ele>
        <time>2024-12-19T15:04:04Z</time>
      </trkpt>
      <trkpt lat="47.94773" lon="-2.54286">
        <ele>30.6</ele>
        <time>2024-12-19T15:04:05Z</time>
      </trkpt>
      <trkpt lat="47.94774" lon="-2.54287">
        <ele>30.6</ele>
        <time>2024-12-19T15:04:06Z</time>
      </trkpt>
      <trkpt lat="47.94775" lon="-2.54288">
        <ele>30.6</ele>
        <time>2024-12-19T15:04:07Z</time>
      </trkpt>
      <trkpt lat="47.94776" lon="-2.54288">
        <ele>30.6</ele>
        <time>2024-12-19T15:04:08Z</time>
      </trkpt>
      <trkpt lat="47.94778" lon="-2.54289">
        <ele>30.6</ele>
        <time>2024-12-19T15:04:09Z</time>
      </trkpt>
      <trkpt lat="47.94779" lon="-2.5429">
        <ele>30.5</ele>
        <time>2024-12-19T15:04:10Z</time>
      </trkpt>
      <trkpt lat="47.94781" lon="-2.54291">
        <ele>30.5</ele>
        <time>2024-12-19T15:04:11Z</time>
      </trkpt>
      <trkpt lat="47.94783" lon="-2.54292">
        <ele>30.5</ele>
        <time>2024-12-19T15:04:12Z</time>
      </trkpt>
      <trkpt lat="47.94784" lon="-2.54293">
        <ele>30.5</ele>
        <time>2024-12-19T15:04:13Z</time>
      </trkpt>
      <trkpt lat="47.94785" lon="-2.54294">
        <ele>30.4</ele>
        <time>2024-12-19T15:04:14Z</time>
      </trkpt>
      <trkpt lat="47.94786" lon="-2.54295">
        <ele>30.4</ele>
        <time>2024-12-19T15:04:15Z</time>
      </trkpt>
      <trkpt lat="47.94787" lon="-2.54296">
        <ele>30.3</ele>
        <time>2024-12-19T15:04:16Z</time>
      </trkpt>
      <trkpt lat="47.94789" lon="-2.54297">
        <ele>30.3</ele>
        <time>2024-12-19T15:04:17Z</time>
      </trkpt>
      <trkpt lat="47.9479" lon="-2.54298">
        <ele>30.3</ele>
        <time>2024-12-19T15:04:18Z</time>
      </trkpt>
      <trkpt lat="47.9479" lon="-2.54299">
        <ele>30.2</ele>
        <time>2024-12-19T15:04:19Z</time>
      </trkpt>
      <trkpt lat="47.94791" lon="-2.543">
        <ele>30.2</ele>
        <time>2024-12-19T15:04:20Z</time>
      </trkpt>
      <trkpt lat="47.94792" lon="-2.54301">
        <ele>30.2</ele>
        <time>2024-12-19T15:04:21Z</time>
      </trkpt>
      <trkpt lat="47.94792" lon="-2.54302">
        <ele>30.1</ele>
        <time>2024-12-19T15:04:22Z</time>
      </trkpt>
      <trkpt lat="47.94793" lon="-2.54302">
        <ele>30.1</ele>
        <time>2024-12-19T15:04:23Z</time>
      </trkpt>
      <trkpt lat="47.94795" lon="-2.54303">
        <ele>30.1</ele>
        <time>2024-12-19T15:04:24Z</time>
      </trkpt>
      <trkpt lat="47.94796" lon="-2.54303">
        <ele>30.1</ele>
        <time>2024-12-19T15:04:25Z</time>
      </trkpt>
      <trkpt lat="47.94797" lon="-2.54304">
        <ele>30.1</ele>
        <time>2024-12-19T15:04:26Z</time>
      </trkpt>
      <trkpt lat="47.94798" lon="-2.54304">
        <ele>30</ele>
        <time>2024-12-19T15:04:27Z</time>
      </trkpt>
      <trkpt lat="47.94799" lon="-2.54305">
        <ele>30</ele>
        <time>2024-12-19T15:04:28Z</time>
      </trkpt>
      <trkpt lat="47.948" lon="-2.54306">
        <ele>30</ele>
        <time>2024-12-19T15:04:29Z</time>
      </trkpt>
      <trkpt lat="47.94801" lon="-2.54307">
        <ele>30</ele>
        <time>2024-12-19T15:04:30Z</time>
      </trkpt>
      <trkpt lat="47.94801" lon="-2.54308">
        <ele>30</ele>
        <time>2024-12-19T15:04:31Z</time>
      </trkpt>
      <trkpt lat="47.94802" lon="-2.54309">
        <ele>30</ele>
        <time>2024-12-19T15:04:32Z</time>
      </trkpt>
      <trkpt lat="47.94802" lon="-2.5431">
        <ele>30</ele>
        <time>2024-12-19T15:04:33Z</time>
      </trkpt>
      <trkpt lat="47.94803" lon="-2.5431">
        <ele>30</ele>
        <time>2024-12-19T15:04:34Z</time>
      </trkpt>
      <trkpt lat="47.94805" lon="-2.54311">
        <ele>30</ele>
        <time>2024-12-19T15:04:35Z</time>
      </trkpt>
      <trkpt lat="47.94806" lon="-2.54311">
        <ele>30</ele>
        <time>2024-12-19T15:04:36Z</time>
      </trkpt>
      <trkpt lat="47.94807" lon="-2.54312">
        <ele>30</ele>
        <time>2024-12-19T15:04:37Z</time>
      </trkpt>
      <trkpt lat="47.94808" lon="-2.54313">
        <ele>30.1</ele>
        <time>2024-12-19T15:04:38Z</time>
      </trkpt>
      <trkpt lat="47.94809" lon="-2.54314">
        <ele>30.1</ele>
        <time>2024-12-19T15:04:39Z</time>
      </trkpt>
      <trkpt lat="47.94811" lon="-2.54314">
        <ele>30.1</ele>
        <time>2024-12-19T15:04:40Z</time>
      </trkpt>
      <trkpt lat="47.94812" lon="-2.54315">
        <ele>30.2</ele>
        <time>2024-12-19T15:04:41Z</time>
      </trkpt>
      <trkpt lat="47.94813" lon="-2.54315">
        <ele>30.2</ele>
        <time>2024-12-19T15:04:42Z</time>
      </trkpt>
      <trkpt lat="47.94814" lon="-2.54316">
        <ele>30.2</ele>
        <time>2024-12-19T15:04:43Z</time>
      </trkpt>
      <trkpt lat="47.94816" lon="-2.54317">
        <ele>30.2</ele>
        <time>2024-12-19T15:04:44Z</time>
      </trkpt>
      <trkpt lat="47.94817" lon="-2.54318">
        <ele>30.2</ele>
        <time>2024-12-19T15:04:45Z</time>
      </trkpt>
      <trkpt lat="47.94818" lon="-2.54318">
        <ele>30.3</ele>
        <time>2024-12-19T15:04:46Z</time>
      </trkpt>
      <trkpt lat="47.94819" lon="-2.54318">
        <ele>30.3</ele>
        <time>2024-12-19T15:04:47Z</time>
      </trkpt>
      <trkpt lat="47.9482" lon="-2.54318">
        <ele>30.3</ele>
        <time>2024-12-19T15:04:48Z</time>
      </trkpt>
      <trkpt lat="47.94821" lon="-2.54319">
        <ele>30.3</ele>
        <time>2024-12-19T15:04:49Z</time>
      </trkpt>
      <trkpt lat="47.94822" lon="-2.54319">
        <ele>30.3</ele>
        <time>2024-12-19T15:04:50Z</time>
      </trkpt>
      <trkpt lat="47.94823" lon="-2.5432">
        <ele>30.3</ele>
        <time>2024-12-19T15:04:51Z</time>
      </trkpt>
      <trkpt lat="47.94825" lon="-2.54321">
        <ele>30.3</ele>
        <time>2024-12-19T15:04:52Z</time>
      </trkpt>
      <trkpt lat="47.94826" lon="-2.54321">
        <ele>30.3</ele>
        <time>2024-12-19T15:04:53Z</time>
      </trkpt>
      <trkpt lat="47.94827" lon="-2.54322">
        <ele>30.3</ele>
        <time>2024-12-19T15:04:54Z</time>
      </trkpt>
      <trkpt lat="47.94828" lon="-2.54323">
        <ele>30.3</ele>
        <time>2024-12-19T15:04:55Z</time>
      </trkpt>
      <trkpt lat="47.94828" lon="-2.54322">
        <ele>30.3</ele>
        <time>2024-12-19T15:04:56Z</time>
      </trkpt>
      <trkpt lat="47.94828" lon="-2.54322">
        <ele>30.3</ele>
        <time>2024-12-19T15:04:57Z</time>
      </trkpt>
      <trkpt lat="47.94827" lon="-2.54322">
        <ele>30.3</ele>
        <time>2024-12-19T15:04:58Z</time>
      </trkpt>
      <trkpt lat="47.94828" lon="-2.54322">
        <ele>30.3</ele>
        <time>2024-12-19T15:04:59Z</time>
      </trkpt>
      <trkpt lat="47.94828" lon="-2.54322">
        <ele>30.3</ele>
        <time>2024-12-19T15:05:00Z</time>
      </trkpt>
      <trkpt lat="47.94829" lon="-2.54321">
        <ele>30.4</ele>
        <time>2024-12-19T15:05:01Z</time>
      </trkpt>
      <trkpt lat="47.94829" lon="-2.54321">
        <ele>30.4</ele>
        <time>2024-12-19T15:05:02Z</time>
      </trkpt>
      <trkpt lat="47.9483" lon="-2.54321">
        <ele>30.4</ele>
        <time>2024-12-19T15:05:03Z</time>
      </trkpt>
      <trkpt lat="47.9483" lon="-2.54322">
        <ele>30.4</ele>
        <time>2024-12-19T15:05:04Z</time>
      </trkpt>
      <trkpt lat="47.94829" lon="-2.54322">
        <ele>30.3</ele>
        <time>2024-12-19T15:05:05Z</time>
      </trkpt>
      <trkpt lat="47.94829" lon="-2.54322">
        <ele>30.3</ele>
        <time>2024-12-19T15:05:06Z</time>
      </trkpt>
      <trkpt lat="47.94829" lon="-2.54322">
        <ele>30.3</ele>
        <time>2024-12-19T15:05:07Z</time>
      </trkpt>
      <trkpt lat="47.94829" lon="-2.54322">
        <ele>30.3</ele>
        <time>2024-12-19T15:05:08Z</time>
      </trkpt>
      <trkpt lat="47.94829" lon="-2.54322">
        <ele>30.3</ele>
        <time>2024-12-19T15:05:09Z</time>
      </trkpt>
      <trkpt lat="47.94829" lon="-2.54323">
        <ele>30.3</ele>
        <time>2024-12-19T15:05:10Z</time>
      </trkpt>
      <trkpt lat="47.94829" lon="-2.54323">
        <ele>30.3</ele>
        <time>2024-12-19T15:05:11Z</time>
      </trkpt>
      <trkpt lat="47.94829" lon="-2.54322">
        <ele>30.3</ele>
        <time>2024-12-19T15:05:12Z</time>
      </trkpt>
      <trkpt lat="47.94829" lon="-2.54323">
        <ele>30.3</ele>
        <time>2024-12-19T15:05:13Z</time>
      </trkpt>
      <trkpt lat="47.94829" lon="-2.54323">
        <ele>30.3</ele>
        <time>2024-12-19T15:05:14Z</time>
      </trkpt>
      <trkpt lat="47.94829" lon="-2.54324">
        <ele>30.3</ele>
        <time>2024-12-19T15:05:15Z</time>
      </trkpt>
      <trkpt lat="47.94829" lon="-2.54324">
        <ele>30.3</ele>
        <time>2024-12-19T15:05:16Z</time>
      </trkpt>
      <trkpt lat="47.94829" lon="-2.54323">
        <ele>30.3</ele>
        <time>2024-12-19T15:05:17Z</time>
      </trkpt>
      <trkpt lat="47.94829" lon="-2.54323">
        <ele>30.3</ele>
        <time>2024-12-19T15:05:18Z</time>
      </trkpt>
      <trkpt lat="47.9483" lon="-2.54323">
        <ele>30.3</ele>
        <time>2024-12-19T15:05:19Z</time>
      </trkpt>
      <trkpt lat="47.94831" lon="-2.54323">
        <ele>30.3</ele>
        <time>2024-12-19T15:05:20Z</time>
      </trkpt>
      <trkpt lat="47.94832" lon="-2.54325">
        <ele>30.3</ele>
        <time>2024-12-19T15:05:21Z</time>
      </trkpt>
      <trkpt lat="47.94833" lon="-2.54326">
        <ele>30.3</ele>
        <time>2024-12-19T15:05:22Z</time>
      </trkpt>
      <trkpt lat="47.94834" lon="-2.54326">
        <ele>30.3</ele>
        <time>2024-12-19T15:05:23Z</time>
      </trkpt>
      <trkpt lat="47.94835" lon="-2.54327">
        <ele>30.3</ele>
        <time>2024-12-19T15:05:24Z</time>
      </trkpt>
      <trkpt lat="47.94836" lon="-2.54328">
        <ele>30.3</ele>
        <time>2024-12-19T15:05:25Z</time>
      </trkpt>
      <trkpt lat="47.94837" lon="-2.54329">
        <ele>30.3</ele>
        <time>2024-12-19T15:05:26Z</time>
      </trkpt>
      <trkpt lat="47.94838" lon="-2.54329">
        <ele>30.3</ele>
        <time>2024-12-19T15:05:27Z</time>
      </trkpt>
      <trkpt lat="47.94839" lon="-2.5433">
        <ele>30.3</ele>
        <time>2024-12-19T15:05:28Z</time>
      </trkpt>
      <trkpt lat="47.9484" lon="-2.54331">
        <ele>30.3</ele>
        <time>2024-12-19T15:05:29Z</time>
      </trkpt>
      <trkpt lat="47.94841" lon="-2.54332">
        <ele>30.3</ele>
        <time>2024-12-19T15:05:30Z</time>
      </trkpt>
      <trkpt lat="47.94842" lon="-2.54333">
        <ele>30.3</ele>
        <time>2024-12-19T15:05:31Z</time>
      </trkpt>
      <trkpt lat="47.94844" lon="-2.54334">
        <ele>30.4</ele>
        <time>2024-12-19T15:05:32Z</time>
      </trkpt>
      <trkpt lat="47.94846" lon="-2.54335">
        <ele>30.4</ele>
        <time>2024-12-19T15:05:33Z</time>
      </trkpt>
      <trkpt lat="47.94847" lon="-2.54335">
        <ele>30.4</ele>
        <time>2024-12-19T15:05:34Z</time>
      </trkpt>
      <trkpt lat="47.94848" lon="-2.54336">
        <ele>30.5</ele>
        <time>2024-12-19T15:05:35Z</time>
      </trkpt>
      <trkpt lat="47.94849" lon="-2.54336">
        <ele>30.5</ele>
        <time>2024-12-19T15:05:36Z</time>
      </trkpt>
      <trkpt lat="47.94849" lon="-2.54336">
        <ele>30.5</ele>
        <time>2024-12-19T15:05:37Z</time>
      </trkpt>
      <trkpt lat="47.94849" lon="-2.54337">
        <ele>30.5</ele>
        <time>2024-12-19T15:05:38Z</time>
      </trkpt>
      <trkpt lat="47.9485" lon="-2.54337">
        <ele>30.5</ele>
        <time>2024-12-19T15:05:39Z</time>
      </trkpt>
      <trkpt lat="47.9485" lon="-2.54337">
        <ele>30.5</ele>
        <time>2024-12-19T15:05:40Z</time>
      </trkpt>
      <trkpt lat="47.9485" lon="-2.54337">
        <ele>30.5</ele>
        <time>2024-12-19T15:05:41Z</time>
      </trkpt>
      <trkpt lat="47.9485" lon="-2.54337">
        <ele>30.5</ele>
        <time>2024-12-19T15:05:42Z</time>
      </trkpt>
      <trkpt lat="47.9485" lon="-2.54338">
        <ele>30.5</ele>
        <time>2024-12-19T15:05:43Z</time>
      </trkpt>
      <trkpt lat="47.9485" lon="-2.54338">
        <ele>30.5</ele>
        <time>2024-12-19T15:05:44Z</time>
      </trkpt>
      <trkpt lat="47.94851" lon="-2.54338">
        <ele>30.5</ele>
        <time>2024-12-19T15:05:45Z</time>
      </trkpt>
      <trkpt lat="47.94852" lon="-2.54339">
        <ele>30.5</ele>
        <time>2024-12-19T15:05:46Z</time>
      </trkpt>
      <trkpt lat="47.94853" lon="-2.5434">
        <ele>30.5</ele>
        <time>2024-12-19T15:05:47Z</time>
      </trkpt>
      <trkpt lat="47.94854" lon="-2.54341">
        <ele>30.6</ele>
        <time>2024-12-19T15:05:48Z</time>
      </trkpt>
      <trkpt lat="47.94856" lon="-2.54342">
        <ele>30.6</ele>
        <time>2024-12-19T15:05:49Z</time>
      </trkpt>
      <trkpt lat="47.94856" lon="-2.54342">
        <ele>30.6</ele>
        <time>2024-12-19T15:05:50Z</time>
      </trkpt>
      <trkpt lat="47.94857" lon="-2.54343">
        <ele>30.6</ele>
        <time>2024-12-19T15:05:51Z</time>
      </trkpt>
      <trkpt lat="47.94858" lon="-2.54343">
        <ele>30.6</ele>
        <time>2024-12-19T15:05:52Z</time>
      </trkpt>
      <trkpt lat="47.94859" lon="-2.54344">
        <ele>30.6</ele>
        <time>2024-12-19T15:05:53Z</time>
      </trkpt>
      <trkpt lat="47.9486" lon="-2.54344">
        <ele>30.6</ele>
        <time>2024-12-19T15:05:54Z</time>
      </trkpt>
      <trkpt lat="47.94861" lon="-2.54345">
        <ele>30.6</ele>
        <time>2024-12-19T15:05:55Z</time>
      </trkpt>
      <trkpt lat="47.94862" lon="-2.54345">
        <ele>30.6</ele>
        <time>2024-12-19T15:05:56Z</time>
      </trkpt>
      <trkpt lat="47.94862" lon="-2.54345">
        <ele>30.6</ele>
        <time>2024-12-19T15:05:57Z</time>
      </trkpt>
      <trkpt lat="47.94864" lon="-2.54346">
        <ele>30.6</ele>
        <time>2024-12-19T15:05:58Z</time>
      </trkpt>
      <trkpt lat="47.94865" lon="-2.54346">
        <ele>30.6</ele>
        <time>2024-12-19T15:05:59Z</time>
      </trkpt>
      <trkpt lat="47.94867" lon="-2.54347">
        <ele>30.6</ele>
        <time>2024-12-19T15:06:00Z</time>
      </trkpt>
      <trkpt lat="47.94868" lon="-2.54347">
        <ele>30.6</ele>
        <time>2024-12-19T15:06:01Z</time>
      </trkpt>
      <trkpt lat="47.9487" lon="-2.54348">
        <ele>30.6</ele>
        <time>2024-12-19T15:06:02Z</time>
      </trkpt>
      <trkpt lat="47.94871" lon="-2.54349">
        <ele>30.6</ele>
        <time>2024-12-19T15:06:03Z</time>
      </trkpt>
      <trkpt lat="47.94872" lon="-2.54349">
        <ele>30.6</ele>
        <time>2024-12-19T15:06:04Z</time>
      </trkpt>
      <trkpt lat="47.94872" lon="-2.5435">
        <ele>30.6</ele>
        <time>2024-12-19T15:06:05Z</time>
      </trkpt>
      <trkpt lat="47.94872" lon="-2.5435">
        <ele>30.6</ele>
        <time>2024-12-19T15:06:06Z</time>
      </trkpt>
      <trkpt lat="47.94872" lon="-2.5435">
        <ele>30.6</ele>
        <time>2024-12-19T15:06:07Z</time>
      </trkpt>
      <trkpt lat="47.94871" lon="-2.5435">
        <ele>30.6</ele>
        <time>2024-12-19T15:06:08Z</time>
      </trkpt>
      <trkpt lat="47.94871" lon="-2.5435">
        <ele>30.6</ele>
        <time>2024-12-19T15:06:09Z</time>
      </trkpt>
      <trkpt lat="47.94871" lon="-2.54349">
        <ele>30.6</ele>
        <time>2024-12-19T15:06:10Z</time>
      </trkpt>
      <trkpt lat="47.94871" lon="-2.54349">
        <ele>30.6</ele>
        <time>2024-12-19T15:06:11Z</time>
      </trkpt>
      <trkpt lat="47.94871" lon="-2.54349">
        <ele>30.6</ele>
        <time>2024-12-19T15:06:12Z</time>
      </trkpt>
      <trkpt lat="47.94871" lon="-2.54349">
        <ele>30.6</ele>
        <time>2024-12-19T15:06:13Z</time>
      </trkpt>
      <trkpt lat="47.94871" lon="-2.54349">
        <ele>30.6</ele>
        <time>2024-12-19T15:06:14Z</time>
      </trkpt>
      <trkpt lat="47.94871" lon="-2.54349">
        <ele>30.6</ele>
        <time>2024-12-19T15:06:15Z</time>
      </trkpt>
      <trkpt lat="47.94871" lon="-2.54349">
        <ele>30.6</ele>
        <time>2024-12-19T15:06:16Z</time>
      </trkpt>
      <trkpt lat="47.94871" lon="-2.54349">
        <ele>30.6</ele>
        <time>2024-12-19T15:06:17Z</time>
      </trkpt>
      <trkpt lat="47.94871" lon="-2.54349">
        <ele>30.6</ele>
        <time>2024-12-19T15:06:18Z</time>
      </trkpt>
      <trkpt lat="47.94871" lon="-2.54349">
        <ele>30.6</ele>
        <time>2024-12-19T15:06:19Z</time>
      </trkpt>
      <trkpt lat="47.94871" lon="-2.54349">
        <ele>30.6</ele>
        <time>2024-12-19T15:06:20Z</time>
      </trkpt>
      <trkpt lat="47.94872" lon="-2.5435">
        <ele>30.6</ele>
        <time>2024-12-19T15:06:21Z</time>
      </trkpt>
      <trkpt lat="47.94873" lon="-2.54351">
        <ele>30.6</ele>
        <time>2024-12-19T15:06:22Z</time>
      </trkpt>
      <trkpt lat="47.94873" lon="-2.54352">
        <ele>30.6</ele>
        <time>2024-12-19T15:06:23Z</time>
      </trkpt>
      <trkpt lat="47.94874" lon="-2.54353">
        <ele>30.6</ele>
        <time>2024-12-19T15:06:24Z</time>
      </trkpt>
      <trkpt lat="47.94875" lon="-2.54354">
        <ele>30.6</ele>
        <time>2024-12-19T15:06:25Z</time>
      </trkpt>
      <trkpt lat="47.94876" lon="-2.54355">
        <ele>30.6</ele>
        <time>2024-12-19T15:06:26Z</time>
      </trkpt>
      <trkpt lat="47.94876" lon="-2.54355">
        <ele>30.7</ele>
        <time>2024-12-19T15:06:27Z</time>
      </trkpt>
      <trkpt lat="47.94877" lon="-2.54356">
        <ele>30.7</ele>
        <time>2024-12-19T15:06:28Z</time>
      </trkpt>
      <trkpt lat="47.94878" lon="-2.54356">
        <ele>30.7</ele>
        <time>2024-12-19T15:06:29Z</time>
      </trkpt>
      <trkpt lat="47.94879" lon="-2.54357">
        <ele>30.7</ele>
        <time>2024-12-19T15:06:30Z</time>
      </trkpt>
      <trkpt lat="47.9488" lon="-2.54357">
        <ele>30.7</ele>
        <time>2024-12-19T15:06:31Z</time>
      </trkpt>
      <trkpt lat="47.94881" lon="-2.54358">
        <ele>30.8</ele>
        <time>2024-12-19T15:06:32Z</time>
      </trkpt>
      <trkpt lat="47.94883" lon="-2.54358">
        <ele>30.8</ele>
        <time>2024-12-19T15:06:33Z</time>
      </trkpt>
      <trkpt lat="47.94884" lon="-2.54359">
        <ele>30.8</ele>
        <time>2024-12-19T15:06:34Z</time>
      </trkpt>
      <trkpt lat="47.94885" lon="-2.5436">
        <ele>30.9</ele>
        <time>2024-12-19T15:06:35Z</time>
      </trkpt>
      <trkpt lat="47.94886" lon="-2.5436">
        <ele>30.9</ele>
        <time>2024-12-19T15:06:36Z</time>
      </trkpt>
      <trkpt lat="47.94887" lon="-2.54361">
        <ele>30.9</ele>
        <time>2024-12-19T15:06:37Z</time>
      </trkpt>
      <trkpt lat="47.94888" lon="-2.54362">
        <ele>30.9</ele>
        <time>2024-12-19T15:06:38Z</time>
      </trkpt>
      <trkpt lat="47.94889" lon="-2.54363">
        <ele>30.9</ele>
        <time>2024-12-19T15:06:39Z</time>
      </trkpt>
      <trkpt lat="47.94894" lon="-2.54366">
        <ele>31</ele>
        <time>2024-12-19T15:06:43Z</time>
      </trkpt>
      <trkpt lat="47.94898" lon="-2.54368">
        <ele>31.1</ele>
        <time>2024-12-19T15:06:47Z</time>
      </trkpt>
      <trkpt lat="47.949" lon="-2.54369">
        <ele>31.1</ele>
        <time>2024-12-19T15:06:48Z</time>
      </trkpt>
      <trkpt lat="47.94901" lon="-2.54369">
        <ele>31.1</ele>
        <time>2024-12-19T15:06:49Z</time>
      </trkpt>
      <trkpt lat="47.94902" lon="-2.5437">
        <ele>31.2</ele>
        <time>2024-12-19T15:06:50Z</time>
      </trkpt>
      <trkpt lat="47.94903" lon="-2.5437">
        <ele>31.2</ele>
        <time>2024-12-19T15:06:51Z</time>
      </trkpt>
      <trkpt lat="47.94904" lon="-2.54371">
        <ele>31.2</ele>
        <time>2024-12-19T15:06:52Z</time>
      </trkpt>
      <trkpt lat="47.94906" lon="-2.54372">
        <ele>31.2</ele>
        <time>2024-12-19T15:06:53Z</time>
      </trkpt>
      <trkpt lat="47.94907" lon="-2.54373">
        <ele>31.2</ele>
        <time>2024-12-19T15:06:54Z</time>
      </trkpt>
      <trkpt lat="47.94908" lon="-2.54373">
        <ele>31.3</ele>
        <time>2024-12-19T15:06:55Z</time>
      </trkpt>
      <trkpt lat="47.94909" lon="-2.54373">
        <ele>31.3</ele>
        <time>2024-12-19T15:06:56Z</time>
      </trkpt>
      <trkpt lat="47.94911" lon="-2.54374">
        <ele>31.3</ele>
        <time>2024-12-19T15:06:57Z</time>
      </trkpt>
      <trkpt lat="47.94912" lon="-2.54374">
        <ele>31.4</ele>
        <time>2024-12-19T15:06:58Z</time>
      </trkpt>
      <trkpt lat="47.94914" lon="-2.54375">
        <ele>31.4</ele>
        <time>2024-12-19T15:06:59Z</time>
      </trkpt>
      <trkpt lat="47.94915" lon="-2.54375">
        <ele>31.4</ele>
        <time>2024-12-19T15:07:00Z</time>
      </trkpt>
      <trkpt lat="47.94917" lon="-2.54376">
        <ele>31.5</ele>
        <time>2024-12-19T15:07:01Z</time>
      </trkpt>
      <trkpt lat="47.94918" lon="-2.54378">
        <ele>31.5</ele>
        <time>2024-12-19T15:07:02Z</time>
      </trkpt>
      <trkpt lat="47.9492" lon="-2.54379">
        <ele>31.5</ele>
        <time>2024-12-19T15:07:03Z</time>
      </trkpt>
      <trkpt lat="47.94921" lon="-2.5438">
        <ele>31.6</ele>
        <time>2024-12-19T15:07:04Z</time>
      </trkpt>
      <trkpt lat="47.94922" lon="-2.54382">
        <ele>31.6</ele>
        <time>2024-12-19T15:07:05Z</time>
      </trkpt>
      <trkpt lat="47.94923" lon="-2.54383">
        <ele>31.6</ele>
        <time>2024-12-19T15:07:06Z</time>
      </trkpt>
      <trkpt lat="47.94924" lon="-2.54384">
        <ele>31.6</ele>
        <time>2024-12-19T15:07:07Z</time>
      </trkpt>
      <trkpt lat="47.94925" lon="-2.54385">
        <ele>31.7</ele>
        <time>2024-12-19T15:07:08Z</time>
      </trkpt>
      <trkpt lat="47.94926" lon="-2.54386">
        <ele>31.7</ele>
        <time>2024-12-19T15:07:09Z</time>
      </trkpt>
      <trkpt lat="47.94927" lon="-2.54387">
        <ele>31.8</ele>
        <time>2024-12-19T15:07:10Z</time>
      </trkpt>
      <trkpt lat="47.94928" lon="-2.54388">
        <ele>31.8</ele>
        <time>2024-12-19T15:07:11Z</time>
      </trkpt>
      <trkpt lat="47.94929" lon="-2.54389">
        <ele>31.9</ele>
        <time>2024-12-19T15:07:12Z</time>
      </trkpt>
      <trkpt lat="47.9493" lon="-2.5439">
        <ele>31.9</ele>
        <time>2024-12-19T15:07:13Z</time>
      </trkpt>
      <trkpt lat="47.94931" lon="-2.5439">
        <ele>31.9</ele>
        <time>2024-12-19T15:07:14Z</time>
      </trkpt>
      <trkpt lat="47.94932" lon="-2.54391">
        <ele>31.9</ele>
        <time>2024-12-19T15:07:15Z</time>
      </trkpt>
      <trkpt lat="47.94933" lon="-2.54393">
        <ele>31.9</ele>
        <time>2024-12-19T15:07:16Z</time>
      </trkpt>
      <trkpt lat="47.94934" lon="-2.54394">
        <ele>31.8</ele>
        <time>2024-12-19T15:07:17Z</time>
      </trkpt>
      <trkpt lat="47.94936" lon="-2.54396">
        <ele>31.8</ele>
        <time>2024-12-19T15:07:18Z</time>
      </trkpt>
      <trkpt lat="47.94937" lon="-2.54396">
        <ele>31.8</ele>
        <time>2024-12-19T15:07:19Z</time>
      </trkpt>
      <trkpt lat="47.94938" lon="-2.54396">
        <ele>31.8</ele>
        <time>2024-12-19T15:07:20Z</time>
      </trkpt>
      <trkpt lat="47.94938" lon="-2.54396">
        <ele>31.9</ele>
        <time>2024-12-19T15:07:21Z</time>
      </trkpt>
      <trkpt lat="47.94939" lon="-2.54397">
        <ele>31.8</ele>
        <time>2024-12-19T15:07:22Z</time>
      </trkpt>
      <trkpt lat="47.94941" lon="-2.54398">
        <ele>31.8</ele>
        <time>2024-12-19T15:07:23Z</time>
      </trkpt>
      <trkpt lat="47.94942" lon="-2.54399">
        <ele>31.8</ele>
        <time>2024-12-19T15:07:24Z</time>
      </trkpt>
      <trkpt lat="47.94943" lon="-2.54401">
        <ele>31.7</ele>
        <time>2024-12-19T15:07:25Z</time>
      </trkpt>
      <trkpt lat="47.94944" lon="-2.54402">
        <ele>31.5</ele>
        <time>2024-12-19T15:07:26Z</time>
      </trkpt>
      <trkpt lat="47.94945" lon="-2.54403">
        <ele>31.5</ele>
        <time>2024-12-19T15:07:27Z</time>
      </trkpt>
      <trkpt lat="47.94946" lon="-2.54404">
        <ele>31.5</ele>
        <time>2024-12-19T15:07:28Z</time>
      </trkpt>
      <trkpt lat="47.94948" lon="-2.54405">
        <ele>31.4</ele>
        <time>2024-12-19T15:07:29Z</time>
      </trkpt>
      <trkpt lat="47.94949" lon="-2.54407">
        <ele>31.4</ele>
        <time>2024-12-19T15:07:30Z</time>
      </trkpt>
      <trkpt lat="47.9495" lon="-2.54408">
        <ele>31.4</ele>
        <time>2024-12-19T15:07:31Z</time>
      </trkpt>
      <trkpt lat="47.9495" lon="-2.54409">
        <ele>31.3</ele>
        <time>2024-12-19T15:07:32Z</time>
      </trkpt>
      <trkpt lat="47.94951" lon="-2.5441">
        <ele>31.3</ele>
        <time>2024-12-19T15:07:33Z</time>
      </trkpt>
      <trkpt lat="47.94952" lon="-2.54412">
        <ele>31.2</ele>
        <time>2024-12-19T15:07:34Z</time>
      </trkpt>
      <trkpt lat="47.94953" lon="-2.54413">
        <ele>31.2</ele>
        <time>2024-12-19T15:07:35Z</time>
      </trkpt>
      <trkpt lat="47.94954" lon="-2.54414">
        <ele>31.2</ele>
        <time>2024-12-19T15:07:36Z</time>
      </trkpt>
      <trkpt lat="47.94954" lon="-2.54416">
        <ele>31.1</ele>
        <time>2024-12-19T15:07:37Z</time>
      </trkpt>
      <trkpt lat="47.94955" lon="-2.54417">
        <ele>31.1</ele>
        <time>2024-12-19T15:07:38Z</time>
      </trkpt>
      <trkpt lat="47.94956" lon="-2.54418">
        <ele>31.2</ele>
        <time>2024-12-19T15:07:39Z</time>
      </trkpt>
      <trkpt lat="47.94956" lon="-2.54419">
        <ele>31.2</ele>
        <time>2024-12-19T15:07:40Z</time>
      </trkpt>
      <trkpt lat="47.94957" lon="-2.54419">
        <ele>31.2</ele>
        <time>2024-12-19T15:07:41Z</time>
      </trkpt>
      <trkpt lat="47.94958" lon="-2.5442">
        <ele>31.3</ele>
        <time>2024-12-19T15:07:42Z</time>
      </trkpt>
      <trkpt lat="47.94959" lon="-2.54421">
        <ele>31.4</ele>
        <time>2024-12-19T15:07:43Z</time>
      </trkpt>
      <trkpt lat="47.9496" lon="-2.54422">
        <ele>31.5</ele>
        <time>2024-12-19T15:07:44Z</time>
      </trkpt>
      <trkpt lat="47.94962" lon="-2.54423">
        <ele>31.5</ele>
        <time>2024-12-19T15:07:45Z</time>
      </trkpt>
      <trkpt lat="47.94963" lon="-2.54425">
        <ele>31.6</ele>
        <time>2024-12-19T15:07:46Z</time>
      </trkpt>
      <trkpt lat="47.94964" lon="-2.54426">
        <ele>31.6</ele>
        <time>2024-12-19T15:07:47Z</time>
      </trkpt>
      <trkpt lat="47.94965" lon="-2.54428">
        <ele>31.6</ele>
        <time>2024-12-19T15:07:48Z</time>
      </trkpt>
      <trkpt lat="47.94966" lon="-2.54429">
        <ele>31.6</ele>
        <time>2024-12-19T15:07:49Z</time>
      </trkpt>
      <trkpt lat="47.94967" lon="-2.5443">
        <ele>31.6</ele>
        <time>2024-12-19T15:07:50Z</time>
      </trkpt>
      <trkpt lat="47.94968" lon="-2.54432">
        <ele>31.6</ele>
        <time>2024-12-19T15:07:51Z</time>
      </trkpt>
      <trkpt lat="47.94969" lon="-2.54433">
        <ele>31.6</ele>
        <time>2024-12-19T15:07:52Z</time>
      </trkpt>
      <trkpt lat="47.9497" lon="-2.54435">
        <ele>31.6</ele>
        <time>2024-12-19T15:07:53Z</time>
      </trkpt>
      <trkpt lat="47.94972" lon="-2.54436">
        <ele>31.6</ele>
        <time>2024-12-19T15:07:54Z</time>
      </trkpt>
      <trkpt lat="47.94973" lon="-2.54437">
        <ele>31.6</ele>
        <time>2024-12-19T15:07:55Z</time>
      </trkpt>
      <trkpt lat="47.94974" lon="-2.54437">
        <ele>31.7</ele>
        <time>2024-12-19T15:07:56Z</time>
      </trkpt>
      <trkpt lat="47.94975" lon="-2.54438">
        <ele>31.7</ele>
        <time>2024-12-19T15:07:57Z</time>
      </trkpt>
      <trkpt lat="47.94975" lon="-2.54439">
        <ele>31.7</ele>
        <time>2024-12-19T15:07:58Z</time>
      </trkpt>
      <trkpt lat="47.94975" lon="-2.54439">
        <ele>31.7</ele>
        <time>2024-12-19T15:07:59Z</time>
      </trkpt>
      <trkpt lat="47.94975" lon="-2.54438">
        <ele>31.7</ele>
        <time>2024-12-19T15:08:00Z</time>
      </trkpt>
      <trkpt lat="47.94975" lon="-2.54438">
        <ele>31.7</ele>
        <time>2024-12-19T15:08:01Z</time>
      </trkpt>
      <trkpt lat="47.94975" lon="-2.54438">
        <ele>31.7</ele>
        <time>2024-12-19T15:08:02Z</time>
      </trkpt>
      <trkpt lat="47.94975" lon="-2.54438">
        <ele>31.7</ele>
        <time>2024-12-19T15:08:03Z</time>
      </trkpt>
      <trkpt lat="47.94975" lon="-2.54438">
        <ele>31.7</ele>
        <time>2024-12-19T15:08:04Z</time>
      </trkpt>
      <trkpt lat="47.94975" lon="-2.54438">
        <ele>31.7</ele>
        <time>2024-12-19T15:08:05Z</time>
      </trkpt>
      <trkpt lat="47.94975" lon="-2.54438">
        <ele>31.7</ele>
        <time>2024-12-19T15:08:06Z</time>
      </trkpt>
      <trkpt lat="47.94975" lon="-2.54438">
        <ele>31.7</ele>
        <time>2024-12-19T15:08:08Z</time>
      </trkpt>
      <trkpt lat="47.94975" lon="-2.54438">
        <ele>31.7</ele>
        <time>2024-12-19T15:08:09Z</time>
      </trkpt>
      <trkpt lat="47.94975" lon="-2.54438">
        <ele>31.7</ele>
        <time>2024-12-19T15:08:10Z</time>
      </trkpt>
      <trkpt lat="47.94975" lon="-2.54439">
        <ele>31.7</ele>
        <time>2024-12-19T15:08:11Z</time>
      </trkpt>
      <trkpt lat="47.94975" lon="-2.54439">
        <ele>31.7</ele>
        <time>2024-12-19T15:08:12Z</time>
      </trkpt>
      <trkpt lat="47.94975" lon="-2.54439">
        <ele>31.7</ele>
        <time>2024-12-19T15:08:13Z</time>
      </trkpt>
      <trkpt lat="47.94975" lon="-2.54439">
        <ele>31.7</ele>
        <time>2024-12-19T15:08:14Z</time>
      </trkpt>
      <trkpt lat="47.94975" lon="-2.54439">
        <ele>31.7</ele>
        <time>2024-12-19T15:08:15Z</time>
      </trkpt>
      <trkpt lat="47.94975" lon="-2.54439">
        <ele>31.7</ele>
        <time>2024-12-19T15:08:16Z</time>
      </trkpt>
      <trkpt lat="47.94975" lon="-2.54439">
        <ele>31.7</ele>
        <time>2024-12-19T15:08:17Z</time>
      </trkpt>
      <trkpt lat="47.94975" lon="-2.54439">
        <ele>31.7</ele>
        <time>2024-12-19T15:08:18Z</time>
      </trkpt>
      <trkpt lat="47.94975" lon="-2.54439">
        <ele>31.7</ele>
        <time>2024-12-19T15:08:19Z</time>
      </trkpt>
      <trkpt lat="47.94975" lon="-2.54439">
        <ele>31.7</ele>
        <time>2024-12-19T15:08:20Z</time>
      </trkpt>
      <trkpt lat="47.94975" lon="-2.54439">
        <ele>31.7</ele>
        <time>2024-12-19T15:08:21Z</time>
      </trkpt>
      <trkpt lat="47.94975" lon="-2.54439">
        <ele>31.6</ele>
        <time>2024-12-19T15:08:22Z</time>
      </trkpt>
      <trkpt lat="47.94975" lon="-2.54439">
        <ele>31.6</ele>
        <time>2024-12-19T15:08:23Z</time>
      </trkpt>
      <trkpt lat="47.94975" lon="-2.54439">
        <ele>31.6</ele>
        <time>2024-12-19T15:08:24Z</time>
      </trkpt>
      <trkpt lat="47.94975" lon="-2.54439">
        <ele>31.6</ele>
        <time>2024-12-19T15:08:25Z</time>
      </trkpt>
      <trkpt lat="47.94975" lon="-2.54439">
        <ele>31.6</ele>
        <time>2024-12-19T15:08:26Z</time>
      </trkpt>
      <trkpt lat="47.94975" lon="-2.54439">
        <ele>31.6</ele>
        <time>2024-12-19T15:08:27Z</time>
      </trkpt>
      <trkpt lat="47.94975" lon="-2.54439">
        <ele>31.6</ele>
        <time>2024-12-19T15:08:28Z</time>
      </trkpt>
      <trkpt lat="47.94975" lon="-2.54439">
        <ele>31.6</ele>
        <time>2024-12-19T15:08:29Z</time>
      </trkpt>
      <trkpt lat="47.94975" lon="-2.54439">
        <ele>31.6</ele>
        <time>2024-12-19T15:08:30Z</time>
      </trkpt>
      <trkpt lat="47.94975" lon="-2.54439">
        <ele>31.6</ele>
        <time>2024-12-19T15:08:31Z</time>
      </trkpt>
      <trkpt lat="47.94975" lon="-2.54439">
        <ele>31.6</ele>
        <time>2024-12-19T15:08:32Z</time>
      </trkpt>
      <trkpt lat="47.94975" lon="-2.54439">
        <ele>31.6</ele>
        <time>2024-12-19T15:08:33Z</time>
      </trkpt>
      <trkpt lat="47.94975" lon="-2.54439">
        <ele>31.6</ele>
        <time>2024-12-19T15:08:34Z</time>
      </trkpt>
      <trkpt lat="47.94974" lon="-2.54439">
        <ele>31.6</ele>
        <time>2024-12-19T15:08:35Z</time>
      </trkpt>
      <trkpt lat="47.94974" lon="-2.54439">
        <ele>31.6</ele>
        <time>2024-12-19T15:08:36Z</time>
      </trkpt>
      <trkpt lat="47.94974" lon="-2.54439">
        <ele>31.6</ele>
        <time>2024-12-19T15:08:37Z</time>
      </trkpt>
      <trkpt lat="47.94974" lon="-2.54439">
        <ele>31.6</ele>
        <time>2024-12-19T15:08:38Z</time>
      </trkpt>
      <trkpt lat="47.94974" lon="-2.54439">
        <ele>31.6</ele>
        <time>2024-12-19T15:08:39Z</time>
      </trkpt>
      <trkpt lat="47.94974" lon="-2.54439">
        <ele>31.6</ele>
        <time>2024-12-19T15:08:40Z</time>
      </trkpt>
      <trkpt lat="47.94974" lon="-2.54439">
        <ele>31.5</ele>
        <time>2024-12-19T15:08:41Z</time>
      </trkpt>
      <trkpt lat="47.94974" lon="-2.54439">
        <ele>31.5</ele>
        <time>2024-12-19T15:08:42Z</time>
      </trkpt>
      <trkpt lat="47.94974" lon="-2.54439">
        <ele>31.5</ele>
        <time>2024-12-19T15:08:43Z</time>
      </trkpt>
      <trkpt lat="47.94974" lon="-2.54439">
        <ele>31.5</ele>
        <time>2024-12-19T15:08:44Z</time>
      </trkpt>
      <trkpt lat="47.94974" lon="-2.54439">
        <ele>31.6</ele>
        <time>2024-12-19T15:08:45Z</time>
      </trkpt>
      <trkpt lat="47.94975" lon="-2.54441">
        <ele>31.6</ele>
        <time>2024-12-19T15:08:46Z</time>
      </trkpt>
      <trkpt lat="47.94976" lon="-2.54442">
        <ele>31.5</ele>
        <time>2024-12-19T15:08:47Z</time>
      </trkpt>
      <trkpt lat="47.94976" lon="-2.54443">
        <ele>31.5</ele>
        <time>2024-12-19T15:08:48Z</time>
      </trkpt>
      <trkpt lat="47.94977" lon="-2.54444">
        <ele>31.5</ele>
        <time>2024-12-19T15:08:49Z</time>
      </trkpt>
      <trkpt lat="47.94978" lon="-2.54445">
        <ele>31.5</ele>
        <time>2024-12-19T15:08:50Z</time>
      </trkpt>
      <trkpt lat="47.94979" lon="-2.54447">
        <ele>31.5</ele>
        <time>2024-12-19T15:08:51Z</time>
      </trkpt>
      <trkpt lat="47.94979" lon="-2.54448">
        <ele>31.5</ele>
        <time>2024-12-19T15:08:52Z</time>
      </trkpt>
      <trkpt lat="47.9498" lon="-2.54448">
        <ele>31.6</ele>
        <time>2024-12-19T15:08:53Z</time>
      </trkpt>
      <trkpt lat="47.94981" lon="-2.54449">
        <ele>31.6</ele>
        <time>2024-12-19T15:08:54Z</time>
      </trkpt>
      <trkpt lat="47.94982" lon="-2.54449">
        <ele>31.7</ele>
        <time>2024-12-19T15:08:55Z</time>
      </trkpt>
      <trkpt lat="47.94983" lon="-2.54449">
        <ele>31.9</ele>
        <time>2024-12-19T15:08:56Z</time>
      </trkpt>
      <trkpt lat="47.94985" lon="-2.5445">
        <ele>32</ele>
        <time>2024-12-19T15:08:57Z</time>
      </trkpt>
      <trkpt lat="47.94986" lon="-2.54451">
        <ele>32</ele>
        <time>2024-12-19T15:08:58Z</time>
      </trkpt>
      <trkpt lat="47.94987" lon="-2.54453">
        <ele>31.9</ele>
        <time>2024-12-19T15:08:59Z</time>
      </trkpt>
      <trkpt lat="47.94988" lon="-2.54455">
        <ele>31.9</ele>
        <time>2024-12-19T15:09:00Z</time>
      </trkpt>
      <trkpt lat="47.94989" lon="-2.54457">
        <ele>31.8</ele>
        <time>2024-12-19T15:09:01Z</time>
      </trkpt>
      <trkpt lat="47.9499" lon="-2.5446">
        <ele>31.8</ele>
        <time>2024-12-19T15:09:03Z</time>
      </trkpt>
      <trkpt lat="47.94991" lon="-2.54461">
        <ele>31.8</ele>
        <time>2024-12-19T15:09:04Z</time>
      </trkpt>
      <trkpt lat="47.94992" lon="-2.54462">
        <ele>31.9</ele>
        <time>2024-12-19T15:09:05Z</time>
      </trkpt>
      <trkpt lat="47.94993" lon="-2.54463">
        <ele>31.9</ele>
        <time>2024-12-19T15:09:06Z</time>
      </trkpt>
      <trkpt lat="47.94995" lon="-2.54464">
        <ele>32</ele>
        <time>2024-12-19T15:09:07Z</time>
      </trkpt>
      <trkpt lat="47.94996" lon="-2.54465">
        <ele>32.1</ele>
        <time>2024-12-19T15:09:08Z</time>
      </trkpt>
      <trkpt lat="47.94997" lon="-2.54466">
        <ele>32.1</ele>
        <time>2024-12-19T15:09:09Z</time>
      </trkpt>
      <trkpt lat="47.94998" lon="-2.54466">
        <ele>32.2</ele>
        <time>2024-12-19T15:09:10Z</time>
      </trkpt>
      <trkpt lat="47.94999" lon="-2.54467">
        <ele>32.2</ele>
        <time>2024-12-19T15:09:11Z</time>
      </trkpt>
      <trkpt lat="47.94999" lon="-2.54468">
        <ele>32.2</ele>
        <time>2024-12-19T15:09:12Z</time>
      </trkpt>
      <trkpt lat="47.94999" lon="-2.54468">
        <ele>32.2</ele>
        <time>2024-12-19T15:09:13Z</time>
      </trkpt>
      <trkpt lat="47.94999" lon="-2.54468">
        <ele>32.2</ele>
        <time>2024-12-19T15:09:14Z</time>
      </trkpt>
      <trkpt lat="47.95" lon="-2.54469">
        <ele>32.2</ele>
        <time>2024-12-19T15:09:15Z</time>
      </trkpt>
      <trkpt lat="47.95" lon="-2.54469">
        <ele>32.2</ele>
        <time>2024-12-19T15:09:16Z</time>
      </trkpt>
      <trkpt lat="47.95001" lon="-2.5447">
        <ele>32.2</ele>
        <time>2024-12-19T15:09:17Z</time>
      </trkpt>
      <trkpt lat="47.95002" lon="-2.54471">
        <ele>32.2</ele>
        <time>2024-12-19T15:09:18Z</time>
      </trkpt>
      <trkpt lat="47.95003" lon="-2.54473">
        <ele>32.1</ele>
        <time>2024-12-19T15:09:19Z</time>
      </trkpt>
      <trkpt lat="47.95004" lon="-2.54473">
        <ele>32.1</ele>
        <time>2024-12-19T15:09:20Z</time>
      </trkpt>
      <trkpt lat="47.95004" lon="-2.54473">
        <ele>32.1</ele>
        <time>2024-12-19T15:09:21Z</time>
      </trkpt>
      <trkpt lat="47.95004" lon="-2.54473">
        <ele>32.1</ele>
        <time>2024-12-19T15:09:22Z</time>
      </trkpt>
      <trkpt lat="47.95004" lon="-2.54473">
        <ele>32.1</ele>
        <time>2024-12-19T15:09:23Z</time>
      </trkpt>
      <trkpt lat="47.95004" lon="-2.54472">
        <ele>32.1</ele>
        <time>2024-12-19T15:09:24Z</time>
      </trkpt>
      <trkpt lat="47.95004" lon="-2.54472">
        <ele>32.2</ele>
        <time>2024-12-19T15:09:25Z</time>
      </trkpt>
      <trkpt lat="47.95004" lon="-2.54472">
        <ele>32.2</ele>
        <time>2024-12-19T15:09:26Z</time>
      </trkpt>
      <trkpt lat="47.95005" lon="-2.54472">
        <ele>32.2</ele>
        <time>2024-12-19T15:09:27Z</time>
      </trkpt>
      <trkpt lat="47.95005" lon="-2.54472">
        <ele>32.2</ele>
        <time>2024-12-19T15:09:28Z</time>
      </trkpt>
      <trkpt lat="47.95005" lon="-2.54472">
        <ele>32.2</ele>
        <time>2024-12-19T15:09:29Z</time>
      </trkpt>
      <trkpt lat="47.95004" lon="-2.54472">
        <ele>32.2</ele>
        <time>2024-12-19T15:09:30Z</time>
      </trkpt>
      <trkpt lat="47.95004" lon="-2.54472">
        <ele>32.2</ele>
        <time>2024-12-19T15:09:31Z</time>
      </trkpt>
      <trkpt lat="47.95004" lon="-2.54472">
        <ele>32.2</ele>
        <time>2024-12-19T15:09:32Z</time>
      </trkpt>
      <trkpt lat="47.95004" lon="-2.54472">
        <ele>32.2</ele>
        <time>2024-12-19T15:09:33Z</time>
      </trkpt>
      <trkpt lat="47.95004" lon="-2.54472">
        <ele>32.2</ele>
        <time>2024-12-19T15:09:34Z</time>
      </trkpt>
      <trkpt lat="47.95005" lon="-2.54473">
        <ele>32.2</ele>
        <time>2024-12-19T15:09:35Z</time>
      </trkpt>
      <trkpt lat="47.95005" lon="-2.54474">
        <ele>32.1</ele>
        <time>2024-12-19T15:09:36Z</time>
      </trkpt>
      <trkpt lat="47.95006" lon="-2.54474">
        <ele>32.1</ele>
        <time>2024-12-19T15:09:37Z</time>
      </trkpt>
      <trkpt lat="47.95006" lon="-2.54474">
        <ele>32.1</ele>
        <time>2024-12-19T15:09:38Z</time>
      </trkpt>
      <trkpt lat="47.95005" lon="-2.54474">
        <ele>32.1</ele>
        <time>2024-12-19T15:09:39Z</time>
      </trkpt>
      <trkpt lat="47.95005" lon="-2.54474">
        <ele>32.1</ele>
        <time>2024-12-19T15:09:40Z</time>
      </trkpt>
      <trkpt lat="47.95005" lon="-2.54474">
        <ele>32.1</ele>
        <time>2024-12-19T15:09:41Z</time>
      </trkpt>
      <trkpt lat="47.95005" lon="-2.54474">
        <ele>32.1</ele>
        <time>2024-12-19T15:09:42Z</time>
      </trkpt>
      <trkpt lat="47.95005" lon="-2.54474">
        <ele>32.1</ele>
        <time>2024-12-19T15:09:43Z</time>
      </trkpt>
      <trkpt lat="47.95005" lon="-2.54474">
        <ele>32.1</ele>
        <time>2024-12-19T15:09:44Z</time>
      </trkpt>
      <trkpt lat="47.95005" lon="-2.54474">
        <ele>32.1</ele>
        <time>2024-12-19T15:09:45Z</time>
      </trkpt>
      <trkpt lat="47.95005" lon="-2.54474">
        <ele>32.1</ele>
        <time>2024-12-19T15:09:46Z</time>
      </trkpt>
      <trkpt lat="47.95005" lon="-2.54474">
        <ele>32.1</ele>
        <time>2024-12-19T15:09:47Z</time>
      </trkpt>
      <trkpt lat="47.95005" lon="-2.54475">
        <ele>32.1</ele>
        <time>2024-12-19T15:09:48Z</time>
      </trkpt>
      <trkpt lat="47.95005" lon="-2.54474">
        <ele>32.1</ele>
        <time>2024-12-19T15:09:49Z</time>
      </trkpt>
      <trkpt lat="47.95005" lon="-2.54474">
        <ele>32.1</ele>
        <time>2024-12-19T15:09:50Z</time>
      </trkpt>
      <trkpt lat="47.95005" lon="-2.54474">
        <ele>32.1</ele>
        <time>2024-12-19T15:09:51Z</time>
      </trkpt>
      <trkpt lat="47.95005" lon="-2.54474">
        <ele>32.1</ele>
        <time>2024-12-19T15:09:52Z</time>
      </trkpt>
      <trkpt lat="47.95005" lon="-2.54473">
        <ele>32.1</ele>
        <time>2024-12-19T15:09:53Z</time>
      </trkpt>
      <trkpt lat="47.95005" lon="-2.54473">
        <ele>32.1</ele>
        <time>2024-12-19T15:09:54Z</time>
      </trkpt>
      <trkpt lat="47.95005" lon="-2.54473">
        <ele>32.2</ele>
        <time>2024-12-19T15:09:55Z</time>
      </trkpt>
      <trkpt lat="47.95005" lon="-2.54473">
        <ele>32.2</ele>
        <time>2024-12-19T15:09:56Z</time>
      </trkpt>
      <trkpt lat="47.95005" lon="-2.54474">
        <ele>32.1</ele>
        <time>2024-12-19T15:09:57Z</time>
      </trkpt>
      <trkpt lat="47.95006" lon="-2.54474">
        <ele>32.2</ele>
        <time>2024-12-19T15:09:58Z</time>
      </trkpt>
      <trkpt lat="47.95007" lon="-2.54475">
        <ele>32.2</ele>
        <time>2024-12-19T15:09:59Z</time>
      </trkpt>
      <trkpt lat="47.95008" lon="-2.54475">
        <ele>32.2</ele>
        <time>2024-12-19T15:10:00Z</time>
      </trkpt>
      <trkpt lat="47.95008" lon="-2.54475">
        <ele>32.2</ele>
        <time>2024-12-19T15:10:01Z</time>
      </trkpt>
      <trkpt lat="47.95009" lon="-2.54476">
        <ele>32.2</ele>
        <time>2024-12-19T15:10:02Z</time>
      </trkpt>
      <trkpt lat="47.9501" lon="-2.54477">
        <ele>32.2</ele>
        <time>2024-12-19T15:10:03Z</time>
      </trkpt>
      <trkpt lat="47.9501" lon="-2.54479">
        <ele>32.2</ele>
        <time>2024-12-19T15:10:04Z</time>
      </trkpt>
      <trkpt lat="47.95011" lon="-2.5448">
        <ele>32.2</ele>
        <time>2024-12-19T15:10:05Z</time>
      </trkpt>
      <trkpt lat="47.95011" lon="-2.54482">
        <ele>32.2</ele>
        <time>2024-12-19T15:10:06Z</time>
      </trkpt>
      <trkpt lat="47.95012" lon="-2.54483">
        <ele>32.2</ele>
        <time>2024-12-19T15:10:07Z</time>
      </trkpt>
      <trkpt lat="47.95014" lon="-2.54485">
        <ele>32.3</ele>
        <time>2024-12-19T15:10:08Z</time>
      </trkpt>
      <trkpt lat="47.95015" lon="-2.54486">
        <ele>32.3</ele>
        <time>2024-12-19T15:10:09Z</time>
      </trkpt>
      <trkpt lat="47.95016" lon="-2.54487">
        <ele>32.3</ele>
        <time>2024-12-19T15:10:10Z</time>
      </trkpt>
      <trkpt lat="47.95017" lon="-2.54488">
        <ele>32.4</ele>
        <time>2024-12-19T15:10:11Z</time>
      </trkpt>
      <trkpt lat="47.95018" lon="-2.54488">
        <ele>32.4</ele>
        <time>2024-12-19T15:10:12Z</time>
      </trkpt>
      <trkpt lat="47.95019" lon="-2.54488">
        <ele>32.5</ele>
        <time>2024-12-19T15:10:13Z</time>
      </trkpt>
      <trkpt lat="47.9502" lon="-2.54489">
        <ele>32.5</ele>
        <time>2024-12-19T15:10:14Z</time>
      </trkpt>
      <trkpt lat="47.9502" lon="-2.5449">
        <ele>32.6</ele>
        <time>2024-12-19T15:10:15Z</time>
      </trkpt>
      <trkpt lat="47.95021" lon="-2.5449">
        <ele>32.6</ele>
        <time>2024-12-19T15:10:16Z</time>
      </trkpt>
      <trkpt lat="47.95022" lon="-2.54491">
        <ele>32.7</ele>
        <time>2024-12-19T15:10:17Z</time>
      </trkpt>
      <trkpt lat="47.95024" lon="-2.54492">
        <ele>32.7</ele>
        <time>2024-12-19T15:10:18Z</time>
      </trkpt>
      <trkpt lat="47.95025" lon="-2.54493">
        <ele>32.8</ele>
        <time>2024-12-19T15:10:19Z</time>
      </trkpt>
      <trkpt lat="47.95026" lon="-2.54494">
        <ele>32.9</ele>
        <time>2024-12-19T15:10:20Z</time>
      </trkpt>
      <trkpt lat="47.95026" lon="-2.54494">
        <ele>32.9</ele>
        <time>2024-12-19T15:10:21Z</time>
      </trkpt>
      <trkpt lat="47.95026" lon="-2.54495">
        <ele>32.9</ele>
        <time>2024-12-19T15:10:22Z</time>
      </trkpt>
      <trkpt lat="47.95027" lon="-2.54496">
        <ele>33</ele>
        <time>2024-12-19T15:10:23Z</time>
      </trkpt>
      <trkpt lat="47.95028" lon="-2.54497">
        <ele>33</ele>
        <time>2024-12-19T15:10:24Z</time>
      </trkpt>
      <trkpt lat="47.95028" lon="-2.54497">
        <ele>33</ele>
        <time>2024-12-19T15:10:25Z</time>
      </trkpt>
      <trkpt lat="47.95028" lon="-2.54498">
        <ele>33</ele>
        <time>2024-12-19T15:10:26Z</time>
      </trkpt>
      <trkpt lat="47.95028" lon="-2.54498">
        <ele>33</ele>
        <time>2024-12-19T15:10:27Z</time>
      </trkpt>
      <trkpt lat="47.95029" lon="-2.54499">
        <ele>33</ele>
        <time>2024-12-19T15:10:28Z</time>
      </trkpt>
      <trkpt lat="47.9503" lon="-2.545">
        <ele>33</ele>
        <time>2024-12-19T15:10:29Z</time>
      </trkpt>
      <trkpt lat="47.95032" lon="-2.54501">
        <ele>33</ele>
        <time>2024-12-19T15:10:30Z</time>
      </trkpt>
      <trkpt lat="47.95033" lon="-2.54502">
        <ele>32.9</ele>
        <time>2024-12-19T15:10:31Z</time>
      </trkpt>
      <trkpt lat="47.95033" lon="-2.54503">
        <ele>32.8</ele>
        <time>2024-12-19T15:10:32Z</time>
      </trkpt>
      <trkpt lat="47.95034" lon="-2.54504">
        <ele>32.8</ele>
        <time>2024-12-19T15:10:33Z</time>
      </trkpt>
      <trkpt lat="47.95036" lon="-2.54505">
        <ele>32.7</ele>
        <time>2024-12-19T15:10:34Z</time>
      </trkpt>
      <trkpt lat="47.95038" lon="-2.54506">
        <ele>32.7</ele>
        <time>2024-12-19T15:10:35Z</time>
      </trkpt>
      <trkpt lat="47.9504" lon="-2.54507">
        <ele>32.7</ele>
        <time>2024-12-19T15:10:36Z</time>
      </trkpt>
      <trkpt lat="47.95041" lon="-2.54508">
        <ele>32.7</ele>
        <time>2024-12-19T15:10:37Z</time>
      </trkpt>
      <trkpt lat="47.95043" lon="-2.54509">
        <ele>32.7</ele>
        <time>2024-12-19T15:10:38Z</time>
      </trkpt>
      <trkpt lat="47.95044" lon="-2.54511">
        <ele>32.7</ele>
        <time>2024-12-19T15:10:39Z</time>
      </trkpt>
      <trkpt lat="47.95045" lon="-2.54513">
        <ele>32.6</ele>
        <time>2024-12-19T15:10:40Z</time>
      </trkpt>
      <trkpt lat="47.95046" lon="-2.54515">
        <ele>32.6</ele>
        <time>2024-12-19T15:10:41Z</time>
      </trkpt>
      <trkpt lat="47.95048" lon="-2.54517">
        <ele>32.7</ele>
        <time>2024-12-19T15:10:42Z</time>
      </trkpt>
      <trkpt lat="47.95048" lon="-2.54518">
        <ele>32.7</ele>
        <time>2024-12-19T15:10:43Z</time>
      </trkpt>
      <trkpt lat="47.95049" lon="-2.5452">
        <ele>32.7</ele>
        <time>2024-12-19T15:10:44Z</time>
      </trkpt>
      <trkpt lat="47.9505" lon="-2.54521">
        <ele>32.7</ele>
        <time>2024-12-19T15:10:45Z</time>
      </trkpt>
      <trkpt lat="47.95051" lon="-2.54522">
        <ele>32.7</ele>
        <time>2024-12-19T15:10:46Z</time>
      </trkpt>
      <trkpt lat="47.95052" lon="-2.54523">
        <ele>32.8</ele>
        <time>2024-12-19T15:10:47Z</time>
      </trkpt>
      <trkpt lat="47.95053" lon="-2.54525">
        <ele>32.9</ele>
        <time>2024-12-19T15:10:48Z</time>
      </trkpt>
      <trkpt lat="47.95054" lon="-2.54526">
        <ele>32.9</ele>
        <time>2024-12-19T15:10:49Z</time>
      </trkpt>
      <trkpt lat="47.95054" lon="-2.54526">
        <ele>32.9</ele>
        <time>2024-12-19T15:10:50Z</time>
      </trkpt>
      <trkpt lat="47.95054" lon="-2.54527">
        <ele>32.9</ele>
        <time>2024-12-19T15:10:51Z</time>
      </trkpt>
      <trkpt lat="47.95055" lon="-2.54527">
        <ele>33</ele>
        <time>2024-12-19T15:10:52Z</time>
      </trkpt>
      <trkpt lat="47.95056" lon="-2.54527">
        <ele>33</ele>
        <time>2024-12-19T15:10:53Z</time>
      </trkpt>
      <trkpt lat="47.95057" lon="-2.54528">
        <ele>33</ele>
        <time>2024-12-19T15:10:54Z</time>
      </trkpt>
      <trkpt lat="47.95057" lon="-2.54529">
        <ele>33</ele>
        <time>2024-12-19T15:10:55Z</time>
      </trkpt>
      <trkpt lat="47.95057" lon="-2.54529">
        <ele>33</ele>
        <time>2024-12-19T15:10:56Z</time>
      </trkpt>
      <trkpt lat="47.95058" lon="-2.5453">
        <ele>33</ele>
        <time>2024-12-19T15:10:57Z</time>
      </trkpt>
      <trkpt lat="47.95059" lon="-2.5453">
        <ele>32.9</ele>
        <time>2024-12-19T15:10:58Z</time>
      </trkpt>
      <trkpt lat="47.9506" lon="-2.54531">
        <ele>33</ele>
        <time>2024-12-19T15:10:59Z</time>
      </trkpt>
      <trkpt lat="47.95061" lon="-2.54531">
        <ele>33</ele>
        <time>2024-12-19T15:11:00Z</time>
      </trkpt>
      <trkpt lat="47.95062" lon="-2.54531">
        <ele>33</ele>
        <time>2024-12-19T15:11:01Z</time>
      </trkpt>
      <trkpt lat="47.95064" lon="-2.54532">
        <ele>33.1</ele>
        <time>2024-12-19T15:11:02Z</time>
      </trkpt>
      <trkpt lat="47.95065" lon="-2.54532">
        <ele>33.1</ele>
        <time>2024-12-19T15:11:03Z</time>
      </trkpt>
      <trkpt lat="47.95066" lon="-2.54533">
        <ele>33.1</ele>
        <time>2024-12-19T15:11:04Z</time>
      </trkpt>
      <trkpt lat="47.95067" lon="-2.54533">
        <ele>33.1</ele>
        <time>2024-12-19T15:11:05Z</time>
      </trkpt>
      <trkpt lat="47.95067" lon="-2.54532">
        <ele>33.2</ele>
        <time>2024-12-19T15:11:06Z</time>
      </trkpt>
      <trkpt lat="47.95068" lon="-2.54532">
        <ele>33.2</ele>
        <time>2024-12-19T15:11:07Z</time>
      </trkpt>
      <trkpt lat="47.95068" lon="-2.54532">
        <ele>33.2</ele>
        <time>2024-12-19T15:11:08Z</time>
      </trkpt>
      <trkpt lat="47.95069" lon="-2.54531">
        <ele>33.3</ele>
        <time>2024-12-19T15:11:09Z</time>
      </trkpt>
      <trkpt lat="47.95069" lon="-2.5453">
        <ele>33.4</ele>
        <time>2024-12-19T15:11:10Z</time>
      </trkpt>
      <trkpt lat="47.95069" lon="-2.54529">
        <ele>33.4</ele>
        <time>2024-12-19T15:11:11Z</time>
      </trkpt>
      <trkpt lat="47.95069" lon="-2.54529">
        <ele>33.4</ele>
        <time>2024-12-19T15:11:12Z</time>
      </trkpt>
      <trkpt lat="47.95069" lon="-2.54529">
        <ele>33.4</ele>
        <time>2024-12-19T15:11:13Z</time>
      </trkpt>
      <trkpt lat="47.95069" lon="-2.54529">
        <ele>33.4</ele>
        <time>2024-12-19T15:11:14Z</time>
      </trkpt>
      <trkpt lat="47.95068" lon="-2.54529">
        <ele>33.4</ele>
        <time>2024-12-19T15:11:15Z</time>
      </trkpt>
      <trkpt lat="47.95068" lon="-2.54529">
        <ele>33.4</ele>
        <time>2024-12-19T15:11:16Z</time>
      </trkpt>
      <trkpt lat="47.95068" lon="-2.54528">
        <ele>33.4</ele>
        <time>2024-12-19T15:11:17Z</time>
      </trkpt>
      <trkpt lat="47.95067" lon="-2.54528">
        <ele>33.4</ele>
        <time>2024-12-19T15:11:18Z</time>
      </trkpt>
      <trkpt lat="47.95067" lon="-2.54528">
        <ele>33.4</ele>
        <time>2024-12-19T15:11:19Z</time>
      </trkpt>
      <trkpt lat="47.95067" lon="-2.54528">
        <ele>33.4</ele>
        <time>2024-12-19T15:11:20Z</time>
      </trkpt>
      <trkpt lat="47.95067" lon="-2.54528">
        <ele>33.4</ele>
        <time>2024-12-19T15:11:21Z</time>
      </trkpt>
      <trkpt lat="47.95067" lon="-2.54528">
        <ele>33.4</ele>
        <time>2024-12-19T15:11:22Z</time>
      </trkpt>
      <trkpt lat="47.95067" lon="-2.54528">
        <ele>33.4</ele>
        <time>2024-12-19T15:11:23Z</time>
      </trkpt>
      <trkpt lat="47.95067" lon="-2.54528">
        <ele>33.4</ele>
        <time>2024-12-19T15:11:24Z</time>
      </trkpt>
      <trkpt lat="47.95067" lon="-2.54527">
        <ele>33.5</ele>
        <time>2024-12-19T15:11:25Z</time>
      </trkpt>
      <trkpt lat="47.95067" lon="-2.54527">
        <ele>33.4</ele>
        <time>2024-12-19T15:11:26Z</time>
      </trkpt>
      <trkpt lat="47.95067" lon="-2.54528">
        <ele>33.4</ele>
        <time>2024-12-19T15:11:27Z</time>
      </trkpt>
      <trkpt lat="47.95068" lon="-2.54529">
        <ele>33.4</ele>
        <time>2024-12-19T15:11:28Z</time>
      </trkpt>
      <trkpt lat="47.95069" lon="-2.5453">
        <ele>33.3</ele>
        <time>2024-12-19T15:11:29Z</time>
      </trkpt>
      <trkpt lat="47.9507" lon="-2.54531">
        <ele>33.3</ele>
        <time>2024-12-19T15:11:30Z</time>
      </trkpt>
      <trkpt lat="47.9507" lon="-2.54532">
        <ele>33.3</ele>
        <time>2024-12-19T15:11:31Z</time>
      </trkpt>
      <trkpt lat="47.95072" lon="-2.54533">
        <ele>33.3</ele>
        <time>2024-12-19T15:11:32Z</time>
      </trkpt>
      <trkpt lat="47.95073" lon="-2.54534">
        <ele>33.3</ele>
        <time>2024-12-19T15:11:33Z</time>
      </trkpt>
      <trkpt lat="47.95074" lon="-2.54535">
        <ele>33.3</ele>
        <time>2024-12-19T15:11:34Z</time>
      </trkpt>
      <trkpt lat="47.95076" lon="-2.54536">
        <ele>33.4</ele>
        <time>2024-12-19T15:11:35Z</time>
      </trkpt>
      <trkpt lat="47.95077" lon="-2.54537">
        <ele>33.4</ele>
        <time>2024-12-19T15:11:36Z</time>
      </trkpt>
      <trkpt lat="47.95079" lon="-2.54538">
        <ele>33.4</ele>
        <time>2024-12-19T15:11:37Z</time>
      </trkpt>
      <trkpt lat="47.9508" lon="-2.54539">
        <ele>33.4</ele>
        <time>2024-12-19T15:11:38Z</time>
      </trkpt>
      <trkpt lat="47.95081" lon="-2.5454">
        <ele>33.4</ele>
        <time>2024-12-19T15:11:39Z</time>
      </trkpt>
      <trkpt lat="47.95081" lon="-2.54542">
        <ele>33.4</ele>
        <time>2024-12-19T15:11:40Z</time>
      </trkpt>
      <trkpt lat="47.95082" lon="-2.54543">
        <ele>33.4</ele>
        <time>2024-12-19T15:11:41Z</time>
      </trkpt>
      <trkpt lat="47.95083" lon="-2.54544">
        <ele>33.4</ele>
        <time>2024-12-19T15:11:42Z</time>
      </trkpt>
      <trkpt lat="47.95084" lon="-2.54545">
        <ele>33.5</ele>
        <time>2024-12-19T15:11:43Z</time>
      </trkpt>
      <trkpt lat="47.95086" lon="-2.54547">
        <ele>33.5</ele>
        <time>2024-12-19T15:11:44Z</time>
      </trkpt>
      <trkpt lat="47.95087" lon="-2.54548">
        <ele>33.6</ele>
        <time>2024-12-19T15:11:45Z</time>
      </trkpt>
      <trkpt lat="47.95089" lon="-2.54549">
        <ele>33.6</ele>
        <time>2024-12-19T15:11:46Z</time>
      </trkpt>
      <trkpt lat="47.9509" lon="-2.54551">
        <ele>33.6</ele>
        <time>2024-12-19T15:11:47Z</time>
      </trkpt>
      <trkpt lat="47.95091" lon="-2.54552">
        <ele>33.5</ele>
        <time>2024-12-19T15:11:48Z</time>
      </trkpt>
      <trkpt lat="47.95092" lon="-2.54554">
        <ele>33.5</ele>
        <time>2024-12-19T15:11:49Z</time>
      </trkpt>
      <trkpt lat="47.95094" lon="-2.54555">
        <ele>33.4</ele>
        <time>2024-12-19T15:11:50Z</time>
      </trkpt>
      <trkpt lat="47.95098" lon="-2.54561">
        <ele>33.2</ele>
        <time>2024-12-19T15:11:54Z</time>
      </trkpt>
      <trkpt lat="47.95099" lon="-2.54563">
        <ele>33.1</ele>
        <time>2024-12-19T15:11:55Z</time>
      </trkpt>
      <trkpt lat="47.95099" lon="-2.54564">
        <ele>33.1</ele>
        <time>2024-12-19T15:11:56Z</time>
      </trkpt>
      <trkpt lat="47.95098" lon="-2.54564">
        <ele>33.1</ele>
        <time>2024-12-19T15:11:57Z</time>
      </trkpt>
      <trkpt lat="47.95098" lon="-2.54564">
        <ele>33.1</ele>
        <time>2024-12-19T15:11:58Z</time>
      </trkpt>
      <trkpt lat="47.95098" lon="-2.54564">
        <ele>33.1</ele>
        <time>2024-12-19T15:11:59Z</time>
      </trkpt>
      <trkpt lat="47.95098" lon="-2.54564">
        <ele>33.1</ele>
        <time>2024-12-19T15:12:00Z</time>
      </trkpt>
      <trkpt lat="47.95098" lon="-2.54563">
        <ele>33.1</ele>
        <time>2024-12-19T15:12:01Z</time>
      </trkpt>
      <trkpt lat="47.95098" lon="-2.54562">
        <ele>33.2</ele>
        <time>2024-12-19T15:12:02Z</time>
      </trkpt>
      <trkpt lat="47.95099" lon="-2.54562">
        <ele>33.2</ele>
        <time>2024-12-19T15:12:03Z</time>
      </trkpt>
      <trkpt lat="47.95099" lon="-2.54561">
        <ele>33.3</ele>
        <time>2024-12-19T15:12:04Z</time>
      </trkpt>
      <trkpt lat="47.95099" lon="-2.54561">
        <ele>33.3</ele>
        <time>2024-12-19T15:12:05Z</time>
      </trkpt>
      <trkpt lat="47.951" lon="-2.54561">
        <ele>33.3</ele>
        <time>2024-12-19T15:12:06Z</time>
      </trkpt>
      <trkpt lat="47.951" lon="-2.54561">
        <ele>33.3</ele>
        <time>2024-12-19T15:12:07Z</time>
      </trkpt>
      <trkpt lat="47.951" lon="-2.54561">
        <ele>33.3</ele>
        <time>2024-12-19T15:12:08Z</time>
      </trkpt>
      <trkpt lat="47.951" lon="-2.54561">
        <ele>33.3</ele>
        <time>2024-12-19T15:12:09Z</time>
      </trkpt>
      <trkpt lat="47.951" lon="-2.54562">
        <ele>33.3</ele>
        <time>2024-12-19T15:12:10Z</time>
      </trkpt>
      <trkpt lat="47.951" lon="-2.54562">
        <ele>33.3</ele>
        <time>2024-12-19T15:12:11Z</time>
      </trkpt>
      <trkpt lat="47.951" lon="-2.54562">
        <ele>33.3</ele>
        <time>2024-12-19T15:12:12Z</time>
      </trkpt>
      <trkpt lat="47.951" lon="-2.54562">
        <ele>33.3</ele>
        <time>2024-12-19T15:12:13Z</time>
      </trkpt>
      <trkpt lat="47.951" lon="-2.54562">
        <ele>33.3</ele>
        <time>2024-12-19T15:12:14Z</time>
      </trkpt>
      <trkpt lat="47.951" lon="-2.54562">
        <ele>33.3</ele>
        <time>2024-12-19T15:12:15Z</time>
      </trkpt>
      <trkpt lat="47.951" lon="-2.54562">
        <ele>33.3</ele>
        <time>2024-12-19T15:12:16Z</time>
      </trkpt>
      <trkpt lat="47.951" lon="-2.54562">
        <ele>33.3</ele>
        <time>2024-12-19T15:12:17Z</time>
      </trkpt>
      <trkpt lat="47.951" lon="-2.54562">
        <ele>33.3</ele>
        <time>2024-12-19T15:12:18Z</time>
      </trkpt>
      <trkpt lat="47.951" lon="-2.54562">
        <ele>33.3</ele>
        <time>2024-12-19T15:12:19Z</time>
      </trkpt>
      <trkpt lat="47.951" lon="-2.54562">
        <ele>33.3</ele>
        <time>2024-12-19T15:12:20Z</time>
      </trkpt>
      <trkpt lat="47.951" lon="-2.54562">
        <ele>33.3</ele>
        <time>2024-12-19T15:12:21Z</time>
      </trkpt>
      <trkpt lat="47.951" lon="-2.54562">
        <ele>33.3</ele>
        <time>2024-12-19T15:12:22Z</time>
      </trkpt>
      <trkpt lat="47.951" lon="-2.54562">
        <ele>33.3</ele>
        <time>2024-12-19T15:12:23Z</time>
      </trkpt>
      <trkpt lat="47.951" lon="-2.54562">
        <ele>33.3</ele>
        <time>2024-12-19T15:12:24Z</time>
      </trkpt>
      <trkpt lat="47.951" lon="-2.54562">
        <ele>33.3</ele>
        <time>2024-12-19T15:12:25Z</time>
      </trkpt>
      <trkpt lat="47.951" lon="-2.54562">
        <ele>33.3</ele>
        <time>2024-12-19T15:12:26Z</time>
      </trkpt>
      <trkpt lat="47.951" lon="-2.54562">
        <ele>33.3</ele>
        <time>2024-12-19T15:12:27Z</time>
      </trkpt>
      <trkpt lat="47.951" lon="-2.54563">
        <ele>33.2</ele>
        <time>2024-12-19T15:12:28Z</time>
      </trkpt>
      <trkpt lat="47.95098" lon="-2.54564">
        <ele>33.1</ele>
        <time>2024-12-19T15:12:29Z</time>
      </trkpt>
      <trkpt lat="47.95097" lon="-2.54565">
        <ele>33</ele>
        <time>2024-12-19T15:12:30Z</time>
      </trkpt>
      <trkpt lat="47.95097" lon="-2.54564">
        <ele>33</ele>
        <time>2024-12-19T15:12:31Z</time>
      </trkpt>
      <trkpt lat="47.95097" lon="-2.54564">
        <ele>33</ele>
        <time>2024-12-19T15:12:32Z</time>
      </trkpt>
      <trkpt lat="47.95097" lon="-2.54564">
        <ele>33</ele>
        <time>2024-12-19T15:12:33Z</time>
      </trkpt>
      <trkpt lat="47.95096" lon="-2.54564">
        <ele>33</ele>
        <time>2024-12-19T15:12:34Z</time>
      </trkpt>
      <trkpt lat="47.95096" lon="-2.54564">
        <ele>33</ele>
        <time>2024-12-19T15:12:35Z</time>
      </trkpt>
      <trkpt lat="47.95097" lon="-2.54563">
        <ele>33.1</ele>
        <time>2024-12-19T15:12:36Z</time>
      </trkpt>
      <trkpt lat="47.95096" lon="-2.54563">
        <ele>33</ele>
        <time>2024-12-19T15:12:37Z</time>
      </trkpt>
      <trkpt lat="47.95096" lon="-2.54563">
        <ele>33</ele>
        <time>2024-12-19T15:12:38Z</time>
      </trkpt>
      <trkpt lat="47.95096" lon="-2.54563">
        <ele>33.1</ele>
        <time>2024-12-19T15:12:39Z</time>
      </trkpt>
      <trkpt lat="47.95096" lon="-2.54562">
        <ele>33.1</ele>
        <time>2024-12-19T15:12:40Z</time>
      </trkpt>
      <trkpt lat="47.95096" lon="-2.54562">
        <ele>33.1</ele>
        <time>2024-12-19T15:12:41Z</time>
      </trkpt>
      <trkpt lat="47.95096" lon="-2.54562">
        <ele>33.1</ele>
        <time>2024-12-19T15:12:42Z</time>
      </trkpt>
      <trkpt lat="47.95096" lon="-2.54562">
        <ele>33.1</ele>
        <time>2024-12-19T15:12:43Z</time>
      </trkpt>
      <trkpt lat="47.95096" lon="-2.54562">
        <ele>33.1</ele>
        <time>2024-12-19T15:12:44Z</time>
      </trkpt>
      <trkpt lat="47.95096" lon="-2.54562">
        <ele>33.1</ele>
        <time>2024-12-19T15:12:45Z</time>
      </trkpt>
      <trkpt lat="47.95096" lon="-2.54562">
        <ele>33.1</ele>
        <time>2024-12-19T15:12:46Z</time>
      </trkpt>
      <trkpt lat="47.95096" lon="-2.54561">
        <ele>33.2</ele>
        <time>2024-12-19T15:12:47Z</time>
      </trkpt>
      <trkpt lat="47.95096" lon="-2.54561">
        <ele>33.2</ele>
        <time>2024-12-19T15:12:48Z</time>
      </trkpt>
      <trkpt lat="47.95096" lon="-2.54561">
        <ele>33.2</ele>
        <time>2024-12-19T15:12:49Z</time>
      </trkpt>
      <trkpt lat="47.95096" lon="-2.54562">
        <ele>33.1</ele>
        <time>2024-12-19T15:12:50Z</time>
      </trkpt>
      <trkpt lat="47.95096" lon="-2.54562">
        <ele>33.1</ele>
        <time>2024-12-19T15:12:51Z</time>
      </trkpt>
      <trkpt lat="47.95096" lon="-2.54562">
        <ele>33.1</ele>
        <time>2024-12-19T15:12:52Z</time>
      </trkpt>
      <trkpt lat="47.95096" lon="-2.54562">
        <ele>33.1</ele>
        <time>2024-12-19T15:12:53Z</time>
      </trkpt>
      <trkpt lat="47.95096" lon="-2.54562">
        <ele>33.1</ele>
        <time>2024-12-19T15:12:54Z</time>
      </trkpt>
      <trkpt lat="47.95096" lon="-2.54563">
        <ele>33.1</ele>
        <time>2024-12-19T15:12:55Z</time>
      </trkpt>
      <trkpt lat="47.95096" lon="-2.54563">
        <ele>33</ele>
        <time>2024-12-19T15:12:56Z</time>
      </trkpt>
      <trkpt lat="47.95096" lon="-2.54563">
        <ele>33</ele>
        <time>2024-12-19T15:12:57Z</time>
      </trkpt>
      <trkpt lat="47.95096" lon="-2.54563">
        <ele>33</ele>
        <time>2024-12-19T15:12:58Z</time>
      </trkpt>
      <trkpt lat="47.95096" lon="-2.54563">
        <ele>33</ele>
        <time>2024-12-19T15:12:59Z</time>
      </trkpt>
      <trkpt lat="47.95096" lon="-2.54563">
        <ele>33</ele>
        <time>2024-12-19T15:13:00Z</time>
      </trkpt>
      <trkpt lat="47.95096" lon="-2.54563">
        <ele>33</ele>
        <time>2024-12-19T15:13:01Z</time>
      </trkpt>
      <trkpt lat="47.95096" lon="-2.54563">
        <ele>33</ele>
        <time>2024-12-19T15:13:02Z</time>
      </trkpt>
      <trkpt lat="47.95096" lon="-2.54563">
        <ele>33</ele>
        <time>2024-12-19T15:13:03Z</time>
      </trkpt>
      <trkpt lat="47.95096" lon="-2.54563">
        <ele>33</ele>
        <time>2024-12-19T15:13:04Z</time>
      </trkpt>
      <trkpt lat="47.95096" lon="-2.54563">
        <ele>33</ele>
        <time>2024-12-19T15:13:05Z</time>
      </trkpt>
      <trkpt lat="47.95096" lon="-2.54563">
        <ele>33</ele>
        <time>2024-12-19T15:13:06Z</time>
      </trkpt>
      <trkpt lat="47.95096" lon="-2.54563">
        <ele>33</ele>
        <time>2024-12-19T15:13:07Z</time>
      </trkpt>
      <trkpt lat="47.95096" lon="-2.54563">
        <ele>33</ele>
        <time>2024-12-19T15:13:08Z</time>
      </trkpt>
      <trkpt lat="47.95096" lon="-2.54563">
        <ele>33</ele>
        <time>2024-12-19T15:13:09Z</time>
      </trkpt>
      <trkpt lat="47.95096" lon="-2.54563">
        <ele>33</ele>
        <time>2024-12-19T15:13:10Z</time>
      </trkpt>
      <trkpt lat="47.95096" lon="-2.54563">
        <ele>33</ele>
        <time>2024-12-19T15:13:11Z</time>
      </trkpt>
      <trkpt lat="47.95096" lon="-2.54563">
        <ele>33</ele>
        <time>2024-12-19T15:13:12Z</time>
      </trkpt>
      <trkpt lat="47.95096" lon="-2.54563">
        <ele>33</ele>
        <time>2024-12-19T15:13:13Z</time>
      </trkpt>
      <trkpt lat="47.95096" lon="-2.54563">
        <ele>33</ele>
        <time>2024-12-19T15:13:14Z</time>
      </trkpt>
      <trkpt lat="47.95096" lon="-2.54563">
        <ele>33</ele>
        <time>2024-12-19T15:13:15Z</time>
      </trkpt>
      <trkpt lat="47.95096" lon="-2.54563">
        <ele>33</ele>
        <time>2024-12-19T15:13:16Z</time>
      </trkpt>
      <trkpt lat="47.95096" lon="-2.54563">
        <ele>33</ele>
        <time>2024-12-19T15:13:17Z</time>
      </trkpt>
      <trkpt lat="47.95096" lon="-2.54563">
        <ele>33.1</ele>
        <time>2024-12-19T15:13:18Z</time>
      </trkpt>
      <trkpt lat="47.95096" lon="-2.54564">
        <ele>33</ele>
        <time>2024-12-19T15:13:19Z</time>
      </trkpt>
      <trkpt lat="47.95096" lon="-2.54565">
        <ele>32.9</ele>
        <time>2024-12-19T15:13:20Z</time>
      </trkpt>
      <trkpt lat="47.95096" lon="-2.54565">
        <ele>32.9</ele>
        <time>2024-12-19T15:13:22Z</time>
      </trkpt>
      <trkpt lat="47.95096" lon="-2.54565">
        <ele>32.9</ele>
        <time>2024-12-19T15:13:23Z</time>
      </trkpt>
      <trkpt lat="47.95096" lon="-2.54565">
        <ele>32.9</ele>
        <time>2024-12-19T15:13:24Z</time>
      </trkpt>
      <trkpt lat="47.95096" lon="-2.54565">
        <ele>32.9</ele>
        <time>2024-12-19T15:13:25Z</time>
      </trkpt>
      <trkpt lat="47.95096" lon="-2.54565">
        <ele>32.9</ele>
        <time>2024-12-19T15:13:26Z</time>
      </trkpt>
      <trkpt lat="47.95096" lon="-2.54565">
        <ele>32.9</ele>
        <time>2024-12-19T15:13:27Z</time>
      </trkpt>
      <trkpt lat="47.95096" lon="-2.54565">
        <ele>32.9</ele>
        <time>2024-12-19T15:13:28Z</time>
      </trkpt>
      <trkpt lat="47.95096" lon="-2.54565">
        <ele>32.9</ele>
        <time>2024-12-19T15:13:29Z</time>
      </trkpt>
      <trkpt lat="47.95096" lon="-2.54565">
        <ele>32.9</ele>
        <time>2024-12-19T15:13:30Z</time>
      </trkpt>
      <trkpt lat="47.95096" lon="-2.54565">
        <ele>32.9</ele>
        <time>2024-12-19T15:13:31Z</time>
      </trkpt>
      <trkpt lat="47.95096" lon="-2.54565">
        <ele>32.9</ele>
        <time>2024-12-19T15:13:32Z</time>
      </trkpt>
      <trkpt lat="47.95096" lon="-2.54565">
        <ele>32.9</ele>
        <time>2024-12-19T15:13:33Z</time>
      </trkpt>
      <trkpt lat="47.95096" lon="-2.54565">
        <ele>32.9</ele>
        <time>2024-12-19T15:13:34Z</time>
      </trkpt>
      <trkpt lat="47.95096" lon="-2.54565">
        <ele>32.9</ele>
        <time>2024-12-19T15:13:35Z</time>
      </trkpt>
      <trkpt lat="47.95096" lon="-2.54565">
        <ele>32.9</ele>
        <time>2024-12-19T15:13:36Z</time>
      </trkpt>
      <trkpt lat="47.95096" lon="-2.54565">
        <ele>32.9</ele>
        <time>2024-12-19T15:13:37Z</time>
      </trkpt>
      <trkpt lat="47.95096" lon="-2.54565">
        <ele>32.9</ele>
        <time>2024-12-19T15:13:38Z</time>
      </trkpt>
      <trkpt lat="47.95096" lon="-2.54565">
        <ele>32.9</ele>
        <time>2024-12-19T15:13:39Z</time>
      </trkpt>
      <trkpt lat="47.95096" lon="-2.54565">
        <ele>32.9</ele>
        <time>2024-12-19T15:13:40Z</time>
      </trkpt>
      <trkpt lat="47.95096" lon="-2.54565">
        <ele>32.9</ele>
        <time>2024-12-19T15:13:41Z</time>
      </trkpt>
      <trkpt lat="47.95096" lon="-2.54565">
        <ele>32.9</ele>
        <time>2024-12-19T15:13:42Z</time>
      </trkpt>
      <trkpt lat="47.95096" lon="-2.54565">
        <ele>32.9</ele>
        <time>2024-12-19T15:13:43Z</time>
      </trkpt>
      <trkpt lat="47.95096" lon="-2.54565">
        <ele>32.9</ele>
        <time>2024-12-19T15:13:44Z</time>
      </trkpt>
      <trkpt lat="47.95096" lon="-2.54565">
        <ele>32.9</ele>
        <time>2024-12-19T15:13:45Z</time>
      </trkpt>
      <trkpt lat="47.95096" lon="-2.54565">
        <ele>32.9</ele>
        <time>2024-12-19T15:13:46Z</time>
      </trkpt>
      <trkpt lat="47.95096" lon="-2.54565">
        <ele>32.9</ele>
        <time>2024-12-19T15:13:47Z</time>
      </trkpt>
      <trkpt lat="47.95096" lon="-2.54565">
        <ele>32.9</ele>
        <time>2024-12-19T15:13:48Z</time>
      </trkpt>
      <trkpt lat="47.95096" lon="-2.54565">
        <ele>32.9</ele>
        <time>2024-12-19T15:13:49Z</time>
      </trkpt>
      <trkpt lat="47.95096" lon="-2.54565">
        <ele>32.9</ele>
        <time>2024-12-19T15:13:50Z</time>
      </trkpt>
      <trkpt lat="47.95096" lon="-2.54565">
        <ele>32.9</ele>
        <time>2024-12-19T15:13:51Z</time>
      </trkpt>
      <trkpt lat="47.95096" lon="-2.54565">
        <ele>32.9</ele>
        <time>2024-12-19T15:13:52Z</time>
      </trkpt>
      <trkpt lat="47.95096" lon="-2.54565">
        <ele>32.9</ele>
        <time>2024-12-19T15:13:53Z</time>
      </trkpt>
      <trkpt lat="47.95096" lon="-2.54565">
        <ele>32.9</ele>
        <time>2024-12-19T15:13:54Z</time>
      </trkpt>
    </trkseg>
  </trk>
</gpx>